<?xml version="1.0" encoding="UTF-8"?>
<gpx version="1.1" creator="https://www.youtrack.es" xsi:schemaLocation="http://www.topografix.com/GPX/1/1 http://www.topografix.com/GPX/1/1/gpx.xsd http://www.garmin.com/xmlschemas/GpxExtensions/v3 http://www.garmin.com/xmlschemas/GpxExtensionsv3.xsd http://www.garmin.com/xmlschemas/TrackPointExtension/v1 http://www.garmin.com/xmlschemas/TrackPointExtensionv1.xsd" xmlns:gpxtpx="http://www.garmin.com/xmlschemas/TrackPointExtension/v1" xmlns:gpxx="http://www.garmin.com/xmlschemas/GpxExtensions/v3" xmlns:xsi="http://www.w3.org/2001/XMLSchema-instance">
  <metadata>
    <link href="https://www.youtrack.es">
      <text>YouTrack.es</text>
    </link>
    <time>2026-05-08T14:19:56Z</time>
  </metadata>
  <trk>
    <src>https://www.youtrack.es</src>
    <link href="https://www.youtrack.es/ruta/13073-asturies">
      <text>YouTrack.es</text>
    </link>
    <trkseg>
      <trkpt lat="43.387132" lon="-6.074398">
        <ele>75.394</ele>
        <time>2020-05-20T18:25:10Z</time>
      </trkpt>
      <trkpt lat="43.387130" lon="-6.074410">
        <ele>75.357</ele>
        <time>2020-05-20T18:25:30Z</time>
      </trkpt>
      <trkpt lat="43.387130" lon="-6.074420">
        <ele>75.322</ele>
        <time>2020-05-20T18:25:50Z</time>
      </trkpt>
      <trkpt lat="43.387130" lon="-6.074430">
        <ele>75.308</ele>
        <time>2020-05-20T18:26:10Z</time>
      </trkpt>
      <trkpt lat="43.387120" lon="-6.074430">
        <ele>75.373</ele>
        <time>2020-05-20T18:26:30Z</time>
      </trkpt>
      <trkpt lat="43.387120" lon="-6.074440">
        <ele>75.498</ele>
        <time>2020-05-20T18:26:50Z</time>
      </trkpt>
      <trkpt lat="43.387120" lon="-6.074450">
        <ele>75.455</ele>
        <time>2020-05-20T18:27:10Z</time>
      </trkpt>
      <trkpt lat="43.387110" lon="-6.074450">
        <ele>75.471</ele>
        <time>2020-05-20T18:27:30Z</time>
      </trkpt>
      <trkpt lat="43.387110" lon="-6.074460">
        <ele>75.490</ele>
        <time>2020-05-20T18:27:50Z</time>
      </trkpt>
      <trkpt lat="43.387100" lon="-6.074470">
        <ele>75.481</ele>
        <time>2020-05-20T18:28:10Z</time>
      </trkpt>
      <trkpt lat="43.387090" lon="-6.074480">
        <ele>75.590</ele>
        <time>2020-05-20T18:28:30Z</time>
      </trkpt>
      <trkpt lat="43.387080" lon="-6.074480">
        <ele>75.563</ele>
        <time>2020-05-20T18:28:50Z</time>
      </trkpt>
      <trkpt lat="43.387080" lon="-6.074490">
        <ele>75.516</ele>
        <time>2020-05-20T18:29:10Z</time>
      </trkpt>
      <trkpt lat="43.387070" lon="-6.074490">
        <ele>75.576</ele>
        <time>2020-05-20T18:29:30Z</time>
      </trkpt>
      <trkpt lat="43.387060" lon="-6.074490">
        <ele>75.613</ele>
        <time>2020-05-20T18:29:50Z</time>
      </trkpt>
      <trkpt lat="43.387050" lon="-6.074490">
        <ele>75.608</ele>
        <time>2020-05-20T18:30:10Z</time>
      </trkpt>
      <trkpt lat="43.387040" lon="-6.074490">
        <ele>75.715</ele>
        <time>2020-05-20T18:30:30Z</time>
      </trkpt>
      <trkpt lat="43.387040" lon="-6.074480">
        <ele>75.720</ele>
        <time>2020-05-20T18:30:50Z</time>
      </trkpt>
      <trkpt lat="43.387030" lon="-6.074480">
        <ele>75.737</ele>
        <time>2020-05-20T18:31:10Z</time>
      </trkpt>
      <trkpt lat="43.387020" lon="-6.074480">
        <ele>75.713</ele>
        <time>2020-05-20T18:31:30Z</time>
      </trkpt>
      <trkpt lat="43.387020" lon="-6.074470">
        <ele>75.772</ele>
        <time>2020-05-20T18:31:50Z</time>
      </trkpt>
      <trkpt lat="43.387010" lon="-6.074470">
        <ele>75.843</ele>
        <time>2020-05-20T18:32:10Z</time>
      </trkpt>
      <trkpt lat="43.387010" lon="-6.074460">
        <ele>75.842</ele>
        <time>2020-05-20T18:32:30Z</time>
      </trkpt>
      <trkpt lat="43.387000" lon="-6.074460">
        <ele>75.885</ele>
        <time>2020-05-20T18:32:50Z</time>
      </trkpt>
      <trkpt lat="43.387000" lon="-6.074450">
        <ele>75.852</ele>
        <time>2020-05-20T18:33:10Z</time>
      </trkpt>
      <trkpt lat="43.387000" lon="-6.074440">
        <ele>75.853</ele>
        <time>2020-05-20T18:33:30Z</time>
      </trkpt>
      <trkpt lat="43.386990" lon="-6.074440">
        <ele>75.808</ele>
        <time>2020-05-20T18:33:50Z</time>
      </trkpt>
      <trkpt lat="43.386990" lon="-6.074430">
        <ele>75.808</ele>
        <time>2020-05-20T18:34:10Z</time>
      </trkpt>
      <trkpt lat="43.386990" lon="-6.074420">
        <ele>75.829</ele>
        <time>2020-05-20T18:34:30Z</time>
      </trkpt>
      <trkpt lat="43.386990" lon="-6.074410">
        <ele>75.754</ele>
        <time>2020-05-20T18:34:50Z</time>
      </trkpt>
      <trkpt lat="43.386980" lon="-6.074410">
        <ele>75.891</ele>
        <time>2020-05-20T18:35:10Z</time>
      </trkpt>
      <trkpt lat="43.386980" lon="-6.074400">
        <ele>75.747</ele>
        <time>2020-05-20T18:35:30Z</time>
      </trkpt>
      <trkpt lat="43.386980" lon="-6.074390">
        <ele>75.766</ele>
        <time>2020-05-20T18:35:50Z</time>
      </trkpt>
      <trkpt lat="43.386980" lon="-6.074380">
        <ele>75.757</ele>
        <time>2020-05-20T18:36:10Z</time>
      </trkpt>
      <trkpt lat="43.386980" lon="-6.074370">
        <ele>75.626</ele>
        <time>2020-05-20T18:36:30Z</time>
      </trkpt>
      <trkpt lat="43.386990" lon="-6.074360">
        <ele>75.699</ele>
        <time>2020-05-20T18:36:50Z</time>
      </trkpt>
      <trkpt lat="43.386990" lon="-6.074350">
        <ele>75.647</ele>
        <time>2020-05-20T18:37:10Z</time>
      </trkpt>
      <trkpt lat="43.386990" lon="-6.074340">
        <ele>75.529</ele>
        <time>2020-05-20T18:37:30Z</time>
      </trkpt>
      <trkpt lat="43.387000" lon="-6.074330">
        <ele>75.521</ele>
        <time>2020-05-20T18:37:50Z</time>
      </trkpt>
      <trkpt lat="43.386995" lon="-6.074332">
        <ele>75.508</ele>
        <time>2020-05-20T18:38:10Z</time>
      </trkpt>
      <trkpt lat="43.386930" lon="-6.074280">
        <ele>75.438</ele>
        <time>2020-05-20T18:38:30Z</time>
      </trkpt>
      <trkpt lat="43.386830" lon="-6.074210">
        <ele>75.283</ele>
        <time>2020-05-20T18:38:50Z</time>
      </trkpt>
      <trkpt lat="43.386680" lon="-6.074100">
        <ele>75.230</ele>
        <time>2020-05-20T18:39:10Z</time>
      </trkpt>
      <trkpt lat="43.386500" lon="-6.073980">
        <ele>75.346</ele>
        <time>2020-05-20T18:39:30Z</time>
      </trkpt>
      <trkpt lat="43.386480" lon="-6.073970">
        <ele>75.225</ele>
        <time>2020-05-20T18:39:50Z</time>
      </trkpt>
      <trkpt lat="43.386180" lon="-6.073770">
        <ele>75.076</ele>
        <time>2020-05-20T18:40:10Z</time>
      </trkpt>
      <trkpt lat="43.386180" lon="-6.073760">
        <ele>74.915</ele>
        <time>2020-05-20T18:40:30Z</time>
      </trkpt>
      <trkpt lat="43.385860" lon="-6.073530">
        <ele>73.488</ele>
        <time>2020-05-20T18:40:50Z</time>
      </trkpt>
      <trkpt lat="43.385780" lon="-6.073480">
        <ele>72.793</ele>
        <time>2020-05-20T18:41:10Z</time>
      </trkpt>
      <trkpt lat="43.385700" lon="-6.073430">
        <ele>71.765</ele>
        <time>2020-05-20T18:41:30Z</time>
      </trkpt>
      <trkpt lat="43.385660" lon="-6.073410">
        <ele>71.321</ele>
        <time>2020-05-20T18:41:50Z</time>
      </trkpt>
      <trkpt lat="43.385570" lon="-6.073350">
        <ele>70.208</ele>
        <time>2020-05-20T18:42:10Z</time>
      </trkpt>
      <trkpt lat="43.385510" lon="-6.073300">
        <ele>70.033</ele>
        <time>2020-05-20T18:42:30Z</time>
      </trkpt>
      <trkpt lat="43.385410" lon="-6.073240">
        <ele>70.238</ele>
        <time>2020-05-20T18:42:50Z</time>
      </trkpt>
      <trkpt lat="43.385080" lon="-6.073010">
        <ele>70.655</ele>
        <time>2020-05-20T18:43:10Z</time>
      </trkpt>
      <trkpt lat="43.384890" lon="-6.072880">
        <ele>70.271</ele>
        <time>2020-05-20T18:43:30Z</time>
      </trkpt>
      <trkpt lat="43.384220" lon="-6.072430">
        <ele>69.790</ele>
        <time>2020-05-20T18:43:50Z</time>
      </trkpt>
      <trkpt lat="43.383540" lon="-6.071950">
        <ele>68.541</ele>
        <time>2020-05-20T18:44:10Z</time>
      </trkpt>
      <trkpt lat="43.383490" lon="-6.071910">
        <ele>67.950</ele>
        <time>2020-05-20T18:44:30Z</time>
      </trkpt>
      <trkpt lat="43.383420" lon="-6.071870">
        <ele>67.363</ele>
        <time>2020-05-20T18:44:50Z</time>
      </trkpt>
      <trkpt lat="43.383390" lon="-6.071860">
        <ele>67.055</ele>
        <time>2020-05-20T18:45:10Z</time>
      </trkpt>
      <trkpt lat="43.383350" lon="-6.071840">
        <ele>66.707</ele>
        <time>2020-05-20T18:45:30Z</time>
      </trkpt>
      <trkpt lat="43.383300" lon="-6.071820">
        <ele>66.617</ele>
        <time>2020-05-20T18:45:50Z</time>
      </trkpt>
      <trkpt lat="43.383295" lon="-6.071824">
        <ele>66.608</ele>
        <time>2020-05-20T18:46:10Z</time>
      </trkpt>
      <trkpt lat="43.383160" lon="-6.071800">
        <ele>66.569</ele>
        <time>2020-05-20T18:46:30Z</time>
      </trkpt>
      <trkpt lat="43.382920" lon="-6.071770">
        <ele>66.974</ele>
        <time>2020-05-20T18:46:50Z</time>
      </trkpt>
      <trkpt lat="43.382910" lon="-6.071770">
        <ele>66.981</ele>
        <time>2020-05-20T18:47:10Z</time>
      </trkpt>
      <trkpt lat="43.382750" lon="-6.071750">
        <ele>67.277</ele>
        <time>2020-05-20T18:47:30Z</time>
      </trkpt>
      <trkpt lat="43.382690" lon="-6.071740">
        <ele>66.936</ele>
        <time>2020-05-20T18:47:50Z</time>
      </trkpt>
      <trkpt lat="43.382630" lon="-6.071750">
        <ele>66.827</ele>
        <time>2020-05-20T18:48:10Z</time>
      </trkpt>
      <trkpt lat="43.382520" lon="-6.071770">
        <ele>66.446</ele>
        <time>2020-05-20T18:48:30Z</time>
      </trkpt>
      <trkpt lat="43.382480" lon="-6.071780">
        <ele>66.229</ele>
        <time>2020-05-20T18:48:50Z</time>
      </trkpt>
      <trkpt lat="43.382300" lon="-6.071820">
        <ele>64.715</ele>
        <time>2020-05-20T18:49:10Z</time>
      </trkpt>
      <trkpt lat="43.382100" lon="-6.071890">
        <ele>63.665</ele>
        <time>2020-05-20T18:49:30Z</time>
      </trkpt>
      <trkpt lat="43.381980" lon="-6.071900">
        <ele>63.311</ele>
        <time>2020-05-20T18:49:50Z</time>
      </trkpt>
      <trkpt lat="43.381880" lon="-6.071920">
        <ele>63.508</ele>
        <time>2020-05-20T18:50:10Z</time>
      </trkpt>
      <trkpt lat="43.381780" lon="-6.071920">
        <ele>64.245</ele>
        <time>2020-05-20T18:50:30Z</time>
      </trkpt>
      <trkpt lat="43.381700" lon="-6.071920">
        <ele>64.810</ele>
        <time>2020-05-20T18:50:50Z</time>
      </trkpt>
      <trkpt lat="43.381590" lon="-6.071910">
        <ele>65.847</ele>
        <time>2020-05-20T18:51:10Z</time>
      </trkpt>
      <trkpt lat="43.381480" lon="-6.071900">
        <ele>66.973</ele>
        <time>2020-05-20T18:51:30Z</time>
      </trkpt>
      <trkpt lat="43.381350" lon="-6.071880">
        <ele>67.972</ele>
        <time>2020-05-20T18:51:50Z</time>
      </trkpt>
      <trkpt lat="43.381060" lon="-6.071830">
        <ele>68.483</ele>
        <time>2020-05-20T18:52:10Z</time>
      </trkpt>
      <trkpt lat="43.381063" lon="-6.071833">
        <ele>68.452</ele>
        <time>2020-05-20T18:52:30Z</time>
      </trkpt>
      <trkpt lat="43.380740" lon="-6.071770">
        <ele>69.175</ele>
        <time>2020-05-20T18:52:50Z</time>
      </trkpt>
      <trkpt lat="43.380570" lon="-6.071740">
        <ele>69.571</ele>
        <time>2020-05-20T18:53:10Z</time>
      </trkpt>
      <trkpt lat="43.380380" lon="-6.071700">
        <ele>69.241</ele>
        <time>2020-05-20T18:53:30Z</time>
      </trkpt>
      <trkpt lat="43.380280" lon="-6.071680">
        <ele>69.115</ele>
        <time>2020-05-20T18:53:50Z</time>
      </trkpt>
      <trkpt lat="43.380230" lon="-6.071680">
        <ele>69.108</ele>
        <time>2020-05-20T18:54:10Z</time>
      </trkpt>
      <trkpt lat="43.380210" lon="-6.071680">
        <ele>69.111</ele>
        <time>2020-05-20T18:54:30Z</time>
      </trkpt>
      <trkpt lat="43.380140" lon="-6.071680">
        <ele>69.136</ele>
        <time>2020-05-20T18:54:50Z</time>
      </trkpt>
      <trkpt lat="43.380120" lon="-6.071690">
        <ele>69.293</ele>
        <time>2020-05-20T18:55:10Z</time>
      </trkpt>
      <trkpt lat="43.380040" lon="-6.071700">
        <ele>69.289</ele>
        <time>2020-05-20T18:55:30Z</time>
      </trkpt>
      <trkpt lat="43.380030" lon="-6.071700">
        <ele>69.268</ele>
        <time>2020-05-20T18:55:50Z</time>
      </trkpt>
      <trkpt lat="43.379940" lon="-6.071710">
        <ele>69.519</ele>
        <time>2020-05-20T18:56:10Z</time>
      </trkpt>
      <trkpt lat="43.379680" lon="-6.071780">
        <ele>71.078</ele>
        <time>2020-05-20T18:56:30Z</time>
      </trkpt>
      <trkpt lat="43.379620" lon="-6.071790">
        <ele>71.491</ele>
        <time>2020-05-20T18:56:50Z</time>
      </trkpt>
      <trkpt lat="43.379500" lon="-6.071820">
        <ele>72.338</ele>
        <time>2020-05-20T18:57:10Z</time>
      </trkpt>
      <trkpt lat="43.379320" lon="-6.071860">
        <ele>73.470</ele>
        <time>2020-05-20T18:57:30Z</time>
      </trkpt>
      <trkpt lat="43.379280" lon="-6.071870">
        <ele>73.617</ele>
        <time>2020-05-20T18:57:50Z</time>
      </trkpt>
      <trkpt lat="43.379140" lon="-6.071890">
        <ele>74.108</ele>
        <time>2020-05-20T18:58:10Z</time>
      </trkpt>
      <trkpt lat="43.378820" lon="-6.071950">
        <ele>73.927</ele>
        <time>2020-05-20T18:58:30Z</time>
      </trkpt>
      <trkpt lat="43.378430" lon="-6.072040">
        <ele>73.262</ele>
        <time>2020-05-20T18:58:50Z</time>
      </trkpt>
      <trkpt lat="43.378130" lon="-6.072090">
        <ele>72.459</ele>
        <time>2020-05-20T18:59:10Z</time>
      </trkpt>
      <trkpt lat="43.377720" lon="-6.072170">
        <ele>69.375</ele>
        <time>2020-05-20T18:59:30Z</time>
      </trkpt>
      <trkpt lat="43.377470" lon="-6.072200">
        <ele>66.024</ele>
        <time>2020-05-20T18:59:50Z</time>
      </trkpt>
      <trkpt lat="43.377460" lon="-6.072200">
        <ele>66.195</ele>
        <time>2020-05-20T19:00:10Z</time>
      </trkpt>
      <trkpt lat="43.377430" lon="-6.072220">
        <ele>66.254</ele>
        <time>2020-05-20T19:00:30Z</time>
      </trkpt>
      <trkpt lat="43.377410" lon="-6.072230">
        <ele>66.477</ele>
        <time>2020-05-20T19:00:50Z</time>
      </trkpt>
      <trkpt lat="43.377380" lon="-6.072240">
        <ele>66.785</ele>
        <time>2020-05-20T19:01:10Z</time>
      </trkpt>
      <trkpt lat="43.377350" lon="-6.072260">
        <ele>67.189</ele>
        <time>2020-05-20T19:01:30Z</time>
      </trkpt>
      <trkpt lat="43.377320" lon="-6.072280">
        <ele>67.517</ele>
        <time>2020-05-20T19:01:50Z</time>
      </trkpt>
      <trkpt lat="43.377220" lon="-6.072360">
        <ele>69.008</ele>
        <time>2020-05-20T19:02:10Z</time>
      </trkpt>
      <trkpt lat="43.377110" lon="-6.072440">
        <ele>70.292</ele>
        <time>2020-05-20T19:02:30Z</time>
      </trkpt>
      <trkpt lat="43.377020" lon="-6.072510">
        <ele>71.277</ele>
        <time>2020-05-20T19:02:50Z</time>
      </trkpt>
      <trkpt lat="43.376980" lon="-6.072550">
        <ele>72.114</ele>
        <time>2020-05-20T19:03:10Z</time>
      </trkpt>
      <trkpt lat="43.376970" lon="-6.072550">
        <ele>72.190</ele>
        <time>2020-05-20T19:03:30Z</time>
      </trkpt>
      <trkpt lat="43.376910" lon="-6.072590">
        <ele>73.139</ele>
        <time>2020-05-20T19:03:50Z</time>
      </trkpt>
      <trkpt lat="43.376850" lon="-6.072620">
        <ele>73.870</ele>
        <time>2020-05-20T19:04:10Z</time>
      </trkpt>
      <trkpt lat="43.376780" lon="-6.072660">
        <ele>74.629</ele>
        <time>2020-05-20T19:04:30Z</time>
      </trkpt>
      <trkpt lat="43.376680" lon="-6.072710">
        <ele>75.382</ele>
        <time>2020-05-20T19:04:50Z</time>
      </trkpt>
      <trkpt lat="43.376620" lon="-6.072740">
        <ele>75.884</ele>
        <time>2020-05-20T19:05:10Z</time>
      </trkpt>
      <trkpt lat="43.376540" lon="-6.072770">
        <ele>76.407</ele>
        <time>2020-05-20T19:05:30Z</time>
      </trkpt>
      <trkpt lat="43.376460" lon="-6.072790">
        <ele>76.917</ele>
        <time>2020-05-20T19:05:50Z</time>
      </trkpt>
      <trkpt lat="43.376380" lon="-6.072810">
        <ele>77.508</ele>
        <time>2020-05-20T19:06:10Z</time>
      </trkpt>
      <trkpt lat="43.376270" lon="-6.072820">
        <ele>77.772</ele>
        <time>2020-05-20T19:06:30Z</time>
      </trkpt>
      <trkpt lat="43.376150" lon="-6.072830">
        <ele>77.987</ele>
        <time>2020-05-20T19:06:50Z</time>
      </trkpt>
      <trkpt lat="43.376030" lon="-6.072820">
        <ele>77.814</ele>
        <time>2020-05-20T19:07:10Z</time>
      </trkpt>
      <trkpt lat="43.375960" lon="-6.072830">
        <ele>77.910</ele>
        <time>2020-05-20T19:07:30Z</time>
      </trkpt>
      <trkpt lat="43.375930" lon="-6.072830">
        <ele>77.989</ele>
        <time>2020-05-20T19:07:50Z</time>
      </trkpt>
      <trkpt lat="43.375890" lon="-6.072850">
        <ele>78.310</ele>
        <time>2020-05-20T19:08:10Z</time>
      </trkpt>
      <trkpt lat="43.375850" lon="-6.072880">
        <ele>78.839</ele>
        <time>2020-05-20T19:08:30Z</time>
      </trkpt>
      <trkpt lat="43.375780" lon="-6.072910">
        <ele>78.972</ele>
        <time>2020-05-20T19:08:50Z</time>
      </trkpt>
      <trkpt lat="43.375730" lon="-6.072950">
        <ele>79.124</ele>
        <time>2020-05-20T19:09:10Z</time>
      </trkpt>
      <trkpt lat="43.375580" lon="-6.073070">
        <ele>79.404</ele>
        <time>2020-05-20T19:09:30Z</time>
      </trkpt>
      <trkpt lat="43.375540" lon="-6.073100">
        <ele>79.014</ele>
        <time>2020-05-20T19:09:50Z</time>
      </trkpt>
      <trkpt lat="43.375450" lon="-6.073160">
        <ele>77.908</ele>
        <time>2020-05-20T19:10:10Z</time>
      </trkpt>
      <trkpt lat="43.375280" lon="-6.073260">
        <ele>75.566</ele>
        <time>2020-05-20T19:10:30Z</time>
      </trkpt>
      <trkpt lat="43.375130" lon="-6.073320">
        <ele>75.971</ele>
        <time>2020-05-20T19:10:50Z</time>
      </trkpt>
      <trkpt lat="43.374990" lon="-6.073360">
        <ele>76.538</ele>
        <time>2020-05-20T19:11:10Z</time>
      </trkpt>
      <trkpt lat="43.374930" lon="-6.073380">
        <ele>77.274</ele>
        <time>2020-05-20T19:11:30Z</time>
      </trkpt>
      <trkpt lat="43.374890" lon="-6.073380">
        <ele>77.553</ele>
        <time>2020-05-20T19:11:50Z</time>
      </trkpt>
      <trkpt lat="43.374790" lon="-6.073400">
        <ele>78.584</ele>
        <time>2020-05-20T19:12:10Z</time>
      </trkpt>
      <trkpt lat="43.374760" lon="-6.073390">
        <ele>78.543</ele>
        <time>2020-05-20T19:12:30Z</time>
      </trkpt>
      <trkpt lat="43.374640" lon="-6.073380">
        <ele>78.696</ele>
        <time>2020-05-20T19:12:50Z</time>
      </trkpt>
      <trkpt lat="43.374580" lon="-6.073360">
        <ele>78.191</ele>
        <time>2020-05-20T19:13:10Z</time>
      </trkpt>
      <trkpt lat="43.374480" lon="-6.073330">
        <ele>77.181</ele>
        <time>2020-05-20T19:13:30Z</time>
      </trkpt>
      <trkpt lat="43.373940" lon="-6.073120">
        <ele>69.819</ele>
        <time>2020-05-20T19:13:50Z</time>
      </trkpt>
      <trkpt lat="43.373670" lon="-6.073010">
        <ele>68.008</ele>
        <time>2020-05-20T19:14:10Z</time>
      </trkpt>
      <trkpt lat="43.373460" lon="-6.072930">
        <ele>67.583</ele>
        <time>2020-05-20T19:14:30Z</time>
      </trkpt>
      <trkpt lat="43.373250" lon="-6.072860">
        <ele>67.718</ele>
        <time>2020-05-20T19:14:50Z</time>
      </trkpt>
      <trkpt lat="43.373130" lon="-6.072810">
        <ele>67.985</ele>
        <time>2020-05-20T19:15:10Z</time>
      </trkpt>
      <trkpt lat="43.373030" lon="-6.072770">
        <ele>68.291</ele>
        <time>2020-05-20T19:15:30Z</time>
      </trkpt>
      <trkpt lat="43.372920" lon="-6.072700">
        <ele>68.840</ele>
        <time>2020-05-20T19:15:50Z</time>
      </trkpt>
      <trkpt lat="43.372810" lon="-6.072620">
        <ele>69.311</ele>
        <time>2020-05-20T19:16:10Z</time>
      </trkpt>
      <trkpt lat="43.372760" lon="-6.072580">
        <ele>69.410</ele>
        <time>2020-05-20T19:16:30Z</time>
      </trkpt>
      <trkpt lat="43.372460" lon="-6.072270">
        <ele>69.443</ele>
        <time>2020-05-20T19:16:50Z</time>
      </trkpt>
      <trkpt lat="43.372290" lon="-6.072100">
        <ele>69.064</ele>
        <time>2020-05-20T19:17:10Z</time>
      </trkpt>
      <trkpt lat="43.372230" lon="-6.072040">
        <ele>68.706</ele>
        <time>2020-05-20T19:17:30Z</time>
      </trkpt>
      <trkpt lat="43.372080" lon="-6.071890">
        <ele>66.816</ele>
        <time>2020-05-20T19:17:50Z</time>
      </trkpt>
      <trkpt lat="43.371920" lon="-6.071770">
        <ele>66.008</ele>
        <time>2020-05-20T19:18:10Z</time>
      </trkpt>
      <trkpt lat="43.371890" lon="-6.071750">
        <ele>66.170</ele>
        <time>2020-05-20T19:18:30Z</time>
      </trkpt>
      <trkpt lat="43.371720" lon="-6.071640">
        <ele>66.115</ele>
        <time>2020-05-20T19:18:50Z</time>
      </trkpt>
      <trkpt lat="43.371570" lon="-6.071570">
        <ele>66.642</ele>
        <time>2020-05-20T19:19:10Z</time>
      </trkpt>
      <trkpt lat="43.371360" lon="-6.071490">
        <ele>67.188</ele>
        <time>2020-05-20T19:19:30Z</time>
      </trkpt>
      <trkpt lat="43.371120" lon="-6.071470">
        <ele>68.317</ele>
        <time>2020-05-20T19:19:50Z</time>
      </trkpt>
      <trkpt lat="43.370960" lon="-6.071450">
        <ele>69.798</ele>
        <time>2020-05-20T19:20:10Z</time>
      </trkpt>
      <trkpt lat="43.370720" lon="-6.071440">
        <ele>71.677</ele>
        <time>2020-05-20T19:20:30Z</time>
      </trkpt>
      <trkpt lat="43.370510" lon="-6.071430">
        <ele>72.510</ele>
        <time>2020-05-20T19:20:50Z</time>
      </trkpt>
      <trkpt lat="43.370360" lon="-6.071410">
        <ele>72.942</ele>
        <time>2020-05-20T19:21:10Z</time>
      </trkpt>
      <trkpt lat="43.370230" lon="-6.071370">
        <ele>73.322</ele>
        <time>2020-05-20T19:21:30Z</time>
      </trkpt>
      <trkpt lat="43.370170" lon="-6.071360">
        <ele>73.714</ele>
        <time>2020-05-20T19:21:50Z</time>
      </trkpt>
      <trkpt lat="43.370080" lon="-6.071330">
        <ele>74.308</ele>
        <time>2020-05-20T19:22:10Z</time>
      </trkpt>
      <trkpt lat="43.370050" lon="-6.071310">
        <ele>74.428</ele>
        <time>2020-05-20T19:22:30Z</time>
      </trkpt>
      <trkpt lat="43.369910" lon="-6.071250">
        <ele>75.013</ele>
        <time>2020-05-20T19:22:50Z</time>
      </trkpt>
      <trkpt lat="43.369740" lon="-6.071170">
        <ele>75.320</ele>
        <time>2020-05-20T19:23:10Z</time>
      </trkpt>
      <trkpt lat="43.369590" lon="-6.071100">
        <ele>75.446</ele>
        <time>2020-05-20T19:23:30Z</time>
      </trkpt>
      <trkpt lat="43.369530" lon="-6.071090">
        <ele>75.585</ele>
        <time>2020-05-20T19:23:50Z</time>
      </trkpt>
      <trkpt lat="43.369450" lon="-6.071070">
        <ele>75.776</ele>
        <time>2020-05-20T19:24:10Z</time>
      </trkpt>
      <trkpt lat="43.369350" lon="-6.071040">
        <ele>76.425</ele>
        <time>2020-05-20T19:24:30Z</time>
      </trkpt>
      <trkpt lat="43.369300" lon="-6.071020">
        <ele>76.748</ele>
        <time>2020-05-20T19:24:50Z</time>
      </trkpt>
      <trkpt lat="43.369280" lon="-6.071020">
        <ele>76.911</ele>
        <time>2020-05-20T19:25:10Z</time>
      </trkpt>
      <trkpt lat="43.369180" lon="-6.071000">
        <ele>77.721</ele>
        <time>2020-05-20T19:25:30Z</time>
      </trkpt>
      <trkpt lat="43.369060" lon="-6.070980">
        <ele>77.903</ele>
        <time>2020-05-20T19:25:50Z</time>
      </trkpt>
      <trkpt lat="43.368830" lon="-6.070880">
        <ele>78.208</ele>
        <time>2020-05-20T19:26:10Z</time>
      </trkpt>
      <trkpt lat="43.368750" lon="-6.070850">
        <ele>78.115</ele>
        <time>2020-05-20T19:26:30Z</time>
      </trkpt>
      <trkpt lat="43.368670" lon="-6.070800">
        <ele>77.950</ele>
        <time>2020-05-20T19:26:50Z</time>
      </trkpt>
      <trkpt lat="43.368580" lon="-6.070750">
        <ele>77.737</ele>
        <time>2020-05-20T19:27:10Z</time>
      </trkpt>
      <trkpt lat="43.368510" lon="-6.070700">
        <ele>77.593</ele>
        <time>2020-05-20T19:27:30Z</time>
      </trkpt>
      <trkpt lat="43.368430" lon="-6.070650">
        <ele>77.382</ele>
        <time>2020-05-20T19:27:50Z</time>
      </trkpt>
      <trkpt lat="43.368350" lon="-6.070590">
        <ele>77.183</ele>
        <time>2020-05-20T19:28:10Z</time>
      </trkpt>
      <trkpt lat="43.368200" lon="-6.070490">
        <ele>76.622</ele>
        <time>2020-05-20T19:28:30Z</time>
      </trkpt>
      <trkpt lat="43.368090" lon="-6.070430">
        <ele>76.575</ele>
        <time>2020-05-20T19:28:50Z</time>
      </trkpt>
      <trkpt lat="43.368010" lon="-6.070370">
        <ele>76.146</ele>
        <time>2020-05-20T19:29:10Z</time>
      </trkpt>
      <trkpt lat="43.367940" lon="-6.070330">
        <ele>75.488</ele>
        <time>2020-05-20T19:29:30Z</time>
      </trkpt>
      <trkpt lat="43.367920" lon="-6.070310">
        <ele>75.216</ele>
        <time>2020-05-20T19:29:50Z</time>
      </trkpt>
      <trkpt lat="43.367900" lon="-6.070290">
        <ele>74.908</ele>
        <time>2020-05-20T19:30:10Z</time>
      </trkpt>
      <trkpt lat="43.367870" lon="-6.070250">
        <ele>74.588</ele>
        <time>2020-05-20T19:30:30Z</time>
      </trkpt>
      <trkpt lat="43.367860" lon="-6.070230">
        <ele>74.313</ele>
        <time>2020-05-20T19:30:50Z</time>
      </trkpt>
      <trkpt lat="43.367850" lon="-6.070210">
        <ele>74.140</ele>
        <time>2020-05-20T19:31:10Z</time>
      </trkpt>
      <trkpt lat="43.367850" lon="-6.070200">
        <ele>74.186</ele>
        <time>2020-05-20T19:31:30Z</time>
      </trkpt>
      <trkpt lat="43.367850" lon="-6.070180">
        <ele>74.045</ele>
        <time>2020-05-20T19:31:50Z</time>
      </trkpt>
      <trkpt lat="43.367840" lon="-6.070160">
        <ele>73.886</ele>
        <time>2020-05-20T19:32:10Z</time>
      </trkpt>
      <trkpt lat="43.367840" lon="-6.070140">
        <ele>73.795</ele>
        <time>2020-05-20T19:32:30Z</time>
      </trkpt>
      <trkpt lat="43.367840" lon="-6.070120">
        <ele>73.638</ele>
        <time>2020-05-20T19:32:50Z</time>
      </trkpt>
      <trkpt lat="43.367840" lon="-6.070100">
        <ele>73.585</ele>
        <time>2020-05-20T19:33:10Z</time>
      </trkpt>
      <trkpt lat="43.367850" lon="-6.070080">
        <ele>73.489</ele>
        <time>2020-05-20T19:33:30Z</time>
      </trkpt>
      <trkpt lat="43.367860" lon="-6.070000">
        <ele>73.017</ele>
        <time>2020-05-20T19:33:50Z</time>
      </trkpt>
      <trkpt lat="43.367870" lon="-6.069910">
        <ele>72.708</ele>
        <time>2020-05-20T19:34:10Z</time>
      </trkpt>
      <trkpt lat="43.367890" lon="-6.069830">
        <ele>72.452</ele>
        <time>2020-05-20T19:34:30Z</time>
      </trkpt>
      <trkpt lat="43.367890" lon="-6.069770">
        <ele>72.217</ele>
        <time>2020-05-20T19:34:50Z</time>
      </trkpt>
      <trkpt lat="43.367890" lon="-6.069750">
        <ele>72.124</ele>
        <time>2020-05-20T19:35:10Z</time>
      </trkpt>
      <trkpt lat="43.367890" lon="-6.069740">
        <ele>72.130</ele>
        <time>2020-05-20T19:35:30Z</time>
      </trkpt>
      <trkpt lat="43.367890" lon="-6.069730">
        <ele>72.079</ele>
        <time>2020-05-20T19:35:50Z</time>
      </trkpt>
      <trkpt lat="43.367890" lon="-6.069710">
        <ele>72.110</ele>
        <time>2020-05-20T19:36:10Z</time>
      </trkpt>
      <trkpt lat="43.367890" lon="-6.069690">
        <ele>72.269</ele>
        <time>2020-05-20T19:36:30Z</time>
      </trkpt>
      <trkpt lat="43.367890" lon="-6.069680">
        <ele>72.332</ele>
        <time>2020-05-20T19:36:50Z</time>
      </trkpt>
      <trkpt lat="43.367880" lon="-6.069660">
        <ele>72.414</ele>
        <time>2020-05-20T19:37:10Z</time>
      </trkpt>
      <trkpt lat="43.367880" lon="-6.069650">
        <ele>72.554</ele>
        <time>2020-05-20T19:37:30Z</time>
      </trkpt>
      <trkpt lat="43.367870" lon="-6.069630">
        <ele>72.609</ele>
        <time>2020-05-20T19:37:50Z</time>
      </trkpt>
      <trkpt lat="43.367860" lon="-6.069600">
        <ele>72.708</ele>
        <time>2020-05-20T19:38:10Z</time>
      </trkpt>
      <trkpt lat="43.367840" lon="-6.069560">
        <ele>72.855</ele>
        <time>2020-05-20T19:38:30Z</time>
      </trkpt>
      <trkpt lat="43.367790" lon="-6.069500">
        <ele>72.980</ele>
        <time>2020-05-20T19:38:50Z</time>
      </trkpt>
      <trkpt lat="43.367740" lon="-6.069420">
        <ele>73.837</ele>
        <time>2020-05-20T19:39:10Z</time>
      </trkpt>
      <trkpt lat="43.367650" lon="-6.069310">
        <ele>75.963</ele>
        <time>2020-05-20T19:39:30Z</time>
      </trkpt>
      <trkpt lat="43.367610" lon="-6.069250">
        <ele>76.762</ele>
        <time>2020-05-20T19:39:50Z</time>
      </trkpt>
      <trkpt lat="43.367580" lon="-6.069210">
        <ele>77.153</ele>
        <time>2020-05-20T19:40:10Z</time>
      </trkpt>
      <trkpt lat="43.367550" lon="-6.069170">
        <ele>77.382</ele>
        <time>2020-05-20T19:40:30Z</time>
      </trkpt>
      <trkpt lat="43.367510" lon="-6.069130">
        <ele>77.955</ele>
        <time>2020-05-20T19:40:50Z</time>
      </trkpt>
      <trkpt lat="43.367450" lon="-6.069080">
        <ele>78.828</ele>
        <time>2020-05-20T19:41:10Z</time>
      </trkpt>
      <trkpt lat="43.367390" lon="-6.069050">
        <ele>79.489</ele>
        <time>2020-05-20T19:41:30Z</time>
      </trkpt>
      <trkpt lat="43.367350" lon="-6.069020">
        <ele>79.917</ele>
        <time>2020-05-20T19:41:50Z</time>
      </trkpt>
      <trkpt lat="43.367340" lon="-6.069020">
        <ele>79.908</ele>
        <time>2020-05-20T19:42:10Z</time>
      </trkpt>
      <trkpt lat="43.367260" lon="-6.068990">
        <ele>80.316</ele>
        <time>2020-05-20T19:42:30Z</time>
      </trkpt>
      <trkpt lat="43.367260" lon="-6.068980">
        <ele>80.511</ele>
        <time>2020-05-20T19:42:50Z</time>
      </trkpt>
      <trkpt lat="43.367160" lon="-6.068960">
        <ele>80.078</ele>
        <time>2020-05-20T19:43:10Z</time>
      </trkpt>
      <trkpt lat="43.367040" lon="-6.068930">
        <ele>78.934</ele>
        <time>2020-05-20T19:43:30Z</time>
      </trkpt>
      <trkpt lat="43.366890" lon="-6.068900">
        <ele>78.143</ele>
        <time>2020-05-20T19:43:50Z</time>
      </trkpt>
      <trkpt lat="43.366760" lon="-6.068870">
        <ele>78.864</ele>
        <time>2020-05-20T19:44:10Z</time>
      </trkpt>
      <trkpt lat="43.366660" lon="-6.068820">
        <ele>79.473</ele>
        <time>2020-05-20T19:44:30Z</time>
      </trkpt>
      <trkpt lat="43.366560" lon="-6.068780">
        <ele>78.966</ele>
        <time>2020-05-20T19:44:50Z</time>
      </trkpt>
      <trkpt lat="43.366440" lon="-6.068730">
        <ele>78.612</ele>
        <time>2020-05-20T19:45:10Z</time>
      </trkpt>
      <trkpt lat="43.366350" lon="-6.068700">
        <ele>78.732</ele>
        <time>2020-05-20T19:45:30Z</time>
      </trkpt>
      <trkpt lat="43.366280" lon="-6.068690">
        <ele>78.805</ele>
        <time>2020-05-20T19:45:50Z</time>
      </trkpt>
      <trkpt lat="43.366190" lon="-6.068690">
        <ele>78.708</ele>
        <time>2020-05-20T19:46:10Z</time>
      </trkpt>
      <trkpt lat="43.366020" lon="-6.068720">
        <ele>78.425</ele>
        <time>2020-05-20T19:46:30Z</time>
      </trkpt>
      <trkpt lat="43.365870" lon="-6.068750">
        <ele>78.830</ele>
        <time>2020-05-20T19:46:50Z</time>
      </trkpt>
      <trkpt lat="43.365780" lon="-6.068780">
        <ele>79.577</ele>
        <time>2020-05-20T19:47:10Z</time>
      </trkpt>
      <trkpt lat="43.365720" lon="-6.068790">
        <ele>80.113</ele>
        <time>2020-05-20T19:47:30Z</time>
      </trkpt>
      <trkpt lat="43.365590" lon="-6.068840">
        <ele>80.752</ele>
        <time>2020-05-20T19:47:50Z</time>
      </trkpt>
      <trkpt lat="43.365420" lon="-6.068880">
        <ele>82.283</ele>
        <time>2020-05-20T19:48:10Z</time>
      </trkpt>
      <trkpt lat="43.365290" lon="-6.068920">
        <ele>83.352</ele>
        <time>2020-05-20T19:48:30Z</time>
      </trkpt>
      <trkpt lat="43.365150" lon="-6.068960">
        <ele>83.415</ele>
        <time>2020-05-20T19:48:50Z</time>
      </trkpt>
      <trkpt lat="43.364990" lon="-6.069020">
        <ele>82.929</ele>
        <time>2020-05-20T19:49:10Z</time>
      </trkpt>
      <trkpt lat="43.364810" lon="-6.069120">
        <ele>83.500</ele>
        <time>2020-05-20T19:49:30Z</time>
      </trkpt>
      <trkpt lat="43.364660" lon="-6.069220">
        <ele>83.720</ele>
        <time>2020-05-20T19:49:50Z</time>
      </trkpt>
      <trkpt lat="43.364530" lon="-6.069320">
        <ele>82.908</ele>
        <time>2020-05-20T19:50:10Z</time>
      </trkpt>
      <trkpt lat="43.364430" lon="-6.069390">
        <ele>82.366</ele>
        <time>2020-05-20T19:50:30Z</time>
      </trkpt>
      <trkpt lat="43.364360" lon="-6.069430">
        <ele>82.271</ele>
        <time>2020-05-20T19:50:50Z</time>
      </trkpt>
      <trkpt lat="43.364190" lon="-6.069520">
        <ele>83.078</ele>
        <time>2020-05-20T19:51:10Z</time>
      </trkpt>
      <trkpt lat="43.364010" lon="-6.069590">
        <ele>81.944</ele>
        <time>2020-05-20T19:51:30Z</time>
      </trkpt>
      <trkpt lat="43.363860" lon="-6.069650">
        <ele>80.793</ele>
        <time>2020-05-20T19:51:50Z</time>
      </trkpt>
      <trkpt lat="43.363710" lon="-6.069700">
        <ele>80.134</ele>
        <time>2020-05-20T19:52:10Z</time>
      </trkpt>
      <trkpt lat="43.363570" lon="-6.069740">
        <ele>80.073</ele>
        <time>2020-05-20T19:52:30Z</time>
      </trkpt>
      <trkpt lat="43.363500" lon="-6.069770">
        <ele>80.116</ele>
        <time>2020-05-20T19:52:50Z</time>
      </trkpt>
      <trkpt lat="43.363360" lon="-6.069820">
        <ele>80.257</ele>
        <time>2020-05-20T19:53:10Z</time>
      </trkpt>
      <trkpt lat="43.363090" lon="-6.069920">
        <ele>80.200</ele>
        <time>2020-05-20T19:53:30Z</time>
      </trkpt>
      <trkpt lat="43.362800" lon="-6.070040">
        <ele>80.920</ele>
        <time>2020-05-20T19:53:50Z</time>
      </trkpt>
      <trkpt lat="43.362030" lon="-6.070320">
        <ele>83.108</ele>
        <time>2020-05-20T19:54:10Z</time>
      </trkpt>
      <trkpt lat="43.361900" lon="-6.070390">
        <ele>84.149</ele>
        <time>2020-05-20T19:54:30Z</time>
      </trkpt>
      <trkpt lat="43.361790" lon="-6.070460">
        <ele>85.784</ele>
        <time>2020-05-20T19:54:50Z</time>
      </trkpt>
      <trkpt lat="43.361660" lon="-6.070560">
        <ele>87.081</ele>
        <time>2020-05-20T19:55:10Z</time>
      </trkpt>
      <trkpt lat="43.361550" lon="-6.070670">
        <ele>86.817</ele>
        <time>2020-05-20T19:55:30Z</time>
      </trkpt>
      <trkpt lat="43.361410" lon="-6.070810">
        <ele>86.216</ele>
        <time>2020-05-20T19:55:50Z</time>
      </trkpt>
      <trkpt lat="43.361260" lon="-6.070990">
        <ele>84.747</ele>
        <time>2020-05-20T19:56:10Z</time>
      </trkpt>
      <trkpt lat="43.361130" lon="-6.071130">
        <ele>82.946</ele>
        <time>2020-05-20T19:56:30Z</time>
      </trkpt>
      <trkpt lat="43.360550" lon="-6.071810">
        <ele>87.139</ele>
        <time>2020-05-20T19:56:50Z</time>
      </trkpt>
      <trkpt lat="43.360020" lon="-6.072530">
        <ele>89.558</ele>
        <time>2020-05-20T19:57:10Z</time>
      </trkpt>
      <trkpt lat="43.359530" lon="-6.073210">
        <ele>90.852</ele>
        <time>2020-05-20T19:57:30Z</time>
      </trkpt>
      <trkpt lat="43.359520" lon="-6.073230">
        <ele>91.017</ele>
        <time>2020-05-20T19:57:50Z</time>
      </trkpt>
      <trkpt lat="43.359200" lon="-6.073640">
        <ele>92.908</ele>
        <time>2020-05-20T19:58:10Z</time>
      </trkpt>
      <trkpt lat="43.359070" lon="-6.073760">
        <ele>92.469</ele>
        <time>2020-05-20T19:58:30Z</time>
      </trkpt>
      <trkpt lat="43.358980" lon="-6.073830">
        <ele>92.114</ele>
        <time>2020-05-20T19:58:50Z</time>
      </trkpt>
      <trkpt lat="43.358850" lon="-6.073920">
        <ele>92.531</ele>
        <time>2020-05-20T19:59:10Z</time>
      </trkpt>
      <trkpt lat="43.358740" lon="-6.073970">
        <ele>93.947</ele>
        <time>2020-05-20T19:59:30Z</time>
      </trkpt>
      <trkpt lat="43.358670" lon="-6.073980">
        <ele>95.076</ele>
        <time>2020-05-20T19:59:50Z</time>
      </trkpt>
      <trkpt lat="43.358620" lon="-6.074000">
        <ele>95.727</ele>
        <time>2020-05-20T20:00:10Z</time>
      </trkpt>
      <trkpt lat="43.358400" lon="-6.074010">
        <ele>96.186</ele>
        <time>2020-05-20T20:00:30Z</time>
      </trkpt>
      <trkpt lat="43.358230" lon="-6.073990">
        <ele>96.579</ele>
        <time>2020-05-20T20:00:50Z</time>
      </trkpt>
      <trkpt lat="43.358210" lon="-6.073980">
        <ele>96.765</ele>
        <time>2020-05-20T20:01:10Z</time>
      </trkpt>
      <trkpt lat="43.358050" lon="-6.073980">
        <ele>96.868</ele>
        <time>2020-05-20T20:01:30Z</time>
      </trkpt>
      <trkpt lat="43.357980" lon="-6.073980">
        <ele>97.714</ele>
        <time>2020-05-20T20:01:50Z</time>
      </trkpt>
      <trkpt lat="43.357870" lon="-6.074010">
        <ele>98.308</ele>
        <time>2020-05-20T20:02:10Z</time>
      </trkpt>
      <trkpt lat="43.357720" lon="-6.074070">
        <ele>99.260</ele>
        <time>2020-05-20T20:02:30Z</time>
      </trkpt>
      <trkpt lat="43.357700" lon="-6.074080">
        <ele>99.435</ele>
        <time>2020-05-20T20:02:50Z</time>
      </trkpt>
      <trkpt lat="43.357630" lon="-6.074130">
        <ele>99.592</ele>
        <time>2020-05-20T20:03:10Z</time>
      </trkpt>
      <trkpt lat="43.357530" lon="-6.074180">
        <ele>99.948</ele>
        <time>2020-05-20T20:03:30Z</time>
      </trkpt>
      <trkpt lat="43.357200" lon="-6.074380">
        <ele>99.387</ele>
        <time>2020-05-20T20:03:50Z</time>
      </trkpt>
      <trkpt lat="43.356950" lon="-6.074540">
        <ele>100.538</ele>
        <time>2020-05-20T20:04:10Z</time>
      </trkpt>
      <trkpt lat="43.356770" lon="-6.074630">
        <ele>98.767</ele>
        <time>2020-05-20T20:04:30Z</time>
      </trkpt>
      <trkpt lat="43.356700" lon="-6.074650">
        <ele>98.530</ele>
        <time>2020-05-20T20:04:50Z</time>
      </trkpt>
      <trkpt lat="43.356600" lon="-6.074680">
        <ele>97.777</ele>
        <time>2020-05-20T20:05:10Z</time>
      </trkpt>
      <trkpt lat="43.356310" lon="-6.074730">
        <ele>97.061</ele>
        <time>2020-05-20T20:05:30Z</time>
      </trkpt>
      <trkpt lat="43.356180" lon="-6.074780">
        <ele>97.727</ele>
        <time>2020-05-20T20:05:50Z</time>
      </trkpt>
      <trkpt lat="43.356070" lon="-6.074850">
        <ele>98.008</ele>
        <time>2020-05-20T20:06:10Z</time>
      </trkpt>
      <trkpt lat="43.355910" lon="-6.074970">
        <ele>100.291</ele>
        <time>2020-05-20T20:06:30Z</time>
      </trkpt>
      <trkpt lat="43.355810" lon="-6.075080">
        <ele>101.466</ele>
        <time>2020-05-20T20:06:50Z</time>
      </trkpt>
      <trkpt lat="43.355780" lon="-6.075130">
        <ele>101.623</ele>
        <time>2020-05-20T20:07:10Z</time>
      </trkpt>
      <trkpt lat="43.355760" lon="-6.075150">
        <ele>102.029</ele>
        <time>2020-05-20T20:07:30Z</time>
      </trkpt>
      <trkpt lat="43.355710" lon="-6.075230">
        <ele>102.648</ele>
        <time>2020-05-20T20:07:50Z</time>
      </trkpt>
      <trkpt lat="43.355660" lon="-6.075320">
        <ele>103.519</ele>
        <time>2020-05-20T20:08:10Z</time>
      </trkpt>
      <trkpt lat="43.355630" lon="-6.075380">
        <ele>104.058</ele>
        <time>2020-05-20T20:08:30Z</time>
      </trkpt>
      <trkpt lat="43.355570" lon="-6.075540">
        <ele>104.621</ele>
        <time>2020-05-20T20:08:50Z</time>
      </trkpt>
      <trkpt lat="43.355510" lon="-6.075710">
        <ele>103.954</ele>
        <time>2020-05-20T20:09:10Z</time>
      </trkpt>
      <trkpt lat="43.355500" lon="-6.075760">
        <ele>103.356</ele>
        <time>2020-05-20T20:09:30Z</time>
      </trkpt>
      <trkpt lat="43.355470" lon="-6.075860">
        <ele>102.511</ele>
        <time>2020-05-20T20:09:50Z</time>
      </trkpt>
      <trkpt lat="43.355430" lon="-6.076080">
        <ele>99.108</ele>
        <time>2020-05-20T20:10:10Z</time>
      </trkpt>
      <trkpt lat="43.355380" lon="-6.076230">
        <ele>98.989</ele>
        <time>2020-05-20T20:10:30Z</time>
      </trkpt>
      <trkpt lat="43.355350" lon="-6.076330">
        <ele>98.644</ele>
        <time>2020-05-20T20:10:50Z</time>
      </trkpt>
      <trkpt lat="43.355290" lon="-6.076450">
        <ele>98.831</ele>
        <time>2020-05-20T20:11:10Z</time>
      </trkpt>
      <trkpt lat="43.355180" lon="-6.076630">
        <ele>99.467</ele>
        <time>2020-05-20T20:11:30Z</time>
      </trkpt>
      <trkpt lat="43.355050" lon="-6.076880">
        <ele>97.786</ele>
        <time>2020-05-20T20:11:50Z</time>
      </trkpt>
      <trkpt lat="43.354930" lon="-6.077130">
        <ele>95.577</ele>
        <time>2020-05-20T20:12:10Z</time>
      </trkpt>
      <trkpt lat="43.354830" lon="-6.077370">
        <ele>94.156</ele>
        <time>2020-05-20T20:12:30Z</time>
      </trkpt>
      <trkpt lat="43.354770" lon="-6.077570">
        <ele>93.659</ele>
        <time>2020-05-20T20:12:50Z</time>
      </trkpt>
      <trkpt lat="43.354730" lon="-6.077770">
        <ele>94.097</ele>
        <time>2020-05-20T20:13:10Z</time>
      </trkpt>
      <trkpt lat="43.354630" lon="-6.077990">
        <ele>94.923</ele>
        <time>2020-05-20T20:13:30Z</time>
      </trkpt>
      <trkpt lat="43.354550" lon="-6.078110">
        <ele>94.925</ele>
        <time>2020-05-20T20:13:50Z</time>
      </trkpt>
      <trkpt lat="43.354540" lon="-6.078120">
        <ele>94.908</ele>
        <time>2020-05-20T20:14:10Z</time>
      </trkpt>
      <trkpt lat="43.354460" lon="-6.078210">
        <ele>95.073</ele>
        <time>2020-05-20T20:14:30Z</time>
      </trkpt>
      <trkpt lat="43.354300" lon="-6.078370">
        <ele>96.398</ele>
        <time>2020-05-20T20:14:50Z</time>
      </trkpt>
      <trkpt lat="43.354180" lon="-6.078460">
        <ele>96.565</ele>
        <time>2020-05-20T20:15:10Z</time>
      </trkpt>
      <trkpt lat="43.353860" lon="-6.078650">
        <ele>99.111</ele>
        <time>2020-05-20T20:15:30Z</time>
      </trkpt>
      <trkpt lat="43.353570" lon="-6.078800">
        <ele>101.980</ele>
        <time>2020-05-20T20:15:50Z</time>
      </trkpt>
      <trkpt lat="43.353350" lon="-6.078890">
        <ele>101.951</ele>
        <time>2020-05-20T20:16:10Z</time>
      </trkpt>
      <trkpt lat="43.353040" lon="-6.078960">
        <ele>101.410</ele>
        <time>2020-05-20T20:16:30Z</time>
      </trkpt>
      <trkpt lat="43.352720" lon="-6.079000">
        <ele>104.563</ele>
        <time>2020-05-20T20:16:50Z</time>
      </trkpt>
      <trkpt lat="43.352460" lon="-6.079000">
        <ele>105.213</ele>
        <time>2020-05-20T20:17:10Z</time>
      </trkpt>
      <trkpt lat="43.352320" lon="-6.078970">
        <ele>104.043</ele>
        <time>2020-05-20T20:17:30Z</time>
      </trkpt>
      <trkpt lat="43.352280" lon="-6.078950">
        <ele>103.607</ele>
        <time>2020-05-20T20:17:50Z</time>
      </trkpt>
      <trkpt lat="43.352270" lon="-6.078930">
        <ele>103.508</ele>
        <time>2020-05-20T20:18:10Z</time>
      </trkpt>
      <trkpt lat="43.352230" lon="-6.078900">
        <ele>103.145</ele>
        <time>2020-05-20T20:18:30Z</time>
      </trkpt>
      <trkpt lat="43.352180" lon="-6.078830">
        <ele>103.470</ele>
        <time>2020-05-20T20:18:50Z</time>
      </trkpt>
      <trkpt lat="43.352090" lon="-6.078680">
        <ele>103.727</ele>
        <time>2020-05-20T20:19:10Z</time>
      </trkpt>
      <trkpt lat="43.352040" lon="-6.078560">
        <ele>104.333</ele>
        <time>2020-05-20T20:19:30Z</time>
      </trkpt>
      <trkpt lat="43.351940" lon="-6.078360">
        <ele>106.512</ele>
        <time>2020-05-20T20:19:50Z</time>
      </trkpt>
      <trkpt lat="43.351940" lon="-6.078350">
        <ele>106.683</ele>
        <time>2020-05-20T20:20:10Z</time>
      </trkpt>
      <trkpt lat="43.351860" lon="-6.078160">
        <ele>109.192</ele>
        <time>2020-05-20T20:20:30Z</time>
      </trkpt>
      <trkpt lat="43.351780" lon="-6.078040">
        <ele>109.845</ele>
        <time>2020-05-20T20:20:50Z</time>
      </trkpt>
      <trkpt lat="43.351730" lon="-6.077980">
        <ele>110.031</ele>
        <time>2020-05-20T20:21:10Z</time>
      </trkpt>
      <trkpt lat="43.351720" lon="-6.077970">
        <ele>110.061</ele>
        <time>2020-05-20T20:21:30Z</time>
      </trkpt>
      <trkpt lat="43.351620" lon="-6.077900">
        <ele>109.807</ele>
        <time>2020-05-20T20:21:50Z</time>
      </trkpt>
      <trkpt lat="43.351520" lon="-6.077870">
        <ele>109.208</ele>
        <time>2020-05-20T20:22:10Z</time>
      </trkpt>
      <trkpt lat="43.351460" lon="-6.077870">
        <ele>108.597</ele>
        <time>2020-05-20T20:22:30Z</time>
      </trkpt>
      <trkpt lat="43.351370" lon="-6.077860">
        <ele>107.732</ele>
        <time>2020-05-20T20:22:50Z</time>
      </trkpt>
      <trkpt lat="43.351340" lon="-6.077860">
        <ele>107.519</ele>
        <time>2020-05-20T20:23:10Z</time>
      </trkpt>
      <trkpt lat="43.351190" lon="-6.077880">
        <ele>106.145</ele>
        <time>2020-05-20T20:23:30Z</time>
      </trkpt>
      <trkpt lat="43.351080" lon="-6.077890">
        <ele>105.614</ele>
        <time>2020-05-20T20:23:50Z</time>
      </trkpt>
      <trkpt lat="43.350960" lon="-6.077930">
        <ele>105.825</ele>
        <time>2020-05-20T20:24:10Z</time>
      </trkpt>
      <trkpt lat="43.350880" lon="-6.077950">
        <ele>106.034</ele>
        <time>2020-05-20T20:24:30Z</time>
      </trkpt>
      <trkpt lat="43.350840" lon="-6.077980">
        <ele>105.667</ele>
        <time>2020-05-20T20:24:50Z</time>
      </trkpt>
      <trkpt lat="43.350830" lon="-6.077990">
        <ele>105.549</ele>
        <time>2020-05-20T20:25:10Z</time>
      </trkpt>
      <trkpt lat="43.350780" lon="-6.078020">
        <ele>105.902</ele>
        <time>2020-05-20T20:25:30Z</time>
      </trkpt>
      <trkpt lat="43.350700" lon="-6.078100">
        <ele>106.122</ele>
        <time>2020-05-20T20:25:50Z</time>
      </trkpt>
      <trkpt lat="43.350590" lon="-6.078210">
        <ele>106.108</ele>
        <time>2020-05-20T20:26:10Z</time>
      </trkpt>
      <trkpt lat="43.350260" lon="-6.078560">
        <ele>106.298</ele>
        <time>2020-05-20T20:26:30Z</time>
      </trkpt>
      <trkpt lat="43.350220" lon="-6.078600">
        <ele>106.183</ele>
        <time>2020-05-20T20:26:50Z</time>
      </trkpt>
      <trkpt lat="43.350120" lon="-6.078710">
        <ele>105.660</ele>
        <time>2020-05-20T20:27:10Z</time>
      </trkpt>
      <trkpt lat="43.350000" lon="-6.078830">
        <ele>105.176</ele>
        <time>2020-05-20T20:27:30Z</time>
      </trkpt>
      <trkpt lat="43.349870" lon="-6.079000">
        <ele>104.645</ele>
        <time>2020-05-20T20:27:50Z</time>
      </trkpt>
      <trkpt lat="43.349760" lon="-6.079180">
        <ele>102.016</ele>
        <time>2020-05-20T20:28:10Z</time>
      </trkpt>
      <trkpt lat="43.349700" lon="-6.079270">
        <ele>102.585</ele>
        <time>2020-05-20T20:28:30Z</time>
      </trkpt>
      <trkpt lat="43.349620" lon="-6.079380">
        <ele>102.768</ele>
        <time>2020-05-20T20:28:50Z</time>
      </trkpt>
      <trkpt lat="43.349610" lon="-6.079390">
        <ele>102.715</ele>
        <time>2020-05-20T20:29:10Z</time>
      </trkpt>
      <trkpt lat="43.349520" lon="-6.079490">
        <ele>102.365</ele>
        <time>2020-05-20T20:29:30Z</time>
      </trkpt>
      <trkpt lat="43.349460" lon="-6.079540">
        <ele>102.411</ele>
        <time>2020-05-20T20:29:50Z</time>
      </trkpt>
      <trkpt lat="43.349420" lon="-6.079590">
        <ele>102.808</ele>
        <time>2020-05-20T20:30:10Z</time>
      </trkpt>
      <trkpt lat="43.349160" lon="-6.079810">
        <ele>105.825</ele>
        <time>2020-05-20T20:30:30Z</time>
      </trkpt>
      <trkpt lat="43.349140" lon="-6.079830">
        <ele>105.970</ele>
        <time>2020-05-20T20:30:50Z</time>
      </trkpt>
      <trkpt lat="43.348980" lon="-6.079950">
        <ele>106.817</ele>
        <time>2020-05-20T20:31:10Z</time>
      </trkpt>
      <trkpt lat="43.348700" lon="-6.080200">
        <ele>104.143</ele>
        <time>2020-05-20T20:31:30Z</time>
      </trkpt>
      <trkpt lat="43.348400" lon="-6.080460">
        <ele>103.712</ele>
        <time>2020-05-20T20:31:50Z</time>
      </trkpt>
      <trkpt lat="43.348350" lon="-6.080500">
        <ele>104.023</ele>
        <time>2020-05-20T20:32:10Z</time>
      </trkpt>
      <trkpt lat="43.348130" lon="-6.080700">
        <ele>105.382</ele>
        <time>2020-05-20T20:32:30Z</time>
      </trkpt>
      <trkpt lat="43.348090" lon="-6.080730">
        <ele>105.565</ele>
        <time>2020-05-20T20:32:50Z</time>
      </trkpt>
      <trkpt lat="43.347850" lon="-6.080930">
        <ele>108.849</ele>
        <time>2020-05-20T20:33:10Z</time>
      </trkpt>
      <trkpt lat="43.347800" lon="-6.080970">
        <ele>109.602</ele>
        <time>2020-05-20T20:33:30Z</time>
      </trkpt>
      <trkpt lat="43.347720" lon="-6.081040">
        <ele>111.522</ele>
        <time>2020-05-20T20:33:50Z</time>
      </trkpt>
      <trkpt lat="43.347610" lon="-6.081150">
        <ele>114.208</ele>
        <time>2020-05-20T20:34:10Z</time>
      </trkpt>
      <trkpt lat="43.347370" lon="-6.081470">
        <ele>118.258</ele>
        <time>2020-05-20T20:34:30Z</time>
      </trkpt>
      <trkpt lat="43.347280" lon="-6.081640">
        <ele>116.663</ele>
        <time>2020-05-20T20:34:50Z</time>
      </trkpt>
      <trkpt lat="43.347260" lon="-6.081710">
        <ele>115.460</ele>
        <time>2020-05-20T20:35:10Z</time>
      </trkpt>
      <trkpt lat="43.347200" lon="-6.081890">
        <ele>113.256</ele>
        <time>2020-05-20T20:35:30Z</time>
      </trkpt>
      <trkpt lat="43.347190" lon="-6.081940">
        <ele>112.695</ele>
        <time>2020-05-20T20:35:50Z</time>
      </trkpt>
      <trkpt lat="43.347130" lon="-6.082180">
        <ele>112.816</ele>
        <time>2020-05-20T20:36:10Z</time>
      </trkpt>
      <trkpt lat="43.347130" lon="-6.082190">
        <ele>112.715</ele>
        <time>2020-05-20T20:36:30Z</time>
      </trkpt>
      <trkpt lat="43.347080" lon="-6.082380">
        <ele>113.878</ele>
        <time>2020-05-20T20:36:50Z</time>
      </trkpt>
      <trkpt lat="43.347080" lon="-6.082410">
        <ele>113.657</ele>
        <time>2020-05-20T20:37:10Z</time>
      </trkpt>
      <trkpt lat="43.347030" lon="-6.082560">
        <ele>114.300</ele>
        <time>2020-05-20T20:37:30Z</time>
      </trkpt>
      <trkpt lat="43.346970" lon="-6.082730">
        <ele>114.120</ele>
        <time>2020-05-20T20:37:50Z</time>
      </trkpt>
      <trkpt lat="43.346920" lon="-6.082870">
        <ele>113.608</ele>
        <time>2020-05-20T20:38:10Z</time>
      </trkpt>
      <trkpt lat="43.346880" lon="-6.083010">
        <ele>112.469</ele>
        <time>2020-05-20T20:38:30Z</time>
      </trkpt>
      <trkpt lat="43.346860" lon="-6.083090">
        <ele>111.684</ele>
        <time>2020-05-20T20:38:50Z</time>
      </trkpt>
      <trkpt lat="43.346840" lon="-6.083150">
        <ele>111.261</ele>
        <time>2020-05-20T20:39:10Z</time>
      </trkpt>
      <trkpt lat="43.346820" lon="-6.083220">
        <ele>110.847</ele>
        <time>2020-05-20T20:39:30Z</time>
      </trkpt>
      <trkpt lat="43.346790" lon="-6.083270">
        <ele>110.896</ele>
        <time>2020-05-20T20:39:50Z</time>
      </trkpt>
      <trkpt lat="43.346770" lon="-6.083300">
        <ele>110.847</ele>
        <time>2020-05-20T20:40:10Z</time>
      </trkpt>
      <trkpt lat="43.346760" lon="-6.083330">
        <ele>110.766</ele>
        <time>2020-05-20T20:40:30Z</time>
      </trkpt>
      <trkpt lat="43.346700" lon="-6.083380">
        <ele>111.679</ele>
        <time>2020-05-20T20:40:50Z</time>
      </trkpt>
      <trkpt lat="43.346670" lon="-6.083420">
        <ele>112.369</ele>
        <time>2020-05-20T20:41:10Z</time>
      </trkpt>
      <trkpt lat="43.346650" lon="-6.083480">
        <ele>113.304</ele>
        <time>2020-05-20T20:41:30Z</time>
      </trkpt>
      <trkpt lat="43.346630" lon="-6.083540">
        <ele>114.524</ele>
        <time>2020-05-20T20:41:50Z</time>
      </trkpt>
      <trkpt lat="43.346530" lon="-6.083940">
        <ele>119.308</ele>
        <time>2020-05-20T20:42:10Z</time>
      </trkpt>
      <trkpt lat="43.346400" lon="-6.084410">
        <ele>117.490</ele>
        <time>2020-05-20T20:42:30Z</time>
      </trkpt>
      <trkpt lat="43.346370" lon="-6.084530">
        <ele>115.445</ele>
        <time>2020-05-20T20:42:50Z</time>
      </trkpt>
      <trkpt lat="43.346340" lon="-6.084640">
        <ele>113.612</ele>
        <time>2020-05-20T20:43:10Z</time>
      </trkpt>
      <trkpt lat="43.346200" lon="-6.085180">
        <ele>112.448</ele>
        <time>2020-05-20T20:43:30Z</time>
      </trkpt>
      <trkpt lat="43.346160" lon="-6.085300">
        <ele>113.857</ele>
        <time>2020-05-20T20:43:50Z</time>
      </trkpt>
      <trkpt lat="43.346160" lon="-6.085340">
        <ele>113.578</ele>
        <time>2020-05-20T20:44:10Z</time>
      </trkpt>
      <trkpt lat="43.346130" lon="-6.085440">
        <ele>114.157</ele>
        <time>2020-05-20T20:44:30Z</time>
      </trkpt>
      <trkpt lat="43.346120" lon="-6.085560">
        <ele>113.740</ele>
        <time>2020-05-20T20:44:50Z</time>
      </trkpt>
      <trkpt lat="43.346120" lon="-6.085580">
        <ele>113.824</ele>
        <time>2020-05-20T20:45:10Z</time>
      </trkpt>
      <trkpt lat="43.346100" lon="-6.085740">
        <ele>115.304</ele>
        <time>2020-05-20T20:45:30Z</time>
      </trkpt>
      <trkpt lat="43.346090" lon="-6.085820">
        <ele>116.014</ele>
        <time>2020-05-20T20:45:50Z</time>
      </trkpt>
      <trkpt lat="43.346060" lon="-6.085980">
        <ele>115.508</ele>
        <time>2020-05-20T20:46:10Z</time>
      </trkpt>
      <trkpt lat="43.345950" lon="-6.086540">
        <ele>110.486</ele>
        <time>2020-05-20T20:46:30Z</time>
      </trkpt>
      <trkpt lat="43.345860" lon="-6.087020">
        <ele>108.821</ele>
        <time>2020-05-20T20:46:50Z</time>
      </trkpt>
      <trkpt lat="43.345820" lon="-6.087230">
        <ele>109.728</ele>
        <time>2020-05-20T20:47:10Z</time>
      </trkpt>
      <trkpt lat="43.345770" lon="-6.087500">
        <ele>111.784</ele>
        <time>2020-05-20T20:47:30Z</time>
      </trkpt>
      <trkpt lat="43.345740" lon="-6.087740">
        <ele>111.623</ele>
        <time>2020-05-20T20:47:50Z</time>
      </trkpt>
      <trkpt lat="43.345660" lon="-6.088220">
        <ele>111.214</ele>
        <time>2020-05-20T20:48:10Z</time>
      </trkpt>
      <trkpt lat="43.345620" lon="-6.088460">
        <ele>112.463</ele>
        <time>2020-05-20T20:48:30Z</time>
      </trkpt>
      <trkpt lat="43.345580" lon="-6.088700">
        <ele>113.986</ele>
        <time>2020-05-20T20:48:50Z</time>
      </trkpt>
      <trkpt lat="43.345560" lon="-6.088790">
        <ele>114.679</ele>
        <time>2020-05-20T20:49:10Z</time>
      </trkpt>
      <trkpt lat="43.345540" lon="-6.088940">
        <ele>115.405</ele>
        <time>2020-05-20T20:49:30Z</time>
      </trkpt>
      <trkpt lat="43.345530" lon="-6.088980">
        <ele>115.725</ele>
        <time>2020-05-20T20:49:50Z</time>
      </trkpt>
      <trkpt lat="43.345500" lon="-6.089130">
        <ele>116.408</ele>
        <time>2020-05-20T20:50:10Z</time>
      </trkpt>
      <trkpt lat="43.345480" lon="-6.089180">
        <ele>117.351</ele>
        <time>2020-05-20T20:50:30Z</time>
      </trkpt>
      <trkpt lat="43.345480" lon="-6.089200">
        <ele>117.266</ele>
        <time>2020-05-20T20:50:50Z</time>
      </trkpt>
      <trkpt lat="43.345450" lon="-6.089250">
        <ele>118.623</ele>
        <time>2020-05-20T20:51:10Z</time>
      </trkpt>
      <trkpt lat="43.345380" lon="-6.089320">
        <ele>121.739</ele>
        <time>2020-05-20T20:51:30Z</time>
      </trkpt>
      <trkpt lat="43.345360" lon="-6.089350">
        <ele>122.488</ele>
        <time>2020-05-20T20:51:50Z</time>
      </trkpt>
      <trkpt lat="43.345320" lon="-6.089380">
        <ele>124.029</ele>
        <time>2020-05-20T20:52:10Z</time>
      </trkpt>
      <trkpt lat="43.345300" lon="-6.089430">
        <ele>124.248</ele>
        <time>2020-05-20T20:52:30Z</time>
      </trkpt>
      <trkpt lat="43.345280" lon="-6.089500">
        <ele>124.721</ele>
        <time>2020-05-20T20:52:50Z</time>
      </trkpt>
      <trkpt lat="43.345270" lon="-6.089560">
        <ele>125.354</ele>
        <time>2020-05-20T20:53:10Z</time>
      </trkpt>
      <trkpt lat="43.345260" lon="-6.089600">
        <ele>126.156</ele>
        <time>2020-05-20T20:53:30Z</time>
      </trkpt>
      <trkpt lat="43.345260" lon="-6.089730">
        <ele>125.611</ele>
        <time>2020-05-20T20:53:50Z</time>
      </trkpt>
      <trkpt lat="43.345260" lon="-6.089800">
        <ele>125.408</ele>
        <time>2020-05-20T20:54:10Z</time>
      </trkpt>
      <trkpt lat="43.345260" lon="-6.089860">
        <ele>125.219</ele>
        <time>2020-05-20T20:54:30Z</time>
      </trkpt>
      <trkpt lat="43.345250" lon="-6.089990">
        <ele>125.834</ele>
        <time>2020-05-20T20:54:50Z</time>
      </trkpt>
      <trkpt lat="43.345240" lon="-6.090050">
        <ele>127.691</ele>
        <time>2020-05-20T20:55:10Z</time>
      </trkpt>
      <trkpt lat="43.345240" lon="-6.090180">
        <ele>129.667</ele>
        <time>2020-05-20T20:55:30Z</time>
      </trkpt>
      <trkpt lat="43.345240" lon="-6.090300">
        <ele>130.986</ele>
        <time>2020-05-20T20:55:50Z</time>
      </trkpt>
      <trkpt lat="43.345240" lon="-6.090370">
        <ele>130.257</ele>
        <time>2020-05-20T20:56:10Z</time>
      </trkpt>
      <trkpt lat="43.345260" lon="-6.090540">
        <ele>126.736</ele>
        <time>2020-05-20T20:56:30Z</time>
      </trkpt>
      <trkpt lat="43.345280" lon="-6.090790">
        <ele>124.979</ele>
        <time>2020-05-20T20:56:50Z</time>
      </trkpt>
      <trkpt lat="43.345310" lon="-6.091030">
        <ele>125.255</ele>
        <time>2020-05-20T20:57:10Z</time>
      </trkpt>
      <trkpt lat="43.345330" lon="-6.091280">
        <ele>126.307</ele>
        <time>2020-05-20T20:57:30Z</time>
      </trkpt>
      <trkpt lat="43.345350" lon="-6.091460">
        <ele>126.017</ele>
        <time>2020-05-20T20:57:50Z</time>
      </trkpt>
      <trkpt lat="43.345420" lon="-6.091960">
        <ele>122.308</ele>
        <time>2020-05-20T20:58:10Z</time>
      </trkpt>
      <trkpt lat="43.345420" lon="-6.092010">
        <ele>122.199</ele>
        <time>2020-05-20T20:58:30Z</time>
      </trkpt>
      <trkpt lat="43.345420" lon="-6.092060">
        <ele>121.984</ele>
        <time>2020-05-20T20:58:50Z</time>
      </trkpt>
      <trkpt lat="43.345420" lon="-6.092170">
        <ele>121.531</ele>
        <time>2020-05-20T20:59:10Z</time>
      </trkpt>
      <trkpt lat="43.345410" lon="-6.092250">
        <ele>121.667</ele>
        <time>2020-05-20T20:59:30Z</time>
      </trkpt>
      <trkpt lat="43.345400" lon="-6.092290">
        <ele>121.736</ele>
        <time>2020-05-20T20:59:50Z</time>
      </trkpt>
      <trkpt lat="43.345350" lon="-6.092410">
        <ele>122.887</ele>
        <time>2020-05-20T21:00:10Z</time>
      </trkpt>
      <trkpt lat="43.345330" lon="-6.092480">
        <ele>122.966</ele>
        <time>2020-05-20T21:00:30Z</time>
      </trkpt>
      <trkpt lat="43.345250" lon="-6.092700">
        <ele>124.639</ele>
        <time>2020-05-20T21:00:50Z</time>
      </trkpt>
      <trkpt lat="43.345120" lon="-6.093080">
        <ele>128.014</ele>
        <time>2020-05-20T21:01:10Z</time>
      </trkpt>
      <trkpt lat="43.345100" lon="-6.093150">
        <ele>128.954</ele>
        <time>2020-05-20T21:01:30Z</time>
      </trkpt>
      <trkpt lat="43.345060" lon="-6.093300">
        <ele>130.409</ele>
        <time>2020-05-20T21:01:50Z</time>
      </trkpt>
      <trkpt lat="43.345040" lon="-6.093420">
        <ele>130.908</ele>
        <time>2020-05-20T21:02:10Z</time>
      </trkpt>
      <trkpt lat="43.345030" lon="-6.093520">
        <ele>131.145</ele>
        <time>2020-05-20T21:02:30Z</time>
      </trkpt>
      <trkpt lat="43.345030" lon="-6.093630">
        <ele>130.890</ele>
        <time>2020-05-20T21:02:50Z</time>
      </trkpt>
      <trkpt lat="43.345030" lon="-6.093640">
        <ele>130.787</ele>
        <time>2020-05-20T21:03:10Z</time>
      </trkpt>
      <trkpt lat="43.345040" lon="-6.093810">
        <ele>129.823</ele>
        <time>2020-05-20T21:03:30Z</time>
      </trkpt>
      <trkpt lat="43.345040" lon="-6.093870">
        <ele>129.632</ele>
        <time>2020-05-20T21:03:50Z</time>
      </trkpt>
      <trkpt lat="43.345060" lon="-6.094010">
        <ele>129.883</ele>
        <time>2020-05-20T21:04:10Z</time>
      </trkpt>
      <trkpt lat="43.345070" lon="-6.094160">
        <ele>130.482</ele>
        <time>2020-05-20T21:04:30Z</time>
      </trkpt>
      <trkpt lat="43.345100" lon="-6.094280">
        <ele>129.745</ele>
        <time>2020-05-20T21:04:50Z</time>
      </trkpt>
      <trkpt lat="43.345150" lon="-6.094500">
        <ele>128.455</ele>
        <time>2020-05-20T21:05:10Z</time>
      </trkpt>
      <trkpt lat="43.345170" lon="-6.094590">
        <ele>128.207</ele>
        <time>2020-05-20T21:05:30Z</time>
      </trkpt>
      <trkpt lat="43.345210" lon="-6.094850">
        <ele>128.117</ele>
        <time>2020-05-20T21:05:50Z</time>
      </trkpt>
      <trkpt lat="43.345230" lon="-6.095020">
        <ele>127.908</ele>
        <time>2020-05-20T21:06:10Z</time>
      </trkpt>
      <trkpt lat="43.345240" lon="-6.095080">
        <ele>127.429</ele>
        <time>2020-05-20T21:06:30Z</time>
      </trkpt>
      <trkpt lat="43.345250" lon="-6.095150">
        <ele>126.854</ele>
        <time>2020-05-20T21:06:50Z</time>
      </trkpt>
      <trkpt lat="43.345260" lon="-6.095270">
        <ele>126.251</ele>
        <time>2020-05-20T21:07:10Z</time>
      </trkpt>
      <trkpt lat="43.345270" lon="-6.095420">
        <ele>124.587</ele>
        <time>2020-05-20T21:07:30Z</time>
      </trkpt>
      <trkpt lat="43.345280" lon="-6.095520">
        <ele>123.286</ele>
        <time>2020-05-20T21:07:50Z</time>
      </trkpt>
      <trkpt lat="43.345280" lon="-6.095680">
        <ele>123.467</ele>
        <time>2020-05-20T21:08:10Z</time>
      </trkpt>
      <trkpt lat="43.345280" lon="-6.095760">
        <ele>123.776</ele>
        <time>2020-05-20T21:08:30Z</time>
      </trkpt>
      <trkpt lat="43.345270" lon="-6.095830">
        <ele>124.339</ele>
        <time>2020-05-20T21:08:50Z</time>
      </trkpt>
      <trkpt lat="43.345240" lon="-6.095920">
        <ele>124.967</ele>
        <time>2020-05-20T21:09:10Z</time>
      </trkpt>
      <trkpt lat="43.345180" lon="-6.096030">
        <ele>126.181</ele>
        <time>2020-05-20T21:09:30Z</time>
      </trkpt>
      <trkpt lat="43.345170" lon="-6.096070">
        <ele>126.019</ele>
        <time>2020-05-20T21:09:50Z</time>
      </trkpt>
      <trkpt lat="43.345090" lon="-6.096240">
        <ele>126.208</ele>
        <time>2020-05-20T21:10:10Z</time>
      </trkpt>
      <trkpt lat="43.345070" lon="-6.096270">
        <ele>126.470</ele>
        <time>2020-05-20T21:10:30Z</time>
      </trkpt>
      <trkpt lat="43.344890" lon="-6.096660">
        <ele>127.415</ele>
        <time>2020-05-20T21:10:50Z</time>
      </trkpt>
      <trkpt lat="43.344600" lon="-6.097280">
        <ele>133.562</ele>
        <time>2020-05-20T21:11:10Z</time>
      </trkpt>
      <trkpt lat="43.344430" lon="-6.097650">
        <ele>132.978</ele>
        <time>2020-05-20T21:11:30Z</time>
      </trkpt>
      <trkpt lat="43.344090" lon="-6.098290">
        <ele>136.727</ele>
        <time>2020-05-20T21:11:50Z</time>
      </trkpt>
      <trkpt lat="43.343880" lon="-6.098700">
        <ele>140.988</ele>
        <time>2020-05-20T21:12:10Z</time>
      </trkpt>
      <trkpt lat="43.343560" lon="-6.099300">
        <ele>134.317</ele>
        <time>2020-05-20T21:12:30Z</time>
      </trkpt>
      <trkpt lat="43.343450" lon="-6.099500">
        <ele>133.830</ele>
        <time>2020-05-20T21:12:50Z</time>
      </trkpt>
      <trkpt lat="43.343410" lon="-6.099580">
        <ele>133.617</ele>
        <time>2020-05-20T21:13:10Z</time>
      </trkpt>
      <trkpt lat="43.343170" lon="-6.099980">
        <ele>133.287</ele>
        <time>2020-05-20T21:13:30Z</time>
      </trkpt>
      <trkpt lat="43.343120" lon="-6.100070">
        <ele>133.415</ele>
        <time>2020-05-20T21:13:50Z</time>
      </trkpt>
      <trkpt lat="43.342860" lon="-6.100480">
        <ele>140.008</ele>
        <time>2020-05-20T21:14:10Z</time>
      </trkpt>
      <trkpt lat="43.342720" lon="-6.100840">
        <ele>141.045</ele>
        <time>2020-05-20T21:14:30Z</time>
      </trkpt>
      <trkpt lat="43.342700" lon="-6.100880">
        <ele>141.460</ele>
        <time>2020-05-20T21:14:50Z</time>
      </trkpt>
      <trkpt lat="43.342590" lon="-6.101140">
        <ele>142.027</ele>
        <time>2020-05-20T21:15:10Z</time>
      </trkpt>
      <trkpt lat="43.342530" lon="-6.101310">
        <ele>140.023</ele>
        <time>2020-05-20T21:15:30Z</time>
      </trkpt>
      <trkpt lat="43.342430" lon="-6.101640">
        <ele>137.432</ele>
        <time>2020-05-20T21:15:50Z</time>
      </trkpt>
      <trkpt lat="43.342400" lon="-6.101770">
        <ele>137.343</ele>
        <time>2020-05-20T21:16:10Z</time>
      </trkpt>
      <trkpt lat="43.342350" lon="-6.101950">
        <ele>138.132</ele>
        <time>2020-05-20T21:16:30Z</time>
      </trkpt>
      <trkpt lat="43.342340" lon="-6.102000">
        <ele>138.845</ele>
        <time>2020-05-20T21:16:50Z</time>
      </trkpt>
      <trkpt lat="43.342240" lon="-6.102480">
        <ele>145.889</ele>
        <time>2020-05-20T21:17:10Z</time>
      </trkpt>
      <trkpt lat="43.342200" lon="-6.102660">
        <ele>145.306</ele>
        <time>2020-05-20T21:17:30Z</time>
      </trkpt>
      <trkpt lat="43.342170" lon="-6.102970">
        <ele>144.326</ele>
        <time>2020-05-20T21:17:50Z</time>
      </trkpt>
      <trkpt lat="43.342140" lon="-6.103280">
        <ele>148.008</ele>
        <time>2020-05-20T21:18:10Z</time>
      </trkpt>
      <trkpt lat="43.342080" lon="-6.103650">
        <ele>147.932</ele>
        <time>2020-05-20T21:18:30Z</time>
      </trkpt>
      <trkpt lat="43.342070" lon="-6.103690">
        <ele>147.947</ele>
        <time>2020-05-20T21:18:50Z</time>
      </trkpt>
      <trkpt lat="43.342030" lon="-6.103910">
        <ele>146.994</ele>
        <time>2020-05-20T21:19:10Z</time>
      </trkpt>
      <trkpt lat="43.341910" lon="-6.104410">
        <ele>146.440</ele>
        <time>2020-05-20T21:19:30Z</time>
      </trkpt>
      <trkpt lat="43.341800" lon="-6.104940">
        <ele>141.019</ele>
        <time>2020-05-20T21:19:50Z</time>
      </trkpt>
      <trkpt lat="43.341760" lon="-6.105110">
        <ele>139.370</ele>
        <time>2020-05-20T21:20:10Z</time>
      </trkpt>
      <trkpt lat="43.341740" lon="-6.105200">
        <ele>138.239</ele>
        <time>2020-05-20T21:20:30Z</time>
      </trkpt>
      <trkpt lat="43.341700" lon="-6.105350">
        <ele>137.122</ele>
        <time>2020-05-20T21:20:50Z</time>
      </trkpt>
      <trkpt lat="43.341630" lon="-6.105580">
        <ele>138.098</ele>
        <time>2020-05-20T21:21:10Z</time>
      </trkpt>
      <trkpt lat="43.341580" lon="-6.105780">
        <ele>138.915</ele>
        <time>2020-05-20T21:21:30Z</time>
      </trkpt>
      <trkpt lat="43.341570" lon="-6.105810">
        <ele>139.126</ele>
        <time>2020-05-20T21:21:50Z</time>
      </trkpt>
      <trkpt lat="43.341480" lon="-6.106030">
        <ele>138.908</ele>
        <time>2020-05-20T21:22:10Z</time>
      </trkpt>
      <trkpt lat="43.341380" lon="-6.106290">
        <ele>137.873</ele>
        <time>2020-05-20T21:22:30Z</time>
      </trkpt>
      <trkpt lat="43.341210" lon="-6.106670">
        <ele>145.488</ele>
        <time>2020-05-20T21:22:50Z</time>
      </trkpt>
      <trkpt lat="43.341090" lon="-6.106850">
        <ele>147.715</ele>
        <time>2020-05-20T21:23:10Z</time>
      </trkpt>
      <trkpt lat="43.340970" lon="-6.107040">
        <ele>146.851</ele>
        <time>2020-05-20T21:23:30Z</time>
      </trkpt>
      <trkpt lat="43.340920" lon="-6.107120">
        <ele>145.350</ele>
        <time>2020-05-20T21:23:50Z</time>
      </trkpt>
      <trkpt lat="43.340850" lon="-6.107210">
        <ele>143.151</ele>
        <time>2020-05-20T21:24:10Z</time>
      </trkpt>
      <trkpt lat="43.340720" lon="-6.107390">
        <ele>145.250</ele>
        <time>2020-05-20T21:24:30Z</time>
      </trkpt>
      <trkpt lat="43.340590" lon="-6.107560">
        <ele>147.043</ele>
        <time>2020-05-20T21:24:50Z</time>
      </trkpt>
      <trkpt lat="43.340540" lon="-6.107620">
        <ele>147.233</ele>
        <time>2020-05-20T21:25:10Z</time>
      </trkpt>
      <trkpt lat="43.340410" lon="-6.107800">
        <ele>145.023</ele>
        <time>2020-05-20T21:25:30Z</time>
      </trkpt>
      <trkpt lat="43.340370" lon="-6.107850">
        <ele>144.515</ele>
        <time>2020-05-20T21:25:50Z</time>
      </trkpt>
      <trkpt lat="43.340320" lon="-6.107910">
        <ele>143.908</ele>
        <time>2020-05-20T21:26:10Z</time>
      </trkpt>
      <trkpt lat="43.340280" lon="-6.107950">
        <ele>143.747</ele>
        <time>2020-05-20T21:26:30Z</time>
      </trkpt>
      <trkpt lat="43.340220" lon="-6.107970">
        <ele>144.192</ele>
        <time>2020-05-20T21:26:50Z</time>
      </trkpt>
      <trkpt lat="43.340140" lon="-6.107990">
        <ele>144.719</ele>
        <time>2020-05-20T21:27:10Z</time>
      </trkpt>
      <trkpt lat="43.340100" lon="-6.108010">
        <ele>144.755</ele>
        <time>2020-05-20T21:27:30Z</time>
      </trkpt>
      <trkpt lat="43.339990" lon="-6.108050">
        <ele>145.374</ele>
        <time>2020-05-20T21:27:50Z</time>
      </trkpt>
      <trkpt lat="43.339920" lon="-6.108060">
        <ele>145.445</ele>
        <time>2020-05-20T21:28:10Z</time>
      </trkpt>
      <trkpt lat="43.339860" lon="-6.108070">
        <ele>145.514</ele>
        <time>2020-05-20T21:28:30Z</time>
      </trkpt>
      <trkpt lat="43.339750" lon="-6.108110">
        <ele>144.997</ele>
        <time>2020-05-20T21:28:50Z</time>
      </trkpt>
      <trkpt lat="43.339740" lon="-6.108120">
        <ele>144.657</ele>
        <time>2020-05-20T21:29:10Z</time>
      </trkpt>
      <trkpt lat="43.339580" lon="-6.108180">
        <ele>144.300</ele>
        <time>2020-05-20T21:29:30Z</time>
      </trkpt>
      <trkpt lat="43.339500" lon="-6.108210">
        <ele>144.320</ele>
        <time>2020-05-20T21:29:50Z</time>
      </trkpt>
      <trkpt lat="43.339410" lon="-6.108260">
        <ele>144.008</ele>
        <time>2020-05-20T21:30:10Z</time>
      </trkpt>
      <trkpt lat="43.339240" lon="-6.108360">
        <ele>143.979</ele>
        <time>2020-05-20T21:30:30Z</time>
      </trkpt>
      <trkpt lat="43.339180" lon="-6.108390">
        <ele>144.184</ele>
        <time>2020-05-20T21:30:50Z</time>
      </trkpt>
      <trkpt lat="43.339080" lon="-6.108470">
        <ele>144.221</ele>
        <time>2020-05-20T21:31:10Z</time>
      </trkpt>
      <trkpt lat="43.339070" lon="-6.108480">
        <ele>144.227</ele>
        <time>2020-05-20T21:31:30Z</time>
      </trkpt>
      <trkpt lat="43.338930" lon="-6.108620">
        <ele>144.696</ele>
        <time>2020-05-20T21:31:50Z</time>
      </trkpt>
      <trkpt lat="43.338820" lon="-6.108770">
        <ele>143.147</ele>
        <time>2020-05-20T21:32:10Z</time>
      </trkpt>
      <trkpt lat="43.338810" lon="-6.108800">
        <ele>142.526</ele>
        <time>2020-05-20T21:32:30Z</time>
      </trkpt>
      <trkpt lat="43.338730" lon="-6.108970">
        <ele>140.389</ele>
        <time>2020-05-20T21:32:50Z</time>
      </trkpt>
      <trkpt lat="43.338710" lon="-6.109000">
        <ele>140.144</ele>
        <time>2020-05-20T21:33:10Z</time>
      </trkpt>
      <trkpt lat="43.338640" lon="-6.109190">
        <ele>138.005</ele>
        <time>2020-05-20T21:33:30Z</time>
      </trkpt>
      <trkpt lat="43.338460" lon="-6.109560">
        <ele>137.715</ele>
        <time>2020-05-20T21:33:50Z</time>
      </trkpt>
      <trkpt lat="43.338320" lon="-6.109830">
        <ele>137.508</ele>
        <time>2020-05-20T21:34:10Z</time>
      </trkpt>
      <trkpt lat="43.338180" lon="-6.110110">
        <ele>138.258</ele>
        <time>2020-05-20T21:34:30Z</time>
      </trkpt>
      <trkpt lat="43.338120" lon="-6.110290">
        <ele>138.563</ele>
        <time>2020-05-20T21:34:50Z</time>
      </trkpt>
      <trkpt lat="43.338080" lon="-6.110500">
        <ele>137.160</ele>
        <time>2020-05-20T21:35:10Z</time>
      </trkpt>
      <trkpt lat="43.338050" lon="-6.110680">
        <ele>136.366</ele>
        <time>2020-05-20T21:35:30Z</time>
      </trkpt>
      <trkpt lat="43.338010" lon="-6.111010">
        <ele>136.975</ele>
        <time>2020-05-20T21:35:50Z</time>
      </trkpt>
      <trkpt lat="43.338010" lon="-6.111020">
        <ele>136.976</ele>
        <time>2020-05-20T21:36:10Z</time>
      </trkpt>
      <trkpt lat="43.337990" lon="-6.111170">
        <ele>137.895</ele>
        <time>2020-05-20T21:36:30Z</time>
      </trkpt>
      <trkpt lat="43.337960" lon="-6.111430">
        <ele>139.448</ele>
        <time>2020-05-20T21:36:50Z</time>
      </trkpt>
      <trkpt lat="43.337950" lon="-6.111540">
        <ele>139.781</ele>
        <time>2020-05-20T21:37:10Z</time>
      </trkpt>
      <trkpt lat="43.337930" lon="-6.111650">
        <ele>140.461</ele>
        <time>2020-05-20T21:37:30Z</time>
      </trkpt>
      <trkpt lat="43.337910" lon="-6.111790">
        <ele>139.917</ele>
        <time>2020-05-20T21:37:50Z</time>
      </trkpt>
      <trkpt lat="43.337870" lon="-6.111940">
        <ele>139.708</ele>
        <time>2020-05-20T21:38:10Z</time>
      </trkpt>
      <trkpt lat="43.337850" lon="-6.111970">
        <ele>140.112</ele>
        <time>2020-05-20T21:38:30Z</time>
      </trkpt>
      <trkpt lat="43.337820" lon="-6.112060">
        <ele>140.117</ele>
        <time>2020-05-20T21:38:50Z</time>
      </trkpt>
      <trkpt lat="43.337770" lon="-6.112170">
        <ele>139.944</ele>
        <time>2020-05-20T21:39:10Z</time>
      </trkpt>
      <trkpt lat="43.337720" lon="-6.112280">
        <ele>139.570</ele>
        <time>2020-05-20T21:39:30Z</time>
      </trkpt>
      <trkpt lat="43.337630" lon="-6.112400">
        <ele>139.799</ele>
        <time>2020-05-20T21:39:50Z</time>
      </trkpt>
      <trkpt lat="43.337520" lon="-6.112540">
        <ele>139.550</ele>
        <time>2020-05-20T21:40:10Z</time>
      </trkpt>
      <trkpt lat="43.337470" lon="-6.112600">
        <ele>139.429</ele>
        <time>2020-05-20T21:40:30Z</time>
      </trkpt>
      <trkpt lat="43.337350" lon="-6.112760">
        <ele>138.242</ele>
        <time>2020-05-20T21:40:50Z</time>
      </trkpt>
      <trkpt lat="43.337230" lon="-6.112890">
        <ele>137.219</ele>
        <time>2020-05-20T21:41:10Z</time>
      </trkpt>
      <trkpt lat="43.337110" lon="-6.113050">
        <ele>137.309</ele>
        <time>2020-05-20T21:41:30Z</time>
      </trkpt>
      <trkpt lat="43.337010" lon="-6.113170">
        <ele>136.819</ele>
        <time>2020-05-20T21:41:50Z</time>
      </trkpt>
      <trkpt lat="43.336980" lon="-6.113230">
        <ele>136.308</ele>
        <time>2020-05-20T21:42:10Z</time>
      </trkpt>
      <trkpt lat="43.336950" lon="-6.113280">
        <ele>135.745</ele>
        <time>2020-05-20T21:42:30Z</time>
      </trkpt>
      <trkpt lat="43.336930" lon="-6.113320">
        <ele>135.490</ele>
        <time>2020-05-20T21:42:50Z</time>
      </trkpt>
      <trkpt lat="43.336920" lon="-6.113360">
        <ele>135.287</ele>
        <time>2020-05-20T21:43:10Z</time>
      </trkpt>
      <trkpt lat="43.336910" lon="-6.113430">
        <ele>135.143</ele>
        <time>2020-05-20T21:43:30Z</time>
      </trkpt>
      <trkpt lat="43.336900" lon="-6.113530">
        <ele>134.732</ele>
        <time>2020-05-20T21:43:50Z</time>
      </trkpt>
      <trkpt lat="43.336880" lon="-6.113640">
        <ele>134.573</ele>
        <time>2020-05-20T21:44:10Z</time>
      </trkpt>
      <trkpt lat="43.336880" lon="-6.113700">
        <ele>134.522</ele>
        <time>2020-05-20T21:44:30Z</time>
      </trkpt>
      <trkpt lat="43.336870" lon="-6.113780">
        <ele>134.595</ele>
        <time>2020-05-20T21:44:50Z</time>
      </trkpt>
      <trkpt lat="43.336860" lon="-6.113830">
        <ele>134.664</ele>
        <time>2020-05-20T21:45:10Z</time>
      </trkpt>
      <trkpt lat="43.336850" lon="-6.113900">
        <ele>134.706</ele>
        <time>2020-05-20T21:45:30Z</time>
      </trkpt>
      <trkpt lat="43.336840" lon="-6.113970">
        <ele>134.616</ele>
        <time>2020-05-20T21:45:50Z</time>
      </trkpt>
      <trkpt lat="43.336830" lon="-6.114040">
        <ele>134.608</ele>
        <time>2020-05-20T21:46:10Z</time>
      </trkpt>
      <trkpt lat="43.336810" lon="-6.114120">
        <ele>134.620</ele>
        <time>2020-05-20T21:46:30Z</time>
      </trkpt>
      <trkpt lat="43.336780" lon="-6.114180">
        <ele>134.795</ele>
        <time>2020-05-20T21:46:50Z</time>
      </trkpt>
      <trkpt lat="43.336770" lon="-6.114210">
        <ele>134.922</ele>
        <time>2020-05-20T21:47:10Z</time>
      </trkpt>
      <trkpt lat="43.336750" lon="-6.114230">
        <ele>135.188</ele>
        <time>2020-05-20T21:47:30Z</time>
      </trkpt>
      <trkpt lat="43.336720" lon="-6.114270">
        <ele>135.337</ele>
        <time>2020-05-20T21:47:50Z</time>
      </trkpt>
      <trkpt lat="43.336680" lon="-6.114300">
        <ele>135.558</ele>
        <time>2020-05-20T21:48:10Z</time>
      </trkpt>
      <trkpt lat="43.336630" lon="-6.114320">
        <ele>136.327</ele>
        <time>2020-05-20T21:48:30Z</time>
      </trkpt>
      <trkpt lat="43.336610" lon="-6.114320">
        <ele>136.720</ele>
        <time>2020-05-20T21:48:50Z</time>
      </trkpt>
      <trkpt lat="43.336580" lon="-6.114330">
        <ele>137.319</ele>
        <time>2020-05-20T21:49:10Z</time>
      </trkpt>
      <trkpt lat="43.336540" lon="-6.114330">
        <ele>138.109</ele>
        <time>2020-05-20T21:49:30Z</time>
      </trkpt>
      <trkpt lat="43.336490" lon="-6.114340">
        <ele>139.219</ele>
        <time>2020-05-20T21:49:50Z</time>
      </trkpt>
      <trkpt lat="43.336430" lon="-6.114360">
        <ele>140.508</ele>
        <time>2020-05-20T21:50:10Z</time>
      </trkpt>
      <trkpt lat="43.336434" lon="-6.114355">
        <ele>140.455</ele>
        <time>2020-05-20T21:50:30Z</time>
      </trkpt>
      <trkpt lat="43.336400" lon="-6.114450">
        <ele>141.740</ele>
        <time>2020-05-20T21:50:50Z</time>
      </trkpt>
      <trkpt lat="43.336360" lon="-6.114560">
        <ele>142.627</ele>
        <time>2020-05-20T21:51:10Z</time>
      </trkpt>
      <trkpt lat="43.336330" lon="-6.114650">
        <ele>143.333</ele>
        <time>2020-05-20T21:51:30Z</time>
      </trkpt>
      <trkpt lat="43.336310" lon="-6.114710">
        <ele>143.812</ele>
        <time>2020-05-20T21:51:50Z</time>
      </trkpt>
      <trkpt lat="43.336290" lon="-6.114770">
        <ele>144.583</ele>
        <time>2020-05-20T21:52:10Z</time>
      </trkpt>
      <trkpt lat="43.336280" lon="-6.114860">
        <ele>144.862</ele>
        <time>2020-05-20T21:52:30Z</time>
      </trkpt>
      <trkpt lat="43.336280" lon="-6.114940">
        <ele>144.655</ele>
        <time>2020-05-20T21:52:50Z</time>
      </trkpt>
      <trkpt lat="43.336280" lon="-6.115030">
        <ele>144.461</ele>
        <time>2020-05-20T21:53:10Z</time>
      </trkpt>
      <trkpt lat="43.336280" lon="-6.115120">
        <ele>144.221</ele>
        <time>2020-05-20T21:53:30Z</time>
      </trkpt>
      <trkpt lat="43.336270" lon="-6.115190">
        <ele>144.313</ele>
        <time>2020-05-20T21:53:50Z</time>
      </trkpt>
      <trkpt lat="43.336260" lon="-6.115260">
        <ele>144.308</ele>
        <time>2020-05-20T21:54:10Z</time>
      </trkpt>
      <trkpt lat="43.336250" lon="-6.115340">
        <ele>143.930</ele>
        <time>2020-05-20T21:54:30Z</time>
      </trkpt>
      <trkpt lat="43.336220" lon="-6.115460">
        <ele>143.325</ele>
        <time>2020-05-20T21:54:50Z</time>
      </trkpt>
      <trkpt lat="43.336190" lon="-6.115540">
        <ele>142.622</ele>
        <time>2020-05-20T21:55:10Z</time>
      </trkpt>
      <trkpt lat="43.336160" lon="-6.115600">
        <ele>142.678</ele>
        <time>2020-05-20T21:55:30Z</time>
      </trkpt>
      <trkpt lat="43.336130" lon="-6.115630">
        <ele>142.747</ele>
        <time>2020-05-20T21:55:50Z</time>
      </trkpt>
      <trkpt lat="43.336110" lon="-6.115640">
        <ele>142.718</ele>
        <time>2020-05-20T21:56:10Z</time>
      </trkpt>
      <trkpt lat="43.336060" lon="-6.115660">
        <ele>143.627</ele>
        <time>2020-05-20T21:56:30Z</time>
      </trkpt>
      <trkpt lat="43.336020" lon="-6.115680">
        <ele>144.210</ele>
        <time>2020-05-20T21:56:50Z</time>
      </trkpt>
      <trkpt lat="43.335980" lon="-6.115690">
        <ele>144.937</ele>
        <time>2020-05-20T21:57:10Z</time>
      </trkpt>
      <trkpt lat="43.335950" lon="-6.115690">
        <ele>145.449</ele>
        <time>2020-05-20T21:57:30Z</time>
      </trkpt>
      <trkpt lat="43.335930" lon="-6.115690">
        <ele>145.813</ele>
        <time>2020-05-20T21:57:50Z</time>
      </trkpt>
      <trkpt lat="43.335880" lon="-6.115690">
        <ele>146.708</ele>
        <time>2020-05-20T21:58:10Z</time>
      </trkpt>
      <trkpt lat="43.335820" lon="-6.115670">
        <ele>148.127</ele>
        <time>2020-05-20T21:58:30Z</time>
      </trkpt>
      <trkpt lat="43.335780" lon="-6.115660">
        <ele>149.122</ele>
        <time>2020-05-20T21:58:50Z</time>
      </trkpt>
      <trkpt lat="43.335740" lon="-6.115650">
        <ele>150.149</ele>
        <time>2020-05-20T21:59:10Z</time>
      </trkpt>
      <trkpt lat="43.335680" lon="-6.115630">
        <ele>151.855</ele>
        <time>2020-05-20T21:59:30Z</time>
      </trkpt>
      <trkpt lat="43.335610" lon="-6.115600">
        <ele>153.944</ele>
        <time>2020-05-20T21:59:50Z</time>
      </trkpt>
      <trkpt lat="43.335600" lon="-6.115600">
        <ele>154.175</ele>
        <time>2020-05-20T22:00:10Z</time>
      </trkpt>
      <trkpt lat="43.335530" lon="-6.115580">
        <ele>156.134</ele>
        <time>2020-05-20T22:00:30Z</time>
      </trkpt>
      <trkpt lat="43.335440" lon="-6.115590">
        <ele>157.747</ele>
        <time>2020-05-20T22:00:50Z</time>
      </trkpt>
      <trkpt lat="43.335430" lon="-6.115590">
        <ele>157.994</ele>
        <time>2020-05-20T22:01:10Z</time>
      </trkpt>
      <trkpt lat="43.335320" lon="-6.115610">
        <ele>159.657</ele>
        <time>2020-05-20T22:01:30Z</time>
      </trkpt>
      <trkpt lat="43.335250" lon="-6.115630">
        <ele>160.622</ele>
        <time>2020-05-20T22:01:50Z</time>
      </trkpt>
      <trkpt lat="43.335190" lon="-6.115650">
        <ele>161.608</ele>
        <time>2020-05-20T22:02:10Z</time>
      </trkpt>
      <trkpt lat="43.335080" lon="-6.115700">
        <ele>163.243</ele>
        <time>2020-05-20T22:02:30Z</time>
      </trkpt>
      <trkpt lat="43.335030" lon="-6.115740">
        <ele>163.518</ele>
        <time>2020-05-20T22:02:50Z</time>
      </trkpt>
      <trkpt lat="43.334970" lon="-6.115810">
        <ele>164.485</ele>
        <time>2020-05-20T22:03:10Z</time>
      </trkpt>
      <trkpt lat="43.334940" lon="-6.115870">
        <ele>164.571</ele>
        <time>2020-05-20T22:03:30Z</time>
      </trkpt>
      <trkpt lat="43.334910" lon="-6.115920">
        <ele>164.890</ele>
        <time>2020-05-20T22:03:50Z</time>
      </trkpt>
      <trkpt lat="43.334860" lon="-6.115990">
        <ele>165.831</ele>
        <time>2020-05-20T22:04:10Z</time>
      </trkpt>
      <trkpt lat="43.334820" lon="-6.116050">
        <ele>166.580</ele>
        <time>2020-05-20T22:04:30Z</time>
      </trkpt>
      <trkpt lat="43.334810" lon="-6.116070">
        <ele>166.593</ele>
        <time>2020-05-20T22:04:50Z</time>
      </trkpt>
      <trkpt lat="43.334770" lon="-6.116130">
        <ele>167.617</ele>
        <time>2020-05-20T22:05:10Z</time>
      </trkpt>
      <trkpt lat="43.334760" lon="-6.116190">
        <ele>167.487</ele>
        <time>2020-05-20T22:05:30Z</time>
      </trkpt>
      <trkpt lat="43.334740" lon="-6.116260">
        <ele>167.415</ele>
        <time>2020-05-20T22:05:50Z</time>
      </trkpt>
      <trkpt lat="43.334730" lon="-6.116370">
        <ele>166.008</ele>
        <time>2020-05-20T22:06:10Z</time>
      </trkpt>
      <trkpt lat="43.334700" lon="-6.116510">
        <ele>166.935</ele>
        <time>2020-05-20T22:06:30Z</time>
      </trkpt>
      <trkpt lat="43.334730" lon="-6.116660">
        <ele>163.750</ele>
        <time>2020-05-20T22:06:50Z</time>
      </trkpt>
      <trkpt lat="43.334750" lon="-6.116740">
        <ele>162.957</ele>
        <time>2020-05-20T22:07:10Z</time>
      </trkpt>
      <trkpt lat="43.334770" lon="-6.116800">
        <ele>162.263</ele>
        <time>2020-05-20T22:07:30Z</time>
      </trkpt>
      <trkpt lat="43.334850" lon="-6.116940">
        <ele>159.442</ele>
        <time>2020-05-20T22:07:50Z</time>
      </trkpt>
      <trkpt lat="43.334850" lon="-6.116950">
        <ele>159.553</ele>
        <time>2020-05-20T22:08:10Z</time>
      </trkpt>
      <trkpt lat="43.334970" lon="-6.117130">
        <ele>156.722</ele>
        <time>2020-05-20T22:08:30Z</time>
      </trkpt>
      <trkpt lat="43.335000" lon="-6.117160">
        <ele>155.685</ele>
        <time>2020-05-20T22:08:50Z</time>
      </trkpt>
      <trkpt lat="43.335100" lon="-6.117340">
        <ele>156.845</ele>
        <time>2020-05-20T22:09:10Z</time>
      </trkpt>
      <trkpt lat="43.335160" lon="-6.117470">
        <ele>156.947</ele>
        <time>2020-05-20T22:09:30Z</time>
      </trkpt>
      <trkpt lat="43.335200" lon="-6.117580">
        <ele>157.611</ele>
        <time>2020-05-20T22:09:50Z</time>
      </trkpt>
      <trkpt lat="43.335250" lon="-6.117690">
        <ele>158.208</ele>
        <time>2020-05-20T22:10:10Z</time>
      </trkpt>
      <trkpt lat="43.335260" lon="-6.117750">
        <ele>159.178</ele>
        <time>2020-05-20T22:10:30Z</time>
      </trkpt>
      <trkpt lat="43.335280" lon="-6.117810">
        <ele>159.323</ele>
        <time>2020-05-20T22:10:50Z</time>
      </trkpt>
      <trkpt lat="43.335300" lon="-6.117920">
        <ele>160.060</ele>
        <time>2020-05-20T22:11:10Z</time>
      </trkpt>
      <trkpt lat="43.335300" lon="-6.117990">
        <ele>160.766</ele>
        <time>2020-05-20T22:11:30Z</time>
      </trkpt>
      <trkpt lat="43.335300" lon="-6.118070">
        <ele>161.345</ele>
        <time>2020-05-20T22:11:50Z</time>
      </trkpt>
      <trkpt lat="43.335290" lon="-6.118200">
        <ele>161.246</ele>
        <time>2020-05-20T22:12:10Z</time>
      </trkpt>
      <trkpt lat="43.335290" lon="-6.118240">
        <ele>161.095</ele>
        <time>2020-05-20T22:12:30Z</time>
      </trkpt>
      <trkpt lat="43.335280" lon="-6.118320">
        <ele>161.048</ele>
        <time>2020-05-20T22:12:50Z</time>
      </trkpt>
      <trkpt lat="43.335270" lon="-6.118450">
        <ele>161.351</ele>
        <time>2020-05-20T22:13:10Z</time>
      </trkpt>
      <trkpt lat="43.335280" lon="-6.118480">
        <ele>161.001</ele>
        <time>2020-05-20T22:13:30Z</time>
      </trkpt>
      <trkpt lat="43.335280" lon="-6.118540">
        <ele>161.011</ele>
        <time>2020-05-20T22:13:50Z</time>
      </trkpt>
      <trkpt lat="43.335310" lon="-6.118640">
        <ele>160.608</ele>
        <time>2020-05-20T22:14:10Z</time>
      </trkpt>
      <trkpt lat="43.335330" lon="-6.118730">
        <ele>160.959</ele>
        <time>2020-05-20T22:14:30Z</time>
      </trkpt>
      <trkpt lat="43.335400" lon="-6.118870">
        <ele>160.724</ele>
        <time>2020-05-20T22:14:50Z</time>
      </trkpt>
      <trkpt lat="43.335430" lon="-6.118920">
        <ele>160.361</ele>
        <time>2020-05-20T22:15:10Z</time>
      </trkpt>
      <trkpt lat="43.335480" lon="-6.119020">
        <ele>159.487</ele>
        <time>2020-05-20T22:15:30Z</time>
      </trkpt>
      <trkpt lat="43.335540" lon="-6.119130">
        <ele>158.396</ele>
        <time>2020-05-20T22:15:50Z</time>
      </trkpt>
      <trkpt lat="43.335540" lon="-6.119140">
        <ele>158.347</ele>
        <time>2020-05-20T22:16:10Z</time>
      </trkpt>
      <trkpt lat="43.335570" lon="-6.119240">
        <ele>157.946</ele>
        <time>2020-05-20T22:16:30Z</time>
      </trkpt>
      <trkpt lat="43.335570" lon="-6.119320">
        <ele>157.349</ele>
        <time>2020-05-20T22:16:50Z</time>
      </trkpt>
      <trkpt lat="43.335580" lon="-6.119360">
        <ele>157.434</ele>
        <time>2020-05-20T22:17:10Z</time>
      </trkpt>
      <trkpt lat="43.335580" lon="-6.119430">
        <ele>156.955</ele>
        <time>2020-05-20T22:17:30Z</time>
      </trkpt>
      <trkpt lat="43.335570" lon="-6.119560">
        <ele>156.110</ele>
        <time>2020-05-20T22:17:50Z</time>
      </trkpt>
      <trkpt lat="43.335570" lon="-6.119720">
        <ele>155.508</ele>
        <time>2020-05-20T22:18:10Z</time>
      </trkpt>
      <trkpt lat="43.335590" lon="-6.119900">
        <ele>157.057</ele>
        <time>2020-05-20T22:18:30Z</time>
      </trkpt>
      <trkpt lat="43.335610" lon="-6.120080">
        <ele>158.682</ele>
        <time>2020-05-20T22:18:50Z</time>
      </trkpt>
      <trkpt lat="43.335620" lon="-6.120130">
        <ele>159.379</ele>
        <time>2020-05-20T22:19:10Z</time>
      </trkpt>
      <trkpt lat="43.335650" lon="-6.120280">
        <ele>161.145</ele>
        <time>2020-05-20T22:19:30Z</time>
      </trkpt>
      <trkpt lat="43.335670" lon="-6.120480">
        <ele>163.864</ele>
        <time>2020-05-20T22:19:50Z</time>
      </trkpt>
      <trkpt lat="43.335720" lon="-6.120670">
        <ele>166.545</ele>
        <time>2020-05-20T22:20:10Z</time>
      </trkpt>
      <trkpt lat="43.335730" lon="-6.120780">
        <ele>166.934</ele>
        <time>2020-05-20T22:20:30Z</time>
      </trkpt>
      <trkpt lat="43.335720" lon="-6.120800">
        <ele>166.587</ele>
        <time>2020-05-20T22:20:50Z</time>
      </trkpt>
      <trkpt lat="43.335720" lon="-6.120880">
        <ele>166.169</ele>
        <time>2020-05-20T22:21:10Z</time>
      </trkpt>
      <trkpt lat="43.335710" lon="-6.121010">
        <ele>164.504</ele>
        <time>2020-05-20T22:21:30Z</time>
      </trkpt>
      <trkpt lat="43.335700" lon="-6.121130">
        <ele>163.124</ele>
        <time>2020-05-20T22:21:50Z</time>
      </trkpt>
      <trkpt lat="43.335720" lon="-6.121240">
        <ele>163.008</ele>
        <time>2020-05-20T22:22:10Z</time>
      </trkpt>
      <trkpt lat="43.335730" lon="-6.121290">
        <ele>163.070</ele>
        <time>2020-05-20T22:22:30Z</time>
      </trkpt>
      <trkpt lat="43.335780" lon="-6.121480">
        <ele>164.565</ele>
        <time>2020-05-20T22:22:50Z</time>
      </trkpt>
      <trkpt lat="43.335790" lon="-6.121530">
        <ele>165.232</ele>
        <time>2020-05-20T22:23:10Z</time>
      </trkpt>
      <trkpt lat="43.335820" lon="-6.121640">
        <ele>167.298</ele>
        <time>2020-05-20T22:23:30Z</time>
      </trkpt>
      <trkpt lat="43.335850" lon="-6.121760">
        <ele>168.357</ele>
        <time>2020-05-20T22:23:50Z</time>
      </trkpt>
      <trkpt lat="43.335860" lon="-6.121810">
        <ele>168.618</ele>
        <time>2020-05-20T22:24:10Z</time>
      </trkpt>
      <trkpt lat="43.335920" lon="-6.121990">
        <ele>171.217</ele>
        <time>2020-05-20T22:24:30Z</time>
      </trkpt>
      <trkpt lat="43.335930" lon="-6.122020">
        <ele>171.570</ele>
        <time>2020-05-20T22:24:50Z</time>
      </trkpt>
      <trkpt lat="43.335970" lon="-6.122180">
        <ele>172.745</ele>
        <time>2020-05-20T22:25:10Z</time>
      </trkpt>
      <trkpt lat="43.335990" lon="-6.122320">
        <ele>173.347</ele>
        <time>2020-05-20T22:25:30Z</time>
      </trkpt>
      <trkpt lat="43.336010" lon="-6.122460">
        <ele>174.011</ele>
        <time>2020-05-20T22:25:50Z</time>
      </trkpt>
      <trkpt lat="43.336010" lon="-6.122480">
        <ele>173.908</ele>
        <time>2020-05-20T22:26:10Z</time>
      </trkpt>
      <trkpt lat="43.336010" lon="-6.122670">
        <ele>173.928</ele>
        <time>2020-05-20T22:26:30Z</time>
      </trkpt>
      <trkpt lat="43.336020" lon="-6.122970">
        <ele>176.213</ele>
        <time>2020-05-20T22:26:50Z</time>
      </trkpt>
      <trkpt lat="43.336020" lon="-6.123190">
        <ele>179.020</ele>
        <time>2020-05-20T22:27:10Z</time>
      </trkpt>
      <trkpt lat="43.336000" lon="-6.123360">
        <ele>180.526</ele>
        <time>2020-05-20T22:27:30Z</time>
      </trkpt>
      <trkpt lat="43.335980" lon="-6.123500">
        <ele>181.715</ele>
        <time>2020-05-20T22:27:50Z</time>
      </trkpt>
      <trkpt lat="43.335960" lon="-6.123660">
        <ele>183.456</ele>
        <time>2020-05-20T22:28:10Z</time>
      </trkpt>
      <trkpt lat="43.335940" lon="-6.123800">
        <ele>185.615</ele>
        <time>2020-05-20T22:28:30Z</time>
      </trkpt>
      <trkpt lat="43.335900" lon="-6.124010">
        <ele>189.458</ele>
        <time>2020-05-20T22:28:50Z</time>
      </trkpt>
      <trkpt lat="43.335860" lon="-6.124160">
        <ele>192.111</ele>
        <time>2020-05-20T22:29:10Z</time>
      </trkpt>
      <trkpt lat="43.335810" lon="-6.124300">
        <ele>193.321</ele>
        <time>2020-05-20T22:29:30Z</time>
      </trkpt>
      <trkpt lat="43.335770" lon="-6.124380">
        <ele>193.603</ele>
        <time>2020-05-20T22:29:50Z</time>
      </trkpt>
      <trkpt lat="43.335730" lon="-6.124450">
        <ele>193.608</ele>
        <time>2020-05-20T22:30:10Z</time>
      </trkpt>
      <trkpt lat="43.335660" lon="-6.124580">
        <ele>192.535</ele>
        <time>2020-05-20T22:30:30Z</time>
      </trkpt>
      <trkpt lat="43.335570" lon="-6.124690">
        <ele>189.430</ele>
        <time>2020-05-20T22:30:50Z</time>
      </trkpt>
      <trkpt lat="43.335500" lon="-6.124850">
        <ele>186.997</ele>
        <time>2020-05-20T22:31:10Z</time>
      </trkpt>
      <trkpt lat="43.335440" lon="-6.124970">
        <ele>184.273</ele>
        <time>2020-05-20T22:31:30Z</time>
      </trkpt>
      <trkpt lat="43.335420" lon="-6.125010">
        <ele>183.232</ele>
        <time>2020-05-20T22:31:50Z</time>
      </trkpt>
      <trkpt lat="43.335390" lon="-6.125120">
        <ele>181.383</ele>
        <time>2020-05-20T22:32:10Z</time>
      </trkpt>
      <trkpt lat="43.335380" lon="-6.125200">
        <ele>180.742</ele>
        <time>2020-05-20T22:32:30Z</time>
      </trkpt>
      <trkpt lat="43.335380" lon="-6.125370">
        <ele>180.685</ele>
        <time>2020-05-20T22:32:50Z</time>
      </trkpt>
      <trkpt lat="43.335390" lon="-6.125460">
        <ele>180.824</ele>
        <time>2020-05-20T22:33:10Z</time>
      </trkpt>
      <trkpt lat="43.335400" lon="-6.125530">
        <ele>181.004</ele>
        <time>2020-05-20T22:33:30Z</time>
      </trkpt>
      <trkpt lat="43.335420" lon="-6.125610">
        <ele>181.614</ele>
        <time>2020-05-20T22:33:50Z</time>
      </trkpt>
      <trkpt lat="43.335430" lon="-6.125690">
        <ele>182.008</ele>
        <time>2020-05-20T22:34:10Z</time>
      </trkpt>
      <trkpt lat="43.335430" lon="-6.125740">
        <ele>182.036</ele>
        <time>2020-05-20T22:34:30Z</time>
      </trkpt>
      <trkpt lat="43.335440" lon="-6.125790">
        <ele>182.421</ele>
        <time>2020-05-20T22:34:50Z</time>
      </trkpt>
      <trkpt lat="43.335450" lon="-6.125850">
        <ele>182.948</ele>
        <time>2020-05-20T22:35:10Z</time>
      </trkpt>
      <trkpt lat="43.335460" lon="-6.125910">
        <ele>183.414</ele>
        <time>2020-05-20T22:35:30Z</time>
      </trkpt>
      <trkpt lat="43.335500" lon="-6.126000">
        <ele>185.333</ele>
        <time>2020-05-20T22:35:50Z</time>
      </trkpt>
      <trkpt lat="43.335510" lon="-6.126060">
        <ele>185.994</ele>
        <time>2020-05-20T22:36:10Z</time>
      </trkpt>
      <trkpt lat="43.335520" lon="-6.126110">
        <ele>186.553</ele>
        <time>2020-05-20T22:36:30Z</time>
      </trkpt>
      <trkpt lat="43.335520" lon="-6.126190">
        <ele>187.066</ele>
        <time>2020-05-20T22:36:50Z</time>
      </trkpt>
      <trkpt lat="43.335500" lon="-6.126280">
        <ele>186.831</ele>
        <time>2020-05-20T22:37:10Z</time>
      </trkpt>
      <trkpt lat="43.335490" lon="-6.126360">
        <ele>187.061</ele>
        <time>2020-05-20T22:37:30Z</time>
      </trkpt>
      <trkpt lat="43.335490" lon="-6.126400">
        <ele>187.207</ele>
        <time>2020-05-20T22:37:50Z</time>
      </trkpt>
      <trkpt lat="43.335490" lon="-6.126540">
        <ele>187.308</ele>
        <time>2020-05-20T22:38:10Z</time>
      </trkpt>
      <trkpt lat="43.335510" lon="-6.126640">
        <ele>188.577</ele>
        <time>2020-05-20T22:38:30Z</time>
      </trkpt>
      <trkpt lat="43.335510" lon="-6.126670">
        <ele>188.512</ele>
        <time>2020-05-20T22:38:50Z</time>
      </trkpt>
      <trkpt lat="43.335560" lon="-6.126760">
        <ele>190.589</ele>
        <time>2020-05-20T22:39:10Z</time>
      </trkpt>
      <trkpt lat="43.335610" lon="-6.126820">
        <ele>192.235</ele>
        <time>2020-05-20T22:39:30Z</time>
      </trkpt>
      <trkpt lat="43.335690" lon="-6.126930">
        <ele>194.934</ele>
        <time>2020-05-20T22:39:50Z</time>
      </trkpt>
      <trkpt lat="43.335750" lon="-6.127030">
        <ele>196.425</ele>
        <time>2020-05-20T22:40:10Z</time>
      </trkpt>
      <trkpt lat="43.335820" lon="-6.127120">
        <ele>198.084</ele>
        <time>2020-05-20T22:40:30Z</time>
      </trkpt>
      <trkpt lat="43.335870" lon="-6.127190">
        <ele>198.977</ele>
        <time>2020-05-20T22:40:50Z</time>
      </trkpt>
      <trkpt lat="43.335890" lon="-6.127220">
        <ele>199.369</ele>
        <time>2020-05-20T22:41:10Z</time>
      </trkpt>
      <trkpt lat="43.335930" lon="-6.127360">
        <ele>198.804</ele>
        <time>2020-05-20T22:41:30Z</time>
      </trkpt>
      <trkpt lat="43.336010" lon="-6.127630">
        <ele>197.824</ele>
        <time>2020-05-20T22:41:50Z</time>
      </trkpt>
      <trkpt lat="43.336010" lon="-6.127640">
        <ele>197.708</ele>
        <time>2020-05-20T22:42:10Z</time>
      </trkpt>
      <trkpt lat="43.336060" lon="-6.127880">
        <ele>196.020</ele>
        <time>2020-05-20T22:42:30Z</time>
      </trkpt>
      <trkpt lat="43.336100" lon="-6.128080">
        <ele>195.595</ele>
        <time>2020-05-20T22:42:50Z</time>
      </trkpt>
      <trkpt lat="43.336110" lon="-6.128120">
        <ele>196.042</ele>
        <time>2020-05-20T22:43:10Z</time>
      </trkpt>
      <trkpt lat="43.336230" lon="-6.128590">
        <ele>200.728</ele>
        <time>2020-05-20T22:43:30Z</time>
      </trkpt>
      <trkpt lat="43.336270" lon="-6.128820">
        <ele>202.177</ele>
        <time>2020-05-20T22:43:50Z</time>
      </trkpt>
      <trkpt lat="43.336280" lon="-6.128860">
        <ele>202.528</ele>
        <time>2020-05-20T22:44:10Z</time>
      </trkpt>
      <trkpt lat="43.336310" lon="-6.129020">
        <ele>204.447</ele>
        <time>2020-05-20T22:44:30Z</time>
      </trkpt>
      <trkpt lat="43.336320" lon="-6.129060">
        <ele>205.070</ele>
        <time>2020-05-20T22:44:50Z</time>
      </trkpt>
      <trkpt lat="43.336330" lon="-6.129170">
        <ele>205.854</ele>
        <time>2020-05-20T22:45:10Z</time>
      </trkpt>
      <trkpt lat="43.336340" lon="-6.129310">
        <ele>205.956</ele>
        <time>2020-05-20T22:45:30Z</time>
      </trkpt>
      <trkpt lat="43.336340" lon="-6.129330">
        <ele>205.911</ele>
        <time>2020-05-20T22:45:50Z</time>
      </trkpt>
      <trkpt lat="43.336350" lon="-6.129450">
        <ele>206.008</ele>
        <time>2020-05-20T22:46:10Z</time>
      </trkpt>
      <trkpt lat="43.336350" lon="-6.129550">
        <ele>204.789</ele>
        <time>2020-05-20T22:46:30Z</time>
      </trkpt>
      <trkpt lat="43.336350" lon="-6.129580">
        <ele>204.374</ele>
        <time>2020-05-20T22:46:50Z</time>
      </trkpt>
      <trkpt lat="43.336350" lon="-6.129680">
        <ele>203.041</ele>
        <time>2020-05-20T22:47:10Z</time>
      </trkpt>
      <trkpt lat="43.336360" lon="-6.129800">
        <ele>201.627</ele>
        <time>2020-05-20T22:47:30Z</time>
      </trkpt>
      <trkpt lat="43.336390" lon="-6.129900">
        <ele>200.866</ele>
        <time>2020-05-20T22:47:50Z</time>
      </trkpt>
      <trkpt lat="43.336420" lon="-6.129990">
        <ele>200.347</ele>
        <time>2020-05-20T22:48:10Z</time>
      </trkpt>
      <trkpt lat="43.336450" lon="-6.130070">
        <ele>200.826</ele>
        <time>2020-05-20T22:48:30Z</time>
      </trkpt>
      <trkpt lat="43.336480" lon="-6.130150">
        <ele>201.429</ele>
        <time>2020-05-20T22:48:50Z</time>
      </trkpt>
      <trkpt lat="43.336510" lon="-6.130210">
        <ele>201.988</ele>
        <time>2020-05-20T22:49:10Z</time>
      </trkpt>
      <trkpt lat="43.336530" lon="-6.130240">
        <ele>202.324</ele>
        <time>2020-05-20T22:49:30Z</time>
      </trkpt>
      <trkpt lat="43.336540" lon="-6.130250">
        <ele>202.626</ele>
        <time>2020-05-20T22:49:50Z</time>
      </trkpt>
      <trkpt lat="43.336560" lon="-6.130280">
        <ele>202.908</ele>
        <time>2020-05-20T22:50:10Z</time>
      </trkpt>
      <trkpt lat="43.336580" lon="-6.130350">
        <ele>203.652</ele>
        <time>2020-05-20T22:50:30Z</time>
      </trkpt>
      <trkpt lat="43.336600" lon="-6.130420">
        <ele>204.357</ele>
        <time>2020-05-20T22:50:50Z</time>
      </trkpt>
      <trkpt lat="43.336610" lon="-6.130450">
        <ele>204.744</ele>
        <time>2020-05-20T22:51:10Z</time>
      </trkpt>
      <trkpt lat="43.336620" lon="-6.130490">
        <ele>205.230</ele>
        <time>2020-05-20T22:51:30Z</time>
      </trkpt>
      <trkpt lat="43.336620" lon="-6.130550">
        <ele>205.399</ele>
        <time>2020-05-20T22:51:50Z</time>
      </trkpt>
      <trkpt lat="43.336610" lon="-6.130600">
        <ele>205.160</ele>
        <time>2020-05-20T22:52:10Z</time>
      </trkpt>
      <trkpt lat="43.336590" lon="-6.130630">
        <ele>204.459</ele>
        <time>2020-05-20T22:52:30Z</time>
      </trkpt>
      <trkpt lat="43.336560" lon="-6.130670">
        <ele>203.332</ele>
        <time>2020-05-20T22:52:50Z</time>
      </trkpt>
      <trkpt lat="43.336540" lon="-6.130690">
        <ele>202.548</ele>
        <time>2020-05-20T22:53:10Z</time>
      </trkpt>
      <trkpt lat="43.336500" lon="-6.130740">
        <ele>200.961</ele>
        <time>2020-05-20T22:53:30Z</time>
      </trkpt>
      <trkpt lat="43.336460" lon="-6.130810">
        <ele>199.117</ele>
        <time>2020-05-20T22:53:50Z</time>
      </trkpt>
      <trkpt lat="43.336440" lon="-6.130850">
        <ele>198.208</ele>
        <time>2020-05-20T22:54:10Z</time>
      </trkpt>
      <trkpt lat="43.336440" lon="-6.130860">
        <ele>198.168</ele>
        <time>2020-05-20T22:54:30Z</time>
      </trkpt>
      <trkpt lat="43.336440" lon="-6.130930">
        <ele>198.023</ele>
        <time>2020-05-20T22:54:50Z</time>
      </trkpt>
      <trkpt lat="43.336450" lon="-6.131000">
        <ele>198.390</ele>
        <time>2020-05-20T22:55:10Z</time>
      </trkpt>
      <trkpt lat="43.336480" lon="-6.131060">
        <ele>199.756</ele>
        <time>2020-05-20T22:55:30Z</time>
      </trkpt>
      <trkpt lat="43.336490" lon="-6.131080">
        <ele>200.125</ele>
        <time>2020-05-20T22:55:50Z</time>
      </trkpt>
      <trkpt lat="43.336530" lon="-6.131160">
        <ele>201.996</ele>
        <time>2020-05-20T22:56:10Z</time>
      </trkpt>
      <trkpt lat="43.336580" lon="-6.131260">
        <ele>204.175</ele>
        <time>2020-05-20T22:56:30Z</time>
      </trkpt>
      <trkpt lat="43.336660" lon="-6.131400">
        <ele>207.538</ele>
        <time>2020-05-20T22:56:50Z</time>
      </trkpt>
      <trkpt lat="43.336700" lon="-6.131480">
        <ele>208.793</ele>
        <time>2020-05-20T22:57:10Z</time>
      </trkpt>
      <trkpt lat="43.336710" lon="-6.131490">
        <ele>209.165</ele>
        <time>2020-05-20T22:57:30Z</time>
      </trkpt>
      <trkpt lat="43.336770" lon="-6.131580">
        <ele>211.421</ele>
        <time>2020-05-20T22:57:50Z</time>
      </trkpt>
      <trkpt lat="43.336810" lon="-6.131670">
        <ele>212.708</ele>
        <time>2020-05-20T22:58:10Z</time>
      </trkpt>
      <trkpt lat="43.336820" lon="-6.131700">
        <ele>212.923</ele>
        <time>2020-05-20T22:58:30Z</time>
      </trkpt>
      <trkpt lat="43.336860" lon="-6.131830">
        <ele>213.798</ele>
        <time>2020-05-20T22:58:50Z</time>
      </trkpt>
      <trkpt lat="43.336880" lon="-6.131900">
        <ele>214.045</ele>
        <time>2020-05-20T22:59:10Z</time>
      </trkpt>
      <trkpt lat="43.336880" lon="-6.131920">
        <ele>213.881</ele>
        <time>2020-05-20T22:59:30Z</time>
      </trkpt>
      <trkpt lat="43.336890" lon="-6.132010">
        <ele>214.050</ele>
        <time>2020-05-20T22:59:50Z</time>
      </trkpt>
      <trkpt lat="43.336890" lon="-6.132120">
        <ele>213.891</ele>
        <time>2020-05-20T23:00:10Z</time>
      </trkpt>
      <trkpt lat="43.336890" lon="-6.132150">
        <ele>213.860</ele>
        <time>2020-05-20T23:00:30Z</time>
      </trkpt>
      <trkpt lat="43.336880" lon="-6.132190">
        <ele>213.183</ele>
        <time>2020-05-20T23:00:50Z</time>
      </trkpt>
      <trkpt lat="43.336880" lon="-6.132270">
        <ele>212.868</ele>
        <time>2020-05-20T23:01:10Z</time>
      </trkpt>
      <trkpt lat="43.336870" lon="-6.132340">
        <ele>211.942</ele>
        <time>2020-05-20T23:01:30Z</time>
      </trkpt>
      <trkpt lat="43.336850" lon="-6.132420">
        <ele>210.526</ele>
        <time>2020-05-20T23:01:50Z</time>
      </trkpt>
      <trkpt lat="43.336830" lon="-6.132550">
        <ele>209.608</ele>
        <time>2020-05-20T23:02:10Z</time>
      </trkpt>
      <trkpt lat="43.336810" lon="-6.132660">
        <ele>209.660</ele>
        <time>2020-05-20T23:02:30Z</time>
      </trkpt>
      <trkpt lat="43.336780" lon="-6.132770">
        <ele>209.425</ele>
        <time>2020-05-20T23:02:50Z</time>
      </trkpt>
      <trkpt lat="43.336770" lon="-6.132850">
        <ele>209.932</ele>
        <time>2020-05-20T23:03:10Z</time>
      </trkpt>
      <trkpt lat="43.336760" lon="-6.132870">
        <ele>209.788</ele>
        <time>2020-05-20T23:03:30Z</time>
      </trkpt>
      <trkpt lat="43.336760" lon="-6.132900">
        <ele>210.037</ele>
        <time>2020-05-20T23:03:50Z</time>
      </trkpt>
      <trkpt lat="43.336740" lon="-6.132940">
        <ele>209.748</ele>
        <time>2020-05-20T23:04:10Z</time>
      </trkpt>
      <trkpt lat="43.336730" lon="-6.133000">
        <ele>209.977</ele>
        <time>2020-05-20T23:04:30Z</time>
      </trkpt>
      <trkpt lat="43.336710" lon="-6.133090">
        <ele>210.640</ele>
        <time>2020-05-20T23:04:50Z</time>
      </trkpt>
      <trkpt lat="43.336670" lon="-6.133180">
        <ele>211.344</ele>
        <time>2020-05-20T23:05:10Z</time>
      </trkpt>
      <trkpt lat="43.336640" lon="-6.133230">
        <ele>211.505</ele>
        <time>2020-05-20T23:05:30Z</time>
      </trkpt>
      <trkpt lat="43.336590" lon="-6.133300">
        <ele>211.715</ele>
        <time>2020-05-20T23:05:50Z</time>
      </trkpt>
      <trkpt lat="43.336470" lon="-6.133420">
        <ele>210.108</ele>
        <time>2020-05-20T23:06:10Z</time>
      </trkpt>
      <trkpt lat="43.336300" lon="-6.133570">
        <ele>205.498</ele>
        <time>2020-05-20T23:06:30Z</time>
      </trkpt>
      <trkpt lat="43.336290" lon="-6.133570">
        <ele>205.063</ele>
        <time>2020-05-20T23:06:50Z</time>
      </trkpt>
      <trkpt lat="43.336250" lon="-6.133620">
        <ele>203.510</ele>
        <time>2020-05-20T23:07:10Z</time>
      </trkpt>
      <trkpt lat="43.336220" lon="-6.133660">
        <ele>202.166</ele>
        <time>2020-05-20T23:07:30Z</time>
      </trkpt>
      <trkpt lat="43.336220" lon="-6.133710">
        <ele>202.235</ele>
        <time>2020-05-20T23:07:50Z</time>
      </trkpt>
      <trkpt lat="43.336220" lon="-6.133830">
        <ele>202.276</ele>
        <time>2020-05-20T23:08:10Z</time>
      </trkpt>
      <trkpt lat="43.336240" lon="-6.133970">
        <ele>203.485</ele>
        <time>2020-05-20T23:08:30Z</time>
      </trkpt>
      <trkpt lat="43.336240" lon="-6.133980">
        <ele>203.448</ele>
        <time>2020-05-20T23:08:50Z</time>
      </trkpt>
      <trkpt lat="43.336270" lon="-6.134130">
        <ele>205.385</ele>
        <time>2020-05-20T23:09:10Z</time>
      </trkpt>
      <trkpt lat="43.336300" lon="-6.134290">
        <ele>207.489</ele>
        <time>2020-05-20T23:09:30Z</time>
      </trkpt>
      <trkpt lat="43.336330" lon="-6.134450">
        <ele>209.417</ele>
        <time>2020-05-20T23:09:50Z</time>
      </trkpt>
      <trkpt lat="43.336330" lon="-6.134460">
        <ele>209.308</ele>
        <time>2020-05-20T23:10:10Z</time>
      </trkpt>
      <trkpt lat="43.336360" lon="-6.134590">
        <ele>210.252</ele>
        <time>2020-05-20T23:10:30Z</time>
      </trkpt>
      <trkpt lat="43.336400" lon="-6.134710">
        <ele>211.637</ele>
        <time>2020-05-20T23:10:50Z</time>
      </trkpt>
      <trkpt lat="43.336410" lon="-6.134830">
        <ele>211.154</ele>
        <time>2020-05-20T23:11:10Z</time>
      </trkpt>
      <trkpt lat="43.336390" lon="-6.134930">
        <ele>209.550</ele>
        <time>2020-05-20T23:11:30Z</time>
      </trkpt>
      <trkpt lat="43.336380" lon="-6.134980">
        <ele>208.699</ele>
        <time>2020-05-20T23:11:50Z</time>
      </trkpt>
      <trkpt lat="43.336350" lon="-6.135110">
        <ele>205.940</ele>
        <time>2020-05-20T23:12:10Z</time>
      </trkpt>
      <trkpt lat="43.336350" lon="-6.135170">
        <ele>205.649</ele>
        <time>2020-05-20T23:12:30Z</time>
      </trkpt>
      <trkpt lat="43.336340" lon="-6.135230">
        <ele>204.832</ele>
        <time>2020-05-20T23:12:50Z</time>
      </trkpt>
      <trkpt lat="43.336350" lon="-6.135360">
        <ele>205.246</ele>
        <time>2020-05-20T23:13:10Z</time>
      </trkpt>
      <trkpt lat="43.336370" lon="-6.135440">
        <ele>206.188</ele>
        <time>2020-05-20T23:13:30Z</time>
      </trkpt>
      <trkpt lat="43.336390" lon="-6.135520">
        <ele>206.916</ele>
        <time>2020-05-20T23:13:50Z</time>
      </trkpt>
      <trkpt lat="43.336410" lon="-6.135560">
        <ele>207.808</ele>
        <time>2020-05-20T23:14:10Z</time>
      </trkpt>
      <trkpt lat="43.336440" lon="-6.135610">
        <ele>209.898</ele>
        <time>2020-05-20T23:14:30Z</time>
      </trkpt>
      <trkpt lat="43.336470" lon="-6.135670">
        <ele>212.163</ele>
        <time>2020-05-20T23:14:50Z</time>
      </trkpt>
      <trkpt lat="43.336500" lon="-6.135710">
        <ele>213.940</ele>
        <time>2020-05-20T23:15:10Z</time>
      </trkpt>
      <trkpt lat="43.336520" lon="-6.135740">
        <ele>215.266</ele>
        <time>2020-05-20T23:15:30Z</time>
      </trkpt>
      <trkpt lat="43.336530" lon="-6.135770">
        <ele>216.255</ele>
        <time>2020-05-20T23:15:50Z</time>
      </trkpt>
      <trkpt lat="43.336530" lon="-6.135790">
        <ele>216.656</ele>
        <time>2020-05-20T23:16:10Z</time>
      </trkpt>
      <trkpt lat="43.336520" lon="-6.135810">
        <ele>216.715</ele>
        <time>2020-05-20T23:16:30Z</time>
      </trkpt>
      <trkpt lat="43.336520" lon="-6.135820">
        <ele>217.078</ele>
        <time>2020-05-20T23:16:50Z</time>
      </trkpt>
      <trkpt lat="43.336510" lon="-6.135840">
        <ele>217.137</ele>
        <time>2020-05-20T23:17:10Z</time>
      </trkpt>
      <trkpt lat="43.336490" lon="-6.135870">
        <ele>217.549</ele>
        <time>2020-05-20T23:17:30Z</time>
      </trkpt>
      <trkpt lat="43.336430" lon="-6.135930">
        <ele>217.713</ele>
        <time>2020-05-20T23:17:50Z</time>
      </trkpt>
      <trkpt lat="43.336320" lon="-6.135990">
        <ele>216.908</ele>
        <time>2020-05-20T23:18:10Z</time>
      </trkpt>
      <trkpt lat="43.336200" lon="-6.136060">
        <ele>216.097</ele>
        <time>2020-05-20T23:18:30Z</time>
      </trkpt>
      <trkpt lat="43.336170" lon="-6.136080">
        <ele>215.842</ele>
        <time>2020-05-20T23:18:50Z</time>
      </trkpt>
      <trkpt lat="43.336070" lon="-6.136140">
        <ele>214.019</ele>
        <time>2020-05-20T23:19:10Z</time>
      </trkpt>
      <trkpt lat="43.335930" lon="-6.136320">
        <ele>211.445</ele>
        <time>2020-05-20T23:19:30Z</time>
      </trkpt>
      <trkpt lat="43.335910" lon="-6.136350">
        <ele>211.094</ele>
        <time>2020-05-20T23:19:50Z</time>
      </trkpt>
      <trkpt lat="43.335850" lon="-6.136450">
        <ele>209.495</ele>
        <time>2020-05-20T23:20:10Z</time>
      </trkpt>
      <trkpt lat="43.335820" lon="-6.136600">
        <ele>209.814</ele>
        <time>2020-05-20T23:20:30Z</time>
      </trkpt>
      <trkpt lat="43.335810" lon="-6.136760">
        <ele>210.477</ele>
        <time>2020-05-20T23:20:50Z</time>
      </trkpt>
      <trkpt lat="43.335800" lon="-6.136910">
        <ele>210.522</ele>
        <time>2020-05-20T23:21:10Z</time>
      </trkpt>
      <trkpt lat="43.335800" lon="-6.137050">
        <ele>209.762</ele>
        <time>2020-05-20T23:21:30Z</time>
      </trkpt>
      <trkpt lat="43.335840" lon="-6.137220">
        <ele>210.408</ele>
        <time>2020-05-20T23:21:50Z</time>
      </trkpt>
      <trkpt lat="43.335860" lon="-6.137360">
        <ele>210.608</ele>
        <time>2020-05-20T23:22:10Z</time>
      </trkpt>
      <trkpt lat="43.335880" lon="-6.137530">
        <ele>211.326</ele>
        <time>2020-05-20T23:22:30Z</time>
      </trkpt>
      <trkpt lat="43.335900" lon="-6.137590">
        <ele>213.281</ele>
        <time>2020-05-20T23:22:50Z</time>
      </trkpt>
      <trkpt lat="43.335910" lon="-6.137690">
        <ele>214.838</ele>
        <time>2020-05-20T23:23:10Z</time>
      </trkpt>
      <trkpt lat="43.335900" lon="-6.137790">
        <ele>215.054</ele>
        <time>2020-05-20T23:23:30Z</time>
      </trkpt>
      <trkpt lat="43.335880" lon="-6.137880">
        <ele>213.453</ele>
        <time>2020-05-20T23:23:50Z</time>
      </trkpt>
      <trkpt lat="43.335850" lon="-6.137960">
        <ele>210.934</ele>
        <time>2020-05-20T23:24:10Z</time>
      </trkpt>
      <trkpt lat="43.335830" lon="-6.138010">
        <ele>209.243</ele>
        <time>2020-05-20T23:24:30Z</time>
      </trkpt>
      <trkpt lat="43.335780" lon="-6.138130">
        <ele>206.396</ele>
        <time>2020-05-20T23:24:50Z</time>
      </trkpt>
      <trkpt lat="43.335730" lon="-6.138300">
        <ele>203.847</ele>
        <time>2020-05-20T23:25:10Z</time>
      </trkpt>
      <trkpt lat="43.335710" lon="-6.138380">
        <ele>203.029</ele>
        <time>2020-05-20T23:25:30Z</time>
      </trkpt>
      <trkpt lat="43.335700" lon="-6.138460">
        <ele>202.921</ele>
        <time>2020-05-20T23:25:50Z</time>
      </trkpt>
      <trkpt lat="43.335700" lon="-6.138480">
        <ele>203.008</ele>
        <time>2020-05-20T23:26:10Z</time>
      </trkpt>
      <trkpt lat="43.335700" lon="-6.138550">
        <ele>203.428</ele>
        <time>2020-05-20T23:26:30Z</time>
      </trkpt>
      <trkpt lat="43.335710" lon="-6.138630">
        <ele>203.973</ele>
        <time>2020-05-20T23:26:50Z</time>
      </trkpt>
      <trkpt lat="43.335740" lon="-6.138710">
        <ele>204.470</ele>
        <time>2020-05-20T23:27:10Z</time>
      </trkpt>
      <trkpt lat="43.335820" lon="-6.138890">
        <ele>204.786</ele>
        <time>2020-05-20T23:27:30Z</time>
      </trkpt>
      <trkpt lat="43.335950" lon="-6.139080">
        <ele>207.735</ele>
        <time>2020-05-20T23:27:50Z</time>
      </trkpt>
      <trkpt lat="43.336020" lon="-6.139210">
        <ele>208.886</ele>
        <time>2020-05-20T23:28:10Z</time>
      </trkpt>
      <trkpt lat="43.336070" lon="-6.139290">
        <ele>209.475</ele>
        <time>2020-05-20T23:28:30Z</time>
      </trkpt>
      <trkpt lat="43.336110" lon="-6.139360">
        <ele>209.548</ele>
        <time>2020-05-20T23:28:50Z</time>
      </trkpt>
      <trkpt lat="43.336170" lon="-6.139480">
        <ele>209.783</ele>
        <time>2020-05-20T23:29:10Z</time>
      </trkpt>
      <trkpt lat="43.336230" lon="-6.139580">
        <ele>210.425</ele>
        <time>2020-05-20T23:29:30Z</time>
      </trkpt>
      <trkpt lat="43.336270" lon="-6.139680">
        <ele>210.217</ele>
        <time>2020-05-20T23:29:50Z</time>
      </trkpt>
      <trkpt lat="43.336310" lon="-6.139730">
        <ele>210.608</ele>
        <time>2020-05-20T23:30:10Z</time>
      </trkpt>
      <trkpt lat="43.336360" lon="-6.139780">
        <ele>211.132</ele>
        <time>2020-05-20T23:30:30Z</time>
      </trkpt>
      <trkpt lat="43.336430" lon="-6.139820">
        <ele>212.947</ele>
        <time>2020-05-20T23:30:50Z</time>
      </trkpt>
      <trkpt lat="43.336440" lon="-6.139820">
        <ele>213.324</ele>
        <time>2020-05-20T23:31:10Z</time>
      </trkpt>
      <trkpt lat="43.336580" lon="-6.139950">
        <ele>217.030</ele>
        <time>2020-05-20T23:31:30Z</time>
      </trkpt>
      <trkpt lat="43.336590" lon="-6.139970">
        <ele>217.249</ele>
        <time>2020-05-20T23:31:50Z</time>
      </trkpt>
      <trkpt lat="43.336630" lon="-6.140040">
        <ele>218.210</ele>
        <time>2020-05-20T23:32:10Z</time>
      </trkpt>
      <trkpt lat="43.336680" lon="-6.140140">
        <ele>220.439</ele>
        <time>2020-05-20T23:32:30Z</time>
      </trkpt>
      <trkpt lat="43.336680" lon="-6.140150">
        <ele>220.452</ele>
        <time>2020-05-20T23:32:50Z</time>
      </trkpt>
      <trkpt lat="43.336710" lon="-6.140240">
        <ele>222.353</ele>
        <time>2020-05-20T23:33:10Z</time>
      </trkpt>
      <trkpt lat="43.336740" lon="-6.140330">
        <ele>226.004</ele>
        <time>2020-05-20T23:33:30Z</time>
      </trkpt>
      <trkpt lat="43.336750" lon="-6.140380">
        <ele>228.214</ele>
        <time>2020-05-20T23:33:50Z</time>
      </trkpt>
      <trkpt lat="43.336750" lon="-6.140400">
        <ele>228.808</ele>
        <time>2020-05-20T23:34:10Z</time>
      </trkpt>
      <trkpt lat="43.336760" lon="-6.140530">
        <ele>233.329</ele>
        <time>2020-05-20T23:34:30Z</time>
      </trkpt>
      <trkpt lat="43.336750" lon="-6.140650">
        <ele>235.364</ele>
        <time>2020-05-20T23:34:50Z</time>
      </trkpt>
      <trkpt lat="43.336730" lon="-6.140750">
        <ele>235.871</ele>
        <time>2020-05-20T23:35:10Z</time>
      </trkpt>
      <trkpt lat="43.336690" lon="-6.140860">
        <ele>234.377</ele>
        <time>2020-05-20T23:35:30Z</time>
      </trkpt>
      <trkpt lat="43.336630" lon="-6.141040">
        <ele>231.126</ele>
        <time>2020-05-20T23:35:50Z</time>
      </trkpt>
      <trkpt lat="43.336610" lon="-6.141080">
        <ele>230.497</ele>
        <time>2020-05-20T23:36:10Z</time>
      </trkpt>
      <trkpt lat="43.336540" lon="-6.141220">
        <ele>230.056</ele>
        <time>2020-05-20T23:36:30Z</time>
      </trkpt>
      <trkpt lat="43.336520" lon="-6.141290">
        <ele>231.079</ele>
        <time>2020-05-20T23:36:50Z</time>
      </trkpt>
      <trkpt lat="43.336470" lon="-6.141400">
        <ele>231.863</ele>
        <time>2020-05-20T23:37:10Z</time>
      </trkpt>
      <trkpt lat="43.336430" lon="-6.141510">
        <ele>233.244</ele>
        <time>2020-05-20T23:37:30Z</time>
      </trkpt>
      <trkpt lat="43.336420" lon="-6.141530">
        <ele>233.318</ele>
        <time>2020-05-20T23:37:50Z</time>
      </trkpt>
      <trkpt lat="43.336360" lon="-6.141670">
        <ele>234.408</ele>
        <time>2020-05-20T23:38:10Z</time>
      </trkpt>
      <trkpt lat="43.336300" lon="-6.141830">
        <ele>233.520</ele>
        <time>2020-05-20T23:38:30Z</time>
      </trkpt>
      <trkpt lat="43.336230" lon="-6.142010">
        <ele>229.625</ele>
        <time>2020-05-20T23:38:50Z</time>
      </trkpt>
      <trkpt lat="43.336180" lon="-6.142170">
        <ele>226.672</ele>
        <time>2020-05-20T23:39:10Z</time>
      </trkpt>
      <trkpt lat="43.336160" lon="-6.142220">
        <ele>225.578</ele>
        <time>2020-05-20T23:39:30Z</time>
      </trkpt>
      <trkpt lat="43.336100" lon="-6.142380">
        <ele>222.577</ele>
        <time>2020-05-20T23:39:50Z</time>
      </trkpt>
      <trkpt lat="43.336100" lon="-6.142390">
        <ele>222.688</ele>
        <time>2020-05-20T23:40:10Z</time>
      </trkpt>
      <trkpt lat="43.336040" lon="-6.142580">
        <ele>220.757</ele>
        <time>2020-05-20T23:40:30Z</time>
      </trkpt>
      <trkpt lat="43.336010" lon="-6.142690">
        <ele>219.770</ele>
        <time>2020-05-20T23:40:50Z</time>
      </trkpt>
      <trkpt lat="43.335990" lon="-6.142830">
        <ele>219.011</ele>
        <time>2020-05-20T23:41:10Z</time>
      </trkpt>
      <trkpt lat="43.336000" lon="-6.143010">
        <ele>219.421</ele>
        <time>2020-05-20T23:41:30Z</time>
      </trkpt>
      <trkpt lat="43.336000" lon="-6.143100">
        <ele>219.503</ele>
        <time>2020-05-20T23:41:50Z</time>
      </trkpt>
      <trkpt lat="43.336000" lon="-6.143180">
        <ele>219.608</ele>
        <time>2020-05-20T23:42:10Z</time>
      </trkpt>
      <trkpt lat="43.336000" lon="-6.143310">
        <ele>219.845</ele>
        <time>2020-05-20T23:42:30Z</time>
      </trkpt>
      <trkpt lat="43.336000" lon="-6.143350">
        <ele>219.920</ele>
        <time>2020-05-20T23:42:50Z</time>
      </trkpt>
      <trkpt lat="43.335990" lon="-6.143520">
        <ele>220.067</ele>
        <time>2020-05-20T23:43:10Z</time>
      </trkpt>
      <trkpt lat="43.335980" lon="-6.143600">
        <ele>219.933</ele>
        <time>2020-05-20T23:43:30Z</time>
      </trkpt>
      <trkpt lat="43.335970" lon="-6.143750">
        <ele>221.922</ele>
        <time>2020-05-20T23:43:50Z</time>
      </trkpt>
      <trkpt lat="43.335940" lon="-6.143940">
        <ele>223.473</ele>
        <time>2020-05-20T23:44:10Z</time>
      </trkpt>
      <trkpt lat="43.335900" lon="-6.144120">
        <ele>223.712</ele>
        <time>2020-05-20T23:44:30Z</time>
      </trkpt>
      <trkpt lat="43.335870" lon="-6.144290">
        <ele>222.955</ele>
        <time>2020-05-20T23:44:50Z</time>
      </trkpt>
      <trkpt lat="43.335840" lon="-6.144450">
        <ele>221.471</ele>
        <time>2020-05-20T23:45:10Z</time>
      </trkpt>
      <trkpt lat="43.335820" lon="-6.144560">
        <ele>221.541</ele>
        <time>2020-05-20T23:45:30Z</time>
      </trkpt>
      <trkpt lat="43.335800" lon="-6.144680">
        <ele>221.815</ele>
        <time>2020-05-20T23:45:50Z</time>
      </trkpt>
      <trkpt lat="43.335770" lon="-6.144790">
        <ele>222.708</ele>
        <time>2020-05-20T23:46:10Z</time>
      </trkpt>
      <trkpt lat="43.335750" lon="-6.144830">
        <ele>222.851</ele>
        <time>2020-05-20T23:46:30Z</time>
      </trkpt>
      <trkpt lat="43.335670" lon="-6.145040">
        <ele>223.896</ele>
        <time>2020-05-20T23:46:50Z</time>
      </trkpt>
      <trkpt lat="43.335580" lon="-6.145250">
        <ele>224.523</ele>
        <time>2020-05-20T23:47:10Z</time>
      </trkpt>
      <trkpt lat="43.335520" lon="-6.145390">
        <ele>222.229</ele>
        <time>2020-05-20T23:47:30Z</time>
      </trkpt>
      <trkpt lat="43.335470" lon="-6.145480">
        <ele>219.768</ele>
        <time>2020-05-20T23:47:50Z</time>
      </trkpt>
      <trkpt lat="43.335440" lon="-6.145620">
        <ele>218.249</ele>
        <time>2020-05-20T23:48:10Z</time>
      </trkpt>
      <trkpt lat="43.335380" lon="-6.145800">
        <ele>215.298</ele>
        <time>2020-05-20T23:48:30Z</time>
      </trkpt>
      <trkpt lat="43.335370" lon="-6.145860">
        <ele>214.531</ele>
        <time>2020-05-20T23:48:50Z</time>
      </trkpt>
      <trkpt lat="43.335360" lon="-6.145890">
        <ele>213.841</ele>
        <time>2020-05-20T23:49:10Z</time>
      </trkpt>
      <trkpt lat="43.335350" lon="-6.145940">
        <ele>213.181</ele>
        <time>2020-05-20T23:49:30Z</time>
      </trkpt>
      <trkpt lat="43.335330" lon="-6.145990">
        <ele>211.909</ele>
        <time>2020-05-20T23:49:50Z</time>
      </trkpt>
      <trkpt lat="43.335320" lon="-6.146030">
        <ele>211.208</ele>
        <time>2020-05-20T23:50:10Z</time>
      </trkpt>
      <trkpt lat="43.335290" lon="-6.146070">
        <ele>209.768</ele>
        <time>2020-05-20T23:50:30Z</time>
      </trkpt>
      <trkpt lat="43.335270" lon="-6.146100">
        <ele>208.953</ele>
        <time>2020-05-20T23:50:50Z</time>
      </trkpt>
      <trkpt lat="43.335240" lon="-6.146180">
        <ele>208.280</ele>
        <time>2020-05-20T23:51:10Z</time>
      </trkpt>
      <trkpt lat="43.335210" lon="-6.146230">
        <ele>207.576</ele>
        <time>2020-05-20T23:51:30Z</time>
      </trkpt>
      <trkpt lat="43.335190" lon="-6.146310">
        <ele>207.165</ele>
        <time>2020-05-20T23:51:50Z</time>
      </trkpt>
      <trkpt lat="43.335190" lon="-6.146320">
        <ele>207.166</ele>
        <time>2020-05-20T23:52:10Z</time>
      </trkpt>
      <trkpt lat="43.335180" lon="-6.146380">
        <ele>206.925</ele>
        <time>2020-05-20T23:52:30Z</time>
      </trkpt>
      <trkpt lat="43.335170" lon="-6.146440">
        <ele>207.358</ele>
        <time>2020-05-20T23:52:50Z</time>
      </trkpt>
      <trkpt lat="43.335170" lon="-6.146500">
        <ele>208.079</ele>
        <time>2020-05-20T23:53:10Z</time>
      </trkpt>
      <trkpt lat="43.335170" lon="-6.146550">
        <ele>208.505</ele>
        <time>2020-05-20T23:53:30Z</time>
      </trkpt>
      <trkpt lat="43.335200" lon="-6.146650">
        <ele>210.625</ele>
        <time>2020-05-20T23:53:50Z</time>
      </trkpt>
      <trkpt lat="43.335220" lon="-6.146730">
        <ele>211.408</ele>
        <time>2020-05-20T23:54:10Z</time>
      </trkpt>
      <trkpt lat="43.335250" lon="-6.146820">
        <ele>212.391</ele>
        <time>2020-05-20T23:54:30Z</time>
      </trkpt>
      <trkpt lat="43.335280" lon="-6.146920">
        <ele>213.186</ele>
        <time>2020-05-20T23:54:50Z</time>
      </trkpt>
      <trkpt lat="43.335290" lon="-6.146970">
        <ele>213.853</ele>
        <time>2020-05-20T23:55:10Z</time>
      </trkpt>
      <trkpt lat="43.335290" lon="-6.147030">
        <ele>214.599</ele>
        <time>2020-05-20T23:55:30Z</time>
      </trkpt>
      <trkpt lat="43.335290" lon="-6.147060">
        <ele>214.878</ele>
        <time>2020-05-20T23:55:50Z</time>
      </trkpt>
      <trkpt lat="43.335280" lon="-6.147090">
        <ele>214.749</ele>
        <time>2020-05-20T23:56:10Z</time>
      </trkpt>
      <trkpt lat="43.335260" lon="-6.147120">
        <ele>214.568</ele>
        <time>2020-05-20T23:56:30Z</time>
      </trkpt>
      <trkpt lat="43.335250" lon="-6.147140">
        <ele>214.431</ele>
        <time>2020-05-20T23:56:50Z</time>
      </trkpt>
      <trkpt lat="43.335230" lon="-6.147170">
        <ele>214.331</ele>
        <time>2020-05-20T23:57:10Z</time>
      </trkpt>
      <trkpt lat="43.335210" lon="-6.147190">
        <ele>214.061</ele>
        <time>2020-05-20T23:57:30Z</time>
      </trkpt>
      <trkpt lat="43.335180" lon="-6.147210">
        <ele>213.407</ele>
        <time>2020-05-20T23:57:50Z</time>
      </trkpt>
      <trkpt lat="43.335170" lon="-6.147220">
        <ele>213.308</ele>
        <time>2020-05-20T23:58:10Z</time>
      </trkpt>
      <trkpt lat="43.335160" lon="-6.147230">
        <ele>213.197</ele>
        <time>2020-05-20T23:58:30Z</time>
      </trkpt>
      <trkpt lat="43.335160" lon="-6.147240">
        <ele>213.232</ele>
        <time>2020-05-20T23:58:50Z</time>
      </trkpt>
      <trkpt lat="43.335160" lon="-6.147250">
        <ele>213.359</ele>
        <time>2020-05-20T23:59:10Z</time>
      </trkpt>
      <trkpt lat="43.335160" lon="-6.147270">
        <ele>213.655</ele>
        <time>2020-05-20T23:59:30Z</time>
      </trkpt>
      <trkpt lat="43.335160" lon="-6.147290">
        <ele>213.824</ele>
        <time>2020-05-20T23:59:50Z</time>
      </trkpt>
      <trkpt lat="43.335160" lon="-6.147310">
        <ele>214.015</ele>
        <time>2020-05-21T00:00:10Z</time>
      </trkpt>
      <trkpt lat="43.335160" lon="-6.147340">
        <ele>214.494</ele>
        <time>2020-05-21T00:00:30Z</time>
      </trkpt>
      <trkpt lat="43.335150" lon="-6.147420">
        <ele>215.097</ele>
        <time>2020-05-21T00:00:50Z</time>
      </trkpt>
      <trkpt lat="43.335150" lon="-6.147480">
        <ele>215.658</ele>
        <time>2020-05-21T00:01:10Z</time>
      </trkpt>
      <trkpt lat="43.335140" lon="-6.147560">
        <ele>216.752</ele>
        <time>2020-05-21T00:01:30Z</time>
      </trkpt>
      <trkpt lat="43.335120" lon="-6.147660">
        <ele>218.017</ele>
        <time>2020-05-21T00:01:50Z</time>
      </trkpt>
      <trkpt lat="43.335100" lon="-6.147760">
        <ele>219.308</ele>
        <time>2020-05-21T00:02:10Z</time>
      </trkpt>
      <trkpt lat="43.335040" lon="-6.147920">
        <ele>219.759</ele>
        <time>2020-05-21T00:02:30Z</time>
      </trkpt>
      <trkpt lat="43.334950" lon="-6.148120">
        <ele>220.024</ele>
        <time>2020-05-21T00:02:50Z</time>
      </trkpt>
      <trkpt lat="43.334890" lon="-6.148250">
        <ele>220.121</ele>
        <time>2020-05-21T00:03:10Z</time>
      </trkpt>
      <trkpt lat="43.334850" lon="-6.148330">
        <ele>219.777</ele>
        <time>2020-05-21T00:03:30Z</time>
      </trkpt>
      <trkpt lat="43.334810" lon="-6.148420">
        <ele>219.636</ele>
        <time>2020-05-21T00:03:50Z</time>
      </trkpt>
      <trkpt lat="43.334740" lon="-6.148610">
        <ele>219.667</ele>
        <time>2020-05-21T00:04:10Z</time>
      </trkpt>
      <trkpt lat="43.334630" lon="-6.148840">
        <ele>220.256</ele>
        <time>2020-05-21T00:04:30Z</time>
      </trkpt>
      <trkpt lat="43.334480" lon="-6.149180">
        <ele>222.349</ele>
        <time>2020-05-21T00:04:50Z</time>
      </trkpt>
      <trkpt lat="43.334470" lon="-6.149210">
        <ele>222.273</ele>
        <time>2020-05-21T00:05:10Z</time>
      </trkpt>
      <trkpt lat="43.334380" lon="-6.149390">
        <ele>221.685</ele>
        <time>2020-05-21T00:05:30Z</time>
      </trkpt>
      <trkpt lat="43.334320" lon="-6.149540">
        <ele>221.713</ele>
        <time>2020-05-21T00:05:50Z</time>
      </trkpt>
      <trkpt lat="43.334290" lon="-6.149600">
        <ele>221.508</ele>
        <time>2020-05-21T00:06:10Z</time>
      </trkpt>
      <trkpt lat="43.334190" lon="-6.149810">
        <ele>221.631</ele>
        <time>2020-05-21T00:06:30Z</time>
      </trkpt>
      <trkpt lat="43.334150" lon="-6.149910">
        <ele>222.846</ele>
        <time>2020-05-21T00:06:50Z</time>
      </trkpt>
      <trkpt lat="43.333840" lon="-6.150540">
        <ele>220.643</ele>
        <time>2020-05-21T00:07:10Z</time>
      </trkpt>
      <trkpt lat="43.333800" lon="-6.150630">
        <ele>221.539</ele>
        <time>2020-05-21T00:07:30Z</time>
      </trkpt>
      <trkpt lat="43.333510" lon="-6.151260">
        <ele>231.418</ele>
        <time>2020-05-21T00:07:50Z</time>
      </trkpt>
      <trkpt lat="43.333420" lon="-6.151480">
        <ele>235.299</ele>
        <time>2020-05-21T00:08:10Z</time>
      </trkpt>
      <trkpt lat="43.333330" lon="-6.151690">
        <ele>239.018</ele>
        <time>2020-05-21T00:08:30Z</time>
      </trkpt>
      <trkpt lat="43.333290" lon="-6.151780">
        <ele>241.551</ele>
        <time>2020-05-21T00:08:50Z</time>
      </trkpt>
      <trkpt lat="43.333240" lon="-6.151900">
        <ele>244.262</ele>
        <time>2020-05-21T00:09:10Z</time>
      </trkpt>
      <trkpt lat="43.333150" lon="-6.152120">
        <ele>246.883</ele>
        <time>2020-05-21T00:09:30Z</time>
      </trkpt>
      <trkpt lat="43.333130" lon="-6.152190">
        <ele>248.011</ele>
        <time>2020-05-21T00:09:50Z</time>
      </trkpt>
      <trkpt lat="43.333070" lon="-6.152340">
        <ele>249.508</ele>
        <time>2020-05-21T00:10:10Z</time>
      </trkpt>
      <trkpt lat="43.333050" lon="-6.152400">
        <ele>250.740</ele>
        <time>2020-05-21T00:10:30Z</time>
      </trkpt>
      <trkpt lat="43.333000" lon="-6.152480">
        <ele>252.575</ele>
        <time>2020-05-21T00:10:50Z</time>
      </trkpt>
      <trkpt lat="43.332930" lon="-6.152540">
        <ele>253.612</ele>
        <time>2020-05-21T00:11:10Z</time>
      </trkpt>
      <trkpt lat="43.332840" lon="-6.152570">
        <ele>253.758</ele>
        <time>2020-05-21T00:11:30Z</time>
      </trkpt>
      <trkpt lat="43.332780" lon="-6.152580">
        <ele>253.517</ele>
        <time>2020-05-21T00:11:50Z</time>
      </trkpt>
      <trkpt lat="43.332770" lon="-6.152580">
        <ele>253.448</ele>
        <time>2020-05-21T00:12:10Z</time>
      </trkpt>
      <trkpt lat="43.332700" lon="-6.152590">
        <ele>253.857</ele>
        <time>2020-05-21T00:12:30Z</time>
      </trkpt>
      <trkpt lat="43.332620" lon="-6.152560">
        <ele>252.580</ele>
        <time>2020-05-21T00:12:50Z</time>
      </trkpt>
      <trkpt lat="43.332600" lon="-6.152540">
        <ele>251.644</ele>
        <time>2020-05-21T00:13:10Z</time>
      </trkpt>
      <trkpt lat="43.332570" lon="-6.152510">
        <ele>250.405</ele>
        <time>2020-05-21T00:13:30Z</time>
      </trkpt>
      <trkpt lat="43.332470" lon="-6.152440">
        <ele>246.115</ele>
        <time>2020-05-21T00:13:50Z</time>
      </trkpt>
      <trkpt lat="43.332450" lon="-6.152420">
        <ele>244.608</ele>
        <time>2020-05-21T00:14:10Z</time>
      </trkpt>
      <trkpt lat="43.332300" lon="-6.152310">
        <ele>236.298</ele>
        <time>2020-05-21T00:14:30Z</time>
      </trkpt>
      <trkpt lat="43.332290" lon="-6.152310">
        <ele>236.053</ele>
        <time>2020-05-21T00:14:50Z</time>
      </trkpt>
      <trkpt lat="43.332150" lon="-6.152250">
        <ele>232.010</ele>
        <time>2020-05-21T00:15:10Z</time>
      </trkpt>
      <trkpt lat="43.332000" lon="-6.152190">
        <ele>230.766</ele>
        <time>2020-05-21T00:15:30Z</time>
      </trkpt>
      <trkpt lat="43.331830" lon="-6.152140">
        <ele>230.295</ele>
        <time>2020-05-21T00:15:50Z</time>
      </trkpt>
      <trkpt lat="43.331770" lon="-6.152120">
        <ele>230.236</ele>
        <time>2020-05-21T00:16:10Z</time>
      </trkpt>
      <trkpt lat="43.331730" lon="-6.152100">
        <ele>230.355</ele>
        <time>2020-05-21T00:16:30Z</time>
      </trkpt>
      <trkpt lat="43.331640" lon="-6.152090">
        <ele>230.978</ele>
        <time>2020-05-21T00:16:50Z</time>
      </trkpt>
      <trkpt lat="43.331590" lon="-6.152110">
        <ele>231.712</ele>
        <time>2020-05-21T00:17:10Z</time>
      </trkpt>
      <trkpt lat="43.331580" lon="-6.152120">
        <ele>231.832</ele>
        <time>2020-05-21T00:17:30Z</time>
      </trkpt>
      <trkpt lat="43.331540" lon="-6.152150">
        <ele>232.105</ele>
        <time>2020-05-21T00:17:50Z</time>
      </trkpt>
      <trkpt lat="43.331510" lon="-6.152190">
        <ele>232.108</ele>
        <time>2020-05-21T00:18:10Z</time>
      </trkpt>
      <trkpt lat="43.331480" lon="-6.152250">
        <ele>232.165</ele>
        <time>2020-05-21T00:18:30Z</time>
      </trkpt>
      <trkpt lat="43.331480" lon="-6.152290">
        <ele>232.360</ele>
        <time>2020-05-21T00:18:50Z</time>
      </trkpt>
      <trkpt lat="43.331480" lon="-6.152380">
        <ele>232.627</ele>
        <time>2020-05-21T00:19:10Z</time>
      </trkpt>
      <trkpt lat="43.331490" lon="-6.152780">
        <ele>236.873</ele>
        <time>2020-05-21T00:19:30Z</time>
      </trkpt>
      <trkpt lat="43.331500" lon="-6.152960">
        <ele>238.832</ele>
        <time>2020-05-21T00:19:50Z</time>
      </trkpt>
      <trkpt lat="43.331500" lon="-6.153150">
        <ele>239.593</ele>
        <time>2020-05-21T00:20:10Z</time>
      </trkpt>
      <trkpt lat="43.331500" lon="-6.153250">
        <ele>239.112</ele>
        <time>2020-05-21T00:20:30Z</time>
      </trkpt>
      <trkpt lat="43.331500" lon="-6.153400">
        <ele>239.855</ele>
        <time>2020-05-21T00:20:50Z</time>
      </trkpt>
      <trkpt lat="43.331500" lon="-6.153540">
        <ele>241.874</ele>
        <time>2020-05-21T00:21:10Z</time>
      </trkpt>
      <trkpt lat="43.331480" lon="-6.153640">
        <ele>242.956</ele>
        <time>2020-05-21T00:21:30Z</time>
      </trkpt>
      <trkpt lat="43.331450" lon="-6.153710">
        <ele>244.221</ele>
        <time>2020-05-21T00:21:50Z</time>
      </trkpt>
      <trkpt lat="43.331420" lon="-6.153790">
        <ele>246.108</ele>
        <time>2020-05-21T00:22:10Z</time>
      </trkpt>
      <trkpt lat="43.331360" lon="-6.153850">
        <ele>246.521</ele>
        <time>2020-05-21T00:22:30Z</time>
      </trkpt>
      <trkpt lat="43.331290" lon="-6.153880">
        <ele>245.146</ele>
        <time>2020-05-21T00:22:50Z</time>
      </trkpt>
      <trkpt lat="43.331240" lon="-6.153870">
        <ele>243.113</ele>
        <time>2020-05-21T00:23:10Z</time>
      </trkpt>
      <trkpt lat="43.331200" lon="-6.153860">
        <ele>241.439</ele>
        <time>2020-05-21T00:23:30Z</time>
      </trkpt>
      <trkpt lat="43.331170" lon="-6.153860">
        <ele>240.498</ele>
        <time>2020-05-21T00:23:50Z</time>
      </trkpt>
      <trkpt lat="43.331100" lon="-6.153820">
        <ele>237.629</ele>
        <time>2020-05-21T00:24:10Z</time>
      </trkpt>
      <trkpt lat="43.331040" lon="-6.153770">
        <ele>237.128</ele>
        <time>2020-05-21T00:24:30Z</time>
      </trkpt>
      <trkpt lat="43.330990" lon="-6.153730">
        <ele>237.021</ele>
        <time>2020-05-21T00:24:50Z</time>
      </trkpt>
      <trkpt lat="43.330900" lon="-6.153600">
        <ele>236.932</ele>
        <time>2020-05-21T00:25:10Z</time>
      </trkpt>
      <trkpt lat="43.330840" lon="-6.153560">
        <ele>238.492</ele>
        <time>2020-05-21T00:25:30Z</time>
      </trkpt>
      <trkpt lat="43.330760" lon="-6.153540">
        <ele>240.611</ele>
        <time>2020-05-21T00:25:50Z</time>
      </trkpt>
      <trkpt lat="43.330730" lon="-6.153540">
        <ele>241.408</ele>
        <time>2020-05-21T00:26:10Z</time>
      </trkpt>
      <trkpt lat="43.330670" lon="-6.153550">
        <ele>242.767</ele>
        <time>2020-05-21T00:26:30Z</time>
      </trkpt>
      <trkpt lat="43.330610" lon="-6.153570">
        <ele>243.782</ele>
        <time>2020-05-21T00:26:50Z</time>
      </trkpt>
      <trkpt lat="43.330570" lon="-6.153620">
        <ele>243.639</ele>
        <time>2020-05-21T00:27:10Z</time>
      </trkpt>
      <trkpt lat="43.330540" lon="-6.153650">
        <ele>244.495</ele>
        <time>2020-05-21T00:27:30Z</time>
      </trkpt>
      <trkpt lat="43.330470" lon="-6.153800">
        <ele>245.424</ele>
        <time>2020-05-21T00:27:50Z</time>
      </trkpt>
      <trkpt lat="43.330470" lon="-6.153820">
        <ele>245.175</ele>
        <time>2020-05-21T00:28:10Z</time>
      </trkpt>
      <trkpt lat="43.330430" lon="-6.153990">
        <ele>245.044</ele>
        <time>2020-05-21T00:28:30Z</time>
      </trkpt>
      <trkpt lat="43.330420" lon="-6.154060">
        <ele>245.127</ele>
        <time>2020-05-21T00:28:50Z</time>
      </trkpt>
      <trkpt lat="43.330370" lon="-6.154360">
        <ele>245.865</ele>
        <time>2020-05-21T00:29:10Z</time>
      </trkpt>
      <trkpt lat="43.330360" lon="-6.154530">
        <ele>245.468</ele>
        <time>2020-05-21T00:29:30Z</time>
      </trkpt>
      <trkpt lat="43.330320" lon="-6.154920">
        <ele>243.314</ele>
        <time>2020-05-21T00:29:50Z</time>
      </trkpt>
      <trkpt lat="43.330300" lon="-6.155040">
        <ele>242.508</ele>
        <time>2020-05-21T00:30:10Z</time>
      </trkpt>
      <trkpt lat="43.330280" lon="-6.155130">
        <ele>242.580</ele>
        <time>2020-05-21T00:30:30Z</time>
      </trkpt>
      <trkpt lat="43.330250" lon="-6.155310">
        <ele>243.065</ele>
        <time>2020-05-21T00:30:50Z</time>
      </trkpt>
      <trkpt lat="43.330200" lon="-6.155510">
        <ele>242.182</ele>
        <time>2020-05-21T00:31:10Z</time>
      </trkpt>
      <trkpt lat="43.330200" lon="-6.155550">
        <ele>241.998</ele>
        <time>2020-05-21T00:31:30Z</time>
      </trkpt>
      <trkpt lat="43.330140" lon="-6.155750">
        <ele>245.667</ele>
        <time>2020-05-21T00:31:50Z</time>
      </trkpt>
      <trkpt lat="43.330070" lon="-6.155920">
        <ele>250.878</ele>
        <time>2020-05-21T00:32:10Z</time>
      </trkpt>
      <trkpt lat="43.329990" lon="-6.156020">
        <ele>253.757</ele>
        <time>2020-05-21T00:32:30Z</time>
      </trkpt>
      <trkpt lat="43.329920" lon="-6.156050">
        <ele>254.140</ele>
        <time>2020-05-21T00:32:50Z</time>
      </trkpt>
      <trkpt lat="43.329840" lon="-6.156040">
        <ele>253.576</ele>
        <time>2020-05-21T00:33:10Z</time>
      </trkpt>
      <trkpt lat="43.329760" lon="-6.156000">
        <ele>252.590</ele>
        <time>2020-05-21T00:33:30Z</time>
      </trkpt>
      <trkpt lat="43.329730" lon="-6.155960">
        <ele>251.819</ele>
        <time>2020-05-21T00:33:50Z</time>
      </trkpt>
      <trkpt lat="43.329710" lon="-6.155930">
        <ele>251.408</ele>
        <time>2020-05-21T00:34:10Z</time>
      </trkpt>
      <trkpt lat="43.329660" lon="-6.155830">
        <ele>250.231</ele>
        <time>2020-05-21T00:34:30Z</time>
      </trkpt>
      <trkpt lat="43.329620" lon="-6.155680">
        <ele>248.126</ele>
        <time>2020-05-21T00:34:50Z</time>
      </trkpt>
      <trkpt lat="43.329590" lon="-6.155520">
        <ele>245.943</ele>
        <time>2020-05-21T00:35:10Z</time>
      </trkpt>
      <trkpt lat="43.329590" lon="-6.155510">
        <ele>245.899</ele>
        <time>2020-05-21T00:35:30Z</time>
      </trkpt>
      <trkpt lat="43.329550" lon="-6.155270">
        <ele>244.278</ele>
        <time>2020-05-21T00:35:50Z</time>
      </trkpt>
      <trkpt lat="43.329540" lon="-6.155230">
        <ele>244.359</ele>
        <time>2020-05-21T00:36:10Z</time>
      </trkpt>
      <trkpt lat="43.329510" lon="-6.155020">
        <ele>244.978</ele>
        <time>2020-05-21T00:36:30Z</time>
      </trkpt>
      <trkpt lat="43.329480" lon="-6.154870">
        <ele>245.161</ele>
        <time>2020-05-21T00:36:50Z</time>
      </trkpt>
      <trkpt lat="43.329450" lon="-6.154790">
        <ele>244.953</ele>
        <time>2020-05-21T00:37:10Z</time>
      </trkpt>
      <trkpt lat="43.329420" lon="-6.154720">
        <ele>244.904</ele>
        <time>2020-05-21T00:37:30Z</time>
      </trkpt>
      <trkpt lat="43.329390" lon="-6.154610">
        <ele>246.314</ele>
        <time>2020-05-21T00:37:50Z</time>
      </trkpt>
      <trkpt lat="43.329350" lon="-6.154540">
        <ele>246.808</ele>
        <time>2020-05-21T00:38:10Z</time>
      </trkpt>
      <trkpt lat="43.329320" lon="-6.154500">
        <ele>247.059</ele>
        <time>2020-05-21T00:38:30Z</time>
      </trkpt>
      <trkpt lat="43.329280" lon="-6.154470">
        <ele>247.014</ele>
        <time>2020-05-21T00:38:50Z</time>
      </trkpt>
      <trkpt lat="43.329230" lon="-6.154460">
        <ele>246.591</ele>
        <time>2020-05-21T00:39:10Z</time>
      </trkpt>
      <trkpt lat="43.329150" lon="-6.154470">
        <ele>246.227</ele>
        <time>2020-05-21T00:39:30Z</time>
      </trkpt>
      <trkpt lat="43.329100" lon="-6.154470">
        <ele>247.386</ele>
        <time>2020-05-21T00:39:50Z</time>
      </trkpt>
      <trkpt lat="43.329060" lon="-6.154480">
        <ele>248.157</ele>
        <time>2020-05-21T00:40:10Z</time>
      </trkpt>
      <trkpt lat="43.329040" lon="-6.154480">
        <ele>248.526</ele>
        <time>2020-05-21T00:40:30Z</time>
      </trkpt>
      <trkpt lat="43.328950" lon="-6.154460">
        <ele>250.679</ele>
        <time>2020-05-21T00:40:50Z</time>
      </trkpt>
      <trkpt lat="43.328870" lon="-6.154420">
        <ele>252.336</ele>
        <time>2020-05-21T00:41:10Z</time>
      </trkpt>
      <trkpt lat="43.328860" lon="-6.154420">
        <ele>252.617</ele>
        <time>2020-05-21T00:41:30Z</time>
      </trkpt>
      <trkpt lat="43.328790" lon="-6.154400">
        <ele>254.318</ele>
        <time>2020-05-21T00:41:50Z</time>
      </trkpt>
      <trkpt lat="43.328690" lon="-6.154390">
        <ele>256.808</ele>
        <time>2020-05-21T00:42:10Z</time>
      </trkpt>
      <trkpt lat="43.328600" lon="-6.154400">
        <ele>259.197</ele>
        <time>2020-05-21T00:42:30Z</time>
      </trkpt>
      <trkpt lat="43.328520" lon="-6.154430">
        <ele>260.312</ele>
        <time>2020-05-21T00:42:50Z</time>
      </trkpt>
      <trkpt lat="43.328450" lon="-6.154460">
        <ele>261.629</ele>
        <time>2020-05-21T00:43:10Z</time>
      </trkpt>
      <trkpt lat="43.328260" lon="-6.154530">
        <ele>263.915</ele>
        <time>2020-05-21T00:43:30Z</time>
      </trkpt>
      <trkpt lat="43.328130" lon="-6.154560">
        <ele>263.124</ele>
        <time>2020-05-21T00:43:50Z</time>
      </trkpt>
      <trkpt lat="43.327990" lon="-6.154620">
        <ele>263.885</ele>
        <time>2020-05-21T00:44:10Z</time>
      </trkpt>
      <trkpt lat="43.327970" lon="-6.154630">
        <ele>263.954</ele>
        <time>2020-05-21T00:44:30Z</time>
      </trkpt>
      <trkpt lat="43.327850" lon="-6.154720">
        <ele>265.217</ele>
        <time>2020-05-21T00:44:50Z</time>
      </trkpt>
      <trkpt lat="43.327830" lon="-6.154730">
        <ele>265.115</ele>
        <time>2020-05-21T00:45:10Z</time>
      </trkpt>
      <trkpt lat="43.327730" lon="-6.154800">
        <ele>264.565</ele>
        <time>2020-05-21T00:45:30Z</time>
      </trkpt>
      <trkpt lat="43.327670" lon="-6.154850">
        <ele>264.211</ele>
        <time>2020-05-21T00:45:50Z</time>
      </trkpt>
      <trkpt lat="43.327650" lon="-6.154870">
        <ele>264.108</ele>
        <time>2020-05-21T00:46:10Z</time>
      </trkpt>
      <trkpt lat="43.327600" lon="-6.154970">
        <ele>264.775</ele>
        <time>2020-05-21T00:46:30Z</time>
      </trkpt>
      <trkpt lat="43.327580" lon="-6.155050">
        <ele>265.380</ele>
        <time>2020-05-21T00:46:50Z</time>
      </trkpt>
      <trkpt lat="43.327560" lon="-6.155120">
        <ele>265.677</ele>
        <time>2020-05-21T00:47:10Z</time>
      </trkpt>
      <trkpt lat="43.327540" lon="-6.155260">
        <ele>266.733</ele>
        <time>2020-05-21T00:47:30Z</time>
      </trkpt>
      <trkpt lat="43.327530" lon="-6.155290">
        <ele>266.782</ele>
        <time>2020-05-21T00:47:50Z</time>
      </trkpt>
      <trkpt lat="43.327530" lon="-6.155310">
        <ele>266.783</ele>
        <time>2020-05-21T00:48:10Z</time>
      </trkpt>
      <trkpt lat="43.327520" lon="-6.155370">
        <ele>266.762</ele>
        <time>2020-05-21T00:48:30Z</time>
      </trkpt>
      <trkpt lat="43.327520" lon="-6.155450">
        <ele>267.015</ele>
        <time>2020-05-21T00:48:50Z</time>
      </trkpt>
      <trkpt lat="43.327540" lon="-6.155520">
        <ele>267.572</ele>
        <time>2020-05-21T00:49:10Z</time>
      </trkpt>
      <trkpt lat="43.327580" lon="-6.155580">
        <ele>268.013</ele>
        <time>2020-05-21T00:49:30Z</time>
      </trkpt>
      <trkpt lat="43.327620" lon="-6.155650">
        <ele>267.914</ele>
        <time>2020-05-21T00:49:50Z</time>
      </trkpt>
      <trkpt lat="43.327670" lon="-6.155710">
        <ele>267.908</ele>
        <time>2020-05-21T00:50:10Z</time>
      </trkpt>
      <trkpt lat="43.327670" lon="-6.155720">
        <ele>267.811</ele>
        <time>2020-05-21T00:50:30Z</time>
      </trkpt>
      <trkpt lat="43.327770" lon="-6.155810">
        <ele>267.366</ele>
        <time>2020-05-21T00:50:50Z</time>
      </trkpt>
      <trkpt lat="43.327820" lon="-6.155850">
        <ele>267.513</ele>
        <time>2020-05-21T00:51:10Z</time>
      </trkpt>
      <trkpt lat="43.327880" lon="-6.155900">
        <ele>268.089</ele>
        <time>2020-05-21T00:51:30Z</time>
      </trkpt>
      <trkpt lat="43.327970" lon="-6.155990">
        <ele>268.618</ele>
        <time>2020-05-21T00:51:50Z</time>
      </trkpt>
      <trkpt lat="43.327990" lon="-6.156010">
        <ele>268.819</ele>
        <time>2020-05-21T00:52:10Z</time>
      </trkpt>
      <trkpt lat="43.328060" lon="-6.156100">
        <ele>269.138</ele>
        <time>2020-05-21T00:52:30Z</time>
      </trkpt>
      <trkpt lat="43.328100" lon="-6.156150">
        <ele>270.111</ele>
        <time>2020-05-21T00:52:50Z</time>
      </trkpt>
      <trkpt lat="43.328150" lon="-6.156210">
        <ele>271.832</ele>
        <time>2020-05-21T00:53:10Z</time>
      </trkpt>
      <trkpt lat="43.328170" lon="-6.156250">
        <ele>272.892</ele>
        <time>2020-05-21T00:53:30Z</time>
      </trkpt>
      <trkpt lat="43.328180" lon="-6.156290">
        <ele>273.611</ele>
        <time>2020-05-21T00:53:50Z</time>
      </trkpt>
      <trkpt lat="43.328190" lon="-6.156340">
        <ele>274.608</ele>
        <time>2020-05-21T00:54:10Z</time>
      </trkpt>
      <trkpt lat="43.328190" lon="-6.156350">
        <ele>274.857</ele>
        <time>2020-05-21T00:54:30Z</time>
      </trkpt>
      <trkpt lat="43.328200" lon="-6.156390">
        <ele>275.642</ele>
        <time>2020-05-21T00:54:50Z</time>
      </trkpt>
      <trkpt lat="43.328200" lon="-6.156440">
        <ele>275.869</ele>
        <time>2020-05-21T00:55:10Z</time>
      </trkpt>
      <trkpt lat="43.328200" lon="-6.156500">
        <ele>276.175</ele>
        <time>2020-05-21T00:55:30Z</time>
      </trkpt>
      <trkpt lat="43.328190" lon="-6.156580">
        <ele>276.194</ele>
        <time>2020-05-21T00:55:50Z</time>
      </trkpt>
      <trkpt lat="43.328180" lon="-6.156600">
        <ele>275.865</ele>
        <time>2020-05-21T00:56:10Z</time>
      </trkpt>
      <trkpt lat="43.328170" lon="-6.156660">
        <ele>275.774</ele>
        <time>2020-05-21T00:56:30Z</time>
      </trkpt>
      <trkpt lat="43.328100" lon="-6.156820">
        <ele>273.587</ele>
        <time>2020-05-21T00:56:50Z</time>
      </trkpt>
      <trkpt lat="43.328080" lon="-6.156890">
        <ele>272.521</ele>
        <time>2020-05-21T00:57:10Z</time>
      </trkpt>
      <trkpt lat="43.327990" lon="-6.157080">
        <ele>270.141</ele>
        <time>2020-05-21T00:57:30Z</time>
      </trkpt>
      <trkpt lat="43.327910" lon="-6.157240">
        <ele>267.905</ele>
        <time>2020-05-21T00:57:50Z</time>
      </trkpt>
      <trkpt lat="43.327850" lon="-6.157370">
        <ele>267.008</ele>
        <time>2020-05-21T00:58:10Z</time>
      </trkpt>
      <trkpt lat="43.327810" lon="-6.157440">
        <ele>266.446</ele>
        <time>2020-05-21T00:58:30Z</time>
      </trkpt>
      <trkpt lat="43.327690" lon="-6.157630">
        <ele>267.131</ele>
        <time>2020-05-21T00:58:50Z</time>
      </trkpt>
      <trkpt lat="43.327680" lon="-6.157650">
        <ele>267.368</ele>
        <time>2020-05-21T00:59:10Z</time>
      </trkpt>
      <trkpt lat="43.327570" lon="-6.157810">
        <ele>267.834</ele>
        <time>2020-05-21T00:59:30Z</time>
      </trkpt>
      <trkpt lat="43.327440" lon="-6.158010">
        <ele>271.953</ele>
        <time>2020-05-21T00:59:50Z</time>
      </trkpt>
      <trkpt lat="43.327340" lon="-6.158190">
        <ele>275.944</ele>
        <time>2020-05-21T01:00:10Z</time>
      </trkpt>
      <trkpt lat="43.327330" lon="-6.158210">
        <ele>276.443</ele>
        <time>2020-05-21T01:00:30Z</time>
      </trkpt>
      <trkpt lat="43.327190" lon="-6.158450">
        <ele>283.276</ele>
        <time>2020-05-21T01:00:50Z</time>
      </trkpt>
      <trkpt lat="43.327110" lon="-6.158560">
        <ele>286.797</ele>
        <time>2020-05-21T01:01:10Z</time>
      </trkpt>
      <trkpt lat="43.327070" lon="-6.158620">
        <ele>288.623</ele>
        <time>2020-05-21T01:01:30Z</time>
      </trkpt>
      <trkpt lat="43.327010" lon="-6.158660">
        <ele>289.425</ele>
        <time>2020-05-21T01:01:50Z</time>
      </trkpt>
      <trkpt lat="43.326970" lon="-6.158690">
        <ele>290.108</ele>
        <time>2020-05-21T01:02:10Z</time>
      </trkpt>
      <trkpt lat="43.326960" lon="-6.158690">
        <ele>290.083</ele>
        <time>2020-05-21T01:02:30Z</time>
      </trkpt>
      <trkpt lat="43.326930" lon="-6.158690">
        <ele>289.828</ele>
        <time>2020-05-21T01:02:50Z</time>
      </trkpt>
      <trkpt lat="43.326880" lon="-6.158690">
        <ele>289.865</ele>
        <time>2020-05-21T01:03:10Z</time>
      </trkpt>
      <trkpt lat="43.326820" lon="-6.158680">
        <ele>289.371</ele>
        <time>2020-05-21T01:03:30Z</time>
      </trkpt>
      <trkpt lat="43.326780" lon="-6.158660">
        <ele>288.270</ele>
        <time>2020-05-21T01:03:50Z</time>
      </trkpt>
      <trkpt lat="43.326720" lon="-6.158640">
        <ele>286.911</ele>
        <time>2020-05-21T01:04:10Z</time>
      </trkpt>
      <trkpt lat="43.326630" lon="-6.158580">
        <ele>284.140</ele>
        <time>2020-05-21T01:04:30Z</time>
      </trkpt>
      <trkpt lat="43.326610" lon="-6.158560">
        <ele>283.453</ele>
        <time>2020-05-21T01:04:50Z</time>
      </trkpt>
      <trkpt lat="43.326550" lon="-6.158510">
        <ele>281.966</ele>
        <time>2020-05-21T01:05:10Z</time>
      </trkpt>
      <trkpt lat="43.326480" lon="-6.158430">
        <ele>278.829</ele>
        <time>2020-05-21T01:05:30Z</time>
      </trkpt>
      <trkpt lat="43.326470" lon="-6.158420">
        <ele>278.421</ele>
        <time>2020-05-21T01:05:50Z</time>
      </trkpt>
      <trkpt lat="43.326420" lon="-6.158340">
        <ele>274.808</ele>
        <time>2020-05-21T01:06:10Z</time>
      </trkpt>
      <trkpt lat="43.326360" lon="-6.158240">
        <ele>273.080</ele>
        <time>2020-05-21T01:06:30Z</time>
      </trkpt>
      <trkpt lat="43.326350" lon="-6.158230">
        <ele>273.025</ele>
        <time>2020-05-21T01:06:50Z</time>
      </trkpt>
      <trkpt lat="43.326310" lon="-6.158120">
        <ele>270.162</ele>
        <time>2020-05-21T01:07:10Z</time>
      </trkpt>
      <trkpt lat="43.326280" lon="-6.158010">
        <ele>267.238</ele>
        <time>2020-05-21T01:07:30Z</time>
      </trkpt>
      <trkpt lat="43.326270" lon="-6.158010">
        <ele>267.467</ele>
        <time>2020-05-21T01:07:50Z</time>
      </trkpt>
      <trkpt lat="43.326230" lon="-6.157910">
        <ele>266.478</ele>
        <time>2020-05-21T01:08:10Z</time>
      </trkpt>
      <trkpt lat="43.326190" lon="-6.157820">
        <ele>265.687</ele>
        <time>2020-05-21T01:08:30Z</time>
      </trkpt>
      <trkpt lat="43.326170" lon="-6.157800">
        <ele>265.820</ele>
        <time>2020-05-21T01:08:50Z</time>
      </trkpt>
      <trkpt lat="43.326130" lon="-6.157750">
        <ele>266.228</ele>
        <time>2020-05-21T01:09:10Z</time>
      </trkpt>
      <trkpt lat="43.326040" lon="-6.157670">
        <ele>268.889</ele>
        <time>2020-05-21T01:09:30Z</time>
      </trkpt>
      <trkpt lat="43.326030" lon="-6.157660">
        <ele>269.117</ele>
        <time>2020-05-21T01:09:50Z</time>
      </trkpt>
      <trkpt lat="43.325960" lon="-6.157620">
        <ele>271.108</ele>
        <time>2020-05-21T01:10:10Z</time>
      </trkpt>
      <trkpt lat="43.325880" lon="-6.157550">
        <ele>272.156</ele>
        <time>2020-05-21T01:10:30Z</time>
      </trkpt>
      <trkpt lat="43.325870" lon="-6.157550">
        <ele>272.481</ele>
        <time>2020-05-21T01:10:50Z</time>
      </trkpt>
      <trkpt lat="43.325800" lon="-6.157520">
        <ele>273.178</ele>
        <time>2020-05-21T01:11:10Z</time>
      </trkpt>
      <trkpt lat="43.325690" lon="-6.157480">
        <ele>273.614</ele>
        <time>2020-05-21T01:11:30Z</time>
      </trkpt>
      <trkpt lat="43.325670" lon="-6.157470">
        <ele>273.743</ele>
        <time>2020-05-21T01:11:50Z</time>
      </trkpt>
      <trkpt lat="43.325580" lon="-6.157440">
        <ele>274.454</ele>
        <time>2020-05-21T01:12:10Z</time>
      </trkpt>
      <trkpt lat="43.325520" lon="-6.157430">
        <ele>274.773</ele>
        <time>2020-05-21T01:12:30Z</time>
      </trkpt>
      <trkpt lat="43.325500" lon="-6.157430">
        <ele>274.876</ele>
        <time>2020-05-21T01:12:50Z</time>
      </trkpt>
      <trkpt lat="43.325400" lon="-6.157430">
        <ele>275.354</ele>
        <time>2020-05-21T01:13:10Z</time>
      </trkpt>
      <trkpt lat="43.325340" lon="-6.157450">
        <ele>275.856</ele>
        <time>2020-05-21T01:13:30Z</time>
      </trkpt>
      <trkpt lat="43.325300" lon="-6.157460">
        <ele>275.911</ele>
        <time>2020-05-21T01:13:50Z</time>
      </trkpt>
      <trkpt lat="43.325220" lon="-6.157490">
        <ele>276.608</ele>
        <time>2020-05-21T01:14:10Z</time>
      </trkpt>
      <trkpt lat="43.325150" lon="-6.157540">
        <ele>278.739</ele>
        <time>2020-05-21T01:14:30Z</time>
      </trkpt>
      <trkpt lat="43.325090" lon="-6.157600">
        <ele>281.174</ele>
        <time>2020-05-21T01:14:50Z</time>
      </trkpt>
      <trkpt lat="43.325050" lon="-6.157660">
        <ele>283.361</ele>
        <time>2020-05-21T01:15:10Z</time>
      </trkpt>
      <trkpt lat="43.325030" lon="-6.157680">
        <ele>284.027</ele>
        <time>2020-05-21T01:15:30Z</time>
      </trkpt>
      <trkpt lat="43.324990" lon="-6.157740">
        <ele>285.746</ele>
        <time>2020-05-21T01:15:50Z</time>
      </trkpt>
      <trkpt lat="43.324900" lon="-6.157830">
        <ele>287.847</ele>
        <time>2020-05-21T01:16:10Z</time>
      </trkpt>
      <trkpt lat="43.324890" lon="-6.157840">
        <ele>288.276</ele>
        <time>2020-05-21T01:16:30Z</time>
      </trkpt>
      <trkpt lat="43.324840" lon="-6.157890">
        <ele>289.949</ele>
        <time>2020-05-21T01:16:50Z</time>
      </trkpt>
      <trkpt lat="43.324780" lon="-6.157920">
        <ele>290.081</ele>
        <time>2020-05-21T01:17:10Z</time>
      </trkpt>
      <trkpt lat="43.324730" lon="-6.157930">
        <ele>289.061</ele>
        <time>2020-05-21T01:17:30Z</time>
      </trkpt>
      <trkpt lat="43.324700" lon="-6.157940">
        <ele>288.917</ele>
        <time>2020-05-21T01:17:50Z</time>
      </trkpt>
      <trkpt lat="43.324620" lon="-6.157970">
        <ele>288.708</ele>
        <time>2020-05-21T01:18:10Z</time>
      </trkpt>
      <trkpt lat="43.324370" lon="-6.157990">
        <ele>284.552</ele>
        <time>2020-05-21T01:18:30Z</time>
      </trkpt>
      <trkpt lat="43.324170" lon="-6.158000">
        <ele>281.777</ele>
        <time>2020-05-21T01:18:50Z</time>
      </trkpt>
      <trkpt lat="43.324060" lon="-6.158020">
        <ele>280.984</ele>
        <time>2020-05-21T01:19:10Z</time>
      </trkpt>
      <trkpt lat="43.323990" lon="-6.158050">
        <ele>280.440</ele>
        <time>2020-05-21T01:19:30Z</time>
      </trkpt>
      <trkpt lat="43.323930" lon="-6.158090">
        <ele>281.049</ele>
        <time>2020-05-21T01:19:50Z</time>
      </trkpt>
      <trkpt lat="43.323850" lon="-6.158140">
        <ele>282.220</ele>
        <time>2020-05-21T01:20:10Z</time>
      </trkpt>
      <trkpt lat="43.323700" lon="-6.158270">
        <ele>285.029</ele>
        <time>2020-05-21T01:20:30Z</time>
      </trkpt>
      <trkpt lat="43.323560" lon="-6.158370">
        <ele>286.042</ele>
        <time>2020-05-21T01:20:50Z</time>
      </trkpt>
      <trkpt lat="43.323540" lon="-6.158380">
        <ele>286.254</ele>
        <time>2020-05-21T01:21:10Z</time>
      </trkpt>
      <trkpt lat="43.323370" lon="-6.158470">
        <ele>287.756</ele>
        <time>2020-05-21T01:21:30Z</time>
      </trkpt>
      <trkpt lat="43.323350" lon="-6.158480">
        <ele>287.811</ele>
        <time>2020-05-21T01:21:50Z</time>
      </trkpt>
      <trkpt lat="43.323250" lon="-6.158540">
        <ele>289.108</ele>
        <time>2020-05-21T01:22:10Z</time>
      </trkpt>
      <trkpt lat="43.323200" lon="-6.158570">
        <ele>289.489</ele>
        <time>2020-05-21T01:22:30Z</time>
      </trkpt>
      <trkpt lat="43.323160" lon="-6.158590">
        <ele>289.514</ele>
        <time>2020-05-21T01:22:50Z</time>
      </trkpt>
      <trkpt lat="43.323080" lon="-6.158650">
        <ele>290.191</ele>
        <time>2020-05-21T01:23:10Z</time>
      </trkpt>
      <trkpt lat="43.323020" lon="-6.158710">
        <ele>291.437</ele>
        <time>2020-05-21T01:23:30Z</time>
      </trkpt>
      <trkpt lat="43.322960" lon="-6.158770">
        <ele>292.436</ele>
        <time>2020-05-21T01:23:50Z</time>
      </trkpt>
      <trkpt lat="43.322920" lon="-6.158830">
        <ele>293.467</ele>
        <time>2020-05-21T01:24:10Z</time>
      </trkpt>
      <trkpt lat="43.322850" lon="-6.158930">
        <ele>294.916</ele>
        <time>2020-05-21T01:24:30Z</time>
      </trkpt>
      <trkpt lat="43.322780" lon="-6.159010">
        <ele>296.199</ele>
        <time>2020-05-21T01:24:50Z</time>
      </trkpt>
      <trkpt lat="43.322740" lon="-6.159070">
        <ele>296.529</ele>
        <time>2020-05-21T01:25:10Z</time>
      </trkpt>
      <trkpt lat="43.322680" lon="-6.159150">
        <ele>296.500</ele>
        <time>2020-05-21T01:25:30Z</time>
      </trkpt>
      <trkpt lat="43.322660" lon="-6.159180">
        <ele>296.520</ele>
        <time>2020-05-21T01:25:50Z</time>
      </trkpt>
      <trkpt lat="43.322650" lon="-6.159190">
        <ele>296.508</ele>
        <time>2020-05-21T01:26:10Z</time>
      </trkpt>
      <trkpt lat="43.322630" lon="-6.159210">
        <ele>296.436</ele>
        <time>2020-05-21T01:26:30Z</time>
      </trkpt>
      <trkpt lat="43.322600" lon="-6.159240">
        <ele>296.381</ele>
        <time>2020-05-21T01:26:50Z</time>
      </trkpt>
      <trkpt lat="43.322570" lon="-6.159250">
        <ele>295.638</ele>
        <time>2020-05-21T01:27:10Z</time>
      </trkpt>
      <trkpt lat="43.322490" lon="-6.159270">
        <ele>293.924</ele>
        <time>2020-05-21T01:27:30Z</time>
      </trkpt>
      <trkpt lat="43.322480" lon="-6.159270">
        <ele>293.843</ele>
        <time>2020-05-21T01:27:50Z</time>
      </trkpt>
      <trkpt lat="43.322370" lon="-6.159270">
        <ele>292.774</ele>
        <time>2020-05-21T01:28:10Z</time>
      </trkpt>
      <trkpt lat="43.322310" lon="-6.159270">
        <ele>292.153</ele>
        <time>2020-05-21T01:28:30Z</time>
      </trkpt>
      <trkpt lat="43.322170" lon="-6.159260">
        <ele>289.926</ele>
        <time>2020-05-21T01:28:50Z</time>
      </trkpt>
      <trkpt lat="43.322130" lon="-6.159260">
        <ele>289.121</ele>
        <time>2020-05-21T01:29:10Z</time>
      </trkpt>
      <trkpt lat="43.322030" lon="-6.159280">
        <ele>287.441</ele>
        <time>2020-05-21T01:29:30Z</time>
      </trkpt>
      <trkpt lat="43.321950" lon="-6.159290">
        <ele>285.905</ele>
        <time>2020-05-21T01:29:50Z</time>
      </trkpt>
      <trkpt lat="43.321910" lon="-6.159300">
        <ele>285.308</ele>
        <time>2020-05-21T01:30:10Z</time>
      </trkpt>
      <trkpt lat="43.321780" lon="-6.159380">
        <ele>283.836</ele>
        <time>2020-05-21T01:30:30Z</time>
      </trkpt>
      <trkpt lat="43.321700" lon="-6.159460">
        <ele>283.161</ele>
        <time>2020-05-21T01:30:50Z</time>
      </trkpt>
      <trkpt lat="43.321650" lon="-6.159530">
        <ele>283.768</ele>
        <time>2020-05-21T01:31:10Z</time>
      </trkpt>
      <trkpt lat="43.321640" lon="-6.159540">
        <ele>283.894</ele>
        <time>2020-05-21T01:31:30Z</time>
      </trkpt>
      <trkpt lat="43.321610" lon="-6.159590">
        <ele>284.473</ele>
        <time>2020-05-21T01:31:50Z</time>
      </trkpt>
      <trkpt lat="43.321560" lon="-6.159660">
        <ele>285.074</ele>
        <time>2020-05-21T01:32:10Z</time>
      </trkpt>
      <trkpt lat="43.321540" lon="-6.159730">
        <ele>285.873</ele>
        <time>2020-05-21T01:32:30Z</time>
      </trkpt>
      <trkpt lat="43.321530" lon="-6.159750">
        <ele>285.926</ele>
        <time>2020-05-21T01:32:50Z</time>
      </trkpt>
      <trkpt lat="43.321510" lon="-6.159820">
        <ele>286.569</ele>
        <time>2020-05-21T01:33:10Z</time>
      </trkpt>
      <trkpt lat="43.321500" lon="-6.159900">
        <ele>287.304</ele>
        <time>2020-05-21T01:33:30Z</time>
      </trkpt>
      <trkpt lat="43.321490" lon="-6.159970">
        <ele>287.924</ele>
        <time>2020-05-21T01:33:50Z</time>
      </trkpt>
      <trkpt lat="43.321530" lon="-6.160260">
        <ele>293.808</ele>
        <time>2020-05-21T01:34:10Z</time>
      </trkpt>
      <trkpt lat="43.321530" lon="-6.160270">
        <ele>293.970</ele>
        <time>2020-05-21T01:34:30Z</time>
      </trkpt>
      <trkpt lat="43.321570" lon="-6.160500">
        <ele>295.825</ele>
        <time>2020-05-21T01:34:50Z</time>
      </trkpt>
      <trkpt lat="43.321580" lon="-6.160530">
        <ele>296.132</ele>
        <time>2020-05-21T01:35:10Z</time>
      </trkpt>
      <trkpt lat="43.321630" lon="-6.160740">
        <ele>296.148</ele>
        <time>2020-05-21T01:35:30Z</time>
      </trkpt>
      <trkpt lat="43.321640" lon="-6.160780">
        <ele>296.077</ele>
        <time>2020-05-21T01:35:50Z</time>
      </trkpt>
      <trkpt lat="43.321690" lon="-6.160970">
        <ele>297.368</ele>
        <time>2020-05-21T01:36:10Z</time>
      </trkpt>
      <trkpt lat="43.321710" lon="-6.161020">
        <ele>298.337</ele>
        <time>2020-05-21T01:36:30Z</time>
      </trkpt>
      <trkpt lat="43.321760" lon="-6.161190">
        <ele>301.810</ele>
        <time>2020-05-21T01:36:50Z</time>
      </trkpt>
      <trkpt lat="43.321760" lon="-6.161200">
        <ele>301.973</ele>
        <time>2020-05-21T01:37:10Z</time>
      </trkpt>
      <trkpt lat="43.321780" lon="-6.161280">
        <ele>303.785</ele>
        <time>2020-05-21T01:37:30Z</time>
      </trkpt>
      <trkpt lat="43.321780" lon="-6.161330">
        <ele>304.213</ele>
        <time>2020-05-21T01:37:50Z</time>
      </trkpt>
      <trkpt lat="43.321780" lon="-6.161370">
        <ele>304.508</ele>
        <time>2020-05-21T01:38:10Z</time>
      </trkpt>
      <trkpt lat="43.321760" lon="-6.161440">
        <ele>304.991</ele>
        <time>2020-05-21T01:38:30Z</time>
      </trkpt>
      <trkpt lat="43.321750" lon="-6.161450">
        <ele>304.736</ele>
        <time>2020-05-21T01:38:50Z</time>
      </trkpt>
      <trkpt lat="43.321720" lon="-6.161500">
        <ele>304.223</ele>
        <time>2020-05-21T01:39:10Z</time>
      </trkpt>
      <trkpt lat="43.321680" lon="-6.161560">
        <ele>303.489</ele>
        <time>2020-05-21T01:39:30Z</time>
      </trkpt>
      <trkpt lat="43.321630" lon="-6.161620">
        <ele>302.728</ele>
        <time>2020-05-21T01:39:50Z</time>
      </trkpt>
      <trkpt lat="43.321510" lon="-6.161790">
        <ele>302.279</ele>
        <time>2020-05-21T01:40:10Z</time>
      </trkpt>
      <trkpt lat="43.321490" lon="-6.161810">
        <ele>301.848</ele>
        <time>2020-05-21T01:40:30Z</time>
      </trkpt>
      <trkpt lat="43.321390" lon="-6.161970">
        <ele>300.681</ele>
        <time>2020-05-21T01:40:50Z</time>
      </trkpt>
      <trkpt lat="43.321330" lon="-6.162060">
        <ele>301.244</ele>
        <time>2020-05-21T01:41:10Z</time>
      </trkpt>
      <trkpt lat="43.321300" lon="-6.162180">
        <ele>302.205</ele>
        <time>2020-05-21T01:41:30Z</time>
      </trkpt>
      <trkpt lat="43.321290" lon="-6.162200">
        <ele>302.215</ele>
        <time>2020-05-21T01:41:50Z</time>
      </trkpt>
      <trkpt lat="43.321270" lon="-6.162320">
        <ele>302.808</ele>
        <time>2020-05-21T01:42:10Z</time>
      </trkpt>
      <trkpt lat="43.321260" lon="-6.162420">
        <ele>303.548</ele>
        <time>2020-05-21T01:42:30Z</time>
      </trkpt>
      <trkpt lat="43.321260" lon="-6.162430">
        <ele>303.763</ele>
        <time>2020-05-21T01:42:50Z</time>
      </trkpt>
      <trkpt lat="43.321270" lon="-6.162530">
        <ele>305.050</ele>
        <time>2020-05-21T01:43:10Z</time>
      </trkpt>
      <trkpt lat="43.321270" lon="-6.162640">
        <ele>305.636</ele>
        <time>2020-05-21T01:43:30Z</time>
      </trkpt>
      <trkpt lat="43.321270" lon="-6.162670">
        <ele>305.745</ele>
        <time>2020-05-21T01:43:50Z</time>
      </trkpt>
      <trkpt lat="43.321280" lon="-6.162780">
        <ele>306.746</ele>
        <time>2020-05-21T01:44:10Z</time>
      </trkpt>
      <trkpt lat="43.321310" lon="-6.162880">
        <ele>306.775</ele>
        <time>2020-05-21T01:44:30Z</time>
      </trkpt>
      <trkpt lat="43.321310" lon="-6.162910">
        <ele>306.448</ele>
        <time>2020-05-21T01:44:50Z</time>
      </trkpt>
      <trkpt lat="43.321330" lon="-6.163020">
        <ele>305.728</ele>
        <time>2020-05-21T01:45:10Z</time>
      </trkpt>
      <trkpt lat="43.321370" lon="-6.163150">
        <ele>305.289</ele>
        <time>2020-05-21T01:45:30Z</time>
      </trkpt>
      <trkpt lat="43.321380" lon="-6.163200">
        <ele>304.817</ele>
        <time>2020-05-21T01:45:50Z</time>
      </trkpt>
      <trkpt lat="43.321430" lon="-6.163360">
        <ele>304.408</ele>
        <time>2020-05-21T01:46:10Z</time>
      </trkpt>
      <trkpt lat="43.321440" lon="-6.163370">
        <ele>304.716</ele>
        <time>2020-05-21T01:46:30Z</time>
      </trkpt>
      <trkpt lat="43.321550" lon="-6.163570">
        <ele>306.881</ele>
        <time>2020-05-21T01:46:50Z</time>
      </trkpt>
      <trkpt lat="43.321660" lon="-6.163760">
        <ele>307.868</ele>
        <time>2020-05-21T01:47:10Z</time>
      </trkpt>
      <trkpt lat="43.321710" lon="-6.163850">
        <ele>309.584</ele>
        <time>2020-05-21T01:47:30Z</time>
      </trkpt>
      <trkpt lat="43.321770" lon="-6.163960">
        <ele>311.543</ele>
        <time>2020-05-21T01:47:50Z</time>
      </trkpt>
      <trkpt lat="43.321830" lon="-6.164060">
        <ele>313.354</ele>
        <time>2020-05-21T01:48:10Z</time>
      </trkpt>
      <trkpt lat="43.321880" lon="-6.164160">
        <ele>314.363</ele>
        <time>2020-05-21T01:48:30Z</time>
      </trkpt>
      <trkpt lat="43.321920" lon="-6.164250">
        <ele>314.256</ele>
        <time>2020-05-21T01:48:50Z</time>
      </trkpt>
      <trkpt lat="43.321950" lon="-6.164380">
        <ele>312.785</ele>
        <time>2020-05-21T01:49:10Z</time>
      </trkpt>
      <trkpt lat="43.321960" lon="-6.164420">
        <ele>312.489</ele>
        <time>2020-05-21T01:49:30Z</time>
      </trkpt>
      <trkpt lat="43.321990" lon="-6.164620">
        <ele>310.417</ele>
        <time>2020-05-21T01:49:50Z</time>
      </trkpt>
      <trkpt lat="43.322020" lon="-6.164790">
        <ele>310.108</ele>
        <time>2020-05-21T01:50:10Z</time>
      </trkpt>
      <trkpt lat="43.322030" lon="-6.164870">
        <ele>310.472</ele>
        <time>2020-05-21T01:50:30Z</time>
      </trkpt>
      <trkpt lat="43.322050" lon="-6.165190">
        <ele>311.267</ele>
        <time>2020-05-21T01:50:50Z</time>
      </trkpt>
      <trkpt lat="43.322060" lon="-6.165360">
        <ele>312.134</ele>
        <time>2020-05-21T01:51:10Z</time>
      </trkpt>
      <trkpt lat="43.322060" lon="-6.165610">
        <ele>313.960</ele>
        <time>2020-05-21T01:51:30Z</time>
      </trkpt>
      <trkpt lat="43.322070" lon="-6.165780">
        <ele>317.789</ele>
        <time>2020-05-21T01:51:50Z</time>
      </trkpt>
      <trkpt lat="43.322060" lon="-6.165850">
        <ele>318.820</ele>
        <time>2020-05-21T01:52:10Z</time>
      </trkpt>
      <trkpt lat="43.322050" lon="-6.165940">
        <ele>321.039</ele>
        <time>2020-05-21T01:52:30Z</time>
      </trkpt>
      <trkpt lat="43.322010" lon="-6.166090">
        <ele>322.952</ele>
        <time>2020-05-21T01:52:50Z</time>
      </trkpt>
      <trkpt lat="43.321960" lon="-6.166230">
        <ele>322.663</ele>
        <time>2020-05-21T01:53:10Z</time>
      </trkpt>
      <trkpt lat="43.321930" lon="-6.166310">
        <ele>322.544</ele>
        <time>2020-05-21T01:53:30Z</time>
      </trkpt>
      <trkpt lat="43.321850" lon="-6.166530">
        <ele>323.318</ele>
        <time>2020-05-21T01:53:50Z</time>
      </trkpt>
      <trkpt lat="43.321840" lon="-6.166560">
        <ele>323.408</ele>
        <time>2020-05-21T01:54:10Z</time>
      </trkpt>
      <trkpt lat="43.321760" lon="-6.166690">
        <ele>322.130</ele>
        <time>2020-05-21T01:54:30Z</time>
      </trkpt>
      <trkpt lat="43.321740" lon="-6.166720">
        <ele>322.185</ele>
        <time>2020-05-21T01:54:50Z</time>
      </trkpt>
      <trkpt lat="43.321620" lon="-6.166900">
        <ele>324.022</ele>
        <time>2020-05-21T01:55:10Z</time>
      </trkpt>
      <trkpt lat="43.321500" lon="-6.167090">
        <ele>325.038</ele>
        <time>2020-05-21T01:55:30Z</time>
      </trkpt>
      <trkpt lat="43.321480" lon="-6.167110">
        <ele>324.787</ele>
        <time>2020-05-21T01:55:50Z</time>
      </trkpt>
      <trkpt lat="43.321370" lon="-6.167260">
        <ele>324.188</ele>
        <time>2020-05-21T01:56:10Z</time>
      </trkpt>
      <trkpt lat="43.321240" lon="-6.167420">
        <ele>322.897</ele>
        <time>2020-05-21T01:56:30Z</time>
      </trkpt>
      <trkpt lat="43.321240" lon="-6.167430">
        <ele>323.080</ele>
        <time>2020-05-21T01:56:50Z</time>
      </trkpt>
      <trkpt lat="43.321110" lon="-6.167600">
        <ele>321.882</ele>
        <time>2020-05-21T01:57:10Z</time>
      </trkpt>
      <trkpt lat="43.321050" lon="-6.167680">
        <ele>321.143</ele>
        <time>2020-05-21T01:57:30Z</time>
      </trkpt>
      <trkpt lat="43.320990" lon="-6.167780">
        <ele>321.117</ele>
        <time>2020-05-21T01:57:50Z</time>
      </trkpt>
      <trkpt lat="43.320920" lon="-6.167890">
        <ele>321.208</ele>
        <time>2020-05-21T01:58:10Z</time>
      </trkpt>
      <trkpt lat="43.320880" lon="-6.167980">
        <ele>321.582</ele>
        <time>2020-05-21T01:58:30Z</time>
      </trkpt>
      <trkpt lat="43.320820" lon="-6.168090">
        <ele>321.727</ele>
        <time>2020-05-21T01:58:50Z</time>
      </trkpt>
      <trkpt lat="43.320780" lon="-6.168190">
        <ele>323.474</ele>
        <time>2020-05-21T01:59:10Z</time>
      </trkpt>
      <trkpt lat="43.320720" lon="-6.168350">
        <ele>325.750</ele>
        <time>2020-05-21T01:59:30Z</time>
      </trkpt>
      <trkpt lat="43.320700" lon="-6.168410">
        <ele>326.479</ele>
        <time>2020-05-21T01:59:50Z</time>
      </trkpt>
      <trkpt lat="43.320660" lon="-6.168540">
        <ele>327.350</ele>
        <time>2020-05-21T02:00:10Z</time>
      </trkpt>
      <trkpt lat="43.320640" lon="-6.168640">
        <ele>328.459</ele>
        <time>2020-05-21T02:00:30Z</time>
      </trkpt>
      <trkpt lat="43.320630" lon="-6.168670">
        <ele>328.762</ele>
        <time>2020-05-21T02:00:50Z</time>
      </trkpt>
      <trkpt lat="43.320610" lon="-6.168810">
        <ele>331.571</ele>
        <time>2020-05-21T02:01:10Z</time>
      </trkpt>
      <trkpt lat="43.320600" lon="-6.168880">
        <ele>333.041</ele>
        <time>2020-05-21T02:01:30Z</time>
      </trkpt>
      <trkpt lat="43.320580" lon="-6.169050">
        <ele>335.415</ele>
        <time>2020-05-21T02:01:50Z</time>
      </trkpt>
      <trkpt lat="43.320570" lon="-6.169130">
        <ele>336.308</ele>
        <time>2020-05-21T02:02:10Z</time>
      </trkpt>
      <trkpt lat="43.320560" lon="-6.169170">
        <ele>336.531</ele>
        <time>2020-05-21T02:02:30Z</time>
      </trkpt>
      <trkpt lat="43.320540" lon="-6.169220">
        <ele>338.146</ele>
        <time>2020-05-21T02:02:50Z</time>
      </trkpt>
      <trkpt lat="43.320520" lon="-6.169270">
        <ele>339.743</ele>
        <time>2020-05-21T02:03:10Z</time>
      </trkpt>
      <trkpt lat="43.320490" lon="-6.169310">
        <ele>340.269</ele>
        <time>2020-05-21T02:03:30Z</time>
      </trkpt>
      <trkpt lat="43.320470" lon="-6.169330">
        <ele>340.218</ele>
        <time>2020-05-21T02:03:50Z</time>
      </trkpt>
      <trkpt lat="43.320450" lon="-6.169350">
        <ele>340.179</ele>
        <time>2020-05-21T02:04:10Z</time>
      </trkpt>
      <trkpt lat="43.320410" lon="-6.169370">
        <ele>338.818</ele>
        <time>2020-05-21T02:04:30Z</time>
      </trkpt>
      <trkpt lat="43.320360" lon="-6.169380">
        <ele>336.671</ele>
        <time>2020-05-21T02:04:50Z</time>
      </trkpt>
      <trkpt lat="43.320300" lon="-6.169400">
        <ele>334.194</ele>
        <time>2020-05-21T02:05:10Z</time>
      </trkpt>
      <trkpt lat="43.320290" lon="-6.169400">
        <ele>333.557</ele>
        <time>2020-05-21T02:05:30Z</time>
      </trkpt>
      <trkpt lat="43.320190" lon="-6.169410">
        <ele>330.122</ele>
        <time>2020-05-21T02:05:50Z</time>
      </trkpt>
      <trkpt lat="43.320120" lon="-6.169420">
        <ele>327.908</ele>
        <time>2020-05-21T02:06:10Z</time>
      </trkpt>
      <trkpt lat="43.320100" lon="-6.169430">
        <ele>327.433</ele>
        <time>2020-05-21T02:06:30Z</time>
      </trkpt>
      <trkpt lat="43.320000" lon="-6.169430">
        <ele>323.898</ele>
        <time>2020-05-21T02:06:50Z</time>
      </trkpt>
      <trkpt lat="43.319940" lon="-6.169430">
        <ele>323.465</ele>
        <time>2020-05-21T02:07:10Z</time>
      </trkpt>
      <trkpt lat="43.319910" lon="-6.169430">
        <ele>323.271</ele>
        <time>2020-05-21T02:07:30Z</time>
      </trkpt>
      <trkpt lat="43.319800" lon="-6.169430">
        <ele>322.460</ele>
        <time>2020-05-21T02:07:50Z</time>
      </trkpt>
      <trkpt lat="43.319760" lon="-6.169420">
        <ele>322.061</ele>
        <time>2020-05-21T02:08:10Z</time>
      </trkpt>
      <trkpt lat="43.319730" lon="-6.169410">
        <ele>321.770</ele>
        <time>2020-05-21T02:08:30Z</time>
      </trkpt>
      <trkpt lat="43.319680" lon="-6.169400">
        <ele>321.433</ele>
        <time>2020-05-21T02:08:50Z</time>
      </trkpt>
      <trkpt lat="43.319630" lon="-6.169390">
        <ele>321.336</ele>
        <time>2020-05-21T02:09:10Z</time>
      </trkpt>
      <trkpt lat="43.319590" lon="-6.169370">
        <ele>321.117</ele>
        <time>2020-05-21T02:09:30Z</time>
      </trkpt>
      <trkpt lat="43.319550" lon="-6.169350">
        <ele>321.018</ele>
        <time>2020-05-21T02:09:50Z</time>
      </trkpt>
      <trkpt lat="43.319480" lon="-6.169320">
        <ele>321.008</ele>
        <time>2020-05-21T02:10:10Z</time>
      </trkpt>
      <trkpt lat="43.319420" lon="-6.169280">
        <ele>321.057</ele>
        <time>2020-05-21T02:10:30Z</time>
      </trkpt>
      <trkpt lat="43.319380" lon="-6.169260">
        <ele>321.032</ele>
        <time>2020-05-21T02:10:50Z</time>
      </trkpt>
      <trkpt lat="43.319340" lon="-6.169230">
        <ele>321.049</ele>
        <time>2020-05-21T02:11:10Z</time>
      </trkpt>
      <trkpt lat="43.319320" lon="-6.169220">
        <ele>321.085</ele>
        <time>2020-05-21T02:11:30Z</time>
      </trkpt>
      <trkpt lat="43.319280" lon="-6.169200">
        <ele>321.054</ele>
        <time>2020-05-21T02:11:50Z</time>
      </trkpt>
      <trkpt lat="43.319250" lon="-6.169200">
        <ele>321.035</ele>
        <time>2020-05-21T02:12:10Z</time>
      </trkpt>
      <trkpt lat="43.319253" lon="-6.169197">
        <ele>321.034</ele>
        <time>2020-05-21T02:12:30Z</time>
      </trkpt>
      <trkpt lat="43.319190" lon="-6.169230">
        <ele>321.037</ele>
        <time>2020-05-21T02:12:50Z</time>
      </trkpt>
      <trkpt lat="43.319140" lon="-6.169280">
        <ele>321.063</ele>
        <time>2020-05-21T02:13:10Z</time>
      </trkpt>
      <trkpt lat="43.319020" lon="-6.169420">
        <ele>321.044</ele>
        <time>2020-05-21T02:13:30Z</time>
      </trkpt>
      <trkpt lat="43.318960" lon="-6.169500">
        <ele>321.618</ele>
        <time>2020-05-21T02:13:50Z</time>
      </trkpt>
      <trkpt lat="43.318910" lon="-6.169570">
        <ele>322.708</ele>
        <time>2020-05-21T02:14:10Z</time>
      </trkpt>
      <trkpt lat="43.318870" lon="-6.169640">
        <ele>324.530</ele>
        <time>2020-05-21T02:14:30Z</time>
      </trkpt>
      <trkpt lat="43.318850" lon="-6.169680">
        <ele>325.795</ele>
        <time>2020-05-21T02:14:50Z</time>
      </trkpt>
      <trkpt lat="43.318840" lon="-6.169730">
        <ele>326.982</ele>
        <time>2020-05-21T02:15:10Z</time>
      </trkpt>
      <trkpt lat="43.318840" lon="-6.169790">
        <ele>327.628</ele>
        <time>2020-05-21T02:15:30Z</time>
      </trkpt>
      <trkpt lat="43.318860" lon="-6.169840">
        <ele>327.657</ele>
        <time>2020-05-21T02:15:50Z</time>
      </trkpt>
      <trkpt lat="43.318900" lon="-6.169910">
        <ele>327.698</ele>
        <time>2020-05-21T02:16:10Z</time>
      </trkpt>
      <trkpt lat="43.319030" lon="-6.170070">
        <ele>327.677</ele>
        <time>2020-05-21T02:16:30Z</time>
      </trkpt>
      <trkpt lat="43.319080" lon="-6.170170">
        <ele>327.770</ele>
        <time>2020-05-21T02:16:50Z</time>
      </trkpt>
      <trkpt lat="43.319090" lon="-6.170210">
        <ele>327.865</ele>
        <time>2020-05-21T02:17:10Z</time>
      </trkpt>
      <trkpt lat="43.319100" lon="-6.170240">
        <ele>327.968</ele>
        <time>2020-05-21T02:17:30Z</time>
      </trkpt>
      <trkpt lat="43.319100" lon="-6.170270">
        <ele>328.114</ele>
        <time>2020-05-21T02:17:50Z</time>
      </trkpt>
      <trkpt lat="43.319090" lon="-6.170310">
        <ele>328.508</ele>
        <time>2020-05-21T02:18:10Z</time>
      </trkpt>
      <trkpt lat="43.319080" lon="-6.170350">
        <ele>328.730</ele>
        <time>2020-05-21T02:18:30Z</time>
      </trkpt>
      <trkpt lat="43.319070" lon="-6.170390">
        <ele>329.075</ele>
        <time>2020-05-21T02:18:50Z</time>
      </trkpt>
      <trkpt lat="43.319040" lon="-6.170430">
        <ele>329.682</ele>
        <time>2020-05-21T02:19:10Z</time>
      </trkpt>
      <trkpt lat="43.318970" lon="-6.170490">
        <ele>330.828</ele>
        <time>2020-05-21T02:19:30Z</time>
      </trkpt>
      <trkpt lat="43.318920" lon="-6.170520">
        <ele>331.567</ele>
        <time>2020-05-21T02:19:50Z</time>
      </trkpt>
      <trkpt lat="43.318900" lon="-6.170530">
        <ele>331.888</ele>
        <time>2020-05-21T02:20:10Z</time>
      </trkpt>
      <trkpt lat="43.318780" lon="-6.170600">
        <ele>333.127</ele>
        <time>2020-05-21T02:20:30Z</time>
      </trkpt>
      <trkpt lat="43.318680" lon="-6.170630">
        <ele>333.990</ele>
        <time>2020-05-21T02:20:50Z</time>
      </trkpt>
      <trkpt lat="43.318580" lon="-6.170650">
        <ele>334.346</ele>
        <time>2020-05-21T02:21:10Z</time>
      </trkpt>
      <trkpt lat="43.318480" lon="-6.170660">
        <ele>334.088</ele>
        <time>2020-05-21T02:21:30Z</time>
      </trkpt>
      <trkpt lat="43.318330" lon="-6.170670">
        <ele>333.616</ele>
        <time>2020-05-21T02:21:50Z</time>
      </trkpt>
      <trkpt lat="43.318230" lon="-6.170690">
        <ele>334.008</ele>
        <time>2020-05-21T02:22:10Z</time>
      </trkpt>
      <trkpt lat="43.318210" lon="-6.170700">
        <ele>334.078</ele>
        <time>2020-05-21T02:22:30Z</time>
      </trkpt>
      <trkpt lat="43.318110" lon="-6.170730">
        <ele>334.173</ele>
        <time>2020-05-21T02:22:50Z</time>
      </trkpt>
      <trkpt lat="43.317890" lon="-6.170840">
        <ele>335.530</ele>
        <time>2020-05-21T02:23:10Z</time>
      </trkpt>
      <trkpt lat="43.317720" lon="-6.170970">
        <ele>336.746</ele>
        <time>2020-05-21T02:23:30Z</time>
      </trkpt>
      <trkpt lat="43.317680" lon="-6.171000">
        <ele>336.475</ele>
        <time>2020-05-21T02:23:50Z</time>
      </trkpt>
      <trkpt lat="43.317370" lon="-6.171230">
        <ele>335.046</ele>
        <time>2020-05-21T02:24:10Z</time>
      </trkpt>
      <trkpt lat="43.317240" lon="-6.171320">
        <ele>333.945</ele>
        <time>2020-05-21T02:24:30Z</time>
      </trkpt>
      <trkpt lat="43.317080" lon="-6.171440">
        <ele>334.898</ele>
        <time>2020-05-21T02:24:50Z</time>
      </trkpt>
      <trkpt lat="43.316760" lon="-6.171660">
        <ele>335.872</ele>
        <time>2020-05-21T02:25:10Z</time>
      </trkpt>
      <trkpt lat="43.316420" lon="-6.171980">
        <ele>333.213</ele>
        <time>2020-05-21T02:25:30Z</time>
      </trkpt>
      <trkpt lat="43.316330" lon="-6.172050">
        <ele>333.114</ele>
        <time>2020-05-21T02:25:50Z</time>
      </trkpt>
      <trkpt lat="43.316310" lon="-6.172060">
        <ele>333.108</ele>
        <time>2020-05-21T02:26:10Z</time>
      </trkpt>
      <trkpt lat="43.316290" lon="-6.172070">
        <ele>333.021</ele>
        <time>2020-05-21T02:26:30Z</time>
      </trkpt>
      <trkpt lat="43.316210" lon="-6.172060">
        <ele>333.546</ele>
        <time>2020-05-21T02:26:50Z</time>
      </trkpt>
      <trkpt lat="43.316140" lon="-6.172040">
        <ele>334.143</ele>
        <time>2020-05-21T02:27:10Z</time>
      </trkpt>
      <trkpt lat="43.316130" lon="-6.172040">
        <ele>334.289</ele>
        <time>2020-05-21T02:27:30Z</time>
      </trkpt>
      <trkpt lat="43.316060" lon="-6.172000">
        <ele>335.858</ele>
        <time>2020-05-21T02:27:50Z</time>
      </trkpt>
      <trkpt lat="43.315940" lon="-6.171940">
        <ele>339.259</ele>
        <time>2020-05-21T02:28:10Z</time>
      </trkpt>
      <trkpt lat="43.315850" lon="-6.171900">
        <ele>342.188</ele>
        <time>2020-05-21T02:28:30Z</time>
      </trkpt>
      <trkpt lat="43.315790" lon="-6.171900">
        <ele>343.791</ele>
        <time>2020-05-21T02:28:50Z</time>
      </trkpt>
      <trkpt lat="43.315750" lon="-6.171900">
        <ele>344.921</ele>
        <time>2020-05-21T02:29:10Z</time>
      </trkpt>
      <trkpt lat="43.315680" lon="-6.171900">
        <ele>346.941</ele>
        <time>2020-05-21T02:29:30Z</time>
      </trkpt>
      <trkpt lat="43.315610" lon="-6.171910">
        <ele>348.605</ele>
        <time>2020-05-21T02:29:50Z</time>
      </trkpt>
      <trkpt lat="43.315570" lon="-6.171920">
        <ele>349.508</ele>
        <time>2020-05-21T02:30:10Z</time>
      </trkpt>
      <trkpt lat="43.315510" lon="-6.171970">
        <ele>349.556</ele>
        <time>2020-05-21T02:30:30Z</time>
      </trkpt>
      <trkpt lat="43.315460" lon="-6.172030">
        <ele>349.121</ele>
        <time>2020-05-21T02:30:50Z</time>
      </trkpt>
      <trkpt lat="43.315350" lon="-6.172150">
        <ele>347.948</ele>
        <time>2020-05-21T02:31:10Z</time>
      </trkpt>
      <trkpt lat="43.315320" lon="-6.172180">
        <ele>347.644</ele>
        <time>2020-05-21T02:31:30Z</time>
      </trkpt>
      <trkpt lat="43.315190" lon="-6.172350">
        <ele>346.633</ele>
        <time>2020-05-21T02:31:50Z</time>
      </trkpt>
      <trkpt lat="43.315120" lon="-6.172440">
        <ele>346.184</ele>
        <time>2020-05-21T02:32:10Z</time>
      </trkpt>
      <trkpt lat="43.314990" lon="-6.172760">
        <ele>341.623</ele>
        <time>2020-05-21T02:32:30Z</time>
      </trkpt>
      <trkpt lat="43.314950" lon="-6.172860">
        <ele>341.276</ele>
        <time>2020-05-21T02:32:50Z</time>
      </trkpt>
      <trkpt lat="43.314910" lon="-6.172980">
        <ele>340.786</ele>
        <time>2020-05-21T02:33:10Z</time>
      </trkpt>
      <trkpt lat="43.314910" lon="-6.172990">
        <ele>340.660</ele>
        <time>2020-05-21T02:33:30Z</time>
      </trkpt>
      <trkpt lat="43.314870" lon="-6.173040">
        <ele>340.626</ele>
        <time>2020-05-21T02:33:50Z</time>
      </trkpt>
      <trkpt lat="43.314840" lon="-6.173080">
        <ele>340.608</ele>
        <time>2020-05-21T02:34:10Z</time>
      </trkpt>
      <trkpt lat="43.314800" lon="-6.173100">
        <ele>340.922</ele>
        <time>2020-05-21T02:34:30Z</time>
      </trkpt>
      <trkpt lat="43.314760" lon="-6.173110">
        <ele>341.357</ele>
        <time>2020-05-21T02:34:50Z</time>
      </trkpt>
      <trkpt lat="43.314740" lon="-6.173120">
        <ele>341.434</ele>
        <time>2020-05-21T02:35:10Z</time>
      </trkpt>
      <trkpt lat="43.314710" lon="-6.173110">
        <ele>341.690</ele>
        <time>2020-05-21T02:35:30Z</time>
      </trkpt>
      <trkpt lat="43.314680" lon="-6.173100">
        <ele>341.789</ele>
        <time>2020-05-21T02:35:50Z</time>
      </trkpt>
      <trkpt lat="43.314660" lon="-6.173080">
        <ele>341.810</ele>
        <time>2020-05-21T02:36:10Z</time>
      </trkpt>
      <trkpt lat="43.314650" lon="-6.173030">
        <ele>342.429</ele>
        <time>2020-05-21T02:36:30Z</time>
      </trkpt>
      <trkpt lat="43.314630" lon="-6.172990">
        <ele>343.292</ele>
        <time>2020-05-21T02:36:50Z</time>
      </trkpt>
      <trkpt lat="43.314610" lon="-6.172940">
        <ele>344.297</ele>
        <time>2020-05-21T02:37:10Z</time>
      </trkpt>
      <trkpt lat="43.314590" lon="-6.172860">
        <ele>345.823</ele>
        <time>2020-05-21T02:37:30Z</time>
      </trkpt>
      <trkpt lat="43.314570" lon="-6.172800">
        <ele>347.225</ele>
        <time>2020-05-21T02:37:50Z</time>
      </trkpt>
      <trkpt lat="43.314540" lon="-6.172780">
        <ele>347.908</ele>
        <time>2020-05-21T02:38:10Z</time>
      </trkpt>
      <trkpt lat="43.314540" lon="-6.172770">
        <ele>348.243</ele>
        <time>2020-05-21T02:38:30Z</time>
      </trkpt>
      <trkpt lat="43.314450" lon="-6.172720">
        <ele>350.858</ele>
        <time>2020-05-21T02:38:50Z</time>
      </trkpt>
      <trkpt lat="43.314370" lon="-6.172700">
        <ele>352.255</ele>
        <time>2020-05-21T02:39:10Z</time>
      </trkpt>
      <trkpt lat="43.314350" lon="-6.172700">
        <ele>352.451</ele>
        <time>2020-05-21T02:39:30Z</time>
      </trkpt>
      <trkpt lat="43.314260" lon="-6.172690">
        <ele>353.610</ele>
        <time>2020-05-21T02:39:50Z</time>
      </trkpt>
      <trkpt lat="43.314200" lon="-6.172710">
        <ele>353.431</ele>
        <time>2020-05-21T02:40:10Z</time>
      </trkpt>
      <trkpt lat="43.314180" lon="-6.172710">
        <ele>353.680</ele>
        <time>2020-05-21T02:40:30Z</time>
      </trkpt>
      <trkpt lat="43.314120" lon="-6.172750">
        <ele>354.193</ele>
        <time>2020-05-21T02:40:50Z</time>
      </trkpt>
      <trkpt lat="43.314050" lon="-6.172850">
        <ele>354.459</ele>
        <time>2020-05-21T02:41:10Z</time>
      </trkpt>
      <trkpt lat="43.313990" lon="-6.172930">
        <ele>355.003</ele>
        <time>2020-05-21T02:41:30Z</time>
      </trkpt>
      <trkpt lat="43.313940" lon="-6.173040">
        <ele>354.423</ele>
        <time>2020-05-21T02:41:50Z</time>
      </trkpt>
      <trkpt lat="43.313850" lon="-6.173260">
        <ele>353.208</ele>
        <time>2020-05-21T02:42:10Z</time>
      </trkpt>
      <trkpt lat="43.313760" lon="-6.173470">
        <ele>355.459</ele>
        <time>2020-05-21T02:42:30Z</time>
      </trkpt>
      <trkpt lat="43.313730" lon="-6.173560">
        <ele>356.034</ele>
        <time>2020-05-21T02:42:50Z</time>
      </trkpt>
      <trkpt lat="43.313690" lon="-6.173700">
        <ele>356.741</ele>
        <time>2020-05-21T02:43:10Z</time>
      </trkpt>
      <trkpt lat="43.313620" lon="-6.173920">
        <ele>356.487</ele>
        <time>2020-05-21T02:43:30Z</time>
      </trkpt>
      <trkpt lat="43.313620" lon="-6.173940">
        <ele>356.256</ele>
        <time>2020-05-21T02:43:50Z</time>
      </trkpt>
      <trkpt lat="43.313580" lon="-6.174170">
        <ele>355.497</ele>
        <time>2020-05-21T02:44:10Z</time>
      </trkpt>
      <trkpt lat="43.313550" lon="-6.174400">
        <ele>354.076</ele>
        <time>2020-05-21T02:44:30Z</time>
      </trkpt>
      <trkpt lat="43.313550" lon="-6.174520">
        <ele>353.269</ele>
        <time>2020-05-21T02:44:50Z</time>
      </trkpt>
      <trkpt lat="43.313540" lon="-6.174650">
        <ele>353.166</ele>
        <time>2020-05-21T02:45:10Z</time>
      </trkpt>
      <trkpt lat="43.313540" lon="-6.174660">
        <ele>353.029</ele>
        <time>2020-05-21T02:45:30Z</time>
      </trkpt>
      <trkpt lat="43.313520" lon="-6.174730">
        <ele>353.321</ele>
        <time>2020-05-21T02:45:50Z</time>
      </trkpt>
      <trkpt lat="43.313500" lon="-6.174780">
        <ele>353.808</ele>
        <time>2020-05-21T02:46:10Z</time>
      </trkpt>
      <trkpt lat="43.313470" lon="-6.174800">
        <ele>354.470</ele>
        <time>2020-05-21T02:46:30Z</time>
      </trkpt>
      <trkpt lat="43.313420" lon="-6.174800">
        <ele>355.555</ele>
        <time>2020-05-21T02:46:50Z</time>
      </trkpt>
      <trkpt lat="43.313370" lon="-6.174810">
        <ele>356.642</ele>
        <time>2020-05-21T02:47:10Z</time>
      </trkpt>
      <trkpt lat="43.313290" lon="-6.174820">
        <ele>358.698</ele>
        <time>2020-05-21T02:47:30Z</time>
      </trkpt>
      <trkpt lat="43.313240" lon="-6.174820">
        <ele>360.237</ele>
        <time>2020-05-21T02:47:50Z</time>
      </trkpt>
      <trkpt lat="43.313200" lon="-6.174820">
        <ele>361.488</ele>
        <time>2020-05-21T02:48:10Z</time>
      </trkpt>
      <trkpt lat="43.313160" lon="-6.174820">
        <ele>362.727</ele>
        <time>2020-05-21T02:48:30Z</time>
      </trkpt>
      <trkpt lat="43.313090" lon="-6.174850">
        <ele>364.650</ele>
        <time>2020-05-21T02:48:50Z</time>
      </trkpt>
      <trkpt lat="43.313070" lon="-6.174860">
        <ele>365.196</ele>
        <time>2020-05-21T02:49:10Z</time>
      </trkpt>
      <trkpt lat="43.313030" lon="-6.174880">
        <ele>366.531</ele>
        <time>2020-05-21T02:49:30Z</time>
      </trkpt>
      <trkpt lat="43.313000" lon="-6.174940">
        <ele>367.324</ele>
        <time>2020-05-21T02:49:50Z</time>
      </trkpt>
      <trkpt lat="43.312950" lon="-6.175040">
        <ele>369.008</ele>
        <time>2020-05-21T02:50:10Z</time>
      </trkpt>
      <trkpt lat="43.312930" lon="-6.175100">
        <ele>369.643</ele>
        <time>2020-05-21T02:50:30Z</time>
      </trkpt>
      <trkpt lat="43.312920" lon="-6.175280">
        <ele>368.898</ele>
        <time>2020-05-21T02:50:50Z</time>
      </trkpt>
      <trkpt lat="43.312920" lon="-6.175530">
        <ele>367.535</ele>
        <time>2020-05-21T02:51:10Z</time>
      </trkpt>
      <trkpt lat="43.312920" lon="-6.175590">
        <ele>367.231</ele>
        <time>2020-05-21T02:51:30Z</time>
      </trkpt>
      <trkpt lat="43.312890" lon="-6.175770">
        <ele>367.090</ele>
        <time>2020-05-21T02:51:50Z</time>
      </trkpt>
      <trkpt lat="43.312860" lon="-6.175990">
        <ele>366.481</ele>
        <time>2020-05-21T02:52:10Z</time>
      </trkpt>
      <trkpt lat="43.312850" lon="-6.176010">
        <ele>366.520</ele>
        <time>2020-05-21T02:52:30Z</time>
      </trkpt>
      <trkpt lat="43.312810" lon="-6.176150">
        <ele>366.093</ele>
        <time>2020-05-21T02:52:50Z</time>
      </trkpt>
      <trkpt lat="43.312770" lon="-6.176250">
        <ele>364.664</ele>
        <time>2020-05-21T02:53:10Z</time>
      </trkpt>
      <trkpt lat="43.312740" lon="-6.176310">
        <ele>363.706</ele>
        <time>2020-05-21T02:53:30Z</time>
      </trkpt>
      <trkpt lat="43.312700" lon="-6.176370">
        <ele>362.916</ele>
        <time>2020-05-21T02:53:50Z</time>
      </trkpt>
      <trkpt lat="43.312650" lon="-6.176410">
        <ele>363.108</ele>
        <time>2020-05-21T02:54:10Z</time>
      </trkpt>
      <trkpt lat="43.312620" lon="-6.176430">
        <ele>363.520</ele>
        <time>2020-05-21T02:54:30Z</time>
      </trkpt>
      <trkpt lat="43.312560" lon="-6.176470">
        <ele>364.035</ele>
        <time>2020-05-21T02:54:50Z</time>
      </trkpt>
      <trkpt lat="43.312510" lon="-6.176480">
        <ele>364.392</ele>
        <time>2020-05-21T02:55:10Z</time>
      </trkpt>
      <trkpt lat="43.312480" lon="-6.176480">
        <ele>364.358</ele>
        <time>2020-05-21T02:55:30Z</time>
      </trkpt>
      <trkpt lat="43.312460" lon="-6.176490">
        <ele>364.447</ele>
        <time>2020-05-21T02:55:50Z</time>
      </trkpt>
      <trkpt lat="43.312410" lon="-6.176480">
        <ele>364.358</ele>
        <time>2020-05-21T02:56:10Z</time>
      </trkpt>
      <trkpt lat="43.312380" lon="-6.176460">
        <ele>364.447</ele>
        <time>2020-05-21T02:56:30Z</time>
      </trkpt>
      <trkpt lat="43.312350" lon="-6.176430">
        <ele>364.450</ele>
        <time>2020-05-21T02:56:50Z</time>
      </trkpt>
      <trkpt lat="43.312330" lon="-6.176400">
        <ele>364.676</ele>
        <time>2020-05-21T02:57:10Z</time>
      </trkpt>
      <trkpt lat="43.312240" lon="-6.176260">
        <ele>367.790</ele>
        <time>2020-05-21T02:57:30Z</time>
      </trkpt>
      <trkpt lat="43.312200" lon="-6.176210">
        <ele>369.019</ele>
        <time>2020-05-21T02:57:50Z</time>
      </trkpt>
      <trkpt lat="43.312150" lon="-6.176140">
        <ele>370.708</ele>
        <time>2020-05-21T02:58:10Z</time>
      </trkpt>
      <trkpt lat="43.312070" lon="-6.176070">
        <ele>372.461</ele>
        <time>2020-05-21T02:58:30Z</time>
      </trkpt>
      <trkpt lat="43.312060" lon="-6.176070">
        <ele>372.456</ele>
        <time>2020-05-21T02:58:50Z</time>
      </trkpt>
      <trkpt lat="43.311980" lon="-6.176030">
        <ele>373.423</ele>
        <time>2020-05-21T02:59:10Z</time>
      </trkpt>
      <trkpt lat="43.311890" lon="-6.176040">
        <ele>372.459</ele>
        <time>2020-05-21T02:59:30Z</time>
      </trkpt>
      <trkpt lat="43.311840" lon="-6.176040">
        <ele>371.678</ele>
        <time>2020-05-21T02:59:50Z</time>
      </trkpt>
      <trkpt lat="43.311710" lon="-6.176040">
        <ele>369.529</ele>
        <time>2020-05-21T03:00:10Z</time>
      </trkpt>
      <trkpt lat="43.311680" lon="-6.176040">
        <ele>369.098</ele>
        <time>2020-05-21T03:00:30Z</time>
      </trkpt>
      <trkpt lat="43.311350" lon="-6.176110">
        <ele>372.351</ele>
        <time>2020-05-21T03:00:50Z</time>
      </trkpt>
      <trkpt lat="43.311320" lon="-6.176120">
        <ele>372.497</ele>
        <time>2020-05-21T03:01:10Z</time>
      </trkpt>
      <trkpt lat="43.311180" lon="-6.176170">
        <ele>372.923</ele>
        <time>2020-05-21T03:01:30Z</time>
      </trkpt>
      <trkpt lat="43.311050" lon="-6.176210">
        <ele>373.625</ele>
        <time>2020-05-21T03:01:50Z</time>
      </trkpt>
      <trkpt lat="43.311000" lon="-6.176240">
        <ele>373.708</ele>
        <time>2020-05-21T03:02:10Z</time>
      </trkpt>
      <trkpt lat="43.310840" lon="-6.176300">
        <ele>373.913</ele>
        <time>2020-05-21T03:02:30Z</time>
      </trkpt>
      <trkpt lat="43.310830" lon="-6.176310">
        <ele>373.718</ele>
        <time>2020-05-21T03:02:50Z</time>
      </trkpt>
      <trkpt lat="43.310710" lon="-6.176390">
        <ele>372.055</ele>
        <time>2020-05-21T03:03:10Z</time>
      </trkpt>
      <trkpt lat="43.310680" lon="-6.176440">
        <ele>371.431</ele>
        <time>2020-05-21T03:03:30Z</time>
      </trkpt>
      <trkpt lat="43.310660" lon="-6.176460">
        <ele>371.170</ele>
        <time>2020-05-21T03:03:50Z</time>
      </trkpt>
      <trkpt lat="43.310630" lon="-6.176600">
        <ele>369.581</ele>
        <time>2020-05-21T03:04:10Z</time>
      </trkpt>
      <trkpt lat="43.310620" lon="-6.176670">
        <ele>368.770</ele>
        <time>2020-05-21T03:04:30Z</time>
      </trkpt>
      <trkpt lat="43.310620" lon="-6.176720">
        <ele>368.383</ele>
        <time>2020-05-21T03:04:50Z</time>
      </trkpt>
      <trkpt lat="43.310610" lon="-6.176820">
        <ele>367.431</ele>
        <time>2020-05-21T03:05:10Z</time>
      </trkpt>
      <trkpt lat="43.310600" lon="-6.176910">
        <ele>366.561</ele>
        <time>2020-05-21T03:05:30Z</time>
      </trkpt>
      <trkpt lat="43.310600" lon="-6.176940">
        <ele>366.207</ele>
        <time>2020-05-21T03:05:50Z</time>
      </trkpt>
      <trkpt lat="43.310550" lon="-6.177010">
        <ele>365.308</ele>
        <time>2020-05-21T03:06:10Z</time>
      </trkpt>
      <trkpt lat="43.310510" lon="-6.177040">
        <ele>365.137</ele>
        <time>2020-05-21T03:06:30Z</time>
      </trkpt>
      <trkpt lat="43.310470" lon="-6.177060">
        <ele>365.082</ele>
        <time>2020-05-21T03:06:50Z</time>
      </trkpt>
      <trkpt lat="43.310460" lon="-6.177070">
        <ele>365.099</ele>
        <time>2020-05-21T03:07:10Z</time>
      </trkpt>
      <trkpt lat="43.310400" lon="-6.177070">
        <ele>365.145</ele>
        <time>2020-05-21T03:07:30Z</time>
      </trkpt>
      <trkpt lat="43.310340" lon="-6.177070">
        <ele>365.384</ele>
        <time>2020-05-21T03:07:50Z</time>
      </trkpt>
      <trkpt lat="43.310290" lon="-6.177050">
        <ele>365.625</ele>
        <time>2020-05-21T03:08:10Z</time>
      </trkpt>
      <trkpt lat="43.310280" lon="-6.177040">
        <ele>365.644</ele>
        <time>2020-05-21T03:08:30Z</time>
      </trkpt>
      <trkpt lat="43.310240" lon="-6.177000">
        <ele>366.067</ele>
        <time>2020-05-21T03:08:50Z</time>
      </trkpt>
      <trkpt lat="43.310180" lon="-6.176930">
        <ele>366.051</ele>
        <time>2020-05-21T03:09:10Z</time>
      </trkpt>
      <trkpt lat="43.310160" lon="-6.176890">
        <ele>366.101</ele>
        <time>2020-05-21T03:09:30Z</time>
      </trkpt>
      <trkpt lat="43.310160" lon="-6.176850">
        <ele>366.211</ele>
        <time>2020-05-21T03:09:50Z</time>
      </trkpt>
      <trkpt lat="43.310160" lon="-6.176810">
        <ele>366.308</ele>
        <time>2020-05-21T03:10:10Z</time>
      </trkpt>
      <trkpt lat="43.310170" lon="-6.176740">
        <ele>366.429</ele>
        <time>2020-05-21T03:10:30Z</time>
      </trkpt>
      <trkpt lat="43.310180" lon="-6.176680">
        <ele>366.654</ele>
        <time>2020-05-21T03:10:50Z</time>
      </trkpt>
      <trkpt lat="43.310190" lon="-6.176640">
        <ele>366.731</ele>
        <time>2020-05-21T03:11:10Z</time>
      </trkpt>
      <trkpt lat="43.310200" lon="-6.176580">
        <ele>366.837</ele>
        <time>2020-05-21T03:11:30Z</time>
      </trkpt>
      <trkpt lat="43.310230" lon="-6.176480">
        <ele>367.286</ele>
        <time>2020-05-21T03:11:50Z</time>
      </trkpt>
      <trkpt lat="43.310260" lon="-6.176420">
        <ele>367.797</ele>
        <time>2020-05-21T03:12:10Z</time>
      </trkpt>
      <trkpt lat="43.310280" lon="-6.176360">
        <ele>368.336</ele>
        <time>2020-05-21T03:12:30Z</time>
      </trkpt>
      <trkpt lat="43.310300" lon="-6.176230">
        <ele>370.269</ele>
        <time>2020-05-21T03:12:50Z</time>
      </trkpt>
      <trkpt lat="43.310300" lon="-6.176180">
        <ele>370.895</ele>
        <time>2020-05-21T03:13:10Z</time>
      </trkpt>
      <trkpt lat="43.310300" lon="-6.176080">
        <ele>372.249</ele>
        <time>2020-05-21T03:13:30Z</time>
      </trkpt>
      <trkpt lat="43.310290" lon="-6.175950">
        <ele>374.823</ele>
        <time>2020-05-21T03:13:50Z</time>
      </trkpt>
      <trkpt lat="43.310280" lon="-6.175840">
        <ele>376.908</ele>
        <time>2020-05-21T03:14:10Z</time>
      </trkpt>
      <trkpt lat="43.310240" lon="-6.175730">
        <ele>377.513</ele>
        <time>2020-05-21T03:14:30Z</time>
      </trkpt>
      <trkpt lat="43.310230" lon="-6.175700">
        <ele>377.728</ele>
        <time>2020-05-21T03:14:50Z</time>
      </trkpt>
      <trkpt lat="43.310200" lon="-6.175630">
        <ele>377.915</ele>
        <time>2020-05-21T03:15:10Z</time>
      </trkpt>
      <trkpt lat="43.310150" lon="-6.175550">
        <ele>377.681</ele>
        <time>2020-05-21T03:15:30Z</time>
      </trkpt>
      <trkpt lat="43.310110" lon="-6.175520">
        <ele>377.010</ele>
        <time>2020-05-21T03:15:50Z</time>
      </trkpt>
      <trkpt lat="43.310100" lon="-6.175510">
        <ele>377.071</ele>
        <time>2020-05-21T03:16:10Z</time>
      </trkpt>
      <trkpt lat="43.310040" lon="-6.175480">
        <ele>375.780</ele>
        <time>2020-05-21T03:16:30Z</time>
      </trkpt>
      <trkpt lat="43.309950" lon="-6.175430">
        <ele>374.823</ele>
        <time>2020-05-21T03:16:50Z</time>
      </trkpt>
      <trkpt lat="43.309840" lon="-6.175350">
        <ele>374.914</ele>
        <time>2020-05-21T03:17:10Z</time>
      </trkpt>
      <trkpt lat="43.309730" lon="-6.175320">
        <ele>373.454</ele>
        <time>2020-05-21T03:17:30Z</time>
      </trkpt>
      <trkpt lat="43.309550" lon="-6.175280">
        <ele>373.409</ele>
        <time>2020-05-21T03:17:50Z</time>
      </trkpt>
      <trkpt lat="43.309430" lon="-6.175270">
        <ele>373.508</ele>
        <time>2020-05-21T03:18:10Z</time>
      </trkpt>
      <trkpt lat="43.309350" lon="-6.175290">
        <ele>374.695</ele>
        <time>2020-05-21T03:18:30Z</time>
      </trkpt>
      <trkpt lat="43.309250" lon="-6.175330">
        <ele>375.810</ele>
        <time>2020-05-21T03:18:50Z</time>
      </trkpt>
      <trkpt lat="43.309120" lon="-6.175400">
        <ele>377.857</ele>
        <time>2020-05-21T03:19:10Z</time>
      </trkpt>
      <trkpt lat="43.309080" lon="-6.175420">
        <ele>378.763</ele>
        <time>2020-05-21T03:19:30Z</time>
      </trkpt>
      <trkpt lat="43.308920" lon="-6.175530">
        <ele>380.922</ele>
        <time>2020-05-21T03:19:50Z</time>
      </trkpt>
      <trkpt lat="43.308760" lon="-6.175640">
        <ele>380.753</ele>
        <time>2020-05-21T03:20:10Z</time>
      </trkpt>
      <trkpt lat="43.308530" lon="-6.175790">
        <ele>380.172</ele>
        <time>2020-05-21T03:20:30Z</time>
      </trkpt>
      <trkpt lat="43.308460" lon="-6.175830">
        <ele>380.285</ele>
        <time>2020-05-21T03:20:50Z</time>
      </trkpt>
      <trkpt lat="43.308410" lon="-6.175840">
        <ele>380.973</ele>
        <time>2020-05-21T03:21:10Z</time>
      </trkpt>
      <trkpt lat="43.308340" lon="-6.175840">
        <ele>381.985</ele>
        <time>2020-05-21T03:21:30Z</time>
      </trkpt>
      <trkpt lat="43.308260" lon="-6.175870">
        <ele>383.013</ele>
        <time>2020-05-21T03:21:50Z</time>
      </trkpt>
      <trkpt lat="43.308200" lon="-6.175890">
        <ele>383.708</ele>
        <time>2020-05-21T03:22:10Z</time>
      </trkpt>
      <trkpt lat="43.308090" lon="-6.175960">
        <ele>384.371</ele>
        <time>2020-05-21T03:22:30Z</time>
      </trkpt>
      <trkpt lat="43.308070" lon="-6.175970">
        <ele>384.426</ele>
        <time>2020-05-21T03:22:50Z</time>
      </trkpt>
      <trkpt lat="43.308010" lon="-6.176040">
        <ele>384.813</ele>
        <time>2020-05-21T03:23:10Z</time>
      </trkpt>
      <trkpt lat="43.307990" lon="-6.176070">
        <ele>384.859</ele>
        <time>2020-05-21T03:23:30Z</time>
      </trkpt>
      <trkpt lat="43.307990" lon="-6.176130">
        <ele>383.918</ele>
        <time>2020-05-21T03:23:50Z</time>
      </trkpt>
      <trkpt lat="43.307970" lon="-6.176210">
        <ele>384.549</ele>
        <time>2020-05-21T03:24:10Z</time>
      </trkpt>
      <trkpt lat="43.307930" lon="-6.176280">
        <ele>385.258</ele>
        <time>2020-05-21T03:24:30Z</time>
      </trkpt>
      <trkpt lat="43.307880" lon="-6.176350">
        <ele>385.581</ele>
        <time>2020-05-21T03:24:50Z</time>
      </trkpt>
      <trkpt lat="43.307820" lon="-6.176420">
        <ele>386.542</ele>
        <time>2020-05-21T03:25:10Z</time>
      </trkpt>
      <trkpt lat="43.307770" lon="-6.176450">
        <ele>387.722</ele>
        <time>2020-05-21T03:25:30Z</time>
      </trkpt>
      <trkpt lat="43.307730" lon="-6.176450">
        <ele>388.314</ele>
        <time>2020-05-21T03:25:50Z</time>
      </trkpt>
      <trkpt lat="43.307550" lon="-6.176410">
        <ele>391.108</ele>
        <time>2020-05-21T03:26:10Z</time>
      </trkpt>
      <trkpt lat="43.307380" lon="-6.176370">
        <ele>391.888</ele>
        <time>2020-05-21T03:26:30Z</time>
      </trkpt>
      <trkpt lat="43.307360" lon="-6.176370">
        <ele>391.753</ele>
        <time>2020-05-21T03:26:50Z</time>
      </trkpt>
      <trkpt lat="43.307200" lon="-6.176310">
        <ele>391.660</ele>
        <time>2020-05-21T03:27:10Z</time>
      </trkpt>
      <trkpt lat="43.307100" lon="-6.176280">
        <ele>391.766</ele>
        <time>2020-05-21T03:27:30Z</time>
      </trkpt>
      <trkpt lat="43.307030" lon="-6.176260">
        <ele>391.715</ele>
        <time>2020-05-21T03:27:50Z</time>
      </trkpt>
      <trkpt lat="43.307030" lon="-6.176250">
        <ele>391.726</ele>
        <time>2020-05-21T03:28:10Z</time>
      </trkpt>
      <trkpt lat="43.306970" lon="-6.176240">
        <ele>391.595</ele>
        <time>2020-05-21T03:28:30Z</time>
      </trkpt>
      <trkpt lat="43.306910" lon="-6.176240">
        <ele>391.578</ele>
        <time>2020-05-21T03:28:50Z</time>
      </trkpt>
      <trkpt lat="43.306870" lon="-6.176250">
        <ele>391.539</ele>
        <time>2020-05-21T03:29:10Z</time>
      </trkpt>
      <trkpt lat="43.306850" lon="-6.176250">
        <ele>391.501</ele>
        <time>2020-05-21T03:29:30Z</time>
      </trkpt>
      <trkpt lat="43.306810" lon="-6.176270">
        <ele>391.621</ele>
        <time>2020-05-21T03:29:50Z</time>
      </trkpt>
      <trkpt lat="43.306780" lon="-6.176270">
        <ele>391.608</ele>
        <time>2020-05-21T03:30:10Z</time>
      </trkpt>
      <trkpt lat="43.306710" lon="-6.176260">
        <ele>391.567</ele>
        <time>2020-05-21T03:30:30Z</time>
      </trkpt>
      <trkpt lat="43.306680" lon="-6.176260">
        <ele>391.512</ele>
        <time>2020-05-21T03:30:50Z</time>
      </trkpt>
      <trkpt lat="43.306640" lon="-6.176250">
        <ele>391.349</ele>
        <time>2020-05-21T03:31:10Z</time>
      </trkpt>
      <trkpt lat="43.306570" lon="-6.176210">
        <ele>390.285</ele>
        <time>2020-05-21T03:31:30Z</time>
      </trkpt>
      <trkpt lat="43.306520" lon="-6.176180">
        <ele>389.374</ele>
        <time>2020-05-21T03:31:50Z</time>
      </trkpt>
      <trkpt lat="43.306500" lon="-6.176180">
        <ele>389.065</ele>
        <time>2020-05-21T03:32:10Z</time>
      </trkpt>
      <trkpt lat="43.306480" lon="-6.176180">
        <ele>388.724</ele>
        <time>2020-05-21T03:32:30Z</time>
      </trkpt>
      <trkpt lat="43.306430" lon="-6.176180">
        <ele>388.017</ele>
        <time>2020-05-21T03:32:50Z</time>
      </trkpt>
      <trkpt lat="43.306390" lon="-6.176190">
        <ele>387.763</ele>
        <time>2020-05-21T03:33:10Z</time>
      </trkpt>
      <trkpt lat="43.306330" lon="-6.176210">
        <ele>388.244</ele>
        <time>2020-05-21T03:33:30Z</time>
      </trkpt>
      <trkpt lat="43.306250" lon="-6.176260">
        <ele>388.818</ele>
        <time>2020-05-21T03:33:50Z</time>
      </trkpt>
      <trkpt lat="43.306210" lon="-6.176310">
        <ele>389.008</ele>
        <time>2020-05-21T03:34:10Z</time>
      </trkpt>
      <trkpt lat="43.306150" lon="-6.176410">
        <ele>389.170</ele>
        <time>2020-05-21T03:34:30Z</time>
      </trkpt>
      <trkpt lat="43.306080" lon="-6.176590">
        <ele>392.845</ele>
        <time>2020-05-21T03:34:50Z</time>
      </trkpt>
      <trkpt lat="43.306040" lon="-6.176750">
        <ele>396.252</ele>
        <time>2020-05-21T03:35:10Z</time>
      </trkpt>
      <trkpt lat="43.306020" lon="-6.176800">
        <ele>397.218</ele>
        <time>2020-05-21T03:35:30Z</time>
      </trkpt>
      <trkpt lat="43.305960" lon="-6.177010">
        <ele>401.217</ele>
        <time>2020-05-21T03:35:50Z</time>
      </trkpt>
      <trkpt lat="43.305920" lon="-6.177100">
        <ele>402.278</ele>
        <time>2020-05-21T03:36:10Z</time>
      </trkpt>
      <trkpt lat="43.305916" lon="-6.177099">
        <ele>402.167</ele>
        <time>2020-05-21T03:36:30Z</time>
      </trkpt>
      <trkpt lat="43.305900" lon="-6.177150">
        <ele>402.930</ele>
        <time>2020-05-21T03:36:50Z</time>
      </trkpt>
      <trkpt lat="43.305880" lon="-6.177230">
        <ele>404.258</ele>
        <time>2020-05-21T03:37:10Z</time>
      </trkpt>
      <trkpt lat="43.305840" lon="-6.177340">
        <ele>405.352</ele>
        <time>2020-05-21T03:37:30Z</time>
      </trkpt>
      <trkpt lat="43.305820" lon="-6.177370">
        <ele>405.417</ele>
        <time>2020-05-21T03:37:50Z</time>
      </trkpt>
      <trkpt lat="43.305710" lon="-6.177560">
        <ele>406.808</ele>
        <time>2020-05-21T03:38:10Z</time>
      </trkpt>
      <trkpt lat="43.305710" lon="-6.177570">
        <ele>407.129</ele>
        <time>2020-05-21T03:38:30Z</time>
      </trkpt>
      <trkpt lat="43.305640" lon="-6.177640">
        <ele>407.494</ele>
        <time>2020-05-21T03:38:50Z</time>
      </trkpt>
      <trkpt lat="43.305560" lon="-6.177700">
        <ele>407.151</ele>
        <time>2020-05-21T03:39:10Z</time>
      </trkpt>
      <trkpt lat="43.305480" lon="-6.177740">
        <ele>406.787</ele>
        <time>2020-05-21T03:39:30Z</time>
      </trkpt>
      <trkpt lat="43.305420" lon="-6.177740">
        <ele>405.666</ele>
        <time>2020-05-21T03:39:50Z</time>
      </trkpt>
      <trkpt lat="43.305390" lon="-6.177750">
        <ele>405.387</ele>
        <time>2020-05-21T03:40:10Z</time>
      </trkpt>
      <trkpt lat="43.305260" lon="-6.177760">
        <ele>403.416</ele>
        <time>2020-05-21T03:40:30Z</time>
      </trkpt>
      <trkpt lat="43.305210" lon="-6.177770">
        <ele>403.199</ele>
        <time>2020-05-21T03:40:50Z</time>
      </trkpt>
      <trkpt lat="43.305070" lon="-6.177780">
        <ele>401.823</ele>
        <time>2020-05-21T03:41:10Z</time>
      </trkpt>
      <trkpt lat="43.304970" lon="-6.177810">
        <ele>401.983</ele>
        <time>2020-05-21T03:41:30Z</time>
      </trkpt>
      <trkpt lat="43.304890" lon="-6.177860">
        <ele>403.111</ele>
        <time>2020-05-21T03:41:50Z</time>
      </trkpt>
      <trkpt lat="43.304790" lon="-6.177950">
        <ele>405.008</ele>
        <time>2020-05-21T03:42:10Z</time>
      </trkpt>
      <trkpt lat="43.304700" lon="-6.178030">
        <ele>406.586</ele>
        <time>2020-05-21T03:42:30Z</time>
      </trkpt>
      <trkpt lat="43.304650" lon="-6.178060">
        <ele>407.121</ele>
        <time>2020-05-21T03:42:50Z</time>
      </trkpt>
      <trkpt lat="43.304540" lon="-6.178110">
        <ele>408.588</ele>
        <time>2020-05-21T03:43:10Z</time>
      </trkpt>
      <trkpt lat="43.304420" lon="-6.178140">
        <ele>409.064</ele>
        <time>2020-05-21T03:43:30Z</time>
      </trkpt>
      <trkpt lat="43.304360" lon="-6.178160">
        <ele>409.183</ele>
        <time>2020-05-21T03:43:50Z</time>
      </trkpt>
      <trkpt lat="43.304300" lon="-6.178180">
        <ele>409.114</ele>
        <time>2020-05-21T03:44:10Z</time>
      </trkpt>
      <trkpt lat="43.304210" lon="-6.178250">
        <ele>409.983</ele>
        <time>2020-05-21T03:44:30Z</time>
      </trkpt>
      <trkpt lat="43.304140" lon="-6.178320">
        <ele>410.226</ele>
        <time>2020-05-21T03:44:50Z</time>
      </trkpt>
      <trkpt lat="43.304040" lon="-6.178480">
        <ele>412.036</ele>
        <time>2020-05-21T03:45:10Z</time>
      </trkpt>
      <trkpt lat="43.303970" lon="-6.178590">
        <ele>413.217</ele>
        <time>2020-05-21T03:45:30Z</time>
      </trkpt>
      <trkpt lat="43.303960" lon="-6.178610">
        <ele>413.518</ele>
        <time>2020-05-21T03:45:50Z</time>
      </trkpt>
      <trkpt lat="43.303920" lon="-6.178680">
        <ele>413.908</ele>
        <time>2020-05-21T03:46:10Z</time>
      </trkpt>
      <trkpt lat="43.303890" lon="-6.178720">
        <ele>414.017</ele>
        <time>2020-05-21T03:46:30Z</time>
      </trkpt>
      <trkpt lat="43.303830" lon="-6.178770">
        <ele>414.162</ele>
        <time>2020-05-21T03:46:50Z</time>
      </trkpt>
      <trkpt lat="43.303820" lon="-6.178770">
        <ele>414.089</ele>
        <time>2020-05-21T03:47:10Z</time>
      </trkpt>
      <trkpt lat="43.303760" lon="-6.178820">
        <ele>414.025</ele>
        <time>2020-05-21T03:47:30Z</time>
      </trkpt>
      <trkpt lat="43.303690" lon="-6.178850">
        <ele>413.534</ele>
        <time>2020-05-21T03:47:50Z</time>
      </trkpt>
      <trkpt lat="43.303660" lon="-6.178860">
        <ele>413.375</ele>
        <time>2020-05-21T03:48:10Z</time>
      </trkpt>
      <trkpt lat="43.303640" lon="-6.178860">
        <ele>413.034</ele>
        <time>2020-05-21T03:48:30Z</time>
      </trkpt>
      <trkpt lat="43.303580" lon="-6.178860">
        <ele>412.617</ele>
        <time>2020-05-21T03:48:50Z</time>
      </trkpt>
      <trkpt lat="43.303500" lon="-6.178860">
        <ele>412.551</ele>
        <time>2020-05-21T03:49:10Z</time>
      </trkpt>
      <trkpt lat="43.303430" lon="-6.178850">
        <ele>412.301</ele>
        <time>2020-05-21T03:49:30Z</time>
      </trkpt>
      <trkpt lat="43.303370" lon="-6.178850">
        <ele>412.211</ele>
        <time>2020-05-21T03:49:50Z</time>
      </trkpt>
      <trkpt lat="43.303300" lon="-6.178860">
        <ele>412.208</ele>
        <time>2020-05-21T03:50:10Z</time>
      </trkpt>
      <trkpt lat="43.303250" lon="-6.178880">
        <ele>412.249</ele>
        <time>2020-05-21T03:50:30Z</time>
      </trkpt>
      <trkpt lat="43.303180" lon="-6.178930">
        <ele>412.674</ele>
        <time>2020-05-21T03:50:50Z</time>
      </trkpt>
      <trkpt lat="43.303140" lon="-6.178970">
        <ele>413.081</ele>
        <time>2020-05-21T03:51:10Z</time>
      </trkpt>
      <trkpt lat="43.302920" lon="-6.179190">
        <ele>416.977</ele>
        <time>2020-05-21T03:51:30Z</time>
      </trkpt>
      <trkpt lat="43.302850" lon="-6.179270">
        <ele>418.396</ele>
        <time>2020-05-21T03:51:50Z</time>
      </trkpt>
      <trkpt lat="43.302760" lon="-6.179360">
        <ele>419.977</ele>
        <time>2020-05-21T03:52:10Z</time>
      </trkpt>
      <trkpt lat="43.302720" lon="-6.179440">
        <ele>421.126</ele>
        <time>2020-05-21T03:52:30Z</time>
      </trkpt>
      <trkpt lat="43.302700" lon="-6.179470">
        <ele>421.629</ele>
        <time>2020-05-21T03:52:50Z</time>
      </trkpt>
      <trkpt lat="43.302670" lon="-6.179560">
        <ele>422.675</ele>
        <time>2020-05-21T03:53:10Z</time>
      </trkpt>
      <trkpt lat="43.302660" lon="-6.179630">
        <ele>423.428</ele>
        <time>2020-05-21T03:53:30Z</time>
      </trkpt>
      <trkpt lat="43.302660" lon="-6.179660">
        <ele>423.820</ele>
        <time>2020-05-21T03:53:50Z</time>
      </trkpt>
      <trkpt lat="43.302660" lon="-6.179740">
        <ele>424.708</ele>
        <time>2020-05-21T03:54:10Z</time>
      </trkpt>
      <trkpt lat="43.302660" lon="-6.179870">
        <ele>426.391</ele>
        <time>2020-05-21T03:54:30Z</time>
      </trkpt>
      <trkpt lat="43.302650" lon="-6.180010">
        <ele>428.226</ele>
        <time>2020-05-21T03:54:50Z</time>
      </trkpt>
      <trkpt lat="43.302630" lon="-6.180140">
        <ele>430.533</ele>
        <time>2020-05-21T03:55:10Z</time>
      </trkpt>
      <trkpt lat="43.302620" lon="-6.180150">
        <ele>430.659</ele>
        <time>2020-05-21T03:55:30Z</time>
      </trkpt>
      <trkpt lat="43.302610" lon="-6.180190">
        <ele>431.368</ele>
        <time>2020-05-21T03:55:50Z</time>
      </trkpt>
      <trkpt lat="43.302570" lon="-6.180220">
        <ele>431.659</ele>
        <time>2020-05-21T03:56:10Z</time>
      </trkpt>
      <trkpt lat="43.302520" lon="-6.180260">
        <ele>431.948</ele>
        <time>2020-05-21T03:56:30Z</time>
      </trkpt>
      <trkpt lat="43.302470" lon="-6.180280">
        <ele>431.881</ele>
        <time>2020-05-21T03:56:50Z</time>
      </trkpt>
      <trkpt lat="43.302460" lon="-6.180290">
        <ele>431.964</ele>
        <time>2020-05-21T03:57:10Z</time>
      </trkpt>
      <trkpt lat="43.302410" lon="-6.180320">
        <ele>432.006</ele>
        <time>2020-05-21T03:57:30Z</time>
      </trkpt>
      <trkpt lat="43.302350" lon="-6.180350">
        <ele>432.016</ele>
        <time>2020-05-21T03:57:50Z</time>
      </trkpt>
      <trkpt lat="43.302310" lon="-6.180390">
        <ele>432.208</ele>
        <time>2020-05-21T03:58:10Z</time>
      </trkpt>
      <trkpt lat="43.302300" lon="-6.180400">
        <ele>432.330</ele>
        <time>2020-05-21T03:58:30Z</time>
      </trkpt>
      <trkpt lat="43.302250" lon="-6.180460">
        <ele>432.865</ele>
        <time>2020-05-21T03:58:50Z</time>
      </trkpt>
      <trkpt lat="43.302180" lon="-6.180560">
        <ele>433.712</ele>
        <time>2020-05-21T03:59:10Z</time>
      </trkpt>
      <trkpt lat="43.302060" lon="-6.180740">
        <ele>434.248</ele>
        <time>2020-05-21T03:59:30Z</time>
      </trkpt>
      <trkpt lat="43.302030" lon="-6.180760">
        <ele>434.137</ele>
        <time>2020-05-21T03:59:50Z</time>
      </trkpt>
      <trkpt lat="43.301930" lon="-6.180920">
        <ele>434.998</ele>
        <time>2020-05-21T04:00:10Z</time>
      </trkpt>
      <trkpt lat="43.301810" lon="-6.181100">
        <ele>435.977</ele>
        <time>2020-05-21T04:00:30Z</time>
      </trkpt>
      <trkpt lat="43.301780" lon="-6.181140">
        <ele>436.170</ele>
        <time>2020-05-21T04:00:50Z</time>
      </trkpt>
      <trkpt lat="43.301650" lon="-6.181410">
        <ele>438.212</ele>
        <time>2020-05-21T04:01:10Z</time>
      </trkpt>
      <trkpt lat="43.301580" lon="-6.181540">
        <ele>439.532</ele>
        <time>2020-05-21T04:01:30Z</time>
      </trkpt>
      <trkpt lat="43.301560" lon="-6.181630">
        <ele>440.405</ele>
        <time>2020-05-21T04:01:50Z</time>
      </trkpt>
      <trkpt lat="43.301550" lon="-6.181730">
        <ele>441.608</ele>
        <time>2020-05-21T04:02:10Z</time>
      </trkpt>
      <trkpt lat="43.301520" lon="-6.181970">
        <ele>444.185</ele>
        <time>2020-05-21T04:02:30Z</time>
      </trkpt>
      <trkpt lat="43.301520" lon="-6.181980">
        <ele>444.250</ele>
        <time>2020-05-21T04:02:50Z</time>
      </trkpt>
      <trkpt lat="43.301510" lon="-6.182220">
        <ele>446.247</ele>
        <time>2020-05-21T04:03:10Z</time>
      </trkpt>
      <trkpt lat="43.301500" lon="-6.182390">
        <ele>447.643</ele>
        <time>2020-05-21T04:03:30Z</time>
      </trkpt>
      <trkpt lat="43.301500" lon="-6.182470">
        <ele>448.382</ele>
        <time>2020-05-21T04:03:50Z</time>
      </trkpt>
      <trkpt lat="43.301500" lon="-6.182610">
        <ele>449.963</ele>
        <time>2020-05-21T04:04:10Z</time>
      </trkpt>
      <trkpt lat="43.301490" lon="-6.182710">
        <ele>450.912</ele>
        <time>2020-05-21T04:04:30Z</time>
      </trkpt>
      <trkpt lat="43.301470" lon="-6.182820">
        <ele>452.025</ele>
        <time>2020-05-21T04:04:50Z</time>
      </trkpt>
      <trkpt lat="43.301450" lon="-6.182960">
        <ele>453.334</ele>
        <time>2020-05-21T04:05:10Z</time>
      </trkpt>
      <trkpt lat="43.301440" lon="-6.183080">
        <ele>454.355</ele>
        <time>2020-05-21T04:05:30Z</time>
      </trkpt>
      <trkpt lat="43.301410" lon="-6.183200">
        <ele>454.710</ele>
        <time>2020-05-21T04:05:50Z</time>
      </trkpt>
      <trkpt lat="43.301370" lon="-6.183370">
        <ele>455.108</ele>
        <time>2020-05-21T04:06:10Z</time>
      </trkpt>
      <trkpt lat="43.301350" lon="-6.183430">
        <ele>455.437</ele>
        <time>2020-05-21T04:06:30Z</time>
      </trkpt>
      <trkpt lat="43.301280" lon="-6.183660">
        <ele>456.982</ele>
        <time>2020-05-21T04:06:50Z</time>
      </trkpt>
      <trkpt lat="43.301280" lon="-6.183680">
        <ele>457.159</ele>
        <time>2020-05-21T04:07:10Z</time>
      </trkpt>
      <trkpt lat="43.301190" lon="-6.183960">
        <ele>460.235</ele>
        <time>2020-05-21T04:07:30Z</time>
      </trkpt>
      <trkpt lat="43.301150" lon="-6.184120">
        <ele>461.534</ele>
        <time>2020-05-21T04:07:50Z</time>
      </trkpt>
      <trkpt lat="43.301151" lon="-6.184118">
        <ele>461.575</ele>
        <time>2020-05-21T04:08:10Z</time>
      </trkpt>
      <trkpt lat="43.301200" lon="-6.184110">
        <ele>461.314</ele>
        <time>2020-05-21T04:08:30Z</time>
      </trkpt>
      <trkpt lat="43.301260" lon="-6.184100">
        <ele>461.067</ele>
        <time>2020-05-21T04:08:50Z</time>
      </trkpt>
      <trkpt lat="43.301310" lon="-6.184080">
        <ele>460.746</ele>
        <time>2020-05-21T04:09:10Z</time>
      </trkpt>
      <trkpt lat="43.301350" lon="-6.184040">
        <ele>460.288</ele>
        <time>2020-05-21T04:09:30Z</time>
      </trkpt>
      <trkpt lat="43.301410" lon="-6.183950">
        <ele>459.716</ele>
        <time>2020-05-21T04:09:50Z</time>
      </trkpt>
      <trkpt lat="43.301500" lon="-6.183800">
        <ele>459.208</ele>
        <time>2020-05-21T04:10:10Z</time>
      </trkpt>
      <trkpt lat="43.301610" lon="-6.183630">
        <ele>458.688</ele>
        <time>2020-05-21T04:10:30Z</time>
      </trkpt>
      <trkpt lat="43.301710" lon="-6.183480">
        <ele>459.153</ele>
        <time>2020-05-21T04:10:50Z</time>
      </trkpt>
      <trkpt lat="43.301810" lon="-6.183340">
        <ele>459.630</ele>
        <time>2020-05-21T04:11:10Z</time>
      </trkpt>
      <trkpt lat="43.301870" lon="-6.183290">
        <ele>460.056</ele>
        <time>2020-05-21T04:11:30Z</time>
      </trkpt>
      <trkpt lat="43.301910" lon="-6.183250">
        <ele>460.375</ele>
        <time>2020-05-21T04:11:50Z</time>
      </trkpt>
      <trkpt lat="43.302010" lon="-6.183200">
        <ele>461.266</ele>
        <time>2020-05-21T04:12:10Z</time>
      </trkpt>
      <trkpt lat="43.302150" lon="-6.183160">
        <ele>462.645</ele>
        <time>2020-05-21T04:12:30Z</time>
      </trkpt>
      <trkpt lat="43.302210" lon="-6.183140">
        <ele>463.228</ele>
        <time>2020-05-21T04:12:50Z</time>
      </trkpt>
      <trkpt lat="43.302370" lon="-6.183100">
        <ele>465.469</ele>
        <time>2020-05-21T04:13:10Z</time>
      </trkpt>
      <trkpt lat="43.302680" lon="-6.183020">
        <ele>468.204</ele>
        <time>2020-05-21T04:13:30Z</time>
      </trkpt>
      <trkpt lat="43.302820" lon="-6.182990">
        <ele>469.124</ele>
        <time>2020-05-21T04:13:50Z</time>
      </trkpt>
      <trkpt lat="43.302890" lon="-6.182980">
        <ele>469.208</ele>
        <time>2020-05-21T04:14:10Z</time>
      </trkpt>
      <trkpt lat="43.302920" lon="-6.182970">
        <ele>469.260</ele>
        <time>2020-05-21T04:14:30Z</time>
      </trkpt>
      <trkpt lat="43.302970" lon="-6.182930">
        <ele>469.165</ele>
        <time>2020-05-21T04:14:50Z</time>
      </trkpt>
      <trkpt lat="43.303140" lon="-6.182780">
        <ele>468.652</ele>
        <time>2020-05-21T04:15:10Z</time>
      </trkpt>
      <trkpt lat="43.303290" lon="-6.182700">
        <ele>469.238</ele>
        <time>2020-05-21T04:15:30Z</time>
      </trkpt>
      <trkpt lat="43.303380" lon="-6.182680">
        <ele>469.417</ele>
        <time>2020-05-21T04:15:50Z</time>
      </trkpt>
      <trkpt lat="43.303470" lon="-6.182660">
        <ele>469.418</ele>
        <time>2020-05-21T04:16:10Z</time>
      </trkpt>
      <trkpt lat="43.303580" lon="-6.182680">
        <ele>469.917</ele>
        <time>2020-05-21T04:16:30Z</time>
      </trkpt>
      <trkpt lat="43.303583" lon="-6.182681">
        <ele>469.970</ele>
        <time>2020-05-21T04:16:50Z</time>
      </trkpt>
      <trkpt lat="43.303570" lon="-6.182770">
        <ele>470.853</ele>
        <time>2020-05-21T04:17:10Z</time>
      </trkpt>
      <trkpt lat="43.303550" lon="-6.182890">
        <ele>471.504</ele>
        <time>2020-05-21T04:17:30Z</time>
      </trkpt>
      <trkpt lat="43.303530" lon="-6.182970">
        <ele>471.914</ele>
        <time>2020-05-21T04:17:50Z</time>
      </trkpt>
      <trkpt lat="43.303520" lon="-6.183020">
        <ele>472.108</ele>
        <time>2020-05-21T04:18:10Z</time>
      </trkpt>
      <trkpt lat="43.303440" lon="-6.183230">
        <ele>473.269</ele>
        <time>2020-05-21T04:18:30Z</time>
      </trkpt>
      <trkpt lat="43.303380" lon="-6.183400">
        <ele>474.734</ele>
        <time>2020-05-21T04:18:50Z</time>
      </trkpt>
      <trkpt lat="43.303350" lon="-6.183560">
        <ele>476.481</ele>
        <time>2020-05-21T04:19:10Z</time>
      </trkpt>
      <trkpt lat="43.303350" lon="-6.183660">
        <ele>477.357</ele>
        <time>2020-05-21T04:19:30Z</time>
      </trkpt>
      <trkpt lat="43.303350" lon="-6.183670">
        <ele>477.446</ele>
        <time>2020-05-21T04:19:50Z</time>
      </trkpt>
      <trkpt lat="43.303320" lon="-6.183900">
        <ele>479.057</ele>
        <time>2020-05-21T04:20:10Z</time>
      </trkpt>
      <trkpt lat="43.303300" lon="-6.184100">
        <ele>480.326</ele>
        <time>2020-05-21T04:20:30Z</time>
      </trkpt>
      <trkpt lat="43.303300" lon="-6.184130">
        <ele>480.589</ele>
        <time>2020-05-21T04:20:50Z</time>
      </trkpt>
      <trkpt lat="43.303290" lon="-6.184350">
        <ele>482.231</ele>
        <time>2020-05-21T04:21:10Z</time>
      </trkpt>
      <trkpt lat="43.303290" lon="-6.184470">
        <ele>483.261</ele>
        <time>2020-05-21T04:21:30Z</time>
      </trkpt>
      <trkpt lat="43.303310" lon="-6.184550">
        <ele>483.807</ele>
        <time>2020-05-21T04:21:50Z</time>
      </trkpt>
      <trkpt lat="43.303320" lon="-6.184580">
        <ele>484.008</ele>
        <time>2020-05-21T04:22:10Z</time>
      </trkpt>
      <trkpt lat="43.303360" lon="-6.184640">
        <ele>484.547</ele>
        <time>2020-05-21T04:22:30Z</time>
      </trkpt>
      <trkpt lat="43.303390" lon="-6.184690">
        <ele>484.922</ele>
        <time>2020-05-21T04:22:50Z</time>
      </trkpt>
      <trkpt lat="43.303420" lon="-6.184710">
        <ele>485.249</ele>
        <time>2020-05-21T04:23:10Z</time>
      </trkpt>
      <trkpt lat="43.303450" lon="-6.184730">
        <ele>485.555</ele>
        <time>2020-05-21T04:23:30Z</time>
      </trkpt>
      <trkpt lat="43.303480" lon="-6.184730">
        <ele>485.684</ele>
        <time>2020-05-21T04:23:50Z</time>
      </trkpt>
      <trkpt lat="43.303520" lon="-6.184740">
        <ele>485.855</ele>
        <time>2020-05-21T04:24:10Z</time>
      </trkpt>
      <trkpt lat="43.303560" lon="-6.184740">
        <ele>486.084</ele>
        <time>2020-05-21T04:24:30Z</time>
      </trkpt>
      <trkpt lat="43.303620" lon="-6.184720">
        <ele>486.067</ele>
        <time>2020-05-21T04:24:50Z</time>
      </trkpt>
      <trkpt lat="43.303720" lon="-6.184680">
        <ele>485.589</ele>
        <time>2020-05-21T04:25:10Z</time>
      </trkpt>
      <trkpt lat="43.303810" lon="-6.184640">
        <ele>485.106</ele>
        <time>2020-05-21T04:25:30Z</time>
      </trkpt>
      <trkpt lat="43.303940" lon="-6.184590">
        <ele>485.026</ele>
        <time>2020-05-21T04:25:50Z</time>
      </trkpt>
      <trkpt lat="43.303980" lon="-6.184570">
        <ele>485.208</ele>
        <time>2020-05-21T04:26:10Z</time>
      </trkpt>
      <trkpt lat="43.304150" lon="-6.184470">
        <ele>485.272</ele>
        <time>2020-05-21T04:26:30Z</time>
      </trkpt>
      <trkpt lat="43.304210" lon="-6.184440">
        <ele>485.417</ele>
        <time>2020-05-21T04:26:50Z</time>
      </trkpt>
      <trkpt lat="43.304212" lon="-6.184436">
        <ele>485.444</ele>
        <time>2020-05-21T04:27:10Z</time>
      </trkpt>
      <trkpt lat="43.304240" lon="-6.184530">
        <ele>487.020</ele>
        <time>2020-05-21T04:27:30Z</time>
      </trkpt>
      <trkpt lat="43.304270" lon="-6.184630">
        <ele>488.839</ele>
        <time>2020-05-21T04:27:50Z</time>
      </trkpt>
      <trkpt lat="43.304270" lon="-6.184650">
        <ele>489.160</ele>
        <time>2020-05-21T04:28:10Z</time>
      </trkpt>
      <trkpt lat="43.304280" lon="-6.184670">
        <ele>489.589</ele>
        <time>2020-05-21T04:28:30Z</time>
      </trkpt>
      <trkpt lat="43.304290" lon="-6.184690">
        <ele>489.942</ele>
        <time>2020-05-21T04:28:50Z</time>
      </trkpt>
      <trkpt lat="43.304300" lon="-6.184710">
        <ele>490.388</ele>
        <time>2020-05-21T04:29:10Z</time>
      </trkpt>
      <trkpt lat="43.304310" lon="-6.184730">
        <ele>490.724</ele>
        <time>2020-05-21T04:29:30Z</time>
      </trkpt>
      <trkpt lat="43.304330" lon="-6.184760">
        <ele>491.326</ele>
        <time>2020-05-21T04:29:50Z</time>
      </trkpt>
      <trkpt lat="43.304340" lon="-6.184790">
        <ele>491.808</ele>
        <time>2020-05-21T04:30:10Z</time>
      </trkpt>
      <trkpt lat="43.304350" lon="-6.184810">
        <ele>492.232</ele>
        <time>2020-05-21T04:30:30Z</time>
      </trkpt>
      <trkpt lat="43.304350" lon="-6.184850">
        <ele>492.817</ele>
        <time>2020-05-21T04:30:50Z</time>
      </trkpt>
      <trkpt lat="43.304353" lon="-6.184847">
        <ele>492.844</ele>
        <time>2020-05-21T04:31:10Z</time>
      </trkpt>
      <trkpt lat="43.304380" lon="-6.184850">
        <ele>493.180</ele>
        <time>2020-05-21T04:31:30Z</time>
      </trkpt>
      <trkpt lat="43.304390" lon="-6.184850">
        <ele>493.339</ele>
        <time>2020-05-21T04:31:50Z</time>
      </trkpt>
      <trkpt lat="43.304410" lon="-6.184850">
        <ele>493.570</ele>
        <time>2020-05-21T04:32:10Z</time>
      </trkpt>
      <trkpt lat="43.304440" lon="-6.184840">
        <ele>493.699</ele>
        <time>2020-05-21T04:32:30Z</time>
      </trkpt>
      <trkpt lat="43.304570" lon="-6.184730">
        <ele>493.092</ele>
        <time>2020-05-21T04:32:50Z</time>
      </trkpt>
      <trkpt lat="43.304590" lon="-6.184710">
        <ele>492.933</ele>
        <time>2020-05-21T04:33:10Z</time>
      </trkpt>
      <trkpt lat="43.304620" lon="-6.184680">
        <ele>492.723</ele>
        <time>2020-05-21T04:33:30Z</time>
      </trkpt>
      <trkpt lat="43.304880" lon="-6.184510">
        <ele>494.415</ele>
        <time>2020-05-21T04:33:50Z</time>
      </trkpt>
      <trkpt lat="43.304920" lon="-6.184480">
        <ele>494.808</ele>
        <time>2020-05-21T04:34:10Z</time>
      </trkpt>
      <trkpt lat="43.304930" lon="-6.184450">
        <ele>494.657</ele>
        <time>2020-05-21T04:34:30Z</time>
      </trkpt>
      <trkpt lat="43.304950" lon="-6.184410">
        <ele>494.422</ele>
        <time>2020-05-21T04:34:50Z</time>
      </trkpt>
      <trkpt lat="43.304970" lon="-6.184320">
        <ele>493.639</ele>
        <time>2020-05-21T04:35:10Z</time>
      </trkpt>
      <trkpt lat="43.304970" lon="-6.184260">
        <ele>492.795</ele>
        <time>2020-05-21T04:35:30Z</time>
      </trkpt>
      <trkpt lat="43.304972" lon="-6.184262">
        <ele>492.834</ele>
        <time>2020-05-21T04:35:50Z</time>
      </trkpt>
      <trkpt lat="43.305070" lon="-6.184260">
        <ele>495.155</ele>
        <time>2020-05-21T04:36:10Z</time>
      </trkpt>
      <trkpt lat="43.305140" lon="-6.184240">
        <ele>496.634</ele>
        <time>2020-05-21T04:36:30Z</time>
      </trkpt>
      <trkpt lat="43.305200" lon="-6.184220">
        <ele>497.857</ele>
        <time>2020-05-21T04:36:50Z</time>
      </trkpt>
      <trkpt lat="43.305350" lon="-6.184140">
        <ele>500.238</ele>
        <time>2020-05-21T04:37:10Z</time>
      </trkpt>
      <trkpt lat="43.305410" lon="-6.184100">
        <ele>500.870</ele>
        <time>2020-05-21T04:37:30Z</time>
      </trkpt>
      <trkpt lat="43.305580" lon="-6.184010">
        <ele>502.817</ele>
        <time>2020-05-21T04:37:50Z</time>
      </trkpt>
      <trkpt lat="43.305810" lon="-6.183880">
        <ele>507.008</ele>
        <time>2020-05-21T04:38:10Z</time>
      </trkpt>
      <trkpt lat="43.305910" lon="-6.183810">
        <ele>507.477</ele>
        <time>2020-05-21T04:38:30Z</time>
      </trkpt>
      <trkpt lat="43.305920" lon="-6.183810">
        <ele>507.682</ele>
        <time>2020-05-21T04:38:50Z</time>
      </trkpt>
      <trkpt lat="43.306000" lon="-6.183760">
        <ele>508.069</ele>
        <time>2020-05-21T04:39:10Z</time>
      </trkpt>
      <trkpt lat="43.306070" lon="-6.183690">
        <ele>507.525</ele>
        <time>2020-05-21T04:39:30Z</time>
      </trkpt>
      <trkpt lat="43.306240" lon="-6.183510">
        <ele>506.994</ele>
        <time>2020-05-21T04:39:50Z</time>
      </trkpt>
      <trkpt lat="43.306350" lon="-6.183420">
        <ele>507.145</ele>
        <time>2020-05-21T04:40:10Z</time>
      </trkpt>
      <trkpt lat="43.306360" lon="-6.183420">
        <ele>507.334</ele>
        <time>2020-05-21T04:40:30Z</time>
      </trkpt>
      <trkpt lat="43.306440" lon="-6.183390">
        <ele>509.317</ele>
        <time>2020-05-21T04:40:50Z</time>
      </trkpt>
      <trkpt lat="43.306540" lon="-6.183370">
        <ele>513.228</ele>
        <time>2020-05-21T04:41:10Z</time>
      </trkpt>
      <trkpt lat="43.306630" lon="-6.183380">
        <ele>517.589</ele>
        <time>2020-05-21T04:41:30Z</time>
      </trkpt>
      <trkpt lat="43.306710" lon="-6.183380">
        <ele>520.017</ele>
        <time>2020-05-21T04:41:50Z</time>
      </trkpt>
      <trkpt lat="43.306720" lon="-6.183380">
        <ele>520.208</ele>
        <time>2020-05-21T04:42:10Z</time>
      </trkpt>
      <trkpt lat="43.306810" lon="-6.183380">
        <ele>521.966</ele>
        <time>2020-05-21T04:42:30Z</time>
      </trkpt>
      <trkpt lat="43.306900" lon="-6.183370">
        <ele>523.341</ele>
        <time>2020-05-21T04:42:50Z</time>
      </trkpt>
      <trkpt lat="43.306990" lon="-6.183340">
        <ele>523.728</ele>
        <time>2020-05-21T04:43:10Z</time>
      </trkpt>
      <trkpt lat="43.307050" lon="-6.183310">
        <ele>523.354</ele>
        <time>2020-05-21T04:43:30Z</time>
      </trkpt>
      <trkpt lat="43.307070" lon="-6.183290">
        <ele>522.913</ele>
        <time>2020-05-21T04:43:50Z</time>
      </trkpt>
      <trkpt lat="43.307130" lon="-6.183250">
        <ele>522.274</ele>
        <time>2020-05-21T04:44:10Z</time>
      </trkpt>
      <trkpt lat="43.307200" lon="-6.183180">
        <ele>520.753</ele>
        <time>2020-05-21T04:44:30Z</time>
      </trkpt>
      <trkpt lat="43.307250" lon="-6.183110">
        <ele>518.816</ele>
        <time>2020-05-21T04:44:50Z</time>
      </trkpt>
      <trkpt lat="43.307300" lon="-6.183040">
        <ele>516.962</ele>
        <time>2020-05-21T04:45:10Z</time>
      </trkpt>
      <trkpt lat="43.307340" lon="-6.182970">
        <ele>515.583</ele>
        <time>2020-05-21T04:45:30Z</time>
      </trkpt>
      <trkpt lat="43.307350" lon="-6.182960">
        <ele>515.411</ele>
        <time>2020-05-21T04:45:50Z</time>
      </trkpt>
      <trkpt lat="43.307360" lon="-6.182940">
        <ele>515.008</ele>
        <time>2020-05-21T04:46:10Z</time>
      </trkpt>
      <trkpt lat="43.307370" lon="-6.182920">
        <ele>514.610</ele>
        <time>2020-05-21T04:46:30Z</time>
      </trkpt>
      <trkpt lat="43.307390" lon="-6.182910">
        <ele>514.635</ele>
        <time>2020-05-21T04:46:50Z</time>
      </trkpt>
      <trkpt lat="43.307420" lon="-6.182900">
        <ele>514.692</ele>
        <time>2020-05-21T04:47:10Z</time>
      </trkpt>
      <trkpt lat="43.307470" lon="-6.182910">
        <ele>515.278</ele>
        <time>2020-05-21T04:47:30Z</time>
      </trkpt>
      <trkpt lat="43.307500" lon="-6.182920">
        <ele>515.627</ele>
        <time>2020-05-21T04:47:50Z</time>
      </trkpt>
      <trkpt lat="43.307500" lon="-6.182930">
        <ele>515.798</ele>
        <time>2020-05-21T04:48:10Z</time>
      </trkpt>
      <trkpt lat="43.307540" lon="-6.182960">
        <ele>515.677</ele>
        <time>2020-05-21T04:48:30Z</time>
      </trkpt>
      <trkpt lat="43.307550" lon="-6.183010">
        <ele>516.290</ele>
        <time>2020-05-21T04:48:50Z</time>
      </trkpt>
      <trkpt lat="43.307570" lon="-6.183120">
        <ele>518.218</ele>
        <time>2020-05-21T04:49:10Z</time>
      </trkpt>
      <trkpt lat="43.307570" lon="-6.183140">
        <ele>518.798</ele>
        <time>2020-05-21T04:49:30Z</time>
      </trkpt>
      <trkpt lat="43.307570" lon="-6.183250">
        <ele>521.617</ele>
        <time>2020-05-21T04:49:50Z</time>
      </trkpt>
      <trkpt lat="43.307570" lon="-6.183380">
        <ele>524.608</ele>
        <time>2020-05-21T04:50:10Z</time>
      </trkpt>
      <trkpt lat="43.307570" lon="-6.183390">
        <ele>524.885</ele>
        <time>2020-05-21T04:50:30Z</time>
      </trkpt>
      <trkpt lat="43.307590" lon="-6.183580">
        <ele>527.540</ele>
        <time>2020-05-21T04:50:50Z</time>
      </trkpt>
      <trkpt lat="43.307630" lon="-6.183850">
        <ele>528.567</ele>
        <time>2020-05-21T04:51:10Z</time>
      </trkpt>
      <trkpt lat="43.307630" lon="-6.183870">
        <ele>528.693</ele>
        <time>2020-05-21T04:51:30Z</time>
      </trkpt>
      <trkpt lat="43.307660" lon="-6.184110">
        <ele>526.652</ele>
        <time>2020-05-21T04:51:50Z</time>
      </trkpt>
      <trkpt lat="43.307680" lon="-6.184300">
        <ele>524.653</ele>
        <time>2020-05-21T04:52:10Z</time>
      </trkpt>
      <trkpt lat="43.307670" lon="-6.184360">
        <ele>524.682</ele>
        <time>2020-05-21T04:52:30Z</time>
      </trkpt>
      <trkpt lat="43.307640" lon="-6.184590">
        <ele>525.255</ele>
        <time>2020-05-21T04:52:50Z</time>
      </trkpt>
      <trkpt lat="43.307640" lon="-6.184600">
        <ele>525.232</ele>
        <time>2020-05-21T04:53:10Z</time>
      </trkpt>
      <trkpt lat="43.307620" lon="-6.184810">
        <ele>526.192</ele>
        <time>2020-05-21T04:53:30Z</time>
      </trkpt>
      <trkpt lat="43.307620" lon="-6.184850">
        <ele>526.311</ele>
        <time>2020-05-21T04:53:50Z</time>
      </trkpt>
      <trkpt lat="43.307620" lon="-6.185090">
        <ele>527.808</ele>
        <time>2020-05-21T04:54:10Z</time>
      </trkpt>
      <trkpt lat="43.307620" lon="-6.185140">
        <ele>528.367</ele>
        <time>2020-05-21T04:54:30Z</time>
      </trkpt>
      <trkpt lat="43.307630" lon="-6.185480">
        <ele>532.632</ele>
        <time>2020-05-21T04:54:50Z</time>
      </trkpt>
      <trkpt lat="43.307650" lon="-6.185580">
        <ele>533.559</ele>
        <time>2020-05-21T04:55:10Z</time>
      </trkpt>
      <trkpt lat="43.307710" lon="-6.185820">
        <ele>535.235</ele>
        <time>2020-05-21T04:55:30Z</time>
      </trkpt>
      <trkpt lat="43.307730" lon="-6.185900">
        <ele>535.624</ele>
        <time>2020-05-21T04:55:50Z</time>
      </trkpt>
      <trkpt lat="43.307790" lon="-6.186030">
        <ele>535.485</ele>
        <time>2020-05-21T04:56:10Z</time>
      </trkpt>
      <trkpt lat="43.307830" lon="-6.186110">
        <ele>535.534</ele>
        <time>2020-05-21T04:56:30Z</time>
      </trkpt>
      <trkpt lat="43.307850" lon="-6.186150">
        <ele>535.827</ele>
        <time>2020-05-21T04:56:50Z</time>
      </trkpt>
      <trkpt lat="43.307880" lon="-6.186170">
        <ele>535.372</ele>
        <time>2020-05-21T04:57:10Z</time>
      </trkpt>
      <trkpt lat="43.307910" lon="-6.186180">
        <ele>534.713</ele>
        <time>2020-05-21T04:57:30Z</time>
      </trkpt>
      <trkpt lat="43.307940" lon="-6.186190">
        <ele>534.014</ele>
        <time>2020-05-21T04:57:50Z</time>
      </trkpt>
      <trkpt lat="43.307980" lon="-6.186200">
        <ele>533.108</ele>
        <time>2020-05-21T04:58:10Z</time>
      </trkpt>
      <trkpt lat="43.308060" lon="-6.186200">
        <ele>530.831</ele>
        <time>2020-05-21T04:58:30Z</time>
      </trkpt>
      <trkpt lat="43.308100" lon="-6.186200">
        <ele>529.626</ele>
        <time>2020-05-21T04:58:50Z</time>
      </trkpt>
      <trkpt lat="43.308140" lon="-6.186200">
        <ele>528.523</ele>
        <time>2020-05-21T04:59:10Z</time>
      </trkpt>
      <trkpt lat="43.308180" lon="-6.186220">
        <ele>527.819</ele>
        <time>2020-05-21T04:59:30Z</time>
      </trkpt>
      <trkpt lat="43.308220" lon="-6.186250">
        <ele>527.328</ele>
        <time>2020-05-21T04:59:50Z</time>
      </trkpt>
      <trkpt lat="43.308250" lon="-6.186280">
        <ele>527.079</ele>
        <time>2020-05-21T05:00:10Z</time>
      </trkpt>
      <trkpt lat="43.308320" lon="-6.186380">
        <ele>527.278</ele>
        <time>2020-05-21T05:00:30Z</time>
      </trkpt>
      <trkpt lat="43.308370" lon="-6.186460">
        <ele>527.161</ele>
        <time>2020-05-21T05:00:50Z</time>
      </trkpt>
      <trkpt lat="43.308380" lon="-6.186480">
        <ele>527.245</ele>
        <time>2020-05-21T05:01:10Z</time>
      </trkpt>
      <trkpt lat="43.308410" lon="-6.186560">
        <ele>527.647</ele>
        <time>2020-05-21T05:01:30Z</time>
      </trkpt>
      <trkpt lat="43.308450" lon="-6.186710">
        <ele>528.611</ele>
        <time>2020-05-21T05:01:50Z</time>
      </trkpt>
      <trkpt lat="43.308470" lon="-6.186780">
        <ele>528.908</ele>
        <time>2020-05-21T05:02:10Z</time>
      </trkpt>
      <trkpt lat="43.308500" lon="-6.186950">
        <ele>530.598</ele>
        <time>2020-05-21T05:02:30Z</time>
      </trkpt>
      <trkpt lat="43.308520" lon="-6.187060">
        <ele>531.353</ele>
        <time>2020-05-21T05:02:50Z</time>
      </trkpt>
      <trkpt lat="43.308550" lon="-6.187380">
        <ele>533.860</ele>
        <time>2020-05-21T05:03:10Z</time>
      </trkpt>
      <trkpt lat="43.308550" lon="-6.187430">
        <ele>534.316</ele>
        <time>2020-05-21T05:03:30Z</time>
      </trkpt>
      <trkpt lat="43.308570" lon="-6.187820">
        <ele>533.935</ele>
        <time>2020-05-21T05:03:50Z</time>
      </trkpt>
      <trkpt lat="43.308560" lon="-6.188130">
        <ele>532.216</ele>
        <time>2020-05-21T05:04:10Z</time>
      </trkpt>
      <trkpt lat="43.308560" lon="-6.188180">
        <ele>531.865</ele>
        <time>2020-05-21T05:04:30Z</time>
      </trkpt>
      <trkpt lat="43.308530" lon="-6.188410">
        <ele>531.958</ele>
        <time>2020-05-21T05:04:50Z</time>
      </trkpt>
      <trkpt lat="43.308530" lon="-6.188420">
        <ele>531.931</ele>
        <time>2020-05-21T05:05:10Z</time>
      </trkpt>
      <trkpt lat="43.308500" lon="-6.188660">
        <ele>532.961</ele>
        <time>2020-05-21T05:05:30Z</time>
      </trkpt>
      <trkpt lat="43.308490" lon="-6.188720">
        <ele>533.207</ele>
        <time>2020-05-21T05:05:50Z</time>
      </trkpt>
      <trkpt lat="43.308360" lon="-6.189080">
        <ele>535.408</ele>
        <time>2020-05-21T05:06:10Z</time>
      </trkpt>
      <trkpt lat="43.308230" lon="-6.189300">
        <ele>537.957</ele>
        <time>2020-05-21T05:06:30Z</time>
      </trkpt>
      <trkpt lat="43.307960" lon="-6.189750">
        <ele>545.932</ele>
        <time>2020-05-21T05:06:50Z</time>
      </trkpt>
      <trkpt lat="43.307790" lon="-6.190080">
        <ele>549.419</ele>
        <time>2020-05-21T05:07:10Z</time>
      </trkpt>
      <trkpt lat="43.307730" lon="-6.190190">
        <ele>549.875</ele>
        <time>2020-05-21T05:07:30Z</time>
      </trkpt>
      <trkpt lat="43.307690" lon="-6.190290">
        <ele>549.374</ele>
        <time>2020-05-21T05:07:50Z</time>
      </trkpt>
      <trkpt lat="43.307530" lon="-6.190730">
        <ele>546.495</ele>
        <time>2020-05-21T05:08:10Z</time>
      </trkpt>
      <trkpt lat="43.307400" lon="-6.191090">
        <ele>551.094</ele>
        <time>2020-05-21T05:08:30Z</time>
      </trkpt>
      <trkpt lat="43.307300" lon="-6.191400">
        <ele>552.497</ele>
        <time>2020-05-21T05:08:50Z</time>
      </trkpt>
      <trkpt lat="43.307230" lon="-6.191620">
        <ele>553.132</ele>
        <time>2020-05-21T05:09:10Z</time>
      </trkpt>
      <trkpt lat="43.307150" lon="-6.191850">
        <ele>555.292</ele>
        <time>2020-05-21T05:09:30Z</time>
      </trkpt>
      <trkpt lat="43.307000" lon="-6.192300">
        <ele>561.311</ele>
        <time>2020-05-21T05:09:50Z</time>
      </trkpt>
      <trkpt lat="43.306980" lon="-6.192380">
        <ele>561.208</ele>
        <time>2020-05-21T05:10:10Z</time>
      </trkpt>
      <trkpt lat="43.306940" lon="-6.192530">
        <ele>561.177</ele>
        <time>2020-05-21T05:10:30Z</time>
      </trkpt>
      <trkpt lat="43.306880" lon="-6.192810">
        <ele>564.132</ele>
        <time>2020-05-21T05:10:50Z</time>
      </trkpt>
      <trkpt lat="43.306770" lon="-6.193080">
        <ele>571.539</ele>
        <time>2020-05-21T05:11:10Z</time>
      </trkpt>
      <trkpt lat="43.306720" lon="-6.193210">
        <ele>572.945</ele>
        <time>2020-05-21T05:11:30Z</time>
      </trkpt>
      <trkpt lat="43.306680" lon="-6.193310">
        <ele>573.784</ele>
        <time>2020-05-21T05:11:50Z</time>
      </trkpt>
      <trkpt lat="43.306630" lon="-6.193420">
        <ele>575.315</ele>
        <time>2020-05-21T05:12:10Z</time>
      </trkpt>
      <trkpt lat="43.306590" lon="-6.193500">
        <ele>576.594</ele>
        <time>2020-05-21T05:12:30Z</time>
      </trkpt>
      <trkpt lat="43.306540" lon="-6.193650">
        <ele>577.397</ele>
        <time>2020-05-21T05:12:50Z</time>
      </trkpt>
      <trkpt lat="43.306510" lon="-6.193820">
        <ele>577.013</ele>
        <time>2020-05-21T05:13:10Z</time>
      </trkpt>
      <trkpt lat="43.306490" lon="-6.193940">
        <ele>577.243</ele>
        <time>2020-05-21T05:13:30Z</time>
      </trkpt>
      <trkpt lat="43.306440" lon="-6.194210">
        <ele>578.407</ele>
        <time>2020-05-21T05:13:50Z</time>
      </trkpt>
      <trkpt lat="43.306230" lon="-6.194750">
        <ele>584.508</ele>
        <time>2020-05-21T05:14:10Z</time>
      </trkpt>
      <trkpt lat="43.306130" lon="-6.194990">
        <ele>587.745</ele>
        <time>2020-05-21T05:14:30Z</time>
      </trkpt>
      <trkpt lat="43.306040" lon="-6.195210">
        <ele>591.040</ele>
        <time>2020-05-21T05:14:50Z</time>
      </trkpt>
      <trkpt lat="43.305960" lon="-6.195410">
        <ele>594.297</ele>
        <time>2020-05-21T05:15:10Z</time>
      </trkpt>
      <trkpt lat="43.305960" lon="-6.195430">
        <ele>594.393</ele>
        <time>2020-05-21T05:15:30Z</time>
      </trkpt>
      <trkpt lat="43.305820" lon="-6.195880">
        <ele>599.172</ele>
        <time>2020-05-21T05:15:50Z</time>
      </trkpt>
      <trkpt lat="43.305790" lon="-6.195950">
        <ele>599.463</ele>
        <time>2020-05-21T05:16:10Z</time>
      </trkpt>
      <trkpt lat="43.305730" lon="-6.196090">
        <ele>599.892</ele>
        <time>2020-05-21T05:16:30Z</time>
      </trkpt>
      <trkpt lat="43.305640" lon="-6.196290">
        <ele>599.985</ele>
        <time>2020-05-21T05:16:50Z</time>
      </trkpt>
      <trkpt lat="43.305570" lon="-6.196390">
        <ele>599.128</ele>
        <time>2020-05-21T05:17:10Z</time>
      </trkpt>
      <trkpt lat="43.305510" lon="-6.196470">
        <ele>599.689</ele>
        <time>2020-05-21T05:17:30Z</time>
      </trkpt>
      <trkpt lat="43.305500" lon="-6.196470">
        <ele>599.617</ele>
        <time>2020-05-21T05:17:50Z</time>
      </trkpt>
      <trkpt lat="43.305470" lon="-6.196500">
        <ele>599.908</ele>
        <time>2020-05-21T05:18:10Z</time>
      </trkpt>
      <trkpt lat="43.305410" lon="-6.196530">
        <ele>600.346</ele>
        <time>2020-05-21T05:18:30Z</time>
      </trkpt>
      <trkpt lat="43.305350" lon="-6.196570">
        <ele>600.611</ele>
        <time>2020-05-21T05:18:50Z</time>
      </trkpt>
      <trkpt lat="43.305340" lon="-6.196580">
        <ele>600.788</ele>
        <time>2020-05-21T05:19:10Z</time>
      </trkpt>
      <trkpt lat="43.305270" lon="-6.196630">
        <ele>601.244</ele>
        <time>2020-05-21T05:19:30Z</time>
      </trkpt>
      <trkpt lat="43.305090" lon="-6.196840">
        <ele>606.283</ele>
        <time>2020-05-21T05:19:50Z</time>
      </trkpt>
      <trkpt lat="43.304800" lon="-6.197290">
        <ele>615.074</ele>
        <time>2020-05-21T05:20:10Z</time>
      </trkpt>
      <trkpt lat="43.304650" lon="-6.197570">
        <ele>617.573</ele>
        <time>2020-05-21T05:20:30Z</time>
      </trkpt>
      <trkpt lat="43.304460" lon="-6.197980">
        <ele>617.416</ele>
        <time>2020-05-21T05:20:50Z</time>
      </trkpt>
      <trkpt lat="43.304370" lon="-6.198170">
        <ele>618.913</ele>
        <time>2020-05-21T05:21:10Z</time>
      </trkpt>
      <trkpt lat="43.304280" lon="-6.198330">
        <ele>620.643</ele>
        <time>2020-05-21T05:21:30Z</time>
      </trkpt>
      <trkpt lat="43.304200" lon="-6.198420">
        <ele>621.807</ele>
        <time>2020-05-21T05:21:50Z</time>
      </trkpt>
      <trkpt lat="43.304180" lon="-6.198440">
        <ele>622.008</ele>
        <time>2020-05-21T05:22:10Z</time>
      </trkpt>
      <trkpt lat="43.304090" lon="-6.198530">
        <ele>623.495</ele>
        <time>2020-05-21T05:22:30Z</time>
      </trkpt>
      <trkpt lat="43.304010" lon="-6.198610">
        <ele>625.060</ele>
        <time>2020-05-21T05:22:50Z</time>
      </trkpt>
      <trkpt lat="43.303960" lon="-6.198650">
        <ele>626.547</ele>
        <time>2020-05-21T05:23:10Z</time>
      </trkpt>
      <trkpt lat="43.303900" lon="-6.198750">
        <ele>628.723</ele>
        <time>2020-05-21T05:23:30Z</time>
      </trkpt>
      <trkpt lat="43.303830" lon="-6.198910">
        <ele>631.032</ele>
        <time>2020-05-21T05:23:50Z</time>
      </trkpt>
      <trkpt lat="43.303810" lon="-6.198960">
        <ele>631.673</ele>
        <time>2020-05-21T05:24:10Z</time>
      </trkpt>
      <trkpt lat="43.303800" lon="-6.198990">
        <ele>631.992</ele>
        <time>2020-05-21T05:24:30Z</time>
      </trkpt>
      <trkpt lat="43.303790" lon="-6.199050">
        <ele>632.495</ele>
        <time>2020-05-21T05:24:50Z</time>
      </trkpt>
      <trkpt lat="43.303800" lon="-6.199140">
        <ele>632.862</ele>
        <time>2020-05-21T05:25:10Z</time>
      </trkpt>
      <trkpt lat="43.303810" lon="-6.199230">
        <ele>633.483</ele>
        <time>2020-05-21T05:25:30Z</time>
      </trkpt>
      <trkpt lat="43.303840" lon="-6.199320">
        <ele>634.011</ele>
        <time>2020-05-21T05:25:50Z</time>
      </trkpt>
      <trkpt lat="43.303870" lon="-6.199410">
        <ele>634.708</ele>
        <time>2020-05-21T05:26:10Z</time>
      </trkpt>
      <trkpt lat="43.303890" lon="-6.199490">
        <ele>635.340</ele>
        <time>2020-05-21T05:26:30Z</time>
      </trkpt>
      <trkpt lat="43.303910" lon="-6.199560">
        <ele>635.765</ele>
        <time>2020-05-21T05:26:50Z</time>
      </trkpt>
      <trkpt lat="43.303920" lon="-6.199640">
        <ele>636.442</ele>
        <time>2020-05-21T05:27:10Z</time>
      </trkpt>
      <trkpt lat="43.303920" lon="-6.199690">
        <ele>636.848</ele>
        <time>2020-05-21T05:27:30Z</time>
      </trkpt>
      <trkpt lat="43.303910" lon="-6.199730">
        <ele>637.187</ele>
        <time>2020-05-21T05:27:50Z</time>
      </trkpt>
      <trkpt lat="43.303890" lon="-6.199800">
        <ele>637.378</ele>
        <time>2020-05-21T05:28:10Z</time>
      </trkpt>
      <trkpt lat="43.303860" lon="-6.199840">
        <ele>637.387</ele>
        <time>2020-05-21T05:28:30Z</time>
      </trkpt>
      <trkpt lat="43.303840" lon="-6.199860">
        <ele>637.270</ele>
        <time>2020-05-21T05:28:50Z</time>
      </trkpt>
      <trkpt lat="43.303810" lon="-6.199920">
        <ele>637.273</ele>
        <time>2020-05-21T05:29:10Z</time>
      </trkpt>
      <trkpt lat="43.303760" lon="-6.200020">
        <ele>637.285</ele>
        <time>2020-05-21T05:29:30Z</time>
      </trkpt>
      <trkpt lat="43.303720" lon="-6.200110">
        <ele>637.213</ele>
        <time>2020-05-21T05:29:50Z</time>
      </trkpt>
      <trkpt lat="43.303660" lon="-6.200250">
        <ele>636.808</ele>
        <time>2020-05-21T05:30:10Z</time>
      </trkpt>
      <trkpt lat="43.303560" lon="-6.200460">
        <ele>636.691</ele>
        <time>2020-05-21T05:30:30Z</time>
      </trkpt>
      <trkpt lat="43.303460" lon="-6.200670">
        <ele>637.216</ele>
        <time>2020-05-21T05:30:50Z</time>
      </trkpt>
      <trkpt lat="43.303450" lon="-6.200710">
        <ele>637.693</ele>
        <time>2020-05-21T05:31:10Z</time>
      </trkpt>
      <trkpt lat="43.303390" lon="-6.200890">
        <ele>638.739</ele>
        <time>2020-05-21T05:31:30Z</time>
      </trkpt>
      <trkpt lat="43.303200" lon="-6.201480">
        <ele>638.938</ele>
        <time>2020-05-21T05:31:50Z</time>
      </trkpt>
      <trkpt lat="43.303060" lon="-6.201990">
        <ele>639.659</ele>
        <time>2020-05-21T05:32:10Z</time>
      </trkpt>
      <trkpt lat="43.303030" lon="-6.202130">
        <ele>640.248</ele>
        <time>2020-05-21T05:32:30Z</time>
      </trkpt>
      <trkpt lat="43.303020" lon="-6.202190">
        <ele>640.521</ele>
        <time>2020-05-21T05:32:50Z</time>
      </trkpt>
      <trkpt lat="43.303020" lon="-6.202250">
        <ele>640.922</ele>
        <time>2020-05-21T05:33:10Z</time>
      </trkpt>
      <trkpt lat="43.303020" lon="-6.202370">
        <ele>641.462</ele>
        <time>2020-05-21T05:33:30Z</time>
      </trkpt>
      <trkpt lat="43.303020" lon="-6.202640">
        <ele>641.308</ele>
        <time>2020-05-21T05:33:50Z</time>
      </trkpt>
      <trkpt lat="43.303010" lon="-6.202850">
        <ele>639.908</ele>
        <time>2020-05-21T05:34:10Z</time>
      </trkpt>
      <trkpt lat="43.302990" lon="-6.203020">
        <ele>638.186</ele>
        <time>2020-05-21T05:34:30Z</time>
      </trkpt>
      <trkpt lat="43.302990" lon="-6.203030">
        <ele>638.031</ele>
        <time>2020-05-21T05:34:50Z</time>
      </trkpt>
      <trkpt lat="43.302940" lon="-6.203260">
        <ele>634.588</ele>
        <time>2020-05-21T05:35:10Z</time>
      </trkpt>
      <trkpt lat="43.302920" lon="-6.203380">
        <ele>632.924</ele>
        <time>2020-05-21T05:35:30Z</time>
      </trkpt>
      <trkpt lat="43.302900" lon="-6.203500">
        <ele>631.943</ele>
        <time>2020-05-21T05:35:50Z</time>
      </trkpt>
      <trkpt lat="43.302880" lon="-6.203740">
        <ele>630.434</ele>
        <time>2020-05-21T05:36:10Z</time>
      </trkpt>
      <trkpt lat="43.302860" lon="-6.203990">
        <ele>628.473</ele>
        <time>2020-05-21T05:36:30Z</time>
      </trkpt>
      <trkpt lat="43.302850" lon="-6.204010">
        <ele>628.036</ele>
        <time>2020-05-21T05:36:50Z</time>
      </trkpt>
      <trkpt lat="43.302840" lon="-6.204230">
        <ele>625.164</ele>
        <time>2020-05-21T05:37:10Z</time>
      </trkpt>
      <trkpt lat="43.302820" lon="-6.204480">
        <ele>621.106</ele>
        <time>2020-05-21T05:37:30Z</time>
      </trkpt>
      <trkpt lat="43.302810" lon="-6.204590">
        <ele>620.516</ele>
        <time>2020-05-21T05:37:50Z</time>
      </trkpt>
      <trkpt lat="43.302810" lon="-6.204670">
        <ele>620.108</ele>
        <time>2020-05-21T05:38:10Z</time>
      </trkpt>
      <trkpt lat="43.302810" lon="-6.204730">
        <ele>619.930</ele>
        <time>2020-05-21T05:38:30Z</time>
      </trkpt>
      <trkpt lat="43.302820" lon="-6.204800">
        <ele>620.115</ele>
        <time>2020-05-21T05:38:50Z</time>
      </trkpt>
      <trkpt lat="43.302860" lon="-6.204990">
        <ele>620.422</ele>
        <time>2020-05-21T05:39:10Z</time>
      </trkpt>
      <trkpt lat="43.302870" lon="-6.205030">
        <ele>620.418</ele>
        <time>2020-05-21T05:39:30Z</time>
      </trkpt>
      <trkpt lat="43.302940" lon="-6.205280">
        <ele>620.827</ele>
        <time>2020-05-21T05:39:50Z</time>
      </trkpt>
      <trkpt lat="43.303090" lon="-6.205710">
        <ele>615.738</ele>
        <time>2020-05-21T05:40:10Z</time>
      </trkpt>
      <trkpt lat="43.303130" lon="-6.205920">
        <ele>611.597</ele>
        <time>2020-05-21T05:40:30Z</time>
      </trkpt>
      <trkpt lat="43.303140" lon="-6.206110">
        <ele>607.740</ele>
        <time>2020-05-21T05:40:50Z</time>
      </trkpt>
      <trkpt lat="43.303130" lon="-6.206290">
        <ele>607.248</ele>
        <time>2020-05-21T05:41:10Z</time>
      </trkpt>
      <trkpt lat="43.303030" lon="-6.206710">
        <ele>607.361</ele>
        <time>2020-05-21T05:41:30Z</time>
      </trkpt>
      <trkpt lat="43.302970" lon="-6.206950">
        <ele>606.017</ele>
        <time>2020-05-21T05:41:50Z</time>
      </trkpt>
      <trkpt lat="43.302960" lon="-6.207060">
        <ele>605.308</ele>
        <time>2020-05-21T05:42:10Z</time>
      </trkpt>
      <trkpt lat="43.302960" lon="-6.207130">
        <ele>604.758</ele>
        <time>2020-05-21T05:42:30Z</time>
      </trkpt>
      <trkpt lat="43.302960" lon="-6.207170">
        <ele>604.343</ele>
        <time>2020-05-21T05:42:50Z</time>
      </trkpt>
      <trkpt lat="43.302960" lon="-6.207230">
        <ele>603.810</ele>
        <time>2020-05-21T05:43:10Z</time>
      </trkpt>
      <trkpt lat="43.302980" lon="-6.207270">
        <ele>603.426</ele>
        <time>2020-05-21T05:43:30Z</time>
      </trkpt>
      <trkpt lat="43.303060" lon="-6.207370">
        <ele>602.055</ele>
        <time>2020-05-21T05:43:50Z</time>
      </trkpt>
      <trkpt lat="43.303200" lon="-6.207500">
        <ele>600.966</ele>
        <time>2020-05-21T05:44:10Z</time>
      </trkpt>
      <trkpt lat="43.303330" lon="-6.207580">
        <ele>599.515</ele>
        <time>2020-05-21T05:44:30Z</time>
      </trkpt>
      <trkpt lat="43.303470" lon="-6.207640">
        <ele>597.128</ele>
        <time>2020-05-21T05:44:50Z</time>
      </trkpt>
      <trkpt lat="43.303500" lon="-6.207650">
        <ele>596.564</ele>
        <time>2020-05-21T05:45:10Z</time>
      </trkpt>
      <trkpt lat="43.303590" lon="-6.207690">
        <ele>595.006</ele>
        <time>2020-05-21T05:45:30Z</time>
      </trkpt>
      <trkpt lat="43.303660" lon="-6.207720">
        <ele>593.716</ele>
        <time>2020-05-21T05:45:50Z</time>
      </trkpt>
      <trkpt lat="43.303740" lon="-6.207790">
        <ele>593.008</ele>
        <time>2020-05-21T05:46:10Z</time>
      </trkpt>
      <trkpt lat="43.303870" lon="-6.207930">
        <ele>592.290</ele>
        <time>2020-05-21T05:46:30Z</time>
      </trkpt>
      <trkpt lat="43.303990" lon="-6.208050">
        <ele>591.045</ele>
        <time>2020-05-21T05:46:50Z</time>
      </trkpt>
      <trkpt lat="43.304130" lon="-6.208200">
        <ele>587.682</ele>
        <time>2020-05-21T05:47:10Z</time>
      </trkpt>
      <trkpt lat="43.304160" lon="-6.208250">
        <ele>586.988</ele>
        <time>2020-05-21T05:47:30Z</time>
      </trkpt>
      <trkpt lat="43.304190" lon="-6.208290">
        <ele>585.847</ele>
        <time>2020-05-21T05:47:50Z</time>
      </trkpt>
      <trkpt lat="43.304200" lon="-6.208330">
        <ele>585.568</ele>
        <time>2020-05-21T05:48:10Z</time>
      </trkpt>
      <trkpt lat="43.304220" lon="-6.208410">
        <ele>584.187</ele>
        <time>2020-05-21T05:48:30Z</time>
      </trkpt>
      <trkpt lat="43.304240" lon="-6.208480">
        <ele>582.610</ele>
        <time>2020-05-21T05:48:50Z</time>
      </trkpt>
      <trkpt lat="43.304240" lon="-6.208540">
        <ele>582.123</ele>
        <time>2020-05-21T05:49:10Z</time>
      </trkpt>
      <trkpt lat="43.304230" lon="-6.208590">
        <ele>582.283</ele>
        <time>2020-05-21T05:49:30Z</time>
      </trkpt>
      <trkpt lat="43.304230" lon="-6.208600">
        <ele>582.111</ele>
        <time>2020-05-21T05:49:50Z</time>
      </trkpt>
      <trkpt lat="43.304220" lon="-6.208640">
        <ele>582.008</ele>
        <time>2020-05-21T05:50:10Z</time>
      </trkpt>
      <trkpt lat="43.304160" lon="-6.208710">
        <ele>583.576</ele>
        <time>2020-05-21T05:50:30Z</time>
      </trkpt>
      <trkpt lat="43.304090" lon="-6.208810">
        <ele>584.461</ele>
        <time>2020-05-21T05:50:50Z</time>
      </trkpt>
      <trkpt lat="43.304060" lon="-6.208870">
        <ele>584.538</ele>
        <time>2020-05-21T05:51:10Z</time>
      </trkpt>
      <trkpt lat="43.304050" lon="-6.208930">
        <ele>584.474</ele>
        <time>2020-05-21T05:51:30Z</time>
      </trkpt>
      <trkpt lat="43.304040" lon="-6.209020">
        <ele>584.393</ele>
        <time>2020-05-21T05:51:50Z</time>
      </trkpt>
      <trkpt lat="43.304040" lon="-6.209130">
        <ele>583.884</ele>
        <time>2020-05-21T05:52:10Z</time>
      </trkpt>
      <trkpt lat="43.304060" lon="-6.209250">
        <ele>582.823</ele>
        <time>2020-05-21T05:52:30Z</time>
      </trkpt>
      <trkpt lat="43.304070" lon="-6.209290">
        <ele>582.366</ele>
        <time>2020-05-21T05:52:50Z</time>
      </trkpt>
      <trkpt lat="43.304140" lon="-6.209540">
        <ele>579.228</ele>
        <time>2020-05-21T05:53:10Z</time>
      </trkpt>
      <trkpt lat="43.304210" lon="-6.209700">
        <ele>576.389</ele>
        <time>2020-05-21T05:53:30Z</time>
      </trkpt>
      <trkpt lat="43.304290" lon="-6.209910">
        <ele>573.117</ele>
        <time>2020-05-21T05:53:50Z</time>
      </trkpt>
      <trkpt lat="43.304320" lon="-6.209980">
        <ele>571.908</ele>
        <time>2020-05-21T05:54:10Z</time>
      </trkpt>
      <trkpt lat="43.304510" lon="-6.210310">
        <ele>568.276</ele>
        <time>2020-05-21T05:54:30Z</time>
      </trkpt>
      <trkpt lat="43.304580" lon="-6.210460">
        <ele>567.861</ele>
        <time>2020-05-21T05:54:50Z</time>
      </trkpt>
      <trkpt lat="43.304620" lon="-6.210500">
        <ele>566.768</ele>
        <time>2020-05-21T05:55:10Z</time>
      </trkpt>
      <trkpt lat="43.304750" lon="-6.210670">
        <ele>563.534</ele>
        <time>2020-05-21T05:55:30Z</time>
      </trkpt>
      <trkpt lat="43.304790" lon="-6.210730">
        <ele>562.733</ele>
        <time>2020-05-21T05:55:50Z</time>
      </trkpt>
      <trkpt lat="43.304960" lon="-6.210980">
        <ele>558.484</ele>
        <time>2020-05-21T05:56:10Z</time>
      </trkpt>
      <trkpt lat="43.304990" lon="-6.211040">
        <ele>557.733</ele>
        <time>2020-05-21T05:56:30Z</time>
      </trkpt>
      <trkpt lat="43.305000" lon="-6.211060">
        <ele>557.486</ele>
        <time>2020-05-21T05:56:50Z</time>
      </trkpt>
      <trkpt lat="43.305030" lon="-6.211130">
        <ele>557.429</ele>
        <time>2020-05-21T05:57:10Z</time>
      </trkpt>
      <trkpt lat="43.305060" lon="-6.211250">
        <ele>557.900</ele>
        <time>2020-05-21T05:57:30Z</time>
      </trkpt>
      <trkpt lat="43.305090" lon="-6.211480">
        <ele>558.620</ele>
        <time>2020-05-21T05:57:50Z</time>
      </trkpt>
      <trkpt lat="43.305110" lon="-6.211620">
        <ele>558.308</ele>
        <time>2020-05-21T05:58:10Z</time>
      </trkpt>
      <trkpt lat="43.305150" lon="-6.211770">
        <ele>557.946</ele>
        <time>2020-05-21T05:58:30Z</time>
      </trkpt>
      <trkpt lat="43.305200" lon="-6.211900">
        <ele>557.261</ele>
        <time>2020-05-21T05:58:50Z</time>
      </trkpt>
      <trkpt lat="43.305230" lon="-6.211960">
        <ele>556.788</ele>
        <time>2020-05-21T05:59:10Z</time>
      </trkpt>
      <trkpt lat="43.305260" lon="-6.212000">
        <ele>556.034</ele>
        <time>2020-05-21T05:59:30Z</time>
      </trkpt>
      <trkpt lat="43.305320" lon="-6.212040">
        <ele>553.723</ele>
        <time>2020-05-21T05:59:50Z</time>
      </trkpt>
      <trkpt lat="43.305360" lon="-6.212080">
        <ele>552.154</ele>
        <time>2020-05-21T06:00:10Z</time>
      </trkpt>
      <trkpt lat="43.305380" lon="-6.212090">
        <ele>551.363</ele>
        <time>2020-05-21T06:00:30Z</time>
      </trkpt>
      <trkpt lat="43.305390" lon="-6.212110">
        <ele>550.996</ele>
        <time>2020-05-21T06:00:50Z</time>
      </trkpt>
      <trkpt lat="43.305400" lon="-6.212150">
        <ele>550.839</ele>
        <time>2020-05-21T06:01:10Z</time>
      </trkpt>
      <trkpt lat="43.305410" lon="-6.212200">
        <ele>550.701</ele>
        <time>2020-05-21T06:01:30Z</time>
      </trkpt>
      <trkpt lat="43.305420" lon="-6.212300">
        <ele>550.921</ele>
        <time>2020-05-21T06:01:50Z</time>
      </trkpt>
      <trkpt lat="43.305410" lon="-6.212390">
        <ele>552.008</ele>
        <time>2020-05-21T06:02:10Z</time>
      </trkpt>
      <trkpt lat="43.305390" lon="-6.212630">
        <ele>553.697</ele>
        <time>2020-05-21T06:02:30Z</time>
      </trkpt>
      <trkpt lat="43.305370" lon="-6.212820">
        <ele>554.552</ele>
        <time>2020-05-21T06:02:50Z</time>
      </trkpt>
      <trkpt lat="43.305370" lon="-6.212840">
        <ele>554.699</ele>
        <time>2020-05-21T06:03:10Z</time>
      </trkpt>
      <trkpt lat="43.305380" lon="-6.213020">
        <ele>554.975</ele>
        <time>2020-05-21T06:03:30Z</time>
      </trkpt>
      <trkpt lat="43.305390" lon="-6.213060">
        <ele>554.864</ele>
        <time>2020-05-21T06:03:50Z</time>
      </trkpt>
      <trkpt lat="43.305400" lon="-6.213160">
        <ele>556.095</ele>
        <time>2020-05-21T06:04:10Z</time>
      </trkpt>
      <trkpt lat="43.305430" lon="-6.213250">
        <ele>556.424</ele>
        <time>2020-05-21T06:04:30Z</time>
      </trkpt>
      <trkpt lat="43.305460" lon="-6.213300">
        <ele>556.347</ele>
        <time>2020-05-21T06:04:50Z</time>
      </trkpt>
      <trkpt lat="43.305520" lon="-6.213350">
        <ele>555.388</ele>
        <time>2020-05-21T06:05:10Z</time>
      </trkpt>
      <trkpt lat="43.305610" lon="-6.213400">
        <ele>553.324</ele>
        <time>2020-05-21T06:05:30Z</time>
      </trkpt>
      <trkpt lat="43.305710" lon="-6.213450">
        <ele>550.826</ele>
        <time>2020-05-21T06:05:50Z</time>
      </trkpt>
      <trkpt lat="43.305770" lon="-6.213450">
        <ele>548.708</ele>
        <time>2020-05-21T06:06:10Z</time>
      </trkpt>
      <trkpt lat="43.305820" lon="-6.213460">
        <ele>547.222</ele>
        <time>2020-05-21T06:06:30Z</time>
      </trkpt>
      <trkpt lat="43.305890" lon="-6.213460">
        <ele>544.557</ele>
        <time>2020-05-21T06:06:50Z</time>
      </trkpt>
      <trkpt lat="43.305940" lon="-6.213450">
        <ele>542.264</ele>
        <time>2020-05-21T06:07:10Z</time>
      </trkpt>
      <trkpt lat="43.305970" lon="-6.213460">
        <ele>541.330</ele>
        <time>2020-05-21T06:07:30Z</time>
      </trkpt>
      <trkpt lat="43.305980" lon="-6.213460">
        <ele>540.929</ele>
        <time>2020-05-21T06:07:50Z</time>
      </trkpt>
      <trkpt lat="43.306030" lon="-6.213470">
        <ele>539.280</ele>
        <time>2020-05-21T06:08:10Z</time>
      </trkpt>
      <trkpt lat="43.306070" lon="-6.213510">
        <ele>538.759</ele>
        <time>2020-05-21T06:08:30Z</time>
      </trkpt>
      <trkpt lat="43.306120" lon="-6.213580">
        <ele>538.742</ele>
        <time>2020-05-21T06:08:50Z</time>
      </trkpt>
      <trkpt lat="43.306130" lon="-6.213590">
        <ele>538.576</ele>
        <time>2020-05-21T06:09:10Z</time>
      </trkpt>
      <trkpt lat="43.306190" lon="-6.213720">
        <ele>538.990</ele>
        <time>2020-05-21T06:09:30Z</time>
      </trkpt>
      <trkpt lat="43.306220" lon="-6.213780">
        <ele>538.919</ele>
        <time>2020-05-21T06:09:50Z</time>
      </trkpt>
      <trkpt lat="43.306220" lon="-6.213800">
        <ele>539.408</ele>
        <time>2020-05-21T06:10:10Z</time>
      </trkpt>
      <trkpt lat="43.306260" lon="-6.213910">
        <ele>539.851</ele>
        <time>2020-05-21T06:10:30Z</time>
      </trkpt>
      <trkpt lat="43.306270" lon="-6.214020">
        <ele>541.156</ele>
        <time>2020-05-21T06:10:50Z</time>
      </trkpt>
      <trkpt lat="43.306280" lon="-6.214050">
        <ele>541.263</ele>
        <time>2020-05-21T06:11:10Z</time>
      </trkpt>
      <trkpt lat="43.306290" lon="-6.214290">
        <ele>543.459</ele>
        <time>2020-05-21T06:11:30Z</time>
      </trkpt>
      <trkpt lat="43.306320" lon="-6.214510">
        <ele>543.438</ele>
        <time>2020-05-21T06:11:50Z</time>
      </trkpt>
      <trkpt lat="43.306370" lon="-6.214850">
        <ele>544.049</ele>
        <time>2020-05-21T06:12:10Z</time>
      </trkpt>
      <trkpt lat="43.306390" lon="-6.214990">
        <ele>543.938</ele>
        <time>2020-05-21T06:12:30Z</time>
      </trkpt>
      <trkpt lat="43.306410" lon="-6.215240">
        <ele>546.241</ele>
        <time>2020-05-21T06:12:50Z</time>
      </trkpt>
      <trkpt lat="43.306410" lon="-6.215330">
        <ele>547.311</ele>
        <time>2020-05-21T06:13:10Z</time>
      </trkpt>
      <trkpt lat="43.306420" lon="-6.215480">
        <ele>548.421</ele>
        <time>2020-05-21T06:13:30Z</time>
      </trkpt>
      <trkpt lat="43.306440" lon="-6.215730">
        <ele>549.103</ele>
        <time>2020-05-21T06:13:50Z</time>
      </trkpt>
      <trkpt lat="43.306460" lon="-6.216060">
        <ele>551.008</ele>
        <time>2020-05-21T06:14:10Z</time>
      </trkpt>
      <trkpt lat="43.306480" lon="-6.216220">
        <ele>550.325</ele>
        <time>2020-05-21T06:14:30Z</time>
      </trkpt>
      <trkpt lat="43.306520" lon="-6.216450">
        <ele>548.740</ele>
        <time>2020-05-21T06:14:50Z</time>
      </trkpt>
      <trkpt lat="43.306560" lon="-6.216640">
        <ele>547.997</ele>
        <time>2020-05-21T06:15:10Z</time>
      </trkpt>
      <trkpt lat="43.306590" lon="-6.216750">
        <ele>547.493</ele>
        <time>2020-05-21T06:15:30Z</time>
      </trkpt>
      <trkpt lat="43.306580" lon="-6.216850">
        <ele>547.632</ele>
        <time>2020-05-21T06:15:50Z</time>
      </trkpt>
      <trkpt lat="43.306570" lon="-6.216900">
        <ele>547.753</ele>
        <time>2020-05-21T06:16:10Z</time>
      </trkpt>
      <trkpt lat="43.306560" lon="-6.216930">
        <ele>547.882</ele>
        <time>2020-05-21T06:16:30Z</time>
      </trkpt>
      <trkpt lat="43.306550" lon="-6.216950">
        <ele>547.875</ele>
        <time>2020-05-21T06:16:50Z</time>
      </trkpt>
      <trkpt lat="43.306530" lon="-6.216990">
        <ele>547.795</ele>
        <time>2020-05-21T06:17:10Z</time>
      </trkpt>
      <trkpt lat="43.306410" lon="-6.217070">
        <ele>546.849</ele>
        <time>2020-05-21T06:17:30Z</time>
      </trkpt>
      <trkpt lat="43.306300" lon="-6.217130">
        <ele>544.923</ele>
        <time>2020-05-21T06:17:50Z</time>
      </trkpt>
      <trkpt lat="43.305980" lon="-6.217330">
        <ele>538.308</ele>
        <time>2020-05-21T06:18:10Z</time>
      </trkpt>
      <trkpt lat="43.305850" lon="-6.217450">
        <ele>534.023</ele>
        <time>2020-05-21T06:18:30Z</time>
      </trkpt>
      <trkpt lat="43.305170" lon="-6.218040">
        <ele>524.288</ele>
        <time>2020-05-21T06:18:50Z</time>
      </trkpt>
      <trkpt lat="43.304950" lon="-6.218270">
        <ele>520.225</ele>
        <time>2020-05-21T06:19:10Z</time>
      </trkpt>
      <trkpt lat="43.304810" lon="-6.218420">
        <ele>517.121</ele>
        <time>2020-05-21T06:19:30Z</time>
      </trkpt>
      <trkpt lat="43.304660" lon="-6.218570">
        <ele>516.250</ele>
        <time>2020-05-21T06:19:50Z</time>
      </trkpt>
      <trkpt lat="43.304460" lon="-6.218850">
        <ele>513.941</ele>
        <time>2020-05-21T06:20:10Z</time>
      </trkpt>
      <trkpt lat="43.304350" lon="-6.219040">
        <ele>513.990</ele>
        <time>2020-05-21T06:20:30Z</time>
      </trkpt>
      <trkpt lat="43.304320" lon="-6.219130">
        <ele>513.883</ele>
        <time>2020-05-21T06:20:50Z</time>
      </trkpt>
      <trkpt lat="43.304310" lon="-6.219210">
        <ele>513.542</ele>
        <time>2020-05-21T06:21:10Z</time>
      </trkpt>
      <trkpt lat="43.304310" lon="-6.219300">
        <ele>513.022</ele>
        <time>2020-05-21T06:21:30Z</time>
      </trkpt>
      <trkpt lat="43.304310" lon="-6.219380">
        <ele>512.614</ele>
        <time>2020-05-21T06:21:50Z</time>
      </trkpt>
      <trkpt lat="43.304310" lon="-6.219420">
        <ele>512.408</ele>
        <time>2020-05-21T06:22:10Z</time>
      </trkpt>
      <trkpt lat="43.304370" lon="-6.219740">
        <ele>506.188</ele>
        <time>2020-05-21T06:22:30Z</time>
      </trkpt>
      <trkpt lat="43.304390" lon="-6.219860">
        <ele>502.993</ele>
        <time>2020-05-21T06:22:50Z</time>
      </trkpt>
      <trkpt lat="43.304410" lon="-6.219980">
        <ele>499.860</ele>
        <time>2020-05-21T06:23:10Z</time>
      </trkpt>
      <trkpt lat="43.304420" lon="-6.220100">
        <ele>499.756</ele>
        <time>2020-05-21T06:23:30Z</time>
      </trkpt>
      <trkpt lat="43.304430" lon="-6.220290">
        <ele>501.075</ele>
        <time>2020-05-21T06:23:50Z</time>
      </trkpt>
      <trkpt lat="43.304440" lon="-6.220350">
        <ele>501.146</ele>
        <time>2020-05-21T06:24:10Z</time>
      </trkpt>
      <trkpt lat="43.304480" lon="-6.220550">
        <ele>501.455</ele>
        <time>2020-05-21T06:24:30Z</time>
      </trkpt>
      <trkpt lat="43.304490" lon="-6.220580">
        <ele>501.458</ele>
        <time>2020-05-21T06:24:50Z</time>
      </trkpt>
      <trkpt lat="43.304530" lon="-6.220700">
        <ele>501.493</ele>
        <time>2020-05-21T06:25:10Z</time>
      </trkpt>
      <trkpt lat="43.304690" lon="-6.220980">
        <ele>499.265</ele>
        <time>2020-05-21T06:25:30Z</time>
      </trkpt>
      <trkpt lat="43.304690" lon="-6.220990">
        <ele>499.421</ele>
        <time>2020-05-21T06:25:50Z</time>
      </trkpt>
      <trkpt lat="43.304820" lon="-6.221170">
        <ele>495.408</ele>
        <time>2020-05-21T06:26:10Z</time>
      </trkpt>
      <trkpt lat="43.304860" lon="-6.221230">
        <ele>494.363</ele>
        <time>2020-05-21T06:26:30Z</time>
      </trkpt>
      <trkpt lat="43.304950" lon="-6.221330">
        <ele>491.418</ele>
        <time>2020-05-21T06:26:50Z</time>
      </trkpt>
      <trkpt lat="43.305090" lon="-6.221480">
        <ele>486.175</ele>
        <time>2020-05-21T06:27:10Z</time>
      </trkpt>
      <trkpt lat="43.305160" lon="-6.221550">
        <ele>483.591</ele>
        <time>2020-05-21T06:27:30Z</time>
      </trkpt>
      <trkpt lat="43.305240" lon="-6.221690">
        <ele>481.870</ele>
        <time>2020-05-21T06:27:50Z</time>
      </trkpt>
      <trkpt lat="43.305320" lon="-6.221820">
        <ele>479.781</ele>
        <time>2020-05-21T06:28:10Z</time>
      </trkpt>
      <trkpt lat="43.305320" lon="-6.221860">
        <ele>480.270</ele>
        <time>2020-05-21T06:28:30Z</time>
      </trkpt>
      <trkpt lat="43.305350" lon="-6.221960">
        <ele>479.893</ele>
        <time>2020-05-21T06:28:50Z</time>
      </trkpt>
      <trkpt lat="43.305360" lon="-6.222100">
        <ele>480.789</ele>
        <time>2020-05-21T06:29:10Z</time>
      </trkpt>
      <trkpt lat="43.305360" lon="-6.222130">
        <ele>481.006</ele>
        <time>2020-05-21T06:29:30Z</time>
      </trkpt>
      <trkpt lat="43.305360" lon="-6.222270">
        <ele>482.126</ele>
        <time>2020-05-21T06:29:50Z</time>
      </trkpt>
      <trkpt lat="43.305370" lon="-6.222340">
        <ele>482.108</ele>
        <time>2020-05-21T06:30:10Z</time>
      </trkpt>
      <trkpt lat="43.305370" lon="-6.222370">
        <ele>482.252</ele>
        <time>2020-05-21T06:30:30Z</time>
      </trkpt>
      <trkpt lat="43.305400" lon="-6.222490">
        <ele>481.767</ele>
        <time>2020-05-21T06:30:50Z</time>
      </trkpt>
      <trkpt lat="43.305430" lon="-6.222580">
        <ele>482.084</ele>
        <time>2020-05-21T06:31:10Z</time>
      </trkpt>
      <trkpt lat="43.305440" lon="-6.222590">
        <ele>481.890</ele>
        <time>2020-05-21T06:31:30Z</time>
      </trkpt>
      <trkpt lat="43.305500" lon="-6.222700">
        <ele>481.649</ele>
        <time>2020-05-21T06:31:50Z</time>
      </trkpt>
      <trkpt lat="43.305550" lon="-6.222770">
        <ele>481.180</ele>
        <time>2020-05-21T06:32:10Z</time>
      </trkpt>
      <trkpt lat="43.305560" lon="-6.222790">
        <ele>481.219</ele>
        <time>2020-05-21T06:32:30Z</time>
      </trkpt>
      <trkpt lat="43.305580" lon="-6.222810">
        <ele>481.092</ele>
        <time>2020-05-21T06:32:50Z</time>
      </trkpt>
      <trkpt lat="43.305620" lon="-6.222820">
        <ele>479.994</ele>
        <time>2020-05-21T06:33:10Z</time>
      </trkpt>
      <trkpt lat="43.305740" lon="-6.222840">
        <ele>476.257</ele>
        <time>2020-05-21T06:33:30Z</time>
      </trkpt>
      <trkpt lat="43.305890" lon="-6.222880">
        <ele>471.422</ele>
        <time>2020-05-21T06:33:50Z</time>
      </trkpt>
      <trkpt lat="43.305930" lon="-6.222880">
        <ele>469.608</ele>
        <time>2020-05-21T06:34:10Z</time>
      </trkpt>
      <trkpt lat="43.306070" lon="-6.222920">
        <ele>464.023</ele>
        <time>2020-05-21T06:34:30Z</time>
      </trkpt>
      <trkpt lat="43.306180" lon="-6.222950">
        <ele>459.948</ele>
        <time>2020-05-21T06:34:50Z</time>
      </trkpt>
      <trkpt lat="43.306240" lon="-6.222990">
        <ele>458.335</ele>
        <time>2020-05-21T06:35:10Z</time>
      </trkpt>
      <trkpt lat="43.306260" lon="-6.223000">
        <ele>457.751</ele>
        <time>2020-05-21T06:35:30Z</time>
      </trkpt>
      <trkpt lat="43.306310" lon="-6.223050">
        <ele>456.780</ele>
        <time>2020-05-21T06:35:50Z</time>
      </trkpt>
      <trkpt lat="43.306340" lon="-6.223080">
        <ele>456.261</ele>
        <time>2020-05-21T06:36:10Z</time>
      </trkpt>
      <trkpt lat="43.306370" lon="-6.223150">
        <ele>456.410</ele>
        <time>2020-05-21T06:36:30Z</time>
      </trkpt>
      <trkpt lat="43.306370" lon="-6.223160">
        <ele>456.623</ele>
        <time>2020-05-21T06:36:50Z</time>
      </trkpt>
      <trkpt lat="43.306390" lon="-6.223230">
        <ele>457.159</ele>
        <time>2020-05-21T06:37:10Z</time>
      </trkpt>
      <trkpt lat="43.306430" lon="-6.223370">
        <ele>458.503</ele>
        <time>2020-05-21T06:37:30Z</time>
      </trkpt>
      <trkpt lat="43.306460" lon="-6.223480">
        <ele>460.023</ele>
        <time>2020-05-21T06:37:50Z</time>
      </trkpt>
      <trkpt lat="43.306510" lon="-6.223560">
        <ele>459.708</ele>
        <time>2020-05-21T06:38:10Z</time>
      </trkpt>
      <trkpt lat="43.306540" lon="-6.223600">
        <ele>459.329</ele>
        <time>2020-05-21T06:38:30Z</time>
      </trkpt>
      <trkpt lat="43.306580" lon="-6.223630">
        <ele>458.254</ele>
        <time>2020-05-21T06:38:50Z</time>
      </trkpt>
      <trkpt lat="43.306630" lon="-6.223660">
        <ele>456.611</ele>
        <time>2020-05-21T06:39:10Z</time>
      </trkpt>
      <trkpt lat="43.306710" lon="-6.223700">
        <ele>453.327</ele>
        <time>2020-05-21T06:39:30Z</time>
      </trkpt>
      <trkpt lat="43.306780" lon="-6.223730">
        <ele>450.126</ele>
        <time>2020-05-21T06:39:50Z</time>
      </trkpt>
      <trkpt lat="43.306860" lon="-6.223790">
        <ele>446.617</ele>
        <time>2020-05-21T06:40:10Z</time>
      </trkpt>
      <trkpt lat="43.306900" lon="-6.223830">
        <ele>444.966</ele>
        <time>2020-05-21T06:40:30Z</time>
      </trkpt>
      <trkpt lat="43.306960" lon="-6.223900">
        <ele>442.239</ele>
        <time>2020-05-21T06:40:50Z</time>
      </trkpt>
      <trkpt lat="43.306990" lon="-6.223960">
        <ele>441.569</ele>
        <time>2020-05-21T06:41:10Z</time>
      </trkpt>
      <trkpt lat="43.307000" lon="-6.223980">
        <ele>441.204</ele>
        <time>2020-05-21T06:41:30Z</time>
      </trkpt>
      <trkpt lat="43.307040" lon="-6.224060">
        <ele>440.424</ele>
        <time>2020-05-21T06:41:50Z</time>
      </trkpt>
      <trkpt lat="43.307080" lon="-6.224160">
        <ele>440.108</ele>
        <time>2020-05-21T06:42:10Z</time>
      </trkpt>
      <trkpt lat="43.307080" lon="-6.224170">
        <ele>440.320</ele>
        <time>2020-05-21T06:42:30Z</time>
      </trkpt>
      <trkpt lat="43.307110" lon="-6.224250">
        <ele>440.485</ele>
        <time>2020-05-21T06:42:50Z</time>
      </trkpt>
      <trkpt lat="43.307140" lon="-6.224400">
        <ele>442.662</ele>
        <time>2020-05-21T06:43:10Z</time>
      </trkpt>
      <trkpt lat="43.307180" lon="-6.224520">
        <ele>442.878</ele>
        <time>2020-05-21T06:43:30Z</time>
      </trkpt>
      <trkpt lat="43.307220" lon="-6.224620">
        <ele>442.347</ele>
        <time>2020-05-21T06:43:50Z</time>
      </trkpt>
      <trkpt lat="43.307220" lon="-6.224630">
        <ele>442.588</ele>
        <time>2020-05-21T06:44:10Z</time>
      </trkpt>
      <trkpt lat="43.307270" lon="-6.224710">
        <ele>440.567</ele>
        <time>2020-05-21T06:44:30Z</time>
      </trkpt>
      <trkpt lat="43.307310" lon="-6.224760">
        <ele>438.440</ele>
        <time>2020-05-21T06:44:50Z</time>
      </trkpt>
      <trkpt lat="43.307400" lon="-6.224850">
        <ele>433.246</ele>
        <time>2020-05-21T06:45:10Z</time>
      </trkpt>
      <trkpt lat="43.307470" lon="-6.224920">
        <ele>429.288</ele>
        <time>2020-05-21T06:45:30Z</time>
      </trkpt>
      <trkpt lat="43.307490" lon="-6.224960">
        <ele>428.316</ele>
        <time>2020-05-21T06:45:50Z</time>
      </trkpt>
      <trkpt lat="43.307510" lon="-6.225010">
        <ele>427.508</ele>
        <time>2020-05-21T06:46:10Z</time>
      </trkpt>
      <trkpt lat="43.307530" lon="-6.225080">
        <ele>426.888</ele>
        <time>2020-05-21T06:46:30Z</time>
      </trkpt>
      <trkpt lat="43.307540" lon="-6.225180">
        <ele>426.953</ele>
        <time>2020-05-21T06:46:50Z</time>
      </trkpt>
      <trkpt lat="43.307540" lon="-6.225420">
        <ele>427.940</ele>
        <time>2020-05-21T06:47:10Z</time>
      </trkpt>
      <trkpt lat="43.307540" lon="-6.225430">
        <ele>427.966</ele>
        <time>2020-05-21T06:47:30Z</time>
      </trkpt>
      <trkpt lat="43.307530" lon="-6.225910">
        <ele>426.725</ele>
        <time>2020-05-21T06:47:50Z</time>
      </trkpt>
      <trkpt lat="43.307550" lon="-6.226250">
        <ele>421.516</ele>
        <time>2020-05-21T06:48:10Z</time>
      </trkpt>
      <trkpt lat="43.307590" lon="-6.226610">
        <ele>414.875</ele>
        <time>2020-05-21T06:48:30Z</time>
      </trkpt>
      <trkpt lat="43.307610" lon="-6.226810">
        <ele>411.128</ele>
        <time>2020-05-21T06:48:50Z</time>
      </trkpt>
      <trkpt lat="43.307600" lon="-6.226900">
        <ele>410.175</ele>
        <time>2020-05-21T06:49:10Z</time>
      </trkpt>
      <trkpt lat="43.307600" lon="-6.226940">
        <ele>409.528</ele>
        <time>2020-05-21T06:49:30Z</time>
      </trkpt>
      <trkpt lat="43.307590" lon="-6.227010">
        <ele>408.620</ele>
        <time>2020-05-21T06:49:50Z</time>
      </trkpt>
      <trkpt lat="43.307560" lon="-6.227090">
        <ele>408.208</ele>
        <time>2020-05-21T06:50:10Z</time>
      </trkpt>
      <trkpt lat="43.307540" lon="-6.227130">
        <ele>408.271</ele>
        <time>2020-05-21T06:50:30Z</time>
      </trkpt>
      <trkpt lat="43.307500" lon="-6.227200">
        <ele>408.446</ele>
        <time>2020-05-21T06:50:50Z</time>
      </trkpt>
      <trkpt lat="43.307370" lon="-6.227420">
        <ele>411.343</ele>
        <time>2020-05-21T06:51:10Z</time>
      </trkpt>
      <trkpt lat="43.307250" lon="-6.227660">
        <ele>412.249</ele>
        <time>2020-05-21T06:51:30Z</time>
      </trkpt>
      <trkpt lat="43.307220" lon="-6.227730">
        <ele>412.288</ele>
        <time>2020-05-21T06:51:50Z</time>
      </trkpt>
      <trkpt lat="43.307180" lon="-6.227810">
        <ele>412.739</ele>
        <time>2020-05-21T06:52:10Z</time>
      </trkpt>
      <trkpt lat="43.307150" lon="-6.227950">
        <ele>412.048</ele>
        <time>2020-05-21T06:52:30Z</time>
      </trkpt>
      <trkpt lat="43.307130" lon="-6.228010">
        <ele>412.171</ele>
        <time>2020-05-21T06:52:50Z</time>
      </trkpt>
      <trkpt lat="43.307110" lon="-6.228190">
        <ele>410.052</ele>
        <time>2020-05-21T06:53:10Z</time>
      </trkpt>
      <trkpt lat="43.307100" lon="-6.228220">
        <ele>410.053</ele>
        <time>2020-05-21T06:53:30Z</time>
      </trkpt>
      <trkpt lat="43.307100" lon="-6.228440">
        <ele>405.008</ele>
        <time>2020-05-21T06:53:50Z</time>
      </trkpt>
      <trkpt lat="43.307100" lon="-6.228560">
        <ele>401.808</ele>
        <time>2020-05-21T06:54:10Z</time>
      </trkpt>
      <trkpt lat="43.307090" lon="-6.228770">
        <ele>398.839</ele>
        <time>2020-05-21T06:54:30Z</time>
      </trkpt>
      <trkpt lat="43.307060" lon="-6.228980">
        <ele>397.114</ele>
        <time>2020-05-21T06:54:50Z</time>
      </trkpt>
      <trkpt lat="43.307010" lon="-6.229160">
        <ele>396.151</ele>
        <time>2020-05-21T06:55:10Z</time>
      </trkpt>
      <trkpt lat="43.306950" lon="-6.229390">
        <ele>394.817</ele>
        <time>2020-05-21T06:55:30Z</time>
      </trkpt>
      <trkpt lat="43.306930" lon="-6.229430">
        <ele>395.356</ele>
        <time>2020-05-21T06:55:50Z</time>
      </trkpt>
      <trkpt lat="43.306830" lon="-6.229720">
        <ele>392.987</ele>
        <time>2020-05-21T06:56:10Z</time>
      </trkpt>
      <trkpt lat="43.306790" lon="-6.229900">
        <ele>389.236</ele>
        <time>2020-05-21T06:56:30Z</time>
      </trkpt>
      <trkpt lat="43.306770" lon="-6.230080">
        <ele>384.859</ele>
        <time>2020-05-21T06:56:50Z</time>
      </trkpt>
      <trkpt lat="43.306750" lon="-6.230290">
        <ele>380.341</ele>
        <time>2020-05-21T06:57:10Z</time>
      </trkpt>
      <trkpt lat="43.306740" lon="-6.230330">
        <ele>380.081</ele>
        <time>2020-05-21T06:57:30Z</time>
      </trkpt>
      <trkpt lat="43.306720" lon="-6.230460">
        <ele>378.409</ele>
        <time>2020-05-21T06:57:50Z</time>
      </trkpt>
      <trkpt lat="43.306690" lon="-6.230570">
        <ele>377.508</ele>
        <time>2020-05-21T06:58:10Z</time>
      </trkpt>
      <trkpt lat="43.306690" lon="-6.230580">
        <ele>377.378</ele>
        <time>2020-05-21T06:58:30Z</time>
      </trkpt>
      <trkpt lat="43.306680" lon="-6.230640">
        <ele>376.283</ele>
        <time>2020-05-21T06:58:50Z</time>
      </trkpt>
      <trkpt lat="43.306650" lon="-6.230670">
        <ele>376.140</ele>
        <time>2020-05-21T06:59:10Z</time>
      </trkpt>
      <trkpt lat="43.306590" lon="-6.230730">
        <ele>374.566</ele>
        <time>2020-05-21T06:59:30Z</time>
      </trkpt>
      <trkpt lat="43.306400" lon="-6.230860">
        <ele>368.915</ele>
        <time>2020-05-21T06:59:50Z</time>
      </trkpt>
      <trkpt lat="43.306340" lon="-6.230880">
        <ele>367.516</ele>
        <time>2020-05-21T07:00:10Z</time>
      </trkpt>
      <trkpt lat="43.306310" lon="-6.230880">
        <ele>367.135</ele>
        <time>2020-05-21T07:00:30Z</time>
      </trkpt>
      <trkpt lat="43.306280" lon="-6.230860">
        <ele>367.748</ele>
        <time>2020-05-21T07:00:50Z</time>
      </trkpt>
      <trkpt lat="43.306240" lon="-6.230840">
        <ele>368.145</ele>
        <time>2020-05-21T07:01:10Z</time>
      </trkpt>
      <trkpt lat="43.306190" lon="-6.230790">
        <ele>369.547</ele>
        <time>2020-05-21T07:01:30Z</time>
      </trkpt>
      <trkpt lat="43.306100" lon="-6.230690">
        <ele>372.011</ele>
        <time>2020-05-21T07:01:50Z</time>
      </trkpt>
      <trkpt lat="43.306080" lon="-6.230670">
        <ele>372.508</ele>
        <time>2020-05-21T07:02:10Z</time>
      </trkpt>
      <trkpt lat="43.305940" lon="-6.230560">
        <ele>374.438</ele>
        <time>2020-05-21T07:02:30Z</time>
      </trkpt>
      <trkpt lat="43.305890" lon="-6.230540">
        <ele>374.233</ele>
        <time>2020-05-21T07:02:50Z</time>
      </trkpt>
      <trkpt lat="43.305850" lon="-6.230540">
        <ele>373.690</ele>
        <time>2020-05-21T07:03:10Z</time>
      </trkpt>
      <trkpt lat="43.305810" lon="-6.230550">
        <ele>373.276</ele>
        <time>2020-05-21T07:03:30Z</time>
      </trkpt>
      <trkpt lat="43.305770" lon="-6.230580">
        <ele>372.595</ele>
        <time>2020-05-21T07:03:50Z</time>
      </trkpt>
      <trkpt lat="43.305750" lon="-6.230610">
        <ele>371.696</ele>
        <time>2020-05-21T07:04:10Z</time>
      </trkpt>
      <trkpt lat="43.305700" lon="-6.230790">
        <ele>366.385</ele>
        <time>2020-05-21T07:04:30Z</time>
      </trkpt>
      <trkpt lat="43.305640" lon="-6.231030">
        <ele>359.698</ele>
        <time>2020-05-21T07:04:50Z</time>
      </trkpt>
      <trkpt lat="43.305570" lon="-6.231360">
        <ele>352.212</ele>
        <time>2020-05-21T07:05:10Z</time>
      </trkpt>
      <trkpt lat="43.305500" lon="-6.231750">
        <ele>348.832</ele>
        <time>2020-05-21T07:05:30Z</time>
      </trkpt>
      <trkpt lat="43.305480" lon="-6.231850">
        <ele>348.505</ele>
        <time>2020-05-21T07:05:50Z</time>
      </trkpt>
      <trkpt lat="43.305430" lon="-6.232040">
        <ele>347.808</ele>
        <time>2020-05-21T07:06:10Z</time>
      </trkpt>
      <trkpt lat="43.305390" lon="-6.232220">
        <ele>345.685</ele>
        <time>2020-05-21T07:06:30Z</time>
      </trkpt>
      <trkpt lat="43.305370" lon="-6.232270">
        <ele>344.870</ele>
        <time>2020-05-21T07:06:50Z</time>
      </trkpt>
      <trkpt lat="43.305360" lon="-6.232320">
        <ele>343.467</ele>
        <time>2020-05-21T07:07:10Z</time>
      </trkpt>
      <trkpt lat="43.305340" lon="-6.232360">
        <ele>343.093</ele>
        <time>2020-05-21T07:07:30Z</time>
      </trkpt>
      <trkpt lat="43.305320" lon="-6.232390">
        <ele>342.982</ele>
        <time>2020-05-21T07:07:50Z</time>
      </trkpt>
      <trkpt lat="43.305300" lon="-6.232430">
        <ele>342.593</ele>
        <time>2020-05-21T07:08:10Z</time>
      </trkpt>
      <trkpt lat="43.305290" lon="-6.232430">
        <ele>343.132</ele>
        <time>2020-05-21T07:08:30Z</time>
      </trkpt>
      <trkpt lat="43.305240" lon="-6.232480">
        <ele>342.885</ele>
        <time>2020-05-21T07:08:50Z</time>
      </trkpt>
      <trkpt lat="43.305160" lon="-6.232560">
        <ele>341.089</ele>
        <time>2020-05-21T07:09:10Z</time>
      </trkpt>
      <trkpt lat="43.305060" lon="-6.232680">
        <ele>337.006</ele>
        <time>2020-05-21T07:09:30Z</time>
      </trkpt>
      <trkpt lat="43.305020" lon="-6.232720">
        <ele>335.726</ele>
        <time>2020-05-21T07:09:50Z</time>
      </trkpt>
      <trkpt lat="43.305010" lon="-6.232730">
        <ele>335.408</ele>
        <time>2020-05-21T07:10:10Z</time>
      </trkpt>
      <trkpt lat="43.304980" lon="-6.232750">
        <ele>334.842</ele>
        <time>2020-05-21T07:10:30Z</time>
      </trkpt>
      <trkpt lat="43.304940" lon="-6.232760">
        <ele>334.847</ele>
        <time>2020-05-21T07:10:50Z</time>
      </trkpt>
      <trkpt lat="43.304820" lon="-6.232780">
        <ele>335.534</ele>
        <time>2020-05-21T07:11:10Z</time>
      </trkpt>
      <trkpt lat="43.304710" lon="-6.232780">
        <ele>336.660</ele>
        <time>2020-05-21T07:11:30Z</time>
      </trkpt>
      <trkpt lat="43.304610" lon="-6.232760">
        <ele>335.619</ele>
        <time>2020-05-21T07:11:50Z</time>
      </trkpt>
      <trkpt lat="43.304470" lon="-6.232740">
        <ele>333.720</ele>
        <time>2020-05-21T07:12:10Z</time>
      </trkpt>
      <trkpt lat="43.304300" lon="-6.232740">
        <ele>330.099</ele>
        <time>2020-05-21T07:12:30Z</time>
      </trkpt>
      <trkpt lat="43.304150" lon="-6.232740">
        <ele>326.822</ele>
        <time>2020-05-21T07:12:50Z</time>
      </trkpt>
      <trkpt lat="43.304120" lon="-6.232740">
        <ele>326.398</ele>
        <time>2020-05-21T07:13:10Z</time>
      </trkpt>
      <trkpt lat="43.303980" lon="-6.232740">
        <ele>324.315</ele>
        <time>2020-05-21T07:13:30Z</time>
      </trkpt>
      <trkpt lat="43.303940" lon="-6.232730">
        <ele>324.226</ele>
        <time>2020-05-21T07:13:50Z</time>
      </trkpt>
      <trkpt lat="43.303890" lon="-6.232730">
        <ele>323.408</ele>
        <time>2020-05-21T07:14:10Z</time>
      </trkpt>
      <trkpt lat="43.303840" lon="-6.232710">
        <ele>322.243</ele>
        <time>2020-05-21T07:14:30Z</time>
      </trkpt>
      <trkpt lat="43.303780" lon="-6.232680">
        <ele>321.158</ele>
        <time>2020-05-21T07:14:50Z</time>
      </trkpt>
      <trkpt lat="43.303690" lon="-6.232620">
        <ele>321.045</ele>
        <time>2020-05-21T07:15:10Z</time>
      </trkpt>
      <trkpt lat="43.303550" lon="-6.232570">
        <ele>319.681</ele>
        <time>2020-05-21T07:15:30Z</time>
      </trkpt>
      <trkpt lat="43.303410" lon="-6.232530">
        <ele>318.360</ele>
        <time>2020-05-21T07:15:50Z</time>
      </trkpt>
      <trkpt lat="43.303300" lon="-6.232520">
        <ele>316.771</ele>
        <time>2020-05-21T07:16:10Z</time>
      </trkpt>
      <trkpt lat="43.303200" lon="-6.232530">
        <ele>316.070</ele>
        <time>2020-05-21T07:16:30Z</time>
      </trkpt>
      <trkpt lat="43.303130" lon="-6.232560">
        <ele>313.713</ele>
        <time>2020-05-21T07:16:50Z</time>
      </trkpt>
      <trkpt lat="43.303080" lon="-6.232580">
        <ele>312.193</ele>
        <time>2020-05-21T07:17:10Z</time>
      </trkpt>
      <trkpt lat="43.303070" lon="-6.232580">
        <ele>312.065</ele>
        <time>2020-05-21T07:17:30Z</time>
      </trkpt>
      <trkpt lat="43.303020" lon="-6.232600">
        <ele>310.221</ele>
        <time>2020-05-21T07:17:50Z</time>
      </trkpt>
      <trkpt lat="43.302960" lon="-6.232620">
        <ele>308.508</ele>
        <time>2020-05-21T07:18:10Z</time>
      </trkpt>
      <trkpt lat="43.302900" lon="-6.232620">
        <ele>308.263</ele>
        <time>2020-05-21T07:18:30Z</time>
      </trkpt>
      <trkpt lat="43.302850" lon="-6.232610">
        <ele>308.688</ele>
        <time>2020-05-21T07:18:50Z</time>
      </trkpt>
      <trkpt lat="43.302780" lon="-6.232580">
        <ele>310.115</ele>
        <time>2020-05-21T07:19:10Z</time>
      </trkpt>
      <trkpt lat="43.302720" lon="-6.232560">
        <ele>310.311</ele>
        <time>2020-05-21T07:19:30Z</time>
      </trkpt>
      <trkpt lat="43.302670" lon="-6.232560">
        <ele>309.330</ele>
        <time>2020-05-21T07:19:50Z</time>
      </trkpt>
      <trkpt lat="43.302610" lon="-6.232570">
        <ele>307.761</ele>
        <time>2020-05-21T07:20:10Z</time>
      </trkpt>
      <trkpt lat="43.302480" lon="-6.232610">
        <ele>303.720</ele>
        <time>2020-05-21T07:20:30Z</time>
      </trkpt>
      <trkpt lat="43.302400" lon="-6.232630">
        <ele>302.243</ele>
        <time>2020-05-21T07:20:50Z</time>
      </trkpt>
      <trkpt lat="43.302370" lon="-6.232630">
        <ele>301.944</ele>
        <time>2020-05-21T07:21:10Z</time>
      </trkpt>
      <trkpt lat="43.302320" lon="-6.232630">
        <ele>301.605</ele>
        <time>2020-05-21T07:21:30Z</time>
      </trkpt>
      <trkpt lat="43.302250" lon="-6.232620">
        <ele>301.515</ele>
        <time>2020-05-21T07:21:50Z</time>
      </trkpt>
      <trkpt lat="43.302190" lon="-6.232580">
        <ele>302.608</ele>
        <time>2020-05-21T07:22:10Z</time>
      </trkpt>
      <trkpt lat="43.302130" lon="-6.232520">
        <ele>304.558</ele>
        <time>2020-05-21T07:22:30Z</time>
      </trkpt>
      <trkpt lat="43.302050" lon="-6.232470">
        <ele>305.913</ele>
        <time>2020-05-21T07:22:50Z</time>
      </trkpt>
      <trkpt lat="43.301960" lon="-6.232430">
        <ele>306.920</ele>
        <time>2020-05-21T07:23:10Z</time>
      </trkpt>
      <trkpt lat="43.301880" lon="-6.232420">
        <ele>305.536</ele>
        <time>2020-05-21T07:23:30Z</time>
      </trkpt>
      <trkpt lat="43.301860" lon="-6.232420">
        <ele>305.045</ele>
        <time>2020-05-21T07:23:50Z</time>
      </trkpt>
      <trkpt lat="43.301790" lon="-6.232430">
        <ele>302.956</ele>
        <time>2020-05-21T07:24:10Z</time>
      </trkpt>
      <trkpt lat="43.301700" lon="-6.232450">
        <ele>299.885</ele>
        <time>2020-05-21T07:24:30Z</time>
      </trkpt>
      <trkpt lat="43.301680" lon="-6.232460">
        <ele>298.928</ele>
        <time>2020-05-21T07:24:50Z</time>
      </trkpt>
      <trkpt lat="43.301570" lon="-6.232500">
        <ele>294.229</ele>
        <time>2020-05-21T07:25:10Z</time>
      </trkpt>
      <trkpt lat="43.301420" lon="-6.232560">
        <ele>287.300</ele>
        <time>2020-05-21T07:25:30Z</time>
      </trkpt>
      <trkpt lat="43.301370" lon="-6.232580">
        <ele>285.420</ele>
        <time>2020-05-21T07:25:50Z</time>
      </trkpt>
      <trkpt lat="43.301340" lon="-6.232590">
        <ele>284.808</ele>
        <time>2020-05-21T07:26:10Z</time>
      </trkpt>
      <trkpt lat="43.301310" lon="-6.232590">
        <ele>284.596</ele>
        <time>2020-05-21T07:26:30Z</time>
      </trkpt>
      <trkpt lat="43.301210" lon="-6.232600">
        <ele>283.411</ele>
        <time>2020-05-21T07:26:50Z</time>
      </trkpt>
      <trkpt lat="43.301160" lon="-6.232590">
        <ele>283.548</ele>
        <time>2020-05-21T07:27:10Z</time>
      </trkpt>
      <trkpt lat="43.301110" lon="-6.232590">
        <ele>283.114</ele>
        <time>2020-05-21T07:27:30Z</time>
      </trkpt>
      <trkpt lat="43.301020" lon="-6.232580">
        <ele>284.663</ele>
        <time>2020-05-21T07:27:50Z</time>
      </trkpt>
      <trkpt lat="43.300920" lon="-6.232570">
        <ele>286.264</ele>
        <time>2020-05-21T07:28:10Z</time>
      </trkpt>
      <trkpt lat="43.300860" lon="-6.232570">
        <ele>286.923</ele>
        <time>2020-05-21T07:28:30Z</time>
      </trkpt>
      <trkpt lat="43.300800" lon="-6.232590">
        <ele>286.346</ele>
        <time>2020-05-21T07:28:50Z</time>
      </trkpt>
      <trkpt lat="43.300750" lon="-6.232600">
        <ele>286.113</ele>
        <time>2020-05-21T07:29:10Z</time>
      </trkpt>
      <trkpt lat="43.300630" lon="-6.232650">
        <ele>283.543</ele>
        <time>2020-05-21T07:29:30Z</time>
      </trkpt>
      <trkpt lat="43.300310" lon="-6.232700">
        <ele>273.207</ele>
        <time>2020-05-21T07:29:50Z</time>
      </trkpt>
      <trkpt lat="43.300220" lon="-6.232710">
        <ele>270.108</ele>
        <time>2020-05-21T07:30:10Z</time>
      </trkpt>
      <trkpt lat="43.300140" lon="-6.232670">
        <ele>270.775</ele>
        <time>2020-05-21T07:30:30Z</time>
      </trkpt>
      <trkpt lat="43.300020" lon="-6.232600">
        <ele>272.190</ele>
        <time>2020-05-21T07:30:50Z</time>
      </trkpt>
      <trkpt lat="43.299920" lon="-6.232570">
        <ele>270.247</ele>
        <time>2020-05-21T07:31:10Z</time>
      </trkpt>
      <trkpt lat="43.299830" lon="-6.232540">
        <ele>268.393</ele>
        <time>2020-05-21T07:31:30Z</time>
      </trkpt>
      <trkpt lat="43.299750" lon="-6.232520">
        <ele>266.152</ele>
        <time>2020-05-21T07:31:50Z</time>
      </trkpt>
      <trkpt lat="43.299730" lon="-6.232520">
        <ele>265.213</ele>
        <time>2020-05-21T07:32:10Z</time>
      </trkpt>
      <trkpt lat="43.299640" lon="-6.232510">
        <ele>262.222</ele>
        <time>2020-05-21T07:32:30Z</time>
      </trkpt>
      <trkpt lat="43.299570" lon="-6.232480">
        <ele>261.155</ele>
        <time>2020-05-21T07:32:50Z</time>
      </trkpt>
      <trkpt lat="43.299560" lon="-6.232470">
        <ele>261.212</ele>
        <time>2020-05-21T07:33:10Z</time>
      </trkpt>
      <trkpt lat="43.299440" lon="-6.232400">
        <ele>259.732</ele>
        <time>2020-05-21T07:33:30Z</time>
      </trkpt>
      <trkpt lat="43.299410" lon="-6.232370">
        <ele>259.205</ele>
        <time>2020-05-21T07:33:50Z</time>
      </trkpt>
      <trkpt lat="43.299320" lon="-6.232270">
        <ele>258.108</ele>
        <time>2020-05-21T07:34:10Z</time>
      </trkpt>
      <trkpt lat="43.299260" lon="-6.232180">
        <ele>258.085</ele>
        <time>2020-05-21T07:34:30Z</time>
      </trkpt>
      <trkpt lat="43.299240" lon="-6.232120">
        <ele>258.840</ele>
        <time>2020-05-21T07:34:50Z</time>
      </trkpt>
      <trkpt lat="43.299220" lon="-6.232020">
        <ele>261.147</ele>
        <time>2020-05-21T07:35:10Z</time>
      </trkpt>
      <trkpt lat="43.299200" lon="-6.231980">
        <ele>261.133</ele>
        <time>2020-05-21T07:35:30Z</time>
      </trkpt>
      <trkpt lat="43.299170" lon="-6.231880">
        <ele>261.962</ele>
        <time>2020-05-21T07:35:50Z</time>
      </trkpt>
      <trkpt lat="43.299110" lon="-6.231770">
        <ele>261.163</ele>
        <time>2020-05-21T07:36:10Z</time>
      </trkpt>
      <trkpt lat="43.299090" lon="-6.231740">
        <ele>260.742</ele>
        <time>2020-05-21T07:36:30Z</time>
      </trkpt>
      <trkpt lat="43.298990" lon="-6.231610">
        <ele>258.325</ele>
        <time>2020-05-21T07:36:50Z</time>
      </trkpt>
      <trkpt lat="43.298780" lon="-6.231390">
        <ele>253.994</ele>
        <time>2020-05-21T07:37:10Z</time>
      </trkpt>
      <trkpt lat="43.298570" lon="-6.231150">
        <ele>251.957</ele>
        <time>2020-05-21T07:37:30Z</time>
      </trkpt>
      <trkpt lat="43.298410" lon="-6.230910">
        <ele>254.822</ele>
        <time>2020-05-21T07:37:50Z</time>
      </trkpt>
      <trkpt lat="43.298320" lon="-6.230750">
        <ele>255.708</ele>
        <time>2020-05-21T07:38:10Z</time>
      </trkpt>
      <trkpt lat="43.298190" lon="-6.230470">
        <ele>252.743</ele>
        <time>2020-05-21T07:38:30Z</time>
      </trkpt>
      <trkpt lat="43.298140" lon="-6.230340">
        <ele>250.998</ele>
        <time>2020-05-21T07:38:50Z</time>
      </trkpt>
      <trkpt lat="43.298050" lon="-6.230130">
        <ele>246.715</ele>
        <time>2020-05-21T07:39:10Z</time>
      </trkpt>
      <trkpt lat="43.297730" lon="-6.229500">
        <ele>235.691</ele>
        <time>2020-05-21T07:39:30Z</time>
      </trkpt>
      <trkpt lat="43.297480" lon="-6.229030">
        <ele>231.520</ele>
        <time>2020-05-21T07:39:50Z</time>
      </trkpt>
      <trkpt lat="43.297410" lon="-6.228930">
        <ele>230.051</ele>
        <time>2020-05-21T07:40:10Z</time>
      </trkpt>
      <trkpt lat="43.297290" lon="-6.228770">
        <ele>227.370</ele>
        <time>2020-05-21T07:40:30Z</time>
      </trkpt>
      <trkpt lat="43.296920" lon="-6.228140">
        <ele>219.853</ele>
        <time>2020-05-21T07:40:50Z</time>
      </trkpt>
      <trkpt lat="43.296620" lon="-6.227670">
        <ele>211.463</ele>
        <time>2020-05-21T07:41:10Z</time>
      </trkpt>
      <trkpt lat="43.296020" lon="-6.226930">
        <ele>205.744</ele>
        <time>2020-05-21T07:41:30Z</time>
      </trkpt>
      <trkpt lat="43.295720" lon="-6.226580">
        <ele>203.418</ele>
        <time>2020-05-21T07:41:50Z</time>
      </trkpt>
      <trkpt lat="43.295690" lon="-6.226570">
        <ele>203.008</ele>
        <time>2020-05-21T07:42:10Z</time>
      </trkpt>
      <trkpt lat="43.295660" lon="-6.226560">
        <ele>202.710</ele>
        <time>2020-05-21T07:42:30Z</time>
      </trkpt>
      <trkpt lat="43.295620" lon="-6.226560">
        <ele>201.885</ele>
        <time>2020-05-21T07:42:50Z</time>
      </trkpt>
      <trkpt lat="43.295520" lon="-6.226590">
        <ele>199.392</ele>
        <time>2020-05-21T07:43:10Z</time>
      </trkpt>
      <trkpt lat="43.295490" lon="-6.226600">
        <ele>198.758</ele>
        <time>2020-05-21T07:43:30Z</time>
      </trkpt>
      <trkpt lat="43.295440" lon="-6.226620">
        <ele>197.867</ele>
        <time>2020-05-21T07:43:50Z</time>
      </trkpt>
      <trkpt lat="43.295370" lon="-6.226630">
        <ele>196.978</ele>
        <time>2020-05-21T07:44:10Z</time>
      </trkpt>
      <trkpt lat="43.295170" lon="-6.226640">
        <ele>195.677</ele>
        <time>2020-05-21T07:44:30Z</time>
      </trkpt>
      <trkpt lat="43.294960" lon="-6.226650">
        <ele>194.220</ele>
        <time>2020-05-21T07:44:50Z</time>
      </trkpt>
      <trkpt lat="43.294780" lon="-6.226660">
        <ele>191.999</ele>
        <time>2020-05-21T07:45:10Z</time>
      </trkpt>
      <trkpt lat="43.294760" lon="-6.226660">
        <ele>191.707</ele>
        <time>2020-05-21T07:45:30Z</time>
      </trkpt>
      <trkpt lat="43.294380" lon="-6.226700">
        <ele>188.527</ele>
        <time>2020-05-21T07:45:50Z</time>
      </trkpt>
      <trkpt lat="43.294170" lon="-6.226730">
        <ele>188.208</ele>
        <time>2020-05-21T07:46:10Z</time>
      </trkpt>
      <trkpt lat="43.294090" lon="-6.226730">
        <ele>187.763</ele>
        <time>2020-05-21T07:46:30Z</time>
      </trkpt>
      <trkpt lat="43.294060" lon="-6.226730">
        <ele>187.538</ele>
        <time>2020-05-21T07:46:50Z</time>
      </trkpt>
      <trkpt lat="43.294040" lon="-6.226730">
        <ele>187.485</ele>
        <time>2020-05-21T07:47:10Z</time>
      </trkpt>
      <trkpt lat="43.293990" lon="-6.226730">
        <ele>187.041</ele>
        <time>2020-05-21T07:47:30Z</time>
      </trkpt>
      <trkpt lat="43.293900" lon="-6.226700">
        <ele>187.270</ele>
        <time>2020-05-21T07:47:50Z</time>
      </trkpt>
      <trkpt lat="43.293840" lon="-6.226680">
        <ele>187.381</ele>
        <time>2020-05-21T07:48:10Z</time>
      </trkpt>
      <trkpt lat="43.293790" lon="-6.226660">
        <ele>187.560</ele>
        <time>2020-05-21T07:48:30Z</time>
      </trkpt>
      <trkpt lat="43.293730" lon="-6.226630">
        <ele>187.733</ele>
        <time>2020-05-21T07:48:50Z</time>
      </trkpt>
      <trkpt lat="43.293710" lon="-6.226630">
        <ele>187.598</ele>
        <time>2020-05-21T07:49:10Z</time>
      </trkpt>
      <trkpt lat="43.293680" lon="-6.226620">
        <ele>187.415</ele>
        <time>2020-05-21T07:49:30Z</time>
      </trkpt>
      <trkpt lat="43.293640" lon="-6.226620">
        <ele>187.026</ele>
        <time>2020-05-21T07:49:50Z</time>
      </trkpt>
      <trkpt lat="43.293600" lon="-6.226630">
        <ele>186.608</ele>
        <time>2020-05-21T07:50:10Z</time>
      </trkpt>
      <trkpt lat="43.293470" lon="-6.226700">
        <ele>187.563</ele>
        <time>2020-05-21T07:50:30Z</time>
      </trkpt>
      <trkpt lat="43.293360" lon="-6.226760">
        <ele>189.268</ele>
        <time>2020-05-21T07:50:50Z</time>
      </trkpt>
      <trkpt lat="43.293364" lon="-6.226757">
        <ele>189.145</ele>
        <time>2020-05-21T07:51:10Z</time>
      </trkpt>
      <trkpt lat="43.293110" lon="-6.226150">
        <ele>201.111</ele>
        <time>2020-05-21T07:51:30Z</time>
      </trkpt>
      <trkpt lat="43.293010" lon="-6.225880">
        <ele>205.120</ele>
        <time>2020-05-21T07:51:50Z</time>
      </trkpt>
      <trkpt lat="43.292920" lon="-6.225640">
        <ele>207.991</ele>
        <time>2020-05-21T07:52:10Z</time>
      </trkpt>
      <trkpt lat="43.292780" lon="-6.225210">
        <ele>202.360</ele>
        <time>2020-05-21T07:52:30Z</time>
      </trkpt>
      <trkpt lat="43.292750" lon="-6.225120">
        <ele>202.033</ele>
        <time>2020-05-21T07:52:50Z</time>
      </trkpt>
      <trkpt lat="43.292690" lon="-6.224970">
        <ele>201.338</ele>
        <time>2020-05-21T07:53:10Z</time>
      </trkpt>
      <trkpt lat="43.292640" lon="-6.224890">
        <ele>201.370</ele>
        <time>2020-05-21T07:53:30Z</time>
      </trkpt>
      <trkpt lat="43.292620" lon="-6.224860">
        <ele>201.217</ele>
        <time>2020-05-21T07:53:50Z</time>
      </trkpt>
      <trkpt lat="43.292600" lon="-6.224820">
        <ele>200.908</ele>
        <time>2020-05-21T07:54:10Z</time>
      </trkpt>
      <trkpt lat="43.292560" lon="-6.224790">
        <ele>200.887</ele>
        <time>2020-05-21T07:54:30Z</time>
      </trkpt>
      <trkpt lat="43.292500" lon="-6.224740">
        <ele>200.382</ele>
        <time>2020-05-21T07:54:50Z</time>
      </trkpt>
      <trkpt lat="43.292360" lon="-6.224660">
        <ele>197.649</ele>
        <time>2020-05-21T07:55:10Z</time>
      </trkpt>
      <trkpt lat="43.292270" lon="-6.224640">
        <ele>196.375</ele>
        <time>2020-05-21T07:55:30Z</time>
      </trkpt>
      <trkpt lat="43.292250" lon="-6.224650">
        <ele>196.354</ele>
        <time>2020-05-21T07:55:50Z</time>
      </trkpt>
      <trkpt lat="43.292170" lon="-6.224660">
        <ele>195.225</ele>
        <time>2020-05-21T07:56:10Z</time>
      </trkpt>
      <trkpt lat="43.292070" lon="-6.224710">
        <ele>194.114</ele>
        <time>2020-05-21T07:56:30Z</time>
      </trkpt>
      <trkpt lat="43.291890" lon="-6.224880">
        <ele>196.087</ele>
        <time>2020-05-21T07:56:50Z</time>
      </trkpt>
      <trkpt lat="43.291680" lon="-6.225130">
        <ele>202.341</ele>
        <time>2020-05-21T07:57:10Z</time>
      </trkpt>
      <trkpt lat="43.291560" lon="-6.225250">
        <ele>203.381</ele>
        <time>2020-05-21T07:57:30Z</time>
      </trkpt>
      <trkpt lat="43.291430" lon="-6.225330">
        <ele>201.209</ele>
        <time>2020-05-21T07:57:50Z</time>
      </trkpt>
      <trkpt lat="43.291310" lon="-6.225400">
        <ele>200.708</ele>
        <time>2020-05-21T07:58:10Z</time>
      </trkpt>
      <trkpt lat="43.291210" lon="-6.225430">
        <ele>200.038</ele>
        <time>2020-05-21T07:58:30Z</time>
      </trkpt>
      <trkpt lat="43.291150" lon="-6.225450">
        <ele>199.683</ele>
        <time>2020-05-21T07:58:50Z</time>
      </trkpt>
      <trkpt lat="43.291050" lon="-6.225450">
        <ele>199.660</ele>
        <time>2020-05-21T07:59:10Z</time>
      </trkpt>
      <trkpt lat="43.290870" lon="-6.225440">
        <ele>201.376</ele>
        <time>2020-05-21T07:59:30Z</time>
      </trkpt>
      <trkpt lat="43.290790" lon="-6.225440">
        <ele>201.835</ele>
        <time>2020-05-21T07:59:50Z</time>
      </trkpt>
      <trkpt lat="43.290640" lon="-6.225430">
        <ele>202.336</ele>
        <time>2020-05-21T08:00:10Z</time>
      </trkpt>
      <trkpt lat="43.290610" lon="-6.225430">
        <ele>202.415</ele>
        <time>2020-05-21T08:00:30Z</time>
      </trkpt>
      <trkpt lat="43.290520" lon="-6.225430">
        <ele>202.128</ele>
        <time>2020-05-21T08:00:50Z</time>
      </trkpt>
      <trkpt lat="43.290420" lon="-6.225440">
        <ele>200.988</ele>
        <time>2020-05-21T08:01:10Z</time>
      </trkpt>
      <trkpt lat="43.290340" lon="-6.225460">
        <ele>200.124</ele>
        <time>2020-05-21T08:01:30Z</time>
      </trkpt>
      <trkpt lat="43.290280" lon="-6.225490">
        <ele>199.826</ele>
        <time>2020-05-21T08:01:50Z</time>
      </trkpt>
      <trkpt lat="43.290140" lon="-6.225580">
        <ele>201.608</ele>
        <time>2020-05-21T08:02:10Z</time>
      </trkpt>
      <trkpt lat="43.290060" lon="-6.225610">
        <ele>202.782</ele>
        <time>2020-05-21T08:02:30Z</time>
      </trkpt>
      <trkpt lat="43.290020" lon="-6.225620">
        <ele>202.957</ele>
        <time>2020-05-21T08:02:50Z</time>
      </trkpt>
      <trkpt lat="43.289940" lon="-6.225630">
        <ele>201.934</ele>
        <time>2020-05-21T08:03:10Z</time>
      </trkpt>
      <trkpt lat="43.289840" lon="-6.225620">
        <ele>199.270</ele>
        <time>2020-05-21T08:03:30Z</time>
      </trkpt>
      <trkpt lat="43.289740" lon="-6.225600">
        <ele>196.239</ele>
        <time>2020-05-21T08:03:50Z</time>
      </trkpt>
      <trkpt lat="43.289630" lon="-6.225570">
        <ele>194.260</ele>
        <time>2020-05-21T08:04:10Z</time>
      </trkpt>
      <trkpt lat="43.289570" lon="-6.225550">
        <ele>193.429</ele>
        <time>2020-05-21T08:04:30Z</time>
      </trkpt>
      <trkpt lat="43.289550" lon="-6.225540">
        <ele>193.132</ele>
        <time>2020-05-21T08:04:50Z</time>
      </trkpt>
      <trkpt lat="43.289410" lon="-6.225480">
        <ele>191.842</ele>
        <time>2020-05-21T08:05:10Z</time>
      </trkpt>
      <trkpt lat="43.289230" lon="-6.225380">
        <ele>191.622</ele>
        <time>2020-05-21T08:05:30Z</time>
      </trkpt>
      <trkpt lat="43.289170" lon="-6.225350">
        <ele>191.814</ele>
        <time>2020-05-21T08:05:50Z</time>
      </trkpt>
      <trkpt lat="43.289060" lon="-6.225270">
        <ele>194.008</ele>
        <time>2020-05-21T08:06:10Z</time>
      </trkpt>
      <trkpt lat="43.288980" lon="-6.225210">
        <ele>195.428</ele>
        <time>2020-05-21T08:06:30Z</time>
      </trkpt>
      <trkpt lat="43.288910" lon="-6.225150">
        <ele>196.653</ele>
        <time>2020-05-21T08:06:50Z</time>
      </trkpt>
      <trkpt lat="43.288810" lon="-6.225050">
        <ele>198.490</ele>
        <time>2020-05-21T08:07:10Z</time>
      </trkpt>
      <trkpt lat="43.288670" lon="-6.224880">
        <ele>198.246</ele>
        <time>2020-05-21T08:07:30Z</time>
      </trkpt>
      <trkpt lat="43.288450" lon="-6.224590">
        <ele>197.885</ele>
        <time>2020-05-21T08:07:50Z</time>
      </trkpt>
      <trkpt lat="43.288390" lon="-6.224470">
        <ele>197.446</ele>
        <time>2020-05-21T08:08:10Z</time>
      </trkpt>
      <trkpt lat="43.288220" lon="-6.224180">
        <ele>198.985</ele>
        <time>2020-05-21T08:08:30Z</time>
      </trkpt>
      <trkpt lat="43.288210" lon="-6.224150">
        <ele>198.878</ele>
        <time>2020-05-21T08:08:50Z</time>
      </trkpt>
      <trkpt lat="43.288120" lon="-6.223930">
        <ele>199.645</ele>
        <time>2020-05-21T08:09:10Z</time>
      </trkpt>
      <trkpt lat="43.288040" lon="-6.223710">
        <ele>201.647</ele>
        <time>2020-05-21T08:09:30Z</time>
      </trkpt>
      <trkpt lat="43.288040" lon="-6.223700">
        <ele>201.611</ele>
        <time>2020-05-21T08:09:50Z</time>
      </trkpt>
      <trkpt lat="43.287980" lon="-6.223570">
        <ele>203.808</ele>
        <time>2020-05-21T08:10:10Z</time>
      </trkpt>
      <trkpt lat="43.287930" lon="-6.223330">
        <ele>203.288</ele>
        <time>2020-05-21T08:10:30Z</time>
      </trkpt>
      <trkpt lat="43.287880" lon="-6.223090">
        <ele>202.783</ele>
        <time>2020-05-21T08:10:50Z</time>
      </trkpt>
      <trkpt lat="43.287820" lon="-6.222860">
        <ele>200.660</ele>
        <time>2020-05-21T08:11:10Z</time>
      </trkpt>
      <trkpt lat="43.287780" lon="-6.222720">
        <ele>198.786</ele>
        <time>2020-05-21T08:11:30Z</time>
      </trkpt>
      <trkpt lat="43.287660" lon="-6.222420">
        <ele>195.725</ele>
        <time>2020-05-21T08:11:50Z</time>
      </trkpt>
      <trkpt lat="43.287660" lon="-6.222410">
        <ele>195.546</ele>
        <time>2020-05-21T08:12:10Z</time>
      </trkpt>
      <trkpt lat="43.287570" lon="-6.222200">
        <ele>194.375</ele>
        <time>2020-05-21T08:12:30Z</time>
      </trkpt>
      <trkpt lat="43.287520" lon="-6.222090">
        <ele>194.318</ele>
        <time>2020-05-21T08:12:50Z</time>
      </trkpt>
      <trkpt lat="43.287470" lon="-6.222000">
        <ele>194.922</ele>
        <time>2020-05-21T08:13:10Z</time>
      </trkpt>
      <trkpt lat="43.287440" lon="-6.221950">
        <ele>195.762</ele>
        <time>2020-05-21T08:13:30Z</time>
      </trkpt>
      <trkpt lat="43.287360" lon="-6.221810">
        <ele>197.608</ele>
        <time>2020-05-21T08:13:50Z</time>
      </trkpt>
      <trkpt lat="43.287330" lon="-6.221760">
        <ele>197.908</ele>
        <time>2020-05-21T08:14:10Z</time>
      </trkpt>
      <trkpt lat="43.287240" lon="-6.221620">
        <ele>197.836</ele>
        <time>2020-05-21T08:14:30Z</time>
      </trkpt>
      <trkpt lat="43.287120" lon="-6.221440">
        <ele>199.611</ele>
        <time>2020-05-21T08:14:50Z</time>
      </trkpt>
      <trkpt lat="43.287000" lon="-6.221250">
        <ele>199.378</ele>
        <time>2020-05-21T08:15:10Z</time>
      </trkpt>
      <trkpt lat="43.286970" lon="-6.221210">
        <ele>198.974</ele>
        <time>2020-05-21T08:15:30Z</time>
      </trkpt>
      <trkpt lat="43.286730" lon="-6.220890">
        <ele>200.643</ele>
        <time>2020-05-21T08:15:50Z</time>
      </trkpt>
      <trkpt lat="43.286670" lon="-6.220810">
        <ele>199.464</ele>
        <time>2020-05-21T08:16:10Z</time>
      </trkpt>
      <trkpt lat="43.286560" lon="-6.220690">
        <ele>200.363</ele>
        <time>2020-05-21T08:16:30Z</time>
      </trkpt>
      <trkpt lat="43.286490" lon="-6.220600">
        <ele>199.486</ele>
        <time>2020-05-21T08:16:50Z</time>
      </trkpt>
      <trkpt lat="43.286120" lon="-6.220060">
        <ele>199.266</ele>
        <time>2020-05-21T08:17:10Z</time>
      </trkpt>
      <trkpt lat="43.285610" lon="-6.219320">
        <ele>196.529</ele>
        <time>2020-05-21T08:17:30Z</time>
      </trkpt>
      <trkpt lat="43.285350" lon="-6.218920">
        <ele>198.321</ele>
        <time>2020-05-21T08:17:50Z</time>
      </trkpt>
      <trkpt lat="43.285300" lon="-6.218850">
        <ele>198.508</ele>
        <time>2020-05-21T08:18:10Z</time>
      </trkpt>
      <trkpt lat="43.284950" lon="-6.218290">
        <ele>196.820</ele>
        <time>2020-05-21T08:18:30Z</time>
      </trkpt>
      <trkpt lat="43.284840" lon="-6.218110">
        <ele>195.555</ele>
        <time>2020-05-21T08:18:50Z</time>
      </trkpt>
      <trkpt lat="43.284810" lon="-6.218060">
        <ele>195.022</ele>
        <time>2020-05-21T08:19:10Z</time>
      </trkpt>
      <trkpt lat="43.284780" lon="-6.218020">
        <ele>195.128</ele>
        <time>2020-05-21T08:19:30Z</time>
      </trkpt>
      <trkpt lat="43.284750" lon="-6.218000">
        <ele>195.217</ele>
        <time>2020-05-21T08:19:50Z</time>
      </trkpt>
      <trkpt lat="43.284700" lon="-6.217950">
        <ele>195.848</ele>
        <time>2020-05-21T08:20:10Z</time>
      </trkpt>
      <trkpt lat="43.284600" lon="-6.217900">
        <ele>197.737</ele>
        <time>2020-05-21T08:20:30Z</time>
      </trkpt>
      <trkpt lat="43.284460" lon="-6.217860">
        <ele>200.050</ele>
        <time>2020-05-21T08:20:50Z</time>
      </trkpt>
      <trkpt lat="43.284420" lon="-6.217850">
        <ele>200.456</ele>
        <time>2020-05-21T08:21:10Z</time>
      </trkpt>
      <trkpt lat="43.284400" lon="-6.217850">
        <ele>200.559</ele>
        <time>2020-05-21T08:21:30Z</time>
      </trkpt>
      <trkpt lat="43.284380" lon="-6.217840">
        <ele>200.614</ele>
        <time>2020-05-21T08:21:50Z</time>
      </trkpt>
      <trkpt lat="43.284360" lon="-6.217850">
        <ele>200.708</ele>
        <time>2020-05-21T08:22:10Z</time>
      </trkpt>
      <trkpt lat="43.284300" lon="-6.217860">
        <ele>201.129</ele>
        <time>2020-05-21T08:22:30Z</time>
      </trkpt>
      <trkpt lat="43.284240" lon="-6.217870">
        <ele>201.644</ele>
        <time>2020-05-21T08:22:50Z</time>
      </trkpt>
      <trkpt lat="43.284200" lon="-6.217880">
        <ele>201.961</ele>
        <time>2020-05-21T08:23:10Z</time>
      </trkpt>
      <trkpt lat="43.284010" lon="-6.217950">
        <ele>202.657</ele>
        <time>2020-05-21T08:23:30Z</time>
      </trkpt>
      <trkpt lat="43.283840" lon="-6.218030">
        <ele>203.396</ele>
        <time>2020-05-21T08:23:50Z</time>
      </trkpt>
      <trkpt lat="43.283800" lon="-6.218060">
        <ele>203.557</ele>
        <time>2020-05-21T08:24:10Z</time>
      </trkpt>
      <trkpt lat="43.283670" lon="-6.218140">
        <ele>204.646</ele>
        <time>2020-05-21T08:24:30Z</time>
      </trkpt>
      <trkpt lat="43.283450" lon="-6.218290">
        <ele>206.819</ele>
        <time>2020-05-21T08:24:50Z</time>
      </trkpt>
      <trkpt lat="43.283210" lon="-6.218470">
        <ele>210.669</ele>
        <time>2020-05-21T08:25:10Z</time>
      </trkpt>
      <trkpt lat="43.283130" lon="-6.218570">
        <ele>211.804</ele>
        <time>2020-05-21T08:25:30Z</time>
      </trkpt>
      <trkpt lat="43.282870" lon="-6.218770">
        <ele>211.324</ele>
        <time>2020-05-21T08:25:50Z</time>
      </trkpt>
      <trkpt lat="43.282310" lon="-6.219030">
        <ele>213.908</ele>
        <time>2020-05-21T08:26:10Z</time>
      </trkpt>
      <trkpt lat="43.281960" lon="-6.219230">
        <ele>218.590</ele>
        <time>2020-05-21T08:26:30Z</time>
      </trkpt>
      <trkpt lat="43.281780" lon="-6.219350">
        <ele>220.465</ele>
        <time>2020-05-21T08:26:50Z</time>
      </trkpt>
      <trkpt lat="43.281690" lon="-6.219440">
        <ele>222.252</ele>
        <time>2020-05-21T08:27:10Z</time>
      </trkpt>
      <trkpt lat="43.281600" lon="-6.219460">
        <ele>221.768</ele>
        <time>2020-05-21T08:27:30Z</time>
      </trkpt>
      <trkpt lat="43.281530" lon="-6.219460">
        <ele>220.897</ele>
        <time>2020-05-21T08:27:50Z</time>
      </trkpt>
      <trkpt lat="43.281400" lon="-6.219410">
        <ele>216.878</ele>
        <time>2020-05-21T08:28:10Z</time>
      </trkpt>
      <trkpt lat="43.281140" lon="-6.219290">
        <ele>211.177</ele>
        <time>2020-05-21T08:28:30Z</time>
      </trkpt>
      <trkpt lat="43.280710" lon="-6.219100">
        <ele>207.740</ele>
        <time>2020-05-21T08:28:50Z</time>
      </trkpt>
      <trkpt lat="43.280640" lon="-6.219070">
        <ele>208.342</ele>
        <time>2020-05-21T08:29:10Z</time>
      </trkpt>
      <trkpt lat="43.280070" lon="-6.218810">
        <ele>208.222</ele>
        <time>2020-05-21T08:29:30Z</time>
      </trkpt>
      <trkpt lat="43.279950" lon="-6.218760">
        <ele>207.714</ele>
        <time>2020-05-21T08:29:50Z</time>
      </trkpt>
      <trkpt lat="43.279890" lon="-6.218730">
        <ele>207.508</ele>
        <time>2020-05-21T08:30:10Z</time>
      </trkpt>
      <trkpt lat="43.279820" lon="-6.218710">
        <ele>207.378</ele>
        <time>2020-05-21T08:30:30Z</time>
      </trkpt>
      <trkpt lat="43.279790" lon="-6.218710">
        <ele>207.363</ele>
        <time>2020-05-21T08:30:50Z</time>
      </trkpt>
      <trkpt lat="43.279730" lon="-6.218710">
        <ele>207.460</ele>
        <time>2020-05-21T08:31:10Z</time>
      </trkpt>
      <trkpt lat="43.279680" lon="-6.218710">
        <ele>207.726</ele>
        <time>2020-05-21T08:31:30Z</time>
      </trkpt>
      <trkpt lat="43.279650" lon="-6.218710">
        <ele>207.955</ele>
        <time>2020-05-21T08:31:50Z</time>
      </trkpt>
      <trkpt lat="43.279600" lon="-6.218720">
        <ele>208.466</ele>
        <time>2020-05-21T08:32:10Z</time>
      </trkpt>
      <trkpt lat="43.279530" lon="-6.218730">
        <ele>209.145</ele>
        <time>2020-05-21T08:32:30Z</time>
      </trkpt>
      <trkpt lat="43.279310" lon="-6.218780">
        <ele>212.088</ele>
        <time>2020-05-21T08:32:50Z</time>
      </trkpt>
      <trkpt lat="43.279300" lon="-6.218790">
        <ele>212.319</ele>
        <time>2020-05-21T08:33:10Z</time>
      </trkpt>
      <trkpt lat="43.279210" lon="-6.218810">
        <ele>213.809</ele>
        <time>2020-05-21T08:33:30Z</time>
      </trkpt>
      <trkpt lat="43.279140" lon="-6.218820">
        <ele>214.419</ele>
        <time>2020-05-21T08:33:50Z</time>
      </trkpt>
      <trkpt lat="43.279080" lon="-6.218830">
        <ele>214.208</ele>
        <time>2020-05-21T08:34:10Z</time>
      </trkpt>
      <trkpt lat="43.278940" lon="-6.218860">
        <ele>213.995</ele>
        <time>2020-05-21T08:34:30Z</time>
      </trkpt>
      <trkpt lat="43.278900" lon="-6.218860">
        <ele>213.750</ele>
        <time>2020-05-21T08:34:50Z</time>
      </trkpt>
      <trkpt lat="43.278850" lon="-6.218870">
        <ele>213.227</ele>
        <time>2020-05-21T08:35:10Z</time>
      </trkpt>
      <trkpt lat="43.278810" lon="-6.218870">
        <ele>212.663</ele>
        <time>2020-05-21T08:35:30Z</time>
      </trkpt>
      <trkpt lat="43.278750" lon="-6.218880">
        <ele>211.992</ele>
        <time>2020-05-21T08:35:50Z</time>
      </trkpt>
      <trkpt lat="43.278680" lon="-6.218880">
        <ele>210.983</ele>
        <time>2020-05-21T08:36:10Z</time>
      </trkpt>
      <trkpt lat="43.278610" lon="-6.218890">
        <ele>210.132</ele>
        <time>2020-05-21T08:36:30Z</time>
      </trkpt>
      <trkpt lat="43.278600" lon="-6.218890">
        <ele>210.355</ele>
        <time>2020-05-21T08:36:50Z</time>
      </trkpt>
      <trkpt lat="43.278550" lon="-6.218890">
        <ele>211.268</ele>
        <time>2020-05-21T08:37:10Z</time>
      </trkpt>
      <trkpt lat="43.278490" lon="-6.218880">
        <ele>212.042</ele>
        <time>2020-05-21T08:37:30Z</time>
      </trkpt>
      <trkpt lat="43.278440" lon="-6.218880">
        <ele>212.926</ele>
        <time>2020-05-21T08:37:50Z</time>
      </trkpt>
      <trkpt lat="43.278420" lon="-6.218880">
        <ele>213.208</ele>
        <time>2020-05-21T08:38:10Z</time>
      </trkpt>
      <trkpt lat="43.278360" lon="-6.218870">
        <ele>214.060</ele>
        <time>2020-05-21T08:38:30Z</time>
      </trkpt>
      <trkpt lat="43.278290" lon="-6.218850">
        <ele>214.725</ele>
        <time>2020-05-21T08:38:50Z</time>
      </trkpt>
      <trkpt lat="43.278170" lon="-6.218820">
        <ele>216.022</ele>
        <time>2020-05-21T08:39:10Z</time>
      </trkpt>
      <trkpt lat="43.278070" lon="-6.218790">
        <ele>216.928</ele>
        <time>2020-05-21T08:39:30Z</time>
      </trkpt>
      <trkpt lat="43.277870" lon="-6.218730">
        <ele>217.887</ele>
        <time>2020-05-21T08:39:50Z</time>
      </trkpt>
      <trkpt lat="43.277710" lon="-6.218680">
        <ele>218.568</ele>
        <time>2020-05-21T08:40:10Z</time>
      </trkpt>
      <trkpt lat="43.277240" lon="-6.218520">
        <ele>221.167</ele>
        <time>2020-05-21T08:40:30Z</time>
      </trkpt>
      <trkpt lat="43.276910" lon="-6.218420">
        <ele>224.580</ele>
        <time>2020-05-21T08:40:50Z</time>
      </trkpt>
      <trkpt lat="43.276890" lon="-6.218410">
        <ele>224.454</ele>
        <time>2020-05-21T08:41:10Z</time>
      </trkpt>
      <trkpt lat="43.276590" lon="-6.218320">
        <ele>225.256</ele>
        <time>2020-05-21T08:41:30Z</time>
      </trkpt>
      <trkpt lat="43.276480" lon="-6.218270">
        <ele>227.511</ele>
        <time>2020-05-21T08:41:50Z</time>
      </trkpt>
      <trkpt lat="43.276370" lon="-6.218220">
        <ele>229.408</ele>
        <time>2020-05-21T08:42:10Z</time>
      </trkpt>
      <trkpt lat="43.276080" lon="-6.218000">
        <ele>227.989</ele>
        <time>2020-05-21T08:42:30Z</time>
      </trkpt>
      <trkpt lat="43.275830" lon="-6.217800">
        <ele>226.154</ele>
        <time>2020-05-21T08:42:50Z</time>
      </trkpt>
      <trkpt lat="43.275760" lon="-6.217750">
        <ele>226.391</ele>
        <time>2020-05-21T08:43:10Z</time>
      </trkpt>
      <trkpt lat="43.275630" lon="-6.217640">
        <ele>226.337</ele>
        <time>2020-05-21T08:43:30Z</time>
      </trkpt>
      <trkpt lat="43.275560" lon="-6.217610">
        <ele>226.916</ele>
        <time>2020-05-21T08:43:50Z</time>
      </trkpt>
      <trkpt lat="43.275500" lon="-6.217580">
        <ele>226.737</ele>
        <time>2020-05-21T08:44:10Z</time>
      </trkpt>
      <trkpt lat="43.275410" lon="-6.217560">
        <ele>227.446</ele>
        <time>2020-05-21T08:44:30Z</time>
      </trkpt>
      <trkpt lat="43.275340" lon="-6.217540">
        <ele>227.749</ele>
        <time>2020-05-21T08:44:50Z</time>
      </trkpt>
      <trkpt lat="43.275260" lon="-6.217530">
        <ele>228.294</ele>
        <time>2020-05-21T08:45:10Z</time>
      </trkpt>
      <trkpt lat="43.275190" lon="-6.217530">
        <ele>228.257</ele>
        <time>2020-05-21T08:45:30Z</time>
      </trkpt>
      <trkpt lat="43.275130" lon="-6.217530">
        <ele>228.122</ele>
        <time>2020-05-21T08:45:50Z</time>
      </trkpt>
      <trkpt lat="43.275070" lon="-6.217540">
        <ele>228.508</ele>
        <time>2020-05-21T08:46:10Z</time>
      </trkpt>
      <trkpt lat="43.274990" lon="-6.217560">
        <ele>229.193</ele>
        <time>2020-05-21T08:46:30Z</time>
      </trkpt>
      <trkpt lat="43.274920" lon="-6.217580">
        <ele>229.288</ele>
        <time>2020-05-21T08:46:50Z</time>
      </trkpt>
      <trkpt lat="43.274830" lon="-6.217610">
        <ele>229.115</ele>
        <time>2020-05-21T08:47:10Z</time>
      </trkpt>
      <trkpt lat="43.274750" lon="-6.217660">
        <ele>229.341</ele>
        <time>2020-05-21T08:47:30Z</time>
      </trkpt>
      <trkpt lat="43.274700" lon="-6.217690">
        <ele>228.870</ele>
        <time>2020-05-21T08:47:50Z</time>
      </trkpt>
      <trkpt lat="43.274650" lon="-6.217730">
        <ele>228.121</ele>
        <time>2020-05-21T08:48:10Z</time>
      </trkpt>
      <trkpt lat="43.274580" lon="-6.217790">
        <ele>227.330</ele>
        <time>2020-05-21T08:48:30Z</time>
      </trkpt>
      <trkpt lat="43.274520" lon="-6.217840">
        <ele>227.083</ele>
        <time>2020-05-21T08:48:50Z</time>
      </trkpt>
      <trkpt lat="43.274460" lon="-6.217910">
        <ele>226.926</ele>
        <time>2020-05-21T08:49:10Z</time>
      </trkpt>
      <trkpt lat="43.274360" lon="-6.218030">
        <ele>226.147</ele>
        <time>2020-05-21T08:49:30Z</time>
      </trkpt>
      <trkpt lat="43.274130" lon="-6.218340">
        <ele>236.511</ele>
        <time>2020-05-21T08:49:50Z</time>
      </trkpt>
      <trkpt lat="43.274080" lon="-6.218410">
        <ele>238.208</ele>
        <time>2020-05-21T08:50:10Z</time>
      </trkpt>
      <trkpt lat="43.273990" lon="-6.218540">
        <ele>240.076</ele>
        <time>2020-05-21T08:50:30Z</time>
      </trkpt>
      <trkpt lat="43.273910" lon="-6.218650">
        <ele>239.351</ele>
        <time>2020-05-21T08:50:50Z</time>
      </trkpt>
      <trkpt lat="43.273880" lon="-6.218690">
        <ele>238.948</ele>
        <time>2020-05-21T08:51:10Z</time>
      </trkpt>
      <trkpt lat="43.273840" lon="-6.218740">
        <ele>238.694</ele>
        <time>2020-05-21T08:51:30Z</time>
      </trkpt>
      <trkpt lat="43.273760" lon="-6.218850">
        <ele>237.173</ele>
        <time>2020-05-21T08:51:50Z</time>
      </trkpt>
      <trkpt lat="43.273700" lon="-6.218930">
        <ele>235.714</ele>
        <time>2020-05-21T08:52:10Z</time>
      </trkpt>
      <trkpt lat="43.273660" lon="-6.218970">
        <ele>234.743</ele>
        <time>2020-05-21T08:52:30Z</time>
      </trkpt>
      <trkpt lat="43.273620" lon="-6.219020">
        <ele>234.316</ele>
        <time>2020-05-21T08:52:50Z</time>
      </trkpt>
      <trkpt lat="43.273540" lon="-6.219120">
        <ele>234.973</ele>
        <time>2020-05-21T08:53:10Z</time>
      </trkpt>
      <trkpt lat="43.273450" lon="-6.219200">
        <ele>232.785</ele>
        <time>2020-05-21T08:53:30Z</time>
      </trkpt>
      <trkpt lat="43.273370" lon="-6.219280">
        <ele>231.213</ele>
        <time>2020-05-21T08:53:50Z</time>
      </trkpt>
      <trkpt lat="43.273270" lon="-6.219370">
        <ele>231.408</ele>
        <time>2020-05-21T08:54:10Z</time>
      </trkpt>
      <trkpt lat="43.273050" lon="-6.219580">
        <ele>231.841</ele>
        <time>2020-05-21T08:54:30Z</time>
      </trkpt>
      <trkpt lat="43.272780" lon="-6.219820">
        <ele>231.726</ele>
        <time>2020-05-21T08:54:50Z</time>
      </trkpt>
      <trkpt lat="43.272510" lon="-6.220060">
        <ele>233.763</ele>
        <time>2020-05-21T08:55:10Z</time>
      </trkpt>
      <trkpt lat="43.272290" lon="-6.220260">
        <ele>231.269</ele>
        <time>2020-05-21T08:55:30Z</time>
      </trkpt>
      <trkpt lat="43.272180" lon="-6.220360">
        <ele>228.958</ele>
        <time>2020-05-21T08:55:50Z</time>
      </trkpt>
      <trkpt lat="43.272020" lon="-6.220500">
        <ele>227.459</ele>
        <time>2020-05-21T08:56:10Z</time>
      </trkpt>
      <trkpt lat="43.271900" lon="-6.220590">
        <ele>226.618</ele>
        <time>2020-05-21T08:56:30Z</time>
      </trkpt>
      <trkpt lat="43.271810" lon="-6.220660">
        <ele>227.781</ele>
        <time>2020-05-21T08:56:50Z</time>
      </trkpt>
      <trkpt lat="43.271730" lon="-6.220720">
        <ele>228.323</ele>
        <time>2020-05-21T08:57:10Z</time>
      </trkpt>
      <trkpt lat="43.271640" lon="-6.220770">
        <ele>228.083</ele>
        <time>2020-05-21T08:57:30Z</time>
      </trkpt>
      <trkpt lat="43.271550" lon="-6.220830">
        <ele>227.011</ele>
        <time>2020-05-21T08:57:50Z</time>
      </trkpt>
      <trkpt lat="43.271470" lon="-6.220880">
        <ele>227.508</ele>
        <time>2020-05-21T08:58:10Z</time>
      </trkpt>
      <trkpt lat="43.271380" lon="-6.220930">
        <ele>227.776</ele>
        <time>2020-05-21T08:58:30Z</time>
      </trkpt>
      <trkpt lat="43.271250" lon="-6.221000">
        <ele>228.721</ele>
        <time>2020-05-21T08:58:50Z</time>
      </trkpt>
      <trkpt lat="43.271130" lon="-6.221060">
        <ele>228.658</ele>
        <time>2020-05-21T08:59:10Z</time>
      </trkpt>
      <trkpt lat="43.270870" lon="-6.221200">
        <ele>230.224</ele>
        <time>2020-05-21T08:59:30Z</time>
      </trkpt>
      <trkpt lat="43.270830" lon="-6.221220">
        <ele>230.163</ele>
        <time>2020-05-21T08:59:50Z</time>
      </trkpt>
      <trkpt lat="43.270460" lon="-6.221410">
        <ele>230.764</ele>
        <time>2020-05-21T09:00:10Z</time>
      </trkpt>
      <trkpt lat="43.270170" lon="-6.221570">
        <ele>230.683</ele>
        <time>2020-05-21T09:00:30Z</time>
      </trkpt>
      <trkpt lat="43.269800" lon="-6.221770">
        <ele>229.526</ele>
        <time>2020-05-21T09:00:50Z</time>
      </trkpt>
      <trkpt lat="43.269430" lon="-6.221980">
        <ele>233.155</ele>
        <time>2020-05-21T09:01:10Z</time>
      </trkpt>
      <trkpt lat="43.269250" lon="-6.222090">
        <ele>235.607</ele>
        <time>2020-05-21T09:01:30Z</time>
      </trkpt>
      <trkpt lat="43.269070" lon="-6.222200">
        <ele>238.217</ele>
        <time>2020-05-21T09:01:50Z</time>
      </trkpt>
      <trkpt lat="43.268990" lon="-6.222250">
        <ele>238.708</ele>
        <time>2020-05-21T09:02:10Z</time>
      </trkpt>
      <trkpt lat="43.268890" lon="-6.222320">
        <ele>240.749</ele>
        <time>2020-05-21T09:02:30Z</time>
      </trkpt>
      <trkpt lat="43.268880" lon="-6.222330">
        <ele>241.134</ele>
        <time>2020-05-21T09:02:50Z</time>
      </trkpt>
      <trkpt lat="43.268660" lon="-6.222500">
        <ele>239.871</ele>
        <time>2020-05-21T09:03:10Z</time>
      </trkpt>
      <trkpt lat="43.268480" lon="-6.222640">
        <ele>240.937</ele>
        <time>2020-05-21T09:03:30Z</time>
      </trkpt>
      <trkpt lat="43.268250" lon="-6.222820">
        <ele>238.576</ele>
        <time>2020-05-21T09:03:50Z</time>
      </trkpt>
      <trkpt lat="43.268020" lon="-6.223010">
        <ele>234.977</ele>
        <time>2020-05-21T09:04:10Z</time>
      </trkpt>
      <trkpt lat="43.267930" lon="-6.223070">
        <ele>234.246</ele>
        <time>2020-05-21T09:04:30Z</time>
      </trkpt>
      <trkpt lat="43.267850" lon="-6.223150">
        <ele>236.449</ele>
        <time>2020-05-21T09:04:50Z</time>
      </trkpt>
      <trkpt lat="43.267790" lon="-6.223210">
        <ele>237.886</ele>
        <time>2020-05-21T09:05:10Z</time>
      </trkpt>
      <trkpt lat="43.267590" lon="-6.223440">
        <ele>242.460</ele>
        <time>2020-05-21T09:05:30Z</time>
      </trkpt>
      <trkpt lat="43.267450" lon="-6.223600">
        <ele>245.626</ele>
        <time>2020-05-21T09:05:50Z</time>
      </trkpt>
      <trkpt lat="43.267300" lon="-6.223780">
        <ele>250.408</ele>
        <time>2020-05-21T09:06:10Z</time>
      </trkpt>
      <trkpt lat="43.267240" lon="-6.223850">
        <ele>252.332</ele>
        <time>2020-05-21T09:06:30Z</time>
      </trkpt>
      <trkpt lat="43.267170" lon="-6.223910">
        <ele>253.057</ele>
        <time>2020-05-21T09:06:50Z</time>
      </trkpt>
      <trkpt lat="43.267120" lon="-6.223940">
        <ele>252.584</ele>
        <time>2020-05-21T09:07:10Z</time>
      </trkpt>
      <trkpt lat="43.267070" lon="-6.223970">
        <ele>251.940</ele>
        <time>2020-05-21T09:07:30Z</time>
      </trkpt>
      <trkpt lat="43.266940" lon="-6.224040">
        <ele>249.919</ele>
        <time>2020-05-21T09:07:50Z</time>
      </trkpt>
      <trkpt lat="43.266750" lon="-6.224150">
        <ele>247.660</ele>
        <time>2020-05-21T09:08:10Z</time>
      </trkpt>
      <trkpt lat="43.266710" lon="-6.224180">
        <ele>247.399</ele>
        <time>2020-05-21T09:08:30Z</time>
      </trkpt>
      <trkpt lat="43.266460" lon="-6.224320">
        <ele>244.232</ele>
        <time>2020-05-21T09:08:50Z</time>
      </trkpt>
      <trkpt lat="43.266320" lon="-6.224400">
        <ele>242.738</ele>
        <time>2020-05-21T09:09:10Z</time>
      </trkpt>
      <trkpt lat="43.266210" lon="-6.224460">
        <ele>241.670</ele>
        <time>2020-05-21T09:09:30Z</time>
      </trkpt>
      <trkpt lat="43.266150" lon="-6.224490">
        <ele>241.417</ele>
        <time>2020-05-21T09:09:50Z</time>
      </trkpt>
      <trkpt lat="43.266100" lon="-6.224510">
        <ele>241.208</ele>
        <time>2020-05-21T09:10:10Z</time>
      </trkpt>
      <trkpt lat="43.266050" lon="-6.224520">
        <ele>240.767</ele>
        <time>2020-05-21T09:10:30Z</time>
      </trkpt>
      <trkpt lat="43.266010" lon="-6.224530">
        <ele>240.442</ele>
        <time>2020-05-21T09:10:50Z</time>
      </trkpt>
      <trkpt lat="43.265950" lon="-6.224550">
        <ele>240.439</ele>
        <time>2020-05-21T09:11:10Z</time>
      </trkpt>
      <trkpt lat="43.265890" lon="-6.224560">
        <ele>239.755</ele>
        <time>2020-05-21T09:11:30Z</time>
      </trkpt>
      <trkpt lat="43.265810" lon="-6.224570">
        <ele>239.224</ele>
        <time>2020-05-21T09:11:50Z</time>
      </trkpt>
      <trkpt lat="43.265740" lon="-6.224580">
        <ele>240.185</ele>
        <time>2020-05-21T09:12:10Z</time>
      </trkpt>
      <trkpt lat="43.265510" lon="-6.224590">
        <ele>241.184</ele>
        <time>2020-05-21T09:12:30Z</time>
      </trkpt>
      <trkpt lat="43.265430" lon="-6.224600">
        <ele>241.377</ele>
        <time>2020-05-21T09:12:50Z</time>
      </trkpt>
      <trkpt lat="43.265330" lon="-6.224610">
        <ele>241.342</ele>
        <time>2020-05-21T09:13:10Z</time>
      </trkpt>
      <trkpt lat="43.265270" lon="-6.224620">
        <ele>241.322</ele>
        <time>2020-05-21T09:13:30Z</time>
      </trkpt>
      <trkpt lat="43.265210" lon="-6.224630">
        <ele>240.514</ele>
        <time>2020-05-21T09:13:50Z</time>
      </trkpt>
      <trkpt lat="43.265150" lon="-6.224650">
        <ele>239.708</ele>
        <time>2020-05-21T09:14:10Z</time>
      </trkpt>
      <trkpt lat="43.265100" lon="-6.224670">
        <ele>238.998</ele>
        <time>2020-05-21T09:14:30Z</time>
      </trkpt>
      <trkpt lat="43.265020" lon="-6.224710">
        <ele>237.473</ele>
        <time>2020-05-21T09:14:50Z</time>
      </trkpt>
      <trkpt lat="43.264940" lon="-6.224760">
        <ele>237.090</ele>
        <time>2020-05-21T09:15:10Z</time>
      </trkpt>
      <trkpt lat="43.264860" lon="-6.224830">
        <ele>237.416</ele>
        <time>2020-05-21T09:15:30Z</time>
      </trkpt>
      <trkpt lat="43.264840" lon="-6.224850">
        <ele>237.595</ele>
        <time>2020-05-21T09:15:50Z</time>
      </trkpt>
      <trkpt lat="43.264770" lon="-6.224920">
        <ele>238.016</ele>
        <time>2020-05-21T09:16:10Z</time>
      </trkpt>
      <trkpt lat="43.264720" lon="-6.224990">
        <ele>238.795</ele>
        <time>2020-05-21T09:16:30Z</time>
      </trkpt>
      <trkpt lat="43.264660" lon="-6.225060">
        <ele>240.158</ele>
        <time>2020-05-21T09:16:50Z</time>
      </trkpt>
      <trkpt lat="43.264590" lon="-6.225170">
        <ele>242.157</ele>
        <time>2020-05-21T09:17:10Z</time>
      </trkpt>
      <trkpt lat="43.264540" lon="-6.225260">
        <ele>243.300</ele>
        <time>2020-05-21T09:17:30Z</time>
      </trkpt>
      <trkpt lat="43.264320" lon="-6.225670">
        <ele>248.420</ele>
        <time>2020-05-21T09:17:50Z</time>
      </trkpt>
      <trkpt lat="43.264210" lon="-6.225860">
        <ele>250.208</ele>
        <time>2020-05-21T09:18:10Z</time>
      </trkpt>
      <trkpt lat="43.264180" lon="-6.225920">
        <ele>251.129</ele>
        <time>2020-05-21T09:18:30Z</time>
      </trkpt>
      <trkpt lat="43.264140" lon="-6.225980">
        <ele>251.784</ele>
        <time>2020-05-21T09:18:50Z</time>
      </trkpt>
      <trkpt lat="43.264070" lon="-6.226060">
        <ele>251.931</ele>
        <time>2020-05-21T09:19:10Z</time>
      </trkpt>
      <trkpt lat="43.264000" lon="-6.226130">
        <ele>251.857</ele>
        <time>2020-05-21T09:19:30Z</time>
      </trkpt>
      <trkpt lat="43.263950" lon="-6.226170">
        <ele>252.196</ele>
        <time>2020-05-21T09:19:50Z</time>
      </trkpt>
      <trkpt lat="43.263860" lon="-6.226220">
        <ele>251.847</ele>
        <time>2020-05-21T09:20:10Z</time>
      </trkpt>
      <trkpt lat="43.263810" lon="-6.226250">
        <ele>252.146</ele>
        <time>2020-05-21T09:20:30Z</time>
      </trkpt>
      <trkpt lat="43.263690" lon="-6.226290">
        <ele>250.619</ele>
        <time>2020-05-21T09:20:50Z</time>
      </trkpt>
      <trkpt lat="43.263670" lon="-6.226300">
        <ele>250.449</ele>
        <time>2020-05-21T09:21:10Z</time>
      </trkpt>
      <trkpt lat="43.263620" lon="-6.226330">
        <ele>250.302</ele>
        <time>2020-05-21T09:21:30Z</time>
      </trkpt>
      <trkpt lat="43.263590" lon="-6.226350">
        <ele>250.622</ele>
        <time>2020-05-21T09:21:50Z</time>
      </trkpt>
      <trkpt lat="43.263500" lon="-6.226410">
        <ele>251.808</ele>
        <time>2020-05-21T09:22:10Z</time>
      </trkpt>
      <trkpt lat="43.263310" lon="-6.226580">
        <ele>259.358</ele>
        <time>2020-05-21T09:22:30Z</time>
      </trkpt>
      <trkpt lat="43.263250" lon="-6.226620">
        <ele>261.613</ele>
        <time>2020-05-21T09:22:50Z</time>
      </trkpt>
      <trkpt lat="43.263210" lon="-6.226650">
        <ele>263.430</ele>
        <time>2020-05-21T09:23:10Z</time>
      </trkpt>
      <trkpt lat="43.263120" lon="-6.226700">
        <ele>266.816</ele>
        <time>2020-05-21T09:23:30Z</time>
      </trkpt>
      <trkpt lat="43.263060" lon="-6.226730">
        <ele>269.025</ele>
        <time>2020-05-21T09:23:50Z</time>
      </trkpt>
      <trkpt lat="43.262990" lon="-6.226760">
        <ele>271.236</ele>
        <time>2020-05-21T09:24:10Z</time>
      </trkpt>
      <trkpt lat="43.262940" lon="-6.226770">
        <ele>271.715</ele>
        <time>2020-05-21T09:24:30Z</time>
      </trkpt>
      <trkpt lat="43.262880" lon="-6.226780">
        <ele>272.198</ele>
        <time>2020-05-21T09:24:50Z</time>
      </trkpt>
      <trkpt lat="43.262790" lon="-6.226790">
        <ele>272.236</ele>
        <time>2020-05-21T09:25:10Z</time>
      </trkpt>
      <trkpt lat="43.262710" lon="-6.226790">
        <ele>271.417</ele>
        <time>2020-05-21T09:25:30Z</time>
      </trkpt>
      <trkpt lat="43.262620" lon="-6.226780">
        <ele>269.918</ele>
        <time>2020-05-21T09:25:50Z</time>
      </trkpt>
      <trkpt lat="43.262520" lon="-6.226760">
        <ele>267.908</ele>
        <time>2020-05-21T09:26:10Z</time>
      </trkpt>
      <trkpt lat="43.262300" lon="-6.226670">
        <ele>260.367</ele>
        <time>2020-05-21T09:26:30Z</time>
      </trkpt>
      <trkpt lat="43.262000" lon="-6.226550">
        <ele>256.452</ele>
        <time>2020-05-21T09:26:50Z</time>
      </trkpt>
      <trkpt lat="43.261660" lon="-6.226400">
        <ele>254.649</ele>
        <time>2020-05-21T09:27:10Z</time>
      </trkpt>
      <trkpt lat="43.261320" lon="-6.226250">
        <ele>251.915</ele>
        <time>2020-05-21T09:27:30Z</time>
      </trkpt>
      <trkpt lat="43.261020" lon="-6.226120">
        <ele>248.054</ele>
        <time>2020-05-21T09:27:50Z</time>
      </trkpt>
      <trkpt lat="43.260660" lon="-6.225970">
        <ele>247.785</ele>
        <time>2020-05-21T09:28:10Z</time>
      </trkpt>
      <trkpt lat="43.260560" lon="-6.225940">
        <ele>247.984</ele>
        <time>2020-05-21T09:28:30Z</time>
      </trkpt>
      <trkpt lat="43.260440" lon="-6.225900">
        <ele>246.527</ele>
        <time>2020-05-21T09:28:50Z</time>
      </trkpt>
      <trkpt lat="43.260330" lon="-6.225880">
        <ele>246.037</ele>
        <time>2020-05-21T09:29:10Z</time>
      </trkpt>
      <trkpt lat="43.260210" lon="-6.225870">
        <ele>245.549</ele>
        <time>2020-05-21T09:29:30Z</time>
      </trkpt>
      <trkpt lat="43.260130" lon="-6.225870">
        <ele>245.313</ele>
        <time>2020-05-21T09:29:50Z</time>
      </trkpt>
      <trkpt lat="43.260100" lon="-6.225870">
        <ele>245.208</ele>
        <time>2020-05-21T09:30:10Z</time>
      </trkpt>
      <trkpt lat="43.260070" lon="-6.225870">
        <ele>245.137</ele>
        <time>2020-05-21T09:30:30Z</time>
      </trkpt>
      <trkpt lat="43.259970" lon="-6.225880">
        <ele>245.232</ele>
        <time>2020-05-21T09:30:50Z</time>
      </trkpt>
      <trkpt lat="43.259860" lon="-6.225900">
        <ele>245.989</ele>
        <time>2020-05-21T09:31:10Z</time>
      </trkpt>
      <trkpt lat="43.259750" lon="-6.225930">
        <ele>247.155</ele>
        <time>2020-05-21T09:31:30Z</time>
      </trkpt>
      <trkpt lat="43.259630" lon="-6.225970">
        <ele>248.494</ele>
        <time>2020-05-21T09:31:50Z</time>
      </trkpt>
      <trkpt lat="43.259530" lon="-6.226020">
        <ele>249.835</ele>
        <time>2020-05-21T09:32:10Z</time>
      </trkpt>
      <trkpt lat="43.259420" lon="-6.226080">
        <ele>250.814</ele>
        <time>2020-05-21T09:32:30Z</time>
      </trkpt>
      <trkpt lat="43.259300" lon="-6.226160">
        <ele>251.297</ele>
        <time>2020-05-21T09:32:50Z</time>
      </trkpt>
      <trkpt lat="43.259180" lon="-6.226250">
        <ele>251.429</ele>
        <time>2020-05-21T09:33:10Z</time>
      </trkpt>
      <trkpt lat="43.259130" lon="-6.226300">
        <ele>251.700</ele>
        <time>2020-05-21T09:33:30Z</time>
      </trkpt>
      <trkpt lat="43.259080" lon="-6.226340">
        <ele>251.720</ele>
        <time>2020-05-21T09:33:50Z</time>
      </trkpt>
      <trkpt lat="43.259040" lon="-6.226390">
        <ele>251.808</ele>
        <time>2020-05-21T09:34:10Z</time>
      </trkpt>
      <trkpt lat="43.259000" lon="-6.226440">
        <ele>251.746</ele>
        <time>2020-05-21T09:34:30Z</time>
      </trkpt>
      <trkpt lat="43.258950" lon="-6.226490">
        <ele>250.781</ele>
        <time>2020-05-21T09:34:50Z</time>
      </trkpt>
      <trkpt lat="43.258840" lon="-6.226630">
        <ele>247.838</ele>
        <time>2020-05-21T09:35:10Z</time>
      </trkpt>
      <trkpt lat="43.258720" lon="-6.226810">
        <ele>248.074</ele>
        <time>2020-05-21T09:35:30Z</time>
      </trkpt>
      <trkpt lat="43.258560" lon="-6.227060">
        <ele>249.853</ele>
        <time>2020-05-21T09:35:50Z</time>
      </trkpt>
      <trkpt lat="43.258440" lon="-6.227230">
        <ele>251.974</ele>
        <time>2020-05-21T09:36:10Z</time>
      </trkpt>
      <trkpt lat="43.258350" lon="-6.227340">
        <ele>252.183</ele>
        <time>2020-05-21T09:36:30Z</time>
      </trkpt>
      <trkpt lat="43.258280" lon="-6.227420">
        <ele>251.876</ele>
        <time>2020-05-21T09:36:50Z</time>
      </trkpt>
      <trkpt lat="43.258220" lon="-6.227490">
        <ele>251.599</ele>
        <time>2020-05-21T09:37:10Z</time>
      </trkpt>
      <trkpt lat="43.258140" lon="-6.227570">
        <ele>251.707</ele>
        <time>2020-05-21T09:37:30Z</time>
      </trkpt>
      <trkpt lat="43.258090" lon="-6.227620">
        <ele>251.427</ele>
        <time>2020-05-21T09:37:50Z</time>
      </trkpt>
      <trkpt lat="43.258030" lon="-6.227670">
        <ele>250.908</ele>
        <time>2020-05-21T09:38:10Z</time>
      </trkpt>
      <trkpt lat="43.257950" lon="-6.227730">
        <ele>251.393</ele>
        <time>2020-05-21T09:38:30Z</time>
      </trkpt>
      <trkpt lat="43.257870" lon="-6.227800">
        <ele>252.158</ele>
        <time>2020-05-21T09:38:50Z</time>
      </trkpt>
      <trkpt lat="43.257770" lon="-6.227860">
        <ele>252.255</ele>
        <time>2020-05-21T09:39:10Z</time>
      </trkpt>
      <trkpt lat="43.257690" lon="-6.227910">
        <ele>251.671</ele>
        <time>2020-05-21T09:39:30Z</time>
      </trkpt>
      <trkpt lat="43.257610" lon="-6.227950">
        <ele>250.740</ele>
        <time>2020-05-21T09:39:50Z</time>
      </trkpt>
      <trkpt lat="43.257540" lon="-6.227990">
        <ele>250.161</ele>
        <time>2020-05-21T09:40:10Z</time>
      </trkpt>
      <trkpt lat="43.257480" lon="-6.228010">
        <ele>249.560</ele>
        <time>2020-05-21T09:40:30Z</time>
      </trkpt>
      <trkpt lat="43.257370" lon="-6.228050">
        <ele>249.513</ele>
        <time>2020-05-21T09:40:50Z</time>
      </trkpt>
      <trkpt lat="43.257360" lon="-6.228060">
        <ele>249.735</ele>
        <time>2020-05-21T09:41:10Z</time>
      </trkpt>
      <trkpt lat="43.257240" lon="-6.228090">
        <ele>250.186</ele>
        <time>2020-05-21T09:41:30Z</time>
      </trkpt>
      <trkpt lat="43.257100" lon="-6.228120">
        <ele>252.714</ele>
        <time>2020-05-21T09:41:50Z</time>
      </trkpt>
      <trkpt lat="43.256960" lon="-6.228140">
        <ele>255.108</ele>
        <time>2020-05-21T09:42:10Z</time>
      </trkpt>
      <trkpt lat="43.256830" lon="-6.228170">
        <ele>256.617</ele>
        <time>2020-05-21T09:42:30Z</time>
      </trkpt>
      <trkpt lat="43.256650" lon="-6.228200">
        <ele>257.522</ele>
        <time>2020-05-21T09:42:50Z</time>
      </trkpt>
      <trkpt lat="43.256430" lon="-6.228220">
        <ele>254.019</ele>
        <time>2020-05-21T09:43:10Z</time>
      </trkpt>
      <trkpt lat="43.256300" lon="-6.228250">
        <ele>253.815</ele>
        <time>2020-05-21T09:43:30Z</time>
      </trkpt>
      <trkpt lat="43.256030" lon="-6.228290">
        <ele>255.554</ele>
        <time>2020-05-21T09:43:50Z</time>
      </trkpt>
      <trkpt lat="43.255790" lon="-6.228330">
        <ele>258.475</ele>
        <time>2020-05-21T09:44:10Z</time>
      </trkpt>
      <trkpt lat="43.255720" lon="-6.228330">
        <ele>257.724</ele>
        <time>2020-05-21T09:44:30Z</time>
      </trkpt>
      <trkpt lat="43.255650" lon="-6.228330">
        <ele>256.987</ele>
        <time>2020-05-21T09:44:50Z</time>
      </trkpt>
      <trkpt lat="43.255550" lon="-6.228320">
        <ele>255.739</ele>
        <time>2020-05-21T09:45:10Z</time>
      </trkpt>
      <trkpt lat="43.255450" lon="-6.228300">
        <ele>256.901</ele>
        <time>2020-05-21T09:45:30Z</time>
      </trkpt>
      <trkpt lat="43.255370" lon="-6.228280">
        <ele>257.721</ele>
        <time>2020-05-21T09:45:50Z</time>
      </trkpt>
      <trkpt lat="43.255180" lon="-6.228210">
        <ele>258.408</ele>
        <time>2020-05-21T09:46:10Z</time>
      </trkpt>
      <trkpt lat="43.255100" lon="-6.228190">
        <ele>258.947</ele>
        <time>2020-05-21T09:46:30Z</time>
      </trkpt>
      <trkpt lat="43.254980" lon="-6.228190">
        <ele>260.462</ele>
        <time>2020-05-21T09:46:50Z</time>
      </trkpt>
      <trkpt lat="43.254890" lon="-6.228190">
        <ele>260.499</ele>
        <time>2020-05-21T09:47:10Z</time>
      </trkpt>
      <trkpt lat="43.254880" lon="-6.228190">
        <ele>260.485</ele>
        <time>2020-05-21T09:47:30Z</time>
      </trkpt>
      <trkpt lat="43.254830" lon="-6.228200">
        <ele>260.724</ele>
        <time>2020-05-21T09:47:50Z</time>
      </trkpt>
      <trkpt lat="43.254770" lon="-6.228220">
        <ele>261.225</ele>
        <time>2020-05-21T09:48:10Z</time>
      </trkpt>
      <trkpt lat="43.254640" lon="-6.228270">
        <ele>261.754</ele>
        <time>2020-05-21T09:48:30Z</time>
      </trkpt>
      <trkpt lat="43.254480" lon="-6.228340">
        <ele>261.627</ele>
        <time>2020-05-21T09:48:50Z</time>
      </trkpt>
      <trkpt lat="43.254290" lon="-6.228420">
        <ele>260.914</ele>
        <time>2020-05-21T09:49:10Z</time>
      </trkpt>
      <trkpt lat="43.254140" lon="-6.228490">
        <ele>259.854</ele>
        <time>2020-05-21T09:49:30Z</time>
      </trkpt>
      <trkpt lat="43.253840" lon="-6.228610">
        <ele>254.409</ele>
        <time>2020-05-21T09:49:50Z</time>
      </trkpt>
      <trkpt lat="43.253670" lon="-6.228690">
        <ele>251.408</ele>
        <time>2020-05-21T09:50:10Z</time>
      </trkpt>
      <trkpt lat="43.253420" lon="-6.228800">
        <ele>249.225</ele>
        <time>2020-05-21T09:50:30Z</time>
      </trkpt>
      <trkpt lat="43.252860" lon="-6.229030">
        <ele>254.590</ele>
        <time>2020-05-21T09:50:50Z</time>
      </trkpt>
      <trkpt lat="43.252720" lon="-6.229100">
        <ele>256.047</ele>
        <time>2020-05-21T09:51:10Z</time>
      </trkpt>
      <trkpt lat="43.252620" lon="-6.229160">
        <ele>255.743</ele>
        <time>2020-05-21T09:51:30Z</time>
      </trkpt>
      <trkpt lat="43.252560" lon="-6.229200">
        <ele>255.142</ele>
        <time>2020-05-21T09:51:50Z</time>
      </trkpt>
      <trkpt lat="43.252450" lon="-6.229280">
        <ele>255.463</ele>
        <time>2020-05-21T09:52:10Z</time>
      </trkpt>
      <trkpt lat="43.252390" lon="-6.229340">
        <ele>256.292</ele>
        <time>2020-05-21T09:52:30Z</time>
      </trkpt>
      <trkpt lat="43.252340" lon="-6.229390">
        <ele>256.655</ele>
        <time>2020-05-21T09:52:50Z</time>
      </trkpt>
      <trkpt lat="43.252260" lon="-6.229490">
        <ele>257.693</ele>
        <time>2020-05-21T09:53:10Z</time>
      </trkpt>
      <trkpt lat="43.252210" lon="-6.229560">
        <ele>258.665</ele>
        <time>2020-05-21T09:53:30Z</time>
      </trkpt>
      <trkpt lat="43.252100" lon="-6.229730">
        <ele>261.521</ele>
        <time>2020-05-21T09:53:50Z</time>
      </trkpt>
      <trkpt lat="43.251950" lon="-6.229960">
        <ele>259.108</ele>
        <time>2020-05-21T09:54:10Z</time>
      </trkpt>
      <trkpt lat="43.251800" lon="-6.230200">
        <ele>258.363</ele>
        <time>2020-05-21T09:54:30Z</time>
      </trkpt>
      <trkpt lat="43.251740" lon="-6.230270">
        <ele>257.128</ele>
        <time>2020-05-21T09:54:50Z</time>
      </trkpt>
      <trkpt lat="43.251690" lon="-6.230320">
        <ele>256.195</ele>
        <time>2020-05-21T09:55:10Z</time>
      </trkpt>
      <trkpt lat="43.251610" lon="-6.230410">
        <ele>256.231</ele>
        <time>2020-05-21T09:55:30Z</time>
      </trkpt>
      <trkpt lat="43.251530" lon="-6.230470">
        <ele>256.620</ele>
        <time>2020-05-21T09:55:50Z</time>
      </trkpt>
      <trkpt lat="43.251460" lon="-6.230520">
        <ele>256.961</ele>
        <time>2020-05-21T09:56:10Z</time>
      </trkpt>
      <trkpt lat="43.251370" lon="-6.230560">
        <ele>257.460</ele>
        <time>2020-05-21T09:56:30Z</time>
      </trkpt>
      <trkpt lat="43.251270" lon="-6.230590">
        <ele>259.213</ele>
        <time>2020-05-21T09:56:50Z</time>
      </trkpt>
      <trkpt lat="43.251170" lon="-6.230610">
        <ele>261.036</ele>
        <time>2020-05-21T09:57:10Z</time>
      </trkpt>
      <trkpt lat="43.251090" lon="-6.230620">
        <ele>262.217</ele>
        <time>2020-05-21T09:57:30Z</time>
      </trkpt>
      <trkpt lat="43.251060" lon="-6.230620">
        <ele>262.418</ele>
        <time>2020-05-21T09:57:50Z</time>
      </trkpt>
      <trkpt lat="43.251000" lon="-6.230610">
        <ele>262.808</ele>
        <time>2020-05-21T09:58:10Z</time>
      </trkpt>
      <trkpt lat="43.250930" lon="-6.230600">
        <ele>263.397</ele>
        <time>2020-05-21T09:58:30Z</time>
      </trkpt>
      <trkpt lat="43.250820" lon="-6.230570">
        <ele>263.832</ele>
        <time>2020-05-21T09:58:50Z</time>
      </trkpt>
      <trkpt lat="43.250730" lon="-6.230540">
        <ele>262.689</ele>
        <time>2020-05-21T09:59:10Z</time>
      </trkpt>
      <trkpt lat="43.250640" lon="-6.230500">
        <ele>261.665</ele>
        <time>2020-05-21T09:59:30Z</time>
      </trkpt>
      <trkpt lat="43.250520" lon="-6.230430">
        <ele>260.914</ele>
        <time>2020-05-21T09:59:50Z</time>
      </trkpt>
      <trkpt lat="43.250410" lon="-6.230380">
        <ele>260.825</ele>
        <time>2020-05-21T10:00:10Z</time>
      </trkpt>
      <trkpt lat="43.250360" lon="-6.230350">
        <ele>260.674</ele>
        <time>2020-05-21T10:00:30Z</time>
      </trkpt>
      <trkpt lat="43.250300" lon="-6.230330">
        <ele>260.347</ele>
        <time>2020-05-21T10:00:50Z</time>
      </trkpt>
      <trkpt lat="43.250200" lon="-6.230300">
        <ele>259.417</ele>
        <time>2020-05-21T10:01:10Z</time>
      </trkpt>
      <trkpt lat="43.250130" lon="-6.230280">
        <ele>258.487</ele>
        <time>2020-05-21T10:01:30Z</time>
      </trkpt>
      <trkpt lat="43.250070" lon="-6.230260">
        <ele>258.015</ele>
        <time>2020-05-21T10:01:50Z</time>
      </trkpt>
      <trkpt lat="43.250020" lon="-6.230260">
        <ele>257.408</ele>
        <time>2020-05-21T10:02:10Z</time>
      </trkpt>
      <trkpt lat="43.249970" lon="-6.230250">
        <ele>257.285</ele>
        <time>2020-05-21T10:02:30Z</time>
      </trkpt>
      <trkpt lat="43.249890" lon="-6.230250">
        <ele>256.920</ele>
        <time>2020-05-21T10:02:50Z</time>
      </trkpt>
      <trkpt lat="43.249840" lon="-6.230250">
        <ele>256.797</ele>
        <time>2020-05-21T10:03:10Z</time>
      </trkpt>
      <trkpt lat="43.249820" lon="-6.230250">
        <ele>256.613</ele>
        <time>2020-05-21T10:03:30Z</time>
      </trkpt>
      <trkpt lat="43.249740" lon="-6.230260">
        <ele>256.252</ele>
        <time>2020-05-21T10:03:50Z</time>
      </trkpt>
      <trkpt lat="43.249680" lon="-6.230260">
        <ele>256.393</ele>
        <time>2020-05-21T10:04:10Z</time>
      </trkpt>
      <trkpt lat="43.249620" lon="-6.230270">
        <ele>256.412</ele>
        <time>2020-05-21T10:04:30Z</time>
      </trkpt>
      <trkpt lat="43.249570" lon="-6.230290">
        <ele>256.865</ele>
        <time>2020-05-21T10:04:50Z</time>
      </trkpt>
      <trkpt lat="43.249510" lon="-6.230310">
        <ele>257.455</ele>
        <time>2020-05-21T10:05:10Z</time>
      </trkpt>
      <trkpt lat="43.249460" lon="-6.230320">
        <ele>257.707</ele>
        <time>2020-05-21T10:05:30Z</time>
      </trkpt>
      <trkpt lat="43.249310" lon="-6.230390">
        <ele>258.817</ele>
        <time>2020-05-21T10:05:50Z</time>
      </trkpt>
      <trkpt lat="43.249300" lon="-6.230390">
        <ele>258.808</ele>
        <time>2020-05-21T10:06:10Z</time>
      </trkpt>
      <trkpt lat="43.249160" lon="-6.230450">
        <ele>259.579</ele>
        <time>2020-05-21T10:06:30Z</time>
      </trkpt>
      <trkpt lat="43.248900" lon="-6.230570">
        <ele>259.424</ele>
        <time>2020-05-21T10:06:50Z</time>
      </trkpt>
      <trkpt lat="43.248800" lon="-6.230610">
        <ele>260.471</ele>
        <time>2020-05-21T10:07:10Z</time>
      </trkpt>
      <trkpt lat="43.248660" lon="-6.230680">
        <ele>261.137</ele>
        <time>2020-05-21T10:07:30Z</time>
      </trkpt>
      <trkpt lat="43.248340" lon="-6.230810">
        <ele>261.816</ele>
        <time>2020-05-21T10:07:50Z</time>
      </trkpt>
      <trkpt lat="43.248020" lon="-6.230960">
        <ele>262.917</ele>
        <time>2020-05-21T10:08:10Z</time>
      </trkpt>
      <trkpt lat="43.247940" lon="-6.231000">
        <ele>263.236</ele>
        <time>2020-05-21T10:08:30Z</time>
      </trkpt>
      <trkpt lat="43.247770" lon="-6.231070">
        <ele>263.799</ele>
        <time>2020-05-21T10:08:50Z</time>
      </trkpt>
      <trkpt lat="43.247640" lon="-6.231130">
        <ele>263.934</ele>
        <time>2020-05-21T10:09:10Z</time>
      </trkpt>
      <trkpt lat="43.247520" lon="-6.231200">
        <ele>263.955</ele>
        <time>2020-05-21T10:09:30Z</time>
      </trkpt>
      <trkpt lat="43.247380" lon="-6.231280">
        <ele>262.610</ele>
        <time>2020-05-21T10:09:50Z</time>
      </trkpt>
      <trkpt lat="43.247280" lon="-6.231340">
        <ele>261.508</ele>
        <time>2020-05-21T10:10:10Z</time>
      </trkpt>
      <trkpt lat="43.247170" lon="-6.231420">
        <ele>261.227</ele>
        <time>2020-05-21T10:10:30Z</time>
      </trkpt>
      <trkpt lat="43.247050" lon="-6.231510">
        <ele>261.682</ele>
        <time>2020-05-21T10:10:50Z</time>
      </trkpt>
      <trkpt lat="43.246640" lon="-6.231820">
        <ele>263.149</ele>
        <time>2020-05-21T10:11:10Z</time>
      </trkpt>
      <trkpt lat="43.246310" lon="-6.232070">
        <ele>264.885</ele>
        <time>2020-05-21T10:11:30Z</time>
      </trkpt>
      <trkpt lat="43.245870" lon="-6.232400">
        <ele>270.584</ele>
        <time>2020-05-21T10:11:50Z</time>
      </trkpt>
      <trkpt lat="43.245720" lon="-6.232510">
        <ele>269.845</ele>
        <time>2020-05-21T10:12:10Z</time>
      </trkpt>
      <trkpt lat="43.245570" lon="-6.232620">
        <ele>268.924</ele>
        <time>2020-05-21T10:12:30Z</time>
      </trkpt>
      <trkpt lat="43.245490" lon="-6.232670">
        <ele>269.097</ele>
        <time>2020-05-21T10:12:50Z</time>
      </trkpt>
      <trkpt lat="43.245430" lon="-6.232700">
        <ele>268.979</ele>
        <time>2020-05-21T10:13:10Z</time>
      </trkpt>
      <trkpt lat="43.245380" lon="-6.232730">
        <ele>268.805</ele>
        <time>2020-05-21T10:13:30Z</time>
      </trkpt>
      <trkpt lat="43.245270" lon="-6.232780">
        <ele>267.925</ele>
        <time>2020-05-21T10:13:50Z</time>
      </trkpt>
      <trkpt lat="43.245220" lon="-6.232800">
        <ele>267.608</ele>
        <time>2020-05-21T10:14:10Z</time>
      </trkpt>
      <trkpt lat="43.245120" lon="-6.232830">
        <ele>266.481</ele>
        <time>2020-05-21T10:14:30Z</time>
      </trkpt>
      <trkpt lat="43.244890" lon="-6.232900">
        <ele>263.936</ele>
        <time>2020-05-21T10:14:50Z</time>
      </trkpt>
      <trkpt lat="43.244840" lon="-6.232910">
        <ele>263.243</ele>
        <time>2020-05-21T10:15:10Z</time>
      </trkpt>
      <trkpt lat="43.244790" lon="-6.232930">
        <ele>262.699</ele>
        <time>2020-05-21T10:15:30Z</time>
      </trkpt>
      <trkpt lat="43.244640" lon="-6.232960">
        <ele>260.938</ele>
        <time>2020-05-21T10:15:50Z</time>
      </trkpt>
      <trkpt lat="43.243850" lon="-6.233180">
        <ele>262.839</ele>
        <time>2020-05-21T10:16:10Z</time>
      </trkpt>
      <trkpt lat="43.243610" lon="-6.233240">
        <ele>261.738</ele>
        <time>2020-05-21T10:16:30Z</time>
      </trkpt>
      <trkpt lat="43.243470" lon="-6.233280">
        <ele>262.641</ele>
        <time>2020-05-21T10:16:50Z</time>
      </trkpt>
      <trkpt lat="43.243320" lon="-6.233330">
        <ele>264.085</ele>
        <time>2020-05-21T10:17:10Z</time>
      </trkpt>
      <trkpt lat="43.243250" lon="-6.233360">
        <ele>264.289</ele>
        <time>2020-05-21T10:17:30Z</time>
      </trkpt>
      <trkpt lat="43.243170" lon="-6.233390">
        <ele>264.417</ele>
        <time>2020-05-21T10:17:50Z</time>
      </trkpt>
      <trkpt lat="43.243150" lon="-6.233400">
        <ele>264.508</ele>
        <time>2020-05-21T10:18:10Z</time>
      </trkpt>
      <trkpt lat="43.243030" lon="-6.233460">
        <ele>264.892</ele>
        <time>2020-05-21T10:18:30Z</time>
      </trkpt>
      <trkpt lat="43.242960" lon="-6.233500">
        <ele>264.697</ele>
        <time>2020-05-21T10:18:50Z</time>
      </trkpt>
      <trkpt lat="43.242920" lon="-6.233530">
        <ele>264.624</ele>
        <time>2020-05-21T10:19:10Z</time>
      </trkpt>
      <trkpt lat="43.242740" lon="-6.233670">
        <ele>265.170</ele>
        <time>2020-05-21T10:19:30Z</time>
      </trkpt>
      <trkpt lat="43.242680" lon="-6.233730">
        <ele>265.939</ele>
        <time>2020-05-21T10:19:50Z</time>
      </trkpt>
      <trkpt lat="43.242590" lon="-6.233850">
        <ele>267.340</ele>
        <time>2020-05-21T10:20:10Z</time>
      </trkpt>
      <trkpt lat="43.242530" lon="-6.233940">
        <ele>268.339</ele>
        <time>2020-05-21T10:20:30Z</time>
      </trkpt>
      <trkpt lat="43.242480" lon="-6.234010">
        <ele>269.022</ele>
        <time>2020-05-21T10:20:50Z</time>
      </trkpt>
      <trkpt lat="43.242410" lon="-6.234130">
        <ele>269.672</ele>
        <time>2020-05-21T10:21:10Z</time>
      </trkpt>
      <trkpt lat="43.242330" lon="-6.234280">
        <ele>269.713</ele>
        <time>2020-05-21T10:21:30Z</time>
      </trkpt>
      <trkpt lat="43.242330" lon="-6.234300">
        <ele>270.014</ele>
        <time>2020-05-21T10:21:50Z</time>
      </trkpt>
      <trkpt lat="43.242270" lon="-6.234430">
        <ele>270.008</ele>
        <time>2020-05-21T10:22:10Z</time>
      </trkpt>
      <trkpt lat="43.242220" lon="-6.234580">
        <ele>270.441</ele>
        <time>2020-05-21T10:22:30Z</time>
      </trkpt>
      <trkpt lat="43.242130" lon="-6.234790">
        <ele>271.656</ele>
        <time>2020-05-21T10:22:50Z</time>
      </trkpt>
      <trkpt lat="43.242090" lon="-6.234930">
        <ele>275.033</ele>
        <time>2020-05-21T10:23:10Z</time>
      </trkpt>
      <trkpt lat="43.242080" lon="-6.234950">
        <ele>275.389</ele>
        <time>2020-05-21T10:23:30Z</time>
      </trkpt>
      <trkpt lat="43.242050" lon="-6.235030">
        <ele>277.148</ele>
        <time>2020-05-21T10:23:50Z</time>
      </trkpt>
      <trkpt lat="43.242010" lon="-6.235120">
        <ele>279.599</ele>
        <time>2020-05-21T10:24:10Z</time>
      </trkpt>
      <trkpt lat="43.241990" lon="-6.235170">
        <ele>281.038</ele>
        <time>2020-05-21T10:24:30Z</time>
      </trkpt>
      <trkpt lat="43.241930" lon="-6.235260">
        <ele>282.951</ele>
        <time>2020-05-21T10:24:50Z</time>
      </trkpt>
      <trkpt lat="43.241910" lon="-6.235320">
        <ele>284.532</ele>
        <time>2020-05-21T10:25:10Z</time>
      </trkpt>
      <trkpt lat="43.241870" lon="-6.235350">
        <ele>284.592</ele>
        <time>2020-05-21T10:25:30Z</time>
      </trkpt>
      <trkpt lat="43.241800" lon="-6.235410">
        <ele>284.911</ele>
        <time>2020-05-21T10:25:50Z</time>
      </trkpt>
      <trkpt lat="43.241710" lon="-6.235480">
        <ele>285.308</ele>
        <time>2020-05-21T10:26:10Z</time>
      </trkpt>
      <trkpt lat="43.241650" lon="-6.235520">
        <ele>285.167</ele>
        <time>2020-05-21T10:26:30Z</time>
      </trkpt>
      <trkpt lat="43.241490" lon="-6.235580">
        <ele>281.732</ele>
        <time>2020-05-21T10:26:50Z</time>
      </trkpt>
      <trkpt lat="43.241320" lon="-6.235650">
        <ele>279.379</ele>
        <time>2020-05-21T10:27:10Z</time>
      </trkpt>
      <trkpt lat="43.241240" lon="-6.235680">
        <ele>278.185</ele>
        <time>2020-05-21T10:27:30Z</time>
      </trkpt>
      <trkpt lat="43.241160" lon="-6.235710">
        <ele>276.614</ele>
        <time>2020-05-21T10:27:50Z</time>
      </trkpt>
      <trkpt lat="43.240910" lon="-6.235800">
        <ele>277.945</ele>
        <time>2020-05-21T10:28:10Z</time>
      </trkpt>
      <trkpt lat="43.240720" lon="-6.235860">
        <ele>280.814</ele>
        <time>2020-05-21T10:28:30Z</time>
      </trkpt>
      <trkpt lat="43.240580" lon="-6.235900">
        <ele>283.497</ele>
        <time>2020-05-21T10:28:50Z</time>
      </trkpt>
      <trkpt lat="43.240540" lon="-6.235910">
        <ele>284.081</ele>
        <time>2020-05-21T10:29:10Z</time>
      </trkpt>
      <trkpt lat="43.240440" lon="-6.235940">
        <ele>285.061</ele>
        <time>2020-05-21T10:29:30Z</time>
      </trkpt>
      <trkpt lat="43.240280" lon="-6.235980">
        <ele>286.317</ele>
        <time>2020-05-21T10:29:50Z</time>
      </trkpt>
      <trkpt lat="43.240150" lon="-6.236030">
        <ele>284.908</ele>
        <time>2020-05-21T10:30:10Z</time>
      </trkpt>
      <trkpt lat="43.239980" lon="-6.236090">
        <ele>282.772</ele>
        <time>2020-05-21T10:30:30Z</time>
      </trkpt>
      <trkpt lat="43.239840" lon="-6.236150">
        <ele>282.487</ele>
        <time>2020-05-21T10:30:50Z</time>
      </trkpt>
      <trkpt lat="43.239790" lon="-6.236180">
        <ele>283.174</ele>
        <time>2020-05-21T10:31:10Z</time>
      </trkpt>
      <trkpt lat="43.239590" lon="-6.236290">
        <ele>285.190</ele>
        <time>2020-05-21T10:31:30Z</time>
      </trkpt>
      <trkpt lat="43.239430" lon="-6.236390">
        <ele>286.369</ele>
        <time>2020-05-21T10:31:50Z</time>
      </trkpt>
      <trkpt lat="43.239350" lon="-6.236440">
        <ele>285.760</ele>
        <time>2020-05-21T10:32:10Z</time>
      </trkpt>
      <trkpt lat="43.239260" lon="-6.236510">
        <ele>284.299</ele>
        <time>2020-05-21T10:32:30Z</time>
      </trkpt>
      <trkpt lat="43.239090" lon="-6.236630">
        <ele>277.812</ele>
        <time>2020-05-21T10:32:50Z</time>
      </trkpt>
      <trkpt lat="43.239030" lon="-6.236680">
        <ele>275.595</ele>
        <time>2020-05-21T10:33:10Z</time>
      </trkpt>
      <trkpt lat="43.238890" lon="-6.236780">
        <ele>264.949</ele>
        <time>2020-05-21T10:33:30Z</time>
      </trkpt>
      <trkpt lat="43.238720" lon="-6.236890">
        <ele>268.123</ele>
        <time>2020-05-21T10:33:50Z</time>
      </trkpt>
      <trkpt lat="43.238570" lon="-6.236990">
        <ele>279.608</ele>
        <time>2020-05-21T10:34:10Z</time>
      </trkpt>
      <trkpt lat="43.238480" lon="-6.237050">
        <ele>293.433</ele>
        <time>2020-05-21T10:34:30Z</time>
      </trkpt>
      <trkpt lat="43.238450" lon="-6.237070">
        <ele>298.398</ele>
        <time>2020-05-21T10:34:50Z</time>
      </trkpt>
      <trkpt lat="43.238280" lon="-6.237110">
        <ele>314.175</ele>
        <time>2020-05-21T10:35:10Z</time>
      </trkpt>
      <trkpt lat="43.238130" lon="-6.237130">
        <ele>317.891</ele>
        <time>2020-05-21T10:35:30Z</time>
      </trkpt>
      <trkpt lat="43.237990" lon="-6.237140">
        <ele>319.130</ele>
        <time>2020-05-21T10:35:50Z</time>
      </trkpt>
      <trkpt lat="43.237700" lon="-6.237130">
        <ele>315.511</ele>
        <time>2020-05-21T10:36:10Z</time>
      </trkpt>
      <trkpt lat="43.237660" lon="-6.237130">
        <ele>314.950</ele>
        <time>2020-05-21T10:36:30Z</time>
      </trkpt>
      <trkpt lat="43.237480" lon="-6.237110">
        <ele>310.113</ele>
        <time>2020-05-21T10:36:50Z</time>
      </trkpt>
      <trkpt lat="43.236360" lon="-6.236980">
        <ele>299.882</ele>
        <time>2020-05-21T10:37:10Z</time>
      </trkpt>
      <trkpt lat="43.236230" lon="-6.236960">
        <ele>301.343</ele>
        <time>2020-05-21T10:37:30Z</time>
      </trkpt>
      <trkpt lat="43.236050" lon="-6.236920">
        <ele>301.617</ele>
        <time>2020-05-21T10:37:50Z</time>
      </trkpt>
      <trkpt lat="43.235900" lon="-6.236890">
        <ele>299.608</ele>
        <time>2020-05-21T10:38:10Z</time>
      </trkpt>
      <trkpt lat="43.235870" lon="-6.236890">
        <ele>299.532</ele>
        <time>2020-05-21T10:38:30Z</time>
      </trkpt>
      <trkpt lat="43.235490" lon="-6.236820">
        <ele>294.347</ele>
        <time>2020-05-21T10:38:50Z</time>
      </trkpt>
      <trkpt lat="43.234980" lon="-6.236740">
        <ele>290.674</ele>
        <time>2020-05-21T10:39:10Z</time>
      </trkpt>
      <trkpt lat="43.234770" lon="-6.236700">
        <ele>291.390</ele>
        <time>2020-05-21T10:39:30Z</time>
      </trkpt>
      <trkpt lat="43.234050" lon="-6.236580">
        <ele>284.439</ele>
        <time>2020-05-21T10:39:50Z</time>
      </trkpt>
      <trkpt lat="43.233970" lon="-6.236580">
        <ele>283.830</ele>
        <time>2020-05-21T10:40:10Z</time>
      </trkpt>
      <trkpt lat="43.233890" lon="-6.236580">
        <ele>283.229</ele>
        <time>2020-05-21T10:40:30Z</time>
      </trkpt>
      <trkpt lat="43.233820" lon="-6.236590">
        <ele>282.372</ele>
        <time>2020-05-21T10:40:50Z</time>
      </trkpt>
      <trkpt lat="43.233760" lon="-6.236620">
        <ele>282.085</ele>
        <time>2020-05-21T10:41:10Z</time>
      </trkpt>
      <trkpt lat="43.233720" lon="-6.236630">
        <ele>281.589</ele>
        <time>2020-05-21T10:41:30Z</time>
      </trkpt>
      <trkpt lat="43.233690" lon="-6.236650">
        <ele>281.317</ele>
        <time>2020-05-21T10:41:50Z</time>
      </trkpt>
      <trkpt lat="43.233620" lon="-6.236690">
        <ele>280.908</ele>
        <time>2020-05-21T10:42:10Z</time>
      </trkpt>
      <trkpt lat="43.233610" lon="-6.236700">
        <ele>281.082</ele>
        <time>2020-05-21T10:42:30Z</time>
      </trkpt>
      <trkpt lat="43.233540" lon="-6.236750">
        <ele>281.887</ele>
        <time>2020-05-21T10:42:50Z</time>
      </trkpt>
      <trkpt lat="43.233490" lon="-6.236790">
        <ele>282.334</ele>
        <time>2020-05-21T10:43:10Z</time>
      </trkpt>
      <trkpt lat="43.233440" lon="-6.236850">
        <ele>283.010</ele>
        <time>2020-05-21T10:43:30Z</time>
      </trkpt>
      <trkpt lat="43.233410" lon="-6.236900">
        <ele>283.669</ele>
        <time>2020-05-21T10:43:50Z</time>
      </trkpt>
      <trkpt lat="43.233370" lon="-6.236960">
        <ele>284.010</ele>
        <time>2020-05-21T10:44:10Z</time>
      </trkpt>
      <trkpt lat="43.233330" lon="-6.237030">
        <ele>284.859</ele>
        <time>2020-05-21T10:44:30Z</time>
      </trkpt>
      <trkpt lat="43.233300" lon="-6.237100">
        <ele>285.932</ele>
        <time>2020-05-21T10:44:50Z</time>
      </trkpt>
      <trkpt lat="43.233280" lon="-6.237170">
        <ele>287.123</ele>
        <time>2020-05-21T10:45:10Z</time>
      </trkpt>
      <trkpt lat="43.233260" lon="-6.237230">
        <ele>288.183</ele>
        <time>2020-05-21T10:45:30Z</time>
      </trkpt>
      <trkpt lat="43.233260" lon="-6.237250">
        <ele>288.611</ele>
        <time>2020-05-21T10:45:50Z</time>
      </trkpt>
      <trkpt lat="43.233240" lon="-6.237350">
        <ele>290.608</ele>
        <time>2020-05-21T10:46:10Z</time>
      </trkpt>
      <trkpt lat="43.233220" lon="-6.237520">
        <ele>293.876</ele>
        <time>2020-05-21T10:46:30Z</time>
      </trkpt>
      <trkpt lat="43.233210" lon="-6.237670">
        <ele>297.121</ele>
        <time>2020-05-21T10:46:50Z</time>
      </trkpt>
      <trkpt lat="43.233210" lon="-6.237720">
        <ele>298.328</ele>
        <time>2020-05-21T10:47:10Z</time>
      </trkpt>
      <trkpt lat="43.233180" lon="-6.237960">
        <ele>301.744</ele>
        <time>2020-05-21T10:47:30Z</time>
      </trkpt>
      <trkpt lat="43.233180" lon="-6.237970">
        <ele>301.813</ele>
        <time>2020-05-21T10:47:50Z</time>
      </trkpt>
      <trkpt lat="43.233160" lon="-6.238100">
        <ele>303.634</ele>
        <time>2020-05-21T10:48:10Z</time>
      </trkpt>
      <trkpt lat="43.233090" lon="-6.238260">
        <ele>303.593</ele>
        <time>2020-05-21T10:48:30Z</time>
      </trkpt>
      <trkpt lat="43.233050" lon="-6.238340">
        <ele>303.066</ele>
        <time>2020-05-21T10:48:50Z</time>
      </trkpt>
      <trkpt lat="43.233010" lon="-6.238410">
        <ele>304.179</ele>
        <time>2020-05-21T10:49:10Z</time>
      </trkpt>
      <trkpt lat="43.232930" lon="-6.238490">
        <ele>302.805</ele>
        <time>2020-05-21T10:49:30Z</time>
      </trkpt>
      <trkpt lat="43.232790" lon="-6.238590">
        <ele>297.325</ele>
        <time>2020-05-21T10:49:50Z</time>
      </trkpt>
      <trkpt lat="43.232540" lon="-6.238730">
        <ele>298.608</ele>
        <time>2020-05-21T10:50:10Z</time>
      </trkpt>
      <trkpt lat="43.232510" lon="-6.238750">
        <ele>298.991</ele>
        <time>2020-05-21T10:50:30Z</time>
      </trkpt>
      <trkpt lat="43.232380" lon="-6.238820">
        <ele>298.266</ele>
        <time>2020-05-21T10:50:50Z</time>
      </trkpt>
      <trkpt lat="43.232370" lon="-6.238820">
        <ele>297.863</ele>
        <time>2020-05-21T10:51:10Z</time>
      </trkpt>
      <trkpt lat="43.232210" lon="-6.238930">
        <ele>295.249</ele>
        <time>2020-05-21T10:51:30Z</time>
      </trkpt>
      <trkpt lat="43.232170" lon="-6.238950">
        <ele>295.848</ele>
        <time>2020-05-21T10:51:50Z</time>
      </trkpt>
      <trkpt lat="43.232040" lon="-6.239020">
        <ele>297.329</ele>
        <time>2020-05-21T10:52:10Z</time>
      </trkpt>
      <trkpt lat="43.231930" lon="-6.239080">
        <ele>297.958</ele>
        <time>2020-05-21T10:52:30Z</time>
      </trkpt>
      <trkpt lat="43.231870" lon="-6.239100">
        <ele>297.221</ele>
        <time>2020-05-21T10:52:50Z</time>
      </trkpt>
      <trkpt lat="43.231700" lon="-6.239160">
        <ele>294.011</ele>
        <time>2020-05-21T10:53:10Z</time>
      </trkpt>
      <trkpt lat="43.231590" lon="-6.239200">
        <ele>294.221</ele>
        <time>2020-05-21T10:53:30Z</time>
      </trkpt>
      <trkpt lat="43.231520" lon="-6.239220">
        <ele>293.903</ele>
        <time>2020-05-21T10:53:50Z</time>
      </trkpt>
      <trkpt lat="43.231450" lon="-6.239230">
        <ele>292.808</ele>
        <time>2020-05-21T10:54:10Z</time>
      </trkpt>
      <trkpt lat="43.231420" lon="-6.239230">
        <ele>292.255</ele>
        <time>2020-05-21T10:54:30Z</time>
      </trkpt>
      <trkpt lat="43.231370" lon="-6.239250">
        <ele>291.440</ele>
        <time>2020-05-21T10:54:50Z</time>
      </trkpt>
      <trkpt lat="43.231290" lon="-6.239270">
        <ele>291.567</ele>
        <time>2020-05-21T10:55:10Z</time>
      </trkpt>
      <trkpt lat="43.231230" lon="-6.239280">
        <ele>291.753</ele>
        <time>2020-05-21T10:55:30Z</time>
      </trkpt>
      <trkpt lat="43.231130" lon="-6.239300">
        <ele>292.342</ele>
        <time>2020-05-21T10:55:50Z</time>
      </trkpt>
      <trkpt lat="43.231020" lon="-6.239300">
        <ele>295.853</ele>
        <time>2020-05-21T10:56:10Z</time>
      </trkpt>
      <trkpt lat="43.230920" lon="-6.239280">
        <ele>298.772</ele>
        <time>2020-05-21T10:56:30Z</time>
      </trkpt>
      <trkpt lat="43.230820" lon="-6.239240">
        <ele>300.455</ele>
        <time>2020-05-21T10:56:50Z</time>
      </trkpt>
      <trkpt lat="43.230720" lon="-6.239180">
        <ele>302.075</ele>
        <time>2020-05-21T10:57:10Z</time>
      </trkpt>
      <trkpt lat="43.230660" lon="-6.239130">
        <ele>302.428</ele>
        <time>2020-05-21T10:57:30Z</time>
      </trkpt>
      <trkpt lat="43.230490" lon="-6.239010">
        <ele>302.120</ele>
        <time>2020-05-21T10:57:50Z</time>
      </trkpt>
      <trkpt lat="43.230410" lon="-6.238940">
        <ele>300.008</ele>
        <time>2020-05-21T10:58:10Z</time>
      </trkpt>
      <trkpt lat="43.230350" lon="-6.238890">
        <ele>298.551</ele>
        <time>2020-05-21T10:58:30Z</time>
      </trkpt>
      <trkpt lat="43.230260" lon="-6.238790">
        <ele>297.476</ele>
        <time>2020-05-21T10:58:50Z</time>
      </trkpt>
      <trkpt lat="43.230190" lon="-6.238660">
        <ele>296.313</ele>
        <time>2020-05-21T10:59:10Z</time>
      </trkpt>
      <trkpt lat="43.230160" lon="-6.238590">
        <ele>295.389</ele>
        <time>2020-05-21T10:59:30Z</time>
      </trkpt>
      <trkpt lat="43.230080" lon="-6.238440">
        <ele>294.118</ele>
        <time>2020-05-21T10:59:50Z</time>
      </trkpt>
      <trkpt lat="43.230050" lon="-6.238390">
        <ele>293.489</ele>
        <time>2020-05-21T11:00:10Z</time>
      </trkpt>
      <trkpt lat="43.229970" lon="-6.238250">
        <ele>293.788</ele>
        <time>2020-05-21T11:00:30Z</time>
      </trkpt>
      <trkpt lat="43.229930" lon="-6.238210">
        <ele>295.321</ele>
        <time>2020-05-21T11:00:50Z</time>
      </trkpt>
      <trkpt lat="43.229850" lon="-6.238100">
        <ele>297.298</ele>
        <time>2020-05-21T11:01:10Z</time>
      </trkpt>
      <trkpt lat="43.229790" lon="-6.238050">
        <ele>298.615</ele>
        <time>2020-05-21T11:01:30Z</time>
      </trkpt>
      <trkpt lat="43.229750" lon="-6.238010">
        <ele>298.926</ele>
        <time>2020-05-21T11:01:50Z</time>
      </trkpt>
      <trkpt lat="43.229680" lon="-6.237960">
        <ele>299.508</ele>
        <time>2020-05-21T11:02:10Z</time>
      </trkpt>
      <trkpt lat="43.229570" lon="-6.237930">
        <ele>302.253</ele>
        <time>2020-05-21T11:02:30Z</time>
      </trkpt>
      <trkpt lat="43.229460" lon="-6.237890">
        <ele>303.978</ele>
        <time>2020-05-21T11:02:50Z</time>
      </trkpt>
      <trkpt lat="43.229100" lon="-6.237790">
        <ele>305.735</ele>
        <time>2020-05-21T11:03:10Z</time>
      </trkpt>
      <trkpt lat="43.229070" lon="-6.237780">
        <ele>305.441</ele>
        <time>2020-05-21T11:03:30Z</time>
      </trkpt>
      <trkpt lat="43.228930" lon="-6.237750">
        <ele>304.820</ele>
        <time>2020-05-21T11:03:50Z</time>
      </trkpt>
      <trkpt lat="43.228800" lon="-6.237710">
        <ele>302.571</ele>
        <time>2020-05-21T11:04:10Z</time>
      </trkpt>
      <trkpt lat="43.228750" lon="-6.237700">
        <ele>301.680</ele>
        <time>2020-05-21T11:04:30Z</time>
      </trkpt>
      <trkpt lat="43.228580" lon="-6.237640">
        <ele>298.233</ele>
        <time>2020-05-21T11:04:50Z</time>
      </trkpt>
      <trkpt lat="43.228400" lon="-6.237590">
        <ele>299.524</ele>
        <time>2020-05-21T11:05:10Z</time>
      </trkpt>
      <trkpt lat="43.228130" lon="-6.237500">
        <ele>297.704</ele>
        <time>2020-05-21T11:05:30Z</time>
      </trkpt>
      <trkpt lat="43.228050" lon="-6.237490">
        <ele>297.714</ele>
        <time>2020-05-21T11:05:50Z</time>
      </trkpt>
      <trkpt lat="43.227980" lon="-6.237490">
        <ele>297.908</ele>
        <time>2020-05-21T11:06:10Z</time>
      </trkpt>
      <trkpt lat="43.227880" lon="-6.237490">
        <ele>298.256</ele>
        <time>2020-05-21T11:06:30Z</time>
      </trkpt>
      <trkpt lat="43.227720" lon="-6.237510">
        <ele>298.781</ele>
        <time>2020-05-21T11:06:50Z</time>
      </trkpt>
      <trkpt lat="43.227580" lon="-6.237560">
        <ele>299.098</ele>
        <time>2020-05-21T11:07:10Z</time>
      </trkpt>
      <trkpt lat="43.227450" lon="-6.237620">
        <ele>299.084</ele>
        <time>2020-05-21T11:07:30Z</time>
      </trkpt>
      <trkpt lat="43.227430" lon="-6.237640">
        <ele>299.353</ele>
        <time>2020-05-21T11:07:50Z</time>
      </trkpt>
      <trkpt lat="43.227380" lon="-6.237660">
        <ele>298.874</ele>
        <time>2020-05-21T11:08:10Z</time>
      </trkpt>
      <trkpt lat="43.227290" lon="-6.237730">
        <ele>298.783</ele>
        <time>2020-05-21T11:08:30Z</time>
      </trkpt>
      <trkpt lat="43.227200" lon="-6.237780">
        <ele>297.896</ele>
        <time>2020-05-21T11:08:50Z</time>
      </trkpt>
      <trkpt lat="43.227130" lon="-6.237840">
        <ele>300.055</ele>
        <time>2020-05-21T11:09:10Z</time>
      </trkpt>
      <trkpt lat="43.227060" lon="-6.237900">
        <ele>301.707</ele>
        <time>2020-05-21T11:09:30Z</time>
      </trkpt>
      <trkpt lat="43.226970" lon="-6.238010">
        <ele>304.717</ele>
        <time>2020-05-21T11:09:50Z</time>
      </trkpt>
      <trkpt lat="43.226890" lon="-6.238140">
        <ele>307.808</ele>
        <time>2020-05-21T11:10:10Z</time>
      </trkpt>
      <trkpt lat="43.226740" lon="-6.238330">
        <ele>308.179</ele>
        <time>2020-05-21T11:10:30Z</time>
      </trkpt>
      <trkpt lat="43.226700" lon="-6.238370">
        <ele>307.454</ele>
        <time>2020-05-21T11:10:50Z</time>
      </trkpt>
      <trkpt lat="43.226650" lon="-6.238440">
        <ele>307.291</ele>
        <time>2020-05-21T11:11:10Z</time>
      </trkpt>
      <trkpt lat="43.226340" lon="-6.238860">
        <ele>306.057</ele>
        <time>2020-05-21T11:11:30Z</time>
      </trkpt>
      <trkpt lat="43.226020" lon="-6.239290">
        <ele>306.126</ele>
        <time>2020-05-21T11:11:50Z</time>
      </trkpt>
      <trkpt lat="43.225910" lon="-6.239420">
        <ele>306.227</ele>
        <time>2020-05-21T11:12:10Z</time>
      </trkpt>
      <trkpt lat="43.225870" lon="-6.239460">
        <ele>306.066</ele>
        <time>2020-05-21T11:12:30Z</time>
      </trkpt>
      <trkpt lat="43.225820" lon="-6.239510">
        <ele>306.439</ele>
        <time>2020-05-21T11:12:50Z</time>
      </trkpt>
      <trkpt lat="43.225760" lon="-6.239560">
        <ele>306.664</ele>
        <time>2020-05-21T11:13:10Z</time>
      </trkpt>
      <trkpt lat="43.225700" lon="-6.239600">
        <ele>306.106</ele>
        <time>2020-05-21T11:13:30Z</time>
      </trkpt>
      <trkpt lat="43.225630" lon="-6.239640">
        <ele>305.016</ele>
        <time>2020-05-21T11:13:50Z</time>
      </trkpt>
      <trkpt lat="43.225540" lon="-6.239690">
        <ele>303.608</ele>
        <time>2020-05-21T11:14:10Z</time>
      </trkpt>
      <trkpt lat="43.225450" lon="-6.239740">
        <ele>303.250</ele>
        <time>2020-05-21T11:14:30Z</time>
      </trkpt>
      <trkpt lat="43.225200" lon="-6.239970">
        <ele>303.785</ele>
        <time>2020-05-21T11:14:50Z</time>
      </trkpt>
      <trkpt lat="43.225120" lon="-6.240050">
        <ele>303.552</ele>
        <time>2020-05-21T11:15:10Z</time>
      </trkpt>
      <trkpt lat="43.225030" lon="-6.240210">
        <ele>303.368</ele>
        <time>2020-05-21T11:15:30Z</time>
      </trkpt>
      <trkpt lat="43.224960" lon="-6.240340">
        <ele>304.677</ele>
        <time>2020-05-21T11:15:50Z</time>
      </trkpt>
      <trkpt lat="43.224860" lon="-6.240540">
        <ele>307.198</ele>
        <time>2020-05-21T11:16:10Z</time>
      </trkpt>
      <trkpt lat="43.224820" lon="-6.240610">
        <ele>307.077</ele>
        <time>2020-05-21T11:16:30Z</time>
      </trkpt>
      <trkpt lat="43.224730" lon="-6.240750">
        <ele>305.690</ele>
        <time>2020-05-21T11:16:50Z</time>
      </trkpt>
      <trkpt lat="43.224660" lon="-6.240850">
        <ele>306.325</ele>
        <time>2020-05-21T11:17:10Z</time>
      </trkpt>
      <trkpt lat="43.224580" lon="-6.240930">
        <ele>306.126</ele>
        <time>2020-05-21T11:17:30Z</time>
      </trkpt>
      <trkpt lat="43.224280" lon="-6.241090">
        <ele>302.308</ele>
        <time>2020-05-21T11:17:50Z</time>
      </trkpt>
      <trkpt lat="43.224240" lon="-6.241120">
        <ele>302.608</ele>
        <time>2020-05-21T11:18:10Z</time>
      </trkpt>
      <trkpt lat="43.223950" lon="-6.241280">
        <ele>304.876</ele>
        <time>2020-05-21T11:18:30Z</time>
      </trkpt>
      <trkpt lat="43.223850" lon="-6.241340">
        <ele>303.871</ele>
        <time>2020-05-21T11:18:50Z</time>
      </trkpt>
      <trkpt lat="43.223790" lon="-6.241380">
        <ele>302.548</ele>
        <time>2020-05-21T11:19:10Z</time>
      </trkpt>
      <trkpt lat="43.223700" lon="-6.241450">
        <ele>301.224</ele>
        <time>2020-05-21T11:19:30Z</time>
      </trkpt>
      <trkpt lat="43.223640" lon="-6.241520">
        <ele>300.133</ele>
        <time>2020-05-21T11:19:50Z</time>
      </trkpt>
      <trkpt lat="43.223600" lon="-6.241570">
        <ele>299.264</ele>
        <time>2020-05-21T11:20:10Z</time>
      </trkpt>
      <trkpt lat="43.223550" lon="-6.241650">
        <ele>298.843</ele>
        <time>2020-05-21T11:20:30Z</time>
      </trkpt>
      <trkpt lat="43.223520" lon="-6.241710">
        <ele>299.276</ele>
        <time>2020-05-21T11:20:50Z</time>
      </trkpt>
      <trkpt lat="43.223510" lon="-6.241750">
        <ele>299.846</ele>
        <time>2020-05-21T11:21:10Z</time>
      </trkpt>
      <trkpt lat="43.223450" lon="-6.241930">
        <ele>301.588</ele>
        <time>2020-05-21T11:21:30Z</time>
      </trkpt>
      <trkpt lat="43.223400" lon="-6.242230">
        <ele>303.816</ele>
        <time>2020-05-21T11:21:50Z</time>
      </trkpt>
      <trkpt lat="43.223370" lon="-6.242420">
        <ele>306.108</ele>
        <time>2020-05-21T11:22:10Z</time>
      </trkpt>
      <trkpt lat="43.223300" lon="-6.242830">
        <ele>307.858</ele>
        <time>2020-05-21T11:22:30Z</time>
      </trkpt>
      <trkpt lat="43.223280" lon="-6.242890">
        <ele>308.873</ele>
        <time>2020-05-21T11:22:50Z</time>
      </trkpt>
      <trkpt lat="43.223180" lon="-6.243180">
        <ele>310.720</ele>
        <time>2020-05-21T11:23:10Z</time>
      </trkpt>
      <trkpt lat="43.222980" lon="-6.243490">
        <ele>311.066</ele>
        <time>2020-05-21T11:23:30Z</time>
      </trkpt>
      <trkpt lat="43.222840" lon="-6.243690">
        <ele>310.295</ele>
        <time>2020-05-21T11:23:50Z</time>
      </trkpt>
      <trkpt lat="43.222540" lon="-6.244020">
        <ele>305.656</ele>
        <time>2020-05-21T11:24:10Z</time>
      </trkpt>
      <trkpt lat="43.222170" lon="-6.244450">
        <ele>303.025</ele>
        <time>2020-05-21T11:24:30Z</time>
      </trkpt>
      <trkpt lat="43.222160" lon="-6.244460">
        <ele>303.428</ele>
        <time>2020-05-21T11:24:50Z</time>
      </trkpt>
      <trkpt lat="43.222010" lon="-6.244620">
        <ele>307.463</ele>
        <time>2020-05-21T11:25:10Z</time>
      </trkpt>
      <trkpt lat="43.221880" lon="-6.244770">
        <ele>308.844</ele>
        <time>2020-05-21T11:25:30Z</time>
      </trkpt>
      <trkpt lat="43.221740" lon="-6.244930">
        <ele>308.918</ele>
        <time>2020-05-21T11:25:50Z</time>
      </trkpt>
      <trkpt lat="43.221620" lon="-6.245040">
        <ele>307.808</ele>
        <time>2020-05-21T11:26:10Z</time>
      </trkpt>
      <trkpt lat="43.221590" lon="-6.245060">
        <ele>307.510</ele>
        <time>2020-05-21T11:26:30Z</time>
      </trkpt>
      <trkpt lat="43.221430" lon="-6.245190">
        <ele>307.145</ele>
        <time>2020-05-21T11:26:50Z</time>
      </trkpt>
      <trkpt lat="43.221280" lon="-6.245320">
        <ele>307.682</ele>
        <time>2020-05-21T11:27:10Z</time>
      </trkpt>
      <trkpt lat="43.221230" lon="-6.245360">
        <ele>307.798</ele>
        <time>2020-05-21T11:27:30Z</time>
      </trkpt>
      <trkpt lat="43.221090" lon="-6.245540">
        <ele>308.237</ele>
        <time>2020-05-21T11:27:50Z</time>
      </trkpt>
      <trkpt lat="43.221030" lon="-6.245640">
        <ele>306.368</ele>
        <time>2020-05-21T11:28:10Z</time>
      </trkpt>
      <trkpt lat="43.221020" lon="-6.245650">
        <ele>305.997</ele>
        <time>2020-05-21T11:28:30Z</time>
      </trkpt>
      <trkpt lat="43.220940" lon="-6.245860">
        <ele>302.630</ele>
        <time>2020-05-21T11:28:50Z</time>
      </trkpt>
      <trkpt lat="43.220890" lon="-6.246090">
        <ele>302.935</ele>
        <time>2020-05-21T11:29:10Z</time>
      </trkpt>
      <trkpt lat="43.220890" lon="-6.246290">
        <ele>305.686</ele>
        <time>2020-05-21T11:29:30Z</time>
      </trkpt>
      <trkpt lat="43.220900" lon="-6.246500">
        <ele>309.614</ele>
        <time>2020-05-21T11:29:50Z</time>
      </trkpt>
      <trkpt lat="43.220910" lon="-6.246600">
        <ele>312.008</ele>
        <time>2020-05-21T11:30:10Z</time>
      </trkpt>
      <trkpt lat="43.220920" lon="-6.246730">
        <ele>313.927</ele>
        <time>2020-05-21T11:30:30Z</time>
      </trkpt>
      <trkpt lat="43.220960" lon="-6.246990">
        <ele>316.732</ele>
        <time>2020-05-21T11:30:50Z</time>
      </trkpt>
      <trkpt lat="43.220950" lon="-6.247090">
        <ele>315.849</ele>
        <time>2020-05-21T11:31:10Z</time>
      </trkpt>
      <trkpt lat="43.220920" lon="-6.247320">
        <ele>314.725</ele>
        <time>2020-05-21T11:31:30Z</time>
      </trkpt>
      <trkpt lat="43.220920" lon="-6.247330">
        <ele>314.844</ele>
        <time>2020-05-21T11:31:50Z</time>
      </trkpt>
      <trkpt lat="43.220880" lon="-6.247550">
        <ele>314.815</ele>
        <time>2020-05-21T11:32:10Z</time>
      </trkpt>
      <trkpt lat="43.220810" lon="-6.247830">
        <ele>315.424</ele>
        <time>2020-05-21T11:32:30Z</time>
      </trkpt>
      <trkpt lat="43.220710" lon="-6.248120">
        <ele>316.777</ele>
        <time>2020-05-21T11:32:50Z</time>
      </trkpt>
      <trkpt lat="43.220640" lon="-6.248220">
        <ele>315.932</ele>
        <time>2020-05-21T11:33:10Z</time>
      </trkpt>
      <trkpt lat="43.220640" lon="-6.248230">
        <ele>316.292</ele>
        <time>2020-05-21T11:33:30Z</time>
      </trkpt>
      <trkpt lat="43.220600" lon="-6.248300">
        <ele>316.111</ele>
        <time>2020-05-21T11:33:50Z</time>
      </trkpt>
      <trkpt lat="43.220440" lon="-6.248550">
        <ele>316.608</ele>
        <time>2020-05-21T11:34:10Z</time>
      </trkpt>
      <trkpt lat="43.220390" lon="-6.248640">
        <ele>316.417</ele>
        <time>2020-05-21T11:34:30Z</time>
      </trkpt>
      <trkpt lat="43.220350" lon="-6.248720">
        <ele>316.092</ele>
        <time>2020-05-21T11:34:50Z</time>
      </trkpt>
      <trkpt lat="43.220330" lon="-6.248780">
        <ele>316.029</ele>
        <time>2020-05-21T11:35:10Z</time>
      </trkpt>
      <trkpt lat="43.220310" lon="-6.248810">
        <ele>315.575</ele>
        <time>2020-05-21T11:35:30Z</time>
      </trkpt>
      <trkpt lat="43.220300" lon="-6.248840">
        <ele>315.594</ele>
        <time>2020-05-21T11:35:50Z</time>
      </trkpt>
      <trkpt lat="43.220270" lon="-6.248930">
        <ele>314.975</ele>
        <time>2020-05-21T11:36:10Z</time>
      </trkpt>
      <trkpt lat="43.220250" lon="-6.248990">
        <ele>314.584</ele>
        <time>2020-05-21T11:36:30Z</time>
      </trkpt>
      <trkpt lat="43.220240" lon="-6.249050">
        <ele>314.427</ele>
        <time>2020-05-21T11:36:50Z</time>
      </trkpt>
      <trkpt lat="43.220220" lon="-6.249140">
        <ele>314.069</ele>
        <time>2020-05-21T11:37:10Z</time>
      </trkpt>
      <trkpt lat="43.220210" lon="-6.249220">
        <ele>314.004</ele>
        <time>2020-05-21T11:37:30Z</time>
      </trkpt>
      <trkpt lat="43.220210" lon="-6.249290">
        <ele>314.424</ele>
        <time>2020-05-21T11:37:50Z</time>
      </trkpt>
      <trkpt lat="43.220200" lon="-6.249380">
        <ele>314.508</ele>
        <time>2020-05-21T11:38:10Z</time>
      </trkpt>
      <trkpt lat="43.220180" lon="-6.250220">
        <ele>315.150</ele>
        <time>2020-05-21T11:38:30Z</time>
      </trkpt>
      <trkpt lat="43.220180" lon="-6.250270">
        <ele>315.535</ele>
        <time>2020-05-21T11:38:50Z</time>
      </trkpt>
      <trkpt lat="43.220170" lon="-6.250510">
        <ele>316.642</ele>
        <time>2020-05-21T11:39:10Z</time>
      </trkpt>
      <trkpt lat="43.220170" lon="-6.250540">
        <ele>316.868</ele>
        <time>2020-05-21T11:39:30Z</time>
      </trkpt>
      <trkpt lat="43.220150" lon="-6.250670">
        <ele>317.657</ele>
        <time>2020-05-21T11:39:50Z</time>
      </trkpt>
      <trkpt lat="43.220140" lon="-6.250760">
        <ele>318.268</ele>
        <time>2020-05-21T11:40:10Z</time>
      </trkpt>
      <trkpt lat="43.220140" lon="-6.250790">
        <ele>318.677</ele>
        <time>2020-05-21T11:40:30Z</time>
      </trkpt>
      <trkpt lat="43.220120" lon="-6.250890">
        <ele>318.780</ele>
        <time>2020-05-21T11:40:50Z</time>
      </trkpt>
      <trkpt lat="43.220090" lon="-6.251010">
        <ele>318.111</ele>
        <time>2020-05-21T11:41:10Z</time>
      </trkpt>
      <trkpt lat="43.220050" lon="-6.251170">
        <ele>317.321</ele>
        <time>2020-05-21T11:41:30Z</time>
      </trkpt>
      <trkpt lat="43.220010" lon="-6.251290">
        <ele>317.103</ele>
        <time>2020-05-21T11:41:50Z</time>
      </trkpt>
      <trkpt lat="43.219950" lon="-6.251450">
        <ele>317.408</ele>
        <time>2020-05-21T11:42:10Z</time>
      </trkpt>
      <trkpt lat="43.219870" lon="-6.251670">
        <ele>318.495</ele>
        <time>2020-05-21T11:42:30Z</time>
      </trkpt>
      <trkpt lat="43.219860" lon="-6.251690">
        <ele>318.350</ele>
        <time>2020-05-21T11:42:50Z</time>
      </trkpt>
      <trkpt lat="43.219810" lon="-6.251840">
        <ele>318.627</ele>
        <time>2020-05-21T11:43:10Z</time>
      </trkpt>
      <trkpt lat="43.219800" lon="-6.251890">
        <ele>318.993</ele>
        <time>2020-05-21T11:43:30Z</time>
      </trkpt>
      <trkpt lat="43.219790" lon="-6.251940">
        <ele>319.112</ele>
        <time>2020-05-21T11:43:50Z</time>
      </trkpt>
      <trkpt lat="43.219770" lon="-6.252010">
        <ele>318.973</ele>
        <time>2020-05-21T11:44:10Z</time>
      </trkpt>
      <trkpt lat="43.219740" lon="-6.252120">
        <ele>318.752</ele>
        <time>2020-05-21T11:44:30Z</time>
      </trkpt>
      <trkpt lat="43.219730" lon="-6.252160">
        <ele>318.795</ele>
        <time>2020-05-21T11:44:50Z</time>
      </trkpt>
      <trkpt lat="43.219700" lon="-6.252290">
        <ele>318.592</ele>
        <time>2020-05-21T11:45:10Z</time>
      </trkpt>
      <trkpt lat="43.219680" lon="-6.252400">
        <ele>317.973</ele>
        <time>2020-05-21T11:45:30Z</time>
      </trkpt>
      <trkpt lat="43.219680" lon="-6.252490">
        <ele>317.720</ele>
        <time>2020-05-21T11:45:50Z</time>
      </trkpt>
      <trkpt lat="43.219680" lon="-6.252600">
        <ele>318.808</ele>
        <time>2020-05-21T11:46:10Z</time>
      </trkpt>
      <trkpt lat="43.219680" lon="-6.252700">
        <ele>319.973</ele>
        <time>2020-05-21T11:46:30Z</time>
      </trkpt>
      <trkpt lat="43.219690" lon="-6.252840">
        <ele>321.118</ele>
        <time>2020-05-21T11:46:50Z</time>
      </trkpt>
      <trkpt lat="43.219730" lon="-6.253150">
        <ele>322.595</ele>
        <time>2020-05-21T11:47:10Z</time>
      </trkpt>
      <trkpt lat="43.219740" lon="-6.253250">
        <ele>323.031</ele>
        <time>2020-05-21T11:47:30Z</time>
      </trkpt>
      <trkpt lat="43.219750" lon="-6.253340">
        <ele>323.570</ele>
        <time>2020-05-21T11:47:50Z</time>
      </trkpt>
      <trkpt lat="43.219750" lon="-6.253440">
        <ele>323.011</ele>
        <time>2020-05-21T11:48:10Z</time>
      </trkpt>
      <trkpt lat="43.219740" lon="-6.253550">
        <ele>322.140</ele>
        <time>2020-05-21T11:48:30Z</time>
      </trkpt>
      <trkpt lat="43.219730" lon="-6.253650">
        <ele>321.453</ele>
        <time>2020-05-21T11:48:50Z</time>
      </trkpt>
      <trkpt lat="43.219710" lon="-6.253750">
        <ele>320.745</ele>
        <time>2020-05-21T11:49:10Z</time>
      </trkpt>
      <trkpt lat="43.219680" lon="-6.253860">
        <ele>319.847</ele>
        <time>2020-05-21T11:49:30Z</time>
      </trkpt>
      <trkpt lat="43.219650" lon="-6.253960">
        <ele>319.411</ele>
        <time>2020-05-21T11:49:50Z</time>
      </trkpt>
      <trkpt lat="43.219620" lon="-6.254020">
        <ele>318.808</ele>
        <time>2020-05-21T11:50:10Z</time>
      </trkpt>
      <trkpt lat="43.219560" lon="-6.254130">
        <ele>317.658</ele>
        <time>2020-05-21T11:50:30Z</time>
      </trkpt>
      <trkpt lat="43.219520" lon="-6.254190">
        <ele>316.963</ele>
        <time>2020-05-21T11:50:50Z</time>
      </trkpt>
      <trkpt lat="43.219470" lon="-6.254250">
        <ele>316.190</ele>
        <time>2020-05-21T11:51:10Z</time>
      </trkpt>
      <trkpt lat="43.219200" lon="-6.254530">
        <ele>315.286</ele>
        <time>2020-05-21T11:51:30Z</time>
      </trkpt>
      <trkpt lat="43.219160" lon="-6.254580">
        <ele>315.065</ele>
        <time>2020-05-21T11:51:50Z</time>
      </trkpt>
      <trkpt lat="43.218920" lon="-6.254830">
        <ele>314.386</ele>
        <time>2020-05-21T11:52:10Z</time>
      </trkpt>
      <trkpt lat="43.218890" lon="-6.254870">
        <ele>314.035</ele>
        <time>2020-05-21T11:52:30Z</time>
      </trkpt>
      <trkpt lat="43.218830" lon="-6.254930">
        <ele>314.518</ele>
        <time>2020-05-21T11:52:50Z</time>
      </trkpt>
      <trkpt lat="43.218700" lon="-6.255050">
        <ele>316.189</ele>
        <time>2020-05-21T11:53:10Z</time>
      </trkpt>
      <trkpt lat="43.218470" lon="-6.255280">
        <ele>318.606</ele>
        <time>2020-05-21T11:53:30Z</time>
      </trkpt>
      <trkpt lat="43.218270" lon="-6.255490">
        <ele>320.326</ele>
        <time>2020-05-21T11:53:50Z</time>
      </trkpt>
      <trkpt lat="43.218200" lon="-6.255570">
        <ele>320.208</ele>
        <time>2020-05-21T11:54:10Z</time>
      </trkpt>
      <trkpt lat="43.218090" lon="-6.255690">
        <ele>320.862</ele>
        <time>2020-05-21T11:54:30Z</time>
      </trkpt>
      <trkpt lat="43.218060" lon="-6.255730">
        <ele>320.947</ele>
        <time>2020-05-21T11:54:50Z</time>
      </trkpt>
      <trkpt lat="43.218040" lon="-6.255770">
        <ele>321.484</ele>
        <time>2020-05-21T11:55:10Z</time>
      </trkpt>
      <trkpt lat="43.217980" lon="-6.255860">
        <ele>322.480</ele>
        <time>2020-05-21T11:55:30Z</time>
      </trkpt>
      <trkpt lat="43.217930" lon="-6.255980">
        <ele>322.689</ele>
        <time>2020-05-21T11:55:50Z</time>
      </trkpt>
      <trkpt lat="43.217870" lon="-6.256140">
        <ele>321.980</ele>
        <time>2020-05-21T11:56:10Z</time>
      </trkpt>
      <trkpt lat="43.217840" lon="-6.256260">
        <ele>322.179</ele>
        <time>2020-05-21T11:56:30Z</time>
      </trkpt>
      <trkpt lat="43.217830" lon="-6.256380">
        <ele>322.672</ele>
        <time>2020-05-21T11:56:50Z</time>
      </trkpt>
      <trkpt lat="43.217810" lon="-6.256550">
        <ele>325.546</ele>
        <time>2020-05-21T11:57:10Z</time>
      </trkpt>
      <trkpt lat="43.217810" lon="-6.256870">
        <ele>331.488</ele>
        <time>2020-05-21T11:57:30Z</time>
      </trkpt>
      <trkpt lat="43.217810" lon="-6.257120">
        <ele>332.116</ele>
        <time>2020-05-21T11:57:50Z</time>
      </trkpt>
      <trkpt lat="43.217810" lon="-6.257210">
        <ele>331.708</ele>
        <time>2020-05-21T11:58:10Z</time>
      </trkpt>
      <trkpt lat="43.217810" lon="-6.257370">
        <ele>331.878</ele>
        <time>2020-05-21T11:58:30Z</time>
      </trkpt>
      <trkpt lat="43.217830" lon="-6.257500">
        <ele>332.313</ele>
        <time>2020-05-21T11:58:50Z</time>
      </trkpt>
      <trkpt lat="43.217850" lon="-6.257610">
        <ele>332.960</ele>
        <time>2020-05-21T11:59:10Z</time>
      </trkpt>
      <trkpt lat="43.217850" lon="-6.257620">
        <ele>332.986</ele>
        <time>2020-05-21T11:59:30Z</time>
      </trkpt>
      <trkpt lat="43.217890" lon="-6.257800">
        <ele>334.275</ele>
        <time>2020-05-21T11:59:50Z</time>
      </trkpt>
      <trkpt lat="43.217940" lon="-6.257970">
        <ele>335.096</ele>
        <time>2020-05-21T12:00:10Z</time>
      </trkpt>
      <trkpt lat="43.217960" lon="-6.258080">
        <ele>334.715</ele>
        <time>2020-05-21T12:00:30Z</time>
      </trkpt>
      <trkpt lat="43.217980" lon="-6.258220">
        <ele>332.088</ele>
        <time>2020-05-21T12:00:50Z</time>
      </trkpt>
      <trkpt lat="43.217990" lon="-6.258370">
        <ele>328.873</ele>
        <time>2020-05-21T12:01:10Z</time>
      </trkpt>
      <trkpt lat="43.217990" lon="-6.258570">
        <ele>324.785</ele>
        <time>2020-05-21T12:01:30Z</time>
      </trkpt>
      <trkpt lat="43.217970" lon="-6.259010">
        <ele>319.513</ele>
        <time>2020-05-21T12:01:50Z</time>
      </trkpt>
      <trkpt lat="43.217950" lon="-6.259330">
        <ele>319.608</ele>
        <time>2020-05-21T12:02:10Z</time>
      </trkpt>
      <trkpt lat="43.217930" lon="-6.259580">
        <ele>321.731</ele>
        <time>2020-05-21T12:02:30Z</time>
      </trkpt>
      <trkpt lat="43.217900" lon="-6.259790">
        <ele>324.446</ele>
        <time>2020-05-21T12:02:50Z</time>
      </trkpt>
      <trkpt lat="43.217840" lon="-6.260030">
        <ele>327.923</ele>
        <time>2020-05-21T12:03:10Z</time>
      </trkpt>
      <trkpt lat="43.217760" lon="-6.260220">
        <ele>331.169</ele>
        <time>2020-05-21T12:03:30Z</time>
      </trkpt>
      <trkpt lat="43.217650" lon="-6.260400">
        <ele>333.148</ele>
        <time>2020-05-21T12:03:50Z</time>
      </trkpt>
      <trkpt lat="43.217610" lon="-6.260440">
        <ele>333.139</ele>
        <time>2020-05-21T12:04:10Z</time>
      </trkpt>
      <trkpt lat="43.217460" lon="-6.260590">
        <ele>332.778</ele>
        <time>2020-05-21T12:04:30Z</time>
      </trkpt>
      <trkpt lat="43.217220" lon="-6.260790">
        <ele>331.771</ele>
        <time>2020-05-21T12:04:50Z</time>
      </trkpt>
      <trkpt lat="43.217080" lon="-6.260920">
        <ele>332.794</ele>
        <time>2020-05-21T12:05:10Z</time>
      </trkpt>
      <trkpt lat="43.216690" lon="-6.261250">
        <ele>331.557</ele>
        <time>2020-05-21T12:05:30Z</time>
      </trkpt>
      <trkpt lat="43.216550" lon="-6.261370">
        <ele>331.222</ele>
        <time>2020-05-21T12:05:50Z</time>
      </trkpt>
      <trkpt lat="43.216480" lon="-6.261430">
        <ele>331.308</ele>
        <time>2020-05-21T12:06:10Z</time>
      </trkpt>
      <trkpt lat="43.216310" lon="-6.261600">
        <ele>332.443</ele>
        <time>2020-05-21T12:06:30Z</time>
      </trkpt>
      <trkpt lat="43.216110" lon="-6.261880">
        <ele>331.688</ele>
        <time>2020-05-21T12:06:50Z</time>
      </trkpt>
      <trkpt lat="43.216030" lon="-6.262010">
        <ele>332.295</ele>
        <time>2020-05-21T12:07:10Z</time>
      </trkpt>
      <trkpt lat="43.215900" lon="-6.262210">
        <ele>332.231</ele>
        <time>2020-05-21T12:07:30Z</time>
      </trkpt>
      <trkpt lat="43.215640" lon="-6.262620">
        <ele>334.740</ele>
        <time>2020-05-21T12:07:50Z</time>
      </trkpt>
      <trkpt lat="43.215510" lon="-6.262810">
        <ele>334.861</ele>
        <time>2020-05-21T12:08:10Z</time>
      </trkpt>
      <trkpt lat="43.215110" lon="-6.263430">
        <ele>338.460</ele>
        <time>2020-05-21T12:08:30Z</time>
      </trkpt>
      <trkpt lat="43.214860" lon="-6.263700">
        <ele>338.093</ele>
        <time>2020-05-21T12:08:50Z</time>
      </trkpt>
      <trkpt lat="43.214510" lon="-6.264060">
        <ele>341.374</ele>
        <time>2020-05-21T12:09:10Z</time>
      </trkpt>
      <trkpt lat="43.214290" lon="-6.264230">
        <ele>338.656</ele>
        <time>2020-05-21T12:09:30Z</time>
      </trkpt>
      <trkpt lat="43.214130" lon="-6.264350">
        <ele>336.421</ele>
        <time>2020-05-21T12:09:50Z</time>
      </trkpt>
      <trkpt lat="43.213820" lon="-6.264590">
        <ele>333.408</ele>
        <time>2020-05-21T12:10:10Z</time>
      </trkpt>
      <trkpt lat="43.213810" lon="-6.264590">
        <ele>333.221</ele>
        <time>2020-05-21T12:10:30Z</time>
      </trkpt>
      <trkpt lat="43.213270" lon="-6.264940">
        <ele>331.496</ele>
        <time>2020-05-21T12:10:50Z</time>
      </trkpt>
      <trkpt lat="43.213160" lon="-6.264990">
        <ele>331.693</ele>
        <time>2020-05-21T12:11:10Z</time>
      </trkpt>
      <trkpt lat="43.213030" lon="-6.265030">
        <ele>331.399</ele>
        <time>2020-05-21T12:11:30Z</time>
      </trkpt>
      <trkpt lat="43.212860" lon="-6.265080">
        <ele>332.918</ele>
        <time>2020-05-21T12:11:50Z</time>
      </trkpt>
      <trkpt lat="43.212810" lon="-6.265070">
        <ele>333.229</ele>
        <time>2020-05-21T12:12:10Z</time>
      </trkpt>
      <trkpt lat="43.212630" lon="-6.265060">
        <ele>334.598</ele>
        <time>2020-05-21T12:12:30Z</time>
      </trkpt>
      <trkpt lat="43.212450" lon="-6.265010">
        <ele>335.661</ele>
        <time>2020-05-21T12:12:50Z</time>
      </trkpt>
      <trkpt lat="43.212330" lon="-6.264970">
        <ele>336.013</ele>
        <time>2020-05-21T12:13:10Z</time>
      </trkpt>
      <trkpt lat="43.212030" lon="-6.264830">
        <ele>333.843</ele>
        <time>2020-05-21T12:13:30Z</time>
      </trkpt>
      <trkpt lat="43.211880" lon="-6.264780">
        <ele>332.707</ele>
        <time>2020-05-21T12:13:50Z</time>
      </trkpt>
      <trkpt lat="43.211740" lon="-6.264760">
        <ele>330.108</ele>
        <time>2020-05-21T12:14:10Z</time>
      </trkpt>
      <trkpt lat="43.211600" lon="-6.264790">
        <ele>329.835</ele>
        <time>2020-05-21T12:14:30Z</time>
      </trkpt>
      <trkpt lat="43.211580" lon="-6.264800">
        <ele>330.070</ele>
        <time>2020-05-21T12:14:50Z</time>
      </trkpt>
      <trkpt lat="43.211470" lon="-6.264850">
        <ele>331.027</ele>
        <time>2020-05-21T12:15:10Z</time>
      </trkpt>
      <trkpt lat="43.211340" lon="-6.264950">
        <ele>332.123</ele>
        <time>2020-05-21T12:15:30Z</time>
      </trkpt>
      <trkpt lat="43.211270" lon="-6.265040">
        <ele>333.252</ele>
        <time>2020-05-21T12:15:50Z</time>
      </trkpt>
      <trkpt lat="43.211220" lon="-6.265110">
        <ele>334.143</ele>
        <time>2020-05-21T12:16:10Z</time>
      </trkpt>
      <trkpt lat="43.211100" lon="-6.265350">
        <ele>336.332</ele>
        <time>2020-05-21T12:16:30Z</time>
      </trkpt>
      <trkpt lat="43.211060" lon="-6.265430">
        <ele>338.195</ele>
        <time>2020-05-21T12:16:50Z</time>
      </trkpt>
      <trkpt lat="43.210980" lon="-6.265620">
        <ele>341.157</ele>
        <time>2020-05-21T12:17:10Z</time>
      </trkpt>
      <trkpt lat="43.210920" lon="-6.265760">
        <ele>342.700</ele>
        <time>2020-05-21T12:17:30Z</time>
      </trkpt>
      <trkpt lat="43.210830" lon="-6.265870">
        <ele>342.220</ele>
        <time>2020-05-21T12:17:50Z</time>
      </trkpt>
      <trkpt lat="43.210670" lon="-6.265990">
        <ele>341.508</ele>
        <time>2020-05-21T12:18:10Z</time>
      </trkpt>
      <trkpt lat="43.210540" lon="-6.266060">
        <ele>339.419</ele>
        <time>2020-05-21T12:18:30Z</time>
      </trkpt>
      <trkpt lat="43.210460" lon="-6.266110">
        <ele>338.664</ele>
        <time>2020-05-21T12:18:50Z</time>
      </trkpt>
      <trkpt lat="43.210040" lon="-6.266350">
        <ele>339.071</ele>
        <time>2020-05-21T12:19:10Z</time>
      </trkpt>
      <trkpt lat="43.209630" lon="-6.266580">
        <ele>338.927</ele>
        <time>2020-05-21T12:19:30Z</time>
      </trkpt>
      <trkpt lat="43.209280" lon="-6.266980">
        <ele>345.426</ele>
        <time>2020-05-21T12:19:50Z</time>
      </trkpt>
      <trkpt lat="43.209000" lon="-6.267300">
        <ele>342.817</ele>
        <time>2020-05-21T12:20:10Z</time>
      </trkpt>
      <trkpt lat="43.208900" lon="-6.267420">
        <ele>340.376</ele>
        <time>2020-05-21T12:20:30Z</time>
      </trkpt>
      <trkpt lat="43.208420" lon="-6.267930">
        <ele>345.279</ele>
        <time>2020-05-21T12:20:50Z</time>
      </trkpt>
      <trkpt lat="43.208190" lon="-6.268160">
        <ele>347.033</ele>
        <time>2020-05-21T12:21:10Z</time>
      </trkpt>
      <trkpt lat="43.208150" lon="-6.268200">
        <ele>346.623</ele>
        <time>2020-05-21T12:21:30Z</time>
      </trkpt>
      <trkpt lat="43.208150" lon="-6.268210">
        <ele>346.815</ele>
        <time>2020-05-21T12:21:50Z</time>
      </trkpt>
      <trkpt lat="43.207950" lon="-6.268320">
        <ele>343.608</ele>
        <time>2020-05-21T12:22:10Z</time>
      </trkpt>
      <trkpt lat="43.207570" lon="-6.268480">
        <ele>341.577</ele>
        <time>2020-05-21T12:22:30Z</time>
      </trkpt>
      <trkpt lat="43.207320" lon="-6.268660">
        <ele>344.732</ele>
        <time>2020-05-21T12:22:50Z</time>
      </trkpt>
      <trkpt lat="43.207150" lon="-6.268770">
        <ele>348.459</ele>
        <time>2020-05-21T12:23:10Z</time>
      </trkpt>
      <trkpt lat="43.207080" lon="-6.268820">
        <ele>348.955</ele>
        <time>2020-05-21T12:23:30Z</time>
      </trkpt>
      <trkpt lat="43.206860" lon="-6.268950">
        <ele>349.124</ele>
        <time>2020-05-21T12:23:50Z</time>
      </trkpt>
      <trkpt lat="43.206750" lon="-6.269000">
        <ele>349.875</ele>
        <time>2020-05-21T12:24:10Z</time>
      </trkpt>
      <trkpt lat="43.206660" lon="-6.269020">
        <ele>349.374</ele>
        <time>2020-05-21T12:24:30Z</time>
      </trkpt>
      <trkpt lat="43.206510" lon="-6.269020">
        <ele>350.927</ele>
        <time>2020-05-21T12:24:50Z</time>
      </trkpt>
      <trkpt lat="43.206470" lon="-6.269010">
        <ele>350.969</ele>
        <time>2020-05-21T12:25:10Z</time>
      </trkpt>
      <trkpt lat="43.205660" lon="-6.268780">
        <ele>345.904</ele>
        <time>2020-05-21T12:25:30Z</time>
      </trkpt>
      <trkpt lat="43.205590" lon="-6.268760">
        <ele>345.024</ele>
        <time>2020-05-21T12:25:50Z</time>
      </trkpt>
      <trkpt lat="43.205310" lon="-6.268680">
        <ele>344.208</ele>
        <time>2020-05-21T12:26:10Z</time>
      </trkpt>
      <trkpt lat="43.205240" lon="-6.268660">
        <ele>344.080</ele>
        <time>2020-05-21T12:26:30Z</time>
      </trkpt>
      <trkpt lat="43.204870" lon="-6.268560">
        <ele>345.715</ele>
        <time>2020-05-21T12:26:50Z</time>
      </trkpt>
      <trkpt lat="43.204750" lon="-6.268560">
        <ele>347.022</ele>
        <time>2020-05-21T12:27:10Z</time>
      </trkpt>
      <trkpt lat="43.204660" lon="-6.268570">
        <ele>348.088</ele>
        <time>2020-05-21T12:27:30Z</time>
      </trkpt>
      <trkpt lat="43.204500" lon="-6.268620">
        <ele>350.717</ele>
        <time>2020-05-21T12:27:50Z</time>
      </trkpt>
      <trkpt lat="43.204330" lon="-6.268720">
        <ele>353.778</ele>
        <time>2020-05-21T12:28:10Z</time>
      </trkpt>
      <trkpt lat="43.204200" lon="-6.268840">
        <ele>355.497</ele>
        <time>2020-05-21T12:28:30Z</time>
      </trkpt>
      <trkpt lat="43.204030" lon="-6.268970">
        <ele>358.420</ele>
        <time>2020-05-21T12:28:50Z</time>
      </trkpt>
      <trkpt lat="43.203900" lon="-6.269010">
        <ele>357.016</ele>
        <time>2020-05-21T12:29:10Z</time>
      </trkpt>
      <trkpt lat="43.203770" lon="-6.269060">
        <ele>357.476</ele>
        <time>2020-05-21T12:29:30Z</time>
      </trkpt>
      <trkpt lat="43.203640" lon="-6.269060">
        <ele>355.713</ele>
        <time>2020-05-21T12:29:50Z</time>
      </trkpt>
      <trkpt lat="43.203490" lon="-6.269030">
        <ele>357.408</ele>
        <time>2020-05-21T12:30:10Z</time>
      </trkpt>
      <trkpt lat="43.203370" lon="-6.268980">
        <ele>358.845</ele>
        <time>2020-05-21T12:30:30Z</time>
      </trkpt>
      <trkpt lat="43.203040" lon="-6.268780">
        <ele>358.010</ele>
        <time>2020-05-21T12:30:50Z</time>
      </trkpt>
      <trkpt lat="43.202850" lon="-6.268740">
        <ele>356.147</ele>
        <time>2020-05-21T12:31:10Z</time>
      </trkpt>
      <trkpt lat="43.202730" lon="-6.268710">
        <ele>355.563</ele>
        <time>2020-05-21T12:31:30Z</time>
      </trkpt>
      <trkpt lat="43.202230" lon="-6.268690">
        <ele>359.022</ele>
        <time>2020-05-21T12:31:50Z</time>
      </trkpt>
      <trkpt lat="43.201950" lon="-6.268690">
        <ele>357.353</ele>
        <time>2020-05-21T12:32:10Z</time>
      </trkpt>
      <trkpt lat="43.201620" lon="-6.268670">
        <ele>355.112</ele>
        <time>2020-05-21T12:32:30Z</time>
      </trkpt>
      <trkpt lat="43.201590" lon="-6.268670">
        <ele>354.745</ele>
        <time>2020-05-21T12:32:50Z</time>
      </trkpt>
      <trkpt lat="43.201450" lon="-6.268690">
        <ele>353.352</ele>
        <time>2020-05-21T12:33:10Z</time>
      </trkpt>
      <trkpt lat="43.201300" lon="-6.268780">
        <ele>353.453</ele>
        <time>2020-05-21T12:33:30Z</time>
      </trkpt>
      <trkpt lat="43.201220" lon="-6.268830">
        <ele>353.708</ele>
        <time>2020-05-21T12:33:50Z</time>
      </trkpt>
      <trkpt lat="43.201140" lon="-6.268900">
        <ele>354.808</ele>
        <time>2020-05-21T12:34:10Z</time>
      </trkpt>
      <trkpt lat="43.201020" lon="-6.269070">
        <ele>361.859</ele>
        <time>2020-05-21T12:34:30Z</time>
      </trkpt>
      <trkpt lat="43.200900" lon="-6.269220">
        <ele>368.294</ele>
        <time>2020-05-21T12:34:50Z</time>
      </trkpt>
      <trkpt lat="43.200670" lon="-6.269380">
        <ele>373.811</ele>
        <time>2020-05-21T12:35:10Z</time>
      </trkpt>
      <trkpt lat="43.200570" lon="-6.269450">
        <ele>376.047</ele>
        <time>2020-05-21T12:35:30Z</time>
      </trkpt>
      <trkpt lat="43.200370" lon="-6.269500">
        <ele>373.046</ele>
        <time>2020-05-21T12:35:50Z</time>
      </trkpt>
      <trkpt lat="43.200250" lon="-6.269500">
        <ele>368.767</ele>
        <time>2020-05-21T12:36:10Z</time>
      </trkpt>
      <trkpt lat="43.199960" lon="-6.269470">
        <ele>360.416</ele>
        <time>2020-05-21T12:36:30Z</time>
      </trkpt>
      <trkpt lat="43.199790" lon="-6.269420">
        <ele>355.749</ele>
        <time>2020-05-21T12:36:50Z</time>
      </trkpt>
      <trkpt lat="43.199330" lon="-6.269290">
        <ele>352.892</ele>
        <time>2020-05-21T12:37:10Z</time>
      </trkpt>
      <trkpt lat="43.198910" lon="-6.269210">
        <ele>353.773</ele>
        <time>2020-05-21T12:37:30Z</time>
      </trkpt>
      <trkpt lat="43.198810" lon="-6.269200">
        <ele>354.320</ele>
        <time>2020-05-21T12:37:50Z</time>
      </trkpt>
      <trkpt lat="43.198190" lon="-6.269210">
        <ele>359.808</ele>
        <time>2020-05-21T12:38:10Z</time>
      </trkpt>
      <trkpt lat="43.198010" lon="-6.269210">
        <ele>360.893</ele>
        <time>2020-05-21T12:38:30Z</time>
      </trkpt>
      <trkpt lat="43.197840" lon="-6.269210">
        <ele>362.178</ele>
        <time>2020-05-21T12:38:50Z</time>
      </trkpt>
      <trkpt lat="43.196930" lon="-6.269280">
        <ele>361.225</ele>
        <time>2020-05-21T12:39:10Z</time>
      </trkpt>
      <trkpt lat="43.196780" lon="-6.269290">
        <ele>362.761</ele>
        <time>2020-05-21T12:39:30Z</time>
      </trkpt>
      <trkpt lat="43.196480" lon="-6.269380">
        <ele>362.790</ele>
        <time>2020-05-21T12:39:50Z</time>
      </trkpt>
      <trkpt lat="43.196010" lon="-6.269510">
        <ele>360.361</ele>
        <time>2020-05-21T12:40:10Z</time>
      </trkpt>
      <trkpt lat="43.195780" lon="-6.269580">
        <ele>362.030</ele>
        <time>2020-05-21T12:40:30Z</time>
      </trkpt>
      <trkpt lat="43.195600" lon="-6.269630">
        <ele>360.583</ele>
        <time>2020-05-21T12:40:50Z</time>
      </trkpt>
      <trkpt lat="43.195280" lon="-6.269730">
        <ele>356.324</ele>
        <time>2020-05-21T12:41:10Z</time>
      </trkpt>
      <trkpt lat="43.195040" lon="-6.269860">
        <ele>359.604</ele>
        <time>2020-05-21T12:41:30Z</time>
      </trkpt>
      <trkpt lat="43.194750" lon="-6.270050">
        <ele>362.814</ele>
        <time>2020-05-21T12:41:50Z</time>
      </trkpt>
      <trkpt lat="43.194610" lon="-6.270170">
        <ele>363.908</ele>
        <time>2020-05-21T12:42:10Z</time>
      </trkpt>
      <trkpt lat="43.194510" lon="-6.270260">
        <ele>364.186</ele>
        <time>2020-05-21T12:42:30Z</time>
      </trkpt>
      <trkpt lat="43.194310" lon="-6.270490">
        <ele>362.981</ele>
        <time>2020-05-21T12:42:50Z</time>
      </trkpt>
      <trkpt lat="43.194140" lon="-6.270750">
        <ele>364.278</ele>
        <time>2020-05-21T12:43:10Z</time>
      </trkpt>
      <trkpt lat="43.193980" lon="-6.271020">
        <ele>367.044</ele>
        <time>2020-05-21T12:43:30Z</time>
      </trkpt>
      <trkpt lat="43.193970" lon="-6.271030">
        <ele>366.813</ele>
        <time>2020-05-21T12:43:50Z</time>
      </trkpt>
      <trkpt lat="43.193790" lon="-6.271380">
        <ele>366.444</ele>
        <time>2020-05-21T12:44:10Z</time>
      </trkpt>
      <trkpt lat="43.193680" lon="-6.271610">
        <ele>364.543</ele>
        <time>2020-05-21T12:44:30Z</time>
      </trkpt>
      <trkpt lat="43.193530" lon="-6.271870">
        <ele>364.336</ele>
        <time>2020-05-21T12:44:50Z</time>
      </trkpt>
      <trkpt lat="43.193400" lon="-6.272130">
        <ele>367.825</ele>
        <time>2020-05-21T12:45:10Z</time>
      </trkpt>
      <trkpt lat="43.193310" lon="-6.272310">
        <ele>368.826</ele>
        <time>2020-05-21T12:45:30Z</time>
      </trkpt>
      <trkpt lat="43.193210" lon="-6.272540">
        <ele>368.808</ele>
        <time>2020-05-21T12:45:50Z</time>
      </trkpt>
      <trkpt lat="43.193160" lon="-6.272660">
        <ele>368.008</ele>
        <time>2020-05-21T12:46:10Z</time>
      </trkpt>
      <trkpt lat="43.193120" lon="-6.272760">
        <ele>367.276</ele>
        <time>2020-05-21T12:46:30Z</time>
      </trkpt>
      <trkpt lat="43.193060" lon="-6.272970">
        <ele>364.531</ele>
        <time>2020-05-21T12:46:50Z</time>
      </trkpt>
      <trkpt lat="43.193020" lon="-6.273160">
        <ele>362.928</ele>
        <time>2020-05-21T12:47:10Z</time>
      </trkpt>
      <trkpt lat="43.192990" lon="-6.273290">
        <ele>361.974</ele>
        <time>2020-05-21T12:47:30Z</time>
      </trkpt>
      <trkpt lat="43.192940" lon="-6.273560">
        <ele>363.783</ele>
        <time>2020-05-21T12:47:50Z</time>
      </trkpt>
      <trkpt lat="43.192860" lon="-6.273890">
        <ele>368.284</ele>
        <time>2020-05-21T12:48:10Z</time>
      </trkpt>
      <trkpt lat="43.192820" lon="-6.274080">
        <ele>372.583</ele>
        <time>2020-05-21T12:48:30Z</time>
      </trkpt>
      <trkpt lat="43.192750" lon="-6.274290">
        <ele>374.226</ele>
        <time>2020-05-21T12:48:50Z</time>
      </trkpt>
      <trkpt lat="43.192740" lon="-6.274310">
        <ele>374.168</ele>
        <time>2020-05-21T12:49:10Z</time>
      </trkpt>
      <trkpt lat="43.192670" lon="-6.274560">
        <ele>374.142</ele>
        <time>2020-05-21T12:49:30Z</time>
      </trkpt>
      <trkpt lat="43.192570" lon="-6.274830">
        <ele>370.926</ele>
        <time>2020-05-21T12:49:50Z</time>
      </trkpt>
      <trkpt lat="43.192510" lon="-6.275000">
        <ele>369.608</ele>
        <time>2020-05-21T12:50:10Z</time>
      </trkpt>
      <trkpt lat="43.192460" lon="-6.275240">
        <ele>370.620</ele>
        <time>2020-05-21T12:50:30Z</time>
      </trkpt>
      <trkpt lat="43.192420" lon="-6.275470">
        <ele>371.575</ele>
        <time>2020-05-21T12:50:50Z</time>
      </trkpt>
      <trkpt lat="43.192390" lon="-6.275680">
        <ele>372.982</ele>
        <time>2020-05-21T12:51:10Z</time>
      </trkpt>
      <trkpt lat="43.192370" lon="-6.275800">
        <ele>373.568</ele>
        <time>2020-05-21T12:51:30Z</time>
      </trkpt>
      <trkpt lat="43.192310" lon="-6.276040">
        <ele>374.327</ele>
        <time>2020-05-21T12:51:50Z</time>
      </trkpt>
      <trkpt lat="43.192250" lon="-6.276310">
        <ele>377.578</ele>
        <time>2020-05-21T12:52:10Z</time>
      </trkpt>
      <trkpt lat="43.192170" lon="-6.276570">
        <ele>381.187</ele>
        <time>2020-05-21T12:52:30Z</time>
      </trkpt>
      <trkpt lat="43.192060" lon="-6.276820">
        <ele>380.810</ele>
        <time>2020-05-21T12:52:50Z</time>
      </trkpt>
      <trkpt lat="43.191920" lon="-6.277060">
        <ele>378.848</ele>
        <time>2020-05-21T12:53:10Z</time>
      </trkpt>
      <trkpt lat="43.191820" lon="-6.277190">
        <ele>377.561</ele>
        <time>2020-05-21T12:53:30Z</time>
      </trkpt>
      <trkpt lat="43.191800" lon="-6.277230">
        <ele>377.617</ele>
        <time>2020-05-21T12:53:50Z</time>
      </trkpt>
      <trkpt lat="43.191680" lon="-6.277360">
        <ele>376.508</ele>
        <time>2020-05-21T12:54:10Z</time>
      </trkpt>
      <trkpt lat="43.191540" lon="-6.277500">
        <ele>377.278</ele>
        <time>2020-05-21T12:54:30Z</time>
      </trkpt>
      <trkpt lat="43.191400" lon="-6.277600">
        <ele>381.383</ele>
        <time>2020-05-21T12:54:50Z</time>
      </trkpt>
      <trkpt lat="43.191380" lon="-6.277610">
        <ele>381.640</ele>
        <time>2020-05-21T12:55:10Z</time>
      </trkpt>
      <trkpt lat="43.191310" lon="-6.277660">
        <ele>383.876</ele>
        <time>2020-05-21T12:55:30Z</time>
      </trkpt>
      <trkpt lat="43.191210" lon="-6.277720">
        <ele>386.075</ele>
        <time>2020-05-21T12:55:50Z</time>
      </trkpt>
      <trkpt lat="43.191020" lon="-6.277790">
        <ele>386.576</ele>
        <time>2020-05-21T12:56:10Z</time>
      </trkpt>
      <trkpt lat="43.190870" lon="-6.277840">
        <ele>385.135</ele>
        <time>2020-05-21T12:56:30Z</time>
      </trkpt>
      <trkpt lat="43.190350" lon="-6.278010">
        <ele>375.098</ele>
        <time>2020-05-21T12:56:50Z</time>
      </trkpt>
      <trkpt lat="43.190020" lon="-6.278140">
        <ele>371.859</ele>
        <time>2020-05-21T12:57:10Z</time>
      </trkpt>
      <trkpt lat="43.189950" lon="-6.278180">
        <ele>371.903</ele>
        <time>2020-05-21T12:57:30Z</time>
      </trkpt>
      <trkpt lat="43.189890" lon="-6.278230">
        <ele>372.223</ele>
        <time>2020-05-21T12:57:50Z</time>
      </trkpt>
      <trkpt lat="43.189810" lon="-6.278310">
        <ele>372.608</ele>
        <time>2020-05-21T12:58:10Z</time>
      </trkpt>
      <trkpt lat="43.189690" lon="-6.278480">
        <ele>372.179</ele>
        <time>2020-05-21T12:58:30Z</time>
      </trkpt>
      <trkpt lat="43.189610" lon="-6.278610">
        <ele>371.484</ele>
        <time>2020-05-21T12:58:50Z</time>
      </trkpt>
      <trkpt lat="43.189510" lon="-6.278770">
        <ele>371.721</ele>
        <time>2020-05-21T12:59:10Z</time>
      </trkpt>
      <trkpt lat="43.189420" lon="-6.278890">
        <ele>372.017</ele>
        <time>2020-05-21T12:59:30Z</time>
      </trkpt>
      <trkpt lat="43.189360" lon="-6.278960">
        <ele>374.576</ele>
        <time>2020-05-21T12:59:50Z</time>
      </trkpt>
      <trkpt lat="43.189270" lon="-6.279040">
        <ele>376.557</ele>
        <time>2020-05-21T13:00:10Z</time>
      </trkpt>
      <trkpt lat="43.189160" lon="-6.279130">
        <ele>377.986</ele>
        <time>2020-05-21T13:00:30Z</time>
      </trkpt>
      <trkpt lat="43.189140" lon="-6.279140">
        <ele>378.019</ele>
        <time>2020-05-21T13:00:50Z</time>
      </trkpt>
      <trkpt lat="43.189020" lon="-6.279260">
        <ele>380.631</ele>
        <time>2020-05-21T13:01:10Z</time>
      </trkpt>
      <trkpt lat="43.188910" lon="-6.279360">
        <ele>381.461</ele>
        <time>2020-05-21T13:01:30Z</time>
      </trkpt>
      <trkpt lat="43.188850" lon="-6.279400">
        <ele>380.907</ele>
        <time>2020-05-21T13:01:50Z</time>
      </trkpt>
      <trkpt lat="43.188790" lon="-6.279430">
        <ele>379.908</ele>
        <time>2020-05-21T13:02:10Z</time>
      </trkpt>
      <trkpt lat="43.188710" lon="-6.279470">
        <ele>379.157</ele>
        <time>2020-05-21T13:02:30Z</time>
      </trkpt>
      <trkpt lat="43.188620" lon="-6.279490">
        <ele>377.652</ele>
        <time>2020-05-21T13:02:50Z</time>
      </trkpt>
      <trkpt lat="43.188540" lon="-6.279500">
        <ele>377.459</ele>
        <time>2020-05-21T13:03:10Z</time>
      </trkpt>
      <trkpt lat="43.188460" lon="-6.279510">
        <ele>377.425</ele>
        <time>2020-05-21T13:03:30Z</time>
      </trkpt>
      <trkpt lat="43.188410" lon="-6.279510">
        <ele>377.114</ele>
        <time>2020-05-21T13:03:50Z</time>
      </trkpt>
      <trkpt lat="43.188230" lon="-6.279530">
        <ele>376.725</ele>
        <time>2020-05-21T13:04:10Z</time>
      </trkpt>
      <trkpt lat="43.188130" lon="-6.279530">
        <ele>376.064</ele>
        <time>2020-05-21T13:04:30Z</time>
      </trkpt>
      <trkpt lat="43.187870" lon="-6.279550">
        <ele>374.297</ele>
        <time>2020-05-21T13:04:50Z</time>
      </trkpt>
      <trkpt lat="43.187790" lon="-6.279550">
        <ele>373.477</ele>
        <time>2020-05-21T13:05:10Z</time>
      </trkpt>
      <trkpt lat="43.187670" lon="-6.279560">
        <ele>372.261</ele>
        <time>2020-05-21T13:05:30Z</time>
      </trkpt>
      <trkpt lat="43.187420" lon="-6.279600">
        <ele>370.027</ele>
        <time>2020-05-21T13:05:50Z</time>
      </trkpt>
      <trkpt lat="43.187390" lon="-6.279620">
        <ele>370.008</ele>
        <time>2020-05-21T13:06:10Z</time>
      </trkpt>
      <trkpt lat="43.187300" lon="-6.279660">
        <ele>369.741</ele>
        <time>2020-05-21T13:06:30Z</time>
      </trkpt>
      <trkpt lat="43.187180" lon="-6.279760">
        <ele>370.636</ele>
        <time>2020-05-21T13:06:50Z</time>
      </trkpt>
      <trkpt lat="43.187060" lon="-6.279900">
        <ele>372.283</ele>
        <time>2020-05-21T13:07:10Z</time>
      </trkpt>
      <trkpt lat="43.187000" lon="-6.279980">
        <ele>372.819</ele>
        <time>2020-05-21T13:07:30Z</time>
      </trkpt>
      <trkpt lat="43.186930" lon="-6.280140">
        <ele>373.788</ele>
        <time>2020-05-21T13:07:50Z</time>
      </trkpt>
      <trkpt lat="43.186910" lon="-6.280160">
        <ele>373.579</ele>
        <time>2020-05-21T13:08:10Z</time>
      </trkpt>
      <trkpt lat="43.186820" lon="-6.280340">
        <ele>375.058</ele>
        <time>2020-05-21T13:08:30Z</time>
      </trkpt>
      <trkpt lat="43.186750" lon="-6.280460">
        <ele>377.211</ele>
        <time>2020-05-21T13:08:50Z</time>
      </trkpt>
      <trkpt lat="43.186660" lon="-6.280580">
        <ele>379.127</ele>
        <time>2020-05-21T13:09:10Z</time>
      </trkpt>
      <trkpt lat="43.186420" lon="-6.280830">
        <ele>384.868</ele>
        <time>2020-05-21T13:09:30Z</time>
      </trkpt>
      <trkpt lat="43.186280" lon="-6.280990">
        <ele>386.014</ele>
        <time>2020-05-21T13:09:50Z</time>
      </trkpt>
      <trkpt lat="43.186160" lon="-6.281120">
        <ele>385.208</ele>
        <time>2020-05-21T13:10:10Z</time>
      </trkpt>
      <trkpt lat="43.185800" lon="-6.281500">
        <ele>383.576</ele>
        <time>2020-05-21T13:10:30Z</time>
      </trkpt>
      <trkpt lat="43.185720" lon="-6.281600">
        <ele>384.121</ele>
        <time>2020-05-21T13:10:50Z</time>
      </trkpt>
      <trkpt lat="43.185420" lon="-6.281950">
        <ele>384.178</ele>
        <time>2020-05-21T13:11:10Z</time>
      </trkpt>
      <trkpt lat="43.185330" lon="-6.282060">
        <ele>383.194</ele>
        <time>2020-05-21T13:11:30Z</time>
      </trkpt>
      <trkpt lat="43.185310" lon="-6.282090">
        <ele>382.963</ele>
        <time>2020-05-21T13:11:50Z</time>
      </trkpt>
      <trkpt lat="43.185240" lon="-6.282230">
        <ele>382.424</ele>
        <time>2020-05-21T13:12:10Z</time>
      </trkpt>
      <trkpt lat="43.185210" lon="-6.282290">
        <ele>382.893</ele>
        <time>2020-05-21T13:12:30Z</time>
      </trkpt>
      <trkpt lat="43.185190" lon="-6.282360">
        <ele>383.346</ele>
        <time>2020-05-21T13:12:50Z</time>
      </trkpt>
      <trkpt lat="43.185130" lon="-6.282640">
        <ele>384.915</ele>
        <time>2020-05-21T13:13:10Z</time>
      </trkpt>
      <trkpt lat="43.185130" lon="-6.282700">
        <ele>385.665</ele>
        <time>2020-05-21T13:13:30Z</time>
      </trkpt>
      <trkpt lat="43.185070" lon="-6.282870">
        <ele>384.811</ele>
        <time>2020-05-21T13:13:50Z</time>
      </trkpt>
      <trkpt lat="43.185030" lon="-6.282980">
        <ele>383.908</ele>
        <time>2020-05-21T13:14:10Z</time>
      </trkpt>
      <trkpt lat="43.184970" lon="-6.283110">
        <ele>383.065</ele>
        <time>2020-05-21T13:14:30Z</time>
      </trkpt>
      <trkpt lat="43.184930" lon="-6.283190">
        <ele>383.010</ele>
        <time>2020-05-21T13:14:50Z</time>
      </trkpt>
      <trkpt lat="43.184890" lon="-6.283270">
        <ele>383.087</ele>
        <time>2020-05-21T13:15:10Z</time>
      </trkpt>
      <trkpt lat="43.184770" lon="-6.283580">
        <ele>386.123</ele>
        <time>2020-05-21T13:15:30Z</time>
      </trkpt>
      <trkpt lat="43.184700" lon="-6.283820">
        <ele>390.462</ele>
        <time>2020-05-21T13:15:50Z</time>
      </trkpt>
      <trkpt lat="43.184690" lon="-6.283850">
        <ele>391.013</ele>
        <time>2020-05-21T13:16:10Z</time>
      </trkpt>
      <trkpt lat="43.184610" lon="-6.284070">
        <ele>392.842</ele>
        <time>2020-05-21T13:16:30Z</time>
      </trkpt>
      <trkpt lat="43.184590" lon="-6.284150">
        <ele>393.555</ele>
        <time>2020-05-21T13:16:50Z</time>
      </trkpt>
      <trkpt lat="43.184530" lon="-6.284290">
        <ele>394.719</ele>
        <time>2020-05-21T13:17:10Z</time>
      </trkpt>
      <trkpt lat="43.184460" lon="-6.284450">
        <ele>397.009</ele>
        <time>2020-05-21T13:17:30Z</time>
      </trkpt>
      <trkpt lat="43.184330" lon="-6.284600">
        <ele>397.719</ele>
        <time>2020-05-21T13:17:50Z</time>
      </trkpt>
      <trkpt lat="43.184090" lon="-6.284740">
        <ele>392.908</ele>
        <time>2020-05-21T13:18:10Z</time>
      </trkpt>
      <trkpt lat="43.184040" lon="-6.284780">
        <ele>392.485</ele>
        <time>2020-05-21T13:18:30Z</time>
      </trkpt>
      <trkpt lat="43.183830" lon="-6.284930">
        <ele>388.470</ele>
        <time>2020-05-21T13:18:50Z</time>
      </trkpt>
      <trkpt lat="43.183610" lon="-6.285120">
        <ele>389.377</ele>
        <time>2020-05-21T13:19:10Z</time>
      </trkpt>
      <trkpt lat="43.183500" lon="-6.285230">
        <ele>390.163</ele>
        <time>2020-05-21T13:19:30Z</time>
      </trkpt>
      <trkpt lat="43.183420" lon="-6.285300">
        <ele>389.462</ele>
        <time>2020-05-21T13:19:50Z</time>
      </trkpt>
      <trkpt lat="43.183360" lon="-6.285380">
        <ele>389.273</ele>
        <time>2020-05-21T13:20:10Z</time>
      </trkpt>
      <trkpt lat="43.183310" lon="-6.285440">
        <ele>388.712</ele>
        <time>2020-05-21T13:20:30Z</time>
      </trkpt>
      <trkpt lat="43.183230" lon="-6.285560">
        <ele>387.655</ele>
        <time>2020-05-21T13:20:50Z</time>
      </trkpt>
      <trkpt lat="43.183180" lon="-6.285620">
        <ele>386.242</ele>
        <time>2020-05-21T13:21:10Z</time>
      </trkpt>
      <trkpt lat="43.183090" lon="-6.285810">
        <ele>385.022</ele>
        <time>2020-05-21T13:21:30Z</time>
      </trkpt>
      <trkpt lat="43.183010" lon="-6.285990">
        <ele>386.814</ele>
        <time>2020-05-21T13:21:50Z</time>
      </trkpt>
      <trkpt lat="43.182950" lon="-6.286160">
        <ele>389.208</ele>
        <time>2020-05-21T13:22:10Z</time>
      </trkpt>
      <trkpt lat="43.182940" lon="-6.286180">
        <ele>389.398</ele>
        <time>2020-05-21T13:22:30Z</time>
      </trkpt>
      <trkpt lat="43.182880" lon="-6.286450">
        <ele>392.283</ele>
        <time>2020-05-21T13:22:50Z</time>
      </trkpt>
      <trkpt lat="43.182850" lon="-6.286570">
        <ele>390.990</ele>
        <time>2020-05-21T13:23:10Z</time>
      </trkpt>
      <trkpt lat="43.182830" lon="-6.286740">
        <ele>390.146</ele>
        <time>2020-05-21T13:23:30Z</time>
      </trkpt>
      <trkpt lat="43.182810" lon="-6.287090">
        <ele>389.565</ele>
        <time>2020-05-21T13:23:50Z</time>
      </trkpt>
      <trkpt lat="43.182810" lon="-6.287140">
        <ele>389.446</ele>
        <time>2020-05-21T13:24:10Z</time>
      </trkpt>
      <trkpt lat="43.182830" lon="-6.287390">
        <ele>392.085</ele>
        <time>2020-05-21T13:24:30Z</time>
      </trkpt>
      <trkpt lat="43.182830" lon="-6.287500">
        <ele>393.078</ele>
        <time>2020-05-21T13:24:50Z</time>
      </trkpt>
      <trkpt lat="43.182840" lon="-6.287640">
        <ele>392.343</ele>
        <time>2020-05-21T13:25:10Z</time>
      </trkpt>
      <trkpt lat="43.182890" lon="-6.288450">
        <ele>399.664</ele>
        <time>2020-05-21T13:25:30Z</time>
      </trkpt>
      <trkpt lat="43.182880" lon="-6.288580">
        <ele>401.610</ele>
        <time>2020-05-21T13:25:50Z</time>
      </trkpt>
      <trkpt lat="43.182870" lon="-6.288620">
        <ele>401.808</ele>
        <time>2020-05-21T13:26:10Z</time>
      </trkpt>
      <trkpt lat="43.182850" lon="-6.288770">
        <ele>403.468</ele>
        <time>2020-05-21T13:26:30Z</time>
      </trkpt>
      <trkpt lat="43.182820" lon="-6.288880">
        <ele>403.473</ele>
        <time>2020-05-21T13:26:50Z</time>
      </trkpt>
      <trkpt lat="43.182790" lon="-6.288940">
        <ele>402.530</ele>
        <time>2020-05-21T13:27:10Z</time>
      </trkpt>
      <trkpt lat="43.182730" lon="-6.289060">
        <ele>400.966</ele>
        <time>2020-05-21T13:27:30Z</time>
      </trkpt>
      <trkpt lat="43.182680" lon="-6.289150">
        <ele>399.295</ele>
        <time>2020-05-21T13:27:50Z</time>
      </trkpt>
      <trkpt lat="43.182600" lon="-6.289240">
        <ele>396.296</ele>
        <time>2020-05-21T13:28:10Z</time>
      </trkpt>
      <trkpt lat="43.182440" lon="-6.289440">
        <ele>394.165</ele>
        <time>2020-05-21T13:28:30Z</time>
      </trkpt>
      <trkpt lat="43.182390" lon="-6.289510">
        <ele>395.238</ele>
        <time>2020-05-21T13:28:50Z</time>
      </trkpt>
      <trkpt lat="43.182350" lon="-6.289590">
        <ele>396.491</ele>
        <time>2020-05-21T13:29:10Z</time>
      </trkpt>
      <trkpt lat="43.182330" lon="-6.289620">
        <ele>396.781</ele>
        <time>2020-05-21T13:29:30Z</time>
      </trkpt>
      <trkpt lat="43.182300" lon="-6.289700">
        <ele>397.819</ele>
        <time>2020-05-21T13:29:50Z</time>
      </trkpt>
      <trkpt lat="43.182260" lon="-6.289800">
        <ele>398.608</ele>
        <time>2020-05-21T13:30:10Z</time>
      </trkpt>
      <trkpt lat="43.182220" lon="-6.289880">
        <ele>398.843</ele>
        <time>2020-05-21T13:30:30Z</time>
      </trkpt>
      <trkpt lat="43.182130" lon="-6.290230">
        <ele>401.498</ele>
        <time>2020-05-21T13:30:50Z</time>
      </trkpt>
      <trkpt lat="43.182120" lon="-6.290250">
        <ele>401.315</ele>
        <time>2020-05-21T13:31:10Z</time>
      </trkpt>
      <trkpt lat="43.182100" lon="-6.290310">
        <ele>401.161</ele>
        <time>2020-05-21T13:31:30Z</time>
      </trkpt>
      <trkpt lat="43.182040" lon="-6.290470">
        <ele>398.730</ele>
        <time>2020-05-21T13:31:50Z</time>
      </trkpt>
      <trkpt lat="43.182010" lon="-6.290540">
        <ele>397.121</ele>
        <time>2020-05-21T13:32:10Z</time>
      </trkpt>
      <trkpt lat="43.181950" lon="-6.290680">
        <ele>394.730</ele>
        <time>2020-05-21T13:32:30Z</time>
      </trkpt>
      <trkpt lat="43.181890" lon="-6.290810">
        <ele>394.863</ele>
        <time>2020-05-21T13:32:50Z</time>
      </trkpt>
      <trkpt lat="43.181750" lon="-6.291100">
        <ele>394.365</ele>
        <time>2020-05-21T13:33:10Z</time>
      </trkpt>
      <trkpt lat="43.181650" lon="-6.291300">
        <ele>393.668</ele>
        <time>2020-05-21T13:33:30Z</time>
      </trkpt>
      <trkpt lat="43.181600" lon="-6.291410">
        <ele>393.614</ele>
        <time>2020-05-21T13:33:50Z</time>
      </trkpt>
      <trkpt lat="43.181450" lon="-6.291710">
        <ele>393.808</ele>
        <time>2020-05-21T13:34:10Z</time>
      </trkpt>
      <trkpt lat="43.181350" lon="-6.291890">
        <ele>393.930</ele>
        <time>2020-05-21T13:34:30Z</time>
      </trkpt>
      <trkpt lat="43.181340" lon="-6.291910">
        <ele>394.275</ele>
        <time>2020-05-21T13:34:50Z</time>
      </trkpt>
      <trkpt lat="43.181280" lon="-6.292050">
        <ele>397.062</ele>
        <time>2020-05-21T13:35:10Z</time>
      </trkpt>
      <trkpt lat="43.181250" lon="-6.292120">
        <ele>398.288</ele>
        <time>2020-05-21T13:35:30Z</time>
      </trkpt>
      <trkpt lat="43.181200" lon="-6.292260">
        <ele>399.287</ele>
        <time>2020-05-21T13:35:50Z</time>
      </trkpt>
      <trkpt lat="43.181180" lon="-6.292350">
        <ele>399.258</ele>
        <time>2020-05-21T13:36:10Z</time>
      </trkpt>
      <trkpt lat="43.181130" lon="-6.292510">
        <ele>399.647</ele>
        <time>2020-05-21T13:36:30Z</time>
      </trkpt>
      <trkpt lat="43.181110" lon="-6.292580">
        <ele>400.760</ele>
        <time>2020-05-21T13:36:50Z</time>
      </trkpt>
      <trkpt lat="43.181110" lon="-6.292590">
        <ele>400.764</ele>
        <time>2020-05-21T13:37:10Z</time>
      </trkpt>
      <trkpt lat="43.181080" lon="-6.292730">
        <ele>403.606</ele>
        <time>2020-05-21T13:37:30Z</time>
      </trkpt>
      <trkpt lat="43.181070" lon="-6.292820">
        <ele>404.516</ele>
        <time>2020-05-21T13:37:50Z</time>
      </trkpt>
      <trkpt lat="43.181040" lon="-6.292970">
        <ele>406.408</ele>
        <time>2020-05-21T13:38:10Z</time>
      </trkpt>
      <trkpt lat="43.181040" lon="-6.293060">
        <ele>406.410</ele>
        <time>2020-05-21T13:38:30Z</time>
      </trkpt>
      <trkpt lat="43.181030" lon="-6.293200">
        <ele>407.385</ele>
        <time>2020-05-21T13:38:50Z</time>
      </trkpt>
      <trkpt lat="43.181030" lon="-6.293300">
        <ele>407.662</ele>
        <time>2020-05-21T13:39:10Z</time>
      </trkpt>
      <trkpt lat="43.181030" lon="-6.293510">
        <ele>407.338</ele>
        <time>2020-05-21T13:39:30Z</time>
      </trkpt>
      <trkpt lat="43.181040" lon="-6.293550">
        <ele>406.727</ele>
        <time>2020-05-21T13:39:50Z</time>
      </trkpt>
      <trkpt lat="43.181060" lon="-6.293790">
        <ele>406.698</ele>
        <time>2020-05-21T13:40:10Z</time>
      </trkpt>
      <trkpt lat="43.181070" lon="-6.293860">
        <ele>406.477</ele>
        <time>2020-05-21T13:40:30Z</time>
      </trkpt>
      <trkpt lat="43.181140" lon="-6.294350">
        <ele>404.510</ele>
        <time>2020-05-21T13:40:50Z</time>
      </trkpt>
      <trkpt lat="43.181160" lon="-6.294520">
        <ele>403.934</ele>
        <time>2020-05-21T13:41:10Z</time>
      </trkpt>
      <trkpt lat="43.181190" lon="-6.294770">
        <ele>403.555</ele>
        <time>2020-05-21T13:41:30Z</time>
      </trkpt>
      <trkpt lat="43.181230" lon="-6.295080">
        <ele>402.610</ele>
        <time>2020-05-21T13:41:50Z</time>
      </trkpt>
      <trkpt lat="43.181280" lon="-6.295500">
        <ele>399.808</ele>
        <time>2020-05-21T13:42:10Z</time>
      </trkpt>
      <trkpt lat="43.181290" lon="-6.295620">
        <ele>399.547</ele>
        <time>2020-05-21T13:42:30Z</time>
      </trkpt>
      <trkpt lat="43.181300" lon="-6.295740">
        <ele>399.252</ele>
        <time>2020-05-21T13:42:50Z</time>
      </trkpt>
      <trkpt lat="43.181290" lon="-6.295860">
        <ele>399.319</ele>
        <time>2020-05-21T13:43:10Z</time>
      </trkpt>
      <trkpt lat="43.181270" lon="-6.295960">
        <ele>399.035</ele>
        <time>2020-05-21T13:43:30Z</time>
      </trkpt>
      <trkpt lat="43.181250" lon="-6.296050">
        <ele>398.624</ele>
        <time>2020-05-21T13:43:50Z</time>
      </trkpt>
      <trkpt lat="43.181210" lon="-6.296170">
        <ele>398.045</ele>
        <time>2020-05-21T13:44:10Z</time>
      </trkpt>
      <trkpt lat="43.181190" lon="-6.296210">
        <ele>397.894</ele>
        <time>2020-05-21T13:44:30Z</time>
      </trkpt>
      <trkpt lat="43.181160" lon="-6.296260">
        <ele>397.567</ele>
        <time>2020-05-21T13:44:50Z</time>
      </trkpt>
      <trkpt lat="43.181130" lon="-6.296320">
        <ele>396.947</ele>
        <time>2020-05-21T13:45:10Z</time>
      </trkpt>
      <trkpt lat="43.181100" lon="-6.296360">
        <ele>396.629</ele>
        <time>2020-05-21T13:45:30Z</time>
      </trkpt>
      <trkpt lat="43.181020" lon="-6.296420">
        <ele>397.221</ele>
        <time>2020-05-21T13:45:50Z</time>
      </trkpt>
      <trkpt lat="43.181000" lon="-6.296430">
        <ele>397.408</ele>
        <time>2020-05-21T13:46:10Z</time>
      </trkpt>
      <trkpt lat="43.180930" lon="-6.296480">
        <ele>397.518</ele>
        <time>2020-05-21T13:46:30Z</time>
      </trkpt>
      <trkpt lat="43.180800" lon="-6.296520">
        <ele>398.663</ele>
        <time>2020-05-21T13:46:50Z</time>
      </trkpt>
      <trkpt lat="43.180690" lon="-6.296520">
        <ele>401.690</ele>
        <time>2020-05-21T13:47:10Z</time>
      </trkpt>
      <trkpt lat="43.180600" lon="-6.296500">
        <ele>404.616</ele>
        <time>2020-05-21T13:47:30Z</time>
      </trkpt>
      <trkpt lat="43.180500" lon="-6.296460">
        <ele>408.775</ele>
        <time>2020-05-21T13:47:50Z</time>
      </trkpt>
      <trkpt lat="43.180480" lon="-6.296450">
        <ele>409.686</ele>
        <time>2020-05-21T13:48:10Z</time>
      </trkpt>
      <trkpt lat="43.180240" lon="-6.296350">
        <ele>420.145</ele>
        <time>2020-05-21T13:48:30Z</time>
      </trkpt>
      <trkpt lat="43.180110" lon="-6.296330">
        <ele>422.918</ele>
        <time>2020-05-21T13:48:50Z</time>
      </trkpt>
      <trkpt lat="43.179990" lon="-6.296340">
        <ele>424.037</ele>
        <time>2020-05-21T13:49:10Z</time>
      </trkpt>
      <trkpt lat="43.179950" lon="-6.296340">
        <ele>423.549</ele>
        <time>2020-05-21T13:49:30Z</time>
      </trkpt>
      <trkpt lat="43.179770" lon="-6.296370">
        <ele>419.713</ele>
        <time>2020-05-21T13:49:50Z</time>
      </trkpt>
      <trkpt lat="43.179360" lon="-6.296490">
        <ele>409.408</ele>
        <time>2020-05-21T13:50:10Z</time>
      </trkpt>
      <trkpt lat="43.179340" lon="-6.296490">
        <ele>409.487</ele>
        <time>2020-05-21T13:50:30Z</time>
      </trkpt>
      <trkpt lat="43.179190" lon="-6.296560">
        <ele>406.322</ele>
        <time>2020-05-21T13:50:50Z</time>
      </trkpt>
      <trkpt lat="43.179120" lon="-6.296590">
        <ele>405.659</ele>
        <time>2020-05-21T13:51:10Z</time>
      </trkpt>
      <trkpt lat="43.178790" lon="-6.296800">
        <ele>404.525</ele>
        <time>2020-05-21T13:51:30Z</time>
      </trkpt>
      <trkpt lat="43.178660" lon="-6.296890">
        <ele>406.124</ele>
        <time>2020-05-21T13:51:50Z</time>
      </trkpt>
      <trkpt lat="43.178390" lon="-6.297130">
        <ele>409.695</ele>
        <time>2020-05-21T13:52:10Z</time>
      </trkpt>
      <trkpt lat="43.178160" lon="-6.297340">
        <ele>408.544</ele>
        <time>2020-05-21T13:52:30Z</time>
      </trkpt>
      <trkpt lat="43.178100" lon="-6.297400">
        <ele>407.227</ele>
        <time>2020-05-21T13:52:50Z</time>
      </trkpt>
      <trkpt lat="43.177950" lon="-6.297540">
        <ele>405.851</ele>
        <time>2020-05-21T13:53:10Z</time>
      </trkpt>
      <trkpt lat="43.177810" lon="-6.297670">
        <ele>405.901</ele>
        <time>2020-05-21T13:53:30Z</time>
      </trkpt>
      <trkpt lat="43.177650" lon="-6.297810">
        <ele>407.711</ele>
        <time>2020-05-21T13:53:50Z</time>
      </trkpt>
      <trkpt lat="43.177600" lon="-6.297860">
        <ele>408.708</ele>
        <time>2020-05-21T13:54:10Z</time>
      </trkpt>
      <trkpt lat="43.177500" lon="-6.297960">
        <ele>410.429</ele>
        <time>2020-05-21T13:54:30Z</time>
      </trkpt>
      <trkpt lat="43.177460" lon="-6.298000">
        <ele>411.464</ele>
        <time>2020-05-21T13:54:50Z</time>
      </trkpt>
      <trkpt lat="43.177370" lon="-6.298130">
        <ele>412.261</ele>
        <time>2020-05-21T13:55:10Z</time>
      </trkpt>
      <trkpt lat="43.177360" lon="-6.298150">
        <ele>412.287</ele>
        <time>2020-05-21T13:55:30Z</time>
      </trkpt>
      <trkpt lat="43.177220" lon="-6.298360">
        <ele>412.266</ele>
        <time>2020-05-21T13:55:50Z</time>
      </trkpt>
      <trkpt lat="43.177110" lon="-6.298590">
        <ele>408.577</ele>
        <time>2020-05-21T13:56:10Z</time>
      </trkpt>
      <trkpt lat="43.176920" lon="-6.298900">
        <ele>407.766</ele>
        <time>2020-05-21T13:56:30Z</time>
      </trkpt>
      <trkpt lat="43.176690" lon="-6.299330">
        <ele>404.699</ele>
        <time>2020-05-21T13:56:50Z</time>
      </trkpt>
      <trkpt lat="43.176570" lon="-6.299520">
        <ele>405.943</ele>
        <time>2020-05-21T13:57:10Z</time>
      </trkpt>
      <trkpt lat="43.176550" lon="-6.299560">
        <ele>406.164</ele>
        <time>2020-05-21T13:57:30Z</time>
      </trkpt>
      <trkpt lat="43.176430" lon="-6.299740">
        <ele>406.710</ele>
        <time>2020-05-21T13:57:50Z</time>
      </trkpt>
      <trkpt lat="43.176240" lon="-6.300000">
        <ele>406.708</ele>
        <time>2020-05-21T13:58:10Z</time>
      </trkpt>
      <trkpt lat="43.176140" lon="-6.300120">
        <ele>406.918</ele>
        <time>2020-05-21T13:58:30Z</time>
      </trkpt>
      <trkpt lat="43.176050" lon="-6.300190">
        <ele>406.053</ele>
        <time>2020-05-21T13:58:50Z</time>
      </trkpt>
      <trkpt lat="43.176020" lon="-6.300220">
        <ele>405.470</ele>
        <time>2020-05-21T13:59:10Z</time>
      </trkpt>
      <trkpt lat="43.175910" lon="-6.300280">
        <ele>403.556</ele>
        <time>2020-05-21T13:59:30Z</time>
      </trkpt>
      <trkpt lat="43.175890" lon="-6.300290">
        <ele>403.385</ele>
        <time>2020-05-21T13:59:50Z</time>
      </trkpt>
      <trkpt lat="43.175830" lon="-6.300310">
        <ele>402.856</ele>
        <time>2020-05-21T14:00:10Z</time>
      </trkpt>
      <trkpt lat="43.175730" lon="-6.300340">
        <ele>402.655</ele>
        <time>2020-05-21T14:00:30Z</time>
      </trkpt>
      <trkpt lat="43.175710" lon="-6.300340">
        <ele>402.658</ele>
        <time>2020-05-21T14:00:50Z</time>
      </trkpt>
      <trkpt lat="43.175630" lon="-6.300350">
        <ele>402.593</ele>
        <time>2020-05-21T14:01:10Z</time>
      </trkpt>
      <trkpt lat="43.175580" lon="-6.300370">
        <ele>402.365</ele>
        <time>2020-05-21T14:01:30Z</time>
      </trkpt>
      <trkpt lat="43.175470" lon="-6.300420">
        <ele>402.321</ele>
        <time>2020-05-21T14:01:50Z</time>
      </trkpt>
      <trkpt lat="43.175390" lon="-6.300440">
        <ele>402.408</ele>
        <time>2020-05-21T14:02:10Z</time>
      </trkpt>
      <trkpt lat="43.175360" lon="-6.300440">
        <ele>402.563</ele>
        <time>2020-05-21T14:02:30Z</time>
      </trkpt>
      <trkpt lat="43.175340" lon="-6.300440">
        <ele>402.698</ele>
        <time>2020-05-21T14:02:50Z</time>
      </trkpt>
      <trkpt lat="43.175290" lon="-6.300430">
        <ele>402.955</ele>
        <time>2020-05-21T14:03:10Z</time>
      </trkpt>
      <trkpt lat="43.175250" lon="-6.300400">
        <ele>403.881</ele>
        <time>2020-05-21T14:03:30Z</time>
      </trkpt>
      <trkpt lat="43.175240" lon="-6.300380">
        <ele>404.240</ele>
        <time>2020-05-21T14:03:50Z</time>
      </trkpt>
      <trkpt lat="43.175200" lon="-6.300340">
        <ele>405.451</ele>
        <time>2020-05-21T14:04:10Z</time>
      </trkpt>
      <trkpt lat="43.175170" lon="-6.300280">
        <ele>406.330</ele>
        <time>2020-05-21T14:04:30Z</time>
      </trkpt>
      <trkpt lat="43.175110" lon="-6.300130">
        <ele>407.933</ele>
        <time>2020-05-21T14:04:50Z</time>
      </trkpt>
      <trkpt lat="43.174900" lon="-6.299450">
        <ele>417.073</ele>
        <time>2020-05-21T14:05:10Z</time>
      </trkpt>
      <trkpt lat="43.174860" lon="-6.299320">
        <ele>417.285</ele>
        <time>2020-05-21T14:05:30Z</time>
      </trkpt>
      <trkpt lat="43.174780" lon="-6.299110">
        <ele>415.613</ele>
        <time>2020-05-21T14:05:50Z</time>
      </trkpt>
      <trkpt lat="43.174770" lon="-6.299090">
        <ele>415.608</ele>
        <time>2020-05-21T14:06:10Z</time>
      </trkpt>
      <trkpt lat="43.174730" lon="-6.299020">
        <ele>415.571</ele>
        <time>2020-05-21T14:06:30Z</time>
      </trkpt>
      <trkpt lat="43.174690" lon="-6.298940">
        <ele>417.366</ele>
        <time>2020-05-21T14:06:50Z</time>
      </trkpt>
      <trkpt lat="43.174620" lon="-6.298820">
        <ele>420.893</ele>
        <time>2020-05-21T14:07:10Z</time>
      </trkpt>
      <trkpt lat="43.174610" lon="-6.298800">
        <ele>421.369</ele>
        <time>2020-05-21T14:07:30Z</time>
      </trkpt>
      <trkpt lat="43.174570" lon="-6.298750">
        <ele>423.358</ele>
        <time>2020-05-21T14:07:50Z</time>
      </trkpt>
      <trkpt lat="43.174520" lon="-6.298690">
        <ele>425.699</ele>
        <time>2020-05-21T14:08:10Z</time>
      </trkpt>
      <trkpt lat="43.174500" lon="-6.298650">
        <ele>426.498</ele>
        <time>2020-05-21T14:08:30Z</time>
      </trkpt>
      <trkpt lat="43.174450" lon="-6.298570">
        <ele>428.031</ele>
        <time>2020-05-21T14:08:50Z</time>
      </trkpt>
      <trkpt lat="43.174420" lon="-6.298470">
        <ele>427.616</ele>
        <time>2020-05-21T14:09:10Z</time>
      </trkpt>
      <trkpt lat="43.174420" lon="-6.298440">
        <ele>427.176</ele>
        <time>2020-05-21T14:09:30Z</time>
      </trkpt>
      <trkpt lat="43.174420" lon="-6.298430">
        <ele>426.913</ele>
        <time>2020-05-21T14:09:50Z</time>
      </trkpt>
      <trkpt lat="43.174400" lon="-6.298260">
        <ele>424.008</ele>
        <time>2020-05-21T14:10:10Z</time>
      </trkpt>
      <trkpt lat="43.174410" lon="-6.298120">
        <ele>419.455</ele>
        <time>2020-05-21T14:10:30Z</time>
      </trkpt>
      <trkpt lat="43.174460" lon="-6.297950">
        <ele>414.850</ele>
        <time>2020-05-21T14:10:50Z</time>
      </trkpt>
      <trkpt lat="43.174490" lon="-6.297830">
        <ele>413.837</ele>
        <time>2020-05-21T14:11:10Z</time>
      </trkpt>
      <trkpt lat="43.174500" lon="-6.297720">
        <ele>413.413</ele>
        <time>2020-05-21T14:11:30Z</time>
      </trkpt>
      <trkpt lat="43.174500" lon="-6.297710">
        <ele>413.492</ele>
        <time>2020-05-21T14:11:50Z</time>
      </trkpt>
      <trkpt lat="43.174500" lon="-6.297670">
        <ele>413.453</ele>
        <time>2020-05-21T14:12:10Z</time>
      </trkpt>
      <trkpt lat="43.174490" lon="-6.297630">
        <ele>413.362</ele>
        <time>2020-05-21T14:12:30Z</time>
      </trkpt>
      <trkpt lat="43.174440" lon="-6.297540">
        <ele>413.185</ele>
        <time>2020-05-21T14:12:50Z</time>
      </trkpt>
      <trkpt lat="43.174410" lon="-6.297510">
        <ele>413.534</ele>
        <time>2020-05-21T14:13:10Z</time>
      </trkpt>
      <trkpt lat="43.174390" lon="-6.297480">
        <ele>413.955</ele>
        <time>2020-05-21T14:13:30Z</time>
      </trkpt>
      <trkpt lat="43.174320" lon="-6.297420">
        <ele>415.110</ele>
        <time>2020-05-21T14:13:50Z</time>
      </trkpt>
      <trkpt lat="43.174250" lon="-6.297390">
        <ele>415.908</ele>
        <time>2020-05-21T14:14:10Z</time>
      </trkpt>
      <trkpt lat="43.174180" lon="-6.297380">
        <ele>416.567</ele>
        <time>2020-05-21T14:14:30Z</time>
      </trkpt>
      <trkpt lat="43.174080" lon="-6.297370">
        <ele>419.092</ele>
        <time>2020-05-21T14:14:50Z</time>
      </trkpt>
      <trkpt lat="43.173940" lon="-6.297360">
        <ele>423.089</ele>
        <time>2020-05-21T14:15:10Z</time>
      </trkpt>
      <trkpt lat="43.173900" lon="-6.297360">
        <ele>424.215</ele>
        <time>2020-05-21T14:15:30Z</time>
      </trkpt>
      <trkpt lat="43.173760" lon="-6.297340">
        <ele>426.134</ele>
        <time>2020-05-21T14:15:50Z</time>
      </trkpt>
      <trkpt lat="43.173720" lon="-6.297320">
        <ele>426.495</ele>
        <time>2020-05-21T14:16:10Z</time>
      </trkpt>
      <trkpt lat="43.173690" lon="-6.297320">
        <ele>426.864</ele>
        <time>2020-05-21T14:16:30Z</time>
      </trkpt>
      <trkpt lat="43.173620" lon="-6.297300">
        <ele>427.377</ele>
        <time>2020-05-21T14:16:50Z</time>
      </trkpt>
      <trkpt lat="43.173540" lon="-6.297270">
        <ele>427.688</ele>
        <time>2020-05-21T14:17:10Z</time>
      </trkpt>
      <trkpt lat="43.173520" lon="-6.297260">
        <ele>427.624</ele>
        <time>2020-05-21T14:17:30Z</time>
      </trkpt>
      <trkpt lat="43.173430" lon="-6.297210">
        <ele>427.026</ele>
        <time>2020-05-21T14:17:50Z</time>
      </trkpt>
      <trkpt lat="43.173380" lon="-6.297180">
        <ele>426.708</ele>
        <time>2020-05-21T14:18:10Z</time>
      </trkpt>
      <trkpt lat="43.173310" lon="-6.297140">
        <ele>426.522</ele>
        <time>2020-05-21T14:18:30Z</time>
      </trkpt>
      <trkpt lat="43.173220" lon="-6.297070">
        <ele>426.637</ele>
        <time>2020-05-21T14:18:50Z</time>
      </trkpt>
      <trkpt lat="43.173070" lon="-6.296930">
        <ele>425.324</ele>
        <time>2020-05-21T14:19:10Z</time>
      </trkpt>
      <trkpt lat="43.172920" lon="-6.296800">
        <ele>427.780</ele>
        <time>2020-05-21T14:19:30Z</time>
      </trkpt>
      <trkpt lat="43.172810" lon="-6.296700">
        <ele>429.619</ele>
        <time>2020-05-21T14:19:50Z</time>
      </trkpt>
      <trkpt lat="43.172770" lon="-6.296650">
        <ele>429.950</ele>
        <time>2020-05-21T14:20:10Z</time>
      </trkpt>
      <trkpt lat="43.172630" lon="-6.296500">
        <ele>430.219</ele>
        <time>2020-05-21T14:20:30Z</time>
      </trkpt>
      <trkpt lat="43.172490" lon="-6.296340">
        <ele>429.362</ele>
        <time>2020-05-21T14:20:50Z</time>
      </trkpt>
      <trkpt lat="43.172470" lon="-6.296310">
        <ele>429.266</ele>
        <time>2020-05-21T14:21:10Z</time>
      </trkpt>
      <trkpt lat="43.172430" lon="-6.296240">
        <ele>428.529</ele>
        <time>2020-05-21T14:21:30Z</time>
      </trkpt>
      <trkpt lat="43.172380" lon="-6.296150">
        <ele>427.221</ele>
        <time>2020-05-21T14:21:50Z</time>
      </trkpt>
      <trkpt lat="43.172340" lon="-6.296070">
        <ele>426.108</ele>
        <time>2020-05-21T14:22:10Z</time>
      </trkpt>
      <trkpt lat="43.172280" lon="-6.295940">
        <ele>424.440</ele>
        <time>2020-05-21T14:22:30Z</time>
      </trkpt>
      <trkpt lat="43.172250" lon="-6.295890">
        <ele>423.825</ele>
        <time>2020-05-21T14:22:50Z</time>
      </trkpt>
      <trkpt lat="43.172190" lon="-6.295800">
        <ele>423.352</ele>
        <time>2020-05-21T14:23:10Z</time>
      </trkpt>
      <trkpt lat="43.172160" lon="-6.295760">
        <ele>423.378</ele>
        <time>2020-05-21T14:23:30Z</time>
      </trkpt>
      <trkpt lat="43.172110" lon="-6.295700">
        <ele>423.037</ele>
        <time>2020-05-21T14:23:50Z</time>
      </trkpt>
      <trkpt lat="43.172020" lon="-6.295620">
        <ele>422.388</ele>
        <time>2020-05-21T14:24:10Z</time>
      </trkpt>
      <trkpt lat="43.171920" lon="-6.295540">
        <ele>421.857</ele>
        <time>2020-05-21T14:24:30Z</time>
      </trkpt>
      <trkpt lat="43.171860" lon="-6.295490">
        <ele>423.590</ele>
        <time>2020-05-21T14:24:50Z</time>
      </trkpt>
      <trkpt lat="43.171730" lon="-6.295370">
        <ele>424.658</ele>
        <time>2020-05-21T14:25:10Z</time>
      </trkpt>
      <trkpt lat="43.171710" lon="-6.295350">
        <ele>424.452</ele>
        <time>2020-05-21T14:25:30Z</time>
      </trkpt>
      <trkpt lat="43.171560" lon="-6.295210">
        <ele>425.617</ele>
        <time>2020-05-21T14:25:50Z</time>
      </trkpt>
      <trkpt lat="43.171420" lon="-6.295070">
        <ele>426.808</ele>
        <time>2020-05-21T14:26:10Z</time>
      </trkpt>
      <trkpt lat="43.171270" lon="-6.294930">
        <ele>425.649</ele>
        <time>2020-05-21T14:26:30Z</time>
      </trkpt>
      <trkpt lat="43.171230" lon="-6.294890">
        <ele>425.214</ele>
        <time>2020-05-21T14:26:50Z</time>
      </trkpt>
      <trkpt lat="43.171130" lon="-6.294780">
        <ele>423.851</ele>
        <time>2020-05-21T14:27:10Z</time>
      </trkpt>
      <trkpt lat="43.171100" lon="-6.294750">
        <ele>423.487</ele>
        <time>2020-05-21T14:27:30Z</time>
      </trkpt>
      <trkpt lat="43.170980" lon="-6.294670">
        <ele>422.756</ele>
        <time>2020-05-21T14:27:50Z</time>
      </trkpt>
      <trkpt lat="43.170970" lon="-6.294660">
        <ele>422.667</ele>
        <time>2020-05-21T14:28:10Z</time>
      </trkpt>
      <trkpt lat="43.170790" lon="-6.294620">
        <ele>422.616</ele>
        <time>2020-05-21T14:28:30Z</time>
      </trkpt>
      <trkpt lat="43.170410" lon="-6.294510">
        <ele>422.919</ele>
        <time>2020-05-21T14:28:50Z</time>
      </trkpt>
      <trkpt lat="43.170170" lon="-6.294440">
        <ele>422.784</ele>
        <time>2020-05-21T14:29:10Z</time>
      </trkpt>
      <trkpt lat="43.169940" lon="-6.294380">
        <ele>424.207</ele>
        <time>2020-05-21T14:29:30Z</time>
      </trkpt>
      <trkpt lat="43.169890" lon="-6.294360">
        <ele>425.017</ele>
        <time>2020-05-21T14:29:50Z</time>
      </trkpt>
      <trkpt lat="43.169810" lon="-6.294330">
        <ele>426.208</ele>
        <time>2020-05-21T14:30:10Z</time>
      </trkpt>
      <trkpt lat="43.169720" lon="-6.294270">
        <ele>426.552</ele>
        <time>2020-05-21T14:30:30Z</time>
      </trkpt>
      <trkpt lat="43.169680" lon="-6.294250">
        <ele>427.757</ele>
        <time>2020-05-21T14:30:50Z</time>
      </trkpt>
      <trkpt lat="43.169590" lon="-6.294170">
        <ele>429.344</ele>
        <time>2020-05-21T14:31:10Z</time>
      </trkpt>
      <trkpt lat="43.169570" lon="-6.294140">
        <ele>429.410</ele>
        <time>2020-05-21T14:31:30Z</time>
      </trkpt>
      <trkpt lat="43.169530" lon="-6.294090">
        <ele>429.929</ele>
        <time>2020-05-21T14:31:50Z</time>
      </trkpt>
      <trkpt lat="43.169460" lon="-6.293950">
        <ele>429.160</ele>
        <time>2020-05-21T14:32:10Z</time>
      </trkpt>
      <trkpt lat="43.169420" lon="-6.293860">
        <ele>428.269</ele>
        <time>2020-05-21T14:32:30Z</time>
      </trkpt>
      <trkpt lat="43.169250" lon="-6.293460">
        <ele>426.072</ele>
        <time>2020-05-21T14:32:50Z</time>
      </trkpt>
      <trkpt lat="43.169080" lon="-6.292960">
        <ele>430.661</ele>
        <time>2020-05-21T14:33:10Z</time>
      </trkpt>
      <trkpt lat="43.169070" lon="-6.292890">
        <ele>431.321</ele>
        <time>2020-05-21T14:33:30Z</time>
      </trkpt>
      <trkpt lat="43.169060" lon="-6.292850">
        <ele>431.813</ele>
        <time>2020-05-21T14:33:50Z</time>
      </trkpt>
      <trkpt lat="43.169040" lon="-6.292730">
        <ele>433.208</ele>
        <time>2020-05-21T14:34:10Z</time>
      </trkpt>
      <trkpt lat="43.169040" lon="-6.292600">
        <ele>433.970</ele>
        <time>2020-05-21T14:34:30Z</time>
      </trkpt>
      <trkpt lat="43.169040" lon="-6.292500">
        <ele>434.495</ele>
        <time>2020-05-21T14:34:50Z</time>
      </trkpt>
      <trkpt lat="43.169030" lon="-6.292170">
        <ele>433.472</ele>
        <time>2020-05-21T14:35:10Z</time>
      </trkpt>
      <trkpt lat="43.169030" lon="-6.292110">
        <ele>432.378</ele>
        <time>2020-05-21T14:35:30Z</time>
      </trkpt>
      <trkpt lat="43.169030" lon="-6.291950">
        <ele>429.557</ele>
        <time>2020-05-21T14:35:50Z</time>
      </trkpt>
      <trkpt lat="43.169020" lon="-6.291860">
        <ele>428.598</ele>
        <time>2020-05-21T14:36:10Z</time>
      </trkpt>
      <trkpt lat="43.169010" lon="-6.291760">
        <ele>427.217</ele>
        <time>2020-05-21T14:36:30Z</time>
      </trkpt>
      <trkpt lat="43.168970" lon="-6.291550">
        <ele>426.210</ele>
        <time>2020-05-21T14:36:50Z</time>
      </trkpt>
      <trkpt lat="43.168820" lon="-6.291190">
        <ele>430.653</ele>
        <time>2020-05-21T14:37:10Z</time>
      </trkpt>
      <trkpt lat="43.168730" lon="-6.290970">
        <ele>434.304</ele>
        <time>2020-05-21T14:37:30Z</time>
      </trkpt>
      <trkpt lat="43.168640" lon="-6.290760">
        <ele>433.614</ele>
        <time>2020-05-21T14:37:50Z</time>
      </trkpt>
      <trkpt lat="43.168550" lon="-6.290540">
        <ele>434.108</ele>
        <time>2020-05-21T14:38:10Z</time>
      </trkpt>
      <trkpt lat="43.168540" lon="-6.290520">
        <ele>434.559</ele>
        <time>2020-05-21T14:38:30Z</time>
      </trkpt>
      <trkpt lat="43.168370" lon="-6.290120">
        <ele>437.654</ele>
        <time>2020-05-21T14:38:50Z</time>
      </trkpt>
      <trkpt lat="43.168290" lon="-6.289930">
        <ele>439.911</ele>
        <time>2020-05-21T14:39:10Z</time>
      </trkpt>
      <trkpt lat="43.168280" lon="-6.289900">
        <ele>440.287</ele>
        <time>2020-05-21T14:39:30Z</time>
      </trkpt>
      <trkpt lat="43.168270" lon="-6.289850">
        <ele>440.516</ele>
        <time>2020-05-21T14:39:50Z</time>
      </trkpt>
      <trkpt lat="43.168240" lon="-6.289730">
        <ele>441.127</ele>
        <time>2020-05-21T14:40:10Z</time>
      </trkpt>
      <trkpt lat="43.168210" lon="-6.289570">
        <ele>440.836</ele>
        <time>2020-05-21T14:40:30Z</time>
      </trkpt>
      <trkpt lat="43.168190" lon="-6.289390">
        <ele>439.399</ele>
        <time>2020-05-21T14:40:50Z</time>
      </trkpt>
      <trkpt lat="43.168190" lon="-6.289180">
        <ele>436.285</ele>
        <time>2020-05-21T14:41:10Z</time>
      </trkpt>
      <trkpt lat="43.168190" lon="-6.289150">
        <ele>435.989</ele>
        <time>2020-05-21T14:41:30Z</time>
      </trkpt>
      <trkpt lat="43.168170" lon="-6.289020">
        <ele>434.517</ele>
        <time>2020-05-21T14:41:50Z</time>
      </trkpt>
      <trkpt lat="43.168150" lon="-6.288960">
        <ele>433.908</ele>
        <time>2020-05-21T14:42:10Z</time>
      </trkpt>
      <trkpt lat="43.168140" lon="-6.288950">
        <ele>433.762</ele>
        <time>2020-05-21T14:42:30Z</time>
      </trkpt>
      <trkpt lat="43.168040" lon="-6.288740">
        <ele>431.797</ele>
        <time>2020-05-21T14:42:50Z</time>
      </trkpt>
      <trkpt lat="43.167930" lon="-6.288540">
        <ele>432.274</ele>
        <time>2020-05-21T14:43:10Z</time>
      </trkpt>
      <trkpt lat="43.167930" lon="-6.288530">
        <ele>432.310</ele>
        <time>2020-05-21T14:43:30Z</time>
      </trkpt>
      <trkpt lat="43.167860" lon="-6.288320">
        <ele>434.369</ele>
        <time>2020-05-21T14:43:50Z</time>
      </trkpt>
      <trkpt lat="43.167790" lon="-6.288090">
        <ele>437.680</ele>
        <time>2020-05-21T14:44:10Z</time>
      </trkpt>
      <trkpt lat="43.167760" lon="-6.287900">
        <ele>441.239</ele>
        <time>2020-05-21T14:44:30Z</time>
      </trkpt>
      <trkpt lat="43.167760" lon="-6.287850">
        <ele>441.942</ele>
        <time>2020-05-21T14:44:50Z</time>
      </trkpt>
      <trkpt lat="43.167760" lon="-6.287770">
        <ele>442.853</ele>
        <time>2020-05-21T14:45:10Z</time>
      </trkpt>
      <trkpt lat="43.167760" lon="-6.287660">
        <ele>442.004</ele>
        <time>2020-05-21T14:45:30Z</time>
      </trkpt>
      <trkpt lat="43.167770" lon="-6.287600">
        <ele>441.114</ele>
        <time>2020-05-21T14:45:50Z</time>
      </trkpt>
      <trkpt lat="43.167780" lon="-6.287510">
        <ele>440.108</ele>
        <time>2020-05-21T14:46:10Z</time>
      </trkpt>
      <trkpt lat="43.167790" lon="-6.287410">
        <ele>440.129</ele>
        <time>2020-05-21T14:46:30Z</time>
      </trkpt>
      <trkpt lat="43.167810" lon="-6.287360">
        <ele>440.214</ele>
        <time>2020-05-21T14:46:50Z</time>
      </trkpt>
      <trkpt lat="43.167820" lon="-6.287300">
        <ele>440.181</ele>
        <time>2020-05-21T14:47:10Z</time>
      </trkpt>
      <trkpt lat="43.167850" lon="-6.287180">
        <ele>440.667</ele>
        <time>2020-05-21T14:47:30Z</time>
      </trkpt>
      <trkpt lat="43.167880" lon="-6.287140">
        <ele>440.976</ele>
        <time>2020-05-21T14:47:50Z</time>
      </trkpt>
      <trkpt lat="43.167970" lon="-6.286920">
        <ele>441.667</ele>
        <time>2020-05-21T14:48:10Z</time>
      </trkpt>
      <trkpt lat="43.168140" lon="-6.286510">
        <ele>440.716</ele>
        <time>2020-05-21T14:48:30Z</time>
      </trkpt>
      <trkpt lat="43.168150" lon="-6.286500">
        <ele>440.769</ele>
        <time>2020-05-21T14:48:50Z</time>
      </trkpt>
      <trkpt lat="43.168240" lon="-6.286290">
        <ele>441.933</ele>
        <time>2020-05-21T14:49:10Z</time>
      </trkpt>
      <trkpt lat="43.168340" lon="-6.286060">
        <ele>442.123</ele>
        <time>2020-05-21T14:49:30Z</time>
      </trkpt>
      <trkpt lat="43.168390" lon="-6.285930">
        <ele>441.815</ele>
        <time>2020-05-21T14:49:50Z</time>
      </trkpt>
      <trkpt lat="43.168510" lon="-6.285490">
        <ele>443.008</ele>
        <time>2020-05-21T14:50:10Z</time>
      </trkpt>
      <trkpt lat="43.168540" lon="-6.285360">
        <ele>442.917</ele>
        <time>2020-05-21T14:50:30Z</time>
      </trkpt>
      <trkpt lat="43.168580" lon="-6.285230">
        <ele>442.852</ele>
        <time>2020-05-21T14:50:50Z</time>
      </trkpt>
      <trkpt lat="43.168610" lon="-6.285130">
        <ele>443.259</ele>
        <time>2020-05-21T14:51:10Z</time>
      </trkpt>
      <trkpt lat="43.168620" lon="-6.285100">
        <ele>443.455</ele>
        <time>2020-05-21T14:51:30Z</time>
      </trkpt>
      <trkpt lat="43.168670" lon="-6.285000">
        <ele>443.334</ele>
        <time>2020-05-21T14:51:50Z</time>
      </trkpt>
      <trkpt lat="43.168710" lon="-6.284930">
        <ele>443.525</ele>
        <time>2020-05-21T14:52:10Z</time>
      </trkpt>
      <trkpt lat="43.168720" lon="-6.284920">
        <ele>443.454</ele>
        <time>2020-05-21T14:52:30Z</time>
      </trkpt>
      <trkpt lat="43.168770" lon="-6.284840">
        <ele>443.227</ele>
        <time>2020-05-21T14:52:50Z</time>
      </trkpt>
      <trkpt lat="43.168820" lon="-6.284740">
        <ele>443.299</ele>
        <time>2020-05-21T14:53:10Z</time>
      </trkpt>
      <trkpt lat="43.168930" lon="-6.284540">
        <ele>443.107</ele>
        <time>2020-05-21T14:53:30Z</time>
      </trkpt>
      <trkpt lat="43.168970" lon="-6.284470">
        <ele>443.527</ele>
        <time>2020-05-21T14:53:50Z</time>
      </trkpt>
      <trkpt lat="43.169040" lon="-6.284340">
        <ele>444.608</ele>
        <time>2020-05-21T14:54:10Z</time>
      </trkpt>
      <trkpt lat="43.169080" lon="-6.284290">
        <ele>444.633</ele>
        <time>2020-05-21T14:54:30Z</time>
      </trkpt>
      <trkpt lat="43.169190" lon="-6.284090">
        <ele>444.568</ele>
        <time>2020-05-21T14:54:50Z</time>
      </trkpt>
      <trkpt lat="43.169230" lon="-6.283970">
        <ele>444.955</ele>
        <time>2020-05-21T14:55:10Z</time>
      </trkpt>
      <trkpt lat="43.169270" lon="-6.283820">
        <ele>446.251</ele>
        <time>2020-05-21T14:55:30Z</time>
      </trkpt>
      <trkpt lat="43.169290" lon="-6.283660">
        <ele>448.760</ele>
        <time>2020-05-21T14:55:50Z</time>
      </trkpt>
      <trkpt lat="43.169300" lon="-6.283600">
        <ele>449.551</ele>
        <time>2020-05-21T14:56:10Z</time>
      </trkpt>
      <trkpt lat="43.169330" lon="-6.283510">
        <ele>450.880</ele>
        <time>2020-05-21T14:56:30Z</time>
      </trkpt>
      <trkpt lat="43.169350" lon="-6.283470">
        <ele>451.073</ele>
        <time>2020-05-21T14:56:50Z</time>
      </trkpt>
      <trkpt lat="43.169370" lon="-6.283430">
        <ele>451.131</ele>
        <time>2020-05-21T14:57:10Z</time>
      </trkpt>
      <trkpt lat="43.169450" lon="-6.283340">
        <ele>449.761</ele>
        <time>2020-05-21T14:57:30Z</time>
      </trkpt>
      <trkpt lat="43.169520" lon="-6.283280">
        <ele>448.707</ele>
        <time>2020-05-21T14:57:50Z</time>
      </trkpt>
      <trkpt lat="43.169640" lon="-6.283180">
        <ele>444.608</ele>
        <time>2020-05-21T14:58:10Z</time>
      </trkpt>
      <trkpt lat="43.169680" lon="-6.283130">
        <ele>442.647</ele>
        <time>2020-05-21T14:58:30Z</time>
      </trkpt>
      <trkpt lat="43.169780" lon="-6.283040">
        <ele>439.462</ele>
        <time>2020-05-21T14:58:50Z</time>
      </trkpt>
      <trkpt lat="43.169780" lon="-6.283030">
        <ele>439.659</ele>
        <time>2020-05-21T14:59:10Z</time>
      </trkpt>
      <trkpt lat="43.169860" lon="-6.282930">
        <ele>439.465</ele>
        <time>2020-05-21T14:59:30Z</time>
      </trkpt>
      <trkpt lat="43.169910" lon="-6.282860">
        <ele>438.944</ele>
        <time>2020-05-21T14:59:50Z</time>
      </trkpt>
      <trkpt lat="43.169940" lon="-6.282810">
        <ele>438.515</ele>
        <time>2020-05-21T15:00:10Z</time>
      </trkpt>
      <trkpt lat="43.169970" lon="-6.282730">
        <ele>438.584</ele>
        <time>2020-05-21T15:00:30Z</time>
      </trkpt>
      <trkpt lat="43.169980" lon="-6.282650">
        <ele>439.347</ele>
        <time>2020-05-21T15:00:50Z</time>
      </trkpt>
      <trkpt lat="43.169980" lon="-6.282640">
        <ele>439.565</ele>
        <time>2020-05-21T15:01:10Z</time>
      </trkpt>
      <trkpt lat="43.169970" lon="-6.282590">
        <ele>440.368</ele>
        <time>2020-05-21T15:01:30Z</time>
      </trkpt>
      <trkpt lat="43.169960" lon="-6.282480">
        <ele>441.714</ele>
        <time>2020-05-21T15:01:50Z</time>
      </trkpt>
      <trkpt lat="43.169930" lon="-6.282410">
        <ele>442.308</ele>
        <time>2020-05-21T15:02:10Z</time>
      </trkpt>
      <trkpt lat="43.169930" lon="-6.282400">
        <ele>442.440</ele>
        <time>2020-05-21T15:02:30Z</time>
      </trkpt>
      <trkpt lat="43.169880" lon="-6.282290">
        <ele>443.515</ele>
        <time>2020-05-21T15:02:50Z</time>
      </trkpt>
      <trkpt lat="43.169710" lon="-6.282010">
        <ele>445.252</ele>
        <time>2020-05-21T15:03:10Z</time>
      </trkpt>
      <trkpt lat="43.169590" lon="-6.281800">
        <ele>447.878</ele>
        <time>2020-05-21T15:03:30Z</time>
      </trkpt>
      <trkpt lat="43.169320" lon="-6.281290">
        <ele>453.347</ele>
        <time>2020-05-21T15:03:50Z</time>
      </trkpt>
      <trkpt lat="43.169200" lon="-6.281000">
        <ele>454.468</ele>
        <time>2020-05-21T15:04:10Z</time>
      </trkpt>
      <trkpt lat="43.169110" lon="-6.280790">
        <ele>453.827</ele>
        <time>2020-05-21T15:04:30Z</time>
      </trkpt>
      <trkpt lat="43.169010" lon="-6.280580">
        <ele>453.250</ele>
        <time>2020-05-21T15:04:50Z</time>
      </trkpt>
      <trkpt lat="43.168920" lon="-6.280360">
        <ele>451.525</ele>
        <time>2020-05-21T15:05:10Z</time>
      </trkpt>
      <trkpt lat="43.168890" lon="-6.280310">
        <ele>450.826</ele>
        <time>2020-05-21T15:05:30Z</time>
      </trkpt>
      <trkpt lat="43.168830" lon="-6.280150">
        <ele>454.508</ele>
        <time>2020-05-21T15:05:50Z</time>
      </trkpt>
      <trkpt lat="43.168820" lon="-6.280130">
        <ele>455.208</ele>
        <time>2020-05-21T15:06:10Z</time>
      </trkpt>
      <trkpt lat="43.168740" lon="-6.279930">
        <ele>460.136</ele>
        <time>2020-05-21T15:06:30Z</time>
      </trkpt>
      <trkpt lat="43.168680" lon="-6.279770">
        <ele>462.551</ele>
        <time>2020-05-21T15:06:50Z</time>
      </trkpt>
      <trkpt lat="43.168630" lon="-6.279650">
        <ele>463.198</ele>
        <time>2020-05-21T15:07:10Z</time>
      </trkpt>
      <trkpt lat="43.168580" lon="-6.279440">
        <ele>462.994</ele>
        <time>2020-05-21T15:07:30Z</time>
      </trkpt>
      <trkpt lat="43.168560" lon="-6.279340">
        <ele>464.343</ele>
        <time>2020-05-21T15:07:50Z</time>
      </trkpt>
      <trkpt lat="43.168550" lon="-6.279250">
        <ele>464.914</ele>
        <time>2020-05-21T15:08:10Z</time>
      </trkpt>
      <trkpt lat="43.168550" lon="-6.279230">
        <ele>464.883</ele>
        <time>2020-05-21T15:08:30Z</time>
      </trkpt>
      <trkpt lat="43.168540" lon="-6.279130">
        <ele>465.646</ele>
        <time>2020-05-21T15:08:50Z</time>
      </trkpt>
      <trkpt lat="43.168540" lon="-6.279000">
        <ele>466.473</ele>
        <time>2020-05-21T15:09:10Z</time>
      </trkpt>
      <trkpt lat="43.168550" lon="-6.278760">
        <ele>467.585</ele>
        <time>2020-05-21T15:09:30Z</time>
      </trkpt>
      <trkpt lat="43.168550" lon="-6.278390">
        <ele>469.613</ele>
        <time>2020-05-21T15:09:50Z</time>
      </trkpt>
      <trkpt lat="43.168530" lon="-6.278270">
        <ele>470.408</ele>
        <time>2020-05-21T15:10:10Z</time>
      </trkpt>
      <trkpt lat="43.168520" lon="-6.278170">
        <ele>470.061</ele>
        <time>2020-05-21T15:10:30Z</time>
      </trkpt>
      <trkpt lat="43.168490" lon="-6.278020">
        <ele>469.446</ele>
        <time>2020-05-21T15:10:50Z</time>
      </trkpt>
      <trkpt lat="43.168480" lon="-6.277950">
        <ele>468.843</ele>
        <time>2020-05-21T15:11:10Z</time>
      </trkpt>
      <trkpt lat="43.168460" lon="-6.277830">
        <ele>467.579</ele>
        <time>2020-05-21T15:11:30Z</time>
      </trkpt>
      <trkpt lat="43.168450" lon="-6.277780">
        <ele>466.918</ele>
        <time>2020-05-21T15:11:50Z</time>
      </trkpt>
      <trkpt lat="43.168430" lon="-6.277590">
        <ele>464.699</ele>
        <time>2020-05-21T15:12:10Z</time>
      </trkpt>
      <trkpt lat="43.168420" lon="-6.277530">
        <ele>463.898</ele>
        <time>2020-05-21T15:12:30Z</time>
      </trkpt>
      <trkpt lat="43.168420" lon="-6.277500">
        <ele>463.431</ele>
        <time>2020-05-21T15:12:50Z</time>
      </trkpt>
      <trkpt lat="43.168410" lon="-6.277470">
        <ele>463.015</ele>
        <time>2020-05-21T15:13:10Z</time>
      </trkpt>
      <trkpt lat="43.168400" lon="-6.277420">
        <ele>462.365</ele>
        <time>2020-05-21T15:13:30Z</time>
      </trkpt>
      <trkpt lat="43.168390" lon="-6.277400">
        <ele>462.011</ele>
        <time>2020-05-21T15:13:50Z</time>
      </trkpt>
      <trkpt lat="43.168370" lon="-6.277380">
        <ele>461.708</ele>
        <time>2020-05-21T15:14:10Z</time>
      </trkpt>
      <trkpt lat="43.168330" lon="-6.277330">
        <ele>461.195</ele>
        <time>2020-05-21T15:14:30Z</time>
      </trkpt>
      <trkpt lat="43.168250" lon="-6.277250">
        <ele>463.790</ele>
        <time>2020-05-21T15:14:50Z</time>
      </trkpt>
      <trkpt lat="43.168170" lon="-6.277150">
        <ele>466.647</ele>
        <time>2020-05-21T15:15:10Z</time>
      </trkpt>
      <trkpt lat="43.168130" lon="-6.277100">
        <ele>468.073</ele>
        <time>2020-05-21T15:15:30Z</time>
      </trkpt>
      <trkpt lat="43.168120" lon="-6.277080">
        <ele>468.382</ele>
        <time>2020-05-21T15:15:50Z</time>
      </trkpt>
      <trkpt lat="43.168110" lon="-6.277050">
        <ele>468.593</ele>
        <time>2020-05-21T15:16:10Z</time>
      </trkpt>
      <trkpt lat="43.168100" lon="-6.277030">
        <ele>468.812</ele>
        <time>2020-05-21T15:16:30Z</time>
      </trkpt>
      <trkpt lat="43.168100" lon="-6.276980">
        <ele>468.395</ele>
        <time>2020-05-21T15:16:50Z</time>
      </trkpt>
      <trkpt lat="43.168120" lon="-6.276840">
        <ele>467.659</ele>
        <time>2020-05-21T15:17:10Z</time>
      </trkpt>
      <trkpt lat="43.168120" lon="-6.276830">
        <ele>467.703</ele>
        <time>2020-05-21T15:17:30Z</time>
      </trkpt>
      <trkpt lat="43.168140" lon="-6.276690">
        <ele>467.823</ele>
        <time>2020-05-21T15:17:50Z</time>
      </trkpt>
      <trkpt lat="43.168170" lon="-6.276440">
        <ele>468.408</ele>
        <time>2020-05-21T15:18:10Z</time>
      </trkpt>
      <trkpt lat="43.168180" lon="-6.276350">
        <ele>468.519</ele>
        <time>2020-05-21T15:18:30Z</time>
      </trkpt>
      <trkpt lat="43.168200" lon="-6.276180">
        <ele>468.384</ele>
        <time>2020-05-21T15:18:50Z</time>
      </trkpt>
      <trkpt lat="43.168200" lon="-6.276110">
        <ele>468.441</ele>
        <time>2020-05-21T15:19:10Z</time>
      </trkpt>
      <trkpt lat="43.168210" lon="-6.275790">
        <ele>467.377</ele>
        <time>2020-05-21T15:19:30Z</time>
      </trkpt>
      <trkpt lat="43.168220" lon="-6.275620">
        <ele>468.296</ele>
        <time>2020-05-21T15:19:50Z</time>
      </trkpt>
      <trkpt lat="43.168240" lon="-6.275420">
        <ele>467.857</ele>
        <time>2020-05-21T15:20:10Z</time>
      </trkpt>
      <trkpt lat="43.168240" lon="-6.275370">
        <ele>467.416</ele>
        <time>2020-05-21T15:20:30Z</time>
      </trkpt>
      <trkpt lat="43.168240" lon="-6.275310">
        <ele>466.949</ele>
        <time>2020-05-21T15:20:50Z</time>
      </trkpt>
      <trkpt lat="43.168230" lon="-6.275250">
        <ele>465.841</ele>
        <time>2020-05-21T15:21:10Z</time>
      </trkpt>
      <trkpt lat="43.168200" lon="-6.275170">
        <ele>463.381</ele>
        <time>2020-05-21T15:21:30Z</time>
      </trkpt>
      <trkpt lat="43.168190" lon="-6.275140">
        <ele>462.409</ele>
        <time>2020-05-21T15:21:50Z</time>
      </trkpt>
      <trkpt lat="43.168170" lon="-6.275090">
        <ele>460.908</ele>
        <time>2020-05-21T15:22:10Z</time>
      </trkpt>
      <trkpt lat="43.168090" lon="-6.274960">
        <ele>457.028</ele>
        <time>2020-05-21T15:22:30Z</time>
      </trkpt>
      <trkpt lat="43.168080" lon="-6.274940">
        <ele>456.553</ele>
        <time>2020-05-21T15:22:50Z</time>
      </trkpt>
      <trkpt lat="43.168000" lon="-6.274810">
        <ele>455.270</ele>
        <time>2020-05-21T15:23:10Z</time>
      </trkpt>
      <trkpt lat="43.167960" lon="-6.274760">
        <ele>454.946</ele>
        <time>2020-05-21T15:23:30Z</time>
      </trkpt>
      <trkpt lat="43.167920" lon="-6.274700">
        <ele>454.325</ele>
        <time>2020-05-21T15:23:50Z</time>
      </trkpt>
      <trkpt lat="43.167850" lon="-6.274640">
        <ele>454.466</ele>
        <time>2020-05-21T15:24:10Z</time>
      </trkpt>
      <trkpt lat="43.167820" lon="-6.274620">
        <ele>454.555</ele>
        <time>2020-05-21T15:24:30Z</time>
      </trkpt>
      <trkpt lat="43.167740" lon="-6.274570">
        <ele>456.178</ele>
        <time>2020-05-21T15:24:50Z</time>
      </trkpt>
      <trkpt lat="43.167640" lon="-6.274520">
        <ele>460.056</ele>
        <time>2020-05-21T15:25:10Z</time>
      </trkpt>
      <trkpt lat="43.167540" lon="-6.274450">
        <ele>463.459</ele>
        <time>2020-05-21T15:25:30Z</time>
      </trkpt>
      <trkpt lat="43.167490" lon="-6.274410">
        <ele>465.214</ele>
        <time>2020-05-21T15:25:50Z</time>
      </trkpt>
      <trkpt lat="43.167440" lon="-6.274360">
        <ele>468.208</ele>
        <time>2020-05-21T15:26:10Z</time>
      </trkpt>
      <trkpt lat="43.167410" lon="-6.274300">
        <ele>469.229</ele>
        <time>2020-05-21T15:26:30Z</time>
      </trkpt>
      <trkpt lat="43.167380" lon="-6.274240">
        <ele>470.084</ele>
        <time>2020-05-21T15:26:50Z</time>
      </trkpt>
      <trkpt lat="43.167380" lon="-6.274230">
        <ele>469.721</ele>
        <time>2020-05-21T15:27:10Z</time>
      </trkpt>
      <trkpt lat="43.167360" lon="-6.274140">
        <ele>469.077</ele>
        <time>2020-05-21T15:27:30Z</time>
      </trkpt>
      <trkpt lat="43.167340" lon="-6.274060">
        <ele>468.686</ele>
        <time>2020-05-21T15:27:50Z</time>
      </trkpt>
      <trkpt lat="43.167340" lon="-6.273990">
        <ele>467.067</ele>
        <time>2020-05-21T15:28:10Z</time>
      </trkpt>
      <trkpt lat="43.167330" lon="-6.273890">
        <ele>465.436</ele>
        <time>2020-05-21T15:28:30Z</time>
      </trkpt>
      <trkpt lat="43.167330" lon="-6.273750">
        <ele>463.439</ele>
        <time>2020-05-21T15:28:50Z</time>
      </trkpt>
      <trkpt lat="43.167330" lon="-6.273740">
        <ele>463.221</ele>
        <time>2020-05-21T15:29:10Z</time>
      </trkpt>
      <trkpt lat="43.167360" lon="-6.273310">
        <ele>457.741</ele>
        <time>2020-05-21T15:29:30Z</time>
      </trkpt>
      <trkpt lat="43.167410" lon="-6.273060">
        <ele>457.905</ele>
        <time>2020-05-21T15:29:50Z</time>
      </trkpt>
      <trkpt lat="43.167410" lon="-6.273010">
        <ele>457.708</ele>
        <time>2020-05-21T15:30:10Z</time>
      </trkpt>
      <trkpt lat="43.167430" lon="-6.272770">
        <ele>456.086</ele>
        <time>2020-05-21T15:30:30Z</time>
      </trkpt>
      <trkpt lat="43.167430" lon="-6.272730">
        <ele>455.721</ele>
        <time>2020-05-21T15:30:50Z</time>
      </trkpt>
      <trkpt lat="43.167410" lon="-6.272570">
        <ele>454.978</ele>
        <time>2020-05-21T15:31:10Z</time>
      </trkpt>
      <trkpt lat="43.167400" lon="-6.272520">
        <ele>454.654</ele>
        <time>2020-05-21T15:31:30Z</time>
      </trkpt>
      <trkpt lat="43.167380" lon="-6.272450">
        <ele>454.563</ele>
        <time>2020-05-21T15:31:50Z</time>
      </trkpt>
      <trkpt lat="43.167340" lon="-6.272350">
        <ele>454.544</ele>
        <time>2020-05-21T15:32:10Z</time>
      </trkpt>
      <trkpt lat="43.167320" lon="-6.272310">
        <ele>454.593</ele>
        <time>2020-05-21T15:32:30Z</time>
      </trkpt>
      <trkpt lat="43.167290" lon="-6.272270">
        <ele>454.696</ele>
        <time>2020-05-21T15:32:50Z</time>
      </trkpt>
      <trkpt lat="43.167220" lon="-6.272210">
        <ele>455.058</ele>
        <time>2020-05-21T15:33:10Z</time>
      </trkpt>
      <trkpt lat="43.167170" lon="-6.272180">
        <ele>456.752</ele>
        <time>2020-05-21T15:33:30Z</time>
      </trkpt>
      <trkpt lat="43.167060" lon="-6.272140">
        <ele>459.917</ele>
        <time>2020-05-21T15:33:50Z</time>
      </trkpt>
      <trkpt lat="43.166960" lon="-6.272080">
        <ele>461.508</ele>
        <time>2020-05-21T15:34:10Z</time>
      </trkpt>
      <trkpt lat="43.166840" lon="-6.272010">
        <ele>465.219</ele>
        <time>2020-05-21T15:34:30Z</time>
      </trkpt>
      <trkpt lat="43.166830" lon="-6.272000">
        <ele>465.444</ele>
        <time>2020-05-21T15:34:50Z</time>
      </trkpt>
      <trkpt lat="43.166720" lon="-6.271930">
        <ele>468.911</ele>
        <time>2020-05-21T15:35:10Z</time>
      </trkpt>
      <trkpt lat="43.166670" lon="-6.271890">
        <ele>470.187</ele>
        <time>2020-05-21T15:35:30Z</time>
      </trkpt>
      <trkpt lat="43.166620" lon="-6.271840">
        <ele>470.676</ele>
        <time>2020-05-21T15:35:50Z</time>
      </trkpt>
      <trkpt lat="43.166530" lon="-6.271750">
        <ele>471.167</ele>
        <time>2020-05-21T15:36:10Z</time>
      </trkpt>
      <trkpt lat="43.166510" lon="-6.271740">
        <ele>471.556</ele>
        <time>2020-05-21T15:36:30Z</time>
      </trkpt>
      <trkpt lat="43.166380" lon="-6.271600">
        <ele>471.559</ele>
        <time>2020-05-21T15:36:50Z</time>
      </trkpt>
      <trkpt lat="43.166330" lon="-6.271540">
        <ele>472.045</ele>
        <time>2020-05-21T15:37:10Z</time>
      </trkpt>
      <trkpt lat="43.166250" lon="-6.271440">
        <ele>471.247</ele>
        <time>2020-05-21T15:37:30Z</time>
      </trkpt>
      <trkpt lat="43.166190" lon="-6.271380">
        <ele>470.511</ele>
        <time>2020-05-21T15:37:50Z</time>
      </trkpt>
      <trkpt lat="43.166120" lon="-6.271270">
        <ele>469.808</ele>
        <time>2020-05-21T15:38:10Z</time>
      </trkpt>
      <trkpt lat="43.166070" lon="-6.271210">
        <ele>471.548</ele>
        <time>2020-05-21T15:38:30Z</time>
      </trkpt>
      <trkpt lat="43.165990" lon="-6.271040">
        <ele>471.493</ele>
        <time>2020-05-21T15:38:50Z</time>
      </trkpt>
      <trkpt lat="43.165920" lon="-6.270860">
        <ele>469.860</ele>
        <time>2020-05-21T15:39:10Z</time>
      </trkpt>
      <trkpt lat="43.165910" lon="-6.270830">
        <ele>469.436</ele>
        <time>2020-05-21T15:39:30Z</time>
      </trkpt>
      <trkpt lat="43.165840" lon="-6.270640">
        <ele>469.345</ele>
        <time>2020-05-21T15:39:50Z</time>
      </trkpt>
      <trkpt lat="43.165840" lon="-6.270630">
        <ele>469.136</ele>
        <time>2020-05-21T15:40:10Z</time>
      </trkpt>
      <trkpt lat="43.165790" lon="-6.270440">
        <ele>471.265</ele>
        <time>2020-05-21T15:40:30Z</time>
      </trkpt>
      <trkpt lat="43.165780" lon="-6.270400">
        <ele>471.828</ele>
        <time>2020-05-21T15:40:50Z</time>
      </trkpt>
      <trkpt lat="43.165760" lon="-6.270310">
        <ele>472.679</ele>
        <time>2020-05-21T15:41:10Z</time>
      </trkpt>
      <trkpt lat="43.165740" lon="-6.270160">
        <ele>473.205</ele>
        <time>2020-05-21T15:41:30Z</time>
      </trkpt>
      <trkpt lat="43.165720" lon="-6.270020">
        <ele>473.525</ele>
        <time>2020-05-21T15:41:50Z</time>
      </trkpt>
      <trkpt lat="43.165710" lon="-6.269920">
        <ele>473.608</ele>
        <time>2020-05-21T15:42:10Z</time>
      </trkpt>
      <trkpt lat="43.165690" lon="-6.269770">
        <ele>474.021</ele>
        <time>2020-05-21T15:42:30Z</time>
      </trkpt>
      <trkpt lat="43.165680" lon="-6.269680">
        <ele>474.196</ele>
        <time>2020-05-21T15:42:50Z</time>
      </trkpt>
      <trkpt lat="43.165670" lon="-6.269440">
        <ele>473.833</ele>
        <time>2020-05-21T15:43:10Z</time>
      </trkpt>
      <trkpt lat="43.165680" lon="-6.269110">
        <ele>476.359</ele>
        <time>2020-05-21T15:43:30Z</time>
      </trkpt>
      <trkpt lat="43.165690" lon="-6.268940">
        <ele>477.228</ele>
        <time>2020-05-21T15:43:50Z</time>
      </trkpt>
      <trkpt lat="43.165690" lon="-6.268920">
        <ele>477.329</ele>
        <time>2020-05-21T15:44:10Z</time>
      </trkpt>
      <trkpt lat="43.165670" lon="-6.268840">
        <ele>477.258</ele>
        <time>2020-05-21T15:44:30Z</time>
      </trkpt>
      <trkpt lat="43.165660" lon="-6.268780">
        <ele>476.841</ele>
        <time>2020-05-21T15:44:50Z</time>
      </trkpt>
      <trkpt lat="43.165640" lon="-6.268740">
        <ele>476.684</ele>
        <time>2020-05-21T15:45:10Z</time>
      </trkpt>
      <trkpt lat="43.165620" lon="-6.268710">
        <ele>476.507</ele>
        <time>2020-05-21T15:45:30Z</time>
      </trkpt>
      <trkpt lat="43.165590" lon="-6.268660">
        <ele>476.217</ele>
        <time>2020-05-21T15:45:50Z</time>
      </trkpt>
      <trkpt lat="43.165550" lon="-6.268600">
        <ele>475.908</ele>
        <time>2020-05-21T15:46:10Z</time>
      </trkpt>
      <trkpt lat="43.165500" lon="-6.268530">
        <ele>475.642</ele>
        <time>2020-05-21T15:46:30Z</time>
      </trkpt>
      <trkpt lat="43.165440" lon="-6.268450">
        <ele>475.167</ele>
        <time>2020-05-21T15:46:50Z</time>
      </trkpt>
      <trkpt lat="43.165330" lon="-6.268270">
        <ele>472.854</ele>
        <time>2020-05-21T15:47:10Z</time>
      </trkpt>
      <trkpt lat="43.165280" lon="-6.268170">
        <ele>470.990</ele>
        <time>2020-05-21T15:47:30Z</time>
      </trkpt>
      <trkpt lat="43.165270" lon="-6.268150">
        <ele>470.859</ele>
        <time>2020-05-21T15:47:50Z</time>
      </trkpt>
      <trkpt lat="43.165250" lon="-6.268080">
        <ele>470.380</ele>
        <time>2020-05-21T15:48:10Z</time>
      </trkpt>
      <trkpt lat="43.165230" lon="-6.268040">
        <ele>470.649</ele>
        <time>2020-05-21T15:48:30Z</time>
      </trkpt>
      <trkpt lat="43.165210" lon="-6.267920">
        <ele>469.282</ele>
        <time>2020-05-21T15:48:50Z</time>
      </trkpt>
      <trkpt lat="43.165190" lon="-6.267850">
        <ele>468.948</ele>
        <time>2020-05-21T15:49:10Z</time>
      </trkpt>
      <trkpt lat="43.165160" lon="-6.267740">
        <ele>469.061</ele>
        <time>2020-05-21T15:49:30Z</time>
      </trkpt>
      <trkpt lat="43.165140" lon="-6.267700">
        <ele>469.917</ele>
        <time>2020-05-21T15:49:50Z</time>
      </trkpt>
      <trkpt lat="43.165060" lon="-6.267500">
        <ele>472.208</ele>
        <time>2020-05-21T15:50:10Z</time>
      </trkpt>
      <trkpt lat="43.165060" lon="-6.267480">
        <ele>472.328</ele>
        <time>2020-05-21T15:50:30Z</time>
      </trkpt>
      <trkpt lat="43.165000" lon="-6.267320">
        <ele>476.383</ele>
        <time>2020-05-21T15:50:50Z</time>
      </trkpt>
      <trkpt lat="43.164990" lon="-6.267250">
        <ele>477.380</ele>
        <time>2020-05-21T15:51:10Z</time>
      </trkpt>
      <trkpt lat="43.164990" lon="-6.267150">
        <ele>477.796</ele>
        <time>2020-05-21T15:51:30Z</time>
      </trkpt>
      <trkpt lat="43.165000" lon="-6.267000">
        <ele>477.885</ele>
        <time>2020-05-21T15:51:50Z</time>
      </trkpt>
      <trkpt lat="43.165020" lon="-6.266890">
        <ele>476.256</ele>
        <time>2020-05-21T15:52:10Z</time>
      </trkpt>
      <trkpt lat="43.165020" lon="-6.266800">
        <ele>474.835</ele>
        <time>2020-05-21T15:52:30Z</time>
      </trkpt>
      <trkpt lat="43.165040" lon="-6.266690">
        <ele>472.558</ele>
        <time>2020-05-21T15:52:50Z</time>
      </trkpt>
      <trkpt lat="43.165030" lon="-6.266610">
        <ele>471.531</ele>
        <time>2020-05-21T15:53:10Z</time>
      </trkpt>
      <trkpt lat="43.165020" lon="-6.266560">
        <ele>471.061</ele>
        <time>2020-05-21T15:53:30Z</time>
      </trkpt>
      <trkpt lat="43.165010" lon="-6.266520">
        <ele>470.707</ele>
        <time>2020-05-21T15:53:50Z</time>
      </trkpt>
      <trkpt lat="43.165000" lon="-6.266500">
        <ele>470.608</ele>
        <time>2020-05-21T15:54:10Z</time>
      </trkpt>
      <trkpt lat="43.164980" lon="-6.266450">
        <ele>470.347</ele>
        <time>2020-05-21T15:54:30Z</time>
      </trkpt>
      <trkpt lat="43.164960" lon="-6.266420">
        <ele>470.262</ele>
        <time>2020-05-21T15:54:50Z</time>
      </trkpt>
      <trkpt lat="43.164930" lon="-6.266390">
        <ele>470.359</ele>
        <time>2020-05-21T15:55:10Z</time>
      </trkpt>
      <trkpt lat="43.164880" lon="-6.266350">
        <ele>471.075</ele>
        <time>2020-05-21T15:55:30Z</time>
      </trkpt>
      <trkpt lat="43.164820" lon="-6.266330">
        <ele>471.964</ele>
        <time>2020-05-21T15:55:50Z</time>
      </trkpt>
      <trkpt lat="43.164760" lon="-6.266300">
        <ele>472.735</ele>
        <time>2020-05-21T15:56:10Z</time>
      </trkpt>
      <trkpt lat="43.164710" lon="-6.266310">
        <ele>473.514</ele>
        <time>2020-05-21T15:56:30Z</time>
      </trkpt>
      <trkpt lat="43.164670" lon="-6.266310">
        <ele>473.867</ele>
        <time>2020-05-21T15:56:50Z</time>
      </trkpt>
      <trkpt lat="43.164580" lon="-6.266320">
        <ele>474.762</ele>
        <time>2020-05-21T15:57:10Z</time>
      </trkpt>
      <trkpt lat="43.164530" lon="-6.266330">
        <ele>475.283</ele>
        <time>2020-05-21T15:57:30Z</time>
      </trkpt>
      <trkpt lat="43.164490" lon="-6.266350">
        <ele>475.911</ele>
        <time>2020-05-21T15:57:50Z</time>
      </trkpt>
      <trkpt lat="43.164380" lon="-6.266410">
        <ele>477.908</ele>
        <time>2020-05-21T15:58:10Z</time>
      </trkpt>
      <trkpt lat="43.164280" lon="-6.266470">
        <ele>480.840</ele>
        <time>2020-05-21T15:58:30Z</time>
      </trkpt>
      <trkpt lat="43.164240" lon="-6.266500">
        <ele>482.415</ele>
        <time>2020-05-21T15:58:50Z</time>
      </trkpt>
      <trkpt lat="43.164140" lon="-6.266540">
        <ele>485.812</ele>
        <time>2020-05-21T15:59:10Z</time>
      </trkpt>
      <trkpt lat="43.164040" lon="-6.266570">
        <ele>489.848</ele>
        <time>2020-05-21T15:59:30Z</time>
      </trkpt>
      <trkpt lat="43.164020" lon="-6.266570">
        <ele>490.317</ele>
        <time>2020-05-21T15:59:50Z</time>
      </trkpt>
      <trkpt lat="43.163940" lon="-6.266570">
        <ele>492.488</ele>
        <time>2020-05-21T16:00:10Z</time>
      </trkpt>
      <trkpt lat="43.163850" lon="-6.266540">
        <ele>496.927</ele>
        <time>2020-05-21T16:00:30Z</time>
      </trkpt>
      <trkpt lat="43.163780" lon="-6.266500">
        <ele>503.080</ele>
        <time>2020-05-21T16:00:50Z</time>
      </trkpt>
      <trkpt lat="43.163700" lon="-6.266430">
        <ele>508.395</ele>
        <time>2020-05-21T16:01:10Z</time>
      </trkpt>
      <trkpt lat="43.163690" lon="-6.266420">
        <ele>508.849</ele>
        <time>2020-05-21T16:01:30Z</time>
      </trkpt>
      <trkpt lat="43.163650" lon="-6.266380">
        <ele>510.723</ele>
        <time>2020-05-21T16:01:50Z</time>
      </trkpt>
      <trkpt lat="43.163600" lon="-6.266310">
        <ele>507.808</ele>
        <time>2020-05-21T16:02:10Z</time>
      </trkpt>
      <trkpt lat="43.163540" lon="-6.266210">
        <ele>499.083</ele>
        <time>2020-05-21T16:02:30Z</time>
      </trkpt>
      <trkpt lat="43.163480" lon="-6.266110">
        <ele>491.118</ele>
        <time>2020-05-21T16:02:50Z</time>
      </trkpt>
      <trkpt lat="43.163380" lon="-6.265830">
        <ele>482.725</ele>
        <time>2020-05-21T16:03:10Z</time>
      </trkpt>
      <trkpt lat="43.163300" lon="-6.265600">
        <ele>478.411</ele>
        <time>2020-05-21T16:03:30Z</time>
      </trkpt>
      <trkpt lat="43.163240" lon="-6.265430">
        <ele>476.740</ele>
        <time>2020-05-21T16:03:50Z</time>
      </trkpt>
      <trkpt lat="43.163220" lon="-6.265380">
        <ele>476.381</ele>
        <time>2020-05-21T16:04:10Z</time>
      </trkpt>
      <trkpt lat="43.163190" lon="-6.265300">
        <ele>475.520</ele>
        <time>2020-05-21T16:04:30Z</time>
      </trkpt>
      <trkpt lat="43.163130" lon="-6.265160">
        <ele>474.883</ele>
        <time>2020-05-21T16:04:50Z</time>
      </trkpt>
      <trkpt lat="43.163100" lon="-6.265090">
        <ele>474.459</ele>
        <time>2020-05-21T16:05:10Z</time>
      </trkpt>
      <trkpt lat="43.163050" lon="-6.265010">
        <ele>474.303</ele>
        <time>2020-05-21T16:05:30Z</time>
      </trkpt>
      <trkpt lat="43.163010" lon="-6.264950">
        <ele>475.223</ele>
        <time>2020-05-21T16:05:50Z</time>
      </trkpt>
      <trkpt lat="43.162850" lon="-6.264770">
        <ele>477.808</ele>
        <time>2020-05-21T16:06:10Z</time>
      </trkpt>
      <trkpt lat="43.162750" lon="-6.264650">
        <ele>480.719</ele>
        <time>2020-05-21T16:06:30Z</time>
      </trkpt>
      <trkpt lat="43.162610" lon="-6.264490">
        <ele>484.694</ele>
        <time>2020-05-21T16:06:50Z</time>
      </trkpt>
      <trkpt lat="43.162610" lon="-6.264480">
        <ele>484.371</ele>
        <time>2020-05-21T16:07:10Z</time>
      </trkpt>
      <trkpt lat="43.162520" lon="-6.264370">
        <ele>485.177</ele>
        <time>2020-05-21T16:07:30Z</time>
      </trkpt>
      <trkpt lat="43.162490" lon="-6.264310">
        <ele>485.566</ele>
        <time>2020-05-21T16:07:50Z</time>
      </trkpt>
      <trkpt lat="43.162460" lon="-6.264260">
        <ele>486.257</ele>
        <time>2020-05-21T16:08:10Z</time>
      </trkpt>
      <trkpt lat="43.162400" lon="-6.264140">
        <ele>486.526</ele>
        <time>2020-05-21T16:08:30Z</time>
      </trkpt>
      <trkpt lat="43.162390" lon="-6.264110">
        <ele>486.239</ele>
        <time>2020-05-21T16:08:50Z</time>
      </trkpt>
      <trkpt lat="43.162350" lon="-6.263980">
        <ele>484.967</ele>
        <time>2020-05-21T16:09:10Z</time>
      </trkpt>
      <trkpt lat="43.162290" lon="-6.263900">
        <ele>484.381</ele>
        <time>2020-05-21T16:09:30Z</time>
      </trkpt>
      <trkpt lat="43.162260" lon="-6.263860">
        <ele>484.119</ele>
        <time>2020-05-21T16:09:50Z</time>
      </trkpt>
      <trkpt lat="43.162220" lon="-6.263850">
        <ele>484.408</ele>
        <time>2020-05-21T16:10:10Z</time>
      </trkpt>
      <trkpt lat="43.162190" lon="-6.263840">
        <ele>485.150</ele>
        <time>2020-05-21T16:10:30Z</time>
      </trkpt>
      <trkpt lat="43.162150" lon="-6.263840">
        <ele>486.315</ele>
        <time>2020-05-21T16:10:50Z</time>
      </trkpt>
      <trkpt lat="43.162130" lon="-6.263840">
        <ele>486.982</ele>
        <time>2020-05-21T16:11:10Z</time>
      </trkpt>
      <trkpt lat="43.162110" lon="-6.263850">
        <ele>487.688</ele>
        <time>2020-05-21T16:11:30Z</time>
      </trkpt>
      <trkpt lat="43.162090" lon="-6.263860">
        <ele>488.447</ele>
        <time>2020-05-21T16:11:50Z</time>
      </trkpt>
      <trkpt lat="43.161980" lon="-6.263950">
        <ele>492.998</ele>
        <time>2020-05-21T16:12:10Z</time>
      </trkpt>
      <trkpt lat="43.161970" lon="-6.263960">
        <ele>493.417</ele>
        <time>2020-05-21T16:12:30Z</time>
      </trkpt>
      <trkpt lat="43.161880" lon="-6.264040">
        <ele>495.520</ele>
        <time>2020-05-21T16:12:50Z</time>
      </trkpt>
      <trkpt lat="43.161810" lon="-6.264090">
        <ele>496.555</ele>
        <time>2020-05-21T16:13:10Z</time>
      </trkpt>
      <trkpt lat="43.161790" lon="-6.264100">
        <ele>496.707</ele>
        <time>2020-05-21T16:13:30Z</time>
      </trkpt>
      <trkpt lat="43.161610" lon="-6.264210">
        <ele>499.817</ele>
        <time>2020-05-21T16:13:50Z</time>
      </trkpt>
      <trkpt lat="43.161530" lon="-6.264250">
        <ele>501.908</ele>
        <time>2020-05-21T16:14:10Z</time>
      </trkpt>
      <trkpt lat="43.161450" lon="-6.264270">
        <ele>503.339</ele>
        <time>2020-05-21T16:14:30Z</time>
      </trkpt>
      <trkpt lat="43.161410" lon="-6.264280">
        <ele>504.144</ele>
        <time>2020-05-21T16:14:50Z</time>
      </trkpt>
      <trkpt lat="43.161370" lon="-6.264270">
        <ele>503.571</ele>
        <time>2020-05-21T16:15:10Z</time>
      </trkpt>
      <trkpt lat="43.161330" lon="-6.264260">
        <ele>502.967</ele>
        <time>2020-05-21T16:15:30Z</time>
      </trkpt>
      <trkpt lat="43.161270" lon="-6.264240">
        <ele>501.416</ele>
        <time>2020-05-21T16:15:50Z</time>
      </trkpt>
      <trkpt lat="43.161160" lon="-6.264160">
        <ele>494.877</ele>
        <time>2020-05-21T16:16:10Z</time>
      </trkpt>
      <trkpt lat="43.161140" lon="-6.264140">
        <ele>493.636</ele>
        <time>2020-05-21T16:16:30Z</time>
      </trkpt>
      <trkpt lat="43.161000" lon="-6.263980">
        <ele>487.869</ele>
        <time>2020-05-21T16:16:50Z</time>
      </trkpt>
      <trkpt lat="43.160860" lon="-6.263830">
        <ele>485.913</ele>
        <time>2020-05-21T16:17:10Z</time>
      </trkpt>
      <trkpt lat="43.160730" lon="-6.263660">
        <ele>485.243</ele>
        <time>2020-05-21T16:17:30Z</time>
      </trkpt>
      <trkpt lat="43.160640" lon="-6.263550">
        <ele>484.807</ele>
        <time>2020-05-21T16:17:50Z</time>
      </trkpt>
      <trkpt lat="43.160600" lon="-6.263530">
        <ele>485.108</ele>
        <time>2020-05-21T16:18:10Z</time>
      </trkpt>
      <trkpt lat="43.160550" lon="-6.263500">
        <ele>485.085</ele>
        <time>2020-05-21T16:18:30Z</time>
      </trkpt>
      <trkpt lat="43.160460" lon="-6.263500">
        <ele>487.920</ele>
        <time>2020-05-21T16:18:50Z</time>
      </trkpt>
      <trkpt lat="43.160410" lon="-6.263490">
        <ele>489.177</ele>
        <time>2020-05-21T16:19:10Z</time>
      </trkpt>
      <trkpt lat="43.160340" lon="-6.263480">
        <ele>490.983</ele>
        <time>2020-05-21T16:19:30Z</time>
      </trkpt>
      <trkpt lat="43.160290" lon="-6.263470">
        <ele>492.052</ele>
        <time>2020-05-21T16:19:50Z</time>
      </trkpt>
      <trkpt lat="43.160250" lon="-6.263440">
        <ele>493.043</ele>
        <time>2020-05-21T16:20:10Z</time>
      </trkpt>
      <trkpt lat="43.160240" lon="-6.263430">
        <ele>493.292</ele>
        <time>2020-05-21T16:20:30Z</time>
      </trkpt>
      <trkpt lat="43.160180" lon="-6.263380">
        <ele>495.035</ele>
        <time>2020-05-21T16:20:50Z</time>
      </trkpt>
      <trkpt lat="43.160090" lon="-6.263260">
        <ele>496.333</ele>
        <time>2020-05-21T16:21:10Z</time>
      </trkpt>
      <trkpt lat="43.159960" lon="-6.263090">
        <ele>496.123</ele>
        <time>2020-05-21T16:21:30Z</time>
      </trkpt>
      <trkpt lat="43.159870" lon="-6.262930">
        <ele>494.715</ele>
        <time>2020-05-21T16:21:50Z</time>
      </trkpt>
      <trkpt lat="43.159850" lon="-6.262860">
        <ele>493.708</ele>
        <time>2020-05-21T16:22:10Z</time>
      </trkpt>
      <trkpt lat="43.159810" lon="-6.262760">
        <ele>492.977</ele>
        <time>2020-05-21T16:22:30Z</time>
      </trkpt>
      <trkpt lat="43.159760" lon="-6.262570">
        <ele>491.132</ele>
        <time>2020-05-21T16:22:50Z</time>
      </trkpt>
      <trkpt lat="43.159680" lon="-6.262180">
        <ele>491.619</ele>
        <time>2020-05-21T16:23:10Z</time>
      </trkpt>
      <trkpt lat="43.159670" lon="-6.262160">
        <ele>491.965</ele>
        <time>2020-05-21T16:23:30Z</time>
      </trkpt>
      <trkpt lat="43.159600" lon="-6.261930">
        <ele>491.924</ele>
        <time>2020-05-21T16:23:50Z</time>
      </trkpt>
      <trkpt lat="43.159600" lon="-6.261910">
        <ele>491.625</ele>
        <time>2020-05-21T16:24:10Z</time>
      </trkpt>
      <trkpt lat="43.159540" lon="-6.261790">
        <ele>491.954</ele>
        <time>2020-05-21T16:24:30Z</time>
      </trkpt>
      <trkpt lat="43.159500" lon="-6.261730">
        <ele>491.997</ele>
        <time>2020-05-21T16:24:50Z</time>
      </trkpt>
      <trkpt lat="43.159440" lon="-6.261620">
        <ele>491.626</ele>
        <time>2020-05-21T16:25:10Z</time>
      </trkpt>
      <trkpt lat="43.159280" lon="-6.261450">
        <ele>496.047</ele>
        <time>2020-05-21T16:25:30Z</time>
      </trkpt>
      <trkpt lat="43.159170" lon="-6.261330">
        <ele>497.211</ele>
        <time>2020-05-21T16:25:50Z</time>
      </trkpt>
      <trkpt lat="43.158850" lon="-6.261060">
        <ele>497.208</ele>
        <time>2020-05-21T16:26:10Z</time>
      </trkpt>
      <trkpt lat="43.158780" lon="-6.261000">
        <ele>496.826</ele>
        <time>2020-05-21T16:26:30Z</time>
      </trkpt>
      <trkpt lat="43.158630" lon="-6.260870">
        <ele>495.741</ele>
        <time>2020-05-21T16:26:50Z</time>
      </trkpt>
      <trkpt lat="43.158570" lon="-6.260810">
        <ele>496.988</ele>
        <time>2020-05-21T16:27:10Z</time>
      </trkpt>
      <trkpt lat="43.158490" lon="-6.260750">
        <ele>499.364</ele>
        <time>2020-05-21T16:27:30Z</time>
      </trkpt>
      <trkpt lat="43.158480" lon="-6.260730">
        <ele>499.193</ele>
        <time>2020-05-21T16:27:50Z</time>
      </trkpt>
      <trkpt lat="43.158340" lon="-6.260580">
        <ele>497.224</ele>
        <time>2020-05-21T16:28:10Z</time>
      </trkpt>
      <trkpt lat="43.158180" lon="-6.260390">
        <ele>495.873</ele>
        <time>2020-05-21T16:28:30Z</time>
      </trkpt>
      <trkpt lat="43.157990" lon="-6.260160">
        <ele>495.086</ele>
        <time>2020-05-21T16:28:50Z</time>
      </trkpt>
      <trkpt lat="43.157890" lon="-6.260040">
        <ele>495.776</ele>
        <time>2020-05-21T16:29:10Z</time>
      </trkpt>
      <trkpt lat="43.157750" lon="-6.259880">
        <ele>496.090</ele>
        <time>2020-05-21T16:29:30Z</time>
      </trkpt>
      <trkpt lat="43.157720" lon="-6.259850">
        <ele>495.919</ele>
        <time>2020-05-21T16:29:50Z</time>
      </trkpt>
      <trkpt lat="43.157610" lon="-6.259730">
        <ele>494.608</ele>
        <time>2020-05-21T16:30:10Z</time>
      </trkpt>
      <trkpt lat="43.157480" lon="-6.259590">
        <ele>494.751</ele>
        <time>2020-05-21T16:30:30Z</time>
      </trkpt>
      <trkpt lat="43.157470" lon="-6.259570">
        <ele>494.616</ele>
        <time>2020-05-21T16:30:50Z</time>
      </trkpt>
      <trkpt lat="43.157360" lon="-6.259470">
        <ele>495.253</ele>
        <time>2020-05-21T16:31:10Z</time>
      </trkpt>
      <trkpt lat="43.157260" lon="-6.259390">
        <ele>495.649</ele>
        <time>2020-05-21T16:31:30Z</time>
      </trkpt>
      <trkpt lat="43.157150" lon="-6.259340">
        <ele>496.578</ele>
        <time>2020-05-21T16:31:50Z</time>
      </trkpt>
      <trkpt lat="43.157080" lon="-6.259320">
        <ele>496.959</ele>
        <time>2020-05-21T16:32:10Z</time>
      </trkpt>
      <trkpt lat="43.156860" lon="-6.259320">
        <ele>498.538</ele>
        <time>2020-05-21T16:32:30Z</time>
      </trkpt>
      <trkpt lat="43.156770" lon="-6.259370">
        <ele>499.741</ele>
        <time>2020-05-21T16:32:50Z</time>
      </trkpt>
      <trkpt lat="43.156720" lon="-6.259400">
        <ele>500.326</ele>
        <time>2020-05-21T16:33:10Z</time>
      </trkpt>
      <trkpt lat="43.156560" lon="-6.259490">
        <ele>501.747</ele>
        <time>2020-05-21T16:33:30Z</time>
      </trkpt>
      <trkpt lat="43.156390" lon="-6.259580">
        <ele>503.811</ele>
        <time>2020-05-21T16:33:50Z</time>
      </trkpt>
      <trkpt lat="43.156310" lon="-6.259620">
        <ele>503.608</ele>
        <time>2020-05-21T16:34:10Z</time>
      </trkpt>
      <trkpt lat="43.156190" lon="-6.259680">
        <ele>501.966</ele>
        <time>2020-05-21T16:34:30Z</time>
      </trkpt>
      <trkpt lat="43.156000" lon="-6.259760">
        <ele>501.721</ele>
        <time>2020-05-21T16:34:50Z</time>
      </trkpt>
      <trkpt lat="43.155840" lon="-6.259820">
        <ele>504.078</ele>
        <time>2020-05-21T16:35:10Z</time>
      </trkpt>
      <trkpt lat="43.155760" lon="-6.259840">
        <ele>505.134</ele>
        <time>2020-05-21T16:35:30Z</time>
      </trkpt>
      <trkpt lat="43.155730" lon="-6.259840">
        <ele>505.193</ele>
        <time>2020-05-21T16:35:50Z</time>
      </trkpt>
      <trkpt lat="43.155700" lon="-6.259840">
        <ele>505.294</ele>
        <time>2020-05-21T16:36:10Z</time>
      </trkpt>
      <trkpt lat="43.155580" lon="-6.259820">
        <ele>504.553</ele>
        <time>2020-05-21T16:36:30Z</time>
      </trkpt>
      <trkpt lat="43.155460" lon="-6.259760">
        <ele>501.556</ele>
        <time>2020-05-21T16:36:50Z</time>
      </trkpt>
      <trkpt lat="43.155320" lon="-6.259700">
        <ele>498.964</ele>
        <time>2020-05-21T16:37:10Z</time>
      </trkpt>
      <trkpt lat="43.155260" lon="-6.259680">
        <ele>498.406</ele>
        <time>2020-05-21T16:37:30Z</time>
      </trkpt>
      <trkpt lat="43.155160" lon="-6.259670">
        <ele>497.716</ele>
        <time>2020-05-21T16:37:50Z</time>
      </trkpt>
      <trkpt lat="43.155030" lon="-6.259680">
        <ele>496.908</ele>
        <time>2020-05-21T16:38:10Z</time>
      </trkpt>
      <trkpt lat="43.154790" lon="-6.259760">
        <ele>497.780</ele>
        <time>2020-05-21T16:38:30Z</time>
      </trkpt>
      <trkpt lat="43.154750" lon="-6.259790">
        <ele>498.815</ele>
        <time>2020-05-21T16:38:50Z</time>
      </trkpt>
      <trkpt lat="43.154710" lon="-6.259830">
        <ele>500.332</ele>
        <time>2020-05-21T16:39:10Z</time>
      </trkpt>
      <trkpt lat="43.154560" lon="-6.260000">
        <ele>506.488</ele>
        <time>2020-05-21T16:39:30Z</time>
      </trkpt>
      <trkpt lat="43.154510" lon="-6.260020">
        <ele>507.487</ele>
        <time>2020-05-21T16:39:50Z</time>
      </trkpt>
      <trkpt lat="43.154470" lon="-6.260030">
        <ele>507.868</ele>
        <time>2020-05-21T16:40:10Z</time>
      </trkpt>
      <trkpt lat="43.154460" lon="-6.260040">
        <ele>508.417</ele>
        <time>2020-05-21T16:40:30Z</time>
      </trkpt>
      <trkpt lat="43.154320" lon="-6.260070">
        <ele>509.440</ele>
        <time>2020-05-21T16:40:50Z</time>
      </trkpt>
      <trkpt lat="43.154260" lon="-6.260090">
        <ele>510.174</ele>
        <time>2020-05-21T16:41:10Z</time>
      </trkpt>
      <trkpt lat="43.154220" lon="-6.260100">
        <ele>510.456</ele>
        <time>2020-05-21T16:41:30Z</time>
      </trkpt>
      <trkpt lat="43.153930" lon="-6.260100">
        <ele>509.421</ele>
        <time>2020-05-21T16:41:50Z</time>
      </trkpt>
      <trkpt lat="43.153780" lon="-6.260110">
        <ele>507.808</ele>
        <time>2020-05-21T16:42:10Z</time>
      </trkpt>
      <trkpt lat="43.153690" lon="-6.260120">
        <ele>506.491</ele>
        <time>2020-05-21T16:42:30Z</time>
      </trkpt>
      <trkpt lat="43.153650" lon="-6.260150">
        <ele>506.076</ele>
        <time>2020-05-21T16:42:50Z</time>
      </trkpt>
      <trkpt lat="43.153620" lon="-6.260180">
        <ele>505.513</ele>
        <time>2020-05-21T16:43:10Z</time>
      </trkpt>
      <trkpt lat="43.153580" lon="-6.260220">
        <ele>505.279</ele>
        <time>2020-05-21T16:43:30Z</time>
      </trkpt>
      <trkpt lat="43.153550" lon="-6.260280">
        <ele>505.248</ele>
        <time>2020-05-21T16:43:50Z</time>
      </trkpt>
      <trkpt lat="43.153460" lon="-6.260460">
        <ele>507.389</ele>
        <time>2020-05-21T16:44:10Z</time>
      </trkpt>
      <trkpt lat="43.153340" lon="-6.260670">
        <ele>508.938</ele>
        <time>2020-05-21T16:44:30Z</time>
      </trkpt>
      <trkpt lat="43.153330" lon="-6.260700">
        <ele>509.631</ele>
        <time>2020-05-21T16:44:50Z</time>
      </trkpt>
      <trkpt lat="43.153220" lon="-6.260810">
        <ele>510.165</ele>
        <time>2020-05-21T16:45:10Z</time>
      </trkpt>
      <trkpt lat="43.153020" lon="-6.260970">
        <ele>511.368</ele>
        <time>2020-05-21T16:45:30Z</time>
      </trkpt>
      <trkpt lat="43.152950" lon="-6.261020">
        <ele>512.214</ele>
        <time>2020-05-21T16:45:50Z</time>
      </trkpt>
      <trkpt lat="43.152880" lon="-6.261050">
        <ele>512.208</ele>
        <time>2020-05-21T16:46:10Z</time>
      </trkpt>
      <trkpt lat="43.152820" lon="-6.261070">
        <ele>512.050</ele>
        <time>2020-05-21T16:46:30Z</time>
      </trkpt>
      <trkpt lat="43.152750" lon="-6.261060">
        <ele>510.795</ele>
        <time>2020-05-21T16:46:50Z</time>
      </trkpt>
      <trkpt lat="43.152500" lon="-6.260960">
        <ele>506.652</ele>
        <time>2020-05-21T16:47:10Z</time>
      </trkpt>
      <trkpt lat="43.152380" lon="-6.260900">
        <ele>505.718</ele>
        <time>2020-05-21T16:47:30Z</time>
      </trkpt>
      <trkpt lat="43.152340" lon="-6.260880">
        <ele>505.437</ele>
        <time>2020-05-21T16:47:50Z</time>
      </trkpt>
      <trkpt lat="43.152310" lon="-6.260880">
        <ele>505.698</ele>
        <time>2020-05-21T16:48:10Z</time>
      </trkpt>
      <trkpt lat="43.152280" lon="-6.260890">
        <ele>506.197</ele>
        <time>2020-05-21T16:48:30Z</time>
      </trkpt>
      <trkpt lat="43.152250" lon="-6.260900">
        <ele>506.570</ele>
        <time>2020-05-21T16:48:50Z</time>
      </trkpt>
      <trkpt lat="43.152220" lon="-6.260930">
        <ele>507.415</ele>
        <time>2020-05-21T16:49:10Z</time>
      </trkpt>
      <trkpt lat="43.152160" lon="-6.260990">
        <ele>508.765</ele>
        <time>2020-05-21T16:49:30Z</time>
      </trkpt>
      <trkpt lat="43.152100" lon="-6.261080">
        <ele>509.811</ele>
        <time>2020-05-21T16:49:50Z</time>
      </trkpt>
      <trkpt lat="43.151970" lon="-6.261300">
        <ele>512.608</ele>
        <time>2020-05-21T16:50:10Z</time>
      </trkpt>
      <trkpt lat="43.151880" lon="-6.261460">
        <ele>513.945</ele>
        <time>2020-05-21T16:50:30Z</time>
      </trkpt>
      <trkpt lat="43.151810" lon="-6.261620">
        <ele>515.610</ele>
        <time>2020-05-21T16:50:50Z</time>
      </trkpt>
      <trkpt lat="43.151740" lon="-6.261710">
        <ele>517.697</ele>
        <time>2020-05-21T16:51:10Z</time>
      </trkpt>
      <trkpt lat="43.151690" lon="-6.261750">
        <ele>518.963</ele>
        <time>2020-05-21T16:51:30Z</time>
      </trkpt>
      <trkpt lat="43.151640" lon="-6.261780">
        <ele>520.362</ele>
        <time>2020-05-21T16:51:50Z</time>
      </trkpt>
      <trkpt lat="43.151600" lon="-6.261790">
        <ele>520.953</ele>
        <time>2020-05-21T16:52:10Z</time>
      </trkpt>
      <trkpt lat="43.151460" lon="-6.261800">
        <ele>521.682</ele>
        <time>2020-05-21T16:52:30Z</time>
      </trkpt>
      <trkpt lat="43.151370" lon="-6.261800">
        <ele>521.655</ele>
        <time>2020-05-21T16:52:50Z</time>
      </trkpt>
      <trkpt lat="43.151280" lon="-6.261780">
        <ele>520.711</ele>
        <time>2020-05-21T16:53:10Z</time>
      </trkpt>
      <trkpt lat="43.151070" lon="-6.261710">
        <ele>518.221</ele>
        <time>2020-05-21T16:53:30Z</time>
      </trkpt>
      <trkpt lat="43.150920" lon="-6.261670">
        <ele>516.803</ele>
        <time>2020-05-21T16:53:50Z</time>
      </trkpt>
      <trkpt lat="43.150830" lon="-6.261670">
        <ele>517.008</ele>
        <time>2020-05-21T16:54:10Z</time>
      </trkpt>
      <trkpt lat="43.150720" lon="-6.261720">
        <ele>516.385</ele>
        <time>2020-05-21T16:54:30Z</time>
      </trkpt>
      <trkpt lat="43.150570" lon="-6.261870">
        <ele>517.490</ele>
        <time>2020-05-21T16:54:50Z</time>
      </trkpt>
      <trkpt lat="43.150290" lon="-6.262180">
        <ele>522.757</ele>
        <time>2020-05-21T16:55:10Z</time>
      </trkpt>
      <trkpt lat="43.150220" lon="-6.262260">
        <ele>523.893</ele>
        <time>2020-05-21T16:55:30Z</time>
      </trkpt>
      <trkpt lat="43.150150" lon="-6.262330">
        <ele>524.462</ele>
        <time>2020-05-21T16:55:50Z</time>
      </trkpt>
      <trkpt lat="43.150000" lon="-6.262480">
        <ele>525.313</ele>
        <time>2020-05-21T16:56:10Z</time>
      </trkpt>
      <trkpt lat="43.149970" lon="-6.262510">
        <ele>526.122</ele>
        <time>2020-05-21T16:56:30Z</time>
      </trkpt>
      <trkpt lat="43.149930" lon="-6.262540">
        <ele>526.455</ele>
        <time>2020-05-21T16:56:50Z</time>
      </trkpt>
      <trkpt lat="43.149860" lon="-6.262610">
        <ele>526.969</ele>
        <time>2020-05-21T16:57:10Z</time>
      </trkpt>
      <trkpt lat="43.149760" lon="-6.262700">
        <ele>526.904</ele>
        <time>2020-05-21T16:57:30Z</time>
      </trkpt>
      <trkpt lat="43.149700" lon="-6.262740">
        <ele>526.924</ele>
        <time>2020-05-21T16:57:50Z</time>
      </trkpt>
      <trkpt lat="43.149610" lon="-6.262810">
        <ele>531.208</ele>
        <time>2020-05-21T16:58:10Z</time>
      </trkpt>
      <trkpt lat="43.149540" lon="-6.262860">
        <ele>535.140</ele>
        <time>2020-05-21T16:58:30Z</time>
      </trkpt>
      <trkpt lat="43.149490" lon="-6.262890">
        <ele>536.165</ele>
        <time>2020-05-21T16:58:50Z</time>
      </trkpt>
      <trkpt lat="43.149410" lon="-6.262910">
        <ele>536.122</ele>
        <time>2020-05-21T16:59:10Z</time>
      </trkpt>
      <trkpt lat="43.149370" lon="-6.262910">
        <ele>536.658</ele>
        <time>2020-05-21T16:59:30Z</time>
      </trkpt>
      <trkpt lat="43.149300" lon="-6.262910">
        <ele>537.567</ele>
        <time>2020-05-21T16:59:50Z</time>
      </trkpt>
      <trkpt lat="43.149190" lon="-6.262900">
        <ele>538.588</ele>
        <time>2020-05-21T17:00:10Z</time>
      </trkpt>
      <trkpt lat="43.149070" lon="-6.262890">
        <ele>538.717</ele>
        <time>2020-05-21T17:00:30Z</time>
      </trkpt>
      <trkpt lat="43.149010" lon="-6.262880">
        <ele>538.620</ele>
        <time>2020-05-21T17:00:50Z</time>
      </trkpt>
      <trkpt lat="43.148950" lon="-6.262870">
        <ele>538.498</ele>
        <time>2020-05-21T17:01:10Z</time>
      </trkpt>
      <trkpt lat="43.148840" lon="-6.262880">
        <ele>537.615</ele>
        <time>2020-05-21T17:01:30Z</time>
      </trkpt>
      <trkpt lat="43.148700" lon="-6.262890">
        <ele>533.926</ele>
        <time>2020-05-21T17:01:50Z</time>
      </trkpt>
      <trkpt lat="43.148670" lon="-6.262900">
        <ele>533.208</ele>
        <time>2020-05-21T17:02:10Z</time>
      </trkpt>
      <trkpt lat="43.148650" lon="-6.262910">
        <ele>532.613</ele>
        <time>2020-05-21T17:02:30Z</time>
      </trkpt>
      <trkpt lat="43.148640" lon="-6.262920">
        <ele>532.438</ele>
        <time>2020-05-21T17:02:50Z</time>
      </trkpt>
      <trkpt lat="43.148510" lon="-6.263000">
        <ele>529.965</ele>
        <time>2020-05-21T17:03:10Z</time>
      </trkpt>
      <trkpt lat="43.148420" lon="-6.263040">
        <ele>528.051</ele>
        <time>2020-05-21T17:03:30Z</time>
      </trkpt>
      <trkpt lat="43.148340" lon="-6.263060">
        <ele>526.340</ele>
        <time>2020-05-21T17:03:50Z</time>
      </trkpt>
      <trkpt lat="43.148310" lon="-6.263060">
        <ele>526.031</ele>
        <time>2020-05-21T17:04:10Z</time>
      </trkpt>
      <trkpt lat="43.148140" lon="-6.263060">
        <ele>525.310</ele>
        <time>2020-05-21T17:04:30Z</time>
      </trkpt>
      <trkpt lat="43.148130" lon="-6.263060">
        <ele>525.363</ele>
        <time>2020-05-21T17:04:50Z</time>
      </trkpt>
      <trkpt lat="43.148010" lon="-6.263030">
        <ele>525.247</ele>
        <time>2020-05-21T17:05:10Z</time>
      </trkpt>
      <trkpt lat="43.147920" lon="-6.263000">
        <ele>525.029</ele>
        <time>2020-05-21T17:05:30Z</time>
      </trkpt>
      <trkpt lat="43.147840" lon="-6.262960">
        <ele>525.321</ele>
        <time>2020-05-21T17:05:50Z</time>
      </trkpt>
      <trkpt lat="43.147800" lon="-6.262910">
        <ele>526.408</ele>
        <time>2020-05-21T17:06:10Z</time>
      </trkpt>
      <trkpt lat="43.147690" lon="-6.262780">
        <ele>527.478</ele>
        <time>2020-05-21T17:06:30Z</time>
      </trkpt>
      <trkpt lat="43.147660" lon="-6.262750">
        <ele>527.533</ele>
        <time>2020-05-21T17:06:50Z</time>
      </trkpt>
      <trkpt lat="43.147510" lon="-6.262610">
        <ele>527.230</ele>
        <time>2020-05-21T17:07:10Z</time>
      </trkpt>
      <trkpt lat="43.147500" lon="-6.262600">
        <ele>527.146</ele>
        <time>2020-05-21T17:07:30Z</time>
      </trkpt>
      <trkpt lat="43.147350" lon="-6.262500">
        <ele>528.925</ele>
        <time>2020-05-21T17:07:50Z</time>
      </trkpt>
      <trkpt lat="43.147320" lon="-6.262480">
        <ele>529.626</ele>
        <time>2020-05-21T17:08:10Z</time>
      </trkpt>
      <trkpt lat="43.147180" lon="-6.262420">
        <ele>532.215</ele>
        <time>2020-05-21T17:08:30Z</time>
      </trkpt>
      <trkpt lat="43.147010" lon="-6.262350">
        <ele>537.428</ele>
        <time>2020-05-21T17:08:50Z</time>
      </trkpt>
      <trkpt lat="43.146830" lon="-6.262310">
        <ele>538.932</ele>
        <time>2020-05-21T17:09:10Z</time>
      </trkpt>
      <trkpt lat="43.146820" lon="-6.262310">
        <ele>538.892</ele>
        <time>2020-05-21T17:09:30Z</time>
      </trkpt>
      <trkpt lat="43.146760" lon="-6.262300">
        <ele>538.711</ele>
        <time>2020-05-21T17:09:50Z</time>
      </trkpt>
      <trkpt lat="43.146730" lon="-6.262310">
        <ele>538.408</ele>
        <time>2020-05-21T17:10:10Z</time>
      </trkpt>
      <trkpt lat="43.146700" lon="-6.262330">
        <ele>538.067</ele>
        <time>2020-05-21T17:10:30Z</time>
      </trkpt>
      <trkpt lat="43.146670" lon="-6.262380">
        <ele>537.382</ele>
        <time>2020-05-21T17:10:50Z</time>
      </trkpt>
      <trkpt lat="43.146540" lon="-6.262550">
        <ele>542.149</ele>
        <time>2020-05-21T17:11:10Z</time>
      </trkpt>
      <trkpt lat="43.146520" lon="-6.262580">
        <ele>543.275</ele>
        <time>2020-05-21T17:11:30Z</time>
      </trkpt>
      <trkpt lat="43.146420" lon="-6.262730">
        <ele>548.464</ele>
        <time>2020-05-21T17:11:50Z</time>
      </trkpt>
      <trkpt lat="43.146390" lon="-6.262800">
        <ele>550.445</ele>
        <time>2020-05-21T17:12:10Z</time>
      </trkpt>
      <trkpt lat="43.146320" lon="-6.262930">
        <ele>559.524</ele>
        <time>2020-05-21T17:12:30Z</time>
      </trkpt>
      <trkpt lat="43.146300" lon="-6.262960">
        <ele>561.787</ele>
        <time>2020-05-21T17:12:50Z</time>
      </trkpt>
      <trkpt lat="43.146240" lon="-6.263160">
        <ele>567.864</ele>
        <time>2020-05-21T17:13:10Z</time>
      </trkpt>
      <trkpt lat="43.146170" lon="-6.263380">
        <ele>570.806</ele>
        <time>2020-05-21T17:13:30Z</time>
      </trkpt>
      <trkpt lat="43.146160" lon="-6.263420">
        <ele>571.816</ele>
        <time>2020-05-21T17:13:50Z</time>
      </trkpt>
      <trkpt lat="43.146120" lon="-6.263490">
        <ele>574.008</ele>
        <time>2020-05-21T17:14:10Z</time>
      </trkpt>
      <trkpt lat="43.146100" lon="-6.263510">
        <ele>574.120</ele>
        <time>2020-05-21T17:14:30Z</time>
      </trkpt>
      <trkpt lat="43.146070" lon="-6.263520">
        <ele>572.955</ele>
        <time>2020-05-21T17:14:50Z</time>
      </trkpt>
      <trkpt lat="43.146040" lon="-6.263530">
        <ele>571.692</ele>
        <time>2020-05-21T17:15:10Z</time>
      </trkpt>
      <trkpt lat="43.146020" lon="-6.263530">
        <ele>570.668</ele>
        <time>2020-05-21T17:15:30Z</time>
      </trkpt>
      <trkpt lat="43.145950" lon="-6.263520">
        <ele>567.557</ele>
        <time>2020-05-21T17:15:50Z</time>
      </trkpt>
      <trkpt lat="43.145880" lon="-6.263480">
        <ele>565.128</ele>
        <time>2020-05-21T17:16:10Z</time>
      </trkpt>
      <trkpt lat="43.145870" lon="-6.263480">
        <ele>564.737</ele>
        <time>2020-05-21T17:16:30Z</time>
      </trkpt>
      <trkpt lat="43.145820" lon="-6.263450">
        <ele>563.240</ele>
        <time>2020-05-21T17:16:50Z</time>
      </trkpt>
      <trkpt lat="43.145780" lon="-6.263440">
        <ele>560.933</ele>
        <time>2020-05-21T17:17:10Z</time>
      </trkpt>
      <trkpt lat="43.145720" lon="-6.263440">
        <ele>557.023</ele>
        <time>2020-05-21T17:17:30Z</time>
      </trkpt>
      <trkpt lat="43.145600" lon="-6.263470">
        <ele>548.815</ele>
        <time>2020-05-21T17:17:50Z</time>
      </trkpt>
      <trkpt lat="43.145580" lon="-6.263470">
        <ele>547.608</ele>
        <time>2020-05-21T17:18:10Z</time>
      </trkpt>
      <trkpt lat="43.145440" lon="-6.263460">
        <ele>541.617</ele>
        <time>2020-05-21T17:18:30Z</time>
      </trkpt>
      <trkpt lat="43.145400" lon="-6.263440">
        <ele>540.342</ele>
        <time>2020-05-21T17:18:50Z</time>
      </trkpt>
      <trkpt lat="43.145270" lon="-6.263380">
        <ele>536.329</ele>
        <time>2020-05-21T17:19:10Z</time>
      </trkpt>
      <trkpt lat="43.145100" lon="-6.263290">
        <ele>537.335</ele>
        <time>2020-05-21T17:19:30Z</time>
      </trkpt>
      <trkpt lat="43.145070" lon="-6.263270">
        <ele>537.484</ele>
        <time>2020-05-21T17:19:50Z</time>
      </trkpt>
      <trkpt lat="43.144970" lon="-6.263200">
        <ele>537.095</ele>
        <time>2020-05-21T17:20:10Z</time>
      </trkpt>
      <trkpt lat="43.144920" lon="-6.263140">
        <ele>537.244</ele>
        <time>2020-05-21T17:20:30Z</time>
      </trkpt>
      <trkpt lat="43.144900" lon="-6.263120">
        <ele>537.187</ele>
        <time>2020-05-21T17:20:50Z</time>
      </trkpt>
      <trkpt lat="43.144770" lon="-6.262990">
        <ele>537.457</ele>
        <time>2020-05-21T17:21:10Z</time>
      </trkpt>
      <trkpt lat="43.144740" lon="-6.262950">
        <ele>537.700</ele>
        <time>2020-05-21T17:21:30Z</time>
      </trkpt>
      <trkpt lat="43.144620" lon="-6.262870">
        <ele>536.620</ele>
        <time>2020-05-21T17:21:50Z</time>
      </trkpt>
      <trkpt lat="43.144560" lon="-6.262830">
        <ele>535.308</ele>
        <time>2020-05-21T17:22:10Z</time>
      </trkpt>
      <trkpt lat="43.144450" lon="-6.262770">
        <ele>531.699</ele>
        <time>2020-05-21T17:22:30Z</time>
      </trkpt>
      <trkpt lat="43.144380" lon="-6.262720">
        <ele>534.964</ele>
        <time>2020-05-21T17:22:50Z</time>
      </trkpt>
      <trkpt lat="43.144290" lon="-6.262670">
        <ele>537.761</ele>
        <time>2020-05-21T17:23:10Z</time>
      </trkpt>
      <trkpt lat="43.144170" lon="-6.262590">
        <ele>539.027</ele>
        <time>2020-05-21T17:23:30Z</time>
      </trkpt>
      <trkpt lat="43.144140" lon="-6.262570">
        <ele>539.076</ele>
        <time>2020-05-21T17:23:50Z</time>
      </trkpt>
      <trkpt lat="43.143980" lon="-6.262430">
        <ele>539.737</ele>
        <time>2020-05-21T17:24:10Z</time>
      </trkpt>
      <trkpt lat="43.143980" lon="-6.262420">
        <ele>539.996</ele>
        <time>2020-05-21T17:24:30Z</time>
      </trkpt>
      <trkpt lat="43.143860" lon="-6.262340">
        <ele>541.029</ele>
        <time>2020-05-21T17:24:50Z</time>
      </trkpt>
      <trkpt lat="43.143720" lon="-6.262260">
        <ele>544.066</ele>
        <time>2020-05-21T17:25:10Z</time>
      </trkpt>
      <trkpt lat="43.143710" lon="-6.262250">
        <ele>544.129</ele>
        <time>2020-05-21T17:25:30Z</time>
      </trkpt>
      <trkpt lat="43.143680" lon="-6.262240">
        <ele>544.421</ele>
        <time>2020-05-21T17:25:50Z</time>
      </trkpt>
      <trkpt lat="43.143650" lon="-6.262230">
        <ele>544.708</ele>
        <time>2020-05-21T17:26:10Z</time>
      </trkpt>
      <trkpt lat="43.143640" lon="-6.262230">
        <ele>544.880</ele>
        <time>2020-05-21T17:26:30Z</time>
      </trkpt>
      <trkpt lat="43.143470" lon="-6.262250">
        <ele>544.795</ele>
        <time>2020-05-21T17:26:50Z</time>
      </trkpt>
      <trkpt lat="43.143360" lon="-6.262260">
        <ele>544.012</ele>
        <time>2020-05-21T17:27:10Z</time>
      </trkpt>
      <trkpt lat="43.143280" lon="-6.262280">
        <ele>543.988</ele>
        <time>2020-05-21T17:27:30Z</time>
      </trkpt>
      <trkpt lat="43.143270" lon="-6.262280">
        <ele>543.987</ele>
        <time>2020-05-21T17:27:50Z</time>
      </trkpt>
      <trkpt lat="43.143200" lon="-6.262300">
        <ele>543.978</ele>
        <time>2020-05-21T17:28:10Z</time>
      </trkpt>
      <trkpt lat="43.143170" lon="-6.262320">
        <ele>543.857</ele>
        <time>2020-05-21T17:28:30Z</time>
      </trkpt>
      <trkpt lat="43.143150" lon="-6.262330">
        <ele>543.860</ele>
        <time>2020-05-21T17:28:50Z</time>
      </trkpt>
      <trkpt lat="43.143110" lon="-6.262370">
        <ele>543.447</ele>
        <time>2020-05-21T17:29:10Z</time>
      </trkpt>
      <trkpt lat="43.143060" lon="-6.262420">
        <ele>542.929</ele>
        <time>2020-05-21T17:29:30Z</time>
      </trkpt>
      <trkpt lat="43.143010" lon="-6.262460">
        <ele>543.821</ele>
        <time>2020-05-21T17:29:50Z</time>
      </trkpt>
      <trkpt lat="43.142990" lon="-6.262500">
        <ele>544.108</ele>
        <time>2020-05-21T17:30:10Z</time>
      </trkpt>
      <trkpt lat="43.142960" lon="-6.262540">
        <ele>546.118</ele>
        <time>2020-05-21T17:30:30Z</time>
      </trkpt>
      <trkpt lat="43.142890" lon="-6.262700">
        <ele>553.053</ele>
        <time>2020-05-21T17:30:50Z</time>
      </trkpt>
      <trkpt lat="43.142810" lon="-6.262870">
        <ele>565.450</ele>
        <time>2020-05-21T17:31:10Z</time>
      </trkpt>
      <trkpt lat="43.142740" lon="-6.263030">
        <ele>579.896</ele>
        <time>2020-05-21T17:31:30Z</time>
      </trkpt>
      <trkpt lat="43.142720" lon="-6.263060">
        <ele>582.955</ele>
        <time>2020-05-21T17:31:50Z</time>
      </trkpt>
      <trkpt lat="43.142680" lon="-6.263100">
        <ele>587.976</ele>
        <time>2020-05-21T17:32:10Z</time>
      </trkpt>
      <trkpt lat="43.142640" lon="-6.263140">
        <ele>592.455</ele>
        <time>2020-05-21T17:32:30Z</time>
      </trkpt>
      <trkpt lat="43.142560" lon="-6.263180">
        <ele>597.098</ele>
        <time>2020-05-21T17:32:50Z</time>
      </trkpt>
      <trkpt lat="43.142530" lon="-6.263190">
        <ele>598.237</ele>
        <time>2020-05-21T17:33:10Z</time>
      </trkpt>
      <trkpt lat="43.142500" lon="-6.263200">
        <ele>599.349</ele>
        <time>2020-05-21T17:33:30Z</time>
      </trkpt>
      <trkpt lat="43.142380" lon="-6.263220">
        <ele>601.713</ele>
        <time>2020-05-21T17:33:50Z</time>
      </trkpt>
      <trkpt lat="43.142320" lon="-6.263220">
        <ele>602.508</ele>
        <time>2020-05-21T17:34:10Z</time>
      </trkpt>
      <trkpt lat="43.142250" lon="-6.263240">
        <ele>604.657</ele>
        <time>2020-05-21T17:34:30Z</time>
      </trkpt>
      <trkpt lat="43.142170" lon="-6.263270">
        <ele>604.632</ele>
        <time>2020-05-21T17:34:50Z</time>
      </trkpt>
      <trkpt lat="43.142110" lon="-6.263280">
        <ele>602.629</ele>
        <time>2020-05-21T17:35:10Z</time>
      </trkpt>
      <trkpt lat="43.142060" lon="-6.263290">
        <ele>601.075</ele>
        <time>2020-05-21T17:35:30Z</time>
      </trkpt>
      <trkpt lat="43.142020" lon="-6.263300">
        <ele>599.784</ele>
        <time>2020-05-21T17:35:50Z</time>
      </trkpt>
      <trkpt lat="43.141960" lon="-6.263300">
        <ele>597.065</ele>
        <time>2020-05-21T17:36:10Z</time>
      </trkpt>
      <trkpt lat="43.141900" lon="-6.263300">
        <ele>592.954</ele>
        <time>2020-05-21T17:36:30Z</time>
      </trkpt>
      <trkpt lat="43.141700" lon="-6.263260">
        <ele>577.317</ele>
        <time>2020-05-21T17:36:50Z</time>
      </trkpt>
      <trkpt lat="43.141580" lon="-6.263250">
        <ele>573.218</ele>
        <time>2020-05-21T17:37:10Z</time>
      </trkpt>
      <trkpt lat="43.141530" lon="-6.263250">
        <ele>572.198</ele>
        <time>2020-05-21T17:37:30Z</time>
      </trkpt>
      <trkpt lat="43.141520" lon="-6.263250">
        <ele>571.917</ele>
        <time>2020-05-21T17:37:50Z</time>
      </trkpt>
      <trkpt lat="43.141470" lon="-6.263260">
        <ele>571.008</ele>
        <time>2020-05-21T17:38:10Z</time>
      </trkpt>
      <trkpt lat="43.141420" lon="-6.263280">
        <ele>570.435</ele>
        <time>2020-05-21T17:38:30Z</time>
      </trkpt>
      <trkpt lat="43.141360" lon="-6.263280">
        <ele>570.040</ele>
        <time>2020-05-21T17:38:50Z</time>
      </trkpt>
      <trkpt lat="43.141340" lon="-6.263280">
        <ele>570.097</ele>
        <time>2020-05-21T17:39:10Z</time>
      </trkpt>
      <trkpt lat="43.141240" lon="-6.263270">
        <ele>570.283</ele>
        <time>2020-05-21T17:39:30Z</time>
      </trkpt>
      <trkpt lat="43.141160" lon="-6.263260">
        <ele>570.232</ele>
        <time>2020-05-21T17:39:50Z</time>
      </trkpt>
      <trkpt lat="43.141130" lon="-6.263260">
        <ele>570.343</ele>
        <time>2020-05-21T17:40:10Z</time>
      </trkpt>
      <trkpt lat="43.141030" lon="-6.263240">
        <ele>570.852</ele>
        <time>2020-05-21T17:40:30Z</time>
      </trkpt>
      <trkpt lat="43.140980" lon="-6.263240">
        <ele>571.285</ele>
        <time>2020-05-21T17:40:50Z</time>
      </trkpt>
      <trkpt lat="43.140960" lon="-6.263230">
        <ele>571.127</ele>
        <time>2020-05-21T17:41:10Z</time>
      </trkpt>
      <trkpt lat="43.140840" lon="-6.263200">
        <ele>571.168</ele>
        <time>2020-05-21T17:41:30Z</time>
      </trkpt>
      <trkpt lat="43.140810" lon="-6.263190">
        <ele>570.714</ele>
        <time>2020-05-21T17:41:50Z</time>
      </trkpt>
      <trkpt lat="43.140710" lon="-6.263120">
        <ele>566.508</ele>
        <time>2020-05-21T17:42:10Z</time>
      </trkpt>
      <trkpt lat="43.140530" lon="-6.263040">
        <ele>559.886</ele>
        <time>2020-05-21T17:42:30Z</time>
      </trkpt>
      <trkpt lat="43.140470" lon="-6.263030">
        <ele>560.121</ele>
        <time>2020-05-21T17:42:50Z</time>
      </trkpt>
      <trkpt lat="43.140440" lon="-6.263020">
        <ele>560.128</ele>
        <time>2020-05-21T17:43:10Z</time>
      </trkpt>
      <trkpt lat="43.140300" lon="-6.263020">
        <ele>561.614</ele>
        <time>2020-05-21T17:43:30Z</time>
      </trkpt>
      <trkpt lat="43.140290" lon="-6.263030">
        <ele>562.023</ele>
        <time>2020-05-21T17:43:50Z</time>
      </trkpt>
      <trkpt lat="43.140110" lon="-6.263040">
        <ele>560.814</ele>
        <time>2020-05-21T17:44:10Z</time>
      </trkpt>
      <trkpt lat="43.139980" lon="-6.263060">
        <ele>560.113</ele>
        <time>2020-05-21T17:44:30Z</time>
      </trkpt>
      <trkpt lat="43.139850" lon="-6.263080">
        <ele>560.586</ele>
        <time>2020-05-21T17:44:50Z</time>
      </trkpt>
      <trkpt lat="43.139750" lon="-6.263100">
        <ele>561.493</ele>
        <time>2020-05-21T17:45:10Z</time>
      </trkpt>
      <trkpt lat="43.139580" lon="-6.263170">
        <ele>565.965</ele>
        <time>2020-05-21T17:45:30Z</time>
      </trkpt>
      <trkpt lat="43.139350" lon="-6.263270">
        <ele>569.621</ele>
        <time>2020-05-21T17:45:50Z</time>
      </trkpt>
      <trkpt lat="43.139300" lon="-6.263300">
        <ele>569.608</ele>
        <time>2020-05-21T17:46:10Z</time>
      </trkpt>
      <trkpt lat="43.139270" lon="-6.263310">
        <ele>569.243</ele>
        <time>2020-05-21T17:46:30Z</time>
      </trkpt>
      <trkpt lat="43.139240" lon="-6.263320">
        <ele>568.798</ele>
        <time>2020-05-21T17:46:50Z</time>
      </trkpt>
      <trkpt lat="43.139220" lon="-6.263320">
        <ele>568.125</ele>
        <time>2020-05-21T17:47:10Z</time>
      </trkpt>
      <trkpt lat="43.139140" lon="-6.263290">
        <ele>565.261</ele>
        <time>2020-05-21T17:47:30Z</time>
      </trkpt>
      <trkpt lat="43.139090" lon="-6.263270">
        <ele>564.420</ele>
        <time>2020-05-21T17:47:50Z</time>
      </trkpt>
      <trkpt lat="43.139070" lon="-6.263260">
        <ele>564.071</ele>
        <time>2020-05-21T17:48:10Z</time>
      </trkpt>
      <trkpt lat="43.138930" lon="-6.263160">
        <ele>559.330</ele>
        <time>2020-05-21T17:48:30Z</time>
      </trkpt>
      <trkpt lat="43.138910" lon="-6.263140">
        <ele>558.393</ele>
        <time>2020-05-21T17:48:50Z</time>
      </trkpt>
      <trkpt lat="43.138810" lon="-6.263040">
        <ele>556.014</ele>
        <time>2020-05-21T17:49:10Z</time>
      </trkpt>
      <trkpt lat="43.138660" lon="-6.262840">
        <ele>554.954</ele>
        <time>2020-05-21T17:49:30Z</time>
      </trkpt>
      <trkpt lat="43.138400" lon="-6.262450">
        <ele>553.209</ele>
        <time>2020-05-21T17:49:50Z</time>
      </trkpt>
      <trkpt lat="43.138310" lon="-6.262320">
        <ele>552.508</ele>
        <time>2020-05-21T17:50:10Z</time>
      </trkpt>
      <trkpt lat="43.138280" lon="-6.262270">
        <ele>552.225</ele>
        <time>2020-05-21T17:50:30Z</time>
      </trkpt>
      <trkpt lat="43.138150" lon="-6.262090">
        <ele>550.390</ele>
        <time>2020-05-21T17:50:50Z</time>
      </trkpt>
      <trkpt lat="43.138100" lon="-6.262030">
        <ele>549.117</ele>
        <time>2020-05-21T17:51:10Z</time>
      </trkpt>
      <trkpt lat="43.138020" lon="-6.261920">
        <ele>547.063</ele>
        <time>2020-05-21T17:51:30Z</time>
      </trkpt>
      <trkpt lat="43.137900" lon="-6.261770">
        <ele>545.222</ele>
        <time>2020-05-21T17:51:50Z</time>
      </trkpt>
      <trkpt lat="43.137890" lon="-6.261760">
        <ele>544.993</ele>
        <time>2020-05-21T17:52:10Z</time>
      </trkpt>
      <trkpt lat="43.137840" lon="-6.261710">
        <ele>543.322</ele>
        <time>2020-05-21T17:52:30Z</time>
      </trkpt>
      <trkpt lat="43.137800" lon="-6.261690">
        <ele>542.015</ele>
        <time>2020-05-21T17:52:50Z</time>
      </trkpt>
      <trkpt lat="43.137730" lon="-6.261670">
        <ele>541.892</ele>
        <time>2020-05-21T17:53:10Z</time>
      </trkpt>
      <trkpt lat="43.137720" lon="-6.261670">
        <ele>541.973</ele>
        <time>2020-05-21T17:53:30Z</time>
      </trkpt>
      <trkpt lat="43.137540" lon="-6.261640">
        <ele>544.420</ele>
        <time>2020-05-21T17:53:50Z</time>
      </trkpt>
      <trkpt lat="43.137520" lon="-6.261640">
        <ele>544.708</ele>
        <time>2020-05-21T17:54:10Z</time>
      </trkpt>
      <trkpt lat="43.137390" lon="-6.261620">
        <ele>548.133</ele>
        <time>2020-05-21T17:54:30Z</time>
      </trkpt>
      <trkpt lat="43.137360" lon="-6.261620">
        <ele>549.018</ele>
        <time>2020-05-21T17:54:50Z</time>
      </trkpt>
      <trkpt lat="43.137200" lon="-6.261570">
        <ele>552.985</ele>
        <time>2020-05-21T17:55:10Z</time>
      </trkpt>
      <trkpt lat="43.137190" lon="-6.261570">
        <ele>553.221</ele>
        <time>2020-05-21T17:55:30Z</time>
      </trkpt>
      <trkpt lat="43.137030" lon="-6.261500">
        <ele>556.480</ele>
        <time>2020-05-21T17:55:50Z</time>
      </trkpt>
      <trkpt lat="43.137020" lon="-6.261500">
        <ele>556.791</ele>
        <time>2020-05-21T17:56:10Z</time>
      </trkpt>
      <trkpt lat="43.136990" lon="-6.261480">
        <ele>557.070</ele>
        <time>2020-05-21T17:56:30Z</time>
      </trkpt>
      <trkpt lat="43.136950" lon="-6.261450">
        <ele>557.473</ele>
        <time>2020-05-21T17:56:50Z</time>
      </trkpt>
      <trkpt lat="43.136910" lon="-6.261400">
        <ele>557.351</ele>
        <time>2020-05-21T17:57:10Z</time>
      </trkpt>
      <trkpt lat="43.136880" lon="-6.261340">
        <ele>556.901</ele>
        <time>2020-05-21T17:57:30Z</time>
      </trkpt>
      <trkpt lat="43.136820" lon="-6.261240">
        <ele>557.111</ele>
        <time>2020-05-21T17:57:50Z</time>
      </trkpt>
      <trkpt lat="43.136780" lon="-6.261140">
        <ele>557.008</ele>
        <time>2020-05-21T17:58:10Z</time>
      </trkpt>
      <trkpt lat="43.136740" lon="-6.261060">
        <ele>557.449</ele>
        <time>2020-05-21T17:58:30Z</time>
      </trkpt>
      <trkpt lat="43.136730" lon="-6.261030">
        <ele>557.454</ele>
        <time>2020-05-21T17:58:50Z</time>
      </trkpt>
      <trkpt lat="43.136710" lon="-6.260960">
        <ele>557.011</ele>
        <time>2020-05-21T17:59:10Z</time>
      </trkpt>
      <trkpt lat="43.136690" lon="-6.260680">
        <ele>554.567</ele>
        <time>2020-05-21T17:59:30Z</time>
      </trkpt>
      <trkpt lat="43.136660" lon="-6.260260">
        <ele>552.716</ele>
        <time>2020-05-21T17:59:50Z</time>
      </trkpt>
      <trkpt lat="43.136660" lon="-6.260180">
        <ele>553.877</ele>
        <time>2020-05-21T18:00:10Z</time>
      </trkpt>
      <trkpt lat="43.136660" lon="-6.259720">
        <ele>560.466</ele>
        <time>2020-05-21T18:00:30Z</time>
      </trkpt>
      <trkpt lat="43.136660" lon="-6.259610">
        <ele>560.399</ele>
        <time>2020-05-21T18:00:50Z</time>
      </trkpt>
      <trkpt lat="43.136600" lon="-6.259260">
        <ele>560.376</ele>
        <time>2020-05-21T18:01:10Z</time>
      </trkpt>
      <trkpt lat="43.136560" lon="-6.259060">
        <ele>558.990</ele>
        <time>2020-05-21T18:01:30Z</time>
      </trkpt>
      <trkpt lat="43.136510" lon="-6.258870">
        <ele>557.619</ele>
        <time>2020-05-21T18:01:50Z</time>
      </trkpt>
      <trkpt lat="43.136450" lon="-6.258600">
        <ele>555.008</ele>
        <time>2020-05-21T18:02:10Z</time>
      </trkpt>
      <trkpt lat="43.136420" lon="-6.258480">
        <ele>555.151</ele>
        <time>2020-05-21T18:02:30Z</time>
      </trkpt>
      <trkpt lat="43.136360" lon="-6.258380">
        <ele>556.186</ele>
        <time>2020-05-21T18:02:50Z</time>
      </trkpt>
      <trkpt lat="43.136330" lon="-6.258320">
        <ele>556.873</ele>
        <time>2020-05-21T18:03:10Z</time>
      </trkpt>
      <trkpt lat="43.136240" lon="-6.258200">
        <ele>557.339</ele>
        <time>2020-05-21T18:03:30Z</time>
      </trkpt>
      <trkpt lat="43.136120" lon="-6.258090">
        <ele>555.258</ele>
        <time>2020-05-21T18:03:50Z</time>
      </trkpt>
      <trkpt lat="43.136090" lon="-6.258070">
        <ele>555.489</ele>
        <time>2020-05-21T18:04:10Z</time>
      </trkpt>
      <trkpt lat="43.135920" lon="-6.257920">
        <ele>558.478</ele>
        <time>2020-05-21T18:04:30Z</time>
      </trkpt>
      <trkpt lat="43.135780" lon="-6.257830">
        <ele>560.561</ele>
        <time>2020-05-21T18:04:50Z</time>
      </trkpt>
      <trkpt lat="43.135580" lon="-6.257720">
        <ele>565.217</ele>
        <time>2020-05-21T18:05:10Z</time>
      </trkpt>
      <trkpt lat="43.135460" lon="-6.257600">
        <ele>567.087</ele>
        <time>2020-05-21T18:05:30Z</time>
      </trkpt>
      <trkpt lat="43.135380" lon="-6.257530">
        <ele>566.915</ele>
        <time>2020-05-21T18:05:50Z</time>
      </trkpt>
      <trkpt lat="43.135310" lon="-6.257460">
        <ele>566.508</ele>
        <time>2020-05-21T18:06:10Z</time>
      </trkpt>
      <trkpt lat="43.135190" lon="-6.257320">
        <ele>568.395</ele>
        <time>2020-05-21T18:06:30Z</time>
      </trkpt>
      <trkpt lat="43.135120" lon="-6.257200">
        <ele>567.790</ele>
        <time>2020-05-21T18:06:50Z</time>
      </trkpt>
      <trkpt lat="43.135070" lon="-6.257130">
        <ele>567.777</ele>
        <time>2020-05-21T18:07:10Z</time>
      </trkpt>
      <trkpt lat="43.135060" lon="-6.257110">
        <ele>567.623</ele>
        <time>2020-05-21T18:07:30Z</time>
      </trkpt>
      <trkpt lat="43.134960" lon="-6.256900">
        <ele>566.352</ele>
        <time>2020-05-21T18:07:50Z</time>
      </trkpt>
      <trkpt lat="43.134870" lon="-6.256690">
        <ele>566.113</ele>
        <time>2020-05-21T18:08:10Z</time>
      </trkpt>
      <trkpt lat="43.134810" lon="-6.256560">
        <ele>566.182</ele>
        <time>2020-05-21T18:08:30Z</time>
      </trkpt>
      <trkpt lat="43.134790" lon="-6.256480">
        <ele>565.045</ele>
        <time>2020-05-21T18:08:50Z</time>
      </trkpt>
      <trkpt lat="43.134720" lon="-6.256250">
        <ele>562.176</ele>
        <time>2020-05-21T18:09:10Z</time>
      </trkpt>
      <trkpt lat="43.134660" lon="-6.256020">
        <ele>563.190</ele>
        <time>2020-05-21T18:09:30Z</time>
      </trkpt>
      <trkpt lat="43.134590" lon="-6.255790">
        <ele>567.119</ele>
        <time>2020-05-21T18:09:50Z</time>
      </trkpt>
      <trkpt lat="43.134550" lon="-6.255630">
        <ele>569.108</ele>
        <time>2020-05-21T18:10:10Z</time>
      </trkpt>
      <trkpt lat="43.134530" lon="-6.255550">
        <ele>569.931</ele>
        <time>2020-05-21T18:10:30Z</time>
      </trkpt>
      <trkpt lat="43.134500" lon="-6.255440">
        <ele>569.426</ele>
        <time>2020-05-21T18:10:50Z</time>
      </trkpt>
      <trkpt lat="43.134470" lon="-6.255320">
        <ele>567.723</ele>
        <time>2020-05-21T18:11:10Z</time>
      </trkpt>
      <trkpt lat="43.134460" lon="-6.255290">
        <ele>567.279</ele>
        <time>2020-05-21T18:11:30Z</time>
      </trkpt>
      <trkpt lat="43.134410" lon="-6.255200">
        <ele>566.548</ele>
        <time>2020-05-21T18:11:50Z</time>
      </trkpt>
      <trkpt lat="43.134390" lon="-6.255170">
        <ele>566.429</ele>
        <time>2020-05-21T18:12:10Z</time>
      </trkpt>
      <trkpt lat="43.134350" lon="-6.255140">
        <ele>566.728</ele>
        <time>2020-05-21T18:12:30Z</time>
      </trkpt>
      <trkpt lat="43.134290" lon="-6.255080">
        <ele>566.781</ele>
        <time>2020-05-21T18:12:50Z</time>
      </trkpt>
      <trkpt lat="43.134220" lon="-6.254990">
        <ele>565.914</ele>
        <time>2020-05-21T18:13:10Z</time>
      </trkpt>
      <trkpt lat="43.134160" lon="-6.254910">
        <ele>565.554</ele>
        <time>2020-05-21T18:13:30Z</time>
      </trkpt>
      <trkpt lat="43.134080" lon="-6.254810">
        <ele>565.009</ele>
        <time>2020-05-21T18:13:50Z</time>
      </trkpt>
      <trkpt lat="43.134050" lon="-6.254770">
        <ele>564.708</ele>
        <time>2020-05-21T18:14:10Z</time>
      </trkpt>
      <trkpt lat="43.133970" lon="-6.254700">
        <ele>564.585</ele>
        <time>2020-05-21T18:14:30Z</time>
      </trkpt>
      <trkpt lat="43.133940" lon="-6.254680">
        <ele>564.550</ele>
        <time>2020-05-21T18:14:50Z</time>
      </trkpt>
      <trkpt lat="43.133880" lon="-6.254640">
        <ele>564.377</ele>
        <time>2020-05-21T18:15:10Z</time>
      </trkpt>
      <trkpt lat="43.133760" lon="-6.254630">
        <ele>565.483</ele>
        <time>2020-05-21T18:15:30Z</time>
      </trkpt>
      <trkpt lat="43.133750" lon="-6.254620">
        <ele>565.312</ele>
        <time>2020-05-21T18:15:50Z</time>
      </trkpt>
      <trkpt lat="43.133610" lon="-6.254640">
        <ele>567.123</ele>
        <time>2020-05-21T18:16:10Z</time>
      </trkpt>
      <trkpt lat="43.133580" lon="-6.254650">
        <ele>567.432</ele>
        <time>2020-05-21T18:16:30Z</time>
      </trkpt>
      <trkpt lat="43.133480" lon="-6.254680">
        <ele>568.325</ele>
        <time>2020-05-21T18:16:50Z</time>
      </trkpt>
      <trkpt lat="43.133410" lon="-6.254690">
        <ele>568.961</ele>
        <time>2020-05-21T18:17:10Z</time>
      </trkpt>
      <trkpt lat="43.133360" lon="-6.254690">
        <ele>569.221</ele>
        <time>2020-05-21T18:17:30Z</time>
      </trkpt>
      <trkpt lat="43.133260" lon="-6.254670">
        <ele>569.913</ele>
        <time>2020-05-21T18:17:50Z</time>
      </trkpt>
      <trkpt lat="43.133060" lon="-6.254590">
        <ele>570.608</ele>
        <time>2020-05-21T18:18:10Z</time>
      </trkpt>
      <trkpt lat="43.132690" lon="-6.254490">
        <ele>568.050</ele>
        <time>2020-05-21T18:18:30Z</time>
      </trkpt>
      <trkpt lat="43.132650" lon="-6.254480">
        <ele>567.645</ele>
        <time>2020-05-21T18:18:50Z</time>
      </trkpt>
      <trkpt lat="43.132510" lon="-6.254460">
        <ele>566.562</ele>
        <time>2020-05-21T18:19:10Z</time>
      </trkpt>
      <trkpt lat="43.132380" lon="-6.254440">
        <ele>567.288</ele>
        <time>2020-05-21T18:19:30Z</time>
      </trkpt>
      <trkpt lat="43.132020" lon="-6.254380">
        <ele>572.897</ele>
        <time>2020-05-21T18:19:50Z</time>
      </trkpt>
      <trkpt lat="43.131980" lon="-6.254360">
        <ele>573.448</ele>
        <time>2020-05-21T18:20:10Z</time>
      </trkpt>
      <trkpt lat="43.131800" lon="-6.254300">
        <ele>576.017</ele>
        <time>2020-05-21T18:20:30Z</time>
      </trkpt>
      <trkpt lat="43.131780" lon="-6.254300">
        <ele>576.490</ele>
        <time>2020-05-21T18:20:50Z</time>
      </trkpt>
      <trkpt lat="43.131630" lon="-6.254220">
        <ele>577.681</ele>
        <time>2020-05-21T18:21:10Z</time>
      </trkpt>
      <trkpt lat="43.131540" lon="-6.254180">
        <ele>578.761</ele>
        <time>2020-05-21T18:21:30Z</time>
      </trkpt>
      <trkpt lat="43.131470" lon="-6.254120">
        <ele>578.517</ele>
        <time>2020-05-21T18:21:50Z</time>
      </trkpt>
      <trkpt lat="43.131310" lon="-6.254010">
        <ele>578.408</ele>
        <time>2020-05-21T18:22:10Z</time>
      </trkpt>
      <trkpt lat="43.131270" lon="-6.253980">
        <ele>578.482</ele>
        <time>2020-05-21T18:22:30Z</time>
      </trkpt>
      <trkpt lat="43.131170" lon="-6.253850">
        <ele>577.447</ele>
        <time>2020-05-21T18:22:50Z</time>
      </trkpt>
      <trkpt lat="43.131160" lon="-6.253840">
        <ele>577.534</ele>
        <time>2020-05-21T18:23:10Z</time>
      </trkpt>
      <trkpt lat="43.130960" lon="-6.253550">
        <ele>575.080</ele>
        <time>2020-05-21T18:23:30Z</time>
      </trkpt>
      <trkpt lat="43.130840" lon="-6.253370">
        <ele>572.819</ele>
        <time>2020-05-21T18:23:50Z</time>
      </trkpt>
      <trkpt lat="43.130800" lon="-6.253320">
        <ele>572.540</ele>
        <time>2020-05-21T18:24:10Z</time>
      </trkpt>
      <trkpt lat="43.130710" lon="-6.253190">
        <ele>572.429</ele>
        <time>2020-05-21T18:24:30Z</time>
      </trkpt>
      <trkpt lat="43.130670" lon="-6.253150">
        <ele>572.562</ele>
        <time>2020-05-21T18:24:50Z</time>
      </trkpt>
      <trkpt lat="43.130520" lon="-6.253000">
        <ele>572.991</ele>
        <time>2020-05-21T18:25:10Z</time>
      </trkpt>
      <trkpt lat="43.130520" lon="-6.252990">
        <ele>572.781</ele>
        <time>2020-05-21T18:25:30Z</time>
      </trkpt>
      <trkpt lat="43.130370" lon="-6.252860">
        <ele>574.219</ele>
        <time>2020-05-21T18:25:50Z</time>
      </trkpt>
      <trkpt lat="43.130260" lon="-6.252760">
        <ele>574.708</ele>
        <time>2020-05-21T18:26:10Z</time>
      </trkpt>
      <trkpt lat="43.130220" lon="-6.252730">
        <ele>574.163</ele>
        <time>2020-05-21T18:26:30Z</time>
      </trkpt>
      <trkpt lat="43.130060" lon="-6.252620">
        <ele>571.978</ele>
        <time>2020-05-21T18:26:50Z</time>
      </trkpt>
      <trkpt lat="43.129920" lon="-6.252510">
        <ele>568.815</ele>
        <time>2020-05-21T18:27:10Z</time>
      </trkpt>
      <trkpt lat="43.129900" lon="-6.252500">
        <ele>568.311</ele>
        <time>2020-05-21T18:27:30Z</time>
      </trkpt>
      <trkpt lat="43.129780" lon="-6.252430">
        <ele>566.940</ele>
        <time>2020-05-21T18:27:50Z</time>
      </trkpt>
      <trkpt lat="43.129620" lon="-6.252400">
        <ele>571.381</ele>
        <time>2020-05-21T18:28:10Z</time>
      </trkpt>
      <trkpt lat="43.129380" lon="-6.252380">
        <ele>583.020</ele>
        <time>2020-05-21T18:28:30Z</time>
      </trkpt>
      <trkpt lat="43.129200" lon="-6.252370">
        <ele>593.883</ele>
        <time>2020-05-21T18:28:50Z</time>
      </trkpt>
      <trkpt lat="43.129020" lon="-6.252350">
        <ele>602.119</ele>
        <time>2020-05-21T18:29:10Z</time>
      </trkpt>
      <trkpt lat="43.128990" lon="-6.252350">
        <ele>603.509</ele>
        <time>2020-05-21T18:29:30Z</time>
      </trkpt>
      <trkpt lat="43.128840" lon="-6.252330">
        <ele>609.019</ele>
        <time>2020-05-21T18:29:50Z</time>
      </trkpt>
      <trkpt lat="43.128750" lon="-6.252320">
        <ele>611.308</ele>
        <time>2020-05-21T18:30:10Z</time>
      </trkpt>
      <trkpt lat="43.128660" lon="-6.252290">
        <ele>612.475</ele>
        <time>2020-05-21T18:30:30Z</time>
      </trkpt>
      <trkpt lat="43.128590" lon="-6.252250">
        <ele>612.220</ele>
        <time>2020-05-21T18:30:50Z</time>
      </trkpt>
      <trkpt lat="43.128500" lon="-6.252190">
        <ele>611.887</ele>
        <time>2020-05-21T18:31:10Z</time>
      </trkpt>
      <trkpt lat="43.128490" lon="-6.252190">
        <ele>612.073</ele>
        <time>2020-05-21T18:31:30Z</time>
      </trkpt>
      <trkpt lat="43.128400" lon="-6.252090">
        <ele>611.992</ele>
        <time>2020-05-21T18:31:50Z</time>
      </trkpt>
      <trkpt lat="43.128350" lon="-6.252040">
        <ele>612.413</ele>
        <time>2020-05-21T18:32:10Z</time>
      </trkpt>
      <trkpt lat="43.128340" lon="-6.252030">
        <ele>612.662</ele>
        <time>2020-05-21T18:32:30Z</time>
      </trkpt>
      <trkpt lat="43.128110" lon="-6.251890">
        <ele>614.165</ele>
        <time>2020-05-21T18:32:50Z</time>
      </trkpt>
      <trkpt lat="43.128020" lon="-6.251870">
        <ele>614.525</ele>
        <time>2020-05-21T18:33:10Z</time>
      </trkpt>
      <trkpt lat="43.127960" lon="-6.251870">
        <ele>613.626</ele>
        <time>2020-05-21T18:33:30Z</time>
      </trkpt>
      <trkpt lat="43.127920" lon="-6.251860">
        <ele>613.208</ele>
        <time>2020-05-21T18:33:50Z</time>
      </trkpt>
      <trkpt lat="43.127840" lon="-6.251890">
        <ele>611.708</ele>
        <time>2020-05-21T18:34:10Z</time>
      </trkpt>
      <trkpt lat="43.127740" lon="-6.251910">
        <ele>609.946</ele>
        <time>2020-05-21T18:34:30Z</time>
      </trkpt>
      <trkpt lat="43.127660" lon="-6.251910">
        <ele>608.651</ele>
        <time>2020-05-21T18:34:50Z</time>
      </trkpt>
      <trkpt lat="43.127640" lon="-6.251910">
        <ele>608.358</ele>
        <time>2020-05-21T18:35:10Z</time>
      </trkpt>
      <trkpt lat="43.127440" lon="-6.251830">
        <ele>607.664</ele>
        <time>2020-05-21T18:35:30Z</time>
      </trkpt>
      <trkpt lat="43.127310" lon="-6.251870">
        <ele>610.823</ele>
        <time>2020-05-21T18:35:50Z</time>
      </trkpt>
      <trkpt lat="43.127280" lon="-6.251880">
        <ele>611.754</ele>
        <time>2020-05-21T18:36:10Z</time>
      </trkpt>
      <trkpt lat="43.127170" lon="-6.251940">
        <ele>615.623</ele>
        <time>2020-05-21T18:36:30Z</time>
      </trkpt>
      <trkpt lat="43.127140" lon="-6.251940">
        <ele>616.186</ele>
        <time>2020-05-21T18:36:50Z</time>
      </trkpt>
      <trkpt lat="43.127040" lon="-6.251950">
        <ele>618.143</ele>
        <time>2020-05-21T18:37:10Z</time>
      </trkpt>
      <trkpt lat="43.126630" lon="-6.252030">
        <ele>617.764</ele>
        <time>2020-05-21T18:37:30Z</time>
      </trkpt>
      <trkpt lat="43.126610" lon="-6.252040">
        <ele>618.010</ele>
        <time>2020-05-21T18:37:50Z</time>
      </trkpt>
      <trkpt lat="43.126440" lon="-6.252120">
        <ele>620.508</ele>
        <time>2020-05-21T18:38:10Z</time>
      </trkpt>
      <trkpt lat="43.126320" lon="-6.252170">
        <ele>619.978</ele>
        <time>2020-05-21T18:38:30Z</time>
      </trkpt>
      <trkpt lat="43.126240" lon="-6.252210">
        <ele>618.443</ele>
        <time>2020-05-21T18:38:50Z</time>
      </trkpt>
      <trkpt lat="43.126100" lon="-6.252290">
        <ele>615.550</ele>
        <time>2020-05-21T18:39:10Z</time>
      </trkpt>
      <trkpt lat="43.125960" lon="-6.252370">
        <ele>612.216</ele>
        <time>2020-05-21T18:39:30Z</time>
      </trkpt>
      <trkpt lat="43.125940" lon="-6.252390">
        <ele>611.975</ele>
        <time>2020-05-21T18:39:50Z</time>
      </trkpt>
      <trkpt lat="43.125690" lon="-6.252550">
        <ele>606.526</ele>
        <time>2020-05-21T18:40:10Z</time>
      </trkpt>
      <trkpt lat="43.125580" lon="-6.252620">
        <ele>603.935</ele>
        <time>2020-05-21T18:40:30Z</time>
      </trkpt>
      <trkpt lat="43.125500" lon="-6.252670">
        <ele>603.218</ele>
        <time>2020-05-21T18:40:50Z</time>
      </trkpt>
      <trkpt lat="43.125450" lon="-6.252710">
        <ele>603.645</ele>
        <time>2020-05-21T18:41:10Z</time>
      </trkpt>
      <trkpt lat="43.125390" lon="-6.252760">
        <ele>604.147</ele>
        <time>2020-05-21T18:41:30Z</time>
      </trkpt>
      <trkpt lat="43.125300" lon="-6.252840">
        <ele>608.311</ele>
        <time>2020-05-21T18:41:50Z</time>
      </trkpt>
      <trkpt lat="43.125150" lon="-6.253080">
        <ele>621.508</ele>
        <time>2020-05-21T18:42:10Z</time>
      </trkpt>
      <trkpt lat="43.125110" lon="-6.253120">
        <ele>622.678</ele>
        <time>2020-05-21T18:42:30Z</time>
      </trkpt>
      <trkpt lat="43.125030" lon="-6.253150">
        <ele>622.443</ele>
        <time>2020-05-21T18:42:50Z</time>
      </trkpt>
      <trkpt lat="43.124850" lon="-6.253170">
        <ele>618.650</ele>
        <time>2020-05-21T18:43:10Z</time>
      </trkpt>
      <trkpt lat="43.124810" lon="-6.253180">
        <ele>617.926</ele>
        <time>2020-05-21T18:43:30Z</time>
      </trkpt>
      <trkpt lat="43.124690" lon="-6.253160">
        <ele>614.475</ele>
        <time>2020-05-21T18:43:50Z</time>
      </trkpt>
      <trkpt lat="43.124670" lon="-6.253150">
        <ele>613.896</ele>
        <time>2020-05-21T18:44:10Z</time>
      </trkpt>
      <trkpt lat="43.124170" lon="-6.252870">
        <ele>610.655</ele>
        <time>2020-05-21T18:44:30Z</time>
      </trkpt>
      <trkpt lat="43.124120" lon="-6.252840">
        <ele>609.898</ele>
        <time>2020-05-21T18:44:50Z</time>
      </trkpt>
      <trkpt lat="43.124010" lon="-6.252770">
        <ele>607.444</ele>
        <time>2020-05-21T18:45:10Z</time>
      </trkpt>
      <trkpt lat="43.123800" lon="-6.252650">
        <ele>607.405</ele>
        <time>2020-05-21T18:45:30Z</time>
      </trkpt>
      <trkpt lat="43.123680" lon="-6.252600">
        <ele>606.715</ele>
        <time>2020-05-21T18:45:50Z</time>
      </trkpt>
      <trkpt lat="43.123670" lon="-6.252590">
        <ele>606.608</ele>
        <time>2020-05-21T18:46:10Z</time>
      </trkpt>
      <trkpt lat="43.123610" lon="-6.252580">
        <ele>606.288</ele>
        <time>2020-05-21T18:46:30Z</time>
      </trkpt>
      <trkpt lat="43.123500" lon="-6.252600">
        <ele>607.893</ele>
        <time>2020-05-21T18:46:50Z</time>
      </trkpt>
      <trkpt lat="43.123380" lon="-6.252610">
        <ele>609.790</ele>
        <time>2020-05-21T18:47:10Z</time>
      </trkpt>
      <trkpt lat="43.123320" lon="-6.252590">
        <ele>610.286</ele>
        <time>2020-05-21T18:47:30Z</time>
      </trkpt>
      <trkpt lat="43.123260" lon="-6.252560">
        <ele>611.965</ele>
        <time>2020-05-21T18:47:50Z</time>
      </trkpt>
      <trkpt lat="43.123170" lon="-6.252450">
        <ele>611.916</ele>
        <time>2020-05-21T18:48:10Z</time>
      </trkpt>
      <trkpt lat="43.123040" lon="-6.252280">
        <ele>610.595</ele>
        <time>2020-05-21T18:48:30Z</time>
      </trkpt>
      <trkpt lat="43.122910" lon="-6.252110">
        <ele>611.128</ele>
        <time>2020-05-21T18:48:50Z</time>
      </trkpt>
      <trkpt lat="43.122890" lon="-6.252090">
        <ele>611.212</ele>
        <time>2020-05-21T18:49:10Z</time>
      </trkpt>
      <trkpt lat="43.122760" lon="-6.251980">
        <ele>611.332</ele>
        <time>2020-05-21T18:49:30Z</time>
      </trkpt>
      <trkpt lat="43.122610" lon="-6.251860">
        <ele>609.405</ele>
        <time>2020-05-21T18:49:50Z</time>
      </trkpt>
      <trkpt lat="43.122450" lon="-6.251730">
        <ele>609.108</ele>
        <time>2020-05-21T18:50:10Z</time>
      </trkpt>
      <trkpt lat="43.122440" lon="-6.251720">
        <ele>609.385</ele>
        <time>2020-05-21T18:50:30Z</time>
      </trkpt>
      <trkpt lat="43.122300" lon="-6.251610">
        <ele>616.690</ele>
        <time>2020-05-21T18:50:50Z</time>
      </trkpt>
      <trkpt lat="43.122230" lon="-6.251560">
        <ele>622.537</ele>
        <time>2020-05-21T18:51:10Z</time>
      </trkpt>
      <trkpt lat="43.122200" lon="-6.251540">
        <ele>623.623</ele>
        <time>2020-05-21T18:51:30Z</time>
      </trkpt>
      <trkpt lat="43.122110" lon="-6.251550">
        <ele>624.672</ele>
        <time>2020-05-21T18:51:50Z</time>
      </trkpt>
      <trkpt lat="43.122050" lon="-6.251580">
        <ele>625.583</ele>
        <time>2020-05-21T18:52:10Z</time>
      </trkpt>
      <trkpt lat="43.121950" lon="-6.251670">
        <ele>629.082</ele>
        <time>2020-05-21T18:52:30Z</time>
      </trkpt>
      <trkpt lat="43.121800" lon="-6.251890">
        <ele>637.185</ele>
        <time>2020-05-21T18:52:50Z</time>
      </trkpt>
      <trkpt lat="43.121740" lon="-6.252030">
        <ele>644.147</ele>
        <time>2020-05-21T18:53:10Z</time>
      </trkpt>
      <trkpt lat="43.121650" lon="-6.252200">
        <ele>655.629</ele>
        <time>2020-05-21T18:53:30Z</time>
      </trkpt>
      <trkpt lat="43.121640" lon="-6.252230">
        <ele>657.321</ele>
        <time>2020-05-21T18:53:50Z</time>
      </trkpt>
      <trkpt lat="43.121540" lon="-6.252410">
        <ele>663.808</ele>
        <time>2020-05-21T18:54:10Z</time>
      </trkpt>
      <trkpt lat="43.121410" lon="-6.252570">
        <ele>669.778</ele>
        <time>2020-05-21T18:54:30Z</time>
      </trkpt>
      <trkpt lat="43.121390" lon="-6.252590">
        <ele>670.233</ele>
        <time>2020-05-21T18:54:50Z</time>
      </trkpt>
      <trkpt lat="43.121360" lon="-6.252630">
        <ele>671.790</ele>
        <time>2020-05-21T18:55:10Z</time>
      </trkpt>
      <trkpt lat="43.121270" lon="-6.252700">
        <ele>673.816</ele>
        <time>2020-05-21T18:55:30Z</time>
      </trkpt>
      <trkpt lat="43.121150" lon="-6.252750">
        <ele>674.395</ele>
        <time>2020-05-21T18:55:50Z</time>
      </trkpt>
      <trkpt lat="43.121060" lon="-6.252770">
        <ele>673.846</ele>
        <time>2020-05-21T18:56:10Z</time>
      </trkpt>
      <trkpt lat="43.121040" lon="-6.252770">
        <ele>673.415</ele>
        <time>2020-05-21T18:56:30Z</time>
      </trkpt>
      <trkpt lat="43.120950" lon="-6.252750">
        <ele>671.148</ele>
        <time>2020-05-21T18:56:50Z</time>
      </trkpt>
      <trkpt lat="43.120890" lon="-6.252750">
        <ele>670.115</ele>
        <time>2020-05-21T18:57:10Z</time>
      </trkpt>
      <trkpt lat="43.120780" lon="-6.252740">
        <ele>666.665</ele>
        <time>2020-05-21T18:57:30Z</time>
      </trkpt>
      <trkpt lat="43.120710" lon="-6.252740">
        <ele>663.811</ele>
        <time>2020-05-21T18:57:50Z</time>
      </trkpt>
      <trkpt lat="43.120650" lon="-6.252750">
        <ele>661.808</ele>
        <time>2020-05-21T18:58:10Z</time>
      </trkpt>
      <trkpt lat="43.120590" lon="-6.252780">
        <ele>660.465</ele>
        <time>2020-05-21T18:58:30Z</time>
      </trkpt>
      <trkpt lat="43.120540" lon="-6.252830">
        <ele>658.290</ele>
        <time>2020-05-21T18:58:50Z</time>
      </trkpt>
      <trkpt lat="43.120420" lon="-6.252930">
        <ele>654.797</ele>
        <time>2020-05-21T18:59:10Z</time>
      </trkpt>
      <trkpt lat="43.120380" lon="-6.252950">
        <ele>654.043</ele>
        <time>2020-05-21T18:59:30Z</time>
      </trkpt>
      <trkpt lat="43.120290" lon="-6.252990">
        <ele>653.252</ele>
        <time>2020-05-21T18:59:50Z</time>
      </trkpt>
      <trkpt lat="43.120210" lon="-6.253020">
        <ele>656.183</ele>
        <time>2020-05-21T19:00:10Z</time>
      </trkpt>
      <trkpt lat="43.120200" lon="-6.253020">
        <ele>656.412</ele>
        <time>2020-05-21T19:00:30Z</time>
      </trkpt>
      <trkpt lat="43.120110" lon="-6.253040">
        <ele>659.945</ele>
        <time>2020-05-21T19:00:50Z</time>
      </trkpt>
      <trkpt lat="43.120040" lon="-6.253020">
        <ele>660.695</ele>
        <time>2020-05-21T19:01:10Z</time>
      </trkpt>
      <trkpt lat="43.120010" lon="-6.253020">
        <ele>661.449</ele>
        <time>2020-05-21T19:01:30Z</time>
      </trkpt>
      <trkpt lat="43.119920" lon="-6.252970">
        <ele>658.423</ele>
        <time>2020-05-21T19:01:50Z</time>
      </trkpt>
      <trkpt lat="43.119870" lon="-6.252940">
        <ele>657.008</ele>
        <time>2020-05-21T19:02:10Z</time>
      </trkpt>
      <trkpt lat="43.119700" lon="-6.252840">
        <ele>655.353</ele>
        <time>2020-05-21T19:02:30Z</time>
      </trkpt>
      <trkpt lat="43.119370" lon="-6.252640">
        <ele>651.438</ele>
        <time>2020-05-21T19:02:50Z</time>
      </trkpt>
      <trkpt lat="43.119210" lon="-6.252540">
        <ele>651.885</ele>
        <time>2020-05-21T19:03:10Z</time>
      </trkpt>
      <trkpt lat="43.119200" lon="-6.252540">
        <ele>651.861</ele>
        <time>2020-05-21T19:03:30Z</time>
      </trkpt>
      <trkpt lat="43.119070" lon="-6.252450">
        <ele>647.740</ele>
        <time>2020-05-21T19:03:50Z</time>
      </trkpt>
      <trkpt lat="43.119050" lon="-6.252420">
        <ele>646.851</ele>
        <time>2020-05-21T19:04:10Z</time>
      </trkpt>
      <trkpt lat="43.119020" lon="-6.252390">
        <ele>645.920</ele>
        <time>2020-05-21T19:04:30Z</time>
      </trkpt>
      <trkpt lat="43.118930" lon="-6.252290">
        <ele>645.123</ele>
        <time>2020-05-21T19:04:50Z</time>
      </trkpt>
      <trkpt lat="43.118910" lon="-6.252270">
        <ele>645.269</ele>
        <time>2020-05-21T19:05:10Z</time>
      </trkpt>
      <trkpt lat="43.118780" lon="-6.252100">
        <ele>645.604</ele>
        <time>2020-05-21T19:05:30Z</time>
      </trkpt>
      <trkpt lat="43.118660" lon="-6.251920">
        <ele>642.624</ele>
        <time>2020-05-21T19:05:50Z</time>
      </trkpt>
      <trkpt lat="43.118560" lon="-6.251790">
        <ele>639.108</ele>
        <time>2020-05-21T19:06:10Z</time>
      </trkpt>
      <trkpt lat="43.118470" lon="-6.251700">
        <ele>635.880</ele>
        <time>2020-05-21T19:06:30Z</time>
      </trkpt>
      <trkpt lat="43.118420" lon="-6.251670">
        <ele>634.615</ele>
        <time>2020-05-21T19:06:50Z</time>
      </trkpt>
      <trkpt lat="43.118390" lon="-6.251660">
        <ele>634.472</ele>
        <time>2020-05-21T19:07:10Z</time>
      </trkpt>
      <trkpt lat="43.118360" lon="-6.251650">
        <ele>634.288</ele>
        <time>2020-05-21T19:07:30Z</time>
      </trkpt>
      <trkpt lat="43.118330" lon="-6.251640">
        <ele>633.997</ele>
        <time>2020-05-21T19:07:50Z</time>
      </trkpt>
      <trkpt lat="43.118320" lon="-6.251640">
        <ele>633.848</ele>
        <time>2020-05-21T19:08:10Z</time>
      </trkpt>
      <trkpt lat="43.118280" lon="-6.251630">
        <ele>633.187</ele>
        <time>2020-05-21T19:08:30Z</time>
      </trkpt>
      <trkpt lat="43.118230" lon="-6.251640">
        <ele>633.030</ele>
        <time>2020-05-21T19:08:50Z</time>
      </trkpt>
      <trkpt lat="43.118210" lon="-6.251660">
        <ele>633.598</ele>
        <time>2020-05-21T19:09:10Z</time>
      </trkpt>
      <trkpt lat="43.118190" lon="-6.251670">
        <ele>633.715</ele>
        <time>2020-05-21T19:09:30Z</time>
      </trkpt>
      <trkpt lat="43.118040" lon="-6.251790">
        <ele>639.626</ele>
        <time>2020-05-21T19:09:50Z</time>
      </trkpt>
      <trkpt lat="43.117740" lon="-6.252080">
        <ele>653.208</ele>
        <time>2020-05-21T19:10:10Z</time>
      </trkpt>
      <trkpt lat="43.117742" lon="-6.252079">
        <ele>653.273</ele>
        <time>2020-05-21T19:10:30Z</time>
      </trkpt>
      <trkpt lat="43.117660" lon="-6.251950">
        <ele>646.248</ele>
        <time>2020-05-21T19:10:50Z</time>
      </trkpt>
      <trkpt lat="43.117660" lon="-6.251940">
        <ele>645.875</ele>
        <time>2020-05-21T19:11:10Z</time>
      </trkpt>
      <trkpt lat="43.117610" lon="-6.251850">
        <ele>642.751</ele>
        <time>2020-05-21T19:11:30Z</time>
      </trkpt>
      <trkpt lat="43.117550" lon="-6.251740">
        <ele>639.170</ele>
        <time>2020-05-21T19:11:50Z</time>
      </trkpt>
      <trkpt lat="43.117520" lon="-6.251680">
        <ele>637.351</ele>
        <time>2020-05-21T19:12:10Z</time>
      </trkpt>
      <trkpt lat="43.117460" lon="-6.251550">
        <ele>636.540</ele>
        <time>2020-05-21T19:12:30Z</time>
      </trkpt>
      <trkpt lat="43.117450" lon="-6.251540">
        <ele>636.663</ele>
        <time>2020-05-21T19:12:50Z</time>
      </trkpt>
      <trkpt lat="43.117420" lon="-6.251490">
        <ele>637.126</ele>
        <time>2020-05-21T19:13:10Z</time>
      </trkpt>
      <trkpt lat="43.117360" lon="-6.251390">
        <ele>639.047</ele>
        <time>2020-05-21T19:13:30Z</time>
      </trkpt>
      <trkpt lat="43.117340" lon="-6.251350">
        <ele>640.511</ele>
        <time>2020-05-21T19:13:50Z</time>
      </trkpt>
      <trkpt lat="43.117330" lon="-6.251310">
        <ele>641.808</ele>
        <time>2020-05-21T19:14:10Z</time>
      </trkpt>
      <trkpt lat="43.117270" lon="-6.251200">
        <ele>649.016</ele>
        <time>2020-05-21T19:14:30Z</time>
      </trkpt>
      <trkpt lat="43.117250" lon="-6.251140">
        <ele>653.071</ele>
        <time>2020-05-21T19:14:50Z</time>
      </trkpt>
      <trkpt lat="43.117220" lon="-6.251080">
        <ele>656.738</ele>
        <time>2020-05-21T19:15:10Z</time>
      </trkpt>
      <trkpt lat="43.117160" lon="-6.250920">
        <ele>661.344</ele>
        <time>2020-05-21T19:15:30Z</time>
      </trkpt>
      <trkpt lat="43.117150" lon="-6.250900">
        <ele>662.463</ele>
        <time>2020-05-21T19:15:50Z</time>
      </trkpt>
      <trkpt lat="43.117100" lon="-6.250710">
        <ele>670.864</ele>
        <time>2020-05-21T19:16:10Z</time>
      </trkpt>
      <trkpt lat="43.117100" lon="-6.250690">
        <ele>671.183</ele>
        <time>2020-05-21T19:16:30Z</time>
      </trkpt>
      <trkpt lat="43.117040" lon="-6.250460">
        <ele>681.726</ele>
        <time>2020-05-21T19:16:50Z</time>
      </trkpt>
      <trkpt lat="43.117010" lon="-6.250340">
        <ele>681.724</ele>
        <time>2020-05-21T19:17:10Z</time>
      </trkpt>
      <trkpt lat="43.116980" lon="-6.250220">
        <ele>681.304</ele>
        <time>2020-05-21T19:17:30Z</time>
      </trkpt>
      <trkpt lat="43.116930" lon="-6.249990">
        <ele>683.214</ele>
        <time>2020-05-21T19:17:50Z</time>
      </trkpt>
      <trkpt lat="43.116930" lon="-6.249970">
        <ele>683.508</ele>
        <time>2020-05-21T19:18:10Z</time>
      </trkpt>
      <trkpt lat="43.116890" lon="-6.249800">
        <ele>689.876</ele>
        <time>2020-05-21T19:18:30Z</time>
      </trkpt>
      <trkpt lat="43.116820" lon="-6.249480">
        <ele>682.921</ele>
        <time>2020-05-21T19:18:50Z</time>
      </trkpt>
      <trkpt lat="43.116780" lon="-6.249280">
        <ele>666.658</ele>
        <time>2020-05-21T19:19:10Z</time>
      </trkpt>
      <trkpt lat="43.116770" lon="-6.249250">
        <ele>663.974</ele>
        <time>2020-05-21T19:19:30Z</time>
      </trkpt>
      <trkpt lat="43.116710" lon="-6.248970">
        <ele>657.183</ele>
        <time>2020-05-21T19:19:50Z</time>
      </trkpt>
      <trkpt lat="43.116710" lon="-6.248890">
        <ele>657.334</ele>
        <time>2020-05-21T19:20:10Z</time>
      </trkpt>
      <trkpt lat="43.116700" lon="-6.248810">
        <ele>659.633</ele>
        <time>2020-05-21T19:20:30Z</time>
      </trkpt>
      <trkpt lat="43.116710" lon="-6.248650">
        <ele>664.976</ele>
        <time>2020-05-21T19:20:50Z</time>
      </trkpt>
      <trkpt lat="43.116750" lon="-6.248400">
        <ele>677.598</ele>
        <time>2020-05-21T19:21:10Z</time>
      </trkpt>
      <trkpt lat="43.116750" lon="-6.248340">
        <ele>679.915</ele>
        <time>2020-05-21T19:21:30Z</time>
      </trkpt>
      <trkpt lat="43.116800" lon="-6.248170">
        <ele>682.826</ele>
        <time>2020-05-21T19:21:50Z</time>
      </trkpt>
      <trkpt lat="43.116820" lon="-6.248100">
        <ele>683.608</ele>
        <time>2020-05-21T19:22:10Z</time>
      </trkpt>
      <trkpt lat="43.116850" lon="-6.247980">
        <ele>684.043</ele>
        <time>2020-05-21T19:22:30Z</time>
      </trkpt>
      <trkpt lat="43.116850" lon="-6.247910">
        <ele>683.528</ele>
        <time>2020-05-21T19:22:50Z</time>
      </trkpt>
      <trkpt lat="43.116860" lon="-6.247860">
        <ele>683.715</ele>
        <time>2020-05-21T19:23:10Z</time>
      </trkpt>
      <trkpt lat="43.116850" lon="-6.247710">
        <ele>681.261</ele>
        <time>2020-05-21T19:23:30Z</time>
      </trkpt>
      <trkpt lat="43.116840" lon="-6.247690">
        <ele>680.130</ele>
        <time>2020-05-21T19:23:50Z</time>
      </trkpt>
      <trkpt lat="43.116800" lon="-6.247570">
        <ele>674.381</ele>
        <time>2020-05-21T19:24:10Z</time>
      </trkpt>
      <trkpt lat="43.116780" lon="-6.247510">
        <ele>671.170</ele>
        <time>2020-05-21T19:24:30Z</time>
      </trkpt>
      <trkpt lat="43.116760" lon="-6.247470">
        <ele>668.633</ele>
        <time>2020-05-21T19:24:50Z</time>
      </trkpt>
      <trkpt lat="43.116720" lon="-6.247390">
        <ele>664.456</ele>
        <time>2020-05-21T19:25:10Z</time>
      </trkpt>
      <trkpt lat="43.116610" lon="-6.247180">
        <ele>658.259</ele>
        <time>2020-05-21T19:25:30Z</time>
      </trkpt>
      <trkpt lat="43.116540" lon="-6.247060">
        <ele>656.814</ele>
        <time>2020-05-21T19:25:50Z</time>
      </trkpt>
      <trkpt lat="43.116470" lon="-6.246870">
        <ele>655.108</ele>
        <time>2020-05-21T19:26:10Z</time>
      </trkpt>
      <trkpt lat="43.116470" lon="-6.246860">
        <ele>655.279</ele>
        <time>2020-05-21T19:26:30Z</time>
      </trkpt>
      <trkpt lat="43.116420" lon="-6.246630">
        <ele>654.334</ele>
        <time>2020-05-21T19:26:50Z</time>
      </trkpt>
      <trkpt lat="43.116400" lon="-6.246530">
        <ele>653.151</ele>
        <time>2020-05-21T19:27:10Z</time>
      </trkpt>
      <trkpt lat="43.116380" lon="-6.246380">
        <ele>652.427</ele>
        <time>2020-05-21T19:27:30Z</time>
      </trkpt>
      <trkpt lat="43.116380" lon="-6.246370">
        <ele>652.546</ele>
        <time>2020-05-21T19:27:50Z</time>
      </trkpt>
      <trkpt lat="43.116380" lon="-6.246350">
        <ele>652.717</ele>
        <time>2020-05-21T19:28:10Z</time>
      </trkpt>
      <trkpt lat="43.116370" lon="-6.246340">
        <ele>653.156</ele>
        <time>2020-05-21T19:28:30Z</time>
      </trkpt>
      <trkpt lat="43.116290" lon="-6.246160">
        <ele>656.669</ele>
        <time>2020-05-21T19:28:50Z</time>
      </trkpt>
      <trkpt lat="43.116200" lon="-6.245970">
        <ele>660.082</ele>
        <time>2020-05-21T19:29:10Z</time>
      </trkpt>
      <trkpt lat="43.116200" lon="-6.245950">
        <ele>660.343</ele>
        <time>2020-05-21T19:29:30Z</time>
      </trkpt>
      <trkpt lat="43.116160" lon="-6.245710">
        <ele>662.617</ele>
        <time>2020-05-21T19:29:50Z</time>
      </trkpt>
      <trkpt lat="43.116130" lon="-6.245520">
        <ele>663.808</ele>
        <time>2020-05-21T19:30:10Z</time>
      </trkpt>
      <trkpt lat="43.116120" lon="-6.245470">
        <ele>663.952</ele>
        <time>2020-05-21T19:30:30Z</time>
      </trkpt>
      <trkpt lat="43.116060" lon="-6.245280">
        <ele>664.337</ele>
        <time>2020-05-21T19:30:50Z</time>
      </trkpt>
      <trkpt lat="43.116020" lon="-6.245230">
        <ele>664.634</ele>
        <time>2020-05-21T19:31:10Z</time>
      </trkpt>
      <trkpt lat="43.115910" lon="-6.245110">
        <ele>664.910</ele>
        <time>2020-05-21T19:31:30Z</time>
      </trkpt>
      <trkpt lat="43.115900" lon="-6.245100">
        <ele>664.839</ele>
        <time>2020-05-21T19:31:50Z</time>
      </trkpt>
      <trkpt lat="43.115600" lon="-6.244820">
        <ele>669.370</ele>
        <time>2020-05-21T19:32:10Z</time>
      </trkpt>
      <trkpt lat="43.115560" lon="-6.244770">
        <ele>669.189</ele>
        <time>2020-05-21T19:32:30Z</time>
      </trkpt>
      <trkpt lat="43.115480" lon="-6.244650">
        <ele>669.392</ele>
        <time>2020-05-21T19:32:50Z</time>
      </trkpt>
      <trkpt lat="43.115440" lon="-6.244590">
        <ele>668.614</ele>
        <time>2020-05-21T19:33:10Z</time>
      </trkpt>
      <trkpt lat="43.115400" lon="-6.244430">
        <ele>666.354</ele>
        <time>2020-05-21T19:33:30Z</time>
      </trkpt>
      <trkpt lat="43.115390" lon="-6.244420">
        <ele>666.009</ele>
        <time>2020-05-21T19:33:50Z</time>
      </trkpt>
      <trkpt lat="43.115330" lon="-6.244200">
        <ele>666.008</ele>
        <time>2020-05-21T19:34:10Z</time>
      </trkpt>
      <trkpt lat="43.115310" lon="-6.244150">
        <ele>665.755</ele>
        <time>2020-05-21T19:34:30Z</time>
      </trkpt>
      <trkpt lat="43.115280" lon="-6.243960">
        <ele>666.350</ele>
        <time>2020-05-21T19:34:50Z</time>
      </trkpt>
      <trkpt lat="43.115250" lon="-6.243830">
        <ele>667.547</ele>
        <time>2020-05-21T19:35:10Z</time>
      </trkpt>
      <trkpt lat="43.115220" lon="-6.243730">
        <ele>667.973</ele>
        <time>2020-05-21T19:35:30Z</time>
      </trkpt>
      <trkpt lat="43.115180" lon="-6.243600">
        <ele>667.192</ele>
        <time>2020-05-21T19:35:50Z</time>
      </trkpt>
      <trkpt lat="43.115090" lon="-6.243410">
        <ele>663.793</ele>
        <time>2020-05-21T19:36:10Z</time>
      </trkpt>
      <trkpt lat="43.115020" lon="-6.243330">
        <ele>661.012</ele>
        <time>2020-05-21T19:36:30Z</time>
      </trkpt>
      <trkpt lat="43.114890" lon="-6.243160">
        <ele>666.535</ele>
        <time>2020-05-21T19:36:50Z</time>
      </trkpt>
      <trkpt lat="43.114760" lon="-6.242990">
        <ele>669.734</ele>
        <time>2020-05-21T19:37:10Z</time>
      </trkpt>
      <trkpt lat="43.114630" lon="-6.242820">
        <ele>676.555</ele>
        <time>2020-05-21T19:37:30Z</time>
      </trkpt>
      <trkpt lat="43.114520" lon="-6.242680">
        <ele>675.910</ele>
        <time>2020-05-21T19:37:50Z</time>
      </trkpt>
      <trkpt lat="43.114480" lon="-6.242570">
        <ele>673.908</ele>
        <time>2020-05-21T19:38:10Z</time>
      </trkpt>
      <trkpt lat="43.114440" lon="-6.242420">
        <ele>671.927</ele>
        <time>2020-05-21T19:38:30Z</time>
      </trkpt>
      <trkpt lat="43.114430" lon="-6.242340">
        <ele>671.882</ele>
        <time>2020-05-21T19:38:50Z</time>
      </trkpt>
      <trkpt lat="43.114420" lon="-6.242170">
        <ele>671.389</ele>
        <time>2020-05-21T19:39:10Z</time>
      </trkpt>
      <trkpt lat="43.114410" lon="-6.241930">
        <ele>671.675</ele>
        <time>2020-05-21T19:39:30Z</time>
      </trkpt>
      <trkpt lat="43.114410" lon="-6.241820">
        <ele>672.594</ele>
        <time>2020-05-21T19:39:50Z</time>
      </trkpt>
      <trkpt lat="43.114390" lon="-6.241680">
        <ele>672.855</ele>
        <time>2020-05-21T19:40:10Z</time>
      </trkpt>
      <trkpt lat="43.114380" lon="-6.241610">
        <ele>673.734</ele>
        <time>2020-05-21T19:40:30Z</time>
      </trkpt>
      <trkpt lat="43.114310" lon="-6.241470">
        <ele>672.647</ele>
        <time>2020-05-21T19:40:50Z</time>
      </trkpt>
      <trkpt lat="43.114270" lon="-6.241380">
        <ele>671.348</ele>
        <time>2020-05-21T19:41:10Z</time>
      </trkpt>
      <trkpt lat="43.114200" lon="-6.241280">
        <ele>668.261</ele>
        <time>2020-05-21T19:41:30Z</time>
      </trkpt>
      <trkpt lat="43.114090" lon="-6.241130">
        <ele>667.517</ele>
        <time>2020-05-21T19:41:50Z</time>
      </trkpt>
      <trkpt lat="43.114070" lon="-6.241110">
        <ele>667.708</ele>
        <time>2020-05-21T19:42:10Z</time>
      </trkpt>
      <trkpt lat="43.113930" lon="-6.240950">
        <ele>668.418</ele>
        <time>2020-05-21T19:42:30Z</time>
      </trkpt>
      <trkpt lat="43.113810" lon="-6.240810">
        <ele>668.863</ele>
        <time>2020-05-21T19:42:50Z</time>
      </trkpt>
      <trkpt lat="43.113660" lon="-6.240630">
        <ele>671.790</ele>
        <time>2020-05-21T19:43:10Z</time>
      </trkpt>
      <trkpt lat="43.113520" lon="-6.240470">
        <ele>675.386</ele>
        <time>2020-05-21T19:43:30Z</time>
      </trkpt>
      <trkpt lat="43.113460" lon="-6.240390">
        <ele>677.745</ele>
        <time>2020-05-21T19:43:50Z</time>
      </trkpt>
      <trkpt lat="43.113390" lon="-6.240290">
        <ele>679.846</ele>
        <time>2020-05-21T19:44:10Z</time>
      </trkpt>
      <trkpt lat="43.113270" lon="-6.240110">
        <ele>683.845</ele>
        <time>2020-05-21T19:44:30Z</time>
      </trkpt>
      <trkpt lat="43.113260" lon="-6.240100">
        <ele>684.028</ele>
        <time>2020-05-21T19:44:50Z</time>
      </trkpt>
      <trkpt lat="43.113160" lon="-6.239920">
        <ele>687.264</ele>
        <time>2020-05-21T19:45:10Z</time>
      </trkpt>
      <trkpt lat="43.113110" lon="-6.239840">
        <ele>689.106</ele>
        <time>2020-05-21T19:45:30Z</time>
      </trkpt>
      <trkpt lat="43.113050" lon="-6.239730">
        <ele>690.916</ele>
        <time>2020-05-21T19:45:50Z</time>
      </trkpt>
      <trkpt lat="43.112930" lon="-6.239540">
        <ele>692.508</ele>
        <time>2020-05-21T19:46:10Z</time>
      </trkpt>
      <trkpt lat="43.112920" lon="-6.239530">
        <ele>692.390</ele>
        <time>2020-05-21T19:46:30Z</time>
      </trkpt>
      <trkpt lat="43.112640" lon="-6.239210">
        <ele>683.975</ele>
        <time>2020-05-21T19:46:50Z</time>
      </trkpt>
      <trkpt lat="43.112530" lon="-6.239050">
        <ele>682.832</ele>
        <time>2020-05-21T19:47:10Z</time>
      </trkpt>
      <trkpt lat="43.112370" lon="-6.238860">
        <ele>684.468</ele>
        <time>2020-05-21T19:47:30Z</time>
      </trkpt>
      <trkpt lat="43.112300" lon="-6.238710">
        <ele>686.067</ele>
        <time>2020-05-21T19:47:50Z</time>
      </trkpt>
      <trkpt lat="43.112250" lon="-6.238510">
        <ele>687.428</ele>
        <time>2020-05-21T19:48:10Z</time>
      </trkpt>
      <trkpt lat="43.112220" lon="-6.238250">
        <ele>690.177</ele>
        <time>2020-05-21T19:48:30Z</time>
      </trkpt>
      <trkpt lat="43.112230" lon="-6.238200">
        <ele>691.790</ele>
        <time>2020-05-21T19:48:50Z</time>
      </trkpt>
      <trkpt lat="43.112260" lon="-6.237960">
        <ele>695.965</ele>
        <time>2020-05-21T19:49:10Z</time>
      </trkpt>
      <trkpt lat="43.112260" lon="-6.237910">
        <ele>695.668</ele>
        <time>2020-05-21T19:49:30Z</time>
      </trkpt>
      <trkpt lat="43.112250" lon="-6.237760">
        <ele>694.214</ele>
        <time>2020-05-21T19:49:50Z</time>
      </trkpt>
      <trkpt lat="43.112240" lon="-6.237720">
        <ele>693.008</ele>
        <time>2020-05-21T19:50:10Z</time>
      </trkpt>
      <trkpt lat="43.112220" lon="-6.237570">
        <ele>689.290</ele>
        <time>2020-05-21T19:50:30Z</time>
      </trkpt>
      <trkpt lat="43.112200" lon="-6.237480">
        <ele>687.385</ele>
        <time>2020-05-21T19:50:50Z</time>
      </trkpt>
      <trkpt lat="43.112200" lon="-6.237470">
        <ele>687.382</ele>
        <time>2020-05-21T19:51:10Z</time>
      </trkpt>
      <trkpt lat="43.112180" lon="-6.237390">
        <ele>686.578</ele>
        <time>2020-05-21T19:51:30Z</time>
      </trkpt>
      <trkpt lat="43.112130" lon="-6.237300">
        <ele>684.597</ele>
        <time>2020-05-21T19:51:50Z</time>
      </trkpt>
      <trkpt lat="43.112110" lon="-6.237270">
        <ele>683.728</ele>
        <time>2020-05-21T19:52:10Z</time>
      </trkpt>
      <trkpt lat="43.112070" lon="-6.237180">
        <ele>683.197</ele>
        <time>2020-05-21T19:52:30Z</time>
      </trkpt>
      <trkpt lat="43.112010" lon="-6.237100">
        <ele>682.010</ele>
        <time>2020-05-21T19:52:50Z</time>
      </trkpt>
      <trkpt lat="43.111990" lon="-6.237080">
        <ele>681.298</ele>
        <time>2020-05-21T19:53:10Z</time>
      </trkpt>
      <trkpt lat="43.111940" lon="-6.237020">
        <ele>679.215</ele>
        <time>2020-05-21T19:53:30Z</time>
      </trkpt>
      <trkpt lat="43.111860" lon="-6.236940">
        <ele>679.626</ele>
        <time>2020-05-21T19:53:50Z</time>
      </trkpt>
      <trkpt lat="43.111850" lon="-6.236940">
        <ele>679.508</ele>
        <time>2020-05-21T19:54:10Z</time>
      </trkpt>
      <trkpt lat="43.111770" lon="-6.236870">
        <ele>681.133</ele>
        <time>2020-05-21T19:54:30Z</time>
      </trkpt>
      <trkpt lat="43.111690" lon="-6.236810">
        <ele>681.858</ele>
        <time>2020-05-21T19:54:50Z</time>
      </trkpt>
      <trkpt lat="43.111580" lon="-6.236720">
        <ele>683.535</ele>
        <time>2020-05-21T19:55:10Z</time>
      </trkpt>
      <trkpt lat="43.111420" lon="-6.236610">
        <ele>684.751</ele>
        <time>2020-05-21T19:55:30Z</time>
      </trkpt>
      <trkpt lat="43.111210" lon="-6.236480">
        <ele>688.370</ele>
        <time>2020-05-21T19:55:50Z</time>
      </trkpt>
      <trkpt lat="43.111200" lon="-6.236470">
        <ele>688.591</ele>
        <time>2020-05-21T19:56:10Z</time>
      </trkpt>
      <trkpt lat="43.111110" lon="-6.236390">
        <ele>689.010</ele>
        <time>2020-05-21T19:56:30Z</time>
      </trkpt>
      <trkpt lat="43.111010" lon="-6.236270">
        <ele>689.313</ele>
        <time>2020-05-21T19:56:50Z</time>
      </trkpt>
      <trkpt lat="43.110950" lon="-6.236200">
        <ele>689.192</ele>
        <time>2020-05-21T19:57:10Z</time>
      </trkpt>
      <trkpt lat="43.110930" lon="-6.236170">
        <ele>688.973</ele>
        <time>2020-05-21T19:57:30Z</time>
      </trkpt>
      <trkpt lat="43.110830" lon="-6.235980">
        <ele>688.520</ele>
        <time>2020-05-21T19:57:50Z</time>
      </trkpt>
      <trkpt lat="43.110830" lon="-6.235970">
        <ele>688.508</ele>
        <time>2020-05-21T19:58:10Z</time>
      </trkpt>
      <trkpt lat="43.110750" lon="-6.235850">
        <ele>689.193</ele>
        <time>2020-05-21T19:58:30Z</time>
      </trkpt>
      <trkpt lat="43.110710" lon="-6.235790">
        <ele>689.858</ele>
        <time>2020-05-21T19:58:50Z</time>
      </trkpt>
      <trkpt lat="43.110680" lon="-6.235750">
        <ele>690.475</ele>
        <time>2020-05-21T19:59:10Z</time>
      </trkpt>
      <trkpt lat="43.110620" lon="-6.235680">
        <ele>690.921</ele>
        <time>2020-05-21T19:59:30Z</time>
      </trkpt>
      <trkpt lat="43.110570" lon="-6.235630">
        <ele>690.740</ele>
        <time>2020-05-21T19:59:50Z</time>
      </trkpt>
      <trkpt lat="43.110430" lon="-6.235480">
        <ele>689.621</ele>
        <time>2020-05-21T20:00:10Z</time>
      </trkpt>
      <trkpt lat="43.110400" lon="-6.235450">
        <ele>689.380</ele>
        <time>2020-05-21T20:00:30Z</time>
      </trkpt>
      <trkpt lat="43.110280" lon="-6.235340">
        <ele>687.833</ele>
        <time>2020-05-21T20:00:50Z</time>
      </trkpt>
      <trkpt lat="43.110170" lon="-6.235230">
        <ele>689.387</ele>
        <time>2020-05-21T20:01:10Z</time>
      </trkpt>
      <trkpt lat="43.110130" lon="-6.235200">
        <ele>689.942</ele>
        <time>2020-05-21T20:01:30Z</time>
      </trkpt>
      <trkpt lat="43.110070" lon="-6.235150">
        <ele>690.626</ele>
        <time>2020-05-21T20:01:50Z</time>
      </trkpt>
      <trkpt lat="43.109970" lon="-6.235090">
        <ele>691.608</ele>
        <time>2020-05-21T20:02:10Z</time>
      </trkpt>
      <trkpt lat="43.109950" lon="-6.235080">
        <ele>692.022</ele>
        <time>2020-05-21T20:02:30Z</time>
      </trkpt>
      <trkpt lat="43.109800" lon="-6.235000">
        <ele>694.227</ele>
        <time>2020-05-21T20:02:50Z</time>
      </trkpt>
      <trkpt lat="43.109640" lon="-6.234920">
        <ele>696.214</ele>
        <time>2020-05-21T20:03:10Z</time>
      </trkpt>
      <trkpt lat="43.109620" lon="-6.234910">
        <ele>696.420</ele>
        <time>2020-05-21T20:03:30Z</time>
      </trkpt>
      <trkpt lat="43.109470" lon="-6.234830">
        <ele>698.339</ele>
        <time>2020-05-21T20:03:50Z</time>
      </trkpt>
      <trkpt lat="43.109300" lon="-6.234740">
        <ele>699.130</ele>
        <time>2020-05-21T20:04:10Z</time>
      </trkpt>
      <trkpt lat="43.109130" lon="-6.234650">
        <ele>700.369</ele>
        <time>2020-05-21T20:04:30Z</time>
      </trkpt>
      <trkpt lat="43.109090" lon="-6.234630">
        <ele>701.342</ele>
        <time>2020-05-21T20:04:50Z</time>
      </trkpt>
      <trkpt lat="43.108960" lon="-6.234570">
        <ele>704.159</ele>
        <time>2020-05-21T20:05:10Z</time>
      </trkpt>
      <trkpt lat="43.108950" lon="-6.234570">
        <ele>704.303</ele>
        <time>2020-05-21T20:05:30Z</time>
      </trkpt>
      <trkpt lat="43.108830" lon="-6.234510">
        <ele>706.023</ele>
        <time>2020-05-21T20:05:50Z</time>
      </trkpt>
      <trkpt lat="43.108790" lon="-6.234490">
        <ele>706.408</ele>
        <time>2020-05-21T20:06:10Z</time>
      </trkpt>
      <trkpt lat="43.108630" lon="-6.234440">
        <ele>707.929</ele>
        <time>2020-05-21T20:06:30Z</time>
      </trkpt>
      <trkpt lat="43.108620" lon="-6.234430">
        <ele>708.324</ele>
        <time>2020-05-21T20:06:50Z</time>
      </trkpt>
      <trkpt lat="43.108440" lon="-6.234400">
        <ele>707.581</ele>
        <time>2020-05-21T20:07:10Z</time>
      </trkpt>
      <trkpt lat="43.108280" lon="-6.234340">
        <ele>707.757</ele>
        <time>2020-05-21T20:07:30Z</time>
      </trkpt>
      <trkpt lat="43.108270" lon="-6.234330">
        <ele>708.066</ele>
        <time>2020-05-21T20:07:50Z</time>
      </trkpt>
      <trkpt lat="43.108220" lon="-6.234300">
        <ele>708.837</ele>
        <time>2020-05-21T20:08:10Z</time>
      </trkpt>
      <trkpt lat="43.108150" lon="-6.234250">
        <ele>709.776</ele>
        <time>2020-05-21T20:08:30Z</time>
      </trkpt>
      <trkpt lat="43.108110" lon="-6.234210">
        <ele>709.939</ele>
        <time>2020-05-21T20:08:50Z</time>
      </trkpt>
      <trkpt lat="43.108080" lon="-6.234170">
        <ele>709.989</ele>
        <time>2020-05-21T20:09:10Z</time>
      </trkpt>
      <trkpt lat="43.108020" lon="-6.234070">
        <ele>710.006</ele>
        <time>2020-05-21T20:09:30Z</time>
      </trkpt>
      <trkpt lat="43.107990" lon="-6.234030">
        <ele>710.226</ele>
        <time>2020-05-21T20:09:50Z</time>
      </trkpt>
      <trkpt lat="43.107960" lon="-6.233970">
        <ele>710.208</ele>
        <time>2020-05-21T20:10:10Z</time>
      </trkpt>
      <trkpt lat="43.107890" lon="-6.233820">
        <ele>711.942</ele>
        <time>2020-05-21T20:10:30Z</time>
      </trkpt>
      <trkpt lat="43.107830" lon="-6.233690">
        <ele>714.547</ele>
        <time>2020-05-21T20:10:50Z</time>
      </trkpt>
      <trkpt lat="43.107790" lon="-6.233620">
        <ele>715.124</ele>
        <time>2020-05-21T20:11:10Z</time>
      </trkpt>
      <trkpt lat="43.107760" lon="-6.233570">
        <ele>716.570</ele>
        <time>2020-05-21T20:11:30Z</time>
      </trkpt>
      <trkpt lat="43.107660" lon="-6.233450">
        <ele>718.239</ele>
        <time>2020-05-21T20:11:50Z</time>
      </trkpt>
      <trkpt lat="43.107650" lon="-6.233440">
        <ele>718.290</ele>
        <time>2020-05-21T20:12:10Z</time>
      </trkpt>
      <trkpt lat="43.107510" lon="-6.233310">
        <ele>715.279</ele>
        <time>2020-05-21T20:12:30Z</time>
      </trkpt>
      <trkpt lat="43.107460" lon="-6.233270">
        <ele>715.162</ele>
        <time>2020-05-21T20:12:50Z</time>
      </trkpt>
      <trkpt lat="43.107360" lon="-6.233170">
        <ele>714.842</ele>
        <time>2020-05-21T20:13:10Z</time>
      </trkpt>
      <trkpt lat="43.107220" lon="-6.233030">
        <ele>711.622</ele>
        <time>2020-05-21T20:13:30Z</time>
      </trkpt>
      <trkpt lat="43.107070" lon="-6.232880">
        <ele>713.014</ele>
        <time>2020-05-21T20:13:50Z</time>
      </trkpt>
      <trkpt lat="43.106990" lon="-6.232800">
        <ele>711.308</ele>
        <time>2020-05-21T20:14:10Z</time>
      </trkpt>
      <trkpt lat="43.106930" lon="-6.232730">
        <ele>712.098</ele>
        <time>2020-05-21T20:14:30Z</time>
      </trkpt>
      <trkpt lat="43.106900" lon="-6.232700">
        <ele>713.293</ele>
        <time>2020-05-21T20:14:50Z</time>
      </trkpt>
      <trkpt lat="43.106800" lon="-6.232560">
        <ele>715.440</ele>
        <time>2020-05-21T20:15:10Z</time>
      </trkpt>
      <trkpt lat="43.106690" lon="-6.232360">
        <ele>716.656</ele>
        <time>2020-05-21T20:15:30Z</time>
      </trkpt>
      <trkpt lat="43.106680" lon="-6.232340">
        <ele>716.715</ele>
        <time>2020-05-21T20:15:50Z</time>
      </trkpt>
      <trkpt lat="43.106610" lon="-6.232230">
        <ele>717.626</ele>
        <time>2020-05-21T20:16:10Z</time>
      </trkpt>
      <trkpt lat="43.106570" lon="-6.232180">
        <ele>718.775</ele>
        <time>2020-05-21T20:16:30Z</time>
      </trkpt>
      <trkpt lat="43.106530" lon="-6.232140">
        <ele>719.038</ele>
        <time>2020-05-21T20:16:50Z</time>
      </trkpt>
      <trkpt lat="43.106310" lon="-6.231840">
        <ele>725.828</ele>
        <time>2020-05-21T20:17:10Z</time>
      </trkpt>
      <trkpt lat="43.106190" lon="-6.231660">
        <ele>730.489</ele>
        <time>2020-05-21T20:17:30Z</time>
      </trkpt>
      <trkpt lat="43.106150" lon="-6.231600">
        <ele>732.517</ele>
        <time>2020-05-21T20:17:50Z</time>
      </trkpt>
      <trkpt lat="43.106060" lon="-6.231490">
        <ele>733.708</ele>
        <time>2020-05-21T20:18:10Z</time>
      </trkpt>
      <trkpt lat="43.106040" lon="-6.231470">
        <ele>733.356</ele>
        <time>2020-05-21T20:18:30Z</time>
      </trkpt>
      <trkpt lat="43.105920" lon="-6.231330">
        <ele>729.471</ele>
        <time>2020-05-21T20:18:50Z</time>
      </trkpt>
      <trkpt lat="43.105840" lon="-6.231230">
        <ele>724.638</ele>
        <time>2020-05-21T20:19:10Z</time>
      </trkpt>
      <trkpt lat="43.105780" lon="-6.231180">
        <ele>724.814</ele>
        <time>2020-05-21T20:19:30Z</time>
      </trkpt>
      <trkpt lat="43.105670" lon="-6.231060">
        <ele>730.683</ele>
        <time>2020-05-21T20:19:50Z</time>
      </trkpt>
      <trkpt lat="43.105640" lon="-6.231030">
        <ele>732.634</ele>
        <time>2020-05-21T20:20:10Z</time>
      </trkpt>
      <trkpt lat="43.105610" lon="-6.231010">
        <ele>733.723</ele>
        <time>2020-05-21T20:20:30Z</time>
      </trkpt>
      <trkpt lat="43.105530" lon="-6.230960">
        <ele>736.066</ele>
        <time>2020-05-21T20:20:50Z</time>
      </trkpt>
      <trkpt lat="43.105470" lon="-6.230940">
        <ele>736.289</ele>
        <time>2020-05-21T20:21:10Z</time>
      </trkpt>
      <trkpt lat="43.105380" lon="-6.230900">
        <ele>735.606</ele>
        <time>2020-05-21T20:21:30Z</time>
      </trkpt>
      <trkpt lat="43.105300" lon="-6.230870">
        <ele>733.626</ele>
        <time>2020-05-21T20:21:50Z</time>
      </trkpt>
      <trkpt lat="43.105180" lon="-6.230840">
        <ele>732.708</ele>
        <time>2020-05-21T20:22:10Z</time>
      </trkpt>
      <trkpt lat="43.105120" lon="-6.230830">
        <ele>732.582</ele>
        <time>2020-05-21T20:22:30Z</time>
      </trkpt>
      <trkpt lat="43.105030" lon="-6.230800">
        <ele>732.097</ele>
        <time>2020-05-21T20:22:50Z</time>
      </trkpt>
      <trkpt lat="43.104960" lon="-6.230760">
        <ele>731.344</ele>
        <time>2020-05-21T20:23:10Z</time>
      </trkpt>
      <trkpt lat="43.104950" lon="-6.230760">
        <ele>731.280</ele>
        <time>2020-05-21T20:23:30Z</time>
      </trkpt>
      <trkpt lat="43.104890" lon="-6.230730">
        <ele>730.679</ele>
        <time>2020-05-21T20:23:50Z</time>
      </trkpt>
      <trkpt lat="43.104790" lon="-6.230650">
        <ele>728.980</ele>
        <time>2020-05-21T20:24:10Z</time>
      </trkpt>
      <trkpt lat="43.104780" lon="-6.230650">
        <ele>728.829</ele>
        <time>2020-05-21T20:24:30Z</time>
      </trkpt>
      <trkpt lat="43.104680" lon="-6.230570">
        <ele>728.372</ele>
        <time>2020-05-21T20:24:50Z</time>
      </trkpt>
      <trkpt lat="43.104640" lon="-6.230520">
        <ele>729.282</ele>
        <time>2020-05-21T20:25:10Z</time>
      </trkpt>
      <trkpt lat="43.104500" lon="-6.230360">
        <ele>730.843</ele>
        <time>2020-05-21T20:25:30Z</time>
      </trkpt>
      <trkpt lat="43.104380" lon="-6.230220">
        <ele>733.617</ele>
        <time>2020-05-21T20:25:50Z</time>
      </trkpt>
      <trkpt lat="43.104360" lon="-6.230200">
        <ele>734.608</ele>
        <time>2020-05-21T20:26:10Z</time>
      </trkpt>
      <trkpt lat="43.104270" lon="-6.230100">
        <ele>737.652</ele>
        <time>2020-05-21T20:26:30Z</time>
      </trkpt>
      <trkpt lat="43.104220" lon="-6.230050">
        <ele>738.227</ele>
        <time>2020-05-21T20:26:50Z</time>
      </trkpt>
      <trkpt lat="43.104170" lon="-6.230010">
        <ele>738.094</ele>
        <time>2020-05-21T20:27:10Z</time>
      </trkpt>
      <trkpt lat="43.104020" lon="-6.229880">
        <ele>739.990</ele>
        <time>2020-05-21T20:27:30Z</time>
      </trkpt>
      <trkpt lat="43.103940" lon="-6.229790">
        <ele>741.279</ele>
        <time>2020-05-21T20:27:50Z</time>
      </trkpt>
      <trkpt lat="43.103890" lon="-6.229730">
        <ele>741.920</ele>
        <time>2020-05-21T20:28:10Z</time>
      </trkpt>
      <trkpt lat="43.103780" lon="-6.229570">
        <ele>745.999</ele>
        <time>2020-05-21T20:28:30Z</time>
      </trkpt>
      <trkpt lat="43.103690" lon="-6.229290">
        <ele>754.192</ele>
        <time>2020-05-21T20:28:50Z</time>
      </trkpt>
      <trkpt lat="43.103640" lon="-6.229120">
        <ele>756.799</ele>
        <time>2020-05-21T20:29:10Z</time>
      </trkpt>
      <trkpt lat="43.103610" lon="-6.229010">
        <ele>756.507</ele>
        <time>2020-05-21T20:29:30Z</time>
      </trkpt>
      <trkpt lat="43.103570" lon="-6.228890">
        <ele>758.427</ele>
        <time>2020-05-21T20:29:50Z</time>
      </trkpt>
      <trkpt lat="43.103550" lon="-6.228800">
        <ele>759.308</ele>
        <time>2020-05-21T20:30:10Z</time>
      </trkpt>
      <trkpt lat="43.103530" lon="-6.228650">
        <ele>759.443</ele>
        <time>2020-05-21T20:30:30Z</time>
      </trkpt>
      <trkpt lat="43.103530" lon="-6.228620">
        <ele>759.258</ele>
        <time>2020-05-21T20:30:50Z</time>
      </trkpt>
      <trkpt lat="43.103530" lon="-6.228400">
        <ele>764.245</ele>
        <time>2020-05-21T20:31:10Z</time>
      </trkpt>
      <trkpt lat="43.103520" lon="-6.228160">
        <ele>771.061</ele>
        <time>2020-05-21T20:31:30Z</time>
      </trkpt>
      <trkpt lat="43.103510" lon="-6.228010">
        <ele>774.960</ele>
        <time>2020-05-21T20:31:50Z</time>
      </trkpt>
      <trkpt lat="43.103520" lon="-6.227910">
        <ele>775.911</ele>
        <time>2020-05-21T20:32:10Z</time>
      </trkpt>
      <trkpt lat="43.103540" lon="-6.227660">
        <ele>776.890</ele>
        <time>2020-05-21T20:32:30Z</time>
      </trkpt>
      <trkpt lat="43.103550" lon="-6.227420">
        <ele>775.033</ele>
        <time>2020-05-21T20:32:50Z</time>
      </trkpt>
      <trkpt lat="43.103560" lon="-6.227390">
        <ele>774.246</ele>
        <time>2020-05-21T20:33:10Z</time>
      </trkpt>
      <trkpt lat="43.103610" lon="-6.227070">
        <ele>766.688</ele>
        <time>2020-05-21T20:33:30Z</time>
      </trkpt>
      <trkpt lat="43.103630" lon="-6.226940">
        <ele>764.816</ele>
        <time>2020-05-21T20:33:50Z</time>
      </trkpt>
      <trkpt lat="43.103670" lon="-6.226700">
        <ele>764.908</ele>
        <time>2020-05-21T20:34:10Z</time>
      </trkpt>
      <trkpt lat="43.103680" lon="-6.226620">
        <ele>765.898</ele>
        <time>2020-05-21T20:34:30Z</time>
      </trkpt>
      <trkpt lat="43.103730" lon="-6.226470">
        <ele>772.663</ele>
        <time>2020-05-21T20:34:50Z</time>
      </trkpt>
      <trkpt lat="43.103740" lon="-6.226410">
        <ele>774.220</ele>
        <time>2020-05-21T20:35:10Z</time>
      </trkpt>
      <trkpt lat="43.103790" lon="-6.226270">
        <ele>779.136</ele>
        <time>2020-05-21T20:35:30Z</time>
      </trkpt>
      <trkpt lat="43.103800" lon="-6.226240">
        <ele>780.085</ele>
        <time>2020-05-21T20:35:50Z</time>
      </trkpt>
      <trkpt lat="43.103830" lon="-6.226120">
        <ele>782.176</ele>
        <time>2020-05-21T20:36:10Z</time>
      </trkpt>
      <trkpt lat="43.103880" lon="-6.225940">
        <ele>779.325</ele>
        <time>2020-05-21T20:36:30Z</time>
      </trkpt>
      <trkpt lat="43.103900" lon="-6.225800">
        <ele>775.528</ele>
        <time>2020-05-21T20:36:50Z</time>
      </trkpt>
      <trkpt lat="43.103910" lon="-6.225770">
        <ele>776.051</ele>
        <time>2020-05-21T20:37:10Z</time>
      </trkpt>
      <trkpt lat="43.103940" lon="-6.225530">
        <ele>776.501</ele>
        <time>2020-05-21T20:37:30Z</time>
      </trkpt>
      <trkpt lat="43.103990" lon="-6.225210">
        <ele>771.411</ele>
        <time>2020-05-21T20:37:50Z</time>
      </trkpt>
      <trkpt lat="43.104010" lon="-6.224960">
        <ele>769.708</ele>
        <time>2020-05-21T20:38:10Z</time>
      </trkpt>
      <trkpt lat="43.104030" lon="-6.224800">
        <ele>768.649</ele>
        <time>2020-05-21T20:38:30Z</time>
      </trkpt>
      <trkpt lat="43.104030" lon="-6.224790">
        <ele>768.584</ele>
        <time>2020-05-21T20:38:50Z</time>
      </trkpt>
      <trkpt lat="43.104030" lon="-6.224650">
        <ele>768.581</ele>
        <time>2020-05-21T20:39:10Z</time>
      </trkpt>
      <trkpt lat="43.104030" lon="-6.224550">
        <ele>769.847</ele>
        <time>2020-05-21T20:39:30Z</time>
      </trkpt>
      <trkpt lat="43.104020" lon="-6.224360">
        <ele>772.276</ele>
        <time>2020-05-21T20:39:50Z</time>
      </trkpt>
      <trkpt lat="43.104010" lon="-6.224310">
        <ele>772.517</ele>
        <time>2020-05-21T20:40:10Z</time>
      </trkpt>
      <trkpt lat="43.103980" lon="-6.224070">
        <ele>776.146</ele>
        <time>2020-05-21T20:40:30Z</time>
      </trkpt>
      <trkpt lat="43.103980" lon="-6.224050">
        <ele>776.799</ele>
        <time>2020-05-21T20:40:50Z</time>
      </trkpt>
      <trkpt lat="43.103930" lon="-6.223890">
        <ele>777.949</ele>
        <time>2020-05-21T20:41:10Z</time>
      </trkpt>
      <trkpt lat="43.103910" lon="-6.223840">
        <ele>777.502</ele>
        <time>2020-05-21T20:41:30Z</time>
      </trkpt>
      <trkpt lat="43.103890" lon="-6.223790">
        <ele>777.222</ele>
        <time>2020-05-21T20:41:50Z</time>
      </trkpt>
      <trkpt lat="43.103800" lon="-6.223640">
        <ele>776.508</ele>
        <time>2020-05-21T20:42:10Z</time>
      </trkpt>
      <trkpt lat="43.103760" lon="-6.223570">
        <ele>776.528</ele>
        <time>2020-05-21T20:42:30Z</time>
      </trkpt>
      <trkpt lat="43.103720" lon="-6.223460">
        <ele>777.843</ele>
        <time>2020-05-21T20:42:50Z</time>
      </trkpt>
      <trkpt lat="43.103690" lon="-6.223320">
        <ele>780.320</ele>
        <time>2020-05-21T20:43:10Z</time>
      </trkpt>
      <trkpt lat="43.103630" lon="-6.223040">
        <ele>781.046</ele>
        <time>2020-05-21T20:43:30Z</time>
      </trkpt>
      <trkpt lat="43.103600" lon="-6.222800">
        <ele>784.365</ele>
        <time>2020-05-21T20:43:50Z</time>
      </trkpt>
      <trkpt lat="43.103590" lon="-6.222710">
        <ele>785.736</ele>
        <time>2020-05-21T20:44:10Z</time>
      </trkpt>
      <trkpt lat="43.103540" lon="-6.222370">
        <ele>788.625</ele>
        <time>2020-05-21T20:44:30Z</time>
      </trkpt>
      <trkpt lat="43.103520" lon="-6.222190">
        <ele>788.998</ele>
        <time>2020-05-21T20:44:50Z</time>
      </trkpt>
      <trkpt lat="43.103520" lon="-6.222110">
        <ele>788.676</ele>
        <time>2020-05-21T20:45:10Z</time>
      </trkpt>
      <trkpt lat="43.103530" lon="-6.222040">
        <ele>788.390</ele>
        <time>2020-05-21T20:45:30Z</time>
      </trkpt>
      <trkpt lat="43.103540" lon="-6.221990">
        <ele>788.019</ele>
        <time>2020-05-21T20:45:50Z</time>
      </trkpt>
      <trkpt lat="43.103550" lon="-6.221960">
        <ele>787.808</ele>
        <time>2020-05-21T20:46:10Z</time>
      </trkpt>
      <trkpt lat="43.103580" lon="-6.221910">
        <ele>787.671</ele>
        <time>2020-05-21T20:46:30Z</time>
      </trkpt>
      <trkpt lat="43.103720" lon="-6.221600">
        <ele>791.196</ele>
        <time>2020-05-21T20:46:50Z</time>
      </trkpt>
      <trkpt lat="43.103730" lon="-6.221570">
        <ele>791.013</ele>
        <time>2020-05-21T20:47:10Z</time>
      </trkpt>
      <trkpt lat="43.103970" lon="-6.220900">
        <ele>787.229</ele>
        <time>2020-05-21T20:47:30Z</time>
      </trkpt>
      <trkpt lat="43.104060" lon="-6.220670">
        <ele>787.688</ele>
        <time>2020-05-21T20:47:50Z</time>
      </trkpt>
      <trkpt lat="43.104290" lon="-6.220020">
        <ele>789.059</ele>
        <time>2020-05-21T20:48:10Z</time>
      </trkpt>
      <trkpt lat="43.104300" lon="-6.220000">
        <ele>788.948</ele>
        <time>2020-05-21T20:48:30Z</time>
      </trkpt>
      <trkpt lat="43.104380" lon="-6.219810">
        <ele>788.091</ele>
        <time>2020-05-21T20:48:50Z</time>
      </trkpt>
      <trkpt lat="43.104420" lon="-6.219720">
        <ele>787.581</ele>
        <time>2020-05-21T20:49:10Z</time>
      </trkpt>
      <trkpt lat="43.104480" lon="-6.219600">
        <ele>787.361</ele>
        <time>2020-05-21T20:49:30Z</time>
      </trkpt>
      <trkpt lat="43.104500" lon="-6.219560">
        <ele>787.317</ele>
        <time>2020-05-21T20:49:50Z</time>
      </trkpt>
      <trkpt lat="43.104560" lon="-6.219410">
        <ele>787.008</ele>
        <time>2020-05-21T20:50:10Z</time>
      </trkpt>
      <trkpt lat="43.104560" lon="-6.219390">
        <ele>786.962</ele>
        <time>2020-05-21T20:50:30Z</time>
      </trkpt>
      <trkpt lat="43.104570" lon="-6.219350">
        <ele>786.857</ele>
        <time>2020-05-21T20:50:50Z</time>
      </trkpt>
      <trkpt lat="43.104600" lon="-6.219240">
        <ele>786.654</ele>
        <time>2020-05-21T20:51:10Z</time>
      </trkpt>
      <trkpt lat="43.104600" lon="-6.219160">
        <ele>785.850</ele>
        <time>2020-05-21T20:51:30Z</time>
      </trkpt>
      <trkpt lat="43.104600" lon="-6.219050">
        <ele>784.789</ele>
        <time>2020-05-21T20:51:50Z</time>
      </trkpt>
      <trkpt lat="43.104600" lon="-6.218900">
        <ele>783.030</ele>
        <time>2020-05-21T20:52:10Z</time>
      </trkpt>
      <trkpt lat="43.104600" lon="-6.218830">
        <ele>782.929</ele>
        <time>2020-05-21T20:52:30Z</time>
      </trkpt>
      <trkpt lat="43.104610" lon="-6.218730">
        <ele>783.352</ele>
        <time>2020-05-21T20:52:50Z</time>
      </trkpt>
      <trkpt lat="43.104620" lon="-6.218650">
        <ele>783.759</ele>
        <time>2020-05-21T20:53:10Z</time>
      </trkpt>
      <trkpt lat="43.104620" lon="-6.218610">
        <ele>783.703</ele>
        <time>2020-05-21T20:53:30Z</time>
      </trkpt>
      <trkpt lat="43.104670" lon="-6.218420">
        <ele>787.223</ele>
        <time>2020-05-21T20:53:50Z</time>
      </trkpt>
      <trkpt lat="43.104720" lon="-6.218180">
        <ele>790.508</ele>
        <time>2020-05-21T20:54:10Z</time>
      </trkpt>
      <trkpt lat="43.104730" lon="-6.218140">
        <ele>791.019</ele>
        <time>2020-05-21T20:54:30Z</time>
      </trkpt>
      <trkpt lat="43.104750" lon="-6.218050">
        <ele>792.174</ele>
        <time>2020-05-21T20:54:50Z</time>
      </trkpt>
      <trkpt lat="43.104760" lon="-6.217960">
        <ele>792.251</ele>
        <time>2020-05-21T20:55:10Z</time>
      </trkpt>
      <trkpt lat="43.104770" lon="-6.217890">
        <ele>792.387</ele>
        <time>2020-05-21T20:55:30Z</time>
      </trkpt>
      <trkpt lat="43.104770" lon="-6.217810">
        <ele>792.026</ele>
        <time>2020-05-21T20:55:50Z</time>
      </trkpt>
      <trkpt lat="43.104770" lon="-6.217720">
        <ele>791.677</ele>
        <time>2020-05-21T20:56:10Z</time>
      </trkpt>
      <trkpt lat="43.104770" lon="-6.217450">
        <ele>790.486</ele>
        <time>2020-05-21T20:56:30Z</time>
      </trkpt>
      <trkpt lat="43.104780" lon="-6.217270">
        <ele>790.729</ele>
        <time>2020-05-21T20:56:50Z</time>
      </trkpt>
      <trkpt lat="43.104770" lon="-6.216960">
        <ele>789.314</ele>
        <time>2020-05-21T20:57:10Z</time>
      </trkpt>
      <trkpt lat="43.104770" lon="-6.216920">
        <ele>789.354</ele>
        <time>2020-05-21T20:57:30Z</time>
      </trkpt>
      <trkpt lat="43.104770" lon="-6.216820">
        <ele>789.609</ele>
        <time>2020-05-21T20:57:50Z</time>
      </trkpt>
      <trkpt lat="43.104760" lon="-6.216730">
        <ele>789.408</ele>
        <time>2020-05-21T20:58:10Z</time>
      </trkpt>
      <trkpt lat="43.104720" lon="-6.216580">
        <ele>788.055</ele>
        <time>2020-05-21T20:58:30Z</time>
      </trkpt>
      <trkpt lat="43.104700" lon="-6.216480">
        <ele>787.640</ele>
        <time>2020-05-21T20:58:50Z</time>
      </trkpt>
      <trkpt lat="43.104670" lon="-6.216370">
        <ele>787.537</ele>
        <time>2020-05-21T20:59:10Z</time>
      </trkpt>
      <trkpt lat="43.104630" lon="-6.216260">
        <ele>788.183</ele>
        <time>2020-05-21T20:59:30Z</time>
      </trkpt>
      <trkpt lat="43.104560" lon="-6.216130">
        <ele>787.812</ele>
        <time>2020-05-21T20:59:50Z</time>
      </trkpt>
      <trkpt lat="43.104520" lon="-6.216060">
        <ele>787.113</ele>
        <time>2020-05-21T21:00:10Z</time>
      </trkpt>
      <trkpt lat="43.104480" lon="-6.215990">
        <ele>786.112</ele>
        <time>2020-05-21T21:00:30Z</time>
      </trkpt>
      <trkpt lat="43.104430" lon="-6.215910">
        <ele>785.095</ele>
        <time>2020-05-21T21:00:50Z</time>
      </trkpt>
      <trkpt lat="43.104310" lon="-6.215740">
        <ele>784.842</ele>
        <time>2020-05-21T21:01:10Z</time>
      </trkpt>
      <trkpt lat="43.104060" lon="-6.215380">
        <ele>784.722</ele>
        <time>2020-05-21T21:01:30Z</time>
      </trkpt>
      <trkpt lat="43.103940" lon="-6.215200">
        <ele>785.414</ele>
        <time>2020-05-21T21:01:50Z</time>
      </trkpt>
      <trkpt lat="43.103930" lon="-6.215190">
        <ele>785.408</ele>
        <time>2020-05-21T21:02:10Z</time>
      </trkpt>
      <trkpt lat="43.103780" lon="-6.215010">
        <ele>785.658</ele>
        <time>2020-05-21T21:02:30Z</time>
      </trkpt>
      <trkpt lat="43.103750" lon="-6.214970">
        <ele>785.853</ele>
        <time>2020-05-21T21:02:50Z</time>
      </trkpt>
      <trkpt lat="43.103710" lon="-6.214940">
        <ele>785.850</ele>
        <time>2020-05-21T21:03:10Z</time>
      </trkpt>
      <trkpt lat="43.103660" lon="-6.214910">
        <ele>785.786</ele>
        <time>2020-05-21T21:03:30Z</time>
      </trkpt>
      <trkpt lat="43.103490" lon="-6.214800">
        <ele>788.195</ele>
        <time>2020-05-21T21:03:50Z</time>
      </trkpt>
      <trkpt lat="43.103210" lon="-6.214650">
        <ele>791.566</ele>
        <time>2020-05-21T21:04:10Z</time>
      </trkpt>
      <trkpt lat="43.103040" lon="-6.214560">
        <ele>793.055</ele>
        <time>2020-05-21T21:04:30Z</time>
      </trkpt>
      <trkpt lat="43.102940" lon="-6.214490">
        <ele>793.448</ele>
        <time>2020-05-21T21:04:50Z</time>
      </trkpt>
      <trkpt lat="43.102820" lon="-6.214440">
        <ele>793.783</ele>
        <time>2020-05-21T21:05:10Z</time>
      </trkpt>
      <trkpt lat="43.102770" lon="-6.214420">
        <ele>794.025</ele>
        <time>2020-05-21T21:05:30Z</time>
      </trkpt>
      <trkpt lat="43.102730" lon="-6.214400">
        <ele>793.917</ele>
        <time>2020-05-21T21:05:50Z</time>
      </trkpt>
      <trkpt lat="43.102640" lon="-6.214370">
        <ele>793.708</ele>
        <time>2020-05-21T21:06:10Z</time>
      </trkpt>
      <trkpt lat="43.102510" lon="-6.214270">
        <ele>792.892</ele>
        <time>2020-05-21T21:06:30Z</time>
      </trkpt>
      <trkpt lat="43.102400" lon="-6.214190">
        <ele>794.077</ele>
        <time>2020-05-21T21:06:50Z</time>
      </trkpt>
      <trkpt lat="43.102380" lon="-6.214170">
        <ele>794.244</ele>
        <time>2020-05-21T21:07:10Z</time>
      </trkpt>
      <trkpt lat="43.102240" lon="-6.213970">
        <ele>796.230</ele>
        <time>2020-05-21T21:07:30Z</time>
      </trkpt>
      <trkpt lat="43.102090" lon="-6.213780">
        <ele>797.019</ele>
        <time>2020-05-21T21:07:50Z</time>
      </trkpt>
      <trkpt lat="43.102030" lon="-6.213720">
        <ele>796.920</ele>
        <time>2020-05-21T21:08:10Z</time>
      </trkpt>
      <trkpt lat="43.101960" lon="-6.213650">
        <ele>796.419</ele>
        <time>2020-05-21T21:08:30Z</time>
      </trkpt>
      <trkpt lat="43.101770" lon="-6.213460">
        <ele>797.572</ele>
        <time>2020-05-21T21:08:50Z</time>
      </trkpt>
      <trkpt lat="43.101640" lon="-6.213320">
        <ele>796.995</ele>
        <time>2020-05-21T21:09:10Z</time>
      </trkpt>
      <trkpt lat="43.101500" lon="-6.213170">
        <ele>796.049</ele>
        <time>2020-05-21T21:09:30Z</time>
      </trkpt>
      <trkpt lat="43.101270" lon="-6.212940">
        <ele>796.523</ele>
        <time>2020-05-21T21:09:50Z</time>
      </trkpt>
      <trkpt lat="43.101220" lon="-6.212860">
        <ele>797.308</ele>
        <time>2020-05-21T21:10:10Z</time>
      </trkpt>
      <trkpt lat="43.101200" lon="-6.212830">
        <ele>797.693</ele>
        <time>2020-05-21T21:10:30Z</time>
      </trkpt>
      <trkpt lat="43.101150" lon="-6.212720">
        <ele>798.448</ele>
        <time>2020-05-21T21:10:50Z</time>
      </trkpt>
      <trkpt lat="43.101140" lon="-6.212650">
        <ele>798.735</ele>
        <time>2020-05-21T21:11:10Z</time>
      </trkpt>
      <trkpt lat="43.101130" lon="-6.212630">
        <ele>798.761</ele>
        <time>2020-05-21T21:11:30Z</time>
      </trkpt>
      <trkpt lat="43.101130" lon="-6.212520">
        <ele>799.240</ele>
        <time>2020-05-21T21:11:50Z</time>
      </trkpt>
      <trkpt lat="43.101130" lon="-6.212460">
        <ele>799.651</ele>
        <time>2020-05-21T21:12:10Z</time>
      </trkpt>
      <trkpt lat="43.101140" lon="-6.212410">
        <ele>800.220</ele>
        <time>2020-05-21T21:12:30Z</time>
      </trkpt>
      <trkpt lat="43.101160" lon="-6.212350">
        <ele>801.073</ele>
        <time>2020-05-21T21:12:50Z</time>
      </trkpt>
      <trkpt lat="43.101260" lon="-6.211970">
        <ele>803.778</ele>
        <time>2020-05-21T21:13:10Z</time>
      </trkpt>
      <trkpt lat="43.101270" lon="-6.211940">
        <ele>804.033</ele>
        <time>2020-05-21T21:13:30Z</time>
      </trkpt>
      <trkpt lat="43.101290" lon="-6.211790">
        <ele>805.126</ele>
        <time>2020-05-21T21:13:50Z</time>
      </trkpt>
      <trkpt lat="43.101290" lon="-6.211770">
        <ele>805.208</ele>
        <time>2020-05-21T21:14:10Z</time>
      </trkpt>
      <trkpt lat="43.101300" lon="-6.211650">
        <ele>805.951</ele>
        <time>2020-05-21T21:14:30Z</time>
      </trkpt>
      <trkpt lat="43.101290" lon="-6.211540">
        <ele>807.276</ele>
        <time>2020-05-21T21:14:50Z</time>
      </trkpt>
      <trkpt lat="43.101270" lon="-6.211440">
        <ele>808.253</ele>
        <time>2020-05-21T21:15:10Z</time>
      </trkpt>
      <trkpt lat="43.101210" lon="-6.211300">
        <ele>809.359</ele>
        <time>2020-05-21T21:15:30Z</time>
      </trkpt>
      <trkpt lat="43.101220" lon="-6.211290">
        <ele>809.788</ele>
        <time>2020-05-21T21:15:50Z</time>
      </trkpt>
      <trkpt lat="43.101040" lon="-6.210890">
        <ele>812.299</ele>
        <time>2020-05-21T21:16:10Z</time>
      </trkpt>
      <trkpt lat="43.100980" lon="-6.210720">
        <ele>812.658</ele>
        <time>2020-05-21T21:16:30Z</time>
      </trkpt>
      <trkpt lat="43.100960" lon="-6.210610">
        <ele>812.351</ele>
        <time>2020-05-21T21:16:50Z</time>
      </trkpt>
      <trkpt lat="43.100960" lon="-6.210510">
        <ele>812.312</ele>
        <time>2020-05-21T21:17:10Z</time>
      </trkpt>
      <trkpt lat="43.100960" lon="-6.210480">
        <ele>812.432</ele>
        <time>2020-05-21T21:17:30Z</time>
      </trkpt>
      <trkpt lat="43.100970" lon="-6.210380">
        <ele>812.805</ele>
        <time>2020-05-21T21:17:50Z</time>
      </trkpt>
      <trkpt lat="43.100990" lon="-6.210250">
        <ele>813.608</ele>
        <time>2020-05-21T21:18:10Z</time>
      </trkpt>
      <trkpt lat="43.101010" lon="-6.209960">
        <ele>815.115</ele>
        <time>2020-05-21T21:18:30Z</time>
      </trkpt>
      <trkpt lat="43.101010" lon="-6.209810">
        <ele>815.380</ele>
        <time>2020-05-21T21:18:50Z</time>
      </trkpt>
      <trkpt lat="43.100990" lon="-6.209740">
        <ele>814.987</ele>
        <time>2020-05-21T21:19:10Z</time>
      </trkpt>
      <trkpt lat="43.100970" lon="-6.209630">
        <ele>815.143</ele>
        <time>2020-05-21T21:19:30Z</time>
      </trkpt>
      <trkpt lat="43.100920" lon="-6.209450">
        <ele>814.422</ele>
        <time>2020-05-21T21:19:50Z</time>
      </trkpt>
      <trkpt lat="43.100850" lon="-6.209270">
        <ele>813.053</ele>
        <time>2020-05-21T21:20:10Z</time>
      </trkpt>
      <trkpt lat="43.100790" lon="-6.209140">
        <ele>813.612</ele>
        <time>2020-05-21T21:20:30Z</time>
      </trkpt>
      <trkpt lat="43.100730" lon="-6.209070">
        <ele>814.665</ele>
        <time>2020-05-21T21:20:50Z</time>
      </trkpt>
      <trkpt lat="43.100660" lon="-6.209000">
        <ele>814.432</ele>
        <time>2020-05-21T21:21:10Z</time>
      </trkpt>
      <trkpt lat="43.100600" lon="-6.208970">
        <ele>813.292</ele>
        <time>2020-05-21T21:21:30Z</time>
      </trkpt>
      <trkpt lat="43.100590" lon="-6.208970">
        <ele>812.911</ele>
        <time>2020-05-21T21:21:50Z</time>
      </trkpt>
      <trkpt lat="43.100480" lon="-6.208920">
        <ele>812.708</ele>
        <time>2020-05-21T21:22:10Z</time>
      </trkpt>
      <trkpt lat="43.100330" lon="-6.208880">
        <ele>813.927</ele>
        <time>2020-05-21T21:22:30Z</time>
      </trkpt>
      <trkpt lat="43.100250" lon="-6.208870">
        <ele>815.042</ele>
        <time>2020-05-21T21:22:50Z</time>
      </trkpt>
      <trkpt lat="43.100130" lon="-6.208850">
        <ele>817.059</ele>
        <time>2020-05-21T21:23:10Z</time>
      </trkpt>
      <trkpt lat="43.100040" lon="-6.208840">
        <ele>818.015</ele>
        <time>2020-05-21T21:23:30Z</time>
      </trkpt>
      <trkpt lat="43.099990" lon="-6.208810">
        <ele>818.274</ele>
        <time>2020-05-21T21:23:50Z</time>
      </trkpt>
      <trkpt lat="43.099930" lon="-6.208770">
        <ele>818.015</ele>
        <time>2020-05-21T21:24:10Z</time>
      </trkpt>
      <trkpt lat="43.099910" lon="-6.208740">
        <ele>817.764</ele>
        <time>2020-05-21T21:24:30Z</time>
      </trkpt>
      <trkpt lat="43.099870" lon="-6.208710">
        <ele>817.377</ele>
        <time>2020-05-21T21:24:50Z</time>
      </trkpt>
      <trkpt lat="43.099820" lon="-6.208640">
        <ele>815.975</ele>
        <time>2020-05-21T21:25:10Z</time>
      </trkpt>
      <trkpt lat="43.099790" lon="-6.208560">
        <ele>815.728</ele>
        <time>2020-05-21T21:25:30Z</time>
      </trkpt>
      <trkpt lat="43.099770" lon="-6.208470">
        <ele>816.220</ele>
        <time>2020-05-21T21:25:50Z</time>
      </trkpt>
      <trkpt lat="43.099750" lon="-6.208330">
        <ele>816.808</ele>
        <time>2020-05-21T21:26:10Z</time>
      </trkpt>
      <trkpt lat="43.099750" lon="-6.208320">
        <ele>817.031</ele>
        <time>2020-05-21T21:26:30Z</time>
      </trkpt>
      <trkpt lat="43.099720" lon="-6.208060">
        <ele>820.996</ele>
        <time>2020-05-21T21:26:50Z</time>
      </trkpt>
      <trkpt lat="43.099670" lon="-6.207720">
        <ele>825.153</ele>
        <time>2020-05-21T21:27:10Z</time>
      </trkpt>
      <trkpt lat="43.099660" lon="-6.207630">
        <ele>825.459</ele>
        <time>2020-05-21T21:27:30Z</time>
      </trkpt>
      <trkpt lat="43.099650" lon="-6.207600">
        <ele>825.418</ele>
        <time>2020-05-21T21:27:50Z</time>
      </trkpt>
      <trkpt lat="43.099610" lon="-6.207470">
        <ele>824.859</ele>
        <time>2020-05-21T21:28:10Z</time>
      </trkpt>
      <trkpt lat="43.099560" lon="-6.207310">
        <ele>822.688</ele>
        <time>2020-05-21T21:28:30Z</time>
      </trkpt>
      <trkpt lat="43.099490" lon="-6.207170">
        <ele>820.721</ele>
        <time>2020-05-21T21:28:50Z</time>
      </trkpt>
      <trkpt lat="43.099490" lon="-6.207160">
        <ele>820.863</ele>
        <time>2020-05-21T21:29:10Z</time>
      </trkpt>
      <trkpt lat="43.099370" lon="-6.207000">
        <ele>822.144</ele>
        <time>2020-05-21T21:29:30Z</time>
      </trkpt>
      <trkpt lat="43.099360" lon="-6.206990">
        <ele>822.318</ele>
        <time>2020-05-21T21:29:50Z</time>
      </trkpt>
      <trkpt lat="43.099120" lon="-6.206760">
        <ele>825.808</ele>
        <time>2020-05-21T21:30:10Z</time>
      </trkpt>
      <trkpt lat="43.099060" lon="-6.206710">
        <ele>825.990</ele>
        <time>2020-05-21T21:30:30Z</time>
      </trkpt>
      <trkpt lat="43.098900" lon="-6.206590">
        <ele>826.285</ele>
        <time>2020-05-21T21:30:50Z</time>
      </trkpt>
      <trkpt lat="43.098580" lon="-6.206360">
        <ele>825.772</ele>
        <time>2020-05-21T21:31:10Z</time>
      </trkpt>
      <trkpt lat="43.098460" lon="-6.206270">
        <ele>826.718</ele>
        <time>2020-05-21T21:31:30Z</time>
      </trkpt>
      <trkpt lat="43.098430" lon="-6.206240">
        <ele>826.827</ele>
        <time>2020-05-21T21:31:50Z</time>
      </trkpt>
      <trkpt lat="43.098350" lon="-6.206170">
        <ele>826.298</ele>
        <time>2020-05-21T21:32:10Z</time>
      </trkpt>
      <trkpt lat="43.098320" lon="-6.206140">
        <ele>826.327</ele>
        <time>2020-05-21T21:32:30Z</time>
      </trkpt>
      <trkpt lat="43.098280" lon="-6.206080">
        <ele>827.870</ele>
        <time>2020-05-21T21:32:50Z</time>
      </trkpt>
      <trkpt lat="43.098270" lon="-6.206040">
        <ele>828.559</ele>
        <time>2020-05-21T21:33:10Z</time>
      </trkpt>
      <trkpt lat="43.098260" lon="-6.206020">
        <ele>828.903</ele>
        <time>2020-05-21T21:33:30Z</time>
      </trkpt>
      <trkpt lat="43.098250" lon="-6.205960">
        <ele>829.723</ele>
        <time>2020-05-21T21:33:50Z</time>
      </trkpt>
      <trkpt lat="43.098250" lon="-6.205870">
        <ele>830.608</ele>
        <time>2020-05-21T21:34:10Z</time>
      </trkpt>
      <trkpt lat="43.098250" lon="-6.205850">
        <ele>830.839</ele>
        <time>2020-05-21T21:34:30Z</time>
      </trkpt>
      <trkpt lat="43.098260" lon="-6.205800">
        <ele>831.224</ele>
        <time>2020-05-21T21:34:50Z</time>
      </trkpt>
      <trkpt lat="43.098290" lon="-6.205710">
        <ele>831.581</ele>
        <time>2020-05-21T21:35:10Z</time>
      </trkpt>
      <trkpt lat="43.098320" lon="-6.205630">
        <ele>831.817</ele>
        <time>2020-05-21T21:35:30Z</time>
      </trkpt>
      <trkpt lat="43.098420" lon="-6.205430">
        <ele>835.716</ele>
        <time>2020-05-21T21:35:50Z</time>
      </trkpt>
      <trkpt lat="43.098520" lon="-6.205220">
        <ele>839.677</ele>
        <time>2020-05-21T21:36:10Z</time>
      </trkpt>
      <trkpt lat="43.098610" lon="-6.205030">
        <ele>842.046</ele>
        <time>2020-05-21T21:36:30Z</time>
      </trkpt>
      <trkpt lat="43.098670" lon="-6.204900">
        <ele>843.579</ele>
        <time>2020-05-21T21:36:50Z</time>
      </trkpt>
      <trkpt lat="43.098710" lon="-6.204800">
        <ele>844.424</ele>
        <time>2020-05-21T21:37:10Z</time>
      </trkpt>
      <trkpt lat="43.098790" lon="-6.204580">
        <ele>845.404</ele>
        <time>2020-05-21T21:37:30Z</time>
      </trkpt>
      <trkpt lat="43.098870" lon="-6.204360">
        <ele>844.614</ele>
        <time>2020-05-21T21:37:50Z</time>
      </trkpt>
      <trkpt lat="43.098900" lon="-6.204260">
        <ele>843.708</ele>
        <time>2020-05-21T21:38:10Z</time>
      </trkpt>
      <trkpt lat="43.098940" lon="-6.204130">
        <ele>843.986</ele>
        <time>2020-05-21T21:38:30Z</time>
      </trkpt>
      <trkpt lat="43.098970" lon="-6.204020">
        <ele>845.021</ele>
        <time>2020-05-21T21:38:50Z</time>
      </trkpt>
      <trkpt lat="43.098980" lon="-6.203940">
        <ele>845.018</ele>
        <time>2020-05-21T21:39:10Z</time>
      </trkpt>
      <trkpt lat="43.098980" lon="-6.203900">
        <ele>844.714</ele>
        <time>2020-05-21T21:39:30Z</time>
      </trkpt>
      <trkpt lat="43.098980" lon="-6.203880">
        <ele>844.633</ele>
        <time>2020-05-21T21:39:50Z</time>
      </trkpt>
      <trkpt lat="43.098960" lon="-6.203760">
        <ele>844.064</ele>
        <time>2020-05-21T21:40:10Z</time>
      </trkpt>
      <trkpt lat="43.098950" lon="-6.203680">
        <ele>843.983</ele>
        <time>2020-05-21T21:40:30Z</time>
      </trkpt>
      <trkpt lat="43.098940" lon="-6.203660">
        <ele>843.676</ele>
        <time>2020-05-21T21:40:50Z</time>
      </trkpt>
      <trkpt lat="43.098900" lon="-6.203590">
        <ele>842.756</ele>
        <time>2020-05-21T21:41:10Z</time>
      </trkpt>
      <trkpt lat="43.098860" lon="-6.203520">
        <ele>842.859</ele>
        <time>2020-05-21T21:41:30Z</time>
      </trkpt>
      <trkpt lat="43.098820" lon="-6.203470">
        <ele>842.914</ele>
        <time>2020-05-21T21:41:50Z</time>
      </trkpt>
      <trkpt lat="43.098820" lon="-6.203460">
        <ele>843.108</ele>
        <time>2020-05-21T21:42:10Z</time>
      </trkpt>
      <trkpt lat="43.098680" lon="-6.203320">
        <ele>843.349</ele>
        <time>2020-05-21T21:42:30Z</time>
      </trkpt>
      <trkpt lat="43.098620" lon="-6.203250">
        <ele>844.294</ele>
        <time>2020-05-21T21:42:50Z</time>
      </trkpt>
      <trkpt lat="43.098530" lon="-6.203180">
        <ele>847.661</ele>
        <time>2020-05-21T21:43:10Z</time>
      </trkpt>
      <trkpt lat="43.098440" lon="-6.203090">
        <ele>850.977</ele>
        <time>2020-05-21T21:43:30Z</time>
      </trkpt>
      <trkpt lat="43.098380" lon="-6.203000">
        <ele>852.726</ele>
        <time>2020-05-21T21:43:50Z</time>
      </trkpt>
      <trkpt lat="43.098340" lon="-6.202890">
        <ele>853.647</ele>
        <time>2020-05-21T21:44:10Z</time>
      </trkpt>
      <trkpt lat="43.098320" lon="-6.202820">
        <ele>854.916</ele>
        <time>2020-05-21T21:44:30Z</time>
      </trkpt>
      <trkpt lat="43.098310" lon="-6.202710">
        <ele>855.199</ele>
        <time>2020-05-21T21:44:50Z</time>
      </trkpt>
      <trkpt lat="43.098330" lon="-6.202590">
        <ele>852.997</ele>
        <time>2020-05-21T21:45:10Z</time>
      </trkpt>
      <trkpt lat="43.098330" lon="-6.202570">
        <ele>852.723</ele>
        <time>2020-05-21T21:45:30Z</time>
      </trkpt>
      <trkpt lat="43.098360" lon="-6.202460">
        <ele>852.425</ele>
        <time>2020-05-21T21:45:50Z</time>
      </trkpt>
      <trkpt lat="43.098560" lon="-6.201930">
        <ele>854.508</ele>
        <time>2020-05-21T21:46:10Z</time>
      </trkpt>
      <trkpt lat="43.098570" lon="-6.201900">
        <ele>854.683</ele>
        <time>2020-05-21T21:46:30Z</time>
      </trkpt>
      <trkpt lat="43.098700" lon="-6.201600">
        <ele>856.658</ele>
        <time>2020-05-21T21:46:50Z</time>
      </trkpt>
      <trkpt lat="43.098750" lon="-6.201480">
        <ele>856.865</ele>
        <time>2020-05-21T21:47:10Z</time>
      </trkpt>
      <trkpt lat="43.098850" lon="-6.201270">
        <ele>858.571</ele>
        <time>2020-05-21T21:47:30Z</time>
      </trkpt>
      <trkpt lat="43.098870" lon="-6.201200">
        <ele>858.820</ele>
        <time>2020-05-21T21:47:50Z</time>
      </trkpt>
      <trkpt lat="43.098880" lon="-6.201140">
        <ele>858.851</ele>
        <time>2020-05-21T21:48:10Z</time>
      </trkpt>
      <trkpt lat="43.098890" lon="-6.201070">
        <ele>858.990</ele>
        <time>2020-05-21T21:48:30Z</time>
      </trkpt>
      <trkpt lat="43.098920" lon="-6.200910">
        <ele>860.263</ele>
        <time>2020-05-21T21:48:50Z</time>
      </trkpt>
      <trkpt lat="43.098950" lon="-6.200760">
        <ele>861.162</ele>
        <time>2020-05-21T21:49:10Z</time>
      </trkpt>
      <trkpt lat="43.098970" lon="-6.200670">
        <ele>861.483</ele>
        <time>2020-05-21T21:49:30Z</time>
      </trkpt>
      <trkpt lat="43.098990" lon="-6.200520">
        <ele>861.111</ele>
        <time>2020-05-21T21:49:50Z</time>
      </trkpt>
      <trkpt lat="43.099020" lon="-6.200430">
        <ele>861.708</ele>
        <time>2020-05-21T21:50:10Z</time>
      </trkpt>
      <trkpt lat="43.099020" lon="-6.200410">
        <ele>861.510</ele>
        <time>2020-05-21T21:50:30Z</time>
      </trkpt>
      <trkpt lat="43.099040" lon="-6.200340">
        <ele>861.895</ele>
        <time>2020-05-21T21:50:50Z</time>
      </trkpt>
      <trkpt lat="43.099070" lon="-6.200260">
        <ele>862.522</ele>
        <time>2020-05-21T21:51:10Z</time>
      </trkpt>
      <trkpt lat="43.099100" lon="-6.200180">
        <ele>863.048</ele>
        <time>2020-05-21T21:51:30Z</time>
      </trkpt>
      <trkpt lat="43.099160" lon="-6.200050">
        <ele>863.657</ele>
        <time>2020-05-21T21:51:50Z</time>
      </trkpt>
      <trkpt lat="43.099190" lon="-6.200000">
        <ele>864.438</ele>
        <time>2020-05-21T21:52:10Z</time>
      </trkpt>
      <trkpt lat="43.099250" lon="-6.199860">
        <ele>869.557</ele>
        <time>2020-05-21T21:52:30Z</time>
      </trkpt>
      <trkpt lat="43.099270" lon="-6.199790">
        <ele>871.390</ele>
        <time>2020-05-21T21:52:50Z</time>
      </trkpt>
      <trkpt lat="43.099280" lon="-6.199740">
        <ele>872.488</ele>
        <time>2020-05-21T21:53:10Z</time>
      </trkpt>
      <trkpt lat="43.099280" lon="-6.199630">
        <ele>872.524</ele>
        <time>2020-05-21T21:53:30Z</time>
      </trkpt>
      <trkpt lat="43.099280" lon="-6.199540">
        <ele>872.426</ele>
        <time>2020-05-21T21:53:50Z</time>
      </trkpt>
      <trkpt lat="43.099280" lon="-6.199430">
        <ele>872.308</ele>
        <time>2020-05-21T21:54:10Z</time>
      </trkpt>
      <trkpt lat="43.099270" lon="-6.199310">
        <ele>871.462</ele>
        <time>2020-05-21T21:54:30Z</time>
      </trkpt>
      <trkpt lat="43.099230" lon="-6.199060">
        <ele>868.817</ele>
        <time>2020-05-21T21:54:50Z</time>
      </trkpt>
      <trkpt lat="43.099230" lon="-6.199040">
        <ele>868.954</ele>
        <time>2020-05-21T21:55:10Z</time>
      </trkpt>
      <trkpt lat="43.099190" lon="-6.198740">
        <ele>867.240</ele>
        <time>2020-05-21T21:55:30Z</time>
      </trkpt>
      <trkpt lat="43.099110" lon="-6.198180">
        <ele>866.769</ele>
        <time>2020-05-21T21:55:50Z</time>
      </trkpt>
      <trkpt lat="43.099100" lon="-6.198010">
        <ele>867.590</ele>
        <time>2020-05-21T21:56:10Z</time>
      </trkpt>
      <trkpt lat="43.099090" lon="-6.197890">
        <ele>868.029</ele>
        <time>2020-05-21T21:56:30Z</time>
      </trkpt>
      <trkpt lat="43.099090" lon="-6.197840">
        <ele>868.562</ele>
        <time>2020-05-21T21:56:50Z</time>
      </trkpt>
      <trkpt lat="43.099100" lon="-6.197730">
        <ele>869.877</ele>
        <time>2020-05-21T21:57:10Z</time>
      </trkpt>
      <trkpt lat="43.099100" lon="-6.197630">
        <ele>870.761</ele>
        <time>2020-05-21T21:57:30Z</time>
      </trkpt>
      <trkpt lat="43.099100" lon="-6.197600">
        <ele>870.927</ele>
        <time>2020-05-21T21:57:50Z</time>
      </trkpt>
      <trkpt lat="43.099150" lon="-6.197110">
        <ele>872.908</ele>
        <time>2020-05-21T21:58:10Z</time>
      </trkpt>
      <trkpt lat="43.099180" lon="-6.196860">
        <ele>875.251</ele>
        <time>2020-05-21T21:58:30Z</time>
      </trkpt>
      <trkpt lat="43.099180" lon="-6.196800">
        <ele>875.486</ele>
        <time>2020-05-21T21:58:50Z</time>
      </trkpt>
      <trkpt lat="43.099220" lon="-6.196430">
        <ele>881.273</ele>
        <time>2020-05-21T21:59:10Z</time>
      </trkpt>
      <trkpt lat="43.099240" lon="-6.196210">
        <ele>884.329</ele>
        <time>2020-05-21T21:59:30Z</time>
      </trkpt>
      <trkpt lat="43.099240" lon="-6.196100">
        <ele>885.328</ele>
        <time>2020-05-21T21:59:50Z</time>
      </trkpt>
      <trkpt lat="43.099240" lon="-6.196010">
        <ele>887.479</ele>
        <time>2020-05-21T22:00:10Z</time>
      </trkpt>
      <trkpt lat="43.099230" lon="-6.195940">
        <ele>888.378</ele>
        <time>2020-05-21T22:00:30Z</time>
      </trkpt>
      <trkpt lat="43.099220" lon="-6.195890">
        <ele>888.741</ele>
        <time>2020-05-21T22:00:50Z</time>
      </trkpt>
      <trkpt lat="43.099150" lon="-6.195690">
        <ele>888.664</ele>
        <time>2020-05-21T22:01:10Z</time>
      </trkpt>
      <trkpt lat="43.099150" lon="-6.195660">
        <ele>889.306</ele>
        <time>2020-05-21T22:01:30Z</time>
      </trkpt>
      <trkpt lat="43.099100" lon="-6.195510">
        <ele>890.416</ele>
        <time>2020-05-21T22:01:50Z</time>
      </trkpt>
      <trkpt lat="43.099080" lon="-6.195460">
        <ele>890.708</ele>
        <time>2020-05-21T22:02:10Z</time>
      </trkpt>
      <trkpt lat="43.099040" lon="-6.195400">
        <ele>890.010</ele>
        <time>2020-05-21T22:02:30Z</time>
      </trkpt>
      <trkpt lat="43.098820" lon="-6.195090">
        <ele>886.395</ele>
        <time>2020-05-21T22:02:50Z</time>
      </trkpt>
      <trkpt lat="43.098760" lon="-6.195000">
        <ele>886.012</ele>
        <time>2020-05-21T22:03:10Z</time>
      </trkpt>
      <trkpt lat="43.098700" lon="-6.194910">
        <ele>885.548</ele>
        <time>2020-05-21T22:03:30Z</time>
      </trkpt>
      <trkpt lat="43.098660" lon="-6.194850">
        <ele>884.917</ele>
        <time>2020-05-21T22:03:50Z</time>
      </trkpt>
      <trkpt lat="43.098580" lon="-6.194720">
        <ele>884.218</ele>
        <time>2020-05-21T22:04:10Z</time>
      </trkpt>
      <trkpt lat="43.098550" lon="-6.194680">
        <ele>884.727</ele>
        <time>2020-05-21T22:04:30Z</time>
      </trkpt>
      <trkpt lat="43.098510" lon="-6.194610">
        <ele>885.820</ele>
        <time>2020-05-21T22:04:50Z</time>
      </trkpt>
      <trkpt lat="43.098480" lon="-6.194520">
        <ele>887.552</ele>
        <time>2020-05-21T22:05:10Z</time>
      </trkpt>
      <trkpt lat="43.098460" lon="-6.194470">
        <ele>888.253</ele>
        <time>2020-05-21T22:05:30Z</time>
      </trkpt>
      <trkpt lat="43.098420" lon="-6.194360">
        <ele>889.308</ele>
        <time>2020-05-21T22:05:50Z</time>
      </trkpt>
      <trkpt lat="43.098410" lon="-6.194290">
        <ele>890.508</ele>
        <time>2020-05-21T22:06:10Z</time>
      </trkpt>
      <trkpt lat="43.098400" lon="-6.194250">
        <ele>891.079</ele>
        <time>2020-05-21T22:06:30Z</time>
      </trkpt>
      <trkpt lat="43.098390" lon="-6.194070">
        <ele>893.144</ele>
        <time>2020-05-21T22:06:50Z</time>
      </trkpt>
      <trkpt lat="43.098390" lon="-6.193980">
        <ele>893.771</ele>
        <time>2020-05-21T22:07:10Z</time>
      </trkpt>
      <trkpt lat="43.098420" lon="-6.193890">
        <ele>896.057</ele>
        <time>2020-05-21T22:07:30Z</time>
      </trkpt>
      <trkpt lat="43.098430" lon="-6.193810">
        <ele>897.516</ele>
        <time>2020-05-21T22:07:50Z</time>
      </trkpt>
      <trkpt lat="43.098490" lon="-6.193590">
        <ele>903.097</ele>
        <time>2020-05-21T22:08:10Z</time>
      </trkpt>
      <trkpt lat="43.098500" lon="-6.193510">
        <ele>903.836</ele>
        <time>2020-05-21T22:08:30Z</time>
      </trkpt>
      <trkpt lat="43.098500" lon="-6.193430">
        <ele>904.199</ele>
        <time>2020-05-21T22:08:50Z</time>
      </trkpt>
      <trkpt lat="43.098490" lon="-6.193280">
        <ele>904.756</ele>
        <time>2020-05-21T22:09:10Z</time>
      </trkpt>
      <trkpt lat="43.098400" lon="-6.192900">
        <ele>904.559</ele>
        <time>2020-05-21T22:09:30Z</time>
      </trkpt>
      <trkpt lat="43.098380" lon="-6.192870">
        <ele>903.714</ele>
        <time>2020-05-21T22:09:50Z</time>
      </trkpt>
      <trkpt lat="43.098240" lon="-6.192410">
        <ele>898.208</ele>
        <time>2020-05-21T22:10:10Z</time>
      </trkpt>
      <trkpt lat="43.098160" lon="-6.192050">
        <ele>895.179</ele>
        <time>2020-05-21T22:10:30Z</time>
      </trkpt>
      <trkpt lat="43.098150" lon="-6.191940">
        <ele>895.514</ele>
        <time>2020-05-21T22:10:50Z</time>
      </trkpt>
      <trkpt lat="43.098140" lon="-6.191910">
        <ele>895.611</ele>
        <time>2020-05-21T22:11:10Z</time>
      </trkpt>
      <trkpt lat="43.098150" lon="-6.191810">
        <ele>897.797</ele>
        <time>2020-05-21T22:11:30Z</time>
      </trkpt>
      <trkpt lat="43.098160" lon="-6.191760">
        <ele>898.816</ele>
        <time>2020-05-21T22:11:50Z</time>
      </trkpt>
      <trkpt lat="43.098170" lon="-6.191720">
        <ele>899.897</ele>
        <time>2020-05-21T22:12:10Z</time>
      </trkpt>
      <trkpt lat="43.098180" lon="-6.191710">
        <ele>900.356</ele>
        <time>2020-05-21T22:12:30Z</time>
      </trkpt>
      <trkpt lat="43.098190" lon="-6.191700">
        <ele>900.829</ele>
        <time>2020-05-21T22:12:50Z</time>
      </trkpt>
      <trkpt lat="43.098320" lon="-6.191610">
        <ele>904.655</ele>
        <time>2020-05-21T22:13:10Z</time>
      </trkpt>
      <trkpt lat="43.098380" lon="-6.191560">
        <ele>907.207</ele>
        <time>2020-05-21T22:13:30Z</time>
      </trkpt>
      <trkpt lat="43.098420" lon="-6.191500">
        <ele>908.817</ele>
        <time>2020-05-21T22:13:50Z</time>
      </trkpt>
      <trkpt lat="43.098450" lon="-6.191460">
        <ele>910.208</ele>
        <time>2020-05-21T22:14:10Z</time>
      </trkpt>
      <trkpt lat="43.098460" lon="-6.191420">
        <ele>910.239</ele>
        <time>2020-05-21T22:14:30Z</time>
      </trkpt>
      <trkpt lat="43.098470" lon="-6.191390">
        <ele>910.434</ele>
        <time>2020-05-21T22:14:50Z</time>
      </trkpt>
      <trkpt lat="43.098490" lon="-6.191310">
        <ele>910.911</ele>
        <time>2020-05-21T22:15:10Z</time>
      </trkpt>
      <trkpt lat="43.098510" lon="-6.191210">
        <ele>911.237</ele>
        <time>2020-05-21T22:15:30Z</time>
      </trkpt>
      <trkpt lat="43.098500" lon="-6.190940">
        <ele>910.096</ele>
        <time>2020-05-21T22:15:50Z</time>
      </trkpt>
      <trkpt lat="43.098500" lon="-6.190930">
        <ele>910.137</ele>
        <time>2020-05-21T22:16:10Z</time>
      </trkpt>
      <trkpt lat="43.098490" lon="-6.190770">
        <ele>911.346</ele>
        <time>2020-05-21T22:16:30Z</time>
      </trkpt>
      <trkpt lat="43.098480" lon="-6.190690">
        <ele>912.669</ele>
        <time>2020-05-21T22:16:50Z</time>
      </trkpt>
      <trkpt lat="43.098450" lon="-6.190510">
        <ele>915.422</ele>
        <time>2020-05-21T22:17:10Z</time>
      </trkpt>
      <trkpt lat="43.098430" lon="-6.190450">
        <ele>915.762</ele>
        <time>2020-05-21T22:17:30Z</time>
      </trkpt>
      <trkpt lat="43.098420" lon="-6.190410">
        <ele>916.208</ele>
        <time>2020-05-21T22:17:50Z</time>
      </trkpt>
      <trkpt lat="43.098400" lon="-6.190340">
        <ele>916.808</ele>
        <time>2020-05-21T22:18:10Z</time>
      </trkpt>
      <trkpt lat="43.098380" lon="-6.190280">
        <ele>917.316</ele>
        <time>2020-05-21T22:18:30Z</time>
      </trkpt>
      <trkpt lat="43.098370" lon="-6.190220">
        <ele>918.981</ele>
        <time>2020-05-21T22:18:50Z</time>
      </trkpt>
      <trkpt lat="43.098360" lon="-6.190160">
        <ele>920.778</ele>
        <time>2020-05-21T22:19:10Z</time>
      </trkpt>
      <trkpt lat="43.098360" lon="-6.190100">
        <ele>923.064</ele>
        <time>2020-05-21T22:19:30Z</time>
      </trkpt>
      <trkpt lat="43.098370" lon="-6.190050">
        <ele>925.163</ele>
        <time>2020-05-21T22:19:50Z</time>
      </trkpt>
      <trkpt lat="43.098400" lon="-6.189960">
        <ele>927.414</ele>
        <time>2020-05-21T22:20:10Z</time>
      </trkpt>
      <trkpt lat="43.098440" lon="-6.189880">
        <ele>928.023</ele>
        <time>2020-05-21T22:20:30Z</time>
      </trkpt>
      <trkpt lat="43.098500" lon="-6.189790">
        <ele>929.146</ele>
        <time>2020-05-21T22:20:50Z</time>
      </trkpt>
      <trkpt lat="43.098610" lon="-6.189600">
        <ele>928.032</ele>
        <time>2020-05-21T22:21:10Z</time>
      </trkpt>
      <trkpt lat="43.098650" lon="-6.189500">
        <ele>926.692</ele>
        <time>2020-05-21T22:21:30Z</time>
      </trkpt>
      <trkpt lat="43.098690" lon="-6.189410">
        <ele>925.411</ele>
        <time>2020-05-21T22:21:50Z</time>
      </trkpt>
      <trkpt lat="43.098700" lon="-6.189380">
        <ele>924.708</ele>
        <time>2020-05-21T22:22:10Z</time>
      </trkpt>
      <trkpt lat="43.098720" lon="-6.189330">
        <ele>923.667</ele>
        <time>2020-05-21T22:22:30Z</time>
      </trkpt>
      <trkpt lat="43.098730" lon="-6.189250">
        <ele>920.862</ele>
        <time>2020-05-21T22:22:50Z</time>
      </trkpt>
      <trkpt lat="43.098750" lon="-6.189140">
        <ele>917.149</ele>
        <time>2020-05-21T22:23:10Z</time>
      </trkpt>
      <trkpt lat="43.098770" lon="-6.189070">
        <ele>915.135</ele>
        <time>2020-05-21T22:23:30Z</time>
      </trkpt>
      <trkpt lat="43.098800" lon="-6.189010">
        <ele>912.994</ele>
        <time>2020-05-21T22:23:50Z</time>
      </trkpt>
      <trkpt lat="43.098830" lon="-6.188970">
        <ele>911.145</ele>
        <time>2020-05-21T22:24:10Z</time>
      </trkpt>
      <trkpt lat="43.098850" lon="-6.188960">
        <ele>910.434</ele>
        <time>2020-05-21T22:24:30Z</time>
      </trkpt>
      <trkpt lat="43.099000" lon="-6.188860">
        <ele>911.557</ele>
        <time>2020-05-21T22:24:50Z</time>
      </trkpt>
      <trkpt lat="43.099020" lon="-6.188850">
        <ele>912.244</ele>
        <time>2020-05-21T22:25:10Z</time>
      </trkpt>
      <trkpt lat="43.099180" lon="-6.188760">
        <ele>915.205</ele>
        <time>2020-05-21T22:25:30Z</time>
      </trkpt>
      <trkpt lat="43.099290" lon="-6.188700">
        <ele>920.515</ele>
        <time>2020-05-21T22:25:50Z</time>
      </trkpt>
      <trkpt lat="43.099350" lon="-6.188660">
        <ele>922.708</ele>
        <time>2020-05-21T22:26:10Z</time>
      </trkpt>
      <trkpt lat="43.099400" lon="-6.188620">
        <ele>924.148</ele>
        <time>2020-05-21T22:26:30Z</time>
      </trkpt>
      <trkpt lat="43.099480" lon="-6.188530">
        <ele>927.143</ele>
        <time>2020-05-21T22:26:50Z</time>
      </trkpt>
      <trkpt lat="43.099490" lon="-6.188510">
        <ele>927.270</ele>
        <time>2020-05-21T22:27:10Z</time>
      </trkpt>
      <trkpt lat="43.099530" lon="-6.188460">
        <ele>928.936</ele>
        <time>2020-05-21T22:27:30Z</time>
      </trkpt>
      <trkpt lat="43.099570" lon="-6.188380">
        <ele>930.135</ele>
        <time>2020-05-21T22:27:50Z</time>
      </trkpt>
      <trkpt lat="43.099590" lon="-6.188310">
        <ele>930.386</ele>
        <time>2020-05-21T22:28:10Z</time>
      </trkpt>
      <trkpt lat="43.099630" lon="-6.188240">
        <ele>932.845</ele>
        <time>2020-05-21T22:28:30Z</time>
      </trkpt>
      <trkpt lat="43.099660" lon="-6.188140">
        <ele>934.088</ele>
        <time>2020-05-21T22:28:50Z</time>
      </trkpt>
      <trkpt lat="43.099670" lon="-6.188090">
        <ele>934.132</ele>
        <time>2020-05-21T22:29:10Z</time>
      </trkpt>
      <trkpt lat="43.099680" lon="-6.188030">
        <ele>934.992</ele>
        <time>2020-05-21T22:29:30Z</time>
      </trkpt>
      <trkpt lat="43.099700" lon="-6.187850">
        <ele>939.011</ele>
        <time>2020-05-21T22:29:50Z</time>
      </trkpt>
      <trkpt lat="43.099710" lon="-6.187760">
        <ele>940.008</ele>
        <time>2020-05-21T22:30:10Z</time>
      </trkpt>
      <trkpt lat="43.099720" lon="-6.187600">
        <ele>936.437</ele>
        <time>2020-05-21T22:30:30Z</time>
      </trkpt>
      <trkpt lat="43.099730" lon="-6.187560">
        <ele>935.962</ele>
        <time>2020-05-21T22:30:50Z</time>
      </trkpt>
      <trkpt lat="43.099720" lon="-6.187480">
        <ele>933.799</ele>
        <time>2020-05-21T22:31:10Z</time>
      </trkpt>
      <trkpt lat="43.099720" lon="-6.187400">
        <ele>932.955</ele>
        <time>2020-05-21T22:31:30Z</time>
      </trkpt>
      <trkpt lat="43.099660" lon="-6.187130">
        <ele>930.944</ele>
        <time>2020-05-21T22:31:50Z</time>
      </trkpt>
      <trkpt lat="43.099660" lon="-6.187120">
        <ele>930.965</ele>
        <time>2020-05-21T22:32:10Z</time>
      </trkpt>
      <trkpt lat="43.099590" lon="-6.186900">
        <ele>930.824</ele>
        <time>2020-05-21T22:32:30Z</time>
      </trkpt>
      <trkpt lat="43.099590" lon="-6.186870">
        <ele>930.777</ele>
        <time>2020-05-21T22:32:50Z</time>
      </trkpt>
      <trkpt lat="43.099560" lon="-6.186680">
        <ele>930.436</ele>
        <time>2020-05-21T22:33:10Z</time>
      </trkpt>
      <trkpt lat="43.099560" lon="-6.186650">
        <ele>930.217</ele>
        <time>2020-05-21T22:33:30Z</time>
      </trkpt>
      <trkpt lat="43.099560" lon="-6.186540">
        <ele>929.018</ele>
        <time>2020-05-21T22:33:50Z</time>
      </trkpt>
      <trkpt lat="43.099560" lon="-6.186470">
        <ele>928.308</ele>
        <time>2020-05-21T22:34:10Z</time>
      </trkpt>
      <trkpt lat="43.099570" lon="-6.186410">
        <ele>927.517</ele>
        <time>2020-05-21T22:34:30Z</time>
      </trkpt>
      <trkpt lat="43.099570" lon="-6.186400">
        <ele>927.482</ele>
        <time>2020-05-21T22:34:50Z</time>
      </trkpt>
      <trkpt lat="43.099590" lon="-6.186360">
        <ele>927.319</ele>
        <time>2020-05-21T22:35:10Z</time>
      </trkpt>
      <trkpt lat="43.099600" lon="-6.186330">
        <ele>927.685</ele>
        <time>2020-05-21T22:35:30Z</time>
      </trkpt>
      <trkpt lat="43.099700" lon="-6.186250">
        <ele>926.144</ele>
        <time>2020-05-21T22:35:50Z</time>
      </trkpt>
      <trkpt lat="43.099740" lon="-6.186210">
        <ele>926.575</ele>
        <time>2020-05-21T22:36:10Z</time>
      </trkpt>
      <trkpt lat="43.099960" lon="-6.186110">
        <ele>932.124</ele>
        <time>2020-05-21T22:36:30Z</time>
      </trkpt>
      <trkpt lat="43.100030" lon="-6.186070">
        <ele>934.787</ele>
        <time>2020-05-21T22:36:50Z</time>
      </trkpt>
      <trkpt lat="43.100030" lon="-6.186060">
        <ele>934.676</ele>
        <time>2020-05-21T22:37:10Z</time>
      </trkpt>
      <trkpt lat="43.100090" lon="-6.186000">
        <ele>937.490</ele>
        <time>2020-05-21T22:37:30Z</time>
      </trkpt>
      <trkpt lat="43.100120" lon="-6.185930">
        <ele>937.919</ele>
        <time>2020-05-21T22:37:50Z</time>
      </trkpt>
      <trkpt lat="43.100140" lon="-6.185880">
        <ele>937.908</ele>
        <time>2020-05-21T22:38:10Z</time>
      </trkpt>
      <trkpt lat="43.100140" lon="-6.185870">
        <ele>937.791</ele>
        <time>2020-05-21T22:38:30Z</time>
      </trkpt>
      <trkpt lat="43.100140" lon="-6.185810">
        <ele>936.926</ele>
        <time>2020-05-21T22:38:50Z</time>
      </trkpt>
      <trkpt lat="43.100150" lon="-6.185750">
        <ele>936.883</ele>
        <time>2020-05-21T22:39:10Z</time>
      </trkpt>
      <trkpt lat="43.100140" lon="-6.185680">
        <ele>935.999</ele>
        <time>2020-05-21T22:39:30Z</time>
      </trkpt>
      <trkpt lat="43.100140" lon="-6.185630">
        <ele>935.638</ele>
        <time>2020-05-21T22:39:50Z</time>
      </trkpt>
      <trkpt lat="43.100110" lon="-6.185390">
        <ele>935.399</ele>
        <time>2020-05-21T22:40:10Z</time>
      </trkpt>
      <trkpt lat="43.100050" lon="-6.184900">
        <ele>937.268</ele>
        <time>2020-05-21T22:40:30Z</time>
      </trkpt>
      <trkpt lat="43.100010" lon="-6.184660">
        <ele>937.811</ele>
        <time>2020-05-21T22:40:50Z</time>
      </trkpt>
      <trkpt lat="43.099970" lon="-6.184420">
        <ele>938.871</ele>
        <time>2020-05-21T22:41:10Z</time>
      </trkpt>
      <trkpt lat="43.099930" lon="-6.184180">
        <ele>938.541</ele>
        <time>2020-05-21T22:41:30Z</time>
      </trkpt>
      <trkpt lat="43.099910" lon="-6.184050">
        <ele>938.615</ele>
        <time>2020-05-21T22:41:50Z</time>
      </trkpt>
      <trkpt lat="43.099890" lon="-6.183940">
        <ele>938.508</ele>
        <time>2020-05-21T22:42:10Z</time>
      </trkpt>
      <trkpt lat="43.099850" lon="-6.183700">
        <ele>940.121</ele>
        <time>2020-05-21T22:42:30Z</time>
      </trkpt>
      <trkpt lat="43.099820" lon="-6.183490">
        <ele>941.916</ele>
        <time>2020-05-21T22:42:50Z</time>
      </trkpt>
      <trkpt lat="43.099820" lon="-6.183460">
        <ele>942.353</ele>
        <time>2020-05-21T22:43:10Z</time>
      </trkpt>
      <trkpt lat="43.099790" lon="-6.183210">
        <ele>944.119</ele>
        <time>2020-05-21T22:43:30Z</time>
      </trkpt>
      <trkpt lat="43.099770" lon="-6.182970">
        <ele>946.068</ele>
        <time>2020-05-21T22:43:50Z</time>
      </trkpt>
      <trkpt lat="43.099750" lon="-6.182720">
        <ele>948.159</ele>
        <time>2020-05-21T22:44:10Z</time>
      </trkpt>
      <trkpt lat="43.099720" lon="-6.182470">
        <ele>949.288</ele>
        <time>2020-05-21T22:44:30Z</time>
      </trkpt>
      <trkpt lat="43.099720" lon="-6.182270">
        <ele>950.641</ele>
        <time>2020-05-21T22:44:50Z</time>
      </trkpt>
      <trkpt lat="43.099720" lon="-6.182230">
        <ele>950.973</ele>
        <time>2020-05-21T22:45:10Z</time>
      </trkpt>
      <trkpt lat="43.099730" lon="-6.182090">
        <ele>951.785</ele>
        <time>2020-05-21T22:45:30Z</time>
      </trkpt>
      <trkpt lat="43.099740" lon="-6.182030">
        <ele>952.313</ele>
        <time>2020-05-21T22:45:50Z</time>
      </trkpt>
      <trkpt lat="43.099750" lon="-6.181990">
        <ele>952.808</ele>
        <time>2020-05-21T22:46:10Z</time>
      </trkpt>
      <trkpt lat="43.099780" lon="-6.181910">
        <ele>953.831</ele>
        <time>2020-05-21T22:46:30Z</time>
      </trkpt>
      <trkpt lat="43.099810" lon="-6.181850">
        <ele>954.626</ele>
        <time>2020-05-21T22:46:50Z</time>
      </trkpt>
      <trkpt lat="43.099860" lon="-6.181810">
        <ele>956.013</ele>
        <time>2020-05-21T22:47:10Z</time>
      </trkpt>
      <trkpt lat="43.099870" lon="-6.181790">
        <ele>956.279</ele>
        <time>2020-05-21T22:47:30Z</time>
      </trkpt>
      <trkpt lat="43.099950" lon="-6.181760">
        <ele>958.368</ele>
        <time>2020-05-21T22:47:50Z</time>
      </trkpt>
      <trkpt lat="43.100220" lon="-6.181620">
        <ele>965.349</ele>
        <time>2020-05-21T22:48:10Z</time>
      </trkpt>
      <trkpt lat="43.100280" lon="-6.181600">
        <ele>967.138</ele>
        <time>2020-05-21T22:48:30Z</time>
      </trkpt>
      <trkpt lat="43.100310" lon="-6.181570">
        <ele>968.111</ele>
        <time>2020-05-21T22:48:50Z</time>
      </trkpt>
      <trkpt lat="43.100330" lon="-6.181540">
        <ele>968.895</ele>
        <time>2020-05-21T22:49:10Z</time>
      </trkpt>
      <trkpt lat="43.100350" lon="-6.181510">
        <ele>969.549</ele>
        <time>2020-05-21T22:49:30Z</time>
      </trkpt>
      <trkpt lat="43.100370" lon="-6.181460">
        <ele>970.223</ele>
        <time>2020-05-21T22:49:50Z</time>
      </trkpt>
      <trkpt lat="43.100390" lon="-6.181420">
        <ele>971.008</ele>
        <time>2020-05-21T22:50:10Z</time>
      </trkpt>
      <trkpt lat="43.100400" lon="-6.181380">
        <ele>971.583</ele>
        <time>2020-05-21T22:50:30Z</time>
      </trkpt>
      <trkpt lat="43.100410" lon="-6.181330">
        <ele>972.458</ele>
        <time>2020-05-21T22:50:50Z</time>
      </trkpt>
      <trkpt lat="43.100400" lon="-6.181290">
        <ele>972.585</ele>
        <time>2020-05-21T22:51:10Z</time>
      </trkpt>
      <trkpt lat="43.100390" lon="-6.181260">
        <ele>972.491</ele>
        <time>2020-05-21T22:51:30Z</time>
      </trkpt>
      <trkpt lat="43.100380" lon="-6.181240">
        <ele>972.350</ele>
        <time>2020-05-21T22:51:50Z</time>
      </trkpt>
      <trkpt lat="43.100360" lon="-6.181220">
        <ele>971.861</ele>
        <time>2020-05-21T22:52:10Z</time>
      </trkpt>
      <trkpt lat="43.100260" lon="-6.181160">
        <ele>968.630</ele>
        <time>2020-05-21T22:52:30Z</time>
      </trkpt>
      <trkpt lat="43.100210" lon="-6.181130">
        <ele>966.473</ele>
        <time>2020-05-21T22:52:50Z</time>
      </trkpt>
      <trkpt lat="43.100150" lon="-6.181080">
        <ele>964.055</ele>
        <time>2020-05-21T22:53:10Z</time>
      </trkpt>
      <trkpt lat="43.100120" lon="-6.181040">
        <ele>962.907</ele>
        <time>2020-05-21T22:53:30Z</time>
      </trkpt>
      <trkpt lat="43.100110" lon="-6.181020">
        <ele>962.717</ele>
        <time>2020-05-21T22:53:50Z</time>
      </trkpt>
      <trkpt lat="43.100090" lon="-6.180960">
        <ele>962.308</ele>
        <time>2020-05-21T22:54:10Z</time>
      </trkpt>
      <trkpt lat="43.100060" lon="-6.180870">
        <ele>961.859</ele>
        <time>2020-05-21T22:54:30Z</time>
      </trkpt>
      <trkpt lat="43.100010" lon="-6.180670">
        <ele>963.194</ele>
        <time>2020-05-21T22:54:50Z</time>
      </trkpt>
      <trkpt lat="43.099990" lon="-6.180560">
        <ele>964.571</ele>
        <time>2020-05-21T22:55:10Z</time>
      </trkpt>
      <trkpt lat="43.099940" lon="-6.180320">
        <ele>968.147</ele>
        <time>2020-05-21T22:55:30Z</time>
      </trkpt>
      <trkpt lat="43.099940" lon="-6.180280">
        <ele>969.026</ele>
        <time>2020-05-21T22:55:50Z</time>
      </trkpt>
      <trkpt lat="43.099900" lon="-6.180170">
        <ele>970.137</ele>
        <time>2020-05-21T22:56:10Z</time>
      </trkpt>
      <trkpt lat="43.099850" lon="-6.180030">
        <ele>971.546</ele>
        <time>2020-05-21T22:56:30Z</time>
      </trkpt>
      <trkpt lat="43.099700" lon="-6.179670">
        <ele>974.359</ele>
        <time>2020-05-21T22:56:50Z</time>
      </trkpt>
      <trkpt lat="43.099650" lon="-6.179550">
        <ele>975.099</ele>
        <time>2020-05-21T22:57:10Z</time>
      </trkpt>
      <trkpt lat="43.099580" lon="-6.179300">
        <ele>977.007</ele>
        <time>2020-05-21T22:57:30Z</time>
      </trkpt>
      <trkpt lat="43.099570" lon="-6.179250">
        <ele>977.527</ele>
        <time>2020-05-21T22:57:50Z</time>
      </trkpt>
      <trkpt lat="43.099570" lon="-6.179210">
        <ele>978.208</ele>
        <time>2020-05-21T22:58:10Z</time>
      </trkpt>
      <trkpt lat="43.099560" lon="-6.179150">
        <ele>978.853</ele>
        <time>2020-05-21T22:58:30Z</time>
      </trkpt>
      <trkpt lat="43.099560" lon="-6.178990">
        <ele>980.578</ele>
        <time>2020-05-21T22:58:50Z</time>
      </trkpt>
      <trkpt lat="43.099560" lon="-6.178960">
        <ele>980.875</ele>
        <time>2020-05-21T22:59:10Z</time>
      </trkpt>
      <trkpt lat="43.099570" lon="-6.178710">
        <ele>983.011</ele>
        <time>2020-05-21T22:59:30Z</time>
      </trkpt>
      <trkpt lat="43.099580" lon="-6.178620">
        <ele>983.830</ele>
        <time>2020-05-21T22:59:50Z</time>
      </trkpt>
      <trkpt lat="43.099590" lon="-6.178590">
        <ele>984.381</ele>
        <time>2020-05-21T23:00:10Z</time>
      </trkpt>
      <trkpt lat="43.099600" lon="-6.178550">
        <ele>984.890</ele>
        <time>2020-05-21T23:00:30Z</time>
      </trkpt>
      <trkpt lat="43.099620" lon="-6.178530">
        <ele>985.733</ele>
        <time>2020-05-21T23:00:50Z</time>
      </trkpt>
      <trkpt lat="43.099630" lon="-6.178530">
        <ele>986.166</ele>
        <time>2020-05-21T23:01:10Z</time>
      </trkpt>
      <trkpt lat="43.099650" lon="-6.178530">
        <ele>986.829</ele>
        <time>2020-05-21T23:01:30Z</time>
      </trkpt>
      <trkpt lat="43.099680" lon="-6.178540">
        <ele>987.921</ele>
        <time>2020-05-21T23:01:50Z</time>
      </trkpt>
      <trkpt lat="43.099700" lon="-6.178550">
        <ele>988.608</ele>
        <time>2020-05-21T23:02:10Z</time>
      </trkpt>
      <trkpt lat="43.099730" lon="-6.178570">
        <ele>989.610</ele>
        <time>2020-05-21T23:02:30Z</time>
      </trkpt>
      <trkpt lat="43.099770" lon="-6.178640">
        <ele>990.715</ele>
        <time>2020-05-21T23:02:50Z</time>
      </trkpt>
      <trkpt lat="43.099790" lon="-6.178670">
        <ele>991.352</ele>
        <time>2020-05-21T23:03:10Z</time>
      </trkpt>
      <trkpt lat="43.099880" lon="-6.178880">
        <ele>992.628</ele>
        <time>2020-05-21T23:03:30Z</time>
      </trkpt>
      <trkpt lat="43.099890" lon="-6.178900">
        <ele>992.767</ele>
        <time>2020-05-21T23:03:50Z</time>
      </trkpt>
      <trkpt lat="43.099950" lon="-6.179020">
        <ele>993.188</ele>
        <time>2020-05-21T23:04:10Z</time>
      </trkpt>
      <trkpt lat="43.099990" lon="-6.179080">
        <ele>993.677</ele>
        <time>2020-05-21T23:04:30Z</time>
      </trkpt>
      <trkpt lat="43.100120" lon="-6.179250">
        <ele>993.540</ele>
        <time>2020-05-21T23:04:50Z</time>
      </trkpt>
      <trkpt lat="43.100240" lon="-6.179430">
        <ele>992.559</ele>
        <time>2020-05-21T23:05:10Z</time>
      </trkpt>
      <trkpt lat="43.100290" lon="-6.179490">
        <ele>992.503</ele>
        <time>2020-05-21T23:05:30Z</time>
      </trkpt>
      <trkpt lat="43.100320" lon="-6.179530">
        <ele>992.623</ele>
        <time>2020-05-21T23:05:50Z</time>
      </trkpt>
      <trkpt lat="43.100340" lon="-6.179540">
        <ele>992.908</ele>
        <time>2020-05-21T23:06:10Z</time>
      </trkpt>
      <trkpt lat="43.100350" lon="-6.179550">
        <ele>993.039</ele>
        <time>2020-05-21T23:06:30Z</time>
      </trkpt>
      <trkpt lat="43.100370" lon="-6.179550">
        <ele>993.564</ele>
        <time>2020-05-21T23:06:50Z</time>
      </trkpt>
      <trkpt lat="43.100380" lon="-6.179550">
        <ele>993.861</ele>
        <time>2020-05-21T23:07:10Z</time>
      </trkpt>
      <trkpt lat="43.100390" lon="-6.179540">
        <ele>994.247</ele>
        <time>2020-05-21T23:07:30Z</time>
      </trkpt>
      <trkpt lat="43.100391" lon="-6.179541">
        <ele>994.356</ele>
        <time>2020-05-21T23:07:50Z</time>
      </trkpt>
      <trkpt lat="43.100410" lon="-6.179530">
        <ele>994.927</ele>
        <time>2020-05-21T23:08:10Z</time>
      </trkpt>
      <trkpt lat="43.100420" lon="-6.179510">
        <ele>995.556</ele>
        <time>2020-05-21T23:08:30Z</time>
      </trkpt>
      <trkpt lat="43.100440" lon="-6.179500">
        <ele>996.299</ele>
        <time>2020-05-21T23:08:50Z</time>
      </trkpt>
      <trkpt lat="43.100440" lon="-6.179480">
        <ele>996.594</ele>
        <time>2020-05-21T23:09:10Z</time>
      </trkpt>
      <trkpt lat="43.100440" lon="-6.179460">
        <ele>996.857</ele>
        <time>2020-05-21T23:09:30Z</time>
      </trkpt>
      <trkpt lat="43.100440" lon="-6.179440">
        <ele>997.222</ele>
        <time>2020-05-21T23:09:50Z</time>
      </trkpt>
      <trkpt lat="43.100440" lon="-6.179420">
        <ele>997.608</ele>
        <time>2020-05-21T23:10:10Z</time>
      </trkpt>
      <trkpt lat="43.100430" lon="-6.179390">
        <ele>997.923</ele>
        <time>2020-05-21T23:10:30Z</time>
      </trkpt>
      <trkpt lat="43.100420" lon="-6.179350">
        <ele>998.518</ele>
        <time>2020-05-21T23:10:50Z</time>
      </trkpt>
      <trkpt lat="43.100380" lon="-6.179270">
        <ele>998.965</ele>
        <time>2020-05-21T23:11:10Z</time>
      </trkpt>
      <trkpt lat="43.100260" lon="-6.179000">
        <ele>1000.621</ele>
        <time>2020-05-21T23:11:30Z</time>
      </trkpt>
      <trkpt lat="43.100180" lon="-6.178850">
        <ele>1001.210</ele>
        <time>2020-05-21T23:11:50Z</time>
      </trkpt>
      <trkpt lat="43.100090" lon="-6.178660">
        <ele>1001.891</ele>
        <time>2020-05-21T23:12:10Z</time>
      </trkpt>
      <trkpt lat="43.100080" lon="-6.178650">
        <ele>1001.790</ele>
        <time>2020-05-21T23:12:30Z</time>
      </trkpt>
      <trkpt lat="43.099980" lon="-6.178400">
        <ele>1002.193</ele>
        <time>2020-05-21T23:12:50Z</time>
      </trkpt>
      <trkpt lat="43.099930" lon="-6.178270">
        <ele>1002.259</ele>
        <time>2020-05-21T23:13:10Z</time>
      </trkpt>
      <trkpt lat="43.099840" lon="-6.177990">
        <ele>1003.403</ele>
        <time>2020-05-21T23:13:30Z</time>
      </trkpt>
      <trkpt lat="43.099790" lon="-6.177820">
        <ele>1003.323</ele>
        <time>2020-05-21T23:13:50Z</time>
      </trkpt>
      <trkpt lat="43.099710" lon="-6.177530">
        <ele>1004.608</ele>
        <time>2020-05-21T23:14:10Z</time>
      </trkpt>
      <trkpt lat="43.099650" lon="-6.177300">
        <ele>1005.969</ele>
        <time>2020-05-21T23:14:30Z</time>
      </trkpt>
      <trkpt lat="43.099610" lon="-6.177160">
        <ele>1007.584</ele>
        <time>2020-05-21T23:14:50Z</time>
      </trkpt>
      <trkpt lat="43.099590" lon="-6.177090">
        <ele>1008.871</ele>
        <time>2020-05-21T23:15:10Z</time>
      </trkpt>
      <trkpt lat="43.099560" lon="-6.177020">
        <ele>1009.957</ele>
        <time>2020-05-21T23:15:30Z</time>
      </trkpt>
      <trkpt lat="43.099520" lon="-6.176950">
        <ele>1011.066</ele>
        <time>2020-05-21T23:15:50Z</time>
      </trkpt>
      <trkpt lat="43.099470" lon="-6.176880">
        <ele>1011.077</ele>
        <time>2020-05-21T23:16:10Z</time>
      </trkpt>
      <trkpt lat="43.099430" lon="-6.176820">
        <ele>1010.716</ele>
        <time>2020-05-21T23:16:30Z</time>
      </trkpt>
      <trkpt lat="43.099230" lon="-6.176510">
        <ele>1012.129</ele>
        <time>2020-05-21T23:16:50Z</time>
      </trkpt>
      <trkpt lat="43.099110" lon="-6.176320">
        <ele>1014.769</ele>
        <time>2020-05-21T23:17:10Z</time>
      </trkpt>
      <trkpt lat="43.099060" lon="-6.176250">
        <ele>1015.704</ele>
        <time>2020-05-21T23:17:30Z</time>
      </trkpt>
      <trkpt lat="43.098990" lon="-6.176100">
        <ele>1019.224</ele>
        <time>2020-05-21T23:17:50Z</time>
      </trkpt>
      <trkpt lat="43.098930" lon="-6.175960">
        <ele>1020.908</ele>
        <time>2020-05-21T23:18:10Z</time>
      </trkpt>
      <trkpt lat="43.098920" lon="-6.175910">
        <ele>1021.940</ele>
        <time>2020-05-21T23:18:30Z</time>
      </trkpt>
      <trkpt lat="43.098890" lon="-6.175810">
        <ele>1023.355</ele>
        <time>2020-05-21T23:18:50Z</time>
      </trkpt>
      <trkpt lat="43.098760" lon="-6.175320">
        <ele>1024.042</ele>
        <time>2020-05-21T23:19:10Z</time>
      </trkpt>
      <trkpt lat="43.098670" lon="-6.174990">
        <ele>1028.058</ele>
        <time>2020-05-21T23:19:30Z</time>
      </trkpt>
      <trkpt lat="43.098660" lon="-6.174960">
        <ele>1028.737</ele>
        <time>2020-05-21T23:19:50Z</time>
      </trkpt>
      <trkpt lat="43.098630" lon="-6.174880">
        <ele>1030.468</ele>
        <time>2020-05-21T23:20:10Z</time>
      </trkpt>
      <trkpt lat="43.098560" lon="-6.174750">
        <ele>1032.237</ele>
        <time>2020-05-21T23:20:30Z</time>
      </trkpt>
      <trkpt lat="43.098490" lon="-6.174650">
        <ele>1033.320</ele>
        <time>2020-05-21T23:20:50Z</time>
      </trkpt>
      <trkpt lat="43.098450" lon="-6.174600">
        <ele>1033.996</ele>
        <time>2020-05-21T23:21:10Z</time>
      </trkpt>
      <trkpt lat="43.098430" lon="-6.174580">
        <ele>1034.131</ele>
        <time>2020-05-21T23:21:30Z</time>
      </trkpt>
      <trkpt lat="43.098380" lon="-6.174520">
        <ele>1035.024</ele>
        <time>2020-05-21T23:21:50Z</time>
      </trkpt>
      <trkpt lat="43.097990" lon="-6.174150">
        <ele>1036.908</ele>
        <time>2020-05-21T23:22:10Z</time>
      </trkpt>
      <trkpt lat="43.097880" lon="-6.174010">
        <ele>1037.723</ele>
        <time>2020-05-21T23:22:30Z</time>
      </trkpt>
      <trkpt lat="43.097850" lon="-6.173970">
        <ele>1038.198</ele>
        <time>2020-05-21T23:22:50Z</time>
      </trkpt>
      <trkpt lat="43.097820" lon="-6.173910">
        <ele>1039.135</ele>
        <time>2020-05-21T23:23:10Z</time>
      </trkpt>
      <trkpt lat="43.097790" lon="-6.173840">
        <ele>1039.981</ele>
        <time>2020-05-21T23:23:30Z</time>
      </trkpt>
      <trkpt lat="43.097780" lon="-6.173800">
        <ele>1040.380</ele>
        <time>2020-05-21T23:23:50Z</time>
      </trkpt>
      <trkpt lat="43.097770" lon="-6.173740">
        <ele>1040.821</ele>
        <time>2020-05-21T23:24:10Z</time>
      </trkpt>
      <trkpt lat="43.097760" lon="-6.173630">
        <ele>1042.020</ele>
        <time>2020-05-21T23:24:30Z</time>
      </trkpt>
      <trkpt lat="43.097750" lon="-6.173560">
        <ele>1042.693</ele>
        <time>2020-05-21T23:24:50Z</time>
      </trkpt>
      <trkpt lat="43.097710" lon="-6.173160">
        <ele>1046.852</ele>
        <time>2020-05-21T23:25:10Z</time>
      </trkpt>
      <trkpt lat="43.097660" lon="-6.172850">
        <ele>1050.153</ele>
        <time>2020-05-21T23:25:30Z</time>
      </trkpt>
      <trkpt lat="43.097660" lon="-6.172830">
        <ele>1050.408</ele>
        <time>2020-05-21T23:25:50Z</time>
      </trkpt>
      <trkpt lat="43.097640" lon="-6.172730">
        <ele>1051.408</ele>
        <time>2020-05-21T23:26:10Z</time>
      </trkpt>
      <trkpt lat="43.097610" lon="-6.172600">
        <ele>1052.649</ele>
        <time>2020-05-21T23:26:30Z</time>
      </trkpt>
      <trkpt lat="43.097550" lon="-6.172360">
        <ele>1054.564</ele>
        <time>2020-05-21T23:26:50Z</time>
      </trkpt>
      <trkpt lat="43.097500" lon="-6.172130">
        <ele>1056.351</ele>
        <time>2020-05-21T23:27:10Z</time>
      </trkpt>
      <trkpt lat="43.097440" lon="-6.171900">
        <ele>1056.047</ele>
        <time>2020-05-21T23:27:30Z</time>
      </trkpt>
      <trkpt lat="43.097420" lon="-6.171800">
        <ele>1055.376</ele>
        <time>2020-05-21T23:27:50Z</time>
      </trkpt>
      <trkpt lat="43.097400" lon="-6.171650">
        <ele>1054.847</ele>
        <time>2020-05-21T23:28:10Z</time>
      </trkpt>
      <trkpt lat="43.097400" lon="-6.171630">
        <ele>1054.586</ele>
        <time>2020-05-21T23:28:30Z</time>
      </trkpt>
      <trkpt lat="43.097400" lon="-6.171520">
        <ele>1053.399</ele>
        <time>2020-05-21T23:28:50Z</time>
      </trkpt>
      <trkpt lat="43.097400" lon="-6.171440">
        <ele>1052.372</ele>
        <time>2020-05-21T23:29:10Z</time>
      </trkpt>
      <trkpt lat="43.097410" lon="-6.171410">
        <ele>1052.313</ele>
        <time>2020-05-21T23:29:30Z</time>
      </trkpt>
      <trkpt lat="43.097420" lon="-6.171390">
        <ele>1052.414</ele>
        <time>2020-05-21T23:29:50Z</time>
      </trkpt>
      <trkpt lat="43.097460" lon="-6.171350">
        <ele>1052.508</ele>
        <time>2020-05-21T23:30:10Z</time>
      </trkpt>
      <trkpt lat="43.097590" lon="-6.171290">
        <ele>1053.221</ele>
        <time>2020-05-21T23:30:30Z</time>
      </trkpt>
      <trkpt lat="43.097650" lon="-6.171270">
        <ele>1053.516</ele>
        <time>2020-05-21T23:30:50Z</time>
      </trkpt>
      <trkpt lat="43.097700" lon="-6.171260">
        <ele>1054.083</ele>
        <time>2020-05-21T23:31:10Z</time>
      </trkpt>
      <trkpt lat="43.097800" lon="-6.171260">
        <ele>1055.929</ele>
        <time>2020-05-21T23:31:30Z</time>
      </trkpt>
      <trkpt lat="43.097850" lon="-6.171250">
        <ele>1057.128</ele>
        <time>2020-05-21T23:31:50Z</time>
      </trkpt>
      <trkpt lat="43.097900" lon="-6.171240">
        <ele>1058.299</ele>
        <time>2020-05-21T23:32:10Z</time>
      </trkpt>
      <trkpt lat="43.097920" lon="-6.171220">
        <ele>1058.228</ele>
        <time>2020-05-21T23:32:30Z</time>
      </trkpt>
      <trkpt lat="43.097940" lon="-6.171200">
        <ele>1058.291</ele>
        <time>2020-05-21T23:32:50Z</time>
      </trkpt>
      <trkpt lat="43.097970" lon="-6.171160">
        <ele>1057.925</ele>
        <time>2020-05-21T23:33:10Z</time>
      </trkpt>
      <trkpt lat="43.097990" lon="-6.171140">
        <ele>1057.926</ele>
        <time>2020-05-21T23:33:30Z</time>
      </trkpt>
      <trkpt lat="43.098000" lon="-6.171100">
        <ele>1057.308</ele>
        <time>2020-05-21T23:33:50Z</time>
      </trkpt>
      <trkpt lat="43.098000" lon="-6.171040">
        <ele>1056.908</ele>
        <time>2020-05-21T23:34:10Z</time>
      </trkpt>
      <trkpt lat="43.098000" lon="-6.170990">
        <ele>1056.676</ele>
        <time>2020-05-21T23:34:30Z</time>
      </trkpt>
      <trkpt lat="43.097990" lon="-6.170960">
        <ele>1056.281</ele>
        <time>2020-05-21T23:34:50Z</time>
      </trkpt>
      <trkpt lat="43.097970" lon="-6.170900">
        <ele>1055.238</ele>
        <time>2020-05-21T23:35:10Z</time>
      </trkpt>
      <trkpt lat="43.097920" lon="-6.170810">
        <ele>1054.134</ele>
        <time>2020-05-21T23:35:30Z</time>
      </trkpt>
      <trkpt lat="43.097820" lon="-6.170700">
        <ele>1054.093</ele>
        <time>2020-05-21T23:35:50Z</time>
      </trkpt>
      <trkpt lat="43.097780" lon="-6.170660">
        <ele>1053.874</ele>
        <time>2020-05-21T23:36:10Z</time>
      </trkpt>
      <trkpt lat="43.097680" lon="-6.170580">
        <ele>1052.053</ele>
        <time>2020-05-21T23:36:30Z</time>
      </trkpt>
      <trkpt lat="43.097440" lon="-6.170490">
        <ele>1045.046</ele>
        <time>2020-05-21T23:36:50Z</time>
      </trkpt>
      <trkpt lat="43.097280" lon="-6.170410">
        <ele>1039.327</ele>
        <time>2020-05-21T23:37:10Z</time>
      </trkpt>
      <trkpt lat="43.097230" lon="-6.170380">
        <ele>1037.568</ele>
        <time>2020-05-21T23:37:30Z</time>
      </trkpt>
      <trkpt lat="43.097200" lon="-6.170350">
        <ele>1036.814</ele>
        <time>2020-05-21T23:37:50Z</time>
      </trkpt>
      <trkpt lat="43.097130" lon="-6.170270">
        <ele>1035.608</ele>
        <time>2020-05-21T23:38:10Z</time>
      </trkpt>
      <trkpt lat="43.097130" lon="-6.170260">
        <ele>1036.046</ele>
        <time>2020-05-21T23:38:30Z</time>
      </trkpt>
      <trkpt lat="43.096630" lon="-6.169580">
        <ele>1032.341</ele>
        <time>2020-05-21T23:38:50Z</time>
      </trkpt>
      <trkpt lat="43.096580" lon="-6.169490">
        <ele>1030.918</ele>
        <time>2020-05-21T23:39:10Z</time>
      </trkpt>
      <trkpt lat="43.096510" lon="-6.169360">
        <ele>1028.744</ele>
        <time>2020-05-21T23:39:30Z</time>
      </trkpt>
      <trkpt lat="43.096470" lon="-6.169280">
        <ele>1027.693</ele>
        <time>2020-05-21T23:39:50Z</time>
      </trkpt>
      <trkpt lat="43.096420" lon="-6.169150">
        <ele>1027.014</ele>
        <time>2020-05-21T23:40:10Z</time>
      </trkpt>
      <trkpt lat="43.096260" lon="-6.168710">
        <ele>1033.573</ele>
        <time>2020-05-21T23:40:30Z</time>
      </trkpt>
      <trkpt lat="43.096240" lon="-6.168670">
        <ele>1033.696</ele>
        <time>2020-05-21T23:40:50Z</time>
      </trkpt>
      <trkpt lat="43.096220" lon="-6.168640">
        <ele>1033.441</ele>
        <time>2020-05-21T23:41:10Z</time>
      </trkpt>
      <trkpt lat="43.096130" lon="-6.168540">
        <ele>1030.981</ele>
        <time>2020-05-21T23:41:30Z</time>
      </trkpt>
      <trkpt lat="43.096090" lon="-6.168470">
        <ele>1030.609</ele>
        <time>2020-05-21T23:41:50Z</time>
      </trkpt>
      <trkpt lat="43.096040" lon="-6.168420">
        <ele>1029.108</ele>
        <time>2020-05-21T23:42:10Z</time>
      </trkpt>
      <trkpt lat="43.096010" lon="-6.168360">
        <ele>1028.438</ele>
        <time>2020-05-21T23:42:30Z</time>
      </trkpt>
      <trkpt lat="43.095990" lon="-6.168310">
        <ele>1027.883</ele>
        <time>2020-05-21T23:42:50Z</time>
      </trkpt>
      <trkpt lat="43.095980" lon="-6.168230">
        <ele>1027.960</ele>
        <time>2020-05-21T23:43:10Z</time>
      </trkpt>
      <trkpt lat="43.095960" lon="-6.167880">
        <ele>1029.596</ele>
        <time>2020-05-21T23:43:30Z</time>
      </trkpt>
      <trkpt lat="43.095960" lon="-6.167820">
        <ele>1030.065</ele>
        <time>2020-05-21T23:43:50Z</time>
      </trkpt>
      <trkpt lat="43.095950" lon="-6.167630">
        <ele>1029.326</ele>
        <time>2020-05-21T23:44:10Z</time>
      </trkpt>
      <trkpt lat="43.095930" lon="-6.167390">
        <ele>1028.035</ele>
        <time>2020-05-21T23:44:30Z</time>
      </trkpt>
      <trkpt lat="43.095920" lon="-6.167170">
        <ele>1028.538</ele>
        <time>2020-05-21T23:44:50Z</time>
      </trkpt>
      <trkpt lat="43.095910" lon="-6.167010">
        <ele>1030.435</ele>
        <time>2020-05-21T23:45:10Z</time>
      </trkpt>
      <trkpt lat="43.095900" lon="-6.166900">
        <ele>1031.286</ele>
        <time>2020-05-21T23:45:30Z</time>
      </trkpt>
      <trkpt lat="43.095900" lon="-6.166880">
        <ele>1031.314</ele>
        <time>2020-05-21T23:45:50Z</time>
      </trkpt>
      <trkpt lat="43.095860" lon="-6.166660">
        <ele>1031.208</ele>
        <time>2020-05-21T23:46:10Z</time>
      </trkpt>
      <trkpt lat="43.095860" lon="-6.166650">
        <ele>1031.297</ele>
        <time>2020-05-21T23:46:30Z</time>
      </trkpt>
      <trkpt lat="43.095820" lon="-6.166420">
        <ele>1030.972</ele>
        <time>2020-05-21T23:46:50Z</time>
      </trkpt>
      <trkpt lat="43.095810" lon="-6.166360">
        <ele>1031.019</ele>
        <time>2020-05-21T23:47:10Z</time>
      </trkpt>
      <trkpt lat="43.095760" lon="-6.165880">
        <ele>1030.575</ele>
        <time>2020-05-21T23:47:30Z</time>
      </trkpt>
      <trkpt lat="43.095740" lon="-6.165690">
        <ele>1031.094</ele>
        <time>2020-05-21T23:47:50Z</time>
      </trkpt>
      <trkpt lat="43.095710" lon="-6.165440">
        <ele>1031.045</ele>
        <time>2020-05-21T23:48:10Z</time>
      </trkpt>
      <trkpt lat="43.095700" lon="-6.165360">
        <ele>1030.974</ele>
        <time>2020-05-21T23:48:30Z</time>
      </trkpt>
      <trkpt lat="43.095680" lon="-6.165200">
        <ele>1031.237</ele>
        <time>2020-05-21T23:48:50Z</time>
      </trkpt>
      <trkpt lat="43.095680" lon="-6.165160">
        <ele>1031.689</ele>
        <time>2020-05-21T23:49:10Z</time>
      </trkpt>
      <trkpt lat="43.095650" lon="-6.165060">
        <ele>1031.206</ele>
        <time>2020-05-21T23:49:30Z</time>
      </trkpt>
      <trkpt lat="43.095630" lon="-6.164960">
        <ele>1031.426</ele>
        <time>2020-05-21T23:49:50Z</time>
      </trkpt>
      <trkpt lat="43.095570" lon="-6.164830">
        <ele>1030.208</ele>
        <time>2020-05-21T23:50:10Z</time>
      </trkpt>
      <trkpt lat="43.095530" lon="-6.164760">
        <ele>1029.912</ele>
        <time>2020-05-21T23:50:30Z</time>
      </trkpt>
      <trkpt lat="43.095480" lon="-6.164660">
        <ele>1030.517</ele>
        <time>2020-05-21T23:50:50Z</time>
      </trkpt>
      <trkpt lat="43.095380" lon="-6.164510">
        <ele>1029.334</ele>
        <time>2020-05-21T23:51:10Z</time>
      </trkpt>
      <trkpt lat="43.095130" lon="-6.164270">
        <ele>1029.770</ele>
        <time>2020-05-21T23:51:30Z</time>
      </trkpt>
      <trkpt lat="43.095060" lon="-6.164200">
        <ele>1029.829</ele>
        <time>2020-05-21T23:51:50Z</time>
      </trkpt>
      <trkpt lat="43.094990" lon="-6.164130">
        <ele>1029.270</ele>
        <time>2020-05-21T23:52:10Z</time>
      </trkpt>
      <trkpt lat="43.094870" lon="-6.163940">
        <ele>1029.419</ele>
        <time>2020-05-21T23:52:30Z</time>
      </trkpt>
      <trkpt lat="43.094750" lon="-6.163760">
        <ele>1027.912</ele>
        <time>2020-05-21T23:52:50Z</time>
      </trkpt>
      <trkpt lat="43.094690" lon="-6.163660">
        <ele>1027.711</ele>
        <time>2020-05-21T23:53:10Z</time>
      </trkpt>
      <trkpt lat="43.094650" lon="-6.163600">
        <ele>1029.121</ele>
        <time>2020-05-21T23:53:30Z</time>
      </trkpt>
      <trkpt lat="43.094640" lon="-6.163570">
        <ele>1030.103</ele>
        <time>2020-05-21T23:53:50Z</time>
      </trkpt>
      <trkpt lat="43.094610" lon="-6.163500">
        <ele>1032.408</ele>
        <time>2020-05-21T23:54:10Z</time>
      </trkpt>
      <trkpt lat="43.094560" lon="-6.163350">
        <ele>1035.685</ele>
        <time>2020-05-21T23:54:30Z</time>
      </trkpt>
      <trkpt lat="43.094540" lon="-6.163280">
        <ele>1036.360</ele>
        <time>2020-05-21T23:54:50Z</time>
      </trkpt>
      <trkpt lat="43.094440" lon="-6.162860">
        <ele>1038.257</ele>
        <time>2020-05-21T23:55:10Z</time>
      </trkpt>
      <trkpt lat="43.094390" lon="-6.162640">
        <ele>1039.563</ele>
        <time>2020-05-21T23:55:30Z</time>
      </trkpt>
      <trkpt lat="43.094340" lon="-6.162360">
        <ele>1039.342</ele>
        <time>2020-05-21T23:55:50Z</time>
      </trkpt>
      <trkpt lat="43.094310" lon="-6.162160">
        <ele>1039.143</ele>
        <time>2020-05-21T23:56:10Z</time>
      </trkpt>
      <trkpt lat="43.094270" lon="-6.161920">
        <ele>1040.362</ele>
        <time>2020-05-21T23:56:30Z</time>
      </trkpt>
      <trkpt lat="43.094270" lon="-6.161890">
        <ele>1040.615</ele>
        <time>2020-05-21T23:56:50Z</time>
      </trkpt>
      <trkpt lat="43.094240" lon="-6.161770">
        <ele>1040.182</ele>
        <time>2020-05-21T23:57:10Z</time>
      </trkpt>
      <trkpt lat="43.094220" lon="-6.161690">
        <ele>1039.643</ele>
        <time>2020-05-21T23:57:30Z</time>
      </trkpt>
      <trkpt lat="43.094170" lon="-6.161520">
        <ele>1041.017</ele>
        <time>2020-05-21T23:57:50Z</time>
      </trkpt>
      <trkpt lat="43.094150" lon="-6.161460">
        <ele>1042.308</ele>
        <time>2020-05-21T23:58:10Z</time>
      </trkpt>
      <trkpt lat="43.094000" lon="-6.160970">
        <ele>1047.462</ele>
        <time>2020-05-21T23:58:30Z</time>
      </trkpt>
      <trkpt lat="43.093920" lon="-6.160730">
        <ele>1049.317</ele>
        <time>2020-05-21T23:58:50Z</time>
      </trkpt>
      <trkpt lat="43.093680" lon="-6.160120">
        <ele>1050.034</ele>
        <time>2020-05-21T23:59:10Z</time>
      </trkpt>
      <trkpt lat="43.093510" lon="-6.159630">
        <ele>1048.990</ele>
        <time>2020-05-21T23:59:30Z</time>
      </trkpt>
      <trkpt lat="43.093470" lon="-6.159510">
        <ele>1050.329</ele>
        <time>2020-05-21T23:59:50Z</time>
      </trkpt>
      <trkpt lat="43.093430" lon="-6.159350">
        <ele>1052.430</ele>
        <time>2020-05-22T00:00:10Z</time>
      </trkpt>
      <trkpt lat="43.093340" lon="-6.158990">
        <ele>1056.139</ele>
        <time>2020-05-22T00:00:30Z</time>
      </trkpt>
      <trkpt lat="43.093190" lon="-6.158380">
        <ele>1058.342</ele>
        <time>2020-05-22T00:00:50Z</time>
      </trkpt>
      <trkpt lat="43.093180" lon="-6.158340">
        <ele>1058.466</ele>
        <time>2020-05-22T00:01:10Z</time>
      </trkpt>
      <trkpt lat="43.093180" lon="-6.158300">
        <ele>1058.929</ele>
        <time>2020-05-22T00:01:30Z</time>
      </trkpt>
      <trkpt lat="43.093180" lon="-6.158290">
        <ele>1059.021</ele>
        <time>2020-05-22T00:01:50Z</time>
      </trkpt>
      <trkpt lat="43.093180" lon="-6.158240">
        <ele>1059.508</ele>
        <time>2020-05-22T00:02:10Z</time>
      </trkpt>
      <trkpt lat="43.093190" lon="-6.158180">
        <ele>1060.530</ele>
        <time>2020-05-22T00:02:30Z</time>
      </trkpt>
      <trkpt lat="43.093230" lon="-6.158050">
        <ele>1063.125</ele>
        <time>2020-05-22T00:02:50Z</time>
      </trkpt>
      <trkpt lat="43.093240" lon="-6.158010">
        <ele>1063.632</ele>
        <time>2020-05-22T00:03:10Z</time>
      </trkpt>
      <trkpt lat="43.093390" lon="-6.157440">
        <ele>1069.158</ele>
        <time>2020-05-22T00:03:30Z</time>
      </trkpt>
      <trkpt lat="43.093470" lon="-6.157170">
        <ele>1072.177</ele>
        <time>2020-05-22T00:03:50Z</time>
      </trkpt>
      <trkpt lat="43.093520" lon="-6.156940">
        <ele>1073.488</ele>
        <time>2020-05-22T00:04:10Z</time>
      </trkpt>
      <trkpt lat="43.093530" lon="-6.156930">
        <ele>1073.817</ele>
        <time>2020-05-22T00:04:30Z</time>
      </trkpt>
      <trkpt lat="43.093560" lon="-6.156770">
        <ele>1074.330</ele>
        <time>2020-05-22T00:04:50Z</time>
      </trkpt>
      <trkpt lat="43.093570" lon="-6.156710">
        <ele>1074.419</ele>
        <time>2020-05-22T00:05:10Z</time>
      </trkpt>
      <trkpt lat="43.093570" lon="-6.156700">
        <ele>1074.309</ele>
        <time>2020-05-22T00:05:30Z</time>
      </trkpt>
      <trkpt lat="43.093570" lon="-6.156610">
        <ele>1074.519</ele>
        <time>2020-05-22T00:05:50Z</time>
      </trkpt>
      <trkpt lat="43.093540" lon="-6.156180">
        <ele>1077.608</ele>
        <time>2020-05-22T00:06:10Z</time>
      </trkpt>
      <trkpt lat="43.093520" lon="-6.155840">
        <ele>1080.755</ele>
        <time>2020-05-22T00:06:30Z</time>
      </trkpt>
      <trkpt lat="43.093500" lon="-6.155720">
        <ele>1080.750</ele>
        <time>2020-05-22T00:06:50Z</time>
      </trkpt>
      <trkpt lat="43.093390" lon="-6.155350">
        <ele>1079.457</ele>
        <time>2020-05-22T00:07:10Z</time>
      </trkpt>
      <trkpt lat="43.093360" lon="-6.155260">
        <ele>1078.783</ele>
        <time>2020-05-22T00:07:30Z</time>
      </trkpt>
      <trkpt lat="43.093330" lon="-6.155130">
        <ele>1077.992</ele>
        <time>2020-05-22T00:07:50Z</time>
      </trkpt>
      <trkpt lat="43.093230" lon="-6.154570">
        <ele>1079.163</ele>
        <time>2020-05-22T00:08:10Z</time>
      </trkpt>
      <trkpt lat="43.093090" lon="-6.154010">
        <ele>1082.452</ele>
        <time>2020-05-22T00:08:30Z</time>
      </trkpt>
      <trkpt lat="43.092980" lon="-6.153620">
        <ele>1084.245</ele>
        <time>2020-05-22T00:08:50Z</time>
      </trkpt>
      <trkpt lat="43.092940" lon="-6.153490">
        <ele>1085.596</ele>
        <time>2020-05-22T00:09:10Z</time>
      </trkpt>
      <trkpt lat="43.092890" lon="-6.153370">
        <ele>1086.231</ele>
        <time>2020-05-22T00:09:30Z</time>
      </trkpt>
      <trkpt lat="43.092870" lon="-6.153310">
        <ele>1086.824</ele>
        <time>2020-05-22T00:09:50Z</time>
      </trkpt>
      <trkpt lat="43.092820" lon="-6.153220">
        <ele>1086.608</ele>
        <time>2020-05-22T00:10:10Z</time>
      </trkpt>
      <trkpt lat="43.092800" lon="-6.153190">
        <ele>1086.413</ele>
        <time>2020-05-22T00:10:30Z</time>
      </trkpt>
      <trkpt lat="43.092230" lon="-6.152450">
        <ele>1085.078</ele>
        <time>2020-05-22T00:10:50Z</time>
      </trkpt>
      <trkpt lat="43.092150" lon="-6.152340">
        <ele>1085.575</ele>
        <time>2020-05-22T00:11:10Z</time>
      </trkpt>
      <trkpt lat="43.091570" lon="-6.151490">
        <ele>1090.751</ele>
        <time>2020-05-22T00:11:30Z</time>
      </trkpt>
      <trkpt lat="43.091290" lon="-6.151040">
        <ele>1088.840</ele>
        <time>2020-05-22T00:11:50Z</time>
      </trkpt>
      <trkpt lat="43.091240" lon="-6.150930">
        <ele>1088.951</ele>
        <time>2020-05-22T00:12:10Z</time>
      </trkpt>
      <trkpt lat="43.091220" lon="-6.150890">
        <ele>1088.790</ele>
        <time>2020-05-22T00:12:30Z</time>
      </trkpt>
      <trkpt lat="43.091220" lon="-6.150880">
        <ele>1088.993</ele>
        <time>2020-05-22T00:12:50Z</time>
      </trkpt>
      <trkpt lat="43.091180" lon="-6.150760">
        <ele>1089.631</ele>
        <time>2020-05-22T00:13:10Z</time>
      </trkpt>
      <trkpt lat="43.091090" lon="-6.150390">
        <ele>1093.061</ele>
        <time>2020-05-22T00:13:30Z</time>
      </trkpt>
      <trkpt lat="43.091070" lon="-6.150300">
        <ele>1093.607</ele>
        <time>2020-05-22T00:13:50Z</time>
      </trkpt>
      <trkpt lat="43.090980" lon="-6.150040">
        <ele>1094.508</ele>
        <time>2020-05-22T00:14:10Z</time>
      </trkpt>
      <trkpt lat="43.090950" lon="-6.149940">
        <ele>1095.867</ele>
        <time>2020-05-22T00:14:30Z</time>
      </trkpt>
      <trkpt lat="43.090920" lon="-6.149840">
        <ele>1097.462</ele>
        <time>2020-05-22T00:14:50Z</time>
      </trkpt>
      <trkpt lat="43.090860" lon="-6.149730">
        <ele>1097.949</ele>
        <time>2020-05-22T00:15:10Z</time>
      </trkpt>
      <trkpt lat="43.090800" lon="-6.149580">
        <ele>1099.755</ele>
        <time>2020-05-22T00:15:30Z</time>
      </trkpt>
      <trkpt lat="43.090530" lon="-6.149140">
        <ele>1101.664</ele>
        <time>2020-05-22T00:15:50Z</time>
      </trkpt>
      <trkpt lat="43.090530" lon="-6.149130">
        <ele>1101.735</ele>
        <time>2020-05-22T00:16:10Z</time>
      </trkpt>
      <trkpt lat="43.090430" lon="-6.148960">
        <ele>1100.884</ele>
        <time>2020-05-22T00:16:30Z</time>
      </trkpt>
      <trkpt lat="43.090420" lon="-6.148950">
        <ele>1100.677</ele>
        <time>2020-05-22T00:16:50Z</time>
      </trkpt>
      <trkpt lat="43.090370" lon="-6.148850">
        <ele>1100.486</ele>
        <time>2020-05-22T00:17:10Z</time>
      </trkpt>
      <trkpt lat="43.090340" lon="-6.148780">
        <ele>1100.360</ele>
        <time>2020-05-22T00:17:30Z</time>
      </trkpt>
      <trkpt lat="43.090320" lon="-6.148740">
        <ele>1100.126</ele>
        <time>2020-05-22T00:17:50Z</time>
      </trkpt>
      <trkpt lat="43.090270" lon="-6.148600">
        <ele>1099.808</ele>
        <time>2020-05-22T00:18:10Z</time>
      </trkpt>
      <trkpt lat="43.090240" lon="-6.148520">
        <ele>1098.932</ele>
        <time>2020-05-22T00:18:30Z</time>
      </trkpt>
      <trkpt lat="43.090200" lon="-6.148390">
        <ele>1097.577</ele>
        <time>2020-05-22T00:18:50Z</time>
      </trkpt>
      <trkpt lat="43.090170" lon="-6.148260">
        <ele>1096.224</ele>
        <time>2020-05-22T00:19:10Z</time>
      </trkpt>
      <trkpt lat="43.090160" lon="-6.148220">
        <ele>1095.820</ele>
        <time>2020-05-22T00:19:30Z</time>
      </trkpt>
      <trkpt lat="43.090150" lon="-6.148160">
        <ele>1095.369</ele>
        <time>2020-05-22T00:19:50Z</time>
      </trkpt>
      <trkpt lat="43.090150" lon="-6.148130">
        <ele>1095.170</ele>
        <time>2020-05-22T00:20:10Z</time>
      </trkpt>
      <trkpt lat="43.090140" lon="-6.148080">
        <ele>1094.799</ele>
        <time>2020-05-22T00:20:30Z</time>
      </trkpt>
      <trkpt lat="43.090070" lon="-6.147710">
        <ele>1098.862</ele>
        <time>2020-05-22T00:20:50Z</time>
      </trkpt>
      <trkpt lat="43.090050" lon="-6.147580">
        <ele>1101.344</ele>
        <time>2020-05-22T00:21:10Z</time>
      </trkpt>
      <trkpt lat="43.089950" lon="-6.147140">
        <ele>1103.705</ele>
        <time>2020-05-22T00:21:30Z</time>
      </trkpt>
      <trkpt lat="43.089950" lon="-6.147100">
        <ele>1103.815</ele>
        <time>2020-05-22T00:21:50Z</time>
      </trkpt>
      <trkpt lat="43.089820" lon="-6.146560">
        <ele>1102.908</ele>
        <time>2020-05-22T00:22:10Z</time>
      </trkpt>
      <trkpt lat="43.089780" lon="-6.146400">
        <ele>1103.068</ele>
        <time>2020-05-22T00:22:30Z</time>
      </trkpt>
      <trkpt lat="43.089640" lon="-6.145830">
        <ele>1104.033</ele>
        <time>2020-05-22T00:22:50Z</time>
      </trkpt>
      <trkpt lat="43.089490" lon="-6.145230">
        <ele>1103.990</ele>
        <time>2020-05-22T00:23:10Z</time>
      </trkpt>
      <trkpt lat="43.089440" lon="-6.145000">
        <ele>1102.936</ele>
        <time>2020-05-22T00:23:30Z</time>
      </trkpt>
      <trkpt lat="43.089430" lon="-6.144980">
        <ele>1102.865</ele>
        <time>2020-05-22T00:23:50Z</time>
      </trkpt>
      <trkpt lat="43.089330" lon="-6.144530">
        <ele>1102.466</ele>
        <time>2020-05-22T00:24:10Z</time>
      </trkpt>
      <trkpt lat="43.089270" lon="-6.144280">
        <ele>1101.345</ele>
        <time>2020-05-22T00:24:30Z</time>
      </trkpt>
      <trkpt lat="43.089220" lon="-6.144100">
        <ele>1100.478</ele>
        <time>2020-05-22T00:24:50Z</time>
      </trkpt>
      <trkpt lat="43.089210" lon="-6.144060">
        <ele>1100.432</ele>
        <time>2020-05-22T00:25:10Z</time>
      </trkpt>
      <trkpt lat="43.089170" lon="-6.143920">
        <ele>1099.992</ele>
        <time>2020-05-22T00:25:30Z</time>
      </trkpt>
      <trkpt lat="43.089140" lon="-6.143840">
        <ele>1099.811</ele>
        <time>2020-05-22T00:25:50Z</time>
      </trkpt>
      <trkpt lat="43.089110" lon="-6.143760">
        <ele>1099.608</ele>
        <time>2020-05-22T00:26:10Z</time>
      </trkpt>
      <trkpt lat="43.089050" lon="-6.143620">
        <ele>1099.027</ele>
        <time>2020-05-22T00:26:30Z</time>
      </trkpt>
      <trkpt lat="43.089050" lon="-6.143610">
        <ele>1099.162</ele>
        <time>2020-05-22T00:26:50Z</time>
      </trkpt>
      <trkpt lat="43.088950" lon="-6.143420">
        <ele>1100.019</ele>
        <time>2020-05-22T00:27:10Z</time>
      </trkpt>
      <trkpt lat="43.088950" lon="-6.143410">
        <ele>1100.215</ele>
        <time>2020-05-22T00:27:30Z</time>
      </trkpt>
      <trkpt lat="43.088860" lon="-6.143210">
        <ele>1101.854</ele>
        <time>2020-05-22T00:27:50Z</time>
      </trkpt>
      <trkpt lat="43.088840" lon="-6.143180">
        <ele>1102.385</ele>
        <time>2020-05-22T00:28:10Z</time>
      </trkpt>
      <trkpt lat="43.088800" lon="-6.143080">
        <ele>1104.454</ele>
        <time>2020-05-22T00:28:30Z</time>
      </trkpt>
      <trkpt lat="43.088770" lon="-6.142990">
        <ele>1105.917</ele>
        <time>2020-05-22T00:28:50Z</time>
      </trkpt>
      <trkpt lat="43.088760" lon="-6.142980">
        <ele>1105.968</ele>
        <time>2020-05-22T00:29:10Z</time>
      </trkpt>
      <trkpt lat="43.088690" lon="-6.142710">
        <ele>1107.342</ele>
        <time>2020-05-22T00:29:30Z</time>
      </trkpt>
      <trkpt lat="43.088650" lon="-6.142500">
        <ele>1106.826</ele>
        <time>2020-05-22T00:29:50Z</time>
      </trkpt>
      <trkpt lat="43.088600" lon="-6.142240">
        <ele>1105.608</ele>
        <time>2020-05-22T00:30:10Z</time>
      </trkpt>
      <trkpt lat="43.088540" lon="-6.142050">
        <ele>1104.990</ele>
        <time>2020-05-22T00:30:30Z</time>
      </trkpt>
      <trkpt lat="43.088500" lon="-6.141940">
        <ele>1104.655</ele>
        <time>2020-05-22T00:30:50Z</time>
      </trkpt>
      <trkpt lat="43.088430" lon="-6.141780">
        <ele>1104.382</ele>
        <time>2020-05-22T00:31:10Z</time>
      </trkpt>
      <trkpt lat="43.088370" lon="-6.141680">
        <ele>1103.748</ele>
        <time>2020-05-22T00:31:30Z</time>
      </trkpt>
      <trkpt lat="43.088350" lon="-6.141640">
        <ele>1103.667</ele>
        <time>2020-05-22T00:31:50Z</time>
      </trkpt>
      <trkpt lat="43.088340" lon="-6.141620">
        <ele>1103.518</ele>
        <time>2020-05-22T00:32:10Z</time>
      </trkpt>
      <trkpt lat="43.088310" lon="-6.141580">
        <ele>1103.417</ele>
        <time>2020-05-22T00:32:30Z</time>
      </trkpt>
      <trkpt lat="43.088280" lon="-6.141540">
        <ele>1103.330</ele>
        <time>2020-05-22T00:32:50Z</time>
      </trkpt>
      <trkpt lat="43.088230" lon="-6.141510">
        <ele>1102.868</ele>
        <time>2020-05-22T00:33:10Z</time>
      </trkpt>
      <trkpt lat="43.088120" lon="-6.141460">
        <ele>1101.242</ele>
        <time>2020-05-22T00:33:30Z</time>
      </trkpt>
      <trkpt lat="43.088040" lon="-6.141450">
        <ele>1100.226</ele>
        <time>2020-05-22T00:33:50Z</time>
      </trkpt>
      <trkpt lat="43.087960" lon="-6.141430">
        <ele>1100.008</ele>
        <time>2020-05-22T00:34:10Z</time>
      </trkpt>
      <trkpt lat="43.087860" lon="-6.141410">
        <ele>1100.070</ele>
        <time>2020-05-22T00:34:30Z</time>
      </trkpt>
      <trkpt lat="43.087830" lon="-6.141390">
        <ele>1100.025</ele>
        <time>2020-05-22T00:34:50Z</time>
      </trkpt>
      <trkpt lat="43.087820" lon="-6.141370">
        <ele>1100.262</ele>
        <time>2020-05-22T00:35:10Z</time>
      </trkpt>
      <trkpt lat="43.087810" lon="-6.141350">
        <ele>1100.438</ele>
        <time>2020-05-22T00:35:30Z</time>
      </trkpt>
      <trkpt lat="43.087800" lon="-6.141330">
        <ele>1100.697</ele>
        <time>2020-05-22T00:35:50Z</time>
      </trkpt>
      <trkpt lat="43.087740" lon="-6.141170">
        <ele>1102.878</ele>
        <time>2020-05-22T00:36:10Z</time>
      </trkpt>
      <trkpt lat="43.087600" lon="-6.140810">
        <ele>1109.477</ele>
        <time>2020-05-22T00:36:30Z</time>
      </trkpt>
      <trkpt lat="43.087550" lon="-6.140710">
        <ele>1110.040</ele>
        <time>2020-05-22T00:36:50Z</time>
      </trkpt>
      <trkpt lat="43.087490" lon="-6.140610">
        <ele>1109.933</ele>
        <time>2020-05-22T00:37:10Z</time>
      </trkpt>
      <trkpt lat="43.087300" lon="-6.140280">
        <ele>1108.823</ele>
        <time>2020-05-22T00:37:30Z</time>
      </trkpt>
      <trkpt lat="43.087250" lon="-6.140200">
        <ele>1109.615</ele>
        <time>2020-05-22T00:37:50Z</time>
      </trkpt>
      <trkpt lat="43.087170" lon="-6.140060">
        <ele>1111.708</ele>
        <time>2020-05-22T00:38:10Z</time>
      </trkpt>
      <trkpt lat="43.087140" lon="-6.140010">
        <ele>1112.527</ele>
        <time>2020-05-22T00:38:30Z</time>
      </trkpt>
      <trkpt lat="43.087090" lon="-6.139920">
        <ele>1113.522</ele>
        <time>2020-05-22T00:38:50Z</time>
      </trkpt>
      <trkpt lat="43.087030" lon="-6.139840">
        <ele>1114.249</ele>
        <time>2020-05-22T00:39:10Z</time>
      </trkpt>
      <trkpt lat="43.087020" lon="-6.139830">
        <ele>1114.345</ele>
        <time>2020-05-22T00:39:30Z</time>
      </trkpt>
      <trkpt lat="43.086920" lon="-6.139690">
        <ele>1115.014</ele>
        <time>2020-05-22T00:39:50Z</time>
      </trkpt>
      <trkpt lat="43.086850" lon="-6.139600">
        <ele>1114.725</ele>
        <time>2020-05-22T00:40:10Z</time>
      </trkpt>
      <trkpt lat="43.086760" lon="-6.139490">
        <ele>1113.354</ele>
        <time>2020-05-22T00:40:30Z</time>
      </trkpt>
      <trkpt lat="43.086750" lon="-6.139480">
        <ele>1113.147</ele>
        <time>2020-05-22T00:40:50Z</time>
      </trkpt>
      <trkpt lat="43.086690" lon="-6.139390">
        <ele>1112.064</ele>
        <time>2020-05-22T00:41:10Z</time>
      </trkpt>
      <trkpt lat="43.086650" lon="-6.139320">
        <ele>1111.806</ele>
        <time>2020-05-22T00:41:30Z</time>
      </trkpt>
      <trkpt lat="43.086640" lon="-6.139310">
        <ele>1111.816</ele>
        <time>2020-05-22T00:41:50Z</time>
      </trkpt>
      <trkpt lat="43.086620" lon="-6.139260">
        <ele>1111.908</ele>
        <time>2020-05-22T00:42:10Z</time>
      </trkpt>
      <trkpt lat="43.086590" lon="-6.139180">
        <ele>1112.130</ele>
        <time>2020-05-22T00:42:30Z</time>
      </trkpt>
      <trkpt lat="43.086580" lon="-6.139100">
        <ele>1112.565</ele>
        <time>2020-05-22T00:42:50Z</time>
      </trkpt>
      <trkpt lat="43.086560" lon="-6.139030">
        <ele>1112.652</ele>
        <time>2020-05-22T00:43:10Z</time>
      </trkpt>
      <trkpt lat="43.086560" lon="-6.138990">
        <ele>1112.958</ele>
        <time>2020-05-22T00:43:30Z</time>
      </trkpt>
      <trkpt lat="43.086540" lon="-6.138930">
        <ele>1112.917</ele>
        <time>2020-05-22T00:43:50Z</time>
      </trkpt>
      <trkpt lat="43.086510" lon="-6.138850">
        <ele>1112.918</ele>
        <time>2020-05-22T00:44:10Z</time>
      </trkpt>
      <trkpt lat="43.086500" lon="-6.138820">
        <ele>1112.817</ele>
        <time>2020-05-22T00:44:30Z</time>
      </trkpt>
      <trkpt lat="43.086410" lon="-6.138570">
        <ele>1112.440</ele>
        <time>2020-05-22T00:44:50Z</time>
      </trkpt>
      <trkpt lat="43.086360" lon="-6.138430">
        <ele>1112.579</ele>
        <time>2020-05-22T00:45:10Z</time>
      </trkpt>
      <trkpt lat="43.086320" lon="-6.138320">
        <ele>1112.605</ele>
        <time>2020-05-22T00:45:30Z</time>
      </trkpt>
      <trkpt lat="43.086310" lon="-6.138260">
        <ele>1112.825</ele>
        <time>2020-05-22T00:45:50Z</time>
      </trkpt>
      <trkpt lat="43.086310" lon="-6.138240">
        <ele>1112.908</ele>
        <time>2020-05-22T00:46:10Z</time>
      </trkpt>
      <trkpt lat="43.086310" lon="-6.138230">
        <ele>1113.071</ele>
        <time>2020-05-22T00:46:30Z</time>
      </trkpt>
      <trkpt lat="43.086300" lon="-6.138180">
        <ele>1113.116</ele>
        <time>2020-05-22T00:46:50Z</time>
      </trkpt>
      <trkpt lat="43.086300" lon="-6.138140">
        <ele>1113.383</ele>
        <time>2020-05-22T00:47:10Z</time>
      </trkpt>
      <trkpt lat="43.086310" lon="-6.137960">
        <ele>1114.369</ele>
        <time>2020-05-22T00:47:30Z</time>
      </trkpt>
      <trkpt lat="43.086310" lon="-6.137880">
        <ele>1114.778</ele>
        <time>2020-05-22T00:47:50Z</time>
      </trkpt>
      <trkpt lat="43.086310" lon="-6.137800">
        <ele>1115.059</ele>
        <time>2020-05-22T00:48:10Z</time>
      </trkpt>
      <trkpt lat="43.086300" lon="-6.137750">
        <ele>1115.178</ele>
        <time>2020-05-22T00:48:30Z</time>
      </trkpt>
      <trkpt lat="43.086300" lon="-6.137740">
        <ele>1115.171</ele>
        <time>2020-05-22T00:48:50Z</time>
      </trkpt>
      <trkpt lat="43.086260" lon="-6.137510">
        <ele>1115.115</ele>
        <time>2020-05-22T00:49:10Z</time>
      </trkpt>
      <trkpt lat="43.086250" lon="-6.137400">
        <ele>1115.565</ele>
        <time>2020-05-22T00:49:30Z</time>
      </trkpt>
      <trkpt lat="43.086180" lon="-6.136960">
        <ele>1116.911</ele>
        <time>2020-05-22T00:49:50Z</time>
      </trkpt>
      <trkpt lat="43.086150" lon="-6.136790">
        <ele>1116.908</ele>
        <time>2020-05-22T00:50:10Z</time>
      </trkpt>
      <trkpt lat="43.086150" lon="-6.136760">
        <ele>1116.915</ele>
        <time>2020-05-22T00:50:30Z</time>
      </trkpt>
      <trkpt lat="43.086120" lon="-6.136620">
        <ele>1116.970</ele>
        <time>2020-05-22T00:50:50Z</time>
      </trkpt>
      <trkpt lat="43.086090" lon="-6.136490">
        <ele>1118.477</ele>
        <time>2020-05-22T00:51:10Z</time>
      </trkpt>
      <trkpt lat="43.086060" lon="-6.136370">
        <ele>1119.973</ele>
        <time>2020-05-22T00:51:30Z</time>
      </trkpt>
      <trkpt lat="43.086020" lon="-6.136250">
        <ele>1121.572</ele>
        <time>2020-05-22T00:51:50Z</time>
      </trkpt>
      <trkpt lat="43.085980" lon="-6.136130">
        <ele>1122.843</ele>
        <time>2020-05-22T00:52:10Z</time>
      </trkpt>
      <trkpt lat="43.085940" lon="-6.136040">
        <ele>1123.222</ele>
        <time>2020-05-22T00:52:30Z</time>
      </trkpt>
      <trkpt lat="43.085910" lon="-6.135970">
        <ele>1123.435</ele>
        <time>2020-05-22T00:52:50Z</time>
      </trkpt>
      <trkpt lat="43.085870" lon="-6.135910">
        <ele>1123.285</ele>
        <time>2020-05-22T00:53:10Z</time>
      </trkpt>
      <trkpt lat="43.085720" lon="-6.135670">
        <ele>1120.889</ele>
        <time>2020-05-22T00:53:30Z</time>
      </trkpt>
      <trkpt lat="43.085640" lon="-6.135550">
        <ele>1120.017</ele>
        <time>2020-05-22T00:53:50Z</time>
      </trkpt>
      <trkpt lat="43.085630" lon="-6.135520">
        <ele>1120.708</ele>
        <time>2020-05-22T00:54:10Z</time>
      </trkpt>
      <trkpt lat="43.085560" lon="-6.135430">
        <ele>1121.742</ele>
        <time>2020-05-22T00:54:30Z</time>
      </trkpt>
      <trkpt lat="43.085500" lon="-6.135340">
        <ele>1123.037</ele>
        <time>2020-05-22T00:54:50Z</time>
      </trkpt>
      <trkpt lat="43.085420" lon="-6.135220">
        <ele>1124.164</ele>
        <time>2020-05-22T00:55:10Z</time>
      </trkpt>
      <trkpt lat="43.085350" lon="-6.135110">
        <ele>1125.240</ele>
        <time>2020-05-22T00:55:30Z</time>
      </trkpt>
      <trkpt lat="43.085190" lon="-6.134840">
        <ele>1128.229</ele>
        <time>2020-05-22T00:55:50Z</time>
      </trkpt>
      <trkpt lat="43.085160" lon="-6.134780">
        <ele>1129.040</ele>
        <time>2020-05-22T00:56:10Z</time>
      </trkpt>
      <trkpt lat="43.085040" lon="-6.134590">
        <ele>1130.649</ele>
        <time>2020-05-22T00:56:30Z</time>
      </trkpt>
      <trkpt lat="43.084960" lon="-6.134450">
        <ele>1132.032</ele>
        <time>2020-05-22T00:56:50Z</time>
      </trkpt>
      <trkpt lat="43.084910" lon="-6.134390">
        <ele>1132.044</ele>
        <time>2020-05-22T00:57:10Z</time>
      </trkpt>
      <trkpt lat="43.084870" lon="-6.134360">
        <ele>1131.705</ele>
        <time>2020-05-22T00:57:30Z</time>
      </trkpt>
      <trkpt lat="43.084830" lon="-6.134320">
        <ele>1131.615</ele>
        <time>2020-05-22T00:57:50Z</time>
      </trkpt>
      <trkpt lat="43.084770" lon="-6.134280">
        <ele>1131.008</ele>
        <time>2020-05-22T00:58:10Z</time>
      </trkpt>
      <trkpt lat="43.084670" lon="-6.134230">
        <ele>1129.958</ele>
        <time>2020-05-22T00:58:30Z</time>
      </trkpt>
      <trkpt lat="43.084560" lon="-6.134170">
        <ele>1129.033</ele>
        <time>2020-05-22T00:58:50Z</time>
      </trkpt>
      <trkpt lat="43.084470" lon="-6.134140">
        <ele>1127.970</ele>
        <time>2020-05-22T00:59:10Z</time>
      </trkpt>
      <trkpt lat="43.084430" lon="-6.134120">
        <ele>1127.846</ele>
        <time>2020-05-22T00:59:30Z</time>
      </trkpt>
      <trkpt lat="43.084400" lon="-6.134110">
        <ele>1127.985</ele>
        <time>2020-05-22T00:59:50Z</time>
      </trkpt>
      <trkpt lat="43.084380" lon="-6.134090">
        <ele>1128.366</ele>
        <time>2020-05-22T01:00:10Z</time>
      </trkpt>
      <trkpt lat="43.084360" lon="-6.134070">
        <ele>1128.645</ele>
        <time>2020-05-22T01:00:30Z</time>
      </trkpt>
      <trkpt lat="43.084270" lon="-6.133990">
        <ele>1130.438</ele>
        <time>2020-05-22T01:00:50Z</time>
      </trkpt>
      <trkpt lat="43.084170" lon="-6.133900">
        <ele>1132.734</ele>
        <time>2020-05-22T01:01:10Z</time>
      </trkpt>
      <trkpt lat="43.084080" lon="-6.133800">
        <ele>1135.055</ele>
        <time>2020-05-22T01:01:30Z</time>
      </trkpt>
      <trkpt lat="43.084020" lon="-6.133740">
        <ele>1136.210</ele>
        <time>2020-05-22T01:01:50Z</time>
      </trkpt>
      <trkpt lat="43.083990" lon="-6.133690">
        <ele>1137.108</ele>
        <time>2020-05-22T01:02:10Z</time>
      </trkpt>
      <trkpt lat="43.083980" lon="-6.133680">
        <ele>1137.367</ele>
        <time>2020-05-22T01:02:30Z</time>
      </trkpt>
      <trkpt lat="43.083960" lon="-6.133650">
        <ele>1137.762</ele>
        <time>2020-05-22T01:02:50Z</time>
      </trkpt>
      <trkpt lat="43.083930" lon="-6.133600">
        <ele>1138.699</ele>
        <time>2020-05-22T01:03:10Z</time>
      </trkpt>
      <trkpt lat="43.083890" lon="-6.133500">
        <ele>1140.415</ele>
        <time>2020-05-22T01:03:30Z</time>
      </trkpt>
      <trkpt lat="43.083840" lon="-6.133410">
        <ele>1140.564</ele>
        <time>2020-05-22T01:03:50Z</time>
      </trkpt>
      <trkpt lat="43.083800" lon="-6.133340">
        <ele>1140.485</ele>
        <time>2020-05-22T01:04:10Z</time>
      </trkpt>
      <trkpt lat="43.083730" lon="-6.133250">
        <ele>1140.334</ele>
        <time>2020-05-22T01:04:30Z</time>
      </trkpt>
      <trkpt lat="43.083690" lon="-6.133190">
        <ele>1140.677</ele>
        <time>2020-05-22T01:04:50Z</time>
      </trkpt>
      <trkpt lat="43.083520" lon="-6.132950">
        <ele>1142.748</ele>
        <time>2020-05-22T01:05:10Z</time>
      </trkpt>
      <trkpt lat="43.083450" lon="-6.132830">
        <ele>1144.261</ele>
        <time>2020-05-22T01:05:30Z</time>
      </trkpt>
      <trkpt lat="43.083440" lon="-6.132820">
        <ele>1144.217</ele>
        <time>2020-05-22T01:05:50Z</time>
      </trkpt>
      <trkpt lat="43.083380" lon="-6.132730">
        <ele>1144.608</ele>
        <time>2020-05-22T01:06:10Z</time>
      </trkpt>
      <trkpt lat="43.083330" lon="-6.132670">
        <ele>1144.258</ele>
        <time>2020-05-22T01:06:30Z</time>
      </trkpt>
      <trkpt lat="43.083270" lon="-6.132600">
        <ele>1144.033</ele>
        <time>2020-05-22T01:06:50Z</time>
      </trkpt>
      <trkpt lat="43.083210" lon="-6.132540">
        <ele>1143.370</ele>
        <time>2020-05-22T01:07:10Z</time>
      </trkpt>
      <trkpt lat="43.083170" lon="-6.132510">
        <ele>1142.636</ele>
        <time>2020-05-22T01:07:30Z</time>
      </trkpt>
      <trkpt lat="43.083130" lon="-6.132470">
        <ele>1141.985</ele>
        <time>2020-05-22T01:07:50Z</time>
      </trkpt>
      <trkpt lat="43.083080" lon="-6.132440">
        <ele>1140.926</ele>
        <time>2020-05-22T01:08:10Z</time>
      </trkpt>
      <trkpt lat="43.083020" lon="-6.132400">
        <ele>1140.555</ele>
        <time>2020-05-22T01:08:30Z</time>
      </trkpt>
      <trkpt lat="43.082980" lon="-6.132370">
        <ele>1140.788</ele>
        <time>2020-05-22T01:08:50Z</time>
      </trkpt>
      <trkpt lat="43.082950" lon="-6.132350">
        <ele>1140.827</ele>
        <time>2020-05-22T01:09:10Z</time>
      </trkpt>
      <trkpt lat="43.082920" lon="-6.132320">
        <ele>1141.168</ele>
        <time>2020-05-22T01:09:30Z</time>
      </trkpt>
      <trkpt lat="43.082900" lon="-6.132290">
        <ele>1141.514</ele>
        <time>2020-05-22T01:09:50Z</time>
      </trkpt>
      <trkpt lat="43.082880" lon="-6.132260">
        <ele>1142.008</ele>
        <time>2020-05-22T01:10:10Z</time>
      </trkpt>
      <trkpt lat="43.082850" lon="-6.132210">
        <ele>1142.836</ele>
        <time>2020-05-22T01:10:30Z</time>
      </trkpt>
      <trkpt lat="43.082820" lon="-6.132160">
        <ele>1143.761</ele>
        <time>2020-05-22T01:10:50Z</time>
      </trkpt>
      <trkpt lat="43.082800" lon="-6.132110">
        <ele>1144.638</ele>
        <time>2020-05-22T01:11:10Z</time>
      </trkpt>
      <trkpt lat="43.082770" lon="-6.132040">
        <ele>1145.894</ele>
        <time>2020-05-22T01:11:30Z</time>
      </trkpt>
      <trkpt lat="43.082760" lon="-6.132020">
        <ele>1146.023</ele>
        <time>2020-05-22T01:11:50Z</time>
      </trkpt>
      <trkpt lat="43.082730" lon="-6.131950">
        <ele>1147.084</ele>
        <time>2020-05-22T01:12:10Z</time>
      </trkpt>
      <trkpt lat="43.082680" lon="-6.131870">
        <ele>1147.953</ele>
        <time>2020-05-22T01:12:30Z</time>
      </trkpt>
      <trkpt lat="43.082670" lon="-6.131840">
        <ele>1148.446</ele>
        <time>2020-05-22T01:12:50Z</time>
      </trkpt>
      <trkpt lat="43.082640" lon="-6.131790">
        <ele>1148.953</ele>
        <time>2020-05-22T01:13:10Z</time>
      </trkpt>
      <trkpt lat="43.082600" lon="-6.131740">
        <ele>1149.004</ele>
        <time>2020-05-22T01:13:30Z</time>
      </trkpt>
      <trkpt lat="43.082520" lon="-6.131630">
        <ele>1149.314</ele>
        <time>2020-05-22T01:13:50Z</time>
      </trkpt>
      <trkpt lat="43.082400" lon="-6.131480">
        <ele>1149.508</ele>
        <time>2020-05-22T01:14:10Z</time>
      </trkpt>
      <trkpt lat="43.082320" lon="-6.131380">
        <ele>1149.079</ele>
        <time>2020-05-22T01:14:30Z</time>
      </trkpt>
      <trkpt lat="43.082290" lon="-6.131340">
        <ele>1148.934</ele>
        <time>2020-05-22T01:14:50Z</time>
      </trkpt>
      <trkpt lat="43.082280" lon="-6.131330">
        <ele>1148.891</ele>
        <time>2020-05-22T01:15:10Z</time>
      </trkpt>
      <trkpt lat="43.082260" lon="-6.131300">
        <ele>1148.847</ele>
        <time>2020-05-22T01:15:30Z</time>
      </trkpt>
      <trkpt lat="43.082240" lon="-6.131260">
        <ele>1148.936</ele>
        <time>2020-05-22T01:15:50Z</time>
      </trkpt>
      <trkpt lat="43.082210" lon="-6.131210">
        <ele>1148.967</ele>
        <time>2020-05-22T01:16:10Z</time>
      </trkpt>
      <trkpt lat="43.082180" lon="-6.131160">
        <ele>1149.166</ele>
        <time>2020-05-22T01:16:30Z</time>
      </trkpt>
      <trkpt lat="43.082090" lon="-6.130910">
        <ele>1152.179</ele>
        <time>2020-05-22T01:16:50Z</time>
      </trkpt>
      <trkpt lat="43.082050" lon="-6.130800">
        <ele>1153.191</ele>
        <time>2020-05-22T01:17:10Z</time>
      </trkpt>
      <trkpt lat="43.082020" lon="-6.130730">
        <ele>1153.781</ele>
        <time>2020-05-22T01:17:30Z</time>
      </trkpt>
      <trkpt lat="43.082010" lon="-6.130690">
        <ele>1154.319</ele>
        <time>2020-05-22T01:17:50Z</time>
      </trkpt>
      <trkpt lat="43.082000" lon="-6.130640">
        <ele>1155.208</ele>
        <time>2020-05-22T01:18:10Z</time>
      </trkpt>
      <trkpt lat="43.081990" lon="-6.130580">
        <ele>1156.393</ele>
        <time>2020-05-22T01:18:30Z</time>
      </trkpt>
      <trkpt lat="43.081990" lon="-6.130500">
        <ele>1158.158</ele>
        <time>2020-05-22T01:18:50Z</time>
      </trkpt>
      <trkpt lat="43.081990" lon="-6.130450">
        <ele>1159.245</ele>
        <time>2020-05-22T01:19:10Z</time>
      </trkpt>
      <trkpt lat="43.081980" lon="-6.130400">
        <ele>1159.821</ele>
        <time>2020-05-22T01:19:30Z</time>
      </trkpt>
      <trkpt lat="43.081980" lon="-6.130370">
        <ele>1160.590</ele>
        <time>2020-05-22T01:19:50Z</time>
      </trkpt>
      <trkpt lat="43.081960" lon="-6.130340">
        <ele>1160.331</ele>
        <time>2020-05-22T01:20:10Z</time>
      </trkpt>
      <trkpt lat="43.081950" lon="-6.130310">
        <ele>1160.580</ele>
        <time>2020-05-22T01:20:30Z</time>
      </trkpt>
      <trkpt lat="43.081930" lon="-6.130290">
        <ele>1160.363</ele>
        <time>2020-05-22T01:20:50Z</time>
      </trkpt>
      <trkpt lat="43.081890" lon="-6.130250">
        <ele>1160.025</ele>
        <time>2020-05-22T01:21:10Z</time>
      </trkpt>
      <trkpt lat="43.081810" lon="-6.130180">
        <ele>1159.226</ele>
        <time>2020-05-22T01:21:30Z</time>
      </trkpt>
      <trkpt lat="43.081610" lon="-6.130010">
        <ele>1158.208</ele>
        <time>2020-05-22T01:21:50Z</time>
      </trkpt>
      <trkpt lat="43.081590" lon="-6.129990">
        <ele>1158.508</ele>
        <time>2020-05-22T01:22:10Z</time>
      </trkpt>
      <trkpt lat="43.081480" lon="-6.129870">
        <ele>1161.446</ele>
        <time>2020-05-22T01:22:30Z</time>
      </trkpt>
      <trkpt lat="43.081410" lon="-6.129790">
        <ele>1163.711</ele>
        <time>2020-05-22T01:22:50Z</time>
      </trkpt>
      <trkpt lat="43.081330" lon="-6.129730">
        <ele>1164.798</ele>
        <time>2020-05-22T01:23:10Z</time>
      </trkpt>
      <trkpt lat="43.081270" lon="-6.129680">
        <ele>1165.164</ele>
        <time>2020-05-22T01:23:30Z</time>
      </trkpt>
      <trkpt lat="43.080820" lon="-6.129350">
        <ele>1169.423</ele>
        <time>2020-05-22T01:23:50Z</time>
      </trkpt>
      <trkpt lat="43.080790" lon="-6.129330">
        <ele>1169.934</ele>
        <time>2020-05-22T01:24:10Z</time>
      </trkpt>
      <trkpt lat="43.080710" lon="-6.129270">
        <ele>1171.753</ele>
        <time>2020-05-22T01:24:30Z</time>
      </trkpt>
      <trkpt lat="43.080670" lon="-6.129240">
        <ele>1172.686</ele>
        <time>2020-05-22T01:24:50Z</time>
      </trkpt>
      <trkpt lat="43.080660" lon="-6.129240">
        <ele>1172.641</ele>
        <time>2020-05-22T01:25:10Z</time>
      </trkpt>
      <trkpt lat="43.080560" lon="-6.129180">
        <ele>1174.681</ele>
        <time>2020-05-22T01:25:30Z</time>
      </trkpt>
      <trkpt lat="43.080500" lon="-6.129150">
        <ele>1175.409</ele>
        <time>2020-05-22T01:25:50Z</time>
      </trkpt>
      <trkpt lat="43.080330" lon="-6.129060">
        <ele>1177.908</ele>
        <time>2020-05-22T01:26:10Z</time>
      </trkpt>
      <trkpt lat="43.080330" lon="-6.129050">
        <ele>1178.278</ele>
        <time>2020-05-22T01:26:30Z</time>
      </trkpt>
      <trkpt lat="43.080250" lon="-6.129010">
        <ele>1179.353</ele>
        <time>2020-05-22T01:26:50Z</time>
      </trkpt>
      <trkpt lat="43.080200" lon="-6.129000">
        <ele>1179.250</ele>
        <time>2020-05-22T01:27:10Z</time>
      </trkpt>
      <trkpt lat="43.080160" lon="-6.128990">
        <ele>1179.236</ele>
        <time>2020-05-22T01:27:30Z</time>
      </trkpt>
      <trkpt lat="43.080130" lon="-6.128990">
        <ele>1179.045</ele>
        <time>2020-05-22T01:27:50Z</time>
      </trkpt>
      <trkpt lat="43.080050" lon="-6.128980">
        <ele>1178.726</ele>
        <time>2020-05-22T01:28:10Z</time>
      </trkpt>
      <trkpt lat="43.079980" lon="-6.128970">
        <ele>1178.855</ele>
        <time>2020-05-22T01:28:30Z</time>
      </trkpt>
      <trkpt lat="43.079950" lon="-6.128970">
        <ele>1179.068</ele>
        <time>2020-05-22T01:28:50Z</time>
      </trkpt>
      <trkpt lat="43.079840" lon="-6.128960">
        <ele>1180.199</ele>
        <time>2020-05-22T01:29:10Z</time>
      </trkpt>
      <trkpt lat="43.079780" lon="-6.128960">
        <ele>1180.507</ele>
        <time>2020-05-22T01:29:30Z</time>
      </trkpt>
      <trkpt lat="43.079730" lon="-6.128970">
        <ele>1180.627</ele>
        <time>2020-05-22T01:29:50Z</time>
      </trkpt>
      <trkpt lat="43.079670" lon="-6.128980">
        <ele>1181.208</ele>
        <time>2020-05-22T01:30:10Z</time>
      </trkpt>
      <trkpt lat="43.079620" lon="-6.129000">
        <ele>1181.413</ele>
        <time>2020-05-22T01:30:30Z</time>
      </trkpt>
      <trkpt lat="43.079530" lon="-6.129030">
        <ele>1182.158</ele>
        <time>2020-05-22T01:30:50Z</time>
      </trkpt>
      <trkpt lat="43.079450" lon="-6.129060">
        <ele>1182.675</ele>
        <time>2020-05-22T01:31:10Z</time>
      </trkpt>
      <trkpt lat="43.079440" lon="-6.129070">
        <ele>1182.561</ele>
        <time>2020-05-22T01:31:30Z</time>
      </trkpt>
      <trkpt lat="43.079360" lon="-6.129100">
        <ele>1183.810</ele>
        <time>2020-05-22T01:31:50Z</time>
      </trkpt>
      <trkpt lat="43.079280" lon="-6.129130">
        <ele>1185.181</ele>
        <time>2020-05-22T01:32:10Z</time>
      </trkpt>
      <trkpt lat="43.079270" lon="-6.129140">
        <ele>1185.110</ele>
        <time>2020-05-22T01:32:30Z</time>
      </trkpt>
      <trkpt lat="43.079230" lon="-6.129160">
        <ele>1185.633</ele>
        <time>2020-05-22T01:32:50Z</time>
      </trkpt>
      <trkpt lat="43.079150" lon="-6.129220">
        <ele>1186.999</ele>
        <time>2020-05-22T01:33:10Z</time>
      </trkpt>
      <trkpt lat="43.079130" lon="-6.129250">
        <ele>1187.507</ele>
        <time>2020-05-22T01:33:30Z</time>
      </trkpt>
      <trkpt lat="43.079120" lon="-6.129260">
        <ele>1188.027</ele>
        <time>2020-05-22T01:33:50Z</time>
      </trkpt>
      <trkpt lat="43.078980" lon="-6.129410">
        <ele>1192.208</ele>
        <time>2020-05-22T01:34:10Z</time>
      </trkpt>
      <trkpt lat="43.078950" lon="-6.129430">
        <ele>1193.253</ele>
        <time>2020-05-22T01:34:30Z</time>
      </trkpt>
      <trkpt lat="43.078890" lon="-6.129490">
        <ele>1194.538</ele>
        <time>2020-05-22T01:34:50Z</time>
      </trkpt>
      <trkpt lat="43.078850" lon="-6.129510">
        <ele>1195.235</ele>
        <time>2020-05-22T01:35:10Z</time>
      </trkpt>
      <trkpt lat="43.078820" lon="-6.129530">
        <ele>1195.521</ele>
        <time>2020-05-22T01:35:30Z</time>
      </trkpt>
      <trkpt lat="43.078790" lon="-6.129540">
        <ele>1196.220</ele>
        <time>2020-05-22T01:35:50Z</time>
      </trkpt>
      <trkpt lat="43.078690" lon="-6.129580">
        <ele>1198.451</ele>
        <time>2020-05-22T01:36:10Z</time>
      </trkpt>
      <trkpt lat="43.078620" lon="-6.129620">
        <ele>1199.670</ele>
        <time>2020-05-22T01:36:30Z</time>
      </trkpt>
      <trkpt lat="43.078550" lon="-6.129660">
        <ele>1200.343</ele>
        <time>2020-05-22T01:36:50Z</time>
      </trkpt>
      <trkpt lat="43.078490" lon="-6.129700">
        <ele>1200.768</ele>
        <time>2020-05-22T01:37:10Z</time>
      </trkpt>
      <trkpt lat="43.078320" lon="-6.129810">
        <ele>1202.542</ele>
        <time>2020-05-22T01:37:30Z</time>
      </trkpt>
      <trkpt lat="43.078290" lon="-6.129830">
        <ele>1202.826</ele>
        <time>2020-05-22T01:37:50Z</time>
      </trkpt>
      <trkpt lat="43.078220" lon="-6.129880">
        <ele>1203.708</ele>
        <time>2020-05-22T01:38:10Z</time>
      </trkpt>
      <trkpt lat="43.078160" lon="-6.129910">
        <ele>1204.750</ele>
        <time>2020-05-22T01:38:30Z</time>
      </trkpt>
      <trkpt lat="43.078010" lon="-6.129990">
        <ele>1207.045</ele>
        <time>2020-05-22T01:38:50Z</time>
      </trkpt>
      <trkpt lat="43.077860" lon="-6.130050">
        <ele>1208.212</ele>
        <time>2020-05-22T01:39:10Z</time>
      </trkpt>
      <trkpt lat="43.077770" lon="-6.130080">
        <ele>1208.858</ele>
        <time>2020-05-22T01:39:30Z</time>
      </trkpt>
      <trkpt lat="43.077720" lon="-6.130090">
        <ele>1209.037</ele>
        <time>2020-05-22T01:39:50Z</time>
      </trkpt>
      <trkpt lat="43.077660" lon="-6.130110">
        <ele>1209.118</ele>
        <time>2020-05-22T01:40:10Z</time>
      </trkpt>
      <trkpt lat="43.077620" lon="-6.130110">
        <ele>1209.557</ele>
        <time>2020-05-22T01:40:30Z</time>
      </trkpt>
      <trkpt lat="43.077590" lon="-6.130120">
        <ele>1209.620</ele>
        <time>2020-05-22T01:40:50Z</time>
      </trkpt>
      <trkpt lat="43.077540" lon="-6.130110">
        <ele>1210.496</ele>
        <time>2020-05-22T01:41:10Z</time>
      </trkpt>
      <trkpt lat="43.077500" lon="-6.130100">
        <ele>1211.131</ele>
        <time>2020-05-22T01:41:30Z</time>
      </trkpt>
      <trkpt lat="43.077460" lon="-6.130100">
        <ele>1211.524</ele>
        <time>2020-05-22T01:41:50Z</time>
      </trkpt>
      <trkpt lat="43.077360" lon="-6.130080">
        <ele>1213.308</ele>
        <time>2020-05-22T01:42:10Z</time>
      </trkpt>
      <trkpt lat="43.077310" lon="-6.130070">
        <ele>1214.263</ele>
        <time>2020-05-22T01:42:30Z</time>
      </trkpt>
      <trkpt lat="43.077300" lon="-6.130070">
        <ele>1214.368</ele>
        <time>2020-05-22T01:42:50Z</time>
      </trkpt>
      <trkpt lat="43.077280" lon="-6.130080">
        <ele>1214.265</ele>
        <time>2020-05-22T01:43:10Z</time>
      </trkpt>
      <trkpt lat="43.077240" lon="-6.130080">
        <ele>1214.671</ele>
        <time>2020-05-22T01:43:30Z</time>
      </trkpt>
      <trkpt lat="43.077220" lon="-6.130100">
        <ele>1214.160</ele>
        <time>2020-05-22T01:43:50Z</time>
      </trkpt>
      <trkpt lat="43.077200" lon="-6.130110">
        <ele>1213.841</ele>
        <time>2020-05-22T01:44:10Z</time>
      </trkpt>
      <trkpt lat="43.077180" lon="-6.130130">
        <ele>1213.220</ele>
        <time>2020-05-22T01:44:30Z</time>
      </trkpt>
      <trkpt lat="43.077150" lon="-6.130150">
        <ele>1212.713</ele>
        <time>2020-05-22T01:44:50Z</time>
      </trkpt>
      <trkpt lat="43.077140" lon="-6.130170">
        <ele>1212.116</ele>
        <time>2020-05-22T01:45:10Z</time>
      </trkpt>
      <trkpt lat="43.077130" lon="-6.130190">
        <ele>1211.576</ele>
        <time>2020-05-22T01:45:30Z</time>
      </trkpt>
      <trkpt lat="43.077090" lon="-6.130240">
        <ele>1210.213</ele>
        <time>2020-05-22T01:45:50Z</time>
      </trkpt>
      <trkpt lat="43.077060" lon="-6.130290">
        <ele>1208.908</ele>
        <time>2020-05-22T01:46:10Z</time>
      </trkpt>
      <trkpt lat="43.077030" lon="-6.130350">
        <ele>1207.395</ele>
        <time>2020-05-22T01:46:30Z</time>
      </trkpt>
      <trkpt lat="43.077010" lon="-6.130370">
        <ele>1206.940</ele>
        <time>2020-05-22T01:46:50Z</time>
      </trkpt>
      <trkpt lat="43.076990" lon="-6.130390">
        <ele>1206.627</ele>
        <time>2020-05-22T01:47:10Z</time>
      </trkpt>
      <trkpt lat="43.076970" lon="-6.130400">
        <ele>1206.653</ele>
        <time>2020-05-22T01:47:30Z</time>
      </trkpt>
      <trkpt lat="43.076940" lon="-6.130420">
        <ele>1206.532</ele>
        <time>2020-05-22T01:47:50Z</time>
      </trkpt>
      <trkpt lat="43.076900" lon="-6.130440">
        <ele>1207.063</ele>
        <time>2020-05-22T01:48:10Z</time>
      </trkpt>
      <trkpt lat="43.076860" lon="-6.130460">
        <ele>1207.452</ele>
        <time>2020-05-22T01:48:30Z</time>
      </trkpt>
      <trkpt lat="43.076850" lon="-6.130460">
        <ele>1207.775</ele>
        <time>2020-05-22T01:48:50Z</time>
      </trkpt>
      <trkpt lat="43.076820" lon="-6.130490">
        <ele>1207.613</ele>
        <time>2020-05-22T01:49:10Z</time>
      </trkpt>
      <trkpt lat="43.076780" lon="-6.130520">
        <ele>1207.843</ele>
        <time>2020-05-22T01:49:30Z</time>
      </trkpt>
      <trkpt lat="43.076750" lon="-6.130560">
        <ele>1207.507</ele>
        <time>2020-05-22T01:49:50Z</time>
      </trkpt>
      <trkpt lat="43.076700" lon="-6.130590">
        <ele>1208.308</ele>
        <time>2020-05-22T01:50:10Z</time>
      </trkpt>
      <trkpt lat="43.076670" lon="-6.130600">
        <ele>1208.945</ele>
        <time>2020-05-22T01:50:30Z</time>
      </trkpt>
      <trkpt lat="43.076650" lon="-6.130610">
        <ele>1208.930</ele>
        <time>2020-05-22T01:50:50Z</time>
      </trkpt>
      <trkpt lat="43.076640" lon="-6.130610">
        <ele>1209.087</ele>
        <time>2020-05-22T01:51:10Z</time>
      </trkpt>
      <trkpt lat="43.076610" lon="-6.130610">
        <ele>1209.243</ele>
        <time>2020-05-22T01:51:30Z</time>
      </trkpt>
      <trkpt lat="43.076590" lon="-6.130600">
        <ele>1209.662</ele>
        <time>2020-05-22T01:51:50Z</time>
      </trkpt>
      <trkpt lat="43.076550" lon="-6.130580">
        <ele>1210.323</ele>
        <time>2020-05-22T01:52:10Z</time>
      </trkpt>
      <trkpt lat="43.076510" lon="-6.130560">
        <ele>1211.012</ele>
        <time>2020-05-22T01:52:30Z</time>
      </trkpt>
      <trkpt lat="43.076460" lon="-6.130530">
        <ele>1212.285</ele>
        <time>2020-05-22T01:52:50Z</time>
      </trkpt>
      <trkpt lat="43.076430" lon="-6.130510">
        <ele>1212.998</ele>
        <time>2020-05-22T01:53:10Z</time>
      </trkpt>
      <trkpt lat="43.076410" lon="-6.130490">
        <ele>1213.515</ele>
        <time>2020-05-22T01:53:30Z</time>
      </trkpt>
      <trkpt lat="43.076400" lon="-6.130490">
        <ele>1213.626</ele>
        <time>2020-05-22T01:53:50Z</time>
      </trkpt>
      <trkpt lat="43.076370" lon="-6.130450">
        <ele>1214.508</ele>
        <time>2020-05-22T01:54:10Z</time>
      </trkpt>
      <trkpt lat="43.076340" lon="-6.130410">
        <ele>1215.393</ele>
        <time>2020-05-22T01:54:30Z</time>
      </trkpt>
      <trkpt lat="43.076290" lon="-6.130340">
        <ele>1216.578</ele>
        <time>2020-05-22T01:54:50Z</time>
      </trkpt>
      <trkpt lat="43.076250" lon="-6.130270">
        <ele>1217.755</ele>
        <time>2020-05-22T01:55:10Z</time>
      </trkpt>
      <trkpt lat="43.076200" lon="-6.130210">
        <ele>1218.521</ele>
        <time>2020-05-22T01:55:30Z</time>
      </trkpt>
      <trkpt lat="43.076140" lon="-6.130140">
        <ele>1219.380</ele>
        <time>2020-05-22T01:55:50Z</time>
      </trkpt>
      <trkpt lat="43.076060" lon="-6.130050">
        <ele>1220.531</ele>
        <time>2020-05-22T01:56:10Z</time>
      </trkpt>
      <trkpt lat="43.075950" lon="-6.129960">
        <ele>1222.390</ele>
        <time>2020-05-22T01:56:30Z</time>
      </trkpt>
      <trkpt lat="43.075690" lon="-6.129770">
        <ele>1224.983</ele>
        <time>2020-05-22T01:56:50Z</time>
      </trkpt>
      <trkpt lat="43.075640" lon="-6.129730">
        <ele>1225.325</ele>
        <time>2020-05-22T01:57:10Z</time>
      </trkpt>
      <trkpt lat="43.075530" lon="-6.129640">
        <ele>1227.326</ele>
        <time>2020-05-22T01:57:30Z</time>
      </trkpt>
      <trkpt lat="43.075480" lon="-6.129600">
        <ele>1228.208</ele>
        <time>2020-05-22T01:57:50Z</time>
      </trkpt>
      <trkpt lat="43.075370" lon="-6.129500">
        <ele>1230.908</ele>
        <time>2020-05-22T01:58:10Z</time>
      </trkpt>
      <trkpt lat="43.075290" lon="-6.129420">
        <ele>1233.316</ele>
        <time>2020-05-22T01:58:30Z</time>
      </trkpt>
      <trkpt lat="43.075220" lon="-6.129340">
        <ele>1233.831</ele>
        <time>2020-05-22T01:58:50Z</time>
      </trkpt>
      <trkpt lat="43.075140" lon="-6.129240">
        <ele>1234.478</ele>
        <time>2020-05-22T01:59:10Z</time>
      </trkpt>
      <trkpt lat="43.075060" lon="-6.129100">
        <ele>1236.824</ele>
        <time>2020-05-22T01:59:30Z</time>
      </trkpt>
      <trkpt lat="43.075000" lon="-6.129000">
        <ele>1238.843</ele>
        <time>2020-05-22T01:59:50Z</time>
      </trkpt>
      <trkpt lat="43.074890" lon="-6.128830">
        <ele>1239.444</ele>
        <time>2020-05-22T02:00:10Z</time>
      </trkpt>
      <trkpt lat="43.074760" lon="-6.128590">
        <ele>1239.753</ele>
        <time>2020-05-22T02:00:30Z</time>
      </trkpt>
      <trkpt lat="43.074620" lon="-6.128320">
        <ele>1241.786</ele>
        <time>2020-05-22T02:00:50Z</time>
      </trkpt>
      <trkpt lat="43.074570" lon="-6.128210">
        <ele>1243.026</ele>
        <time>2020-05-22T02:01:10Z</time>
      </trkpt>
      <trkpt lat="43.074450" lon="-6.127960">
        <ele>1244.847</ele>
        <time>2020-05-22T02:01:30Z</time>
      </trkpt>
      <trkpt lat="43.074280" lon="-6.127580">
        <ele>1249.711</ele>
        <time>2020-05-22T02:01:50Z</time>
      </trkpt>
      <trkpt lat="43.074210" lon="-6.127430">
        <ele>1251.108</ele>
        <time>2020-05-22T02:02:10Z</time>
      </trkpt>
      <trkpt lat="43.074100" lon="-6.127160">
        <ele>1254.356</ele>
        <time>2020-05-22T02:02:30Z</time>
      </trkpt>
      <trkpt lat="43.074100" lon="-6.127140">
        <ele>1255.071</ele>
        <time>2020-05-22T02:02:50Z</time>
      </trkpt>
      <trkpt lat="43.074010" lon="-6.126940">
        <ele>1257.338</ele>
        <time>2020-05-22T02:03:10Z</time>
      </trkpt>
      <trkpt lat="43.073930" lon="-6.126760">
        <ele>1258.054</ele>
        <time>2020-05-22T02:03:30Z</time>
      </trkpt>
      <trkpt lat="43.073810" lon="-6.126520">
        <ele>1257.773</ele>
        <time>2020-05-22T02:03:50Z</time>
      </trkpt>
      <trkpt lat="43.073720" lon="-6.126330">
        <ele>1258.114</ele>
        <time>2020-05-22T02:04:10Z</time>
      </trkpt>
      <trkpt lat="43.073660" lon="-6.126180">
        <ele>1258.973</ele>
        <time>2020-05-22T02:04:30Z</time>
      </trkpt>
      <trkpt lat="43.073590" lon="-6.125990">
        <ele>1260.936</ele>
        <time>2020-05-22T02:04:50Z</time>
      </trkpt>
      <trkpt lat="43.073550" lon="-6.125890">
        <ele>1262.274</ele>
        <time>2020-05-22T02:05:10Z</time>
      </trkpt>
      <trkpt lat="43.073480" lon="-6.125660">
        <ele>1265.656</ele>
        <time>2020-05-22T02:05:30Z</time>
      </trkpt>
      <trkpt lat="43.073450" lon="-6.125570">
        <ele>1267.221</ele>
        <time>2020-05-22T02:05:50Z</time>
      </trkpt>
      <trkpt lat="43.073410" lon="-6.125430">
        <ele>1270.408</ele>
        <time>2020-05-22T02:06:10Z</time>
      </trkpt>
      <trkpt lat="43.073360" lon="-6.125320">
        <ele>1273.011</ele>
        <time>2020-05-22T02:06:30Z</time>
      </trkpt>
      <trkpt lat="43.073310" lon="-6.125210">
        <ele>1274.576</ele>
        <time>2020-05-22T02:06:50Z</time>
      </trkpt>
      <trkpt lat="43.073230" lon="-6.125060">
        <ele>1274.233</ele>
        <time>2020-05-22T02:07:10Z</time>
      </trkpt>
      <trkpt lat="43.073150" lon="-6.124910">
        <ele>1274.539</ele>
        <time>2020-05-22T02:07:30Z</time>
      </trkpt>
      <trkpt lat="43.073100" lon="-6.124830">
        <ele>1274.588</ele>
        <time>2020-05-22T02:07:50Z</time>
      </trkpt>
      <trkpt lat="43.073080" lon="-6.124790">
        <ele>1274.869</ele>
        <time>2020-05-22T02:08:10Z</time>
      </trkpt>
      <trkpt lat="43.073030" lon="-6.124690">
        <ele>1275.758</ele>
        <time>2020-05-22T02:08:30Z</time>
      </trkpt>
      <trkpt lat="43.072970" lon="-6.124570">
        <ele>1277.191</ele>
        <time>2020-05-22T02:08:50Z</time>
      </trkpt>
      <trkpt lat="43.072900" lon="-6.124420">
        <ele>1279.337</ele>
        <time>2020-05-22T02:09:10Z</time>
      </trkpt>
      <trkpt lat="43.072810" lon="-6.124200">
        <ele>1280.049</ele>
        <time>2020-05-22T02:09:30Z</time>
      </trkpt>
      <trkpt lat="43.072730" lon="-6.123990">
        <ele>1279.313</ele>
        <time>2020-05-22T02:09:50Z</time>
      </trkpt>
      <trkpt lat="43.072470" lon="-6.123340">
        <ele>1283.208</ele>
        <time>2020-05-22T02:10:10Z</time>
      </trkpt>
      <trkpt lat="43.072390" lon="-6.123120">
        <ele>1286.497</ele>
        <time>2020-05-22T02:10:30Z</time>
      </trkpt>
      <trkpt lat="43.072300" lon="-6.122910">
        <ele>1286.912</ele>
        <time>2020-05-22T02:10:50Z</time>
      </trkpt>
      <trkpt lat="43.072220" lon="-6.122690">
        <ele>1288.449</ele>
        <time>2020-05-22T02:11:10Z</time>
      </trkpt>
      <trkpt lat="43.072180" lon="-6.122590">
        <ele>1288.915</ele>
        <time>2020-05-22T02:11:30Z</time>
      </trkpt>
      <trkpt lat="43.072130" lon="-6.122470">
        <ele>1289.054</ele>
        <time>2020-05-22T02:11:50Z</time>
      </trkpt>
      <trkpt lat="43.072050" lon="-6.122250">
        <ele>1289.455</ele>
        <time>2020-05-22T02:12:10Z</time>
      </trkpt>
      <trkpt lat="43.071990" lon="-6.122080">
        <ele>1292.244</ele>
        <time>2020-05-22T02:12:30Z</time>
      </trkpt>
      <trkpt lat="43.071940" lon="-6.121950">
        <ele>1294.527</ele>
        <time>2020-05-22T02:12:50Z</time>
      </trkpt>
      <trkpt lat="43.071910" lon="-6.121830">
        <ele>1298.416</ele>
        <time>2020-05-22T02:13:10Z</time>
      </trkpt>
      <trkpt lat="43.071910" lon="-6.121800">
        <ele>1299.876</ele>
        <time>2020-05-22T02:13:30Z</time>
      </trkpt>
      <trkpt lat="43.071900" lon="-6.121750">
        <ele>1301.513</ele>
        <time>2020-05-22T02:13:50Z</time>
      </trkpt>
      <trkpt lat="43.071880" lon="-6.121680">
        <ele>1303.308</ele>
        <time>2020-05-22T02:14:10Z</time>
      </trkpt>
      <trkpt lat="43.071870" lon="-6.121620">
        <ele>1305.275</ele>
        <time>2020-05-22T02:14:30Z</time>
      </trkpt>
      <trkpt lat="43.071860" lon="-6.121560">
        <ele>1307.040</ele>
        <time>2020-05-22T02:14:50Z</time>
      </trkpt>
      <trkpt lat="43.071830" lon="-6.121500">
        <ele>1307.487</ele>
        <time>2020-05-22T02:15:10Z</time>
      </trkpt>
      <trkpt lat="43.071810" lon="-6.121450">
        <ele>1308.163</ele>
        <time>2020-05-22T02:15:30Z</time>
      </trkpt>
      <trkpt lat="43.071790" lon="-6.121420">
        <ele>1307.932</ele>
        <time>2020-05-22T02:15:50Z</time>
      </trkpt>
      <trkpt lat="43.071770" lon="-6.121400">
        <ele>1307.363</ele>
        <time>2020-05-22T02:16:10Z</time>
      </trkpt>
      <trkpt lat="43.071750" lon="-6.121380">
        <ele>1306.732</ele>
        <time>2020-05-22T02:16:30Z</time>
      </trkpt>
      <trkpt lat="43.071730" lon="-6.121360">
        <ele>1306.045</ele>
        <time>2020-05-22T02:16:50Z</time>
      </trkpt>
      <trkpt lat="43.071680" lon="-6.121350">
        <ele>1302.729</ele>
        <time>2020-05-22T02:17:10Z</time>
      </trkpt>
      <trkpt lat="43.071640" lon="-6.121330">
        <ele>1301.500</ele>
        <time>2020-05-22T02:17:30Z</time>
      </trkpt>
      <trkpt lat="43.071610" lon="-6.121310">
        <ele>1301.220</ele>
        <time>2020-05-22T02:17:50Z</time>
      </trkpt>
      <trkpt lat="43.071580" lon="-6.121290">
        <ele>1301.008</ele>
        <time>2020-05-22T02:18:10Z</time>
      </trkpt>
      <trkpt lat="43.071550" lon="-6.121250">
        <ele>1301.696</ele>
        <time>2020-05-22T02:18:30Z</time>
      </trkpt>
      <trkpt lat="43.071510" lon="-6.121200">
        <ele>1302.351</ele>
        <time>2020-05-22T02:18:50Z</time>
      </trkpt>
      <trkpt lat="43.071410" lon="-6.121050">
        <ele>1304.858</ele>
        <time>2020-05-22T02:19:10Z</time>
      </trkpt>
      <trkpt lat="43.071330" lon="-6.120930">
        <ele>1307.194</ele>
        <time>2020-05-22T02:19:30Z</time>
      </trkpt>
      <trkpt lat="43.071250" lon="-6.120830">
        <ele>1309.653</ele>
        <time>2020-05-22T02:19:50Z</time>
      </trkpt>
      <trkpt lat="43.071210" lon="-6.120760">
        <ele>1311.624</ele>
        <time>2020-05-22T02:20:10Z</time>
      </trkpt>
      <trkpt lat="43.071200" lon="-6.120740">
        <ele>1312.263</ele>
        <time>2020-05-22T02:20:30Z</time>
      </trkpt>
      <trkpt lat="43.071150" lon="-6.120660">
        <ele>1314.686</ele>
        <time>2020-05-22T02:20:50Z</time>
      </trkpt>
      <trkpt lat="43.071120" lon="-6.120610">
        <ele>1316.156</ele>
        <time>2020-05-22T02:21:10Z</time>
      </trkpt>
      <trkpt lat="43.071100" lon="-6.120560">
        <ele>1317.459</ele>
        <time>2020-05-22T02:21:30Z</time>
      </trkpt>
      <trkpt lat="43.071090" lon="-6.120540">
        <ele>1317.714</ele>
        <time>2020-05-22T02:21:50Z</time>
      </trkpt>
      <trkpt lat="43.071070" lon="-6.120500">
        <ele>1318.208</ele>
        <time>2020-05-22T02:22:10Z</time>
      </trkpt>
      <trkpt lat="43.071040" lon="-6.120450">
        <ele>1318.839</ele>
        <time>2020-05-22T02:22:30Z</time>
      </trkpt>
      <trkpt lat="43.070980" lon="-6.120400">
        <ele>1318.494</ele>
        <time>2020-05-22T02:22:50Z</time>
      </trkpt>
      <trkpt lat="43.070830" lon="-6.120250">
        <ele>1319.381</ele>
        <time>2020-05-22T02:23:10Z</time>
      </trkpt>
      <trkpt lat="43.070740" lon="-6.120160">
        <ele>1320.337</ele>
        <time>2020-05-22T02:23:30Z</time>
      </trkpt>
      <trkpt lat="43.070620" lon="-6.120030">
        <ele>1321.446</ele>
        <time>2020-05-22T02:23:50Z</time>
      </trkpt>
      <trkpt lat="43.070590" lon="-6.120000">
        <ele>1321.517</ele>
        <time>2020-05-22T02:24:10Z</time>
      </trkpt>
      <trkpt lat="43.070560" lon="-6.119970">
        <ele>1321.566</ele>
        <time>2020-05-22T02:24:30Z</time>
      </trkpt>
      <trkpt lat="43.070540" lon="-6.119960">
        <ele>1321.249</ele>
        <time>2020-05-22T02:24:50Z</time>
      </trkpt>
      <trkpt lat="43.070530" lon="-6.119960">
        <ele>1320.871</ele>
        <time>2020-05-22T02:25:10Z</time>
      </trkpt>
      <trkpt lat="43.070510" lon="-6.119950">
        <ele>1320.641</ele>
        <time>2020-05-22T02:25:30Z</time>
      </trkpt>
      <trkpt lat="43.070480" lon="-6.119950">
        <ele>1319.515</ele>
        <time>2020-05-22T02:25:50Z</time>
      </trkpt>
      <trkpt lat="43.070360" lon="-6.119950">
        <ele>1315.308</ele>
        <time>2020-05-22T02:26:10Z</time>
      </trkpt>
      <trkpt lat="43.070350" lon="-6.119950">
        <ele>1315.031</ele>
        <time>2020-05-22T02:26:30Z</time>
      </trkpt>
      <trkpt lat="43.070170" lon="-6.119960">
        <ele>1310.286</ele>
        <time>2020-05-22T02:26:50Z</time>
      </trkpt>
      <trkpt lat="43.070000" lon="-6.119970">
        <ele>1306.943</ele>
        <time>2020-05-22T02:27:10Z</time>
      </trkpt>
      <trkpt lat="43.069940" lon="-6.119970">
        <ele>1306.019</ele>
        <time>2020-05-22T02:27:30Z</time>
      </trkpt>
      <trkpt lat="43.069900" lon="-6.119960">
        <ele>1305.648</ele>
        <time>2020-05-22T02:27:50Z</time>
      </trkpt>
      <trkpt lat="43.069870" lon="-6.119950">
        <ele>1305.479</ele>
        <time>2020-05-22T02:28:10Z</time>
      </trkpt>
      <trkpt lat="43.069840" lon="-6.119930">
        <ele>1305.458</ele>
        <time>2020-05-22T02:28:30Z</time>
      </trkpt>
      <trkpt lat="43.069820" lon="-6.119910">
        <ele>1305.611</ele>
        <time>2020-05-22T02:28:50Z</time>
      </trkpt>
      <trkpt lat="43.069810" lon="-6.119900">
        <ele>1305.754</ele>
        <time>2020-05-22T02:29:10Z</time>
      </trkpt>
      <trkpt lat="43.069780" lon="-6.119860">
        <ele>1306.156</ele>
        <time>2020-05-22T02:29:30Z</time>
      </trkpt>
      <trkpt lat="43.069750" lon="-6.119830">
        <ele>1306.211</ele>
        <time>2020-05-22T02:29:50Z</time>
      </trkpt>
      <trkpt lat="43.069730" lon="-6.119790">
        <ele>1306.708</ele>
        <time>2020-05-22T02:30:10Z</time>
      </trkpt>
      <trkpt lat="43.069700" lon="-6.119760">
        <ele>1306.419</ele>
        <time>2020-05-22T02:30:30Z</time>
      </trkpt>
      <trkpt lat="43.069690" lon="-6.119740">
        <ele>1306.694</ele>
        <time>2020-05-22T02:30:50Z</time>
      </trkpt>
      <trkpt lat="43.069690" lon="-6.119730">
        <ele>1306.891</ele>
        <time>2020-05-22T02:31:10Z</time>
      </trkpt>
      <trkpt lat="43.069670" lon="-6.119680">
        <ele>1307.517</ele>
        <time>2020-05-22T02:31:30Z</time>
      </trkpt>
      <trkpt lat="43.069660" lon="-6.119640">
        <ele>1308.376</ele>
        <time>2020-05-22T02:31:50Z</time>
      </trkpt>
      <trkpt lat="43.069660" lon="-6.119600">
        <ele>1309.487</ele>
        <time>2020-05-22T02:32:10Z</time>
      </trkpt>
      <trkpt lat="43.069660" lon="-6.119560">
        <ele>1310.586</ele>
        <time>2020-05-22T02:32:30Z</time>
      </trkpt>
      <trkpt lat="43.069660" lon="-6.119510">
        <ele>1311.969</ele>
        <time>2020-05-22T02:32:50Z</time>
      </trkpt>
      <trkpt lat="43.069690" lon="-6.119360">
        <ele>1317.247</ele>
        <time>2020-05-22T02:33:10Z</time>
      </trkpt>
      <trkpt lat="43.069690" lon="-6.119320">
        <ele>1318.429</ele>
        <time>2020-05-22T02:33:30Z</time>
      </trkpt>
      <trkpt lat="43.069690" lon="-6.119270">
        <ele>1319.821</ele>
        <time>2020-05-22T02:33:50Z</time>
      </trkpt>
      <trkpt lat="43.069690" lon="-6.119240">
        <ele>1320.608</ele>
        <time>2020-05-22T02:34:10Z</time>
      </trkpt>
      <trkpt lat="43.069680" lon="-6.119220">
        <ele>1320.818</ele>
        <time>2020-05-22T02:34:30Z</time>
      </trkpt>
      <trkpt lat="43.069640" lon="-6.119150">
        <ele>1321.223</ele>
        <time>2020-05-22T02:34:50Z</time>
      </trkpt>
      <trkpt lat="43.069590" lon="-6.119070">
        <ele>1321.250</ele>
        <time>2020-05-22T02:35:10Z</time>
      </trkpt>
      <trkpt lat="43.069550" lon="-6.119020">
        <ele>1320.746</ele>
        <time>2020-05-22T02:35:30Z</time>
      </trkpt>
      <trkpt lat="43.069530" lon="-6.118980">
        <ele>1320.855</ele>
        <time>2020-05-22T02:35:50Z</time>
      </trkpt>
      <trkpt lat="43.069520" lon="-6.118960">
        <ele>1320.916</ele>
        <time>2020-05-22T02:36:10Z</time>
      </trkpt>
      <trkpt lat="43.069510" lon="-6.118920">
        <ele>1321.335</ele>
        <time>2020-05-22T02:36:30Z</time>
      </trkpt>
      <trkpt lat="43.069510" lon="-6.118890">
        <ele>1322.028</ele>
        <time>2020-05-22T02:36:50Z</time>
      </trkpt>
      <trkpt lat="43.069500" lon="-6.118820">
        <ele>1322.955</ele>
        <time>2020-05-22T02:37:10Z</time>
      </trkpt>
      <trkpt lat="43.069490" lon="-6.118730">
        <ele>1324.007</ele>
        <time>2020-05-22T02:37:30Z</time>
      </trkpt>
      <trkpt lat="43.069480" lon="-6.118610">
        <ele>1325.517</ele>
        <time>2020-05-22T02:37:50Z</time>
      </trkpt>
      <trkpt lat="43.069480" lon="-6.118550">
        <ele>1327.008</ele>
        <time>2020-05-22T02:38:10Z</time>
      </trkpt>
      <trkpt lat="43.069450" lon="-6.118280">
        <ele>1332.159</ele>
        <time>2020-05-22T02:38:30Z</time>
      </trkpt>
      <trkpt lat="43.069440" lon="-6.118140">
        <ele>1336.124</ele>
        <time>2020-05-22T02:38:50Z</time>
      </trkpt>
      <trkpt lat="43.069440" lon="-6.118120">
        <ele>1336.741</ele>
        <time>2020-05-22T02:39:10Z</time>
      </trkpt>
      <trkpt lat="43.069430" lon="-6.118020">
        <ele>1339.237</ele>
        <time>2020-05-22T02:39:30Z</time>
      </trkpt>
      <trkpt lat="43.069420" lon="-6.117940">
        <ele>1340.776</ele>
        <time>2020-05-22T02:39:50Z</time>
      </trkpt>
      <trkpt lat="43.069410" lon="-6.117880">
        <ele>1341.747</ele>
        <time>2020-05-22T02:40:10Z</time>
      </trkpt>
      <trkpt lat="43.069410" lon="-6.117870">
        <ele>1341.946</ele>
        <time>2020-05-22T02:40:30Z</time>
      </trkpt>
      <trkpt lat="43.069380" lon="-6.117720">
        <ele>1344.019</ele>
        <time>2020-05-22T02:40:50Z</time>
      </trkpt>
      <trkpt lat="43.069320" lon="-6.117510">
        <ele>1345.577</ele>
        <time>2020-05-22T02:41:10Z</time>
      </trkpt>
      <trkpt lat="43.069240" lon="-6.117260">
        <ele>1346.261</ele>
        <time>2020-05-22T02:41:30Z</time>
      </trkpt>
      <trkpt lat="43.069220" lon="-6.117190">
        <ele>1346.827</ele>
        <time>2020-05-22T02:41:50Z</time>
      </trkpt>
      <trkpt lat="43.069170" lon="-6.117060">
        <ele>1347.808</ele>
        <time>2020-05-22T02:42:10Z</time>
      </trkpt>
      <trkpt lat="43.069120" lon="-6.116950">
        <ele>1349.581</ele>
        <time>2020-05-22T02:42:30Z</time>
      </trkpt>
      <trkpt lat="43.069080" lon="-6.116850">
        <ele>1351.626</ele>
        <time>2020-05-22T02:42:50Z</time>
      </trkpt>
      <trkpt lat="43.069030" lon="-6.116770">
        <ele>1352.793</ele>
        <time>2020-05-22T02:43:10Z</time>
      </trkpt>
      <trkpt lat="43.069000" lon="-6.116720">
        <ele>1353.539</ele>
        <time>2020-05-22T02:43:30Z</time>
      </trkpt>
      <trkpt lat="43.068910" lon="-6.116560">
        <ele>1354.958</ele>
        <time>2020-05-22T02:43:50Z</time>
      </trkpt>
      <trkpt lat="43.068850" lon="-6.116470">
        <ele>1355.189</ele>
        <time>2020-05-22T02:44:10Z</time>
      </trkpt>
      <trkpt lat="43.068820" lon="-6.116400">
        <ele>1355.878</ele>
        <time>2020-05-22T02:44:30Z</time>
      </trkpt>
      <trkpt lat="43.068810" lon="-6.116380">
        <ele>1355.961</ele>
        <time>2020-05-22T02:44:50Z</time>
      </trkpt>
      <trkpt lat="43.068790" lon="-6.116340">
        <ele>1356.219</ele>
        <time>2020-05-22T02:45:10Z</time>
      </trkpt>
      <trkpt lat="43.068770" lon="-6.116280">
        <ele>1356.909</ele>
        <time>2020-05-22T02:45:30Z</time>
      </trkpt>
      <trkpt lat="43.068760" lon="-6.116220">
        <ele>1357.919</ele>
        <time>2020-05-22T02:45:50Z</time>
      </trkpt>
      <trkpt lat="43.068740" lon="-6.116160">
        <ele>1358.708</ele>
        <time>2020-05-22T02:46:10Z</time>
      </trkpt>
      <trkpt lat="43.068730" lon="-6.116130">
        <ele>1359.085</ele>
        <time>2020-05-22T02:46:30Z</time>
      </trkpt>
      <trkpt lat="43.068720" lon="-6.116090">
        <ele>1359.660</ele>
        <time>2020-05-22T02:46:50Z</time>
      </trkpt>
      <trkpt lat="43.068710" lon="-6.116060">
        <ele>1360.047</ele>
        <time>2020-05-22T02:47:10Z</time>
      </trkpt>
      <trkpt lat="43.068700" lon="-6.116040">
        <ele>1360.133</ele>
        <time>2020-05-22T02:47:30Z</time>
      </trkpt>
      <trkpt lat="43.068680" lon="-6.116010">
        <ele>1360.242</ele>
        <time>2020-05-22T02:47:50Z</time>
      </trkpt>
      <trkpt lat="43.068660" lon="-6.115990">
        <ele>1360.013</ele>
        <time>2020-05-22T02:48:10Z</time>
      </trkpt>
      <trkpt lat="43.068640" lon="-6.115970">
        <ele>1359.982</ele>
        <time>2020-05-22T02:48:30Z</time>
      </trkpt>
      <trkpt lat="43.068640" lon="-6.115960">
        <ele>1360.195</ele>
        <time>2020-05-22T02:48:50Z</time>
      </trkpt>
      <trkpt lat="43.068560" lon="-6.115900">
        <ele>1357.697</ele>
        <time>2020-05-22T02:49:10Z</time>
      </trkpt>
      <trkpt lat="43.068510" lon="-6.115860">
        <ele>1355.623</ele>
        <time>2020-05-22T02:49:30Z</time>
      </trkpt>
      <trkpt lat="43.068490" lon="-6.115830">
        <ele>1355.125</ele>
        <time>2020-05-22T02:49:50Z</time>
      </trkpt>
      <trkpt lat="43.068470" lon="-6.115800">
        <ele>1354.808</ele>
        <time>2020-05-22T02:50:10Z</time>
      </trkpt>
      <trkpt lat="43.068450" lon="-6.115760">
        <ele>1354.813</ele>
        <time>2020-05-22T02:50:30Z</time>
      </trkpt>
      <trkpt lat="43.068430" lon="-6.115660">
        <ele>1356.528</ele>
        <time>2020-05-22T02:50:50Z</time>
      </trkpt>
      <trkpt lat="43.068400" lon="-6.115590">
        <ele>1357.155</ele>
        <time>2020-05-22T02:51:10Z</time>
      </trkpt>
      <trkpt lat="43.068390" lon="-6.115540">
        <ele>1358.121</ele>
        <time>2020-05-22T02:51:30Z</time>
      </trkpt>
      <trkpt lat="43.068370" lon="-6.115490">
        <ele>1358.530</ele>
        <time>2020-05-22T02:51:50Z</time>
      </trkpt>
      <trkpt lat="43.068340" lon="-6.115430">
        <ele>1358.981</ele>
        <time>2020-05-22T02:52:10Z</time>
      </trkpt>
      <trkpt lat="43.068320" lon="-6.115390">
        <ele>1358.860</ele>
        <time>2020-05-22T02:52:30Z</time>
      </trkpt>
      <trkpt lat="43.068260" lon="-6.115260">
        <ele>1358.163</ele>
        <time>2020-05-22T02:52:50Z</time>
      </trkpt>
      <trkpt lat="43.068230" lon="-6.115190">
        <ele>1357.651</ele>
        <time>2020-05-22T02:53:10Z</time>
      </trkpt>
      <trkpt lat="43.068210" lon="-6.115110">
        <ele>1358.301</ele>
        <time>2020-05-22T02:53:30Z</time>
      </trkpt>
      <trkpt lat="43.068200" lon="-6.115040">
        <ele>1359.711</ele>
        <time>2020-05-22T02:53:50Z</time>
      </trkpt>
      <trkpt lat="43.068180" lon="-6.114950">
        <ele>1360.608</ele>
        <time>2020-05-22T02:54:10Z</time>
      </trkpt>
      <trkpt lat="43.068150" lon="-6.114700">
        <ele>1362.959</ele>
        <time>2020-05-22T02:54:30Z</time>
      </trkpt>
      <trkpt lat="43.068140" lon="-6.114600">
        <ele>1363.624</ele>
        <time>2020-05-22T02:54:50Z</time>
      </trkpt>
      <trkpt lat="43.068130" lon="-6.114550">
        <ele>1363.881</ele>
        <time>2020-05-22T02:55:10Z</time>
      </trkpt>
      <trkpt lat="43.068110" lon="-6.114470">
        <ele>1364.127</ele>
        <time>2020-05-22T02:55:30Z</time>
      </trkpt>
      <trkpt lat="43.068090" lon="-6.114410">
        <ele>1364.486</ele>
        <time>2020-05-22T02:55:50Z</time>
      </trkpt>
      <trkpt lat="43.068080" lon="-6.114350">
        <ele>1365.097</ele>
        <time>2020-05-22T02:56:10Z</time>
      </trkpt>
      <trkpt lat="43.068070" lon="-6.114290">
        <ele>1365.676</ele>
        <time>2020-05-22T02:56:30Z</time>
      </trkpt>
      <trkpt lat="43.068060" lon="-6.114230">
        <ele>1366.219</ele>
        <time>2020-05-22T02:56:50Z</time>
      </trkpt>
      <trkpt lat="43.068070" lon="-6.114170">
        <ele>1367.432</ele>
        <time>2020-05-22T02:57:10Z</time>
      </trkpt>
      <trkpt lat="43.068070" lon="-6.114090">
        <ele>1368.592</ele>
        <time>2020-05-22T02:57:30Z</time>
      </trkpt>
      <trkpt lat="43.068070" lon="-6.114020">
        <ele>1369.611</ele>
        <time>2020-05-22T02:57:50Z</time>
      </trkpt>
      <trkpt lat="43.068070" lon="-6.113980">
        <ele>1370.208</ele>
        <time>2020-05-22T02:58:10Z</time>
      </trkpt>
      <trkpt lat="43.068070" lon="-6.113950">
        <ele>1370.697</ele>
        <time>2020-05-22T02:58:30Z</time>
      </trkpt>
      <trkpt lat="43.068070" lon="-6.113890">
        <ele>1371.572</ele>
        <time>2020-05-22T02:58:50Z</time>
      </trkpt>
      <trkpt lat="43.068060" lon="-6.113790">
        <ele>1373.339</ele>
        <time>2020-05-22T02:59:10Z</time>
      </trkpt>
      <trkpt lat="43.068040" lon="-6.113710">
        <ele>1374.345</ele>
        <time>2020-05-22T02:59:30Z</time>
      </trkpt>
      <trkpt lat="43.068020" lon="-6.113670">
        <ele>1374.494</ele>
        <time>2020-05-22T02:59:50Z</time>
      </trkpt>
      <trkpt lat="43.068000" lon="-6.113610">
        <ele>1374.865</ele>
        <time>2020-05-22T03:00:10Z</time>
      </trkpt>
      <trkpt lat="43.067970" lon="-6.113550">
        <ele>1375.254</ele>
        <time>2020-05-22T03:00:30Z</time>
      </trkpt>
      <trkpt lat="43.067870" lon="-6.113370">
        <ele>1374.937</ele>
        <time>2020-05-22T03:00:50Z</time>
      </trkpt>
      <trkpt lat="43.067840" lon="-6.113330">
        <ele>1374.215</ele>
        <time>2020-05-22T03:01:10Z</time>
      </trkpt>
      <trkpt lat="43.067800" lon="-6.113270">
        <ele>1373.765</ele>
        <time>2020-05-22T03:01:30Z</time>
      </trkpt>
      <trkpt lat="43.067750" lon="-6.113200">
        <ele>1373.311</ele>
        <time>2020-05-22T03:01:50Z</time>
      </trkpt>
      <trkpt lat="43.067730" lon="-6.113170">
        <ele>1373.208</ele>
        <time>2020-05-22T03:02:10Z</time>
      </trkpt>
      <trkpt lat="43.067710" lon="-6.113130">
        <ele>1373.485</ele>
        <time>2020-05-22T03:02:30Z</time>
      </trkpt>
      <trkpt lat="43.067700" lon="-6.113080">
        <ele>1374.310</ele>
        <time>2020-05-22T03:02:50Z</time>
      </trkpt>
      <trkpt lat="43.067680" lon="-6.112990">
        <ele>1375.917</ele>
        <time>2020-05-22T03:03:10Z</time>
      </trkpt>
      <trkpt lat="43.067670" lon="-6.112930">
        <ele>1377.143</ele>
        <time>2020-05-22T03:03:30Z</time>
      </trkpt>
      <trkpt lat="43.067650" lon="-6.112870">
        <ele>1377.952</ele>
        <time>2020-05-22T03:03:50Z</time>
      </trkpt>
      <trkpt lat="43.067630" lon="-6.112800">
        <ele>1379.153</ele>
        <time>2020-05-22T03:04:10Z</time>
      </trkpt>
      <trkpt lat="43.067620" lon="-6.112750">
        <ele>1380.122</ele>
        <time>2020-05-22T03:04:30Z</time>
      </trkpt>
      <trkpt lat="43.067600" lon="-6.112690">
        <ele>1380.985</ele>
        <time>2020-05-22T03:04:50Z</time>
      </trkpt>
      <trkpt lat="43.067590" lon="-6.112690">
        <ele>1380.693</ele>
        <time>2020-05-22T03:05:10Z</time>
      </trkpt>
      <trkpt lat="43.067560" lon="-6.112610">
        <ele>1381.565</ele>
        <time>2020-05-22T03:05:30Z</time>
      </trkpt>
      <trkpt lat="43.067520" lon="-6.112530">
        <ele>1382.021</ele>
        <time>2020-05-22T03:05:50Z</time>
      </trkpt>
      <trkpt lat="43.067480" lon="-6.112460">
        <ele>1382.508</ele>
        <time>2020-05-22T03:06:10Z</time>
      </trkpt>
      <trkpt lat="43.067420" lon="-6.112390">
        <ele>1382.493</ele>
        <time>2020-05-22T03:06:30Z</time>
      </trkpt>
      <trkpt lat="43.067380" lon="-6.112330">
        <ele>1382.838</ele>
        <time>2020-05-22T03:06:50Z</time>
      </trkpt>
      <trkpt lat="43.067340" lon="-6.112250">
        <ele>1383.835</ele>
        <time>2020-05-22T03:07:10Z</time>
      </trkpt>
      <trkpt lat="43.067280" lon="-6.112100">
        <ele>1386.581</ele>
        <time>2020-05-22T03:07:30Z</time>
      </trkpt>
      <trkpt lat="43.067270" lon="-6.112100">
        <ele>1386.190</ele>
        <time>2020-05-22T03:07:50Z</time>
      </trkpt>
      <trkpt lat="43.067160" lon="-6.111850">
        <ele>1389.281</ele>
        <time>2020-05-22T03:08:10Z</time>
      </trkpt>
      <trkpt lat="43.067070" lon="-6.111680">
        <ele>1390.540</ele>
        <time>2020-05-22T03:08:30Z</time>
      </trkpt>
      <trkpt lat="43.067000" lon="-6.111580">
        <ele>1390.593</ele>
        <time>2020-05-22T03:08:50Z</time>
      </trkpt>
      <trkpt lat="43.066940" lon="-6.111480">
        <ele>1391.216</ele>
        <time>2020-05-22T03:09:10Z</time>
      </trkpt>
      <trkpt lat="43.066880" lon="-6.111400">
        <ele>1392.276</ele>
        <time>2020-05-22T03:09:30Z</time>
      </trkpt>
      <trkpt lat="43.066810" lon="-6.111320">
        <ele>1393.113</ele>
        <time>2020-05-22T03:09:50Z</time>
      </trkpt>
      <trkpt lat="43.066750" lon="-6.111250">
        <ele>1393.808</ele>
        <time>2020-05-22T03:10:10Z</time>
      </trkpt>
      <trkpt lat="43.066680" lon="-6.111160">
        <ele>1394.945</ele>
        <time>2020-05-22T03:10:30Z</time>
      </trkpt>
      <trkpt lat="43.066560" lon="-6.110980">
        <ele>1395.750</ele>
        <time>2020-05-22T03:10:50Z</time>
      </trkpt>
      <trkpt lat="43.066480" lon="-6.110830">
        <ele>1397.447</ele>
        <time>2020-05-22T03:11:10Z</time>
      </trkpt>
      <trkpt lat="43.066400" lon="-6.110690">
        <ele>1400.023</ele>
        <time>2020-05-22T03:11:30Z</time>
      </trkpt>
      <trkpt lat="43.066320" lon="-6.110560">
        <ele>1400.142</ele>
        <time>2020-05-22T03:11:50Z</time>
      </trkpt>
      <trkpt lat="43.066250" lon="-6.110450">
        <ele>1398.933</ele>
        <time>2020-05-22T03:12:10Z</time>
      </trkpt>
      <trkpt lat="43.066210" lon="-6.110370">
        <ele>1398.852</ele>
        <time>2020-05-22T03:12:30Z</time>
      </trkpt>
      <trkpt lat="43.066180" lon="-6.110290">
        <ele>1399.375</ele>
        <time>2020-05-22T03:12:50Z</time>
      </trkpt>
      <trkpt lat="43.066150" lon="-6.110230">
        <ele>1398.769</ele>
        <time>2020-05-22T03:13:10Z</time>
      </trkpt>
      <trkpt lat="43.066130" lon="-6.110150">
        <ele>1399.004</ele>
        <time>2020-05-22T03:13:30Z</time>
      </trkpt>
      <trkpt lat="43.066120" lon="-6.110070">
        <ele>1400.124</ele>
        <time>2020-05-22T03:13:50Z</time>
      </trkpt>
      <trkpt lat="43.066100" lon="-6.109990">
        <ele>1400.708</ele>
        <time>2020-05-22T03:14:10Z</time>
      </trkpt>
      <trkpt lat="43.066090" lon="-6.109810">
        <ele>1403.460</ele>
        <time>2020-05-22T03:14:30Z</time>
      </trkpt>
      <trkpt lat="43.066090" lon="-6.109740">
        <ele>1404.615</ele>
        <time>2020-05-22T03:14:50Z</time>
      </trkpt>
      <trkpt lat="43.066080" lon="-6.109680">
        <ele>1405.252</ele>
        <time>2020-05-22T03:15:10Z</time>
      </trkpt>
      <trkpt lat="43.066070" lon="-6.109560">
        <ele>1406.858</ele>
        <time>2020-05-22T03:15:30Z</time>
      </trkpt>
      <trkpt lat="43.066050" lon="-6.109410">
        <ele>1408.357</ele>
        <time>2020-05-22T03:15:50Z</time>
      </trkpt>
      <trkpt lat="43.066030" lon="-6.109220">
        <ele>1409.848</ele>
        <time>2020-05-22T03:16:10Z</time>
      </trkpt>
      <trkpt lat="43.066010" lon="-6.109040">
        <ele>1411.087</ele>
        <time>2020-05-22T03:16:30Z</time>
      </trkpt>
      <trkpt lat="43.065990" lon="-6.108880">
        <ele>1412.290</ele>
        <time>2020-05-22T03:16:50Z</time>
      </trkpt>
      <trkpt lat="43.065960" lon="-6.108730">
        <ele>1413.084</ele>
        <time>2020-05-22T03:17:10Z</time>
      </trkpt>
      <trkpt lat="43.065950" lon="-6.108660">
        <ele>1413.507</ele>
        <time>2020-05-22T03:17:30Z</time>
      </trkpt>
      <trkpt lat="43.065950" lon="-6.108590">
        <ele>1414.317</ele>
        <time>2020-05-22T03:17:50Z</time>
      </trkpt>
      <trkpt lat="43.065950" lon="-6.108550">
        <ele>1414.808</ele>
        <time>2020-05-22T03:18:10Z</time>
      </trkpt>
      <trkpt lat="43.065950" lon="-6.108460">
        <ele>1415.982</ele>
        <time>2020-05-22T03:18:30Z</time>
      </trkpt>
      <trkpt lat="43.065970" lon="-6.108290">
        <ele>1418.957</ele>
        <time>2020-05-22T03:18:50Z</time>
      </trkpt>
      <trkpt lat="43.065980" lon="-6.108190">
        <ele>1420.794</ele>
        <time>2020-05-22T03:19:10Z</time>
      </trkpt>
      <trkpt lat="43.065980" lon="-6.108170">
        <ele>1421.050</ele>
        <time>2020-05-22T03:19:30Z</time>
      </trkpt>
      <trkpt lat="43.065980" lon="-6.108110">
        <ele>1421.729</ele>
        <time>2020-05-22T03:19:50Z</time>
      </trkpt>
      <trkpt lat="43.065980" lon="-6.108040">
        <ele>1422.810</ele>
        <time>2020-05-22T03:20:10Z</time>
      </trkpt>
      <trkpt lat="43.065980" lon="-6.107960">
        <ele>1424.979</ele>
        <time>2020-05-22T03:20:30Z</time>
      </trkpt>
      <trkpt lat="43.065960" lon="-6.107840">
        <ele>1426.772</ele>
        <time>2020-05-22T03:20:50Z</time>
      </trkpt>
      <trkpt lat="43.065940" lon="-6.107730">
        <ele>1428.797</ele>
        <time>2020-05-22T03:21:10Z</time>
      </trkpt>
      <trkpt lat="43.065920" lon="-6.107640">
        <ele>1430.623</ele>
        <time>2020-05-22T03:21:30Z</time>
      </trkpt>
      <trkpt lat="43.065900" lon="-6.107560">
        <ele>1432.325</ele>
        <time>2020-05-22T03:21:50Z</time>
      </trkpt>
      <trkpt lat="43.065870" lon="-6.107490">
        <ele>1433.108</ele>
        <time>2020-05-22T03:22:10Z</time>
      </trkpt>
      <trkpt lat="43.065860" lon="-6.107460">
        <ele>1433.553</ele>
        <time>2020-05-22T03:22:30Z</time>
      </trkpt>
      <trkpt lat="43.065790" lon="-6.107270">
        <ele>1434.658</ele>
        <time>2020-05-22T03:22:50Z</time>
      </trkpt>
      <trkpt lat="43.065720" lon="-6.107090">
        <ele>1435.025</ele>
        <time>2020-05-22T03:23:10Z</time>
      </trkpt>
      <trkpt lat="43.065670" lon="-6.106920">
        <ele>1436.941</ele>
        <time>2020-05-22T03:23:30Z</time>
      </trkpt>
      <trkpt lat="43.065610" lon="-6.106760">
        <ele>1439.480</ele>
        <time>2020-05-22T03:23:50Z</time>
      </trkpt>
      <trkpt lat="43.065570" lon="-6.106620">
        <ele>1442.671</ele>
        <time>2020-05-22T03:24:10Z</time>
      </trkpt>
      <trkpt lat="43.065560" lon="-6.106580">
        <ele>1443.750</ele>
        <time>2020-05-22T03:24:30Z</time>
      </trkpt>
      <trkpt lat="43.065560" lon="-6.106570">
        <ele>1444.163</ele>
        <time>2020-05-22T03:24:50Z</time>
      </trkpt>
      <trkpt lat="43.065540" lon="-6.106540">
        <ele>1444.191</ele>
        <time>2020-05-22T03:25:10Z</time>
      </trkpt>
      <trkpt lat="43.065510" lon="-6.106490">
        <ele>1444.281</ele>
        <time>2020-05-22T03:25:30Z</time>
      </trkpt>
      <trkpt lat="43.065450" lon="-6.106400">
        <ele>1443.819</ele>
        <time>2020-05-22T03:25:50Z</time>
      </trkpt>
      <trkpt lat="43.065390" lon="-6.106300">
        <ele>1443.308</ele>
        <time>2020-05-22T03:26:10Z</time>
      </trkpt>
      <trkpt lat="43.065310" lon="-6.106160">
        <ele>1442.113</ele>
        <time>2020-05-22T03:26:30Z</time>
      </trkpt>
      <trkpt lat="43.065140" lon="-6.105860">
        <ele>1440.138</ele>
        <time>2020-05-22T03:26:50Z</time>
      </trkpt>
      <trkpt lat="43.065110" lon="-6.105800">
        <ele>1439.855</ele>
        <time>2020-05-22T03:27:10Z</time>
      </trkpt>
      <trkpt lat="43.065080" lon="-6.105760">
        <ele>1438.751</ele>
        <time>2020-05-22T03:27:30Z</time>
      </trkpt>
      <trkpt lat="43.065060" lon="-6.105710">
        <ele>1438.750</ele>
        <time>2020-05-22T03:27:50Z</time>
      </trkpt>
      <trkpt lat="43.065050" lon="-6.105690">
        <ele>1438.661</ele>
        <time>2020-05-22T03:28:10Z</time>
      </trkpt>
      <trkpt lat="43.065040" lon="-6.105670">
        <ele>1438.510</ele>
        <time>2020-05-22T03:28:30Z</time>
      </trkpt>
      <trkpt lat="43.065030" lon="-6.105640">
        <ele>1438.683</ele>
        <time>2020-05-22T03:28:50Z</time>
      </trkpt>
      <trkpt lat="43.065020" lon="-6.105580">
        <ele>1439.875</ele>
        <time>2020-05-22T03:29:10Z</time>
      </trkpt>
      <trkpt lat="43.065020" lon="-6.105500">
        <ele>1442.328</ele>
        <time>2020-05-22T03:29:30Z</time>
      </trkpt>
      <trkpt lat="43.065010" lon="-6.105340">
        <ele>1446.720</ele>
        <time>2020-05-22T03:29:50Z</time>
      </trkpt>
      <trkpt lat="43.065010" lon="-6.105330">
        <ele>1447.008</ele>
        <time>2020-05-22T03:30:10Z</time>
      </trkpt>
      <trkpt lat="43.065000" lon="-6.105210">
        <ele>1450.051</ele>
        <time>2020-05-22T03:30:30Z</time>
      </trkpt>
      <trkpt lat="43.064990" lon="-6.105150">
        <ele>1451.346</ele>
        <time>2020-05-22T03:30:50Z</time>
      </trkpt>
      <trkpt lat="43.064980" lon="-6.105120">
        <ele>1451.993</ele>
        <time>2020-05-22T03:31:10Z</time>
      </trkpt>
      <trkpt lat="43.064970" lon="-6.105090">
        <ele>1452.429</ele>
        <time>2020-05-22T03:31:30Z</time>
      </trkpt>
      <trkpt lat="43.064960" lon="-6.105060">
        <ele>1453.018</ele>
        <time>2020-05-22T03:31:50Z</time>
      </trkpt>
      <trkpt lat="43.064940" lon="-6.105030">
        <ele>1453.379</ele>
        <time>2020-05-22T03:32:10Z</time>
      </trkpt>
      <trkpt lat="43.064920" lon="-6.105010">
        <ele>1453.468</ele>
        <time>2020-05-22T03:32:30Z</time>
      </trkpt>
      <trkpt lat="43.064890" lon="-6.104990">
        <ele>1453.131</ele>
        <time>2020-05-22T03:32:50Z</time>
      </trkpt>
      <trkpt lat="43.064850" lon="-6.104950">
        <ele>1453.217</ele>
        <time>2020-05-22T03:33:10Z</time>
      </trkpt>
      <trkpt lat="43.064840" lon="-6.104950">
        <ele>1452.987</ele>
        <time>2020-05-22T03:33:30Z</time>
      </trkpt>
      <trkpt lat="43.064800" lon="-6.104920">
        <ele>1452.815</ele>
        <time>2020-05-22T03:33:50Z</time>
      </trkpt>
      <trkpt lat="43.064750" lon="-6.104890">
        <ele>1452.308</ele>
        <time>2020-05-22T03:34:10Z</time>
      </trkpt>
      <trkpt lat="43.064700" lon="-6.104860">
        <ele>1452.365</ele>
        <time>2020-05-22T03:34:30Z</time>
      </trkpt>
      <trkpt lat="43.064670" lon="-6.104850">
        <ele>1452.450</ele>
        <time>2020-05-22T03:34:50Z</time>
      </trkpt>
      <trkpt lat="43.064630" lon="-6.104840">
        <ele>1452.487</ele>
        <time>2020-05-22T03:35:10Z</time>
      </trkpt>
      <trkpt lat="43.064600" lon="-6.104830">
        <ele>1452.573</ele>
        <time>2020-05-22T03:35:30Z</time>
      </trkpt>
      <trkpt lat="43.064570" lon="-6.104820">
        <ele>1452.582</ele>
        <time>2020-05-22T03:35:50Z</time>
      </trkpt>
      <trkpt lat="43.064550" lon="-6.104810">
        <ele>1452.723</ele>
        <time>2020-05-22T03:36:10Z</time>
      </trkpt>
      <trkpt lat="43.064520" lon="-6.104790">
        <ele>1453.232</ele>
        <time>2020-05-22T03:36:30Z</time>
      </trkpt>
      <trkpt lat="43.064490" lon="-6.104760">
        <ele>1454.055</ele>
        <time>2020-05-22T03:36:50Z</time>
      </trkpt>
      <trkpt lat="43.064460" lon="-6.104740">
        <ele>1454.588</ele>
        <time>2020-05-22T03:37:10Z</time>
      </trkpt>
      <trkpt lat="43.064440" lon="-6.104700">
        <ele>1455.424</ele>
        <time>2020-05-22T03:37:30Z</time>
      </trkpt>
      <trkpt lat="43.064410" lon="-6.104650">
        <ele>1456.026</ele>
        <time>2020-05-22T03:37:50Z</time>
      </trkpt>
      <trkpt lat="43.064360" lon="-6.104570">
        <ele>1456.908</ele>
        <time>2020-05-22T03:38:10Z</time>
      </trkpt>
      <trkpt lat="43.064330" lon="-6.104510">
        <ele>1457.842</ele>
        <time>2020-05-22T03:38:30Z</time>
      </trkpt>
      <trkpt lat="43.064300" lon="-6.104480">
        <ele>1457.957</ele>
        <time>2020-05-22T03:38:50Z</time>
      </trkpt>
      <trkpt lat="43.064270" lon="-6.104460">
        <ele>1457.874</ele>
        <time>2020-05-22T03:39:10Z</time>
      </trkpt>
      <trkpt lat="43.064230" lon="-6.104440">
        <ele>1457.540</ele>
        <time>2020-05-22T03:39:30Z</time>
      </trkpt>
      <trkpt lat="43.064210" lon="-6.104430">
        <ele>1457.449</ele>
        <time>2020-05-22T03:39:50Z</time>
      </trkpt>
      <trkpt lat="43.064080" lon="-6.104390">
        <ele>1456.990</ele>
        <time>2020-05-22T03:40:10Z</time>
      </trkpt>
      <trkpt lat="43.063960" lon="-6.104360">
        <ele>1456.799</ele>
        <time>2020-05-22T03:40:30Z</time>
      </trkpt>
      <trkpt lat="43.063860" lon="-6.104350">
        <ele>1456.282</ele>
        <time>2020-05-22T03:40:50Z</time>
      </trkpt>
      <trkpt lat="43.063810" lon="-6.104340">
        <ele>1456.254</ele>
        <time>2020-05-22T03:41:10Z</time>
      </trkpt>
      <trkpt lat="43.063760" lon="-6.104330">
        <ele>1456.156</ele>
        <time>2020-05-22T03:41:30Z</time>
      </trkpt>
      <trkpt lat="43.063720" lon="-6.104320">
        <ele>1456.111</ele>
        <time>2020-05-22T03:41:50Z</time>
      </trkpt>
      <trkpt lat="43.063680" lon="-6.104300">
        <ele>1456.408</ele>
        <time>2020-05-22T03:42:10Z</time>
      </trkpt>
      <trkpt lat="43.063630" lon="-6.104270">
        <ele>1456.989</ele>
        <time>2020-05-22T03:42:30Z</time>
      </trkpt>
      <trkpt lat="43.063610" lon="-6.104250">
        <ele>1457.354</ele>
        <time>2020-05-22T03:42:50Z</time>
      </trkpt>
      <trkpt lat="43.063550" lon="-6.104210">
        <ele>1458.891</ele>
        <time>2020-05-22T03:43:10Z</time>
      </trkpt>
      <trkpt lat="43.063500" lon="-6.104160">
        <ele>1460.637</ele>
        <time>2020-05-22T03:43:30Z</time>
      </trkpt>
      <trkpt lat="43.063450" lon="-6.104100">
        <ele>1462.256</ele>
        <time>2020-05-22T03:43:50Z</time>
      </trkpt>
      <trkpt lat="43.063390" lon="-6.104040">
        <ele>1463.387</ele>
        <time>2020-05-22T03:44:10Z</time>
      </trkpt>
      <trkpt lat="43.063320" lon="-6.103940">
        <ele>1464.136</ele>
        <time>2020-05-22T03:44:30Z</time>
      </trkpt>
      <trkpt lat="43.063280" lon="-6.103870">
        <ele>1464.949</ele>
        <time>2020-05-22T03:44:50Z</time>
      </trkpt>
      <trkpt lat="43.063200" lon="-6.103790">
        <ele>1465.991</ele>
        <time>2020-05-22T03:45:10Z</time>
      </trkpt>
      <trkpt lat="43.063090" lon="-6.103670">
        <ele>1467.281</ele>
        <time>2020-05-22T03:45:30Z</time>
      </trkpt>
      <trkpt lat="43.063010" lon="-6.103580">
        <ele>1468.319</ele>
        <time>2020-05-22T03:45:50Z</time>
      </trkpt>
      <trkpt lat="43.062980" lon="-6.103540">
        <ele>1469.008</ele>
        <time>2020-05-22T03:46:10Z</time>
      </trkpt>
      <trkpt lat="43.062950" lon="-6.103500">
        <ele>1469.623</ele>
        <time>2020-05-22T03:46:30Z</time>
      </trkpt>
      <trkpt lat="43.062920" lon="-6.103460">
        <ele>1470.378</ele>
        <time>2020-05-22T03:46:50Z</time>
      </trkpt>
      <trkpt lat="43.062900" lon="-6.103420">
        <ele>1471.015</ele>
        <time>2020-05-22T03:47:10Z</time>
      </trkpt>
      <trkpt lat="43.062880" lon="-6.103370">
        <ele>1471.951</ele>
        <time>2020-05-22T03:47:30Z</time>
      </trkpt>
      <trkpt lat="43.062870" lon="-6.103310">
        <ele>1473.030</ele>
        <time>2020-05-22T03:47:50Z</time>
      </trkpt>
      <trkpt lat="43.062860" lon="-6.103270">
        <ele>1473.551</ele>
        <time>2020-05-22T03:48:10Z</time>
      </trkpt>
      <trkpt lat="43.062850" lon="-6.103220">
        <ele>1474.280</ele>
        <time>2020-05-22T03:48:30Z</time>
      </trkpt>
      <trkpt lat="43.062850" lon="-6.103170">
        <ele>1474.993</ele>
        <time>2020-05-22T03:48:50Z</time>
      </trkpt>
      <trkpt lat="43.062850" lon="-6.103160">
        <ele>1475.096</ele>
        <time>2020-05-22T03:49:10Z</time>
      </trkpt>
      <trkpt lat="43.062840" lon="-6.103060">
        <ele>1476.331</ele>
        <time>2020-05-22T03:49:30Z</time>
      </trkpt>
      <trkpt lat="43.062830" lon="-6.102990">
        <ele>1476.924</ele>
        <time>2020-05-22T03:49:50Z</time>
      </trkpt>
      <trkpt lat="43.062820" lon="-6.102950">
        <ele>1477.208</ele>
        <time>2020-05-22T03:50:10Z</time>
      </trkpt>
      <trkpt lat="43.062810" lon="-6.102900">
        <ele>1477.563</ele>
        <time>2020-05-22T03:50:30Z</time>
      </trkpt>
      <trkpt lat="43.062790" lon="-6.102850">
        <ele>1477.538</ele>
        <time>2020-05-22T03:50:50Z</time>
      </trkpt>
      <trkpt lat="43.062700" lon="-6.102610">
        <ele>1479.745</ele>
        <time>2020-05-22T03:51:10Z</time>
      </trkpt>
      <trkpt lat="43.062650" lon="-6.102480">
        <ele>1481.521</ele>
        <time>2020-05-22T03:51:30Z</time>
      </trkpt>
      <trkpt lat="43.062640" lon="-6.102450">
        <ele>1482.030</ele>
        <time>2020-05-22T03:51:50Z</time>
      </trkpt>
      <trkpt lat="43.062600" lon="-6.102370">
        <ele>1483.281</ele>
        <time>2020-05-22T03:52:10Z</time>
      </trkpt>
      <trkpt lat="43.062560" lon="-6.102320">
        <ele>1483.810</ele>
        <time>2020-05-22T03:52:30Z</time>
      </trkpt>
      <trkpt lat="43.062530" lon="-6.102290">
        <ele>1484.163</ele>
        <time>2020-05-22T03:52:50Z</time>
      </trkpt>
      <trkpt lat="43.062510" lon="-6.102270">
        <ele>1484.233</ele>
        <time>2020-05-22T03:53:10Z</time>
      </trkpt>
      <trkpt lat="43.062480" lon="-6.102250">
        <ele>1484.623</ele>
        <time>2020-05-22T03:53:30Z</time>
      </trkpt>
      <trkpt lat="43.062430" lon="-6.102240">
        <ele>1484.915</ele>
        <time>2020-05-22T03:53:50Z</time>
      </trkpt>
      <trkpt lat="43.062390" lon="-6.102230">
        <ele>1485.308</ele>
        <time>2020-05-22T03:54:10Z</time>
      </trkpt>
      <trkpt lat="43.062360" lon="-6.102230">
        <ele>1485.497</ele>
        <time>2020-05-22T03:54:30Z</time>
      </trkpt>
      <trkpt lat="43.062300" lon="-6.102230">
        <ele>1485.662</ele>
        <time>2020-05-22T03:54:50Z</time>
      </trkpt>
      <trkpt lat="43.062210" lon="-6.102240">
        <ele>1485.819</ele>
        <time>2020-05-22T03:55:10Z</time>
      </trkpt>
      <trkpt lat="43.062180" lon="-6.102240">
        <ele>1486.095</ele>
        <time>2020-05-22T03:55:30Z</time>
      </trkpt>
      <trkpt lat="43.062120" lon="-6.102240">
        <ele>1486.414</ele>
        <time>2020-05-22T03:55:50Z</time>
      </trkpt>
      <trkpt lat="43.062040" lon="-6.102240">
        <ele>1487.015</ele>
        <time>2020-05-22T03:56:10Z</time>
      </trkpt>
      <trkpt lat="43.061970" lon="-6.102260">
        <ele>1487.324</ele>
        <time>2020-05-22T03:56:30Z</time>
      </trkpt>
      <trkpt lat="43.061880" lon="-6.102290">
        <ele>1487.757</ele>
        <time>2020-05-22T03:56:50Z</time>
      </trkpt>
      <trkpt lat="43.061810" lon="-6.102320">
        <ele>1487.951</ele>
        <time>2020-05-22T03:57:10Z</time>
      </trkpt>
      <trkpt lat="43.061750" lon="-6.102340">
        <ele>1488.101</ele>
        <time>2020-05-22T03:57:30Z</time>
      </trkpt>
      <trkpt lat="43.061670" lon="-6.102350">
        <ele>1488.711</ele>
        <time>2020-05-22T03:57:50Z</time>
      </trkpt>
      <trkpt lat="43.061550" lon="-6.102370">
        <ele>1488.908</ele>
        <time>2020-05-22T03:58:10Z</time>
      </trkpt>
      <trkpt lat="43.061200" lon="-6.102390">
        <ele>1490.069</ele>
        <time>2020-05-22T03:58:30Z</time>
      </trkpt>
      <trkpt lat="43.061130" lon="-6.102390">
        <ele>1490.354</ele>
        <time>2020-05-22T03:58:50Z</time>
      </trkpt>
      <trkpt lat="43.061110" lon="-6.102390">
        <ele>1490.481</ele>
        <time>2020-05-22T03:59:10Z</time>
      </trkpt>
      <trkpt lat="43.061090" lon="-6.102390">
        <ele>1490.317</ele>
        <time>2020-05-22T03:59:30Z</time>
      </trkpt>
      <trkpt lat="43.061060" lon="-6.102380">
        <ele>1490.436</ele>
        <time>2020-05-22T03:59:50Z</time>
      </trkpt>
      <trkpt lat="43.061040" lon="-6.102380">
        <ele>1490.337</ele>
        <time>2020-05-22T04:00:10Z</time>
      </trkpt>
      <trkpt lat="43.061020" lon="-6.102370">
        <ele>1490.566</ele>
        <time>2020-05-22T04:00:30Z</time>
      </trkpt>
      <trkpt lat="43.061000" lon="-6.102360">
        <ele>1490.669</ele>
        <time>2020-05-22T04:00:50Z</time>
      </trkpt>
      <trkpt lat="43.060990" lon="-6.102340">
        <ele>1491.118</ele>
        <time>2020-05-22T04:01:10Z</time>
      </trkpt>
      <trkpt lat="43.060980" lon="-6.102330">
        <ele>1491.398</ele>
        <time>2020-05-22T04:01:30Z</time>
      </trkpt>
      <trkpt lat="43.060970" lon="-6.102300">
        <ele>1492.017</ele>
        <time>2020-05-22T04:01:50Z</time>
      </trkpt>
      <trkpt lat="43.060960" lon="-6.102280">
        <ele>1492.508</ele>
        <time>2020-05-22T04:02:10Z</time>
      </trkpt>
      <trkpt lat="43.060960" lon="-6.102270">
        <ele>1492.815</ele>
        <time>2020-05-22T04:02:30Z</time>
      </trkpt>
      <trkpt lat="43.060960" lon="-6.102250">
        <ele>1493.320</ele>
        <time>2020-05-22T04:02:50Z</time>
      </trkpt>
      <trkpt lat="43.060960" lon="-6.102220">
        <ele>1494.177</ele>
        <time>2020-05-22T04:03:10Z</time>
      </trkpt>
      <trkpt lat="43.060960" lon="-6.102210">
        <ele>1494.313</ele>
        <time>2020-05-22T04:03:30Z</time>
      </trkpt>
      <trkpt lat="43.060970" lon="-6.102180">
        <ele>1495.062</ele>
        <time>2020-05-22T04:03:50Z</time>
      </trkpt>
      <trkpt lat="43.060980" lon="-6.102170">
        <ele>1495.263</ele>
        <time>2020-05-22T04:04:10Z</time>
      </trkpt>
      <trkpt lat="43.061000" lon="-6.102150">
        <ele>1495.742</ele>
        <time>2020-05-22T04:04:30Z</time>
      </trkpt>
      <trkpt lat="43.061020" lon="-6.102140">
        <ele>1495.925</ele>
        <time>2020-05-22T04:04:50Z</time>
      </trkpt>
      <trkpt lat="43.061070" lon="-6.102120">
        <ele>1496.324</ele>
        <time>2020-05-22T04:05:10Z</time>
      </trkpt>
      <trkpt lat="43.061120" lon="-6.102100">
        <ele>1496.604</ele>
        <time>2020-05-22T04:05:30Z</time>
      </trkpt>
      <trkpt lat="43.061180" lon="-6.102070">
        <ele>1497.314</ele>
        <time>2020-05-22T04:05:50Z</time>
      </trkpt>
      <trkpt lat="43.061230" lon="-6.102040">
        <ele>1497.908</ele>
        <time>2020-05-22T04:06:10Z</time>
      </trkpt>
      <trkpt lat="43.061270" lon="-6.102010">
        <ele>1498.676</ele>
        <time>2020-05-22T04:06:30Z</time>
      </trkpt>
      <trkpt lat="43.061340" lon="-6.101960">
        <ele>1499.731</ele>
        <time>2020-05-22T04:06:50Z</time>
      </trkpt>
      <trkpt lat="43.061380" lon="-6.101910">
        <ele>1500.598</ele>
        <time>2020-05-22T04:07:10Z</time>
      </trkpt>
      <trkpt lat="43.061380" lon="-6.101900">
        <ele>1500.744</ele>
        <time>2020-05-22T04:07:30Z</time>
      </trkpt>
      <trkpt lat="43.061410" lon="-6.101880">
        <ele>1500.663</ele>
        <time>2020-05-22T04:07:50Z</time>
      </trkpt>
      <trkpt lat="43.061420" lon="-6.101850">
        <ele>1500.974</ele>
        <time>2020-05-22T04:08:10Z</time>
      </trkpt>
      <trkpt lat="43.061430" lon="-6.101830">
        <ele>1501.013</ele>
        <time>2020-05-22T04:08:30Z</time>
      </trkpt>
      <trkpt lat="43.061440" lon="-6.101800">
        <ele>1501.256</ele>
        <time>2020-05-22T04:08:50Z</time>
      </trkpt>
      <trkpt lat="43.061440" lon="-6.101770">
        <ele>1501.716</ele>
        <time>2020-05-22T04:09:10Z</time>
      </trkpt>
      <trkpt lat="43.061440" lon="-6.101740">
        <ele>1502.176</ele>
        <time>2020-05-22T04:09:30Z</time>
      </trkpt>
      <trkpt lat="43.061440" lon="-6.101720">
        <ele>1502.313</ele>
        <time>2020-05-22T04:09:50Z</time>
      </trkpt>
      <trkpt lat="43.061440" lon="-6.101680">
        <ele>1502.908</ele>
        <time>2020-05-22T04:10:10Z</time>
      </trkpt>
      <trkpt lat="43.061420" lon="-6.101630">
        <ele>1503.835</ele>
        <time>2020-05-22T04:10:30Z</time>
      </trkpt>
      <trkpt lat="43.061410" lon="-6.101560">
        <ele>1504.870</ele>
        <time>2020-05-22T04:10:50Z</time>
      </trkpt>
      <trkpt lat="43.061390" lon="-6.101500">
        <ele>1505.887</ele>
        <time>2020-05-22T04:11:10Z</time>
      </trkpt>
      <trkpt lat="43.061370" lon="-6.101440">
        <ele>1506.763</ele>
        <time>2020-05-22T04:11:30Z</time>
      </trkpt>
      <trkpt lat="43.061340" lon="-6.101380">
        <ele>1507.682</ele>
        <time>2020-05-22T04:11:50Z</time>
      </trkpt>
      <trkpt lat="43.061190" lon="-6.101070">
        <ele>1512.153</ele>
        <time>2020-05-22T04:12:10Z</time>
      </trkpt>
      <trkpt lat="43.061130" lon="-6.100950">
        <ele>1514.422</ele>
        <time>2020-05-22T04:12:30Z</time>
      </trkpt>
      <trkpt lat="43.061110" lon="-6.100900">
        <ele>1515.365</ele>
        <time>2020-05-22T04:12:50Z</time>
      </trkpt>
      <trkpt lat="43.061100" lon="-6.100840">
        <ele>1516.215</ele>
        <time>2020-05-22T04:13:10Z</time>
      </trkpt>
      <trkpt lat="43.061090" lon="-6.100830">
        <ele>1516.665</ele>
        <time>2020-05-22T04:13:30Z</time>
      </trkpt>
      <trkpt lat="43.061080" lon="-6.100780">
        <ele>1517.911</ele>
        <time>2020-05-22T04:13:50Z</time>
      </trkpt>
      <trkpt lat="43.061080" lon="-6.100710">
        <ele>1519.308</ele>
        <time>2020-05-22T04:14:10Z</time>
      </trkpt>
      <trkpt lat="43.061080" lon="-6.100650">
        <ele>1520.645</ele>
        <time>2020-05-22T04:14:30Z</time>
      </trkpt>
      <trkpt lat="43.061080" lon="-6.100590">
        <ele>1521.810</ele>
        <time>2020-05-22T04:14:50Z</time>
      </trkpt>
      <trkpt lat="43.061080" lon="-6.100540">
        <ele>1522.957</ele>
        <time>2020-05-22T04:15:10Z</time>
      </trkpt>
      <trkpt lat="43.061090" lon="-6.100490">
        <ele>1523.723</ele>
        <time>2020-05-22T04:15:30Z</time>
      </trkpt>
      <trkpt lat="43.061110" lon="-6.100460">
        <ele>1524.122</ele>
        <time>2020-05-22T04:15:50Z</time>
      </trkpt>
      <trkpt lat="43.061130" lon="-6.100430">
        <ele>1524.693</ele>
        <time>2020-05-22T04:16:10Z</time>
      </trkpt>
      <trkpt lat="43.061150" lon="-6.100410">
        <ele>1525.042</ele>
        <time>2020-05-22T04:16:30Z</time>
      </trkpt>
      <trkpt lat="43.061180" lon="-6.100390">
        <ele>1525.415</ele>
        <time>2020-05-22T04:16:50Z</time>
      </trkpt>
      <trkpt lat="43.061210" lon="-6.100380">
        <ele>1525.593</ele>
        <time>2020-05-22T04:17:10Z</time>
      </trkpt>
      <trkpt lat="43.061260" lon="-6.100370">
        <ele>1525.765</ele>
        <time>2020-05-22T04:17:30Z</time>
      </trkpt>
      <trkpt lat="43.061300" lon="-6.100370">
        <ele>1525.621</ele>
        <time>2020-05-22T04:17:50Z</time>
      </trkpt>
      <trkpt lat="43.061370" lon="-6.100390">
        <ele>1524.808</ele>
        <time>2020-05-22T04:18:10Z</time>
      </trkpt>
      <trkpt lat="43.061420" lon="-6.100400">
        <ele>1524.473</ele>
        <time>2020-05-22T04:18:30Z</time>
      </trkpt>
      <trkpt lat="43.061470" lon="-6.100410">
        <ele>1524.178</ele>
        <time>2020-05-22T04:18:50Z</time>
      </trkpt>
      <trkpt lat="43.061520" lon="-6.100410">
        <ele>1524.075</ele>
        <time>2020-05-22T04:19:10Z</time>
      </trkpt>
      <trkpt lat="43.061530" lon="-6.100420">
        <ele>1523.691</ele>
        <time>2020-05-22T04:19:30Z</time>
      </trkpt>
      <trkpt lat="43.061560" lon="-6.100430">
        <ele>1523.360</ele>
        <time>2020-05-22T04:19:50Z</time>
      </trkpt>
      <trkpt lat="43.061590" lon="-6.100430">
        <ele>1523.231</ele>
        <time>2020-05-22T04:20:10Z</time>
      </trkpt>
      <trkpt lat="43.061640" lon="-6.100460">
        <ele>1522.270</ele>
        <time>2020-05-22T04:20:30Z</time>
      </trkpt>
      <trkpt lat="43.061670" lon="-6.100480">
        <ele>1521.473</ele>
        <time>2020-05-22T04:20:50Z</time>
      </trkpt>
      <trkpt lat="43.061700" lon="-6.100490">
        <ele>1521.184</ele>
        <time>2020-05-22T04:21:10Z</time>
      </trkpt>
      <trkpt lat="43.061710" lon="-6.100490">
        <ele>1521.007</ele>
        <time>2020-05-22T04:21:30Z</time>
      </trkpt>
      <trkpt lat="43.061750" lon="-6.100500">
        <ele>1520.717</ele>
        <time>2020-05-22T04:21:50Z</time>
      </trkpt>
      <trkpt lat="43.061780" lon="-6.100500">
        <ele>1520.608</ele>
        <time>2020-05-22T04:22:10Z</time>
      </trkpt>
      <trkpt lat="43.061830" lon="-6.100500">
        <ele>1520.622</ele>
        <time>2020-05-22T04:22:30Z</time>
      </trkpt>
      <trkpt lat="43.061880" lon="-6.100500">
        <ele>1520.557</ele>
        <time>2020-05-22T04:22:50Z</time>
      </trkpt>
      <trkpt lat="43.061930" lon="-6.100480">
        <ele>1520.984</ele>
        <time>2020-05-22T04:23:10Z</time>
      </trkpt>
      <trkpt lat="43.061980" lon="-6.100470">
        <ele>1521.320</ele>
        <time>2020-05-22T04:23:30Z</time>
      </trkpt>
      <trkpt lat="43.062070" lon="-6.100430">
        <ele>1522.889</ele>
        <time>2020-05-22T04:23:50Z</time>
      </trkpt>
      <trkpt lat="43.062150" lon="-6.100390">
        <ele>1524.480</ele>
        <time>2020-05-22T04:24:10Z</time>
      </trkpt>
      <trkpt lat="43.062200" lon="-6.100360">
        <ele>1525.589</ele>
        <time>2020-05-22T04:24:30Z</time>
      </trkpt>
      <trkpt lat="43.062250" lon="-6.100340">
        <ele>1526.322</ele>
        <time>2020-05-22T04:24:50Z</time>
      </trkpt>
      <trkpt lat="43.062280" lon="-6.100330">
        <ele>1526.719</ele>
        <time>2020-05-22T04:25:10Z</time>
      </trkpt>
      <trkpt lat="43.062300" lon="-6.100320">
        <ele>1527.109</ele>
        <time>2020-05-22T04:25:30Z</time>
      </trkpt>
      <trkpt lat="43.062330" lon="-6.100320">
        <ele>1527.219</ele>
        <time>2020-05-22T04:25:50Z</time>
      </trkpt>
      <trkpt lat="43.062360" lon="-6.100320">
        <ele>1527.308</ele>
        <time>2020-05-22T04:26:10Z</time>
      </trkpt>
      <trkpt lat="43.062410" lon="-6.100320">
        <ele>1527.565</ele>
        <time>2020-05-22T04:26:30Z</time>
      </trkpt>
      <trkpt lat="43.062490" lon="-6.100340">
        <ele>1527.250</ele>
        <time>2020-05-22T04:26:50Z</time>
      </trkpt>
      <trkpt lat="43.062530" lon="-6.100360">
        <ele>1527.277</ele>
        <time>2020-05-22T04:27:10Z</time>
      </trkpt>
      <trkpt lat="43.062570" lon="-6.100360">
        <ele>1528.063</ele>
        <time>2020-05-22T04:27:30Z</time>
      </trkpt>
      <trkpt lat="43.062610" lon="-6.100370">
        <ele>1528.572</ele>
        <time>2020-05-22T04:27:50Z</time>
      </trkpt>
      <trkpt lat="43.062650" lon="-6.100360">
        <ele>1529.643</ele>
        <time>2020-05-22T04:28:10Z</time>
      </trkpt>
      <trkpt lat="43.062680" lon="-6.100350">
        <ele>1530.522</ele>
        <time>2020-05-22T04:28:30Z</time>
      </trkpt>
      <trkpt lat="43.062710" lon="-6.100320">
        <ele>1532.195</ele>
        <time>2020-05-22T04:28:50Z</time>
      </trkpt>
      <trkpt lat="43.062730" lon="-6.100290">
        <ele>1533.519</ele>
        <time>2020-05-22T04:29:10Z</time>
      </trkpt>
      <trkpt lat="43.062740" lon="-6.100260">
        <ele>1534.709</ele>
        <time>2020-05-22T04:29:30Z</time>
      </trkpt>
      <trkpt lat="43.062750" lon="-6.100230">
        <ele>1535.719</ele>
        <time>2020-05-22T04:29:50Z</time>
      </trkpt>
      <trkpt lat="43.062750" lon="-6.100200">
        <ele>1536.508</ele>
        <time>2020-05-22T04:30:10Z</time>
      </trkpt>
      <trkpt lat="43.062750" lon="-6.100170">
        <ele>1537.345</ele>
        <time>2020-05-22T04:30:30Z</time>
      </trkpt>
      <trkpt lat="43.062740" lon="-6.100140">
        <ele>1538.060</ele>
        <time>2020-05-22T04:30:50Z</time>
      </trkpt>
      <trkpt lat="43.062720" lon="-6.100110">
        <ele>1538.627</ele>
        <time>2020-05-22T04:31:10Z</time>
      </trkpt>
      <trkpt lat="43.062710" lon="-6.100100">
        <ele>1538.883</ele>
        <time>2020-05-22T04:31:30Z</time>
      </trkpt>
      <trkpt lat="43.062700" lon="-6.100090">
        <ele>1539.022</ele>
        <time>2020-05-22T04:31:50Z</time>
      </trkpt>
      <trkpt lat="43.062680" lon="-6.100090">
        <ele>1538.883</ele>
        <time>2020-05-22T04:32:10Z</time>
      </trkpt>
      <trkpt lat="43.062640" lon="-6.100090">
        <ele>1538.442</ele>
        <time>2020-05-22T04:32:30Z</time>
      </trkpt>
      <trkpt lat="43.062600" lon="-6.100090">
        <ele>1538.135</ele>
        <time>2020-05-22T04:32:50Z</time>
      </trkpt>
      <trkpt lat="43.062550" lon="-6.100100">
        <ele>1537.248</ele>
        <time>2020-05-22T04:33:10Z</time>
      </trkpt>
      <trkpt lat="43.062500" lon="-6.100110">
        <ele>1536.261</ele>
        <time>2020-05-22T04:33:30Z</time>
      </trkpt>
      <trkpt lat="43.062460" lon="-6.100110">
        <ele>1535.817</ele>
        <time>2020-05-22T04:33:50Z</time>
      </trkpt>
      <trkpt lat="43.062420" lon="-6.100100">
        <ele>1535.808</ele>
        <time>2020-05-22T04:34:10Z</time>
      </trkpt>
      <trkpt lat="43.062330" lon="-6.100090">
        <ele>1535.398</ele>
        <time>2020-05-22T04:34:30Z</time>
      </trkpt>
      <trkpt lat="43.062190" lon="-6.100060">
        <ele>1534.883</ele>
        <time>2020-05-22T04:34:50Z</time>
      </trkpt>
      <trkpt lat="43.062140" lon="-6.100060">
        <ele>1534.580</ele>
        <time>2020-05-22T04:35:10Z</time>
      </trkpt>
      <trkpt lat="43.062080" lon="-6.100050">
        <ele>1534.496</ele>
        <time>2020-05-22T04:35:30Z</time>
      </trkpt>
      <trkpt lat="43.062020" lon="-6.100040">
        <ele>1534.245</ele>
        <time>2020-05-22T04:35:50Z</time>
      </trkpt>
      <trkpt lat="43.061950" lon="-6.100040">
        <ele>1533.776</ele>
        <time>2020-05-22T04:36:10Z</time>
      </trkpt>
      <trkpt lat="43.061880" lon="-6.100010">
        <ele>1534.985</ele>
        <time>2020-05-22T04:36:30Z</time>
      </trkpt>
      <trkpt lat="43.061790" lon="-6.099970">
        <ele>1536.488</ele>
        <time>2020-05-22T04:36:50Z</time>
      </trkpt>
      <trkpt lat="43.061680" lon="-6.099920">
        <ele>1538.332</ele>
        <time>2020-05-22T04:37:10Z</time>
      </trkpt>
      <trkpt lat="43.061360" lon="-6.099750">
        <ele>1540.992</ele>
        <time>2020-05-22T04:37:30Z</time>
      </trkpt>
      <trkpt lat="43.061300" lon="-6.099710">
        <ele>1541.511</ele>
        <time>2020-05-22T04:37:50Z</time>
      </trkpt>
      <trkpt lat="43.061230" lon="-6.099660">
        <ele>1542.408</ele>
        <time>2020-05-22T04:38:10Z</time>
      </trkpt>
      <trkpt lat="43.061180" lon="-6.099620">
        <ele>1543.187</ele>
        <time>2020-05-22T04:38:30Z</time>
      </trkpt>
      <trkpt lat="43.061130" lon="-6.099590">
        <ele>1543.532</ele>
        <time>2020-05-22T04:38:50Z</time>
      </trkpt>
      <trkpt lat="43.061090" lon="-6.099560">
        <ele>1544.559</ele>
        <time>2020-05-22T04:39:10Z</time>
      </trkpt>
      <trkpt lat="43.061030" lon="-6.099530">
        <ele>1546.155</ele>
        <time>2020-05-22T04:39:30Z</time>
      </trkpt>
      <trkpt lat="43.060980" lon="-6.099510">
        <ele>1547.324</ele>
        <time>2020-05-22T04:39:50Z</time>
      </trkpt>
      <trkpt lat="43.060910" lon="-6.099500">
        <ele>1548.425</ele>
        <time>2020-05-22T04:40:10Z</time>
      </trkpt>
      <trkpt lat="43.060870" lon="-6.099490">
        <ele>1549.114</ele>
        <time>2020-05-22T04:40:30Z</time>
      </trkpt>
      <trkpt lat="43.060830" lon="-6.099490">
        <ele>1549.697</ele>
        <time>2020-05-22T04:40:50Z</time>
      </trkpt>
      <trkpt lat="43.060740" lon="-6.099490">
        <ele>1550.588</ele>
        <time>2020-05-22T04:41:10Z</time>
      </trkpt>
      <trkpt lat="43.060680" lon="-6.099500">
        <ele>1550.924</ele>
        <time>2020-05-22T04:41:30Z</time>
      </trkpt>
      <trkpt lat="43.060630" lon="-6.099520">
        <ele>1550.726</ele>
        <time>2020-05-22T04:41:50Z</time>
      </trkpt>
      <trkpt lat="43.060600" lon="-6.099530">
        <ele>1550.708</ele>
        <time>2020-05-22T04:42:10Z</time>
      </trkpt>
      <trkpt lat="43.060520" lon="-6.099570">
        <ele>1550.332</ele>
        <time>2020-05-22T04:42:30Z</time>
      </trkpt>
      <trkpt lat="43.060470" lon="-6.099590">
        <ele>1550.247</ele>
        <time>2020-05-22T04:42:50Z</time>
      </trkpt>
      <trkpt lat="43.060440" lon="-6.099600">
        <ele>1550.274</ele>
        <time>2020-05-22T04:43:10Z</time>
      </trkpt>
      <trkpt lat="43.060390" lon="-6.099610">
        <ele>1550.430</ele>
        <time>2020-05-22T04:43:30Z</time>
      </trkpt>
      <trkpt lat="43.060350" lon="-6.099610">
        <ele>1550.919</ele>
        <time>2020-05-22T04:43:50Z</time>
      </trkpt>
      <trkpt lat="43.060310" lon="-6.099610">
        <ele>1551.340</ele>
        <time>2020-05-22T04:44:10Z</time>
      </trkpt>
      <trkpt lat="43.060280" lon="-6.099610">
        <ele>1551.699</ele>
        <time>2020-05-22T04:44:30Z</time>
      </trkpt>
      <trkpt lat="43.060240" lon="-6.099600">
        <ele>1552.252</ele>
        <time>2020-05-22T04:44:50Z</time>
      </trkpt>
      <trkpt lat="43.060170" lon="-6.099580">
        <ele>1553.263</ele>
        <time>2020-05-22T04:45:10Z</time>
      </trkpt>
      <trkpt lat="43.060110" lon="-6.099570">
        <ele>1553.844</ele>
        <time>2020-05-22T04:45:30Z</time>
      </trkpt>
      <trkpt lat="43.060060" lon="-6.099550">
        <ele>1554.718</ele>
        <time>2020-05-22T04:45:50Z</time>
      </trkpt>
      <trkpt lat="43.059960" lon="-6.099540">
        <ele>1554.908</ele>
        <time>2020-05-22T04:46:10Z</time>
      </trkpt>
      <trkpt lat="43.059890" lon="-6.099520">
        <ele>1554.970</ele>
        <time>2020-05-22T04:46:30Z</time>
      </trkpt>
      <trkpt lat="43.059840" lon="-6.099510">
        <ele>1554.725</ele>
        <time>2020-05-22T04:46:50Z</time>
      </trkpt>
      <trkpt lat="43.059800" lon="-6.099480">
        <ele>1555.022</ele>
        <time>2020-05-22T04:47:10Z</time>
      </trkpt>
      <trkpt lat="43.059770" lon="-6.099460">
        <ele>1555.248</ele>
        <time>2020-05-22T04:47:30Z</time>
      </trkpt>
      <trkpt lat="43.059740" lon="-6.099430">
        <ele>1555.457</ele>
        <time>2020-05-22T04:47:50Z</time>
      </trkpt>
      <trkpt lat="43.059720" lon="-6.099400">
        <ele>1555.598</ele>
        <time>2020-05-22T04:48:10Z</time>
      </trkpt>
      <trkpt lat="43.059700" lon="-6.099370">
        <ele>1555.517</ele>
        <time>2020-05-22T04:48:30Z</time>
      </trkpt>
      <trkpt lat="43.059680" lon="-6.099330">
        <ele>1555.830</ele>
        <time>2020-05-22T04:48:50Z</time>
      </trkpt>
      <trkpt lat="43.059660" lon="-6.099290">
        <ele>1556.026</ele>
        <time>2020-05-22T04:49:10Z</time>
      </trkpt>
      <trkpt lat="43.059640" lon="-6.099220">
        <ele>1556.747</ele>
        <time>2020-05-22T04:49:30Z</time>
      </trkpt>
      <trkpt lat="43.059620" lon="-6.099150">
        <ele>1557.611</ele>
        <time>2020-05-22T04:49:50Z</time>
      </trkpt>
      <trkpt lat="43.059610" lon="-6.099060">
        <ele>1559.308</ele>
        <time>2020-05-22T04:50:10Z</time>
      </trkpt>
      <trkpt lat="43.059600" lon="-6.098990">
        <ele>1560.736</ele>
        <time>2020-05-22T04:50:30Z</time>
      </trkpt>
      <trkpt lat="43.059580" lon="-6.098910">
        <ele>1562.081</ele>
        <time>2020-05-22T04:50:50Z</time>
      </trkpt>
      <trkpt lat="43.059560" lon="-6.098860">
        <ele>1562.818</ele>
        <time>2020-05-22T04:51:10Z</time>
      </trkpt>
      <trkpt lat="43.059540" lon="-6.098810">
        <ele>1563.544</ele>
        <time>2020-05-22T04:51:30Z</time>
      </trkpt>
      <trkpt lat="43.059520" lon="-6.098770">
        <ele>1564.113</ele>
        <time>2020-05-22T04:51:50Z</time>
      </trkpt>
      <trkpt lat="43.059460" lon="-6.098650">
        <ele>1565.564</ele>
        <time>2020-05-22T04:52:10Z</time>
      </trkpt>
      <trkpt lat="43.059410" lon="-6.098570">
        <ele>1566.943</ele>
        <time>2020-05-22T04:52:30Z</time>
      </trkpt>
      <trkpt lat="43.059390" lon="-6.098530">
        <ele>1567.896</ele>
        <time>2020-05-22T04:52:50Z</time>
      </trkpt>
      <trkpt lat="43.059370" lon="-6.098470">
        <ele>1569.249</ele>
        <time>2020-05-22T04:53:10Z</time>
      </trkpt>
      <trkpt lat="43.059370" lon="-6.098440">
        <ele>1569.902</ele>
        <time>2020-05-22T04:53:30Z</time>
      </trkpt>
      <trkpt lat="43.059370" lon="-6.098410">
        <ele>1570.622</ele>
        <time>2020-05-22T04:53:50Z</time>
      </trkpt>
      <trkpt lat="43.059370" lon="-6.098390">
        <ele>1571.108</ele>
        <time>2020-05-22T04:54:10Z</time>
      </trkpt>
      <trkpt lat="43.059380" lon="-6.098370">
        <ele>1571.698</ele>
        <time>2020-05-22T04:54:30Z</time>
      </trkpt>
      <trkpt lat="43.059390" lon="-6.098360">
        <ele>1572.063</ele>
        <time>2020-05-22T04:54:50Z</time>
      </trkpt>
      <trkpt lat="43.059400" lon="-6.098350">
        <ele>1572.350</ele>
        <time>2020-05-22T04:55:10Z</time>
      </trkpt>
      <trkpt lat="43.059410" lon="-6.098340">
        <ele>1572.676</ele>
        <time>2020-05-22T04:55:30Z</time>
      </trkpt>
      <trkpt lat="43.059420" lon="-6.098340">
        <ele>1572.785</ele>
        <time>2020-05-22T04:55:50Z</time>
      </trkpt>
      <trkpt lat="43.059440" lon="-6.098340">
        <ele>1572.886</ele>
        <time>2020-05-22T04:56:10Z</time>
      </trkpt>
      <trkpt lat="43.059450" lon="-6.098340">
        <ele>1572.945</ele>
        <time>2020-05-22T04:56:30Z</time>
      </trkpt>
      <trkpt lat="43.059460" lon="-6.098340">
        <ele>1573.178</ele>
        <time>2020-05-22T04:56:50Z</time>
      </trkpt>
      <trkpt lat="43.059470" lon="-6.098350">
        <ele>1572.931</ele>
        <time>2020-05-22T04:57:10Z</time>
      </trkpt>
      <trkpt lat="43.059580" lon="-6.098430">
        <ele>1572.561</ele>
        <time>2020-05-22T04:57:30Z</time>
      </trkpt>
      <trkpt lat="43.059640" lon="-6.098480">
        <ele>1572.107</ele>
        <time>2020-05-22T04:57:50Z</time>
      </trkpt>
      <trkpt lat="43.059670" lon="-6.098500">
        <ele>1572.008</ele>
        <time>2020-05-22T04:58:10Z</time>
      </trkpt>
      <trkpt lat="43.059730" lon="-6.098520">
        <ele>1572.437</ele>
        <time>2020-05-22T04:58:30Z</time>
      </trkpt>
      <trkpt lat="43.059760" lon="-6.098530">
        <ele>1572.552</ele>
        <time>2020-05-22T04:58:50Z</time>
      </trkpt>
      <trkpt lat="43.059800" lon="-6.098540">
        <ele>1572.789</ele>
        <time>2020-05-22T04:59:10Z</time>
      </trkpt>
      <trkpt lat="43.059840" lon="-6.098540">
        <ele>1573.225</ele>
        <time>2020-05-22T04:59:30Z</time>
      </trkpt>
      <trkpt lat="43.059900" lon="-6.098540">
        <ele>1573.934</ele>
        <time>2020-05-22T04:59:50Z</time>
      </trkpt>
      <trkpt lat="43.059960" lon="-6.098540">
        <ele>1574.685</ele>
        <time>2020-05-22T05:00:10Z</time>
      </trkpt>
      <trkpt lat="43.060020" lon="-6.098530">
        <ele>1575.594</ele>
        <time>2020-05-22T05:00:30Z</time>
      </trkpt>
      <trkpt lat="43.060080" lon="-6.098510">
        <ele>1576.637</ele>
        <time>2020-05-22T05:00:50Z</time>
      </trkpt>
      <trkpt lat="43.060100" lon="-6.098500">
        <ele>1577.164</ele>
        <time>2020-05-22T05:01:10Z</time>
      </trkpt>
      <trkpt lat="43.060180" lon="-6.098470">
        <ele>1578.706</ele>
        <time>2020-05-22T05:01:30Z</time>
      </trkpt>
      <trkpt lat="43.060220" lon="-6.098450">
        <ele>1579.716</ele>
        <time>2020-05-22T05:01:50Z</time>
      </trkpt>
      <trkpt lat="43.060250" lon="-6.098440">
        <ele>1580.308</ele>
        <time>2020-05-22T05:02:10Z</time>
      </trkpt>
      <trkpt lat="43.060270" lon="-6.098440">
        <ele>1580.590</ele>
        <time>2020-05-22T05:02:30Z</time>
      </trkpt>
      <trkpt lat="43.060290" lon="-6.098450">
        <ele>1580.345</ele>
        <time>2020-05-22T05:02:50Z</time>
      </trkpt>
      <trkpt lat="43.060310" lon="-6.098450">
        <ele>1580.582</ele>
        <time>2020-05-22T05:03:10Z</time>
      </trkpt>
      <trkpt lat="43.060420" lon="-6.098520">
        <ele>1579.098</ele>
        <time>2020-05-22T05:03:30Z</time>
      </trkpt>
      <trkpt lat="43.060480" lon="-6.098550">
        <ele>1578.477</ele>
        <time>2020-05-22T05:03:50Z</time>
      </trkpt>
      <trkpt lat="43.060530" lon="-6.098570">
        <ele>1578.178</ele>
        <time>2020-05-22T05:04:10Z</time>
      </trkpt>
      <trkpt lat="43.060570" lon="-6.098590">
        <ele>1577.727</ele>
        <time>2020-05-22T05:04:30Z</time>
      </trkpt>
      <trkpt lat="43.060620" lon="-6.098600">
        <ele>1577.610</ele>
        <time>2020-05-22T05:04:50Z</time>
      </trkpt>
      <trkpt lat="43.060650" lon="-6.098600">
        <ele>1577.769</ele>
        <time>2020-05-22T05:05:10Z</time>
      </trkpt>
      <trkpt lat="43.060680" lon="-6.098590">
        <ele>1578.104</ele>
        <time>2020-05-22T05:05:30Z</time>
      </trkpt>
      <trkpt lat="43.060710" lon="-6.098590">
        <ele>1578.224</ele>
        <time>2020-05-22T05:05:50Z</time>
      </trkpt>
      <trkpt lat="43.060760" lon="-6.098560">
        <ele>1579.308</ele>
        <time>2020-05-22T05:06:10Z</time>
      </trkpt>
      <trkpt lat="43.060810" lon="-6.098530">
        <ele>1580.360</ele>
        <time>2020-05-22T05:06:30Z</time>
      </trkpt>
      <trkpt lat="43.060900" lon="-6.098480">
        <ele>1582.155</ele>
        <time>2020-05-22T05:06:50Z</time>
      </trkpt>
      <trkpt lat="43.060930" lon="-6.098460">
        <ele>1582.992</ele>
        <time>2020-05-22T05:07:10Z</time>
      </trkpt>
      <trkpt lat="43.060960" lon="-6.098440">
        <ele>1583.628</ele>
        <time>2020-05-22T05:07:30Z</time>
      </trkpt>
      <trkpt lat="43.061000" lon="-6.098430">
        <ele>1584.087</ele>
        <time>2020-05-22T05:07:50Z</time>
      </trkpt>
      <trkpt lat="43.061040" lon="-6.098420">
        <ele>1584.548</ele>
        <time>2020-05-22T05:08:10Z</time>
      </trkpt>
      <trkpt lat="43.061140" lon="-6.098400">
        <ele>1585.477</ele>
        <time>2020-05-22T05:08:30Z</time>
      </trkpt>
      <trkpt lat="43.061280" lon="-6.098370">
        <ele>1586.610</ele>
        <time>2020-05-22T05:08:50Z</time>
      </trkpt>
      <trkpt lat="43.061340" lon="-6.098360">
        <ele>1587.189</ele>
        <time>2020-05-22T05:09:10Z</time>
      </trkpt>
      <trkpt lat="43.061400" lon="-6.098340">
        <ele>1587.706</ele>
        <time>2020-05-22T05:09:30Z</time>
      </trkpt>
      <trkpt lat="43.061450" lon="-6.098320">
        <ele>1587.626</ele>
        <time>2020-05-22T05:09:50Z</time>
      </trkpt>
      <trkpt lat="43.061490" lon="-6.098290">
        <ele>1587.908</ele>
        <time>2020-05-22T05:10:10Z</time>
      </trkpt>
      <trkpt lat="43.061520" lon="-6.098260">
        <ele>1588.372</ele>
        <time>2020-05-22T05:10:30Z</time>
      </trkpt>
      <trkpt lat="43.061540" lon="-6.098240">
        <ele>1588.687</ele>
        <time>2020-05-22T05:10:50Z</time>
      </trkpt>
      <trkpt lat="43.061550" lon="-6.098210">
        <ele>1589.284</ele>
        <time>2020-05-22T05:11:10Z</time>
      </trkpt>
      <trkpt lat="43.061570" lon="-6.098160">
        <ele>1590.220</ele>
        <time>2020-05-22T05:11:30Z</time>
      </trkpt>
      <trkpt lat="43.061580" lon="-6.098140">
        <ele>1590.639</ele>
        <time>2020-05-22T05:11:50Z</time>
      </trkpt>
      <trkpt lat="43.061580" lon="-6.098130">
        <ele>1590.820</ele>
        <time>2020-05-22T05:12:10Z</time>
      </trkpt>
      <trkpt lat="43.061590" lon="-6.098100">
        <ele>1591.599</ele>
        <time>2020-05-22T05:12:30Z</time>
      </trkpt>
      <trkpt lat="43.061610" lon="-6.098000">
        <ele>1593.612</ele>
        <time>2020-05-22T05:12:50Z</time>
      </trkpt>
      <trkpt lat="43.061610" lon="-6.097890">
        <ele>1595.977</ele>
        <time>2020-05-22T05:13:10Z</time>
      </trkpt>
      <trkpt lat="43.061620" lon="-6.097840">
        <ele>1596.961</ele>
        <time>2020-05-22T05:13:30Z</time>
      </trkpt>
      <trkpt lat="43.061620" lon="-6.097810">
        <ele>1597.527</ele>
        <time>2020-05-22T05:13:50Z</time>
      </trkpt>
      <trkpt lat="43.061630" lon="-6.097790">
        <ele>1597.908</ele>
        <time>2020-05-22T05:14:10Z</time>
      </trkpt>
      <trkpt lat="43.061640" lon="-6.097770">
        <ele>1598.231</ele>
        <time>2020-05-22T05:14:30Z</time>
      </trkpt>
      <trkpt lat="43.061670" lon="-6.097740">
        <ele>1598.686</ele>
        <time>2020-05-22T05:14:50Z</time>
      </trkpt>
      <trkpt lat="43.061700" lon="-6.097710">
        <ele>1598.733</ele>
        <time>2020-05-22T05:15:10Z</time>
      </trkpt>
      <trkpt lat="43.061700" lon="-6.097700">
        <ele>1598.969</ele>
        <time>2020-05-22T05:15:30Z</time>
      </trkpt>
      <trkpt lat="43.061970" lon="-6.097440">
        <ele>1602.178</ele>
        <time>2020-05-22T05:15:50Z</time>
      </trkpt>
      <trkpt lat="43.062010" lon="-6.097410">
        <ele>1603.419</ele>
        <time>2020-05-22T05:16:10Z</time>
      </trkpt>
      <trkpt lat="43.062040" lon="-6.097380">
        <ele>1604.628</ele>
        <time>2020-05-22T05:16:30Z</time>
      </trkpt>
      <trkpt lat="43.062070" lon="-6.097360">
        <ele>1605.451</ele>
        <time>2020-05-22T05:16:50Z</time>
      </trkpt>
      <trkpt lat="43.062090" lon="-6.097350">
        <ele>1605.967</ele>
        <time>2020-05-22T05:17:10Z</time>
      </trkpt>
      <trkpt lat="43.062110" lon="-6.097350">
        <ele>1606.181</ele>
        <time>2020-05-22T05:17:30Z</time>
      </trkpt>
      <trkpt lat="43.062140" lon="-6.097360">
        <ele>1605.919</ele>
        <time>2020-05-22T05:17:50Z</time>
      </trkpt>
      <trkpt lat="43.062150" lon="-6.097360">
        <ele>1606.008</ele>
        <time>2020-05-22T05:18:10Z</time>
      </trkpt>
      <trkpt lat="43.062170" lon="-6.097370">
        <ele>1605.850</ele>
        <time>2020-05-22T05:18:30Z</time>
      </trkpt>
      <trkpt lat="43.062200" lon="-6.097380">
        <ele>1605.725</ele>
        <time>2020-05-22T05:18:50Z</time>
      </trkpt>
      <trkpt lat="43.062210" lon="-6.097390">
        <ele>1605.562</ele>
        <time>2020-05-22T05:19:10Z</time>
      </trkpt>
      <trkpt lat="43.062240" lon="-6.097410">
        <ele>1605.468</ele>
        <time>2020-05-22T05:19:30Z</time>
      </trkpt>
      <trkpt lat="43.062270" lon="-6.097440">
        <ele>1605.287</ele>
        <time>2020-05-22T05:19:50Z</time>
      </trkpt>
      <trkpt lat="43.062310" lon="-6.097460">
        <ele>1605.718</ele>
        <time>2020-05-22T05:20:10Z</time>
      </trkpt>
      <trkpt lat="43.062340" lon="-6.097480">
        <ele>1606.077</ele>
        <time>2020-05-22T05:20:30Z</time>
      </trkpt>
      <trkpt lat="43.062350" lon="-6.097480">
        <ele>1606.350</ele>
        <time>2020-05-22T05:20:50Z</time>
      </trkpt>
      <trkpt lat="43.062380" lon="-6.097490">
        <ele>1606.871</ele>
        <time>2020-05-22T05:21:10Z</time>
      </trkpt>
      <trkpt lat="43.062420" lon="-6.097500">
        <ele>1607.741</ele>
        <time>2020-05-22T05:21:30Z</time>
      </trkpt>
      <trkpt lat="43.062460" lon="-6.097510">
        <ele>1608.615</ele>
        <time>2020-05-22T05:21:50Z</time>
      </trkpt>
      <trkpt lat="43.062490" lon="-6.097520">
        <ele>1609.208</ele>
        <time>2020-05-22T05:22:10Z</time>
      </trkpt>
      <trkpt lat="43.062500" lon="-6.097520">
        <ele>1609.531</ele>
        <time>2020-05-22T05:22:30Z</time>
      </trkpt>
      <trkpt lat="43.062510" lon="-6.097530">
        <ele>1609.556</ele>
        <time>2020-05-22T05:22:50Z</time>
      </trkpt>
      <trkpt lat="43.062530" lon="-6.097530">
        <ele>1610.173</ele>
        <time>2020-05-22T05:23:10Z</time>
      </trkpt>
      <trkpt lat="43.062540" lon="-6.097540">
        <ele>1610.219</ele>
        <time>2020-05-22T05:23:30Z</time>
      </trkpt>
      <trkpt lat="43.062560" lon="-6.097570">
        <ele>1610.078</ele>
        <time>2020-05-22T05:23:50Z</time>
      </trkpt>
      <trkpt lat="43.062640" lon="-6.097640">
        <ele>1610.859</ele>
        <time>2020-05-22T05:24:10Z</time>
      </trkpt>
      <trkpt lat="43.062700" lon="-6.097700">
        <ele>1611.228</ele>
        <time>2020-05-22T05:24:30Z</time>
      </trkpt>
      <trkpt lat="43.062770" lon="-6.097760">
        <ele>1612.171</ele>
        <time>2020-05-22T05:24:50Z</time>
      </trkpt>
      <trkpt lat="43.062810" lon="-6.097800">
        <ele>1611.766</ele>
        <time>2020-05-22T05:25:10Z</time>
      </trkpt>
      <trkpt lat="43.062870" lon="-6.097830">
        <ele>1611.529</ele>
        <time>2020-05-22T05:25:30Z</time>
      </trkpt>
      <trkpt lat="43.062920" lon="-6.097840">
        <ele>1611.921</ele>
        <time>2020-05-22T05:25:50Z</time>
      </trkpt>
      <trkpt lat="43.062970" lon="-6.097850">
        <ele>1612.308</ele>
        <time>2020-05-22T05:26:10Z</time>
      </trkpt>
      <trkpt lat="43.063050" lon="-6.097870">
        <ele>1612.950</ele>
        <time>2020-05-22T05:26:30Z</time>
      </trkpt>
      <trkpt lat="43.063130" lon="-6.097870">
        <ele>1615.475</ele>
        <time>2020-05-22T05:26:50Z</time>
      </trkpt>
      <trkpt lat="43.063210" lon="-6.097880">
        <ele>1617.662</ele>
        <time>2020-05-22T05:27:10Z</time>
      </trkpt>
      <trkpt lat="43.063240" lon="-6.097870">
        <ele>1619.048</ele>
        <time>2020-05-22T05:27:30Z</time>
      </trkpt>
      <trkpt lat="43.063270" lon="-6.097850">
        <ele>1620.897</ele>
        <time>2020-05-22T05:27:50Z</time>
      </trkpt>
      <trkpt lat="43.063290" lon="-6.097840">
        <ele>1621.978</ele>
        <time>2020-05-22T05:28:10Z</time>
      </trkpt>
      <trkpt lat="43.063300" lon="-6.097820">
        <ele>1623.047</ele>
        <time>2020-05-22T05:28:30Z</time>
      </trkpt>
      <trkpt lat="43.063310" lon="-6.097800">
        <ele>1624.250</ele>
        <time>2020-05-22T05:28:50Z</time>
      </trkpt>
      <trkpt lat="43.063320" lon="-6.097770">
        <ele>1625.891</ele>
        <time>2020-05-22T05:29:10Z</time>
      </trkpt>
      <trkpt lat="43.063330" lon="-6.097750">
        <ele>1627.081</ele>
        <time>2020-05-22T05:29:30Z</time>
      </trkpt>
      <trkpt lat="43.063330" lon="-6.097730">
        <ele>1627.819</ele>
        <time>2020-05-22T05:29:50Z</time>
      </trkpt>
      <trkpt lat="43.063330" lon="-6.097700">
        <ele>1629.008</ele>
        <time>2020-05-22T05:30:10Z</time>
      </trkpt>
      <trkpt lat="43.063330" lon="-6.097670">
        <ele>1630.163</ele>
        <time>2020-05-22T05:30:30Z</time>
      </trkpt>
      <trkpt lat="43.063330" lon="-6.097640">
        <ele>1631.328</ele>
        <time>2020-05-22T05:30:50Z</time>
      </trkpt>
      <trkpt lat="43.063320" lon="-6.097610">
        <ele>1632.155</ele>
        <time>2020-05-22T05:31:10Z</time>
      </trkpt>
      <trkpt lat="43.063310" lon="-6.097590">
        <ele>1632.461</ele>
        <time>2020-05-22T05:31:30Z</time>
      </trkpt>
      <trkpt lat="43.063300" lon="-6.097570">
        <ele>1632.860</ele>
        <time>2020-05-22T05:31:50Z</time>
      </trkpt>
      <trkpt lat="43.063300" lon="-6.097560">
        <ele>1633.131</ele>
        <time>2020-05-22T05:32:10Z</time>
      </trkpt>
      <trkpt lat="43.063290" lon="-6.097550">
        <ele>1633.170</ele>
        <time>2020-05-22T05:32:30Z</time>
      </trkpt>
      <trkpt lat="43.063270" lon="-6.097540">
        <ele>1632.593</ele>
        <time>2020-05-22T05:32:50Z</time>
      </trkpt>
      <trkpt lat="43.063250" lon="-6.097540">
        <ele>1631.671</ele>
        <time>2020-05-22T05:33:10Z</time>
      </trkpt>
      <trkpt lat="43.063220" lon="-6.097540">
        <ele>1630.341</ele>
        <time>2020-05-22T05:33:30Z</time>
      </trkpt>
      <trkpt lat="43.063200" lon="-6.097550">
        <ele>1629.015</ele>
        <time>2020-05-22T05:33:50Z</time>
      </trkpt>
      <trkpt lat="43.063160" lon="-6.097560">
        <ele>1626.908</ele>
        <time>2020-05-22T05:34:10Z</time>
      </trkpt>
      <trkpt lat="43.063050" lon="-6.097600">
        <ele>1621.011</ele>
        <time>2020-05-22T05:34:30Z</time>
      </trkpt>
      <trkpt lat="43.063000" lon="-6.097620">
        <ele>1619.536</ele>
        <time>2020-05-22T05:34:50Z</time>
      </trkpt>
      <trkpt lat="43.062970" lon="-6.097620">
        <ele>1619.073</ele>
        <time>2020-05-22T05:35:10Z</time>
      </trkpt>
      <trkpt lat="43.062940" lon="-6.097620">
        <ele>1618.489</ele>
        <time>2020-05-22T05:35:30Z</time>
      </trkpt>
      <trkpt lat="43.062920" lon="-6.097610">
        <ele>1618.398</ele>
        <time>2020-05-22T05:35:50Z</time>
      </trkpt>
      <trkpt lat="43.062900" lon="-6.097600">
        <ele>1618.239</ele>
        <time>2020-05-22T05:36:10Z</time>
      </trkpt>
      <trkpt lat="43.062880" lon="-6.097590">
        <ele>1618.038</ele>
        <time>2020-05-22T05:36:30Z</time>
      </trkpt>
      <trkpt lat="43.062860" lon="-6.097570">
        <ele>1618.121</ele>
        <time>2020-05-22T05:36:50Z</time>
      </trkpt>
      <trkpt lat="43.062840" lon="-6.097540">
        <ele>1618.469</ele>
        <time>2020-05-22T05:37:10Z</time>
      </trkpt>
      <trkpt lat="43.062830" lon="-6.097510">
        <ele>1618.904</ele>
        <time>2020-05-22T05:37:30Z</time>
      </trkpt>
      <trkpt lat="43.062810" lon="-6.097460">
        <ele>1619.524</ele>
        <time>2020-05-22T05:37:50Z</time>
      </trkpt>
      <trkpt lat="43.062780" lon="-6.097380">
        <ele>1620.208</ele>
        <time>2020-05-22T05:38:10Z</time>
      </trkpt>
      <trkpt lat="43.062750" lon="-6.097250">
        <ele>1621.930</ele>
        <time>2020-05-22T05:38:30Z</time>
      </trkpt>
      <trkpt lat="43.062720" lon="-6.097100">
        <ele>1625.765</ele>
        <time>2020-05-22T05:38:50Z</time>
      </trkpt>
      <trkpt lat="43.062700" lon="-6.097010">
        <ele>1628.282</ele>
        <time>2020-05-22T05:39:10Z</time>
      </trkpt>
      <trkpt lat="43.062680" lon="-6.096960">
        <ele>1629.438</ele>
        <time>2020-05-22T05:39:30Z</time>
      </trkpt>
      <trkpt lat="43.062670" lon="-6.096910">
        <ele>1630.717</ele>
        <time>2020-05-22T05:39:50Z</time>
      </trkpt>
      <trkpt lat="43.062640" lon="-6.096860">
        <ele>1631.628</ele>
        <time>2020-05-22T05:40:10Z</time>
      </trkpt>
      <trkpt lat="43.062610" lon="-6.096800">
        <ele>1632.747</ele>
        <time>2020-05-22T05:40:30Z</time>
      </trkpt>
      <trkpt lat="43.062430" lon="-6.096580">
        <ele>1637.880</ele>
        <time>2020-05-22T05:40:50Z</time>
      </trkpt>
      <trkpt lat="43.062380" lon="-6.096520">
        <ele>1640.216</ele>
        <time>2020-05-22T05:41:10Z</time>
      </trkpt>
      <trkpt lat="43.062350" lon="-6.096490">
        <ele>1641.276</ele>
        <time>2020-05-22T05:41:30Z</time>
      </trkpt>
      <trkpt lat="43.062320" lon="-6.096470">
        <ele>1641.813</ele>
        <time>2020-05-22T05:41:50Z</time>
      </trkpt>
      <trkpt lat="43.062290" lon="-6.096460">
        <ele>1641.808</ele>
        <time>2020-05-22T05:42:10Z</time>
      </trkpt>
      <trkpt lat="43.062260" lon="-6.096460">
        <ele>1641.375</ele>
        <time>2020-05-22T05:42:30Z</time>
      </trkpt>
      <trkpt lat="43.062230" lon="-6.096460">
        <ele>1640.880</ele>
        <time>2020-05-22T05:42:50Z</time>
      </trkpt>
      <trkpt lat="43.062190" lon="-6.096470">
        <ele>1640.527</ele>
        <time>2020-05-22T05:43:10Z</time>
      </trkpt>
      <trkpt lat="43.062160" lon="-6.096480">
        <ele>1640.383</ele>
        <time>2020-05-22T05:43:30Z</time>
      </trkpt>
      <trkpt lat="43.062140" lon="-6.096490">
        <ele>1640.012</ele>
        <time>2020-05-22T05:43:50Z</time>
      </trkpt>
      <trkpt lat="43.062090" lon="-6.096510">
        <ele>1639.593</ele>
        <time>2020-05-22T05:44:10Z</time>
      </trkpt>
      <trkpt lat="43.062050" lon="-6.096520">
        <ele>1639.422</ele>
        <time>2020-05-22T05:44:30Z</time>
      </trkpt>
      <trkpt lat="43.062010" lon="-6.096520">
        <ele>1639.895</ele>
        <time>2020-05-22T05:44:50Z</time>
      </trkpt>
      <trkpt lat="43.061950" lon="-6.096520">
        <ele>1640.392</ele>
        <time>2020-05-22T05:45:10Z</time>
      </trkpt>
      <trkpt lat="43.061860" lon="-6.096520">
        <ele>1640.073</ele>
        <time>2020-05-22T05:45:30Z</time>
      </trkpt>
      <trkpt lat="43.061810" lon="-6.096510">
        <ele>1640.320</ele>
        <time>2020-05-22T05:45:50Z</time>
      </trkpt>
      <trkpt lat="43.061780" lon="-6.096510">
        <ele>1640.208</ele>
        <time>2020-05-22T05:46:10Z</time>
      </trkpt>
      <trkpt lat="43.061640" lon="-6.096490">
        <ele>1640.283</ele>
        <time>2020-05-22T05:46:30Z</time>
      </trkpt>
      <trkpt lat="43.061630" lon="-6.096490">
        <ele>1640.028</ele>
        <time>2020-05-22T05:46:50Z</time>
      </trkpt>
      <trkpt lat="43.061450" lon="-6.096460">
        <ele>1638.035</ele>
        <time>2020-05-22T05:47:10Z</time>
      </trkpt>
      <trkpt lat="43.061300" lon="-6.096440">
        <ele>1638.441</ele>
        <time>2020-05-22T05:47:30Z</time>
      </trkpt>
      <trkpt lat="43.061090" lon="-6.096380">
        <ele>1642.380</ele>
        <time>2020-05-22T05:47:50Z</time>
      </trkpt>
      <trkpt lat="43.061070" lon="-6.096370">
        <ele>1642.671</ele>
        <time>2020-05-22T05:48:10Z</time>
      </trkpt>
      <trkpt lat="43.060880" lon="-6.096310">
        <ele>1644.860</ele>
        <time>2020-05-22T05:48:30Z</time>
      </trkpt>
      <trkpt lat="43.060790" lon="-6.096280">
        <ele>1646.053</ele>
        <time>2020-05-22T05:48:50Z</time>
      </trkpt>
      <trkpt lat="43.060740" lon="-6.096260">
        <ele>1646.825</ele>
        <time>2020-05-22T05:49:10Z</time>
      </trkpt>
      <trkpt lat="43.060710" lon="-6.096240">
        <ele>1647.626</ele>
        <time>2020-05-22T05:49:30Z</time>
      </trkpt>
      <trkpt lat="43.060670" lon="-6.096210">
        <ele>1648.608</ele>
        <time>2020-05-22T05:49:50Z</time>
      </trkpt>
      <trkpt lat="43.060620" lon="-6.096160">
        <ele>1650.408</ele>
        <time>2020-05-22T05:50:10Z</time>
      </trkpt>
      <trkpt lat="43.060540" lon="-6.096040">
        <ele>1654.386</ele>
        <time>2020-05-22T05:50:30Z</time>
      </trkpt>
      <trkpt lat="43.060470" lon="-6.095970">
        <ele>1656.661</ele>
        <time>2020-05-22T05:50:50Z</time>
      </trkpt>
      <trkpt lat="43.060410" lon="-6.095920">
        <ele>1658.288</ele>
        <time>2020-05-22T05:51:10Z</time>
      </trkpt>
      <trkpt lat="43.060370" lon="-6.095890">
        <ele>1659.274</ele>
        <time>2020-05-22T05:51:30Z</time>
      </trkpt>
      <trkpt lat="43.060280" lon="-6.095850">
        <ele>1660.523</ele>
        <time>2020-05-22T05:51:50Z</time>
      </trkpt>
      <trkpt lat="43.060250" lon="-6.095840">
        <ele>1660.414</ele>
        <time>2020-05-22T05:52:10Z</time>
      </trkpt>
      <trkpt lat="43.060210" lon="-6.095840">
        <ele>1659.873</ele>
        <time>2020-05-22T05:52:30Z</time>
      </trkpt>
      <trkpt lat="43.060180" lon="-6.095840">
        <ele>1659.496</ele>
        <time>2020-05-22T05:52:50Z</time>
      </trkpt>
      <trkpt lat="43.060080" lon="-6.095870">
        <ele>1657.111</ele>
        <time>2020-05-22T05:53:10Z</time>
      </trkpt>
      <trkpt lat="43.059960" lon="-6.095900">
        <ele>1654.421</ele>
        <time>2020-05-22T05:53:30Z</time>
      </trkpt>
      <trkpt lat="43.059940" lon="-6.095900">
        <ele>1654.103</ele>
        <time>2020-05-22T05:53:50Z</time>
      </trkpt>
      <trkpt lat="43.059910" lon="-6.095910">
        <ele>1653.308</ele>
        <time>2020-05-22T05:54:10Z</time>
      </trkpt>
      <trkpt lat="43.059870" lon="-6.095920">
        <ele>1652.365</ele>
        <time>2020-05-22T05:54:30Z</time>
      </trkpt>
      <trkpt lat="43.059840" lon="-6.095920">
        <ele>1651.880</ele>
        <time>2020-05-22T05:54:50Z</time>
      </trkpt>
      <trkpt lat="43.059810" lon="-6.095920">
        <ele>1651.327</ele>
        <time>2020-05-22T05:55:10Z</time>
      </trkpt>
      <trkpt lat="43.059790" lon="-6.095910">
        <ele>1651.213</ele>
        <time>2020-05-22T05:55:30Z</time>
      </trkpt>
      <trkpt lat="43.059770" lon="-6.095900">
        <ele>1651.122</ele>
        <time>2020-05-22T05:55:50Z</time>
      </trkpt>
      <trkpt lat="43.059750" lon="-6.095890">
        <ele>1651.153</ele>
        <time>2020-05-22T05:56:10Z</time>
      </trkpt>
      <trkpt lat="43.059720" lon="-6.095860">
        <ele>1651.332</ele>
        <time>2020-05-22T05:56:30Z</time>
      </trkpt>
      <trkpt lat="43.059660" lon="-6.095800">
        <ele>1651.545</ele>
        <time>2020-05-22T05:56:50Z</time>
      </trkpt>
      <trkpt lat="43.059590" lon="-6.095720">
        <ele>1652.365</ele>
        <time>2020-05-22T05:57:10Z</time>
      </trkpt>
      <trkpt lat="43.059550" lon="-6.095670">
        <ele>1653.068</ele>
        <time>2020-05-22T05:57:30Z</time>
      </trkpt>
      <trkpt lat="43.059520" lon="-6.095620">
        <ele>1653.814</ele>
        <time>2020-05-22T05:57:50Z</time>
      </trkpt>
      <trkpt lat="43.059500" lon="-6.095580">
        <ele>1654.608</ele>
        <time>2020-05-22T05:58:10Z</time>
      </trkpt>
      <trkpt lat="43.059450" lon="-6.095460">
        <ele>1657.220</ele>
        <time>2020-05-22T05:58:30Z</time>
      </trkpt>
      <trkpt lat="43.059340" lon="-6.095200">
        <ele>1662.145</ele>
        <time>2020-05-22T05:58:50Z</time>
      </trkpt>
      <trkpt lat="43.059270" lon="-6.095040">
        <ele>1663.522</ele>
        <time>2020-05-22T05:59:10Z</time>
      </trkpt>
      <trkpt lat="43.059240" lon="-6.094970">
        <ele>1663.958</ele>
        <time>2020-05-22T05:59:30Z</time>
      </trkpt>
      <trkpt lat="43.059220" lon="-6.094920">
        <ele>1664.327</ele>
        <time>2020-05-22T05:59:50Z</time>
      </trkpt>
      <trkpt lat="43.059210" lon="-6.094860">
        <ele>1665.338</ele>
        <time>2020-05-22T06:00:10Z</time>
      </trkpt>
      <trkpt lat="43.059190" lon="-6.094810">
        <ele>1665.767</ele>
        <time>2020-05-22T06:00:30Z</time>
      </trkpt>
      <trkpt lat="43.059190" lon="-6.094720">
        <ele>1668.080</ele>
        <time>2020-05-22T06:00:50Z</time>
      </trkpt>
      <trkpt lat="43.059190" lon="-6.094670">
        <ele>1669.274</ele>
        <time>2020-05-22T06:01:10Z</time>
      </trkpt>
      <trkpt lat="43.059180" lon="-6.094630">
        <ele>1669.856</ele>
        <time>2020-05-22T06:01:30Z</time>
      </trkpt>
      <trkpt lat="43.059180" lon="-6.094580">
        <ele>1671.121</ele>
        <time>2020-05-22T06:01:50Z</time>
      </trkpt>
      <trkpt lat="43.059170" lon="-6.094540">
        <ele>1671.708</ele>
        <time>2020-05-22T06:02:10Z</time>
      </trkpt>
      <trkpt lat="43.059150" lon="-6.094500">
        <ele>1671.841</ele>
        <time>2020-05-22T06:02:30Z</time>
      </trkpt>
      <trkpt lat="43.059140" lon="-6.094470">
        <ele>1672.186</ele>
        <time>2020-05-22T06:02:50Z</time>
      </trkpt>
      <trkpt lat="43.059110" lon="-6.094400">
        <ele>1672.533</ele>
        <time>2020-05-22T06:03:10Z</time>
      </trkpt>
      <trkpt lat="43.058970" lon="-6.094160">
        <ele>1673.499</ele>
        <time>2020-05-22T06:03:30Z</time>
      </trkpt>
      <trkpt lat="43.058920" lon="-6.094070">
        <ele>1674.628</ele>
        <time>2020-05-22T06:03:50Z</time>
      </trkpt>
      <trkpt lat="43.058860" lon="-6.093960">
        <ele>1676.339</ele>
        <time>2020-05-22T06:04:10Z</time>
      </trkpt>
      <trkpt lat="43.058690" lon="-6.093640">
        <ele>1679.588</ele>
        <time>2020-05-22T06:04:30Z</time>
      </trkpt>
      <trkpt lat="43.058580" lon="-6.093380">
        <ele>1681.261</ele>
        <time>2020-05-22T06:04:50Z</time>
      </trkpt>
      <trkpt lat="43.058540" lon="-6.093270">
        <ele>1682.162</ele>
        <time>2020-05-22T06:05:10Z</time>
      </trkpt>
      <trkpt lat="43.058530" lon="-6.093250">
        <ele>1682.183</ele>
        <time>2020-05-22T06:05:30Z</time>
      </trkpt>
      <trkpt lat="43.058490" lon="-6.093140">
        <ele>1682.411</ele>
        <time>2020-05-22T06:05:50Z</time>
      </trkpt>
      <trkpt lat="43.058450" lon="-6.093010">
        <ele>1683.508</ele>
        <time>2020-05-22T06:06:10Z</time>
      </trkpt>
      <trkpt lat="43.058420" lon="-6.092890">
        <ele>1685.470</ele>
        <time>2020-05-22T06:06:30Z</time>
      </trkpt>
      <trkpt lat="43.058410" lon="-6.092810">
        <ele>1687.085</ele>
        <time>2020-05-22T06:06:50Z</time>
      </trkpt>
      <trkpt lat="43.058400" lon="-6.092790">
        <ele>1687.122</ele>
        <time>2020-05-22T06:07:10Z</time>
      </trkpt>
      <trkpt lat="43.058400" lon="-6.092730">
        <ele>1688.668</ele>
        <time>2020-05-22T06:07:30Z</time>
      </trkpt>
      <trkpt lat="43.058380" lon="-6.092660">
        <ele>1689.737</ele>
        <time>2020-05-22T06:07:50Z</time>
      </trkpt>
      <trkpt lat="43.058370" lon="-6.092600">
        <ele>1690.958</ele>
        <time>2020-05-22T06:08:10Z</time>
      </trkpt>
      <trkpt lat="43.058350" lon="-6.092550">
        <ele>1691.477</ele>
        <time>2020-05-22T06:08:30Z</time>
      </trkpt>
      <trkpt lat="43.058300" lon="-6.092380">
        <ele>1693.990</ele>
        <time>2020-05-22T06:08:50Z</time>
      </trkpt>
      <trkpt lat="43.058230" lon="-6.092090">
        <ele>1697.238</ele>
        <time>2020-05-22T06:09:10Z</time>
      </trkpt>
      <trkpt lat="43.058210" lon="-6.092020">
        <ele>1697.570</ele>
        <time>2020-05-22T06:09:30Z</time>
      </trkpt>
      <trkpt lat="43.058180" lon="-6.091870">
        <ele>1698.717</ele>
        <time>2020-05-22T06:09:50Z</time>
      </trkpt>
      <trkpt lat="43.058160" lon="-6.091790">
        <ele>1699.308</ele>
        <time>2020-05-22T06:10:10Z</time>
      </trkpt>
      <trkpt lat="43.058130" lon="-6.091720">
        <ele>1699.087</ele>
        <time>2020-05-22T06:10:30Z</time>
      </trkpt>
      <trkpt lat="43.058100" lon="-6.091670">
        <ele>1698.382</ele>
        <time>2020-05-22T06:10:50Z</time>
      </trkpt>
      <trkpt lat="43.058070" lon="-6.091630">
        <ele>1697.689</ele>
        <time>2020-05-22T06:11:10Z</time>
      </trkpt>
      <trkpt lat="43.057990" lon="-6.091550">
        <ele>1697.185</ele>
        <time>2020-05-22T06:11:30Z</time>
      </trkpt>
      <trkpt lat="43.057950" lon="-6.091490">
        <ele>1697.554</ele>
        <time>2020-05-22T06:11:50Z</time>
      </trkpt>
      <trkpt lat="43.057930" lon="-6.091480">
        <ele>1697.355</ele>
        <time>2020-05-22T06:12:10Z</time>
      </trkpt>
      <trkpt lat="43.057920" lon="-6.091460">
        <ele>1697.534</ele>
        <time>2020-05-22T06:12:30Z</time>
      </trkpt>
      <trkpt lat="43.057900" lon="-6.091420">
        <ele>1698.097</ele>
        <time>2020-05-22T06:12:50Z</time>
      </trkpt>
      <trkpt lat="43.057890" lon="-6.091390">
        <ele>1698.467</ele>
        <time>2020-05-22T06:13:10Z</time>
      </trkpt>
      <trkpt lat="43.057880" lon="-6.091340">
        <ele>1699.381</ele>
        <time>2020-05-22T06:13:30Z</time>
      </trkpt>
      <trkpt lat="43.057870" lon="-6.091270">
        <ele>1700.619</ele>
        <time>2020-05-22T06:13:50Z</time>
      </trkpt>
      <trkpt lat="43.057890" lon="-6.091120">
        <ele>1704.208</ele>
        <time>2020-05-22T06:14:10Z</time>
      </trkpt>
      <trkpt lat="43.057900" lon="-6.091030">
        <ele>1706.510</ele>
        <time>2020-05-22T06:14:30Z</time>
      </trkpt>
      <trkpt lat="43.057910" lon="-6.090940">
        <ele>1708.845</ele>
        <time>2020-05-22T06:14:50Z</time>
      </trkpt>
      <trkpt lat="43.057910" lon="-6.090920">
        <ele>1709.392</ele>
        <time>2020-05-22T06:15:10Z</time>
      </trkpt>
      <trkpt lat="43.057910" lon="-6.090890">
        <ele>1710.058</ele>
        <time>2020-05-22T06:15:30Z</time>
      </trkpt>
      <trkpt lat="43.057900" lon="-6.090850">
        <ele>1710.767</ele>
        <time>2020-05-22T06:15:50Z</time>
      </trkpt>
      <trkpt lat="43.057890" lon="-6.090820">
        <ele>1711.198</ele>
        <time>2020-05-22T06:16:10Z</time>
      </trkpt>
      <trkpt lat="43.057870" lon="-6.090790">
        <ele>1711.327</ele>
        <time>2020-05-22T06:16:30Z</time>
      </trkpt>
      <trkpt lat="43.057850" lon="-6.090760">
        <ele>1711.440</ele>
        <time>2020-05-22T06:16:50Z</time>
      </trkpt>
      <trkpt lat="43.057810" lon="-6.090720">
        <ele>1711.326</ele>
        <time>2020-05-22T06:17:10Z</time>
      </trkpt>
      <trkpt lat="43.057760" lon="-6.090670">
        <ele>1711.447</ele>
        <time>2020-05-22T06:17:30Z</time>
      </trkpt>
      <trkpt lat="43.057600" lon="-6.090490">
        <ele>1712.911</ele>
        <time>2020-05-22T06:17:50Z</time>
      </trkpt>
      <trkpt lat="43.057550" lon="-6.090460">
        <ele>1712.908</ele>
        <time>2020-05-22T06:18:10Z</time>
      </trkpt>
      <trkpt lat="43.057520" lon="-6.090450">
        <ele>1712.716</ele>
        <time>2020-05-22T06:18:30Z</time>
      </trkpt>
      <trkpt lat="43.057460" lon="-6.090430">
        <ele>1712.611</ele>
        <time>2020-05-22T06:18:50Z</time>
      </trkpt>
      <trkpt lat="43.057430" lon="-6.090430">
        <ele>1712.488</ele>
        <time>2020-05-22T06:19:10Z</time>
      </trkpt>
      <trkpt lat="43.057390" lon="-6.090440">
        <ele>1712.134</ele>
        <time>2020-05-22T06:19:30Z</time>
      </trkpt>
      <trkpt lat="43.057330" lon="-6.090350">
        <ele>1712.983</ele>
        <time>2020-05-22T06:19:50Z</time>
      </trkpt>
      <trkpt lat="43.057180" lon="-6.090160">
        <ele>1713.314</ele>
        <time>2020-05-22T06:20:10Z</time>
      </trkpt>
      <trkpt lat="43.057100" lon="-6.090050">
        <ele>1713.133</ele>
        <time>2020-05-22T06:20:30Z</time>
      </trkpt>
      <trkpt lat="43.057030" lon="-6.090000">
        <ele>1712.696</ele>
        <time>2020-05-22T06:20:50Z</time>
      </trkpt>
      <trkpt lat="43.056920" lon="-6.089780">
        <ele>1710.813</ele>
        <time>2020-05-22T06:21:10Z</time>
      </trkpt>
      <trkpt lat="43.056880" lon="-6.089700">
        <ele>1709.343</ele>
        <time>2020-05-22T06:21:30Z</time>
      </trkpt>
      <trkpt lat="43.056850" lon="-6.089630">
        <ele>1707.907</ele>
        <time>2020-05-22T06:21:50Z</time>
      </trkpt>
      <trkpt lat="43.056830" lon="-6.089590">
        <ele>1706.908</ele>
        <time>2020-05-22T06:22:10Z</time>
      </trkpt>
      <trkpt lat="43.056820" lon="-6.089560">
        <ele>1706.335</ele>
        <time>2020-05-22T06:22:30Z</time>
      </trkpt>
      <trkpt lat="43.056790" lon="-6.089490">
        <ele>1704.740</ele>
        <time>2020-05-22T06:22:50Z</time>
      </trkpt>
      <trkpt lat="43.056780" lon="-6.089430">
        <ele>1703.717</ele>
        <time>2020-05-22T06:23:10Z</time>
      </trkpt>
      <trkpt lat="43.056770" lon="-6.089360">
        <ele>1702.813</ele>
        <time>2020-05-22T06:23:30Z</time>
      </trkpt>
      <trkpt lat="43.056770" lon="-6.089350">
        <ele>1702.772</ele>
        <time>2020-05-22T06:23:50Z</time>
      </trkpt>
      <trkpt lat="43.056770" lon="-6.089170">
        <ele>1700.933</ele>
        <time>2020-05-22T06:24:10Z</time>
      </trkpt>
      <trkpt lat="43.056780" lon="-6.088940">
        <ele>1699.682</ele>
        <time>2020-05-22T06:24:30Z</time>
      </trkpt>
      <trkpt lat="43.056790" lon="-6.088870">
        <ele>1699.225</ele>
        <time>2020-05-22T06:24:50Z</time>
      </trkpt>
      <trkpt lat="43.056800" lon="-6.088830">
        <ele>1699.177</ele>
        <time>2020-05-22T06:25:10Z</time>
      </trkpt>
      <trkpt lat="43.056820" lon="-6.088740">
        <ele>1698.961</ele>
        <time>2020-05-22T06:25:30Z</time>
      </trkpt>
      <trkpt lat="43.056850" lon="-6.088670">
        <ele>1698.927</ele>
        <time>2020-05-22T06:25:50Z</time>
      </trkpt>
      <trkpt lat="43.056890" lon="-6.088580">
        <ele>1699.008</ele>
        <time>2020-05-22T06:26:10Z</time>
      </trkpt>
      <trkpt lat="43.056910" lon="-6.088510">
        <ele>1699.091</ele>
        <time>2020-05-22T06:26:30Z</time>
      </trkpt>
      <trkpt lat="43.056930" lon="-6.088450">
        <ele>1699.156</ele>
        <time>2020-05-22T06:26:50Z</time>
      </trkpt>
      <trkpt lat="43.056940" lon="-6.088420">
        <ele>1699.293</ele>
        <time>2020-05-22T06:27:10Z</time>
      </trkpt>
      <trkpt lat="43.056940" lon="-6.088400">
        <ele>1699.199</ele>
        <time>2020-05-22T06:27:30Z</time>
      </trkpt>
      <trkpt lat="43.056940" lon="-6.088370">
        <ele>1699.058</ele>
        <time>2020-05-22T06:27:50Z</time>
      </trkpt>
      <trkpt lat="43.056930" lon="-6.088310">
        <ele>1698.559</ele>
        <time>2020-05-22T06:28:10Z</time>
      </trkpt>
      <trkpt lat="43.056920" lon="-6.088260">
        <ele>1698.128</ele>
        <time>2020-05-22T06:28:30Z</time>
      </trkpt>
      <trkpt lat="43.056890" lon="-6.088200">
        <ele>1697.181</ele>
        <time>2020-05-22T06:28:50Z</time>
      </trkpt>
      <trkpt lat="43.056830" lon="-6.088100">
        <ele>1694.916</ele>
        <time>2020-05-22T06:29:10Z</time>
      </trkpt>
      <trkpt lat="43.056760" lon="-6.087990">
        <ele>1692.876</ele>
        <time>2020-05-22T06:29:30Z</time>
      </trkpt>
      <trkpt lat="43.056700" lon="-6.087910">
        <ele>1691.013</ele>
        <time>2020-05-22T06:29:50Z</time>
      </trkpt>
      <trkpt lat="43.056620" lon="-6.087810">
        <ele>1688.808</ele>
        <time>2020-05-22T06:30:10Z</time>
      </trkpt>
      <trkpt lat="43.056510" lon="-6.087670">
        <ele>1686.275</ele>
        <time>2020-05-22T06:30:30Z</time>
      </trkpt>
      <trkpt lat="43.056490" lon="-6.087640">
        <ele>1685.760</ele>
        <time>2020-05-22T06:30:50Z</time>
      </trkpt>
      <trkpt lat="43.056440" lon="-6.087570">
        <ele>1684.477</ele>
        <time>2020-05-22T06:31:10Z</time>
      </trkpt>
      <trkpt lat="43.056400" lon="-6.087500">
        <ele>1683.393</ele>
        <time>2020-05-22T06:31:30Z</time>
      </trkpt>
      <trkpt lat="43.056390" lon="-6.087480">
        <ele>1683.092</ele>
        <time>2020-05-22T06:31:50Z</time>
      </trkpt>
      <trkpt lat="43.056370" lon="-6.087420">
        <ele>1682.443</ele>
        <time>2020-05-22T06:32:10Z</time>
      </trkpt>
      <trkpt lat="43.056330" lon="-6.087340">
        <ele>1681.482</ele>
        <time>2020-05-22T06:32:30Z</time>
      </trkpt>
      <trkpt lat="43.056300" lon="-6.087280">
        <ele>1680.645</ele>
        <time>2020-05-22T06:32:50Z</time>
      </trkpt>
      <trkpt lat="43.056270" lon="-6.087240">
        <ele>1679.946</ele>
        <time>2020-05-22T06:33:10Z</time>
      </trkpt>
      <trkpt lat="43.056250" lon="-6.087200">
        <ele>1679.588</ele>
        <time>2020-05-22T06:33:30Z</time>
      </trkpt>
      <trkpt lat="43.056210" lon="-6.087170">
        <ele>1678.816</ele>
        <time>2020-05-22T06:33:50Z</time>
      </trkpt>
      <trkpt lat="43.056160" lon="-6.087140">
        <ele>1677.908</ele>
        <time>2020-05-22T06:34:10Z</time>
      </trkpt>
      <trkpt lat="43.056100" lon="-6.087100">
        <ele>1676.758</ele>
        <time>2020-05-22T06:34:30Z</time>
      </trkpt>
      <trkpt lat="43.056060" lon="-6.087060">
        <ele>1675.653</ele>
        <time>2020-05-22T06:34:50Z</time>
      </trkpt>
      <trkpt lat="43.056010" lon="-6.087000">
        <ele>1674.270</ele>
        <time>2020-05-22T06:35:10Z</time>
      </trkpt>
      <trkpt lat="43.055940" lon="-6.086900">
        <ele>1672.476</ele>
        <time>2020-05-22T06:35:30Z</time>
      </trkpt>
      <trkpt lat="43.055880" lon="-6.086810">
        <ele>1671.315</ele>
        <time>2020-05-22T06:35:50Z</time>
      </trkpt>
      <trkpt lat="43.055750" lon="-6.086660">
        <ele>1668.766</ele>
        <time>2020-05-22T06:36:10Z</time>
      </trkpt>
      <trkpt lat="43.055670" lon="-6.086570">
        <ele>1667.395</ele>
        <time>2020-05-22T06:36:30Z</time>
      </trkpt>
      <trkpt lat="43.055590" lon="-6.086490">
        <ele>1665.968</ele>
        <time>2020-05-22T06:36:50Z</time>
      </trkpt>
      <trkpt lat="43.055370" lon="-6.086290">
        <ele>1661.517</ele>
        <time>2020-05-22T06:37:10Z</time>
      </trkpt>
      <trkpt lat="43.055300" lon="-6.086230">
        <ele>1660.587</ele>
        <time>2020-05-22T06:37:30Z</time>
      </trkpt>
      <trkpt lat="43.055290" lon="-6.086220">
        <ele>1660.415</ele>
        <time>2020-05-22T06:37:50Z</time>
      </trkpt>
      <trkpt lat="43.055220" lon="-6.086140">
        <ele>1660.308</ele>
        <time>2020-05-22T06:38:10Z</time>
      </trkpt>
      <trkpt lat="43.055160" lon="-6.086060">
        <ele>1659.835</ele>
        <time>2020-05-22T06:38:30Z</time>
      </trkpt>
      <trkpt lat="43.055090" lon="-6.085970">
        <ele>1659.010</ele>
        <time>2020-05-22T06:38:50Z</time>
      </trkpt>
      <trkpt lat="43.054970" lon="-6.085790">
        <ele>1657.687</ele>
        <time>2020-05-22T06:39:10Z</time>
      </trkpt>
      <trkpt lat="43.054900" lon="-6.085700">
        <ele>1656.663</ele>
        <time>2020-05-22T06:39:30Z</time>
      </trkpt>
      <trkpt lat="43.054830" lon="-6.085630">
        <ele>1655.312</ele>
        <time>2020-05-22T06:39:50Z</time>
      </trkpt>
      <trkpt lat="43.054750" lon="-6.085570">
        <ele>1653.673</ele>
        <time>2020-05-22T06:40:10Z</time>
      </trkpt>
      <trkpt lat="43.054670" lon="-6.085520">
        <ele>1651.722</ele>
        <time>2020-05-22T06:40:30Z</time>
      </trkpt>
      <trkpt lat="43.054590" lon="-6.085460">
        <ele>1649.475</ele>
        <time>2020-05-22T06:40:50Z</time>
      </trkpt>
      <trkpt lat="43.054510" lon="-6.085400">
        <ele>1646.772</ele>
        <time>2020-05-22T06:41:10Z</time>
      </trkpt>
      <trkpt lat="43.054440" lon="-6.085330">
        <ele>1644.113</ele>
        <time>2020-05-22T06:41:30Z</time>
      </trkpt>
      <trkpt lat="43.054370" lon="-6.085250">
        <ele>1642.514</ele>
        <time>2020-05-22T06:41:50Z</time>
      </trkpt>
      <trkpt lat="43.054310" lon="-6.085180">
        <ele>1641.508</ele>
        <time>2020-05-22T06:42:10Z</time>
      </trkpt>
      <trkpt lat="43.054310" lon="-6.085170">
        <ele>1641.531</ele>
        <time>2020-05-22T06:42:30Z</time>
      </trkpt>
      <trkpt lat="43.054240" lon="-6.085080">
        <ele>1640.096</ele>
        <time>2020-05-22T06:42:50Z</time>
      </trkpt>
      <trkpt lat="43.054180" lon="-6.084990">
        <ele>1638.513</ele>
        <time>2020-05-22T06:43:10Z</time>
      </trkpt>
      <trkpt lat="43.054130" lon="-6.084890">
        <ele>1638.179</ele>
        <time>2020-05-22T06:43:30Z</time>
      </trkpt>
      <trkpt lat="43.054090" lon="-6.084770">
        <ele>1637.948</ele>
        <time>2020-05-22T06:43:50Z</time>
      </trkpt>
      <trkpt lat="43.054060" lon="-6.084660">
        <ele>1637.679</ele>
        <time>2020-05-22T06:44:10Z</time>
      </trkpt>
      <trkpt lat="43.054040" lon="-6.084540">
        <ele>1637.578</ele>
        <time>2020-05-22T06:44:30Z</time>
      </trkpt>
      <trkpt lat="43.054000" lon="-6.084320">
        <ele>1637.371</ele>
        <time>2020-05-22T06:44:50Z</time>
      </trkpt>
      <trkpt lat="43.054000" lon="-6.084300">
        <ele>1637.444</ele>
        <time>2020-05-22T06:45:10Z</time>
      </trkpt>
      <trkpt lat="43.053920" lon="-6.083950">
        <ele>1637.505</ele>
        <time>2020-05-22T06:45:30Z</time>
      </trkpt>
      <trkpt lat="43.053900" lon="-6.083840">
        <ele>1638.015</ele>
        <time>2020-05-22T06:45:50Z</time>
      </trkpt>
      <trkpt lat="43.053890" lon="-6.083830">
        <ele>1637.708</ele>
        <time>2020-05-22T06:46:10Z</time>
      </trkpt>
      <trkpt lat="43.053860" lon="-6.083720">
        <ele>1637.658</ele>
        <time>2020-05-22T06:46:30Z</time>
      </trkpt>
      <trkpt lat="43.053810" lon="-6.083610">
        <ele>1636.393</ele>
        <time>2020-05-22T06:46:50Z</time>
      </trkpt>
      <trkpt lat="43.053760" lon="-6.083520">
        <ele>1634.880</ele>
        <time>2020-05-22T06:47:10Z</time>
      </trkpt>
      <trkpt lat="43.053640" lon="-6.083320">
        <ele>1631.356</ele>
        <time>2020-05-22T06:47:30Z</time>
      </trkpt>
      <trkpt lat="43.053420" lon="-6.082930">
        <ele>1625.685</ele>
        <time>2020-05-22T06:47:50Z</time>
      </trkpt>
      <trkpt lat="43.053260" lon="-6.082660">
        <ele>1621.316</ele>
        <time>2020-05-22T06:48:10Z</time>
      </trkpt>
      <trkpt lat="43.053190" lon="-6.082540">
        <ele>1619.015</ele>
        <time>2020-05-22T06:48:30Z</time>
      </trkpt>
      <trkpt lat="43.053140" lon="-6.082440">
        <ele>1617.458</ele>
        <time>2020-05-22T06:48:50Z</time>
      </trkpt>
      <trkpt lat="43.053090" lon="-6.082340">
        <ele>1615.882</ele>
        <time>2020-05-22T06:49:10Z</time>
      </trkpt>
      <trkpt lat="43.053040" lon="-6.082230">
        <ele>1614.343</ele>
        <time>2020-05-22T06:49:30Z</time>
      </trkpt>
      <trkpt lat="43.052980" lon="-6.082140">
        <ele>1613.317</ele>
        <time>2020-05-22T06:49:50Z</time>
      </trkpt>
      <trkpt lat="43.052930" lon="-6.082080">
        <ele>1612.108</ele>
        <time>2020-05-22T06:50:10Z</time>
      </trkpt>
      <trkpt lat="43.052920" lon="-6.082060">
        <ele>1612.052</ele>
        <time>2020-05-22T06:50:30Z</time>
      </trkpt>
      <trkpt lat="43.052700" lon="-6.081840">
        <ele>1606.977</ele>
        <time>2020-05-22T06:50:50Z</time>
      </trkpt>
      <trkpt lat="43.052630" lon="-6.081750">
        <ele>1606.654</ele>
        <time>2020-05-22T06:51:10Z</time>
      </trkpt>
      <trkpt lat="43.052570" lon="-6.081660">
        <ele>1606.470</ele>
        <time>2020-05-22T06:51:30Z</time>
      </trkpt>
      <trkpt lat="43.052530" lon="-6.081580">
        <ele>1606.659</ele>
        <time>2020-05-22T06:51:50Z</time>
      </trkpt>
      <trkpt lat="43.052520" lon="-6.081560">
        <ele>1606.690</ele>
        <time>2020-05-22T06:52:10Z</time>
      </trkpt>
      <trkpt lat="43.052480" lon="-6.081450">
        <ele>1607.119</ele>
        <time>2020-05-22T06:52:30Z</time>
      </trkpt>
      <trkpt lat="43.052450" lon="-6.081330">
        <ele>1607.982</ele>
        <time>2020-05-22T06:52:50Z</time>
      </trkpt>
      <trkpt lat="43.052390" lon="-6.081100">
        <ele>1608.717</ele>
        <time>2020-05-22T06:53:10Z</time>
      </trkpt>
      <trkpt lat="43.052330" lon="-6.080870">
        <ele>1605.987</ele>
        <time>2020-05-22T06:53:30Z</time>
      </trkpt>
      <trkpt lat="43.052260" lon="-6.080640">
        <ele>1602.815</ele>
        <time>2020-05-22T06:53:50Z</time>
      </trkpt>
      <trkpt lat="43.052190" lon="-6.080470">
        <ele>1599.608</ele>
        <time>2020-05-22T06:54:10Z</time>
      </trkpt>
      <trkpt lat="43.052120" lon="-6.080270">
        <ele>1596.555</ele>
        <time>2020-05-22T06:54:30Z</time>
      </trkpt>
      <trkpt lat="43.052110" lon="-6.080230">
        <ele>1596.360</ele>
        <time>2020-05-22T06:54:50Z</time>
      </trkpt>
      <trkpt lat="43.052080" lon="-6.080070">
        <ele>1595.817</ele>
        <time>2020-05-22T06:55:10Z</time>
      </trkpt>
      <trkpt lat="43.052040" lon="-6.079960">
        <ele>1594.413</ele>
        <time>2020-05-22T06:55:30Z</time>
      </trkpt>
      <trkpt lat="43.052020" lon="-6.079840">
        <ele>1594.032</ele>
        <time>2020-05-22T06:55:50Z</time>
      </trkpt>
      <trkpt lat="43.052000" lon="-6.079760">
        <ele>1593.293</ele>
        <time>2020-05-22T06:56:10Z</time>
      </trkpt>
      <trkpt lat="43.051990" lon="-6.079720">
        <ele>1592.882</ele>
        <time>2020-05-22T06:56:30Z</time>
      </trkpt>
      <trkpt lat="43.051980" lon="-6.079620">
        <ele>1592.915</ele>
        <time>2020-05-22T06:56:50Z</time>
      </trkpt>
      <trkpt lat="43.051980" lon="-6.079520">
        <ele>1593.685</ele>
        <time>2020-05-22T06:57:10Z</time>
      </trkpt>
      <trkpt lat="43.051980" lon="-6.079480">
        <ele>1593.989</ele>
        <time>2020-05-22T06:57:30Z</time>
      </trkpt>
      <trkpt lat="43.051970" lon="-6.079340">
        <ele>1593.617</ele>
        <time>2020-05-22T06:57:50Z</time>
      </trkpt>
      <trkpt lat="43.051950" lon="-6.079150">
        <ele>1592.308</ele>
        <time>2020-05-22T06:58:10Z</time>
      </trkpt>
      <trkpt lat="43.051910" lon="-6.078940">
        <ele>1588.972</ele>
        <time>2020-05-22T06:58:30Z</time>
      </trkpt>
      <trkpt lat="43.051870" lon="-6.078730">
        <ele>1586.397</ele>
        <time>2020-05-22T06:58:50Z</time>
      </trkpt>
      <trkpt lat="43.051850" lon="-6.078610">
        <ele>1585.264</ele>
        <time>2020-05-22T06:59:10Z</time>
      </trkpt>
      <trkpt lat="43.051840" lon="-6.078490">
        <ele>1584.550</ele>
        <time>2020-05-22T06:59:30Z</time>
      </trkpt>
      <trkpt lat="43.051790" lon="-6.078170">
        <ele>1578.379</ele>
        <time>2020-05-22T06:59:50Z</time>
      </trkpt>
      <trkpt lat="43.051750" lon="-6.077830">
        <ele>1570.030</ele>
        <time>2020-05-22T07:00:10Z</time>
      </trkpt>
      <trkpt lat="43.051720" lon="-6.077610">
        <ele>1564.479</ele>
        <time>2020-05-22T07:00:30Z</time>
      </trkpt>
      <trkpt lat="43.051710" lon="-6.077170">
        <ele>1560.662</ele>
        <time>2020-05-22T07:00:50Z</time>
      </trkpt>
      <trkpt lat="43.051690" lon="-6.076870">
        <ele>1553.815</ele>
        <time>2020-05-22T07:01:10Z</time>
      </trkpt>
      <trkpt lat="43.051680" lon="-6.076590">
        <ele>1552.065</ele>
        <time>2020-05-22T07:01:30Z</time>
      </trkpt>
      <trkpt lat="43.051670" lon="-6.076360">
        <ele>1549.311</ele>
        <time>2020-05-22T07:01:50Z</time>
      </trkpt>
      <trkpt lat="43.051640" lon="-6.076200">
        <ele>1548.808</ele>
        <time>2020-05-22T07:02:10Z</time>
      </trkpt>
      <trkpt lat="43.051590" lon="-6.076060">
        <ele>1547.415</ele>
        <time>2020-05-22T07:02:30Z</time>
      </trkpt>
      <trkpt lat="43.051540" lon="-6.075970">
        <ele>1545.950</ele>
        <time>2020-05-22T07:02:50Z</time>
      </trkpt>
      <trkpt lat="43.051400" lon="-6.075720">
        <ele>1542.267</ele>
        <time>2020-05-22T07:03:10Z</time>
      </trkpt>
      <trkpt lat="43.051320" lon="-6.075560">
        <ele>1539.333</ele>
        <time>2020-05-22T07:03:30Z</time>
      </trkpt>
      <trkpt lat="43.051260" lon="-6.075480">
        <ele>1536.242</ele>
        <time>2020-05-22T07:03:50Z</time>
      </trkpt>
      <trkpt lat="43.051210" lon="-6.075410">
        <ele>1533.783</ele>
        <time>2020-05-22T07:04:10Z</time>
      </trkpt>
      <trkpt lat="43.051160" lon="-6.075370">
        <ele>1531.222</ele>
        <time>2020-05-22T07:04:30Z</time>
      </trkpt>
      <trkpt lat="43.051100" lon="-6.075320">
        <ele>1528.515</ele>
        <time>2020-05-22T07:04:50Z</time>
      </trkpt>
      <trkpt lat="43.051080" lon="-6.075290">
        <ele>1527.729</ele>
        <time>2020-05-22T07:05:10Z</time>
      </trkpt>
      <trkpt lat="43.051060" lon="-6.075270">
        <ele>1526.700</ele>
        <time>2020-05-22T07:05:30Z</time>
      </trkpt>
      <trkpt lat="43.051040" lon="-6.075250">
        <ele>1525.820</ele>
        <time>2020-05-22T07:05:50Z</time>
      </trkpt>
      <trkpt lat="43.051030" lon="-6.075220">
        <ele>1525.108</ele>
        <time>2020-05-22T07:06:10Z</time>
      </trkpt>
      <trkpt lat="43.051020" lon="-6.075200">
        <ele>1524.676</ele>
        <time>2020-05-22T07:06:30Z</time>
      </trkpt>
      <trkpt lat="43.051000" lon="-6.075160">
        <ele>1523.541</ele>
        <time>2020-05-22T07:06:50Z</time>
      </trkpt>
      <trkpt lat="43.050990" lon="-6.075120">
        <ele>1522.998</ele>
        <time>2020-05-22T07:07:10Z</time>
      </trkpt>
      <trkpt lat="43.050990" lon="-6.075060">
        <ele>1522.544</ele>
        <time>2020-05-22T07:07:30Z</time>
      </trkpt>
      <trkpt lat="43.050980" lon="-6.075000">
        <ele>1521.843</ele>
        <time>2020-05-22T07:07:50Z</time>
      </trkpt>
      <trkpt lat="43.050970" lon="-6.074880">
        <ele>1523.154</ele>
        <time>2020-05-22T07:08:10Z</time>
      </trkpt>
      <trkpt lat="43.050960" lon="-6.074760">
        <ele>1524.543</ele>
        <time>2020-05-22T07:08:30Z</time>
      </trkpt>
      <trkpt lat="43.050960" lon="-6.074720">
        <ele>1525.156</ele>
        <time>2020-05-22T07:08:50Z</time>
      </trkpt>
      <trkpt lat="43.050960" lon="-6.074630">
        <ele>1526.822</ele>
        <time>2020-05-22T07:09:10Z</time>
      </trkpt>
      <trkpt lat="43.050970" lon="-6.074390">
        <ele>1531.962</ele>
        <time>2020-05-22T07:09:30Z</time>
      </trkpt>
      <trkpt lat="43.050960" lon="-6.074270">
        <ele>1533.608</ele>
        <time>2020-05-22T07:09:50Z</time>
      </trkpt>
      <trkpt lat="43.050960" lon="-6.074140">
        <ele>1535.508</ele>
        <time>2020-05-22T07:10:10Z</time>
      </trkpt>
      <trkpt lat="43.050940" lon="-6.074020">
        <ele>1534.476</ele>
        <time>2020-05-22T07:10:30Z</time>
      </trkpt>
      <trkpt lat="43.050940" lon="-6.073990">
        <ele>1534.371</ele>
        <time>2020-05-22T07:10:50Z</time>
      </trkpt>
      <trkpt lat="43.050920" lon="-6.073900">
        <ele>1533.038</ele>
        <time>2020-05-22T07:11:10Z</time>
      </trkpt>
      <trkpt lat="43.050900" lon="-6.073790">
        <ele>1531.414</ele>
        <time>2020-05-22T07:11:30Z</time>
      </trkpt>
      <trkpt lat="43.050890" lon="-6.073750">
        <ele>1530.613</ele>
        <time>2020-05-22T07:11:50Z</time>
      </trkpt>
      <trkpt lat="43.050850" lon="-6.073510">
        <ele>1526.994</ele>
        <time>2020-05-22T07:12:10Z</time>
      </trkpt>
      <trkpt lat="43.050840" lon="-6.073430">
        <ele>1525.933</ele>
        <time>2020-05-22T07:12:30Z</time>
      </trkpt>
      <trkpt lat="43.050810" lon="-6.073310">
        <ele>1524.036</ele>
        <time>2020-05-22T07:12:50Z</time>
      </trkpt>
      <trkpt lat="43.050780" lon="-6.073200">
        <ele>1522.517</ele>
        <time>2020-05-22T07:13:10Z</time>
      </trkpt>
      <trkpt lat="43.050750" lon="-6.073090">
        <ele>1520.687</ele>
        <time>2020-05-22T07:13:30Z</time>
      </trkpt>
      <trkpt lat="43.050720" lon="-6.072970">
        <ele>1518.115</ele>
        <time>2020-05-22T07:13:50Z</time>
      </trkpt>
      <trkpt lat="43.050720" lon="-6.072850">
        <ele>1517.108</ele>
        <time>2020-05-22T07:14:10Z</time>
      </trkpt>
      <trkpt lat="43.050730" lon="-6.072730">
        <ele>1516.325</ele>
        <time>2020-05-22T07:14:30Z</time>
      </trkpt>
      <trkpt lat="43.050750" lon="-6.072610">
        <ele>1515.830</ele>
        <time>2020-05-22T07:14:50Z</time>
      </trkpt>
      <trkpt lat="43.050760" lon="-6.072560">
        <ele>1515.827</ele>
        <time>2020-05-22T07:15:10Z</time>
      </trkpt>
      <trkpt lat="43.050760" lon="-6.072490">
        <ele>1514.953</ele>
        <time>2020-05-22T07:15:30Z</time>
      </trkpt>
      <trkpt lat="43.050750" lon="-6.072380">
        <ele>1513.922</ele>
        <time>2020-05-22T07:15:50Z</time>
      </trkpt>
      <trkpt lat="43.050710" lon="-6.072270">
        <ele>1510.793</ele>
        <time>2020-05-22T07:16:10Z</time>
      </trkpt>
      <trkpt lat="43.050630" lon="-6.072130">
        <ele>1505.462</ele>
        <time>2020-05-22T07:16:30Z</time>
      </trkpt>
      <trkpt lat="43.050590" lon="-6.072070">
        <ele>1502.915</ele>
        <time>2020-05-22T07:16:50Z</time>
      </trkpt>
      <trkpt lat="43.050550" lon="-6.071970">
        <ele>1500.719</ele>
        <time>2020-05-22T07:17:10Z</time>
      </trkpt>
      <trkpt lat="43.050520" lon="-6.071920">
        <ele>1499.709</ele>
        <time>2020-05-22T07:17:30Z</time>
      </trkpt>
      <trkpt lat="43.050500" lon="-6.071870">
        <ele>1499.019</ele>
        <time>2020-05-22T07:17:50Z</time>
      </trkpt>
      <trkpt lat="43.050470" lon="-6.071790">
        <ele>1497.708</ele>
        <time>2020-05-22T07:18:10Z</time>
      </trkpt>
      <trkpt lat="43.050450" lon="-6.071730">
        <ele>1496.675</ele>
        <time>2020-05-22T07:18:30Z</time>
      </trkpt>
      <trkpt lat="43.050410" lon="-6.071680">
        <ele>1494.130</ele>
        <time>2020-05-22T07:18:50Z</time>
      </trkpt>
      <trkpt lat="43.050380" lon="-6.071640">
        <ele>1492.617</ele>
        <time>2020-05-22T07:19:10Z</time>
      </trkpt>
      <trkpt lat="43.050260" lon="-6.071510">
        <ele>1488.163</ele>
        <time>2020-05-22T07:19:30Z</time>
      </trkpt>
      <trkpt lat="43.050200" lon="-6.071420">
        <ele>1486.892</ele>
        <time>2020-05-22T07:19:50Z</time>
      </trkpt>
      <trkpt lat="43.050170" lon="-6.071370">
        <ele>1485.713</ele>
        <time>2020-05-22T07:20:10Z</time>
      </trkpt>
      <trkpt lat="43.050140" lon="-6.071330">
        <ele>1484.522</ele>
        <time>2020-05-22T07:20:30Z</time>
      </trkpt>
      <trkpt lat="43.050090" lon="-6.071230">
        <ele>1482.595</ele>
        <time>2020-05-22T07:20:50Z</time>
      </trkpt>
      <trkpt lat="43.049990" lon="-6.071030">
        <ele>1479.276</ele>
        <time>2020-05-22T07:21:10Z</time>
      </trkpt>
      <trkpt lat="43.049950" lon="-6.070980">
        <ele>1479.790</ele>
        <time>2020-05-22T07:21:30Z</time>
      </trkpt>
      <trkpt lat="43.049840" lon="-6.070780">
        <ele>1478.819</ele>
        <time>2020-05-22T07:21:50Z</time>
      </trkpt>
      <trkpt lat="43.049820" lon="-6.070740">
        <ele>1478.508</ele>
        <time>2020-05-22T07:22:10Z</time>
      </trkpt>
      <trkpt lat="43.049760" lon="-6.070650">
        <ele>1476.791</ele>
        <time>2020-05-22T07:22:30Z</time>
      </trkpt>
      <trkpt lat="43.049720" lon="-6.070600">
        <ele>1475.246</ele>
        <time>2020-05-22T07:22:50Z</time>
      </trkpt>
      <trkpt lat="43.049640" lon="-6.070480">
        <ele>1475.243</ele>
        <time>2020-05-22T07:23:10Z</time>
      </trkpt>
      <trkpt lat="43.049600" lon="-6.070420">
        <ele>1474.949</ele>
        <time>2020-05-22T07:23:30Z</time>
      </trkpt>
      <trkpt lat="43.049580" lon="-6.070390">
        <ele>1474.778</ele>
        <time>2020-05-22T07:23:50Z</time>
      </trkpt>
      <trkpt lat="43.049540" lon="-6.070330">
        <ele>1474.389</ele>
        <time>2020-05-22T07:24:10Z</time>
      </trkpt>
      <trkpt lat="43.049510" lon="-6.070260">
        <ele>1473.718</ele>
        <time>2020-05-22T07:24:30Z</time>
      </trkpt>
      <trkpt lat="43.049490" lon="-6.070200">
        <ele>1473.671</ele>
        <time>2020-05-22T07:24:50Z</time>
      </trkpt>
      <trkpt lat="43.049470" lon="-6.070140">
        <ele>1473.245</ele>
        <time>2020-05-22T07:25:10Z</time>
      </trkpt>
      <trkpt lat="43.049440" lon="-6.070100">
        <ele>1473.047</ele>
        <time>2020-05-22T07:25:30Z</time>
      </trkpt>
      <trkpt lat="43.049410" lon="-6.070050">
        <ele>1474.111</ele>
        <time>2020-05-22T07:25:50Z</time>
      </trkpt>
      <trkpt lat="43.049390" lon="-6.070020">
        <ele>1474.908</ele>
        <time>2020-05-22T07:26:10Z</time>
      </trkpt>
      <trkpt lat="43.049370" lon="-6.070000">
        <ele>1475.858</ele>
        <time>2020-05-22T07:26:30Z</time>
      </trkpt>
      <trkpt lat="43.049300" lon="-6.069920">
        <ele>1478.813</ele>
        <time>2020-05-22T07:26:50Z</time>
      </trkpt>
      <trkpt lat="43.049260" lon="-6.069860">
        <ele>1480.340</ele>
        <time>2020-05-22T07:27:10Z</time>
      </trkpt>
      <trkpt lat="43.049240" lon="-6.069830">
        <ele>1481.026</ele>
        <time>2020-05-22T07:27:30Z</time>
      </trkpt>
      <trkpt lat="43.049200" lon="-6.069720">
        <ele>1481.615</ele>
        <time>2020-05-22T07:27:50Z</time>
      </trkpt>
      <trkpt lat="43.049170" lon="-6.069610">
        <ele>1480.596</ele>
        <time>2020-05-22T07:28:10Z</time>
      </trkpt>
      <trkpt lat="43.049160" lon="-6.069490">
        <ele>1478.285</ele>
        <time>2020-05-22T07:28:30Z</time>
      </trkpt>
      <trkpt lat="43.049160" lon="-6.069400">
        <ele>1476.658</ele>
        <time>2020-05-22T07:28:50Z</time>
      </trkpt>
      <trkpt lat="43.049160" lon="-6.069370">
        <ele>1476.294</ele>
        <time>2020-05-22T07:29:10Z</time>
      </trkpt>
      <trkpt lat="43.049180" lon="-6.069240">
        <ele>1473.857</ele>
        <time>2020-05-22T07:29:30Z</time>
      </trkpt>
      <trkpt lat="43.049190" lon="-6.069160">
        <ele>1472.622</ele>
        <time>2020-05-22T07:29:50Z</time>
      </trkpt>
      <trkpt lat="43.049220" lon="-6.069000">
        <ele>1472.208</ele>
        <time>2020-05-22T07:30:10Z</time>
      </trkpt>
      <trkpt lat="43.049240" lon="-6.068880">
        <ele>1471.983</ele>
        <time>2020-05-22T07:30:30Z</time>
      </trkpt>
      <trkpt lat="43.049240" lon="-6.068760">
        <ele>1471.488</ele>
        <time>2020-05-22T07:30:50Z</time>
      </trkpt>
      <trkpt lat="43.049250" lon="-6.068640">
        <ele>1470.675</ele>
        <time>2020-05-22T07:31:10Z</time>
      </trkpt>
      <trkpt lat="43.049250" lon="-6.068150">
        <ele>1470.191</ele>
        <time>2020-05-22T07:31:30Z</time>
      </trkpt>
      <trkpt lat="43.049240" lon="-6.068030">
        <ele>1469.820</ele>
        <time>2020-05-22T07:31:50Z</time>
      </trkpt>
      <trkpt lat="43.049240" lon="-6.067970">
        <ele>1469.151</ele>
        <time>2020-05-22T07:32:10Z</time>
      </trkpt>
      <trkpt lat="43.049240" lon="-6.067870">
        <ele>1467.890</ele>
        <time>2020-05-22T07:32:30Z</time>
      </trkpt>
      <trkpt lat="43.049230" lon="-6.067760">
        <ele>1466.533</ele>
        <time>2020-05-22T07:32:50Z</time>
      </trkpt>
      <trkpt lat="43.049220" lon="-6.067700">
        <ele>1465.687</ele>
        <time>2020-05-22T07:33:10Z</time>
      </trkpt>
      <trkpt lat="43.049210" lon="-6.067650">
        <ele>1464.842</ele>
        <time>2020-05-22T07:33:30Z</time>
      </trkpt>
      <trkpt lat="43.049200" lon="-6.067620">
        <ele>1464.526</ele>
        <time>2020-05-22T07:33:50Z</time>
      </trkpt>
      <trkpt lat="43.049190" lon="-6.067600">
        <ele>1464.308</ele>
        <time>2020-05-22T07:34:10Z</time>
      </trkpt>
      <trkpt lat="43.049180" lon="-6.067570">
        <ele>1464.032</ele>
        <time>2020-05-22T07:34:30Z</time>
      </trkpt>
      <trkpt lat="43.049160" lon="-6.067550">
        <ele>1463.927</ele>
        <time>2020-05-22T07:34:50Z</time>
      </trkpt>
      <trkpt lat="43.049150" lon="-6.067540">
        <ele>1463.724</ele>
        <time>2020-05-22T07:35:10Z</time>
      </trkpt>
      <trkpt lat="43.049140" lon="-6.067530">
        <ele>1463.650</ele>
        <time>2020-05-22T07:35:30Z</time>
      </trkpt>
      <trkpt lat="43.049130" lon="-6.067520">
        <ele>1463.459</ele>
        <time>2020-05-22T07:35:50Z</time>
      </trkpt>
      <trkpt lat="43.049110" lon="-6.067520">
        <ele>1463.460</ele>
        <time>2020-05-22T07:36:10Z</time>
      </trkpt>
      <trkpt lat="43.049100" lon="-6.067520">
        <ele>1463.469</ele>
        <time>2020-05-22T07:36:30Z</time>
      </trkpt>
      <trkpt lat="43.049080" lon="-6.067520">
        <ele>1463.462</ele>
        <time>2020-05-22T07:36:50Z</time>
      </trkpt>
      <trkpt lat="43.049050" lon="-6.067520">
        <ele>1463.595</ele>
        <time>2020-05-22T07:37:10Z</time>
      </trkpt>
      <trkpt lat="43.048880" lon="-6.067560">
        <ele>1464.849</ele>
        <time>2020-05-22T07:37:30Z</time>
      </trkpt>
      <trkpt lat="43.048840" lon="-6.067560">
        <ele>1464.923</ele>
        <time>2020-05-22T07:37:50Z</time>
      </trkpt>
      <trkpt lat="43.048810" lon="-6.067560">
        <ele>1465.008</ele>
        <time>2020-05-22T07:38:10Z</time>
      </trkpt>
      <trkpt lat="43.048770" lon="-6.067550">
        <ele>1464.913</ele>
        <time>2020-05-22T07:38:30Z</time>
      </trkpt>
      <trkpt lat="43.048730" lon="-6.067540">
        <ele>1464.738</ele>
        <time>2020-05-22T07:38:50Z</time>
      </trkpt>
      <trkpt lat="43.048670" lon="-6.067510">
        <ele>1464.135</ele>
        <time>2020-05-22T07:39:10Z</time>
      </trkpt>
      <trkpt lat="43.048630" lon="-6.067490">
        <ele>1463.861</ele>
        <time>2020-05-22T07:39:30Z</time>
      </trkpt>
      <trkpt lat="43.048610" lon="-6.067480">
        <ele>1463.630</ele>
        <time>2020-05-22T07:39:50Z</time>
      </trkpt>
      <trkpt lat="43.048570" lon="-6.067450">
        <ele>1463.291</ele>
        <time>2020-05-22T07:40:10Z</time>
      </trkpt>
      <trkpt lat="43.048490" lon="-6.067400">
        <ele>1462.620</ele>
        <time>2020-05-22T07:40:30Z</time>
      </trkpt>
      <trkpt lat="43.048420" lon="-6.067350">
        <ele>1462.083</ele>
        <time>2020-05-22T07:40:50Z</time>
      </trkpt>
      <trkpt lat="43.048380" lon="-6.067310">
        <ele>1461.435</ele>
        <time>2020-05-22T07:41:10Z</time>
      </trkpt>
      <trkpt lat="43.048370" lon="-6.067300">
        <ele>1461.386</ele>
        <time>2020-05-22T07:41:30Z</time>
      </trkpt>
      <trkpt lat="43.048360" lon="-6.067280">
        <ele>1460.914</ele>
        <time>2020-05-22T07:41:50Z</time>
      </trkpt>
      <trkpt lat="43.048350" lon="-6.067260">
        <ele>1460.608</ele>
        <time>2020-05-22T07:42:10Z</time>
      </trkpt>
      <trkpt lat="43.048340" lon="-6.067230">
        <ele>1460.177</ele>
        <time>2020-05-22T07:42:30Z</time>
      </trkpt>
      <trkpt lat="43.048330" lon="-6.067210">
        <ele>1460.062</ele>
        <time>2020-05-22T07:42:50Z</time>
      </trkpt>
      <trkpt lat="43.048330" lon="-6.067190">
        <ele>1460.059</ele>
        <time>2020-05-22T07:43:10Z</time>
      </trkpt>
      <trkpt lat="43.048330" lon="-6.067160">
        <ele>1459.845</ele>
        <time>2020-05-22T07:43:30Z</time>
      </trkpt>
      <trkpt lat="43.048330" lon="-6.067130">
        <ele>1459.734</ele>
        <time>2020-05-22T07:43:50Z</time>
      </trkpt>
      <trkpt lat="43.048330" lon="-6.067100">
        <ele>1459.635</ele>
        <time>2020-05-22T07:44:10Z</time>
      </trkpt>
      <trkpt lat="43.048330" lon="-6.067070">
        <ele>1459.574</ele>
        <time>2020-05-22T07:44:30Z</time>
      </trkpt>
      <trkpt lat="43.048340" lon="-6.067030">
        <ele>1459.257</ele>
        <time>2020-05-22T07:44:50Z</time>
      </trkpt>
      <trkpt lat="43.048390" lon="-6.066850">
        <ele>1457.099</ele>
        <time>2020-05-22T07:45:10Z</time>
      </trkpt>
      <trkpt lat="43.048400" lon="-6.066810">
        <ele>1456.407</ele>
        <time>2020-05-22T07:45:30Z</time>
      </trkpt>
      <trkpt lat="43.048410" lon="-6.066770">
        <ele>1455.727</ele>
        <time>2020-05-22T07:45:50Z</time>
      </trkpt>
      <trkpt lat="43.048410" lon="-6.066740">
        <ele>1455.308</ele>
        <time>2020-05-22T07:46:10Z</time>
      </trkpt>
      <trkpt lat="43.048410" lon="-6.066700">
        <ele>1454.823</ele>
        <time>2020-05-22T07:46:30Z</time>
      </trkpt>
      <trkpt lat="43.048420" lon="-6.066670">
        <ele>1454.278</ele>
        <time>2020-05-22T07:46:50Z</time>
      </trkpt>
      <trkpt lat="43.048420" lon="-6.066570">
        <ele>1454.335</ele>
        <time>2020-05-22T07:47:10Z</time>
      </trkpt>
      <trkpt lat="43.048410" lon="-6.066490">
        <ele>1454.651</ele>
        <time>2020-05-22T07:47:30Z</time>
      </trkpt>
      <trkpt lat="43.048410" lon="-6.066420">
        <ele>1454.750</ele>
        <time>2020-05-22T07:47:50Z</time>
      </trkpt>
      <trkpt lat="43.048400" lon="-6.066310">
        <ele>1455.031</ele>
        <time>2020-05-22T07:48:10Z</time>
      </trkpt>
      <trkpt lat="43.048390" lon="-6.066210">
        <ele>1455.290</ele>
        <time>2020-05-22T07:48:30Z</time>
      </trkpt>
      <trkpt lat="43.048380" lon="-6.066130">
        <ele>1455.523</ele>
        <time>2020-05-22T07:48:50Z</time>
      </trkpt>
      <trkpt lat="43.048380" lon="-6.065980">
        <ele>1453.796</ele>
        <time>2020-05-22T07:49:10Z</time>
      </trkpt>
      <trkpt lat="43.048370" lon="-6.065740">
        <ele>1451.031</ele>
        <time>2020-05-22T07:49:30Z</time>
      </trkpt>
      <trkpt lat="43.048370" lon="-6.065630">
        <ele>1449.824</ele>
        <time>2020-05-22T07:49:50Z</time>
      </trkpt>
      <trkpt lat="43.048360" lon="-6.065560">
        <ele>1449.408</ele>
        <time>2020-05-22T07:50:10Z</time>
      </trkpt>
      <trkpt lat="43.048360" lon="-6.065500">
        <ele>1448.443</ele>
        <time>2020-05-22T07:50:30Z</time>
      </trkpt>
      <trkpt lat="43.048360" lon="-6.065490">
        <ele>1448.358</ele>
        <time>2020-05-22T07:50:50Z</time>
      </trkpt>
      <trkpt lat="43.048350" lon="-6.065440">
        <ele>1447.635</ele>
        <time>2020-05-22T07:51:10Z</time>
      </trkpt>
      <trkpt lat="43.048320" lon="-6.065250">
        <ele>1445.121</ele>
        <time>2020-05-22T07:51:30Z</time>
      </trkpt>
      <trkpt lat="43.048300" lon="-6.065160">
        <ele>1444.580</ele>
        <time>2020-05-22T07:51:50Z</time>
      </trkpt>
      <trkpt lat="43.048210" lon="-6.064560">
        <ele>1442.491</ele>
        <time>2020-05-22T07:52:10Z</time>
      </trkpt>
      <trkpt lat="43.048140" lon="-6.064090">
        <ele>1444.090</ele>
        <time>2020-05-22T07:52:30Z</time>
      </trkpt>
      <trkpt lat="43.048130" lon="-6.064050">
        <ele>1443.983</ele>
        <time>2020-05-22T07:52:50Z</time>
      </trkpt>
      <trkpt lat="43.048120" lon="-6.063950">
        <ele>1443.149</ele>
        <time>2020-05-22T07:53:10Z</time>
      </trkpt>
      <trkpt lat="43.048110" lon="-6.063910">
        <ele>1443.102</ele>
        <time>2020-05-22T07:53:30Z</time>
      </trkpt>
      <trkpt lat="43.048100" lon="-6.063840">
        <ele>1442.522</ele>
        <time>2020-05-22T07:53:50Z</time>
      </trkpt>
      <trkpt lat="43.048090" lon="-6.063810">
        <ele>1442.508</ele>
        <time>2020-05-22T07:54:10Z</time>
      </trkpt>
      <trkpt lat="43.048080" lon="-6.063750">
        <ele>1441.858</ele>
        <time>2020-05-22T07:54:30Z</time>
      </trkpt>
      <trkpt lat="43.048070" lon="-6.063700">
        <ele>1441.383</ele>
        <time>2020-05-22T07:54:50Z</time>
      </trkpt>
      <trkpt lat="43.048060" lon="-6.063660">
        <ele>1440.930</ele>
        <time>2020-05-22T07:55:10Z</time>
      </trkpt>
      <trkpt lat="43.048060" lon="-6.063620">
        <ele>1440.066</ele>
        <time>2020-05-22T07:55:30Z</time>
      </trkpt>
      <trkpt lat="43.048060" lon="-6.063590">
        <ele>1439.735</ele>
        <time>2020-05-22T07:55:50Z</time>
      </trkpt>
      <trkpt lat="43.048060" lon="-6.063530">
        <ele>1439.226</ele>
        <time>2020-05-22T07:56:10Z</time>
      </trkpt>
      <trkpt lat="43.048070" lon="-6.063460">
        <ele>1438.365</ele>
        <time>2020-05-22T07:56:30Z</time>
      </trkpt>
      <trkpt lat="43.048080" lon="-6.063370">
        <ele>1437.398</ele>
        <time>2020-05-22T07:56:50Z</time>
      </trkpt>
      <trkpt lat="43.048090" lon="-6.063330">
        <ele>1436.648</ele>
        <time>2020-05-22T07:57:10Z</time>
      </trkpt>
      <trkpt lat="43.048090" lon="-6.063260">
        <ele>1435.761</ele>
        <time>2020-05-22T07:57:30Z</time>
      </trkpt>
      <trkpt lat="43.048090" lon="-6.063190">
        <ele>1434.817</ele>
        <time>2020-05-22T07:57:50Z</time>
      </trkpt>
      <trkpt lat="43.048100" lon="-6.063080">
        <ele>1433.208</ele>
        <time>2020-05-22T07:58:10Z</time>
      </trkpt>
      <trkpt lat="43.048100" lon="-6.063010">
        <ele>1432.958</ele>
        <time>2020-05-22T07:58:30Z</time>
      </trkpt>
      <trkpt lat="43.048100" lon="-6.062960">
        <ele>1433.023</ele>
        <time>2020-05-22T07:58:50Z</time>
      </trkpt>
      <trkpt lat="43.048110" lon="-6.062890">
        <ele>1432.810</ele>
        <time>2020-05-22T07:59:10Z</time>
      </trkpt>
      <trkpt lat="43.048120" lon="-6.062840">
        <ele>1432.486</ele>
        <time>2020-05-22T07:59:30Z</time>
      </trkpt>
      <trkpt lat="43.048130" lon="-6.062760">
        <ele>1432.115</ele>
        <time>2020-05-22T07:59:50Z</time>
      </trkpt>
      <trkpt lat="43.048150" lon="-6.062630">
        <ele>1431.326</ele>
        <time>2020-05-22T08:00:10Z</time>
      </trkpt>
      <trkpt lat="43.048150" lon="-6.062590">
        <ele>1431.325</ele>
        <time>2020-05-22T08:00:30Z</time>
      </trkpt>
      <trkpt lat="43.048150" lon="-6.062550">
        <ele>1431.348</ele>
        <time>2020-05-22T08:00:50Z</time>
      </trkpt>
      <trkpt lat="43.048150" lon="-6.062500">
        <ele>1431.359</ele>
        <time>2020-05-22T08:01:10Z</time>
      </trkpt>
      <trkpt lat="43.048150" lon="-6.062450">
        <ele>1431.503</ele>
        <time>2020-05-22T08:01:30Z</time>
      </trkpt>
      <trkpt lat="43.048140" lon="-6.062350">
        <ele>1432.523</ele>
        <time>2020-05-22T08:01:50Z</time>
      </trkpt>
      <trkpt lat="43.048140" lon="-6.062330">
        <ele>1432.608</ele>
        <time>2020-05-22T08:02:10Z</time>
      </trkpt>
      <trkpt lat="43.048130" lon="-6.062210">
        <ele>1433.739</ele>
        <time>2020-05-22T08:02:30Z</time>
      </trkpt>
      <trkpt lat="43.048120" lon="-6.062090">
        <ele>1433.954</ele>
        <time>2020-05-22T08:02:50Z</time>
      </trkpt>
      <trkpt lat="43.048120" lon="-6.061960">
        <ele>1433.641</ele>
        <time>2020-05-22T08:03:10Z</time>
      </trkpt>
      <trkpt lat="43.048110" lon="-6.061890">
        <ele>1433.427</ele>
        <time>2020-05-22T08:03:30Z</time>
      </trkpt>
      <trkpt lat="43.048110" lon="-6.061860">
        <ele>1433.016</ele>
        <time>2020-05-22T08:03:50Z</time>
      </trkpt>
      <trkpt lat="43.048100" lon="-6.061840">
        <ele>1433.317</ele>
        <time>2020-05-22T08:04:10Z</time>
      </trkpt>
      <trkpt lat="43.048090" lon="-6.061750">
        <ele>1432.626</ele>
        <time>2020-05-22T08:04:30Z</time>
      </trkpt>
      <trkpt lat="43.048050" lon="-6.061550">
        <ele>1431.969</ele>
        <time>2020-05-22T08:04:50Z</time>
      </trkpt>
      <trkpt lat="43.048020" lon="-6.061470">
        <ele>1432.021</ele>
        <time>2020-05-22T08:05:10Z</time>
      </trkpt>
      <trkpt lat="43.048000" lon="-6.061410">
        <ele>1431.941</ele>
        <time>2020-05-22T08:05:30Z</time>
      </trkpt>
      <trkpt lat="43.047990" lon="-6.061370">
        <ele>1431.505</ele>
        <time>2020-05-22T08:05:50Z</time>
      </trkpt>
      <trkpt lat="43.047970" lon="-6.061320">
        <ele>1431.108</ele>
        <time>2020-05-22T08:06:10Z</time>
      </trkpt>
      <trkpt lat="43.047950" lon="-6.061270">
        <ele>1430.626</ele>
        <time>2020-05-22T08:06:30Z</time>
      </trkpt>
      <trkpt lat="43.047910" lon="-6.061220">
        <ele>1430.571</ele>
        <time>2020-05-22T08:06:50Z</time>
      </trkpt>
      <trkpt lat="43.047870" lon="-6.061170">
        <ele>1430.488</ele>
        <time>2020-05-22T08:07:10Z</time>
      </trkpt>
      <trkpt lat="43.047830" lon="-6.061110">
        <ele>1429.824</ele>
        <time>2020-05-22T08:07:30Z</time>
      </trkpt>
      <trkpt lat="43.047760" lon="-6.061050">
        <ele>1430.283</ele>
        <time>2020-05-22T08:07:50Z</time>
      </trkpt>
      <trkpt lat="43.047670" lon="-6.060970">
        <ele>1431.274</ele>
        <time>2020-05-22T08:08:10Z</time>
      </trkpt>
      <trkpt lat="43.047620" lon="-6.060930">
        <ele>1431.813</ele>
        <time>2020-05-22T08:08:30Z</time>
      </trkpt>
      <trkpt lat="43.047610" lon="-6.060910">
        <ele>1431.726</ele>
        <time>2020-05-22T08:08:50Z</time>
      </trkpt>
      <trkpt lat="43.047600" lon="-6.060910">
        <ele>1432.092</ele>
        <time>2020-05-22T08:09:10Z</time>
      </trkpt>
      <trkpt lat="43.047590" lon="-6.060900">
        <ele>1432.073</ele>
        <time>2020-05-22T08:09:30Z</time>
      </trkpt>
      <trkpt lat="43.047580" lon="-6.060870">
        <ele>1431.620</ele>
        <time>2020-05-22T08:09:50Z</time>
      </trkpt>
      <trkpt lat="43.047570" lon="-6.060850">
        <ele>1431.408</ele>
        <time>2020-05-22T08:10:10Z</time>
      </trkpt>
      <trkpt lat="43.047560" lon="-6.060820">
        <ele>1431.153</ele>
        <time>2020-05-22T08:10:30Z</time>
      </trkpt>
      <trkpt lat="43.047540" lon="-6.060740">
        <ele>1430.488</ele>
        <time>2020-05-22T08:10:50Z</time>
      </trkpt>
      <trkpt lat="43.047520" lon="-6.060600">
        <ele>1428.935</ele>
        <time>2020-05-22T08:11:10Z</time>
      </trkpt>
      <trkpt lat="43.047500" lon="-6.060510">
        <ele>1428.251</ele>
        <time>2020-05-22T08:11:30Z</time>
      </trkpt>
      <trkpt lat="43.047490" lon="-6.060440">
        <ele>1427.470</ele>
        <time>2020-05-22T08:11:50Z</time>
      </trkpt>
      <trkpt lat="43.047480" lon="-6.060280">
        <ele>1425.071</ele>
        <time>2020-05-22T08:12:10Z</time>
      </trkpt>
      <trkpt lat="43.047480" lon="-6.060210">
        <ele>1423.370</ele>
        <time>2020-05-22T08:12:30Z</time>
      </trkpt>
      <trkpt lat="43.047470" lon="-6.060150">
        <ele>1422.343</ele>
        <time>2020-05-22T08:12:50Z</time>
      </trkpt>
      <trkpt lat="43.047460" lon="-6.060100">
        <ele>1421.666</ele>
        <time>2020-05-22T08:13:10Z</time>
      </trkpt>
      <trkpt lat="43.047430" lon="-6.060030">
        <ele>1421.529</ele>
        <time>2020-05-22T08:13:30Z</time>
      </trkpt>
      <trkpt lat="43.047340" lon="-6.059750">
        <ele>1418.721</ele>
        <time>2020-05-22T08:13:50Z</time>
      </trkpt>
      <trkpt lat="43.047300" lon="-6.059640">
        <ele>1417.908</ele>
        <time>2020-05-22T08:14:10Z</time>
      </trkpt>
      <trkpt lat="43.047250" lon="-6.059490">
        <ele>1416.340</ele>
        <time>2020-05-22T08:14:30Z</time>
      </trkpt>
      <trkpt lat="43.047220" lon="-6.059440">
        <ele>1416.035</ele>
        <time>2020-05-22T08:14:50Z</time>
      </trkpt>
      <trkpt lat="43.047200" lon="-6.059400">
        <ele>1416.392</ele>
        <time>2020-05-22T08:15:10Z</time>
      </trkpt>
      <trkpt lat="43.047180" lon="-6.059360">
        <ele>1416.618</ele>
        <time>2020-05-22T08:15:30Z</time>
      </trkpt>
      <trkpt lat="43.047140" lon="-6.059310">
        <ele>1417.687</ele>
        <time>2020-05-22T08:15:50Z</time>
      </trkpt>
      <trkpt lat="43.047100" lon="-6.059260">
        <ele>1418.528</ele>
        <time>2020-05-22T08:16:10Z</time>
      </trkpt>
      <trkpt lat="43.047080" lon="-6.059230">
        <ele>1418.977</ele>
        <time>2020-05-22T08:16:30Z</time>
      </trkpt>
      <trkpt lat="43.047070" lon="-6.059190">
        <ele>1418.670</ele>
        <time>2020-05-22T08:16:50Z</time>
      </trkpt>
      <trkpt lat="43.047050" lon="-6.059160">
        <ele>1419.052</ele>
        <time>2020-05-22T08:17:10Z</time>
      </trkpt>
      <trkpt lat="43.047030" lon="-6.059100">
        <ele>1419.353</ele>
        <time>2020-05-22T08:17:30Z</time>
      </trkpt>
      <trkpt lat="43.047020" lon="-6.059030">
        <ele>1419.008</ele>
        <time>2020-05-22T08:17:50Z</time>
      </trkpt>
      <trkpt lat="43.047000" lon="-6.058920">
        <ele>1418.708</ele>
        <time>2020-05-22T08:18:10Z</time>
      </trkpt>
      <trkpt lat="43.046980" lon="-6.058650">
        <ele>1414.619</ele>
        <time>2020-05-22T08:18:30Z</time>
      </trkpt>
      <trkpt lat="43.046980" lon="-6.058630">
        <ele>1414.214</ele>
        <time>2020-05-22T08:18:50Z</time>
      </trkpt>
      <trkpt lat="43.046970" lon="-6.058540">
        <ele>1412.641</ele>
        <time>2020-05-22T08:19:10Z</time>
      </trkpt>
      <trkpt lat="43.046960" lon="-6.058460">
        <ele>1411.277</ele>
        <time>2020-05-22T08:19:30Z</time>
      </trkpt>
      <trkpt lat="43.046950" lon="-6.058410">
        <ele>1410.566</ele>
        <time>2020-05-22T08:19:50Z</time>
      </trkpt>
      <trkpt lat="43.046940" lon="-6.058380">
        <ele>1410.377</ele>
        <time>2020-05-22T08:20:10Z</time>
      </trkpt>
      <trkpt lat="43.046910" lon="-6.058270">
        <ele>1409.246</ele>
        <time>2020-05-22T08:20:30Z</time>
      </trkpt>
      <trkpt lat="43.046780" lon="-6.057930">
        <ele>1408.659</ele>
        <time>2020-05-22T08:20:50Z</time>
      </trkpt>
      <trkpt lat="43.046700" lon="-6.057760">
        <ele>1409.071</ele>
        <time>2020-05-22T08:21:10Z</time>
      </trkpt>
      <trkpt lat="43.046680" lon="-6.057700">
        <ele>1408.541</ele>
        <time>2020-05-22T08:21:30Z</time>
      </trkpt>
      <trkpt lat="43.046640" lon="-6.057630">
        <ele>1408.615</ele>
        <time>2020-05-22T08:21:50Z</time>
      </trkpt>
      <trkpt lat="43.046600" lon="-6.057570">
        <ele>1408.608</ele>
        <time>2020-05-22T08:22:10Z</time>
      </trkpt>
      <trkpt lat="43.046590" lon="-6.057570">
        <ele>1409.171</ele>
        <time>2020-05-22T08:22:30Z</time>
      </trkpt>
      <trkpt lat="43.046570" lon="-6.057540">
        <ele>1408.986</ele>
        <time>2020-05-22T08:22:50Z</time>
      </trkpt>
      <trkpt lat="43.046560" lon="-6.057510">
        <ele>1408.273</ele>
        <time>2020-05-22T08:23:10Z</time>
      </trkpt>
      <trkpt lat="43.046540" lon="-6.057470">
        <ele>1407.819</ele>
        <time>2020-05-22T08:23:30Z</time>
      </trkpt>
      <trkpt lat="43.046520" lon="-6.057400">
        <ele>1406.638</ele>
        <time>2020-05-22T08:23:50Z</time>
      </trkpt>
      <trkpt lat="43.046500" lon="-6.057360">
        <ele>1406.229</ele>
        <time>2020-05-22T08:24:10Z</time>
      </trkpt>
      <trkpt lat="43.046490" lon="-6.057320">
        <ele>1405.438</ele>
        <time>2020-05-22T08:24:30Z</time>
      </trkpt>
      <trkpt lat="43.046410" lon="-6.057150">
        <ele>1404.341</ele>
        <time>2020-05-22T08:24:50Z</time>
      </trkpt>
      <trkpt lat="43.046290" lon="-6.056920">
        <ele>1404.998</ele>
        <time>2020-05-22T08:25:10Z</time>
      </trkpt>
      <trkpt lat="43.046010" lon="-6.056310">
        <ele>1403.615</ele>
        <time>2020-05-22T08:25:30Z</time>
      </trkpt>
      <trkpt lat="43.045920" lon="-6.056110">
        <ele>1400.726</ele>
        <time>2020-05-22T08:25:50Z</time>
      </trkpt>
      <trkpt lat="43.045900" lon="-6.056070">
        <ele>1400.208</ele>
        <time>2020-05-22T08:26:10Z</time>
      </trkpt>
      <trkpt lat="43.045850" lon="-6.055920">
        <ele>1397.713</ele>
        <time>2020-05-22T08:26:30Z</time>
      </trkpt>
      <trkpt lat="43.045830" lon="-6.055820">
        <ele>1395.848</ele>
        <time>2020-05-22T08:26:50Z</time>
      </trkpt>
      <trkpt lat="43.045800" lon="-6.055710">
        <ele>1394.625</ele>
        <time>2020-05-22T08:27:10Z</time>
      </trkpt>
      <trkpt lat="43.045790" lon="-6.055580">
        <ele>1392.441</ele>
        <time>2020-05-22T08:27:30Z</time>
      </trkpt>
      <trkpt lat="43.045770" lon="-6.055420">
        <ele>1392.670</ele>
        <time>2020-05-22T08:27:50Z</time>
      </trkpt>
      <trkpt lat="43.045770" lon="-6.055300">
        <ele>1392.571</ele>
        <time>2020-05-22T08:28:10Z</time>
      </trkpt>
      <trkpt lat="43.045770" lon="-6.055200">
        <ele>1392.550</ele>
        <time>2020-05-22T08:28:30Z</time>
      </trkpt>
      <trkpt lat="43.045770" lon="-6.055160">
        <ele>1392.573</ele>
        <time>2020-05-22T08:28:50Z</time>
      </trkpt>
      <trkpt lat="43.045770" lon="-6.055050">
        <ele>1392.547</ele>
        <time>2020-05-22T08:29:10Z</time>
      </trkpt>
      <trkpt lat="43.045770" lon="-6.054920">
        <ele>1391.829</ele>
        <time>2020-05-22T08:29:30Z</time>
      </trkpt>
      <trkpt lat="43.045770" lon="-6.054670">
        <ele>1389.421</ele>
        <time>2020-05-22T08:29:50Z</time>
      </trkpt>
      <trkpt lat="43.045780" lon="-6.054430">
        <ele>1385.208</ele>
        <time>2020-05-22T08:30:10Z</time>
      </trkpt>
      <trkpt lat="43.045780" lon="-6.054280">
        <ele>1383.888</ele>
        <time>2020-05-22T08:30:30Z</time>
      </trkpt>
      <trkpt lat="43.045780" lon="-6.054120">
        <ele>1382.193</ele>
        <time>2020-05-22T08:30:50Z</time>
      </trkpt>
      <trkpt lat="43.045780" lon="-6.054030">
        <ele>1380.980</ele>
        <time>2020-05-22T08:31:10Z</time>
      </trkpt>
      <trkpt lat="43.045770" lon="-6.053960">
        <ele>1380.466</ele>
        <time>2020-05-22T08:31:30Z</time>
      </trkpt>
      <trkpt lat="43.045770" lon="-6.053930">
        <ele>1380.095</ele>
        <time>2020-05-22T08:31:50Z</time>
      </trkpt>
      <trkpt lat="43.045760" lon="-6.053900">
        <ele>1380.046</ele>
        <time>2020-05-22T08:32:10Z</time>
      </trkpt>
      <trkpt lat="43.045750" lon="-6.053830">
        <ele>1379.755</ele>
        <time>2020-05-22T08:32:30Z</time>
      </trkpt>
      <trkpt lat="43.045730" lon="-6.053750">
        <ele>1379.868</ele>
        <time>2020-05-22T08:32:50Z</time>
      </trkpt>
      <trkpt lat="43.045710" lon="-6.053700">
        <ele>1380.432</ele>
        <time>2020-05-22T08:33:10Z</time>
      </trkpt>
      <trkpt lat="43.045690" lon="-6.053660">
        <ele>1381.192</ele>
        <time>2020-05-22T08:33:30Z</time>
      </trkpt>
      <trkpt lat="43.045640" lon="-6.053530">
        <ele>1383.011</ele>
        <time>2020-05-22T08:33:50Z</time>
      </trkpt>
      <trkpt lat="43.045630" lon="-6.053480">
        <ele>1383.308</ele>
        <time>2020-05-22T08:34:10Z</time>
      </trkpt>
      <trkpt lat="43.045620" lon="-6.053470">
        <ele>1383.957</ele>
        <time>2020-05-22T08:34:30Z</time>
      </trkpt>
      <trkpt lat="43.045620" lon="-6.053450">
        <ele>1383.882</ele>
        <time>2020-05-22T08:34:50Z</time>
      </trkpt>
      <trkpt lat="43.045610" lon="-6.053420">
        <ele>1384.429</ele>
        <time>2020-05-22T08:35:10Z</time>
      </trkpt>
      <trkpt lat="43.045610" lon="-6.053380">
        <ele>1384.285</ele>
        <time>2020-05-22T08:35:30Z</time>
      </trkpt>
      <trkpt lat="43.045610" lon="-6.053330">
        <ele>1384.164</ele>
        <time>2020-05-22T08:35:50Z</time>
      </trkpt>
      <trkpt lat="43.045610" lon="-6.053260">
        <ele>1383.465</ele>
        <time>2020-05-22T08:36:10Z</time>
      </trkpt>
      <trkpt lat="43.045610" lon="-6.053240">
        <ele>1383.364</ele>
        <time>2020-05-22T08:36:30Z</time>
      </trkpt>
      <trkpt lat="43.045630" lon="-6.053000">
        <ele>1379.487</ele>
        <time>2020-05-22T08:36:50Z</time>
      </trkpt>
      <trkpt lat="43.045630" lon="-6.052990">
        <ele>1379.258</ele>
        <time>2020-05-22T08:37:10Z</time>
      </trkpt>
      <trkpt lat="43.045650" lon="-6.052750">
        <ele>1373.952</ele>
        <time>2020-05-22T08:37:30Z</time>
      </trkpt>
      <trkpt lat="43.045660" lon="-6.052610">
        <ele>1371.917</ele>
        <time>2020-05-22T08:37:50Z</time>
      </trkpt>
      <trkpt lat="43.045670" lon="-6.052510">
        <ele>1370.408</ele>
        <time>2020-05-22T08:38:10Z</time>
      </trkpt>
      <trkpt lat="43.045680" lon="-6.052330">
        <ele>1369.659</ele>
        <time>2020-05-22T08:38:30Z</time>
      </trkpt>
      <trkpt lat="43.045680" lon="-6.052260">
        <ele>1369.584</ele>
        <time>2020-05-22T08:38:50Z</time>
      </trkpt>
      <trkpt lat="43.045680" lon="-6.052210">
        <ele>1369.541</ele>
        <time>2020-05-22T08:39:10Z</time>
      </trkpt>
      <trkpt lat="43.045670" lon="-6.052070">
        <ele>1370.287</ele>
        <time>2020-05-22T08:39:30Z</time>
      </trkpt>
      <trkpt lat="43.045660" lon="-6.051950">
        <ele>1370.776</ele>
        <time>2020-05-22T08:39:50Z</time>
      </trkpt>
      <trkpt lat="43.045650" lon="-6.051860">
        <ele>1370.637</ele>
        <time>2020-05-22T08:40:10Z</time>
      </trkpt>
      <trkpt lat="43.045650" lon="-6.051820">
        <ele>1370.436</ele>
        <time>2020-05-22T08:40:30Z</time>
      </trkpt>
      <trkpt lat="43.045650" lon="-6.051770">
        <ele>1370.199</ele>
        <time>2020-05-22T08:40:50Z</time>
      </trkpt>
      <trkpt lat="43.045650" lon="-6.051680">
        <ele>1369.734</ele>
        <time>2020-05-22T08:41:10Z</time>
      </trkpt>
      <trkpt lat="43.045650" lon="-6.051580">
        <ele>1369.155</ele>
        <time>2020-05-22T08:41:30Z</time>
      </trkpt>
      <trkpt lat="43.045650" lon="-6.051540">
        <ele>1368.910</ele>
        <time>2020-05-22T08:41:50Z</time>
      </trkpt>
      <trkpt lat="43.045700" lon="-6.051300">
        <ele>1366.808</ele>
        <time>2020-05-22T08:42:10Z</time>
      </trkpt>
      <trkpt lat="43.045710" lon="-6.051250">
        <ele>1366.427</ele>
        <time>2020-05-22T08:42:30Z</time>
      </trkpt>
      <trkpt lat="43.045730" lon="-6.051110">
        <ele>1365.482</ele>
        <time>2020-05-22T08:42:50Z</time>
      </trkpt>
      <trkpt lat="43.045740" lon="-6.051060">
        <ele>1365.279</ele>
        <time>2020-05-22T08:43:10Z</time>
      </trkpt>
      <trkpt lat="43.045780" lon="-6.050820">
        <ele>1364.855</ele>
        <time>2020-05-22T08:43:30Z</time>
      </trkpt>
      <trkpt lat="43.045790" lon="-6.050790">
        <ele>1364.774</ele>
        <time>2020-05-22T08:43:50Z</time>
      </trkpt>
      <trkpt lat="43.045800" lon="-6.050710">
        <ele>1364.595</ele>
        <time>2020-05-22T08:44:10Z</time>
      </trkpt>
      <trkpt lat="43.045830" lon="-6.050620">
        <ele>1364.224</ele>
        <time>2020-05-22T08:44:30Z</time>
      </trkpt>
      <trkpt lat="43.045840" lon="-6.050590">
        <ele>1364.127</ele>
        <time>2020-05-22T08:44:50Z</time>
      </trkpt>
      <trkpt lat="43.045870" lon="-6.050480">
        <ele>1362.956</ele>
        <time>2020-05-22T08:45:10Z</time>
      </trkpt>
      <trkpt lat="43.045880" lon="-6.050430">
        <ele>1362.459</ele>
        <time>2020-05-22T08:45:30Z</time>
      </trkpt>
      <trkpt lat="43.045880" lon="-6.050370">
        <ele>1361.814</ele>
        <time>2020-05-22T08:45:50Z</time>
      </trkpt>
      <trkpt lat="43.045890" lon="-6.050310">
        <ele>1361.308</ele>
        <time>2020-05-22T08:46:10Z</time>
      </trkpt>
      <trkpt lat="43.045890" lon="-6.050240">
        <ele>1360.869</ele>
        <time>2020-05-22T08:46:30Z</time>
      </trkpt>
      <trkpt lat="43.045900" lon="-6.050130">
        <ele>1360.174</ele>
        <time>2020-05-22T08:46:50Z</time>
      </trkpt>
      <trkpt lat="43.045900" lon="-6.050110">
        <ele>1359.921</ele>
        <time>2020-05-22T08:47:10Z</time>
      </trkpt>
      <trkpt lat="43.045910" lon="-6.050050">
        <ele>1359.677</ele>
        <time>2020-05-22T08:47:30Z</time>
      </trkpt>
      <trkpt lat="43.045920" lon="-6.050010">
        <ele>1359.446</ele>
        <time>2020-05-22T08:47:50Z</time>
      </trkpt>
      <trkpt lat="43.045920" lon="-6.049970">
        <ele>1359.187</ele>
        <time>2020-05-22T08:48:10Z</time>
      </trkpt>
      <trkpt lat="43.045940" lon="-6.049930">
        <ele>1359.076</ele>
        <time>2020-05-22T08:48:30Z</time>
      </trkpt>
      <trkpt lat="43.045960" lon="-6.049880">
        <ele>1358.879</ele>
        <time>2020-05-22T08:48:50Z</time>
      </trkpt>
      <trkpt lat="43.045980" lon="-6.049840">
        <ele>1358.767</ele>
        <time>2020-05-22T08:49:10Z</time>
      </trkpt>
      <trkpt lat="43.046010" lon="-6.049790">
        <ele>1358.681</ele>
        <time>2020-05-22T08:49:30Z</time>
      </trkpt>
      <trkpt lat="43.046080" lon="-6.049710">
        <ele>1358.719</ele>
        <time>2020-05-22T08:49:50Z</time>
      </trkpt>
      <trkpt lat="43.046160" lon="-6.049590">
        <ele>1359.208</ele>
        <time>2020-05-22T08:50:10Z</time>
      </trkpt>
      <trkpt lat="43.046280" lon="-6.049460">
        <ele>1360.520</ele>
        <time>2020-05-22T08:50:30Z</time>
      </trkpt>
      <trkpt lat="43.046370" lon="-6.049360">
        <ele>1361.445</ele>
        <time>2020-05-22T08:50:50Z</time>
      </trkpt>
      <trkpt lat="43.046374" lon="-6.049357">
        <ele>1361.532</ele>
        <time>2020-05-22T08:51:10Z</time>
      </trkpt>
      <trkpt lat="43.046430" lon="-6.049280">
        <ele>1361.998</ele>
        <time>2020-05-22T08:51:30Z</time>
      </trkpt>
      <trkpt lat="43.046460" lon="-6.049240">
        <ele>1362.067</ele>
        <time>2020-05-22T08:51:50Z</time>
      </trkpt>
      <trkpt lat="43.046480" lon="-6.049200">
        <ele>1362.128</ele>
        <time>2020-05-22T08:52:10Z</time>
      </trkpt>
      <trkpt lat="43.046490" lon="-6.049170">
        <ele>1362.167</ele>
        <time>2020-05-22T08:52:30Z</time>
      </trkpt>
      <trkpt lat="43.046500" lon="-6.049130">
        <ele>1361.910</ele>
        <time>2020-05-22T08:52:50Z</time>
      </trkpt>
      <trkpt lat="43.046500" lon="-6.049080">
        <ele>1361.654</ele>
        <time>2020-05-22T08:53:10Z</time>
      </trkpt>
      <trkpt lat="43.046500" lon="-6.049010">
        <ele>1361.156</ele>
        <time>2020-05-22T08:53:30Z</time>
      </trkpt>
      <trkpt lat="43.046500" lon="-6.049000">
        <ele>1361.011</ele>
        <time>2020-05-22T08:53:50Z</time>
      </trkpt>
      <trkpt lat="43.046470" lon="-6.048740">
        <ele>1359.708</ele>
        <time>2020-05-22T08:54:10Z</time>
      </trkpt>
      <trkpt lat="43.046470" lon="-6.048690">
        <ele>1359.659</ele>
        <time>2020-05-22T08:54:30Z</time>
      </trkpt>
      <trkpt lat="43.046470" lon="-6.048660">
        <ele>1359.544</ele>
        <time>2020-05-22T08:54:50Z</time>
      </trkpt>
      <trkpt lat="43.046470" lon="-6.048620">
        <ele>1359.571</ele>
        <time>2020-05-22T08:55:10Z</time>
      </trkpt>
      <trkpt lat="43.046470" lon="-6.048610">
        <ele>1359.537</ele>
        <time>2020-05-22T08:55:30Z</time>
      </trkpt>
      <trkpt lat="43.046520" lon="-6.048440">
        <ele>1359.756</ele>
        <time>2020-05-22T08:55:50Z</time>
      </trkpt>
      <trkpt lat="43.046550" lon="-6.048260">
        <ele>1360.287</ele>
        <time>2020-05-22T08:56:10Z</time>
      </trkpt>
      <trkpt lat="43.046550" lon="-6.048220">
        <ele>1360.426</ele>
        <time>2020-05-22T08:56:30Z</time>
      </trkpt>
      <trkpt lat="43.046550" lon="-6.048200">
        <ele>1360.529</ele>
        <time>2020-05-22T08:56:50Z</time>
      </trkpt>
      <trkpt lat="43.046550" lon="-6.048180">
        <ele>1360.586</ele>
        <time>2020-05-22T08:57:10Z</time>
      </trkpt>
      <trkpt lat="43.046550" lon="-6.048150">
        <ele>1360.760</ele>
        <time>2020-05-22T08:57:30Z</time>
      </trkpt>
      <trkpt lat="43.046540" lon="-6.048120">
        <ele>1360.626</ele>
        <time>2020-05-22T08:57:50Z</time>
      </trkpt>
      <trkpt lat="43.046440" lon="-6.047790">
        <ele>1359.208</ele>
        <time>2020-05-22T08:58:10Z</time>
      </trkpt>
      <trkpt lat="43.046430" lon="-6.047740">
        <ele>1359.212</ele>
        <time>2020-05-22T08:58:30Z</time>
      </trkpt>
      <trkpt lat="43.046420" lon="-6.047720">
        <ele>1359.077</ele>
        <time>2020-05-22T08:58:50Z</time>
      </trkpt>
      <trkpt lat="43.046420" lon="-6.047680">
        <ele>1359.284</ele>
        <time>2020-05-22T08:59:10Z</time>
      </trkpt>
      <trkpt lat="43.046420" lon="-6.047640">
        <ele>1359.380</ele>
        <time>2020-05-22T08:59:30Z</time>
      </trkpt>
      <trkpt lat="43.046430" lon="-6.047490">
        <ele>1360.319</ele>
        <time>2020-05-22T08:59:50Z</time>
      </trkpt>
      <trkpt lat="43.046440" lon="-6.047420">
        <ele>1361.050</ele>
        <time>2020-05-22T09:00:10Z</time>
      </trkpt>
      <trkpt lat="43.046440" lon="-6.047340">
        <ele>1361.619</ele>
        <time>2020-05-22T09:00:30Z</time>
      </trkpt>
      <trkpt lat="43.046440" lon="-6.047280">
        <ele>1362.182</ele>
        <time>2020-05-22T09:00:50Z</time>
      </trkpt>
      <trkpt lat="43.046440" lon="-6.047250">
        <ele>1362.367</ele>
        <time>2020-05-22T09:01:10Z</time>
      </trkpt>
      <trkpt lat="43.046440" lon="-6.047220">
        <ele>1362.581</ele>
        <time>2020-05-22T09:01:30Z</time>
      </trkpt>
      <trkpt lat="43.046430" lon="-6.047190">
        <ele>1362.319</ele>
        <time>2020-05-22T09:01:50Z</time>
      </trkpt>
      <trkpt lat="43.046420" lon="-6.047150">
        <ele>1362.208</ele>
        <time>2020-05-22T09:02:10Z</time>
      </trkpt>
      <trkpt lat="43.046410" lon="-6.047120">
        <ele>1362.050</ele>
        <time>2020-05-22T09:02:30Z</time>
      </trkpt>
      <trkpt lat="43.046370" lon="-6.047020">
        <ele>1361.195</ele>
        <time>2020-05-22T09:02:50Z</time>
      </trkpt>
      <trkpt lat="43.046350" lon="-6.046960">
        <ele>1360.792</ele>
        <time>2020-05-22T09:03:10Z</time>
      </trkpt>
      <trkpt lat="43.046330" lon="-6.046900">
        <ele>1359.928</ele>
        <time>2020-05-22T09:03:30Z</time>
      </trkpt>
      <trkpt lat="43.046310" lon="-6.046850">
        <ele>1359.127</ele>
        <time>2020-05-22T09:03:50Z</time>
      </trkpt>
      <trkpt lat="43.046290" lon="-6.046790">
        <ele>1358.358</ele>
        <time>2020-05-22T09:04:10Z</time>
      </trkpt>
      <trkpt lat="43.046260" lon="-6.046660">
        <ele>1357.277</ele>
        <time>2020-05-22T09:04:30Z</time>
      </trkpt>
      <trkpt lat="43.046220" lon="-6.046490">
        <ele>1356.520</ele>
        <time>2020-05-22T09:04:50Z</time>
      </trkpt>
      <trkpt lat="43.046190" lon="-6.046410">
        <ele>1356.166</ele>
        <time>2020-05-22T09:05:10Z</time>
      </trkpt>
      <trkpt lat="43.046160" lon="-6.046320">
        <ele>1355.729</ele>
        <time>2020-05-22T09:05:30Z</time>
      </trkpt>
      <trkpt lat="43.046110" lon="-6.046200">
        <ele>1355.021</ele>
        <time>2020-05-22T09:05:50Z</time>
      </trkpt>
      <trkpt lat="43.045990" lon="-6.045910">
        <ele>1354.508</ele>
        <time>2020-05-22T09:06:10Z</time>
      </trkpt>
      <trkpt lat="43.045980" lon="-6.045890">
        <ele>1354.530</ele>
        <time>2020-05-22T09:06:30Z</time>
      </trkpt>
      <trkpt lat="43.045970" lon="-6.045850">
        <ele>1354.425</ele>
        <time>2020-05-22T09:06:50Z</time>
      </trkpt>
      <trkpt lat="43.045960" lon="-6.045820">
        <ele>1354.482</ele>
        <time>2020-05-22T09:07:10Z</time>
      </trkpt>
      <trkpt lat="43.045960" lon="-6.045770">
        <ele>1354.658</ele>
        <time>2020-05-22T09:07:30Z</time>
      </trkpt>
      <trkpt lat="43.045960" lon="-6.045680">
        <ele>1354.997</ele>
        <time>2020-05-22T09:07:50Z</time>
      </trkpt>
      <trkpt lat="43.045970" lon="-6.045430">
        <ele>1355.598</ele>
        <time>2020-05-22T09:08:10Z</time>
      </trkpt>
      <trkpt lat="43.045980" lon="-6.045280">
        <ele>1355.727</ele>
        <time>2020-05-22T09:08:30Z</time>
      </trkpt>
      <trkpt lat="43.045980" lon="-6.045200">
        <ele>1355.470</ele>
        <time>2020-05-22T09:08:50Z</time>
      </trkpt>
      <trkpt lat="43.045970" lon="-6.045100">
        <ele>1354.899</ele>
        <time>2020-05-22T09:09:10Z</time>
      </trkpt>
      <trkpt lat="43.045950" lon="-6.044990">
        <ele>1353.707</ele>
        <time>2020-05-22T09:09:30Z</time>
      </trkpt>
      <trkpt lat="43.045930" lon="-6.044850">
        <ele>1352.627</ele>
        <time>2020-05-22T09:09:50Z</time>
      </trkpt>
      <trkpt lat="43.045870" lon="-6.044600">
        <ele>1350.308</ele>
        <time>2020-05-22T09:10:10Z</time>
      </trkpt>
      <trkpt lat="43.045870" lon="-6.044550">
        <ele>1350.443</ele>
        <time>2020-05-22T09:10:30Z</time>
      </trkpt>
      <trkpt lat="43.045860" lon="-6.044490">
        <ele>1350.018</ele>
        <time>2020-05-22T09:10:50Z</time>
      </trkpt>
      <trkpt lat="43.045850" lon="-6.044440">
        <ele>1349.645</ele>
        <time>2020-05-22T09:11:10Z</time>
      </trkpt>
      <trkpt lat="43.045850" lon="-6.044380">
        <ele>1349.461</ele>
        <time>2020-05-22T09:11:30Z</time>
      </trkpt>
      <trkpt lat="43.045860" lon="-6.044350">
        <ele>1349.750</ele>
        <time>2020-05-22T09:11:50Z</time>
      </trkpt>
      <trkpt lat="43.045860" lon="-6.044330">
        <ele>1349.691</ele>
        <time>2020-05-22T09:12:10Z</time>
      </trkpt>
      <trkpt lat="43.045870" lon="-6.044310">
        <ele>1349.980</ele>
        <time>2020-05-22T09:12:30Z</time>
      </trkpt>
      <trkpt lat="43.045880" lon="-6.044280">
        <ele>1350.243</ele>
        <time>2020-05-22T09:12:50Z</time>
      </trkpt>
      <trkpt lat="43.045930" lon="-6.044160">
        <ele>1351.559</ele>
        <time>2020-05-22T09:13:10Z</time>
      </trkpt>
      <trkpt lat="43.045940" lon="-6.044120">
        <ele>1351.703</ele>
        <time>2020-05-22T09:13:30Z</time>
      </trkpt>
      <trkpt lat="43.045950" lon="-6.044070">
        <ele>1351.923</ele>
        <time>2020-05-22T09:13:50Z</time>
      </trkpt>
      <trkpt lat="43.045960" lon="-6.044020">
        <ele>1352.008</ele>
        <time>2020-05-22T09:14:10Z</time>
      </trkpt>
      <trkpt lat="43.045970" lon="-6.043970">
        <ele>1352.269</ele>
        <time>2020-05-22T09:14:30Z</time>
      </trkpt>
      <trkpt lat="43.045970" lon="-6.043920">
        <ele>1352.034</ele>
        <time>2020-05-22T09:14:50Z</time>
      </trkpt>
      <trkpt lat="43.045970" lon="-6.043900">
        <ele>1352.071</ele>
        <time>2020-05-22T09:15:10Z</time>
      </trkpt>
      <trkpt lat="43.045960" lon="-6.043820">
        <ele>1352.197</ele>
        <time>2020-05-22T09:15:30Z</time>
      </trkpt>
      <trkpt lat="43.045960" lon="-6.043750">
        <ele>1352.656</ele>
        <time>2020-05-22T09:15:50Z</time>
      </trkpt>
      <trkpt lat="43.045950" lon="-6.043680">
        <ele>1352.787</ele>
        <time>2020-05-22T09:16:10Z</time>
      </trkpt>
      <trkpt lat="43.045950" lon="-6.043660">
        <ele>1352.856</ele>
        <time>2020-05-22T09:16:30Z</time>
      </trkpt>
      <trkpt lat="43.045930" lon="-6.043590">
        <ele>1352.619</ele>
        <time>2020-05-22T09:16:50Z</time>
      </trkpt>
      <trkpt lat="43.045920" lon="-6.043510">
        <ele>1352.664</ele>
        <time>2020-05-22T09:17:10Z</time>
      </trkpt>
      <trkpt lat="43.045900" lon="-6.043460">
        <ele>1352.106</ele>
        <time>2020-05-22T09:17:30Z</time>
      </trkpt>
      <trkpt lat="43.045880" lon="-6.043400">
        <ele>1351.616</ele>
        <time>2020-05-22T09:17:50Z</time>
      </trkpt>
      <trkpt lat="43.045860" lon="-6.043350">
        <ele>1351.008</ele>
        <time>2020-05-22T09:18:10Z</time>
      </trkpt>
      <trkpt lat="43.045830" lon="-6.043290">
        <ele>1350.440</ele>
        <time>2020-05-22T09:18:30Z</time>
      </trkpt>
      <trkpt lat="43.045800" lon="-6.043240">
        <ele>1350.475</ele>
        <time>2020-05-22T09:18:50Z</time>
      </trkpt>
      <trkpt lat="43.045790" lon="-6.043230">
        <ele>1350.352</ele>
        <time>2020-05-22T09:19:10Z</time>
      </trkpt>
      <trkpt lat="43.045760" lon="-6.043180">
        <ele>1350.258</ele>
        <time>2020-05-22T09:19:30Z</time>
      </trkpt>
      <trkpt lat="43.045700" lon="-6.043110">
        <ele>1349.647</ele>
        <time>2020-05-22T09:19:50Z</time>
      </trkpt>
      <trkpt lat="43.045560" lon="-6.042930">
        <ele>1348.028</ele>
        <time>2020-05-22T09:20:10Z</time>
      </trkpt>
      <trkpt lat="43.045540" lon="-6.042900">
        <ele>1347.937</ele>
        <time>2020-05-22T09:20:30Z</time>
      </trkpt>
      <trkpt lat="43.045490" lon="-6.042830">
        <ele>1347.720</ele>
        <time>2020-05-22T09:20:50Z</time>
      </trkpt>
      <trkpt lat="43.045440" lon="-6.042770">
        <ele>1347.477</ele>
        <time>2020-05-22T09:21:10Z</time>
      </trkpt>
      <trkpt lat="43.045400" lon="-6.042730">
        <ele>1347.061</ele>
        <time>2020-05-22T09:21:30Z</time>
      </trkpt>
      <trkpt lat="43.045390" lon="-6.042710">
        <ele>1347.027</ele>
        <time>2020-05-22T09:21:50Z</time>
      </trkpt>
      <trkpt lat="43.045330" lon="-6.042660">
        <ele>1346.308</ele>
        <time>2020-05-22T09:22:10Z</time>
      </trkpt>
      <trkpt lat="43.045280" lon="-6.042610">
        <ele>1345.641</ele>
        <time>2020-05-22T09:22:30Z</time>
      </trkpt>
      <trkpt lat="43.045190" lon="-6.042530">
        <ele>1345.086</ele>
        <time>2020-05-22T09:22:50Z</time>
      </trkpt>
      <trkpt lat="43.045090" lon="-6.042440">
        <ele>1344.023</ele>
        <time>2020-05-22T09:23:10Z</time>
      </trkpt>
      <trkpt lat="43.045050" lon="-6.042410">
        <ele>1343.599</ele>
        <time>2020-05-22T09:23:30Z</time>
      </trkpt>
      <trkpt lat="43.045020" lon="-6.042380">
        <ele>1343.268</ele>
        <time>2020-05-22T09:23:50Z</time>
      </trkpt>
      <trkpt lat="43.044950" lon="-6.042330">
        <ele>1342.869</ele>
        <time>2020-05-22T09:24:10Z</time>
      </trkpt>
      <trkpt lat="43.044900" lon="-6.042290">
        <ele>1342.618</ele>
        <time>2020-05-22T09:24:30Z</time>
      </trkpt>
      <trkpt lat="43.044810" lon="-6.042230">
        <ele>1342.391</ele>
        <time>2020-05-22T09:24:50Z</time>
      </trkpt>
      <trkpt lat="43.044740" lon="-6.042180">
        <ele>1341.912</ele>
        <time>2020-05-22T09:25:10Z</time>
      </trkpt>
      <trkpt lat="43.044690" lon="-6.042150">
        <ele>1341.632</ele>
        <time>2020-05-22T09:25:30Z</time>
      </trkpt>
      <trkpt lat="43.044630" lon="-6.042110">
        <ele>1341.205</ele>
        <time>2020-05-22T09:25:50Z</time>
      </trkpt>
      <trkpt lat="43.044530" lon="-6.042020">
        <ele>1340.908</ele>
        <time>2020-05-22T09:26:10Z</time>
      </trkpt>
      <trkpt lat="43.044460" lon="-6.041960">
        <ele>1341.075</ele>
        <time>2020-05-22T09:26:30Z</time>
      </trkpt>
      <trkpt lat="43.044410" lon="-6.041920">
        <ele>1341.120</ele>
        <time>2020-05-22T09:26:50Z</time>
      </trkpt>
      <trkpt lat="43.044390" lon="-6.041890">
        <ele>1341.297</ele>
        <time>2020-05-22T09:27:10Z</time>
      </trkpt>
      <trkpt lat="43.044390" lon="-6.041880">
        <ele>1341.293</ele>
        <time>2020-05-22T09:27:30Z</time>
      </trkpt>
      <trkpt lat="43.044350" lon="-6.041830">
        <ele>1341.372</ele>
        <time>2020-05-22T09:27:50Z</time>
      </trkpt>
      <trkpt lat="43.044320" lon="-6.041780">
        <ele>1341.353</ele>
        <time>2020-05-22T09:28:10Z</time>
      </trkpt>
      <trkpt lat="43.044190" lon="-6.041500">
        <ele>1341.182</ele>
        <time>2020-05-22T09:28:30Z</time>
      </trkpt>
      <trkpt lat="43.043990" lon="-6.041040">
        <ele>1338.545</ele>
        <time>2020-05-22T09:28:50Z</time>
      </trkpt>
      <trkpt lat="43.043720" lon="-6.040420">
        <ele>1335.258</ele>
        <time>2020-05-22T09:29:10Z</time>
      </trkpt>
      <trkpt lat="43.043680" lon="-6.040320">
        <ele>1335.052</ele>
        <time>2020-05-22T09:29:30Z</time>
      </trkpt>
      <trkpt lat="43.043650" lon="-6.040250">
        <ele>1335.117</ele>
        <time>2020-05-22T09:29:50Z</time>
      </trkpt>
      <trkpt lat="43.043620" lon="-6.040190">
        <ele>1335.308</ele>
        <time>2020-05-22T09:30:10Z</time>
      </trkpt>
      <trkpt lat="43.043600" lon="-6.040120">
        <ele>1335.599</ele>
        <time>2020-05-22T09:30:30Z</time>
      </trkpt>
      <trkpt lat="43.043580" lon="-6.040020">
        <ele>1335.884</ele>
        <time>2020-05-22T09:30:50Z</time>
      </trkpt>
      <trkpt lat="43.043520" lon="-6.039780">
        <ele>1334.951</ele>
        <time>2020-05-22T09:31:10Z</time>
      </trkpt>
      <trkpt lat="43.043460" lon="-6.039520">
        <ele>1333.767</ele>
        <time>2020-05-22T09:31:30Z</time>
      </trkpt>
      <trkpt lat="43.043460" lon="-6.039480">
        <ele>1333.626</ele>
        <time>2020-05-22T09:31:50Z</time>
      </trkpt>
      <trkpt lat="43.043420" lon="-6.039310">
        <ele>1333.017</ele>
        <time>2020-05-22T09:32:10Z</time>
      </trkpt>
      <trkpt lat="43.043320" lon="-6.038790">
        <ele>1333.356</ele>
        <time>2020-05-22T09:32:30Z</time>
      </trkpt>
      <trkpt lat="43.043280" lon="-6.038570">
        <ele>1333.939</ele>
        <time>2020-05-22T09:32:50Z</time>
      </trkpt>
      <trkpt lat="43.043220" lon="-6.038310">
        <ele>1334.211</ele>
        <time>2020-05-22T09:33:10Z</time>
      </trkpt>
      <trkpt lat="43.043170" lon="-6.038090">
        <ele>1333.821</ele>
        <time>2020-05-22T09:33:30Z</time>
      </trkpt>
      <trkpt lat="43.043160" lon="-6.038040">
        <ele>1333.803</ele>
        <time>2020-05-22T09:33:50Z</time>
      </trkpt>
      <trkpt lat="43.043150" lon="-6.038000">
        <ele>1334.008</ele>
        <time>2020-05-22T09:34:10Z</time>
      </trkpt>
      <trkpt lat="43.043120" lon="-6.037920">
        <ele>1334.355</ele>
        <time>2020-05-22T09:34:30Z</time>
      </trkpt>
      <trkpt lat="43.043020" lon="-6.037650">
        <ele>1334.950</ele>
        <time>2020-05-22T09:34:50Z</time>
      </trkpt>
      <trkpt lat="43.042980" lon="-6.037560">
        <ele>1334.957</ele>
        <time>2020-05-22T09:35:10Z</time>
      </trkpt>
      <trkpt lat="43.042950" lon="-6.037500">
        <ele>1335.073</ele>
        <time>2020-05-22T09:35:30Z</time>
      </trkpt>
      <trkpt lat="43.042910" lon="-6.037410">
        <ele>1334.742</ele>
        <time>2020-05-22T09:35:50Z</time>
      </trkpt>
      <trkpt lat="43.042660" lon="-6.036950">
        <ele>1332.523</ele>
        <time>2020-05-22T09:36:10Z</time>
      </trkpt>
      <trkpt lat="43.042600" lon="-6.036850">
        <ele>1332.472</ele>
        <time>2020-05-22T09:36:30Z</time>
      </trkpt>
      <trkpt lat="43.042500" lon="-6.036650">
        <ele>1332.135</ele>
        <time>2020-05-22T09:36:50Z</time>
      </trkpt>
      <trkpt lat="43.042490" lon="-6.036650">
        <ele>1332.082</ele>
        <time>2020-05-22T09:37:10Z</time>
      </trkpt>
      <trkpt lat="43.042270" lon="-6.036220">
        <ele>1331.443</ele>
        <time>2020-05-22T09:37:30Z</time>
      </trkpt>
      <trkpt lat="43.042210" lon="-6.036130">
        <ele>1331.017</ele>
        <time>2020-05-22T09:37:50Z</time>
      </trkpt>
      <trkpt lat="43.042180" lon="-6.036060">
        <ele>1330.808</ele>
        <time>2020-05-22T09:38:10Z</time>
      </trkpt>
      <trkpt lat="43.042170" lon="-6.036050">
        <ele>1330.862</ele>
        <time>2020-05-22T09:38:30Z</time>
      </trkpt>
      <trkpt lat="43.042140" lon="-6.035980">
        <ele>1330.797</ele>
        <time>2020-05-22T09:38:50Z</time>
      </trkpt>
      <trkpt lat="43.042110" lon="-6.035900">
        <ele>1330.614</ele>
        <time>2020-05-22T09:39:10Z</time>
      </trkpt>
      <trkpt lat="43.042090" lon="-6.035840">
        <ele>1330.590</ele>
        <time>2020-05-22T09:39:30Z</time>
      </trkpt>
      <trkpt lat="43.042070" lon="-6.035780">
        <ele>1330.999</ele>
        <time>2020-05-22T09:39:50Z</time>
      </trkpt>
      <trkpt lat="43.042030" lon="-6.035620">
        <ele>1331.840</ele>
        <time>2020-05-22T09:40:10Z</time>
      </trkpt>
      <trkpt lat="43.042030" lon="-6.035610">
        <ele>1331.999</ele>
        <time>2020-05-22T09:40:30Z</time>
      </trkpt>
      <trkpt lat="43.042020" lon="-6.035570">
        <ele>1332.082</ele>
        <time>2020-05-22T09:40:50Z</time>
      </trkpt>
      <trkpt lat="43.042010" lon="-6.035520">
        <ele>1332.317</ele>
        <time>2020-05-22T09:41:10Z</time>
      </trkpt>
      <trkpt lat="43.041980" lon="-6.035470">
        <ele>1332.487</ele>
        <time>2020-05-22T09:41:30Z</time>
      </trkpt>
      <trkpt lat="43.041970" lon="-6.035440">
        <ele>1332.615</ele>
        <time>2020-05-22T09:41:50Z</time>
      </trkpt>
      <trkpt lat="43.041950" lon="-6.035400">
        <ele>1332.808</ele>
        <time>2020-05-22T09:42:10Z</time>
      </trkpt>
      <trkpt lat="43.041940" lon="-6.035400">
        <ele>1332.695</ele>
        <time>2020-05-22T09:42:30Z</time>
      </trkpt>
      <trkpt lat="43.041920" lon="-6.035360">
        <ele>1332.970</ele>
        <time>2020-05-22T09:42:50Z</time>
      </trkpt>
      <trkpt lat="43.041890" lon="-6.035320">
        <ele>1333.047</ele>
        <time>2020-05-22T09:43:10Z</time>
      </trkpt>
      <trkpt lat="43.041670" lon="-6.035070">
        <ele>1332.563</ele>
        <time>2020-05-22T09:43:30Z</time>
      </trkpt>
      <trkpt lat="43.041640" lon="-6.035040">
        <ele>1332.442</ele>
        <time>2020-05-22T09:43:50Z</time>
      </trkpt>
      <trkpt lat="43.041570" lon="-6.034960">
        <ele>1332.593</ele>
        <time>2020-05-22T09:44:10Z</time>
      </trkpt>
      <trkpt lat="43.041530" lon="-6.034920">
        <ele>1332.592</ele>
        <time>2020-05-22T09:44:30Z</time>
      </trkpt>
      <trkpt lat="43.041470" lon="-6.034860">
        <ele>1332.595</ele>
        <time>2020-05-22T09:44:50Z</time>
      </trkpt>
      <trkpt lat="43.041440" lon="-6.034830">
        <ele>1332.559</ele>
        <time>2020-05-22T09:45:10Z</time>
      </trkpt>
      <trkpt lat="43.041400" lon="-6.034800">
        <ele>1332.303</ele>
        <time>2020-05-22T09:45:30Z</time>
      </trkpt>
      <trkpt lat="43.041360" lon="-6.034770">
        <ele>1332.223</ele>
        <time>2020-05-22T09:45:50Z</time>
      </trkpt>
      <trkpt lat="43.041310" lon="-6.034740">
        <ele>1332.008</ele>
        <time>2020-05-22T09:46:10Z</time>
      </trkpt>
      <trkpt lat="43.041260" lon="-6.034720">
        <ele>1331.649</ele>
        <time>2020-05-22T09:46:30Z</time>
      </trkpt>
      <trkpt lat="43.041210" lon="-6.034700">
        <ele>1331.434</ele>
        <time>2020-05-22T09:46:50Z</time>
      </trkpt>
      <trkpt lat="43.041180" lon="-6.034690">
        <ele>1331.251</ele>
        <time>2020-05-22T09:47:10Z</time>
      </trkpt>
      <trkpt lat="43.041130" lon="-6.034680">
        <ele>1330.847</ele>
        <time>2020-05-22T09:47:30Z</time>
      </trkpt>
      <trkpt lat="43.041060" lon="-6.034670">
        <ele>1331.226</ele>
        <time>2020-05-22T09:47:50Z</time>
      </trkpt>
      <trkpt lat="43.041030" lon="-6.034680">
        <ele>1331.217</ele>
        <time>2020-05-22T09:48:10Z</time>
      </trkpt>
      <trkpt lat="43.040990" lon="-6.034680">
        <ele>1331.546</ele>
        <time>2020-05-22T09:48:30Z</time>
      </trkpt>
      <trkpt lat="43.040910" lon="-6.034700">
        <ele>1331.839</ele>
        <time>2020-05-22T09:48:50Z</time>
      </trkpt>
      <trkpt lat="43.040710" lon="-6.034760">
        <ele>1332.994</ele>
        <time>2020-05-22T09:49:10Z</time>
      </trkpt>
      <trkpt lat="43.040680" lon="-6.034770">
        <ele>1333.057</ele>
        <time>2020-05-22T09:49:30Z</time>
      </trkpt>
      <trkpt lat="43.040650" lon="-6.034780">
        <ele>1333.222</ele>
        <time>2020-05-22T09:49:50Z</time>
      </trkpt>
      <trkpt lat="43.040590" lon="-6.034800">
        <ele>1333.508</ele>
        <time>2020-05-22T09:50:10Z</time>
      </trkpt>
      <trkpt lat="43.040510" lon="-6.034840">
        <ele>1333.753</ele>
        <time>2020-05-22T09:50:30Z</time>
      </trkpt>
      <trkpt lat="43.040260" lon="-6.034960">
        <ele>1333.138</ele>
        <time>2020-05-22T09:50:50Z</time>
      </trkpt>
      <trkpt lat="43.040050" lon="-6.035070">
        <ele>1333.555</ele>
        <time>2020-05-22T09:51:10Z</time>
      </trkpt>
      <trkpt lat="43.039980" lon="-6.035100">
        <ele>1333.551</ele>
        <time>2020-05-22T09:51:30Z</time>
      </trkpt>
      <trkpt lat="43.039930" lon="-6.035120">
        <ele>1333.150</ele>
        <time>2020-05-22T09:51:50Z</time>
      </trkpt>
      <trkpt lat="43.039830" lon="-6.035140">
        <ele>1332.771</ele>
        <time>2020-05-22T09:52:10Z</time>
      </trkpt>
      <trkpt lat="43.039830" lon="-6.035150">
        <ele>1332.630</ele>
        <time>2020-05-22T09:52:30Z</time>
      </trkpt>
      <trkpt lat="43.039770" lon="-6.035150">
        <ele>1332.533</ele>
        <time>2020-05-22T09:52:50Z</time>
      </trkpt>
      <trkpt lat="43.039730" lon="-6.035150">
        <ele>1332.445</ele>
        <time>2020-05-22T09:53:10Z</time>
      </trkpt>
      <trkpt lat="43.039690" lon="-6.035150">
        <ele>1331.947</ele>
        <time>2020-05-22T09:53:30Z</time>
      </trkpt>
      <trkpt lat="43.039660" lon="-6.035140">
        <ele>1331.511</ele>
        <time>2020-05-22T09:53:50Z</time>
      </trkpt>
      <trkpt lat="43.039640" lon="-6.035130">
        <ele>1331.208</ele>
        <time>2020-05-22T09:54:10Z</time>
      </trkpt>
      <trkpt lat="43.039620" lon="-6.035110">
        <ele>1331.028</ele>
        <time>2020-05-22T09:54:30Z</time>
      </trkpt>
      <trkpt lat="43.039600" lon="-6.035080">
        <ele>1330.973</ele>
        <time>2020-05-22T09:54:50Z</time>
      </trkpt>
      <trkpt lat="43.039570" lon="-6.035050">
        <ele>1330.570</ele>
        <time>2020-05-22T09:55:10Z</time>
      </trkpt>
      <trkpt lat="43.039440" lon="-6.034860">
        <ele>1331.066</ele>
        <time>2020-05-22T09:55:30Z</time>
      </trkpt>
      <trkpt lat="43.039420" lon="-6.034830">
        <ele>1331.265</ele>
        <time>2020-05-22T09:55:50Z</time>
      </trkpt>
      <trkpt lat="43.039400" lon="-6.034800">
        <ele>1331.476</ele>
        <time>2020-05-22T09:56:10Z</time>
      </trkpt>
      <trkpt lat="43.039390" lon="-6.034790">
        <ele>1331.315</ele>
        <time>2020-05-22T09:56:30Z</time>
      </trkpt>
      <trkpt lat="43.039350" lon="-6.034740">
        <ele>1331.088</ele>
        <time>2020-05-22T09:56:50Z</time>
      </trkpt>
      <trkpt lat="43.039300" lon="-6.034680">
        <ele>1330.663</ele>
        <time>2020-05-22T09:57:10Z</time>
      </trkpt>
      <trkpt lat="43.039120" lon="-6.034500">
        <ele>1327.144</ele>
        <time>2020-05-22T09:57:30Z</time>
      </trkpt>
      <trkpt lat="43.038980" lon="-6.034370">
        <ele>1324.518</ele>
        <time>2020-05-22T09:57:50Z</time>
      </trkpt>
      <trkpt lat="43.038960" lon="-6.034350">
        <ele>1324.108</ele>
        <time>2020-05-22T09:58:10Z</time>
      </trkpt>
      <trkpt lat="43.038950" lon="-6.034330">
        <ele>1323.970</ele>
        <time>2020-05-22T09:58:30Z</time>
      </trkpt>
      <trkpt lat="43.038930" lon="-6.034310">
        <ele>1323.415</ele>
        <time>2020-05-22T09:58:50Z</time>
      </trkpt>
      <trkpt lat="43.038920" lon="-6.034280">
        <ele>1323.352</ele>
        <time>2020-05-22T09:59:10Z</time>
      </trkpt>
      <trkpt lat="43.038910" lon="-6.034250">
        <ele>1323.248</ele>
        <time>2020-05-22T09:59:30Z</time>
      </trkpt>
      <trkpt lat="43.038900" lon="-6.034220">
        <ele>1323.167</ele>
        <time>2020-05-22T09:59:50Z</time>
      </trkpt>
      <trkpt lat="43.038900" lon="-6.034180">
        <ele>1323.438</ele>
        <time>2020-05-22T10:00:10Z</time>
      </trkpt>
      <trkpt lat="43.038900" lon="-6.034150">
        <ele>1323.637</ele>
        <time>2020-05-22T10:00:30Z</time>
      </trkpt>
      <trkpt lat="43.038890" lon="-6.034130">
        <ele>1323.310</ele>
        <time>2020-05-22T10:00:50Z</time>
      </trkpt>
      <trkpt lat="43.038890" lon="-6.034090">
        <ele>1323.638</ele>
        <time>2020-05-22T10:01:10Z</time>
      </trkpt>
      <trkpt lat="43.038900" lon="-6.034030">
        <ele>1324.470</ele>
        <time>2020-05-22T10:01:30Z</time>
      </trkpt>
      <trkpt lat="43.038900" lon="-6.033960">
        <ele>1324.917</ele>
        <time>2020-05-22T10:01:50Z</time>
      </trkpt>
      <trkpt lat="43.038910" lon="-6.033880">
        <ele>1325.808</ele>
        <time>2020-05-22T10:02:10Z</time>
      </trkpt>
      <trkpt lat="43.038920" lon="-6.033870">
        <ele>1326.227</ele>
        <time>2020-05-22T10:02:30Z</time>
      </trkpt>
      <trkpt lat="43.038940" lon="-6.033720">
        <ele>1326.432</ele>
        <time>2020-05-22T10:02:50Z</time>
      </trkpt>
      <trkpt lat="43.038950" lon="-6.033670">
        <ele>1326.639</ele>
        <time>2020-05-22T10:03:10Z</time>
      </trkpt>
      <trkpt lat="43.038950" lon="-6.033640">
        <ele>1326.545</ele>
        <time>2020-05-22T10:03:30Z</time>
      </trkpt>
      <trkpt lat="43.038950" lon="-6.033590">
        <ele>1326.414</ele>
        <time>2020-05-22T10:03:50Z</time>
      </trkpt>
      <trkpt lat="43.038940" lon="-6.033560">
        <ele>1326.195</ele>
        <time>2020-05-22T10:04:10Z</time>
      </trkpt>
      <trkpt lat="43.038930" lon="-6.033530">
        <ele>1325.874</ele>
        <time>2020-05-22T10:04:30Z</time>
      </trkpt>
      <trkpt lat="43.038920" lon="-6.033500">
        <ele>1325.577</ele>
        <time>2020-05-22T10:04:50Z</time>
      </trkpt>
      <trkpt lat="43.038900" lon="-6.033470">
        <ele>1324.914</ele>
        <time>2020-05-22T10:05:10Z</time>
      </trkpt>
      <trkpt lat="43.038890" lon="-6.033450">
        <ele>1324.654</ele>
        <time>2020-05-22T10:05:30Z</time>
      </trkpt>
      <trkpt lat="43.038870" lon="-6.033430">
        <ele>1324.509</ele>
        <time>2020-05-22T10:05:50Z</time>
      </trkpt>
      <trkpt lat="43.038830" lon="-6.033390">
        <ele>1324.408</ele>
        <time>2020-05-22T10:06:10Z</time>
      </trkpt>
      <trkpt lat="43.038790" lon="-6.033360">
        <ele>1324.485</ele>
        <time>2020-05-22T10:06:30Z</time>
      </trkpt>
      <trkpt lat="43.038760" lon="-6.033340">
        <ele>1324.560</ele>
        <time>2020-05-22T10:06:50Z</time>
      </trkpt>
      <trkpt lat="43.038710" lon="-6.033320">
        <ele>1324.637</ele>
        <time>2020-05-22T10:07:10Z</time>
      </trkpt>
      <trkpt lat="43.038640" lon="-6.033290">
        <ele>1324.973</ele>
        <time>2020-05-22T10:07:30Z</time>
      </trkpt>
      <trkpt lat="43.038580" lon="-6.033260">
        <ele>1324.822</ele>
        <time>2020-05-22T10:07:50Z</time>
      </trkpt>
      <trkpt lat="43.038520" lon="-6.033240">
        <ele>1324.023</ele>
        <time>2020-05-22T10:08:10Z</time>
      </trkpt>
      <trkpt lat="43.038490" lon="-6.033220">
        <ele>1323.992</ele>
        <time>2020-05-22T10:08:30Z</time>
      </trkpt>
      <trkpt lat="43.038450" lon="-6.033200">
        <ele>1323.515</ele>
        <time>2020-05-22T10:08:50Z</time>
      </trkpt>
      <trkpt lat="43.038420" lon="-6.033170">
        <ele>1323.536</ele>
        <time>2020-05-22T10:09:10Z</time>
      </trkpt>
      <trkpt lat="43.038390" lon="-6.033130">
        <ele>1323.717</ele>
        <time>2020-05-22T10:09:30Z</time>
      </trkpt>
      <trkpt lat="43.038360" lon="-6.033100">
        <ele>1323.718</ele>
        <time>2020-05-22T10:09:50Z</time>
      </trkpt>
      <trkpt lat="43.038260" lon="-6.032950">
        <ele>1323.708</ele>
        <time>2020-05-22T10:10:10Z</time>
      </trkpt>
      <trkpt lat="43.038230" lon="-6.032890">
        <ele>1323.887</ele>
        <time>2020-05-22T10:10:30Z</time>
      </trkpt>
      <trkpt lat="43.038190" lon="-6.032840">
        <ele>1323.652</ele>
        <time>2020-05-22T10:10:50Z</time>
      </trkpt>
      <trkpt lat="43.038160" lon="-6.032790">
        <ele>1323.769</ele>
        <time>2020-05-22T10:11:10Z</time>
      </trkpt>
      <trkpt lat="43.038130" lon="-6.032750">
        <ele>1323.795</ele>
        <time>2020-05-22T10:11:30Z</time>
      </trkpt>
      <trkpt lat="43.038090" lon="-6.032710">
        <ele>1323.484</ele>
        <time>2020-05-22T10:11:50Z</time>
      </trkpt>
      <trkpt lat="43.038040" lon="-6.032670">
        <ele>1322.895</ele>
        <time>2020-05-22T10:12:10Z</time>
      </trkpt>
      <trkpt lat="43.038000" lon="-6.032620">
        <ele>1322.474</ele>
        <time>2020-05-22T10:12:30Z</time>
      </trkpt>
      <trkpt lat="43.037910" lon="-6.032550">
        <ele>1320.977</ele>
        <time>2020-05-22T10:12:50Z</time>
      </trkpt>
      <trkpt lat="43.037860" lon="-6.032510">
        <ele>1320.084</ele>
        <time>2020-05-22T10:13:10Z</time>
      </trkpt>
      <trkpt lat="43.037840" lon="-6.032500">
        <ele>1319.607</ele>
        <time>2020-05-22T10:13:30Z</time>
      </trkpt>
      <trkpt lat="43.037790" lon="-6.032460">
        <ele>1318.917</ele>
        <time>2020-05-22T10:13:50Z</time>
      </trkpt>
      <trkpt lat="43.037730" lon="-6.032430">
        <ele>1318.008</ele>
        <time>2020-05-22T10:14:10Z</time>
      </trkpt>
      <trkpt lat="43.037680" lon="-6.032400">
        <ele>1317.382</ele>
        <time>2020-05-22T10:14:30Z</time>
      </trkpt>
      <trkpt lat="43.037650" lon="-6.032390">
        <ele>1316.867</ele>
        <time>2020-05-22T10:14:50Z</time>
      </trkpt>
      <trkpt lat="43.037620" lon="-6.032380">
        <ele>1316.354</ele>
        <time>2020-05-22T10:15:10Z</time>
      </trkpt>
      <trkpt lat="43.037590" lon="-6.032370">
        <ele>1315.820</ele>
        <time>2020-05-22T10:15:30Z</time>
      </trkpt>
      <trkpt lat="43.037470" lon="-6.032360">
        <ele>1313.329</ele>
        <time>2020-05-22T10:15:50Z</time>
      </trkpt>
      <trkpt lat="43.037400" lon="-6.032360">
        <ele>1311.790</ele>
        <time>2020-05-22T10:16:10Z</time>
      </trkpt>
      <trkpt lat="43.037380" lon="-6.032350">
        <ele>1311.379</ele>
        <time>2020-05-22T10:16:30Z</time>
      </trkpt>
      <trkpt lat="43.037350" lon="-6.032340">
        <ele>1310.862</ele>
        <time>2020-05-22T10:16:50Z</time>
      </trkpt>
      <trkpt lat="43.037320" lon="-6.032330">
        <ele>1310.246</ele>
        <time>2020-05-22T10:17:10Z</time>
      </trkpt>
      <trkpt lat="43.037290" lon="-6.032310">
        <ele>1309.788</ele>
        <time>2020-05-22T10:17:30Z</time>
      </trkpt>
      <trkpt lat="43.037260" lon="-6.032280">
        <ele>1309.316</ele>
        <time>2020-05-22T10:17:50Z</time>
      </trkpt>
      <trkpt lat="43.037230" lon="-6.032260">
        <ele>1308.808</ele>
        <time>2020-05-22T10:18:10Z</time>
      </trkpt>
      <trkpt lat="43.037200" lon="-6.032230">
        <ele>1308.538</ele>
        <time>2020-05-22T10:18:30Z</time>
      </trkpt>
      <trkpt lat="43.037170" lon="-6.032190">
        <ele>1308.693</ele>
        <time>2020-05-22T10:18:50Z</time>
      </trkpt>
      <trkpt lat="43.037120" lon="-6.032110">
        <ele>1308.750</ele>
        <time>2020-05-22T10:19:10Z</time>
      </trkpt>
      <trkpt lat="43.037060" lon="-6.032000">
        <ele>1308.786</ele>
        <time>2020-05-22T10:19:30Z</time>
      </trkpt>
      <trkpt lat="43.037050" lon="-6.032000">
        <ele>1308.425</ele>
        <time>2020-05-22T10:19:50Z</time>
      </trkpt>
      <trkpt lat="43.036980" lon="-6.031890">
        <ele>1307.846</ele>
        <time>2020-05-22T10:20:10Z</time>
      </trkpt>
      <trkpt lat="43.036870" lon="-6.031740">
        <ele>1307.975</ele>
        <time>2020-05-22T10:20:30Z</time>
      </trkpt>
      <trkpt lat="43.036820" lon="-6.031670">
        <ele>1308.288</ele>
        <time>2020-05-22T10:20:50Z</time>
      </trkpt>
      <trkpt lat="43.036790" lon="-6.031620">
        <ele>1308.446</ele>
        <time>2020-05-22T10:21:10Z</time>
      </trkpt>
      <trkpt lat="43.036760" lon="-6.031580">
        <ele>1308.688</ele>
        <time>2020-05-22T10:21:30Z</time>
      </trkpt>
      <trkpt lat="43.036740" lon="-6.031520">
        <ele>1309.216</ele>
        <time>2020-05-22T10:21:50Z</time>
      </trkpt>
      <trkpt lat="43.036710" lon="-6.031440">
        <ele>1309.908</ele>
        <time>2020-05-22T10:22:10Z</time>
      </trkpt>
      <trkpt lat="43.036680" lon="-6.031340">
        <ele>1310.228</ele>
        <time>2020-05-22T10:22:30Z</time>
      </trkpt>
      <trkpt lat="43.036660" lon="-6.031270">
        <ele>1309.943</ele>
        <time>2020-05-22T10:22:50Z</time>
      </trkpt>
      <trkpt lat="43.036640" lon="-6.031220">
        <ele>1309.690</ele>
        <time>2020-05-22T10:23:10Z</time>
      </trkpt>
      <trkpt lat="43.036620" lon="-6.031180">
        <ele>1309.346</ele>
        <time>2020-05-22T10:23:30Z</time>
      </trkpt>
      <trkpt lat="43.036600" lon="-6.031130">
        <ele>1309.045</ele>
        <time>2020-05-22T10:23:50Z</time>
      </trkpt>
      <trkpt lat="43.036580" lon="-6.031090">
        <ele>1308.886</ele>
        <time>2020-05-22T10:24:10Z</time>
      </trkpt>
      <trkpt lat="43.036560" lon="-6.031050">
        <ele>1308.575</ele>
        <time>2020-05-22T10:24:30Z</time>
      </trkpt>
      <trkpt lat="43.036530" lon="-6.031020">
        <ele>1308.068</ele>
        <time>2020-05-22T10:24:50Z</time>
      </trkpt>
      <trkpt lat="43.036520" lon="-6.031010">
        <ele>1307.914</ele>
        <time>2020-05-22T10:25:10Z</time>
      </trkpt>
      <trkpt lat="43.036500" lon="-6.030970">
        <ele>1307.654</ele>
        <time>2020-05-22T10:25:30Z</time>
      </trkpt>
      <trkpt lat="43.036460" lon="-6.030930">
        <ele>1307.009</ele>
        <time>2020-05-22T10:25:50Z</time>
      </trkpt>
      <trkpt lat="43.036310" lon="-6.030800">
        <ele>1304.708</ele>
        <time>2020-05-22T10:26:10Z</time>
      </trkpt>
      <trkpt lat="43.036240" lon="-6.030740">
        <ele>1303.715</ele>
        <time>2020-05-22T10:26:30Z</time>
      </trkpt>
      <trkpt lat="43.036070" lon="-6.030590">
        <ele>1301.090</ele>
        <time>2020-05-22T10:26:50Z</time>
      </trkpt>
      <trkpt lat="43.036010" lon="-6.030540">
        <ele>1299.927</ele>
        <time>2020-05-22T10:27:10Z</time>
      </trkpt>
      <trkpt lat="43.035950" lon="-6.030480">
        <ele>1299.063</ele>
        <time>2020-05-22T10:27:30Z</time>
      </trkpt>
      <trkpt lat="43.035940" lon="-6.030460">
        <ele>1298.932</ele>
        <time>2020-05-22T10:27:50Z</time>
      </trkpt>
      <trkpt lat="43.035890" lon="-6.030400">
        <ele>1298.263</ele>
        <time>2020-05-22T10:28:10Z</time>
      </trkpt>
      <trkpt lat="43.035710" lon="-6.030180">
        <ele>1296.912</ele>
        <time>2020-05-22T10:28:30Z</time>
      </trkpt>
      <trkpt lat="43.035640" lon="-6.030110">
        <ele>1296.475</ele>
        <time>2020-05-22T10:28:50Z</time>
      </trkpt>
      <trkpt lat="43.035600" lon="-6.030060">
        <ele>1296.222</ele>
        <time>2020-05-22T10:29:10Z</time>
      </trkpt>
      <trkpt lat="43.035530" lon="-6.030000">
        <ele>1295.662</ele>
        <time>2020-05-22T10:29:30Z</time>
      </trkpt>
      <trkpt lat="43.035360" lon="-6.029860">
        <ele>1295.008</ele>
        <time>2020-05-22T10:29:50Z</time>
      </trkpt>
      <trkpt lat="43.035260" lon="-6.029790">
        <ele>1294.008</ele>
        <time>2020-05-22T10:30:10Z</time>
      </trkpt>
      <trkpt lat="43.035070" lon="-6.029630">
        <ele>1293.156</ele>
        <time>2020-05-22T10:30:30Z</time>
      </trkpt>
      <trkpt lat="43.035000" lon="-6.029580">
        <ele>1292.521</ele>
        <time>2020-05-22T10:30:50Z</time>
      </trkpt>
      <trkpt lat="43.034870" lon="-6.029460">
        <ele>1293.458</ele>
        <time>2020-05-22T10:31:10Z</time>
      </trkpt>
      <trkpt lat="43.034740" lon="-6.029330">
        <ele>1293.994</ele>
        <time>2020-05-22T10:31:30Z</time>
      </trkpt>
      <trkpt lat="43.034610" lon="-6.029200">
        <ele>1294.053</ele>
        <time>2020-05-22T10:31:50Z</time>
      </trkpt>
      <trkpt lat="43.034550" lon="-6.029150">
        <ele>1293.934</ele>
        <time>2020-05-22T10:32:10Z</time>
      </trkpt>
      <trkpt lat="43.034510" lon="-6.029110">
        <ele>1294.123</ele>
        <time>2020-05-22T10:32:30Z</time>
      </trkpt>
      <trkpt lat="43.034450" lon="-6.029060">
        <ele>1294.276</ele>
        <time>2020-05-22T10:32:50Z</time>
      </trkpt>
      <trkpt lat="43.034170" lon="-6.028870">
        <ele>1293.467</ele>
        <time>2020-05-22T10:33:10Z</time>
      </trkpt>
      <trkpt lat="43.034120" lon="-6.028840">
        <ele>1294.181</ele>
        <time>2020-05-22T10:33:30Z</time>
      </trkpt>
      <trkpt lat="43.034050" lon="-6.028800">
        <ele>1294.919</ele>
        <time>2020-05-22T10:33:50Z</time>
      </trkpt>
      <trkpt lat="43.033940" lon="-6.028750">
        <ele>1295.608</ele>
        <time>2020-05-22T10:34:10Z</time>
      </trkpt>
      <trkpt lat="43.033800" lon="-6.028690">
        <ele>1294.770</ele>
        <time>2020-05-22T10:34:30Z</time>
      </trkpt>
      <trkpt lat="43.033710" lon="-6.028650">
        <ele>1293.545</ele>
        <time>2020-05-22T10:34:50Z</time>
      </trkpt>
      <trkpt lat="43.033640" lon="-6.028620">
        <ele>1292.572</ele>
        <time>2020-05-22T10:35:10Z</time>
      </trkpt>
      <trkpt lat="43.033570" lon="-6.028590">
        <ele>1291.138</ele>
        <time>2020-05-22T10:35:30Z</time>
      </trkpt>
      <trkpt lat="43.033510" lon="-6.028570">
        <ele>1289.797</ele>
        <time>2020-05-22T10:35:50Z</time>
      </trkpt>
      <trkpt lat="43.033460" lon="-6.028550">
        <ele>1288.538</ele>
        <time>2020-05-22T10:36:10Z</time>
      </trkpt>
      <trkpt lat="43.033390" lon="-6.028540">
        <ele>1286.977</ele>
        <time>2020-05-22T10:36:30Z</time>
      </trkpt>
      <trkpt lat="43.033340" lon="-6.028530">
        <ele>1285.780</ele>
        <time>2020-05-22T10:36:50Z</time>
      </trkpt>
      <trkpt lat="43.033280" lon="-6.028530">
        <ele>1285.492</ele>
        <time>2020-05-22T10:37:10Z</time>
      </trkpt>
      <trkpt lat="43.033270" lon="-6.028530">
        <ele>1285.473</ele>
        <time>2020-05-22T10:37:30Z</time>
      </trkpt>
      <trkpt lat="43.033220" lon="-6.028540">
        <ele>1285.120</ele>
        <time>2020-05-22T10:37:50Z</time>
      </trkpt>
      <trkpt lat="43.033130" lon="-6.028550">
        <ele>1284.708</ele>
        <time>2020-05-22T10:38:10Z</time>
      </trkpt>
      <trkpt lat="43.032990" lon="-6.028580">
        <ele>1284.653</ele>
        <time>2020-05-22T10:38:30Z</time>
      </trkpt>
      <trkpt lat="43.032940" lon="-6.028590">
        <ele>1284.788</ele>
        <time>2020-05-22T10:38:50Z</time>
      </trkpt>
      <trkpt lat="43.032900" lon="-6.028590">
        <ele>1284.915</ele>
        <time>2020-05-22T10:39:10Z</time>
      </trkpt>
      <trkpt lat="43.032870" lon="-6.028590">
        <ele>1285.181</ele>
        <time>2020-05-22T10:39:30Z</time>
      </trkpt>
      <trkpt lat="43.032830" lon="-6.028580">
        <ele>1285.560</ele>
        <time>2020-05-22T10:39:50Z</time>
      </trkpt>
      <trkpt lat="43.032790" lon="-6.028580">
        <ele>1285.741</ele>
        <time>2020-05-22T10:40:10Z</time>
      </trkpt>
      <trkpt lat="43.032730" lon="-6.028570">
        <ele>1286.420</ele>
        <time>2020-05-22T10:40:30Z</time>
      </trkpt>
      <trkpt lat="43.032690" lon="-6.028550">
        <ele>1287.123</ele>
        <time>2020-05-22T10:40:50Z</time>
      </trkpt>
      <trkpt lat="43.032560" lon="-6.028510">
        <ele>1288.876</ele>
        <time>2020-05-22T10:41:10Z</time>
      </trkpt>
      <trkpt lat="43.032390" lon="-6.028450">
        <ele>1290.090</ele>
        <time>2020-05-22T10:41:30Z</time>
      </trkpt>
      <trkpt lat="43.032180" lon="-6.028370">
        <ele>1289.119</ele>
        <time>2020-05-22T10:41:50Z</time>
      </trkpt>
      <trkpt lat="43.032130" lon="-6.028340">
        <ele>1288.608</ele>
        <time>2020-05-22T10:42:10Z</time>
      </trkpt>
      <trkpt lat="43.032050" lon="-6.028310">
        <ele>1288.281</ele>
        <time>2020-05-22T10:42:30Z</time>
      </trkpt>
      <trkpt lat="43.031970" lon="-6.028270">
        <ele>1288.436</ele>
        <time>2020-05-22T10:42:50Z</time>
      </trkpt>
      <trkpt lat="43.031900" lon="-6.028230">
        <ele>1289.123</ele>
        <time>2020-05-22T10:43:10Z</time>
      </trkpt>
      <trkpt lat="43.031880" lon="-6.028220">
        <ele>1289.339</ele>
        <time>2020-05-22T10:43:30Z</time>
      </trkpt>
      <trkpt lat="43.031840" lon="-6.028190">
        <ele>1290.198</ele>
        <time>2020-05-22T10:43:50Z</time>
      </trkpt>
      <trkpt lat="43.031790" lon="-6.028160">
        <ele>1290.719</ele>
        <time>2020-05-22T10:44:10Z</time>
      </trkpt>
      <trkpt lat="43.031750" lon="-6.028120">
        <ele>1291.738</ele>
        <time>2020-05-22T10:44:30Z</time>
      </trkpt>
      <trkpt lat="43.031700" lon="-6.028080">
        <ele>1292.531</ele>
        <time>2020-05-22T10:44:50Z</time>
      </trkpt>
      <trkpt lat="43.031660" lon="-6.028030">
        <ele>1294.087</ele>
        <time>2020-05-22T10:45:10Z</time>
      </trkpt>
      <trkpt lat="43.031620" lon="-6.027980">
        <ele>1295.242</ele>
        <time>2020-05-22T10:45:30Z</time>
      </trkpt>
      <trkpt lat="43.031580" lon="-6.027940">
        <ele>1295.926</ele>
        <time>2020-05-22T10:45:50Z</time>
      </trkpt>
      <trkpt lat="43.031530" lon="-6.027880">
        <ele>1296.908</ele>
        <time>2020-05-22T10:46:10Z</time>
      </trkpt>
      <trkpt lat="43.031500" lon="-6.027830">
        <ele>1297.882</ele>
        <time>2020-05-22T10:46:30Z</time>
      </trkpt>
      <trkpt lat="43.031460" lon="-6.027770">
        <ele>1298.527</ele>
        <time>2020-05-22T10:46:50Z</time>
      </trkpt>
      <trkpt lat="43.031450" lon="-6.027760">
        <ele>1298.544</ele>
        <time>2020-05-22T10:47:10Z</time>
      </trkpt>
      <trkpt lat="43.031370" lon="-6.027650">
        <ele>1298.660</ele>
        <time>2020-05-22T10:47:30Z</time>
      </trkpt>
      <trkpt lat="43.031340" lon="-6.027590">
        <ele>1299.029</ele>
        <time>2020-05-22T10:47:50Z</time>
      </trkpt>
      <trkpt lat="43.031320" lon="-6.027570">
        <ele>1298.810</ele>
        <time>2020-05-22T10:48:10Z</time>
      </trkpt>
      <trkpt lat="43.031300" lon="-6.027520">
        <ele>1299.319</ele>
        <time>2020-05-22T10:48:30Z</time>
      </trkpt>
      <trkpt lat="43.031280" lon="-6.027470">
        <ele>1299.762</ele>
        <time>2020-05-22T10:48:50Z</time>
      </trkpt>
      <trkpt lat="43.031260" lon="-6.027410">
        <ele>1300.312</ele>
        <time>2020-05-22T10:49:10Z</time>
      </trkpt>
      <trkpt lat="43.031240" lon="-6.027360">
        <ele>1300.732</ele>
        <time>2020-05-22T10:49:30Z</time>
      </trkpt>
      <trkpt lat="43.031240" lon="-6.027350">
        <ele>1300.905</ele>
        <time>2020-05-22T10:49:50Z</time>
      </trkpt>
      <trkpt lat="43.031230" lon="-6.027290">
        <ele>1301.808</ele>
        <time>2020-05-22T10:50:10Z</time>
      </trkpt>
      <trkpt lat="43.031210" lon="-6.027220">
        <ele>1302.625</ele>
        <time>2020-05-22T10:50:30Z</time>
      </trkpt>
      <trkpt lat="43.031200" lon="-6.027130">
        <ele>1303.160</ele>
        <time>2020-05-22T10:50:50Z</time>
      </trkpt>
      <trkpt lat="43.031180" lon="-6.026990">
        <ele>1303.667</ele>
        <time>2020-05-22T10:51:10Z</time>
      </trkpt>
      <trkpt lat="43.031170" lon="-6.026900">
        <ele>1303.853</ele>
        <time>2020-05-22T10:51:30Z</time>
      </trkpt>
      <trkpt lat="43.031170" lon="-6.026820">
        <ele>1304.252</ele>
        <time>2020-05-22T10:51:50Z</time>
      </trkpt>
      <trkpt lat="43.031160" lon="-6.026690">
        <ele>1304.323</ele>
        <time>2020-05-22T10:52:10Z</time>
      </trkpt>
      <trkpt lat="43.031160" lon="-6.026570">
        <ele>1304.992</ele>
        <time>2020-05-22T10:52:30Z</time>
      </trkpt>
      <trkpt lat="43.031170" lon="-6.026410">
        <ele>1306.115</ele>
        <time>2020-05-22T10:52:50Z</time>
      </trkpt>
      <trkpt lat="43.031180" lon="-6.026390">
        <ele>1306.737</ele>
        <time>2020-05-22T10:53:10Z</time>
      </trkpt>
      <trkpt lat="43.031190" lon="-6.026170">
        <ele>1307.549</ele>
        <time>2020-05-22T10:53:30Z</time>
      </trkpt>
      <trkpt lat="43.031210" lon="-6.025860">
        <ele>1310.813</ele>
        <time>2020-05-22T10:53:50Z</time>
      </trkpt>
      <trkpt lat="43.031220" lon="-6.025640">
        <ele>1313.608</ele>
        <time>2020-05-22T10:54:10Z</time>
      </trkpt>
      <trkpt lat="43.031220" lon="-6.025540">
        <ele>1314.727</ele>
        <time>2020-05-22T10:54:30Z</time>
      </trkpt>
      <trkpt lat="43.031220" lon="-6.025460">
        <ele>1315.512</ele>
        <time>2020-05-22T10:54:50Z</time>
      </trkpt>
      <trkpt lat="43.031220" lon="-6.025410">
        <ele>1316.139</ele>
        <time>2020-05-22T10:55:10Z</time>
      </trkpt>
      <trkpt lat="43.031220" lon="-6.025400">
        <ele>1316.295</ele>
        <time>2020-05-22T10:55:30Z</time>
      </trkpt>
      <trkpt lat="43.031210" lon="-6.025340">
        <ele>1316.384</ele>
        <time>2020-05-22T10:55:50Z</time>
      </trkpt>
      <trkpt lat="43.031200" lon="-6.025290">
        <ele>1316.335</ele>
        <time>2020-05-22T10:56:10Z</time>
      </trkpt>
      <trkpt lat="43.031180" lon="-6.025230">
        <ele>1315.934</ele>
        <time>2020-05-22T10:56:30Z</time>
      </trkpt>
      <trkpt lat="43.031170" lon="-6.025180">
        <ele>1315.917</ele>
        <time>2020-05-22T10:56:50Z</time>
      </trkpt>
      <trkpt lat="43.031160" lon="-6.025160">
        <ele>1315.725</ele>
        <time>2020-05-22T10:57:10Z</time>
      </trkpt>
      <trkpt lat="43.031120" lon="-6.025000">
        <ele>1315.426</ele>
        <time>2020-05-22T10:57:30Z</time>
      </trkpt>
      <trkpt lat="43.031100" lon="-6.024940">
        <ele>1314.708</ele>
        <time>2020-05-22T10:57:50Z</time>
      </trkpt>
      <trkpt lat="43.031100" lon="-6.024880">
        <ele>1314.908</ele>
        <time>2020-05-22T10:58:10Z</time>
      </trkpt>
      <trkpt lat="43.031100" lon="-6.024810">
        <ele>1315.236</ele>
        <time>2020-05-22T10:58:30Z</time>
      </trkpt>
      <trkpt lat="43.031100" lon="-6.024720">
        <ele>1315.671</ele>
        <time>2020-05-22T10:58:50Z</time>
      </trkpt>
      <trkpt lat="43.031130" lon="-6.023940">
        <ele>1318.778</ele>
        <time>2020-05-22T10:59:10Z</time>
      </trkpt>
      <trkpt lat="43.031130" lon="-6.023720">
        <ele>1319.064</ele>
        <time>2020-05-22T10:59:30Z</time>
      </trkpt>
      <trkpt lat="43.031130" lon="-6.023710">
        <ele>1319.063</ele>
        <time>2020-05-22T10:59:50Z</time>
      </trkpt>
      <trkpt lat="43.031140" lon="-6.023490">
        <ele>1319.774</ele>
        <time>2020-05-22T11:00:10Z</time>
      </trkpt>
      <trkpt lat="43.031140" lon="-6.023300">
        <ele>1319.843</ele>
        <time>2020-05-22T11:00:30Z</time>
      </trkpt>
      <trkpt lat="43.031160" lon="-6.023040">
        <ele>1321.636</ele>
        <time>2020-05-22T11:00:50Z</time>
      </trkpt>
      <trkpt lat="43.031180" lon="-6.022720">
        <ele>1324.448</ele>
        <time>2020-05-22T11:01:10Z</time>
      </trkpt>
      <trkpt lat="43.031240" lon="-6.021940">
        <ele>1326.361</ele>
        <time>2020-05-22T11:01:30Z</time>
      </trkpt>
      <trkpt lat="43.031260" lon="-6.021770">
        <ele>1327.717</ele>
        <time>2020-05-22T11:01:50Z</time>
      </trkpt>
      <trkpt lat="43.031280" lon="-6.021560">
        <ele>1329.508</ele>
        <time>2020-05-22T11:02:10Z</time>
      </trkpt>
      <trkpt lat="43.031320" lon="-6.021300">
        <ele>1332.148</ele>
        <time>2020-05-22T11:02:30Z</time>
      </trkpt>
      <trkpt lat="43.031330" lon="-6.021280">
        <ele>1332.613</ele>
        <time>2020-05-22T11:02:50Z</time>
      </trkpt>
      <trkpt lat="43.031360" lon="-6.021090">
        <ele>1333.180</ele>
        <time>2020-05-22T11:03:10Z</time>
      </trkpt>
      <trkpt lat="43.031400" lon="-6.020900">
        <ele>1333.426</ele>
        <time>2020-05-22T11:03:30Z</time>
      </trkpt>
      <trkpt lat="43.031480" lon="-6.020570">
        <ele>1337.215</ele>
        <time>2020-05-22T11:03:50Z</time>
      </trkpt>
      <trkpt lat="43.031620" lon="-6.019950">
        <ele>1341.866</ele>
        <time>2020-05-22T11:04:10Z</time>
      </trkpt>
      <trkpt lat="43.031690" lon="-6.019550">
        <ele>1343.995</ele>
        <time>2020-05-22T11:04:30Z</time>
      </trkpt>
      <trkpt lat="43.031710" lon="-6.019440">
        <ele>1344.628</ele>
        <time>2020-05-22T11:04:50Z</time>
      </trkpt>
      <trkpt lat="43.031720" lon="-6.019400">
        <ele>1344.941</ele>
        <time>2020-05-22T11:05:10Z</time>
      </trkpt>
      <trkpt lat="43.031720" lon="-6.019380">
        <ele>1344.881</ele>
        <time>2020-05-22T11:05:30Z</time>
      </trkpt>
      <trkpt lat="43.031720" lon="-6.019360">
        <ele>1344.809</ele>
        <time>2020-05-22T11:05:50Z</time>
      </trkpt>
      <trkpt lat="43.031720" lon="-6.019330">
        <ele>1344.808</ele>
        <time>2020-05-22T11:06:10Z</time>
      </trkpt>
      <trkpt lat="43.031720" lon="-6.019270">
        <ele>1344.748</ele>
        <time>2020-05-22T11:06:30Z</time>
      </trkpt>
      <trkpt lat="43.031710" lon="-6.019210">
        <ele>1344.333</ele>
        <time>2020-05-22T11:06:50Z</time>
      </trkpt>
      <trkpt lat="43.031700" lon="-6.019160">
        <ele>1343.910</ele>
        <time>2020-05-22T11:07:10Z</time>
      </trkpt>
      <trkpt lat="43.031700" lon="-6.019140">
        <ele>1343.946</ele>
        <time>2020-05-22T11:07:30Z</time>
      </trkpt>
      <trkpt lat="43.031680" lon="-6.019080">
        <ele>1343.195</ele>
        <time>2020-05-22T11:07:50Z</time>
      </trkpt>
      <trkpt lat="43.031580" lon="-6.018830">
        <ele>1339.316</ele>
        <time>2020-05-22T11:08:10Z</time>
      </trkpt>
      <trkpt lat="43.031560" lon="-6.018770">
        <ele>1338.785</ele>
        <time>2020-05-22T11:08:30Z</time>
      </trkpt>
      <trkpt lat="43.031550" lon="-6.018720">
        <ele>1338.598</ele>
        <time>2020-05-22T11:08:50Z</time>
      </trkpt>
      <trkpt lat="43.031540" lon="-6.018670">
        <ele>1338.398</ele>
        <time>2020-05-22T11:09:10Z</time>
      </trkpt>
      <trkpt lat="43.031540" lon="-6.018640">
        <ele>1338.315</ele>
        <time>2020-05-22T11:09:30Z</time>
      </trkpt>
      <trkpt lat="43.031530" lon="-6.018600">
        <ele>1338.126</ele>
        <time>2020-05-22T11:09:50Z</time>
      </trkpt>
      <trkpt lat="43.031530" lon="-6.018570">
        <ele>1338.108</ele>
        <time>2020-05-22T11:10:10Z</time>
      </trkpt>
      <trkpt lat="43.031530" lon="-6.018530">
        <ele>1338.263</ele>
        <time>2020-05-22T11:10:30Z</time>
      </trkpt>
      <trkpt lat="43.031530" lon="-6.018490">
        <ele>1338.388</ele>
        <time>2020-05-22T11:10:50Z</time>
      </trkpt>
      <trkpt lat="43.031540" lon="-6.018450">
        <ele>1338.615</ele>
        <time>2020-05-22T11:11:10Z</time>
      </trkpt>
      <trkpt lat="43.031550" lon="-6.018410">
        <ele>1338.951</ele>
        <time>2020-05-22T11:11:30Z</time>
      </trkpt>
      <trkpt lat="43.031560" lon="-6.018360">
        <ele>1339.370</ele>
        <time>2020-05-22T11:11:50Z</time>
      </trkpt>
      <trkpt lat="43.031600" lon="-6.018220">
        <ele>1339.911</ele>
        <time>2020-05-22T11:12:10Z</time>
      </trkpt>
      <trkpt lat="43.031730" lon="-6.017820">
        <ele>1344.420</ele>
        <time>2020-05-22T11:12:30Z</time>
      </trkpt>
      <trkpt lat="43.031770" lon="-6.017720">
        <ele>1346.463</ele>
        <time>2020-05-22T11:12:50Z</time>
      </trkpt>
      <trkpt lat="43.031800" lon="-6.017630">
        <ele>1348.111</ele>
        <time>2020-05-22T11:13:10Z</time>
      </trkpt>
      <trkpt lat="43.031830" lon="-6.017580">
        <ele>1349.121</ele>
        <time>2020-05-22T11:13:30Z</time>
      </trkpt>
      <trkpt lat="43.031870" lon="-6.017510">
        <ele>1350.303</ele>
        <time>2020-05-22T11:13:50Z</time>
      </trkpt>
      <trkpt lat="43.031910" lon="-6.017460">
        <ele>1351.208</ele>
        <time>2020-05-22T11:14:10Z</time>
      </trkpt>
      <trkpt lat="43.031950" lon="-6.017410">
        <ele>1352.025</ele>
        <time>2020-05-22T11:14:30Z</time>
      </trkpt>
      <trkpt lat="43.031990" lon="-6.017370">
        <ele>1352.480</ele>
        <time>2020-05-22T11:14:50Z</time>
      </trkpt>
      <trkpt lat="43.032150" lon="-6.017210">
        <ele>1352.657</ele>
        <time>2020-05-22T11:15:10Z</time>
      </trkpt>
      <trkpt lat="43.032210" lon="-6.017150">
        <ele>1352.163</ele>
        <time>2020-05-22T11:15:30Z</time>
      </trkpt>
      <trkpt lat="43.032270" lon="-6.017100">
        <ele>1352.052</ele>
        <time>2020-05-22T11:15:50Z</time>
      </trkpt>
      <trkpt lat="43.032300" lon="-6.017080">
        <ele>1352.083</ele>
        <time>2020-05-22T11:16:10Z</time>
      </trkpt>
      <trkpt lat="43.032340" lon="-6.017050">
        <ele>1351.932</ele>
        <time>2020-05-22T11:16:30Z</time>
      </trkpt>
      <trkpt lat="43.032337" lon="-6.017051">
        <ele>1351.995</ele>
        <time>2020-05-22T11:16:50Z</time>
      </trkpt>
      <trkpt lat="43.032340" lon="-6.017120">
        <ele>1352.197</ele>
        <time>2020-05-22T11:17:10Z</time>
      </trkpt>
      <trkpt lat="43.032340" lon="-6.017170">
        <ele>1352.323</ele>
        <time>2020-05-22T11:17:30Z</time>
      </trkpt>
      <trkpt lat="43.032350" lon="-6.017210">
        <ele>1352.425</ele>
        <time>2020-05-22T11:17:50Z</time>
      </trkpt>
      <trkpt lat="43.032360" lon="-6.017260">
        <ele>1352.608</ele>
        <time>2020-05-22T11:18:10Z</time>
      </trkpt>
      <trkpt lat="43.032380" lon="-6.017300">
        <ele>1352.843</ele>
        <time>2020-05-22T11:18:30Z</time>
      </trkpt>
      <trkpt lat="43.032390" lon="-6.017340">
        <ele>1353.018</ele>
        <time>2020-05-22T11:18:50Z</time>
      </trkpt>
      <trkpt lat="43.032400" lon="-6.017360">
        <ele>1353.115</ele>
        <time>2020-05-22T11:19:10Z</time>
      </trkpt>
      <trkpt lat="43.032430" lon="-6.017400">
        <ele>1353.411</ele>
        <time>2020-05-22T11:19:30Z</time>
      </trkpt>
      <trkpt lat="43.032470" lon="-6.017440">
        <ele>1353.710</ele>
        <time>2020-05-22T11:19:50Z</time>
      </trkpt>
      <trkpt lat="43.032510" lon="-6.017480">
        <ele>1354.051</ele>
        <time>2020-05-22T11:20:10Z</time>
      </trkpt>
      <trkpt lat="43.032540" lon="-6.017490">
        <ele>1354.350</ele>
        <time>2020-05-22T11:20:30Z</time>
      </trkpt>
      <trkpt lat="43.032570" lon="-6.017500">
        <ele>1354.563</ele>
        <time>2020-05-22T11:20:50Z</time>
      </trkpt>
      <trkpt lat="43.032600" lon="-6.017510">
        <ele>1354.842</ele>
        <time>2020-05-22T11:21:10Z</time>
      </trkpt>
      <trkpt lat="43.032620" lon="-6.017510">
        <ele>1355.022</ele>
        <time>2020-05-22T11:21:30Z</time>
      </trkpt>
      <trkpt lat="43.032650" lon="-6.017510">
        <ele>1355.214</ele>
        <time>2020-05-22T11:21:50Z</time>
      </trkpt>
      <trkpt lat="43.032680" lon="-6.017510">
        <ele>1355.408</ele>
        <time>2020-05-22T11:22:10Z</time>
      </trkpt>
      <trkpt lat="43.032710" lon="-6.017500">
        <ele>1355.568</ele>
        <time>2020-05-22T11:22:30Z</time>
      </trkpt>
      <trkpt lat="43.032740" lon="-6.017480">
        <ele>1355.753</ele>
        <time>2020-05-22T11:22:50Z</time>
      </trkpt>
      <trkpt lat="43.032770" lon="-6.017460">
        <ele>1355.850</ele>
        <time>2020-05-22T11:23:10Z</time>
      </trkpt>
      <trkpt lat="43.032790" lon="-6.017440">
        <ele>1356.016</ele>
        <time>2020-05-22T11:23:30Z</time>
      </trkpt>
      <trkpt lat="43.032810" lon="-6.017420">
        <ele>1356.375</ele>
        <time>2020-05-22T11:23:50Z</time>
      </trkpt>
      <trkpt lat="43.032840" lon="-6.017380">
        <ele>1356.786</ele>
        <time>2020-05-22T11:24:10Z</time>
      </trkpt>
      <trkpt lat="43.032860" lon="-6.017340">
        <ele>1356.975</ele>
        <time>2020-05-22T11:24:30Z</time>
      </trkpt>
      <trkpt lat="43.032950" lon="-6.017190">
        <ele>1357.948</ele>
        <time>2020-05-22T11:24:50Z</time>
      </trkpt>
      <trkpt lat="43.032990" lon="-6.017140">
        <ele>1358.382</ele>
        <time>2020-05-22T11:25:10Z</time>
      </trkpt>
      <trkpt lat="43.033020" lon="-6.017100">
        <ele>1358.543</ele>
        <time>2020-05-22T11:25:30Z</time>
      </trkpt>
      <trkpt lat="43.033050" lon="-6.017060">
        <ele>1358.717</ele>
        <time>2020-05-22T11:25:50Z</time>
      </trkpt>
      <trkpt lat="43.033110" lon="-6.017010">
        <ele>1359.508</ele>
        <time>2020-05-22T11:26:10Z</time>
      </trkpt>
      <trkpt lat="43.033180" lon="-6.016960">
        <ele>1360.462</ele>
        <time>2020-05-22T11:26:30Z</time>
      </trkpt>
      <trkpt lat="43.033260" lon="-6.016900">
        <ele>1360.737</ele>
        <time>2020-05-22T11:26:50Z</time>
      </trkpt>
      <trkpt lat="43.033330" lon="-6.016860">
        <ele>1361.114</ele>
        <time>2020-05-22T11:27:10Z</time>
      </trkpt>
      <trkpt lat="43.033420" lon="-6.016800">
        <ele>1362.150</ele>
        <time>2020-05-22T11:27:30Z</time>
      </trkpt>
      <trkpt lat="43.033670" lon="-6.016690">
        <ele>1365.689</ele>
        <time>2020-05-22T11:27:50Z</time>
      </trkpt>
      <trkpt lat="43.033750" lon="-6.016640">
        <ele>1366.920</ele>
        <time>2020-05-22T11:28:10Z</time>
      </trkpt>
      <trkpt lat="43.033800" lon="-6.016610">
        <ele>1367.779</ele>
        <time>2020-05-22T11:28:30Z</time>
      </trkpt>
      <trkpt lat="43.033840" lon="-6.016580">
        <ele>1368.112</ele>
        <time>2020-05-22T11:28:50Z</time>
      </trkpt>
      <trkpt lat="43.033880" lon="-6.016550">
        <ele>1368.494</ele>
        <time>2020-05-22T11:29:10Z</time>
      </trkpt>
      <trkpt lat="43.033930" lon="-6.016490">
        <ele>1368.457</ele>
        <time>2020-05-22T11:29:30Z</time>
      </trkpt>
      <trkpt lat="43.033980" lon="-6.016430">
        <ele>1368.522</ele>
        <time>2020-05-22T11:29:50Z</time>
      </trkpt>
      <trkpt lat="43.034020" lon="-6.016390">
        <ele>1368.808</ele>
        <time>2020-05-22T11:30:10Z</time>
      </trkpt>
      <trkpt lat="43.034070" lon="-6.016330">
        <ele>1369.043</ele>
        <time>2020-05-22T11:30:30Z</time>
      </trkpt>
      <trkpt lat="43.034110" lon="-6.016260">
        <ele>1368.718</ele>
        <time>2020-05-22T11:30:50Z</time>
      </trkpt>
      <trkpt lat="43.034300" lon="-6.015990">
        <ele>1369.995</ele>
        <time>2020-05-22T11:31:10Z</time>
      </trkpt>
      <trkpt lat="43.034370" lon="-6.015870">
        <ele>1370.321</ele>
        <time>2020-05-22T11:31:30Z</time>
      </trkpt>
      <trkpt lat="43.034400" lon="-6.015790">
        <ele>1370.060</ele>
        <time>2020-05-22T11:31:50Z</time>
      </trkpt>
      <trkpt lat="43.034440" lon="-6.015710">
        <ele>1370.151</ele>
        <time>2020-05-22T11:32:10Z</time>
      </trkpt>
      <trkpt lat="43.034480" lon="-6.015610">
        <ele>1370.290</ele>
        <time>2020-05-22T11:32:30Z</time>
      </trkpt>
      <trkpt lat="43.034510" lon="-6.015520">
        <ele>1370.363</ele>
        <time>2020-05-22T11:32:50Z</time>
      </trkpt>
      <trkpt lat="43.034540" lon="-6.015420">
        <ele>1370.657</ele>
        <time>2020-05-22T11:33:10Z</time>
      </trkpt>
      <trkpt lat="43.034570" lon="-6.015330">
        <ele>1371.000</ele>
        <time>2020-05-22T11:33:30Z</time>
      </trkpt>
      <trkpt lat="43.034600" lon="-6.015240">
        <ele>1371.720</ele>
        <time>2020-05-22T11:33:50Z</time>
      </trkpt>
      <trkpt lat="43.034630" lon="-6.015110">
        <ele>1372.508</ele>
        <time>2020-05-22T11:34:10Z</time>
      </trkpt>
      <trkpt lat="43.034660" lon="-6.014980">
        <ele>1372.989</ele>
        <time>2020-05-22T11:34:30Z</time>
      </trkpt>
      <trkpt lat="43.034700" lon="-6.014810">
        <ele>1372.434</ele>
        <time>2020-05-22T11:34:50Z</time>
      </trkpt>
      <trkpt lat="43.034720" lon="-6.014660">
        <ele>1371.551</ele>
        <time>2020-05-22T11:35:10Z</time>
      </trkpt>
      <trkpt lat="43.034740" lon="-6.014440">
        <ele>1370.627</ele>
        <time>2020-05-22T11:35:30Z</time>
      </trkpt>
      <trkpt lat="43.034760" lon="-6.014340">
        <ele>1370.736</ele>
        <time>2020-05-22T11:35:50Z</time>
      </trkpt>
      <trkpt lat="43.034770" lon="-6.014230">
        <ele>1370.517</ele>
        <time>2020-05-22T11:36:10Z</time>
      </trkpt>
      <trkpt lat="43.034780" lon="-6.014210">
        <ele>1370.716</ele>
        <time>2020-05-22T11:36:30Z</time>
      </trkpt>
      <trkpt lat="43.034790" lon="-6.014140">
        <ele>1370.689</ele>
        <time>2020-05-22T11:36:50Z</time>
      </trkpt>
      <trkpt lat="43.034820" lon="-6.014070">
        <ele>1371.212</ele>
        <time>2020-05-22T11:37:10Z</time>
      </trkpt>
      <trkpt lat="43.034840" lon="-6.014000">
        <ele>1371.632</ele>
        <time>2020-05-22T11:37:30Z</time>
      </trkpt>
      <trkpt lat="43.034870" lon="-6.013930">
        <ele>1372.305</ele>
        <time>2020-05-22T11:37:50Z</time>
      </trkpt>
      <trkpt lat="43.034910" lon="-6.013870">
        <ele>1373.308</ele>
        <time>2020-05-22T11:38:10Z</time>
      </trkpt>
      <trkpt lat="43.034940" lon="-6.013810">
        <ele>1373.755</ele>
        <time>2020-05-22T11:38:30Z</time>
      </trkpt>
      <trkpt lat="43.035070" lon="-6.013610">
        <ele>1375.220</ele>
        <time>2020-05-22T11:38:50Z</time>
      </trkpt>
      <trkpt lat="43.035170" lon="-6.013480">
        <ele>1375.287</ele>
        <time>2020-05-22T11:39:10Z</time>
      </trkpt>
      <trkpt lat="43.035230" lon="-6.013400">
        <ele>1375.153</ele>
        <time>2020-05-22T11:39:30Z</time>
      </trkpt>
      <trkpt lat="43.035270" lon="-6.013330">
        <ele>1374.892</ele>
        <time>2020-05-22T11:39:50Z</time>
      </trkpt>
      <trkpt lat="43.035310" lon="-6.013250">
        <ele>1375.033</ele>
        <time>2020-05-22T11:40:10Z</time>
      </trkpt>
      <trkpt lat="43.035360" lon="-6.013160">
        <ele>1375.412</ele>
        <time>2020-05-22T11:40:30Z</time>
      </trkpt>
      <trkpt lat="43.035460" lon="-6.012940">
        <ele>1376.545</ele>
        <time>2020-05-22T11:40:50Z</time>
      </trkpt>
      <trkpt lat="43.035520" lon="-6.012800">
        <ele>1377.351</ele>
        <time>2020-05-22T11:41:10Z</time>
      </trkpt>
      <trkpt lat="43.035580" lon="-6.012690">
        <ele>1378.501</ele>
        <time>2020-05-22T11:41:30Z</time>
      </trkpt>
      <trkpt lat="43.035630" lon="-6.012620">
        <ele>1379.311</ele>
        <time>2020-05-22T11:41:50Z</time>
      </trkpt>
      <trkpt lat="43.035660" lon="-6.012560">
        <ele>1379.708</ele>
        <time>2020-05-22T11:42:10Z</time>
      </trkpt>
      <trkpt lat="43.035730" lon="-6.012490">
        <ele>1380.579</ele>
        <time>2020-05-22T11:42:30Z</time>
      </trkpt>
      <trkpt lat="43.035900" lon="-6.012310">
        <ele>1381.774</ele>
        <time>2020-05-22T11:42:50Z</time>
      </trkpt>
      <trkpt lat="43.035920" lon="-6.012290">
        <ele>1381.891</ele>
        <time>2020-05-22T11:43:10Z</time>
      </trkpt>
      <trkpt lat="43.036070" lon="-6.012150">
        <ele>1382.677</ele>
        <time>2020-05-22T11:43:30Z</time>
      </trkpt>
      <trkpt lat="43.036100" lon="-6.012130">
        <ele>1382.816</ele>
        <time>2020-05-22T11:43:50Z</time>
      </trkpt>
      <trkpt lat="43.036140" lon="-6.012100">
        <ele>1383.197</ele>
        <time>2020-05-22T11:44:10Z</time>
      </trkpt>
      <trkpt lat="43.036190" lon="-6.012080">
        <ele>1383.686</ele>
        <time>2020-05-22T11:44:30Z</time>
      </trkpt>
      <trkpt lat="43.036250" lon="-6.012070">
        <ele>1384.499</ele>
        <time>2020-05-22T11:44:50Z</time>
      </trkpt>
      <trkpt lat="43.036300" lon="-6.012070">
        <ele>1385.168</ele>
        <time>2020-05-22T11:45:10Z</time>
      </trkpt>
      <trkpt lat="43.036350" lon="-6.012070">
        <ele>1385.842</ele>
        <time>2020-05-22T11:45:30Z</time>
      </trkpt>
      <trkpt lat="43.036410" lon="-6.012070">
        <ele>1386.326</ele>
        <time>2020-05-22T11:45:50Z</time>
      </trkpt>
      <trkpt lat="43.036470" lon="-6.012090">
        <ele>1386.408</ele>
        <time>2020-05-22T11:46:10Z</time>
      </trkpt>
      <trkpt lat="43.036540" lon="-6.012120">
        <ele>1386.690</ele>
        <time>2020-05-22T11:46:30Z</time>
      </trkpt>
      <trkpt lat="43.036590" lon="-6.012160">
        <ele>1386.875</ele>
        <time>2020-05-22T11:46:50Z</time>
      </trkpt>
      <trkpt lat="43.036650" lon="-6.012210">
        <ele>1387.022</ele>
        <time>2020-05-22T11:47:10Z</time>
      </trkpt>
      <trkpt lat="43.036710" lon="-6.012280">
        <ele>1387.378</ele>
        <time>2020-05-22T11:47:30Z</time>
      </trkpt>
      <trkpt lat="43.036760" lon="-6.012360">
        <ele>1387.827</ele>
        <time>2020-05-22T11:47:50Z</time>
      </trkpt>
      <trkpt lat="43.036800" lon="-6.012440">
        <ele>1388.318</ele>
        <time>2020-05-22T11:48:10Z</time>
      </trkpt>
      <trkpt lat="43.036820" lon="-6.012510">
        <ele>1388.837</ele>
        <time>2020-05-22T11:48:30Z</time>
      </trkpt>
      <trkpt lat="43.036840" lon="-6.012580">
        <ele>1389.040</ele>
        <time>2020-05-22T11:48:50Z</time>
      </trkpt>
      <trkpt lat="43.036850" lon="-6.012660">
        <ele>1389.386</ele>
        <time>2020-05-22T11:49:10Z</time>
      </trkpt>
      <trkpt lat="43.036860" lon="-6.012730">
        <ele>1389.660</ele>
        <time>2020-05-22T11:49:30Z</time>
      </trkpt>
      <trkpt lat="43.036860" lon="-6.012820">
        <ele>1390.026</ele>
        <time>2020-05-22T11:49:50Z</time>
      </trkpt>
      <trkpt lat="43.036860" lon="-6.012900">
        <ele>1390.208</ele>
        <time>2020-05-22T11:50:10Z</time>
      </trkpt>
      <trkpt lat="43.036850" lon="-6.013000">
        <ele>1390.552</ele>
        <time>2020-05-22T11:50:30Z</time>
      </trkpt>
      <trkpt lat="43.036830" lon="-6.013090">
        <ele>1390.827</ele>
        <time>2020-05-22T11:50:50Z</time>
      </trkpt>
      <trkpt lat="43.036810" lon="-6.013150">
        <ele>1391.054</ele>
        <time>2020-05-22T11:51:10Z</time>
      </trkpt>
      <trkpt lat="43.036780" lon="-6.013220">
        <ele>1391.110</ele>
        <time>2020-05-22T11:51:30Z</time>
      </trkpt>
      <trkpt lat="43.036730" lon="-6.013320">
        <ele>1391.079</ele>
        <time>2020-05-22T11:51:50Z</time>
      </trkpt>
      <trkpt lat="43.036670" lon="-6.013430">
        <ele>1391.040</ele>
        <time>2020-05-22T11:52:10Z</time>
      </trkpt>
      <trkpt lat="43.036600" lon="-6.013550">
        <ele>1391.129</ele>
        <time>2020-05-22T11:52:30Z</time>
      </trkpt>
      <trkpt lat="43.036460" lon="-6.013820">
        <ele>1393.182</ele>
        <time>2020-05-22T11:52:50Z</time>
      </trkpt>
      <trkpt lat="43.036450" lon="-6.013870">
        <ele>1393.497</ele>
        <time>2020-05-22T11:53:10Z</time>
      </trkpt>
      <trkpt lat="43.036460" lon="-6.013930">
        <ele>1394.023</ele>
        <time>2020-05-22T11:53:30Z</time>
      </trkpt>
      <trkpt lat="43.036470" lon="-6.013990">
        <ele>1394.725</ele>
        <time>2020-05-22T11:53:50Z</time>
      </trkpt>
      <trkpt lat="43.036480" lon="-6.014030">
        <ele>1395.208</ele>
        <time>2020-05-22T11:54:10Z</time>
      </trkpt>
      <trkpt lat="43.036490" lon="-6.014060">
        <ele>1395.673</ele>
        <time>2020-05-22T11:54:30Z</time>
      </trkpt>
      <trkpt lat="43.036510" lon="-6.014090">
        <ele>1395.938</ele>
        <time>2020-05-22T11:54:50Z</time>
      </trkpt>
      <trkpt lat="43.036530" lon="-6.014130">
        <ele>1396.575</ele>
        <time>2020-05-22T11:55:10Z</time>
      </trkpt>
      <trkpt lat="43.036570" lon="-6.014170">
        <ele>1397.131</ele>
        <time>2020-05-22T11:55:30Z</time>
      </trkpt>
      <trkpt lat="43.036610" lon="-6.014200">
        <ele>1397.850</ele>
        <time>2020-05-22T11:55:50Z</time>
      </trkpt>
      <trkpt lat="43.036650" lon="-6.014210">
        <ele>1398.191</ele>
        <time>2020-05-22T11:56:10Z</time>
      </trkpt>
      <trkpt lat="43.036690" lon="-6.014220">
        <ele>1398.760</ele>
        <time>2020-05-22T11:56:30Z</time>
      </trkpt>
      <trkpt lat="43.036730" lon="-6.014220">
        <ele>1399.343</ele>
        <time>2020-05-22T11:56:50Z</time>
      </trkpt>
      <trkpt lat="43.036780" lon="-6.014210">
        <ele>1399.873</ele>
        <time>2020-05-22T11:57:10Z</time>
      </trkpt>
      <trkpt lat="43.036820" lon="-6.014180">
        <ele>1399.685</ele>
        <time>2020-05-22T11:57:30Z</time>
      </trkpt>
      <trkpt lat="43.036880" lon="-6.014150">
        <ele>1399.713</ele>
        <time>2020-05-22T11:57:50Z</time>
      </trkpt>
      <trkpt lat="43.036940" lon="-6.014110">
        <ele>1399.708</ele>
        <time>2020-05-22T11:58:10Z</time>
      </trkpt>
      <trkpt lat="43.036960" lon="-6.014100">
        <ele>1399.711</ele>
        <time>2020-05-22T11:58:30Z</time>
      </trkpt>
      <trkpt lat="43.037000" lon="-6.014080">
        <ele>1399.796</ele>
        <time>2020-05-22T11:58:50Z</time>
      </trkpt>
      <trkpt lat="43.037080" lon="-6.014050">
        <ele>1399.993</ele>
        <time>2020-05-22T11:59:10Z</time>
      </trkpt>
      <trkpt lat="43.037170" lon="-6.014020">
        <ele>1400.379</ele>
        <time>2020-05-22T11:59:30Z</time>
      </trkpt>
      <trkpt lat="43.037290" lon="-6.013980">
        <ele>1400.888</ele>
        <time>2020-05-22T11:59:50Z</time>
      </trkpt>
      <trkpt lat="43.037350" lon="-6.013960">
        <ele>1401.039</ele>
        <time>2020-05-22T12:00:10Z</time>
      </trkpt>
      <trkpt lat="43.037460" lon="-6.013930">
        <ele>1401.638</ele>
        <time>2020-05-22T12:00:30Z</time>
      </trkpt>
      <trkpt lat="43.037580" lon="-6.013900">
        <ele>1401.341</ele>
        <time>2020-05-22T12:00:50Z</time>
      </trkpt>
      <trkpt lat="43.037730" lon="-6.013870">
        <ele>1400.885</ele>
        <time>2020-05-22T12:01:10Z</time>
      </trkpt>
      <trkpt lat="43.037950" lon="-6.013830">
        <ele>1401.089</ele>
        <time>2020-05-22T12:01:30Z</time>
      </trkpt>
      <trkpt lat="43.038170" lon="-6.013810">
        <ele>1401.417</ele>
        <time>2020-05-22T12:01:50Z</time>
      </trkpt>
      <trkpt lat="43.038380" lon="-6.013800">
        <ele>1401.808</ele>
        <time>2020-05-22T12:02:10Z</time>
      </trkpt>
      <trkpt lat="43.038440" lon="-6.013790">
        <ele>1401.982</ele>
        <time>2020-05-22T12:02:30Z</time>
      </trkpt>
      <trkpt lat="43.038620" lon="-6.013790">
        <ele>1402.447</ele>
        <time>2020-05-22T12:02:50Z</time>
      </trkpt>
      <trkpt lat="43.038670" lon="-6.013790">
        <ele>1402.974</ele>
        <time>2020-05-22T12:03:10Z</time>
      </trkpt>
      <trkpt lat="43.038710" lon="-6.013780">
        <ele>1403.310</ele>
        <time>2020-05-22T12:03:30Z</time>
      </trkpt>
      <trkpt lat="43.038740" lon="-6.013760">
        <ele>1403.559</ele>
        <time>2020-05-22T12:03:50Z</time>
      </trkpt>
      <trkpt lat="43.038780" lon="-6.013740">
        <ele>1403.860</ele>
        <time>2020-05-22T12:04:10Z</time>
      </trkpt>
      <trkpt lat="43.038900" lon="-6.013640">
        <ele>1404.329</ele>
        <time>2020-05-22T12:04:30Z</time>
      </trkpt>
      <trkpt lat="43.039050" lon="-6.013510">
        <ele>1403.362</ele>
        <time>2020-05-22T12:04:50Z</time>
      </trkpt>
      <trkpt lat="43.039200" lon="-6.013390">
        <ele>1402.149</ele>
        <time>2020-05-22T12:05:10Z</time>
      </trkpt>
      <trkpt lat="43.039280" lon="-6.013340">
        <ele>1402.202</ele>
        <time>2020-05-22T12:05:30Z</time>
      </trkpt>
      <trkpt lat="43.039330" lon="-6.013310">
        <ele>1402.422</ele>
        <time>2020-05-22T12:05:50Z</time>
      </trkpt>
      <trkpt lat="43.039380" lon="-6.013290">
        <ele>1402.808</ele>
        <time>2020-05-22T12:06:10Z</time>
      </trkpt>
      <trkpt lat="43.039420" lon="-6.013280">
        <ele>1403.218</ele>
        <time>2020-05-22T12:06:30Z</time>
      </trkpt>
      <trkpt lat="43.039470" lon="-6.013280">
        <ele>1403.913</ele>
        <time>2020-05-22T12:06:50Z</time>
      </trkpt>
      <trkpt lat="43.039520" lon="-6.013280">
        <ele>1404.490</ele>
        <time>2020-05-22T12:07:10Z</time>
      </trkpt>
      <trkpt lat="43.039580" lon="-6.013280">
        <ele>1405.096</ele>
        <time>2020-05-22T12:07:30Z</time>
      </trkpt>
      <trkpt lat="43.039620" lon="-6.013290">
        <ele>1405.795</ele>
        <time>2020-05-22T12:07:50Z</time>
      </trkpt>
      <trkpt lat="43.039680" lon="-6.013300">
        <ele>1406.656</ele>
        <time>2020-05-22T12:08:10Z</time>
      </trkpt>
      <trkpt lat="43.040020" lon="-6.013410">
        <ele>1410.515</ele>
        <time>2020-05-22T12:08:30Z</time>
      </trkpt>
      <trkpt lat="43.040130" lon="-6.013440">
        <ele>1412.738</ele>
        <time>2020-05-22T12:08:50Z</time>
      </trkpt>
      <trkpt lat="43.040220" lon="-6.013460">
        <ele>1414.193</ele>
        <time>2020-05-22T12:09:10Z</time>
      </trkpt>
      <trkpt lat="43.040310" lon="-6.013460">
        <ele>1414.865</ele>
        <time>2020-05-22T12:09:30Z</time>
      </trkpt>
      <trkpt lat="43.040380" lon="-6.013470">
        <ele>1415.721</ele>
        <time>2020-05-22T12:09:50Z</time>
      </trkpt>
      <trkpt lat="43.040430" lon="-6.013460">
        <ele>1415.708</ele>
        <time>2020-05-22T12:10:10Z</time>
      </trkpt>
      <trkpt lat="43.040440" lon="-6.013460">
        <ele>1415.863</ele>
        <time>2020-05-22T12:10:30Z</time>
      </trkpt>
      <trkpt lat="43.040490" lon="-6.013450">
        <ele>1415.848</ele>
        <time>2020-05-22T12:10:50Z</time>
      </trkpt>
      <trkpt lat="43.040530" lon="-6.013440">
        <ele>1415.975</ele>
        <time>2020-05-22T12:11:10Z</time>
      </trkpt>
      <trkpt lat="43.040580" lon="-6.013410">
        <ele>1415.761</ele>
        <time>2020-05-22T12:11:30Z</time>
      </trkpt>
      <trkpt lat="43.040620" lon="-6.013380">
        <ele>1415.770</ele>
        <time>2020-05-22T12:11:50Z</time>
      </trkpt>
      <trkpt lat="43.040660" lon="-6.013340">
        <ele>1415.451</ele>
        <time>2020-05-22T12:12:10Z</time>
      </trkpt>
      <trkpt lat="43.040690" lon="-6.013300">
        <ele>1415.380</ele>
        <time>2020-05-22T12:12:30Z</time>
      </trkpt>
      <trkpt lat="43.040720" lon="-6.013240">
        <ele>1414.973</ele>
        <time>2020-05-22T12:12:50Z</time>
      </trkpt>
      <trkpt lat="43.040780" lon="-6.013130">
        <ele>1414.684</ele>
        <time>2020-05-22T12:13:10Z</time>
      </trkpt>
      <trkpt lat="43.040950" lon="-6.012710">
        <ele>1413.907</ele>
        <time>2020-05-22T12:13:30Z</time>
      </trkpt>
      <trkpt lat="43.040980" lon="-6.012630">
        <ele>1413.317</ele>
        <time>2020-05-22T12:13:50Z</time>
      </trkpt>
      <trkpt lat="43.041010" lon="-6.012580">
        <ele>1413.308</ele>
        <time>2020-05-22T12:14:10Z</time>
      </trkpt>
      <trkpt lat="43.041050" lon="-6.012520">
        <ele>1413.482</ele>
        <time>2020-05-22T12:14:30Z</time>
      </trkpt>
      <trkpt lat="43.041100" lon="-6.012470">
        <ele>1413.977</ele>
        <time>2020-05-22T12:14:50Z</time>
      </trkpt>
      <trkpt lat="43.041150" lon="-6.012420">
        <ele>1413.934</ele>
        <time>2020-05-22T12:15:10Z</time>
      </trkpt>
      <trkpt lat="43.041210" lon="-6.012370">
        <ele>1413.990</ele>
        <time>2020-05-22T12:15:30Z</time>
      </trkpt>
      <trkpt lat="43.041260" lon="-6.012340">
        <ele>1414.159</ele>
        <time>2020-05-22T12:15:50Z</time>
      </trkpt>
      <trkpt lat="43.041320" lon="-6.012320">
        <ele>1414.810</ele>
        <time>2020-05-22T12:16:10Z</time>
      </trkpt>
      <trkpt lat="43.041370" lon="-6.012310">
        <ele>1415.579</ele>
        <time>2020-05-22T12:16:30Z</time>
      </trkpt>
      <trkpt lat="43.041450" lon="-6.012300">
        <ele>1416.122</ele>
        <time>2020-05-22T12:16:50Z</time>
      </trkpt>
      <trkpt lat="43.041540" lon="-6.012300">
        <ele>1417.036</ele>
        <time>2020-05-22T12:17:10Z</time>
      </trkpt>
      <trkpt lat="43.041670" lon="-6.012320">
        <ele>1418.817</ele>
        <time>2020-05-22T12:17:30Z</time>
      </trkpt>
      <trkpt lat="43.041840" lon="-6.012350">
        <ele>1421.518</ele>
        <time>2020-05-22T12:17:50Z</time>
      </trkpt>
      <trkpt lat="43.042050" lon="-6.012390">
        <ele>1423.808</ele>
        <time>2020-05-22T12:18:10Z</time>
      </trkpt>
      <trkpt lat="43.042250" lon="-6.012430">
        <ele>1424.857</ele>
        <time>2020-05-22T12:18:30Z</time>
      </trkpt>
      <trkpt lat="43.042330" lon="-6.012430">
        <ele>1425.022</ele>
        <time>2020-05-22T12:18:50Z</time>
      </trkpt>
      <trkpt lat="43.042410" lon="-6.012430">
        <ele>1425.269</ele>
        <time>2020-05-22T12:19:10Z</time>
      </trkpt>
      <trkpt lat="43.042490" lon="-6.012420">
        <ele>1425.185</ele>
        <time>2020-05-22T12:19:30Z</time>
      </trkpt>
      <trkpt lat="43.042550" lon="-6.012400">
        <ele>1425.284</ele>
        <time>2020-05-22T12:19:50Z</time>
      </trkpt>
      <trkpt lat="43.042670" lon="-6.012360">
        <ele>1425.715</ele>
        <time>2020-05-22T12:20:10Z</time>
      </trkpt>
      <trkpt lat="43.042730" lon="-6.012340">
        <ele>1425.944</ele>
        <time>2020-05-22T12:20:30Z</time>
      </trkpt>
      <trkpt lat="43.042810" lon="-6.012310">
        <ele>1425.757</ele>
        <time>2020-05-22T12:20:50Z</time>
      </trkpt>
      <trkpt lat="43.042880" lon="-6.012290">
        <ele>1425.378</ele>
        <time>2020-05-22T12:21:10Z</time>
      </trkpt>
      <trkpt lat="43.042930" lon="-6.012290">
        <ele>1425.633</ele>
        <time>2020-05-22T12:21:30Z</time>
      </trkpt>
      <trkpt lat="43.042980" lon="-6.012290">
        <ele>1425.926</ele>
        <time>2020-05-22T12:21:50Z</time>
      </trkpt>
      <trkpt lat="43.043030" lon="-6.012300">
        <ele>1426.808</ele>
        <time>2020-05-22T12:22:10Z</time>
      </trkpt>
      <trkpt lat="43.043070" lon="-6.012310">
        <ele>1427.091</ele>
        <time>2020-05-22T12:22:30Z</time>
      </trkpt>
      <trkpt lat="43.043150" lon="-6.012340">
        <ele>1426.136</ele>
        <time>2020-05-22T12:22:50Z</time>
      </trkpt>
      <trkpt lat="43.043200" lon="-6.012360">
        <ele>1425.563</ele>
        <time>2020-05-22T12:23:10Z</time>
      </trkpt>
      <trkpt lat="43.043240" lon="-6.012390">
        <ele>1425.769</ele>
        <time>2020-05-22T12:23:30Z</time>
      </trkpt>
      <trkpt lat="43.043290" lon="-6.012430">
        <ele>1426.178</ele>
        <time>2020-05-22T12:23:50Z</time>
      </trkpt>
      <trkpt lat="43.043330" lon="-6.012470">
        <ele>1426.769</ele>
        <time>2020-05-22T12:24:10Z</time>
      </trkpt>
      <trkpt lat="43.043370" lon="-6.012530">
        <ele>1427.928</ele>
        <time>2020-05-22T12:24:30Z</time>
      </trkpt>
      <trkpt lat="43.043480" lon="-6.012670">
        <ele>1429.971</ele>
        <time>2020-05-22T12:24:50Z</time>
      </trkpt>
      <trkpt lat="43.043860" lon="-6.013190">
        <ele>1435.091</ele>
        <time>2020-05-22T12:25:10Z</time>
      </trkpt>
      <trkpt lat="43.044300" lon="-6.013750">
        <ele>1431.681</ele>
        <time>2020-05-22T12:25:30Z</time>
      </trkpt>
      <trkpt lat="43.044300" lon="-6.013760">
        <ele>1431.919</ele>
        <time>2020-05-22T12:25:50Z</time>
      </trkpt>
      <trkpt lat="43.044470" lon="-6.013980">
        <ele>1436.008</ele>
        <time>2020-05-22T12:26:10Z</time>
      </trkpt>
      <trkpt lat="43.044590" lon="-6.014130">
        <ele>1438.953</ele>
        <time>2020-05-22T12:26:30Z</time>
      </trkpt>
      <trkpt lat="43.044750" lon="-6.014300">
        <ele>1441.358</ele>
        <time>2020-05-22T12:26:50Z</time>
      </trkpt>
      <trkpt lat="43.044800" lon="-6.014340">
        <ele>1441.175</ele>
        <time>2020-05-22T12:27:10Z</time>
      </trkpt>
      <trkpt lat="43.044850" lon="-6.014380">
        <ele>1440.791</ele>
        <time>2020-05-22T12:27:30Z</time>
      </trkpt>
      <trkpt lat="43.044890" lon="-6.014410">
        <ele>1440.260</ele>
        <time>2020-05-22T12:27:50Z</time>
      </trkpt>
      <trkpt lat="43.044930" lon="-6.014430">
        <ele>1439.341</ele>
        <time>2020-05-22T12:28:10Z</time>
      </trkpt>
      <trkpt lat="43.044960" lon="-6.014440">
        <ele>1438.440</ele>
        <time>2020-05-22T12:28:30Z</time>
      </trkpt>
      <trkpt lat="43.045000" lon="-6.014450">
        <ele>1437.223</ele>
        <time>2020-05-22T12:28:50Z</time>
      </trkpt>
      <trkpt lat="43.045040" lon="-6.014460">
        <ele>1437.073</ele>
        <time>2020-05-22T12:29:10Z</time>
      </trkpt>
      <trkpt lat="43.045090" lon="-6.014460">
        <ele>1436.285</ele>
        <time>2020-05-22T12:29:30Z</time>
      </trkpt>
      <trkpt lat="43.045200" lon="-6.014450">
        <ele>1434.313</ele>
        <time>2020-05-22T12:29:50Z</time>
      </trkpt>
      <trkpt lat="43.045410" lon="-6.014430">
        <ele>1429.708</ele>
        <time>2020-05-22T12:30:10Z</time>
      </trkpt>
      <trkpt lat="43.045430" lon="-6.014430">
        <ele>1429.311</ele>
        <time>2020-05-22T12:30:30Z</time>
      </trkpt>
      <trkpt lat="43.045460" lon="-6.014430">
        <ele>1428.616</ele>
        <time>2020-05-22T12:30:50Z</time>
      </trkpt>
      <trkpt lat="43.045480" lon="-6.014440">
        <ele>1428.583</ele>
        <time>2020-05-22T12:31:10Z</time>
      </trkpt>
      <trkpt lat="43.045510" lon="-6.014450">
        <ele>1428.139</ele>
        <time>2020-05-22T12:31:30Z</time>
      </trkpt>
      <trkpt lat="43.045530" lon="-6.014470">
        <ele>1428.368</ele>
        <time>2020-05-22T12:31:50Z</time>
      </trkpt>
      <trkpt lat="43.045550" lon="-6.014490">
        <ele>1428.459</ele>
        <time>2020-05-22T12:32:10Z</time>
      </trkpt>
      <trkpt lat="43.045560" lon="-6.014510">
        <ele>1428.788</ele>
        <time>2020-05-22T12:32:30Z</time>
      </trkpt>
      <trkpt lat="43.045580" lon="-6.014540">
        <ele>1428.871</ele>
        <time>2020-05-22T12:32:50Z</time>
      </trkpt>
      <trkpt lat="43.045590" lon="-6.014570">
        <ele>1429.361</ele>
        <time>2020-05-22T12:33:10Z</time>
      </trkpt>
      <trkpt lat="43.045600" lon="-6.014620">
        <ele>1430.221</ele>
        <time>2020-05-22T12:33:30Z</time>
      </trkpt>
      <trkpt lat="43.045630" lon="-6.014700">
        <ele>1431.013</ele>
        <time>2020-05-22T12:33:50Z</time>
      </trkpt>
      <trkpt lat="43.045660" lon="-6.014830">
        <ele>1432.808</ele>
        <time>2020-05-22T12:34:10Z</time>
      </trkpt>
      <trkpt lat="43.045680" lon="-6.014940">
        <ele>1434.260</ele>
        <time>2020-05-22T12:34:30Z</time>
      </trkpt>
      <trkpt lat="43.045690" lon="-6.014970">
        <ele>1434.235</ele>
        <time>2020-05-22T12:34:50Z</time>
      </trkpt>
      <trkpt lat="43.045710" lon="-6.015070">
        <ele>1434.682</ele>
        <time>2020-05-22T12:35:10Z</time>
      </trkpt>
      <trkpt lat="43.045720" lon="-6.015150">
        <ele>1435.218</ele>
        <time>2020-05-22T12:35:30Z</time>
      </trkpt>
      <trkpt lat="43.045720" lon="-6.015180">
        <ele>1435.767</ele>
        <time>2020-05-22T12:35:50Z</time>
      </trkpt>
      <trkpt lat="43.045730" lon="-6.015250">
        <ele>1436.128</ele>
        <time>2020-05-22T12:36:10Z</time>
      </trkpt>
      <trkpt lat="43.045740" lon="-6.015340">
        <ele>1436.417</ele>
        <time>2020-05-22T12:36:30Z</time>
      </trkpt>
      <trkpt lat="43.045740" lon="-6.015470">
        <ele>1437.830</ele>
        <time>2020-05-22T12:36:50Z</time>
      </trkpt>
      <trkpt lat="43.045740" lon="-6.015640">
        <ele>1439.777</ele>
        <time>2020-05-22T12:37:10Z</time>
      </trkpt>
      <trkpt lat="43.045740" lon="-6.015790">
        <ele>1441.561</ele>
        <time>2020-05-22T12:37:30Z</time>
      </trkpt>
      <trkpt lat="43.045760" lon="-6.015970">
        <ele>1442.327</ele>
        <time>2020-05-22T12:37:50Z</time>
      </trkpt>
      <trkpt lat="43.045770" lon="-6.016140">
        <ele>1443.808</ele>
        <time>2020-05-22T12:38:10Z</time>
      </trkpt>
      <trkpt lat="43.045830" lon="-6.016550">
        <ele>1441.991</ele>
        <time>2020-05-22T12:38:30Z</time>
      </trkpt>
      <trkpt lat="43.045850" lon="-6.016740">
        <ele>1441.526</ele>
        <time>2020-05-22T12:38:50Z</time>
      </trkpt>
      <trkpt lat="43.045860" lon="-6.016910">
        <ele>1441.633</ele>
        <time>2020-05-22T12:39:10Z</time>
      </trkpt>
      <trkpt lat="43.045870" lon="-6.017130">
        <ele>1443.119</ele>
        <time>2020-05-22T12:39:30Z</time>
      </trkpt>
      <trkpt lat="43.045870" lon="-6.017220">
        <ele>1444.048</ele>
        <time>2020-05-22T12:39:50Z</time>
      </trkpt>
      <trkpt lat="43.045890" lon="-6.017630">
        <ele>1444.389</ele>
        <time>2020-05-22T12:40:10Z</time>
      </trkpt>
      <trkpt lat="43.045890" lon="-6.017870">
        <ele>1446.798</ele>
        <time>2020-05-22T12:40:30Z</time>
      </trkpt>
      <trkpt lat="43.045910" lon="-6.018360">
        <ele>1453.651</ele>
        <time>2020-05-22T12:40:50Z</time>
      </trkpt>
      <trkpt lat="43.045910" lon="-6.018470">
        <ele>1455.436</ele>
        <time>2020-05-22T12:41:10Z</time>
      </trkpt>
      <trkpt lat="43.045920" lon="-6.018560">
        <ele>1456.417</ele>
        <time>2020-05-22T12:41:30Z</time>
      </trkpt>
      <trkpt lat="43.045930" lon="-6.018630">
        <ele>1457.218</ele>
        <time>2020-05-22T12:41:50Z</time>
      </trkpt>
      <trkpt lat="43.045940" lon="-6.018680">
        <ele>1457.708</ele>
        <time>2020-05-22T12:42:10Z</time>
      </trkpt>
      <trkpt lat="43.045950" lon="-6.018720">
        <ele>1458.087</ele>
        <time>2020-05-22T12:42:30Z</time>
      </trkpt>
      <trkpt lat="43.045960" lon="-6.018760">
        <ele>1458.472</ele>
        <time>2020-05-22T12:42:50Z</time>
      </trkpt>
      <trkpt lat="43.045980" lon="-6.018820">
        <ele>1458.949</ele>
        <time>2020-05-22T12:43:10Z</time>
      </trkpt>
      <trkpt lat="43.046000" lon="-6.018870">
        <ele>1459.225</ele>
        <time>2020-05-22T12:43:30Z</time>
      </trkpt>
      <trkpt lat="43.046080" lon="-6.019060">
        <ele>1461.364</ele>
        <time>2020-05-22T12:43:50Z</time>
      </trkpt>
      <trkpt lat="43.046150" lon="-6.019230">
        <ele>1463.535</ele>
        <time>2020-05-22T12:44:10Z</time>
      </trkpt>
      <trkpt lat="43.046190" lon="-6.019330">
        <ele>1465.084</ele>
        <time>2020-05-22T12:44:30Z</time>
      </trkpt>
      <trkpt lat="43.046220" lon="-6.019380">
        <ele>1465.517</ele>
        <time>2020-05-22T12:44:50Z</time>
      </trkpt>
      <trkpt lat="43.046250" lon="-6.019430">
        <ele>1466.122</ele>
        <time>2020-05-22T12:45:10Z</time>
      </trkpt>
      <trkpt lat="43.046290" lon="-6.019470">
        <ele>1466.162</ele>
        <time>2020-05-22T12:45:30Z</time>
      </trkpt>
      <trkpt lat="43.046320" lon="-6.019500">
        <ele>1466.208</ele>
        <time>2020-05-22T12:45:50Z</time>
      </trkpt>
      <trkpt lat="43.046380" lon="-6.019540">
        <ele>1465.708</ele>
        <time>2020-05-22T12:46:10Z</time>
      </trkpt>
      <trkpt lat="43.046430" lon="-6.019570">
        <ele>1465.616</ele>
        <time>2020-05-22T12:46:30Z</time>
      </trkpt>
      <trkpt lat="43.046620" lon="-6.019670">
        <ele>1464.591</ele>
        <time>2020-05-22T12:46:50Z</time>
      </trkpt>
      <trkpt lat="43.046680" lon="-6.019700">
        <ele>1464.018</ele>
        <time>2020-05-22T12:47:10Z</time>
      </trkpt>
      <trkpt lat="43.046730" lon="-6.019740">
        <ele>1463.854</ele>
        <time>2020-05-22T12:47:30Z</time>
      </trkpt>
      <trkpt lat="43.046770" lon="-6.019770">
        <ele>1463.473</ele>
        <time>2020-05-22T12:47:50Z</time>
      </trkpt>
      <trkpt lat="43.046810" lon="-6.019820">
        <ele>1463.344</ele>
        <time>2020-05-22T12:48:10Z</time>
      </trkpt>
      <trkpt lat="43.046860" lon="-6.019860">
        <ele>1462.853</ele>
        <time>2020-05-22T12:48:30Z</time>
      </trkpt>
      <trkpt lat="43.046910" lon="-6.019930">
        <ele>1462.796</ele>
        <time>2020-05-22T12:48:50Z</time>
      </trkpt>
      <trkpt lat="43.047380" lon="-6.020650">
        <ele>1467.329</ele>
        <time>2020-05-22T12:49:10Z</time>
      </trkpt>
      <trkpt lat="43.047480" lon="-6.020800">
        <ele>1468.700</ele>
        <time>2020-05-22T12:49:30Z</time>
      </trkpt>
      <trkpt lat="43.048310" lon="-6.022050">
        <ele>1478.920</ele>
        <time>2020-05-22T12:49:50Z</time>
      </trkpt>
      <trkpt lat="43.048790" lon="-6.022740">
        <ele>1480.908</ele>
        <time>2020-05-22T12:50:10Z</time>
      </trkpt>
      <trkpt lat="43.049090" lon="-6.023180">
        <ele>1482.246</ele>
        <time>2020-05-22T12:50:30Z</time>
      </trkpt>
      <trkpt lat="43.049220" lon="-6.023360">
        <ele>1482.911</ele>
        <time>2020-05-22T12:50:50Z</time>
      </trkpt>
      <trkpt lat="43.049260" lon="-6.023420">
        <ele>1483.878</ele>
        <time>2020-05-22T12:51:10Z</time>
      </trkpt>
      <trkpt lat="43.049320" lon="-6.023470">
        <ele>1484.244</ele>
        <time>2020-05-22T12:51:30Z</time>
      </trkpt>
      <trkpt lat="43.049360" lon="-6.023500">
        <ele>1484.453</ele>
        <time>2020-05-22T12:51:50Z</time>
      </trkpt>
      <trkpt lat="43.049380" lon="-6.023510">
        <ele>1484.494</ele>
        <time>2020-05-22T12:52:10Z</time>
      </trkpt>
      <trkpt lat="43.049430" lon="-6.023530">
        <ele>1484.213</ele>
        <time>2020-05-22T12:52:30Z</time>
      </trkpt>
      <trkpt lat="43.049470" lon="-6.023530">
        <ele>1484.046</ele>
        <time>2020-05-22T12:52:50Z</time>
      </trkpt>
      <trkpt lat="43.049530" lon="-6.023530">
        <ele>1484.033</ele>
        <time>2020-05-22T12:53:10Z</time>
      </trkpt>
      <trkpt lat="43.049590" lon="-6.023510">
        <ele>1483.723</ele>
        <time>2020-05-22T12:53:30Z</time>
      </trkpt>
      <trkpt lat="43.049650" lon="-6.023480">
        <ele>1483.415</ele>
        <time>2020-05-22T12:53:50Z</time>
      </trkpt>
      <trkpt lat="43.049700" lon="-6.023440">
        <ele>1483.008</ele>
        <time>2020-05-22T12:54:10Z</time>
      </trkpt>
      <trkpt lat="43.049740" lon="-6.023400">
        <ele>1483.227</ele>
        <time>2020-05-22T12:54:30Z</time>
      </trkpt>
      <trkpt lat="43.049760" lon="-6.023370">
        <ele>1483.462</ele>
        <time>2020-05-22T12:54:50Z</time>
      </trkpt>
      <trkpt lat="43.049790" lon="-6.023320">
        <ele>1483.999</ele>
        <time>2020-05-22T12:55:10Z</time>
      </trkpt>
      <trkpt lat="43.049810" lon="-6.023260">
        <ele>1484.295</ele>
        <time>2020-05-22T12:55:30Z</time>
      </trkpt>
      <trkpt lat="43.049840" lon="-6.023180">
        <ele>1484.834</ele>
        <time>2020-05-22T12:55:50Z</time>
      </trkpt>
      <trkpt lat="43.049850" lon="-6.023120">
        <ele>1484.955</ele>
        <time>2020-05-22T12:56:10Z</time>
      </trkpt>
      <trkpt lat="43.049860" lon="-6.023040">
        <ele>1485.064</ele>
        <time>2020-05-22T12:56:30Z</time>
      </trkpt>
      <trkpt lat="43.049860" lon="-6.022980">
        <ele>1485.497</ele>
        <time>2020-05-22T12:56:50Z</time>
      </trkpt>
      <trkpt lat="43.049860" lon="-6.022900">
        <ele>1485.887</ele>
        <time>2020-05-22T12:57:10Z</time>
      </trkpt>
      <trkpt lat="43.049850" lon="-6.022820">
        <ele>1485.842</ele>
        <time>2020-05-22T12:57:30Z</time>
      </trkpt>
      <trkpt lat="43.049840" lon="-6.022770">
        <ele>1485.626</ele>
        <time>2020-05-22T12:57:50Z</time>
      </trkpt>
      <trkpt lat="43.049550" lon="-6.021180">
        <ele>1490.808</ele>
        <time>2020-05-22T12:58:10Z</time>
      </trkpt>
      <trkpt lat="43.049530" lon="-6.021080">
        <ele>1491.532</ele>
        <time>2020-05-22T12:58:30Z</time>
      </trkpt>
      <trkpt lat="43.049510" lon="-6.021000">
        <ele>1492.027</ele>
        <time>2020-05-22T12:58:50Z</time>
      </trkpt>
      <trkpt lat="43.049490" lon="-6.020930">
        <ele>1492.224</ele>
        <time>2020-05-22T12:59:10Z</time>
      </trkpt>
      <trkpt lat="43.049470" lon="-6.020870">
        <ele>1492.460</ele>
        <time>2020-05-22T12:59:30Z</time>
      </trkpt>
      <trkpt lat="43.049440" lon="-6.020790">
        <ele>1492.539</ele>
        <time>2020-05-22T12:59:50Z</time>
      </trkpt>
      <trkpt lat="43.049200" lon="-6.020280">
        <ele>1494.020</ele>
        <time>2020-05-22T13:00:10Z</time>
      </trkpt>
      <trkpt lat="43.049180" lon="-6.020240">
        <ele>1494.149</ele>
        <time>2020-05-22T13:00:30Z</time>
      </trkpt>
      <trkpt lat="43.049100" lon="-6.020060">
        <ele>1494.092</ele>
        <time>2020-05-22T13:00:50Z</time>
      </trkpt>
      <trkpt lat="43.049040" lon="-6.019910">
        <ele>1492.713</ele>
        <time>2020-05-22T13:01:10Z</time>
      </trkpt>
      <trkpt lat="43.049030" lon="-6.019860">
        <ele>1492.643</ele>
        <time>2020-05-22T13:01:30Z</time>
      </trkpt>
      <trkpt lat="43.049020" lon="-6.019820">
        <ele>1492.407</ele>
        <time>2020-05-22T13:01:50Z</time>
      </trkpt>
      <trkpt lat="43.049020" lon="-6.019810">
        <ele>1492.508</ele>
        <time>2020-05-22T13:02:10Z</time>
      </trkpt>
      <trkpt lat="43.049010" lon="-6.019790">
        <ele>1492.295</ele>
        <time>2020-05-22T13:02:30Z</time>
      </trkpt>
      <trkpt lat="43.049010" lon="-6.019750">
        <ele>1492.510</ele>
        <time>2020-05-22T13:02:50Z</time>
      </trkpt>
      <trkpt lat="43.049010" lon="-6.019710">
        <ele>1492.777</ele>
        <time>2020-05-22T13:03:10Z</time>
      </trkpt>
      <trkpt lat="43.049010" lon="-6.019660">
        <ele>1492.663</ele>
        <time>2020-05-22T13:03:30Z</time>
      </trkpt>
      <trkpt lat="43.049020" lon="-6.019610">
        <ele>1493.162</ele>
        <time>2020-05-22T13:03:50Z</time>
      </trkpt>
      <trkpt lat="43.049040" lon="-6.019560">
        <ele>1494.133</ele>
        <time>2020-05-22T13:04:10Z</time>
      </trkpt>
      <trkpt lat="43.049160" lon="-6.019110">
        <ele>1501.482</ele>
        <time>2020-05-22T13:04:30Z</time>
      </trkpt>
      <trkpt lat="43.049180" lon="-6.019040">
        <ele>1502.465</ele>
        <time>2020-05-22T13:04:50Z</time>
      </trkpt>
      <trkpt lat="43.049190" lon="-6.018990">
        <ele>1502.981</ele>
        <time>2020-05-22T13:05:10Z</time>
      </trkpt>
      <trkpt lat="43.049190" lon="-6.018940">
        <ele>1502.761</ele>
        <time>2020-05-22T13:05:30Z</time>
      </trkpt>
      <trkpt lat="43.049200" lon="-6.018900">
        <ele>1503.317</ele>
        <time>2020-05-22T13:05:50Z</time>
      </trkpt>
      <trkpt lat="43.049200" lon="-6.018870">
        <ele>1503.408</ele>
        <time>2020-05-22T13:06:10Z</time>
      </trkpt>
      <trkpt lat="43.049200" lon="-6.018840">
        <ele>1503.592</ele>
        <time>2020-05-22T13:06:30Z</time>
      </trkpt>
      <trkpt lat="43.049210" lon="-6.018620">
        <ele>1505.437</ele>
        <time>2020-05-22T13:06:50Z</time>
      </trkpt>
      <trkpt lat="43.049210" lon="-6.018450">
        <ele>1505.734</ele>
        <time>2020-05-22T13:07:10Z</time>
      </trkpt>
      <trkpt lat="43.049210" lon="-6.018170">
        <ele>1505.340</ele>
        <time>2020-05-22T13:07:30Z</time>
      </trkpt>
      <trkpt lat="43.049230" lon="-6.017810">
        <ele>1505.689</ele>
        <time>2020-05-22T13:07:50Z</time>
      </trkpt>
      <trkpt lat="43.049240" lon="-6.017650">
        <ele>1507.080</ele>
        <time>2020-05-22T13:08:10Z</time>
      </trkpt>
      <trkpt lat="43.049240" lon="-6.017550">
        <ele>1507.569</ele>
        <time>2020-05-22T13:08:30Z</time>
      </trkpt>
      <trkpt lat="43.049230" lon="-6.017340">
        <ele>1507.932</ele>
        <time>2020-05-22T13:08:50Z</time>
      </trkpt>
      <trkpt lat="43.049230" lon="-6.017190">
        <ele>1508.793</ele>
        <time>2020-05-22T13:09:10Z</time>
      </trkpt>
      <trkpt lat="43.049230" lon="-6.017040">
        <ele>1509.465</ele>
        <time>2020-05-22T13:09:30Z</time>
      </trkpt>
      <trkpt lat="43.049240" lon="-6.016970">
        <ele>1510.421</ele>
        <time>2020-05-22T13:09:50Z</time>
      </trkpt>
      <trkpt lat="43.049240" lon="-6.016910">
        <ele>1510.308</ele>
        <time>2020-05-22T13:10:10Z</time>
      </trkpt>
      <trkpt lat="43.049250" lon="-6.016860">
        <ele>1510.753</ele>
        <time>2020-05-22T13:10:30Z</time>
      </trkpt>
      <trkpt lat="43.049260" lon="-6.016810">
        <ele>1511.178</ele>
        <time>2020-05-22T13:10:50Z</time>
      </trkpt>
      <trkpt lat="43.049270" lon="-6.016770">
        <ele>1511.585</ele>
        <time>2020-05-22T13:11:10Z</time>
      </trkpt>
      <trkpt lat="43.049280" lon="-6.016730">
        <ele>1511.881</ele>
        <time>2020-05-22T13:11:30Z</time>
      </trkpt>
      <trkpt lat="43.049300" lon="-6.016690">
        <ele>1512.890</ele>
        <time>2020-05-22T13:11:50Z</time>
      </trkpt>
      <trkpt lat="43.049320" lon="-6.016650">
        <ele>1513.481</ele>
        <time>2020-05-22T13:12:10Z</time>
      </trkpt>
      <trkpt lat="43.049340" lon="-6.016610">
        <ele>1513.780</ele>
        <time>2020-05-22T13:12:30Z</time>
      </trkpt>
      <trkpt lat="43.049370" lon="-6.016580">
        <ele>1514.893</ele>
        <time>2020-05-22T13:12:50Z</time>
      </trkpt>
      <trkpt lat="43.049440" lon="-6.016520">
        <ele>1517.637</ele>
        <time>2020-05-22T13:13:10Z</time>
      </trkpt>
      <trkpt lat="43.049490" lon="-6.016470">
        <ele>1518.849</ele>
        <time>2020-05-22T13:13:30Z</time>
      </trkpt>
      <trkpt lat="43.049530" lon="-6.016420">
        <ele>1519.613</ele>
        <time>2020-05-22T13:13:50Z</time>
      </trkpt>
      <trkpt lat="43.049550" lon="-6.016390">
        <ele>1520.008</ele>
        <time>2020-05-22T13:14:10Z</time>
      </trkpt>
      <trkpt lat="43.049570" lon="-6.016350">
        <ele>1520.317</ele>
        <time>2020-05-22T13:14:30Z</time>
      </trkpt>
      <trkpt lat="43.049570" lon="-6.016340">
        <ele>1520.182</ele>
        <time>2020-05-22T13:14:50Z</time>
      </trkpt>
      <trkpt lat="43.049580" lon="-6.016300">
        <ele>1519.919</ele>
        <time>2020-05-22T13:15:10Z</time>
      </trkpt>
      <trkpt lat="43.049600" lon="-6.016250">
        <ele>1520.025</ele>
        <time>2020-05-22T13:15:30Z</time>
      </trkpt>
      <trkpt lat="43.049610" lon="-6.016190">
        <ele>1519.524</ele>
        <time>2020-05-22T13:15:50Z</time>
      </trkpt>
      <trkpt lat="43.049740" lon="-6.015040">
        <ele>1515.675</ele>
        <time>2020-05-22T13:16:10Z</time>
      </trkpt>
      <trkpt lat="43.049760" lon="-6.014890">
        <ele>1515.054</ele>
        <time>2020-05-22T13:16:30Z</time>
      </trkpt>
      <trkpt lat="43.049780" lon="-6.014790">
        <ele>1515.217</ele>
        <time>2020-05-22T13:16:50Z</time>
      </trkpt>
      <trkpt lat="43.049800" lon="-6.014730">
        <ele>1516.062</ele>
        <time>2020-05-22T13:17:10Z</time>
      </trkpt>
      <trkpt lat="43.049810" lon="-6.014660">
        <ele>1516.083</ele>
        <time>2020-05-22T13:17:30Z</time>
      </trkpt>
      <trkpt lat="43.049830" lon="-6.014610">
        <ele>1516.811</ele>
        <time>2020-05-22T13:17:50Z</time>
      </trkpt>
      <trkpt lat="43.049850" lon="-6.014570">
        <ele>1517.608</ele>
        <time>2020-05-22T13:18:10Z</time>
      </trkpt>
      <trkpt lat="43.049860" lon="-6.014530">
        <ele>1517.740</ele>
        <time>2020-05-22T13:18:30Z</time>
      </trkpt>
      <trkpt lat="43.049890" lon="-6.014490">
        <ele>1518.895</ele>
        <time>2020-05-22T13:18:50Z</time>
      </trkpt>
      <trkpt lat="43.049920" lon="-6.014440">
        <ele>1519.622</ele>
        <time>2020-05-22T13:19:10Z</time>
      </trkpt>
      <trkpt lat="43.049950" lon="-6.014390">
        <ele>1520.338</ele>
        <time>2020-05-22T13:19:30Z</time>
      </trkpt>
      <trkpt lat="43.049980" lon="-6.014350">
        <ele>1521.287</ele>
        <time>2020-05-22T13:19:50Z</time>
      </trkpt>
      <trkpt lat="43.050010" lon="-6.014310">
        <ele>1522.038</ele>
        <time>2020-05-22T13:20:10Z</time>
      </trkpt>
      <trkpt lat="43.050050" lon="-6.014270">
        <ele>1523.137</ele>
        <time>2020-05-22T13:20:30Z</time>
      </trkpt>
      <trkpt lat="43.050100" lon="-6.014220">
        <ele>1524.270</ele>
        <time>2020-05-22T13:20:50Z</time>
      </trkpt>
      <trkpt lat="43.050220" lon="-6.014130">
        <ele>1526.499</ele>
        <time>2020-05-22T13:21:10Z</time>
      </trkpt>
      <trkpt lat="43.050430" lon="-6.013970">
        <ele>1529.907</ele>
        <time>2020-05-22T13:21:30Z</time>
      </trkpt>
      <trkpt lat="43.050730" lon="-6.013790">
        <ele>1535.127</ele>
        <time>2020-05-22T13:21:50Z</time>
      </trkpt>
      <trkpt lat="43.050760" lon="-6.013770">
        <ele>1535.408</ele>
        <time>2020-05-22T13:22:10Z</time>
      </trkpt>
      <trkpt lat="43.050780" lon="-6.013750">
        <ele>1535.453</ele>
        <time>2020-05-22T13:22:30Z</time>
      </trkpt>
      <trkpt lat="43.050800" lon="-6.013720">
        <ele>1535.028</ele>
        <time>2020-05-22T13:22:50Z</time>
      </trkpt>
      <trkpt lat="43.050820" lon="-6.013690">
        <ele>1534.625</ele>
        <time>2020-05-22T13:23:10Z</time>
      </trkpt>
      <trkpt lat="43.050850" lon="-6.013640">
        <ele>1534.071</ele>
        <time>2020-05-22T13:23:30Z</time>
      </trkpt>
      <trkpt lat="43.050870" lon="-6.013600">
        <ele>1533.690</ele>
        <time>2020-05-22T13:23:50Z</time>
      </trkpt>
      <trkpt lat="43.050890" lon="-6.013550">
        <ele>1533.621</ele>
        <time>2020-05-22T13:24:10Z</time>
      </trkpt>
      <trkpt lat="43.050900" lon="-6.013490">
        <ele>1532.880</ele>
        <time>2020-05-22T13:24:30Z</time>
      </trkpt>
      <trkpt lat="43.050960" lon="-6.013230">
        <ele>1532.333</ele>
        <time>2020-05-22T13:24:50Z</time>
      </trkpt>
      <trkpt lat="43.050970" lon="-6.013160">
        <ele>1532.459</ele>
        <time>2020-05-22T13:25:10Z</time>
      </trkpt>
      <trkpt lat="43.051010" lon="-6.013000">
        <ele>1533.703</ele>
        <time>2020-05-22T13:25:30Z</time>
      </trkpt>
      <trkpt lat="43.051040" lon="-6.012850">
        <ele>1534.123</ele>
        <time>2020-05-22T13:25:50Z</time>
      </trkpt>
      <trkpt lat="43.051070" lon="-6.012740">
        <ele>1534.408</ele>
        <time>2020-05-22T13:26:10Z</time>
      </trkpt>
      <trkpt lat="43.051090" lon="-6.012680">
        <ele>1534.659</ele>
        <time>2020-05-22T13:26:30Z</time>
      </trkpt>
      <trkpt lat="43.051110" lon="-6.012620">
        <ele>1534.754</ele>
        <time>2020-05-22T13:26:50Z</time>
      </trkpt>
      <trkpt lat="43.051140" lon="-6.012560">
        <ele>1535.191</ele>
        <time>2020-05-22T13:27:10Z</time>
      </trkpt>
      <trkpt lat="43.051160" lon="-6.012520">
        <ele>1535.397</ele>
        <time>2020-05-22T13:27:30Z</time>
      </trkpt>
      <trkpt lat="43.051200" lon="-6.012470">
        <ele>1535.986</ele>
        <time>2020-05-22T13:27:50Z</time>
      </trkpt>
      <trkpt lat="43.051250" lon="-6.012420">
        <ele>1536.837</ele>
        <time>2020-05-22T13:28:10Z</time>
      </trkpt>
      <trkpt lat="43.051300" lon="-6.012370">
        <ele>1537.566</ele>
        <time>2020-05-22T13:28:30Z</time>
      </trkpt>
      <trkpt lat="43.051680" lon="-6.012080">
        <ele>1542.389</ele>
        <time>2020-05-22T13:28:50Z</time>
      </trkpt>
      <trkpt lat="43.052290" lon="-6.011610">
        <ele>1546.693</ele>
        <time>2020-05-22T13:29:10Z</time>
      </trkpt>
      <trkpt lat="43.052390" lon="-6.011530">
        <ele>1549.165</ele>
        <time>2020-05-22T13:29:30Z</time>
      </trkpt>
      <trkpt lat="43.052430" lon="-6.011500">
        <ele>1550.121</ele>
        <time>2020-05-22T13:29:50Z</time>
      </trkpt>
      <trkpt lat="43.052450" lon="-6.011470">
        <ele>1550.408</ele>
        <time>2020-05-22T13:30:10Z</time>
      </trkpt>
      <trkpt lat="43.052470" lon="-6.011430">
        <ele>1550.513</ele>
        <time>2020-05-22T13:30:30Z</time>
      </trkpt>
      <trkpt lat="43.052490" lon="-6.011380">
        <ele>1550.628</ele>
        <time>2020-05-22T13:30:50Z</time>
      </trkpt>
      <trkpt lat="43.052510" lon="-6.011330">
        <ele>1551.015</ele>
        <time>2020-05-22T13:31:10Z</time>
      </trkpt>
      <trkpt lat="43.052530" lon="-6.011250">
        <ele>1551.381</ele>
        <time>2020-05-22T13:31:30Z</time>
      </trkpt>
      <trkpt lat="43.052550" lon="-6.011160">
        <ele>1551.720</ele>
        <time>2020-05-22T13:31:50Z</time>
      </trkpt>
      <trkpt lat="43.052580" lon="-6.010930">
        <ele>1552.321</ele>
        <time>2020-05-22T13:32:10Z</time>
      </trkpt>
      <trkpt lat="43.052640" lon="-6.010450">
        <ele>1552.150</ele>
        <time>2020-05-22T13:32:30Z</time>
      </trkpt>
      <trkpt lat="43.052660" lon="-6.010280">
        <ele>1551.783</ele>
        <time>2020-05-22T13:32:50Z</time>
      </trkpt>
      <trkpt lat="43.052720" lon="-6.009920">
        <ele>1552.933</ele>
        <time>2020-05-22T13:33:10Z</time>
      </trkpt>
      <trkpt lat="43.052740" lon="-6.009800">
        <ele>1553.523</ele>
        <time>2020-05-22T13:33:30Z</time>
      </trkpt>
      <trkpt lat="43.052760" lon="-6.009700">
        <ele>1554.015</ele>
        <time>2020-05-22T13:33:50Z</time>
      </trkpt>
      <trkpt lat="43.052760" lon="-6.009680">
        <ele>1553.908</ele>
        <time>2020-05-22T13:34:10Z</time>
      </trkpt>
      <trkpt lat="43.052770" lon="-6.009640">
        <ele>1554.177</ele>
        <time>2020-05-22T13:34:30Z</time>
      </trkpt>
      <trkpt lat="43.052790" lon="-6.009590">
        <ele>1554.642</ele>
        <time>2020-05-22T13:34:50Z</time>
      </trkpt>
      <trkpt lat="43.052810" lon="-6.009530">
        <ele>1555.239</ele>
        <time>2020-05-22T13:35:10Z</time>
      </trkpt>
      <trkpt lat="43.052830" lon="-6.009470">
        <ele>1555.625</ele>
        <time>2020-05-22T13:35:30Z</time>
      </trkpt>
      <trkpt lat="43.052840" lon="-6.009460">
        <ele>1556.064</ele>
        <time>2020-05-22T13:35:50Z</time>
      </trkpt>
      <trkpt lat="43.052860" lon="-6.009410">
        <ele>1556.565</ele>
        <time>2020-05-22T13:36:10Z</time>
      </trkpt>
      <trkpt lat="43.052900" lon="-6.009330">
        <ele>1557.254</ele>
        <time>2020-05-22T13:36:30Z</time>
      </trkpt>
      <trkpt lat="43.053050" lon="-6.009060">
        <ele>1557.737</ele>
        <time>2020-05-22T13:36:50Z</time>
      </trkpt>
      <trkpt lat="43.053080" lon="-6.009020">
        <ele>1558.016</ele>
        <time>2020-05-22T13:37:10Z</time>
      </trkpt>
      <trkpt lat="43.053090" lon="-6.008980">
        <ele>1557.876</ele>
        <time>2020-05-22T13:37:30Z</time>
      </trkpt>
      <trkpt lat="43.053100" lon="-6.008940">
        <ele>1557.513</ele>
        <time>2020-05-22T13:37:50Z</time>
      </trkpt>
      <trkpt lat="43.053110" lon="-6.008910">
        <ele>1557.308</ele>
        <time>2020-05-22T13:38:10Z</time>
      </trkpt>
      <trkpt lat="43.053110" lon="-6.008880">
        <ele>1557.055</ele>
        <time>2020-05-22T13:38:30Z</time>
      </trkpt>
      <trkpt lat="43.053110" lon="-6.008840">
        <ele>1557.050</ele>
        <time>2020-05-22T13:38:50Z</time>
      </trkpt>
      <trkpt lat="43.053100" lon="-6.008770">
        <ele>1556.967</ele>
        <time>2020-05-22T13:39:10Z</time>
      </trkpt>
      <trkpt lat="43.053060" lon="-6.008550">
        <ele>1556.883</ele>
        <time>2020-05-22T13:39:30Z</time>
      </trkpt>
      <trkpt lat="43.053050" lon="-6.008470">
        <ele>1557.472</ele>
        <time>2020-05-22T13:39:50Z</time>
      </trkpt>
      <trkpt lat="43.053040" lon="-6.008410">
        <ele>1557.783</ele>
        <time>2020-05-22T13:40:10Z</time>
      </trkpt>
      <trkpt lat="43.053030" lon="-6.008360">
        <ele>1558.082</ele>
        <time>2020-05-22T13:40:30Z</time>
      </trkpt>
      <trkpt lat="43.053030" lon="-6.008300">
        <ele>1558.095</ele>
        <time>2020-05-22T13:40:50Z</time>
      </trkpt>
      <trkpt lat="43.053030" lon="-6.008240">
        <ele>1557.795</ele>
        <time>2020-05-22T13:41:10Z</time>
      </trkpt>
      <trkpt lat="43.053030" lon="-6.008190">
        <ele>1557.349</ele>
        <time>2020-05-22T13:41:30Z</time>
      </trkpt>
      <trkpt lat="43.053040" lon="-6.008150">
        <ele>1557.323</ele>
        <time>2020-05-22T13:41:50Z</time>
      </trkpt>
      <trkpt lat="43.053050" lon="-6.008100">
        <ele>1557.208</ele>
        <time>2020-05-22T13:42:10Z</time>
      </trkpt>
      <trkpt lat="43.053060" lon="-6.008070">
        <ele>1557.273</ele>
        <time>2020-05-22T13:42:30Z</time>
      </trkpt>
      <trkpt lat="43.053070" lon="-6.008050">
        <ele>1557.478</ele>
        <time>2020-05-22T13:42:50Z</time>
      </trkpt>
      <trkpt lat="43.053100" lon="-6.008000">
        <ele>1557.365</ele>
        <time>2020-05-22T13:43:10Z</time>
      </trkpt>
      <trkpt lat="43.053130" lon="-6.007960">
        <ele>1557.481</ele>
        <time>2020-05-22T13:43:30Z</time>
      </trkpt>
      <trkpt lat="43.053160" lon="-6.007930">
        <ele>1557.640</ele>
        <time>2020-05-22T13:43:50Z</time>
      </trkpt>
      <trkpt lat="43.053190" lon="-6.007900">
        <ele>1557.751</ele>
        <time>2020-05-22T13:44:10Z</time>
      </trkpt>
      <trkpt lat="43.053210" lon="-6.007890">
        <ele>1558.010</ele>
        <time>2020-05-22T13:44:30Z</time>
      </trkpt>
      <trkpt lat="43.053220" lon="-6.007880">
        <ele>1558.083</ele>
        <time>2020-05-22T13:44:50Z</time>
      </trkpt>
      <trkpt lat="43.053260" lon="-6.007870">
        <ele>1558.882</ele>
        <time>2020-05-22T13:45:10Z</time>
      </trkpt>
      <trkpt lat="43.053300" lon="-6.007860">
        <ele>1559.543</ele>
        <time>2020-05-22T13:45:30Z</time>
      </trkpt>
      <trkpt lat="43.053350" lon="-6.007850">
        <ele>1560.317</ele>
        <time>2020-05-22T13:45:50Z</time>
      </trkpt>
      <trkpt lat="43.053480" lon="-6.007840">
        <ele>1561.908</ele>
        <time>2020-05-22T13:46:10Z</time>
      </trkpt>
      <trkpt lat="43.053550" lon="-6.007820">
        <ele>1562.382</ele>
        <time>2020-05-22T13:46:30Z</time>
      </trkpt>
      <trkpt lat="43.053610" lon="-6.007810">
        <ele>1562.937</ele>
        <time>2020-05-22T13:46:50Z</time>
      </trkpt>
      <trkpt lat="43.053680" lon="-6.007780">
        <ele>1563.834</ele>
        <time>2020-05-22T13:47:10Z</time>
      </trkpt>
      <trkpt lat="43.053710" lon="-6.007770">
        <ele>1564.240</ele>
        <time>2020-05-22T13:47:30Z</time>
      </trkpt>
      <trkpt lat="43.053740" lon="-6.007750">
        <ele>1564.389</ele>
        <time>2020-05-22T13:47:50Z</time>
      </trkpt>
      <trkpt lat="43.053780" lon="-6.007720">
        <ele>1564.430</ele>
        <time>2020-05-22T13:48:10Z</time>
      </trkpt>
      <trkpt lat="43.053870" lon="-6.007650">
        <ele>1564.489</ele>
        <time>2020-05-22T13:48:30Z</time>
      </trkpt>
      <trkpt lat="43.053960" lon="-6.007580">
        <ele>1564.882</ele>
        <time>2020-05-22T13:48:50Z</time>
      </trkpt>
      <trkpt lat="43.054380" lon="-6.007220">
        <ele>1566.838</ele>
        <time>2020-05-22T13:49:10Z</time>
      </trkpt>
      <trkpt lat="43.054760" lon="-6.006890">
        <ele>1567.870</ele>
        <time>2020-05-22T13:49:30Z</time>
      </trkpt>
      <trkpt lat="43.054850" lon="-6.006820">
        <ele>1567.517</ele>
        <time>2020-05-22T13:49:50Z</time>
      </trkpt>
      <trkpt lat="43.054900" lon="-6.006780">
        <ele>1567.308</ele>
        <time>2020-05-22T13:50:10Z</time>
      </trkpt>
      <trkpt lat="43.054940" lon="-6.006750">
        <ele>1567.317</ele>
        <time>2020-05-22T13:50:30Z</time>
      </trkpt>
      <trkpt lat="43.054960" lon="-6.006740">
        <ele>1567.542</ele>
        <time>2020-05-22T13:50:50Z</time>
      </trkpt>
      <trkpt lat="43.054980" lon="-6.006740">
        <ele>1568.129</ele>
        <time>2020-05-22T13:51:10Z</time>
      </trkpt>
      <trkpt lat="43.055010" lon="-6.006730">
        <ele>1568.315</ele>
        <time>2020-05-22T13:51:30Z</time>
      </trkpt>
      <trkpt lat="43.055040" lon="-6.006740">
        <ele>1568.794</ele>
        <time>2020-05-22T13:51:50Z</time>
      </trkpt>
      <trkpt lat="43.055070" lon="-6.006750">
        <ele>1569.265</ele>
        <time>2020-05-22T13:52:10Z</time>
      </trkpt>
      <trkpt lat="43.055110" lon="-6.006760">
        <ele>1569.664</ele>
        <time>2020-05-22T13:52:30Z</time>
      </trkpt>
      <trkpt lat="43.055230" lon="-6.006840">
        <ele>1572.627</ele>
        <time>2020-05-22T13:52:50Z</time>
      </trkpt>
      <trkpt lat="43.055320" lon="-6.006890">
        <ele>1574.686</ele>
        <time>2020-05-22T13:53:10Z</time>
      </trkpt>
      <trkpt lat="43.055360" lon="-6.006910">
        <ele>1575.760</ele>
        <time>2020-05-22T13:53:30Z</time>
      </trkpt>
      <trkpt lat="43.055390" lon="-6.006910">
        <ele>1576.026</ele>
        <time>2020-05-22T13:53:50Z</time>
      </trkpt>
      <trkpt lat="43.055430" lon="-6.006920">
        <ele>1576.808</ele>
        <time>2020-05-22T13:54:10Z</time>
      </trkpt>
      <trkpt lat="43.055490" lon="-6.006920">
        <ele>1577.442</ele>
        <time>2020-05-22T13:54:30Z</time>
      </trkpt>
      <trkpt lat="43.055540" lon="-6.006910">
        <ele>1577.537</ele>
        <time>2020-05-22T13:54:50Z</time>
      </trkpt>
      <trkpt lat="43.055600" lon="-6.006890">
        <ele>1577.484</ele>
        <time>2020-05-22T13:55:10Z</time>
      </trkpt>
      <trkpt lat="43.055650" lon="-6.006870">
        <ele>1577.230</ele>
        <time>2020-05-22T13:55:30Z</time>
      </trkpt>
      <trkpt lat="43.055660" lon="-6.006870">
        <ele>1577.359</ele>
        <time>2020-05-22T13:55:50Z</time>
      </trkpt>
      <trkpt lat="43.055720" lon="-6.006830">
        <ele>1576.570</ele>
        <time>2020-05-22T13:56:10Z</time>
      </trkpt>
      <trkpt lat="43.055800" lon="-6.006780">
        <ele>1575.629</ele>
        <time>2020-05-22T13:56:30Z</time>
      </trkpt>
      <trkpt lat="43.055820" lon="-6.006760">
        <ele>1575.212</ele>
        <time>2020-05-22T13:56:50Z</time>
      </trkpt>
      <trkpt lat="43.055910" lon="-6.006710">
        <ele>1574.631</ele>
        <time>2020-05-22T13:57:10Z</time>
      </trkpt>
      <trkpt lat="43.055990" lon="-6.006660">
        <ele>1573.561</ele>
        <time>2020-05-22T13:57:30Z</time>
      </trkpt>
      <trkpt lat="43.056080" lon="-6.006610">
        <ele>1573.007</ele>
        <time>2020-05-22T13:57:50Z</time>
      </trkpt>
      <trkpt lat="43.056200" lon="-6.006550">
        <ele>1575.508</ele>
        <time>2020-05-22T13:58:10Z</time>
      </trkpt>
      <trkpt lat="43.056570" lon="-6.006380">
        <ele>1584.927</ele>
        <time>2020-05-22T13:58:30Z</time>
      </trkpt>
      <trkpt lat="43.056730" lon="-6.006320">
        <ele>1588.622</ele>
        <time>2020-05-22T13:58:50Z</time>
      </trkpt>
      <trkpt lat="43.056810" lon="-6.006280">
        <ele>1589.819</ele>
        <time>2020-05-22T13:59:10Z</time>
      </trkpt>
      <trkpt lat="43.056840" lon="-6.006270">
        <ele>1590.585</ele>
        <time>2020-05-22T13:59:30Z</time>
      </trkpt>
      <trkpt lat="43.056850" lon="-6.006260">
        <ele>1590.514</ele>
        <time>2020-05-22T13:59:50Z</time>
      </trkpt>
      <trkpt lat="43.056890" lon="-6.006230">
        <ele>1590.785</ele>
        <time>2020-05-22T14:00:10Z</time>
      </trkpt>
      <trkpt lat="43.056910" lon="-6.006210">
        <ele>1590.754</ele>
        <time>2020-05-22T14:00:30Z</time>
      </trkpt>
      <trkpt lat="43.056940" lon="-6.006180">
        <ele>1590.647</ele>
        <time>2020-05-22T14:00:50Z</time>
      </trkpt>
      <trkpt lat="43.056960" lon="-6.006150">
        <ele>1590.175</ele>
        <time>2020-05-22T14:01:10Z</time>
      </trkpt>
      <trkpt lat="43.056970" lon="-6.006110">
        <ele>1588.928</ele>
        <time>2020-05-22T14:01:30Z</time>
      </trkpt>
      <trkpt lat="43.057000" lon="-6.006050">
        <ele>1588.820</ele>
        <time>2020-05-22T14:01:50Z</time>
      </trkpt>
      <trkpt lat="43.057020" lon="-6.006000">
        <ele>1588.508</ele>
        <time>2020-05-22T14:02:10Z</time>
      </trkpt>
      <trkpt lat="43.057030" lon="-6.005940">
        <ele>1587.821</ele>
        <time>2020-05-22T14:02:30Z</time>
      </trkpt>
      <trkpt lat="43.057050" lon="-6.005870">
        <ele>1587.356</ele>
        <time>2020-05-22T14:02:50Z</time>
      </trkpt>
      <trkpt lat="43.057060" lon="-6.005780">
        <ele>1586.463</ele>
        <time>2020-05-22T14:03:10Z</time>
      </trkpt>
      <trkpt lat="43.057070" lon="-6.005680">
        <ele>1585.779</ele>
        <time>2020-05-22T14:03:30Z</time>
      </trkpt>
      <trkpt lat="43.057080" lon="-6.005600">
        <ele>1585.378</ele>
        <time>2020-05-22T14:03:50Z</time>
      </trkpt>
      <trkpt lat="43.057090" lon="-6.005440">
        <ele>1583.949</ele>
        <time>2020-05-22T14:04:10Z</time>
      </trkpt>
      <trkpt lat="43.057100" lon="-6.005370">
        <ele>1583.538</ele>
        <time>2020-05-22T14:04:30Z</time>
      </trkpt>
      <trkpt lat="43.057110" lon="-6.005310">
        <ele>1583.211</ele>
        <time>2020-05-22T14:04:50Z</time>
      </trkpt>
      <trkpt lat="43.057120" lon="-6.005270">
        <ele>1583.164</ele>
        <time>2020-05-22T14:05:10Z</time>
      </trkpt>
      <trkpt lat="43.057130" lon="-6.005220">
        <ele>1582.706</ele>
        <time>2020-05-22T14:05:30Z</time>
      </trkpt>
      <trkpt lat="43.057140" lon="-6.005180">
        <ele>1582.516</ele>
        <time>2020-05-22T14:05:50Z</time>
      </trkpt>
      <trkpt lat="43.057170" lon="-6.005130">
        <ele>1583.008</ele>
        <time>2020-05-22T14:06:10Z</time>
      </trkpt>
      <trkpt lat="43.057190" lon="-6.005080">
        <ele>1583.050</ele>
        <time>2020-05-22T14:06:30Z</time>
      </trkpt>
      <trkpt lat="43.057230" lon="-6.005010">
        <ele>1583.485</ele>
        <time>2020-05-22T14:06:50Z</time>
      </trkpt>
      <trkpt lat="43.057260" lon="-6.004950">
        <ele>1583.592</ele>
        <time>2020-05-22T14:07:10Z</time>
      </trkpt>
      <trkpt lat="43.057320" lon="-6.004880">
        <ele>1584.158</ele>
        <time>2020-05-22T14:07:30Z</time>
      </trkpt>
      <trkpt lat="43.057420" lon="-6.004730">
        <ele>1584.157</ele>
        <time>2020-05-22T14:07:50Z</time>
      </trkpt>
      <trkpt lat="43.057490" lon="-6.004640">
        <ele>1584.568</ele>
        <time>2020-05-22T14:08:10Z</time>
      </trkpt>
      <trkpt lat="43.057530" lon="-6.004600">
        <ele>1584.737</ele>
        <time>2020-05-22T14:08:30Z</time>
      </trkpt>
      <trkpt lat="43.057550" lon="-6.004580">
        <ele>1584.830</ele>
        <time>2020-05-22T14:08:50Z</time>
      </trkpt>
      <trkpt lat="43.057600" lon="-6.004520">
        <ele>1584.844</ele>
        <time>2020-05-22T14:09:10Z</time>
      </trkpt>
      <trkpt lat="43.057650" lon="-6.004480">
        <ele>1585.105</ele>
        <time>2020-05-22T14:09:30Z</time>
      </trkpt>
      <trkpt lat="43.057690" lon="-6.004440">
        <ele>1585.415</ele>
        <time>2020-05-22T14:09:50Z</time>
      </trkpt>
      <trkpt lat="43.057730" lon="-6.004420">
        <ele>1586.108</ele>
        <time>2020-05-22T14:10:10Z</time>
      </trkpt>
      <trkpt lat="43.057760" lon="-6.004400">
        <ele>1586.718</ele>
        <time>2020-05-22T14:10:30Z</time>
      </trkpt>
      <trkpt lat="43.057800" lon="-6.004390">
        <ele>1587.523</ele>
        <time>2020-05-22T14:10:50Z</time>
      </trkpt>
      <trkpt lat="43.057840" lon="-6.004380">
        <ele>1588.480</ele>
        <time>2020-05-22T14:11:10Z</time>
      </trkpt>
      <trkpt lat="43.057900" lon="-6.004370">
        <ele>1589.916</ele>
        <time>2020-05-22T14:11:30Z</time>
      </trkpt>
      <trkpt lat="43.057970" lon="-6.004360">
        <ele>1591.615</ele>
        <time>2020-05-22T14:11:50Z</time>
      </trkpt>
      <trkpt lat="43.058020" lon="-6.004350">
        <ele>1592.896</ele>
        <time>2020-05-22T14:12:10Z</time>
      </trkpt>
      <trkpt lat="43.058050" lon="-6.004350">
        <ele>1593.595</ele>
        <time>2020-05-22T14:12:30Z</time>
      </trkpt>
      <trkpt lat="43.058200" lon="-6.004340">
        <ele>1594.878</ele>
        <time>2020-05-22T14:12:50Z</time>
      </trkpt>
      <trkpt lat="43.058240" lon="-6.004340">
        <ele>1595.158</ele>
        <time>2020-05-22T14:13:10Z</time>
      </trkpt>
      <trkpt lat="43.058270" lon="-6.004340">
        <ele>1595.352</ele>
        <time>2020-05-22T14:13:30Z</time>
      </trkpt>
      <trkpt lat="43.058300" lon="-6.004340">
        <ele>1595.517</ele>
        <time>2020-05-22T14:13:50Z</time>
      </trkpt>
      <trkpt lat="43.058320" lon="-6.004350">
        <ele>1595.608</ele>
        <time>2020-05-22T14:14:10Z</time>
      </trkpt>
      <trkpt lat="43.058350" lon="-6.004360">
        <ele>1595.279</ele>
        <time>2020-05-22T14:14:30Z</time>
      </trkpt>
      <trkpt lat="43.058390" lon="-6.004390">
        <ele>1593.984</ele>
        <time>2020-05-22T14:14:50Z</time>
      </trkpt>
      <trkpt lat="43.058386" lon="-6.004388">
        <ele>1594.061</ele>
        <time>2020-05-22T14:15:10Z</time>
      </trkpt>
      <trkpt lat="43.058540" lon="-6.004150">
        <ele>1591.237</ele>
        <time>2020-05-22T14:15:30Z</time>
      </trkpt>
      <trkpt lat="43.058590" lon="-6.004090">
        <ele>1590.216</ele>
        <time>2020-05-22T14:15:50Z</time>
      </trkpt>
      <trkpt lat="43.058640" lon="-6.004040">
        <ele>1588.827</ele>
        <time>2020-05-22T14:16:10Z</time>
      </trkpt>
      <trkpt lat="43.058700" lon="-6.003980">
        <ele>1586.856</ele>
        <time>2020-05-22T14:16:30Z</time>
      </trkpt>
      <trkpt lat="43.058710" lon="-6.003970">
        <ele>1586.569</ele>
        <time>2020-05-22T14:16:50Z</time>
      </trkpt>
      <trkpt lat="43.058910" lon="-6.003790">
        <ele>1581.449</ele>
        <time>2020-05-22T14:17:10Z</time>
      </trkpt>
      <trkpt lat="43.059010" lon="-6.003700">
        <ele>1581.702</ele>
        <time>2020-05-22T14:17:30Z</time>
      </trkpt>
      <trkpt lat="43.059060" lon="-6.003660">
        <ele>1581.922</ele>
        <time>2020-05-22T14:17:50Z</time>
      </trkpt>
      <trkpt lat="43.059140" lon="-6.003600">
        <ele>1582.608</ele>
        <time>2020-05-22T14:18:10Z</time>
      </trkpt>
      <trkpt lat="43.059170" lon="-6.003580">
        <ele>1582.878</ele>
        <time>2020-05-22T14:18:30Z</time>
      </trkpt>
      <trkpt lat="43.059180" lon="-6.003580">
        <ele>1582.553</ele>
        <time>2020-05-22T14:18:50Z</time>
      </trkpt>
      <trkpt lat="43.059220" lon="-6.003550">
        <ele>1582.150</ele>
        <time>2020-05-22T14:19:10Z</time>
      </trkpt>
      <trkpt lat="43.059330" lon="-6.003490">
        <ele>1580.746</ele>
        <time>2020-05-22T14:19:30Z</time>
      </trkpt>
      <trkpt lat="43.059430" lon="-6.003440">
        <ele>1579.695</ele>
        <time>2020-05-22T14:19:50Z</time>
      </trkpt>
      <trkpt lat="43.059500" lon="-6.003410">
        <ele>1578.226</ele>
        <time>2020-05-22T14:20:10Z</time>
      </trkpt>
      <trkpt lat="43.059560" lon="-6.003370">
        <ele>1577.595</ele>
        <time>2020-05-22T14:20:30Z</time>
      </trkpt>
      <trkpt lat="43.059610" lon="-6.003340">
        <ele>1576.858</ele>
        <time>2020-05-22T14:20:50Z</time>
      </trkpt>
      <trkpt lat="43.059640" lon="-6.003310">
        <ele>1576.554</ele>
        <time>2020-05-22T14:21:10Z</time>
      </trkpt>
      <trkpt lat="43.059660" lon="-6.003290">
        <ele>1576.256</ele>
        <time>2020-05-22T14:21:30Z</time>
      </trkpt>
      <trkpt lat="43.059670" lon="-6.003270">
        <ele>1576.311</ele>
        <time>2020-05-22T14:21:50Z</time>
      </trkpt>
      <trkpt lat="43.059700" lon="-6.003240">
        <ele>1575.808</ele>
        <time>2020-05-22T14:22:10Z</time>
      </trkpt>
      <trkpt lat="43.059730" lon="-6.003190">
        <ele>1575.979</ele>
        <time>2020-05-22T14:22:30Z</time>
      </trkpt>
      <trkpt lat="43.059750" lon="-6.003150">
        <ele>1576.284</ele>
        <time>2020-05-22T14:22:50Z</time>
      </trkpt>
      <trkpt lat="43.059780" lon="-6.003080">
        <ele>1577.251</ele>
        <time>2020-05-22T14:23:10Z</time>
      </trkpt>
      <trkpt lat="43.059880" lon="-6.002860">
        <ele>1579.357</ele>
        <time>2020-05-22T14:23:30Z</time>
      </trkpt>
      <trkpt lat="43.059900" lon="-6.002810">
        <ele>1579.736</ele>
        <time>2020-05-22T14:23:50Z</time>
      </trkpt>
      <trkpt lat="43.059920" lon="-6.002770">
        <ele>1579.887</ele>
        <time>2020-05-22T14:24:10Z</time>
      </trkpt>
      <trkpt lat="43.059940" lon="-6.002740">
        <ele>1579.726</ele>
        <time>2020-05-22T14:24:30Z</time>
      </trkpt>
      <trkpt lat="43.059970" lon="-6.002710">
        <ele>1579.149</ele>
        <time>2020-05-22T14:24:50Z</time>
      </trkpt>
      <trkpt lat="43.059970" lon="-6.002690">
        <ele>1579.415</ele>
        <time>2020-05-22T14:25:10Z</time>
      </trkpt>
      <trkpt lat="43.059990" lon="-6.002680">
        <ele>1578.865</ele>
        <time>2020-05-22T14:25:30Z</time>
      </trkpt>
      <trkpt lat="43.060010" lon="-6.002650">
        <ele>1578.511</ele>
        <time>2020-05-22T14:25:50Z</time>
      </trkpt>
      <trkpt lat="43.060050" lon="-6.002610">
        <ele>1577.908</ele>
        <time>2020-05-22T14:26:10Z</time>
      </trkpt>
      <trkpt lat="43.060150" lon="-6.002530">
        <ele>1575.865</ele>
        <time>2020-05-22T14:26:30Z</time>
      </trkpt>
      <trkpt lat="43.060230" lon="-6.002470">
        <ele>1574.110</ele>
        <time>2020-05-22T14:26:50Z</time>
      </trkpt>
      <trkpt lat="43.060280" lon="-6.002430">
        <ele>1573.397</ele>
        <time>2020-05-22T14:27:10Z</time>
      </trkpt>
      <trkpt lat="43.060310" lon="-6.002410">
        <ele>1573.673</ele>
        <time>2020-05-22T14:27:30Z</time>
      </trkpt>
      <trkpt lat="43.060340" lon="-6.002390">
        <ele>1573.952</ele>
        <time>2020-05-22T14:27:50Z</time>
      </trkpt>
      <trkpt lat="43.060380" lon="-6.002370">
        <ele>1574.283</ele>
        <time>2020-05-22T14:28:10Z</time>
      </trkpt>
      <trkpt lat="43.060410" lon="-6.002360">
        <ele>1574.352</ele>
        <time>2020-05-22T14:28:30Z</time>
      </trkpt>
      <trkpt lat="43.060430" lon="-6.002360">
        <ele>1574.285</ele>
        <time>2020-05-22T14:28:50Z</time>
      </trkpt>
      <trkpt lat="43.060450" lon="-6.002350">
        <ele>1574.453</ele>
        <time>2020-05-22T14:29:10Z</time>
      </trkpt>
      <trkpt lat="43.060460" lon="-6.002350">
        <ele>1574.304</ele>
        <time>2020-05-22T14:29:30Z</time>
      </trkpt>
      <trkpt lat="43.060480" lon="-6.002350">
        <ele>1574.314</ele>
        <time>2020-05-22T14:29:50Z</time>
      </trkpt>
      <trkpt lat="43.060500" lon="-6.002360">
        <ele>1574.108</ele>
        <time>2020-05-22T14:30:10Z</time>
      </trkpt>
      <trkpt lat="43.060530" lon="-6.002370">
        <ele>1573.919</ele>
        <time>2020-05-22T14:30:30Z</time>
      </trkpt>
      <trkpt lat="43.060550" lon="-6.002380">
        <ele>1573.744</ele>
        <time>2020-05-22T14:30:50Z</time>
      </trkpt>
      <trkpt lat="43.060570" lon="-6.002390">
        <ele>1573.761</ele>
        <time>2020-05-22T14:31:10Z</time>
      </trkpt>
      <trkpt lat="43.060590" lon="-6.002410">
        <ele>1573.577</ele>
        <time>2020-05-22T14:31:30Z</time>
      </trkpt>
      <trkpt lat="43.060640" lon="-6.002460">
        <ele>1572.916</ele>
        <time>2020-05-22T14:31:50Z</time>
      </trkpt>
      <trkpt lat="43.060690" lon="-6.002520">
        <ele>1572.177</ele>
        <time>2020-05-22T14:32:10Z</time>
      </trkpt>
      <trkpt lat="43.060730" lon="-6.002560">
        <ele>1571.466</ele>
        <time>2020-05-22T14:32:30Z</time>
      </trkpt>
      <trkpt lat="43.060770" lon="-6.002590">
        <ele>1570.999</ele>
        <time>2020-05-22T14:32:50Z</time>
      </trkpt>
      <trkpt lat="43.060800" lon="-6.002610">
        <ele>1570.651</ele>
        <time>2020-05-22T14:33:10Z</time>
      </trkpt>
      <trkpt lat="43.060830" lon="-6.002630">
        <ele>1570.201</ele>
        <time>2020-05-22T14:33:30Z</time>
      </trkpt>
      <trkpt lat="43.060860" lon="-6.002650">
        <ele>1569.811</ele>
        <time>2020-05-22T14:33:50Z</time>
      </trkpt>
      <trkpt lat="43.060910" lon="-6.002670">
        <ele>1569.408</ele>
        <time>2020-05-22T14:34:10Z</time>
      </trkpt>
      <trkpt lat="43.060920" lon="-6.002670">
        <ele>1569.479</ele>
        <time>2020-05-22T14:34:30Z</time>
      </trkpt>
      <trkpt lat="43.060960" lon="-6.002690">
        <ele>1569.094</ele>
        <time>2020-05-22T14:34:50Z</time>
      </trkpt>
      <trkpt lat="43.060990" lon="-6.002690">
        <ele>1569.171</ele>
        <time>2020-05-22T14:35:10Z</time>
      </trkpt>
      <trkpt lat="43.061020" lon="-6.002700">
        <ele>1568.957</ele>
        <time>2020-05-22T14:35:30Z</time>
      </trkpt>
      <trkpt lat="43.061050" lon="-6.002690">
        <ele>1569.166</ele>
        <time>2020-05-22T14:35:50Z</time>
      </trkpt>
      <trkpt lat="43.061100" lon="-6.002690">
        <ele>1569.257</ele>
        <time>2020-05-22T14:36:10Z</time>
      </trkpt>
      <trkpt lat="43.061210" lon="-6.002660">
        <ele>1569.536</ele>
        <time>2020-05-22T14:36:30Z</time>
      </trkpt>
      <trkpt lat="43.061360" lon="-6.002620">
        <ele>1569.639</ele>
        <time>2020-05-22T14:36:50Z</time>
      </trkpt>
      <trkpt lat="43.061390" lon="-6.002610">
        <ele>1569.674</ele>
        <time>2020-05-22T14:37:10Z</time>
      </trkpt>
      <trkpt lat="43.061460" lon="-6.002600">
        <ele>1569.656</ele>
        <time>2020-05-22T14:37:30Z</time>
      </trkpt>
      <trkpt lat="43.061540" lon="-6.002580">
        <ele>1569.721</ele>
        <time>2020-05-22T14:37:50Z</time>
      </trkpt>
      <trkpt lat="43.061570" lon="-6.002580">
        <ele>1569.608</ele>
        <time>2020-05-22T14:38:10Z</time>
      </trkpt>
      <trkpt lat="43.061720" lon="-6.002550">
        <ele>1569.311</ele>
        <time>2020-05-22T14:38:30Z</time>
      </trkpt>
      <trkpt lat="43.061920" lon="-6.002510">
        <ele>1568.066</ele>
        <time>2020-05-22T14:38:50Z</time>
      </trkpt>
      <trkpt lat="43.061980" lon="-6.002490">
        <ele>1567.933</ele>
        <time>2020-05-22T14:39:10Z</time>
      </trkpt>
      <trkpt lat="43.062080" lon="-6.002460">
        <ele>1568.089</ele>
        <time>2020-05-22T14:39:30Z</time>
      </trkpt>
      <trkpt lat="43.062160" lon="-6.002430">
        <ele>1568.398</ele>
        <time>2020-05-22T14:39:50Z</time>
      </trkpt>
      <trkpt lat="43.062300" lon="-6.002380">
        <ele>1568.899</ele>
        <time>2020-05-22T14:40:10Z</time>
      </trkpt>
      <trkpt lat="43.062520" lon="-6.002290">
        <ele>1569.328</ele>
        <time>2020-05-22T14:40:30Z</time>
      </trkpt>
      <trkpt lat="43.062670" lon="-6.002240">
        <ele>1569.051</ele>
        <time>2020-05-22T14:40:50Z</time>
      </trkpt>
      <trkpt lat="43.062750" lon="-6.002210">
        <ele>1568.855</ele>
        <time>2020-05-22T14:41:10Z</time>
      </trkpt>
      <trkpt lat="43.062830" lon="-6.002190">
        <ele>1569.307</ele>
        <time>2020-05-22T14:41:30Z</time>
      </trkpt>
      <trkpt lat="43.062910" lon="-6.002180">
        <ele>1569.817</ele>
        <time>2020-05-22T14:41:50Z</time>
      </trkpt>
      <trkpt lat="43.062970" lon="-6.002170">
        <ele>1570.208</ele>
        <time>2020-05-22T14:42:10Z</time>
      </trkpt>
      <trkpt lat="43.063110" lon="-6.002150">
        <ele>1570.659</ele>
        <time>2020-05-22T14:42:30Z</time>
      </trkpt>
      <trkpt lat="43.063220" lon="-6.002130">
        <ele>1570.544</ele>
        <time>2020-05-22T14:42:50Z</time>
      </trkpt>
      <trkpt lat="43.063270" lon="-6.002120">
        <ele>1570.541</ele>
        <time>2020-05-22T14:43:10Z</time>
      </trkpt>
      <trkpt lat="43.063300" lon="-6.002110">
        <ele>1570.637</ele>
        <time>2020-05-22T14:43:30Z</time>
      </trkpt>
      <trkpt lat="43.063330" lon="-6.002090">
        <ele>1570.946</ele>
        <time>2020-05-22T14:43:50Z</time>
      </trkpt>
      <trkpt lat="43.063340" lon="-6.002090">
        <ele>1570.767</ele>
        <time>2020-05-22T14:44:10Z</time>
      </trkpt>
      <trkpt lat="43.063380" lon="-6.002060">
        <ele>1570.236</ele>
        <time>2020-05-22T14:44:30Z</time>
      </trkpt>
      <trkpt lat="43.063410" lon="-6.002030">
        <ele>1569.959</ele>
        <time>2020-05-22T14:44:50Z</time>
      </trkpt>
      <trkpt lat="43.063440" lon="-6.002000">
        <ele>1569.795</ele>
        <time>2020-05-22T14:45:10Z</time>
      </trkpt>
      <trkpt lat="43.063470" lon="-6.001970">
        <ele>1569.549</ele>
        <time>2020-05-22T14:45:30Z</time>
      </trkpt>
      <trkpt lat="43.063470" lon="-6.001960">
        <ele>1569.723</ele>
        <time>2020-05-22T14:45:50Z</time>
      </trkpt>
      <trkpt lat="43.063490" lon="-6.001930">
        <ele>1569.708</ele>
        <time>2020-05-22T14:46:10Z</time>
      </trkpt>
      <trkpt lat="43.063510" lon="-6.001890">
        <ele>1569.643</ele>
        <time>2020-05-22T14:46:30Z</time>
      </trkpt>
      <trkpt lat="43.063520" lon="-6.001860">
        <ele>1569.638</ele>
        <time>2020-05-22T14:46:50Z</time>
      </trkpt>
      <trkpt lat="43.063530" lon="-6.001820">
        <ele>1569.875</ele>
        <time>2020-05-22T14:47:10Z</time>
      </trkpt>
      <trkpt lat="43.063550" lon="-6.001750">
        <ele>1570.031</ele>
        <time>2020-05-22T14:47:30Z</time>
      </trkpt>
      <trkpt lat="43.063550" lon="-6.001740">
        <ele>1570.170</ele>
        <time>2020-05-22T14:47:50Z</time>
      </trkpt>
      <trkpt lat="43.063560" lon="-6.001680">
        <ele>1570.581</ele>
        <time>2020-05-22T14:48:10Z</time>
      </trkpt>
      <trkpt lat="43.063570" lon="-6.001640">
        <ele>1570.610</ele>
        <time>2020-05-22T14:48:30Z</time>
      </trkpt>
      <trkpt lat="43.063580" lon="-6.001600">
        <ele>1570.853</ele>
        <time>2020-05-22T14:48:50Z</time>
      </trkpt>
      <trkpt lat="43.063590" lon="-6.001570">
        <ele>1570.874</ele>
        <time>2020-05-22T14:49:10Z</time>
      </trkpt>
      <trkpt lat="43.063610" lon="-6.001530">
        <ele>1570.556</ele>
        <time>2020-05-22T14:49:30Z</time>
      </trkpt>
      <trkpt lat="43.063640" lon="-6.001500">
        <ele>1569.821</ele>
        <time>2020-05-22T14:49:50Z</time>
      </trkpt>
      <trkpt lat="43.063770" lon="-6.001340">
        <ele>1568.408</ele>
        <time>2020-05-22T14:50:10Z</time>
      </trkpt>
      <trkpt lat="43.063840" lon="-6.001250">
        <ele>1568.621</ele>
        <time>2020-05-22T14:50:30Z</time>
      </trkpt>
      <trkpt lat="43.063890" lon="-6.001180">
        <ele>1569.286</ele>
        <time>2020-05-22T14:50:50Z</time>
      </trkpt>
      <trkpt lat="43.063950" lon="-6.001080">
        <ele>1570.023</ele>
        <time>2020-05-22T14:51:10Z</time>
      </trkpt>
      <trkpt lat="43.064030" lon="-6.000970">
        <ele>1570.059</ele>
        <time>2020-05-22T14:51:30Z</time>
      </trkpt>
      <trkpt lat="43.064060" lon="-6.000920">
        <ele>1570.128</ele>
        <time>2020-05-22T14:51:50Z</time>
      </trkpt>
      <trkpt lat="43.064110" lon="-6.000880">
        <ele>1569.649</ele>
        <time>2020-05-22T14:52:10Z</time>
      </trkpt>
      <trkpt lat="43.064150" lon="-6.000850">
        <ele>1569.168</ele>
        <time>2020-05-22T14:52:30Z</time>
      </trkpt>
      <trkpt lat="43.064200" lon="-6.000820">
        <ele>1568.661</ele>
        <time>2020-05-22T14:52:50Z</time>
      </trkpt>
      <trkpt lat="43.064310" lon="-6.000760">
        <ele>1567.845</ele>
        <time>2020-05-22T14:53:10Z</time>
      </trkpt>
      <trkpt lat="43.064320" lon="-6.000760">
        <ele>1567.647</ele>
        <time>2020-05-22T14:53:30Z</time>
      </trkpt>
      <trkpt lat="43.064380" lon="-6.000710">
        <ele>1567.711</ele>
        <time>2020-05-22T14:53:50Z</time>
      </trkpt>
      <trkpt lat="43.064400" lon="-6.000700">
        <ele>1567.608</ele>
        <time>2020-05-22T14:54:10Z</time>
      </trkpt>
      <trkpt lat="43.064430" lon="-6.000670">
        <ele>1568.018</ele>
        <time>2020-05-22T14:54:30Z</time>
      </trkpt>
      <trkpt lat="43.064450" lon="-6.000650">
        <ele>1568.243</ele>
        <time>2020-05-22T14:54:50Z</time>
      </trkpt>
      <trkpt lat="43.064500" lon="-6.000580">
        <ele>1569.760</ele>
        <time>2020-05-22T14:55:10Z</time>
      </trkpt>
      <trkpt lat="43.064640" lon="-6.000390">
        <ele>1573.746</ele>
        <time>2020-05-22T14:55:30Z</time>
      </trkpt>
      <trkpt lat="43.064660" lon="-6.000370">
        <ele>1574.045</ele>
        <time>2020-05-22T14:55:50Z</time>
      </trkpt>
      <trkpt lat="43.064670" lon="-6.000370">
        <ele>1573.966</ele>
        <time>2020-05-22T14:56:10Z</time>
      </trkpt>
      <trkpt lat="43.064680" lon="-6.000370">
        <ele>1573.815</ele>
        <time>2020-05-22T14:56:30Z</time>
      </trkpt>
      <trkpt lat="43.064690" lon="-6.000370">
        <ele>1573.778</ele>
        <time>2020-05-22T14:56:50Z</time>
      </trkpt>
      <trkpt lat="43.064700" lon="-6.000370">
        <ele>1573.659</ele>
        <time>2020-05-22T14:57:10Z</time>
      </trkpt>
      <trkpt lat="43.064720" lon="-6.000370">
        <ele>1573.403</ele>
        <time>2020-05-22T14:57:30Z</time>
      </trkpt>
      <trkpt lat="43.064730" lon="-6.000380">
        <ele>1573.223</ele>
        <time>2020-05-22T14:57:50Z</time>
      </trkpt>
      <trkpt lat="43.064740" lon="-6.000400">
        <ele>1572.808</ele>
        <time>2020-05-22T14:58:10Z</time>
      </trkpt>
      <trkpt lat="43.064750" lon="-6.000400">
        <ele>1573.019</ele>
        <time>2020-05-22T14:58:30Z</time>
      </trkpt>
      <trkpt lat="43.064760" lon="-6.000420">
        <ele>1572.774</ele>
        <time>2020-05-22T14:58:50Z</time>
      </trkpt>
      <trkpt lat="43.064770" lon="-6.000440">
        <ele>1572.351</ele>
        <time>2020-05-22T14:59:10Z</time>
      </trkpt>
      <trkpt lat="43.064830" lon="-6.000560">
        <ele>1570.217</ele>
        <time>2020-05-22T14:59:30Z</time>
      </trkpt>
      <trkpt lat="43.064850" lon="-6.000600">
        <ele>1569.746</ele>
        <time>2020-05-22T14:59:50Z</time>
      </trkpt>
      <trkpt lat="43.064860" lon="-6.000620">
        <ele>1569.567</ele>
        <time>2020-05-22T15:00:10Z</time>
      </trkpt>
      <trkpt lat="43.064920" lon="-6.000790">
        <ele>1566.656</ele>
        <time>2020-05-22T15:00:30Z</time>
      </trkpt>
      <trkpt lat="43.064930" lon="-6.000820">
        <ele>1566.149</ele>
        <time>2020-05-22T15:00:50Z</time>
      </trkpt>
      <trkpt lat="43.064980" lon="-6.000980">
        <ele>1563.553</ele>
        <time>2020-05-22T15:01:10Z</time>
      </trkpt>
      <trkpt lat="43.065020" lon="-6.001100">
        <ele>1561.904</ele>
        <time>2020-05-22T15:01:30Z</time>
      </trkpt>
      <trkpt lat="43.065070" lon="-6.001200">
        <ele>1561.214</ele>
        <time>2020-05-22T15:01:50Z</time>
      </trkpt>
      <trkpt lat="43.065150" lon="-6.001390">
        <ele>1559.908</ele>
        <time>2020-05-22T15:02:10Z</time>
      </trkpt>
      <trkpt lat="43.065240" lon="-6.001550">
        <ele>1559.569</ele>
        <time>2020-05-22T15:02:30Z</time>
      </trkpt>
      <trkpt lat="43.065310" lon="-6.001670">
        <ele>1559.444</ele>
        <time>2020-05-22T15:02:50Z</time>
      </trkpt>
      <trkpt lat="43.065340" lon="-6.001710">
        <ele>1559.511</ele>
        <time>2020-05-22T15:03:10Z</time>
      </trkpt>
      <trkpt lat="43.065390" lon="-6.001790">
        <ele>1559.357</ele>
        <time>2020-05-22T15:03:30Z</time>
      </trkpt>
      <trkpt lat="43.065430" lon="-6.001830">
        <ele>1559.896</ele>
        <time>2020-05-22T15:03:50Z</time>
      </trkpt>
      <trkpt lat="43.065460" lon="-6.001860">
        <ele>1560.377</ele>
        <time>2020-05-22T15:04:10Z</time>
      </trkpt>
      <trkpt lat="43.065530" lon="-6.001940">
        <ele>1560.936</ele>
        <time>2020-05-22T15:04:30Z</time>
      </trkpt>
      <trkpt lat="43.065580" lon="-6.001990">
        <ele>1560.689</ele>
        <time>2020-05-22T15:04:50Z</time>
      </trkpt>
      <trkpt lat="43.065620" lon="-6.002010">
        <ele>1560.664</ele>
        <time>2020-05-22T15:05:10Z</time>
      </trkpt>
      <trkpt lat="43.065680" lon="-6.002050">
        <ele>1560.106</ele>
        <time>2020-05-22T15:05:30Z</time>
      </trkpt>
      <trkpt lat="43.065740" lon="-6.002090">
        <ele>1559.616</ele>
        <time>2020-05-22T15:05:50Z</time>
      </trkpt>
      <trkpt lat="43.065780" lon="-6.002110">
        <ele>1559.508</ele>
        <time>2020-05-22T15:06:10Z</time>
      </trkpt>
      <trkpt lat="43.065840" lon="-6.002130">
        <ele>1559.760</ele>
        <time>2020-05-22T15:06:30Z</time>
      </trkpt>
      <trkpt lat="43.065890" lon="-6.002150">
        <ele>1559.065</ele>
        <time>2020-05-22T15:06:50Z</time>
      </trkpt>
      <trkpt lat="43.065950" lon="-6.002160">
        <ele>1558.762</ele>
        <time>2020-05-22T15:07:10Z</time>
      </trkpt>
      <trkpt lat="43.066030" lon="-6.002170">
        <ele>1558.598</ele>
        <time>2020-05-22T15:07:30Z</time>
      </trkpt>
      <trkpt lat="43.066080" lon="-6.002170">
        <ele>1558.657</ele>
        <time>2020-05-22T15:07:50Z</time>
      </trkpt>
      <trkpt lat="43.066170" lon="-6.002170">
        <ele>1558.998</ele>
        <time>2020-05-22T15:08:10Z</time>
      </trkpt>
      <trkpt lat="43.066260" lon="-6.002170">
        <ele>1559.377</ele>
        <time>2020-05-22T15:08:30Z</time>
      </trkpt>
      <trkpt lat="43.066440" lon="-6.002160">
        <ele>1560.670</ele>
        <time>2020-05-22T15:08:50Z</time>
      </trkpt>
      <trkpt lat="43.066460" lon="-6.002160">
        <ele>1560.744</ele>
        <time>2020-05-22T15:09:10Z</time>
      </trkpt>
      <trkpt lat="43.066570" lon="-6.002160">
        <ele>1561.405</ele>
        <time>2020-05-22T15:09:30Z</time>
      </trkpt>
      <trkpt lat="43.066660" lon="-6.002170">
        <ele>1561.615</ele>
        <time>2020-05-22T15:09:50Z</time>
      </trkpt>
      <trkpt lat="43.066740" lon="-6.002180">
        <ele>1561.208</ele>
        <time>2020-05-22T15:10:10Z</time>
      </trkpt>
      <trkpt lat="43.066820" lon="-6.002190">
        <ele>1560.698</ele>
        <time>2020-05-22T15:10:30Z</time>
      </trkpt>
      <trkpt lat="43.066990" lon="-6.002240">
        <ele>1558.453</ele>
        <time>2020-05-22T15:10:50Z</time>
      </trkpt>
      <trkpt lat="43.067080" lon="-6.002250">
        <ele>1558.050</ele>
        <time>2020-05-22T15:11:10Z</time>
      </trkpt>
      <trkpt lat="43.067150" lon="-6.002260">
        <ele>1557.766</ele>
        <time>2020-05-22T15:11:30Z</time>
      </trkpt>
      <trkpt lat="43.067160" lon="-6.002260">
        <ele>1557.795</ele>
        <time>2020-05-22T15:11:50Z</time>
      </trkpt>
      <trkpt lat="43.067210" lon="-6.002260">
        <ele>1557.816</ele>
        <time>2020-05-22T15:12:10Z</time>
      </trkpt>
      <trkpt lat="43.067290" lon="-6.002260">
        <ele>1557.645</ele>
        <time>2020-05-22T15:12:30Z</time>
      </trkpt>
      <trkpt lat="43.067540" lon="-6.002230">
        <ele>1557.838</ele>
        <time>2020-05-22T15:12:50Z</time>
      </trkpt>
      <trkpt lat="43.067700" lon="-6.002200">
        <ele>1558.772</ele>
        <time>2020-05-22T15:13:10Z</time>
      </trkpt>
      <trkpt lat="43.067850" lon="-6.002180">
        <ele>1558.013</ele>
        <time>2020-05-22T15:13:30Z</time>
      </trkpt>
      <trkpt lat="43.068050" lon="-6.002130">
        <ele>1556.414</ele>
        <time>2020-05-22T15:13:50Z</time>
      </trkpt>
      <trkpt lat="43.068230" lon="-6.002100">
        <ele>1555.908</ele>
        <time>2020-05-22T15:14:10Z</time>
      </trkpt>
      <trkpt lat="43.068290" lon="-6.002080">
        <ele>1556.011</ele>
        <time>2020-05-22T15:14:30Z</time>
      </trkpt>
      <trkpt lat="43.068330" lon="-6.002060">
        <ele>1556.126</ele>
        <time>2020-05-22T15:14:50Z</time>
      </trkpt>
      <trkpt lat="43.068360" lon="-6.002050">
        <ele>1555.993</ele>
        <time>2020-05-22T15:15:10Z</time>
      </trkpt>
      <trkpt lat="43.068400" lon="-6.002020">
        <ele>1555.929</ele>
        <time>2020-05-22T15:15:30Z</time>
      </trkpt>
      <trkpt lat="43.068410" lon="-6.002020">
        <ele>1555.768</ele>
        <time>2020-05-22T15:15:50Z</time>
      </trkpt>
      <trkpt lat="43.068450" lon="-6.001990">
        <ele>1555.839</ele>
        <time>2020-05-22T15:16:10Z</time>
      </trkpt>
      <trkpt lat="43.068470" lon="-6.001970">
        <ele>1555.998</ele>
        <time>2020-05-22T15:16:30Z</time>
      </trkpt>
      <trkpt lat="43.068480" lon="-6.001950">
        <ele>1556.281</ele>
        <time>2020-05-22T15:16:50Z</time>
      </trkpt>
      <trkpt lat="43.068500" lon="-6.001930">
        <ele>1556.114</ele>
        <time>2020-05-22T15:17:10Z</time>
      </trkpt>
      <trkpt lat="43.068510" lon="-6.001900">
        <ele>1556.354</ele>
        <time>2020-05-22T15:17:30Z</time>
      </trkpt>
      <trkpt lat="43.068520" lon="-6.001870">
        <ele>1556.409</ele>
        <time>2020-05-22T15:17:50Z</time>
      </trkpt>
      <trkpt lat="43.068530" lon="-6.001840">
        <ele>1556.408</ele>
        <time>2020-05-22T15:18:10Z</time>
      </trkpt>
      <trkpt lat="43.068530" lon="-6.001810">
        <ele>1556.755</ele>
        <time>2020-05-22T15:18:30Z</time>
      </trkpt>
      <trkpt lat="43.068530" lon="-6.001780">
        <ele>1557.030</ele>
        <time>2020-05-22T15:18:50Z</time>
      </trkpt>
      <trkpt lat="43.068530" lon="-6.001730">
        <ele>1557.527</ele>
        <time>2020-05-22T15:19:10Z</time>
      </trkpt>
      <trkpt lat="43.068530" lon="-6.001680">
        <ele>1557.973</ele>
        <time>2020-05-22T15:19:30Z</time>
      </trkpt>
      <trkpt lat="43.068520" lon="-6.001620">
        <ele>1558.722</ele>
        <time>2020-05-22T15:19:50Z</time>
      </trkpt>
      <trkpt lat="43.068520" lon="-6.001610">
        <ele>1558.863</ele>
        <time>2020-05-22T15:20:10Z</time>
      </trkpt>
      <trkpt lat="43.068500" lon="-6.001510">
        <ele>1560.362</ele>
        <time>2020-05-22T15:20:30Z</time>
      </trkpt>
      <trkpt lat="43.068490" lon="-6.001450">
        <ele>1561.265</ele>
        <time>2020-05-22T15:20:50Z</time>
      </trkpt>
      <trkpt lat="43.068480" lon="-6.001380">
        <ele>1562.314</ele>
        <time>2020-05-22T15:21:10Z</time>
      </trkpt>
      <trkpt lat="43.068480" lon="-6.001370">
        <ele>1562.454</ele>
        <time>2020-05-22T15:21:30Z</time>
      </trkpt>
      <trkpt lat="43.068470" lon="-6.001280">
        <ele>1564.009</ele>
        <time>2020-05-22T15:21:50Z</time>
      </trkpt>
      <trkpt lat="43.068460" lon="-6.001150">
        <ele>1566.208</ele>
        <time>2020-05-22T15:22:10Z</time>
      </trkpt>
      <trkpt lat="43.068460" lon="-6.001130">
        <ele>1566.545</ele>
        <time>2020-05-22T15:22:30Z</time>
      </trkpt>
      <trkpt lat="43.068460" lon="-6.001060">
        <ele>1567.280</ele>
        <time>2020-05-22T15:22:50Z</time>
      </trkpt>
      <trkpt lat="43.068460" lon="-6.000390">
        <ele>1571.477</ele>
        <time>2020-05-22T15:23:10Z</time>
      </trkpt>
      <trkpt lat="43.068460" lon="-6.000370">
        <ele>1571.423</ele>
        <time>2020-05-22T15:23:30Z</time>
      </trkpt>
      <trkpt lat="43.068460" lon="-6.000180">
        <ele>1571.512</ele>
        <time>2020-05-22T15:23:50Z</time>
      </trkpt>
      <trkpt lat="43.068470" lon="-6.000150">
        <ele>1570.923</ele>
        <time>2020-05-22T15:24:10Z</time>
      </trkpt>
      <trkpt lat="43.068470" lon="-6.000020">
        <ele>1571.112</ele>
        <time>2020-05-22T15:24:30Z</time>
      </trkpt>
      <trkpt lat="43.068480" lon="-5.999940">
        <ele>1562.315</ele>
        <time>2020-05-22T15:24:50Z</time>
      </trkpt>
      <trkpt lat="43.068480" lon="-5.999900">
        <ele>1562.897</ele>
        <time>2020-05-22T15:25:10Z</time>
      </trkpt>
      <trkpt lat="43.068480" lon="-5.999870">
        <ele>1563.223</ele>
        <time>2020-05-22T15:25:30Z</time>
      </trkpt>
      <trkpt lat="43.068490" lon="-5.999830">
        <ele>1563.225</ele>
        <time>2020-05-22T15:25:50Z</time>
      </trkpt>
      <trkpt lat="43.068490" lon="-5.999770">
        <ele>1563.908</ele>
        <time>2020-05-22T15:26:10Z</time>
      </trkpt>
      <trkpt lat="43.068500" lon="-5.999740">
        <ele>1563.833</ele>
        <time>2020-05-22T15:26:30Z</time>
      </trkpt>
      <trkpt lat="43.068510" lon="-5.999710">
        <ele>1563.758</ele>
        <time>2020-05-22T15:26:50Z</time>
      </trkpt>
      <trkpt lat="43.068520" lon="-5.999680">
        <ele>1563.965</ele>
        <time>2020-05-22T15:27:10Z</time>
      </trkpt>
      <trkpt lat="43.068520" lon="-5.999660">
        <ele>1564.491</ele>
        <time>2020-05-22T15:27:30Z</time>
      </trkpt>
      <trkpt lat="43.068530" lon="-5.999640">
        <ele>1564.420</ele>
        <time>2020-05-22T15:27:50Z</time>
      </trkpt>
      <trkpt lat="43.068560" lon="-5.999590">
        <ele>1564.261</ele>
        <time>2020-05-22T15:28:10Z</time>
      </trkpt>
      <trkpt lat="43.068580" lon="-5.999550">
        <ele>1564.410</ele>
        <time>2020-05-22T15:28:30Z</time>
      </trkpt>
      <trkpt lat="43.068600" lon="-5.999520">
        <ele>1564.323</ele>
        <time>2020-05-22T15:28:50Z</time>
      </trkpt>
      <trkpt lat="43.068610" lon="-5.999510">
        <ele>1564.299</ele>
        <time>2020-05-22T15:29:10Z</time>
      </trkpt>
      <trkpt lat="43.068630" lon="-5.999490">
        <ele>1564.307</ele>
        <time>2020-05-22T15:29:30Z</time>
      </trkpt>
      <trkpt lat="43.068640" lon="-5.999480">
        <ele>1564.427</ele>
        <time>2020-05-22T15:29:50Z</time>
      </trkpt>
      <trkpt lat="43.068650" lon="-5.999470">
        <ele>1564.508</ele>
        <time>2020-05-22T15:30:10Z</time>
      </trkpt>
      <trkpt lat="43.068690" lon="-5.999460">
        <ele>1564.123</ele>
        <time>2020-05-22T15:30:30Z</time>
      </trkpt>
      <trkpt lat="43.068730" lon="-5.999430">
        <ele>1564.488</ele>
        <time>2020-05-22T15:30:50Z</time>
      </trkpt>
      <trkpt lat="43.068770" lon="-5.999410">
        <ele>1564.475</ele>
        <time>2020-05-22T15:31:10Z</time>
      </trkpt>
      <trkpt lat="43.068800" lon="-5.999390">
        <ele>1564.561</ele>
        <time>2020-05-22T15:31:30Z</time>
      </trkpt>
      <trkpt lat="43.068800" lon="-5.999380">
        <ele>1564.810</ele>
        <time>2020-05-22T15:31:50Z</time>
      </trkpt>
      <trkpt lat="43.068820" lon="-5.999370">
        <ele>1564.811</ele>
        <time>2020-05-22T15:32:10Z</time>
      </trkpt>
      <trkpt lat="43.068840" lon="-5.999340">
        <ele>1565.450</ele>
        <time>2020-05-22T15:32:30Z</time>
      </trkpt>
      <trkpt lat="43.068860" lon="-5.999290">
        <ele>1566.683</ele>
        <time>2020-05-22T15:32:50Z</time>
      </trkpt>
      <trkpt lat="43.068960" lon="-5.999060">
        <ele>1571.475</ele>
        <time>2020-05-22T15:33:10Z</time>
      </trkpt>
      <trkpt lat="43.068980" lon="-5.999010">
        <ele>1572.328</ele>
        <time>2020-05-22T15:33:30Z</time>
      </trkpt>
      <trkpt lat="43.068990" lon="-5.998980">
        <ele>1572.820</ele>
        <time>2020-05-22T15:33:50Z</time>
      </trkpt>
      <trkpt lat="43.068990" lon="-5.998960">
        <ele>1573.308</ele>
        <time>2020-05-22T15:34:10Z</time>
      </trkpt>
      <trkpt lat="43.068990" lon="-5.998950">
        <ele>1573.591</ele>
        <time>2020-05-22T15:34:30Z</time>
      </trkpt>
      <trkpt lat="43.068990" lon="-5.998890">
        <ele>1574.926</ele>
        <time>2020-05-22T15:34:50Z</time>
      </trkpt>
      <trkpt lat="43.068990" lon="-5.998820">
        <ele>1575.613</ele>
        <time>2020-05-22T15:35:10Z</time>
      </trkpt>
      <trkpt lat="43.068990" lon="-5.998780">
        <ele>1575.999</ele>
        <time>2020-05-22T15:35:30Z</time>
      </trkpt>
      <trkpt lat="43.068990" lon="-5.998740">
        <ele>1576.338</ele>
        <time>2020-05-22T15:35:50Z</time>
      </trkpt>
      <trkpt lat="43.068990" lon="-5.998720">
        <ele>1576.549</ele>
        <time>2020-05-22T15:36:10Z</time>
      </trkpt>
      <trkpt lat="43.068990" lon="-5.998700">
        <ele>1576.778</ele>
        <time>2020-05-22T15:36:30Z</time>
      </trkpt>
      <trkpt lat="43.068990" lon="-5.998670">
        <ele>1577.081</ele>
        <time>2020-05-22T15:36:50Z</time>
      </trkpt>
      <trkpt lat="43.069000" lon="-5.998640">
        <ele>1577.196</ele>
        <time>2020-05-22T15:37:10Z</time>
      </trkpt>
      <trkpt lat="43.069010" lon="-5.998610">
        <ele>1577.331</ele>
        <time>2020-05-22T15:37:30Z</time>
      </trkpt>
      <trkpt lat="43.069020" lon="-5.998580">
        <ele>1577.624</ele>
        <time>2020-05-22T15:37:50Z</time>
      </trkpt>
      <trkpt lat="43.069040" lon="-5.998550">
        <ele>1577.708</ele>
        <time>2020-05-22T15:38:10Z</time>
      </trkpt>
      <trkpt lat="43.069070" lon="-5.998500">
        <ele>1577.713</ele>
        <time>2020-05-22T15:38:30Z</time>
      </trkpt>
      <trkpt lat="43.069080" lon="-5.998480">
        <ele>1577.828</ele>
        <time>2020-05-22T15:38:50Z</time>
      </trkpt>
      <trkpt lat="43.069100" lon="-5.998460">
        <ele>1577.625</ele>
        <time>2020-05-22T15:39:10Z</time>
      </trkpt>
      <trkpt lat="43.069110" lon="-5.998440">
        <ele>1577.631</ele>
        <time>2020-05-22T15:39:30Z</time>
      </trkpt>
      <trkpt lat="43.069120" lon="-5.998430">
        <ele>1577.490</ele>
        <time>2020-05-22T15:39:50Z</time>
      </trkpt>
      <trkpt lat="43.069130" lon="-5.998420">
        <ele>1577.361</ele>
        <time>2020-05-22T15:40:10Z</time>
      </trkpt>
      <trkpt lat="43.069150" lon="-5.998410">
        <ele>1576.990</ele>
        <time>2020-05-22T15:40:30Z</time>
      </trkpt>
      <trkpt lat="43.069160" lon="-5.998410">
        <ele>1576.623</ele>
        <time>2020-05-22T15:40:50Z</time>
      </trkpt>
      <trkpt lat="43.069180" lon="-5.998400">
        <ele>1576.411</ele>
        <time>2020-05-22T15:41:10Z</time>
      </trkpt>
      <trkpt lat="43.069200" lon="-5.998400">
        <ele>1576.321</ele>
        <time>2020-05-22T15:41:30Z</time>
      </trkpt>
      <trkpt lat="43.069220" lon="-5.998400">
        <ele>1576.203</ele>
        <time>2020-05-22T15:41:50Z</time>
      </trkpt>
      <trkpt lat="43.069230" lon="-5.998400">
        <ele>1576.208</ele>
        <time>2020-05-22T15:42:10Z</time>
      </trkpt>
      <trkpt lat="43.069250" lon="-5.998410">
        <ele>1576.035</ele>
        <time>2020-05-22T15:42:30Z</time>
      </trkpt>
      <trkpt lat="43.069270" lon="-5.998410">
        <ele>1575.910</ele>
        <time>2020-05-22T15:42:50Z</time>
      </trkpt>
      <trkpt lat="43.069280" lon="-5.998420">
        <ele>1575.727</ele>
        <time>2020-05-22T15:43:10Z</time>
      </trkpt>
      <trkpt lat="43.069310" lon="-5.998440">
        <ele>1575.353</ele>
        <time>2020-05-22T15:43:30Z</time>
      </trkpt>
      <trkpt lat="43.069390" lon="-5.998490">
        <ele>1574.292</ele>
        <time>2020-05-22T15:43:50Z</time>
      </trkpt>
      <trkpt lat="43.069410" lon="-5.998510">
        <ele>1573.753</ele>
        <time>2020-05-22T15:44:10Z</time>
      </trkpt>
      <trkpt lat="43.069550" lon="-5.998590">
        <ele>1572.822</ele>
        <time>2020-05-22T15:44:30Z</time>
      </trkpt>
      <trkpt lat="43.069630" lon="-5.998650">
        <ele>1572.185</ele>
        <time>2020-05-22T15:44:50Z</time>
      </trkpt>
      <trkpt lat="43.069710" lon="-5.998700">
        <ele>1571.474</ele>
        <time>2020-05-22T15:45:10Z</time>
      </trkpt>
      <trkpt lat="43.069790" lon="-5.998750">
        <ele>1572.156</ele>
        <time>2020-05-22T15:45:30Z</time>
      </trkpt>
      <trkpt lat="43.069880" lon="-5.998800">
        <ele>1573.021</ele>
        <time>2020-05-22T15:45:50Z</time>
      </trkpt>
      <trkpt lat="43.070130" lon="-5.998970">
        <ele>1574.008</ele>
        <time>2020-05-22T15:46:10Z</time>
      </trkpt>
      <trkpt lat="43.070160" lon="-5.998990">
        <ele>1574.241</ele>
        <time>2020-05-22T15:46:30Z</time>
      </trkpt>
      <trkpt lat="43.070200" lon="-5.999000">
        <ele>1574.786</ele>
        <time>2020-05-22T15:46:50Z</time>
      </trkpt>
      <trkpt lat="43.070240" lon="-5.999020">
        <ele>1575.033</ele>
        <time>2020-05-22T15:47:10Z</time>
      </trkpt>
      <trkpt lat="43.070290" lon="-5.999030">
        <ele>1575.589</ele>
        <time>2020-05-22T15:47:30Z</time>
      </trkpt>
      <trkpt lat="43.070410" lon="-5.999050">
        <ele>1575.428</ele>
        <time>2020-05-22T15:47:50Z</time>
      </trkpt>
      <trkpt lat="43.070450" lon="-5.999060">
        <ele>1575.359</ele>
        <time>2020-05-22T15:48:10Z</time>
      </trkpt>
      <trkpt lat="43.070480" lon="-5.999060">
        <ele>1575.498</ele>
        <time>2020-05-22T15:48:30Z</time>
      </trkpt>
      <trkpt lat="43.070510" lon="-5.999060">
        <ele>1575.461</ele>
        <time>2020-05-22T15:48:50Z</time>
      </trkpt>
      <trkpt lat="43.070540" lon="-5.999050">
        <ele>1575.648</ele>
        <time>2020-05-22T15:49:10Z</time>
      </trkpt>
      <trkpt lat="43.070560" lon="-5.999040">
        <ele>1575.761</ele>
        <time>2020-05-22T15:49:30Z</time>
      </trkpt>
      <trkpt lat="43.070590" lon="-5.999020">
        <ele>1575.417</ele>
        <time>2020-05-22T15:49:50Z</time>
      </trkpt>
      <trkpt lat="43.070610" lon="-5.999010">
        <ele>1575.108</ele>
        <time>2020-05-22T15:50:10Z</time>
      </trkpt>
      <trkpt lat="43.070620" lon="-5.998980">
        <ele>1575.448</ele>
        <time>2020-05-22T15:50:30Z</time>
      </trkpt>
      <trkpt lat="43.070640" lon="-5.998950">
        <ele>1575.543</ele>
        <time>2020-05-22T15:50:50Z</time>
      </trkpt>
      <trkpt lat="43.070650" lon="-5.998920">
        <ele>1575.840</ele>
        <time>2020-05-22T15:51:10Z</time>
      </trkpt>
      <trkpt lat="43.070660" lon="-5.998870">
        <ele>1576.496</ele>
        <time>2020-05-22T15:51:30Z</time>
      </trkpt>
      <trkpt lat="43.070660" lon="-5.998860">
        <ele>1576.685</ele>
        <time>2020-05-22T15:51:50Z</time>
      </trkpt>
      <trkpt lat="43.070670" lon="-5.998800">
        <ele>1577.436</ele>
        <time>2020-05-22T15:52:10Z</time>
      </trkpt>
      <trkpt lat="43.070700" lon="-5.998580">
        <ele>1580.575</ele>
        <time>2020-05-22T15:52:30Z</time>
      </trkpt>
      <trkpt lat="43.070710" lon="-5.998540">
        <ele>1581.198</ele>
        <time>2020-05-22T15:52:50Z</time>
      </trkpt>
      <trkpt lat="43.070710" lon="-5.998510">
        <ele>1581.763</ele>
        <time>2020-05-22T15:53:10Z</time>
      </trkpt>
      <trkpt lat="43.070720" lon="-5.998490">
        <ele>1581.944</ele>
        <time>2020-05-22T15:53:30Z</time>
      </trkpt>
      <trkpt lat="43.070730" lon="-5.998470">
        <ele>1582.118</ele>
        <time>2020-05-22T15:53:50Z</time>
      </trkpt>
      <trkpt lat="43.070740" lon="-5.998450">
        <ele>1582.308</ele>
        <time>2020-05-22T15:54:10Z</time>
      </trkpt>
      <trkpt lat="43.070760" lon="-5.998440">
        <ele>1582.180</ele>
        <time>2020-05-22T15:54:30Z</time>
      </trkpt>
      <trkpt lat="43.070770" lon="-5.998430">
        <ele>1582.145</ele>
        <time>2020-05-22T15:54:50Z</time>
      </trkpt>
      <trkpt lat="43.070790" lon="-5.998420">
        <ele>1582.062</ele>
        <time>2020-05-22T15:55:10Z</time>
      </trkpt>
      <trkpt lat="43.070810" lon="-5.998420">
        <ele>1581.638</ele>
        <time>2020-05-22T15:55:30Z</time>
      </trkpt>
      <trkpt lat="43.070890" lon="-5.998420">
        <ele>1579.867</ele>
        <time>2020-05-22T15:55:50Z</time>
      </trkpt>
      <trkpt lat="43.070920" lon="-5.998410">
        <ele>1579.318</ele>
        <time>2020-05-22T15:56:10Z</time>
      </trkpt>
      <trkpt lat="43.070940" lon="-5.998410">
        <ele>1578.857</ele>
        <time>2020-05-22T15:56:30Z</time>
      </trkpt>
      <trkpt lat="43.070960" lon="-5.998400">
        <ele>1578.670</ele>
        <time>2020-05-22T15:56:50Z</time>
      </trkpt>
      <trkpt lat="43.070970" lon="-5.998400">
        <ele>1578.478</ele>
        <time>2020-05-22T15:57:10Z</time>
      </trkpt>
      <trkpt lat="43.070990" lon="-5.998380">
        <ele>1578.433</ele>
        <time>2020-05-22T15:57:30Z</time>
      </trkpt>
      <trkpt lat="43.071010" lon="-5.998370">
        <ele>1578.226</ele>
        <time>2020-05-22T15:57:50Z</time>
      </trkpt>
      <trkpt lat="43.071030" lon="-5.998350">
        <ele>1578.308</ele>
        <time>2020-05-22T15:58:10Z</time>
      </trkpt>
      <trkpt lat="43.071050" lon="-5.998330">
        <ele>1578.411</ele>
        <time>2020-05-22T15:58:30Z</time>
      </trkpt>
      <trkpt lat="43.071080" lon="-5.998300">
        <ele>1578.616</ele>
        <time>2020-05-22T15:58:50Z</time>
      </trkpt>
      <trkpt lat="43.071110" lon="-5.998250">
        <ele>1579.123</ele>
        <time>2020-05-22T15:59:10Z</time>
      </trkpt>
      <trkpt lat="43.071140" lon="-5.998200">
        <ele>1578.479</ele>
        <time>2020-05-22T15:59:30Z</time>
      </trkpt>
      <trkpt lat="43.071180" lon="-5.998120">
        <ele>1577.938</ele>
        <time>2020-05-22T15:59:50Z</time>
      </trkpt>
      <trkpt lat="43.071210" lon="-5.998060">
        <ele>1577.569</ele>
        <time>2020-05-22T16:00:10Z</time>
      </trkpt>
      <trkpt lat="43.071210" lon="-5.998050">
        <ele>1577.748</ele>
        <time>2020-05-22T16:00:30Z</time>
      </trkpt>
      <trkpt lat="43.071240" lon="-5.997980">
        <ele>1577.591</ele>
        <time>2020-05-22T16:00:50Z</time>
      </trkpt>
      <trkpt lat="43.071290" lon="-5.997840">
        <ele>1578.122</ele>
        <time>2020-05-22T16:01:10Z</time>
      </trkpt>
      <trkpt lat="43.071340" lon="-5.997710">
        <ele>1578.862</ele>
        <time>2020-05-22T16:01:30Z</time>
      </trkpt>
      <trkpt lat="43.071360" lon="-5.997640">
        <ele>1579.608</ele>
        <time>2020-05-22T16:01:50Z</time>
      </trkpt>
      <trkpt lat="43.071370" lon="-5.997620">
        <ele>1579.608</ele>
        <time>2020-05-22T16:02:10Z</time>
      </trkpt>
      <trkpt lat="43.071390" lon="-5.997590">
        <ele>1579.446</ele>
        <time>2020-05-22T16:02:30Z</time>
      </trkpt>
      <trkpt lat="43.071420" lon="-5.997520">
        <ele>1580.381</ele>
        <time>2020-05-22T16:02:50Z</time>
      </trkpt>
      <trkpt lat="43.071450" lon="-5.997470">
        <ele>1580.938</ele>
        <time>2020-05-22T16:03:10Z</time>
      </trkpt>
      <trkpt lat="43.071500" lon="-5.997400">
        <ele>1581.744</ele>
        <time>2020-05-22T16:03:30Z</time>
      </trkpt>
      <trkpt lat="43.071610" lon="-5.997250">
        <ele>1583.883</ele>
        <time>2020-05-22T16:03:50Z</time>
      </trkpt>
      <trkpt lat="43.071670" lon="-5.997170">
        <ele>1585.384</ele>
        <time>2020-05-22T16:04:10Z</time>
      </trkpt>
      <trkpt lat="43.071690" lon="-5.997150">
        <ele>1586.423</ele>
        <time>2020-05-22T16:04:30Z</time>
      </trkpt>
      <trkpt lat="43.071700" lon="-5.997140">
        <ele>1586.966</ele>
        <time>2020-05-22T16:04:50Z</time>
      </trkpt>
      <trkpt lat="43.071720" lon="-5.997130">
        <ele>1587.611</ele>
        <time>2020-05-22T16:05:10Z</time>
      </trkpt>
      <trkpt lat="43.071730" lon="-5.997120">
        <ele>1588.121</ele>
        <time>2020-05-22T16:05:30Z</time>
      </trkpt>
      <trkpt lat="43.071740" lon="-5.997120">
        <ele>1588.203</ele>
        <time>2020-05-22T16:05:50Z</time>
      </trkpt>
      <trkpt lat="43.071760" lon="-5.997120">
        <ele>1588.408</ele>
        <time>2020-05-22T16:06:10Z</time>
      </trkpt>
      <trkpt lat="43.071770" lon="-5.997120">
        <ele>1588.545</ele>
        <time>2020-05-22T16:06:30Z</time>
      </trkpt>
      <trkpt lat="43.071790" lon="-5.997130">
        <ele>1588.330</ele>
        <time>2020-05-22T16:06:50Z</time>
      </trkpt>
      <trkpt lat="43.071800" lon="-5.997130">
        <ele>1588.417</ele>
        <time>2020-05-22T16:07:10Z</time>
      </trkpt>
      <trkpt lat="43.071820" lon="-5.997140">
        <ele>1588.323</ele>
        <time>2020-05-22T16:07:30Z</time>
      </trkpt>
      <trkpt lat="43.071830" lon="-5.997160">
        <ele>1587.832</ele>
        <time>2020-05-22T16:07:50Z</time>
      </trkpt>
      <trkpt lat="43.071850" lon="-5.997170">
        <ele>1587.853</ele>
        <time>2020-05-22T16:08:10Z</time>
      </trkpt>
      <trkpt lat="43.071900" lon="-5.997260">
        <ele>1586.362</ele>
        <time>2020-05-22T16:08:30Z</time>
      </trkpt>
      <trkpt lat="43.071920" lon="-5.997290">
        <ele>1586.085</ele>
        <time>2020-05-22T16:08:50Z</time>
      </trkpt>
      <trkpt lat="43.071970" lon="-5.997390">
        <ele>1585.894</ele>
        <time>2020-05-22T16:09:10Z</time>
      </trkpt>
      <trkpt lat="43.072040" lon="-5.997540">
        <ele>1586.357</ele>
        <time>2020-05-22T16:09:30Z</time>
      </trkpt>
      <trkpt lat="43.072100" lon="-5.997660">
        <ele>1586.922</ele>
        <time>2020-05-22T16:09:50Z</time>
      </trkpt>
      <trkpt lat="43.072110" lon="-5.997670">
        <ele>1587.308</ele>
        <time>2020-05-22T16:10:10Z</time>
      </trkpt>
      <trkpt lat="43.072240" lon="-5.997990">
        <ele>1588.973</ele>
        <time>2020-05-22T16:10:30Z</time>
      </trkpt>
      <trkpt lat="43.072280" lon="-5.998080">
        <ele>1589.488</ele>
        <time>2020-05-22T16:10:50Z</time>
      </trkpt>
      <trkpt lat="43.072390" lon="-5.998280">
        <ele>1590.015</ele>
        <time>2020-05-22T16:11:10Z</time>
      </trkpt>
      <trkpt lat="43.072410" lon="-5.998310">
        <ele>1590.031</ele>
        <time>2020-05-22T16:11:30Z</time>
      </trkpt>
      <trkpt lat="43.072430" lon="-5.998350">
        <ele>1589.710</ele>
        <time>2020-05-22T16:11:50Z</time>
      </trkpt>
      <trkpt lat="43.072450" lon="-5.998380">
        <ele>1589.631</ele>
        <time>2020-05-22T16:12:10Z</time>
      </trkpt>
      <trkpt lat="43.072470" lon="-5.998410">
        <ele>1589.490</ele>
        <time>2020-05-22T16:12:30Z</time>
      </trkpt>
      <trkpt lat="43.072520" lon="-5.998460">
        <ele>1589.763</ele>
        <time>2020-05-22T16:12:50Z</time>
      </trkpt>
      <trkpt lat="43.072570" lon="-5.998510">
        <ele>1590.252</ele>
        <time>2020-05-22T16:13:10Z</time>
      </trkpt>
      <trkpt lat="43.072600" lon="-5.998550">
        <ele>1590.253</ele>
        <time>2020-05-22T16:13:30Z</time>
      </trkpt>
      <trkpt lat="43.072620" lon="-5.998570">
        <ele>1590.508</ele>
        <time>2020-05-22T16:13:50Z</time>
      </trkpt>
      <trkpt lat="43.072640" lon="-5.998610">
        <ele>1590.108</ele>
        <time>2020-05-22T16:14:10Z</time>
      </trkpt>
      <trkpt lat="43.072670" lon="-5.998660">
        <ele>1590.439</ele>
        <time>2020-05-22T16:14:30Z</time>
      </trkpt>
      <trkpt lat="43.072760" lon="-5.998820">
        <ele>1590.874</ele>
        <time>2020-05-22T16:14:50Z</time>
      </trkpt>
      <trkpt lat="43.072790" lon="-5.998880">
        <ele>1590.441</ele>
        <time>2020-05-22T16:15:10Z</time>
      </trkpt>
      <trkpt lat="43.072820" lon="-5.998920">
        <ele>1590.147</ele>
        <time>2020-05-22T16:15:30Z</time>
      </trkpt>
      <trkpt lat="43.072850" lon="-5.998950">
        <ele>1590.016</ele>
        <time>2020-05-22T16:15:50Z</time>
      </trkpt>
      <trkpt lat="43.072880" lon="-5.998970">
        <ele>1590.187</ele>
        <time>2020-05-22T16:16:10Z</time>
      </trkpt>
      <trkpt lat="43.072890" lon="-5.998980">
        <ele>1590.056</ele>
        <time>2020-05-22T16:16:30Z</time>
      </trkpt>
      <trkpt lat="43.072900" lon="-5.998990">
        <ele>1589.959</ele>
        <time>2020-05-22T16:16:50Z</time>
      </trkpt>
      <trkpt lat="43.072970" lon="-5.999040">
        <ele>1589.652</ele>
        <time>2020-05-22T16:17:10Z</time>
      </trkpt>
      <trkpt lat="43.073070" lon="-5.999120">
        <ele>1588.653</ele>
        <time>2020-05-22T16:17:30Z</time>
      </trkpt>
      <trkpt lat="43.073110" lon="-5.999150">
        <ele>1588.508</ele>
        <time>2020-05-22T16:17:50Z</time>
      </trkpt>
      <trkpt lat="43.073160" lon="-5.999200">
        <ele>1588.008</ele>
        <time>2020-05-22T16:18:10Z</time>
      </trkpt>
      <trkpt lat="43.073320" lon="-5.999360">
        <ele>1586.289</ele>
        <time>2020-05-22T16:18:30Z</time>
      </trkpt>
      <trkpt lat="43.073340" lon="-5.999390">
        <ele>1585.844</ele>
        <time>2020-05-22T16:18:50Z</time>
      </trkpt>
      <trkpt lat="43.073350" lon="-5.999400">
        <ele>1585.891</ele>
        <time>2020-05-22T16:19:10Z</time>
      </trkpt>
      <trkpt lat="43.073370" lon="-5.999430">
        <ele>1585.687</ele>
        <time>2020-05-22T16:19:30Z</time>
      </trkpt>
      <trkpt lat="43.073390" lon="-5.999460">
        <ele>1585.486</ele>
        <time>2020-05-22T16:19:50Z</time>
      </trkpt>
      <trkpt lat="43.073430" lon="-5.999540">
        <ele>1584.467</ele>
        <time>2020-05-22T16:20:10Z</time>
      </trkpt>
      <trkpt lat="43.073460" lon="-5.999580">
        <ele>1584.486</ele>
        <time>2020-05-22T16:20:30Z</time>
      </trkpt>
      <trkpt lat="43.073510" lon="-5.999670">
        <ele>1584.099</ele>
        <time>2020-05-22T16:20:50Z</time>
      </trkpt>
      <trkpt lat="43.073570" lon="-5.999760">
        <ele>1584.439</ele>
        <time>2020-05-22T16:21:10Z</time>
      </trkpt>
      <trkpt lat="43.073630" lon="-5.999850">
        <ele>1585.001</ele>
        <time>2020-05-22T16:21:30Z</time>
      </trkpt>
      <trkpt lat="43.073700" lon="-5.999940">
        <ele>1585.921</ele>
        <time>2020-05-22T16:21:50Z</time>
      </trkpt>
      <trkpt lat="43.073750" lon="-6.000010">
        <ele>1585.708</ele>
        <time>2020-05-22T16:22:10Z</time>
      </trkpt>
      <trkpt lat="43.073830" lon="-6.000100">
        <ele>1586.467</ele>
        <time>2020-05-22T16:22:30Z</time>
      </trkpt>
      <trkpt lat="43.073900" lon="-6.000180">
        <ele>1586.832</ele>
        <time>2020-05-22T16:22:50Z</time>
      </trkpt>
      <trkpt lat="43.073970" lon="-6.000260">
        <ele>1587.149</ele>
        <time>2020-05-22T16:23:10Z</time>
      </trkpt>
      <trkpt lat="43.074030" lon="-6.000330">
        <ele>1586.915</ele>
        <time>2020-05-22T16:23:30Z</time>
      </trkpt>
      <trkpt lat="43.074160" lon="-6.000450">
        <ele>1587.274</ele>
        <time>2020-05-22T16:23:50Z</time>
      </trkpt>
      <trkpt lat="43.074280" lon="-6.000560">
        <ele>1586.735</ele>
        <time>2020-05-22T16:24:10Z</time>
      </trkpt>
      <trkpt lat="43.074420" lon="-6.000660">
        <ele>1586.614</ele>
        <time>2020-05-22T16:24:30Z</time>
      </trkpt>
      <trkpt lat="43.074480" lon="-6.000710">
        <ele>1586.527</ele>
        <time>2020-05-22T16:24:50Z</time>
      </trkpt>
      <trkpt lat="43.074580" lon="-6.000790">
        <ele>1586.127</ele>
        <time>2020-05-22T16:25:10Z</time>
      </trkpt>
      <trkpt lat="43.074680" lon="-6.000870">
        <ele>1585.568</ele>
        <time>2020-05-22T16:25:30Z</time>
      </trkpt>
      <trkpt lat="43.074770" lon="-6.000930">
        <ele>1585.514</ele>
        <time>2020-05-22T16:25:50Z</time>
      </trkpt>
      <trkpt lat="43.074900" lon="-6.001010">
        <ele>1585.708</ele>
        <time>2020-05-22T16:26:10Z</time>
      </trkpt>
      <trkpt lat="43.075040" lon="-6.001090">
        <ele>1586.156</ele>
        <time>2020-05-22T16:26:30Z</time>
      </trkpt>
      <trkpt lat="43.075100" lon="-6.001130">
        <ele>1586.271</ele>
        <time>2020-05-22T16:26:50Z</time>
      </trkpt>
      <trkpt lat="43.075160" lon="-6.001150">
        <ele>1587.048</ele>
        <time>2020-05-22T16:27:10Z</time>
      </trkpt>
      <trkpt lat="43.075250" lon="-6.001190">
        <ele>1587.884</ele>
        <time>2020-05-22T16:27:30Z</time>
      </trkpt>
      <trkpt lat="43.075580" lon="-6.001320">
        <ele>1587.113</ele>
        <time>2020-05-22T16:27:50Z</time>
      </trkpt>
      <trkpt lat="43.075640" lon="-6.001340">
        <ele>1586.474</ele>
        <time>2020-05-22T16:28:10Z</time>
      </trkpt>
      <trkpt lat="43.075850" lon="-6.001430">
        <ele>1583.783</ele>
        <time>2020-05-22T16:28:30Z</time>
      </trkpt>
      <trkpt lat="43.076000" lon="-6.001480">
        <ele>1583.736</ele>
        <time>2020-05-22T16:28:50Z</time>
      </trkpt>
      <trkpt lat="43.076100" lon="-6.001500">
        <ele>1584.166</ele>
        <time>2020-05-22T16:29:10Z</time>
      </trkpt>
      <trkpt lat="43.076130" lon="-6.001510">
        <ele>1584.229</ele>
        <time>2020-05-22T16:29:30Z</time>
      </trkpt>
      <trkpt lat="43.076250" lon="-6.001540">
        <ele>1585.521</ele>
        <time>2020-05-22T16:29:50Z</time>
      </trkpt>
      <trkpt lat="43.076320" lon="-6.001570">
        <ele>1585.908</ele>
        <time>2020-05-22T16:30:10Z</time>
      </trkpt>
      <trkpt lat="43.076430" lon="-6.001620">
        <ele>1586.480</ele>
        <time>2020-05-22T16:30:30Z</time>
      </trkpt>
      <trkpt lat="43.076520" lon="-6.001660">
        <ele>1586.695</ele>
        <time>2020-05-22T16:30:50Z</time>
      </trkpt>
      <trkpt lat="43.076670" lon="-6.001710">
        <ele>1587.592</ele>
        <time>2020-05-22T16:31:10Z</time>
      </trkpt>
      <trkpt lat="43.076800" lon="-6.001740">
        <ele>1588.158</ele>
        <time>2020-05-22T16:31:30Z</time>
      </trkpt>
      <trkpt lat="43.076980" lon="-6.001780">
        <ele>1589.277</ele>
        <time>2020-05-22T16:31:50Z</time>
      </trkpt>
      <trkpt lat="43.077010" lon="-6.001790">
        <ele>1589.318</ele>
        <time>2020-05-22T16:32:10Z</time>
      </trkpt>
      <trkpt lat="43.077030" lon="-6.001790">
        <ele>1589.567</ele>
        <time>2020-05-22T16:32:30Z</time>
      </trkpt>
      <trkpt lat="43.077060" lon="-6.001800">
        <ele>1589.630</ele>
        <time>2020-05-22T16:32:50Z</time>
      </trkpt>
      <trkpt lat="43.077080" lon="-6.001820">
        <ele>1589.386</ele>
        <time>2020-05-22T16:33:10Z</time>
      </trkpt>
      <trkpt lat="43.077100" lon="-6.001840">
        <ele>1589.060</ele>
        <time>2020-05-22T16:33:30Z</time>
      </trkpt>
      <trkpt lat="43.077260" lon="-6.002010">
        <ele>1586.926</ele>
        <time>2020-05-22T16:33:50Z</time>
      </trkpt>
      <trkpt lat="43.077300" lon="-6.002040">
        <ele>1586.608</ele>
        <time>2020-05-22T16:34:10Z</time>
      </trkpt>
      <trkpt lat="43.077330" lon="-6.002060">
        <ele>1586.432</ele>
        <time>2020-05-22T16:34:30Z</time>
      </trkpt>
      <trkpt lat="43.077370" lon="-6.002090">
        <ele>1586.297</ele>
        <time>2020-05-22T16:34:50Z</time>
      </trkpt>
      <trkpt lat="43.077440" lon="-6.002140">
        <ele>1585.954</ele>
        <time>2020-05-22T16:35:10Z</time>
      </trkpt>
      <trkpt lat="43.077490" lon="-6.002170">
        <ele>1585.840</ele>
        <time>2020-05-22T16:35:30Z</time>
      </trkpt>
      <trkpt lat="43.077520" lon="-6.002200">
        <ele>1585.999</ele>
        <time>2020-05-22T16:35:50Z</time>
      </trkpt>
      <trkpt lat="43.077550" lon="-6.002230">
        <ele>1586.280</ele>
        <time>2020-05-22T16:36:10Z</time>
      </trkpt>
      <trkpt lat="43.077590" lon="-6.002270">
        <ele>1586.849</ele>
        <time>2020-05-22T16:36:30Z</time>
      </trkpt>
      <trkpt lat="43.077860" lon="-6.002600">
        <ele>1589.342</ele>
        <time>2020-05-22T16:36:50Z</time>
      </trkpt>
      <trkpt lat="43.077870" lon="-6.002610">
        <ele>1589.433</ele>
        <time>2020-05-22T16:37:10Z</time>
      </trkpt>
      <trkpt lat="43.077920" lon="-6.002690">
        <ele>1589.323</ele>
        <time>2020-05-22T16:37:30Z</time>
      </trkpt>
      <trkpt lat="43.077960" lon="-6.002740">
        <ele>1589.515</ele>
        <time>2020-05-22T16:37:50Z</time>
      </trkpt>
      <trkpt lat="43.077980" lon="-6.002780">
        <ele>1589.308</ele>
        <time>2020-05-22T16:38:10Z</time>
      </trkpt>
      <trkpt lat="43.077990" lon="-6.002800">
        <ele>1589.437</ele>
        <time>2020-05-22T16:38:30Z</time>
      </trkpt>
      <trkpt lat="43.078030" lon="-6.002870">
        <ele>1589.822</ele>
        <time>2020-05-22T16:38:50Z</time>
      </trkpt>
      <trkpt lat="43.078060" lon="-6.002940">
        <ele>1589.989</ele>
        <time>2020-05-22T16:39:10Z</time>
      </trkpt>
      <trkpt lat="43.078090" lon="-6.003000">
        <ele>1590.395</ele>
        <time>2020-05-22T16:39:30Z</time>
      </trkpt>
      <trkpt lat="43.078100" lon="-6.003050">
        <ele>1590.364</ele>
        <time>2020-05-22T16:39:50Z</time>
      </trkpt>
      <trkpt lat="43.078120" lon="-6.003100">
        <ele>1590.955</ele>
        <time>2020-05-22T16:40:10Z</time>
      </trkpt>
      <trkpt lat="43.078130" lon="-6.003170">
        <ele>1591.314</ele>
        <time>2020-05-22T16:40:30Z</time>
      </trkpt>
      <trkpt lat="43.078130" lon="-6.003220">
        <ele>1591.317</ele>
        <time>2020-05-22T16:40:50Z</time>
      </trkpt>
      <trkpt lat="43.078130" lon="-6.003250">
        <ele>1591.327</ele>
        <time>2020-05-22T16:41:10Z</time>
      </trkpt>
      <trkpt lat="43.078140" lon="-6.003360">
        <ele>1591.768</ele>
        <time>2020-05-22T16:41:30Z</time>
      </trkpt>
      <trkpt lat="43.078140" lon="-6.003470">
        <ele>1591.714</ele>
        <time>2020-05-22T16:41:50Z</time>
      </trkpt>
      <trkpt lat="43.078140" lon="-6.003620">
        <ele>1591.808</ele>
        <time>2020-05-22T16:42:10Z</time>
      </trkpt>
      <trkpt lat="43.078140" lon="-6.003710">
        <ele>1592.026</ele>
        <time>2020-05-22T16:42:30Z</time>
      </trkpt>
      <trkpt lat="43.078130" lon="-6.003740">
        <ele>1591.841</ele>
        <time>2020-05-22T16:42:50Z</time>
      </trkpt>
      <trkpt lat="43.078130" lon="-6.003850">
        <ele>1592.068</ele>
        <time>2020-05-22T16:43:10Z</time>
      </trkpt>
      <trkpt lat="43.078120" lon="-6.003920">
        <ele>1592.134</ele>
        <time>2020-05-22T16:43:30Z</time>
      </trkpt>
      <trkpt lat="43.078100" lon="-6.004010">
        <ele>1592.363</ele>
        <time>2020-05-22T16:43:50Z</time>
      </trkpt>
      <trkpt lat="43.078080" lon="-6.004130">
        <ele>1592.634</ele>
        <time>2020-05-22T16:44:10Z</time>
      </trkpt>
      <trkpt lat="43.078060" lon="-6.004190">
        <ele>1592.713</ele>
        <time>2020-05-22T16:44:30Z</time>
      </trkpt>
      <trkpt lat="43.078040" lon="-6.004260">
        <ele>1593.576</ele>
        <time>2020-05-22T16:44:50Z</time>
      </trkpt>
      <trkpt lat="43.077990" lon="-6.004420">
        <ele>1594.994</ele>
        <time>2020-05-22T16:45:10Z</time>
      </trkpt>
      <trkpt lat="43.077920" lon="-6.004640">
        <ele>1595.857</ele>
        <time>2020-05-22T16:45:30Z</time>
      </trkpt>
      <trkpt lat="43.077880" lon="-6.004740">
        <ele>1595.822</ele>
        <time>2020-05-22T16:45:50Z</time>
      </trkpt>
      <trkpt lat="43.077850" lon="-6.004820">
        <ele>1596.508</ele>
        <time>2020-05-22T16:46:10Z</time>
      </trkpt>
      <trkpt lat="43.077830" lon="-6.004860">
        <ele>1596.683</ele>
        <time>2020-05-22T16:46:30Z</time>
      </trkpt>
      <trkpt lat="43.077820" lon="-6.004890">
        <ele>1597.098</ele>
        <time>2020-05-22T16:46:50Z</time>
      </trkpt>
      <trkpt lat="43.077780" lon="-6.004970">
        <ele>1597.315</ele>
        <time>2020-05-22T16:47:10Z</time>
      </trkpt>
      <trkpt lat="43.077730" lon="-6.005060">
        <ele>1598.451</ele>
        <time>2020-05-22T16:47:30Z</time>
      </trkpt>
      <trkpt lat="43.077540" lon="-6.005400">
        <ele>1602.890</ele>
        <time>2020-05-22T16:47:50Z</time>
      </trkpt>
      <trkpt lat="43.077510" lon="-6.005460">
        <ele>1603.261</ele>
        <time>2020-05-22T16:48:10Z</time>
      </trkpt>
      <trkpt lat="43.077490" lon="-6.005530">
        <ele>1604.080</ele>
        <time>2020-05-22T16:48:30Z</time>
      </trkpt>
      <trkpt lat="43.077440" lon="-6.005680">
        <ele>1604.473</ele>
        <time>2020-05-22T16:48:50Z</time>
      </trkpt>
      <trkpt lat="43.077340" lon="-6.006040">
        <ele>1604.548</ele>
        <time>2020-05-22T16:49:10Z</time>
      </trkpt>
      <trkpt lat="43.077270" lon="-6.006230">
        <ele>1603.761</ele>
        <time>2020-05-22T16:49:30Z</time>
      </trkpt>
      <trkpt lat="43.077220" lon="-6.006360">
        <ele>1602.717</ele>
        <time>2020-05-22T16:49:50Z</time>
      </trkpt>
      <trkpt lat="43.077160" lon="-6.006540">
        <ele>1602.608</ele>
        <time>2020-05-22T16:50:10Z</time>
      </trkpt>
      <trkpt lat="43.077100" lon="-6.006700">
        <ele>1602.478</ele>
        <time>2020-05-22T16:50:30Z</time>
      </trkpt>
      <trkpt lat="43.077080" lon="-6.006770">
        <ele>1602.733</ele>
        <time>2020-05-22T16:50:50Z</time>
      </trkpt>
      <trkpt lat="43.077070" lon="-6.006800">
        <ele>1602.860</ele>
        <time>2020-05-22T16:51:10Z</time>
      </trkpt>
      <trkpt lat="43.077070" lon="-6.006840">
        <ele>1603.386</ele>
        <time>2020-05-22T16:51:30Z</time>
      </trkpt>
      <trkpt lat="43.077060" lon="-6.006880">
        <ele>1603.675</ele>
        <time>2020-05-22T16:51:50Z</time>
      </trkpt>
      <trkpt lat="43.077050" lon="-6.006940">
        <ele>1604.236</ele>
        <time>2020-05-22T16:52:10Z</time>
      </trkpt>
      <trkpt lat="43.077040" lon="-6.006990">
        <ele>1604.015</ele>
        <time>2020-05-22T16:52:30Z</time>
      </trkpt>
      <trkpt lat="43.077040" lon="-6.007040">
        <ele>1603.828</ele>
        <time>2020-05-22T16:52:50Z</time>
      </trkpt>
      <trkpt lat="43.077040" lon="-6.007090">
        <ele>1603.778</ele>
        <time>2020-05-22T16:53:10Z</time>
      </trkpt>
      <trkpt lat="43.077040" lon="-6.007220">
        <ele>1603.433</ele>
        <time>2020-05-22T16:53:30Z</time>
      </trkpt>
      <trkpt lat="43.077050" lon="-6.007260">
        <ele>1602.926</ele>
        <time>2020-05-22T16:53:50Z</time>
      </trkpt>
      <trkpt lat="43.077050" lon="-6.007290">
        <ele>1602.308</ele>
        <time>2020-05-22T16:54:10Z</time>
      </trkpt>
      <trkpt lat="43.077050" lon="-6.007300">
        <ele>1602.151</ele>
        <time>2020-05-22T16:54:30Z</time>
      </trkpt>
      <trkpt lat="43.077060" lon="-6.007330">
        <ele>1601.786</ele>
        <time>2020-05-22T16:54:50Z</time>
      </trkpt>
      <trkpt lat="43.077060" lon="-6.007360">
        <ele>1601.183</ele>
        <time>2020-05-22T16:55:10Z</time>
      </trkpt>
      <trkpt lat="43.077070" lon="-6.007380">
        <ele>1601.069</ele>
        <time>2020-05-22T16:55:30Z</time>
      </trkpt>
      <trkpt lat="43.077090" lon="-6.007420">
        <ele>1600.838</ele>
        <time>2020-05-22T16:55:50Z</time>
      </trkpt>
      <trkpt lat="43.077100" lon="-6.007450">
        <ele>1600.559</ele>
        <time>2020-05-22T16:56:10Z</time>
      </trkpt>
      <trkpt lat="43.077130" lon="-6.007490">
        <ele>1600.568</ele>
        <time>2020-05-22T16:56:30Z</time>
      </trkpt>
      <trkpt lat="43.077140" lon="-6.007500">
        <ele>1600.671</ele>
        <time>2020-05-22T16:56:50Z</time>
      </trkpt>
      <trkpt lat="43.077160" lon="-6.007530">
        <ele>1600.451</ele>
        <time>2020-05-22T16:57:10Z</time>
      </trkpt>
      <trkpt lat="43.077190" lon="-6.007570">
        <ele>1600.101</ele>
        <time>2020-05-22T16:57:30Z</time>
      </trkpt>
      <trkpt lat="43.077230" lon="-6.007630">
        <ele>1599.611</ele>
        <time>2020-05-22T16:57:50Z</time>
      </trkpt>
      <trkpt lat="43.077270" lon="-6.007670">
        <ele>1599.908</ele>
        <time>2020-05-22T16:58:10Z</time>
      </trkpt>
      <trkpt lat="43.077280" lon="-6.007690">
        <ele>1599.759</ele>
        <time>2020-05-22T16:58:30Z</time>
      </trkpt>
      <trkpt lat="43.077320" lon="-6.007760">
        <ele>1599.164</ele>
        <time>2020-05-22T16:58:50Z</time>
      </trkpt>
      <trkpt lat="43.077360" lon="-6.007810">
        <ele>1598.611</ele>
        <time>2020-05-22T16:59:10Z</time>
      </trkpt>
      <trkpt lat="43.077390" lon="-6.007860">
        <ele>1597.697</ele>
        <time>2020-05-22T16:59:30Z</time>
      </trkpt>
      <trkpt lat="43.077480" lon="-6.007990">
        <ele>1595.246</ele>
        <time>2020-05-22T16:59:50Z</time>
      </trkpt>
      <trkpt lat="43.077580" lon="-6.008130">
        <ele>1593.287</ele>
        <time>2020-05-22T17:00:10Z</time>
      </trkpt>
      <trkpt lat="43.077600" lon="-6.008180">
        <ele>1591.736</ele>
        <time>2020-05-22T17:00:30Z</time>
      </trkpt>
      <trkpt lat="43.077620" lon="-6.008200">
        <ele>1591.599</ele>
        <time>2020-05-22T17:00:50Z</time>
      </trkpt>
      <trkpt lat="43.077650" lon="-6.008230">
        <ele>1591.169</ele>
        <time>2020-05-22T17:01:10Z</time>
      </trkpt>
      <trkpt lat="43.077680" lon="-6.008270">
        <ele>1590.204</ele>
        <time>2020-05-22T17:01:30Z</time>
      </trkpt>
      <trkpt lat="43.077730" lon="-6.008310">
        <ele>1589.724</ele>
        <time>2020-05-22T17:01:50Z</time>
      </trkpt>
      <trkpt lat="43.077740" lon="-6.008330">
        <ele>1589.008</ele>
        <time>2020-05-22T17:02:10Z</time>
      </trkpt>
      <trkpt lat="43.077760" lon="-6.008350">
        <ele>1588.750</ele>
        <time>2020-05-22T17:02:30Z</time>
      </trkpt>
      <trkpt lat="43.077960" lon="-6.008540">
        <ele>1586.855</ele>
        <time>2020-05-22T17:02:50Z</time>
      </trkpt>
      <trkpt lat="43.078040" lon="-6.008610">
        <ele>1585.612</ele>
        <time>2020-05-22T17:03:10Z</time>
      </trkpt>
      <trkpt lat="43.078040" lon="-6.008620">
        <ele>1585.298</ele>
        <time>2020-05-22T17:03:30Z</time>
      </trkpt>
      <trkpt lat="43.078060" lon="-6.008630">
        <ele>1585.387</ele>
        <time>2020-05-22T17:03:50Z</time>
      </trkpt>
      <trkpt lat="43.078100" lon="-6.008640">
        <ele>1585.798</ele>
        <time>2020-05-22T17:04:10Z</time>
      </trkpt>
      <trkpt lat="43.078150" lon="-6.008640">
        <ele>1586.877</ele>
        <time>2020-05-22T17:04:30Z</time>
      </trkpt>
      <trkpt lat="43.078170" lon="-6.008650">
        <ele>1586.710</ele>
        <time>2020-05-22T17:04:50Z</time>
      </trkpt>
      <trkpt lat="43.078210" lon="-6.008660">
        <ele>1587.123</ele>
        <time>2020-05-22T17:05:10Z</time>
      </trkpt>
      <trkpt lat="43.078240" lon="-6.008660">
        <ele>1587.883</ele>
        <time>2020-05-22T17:05:30Z</time>
      </trkpt>
      <trkpt lat="43.078270" lon="-6.008660">
        <ele>1588.411</ele>
        <time>2020-05-22T17:05:50Z</time>
      </trkpt>
      <trkpt lat="43.078300" lon="-6.008670">
        <ele>1588.508</ele>
        <time>2020-05-22T17:06:10Z</time>
      </trkpt>
      <trkpt lat="43.078320" lon="-6.008670">
        <ele>1589.016</ele>
        <time>2020-05-22T17:06:30Z</time>
      </trkpt>
      <trkpt lat="43.078360" lon="-6.008680">
        <ele>1588.991</ele>
        <time>2020-05-22T17:06:50Z</time>
      </trkpt>
      <trkpt lat="43.078390" lon="-6.008690">
        <ele>1588.618</ele>
        <time>2020-05-22T17:07:10Z</time>
      </trkpt>
      <trkpt lat="43.078400" lon="-6.008690">
        <ele>1588.734</ele>
        <time>2020-05-22T17:07:30Z</time>
      </trkpt>
      <trkpt lat="43.078440" lon="-6.008700">
        <ele>1588.533</ele>
        <time>2020-05-22T17:07:50Z</time>
      </trkpt>
      <trkpt lat="43.078470" lon="-6.008700">
        <ele>1588.654</ele>
        <time>2020-05-22T17:08:10Z</time>
      </trkpt>
      <trkpt lat="43.078530" lon="-6.008680">
        <ele>1589.893</ele>
        <time>2020-05-22T17:08:30Z</time>
      </trkpt>
      <trkpt lat="43.078570" lon="-6.008670">
        <ele>1590.566</ele>
        <time>2020-05-22T17:08:50Z</time>
      </trkpt>
      <trkpt lat="43.078720" lon="-6.008640">
        <ele>1590.025</ele>
        <time>2020-05-22T17:09:10Z</time>
      </trkpt>
      <trkpt lat="43.078790" lon="-6.008630">
        <ele>1589.126</ele>
        <time>2020-05-22T17:09:30Z</time>
      </trkpt>
      <trkpt lat="43.078820" lon="-6.008620">
        <ele>1588.908</ele>
        <time>2020-05-22T17:09:50Z</time>
      </trkpt>
      <trkpt lat="43.078850" lon="-6.008600">
        <ele>1589.208</ele>
        <time>2020-05-22T17:10:10Z</time>
      </trkpt>
      <trkpt lat="43.078910" lon="-6.008580">
        <ele>1588.766</ele>
        <time>2020-05-22T17:10:30Z</time>
      </trkpt>
      <trkpt lat="43.079040" lon="-6.008510">
        <ele>1588.651</ele>
        <time>2020-05-22T17:10:50Z</time>
      </trkpt>
      <trkpt lat="43.079090" lon="-6.008490">
        <ele>1588.418</ele>
        <time>2020-05-22T17:11:10Z</time>
      </trkpt>
      <trkpt lat="43.079150" lon="-6.008450">
        <ele>1588.954</ele>
        <time>2020-05-22T17:11:30Z</time>
      </trkpt>
      <trkpt lat="43.079190" lon="-6.008440">
        <ele>1588.293</ele>
        <time>2020-05-22T17:11:50Z</time>
      </trkpt>
      <trkpt lat="43.079210" lon="-6.008430">
        <ele>1588.074</ele>
        <time>2020-05-22T17:12:10Z</time>
      </trkpt>
      <trkpt lat="43.079240" lon="-6.008420">
        <ele>1587.433</ele>
        <time>2020-05-22T17:12:30Z</time>
      </trkpt>
      <trkpt lat="43.079390" lon="-6.008400">
        <ele>1582.816</ele>
        <time>2020-05-22T17:12:50Z</time>
      </trkpt>
      <trkpt lat="43.079620" lon="-6.008370">
        <ele>1579.953</ele>
        <time>2020-05-22T17:13:10Z</time>
      </trkpt>
      <trkpt lat="43.079720" lon="-6.008350">
        <ele>1579.504</ele>
        <time>2020-05-22T17:13:30Z</time>
      </trkpt>
      <trkpt lat="43.079800" lon="-6.008340">
        <ele>1579.014</ele>
        <time>2020-05-22T17:13:50Z</time>
      </trkpt>
      <trkpt lat="43.079970" lon="-6.008320">
        <ele>1577.808</ele>
        <time>2020-05-22T17:14:10Z</time>
      </trkpt>
      <trkpt lat="43.080150" lon="-6.008290">
        <ele>1578.459</ele>
        <time>2020-05-22T17:14:30Z</time>
      </trkpt>
      <trkpt lat="43.080250" lon="-6.008280">
        <ele>1578.734</ele>
        <time>2020-05-22T17:14:50Z</time>
      </trkpt>
      <trkpt lat="43.080330" lon="-6.008280">
        <ele>1578.761</ele>
        <time>2020-05-22T17:15:10Z</time>
      </trkpt>
      <trkpt lat="43.080350" lon="-6.008280">
        <ele>1578.667</ele>
        <time>2020-05-22T17:15:30Z</time>
      </trkpt>
      <trkpt lat="43.080540" lon="-6.008280">
        <ele>1578.446</ele>
        <time>2020-05-22T17:15:50Z</time>
      </trkpt>
      <trkpt lat="43.080690" lon="-6.008280">
        <ele>1577.577</ele>
        <time>2020-05-22T17:16:10Z</time>
      </trkpt>
      <trkpt lat="43.080820" lon="-6.008300">
        <ele>1576.086</ele>
        <time>2020-05-22T17:16:30Z</time>
      </trkpt>
      <trkpt lat="43.080870" lon="-6.008310">
        <ele>1575.539</ele>
        <time>2020-05-22T17:16:50Z</time>
      </trkpt>
      <trkpt lat="43.080940" lon="-6.008320">
        <ele>1575.052</ele>
        <time>2020-05-22T17:17:10Z</time>
      </trkpt>
      <trkpt lat="43.081090" lon="-6.008370">
        <ele>1573.353</ele>
        <time>2020-05-22T17:17:30Z</time>
      </trkpt>
      <trkpt lat="43.081220" lon="-6.008420">
        <ele>1573.508</ele>
        <time>2020-05-22T17:17:50Z</time>
      </trkpt>
      <trkpt lat="43.081230" lon="-6.008420">
        <ele>1573.708</ele>
        <time>2020-05-22T17:18:10Z</time>
      </trkpt>
      <trkpt lat="43.081380" lon="-6.008490">
        <ele>1574.639</ele>
        <time>2020-05-22T17:18:30Z</time>
      </trkpt>
      <trkpt lat="43.081480" lon="-6.008540">
        <ele>1575.354</ele>
        <time>2020-05-22T17:18:50Z</time>
      </trkpt>
      <trkpt lat="43.081550" lon="-6.008580">
        <ele>1575.751</ele>
        <time>2020-05-22T17:19:10Z</time>
      </trkpt>
      <trkpt lat="43.081560" lon="-6.008590">
        <ele>1575.737</ele>
        <time>2020-05-22T17:19:30Z</time>
      </trkpt>
      <trkpt lat="43.081600" lon="-6.008610">
        <ele>1576.176</ele>
        <time>2020-05-22T17:19:50Z</time>
      </trkpt>
      <trkpt lat="43.081630" lon="-6.008640">
        <ele>1575.967</ele>
        <time>2020-05-22T17:20:10Z</time>
      </trkpt>
      <trkpt lat="43.081690" lon="-6.008700">
        <ele>1575.156</ele>
        <time>2020-05-22T17:20:30Z</time>
      </trkpt>
      <trkpt lat="43.081710" lon="-6.008720">
        <ele>1574.739</ele>
        <time>2020-05-22T17:20:50Z</time>
      </trkpt>
      <trkpt lat="43.081830" lon="-6.008840">
        <ele>1572.522</ele>
        <time>2020-05-22T17:21:10Z</time>
      </trkpt>
      <trkpt lat="43.081910" lon="-6.008920">
        <ele>1571.462</ele>
        <time>2020-05-22T17:21:30Z</time>
      </trkpt>
      <trkpt lat="43.082000" lon="-6.008990">
        <ele>1571.208</ele>
        <time>2020-05-22T17:21:50Z</time>
      </trkpt>
      <trkpt lat="43.082130" lon="-6.009080">
        <ele>1571.708</ele>
        <time>2020-05-22T17:22:10Z</time>
      </trkpt>
      <trkpt lat="43.082170" lon="-6.009100">
        <ele>1572.086</ele>
        <time>2020-05-22T17:22:30Z</time>
      </trkpt>
      <trkpt lat="43.082270" lon="-6.009170">
        <ele>1572.851</ele>
        <time>2020-05-22T17:22:50Z</time>
      </trkpt>
      <trkpt lat="43.082400" lon="-6.009240">
        <ele>1574.218</ele>
        <time>2020-05-22T17:23:10Z</time>
      </trkpt>
      <trkpt lat="43.082460" lon="-6.009270">
        <ele>1574.854</ele>
        <time>2020-05-22T17:23:30Z</time>
      </trkpt>
      <trkpt lat="43.082500" lon="-6.009290">
        <ele>1575.293</ele>
        <time>2020-05-22T17:23:50Z</time>
      </trkpt>
      <trkpt lat="43.082520" lon="-6.009300">
        <ele>1575.134</ele>
        <time>2020-05-22T17:24:10Z</time>
      </trkpt>
      <trkpt lat="43.082600" lon="-6.009320">
        <ele>1574.883</ele>
        <time>2020-05-22T17:24:30Z</time>
      </trkpt>
      <trkpt lat="43.082680" lon="-6.009340">
        <ele>1574.586</ele>
        <time>2020-05-22T17:24:50Z</time>
      </trkpt>
      <trkpt lat="43.082760" lon="-6.009360">
        <ele>1574.293</ele>
        <time>2020-05-22T17:25:10Z</time>
      </trkpt>
      <trkpt lat="43.082820" lon="-6.009360">
        <ele>1573.765</ele>
        <time>2020-05-22T17:25:30Z</time>
      </trkpt>
      <trkpt lat="43.082850" lon="-6.009360">
        <ele>1573.421</ele>
        <time>2020-05-22T17:25:50Z</time>
      </trkpt>
      <trkpt lat="43.082860" lon="-6.009360">
        <ele>1573.208</ele>
        <time>2020-05-22T17:26:10Z</time>
      </trkpt>
      <trkpt lat="43.082870" lon="-6.009360">
        <ele>1573.123</ele>
        <time>2020-05-22T17:26:30Z</time>
      </trkpt>
      <trkpt lat="43.082900" lon="-6.009360">
        <ele>1572.818</ele>
        <time>2020-05-22T17:26:50Z</time>
      </trkpt>
      <trkpt lat="43.082940" lon="-6.009350">
        <ele>1572.495</ele>
        <time>2020-05-22T17:27:10Z</time>
      </trkpt>
      <trkpt lat="43.082980" lon="-6.009350">
        <ele>1571.951</ele>
        <time>2020-05-22T17:27:30Z</time>
      </trkpt>
      <trkpt lat="43.083010" lon="-6.009340">
        <ele>1571.730</ele>
        <time>2020-05-22T17:27:50Z</time>
      </trkpt>
      <trkpt lat="43.083030" lon="-6.009330">
        <ele>1571.581</ele>
        <time>2020-05-22T17:28:10Z</time>
      </trkpt>
      <trkpt lat="43.083050" lon="-6.009320">
        <ele>1571.460</ele>
        <time>2020-05-22T17:28:30Z</time>
      </trkpt>
      <trkpt lat="43.083090" lon="-6.009300">
        <ele>1570.943</ele>
        <time>2020-05-22T17:28:50Z</time>
      </trkpt>
      <trkpt lat="43.083150" lon="-6.009270">
        <ele>1570.134</ele>
        <time>2020-05-22T17:29:10Z</time>
      </trkpt>
      <trkpt lat="43.083200" lon="-6.009240">
        <ele>1569.755</ele>
        <time>2020-05-22T17:29:30Z</time>
      </trkpt>
      <trkpt lat="43.083260" lon="-6.009190">
        <ele>1569.610</ele>
        <time>2020-05-22T17:29:50Z</time>
      </trkpt>
      <trkpt lat="43.083310" lon="-6.009150">
        <ele>1569.608</ele>
        <time>2020-05-22T17:30:10Z</time>
      </trkpt>
      <trkpt lat="43.083360" lon="-6.009100">
        <ele>1569.427</ele>
        <time>2020-05-22T17:30:30Z</time>
      </trkpt>
      <trkpt lat="43.083420" lon="-6.009040">
        <ele>1568.852</ele>
        <time>2020-05-22T17:30:50Z</time>
      </trkpt>
      <trkpt lat="43.083450" lon="-6.009010">
        <ele>1568.569</ele>
        <time>2020-05-22T17:31:10Z</time>
      </trkpt>
      <trkpt lat="43.083460" lon="-6.008990">
        <ele>1568.565</ele>
        <time>2020-05-22T17:31:30Z</time>
      </trkpt>
      <trkpt lat="43.083470" lon="-6.008970">
        <ele>1568.624</ele>
        <time>2020-05-22T17:31:50Z</time>
      </trkpt>
      <trkpt lat="43.083480" lon="-6.008950">
        <ele>1568.775</ele>
        <time>2020-05-22T17:32:10Z</time>
      </trkpt>
      <trkpt lat="43.083490" lon="-6.008950">
        <ele>1568.474</ele>
        <time>2020-05-22T17:32:30Z</time>
      </trkpt>
      <trkpt lat="43.083490" lon="-6.008940">
        <ele>1568.667</ele>
        <time>2020-05-22T17:32:50Z</time>
      </trkpt>
      <trkpt lat="43.083500" lon="-6.008920">
        <ele>1568.699</ele>
        <time>2020-05-22T17:33:10Z</time>
      </trkpt>
      <trkpt lat="43.083500" lon="-6.008900">
        <ele>1569.007</ele>
        <time>2020-05-22T17:33:30Z</time>
      </trkpt>
      <trkpt lat="43.083510" lon="-6.008890">
        <ele>1568.927</ele>
        <time>2020-05-22T17:33:50Z</time>
      </trkpt>
      <trkpt lat="43.083510" lon="-6.008870">
        <ele>1569.008</ele>
        <time>2020-05-22T17:34:10Z</time>
      </trkpt>
      <trkpt lat="43.083520" lon="-6.008840">
        <ele>1568.963</ele>
        <time>2020-05-22T17:34:30Z</time>
      </trkpt>
      <trkpt lat="43.083520" lon="-6.008810">
        <ele>1569.118</ele>
        <time>2020-05-22T17:34:50Z</time>
      </trkpt>
      <trkpt lat="43.083520" lon="-6.008710">
        <ele>1569.795</ele>
        <time>2020-05-22T17:35:10Z</time>
      </trkpt>
      <trkpt lat="43.083520" lon="-6.008640">
        <ele>1570.141</ele>
        <time>2020-05-22T17:35:30Z</time>
      </trkpt>
      <trkpt lat="43.083520" lon="-6.008610">
        <ele>1570.330</ele>
        <time>2020-05-22T17:35:50Z</time>
      </trkpt>
      <trkpt lat="43.083530" lon="-6.008580">
        <ele>1570.271</ele>
        <time>2020-05-22T17:36:10Z</time>
      </trkpt>
      <trkpt lat="43.083530" lon="-6.008550">
        <ele>1570.350</ele>
        <time>2020-05-22T17:36:30Z</time>
      </trkpt>
      <trkpt lat="43.083540" lon="-6.008520">
        <ele>1570.273</ele>
        <time>2020-05-22T17:36:50Z</time>
      </trkpt>
      <trkpt lat="43.083550" lon="-6.008490">
        <ele>1570.174</ele>
        <time>2020-05-22T17:37:10Z</time>
      </trkpt>
      <trkpt lat="43.083560" lon="-6.008460">
        <ele>1569.956</ele>
        <time>2020-05-22T17:37:30Z</time>
      </trkpt>
      <trkpt lat="43.083570" lon="-6.008420">
        <ele>1569.821</ele>
        <time>2020-05-22T17:37:50Z</time>
      </trkpt>
      <trkpt lat="43.083620" lon="-6.008340">
        <ele>1568.708</ele>
        <time>2020-05-22T17:38:10Z</time>
      </trkpt>
      <trkpt lat="43.083630" lon="-6.008310">
        <ele>1568.641</ele>
        <time>2020-05-22T17:38:30Z</time>
      </trkpt>
      <trkpt lat="43.083640" lon="-6.008290">
        <ele>1568.576</ele>
        <time>2020-05-22T17:38:50Z</time>
      </trkpt>
      <trkpt lat="43.083650" lon="-6.008260">
        <ele>1568.413</ele>
        <time>2020-05-22T17:39:10Z</time>
      </trkpt>
      <trkpt lat="43.083660" lon="-6.008230">
        <ele>1568.479</ele>
        <time>2020-05-22T17:39:30Z</time>
      </trkpt>
      <trkpt lat="43.083680" lon="-6.008160">
        <ele>1568.418</ele>
        <time>2020-05-22T17:39:50Z</time>
      </trkpt>
      <trkpt lat="43.083710" lon="-6.008030">
        <ele>1568.389</ele>
        <time>2020-05-22T17:40:10Z</time>
      </trkpt>
      <trkpt lat="43.083710" lon="-6.008020">
        <ele>1568.318</ele>
        <time>2020-05-22T17:40:30Z</time>
      </trkpt>
      <trkpt lat="43.083740" lon="-6.007820">
        <ele>1566.491</ele>
        <time>2020-05-22T17:40:50Z</time>
      </trkpt>
      <trkpt lat="43.083760" lon="-6.007680">
        <ele>1565.721</ele>
        <time>2020-05-22T17:41:10Z</time>
      </trkpt>
      <trkpt lat="43.083780" lon="-6.007580">
        <ele>1565.141</ele>
        <time>2020-05-22T17:41:30Z</time>
      </trkpt>
      <trkpt lat="43.083800" lon="-6.007510">
        <ele>1564.605</ele>
        <time>2020-05-22T17:41:50Z</time>
      </trkpt>
      <trkpt lat="43.083820" lon="-6.007470">
        <ele>1564.108</ele>
        <time>2020-05-22T17:42:10Z</time>
      </trkpt>
      <trkpt lat="43.083830" lon="-6.007450">
        <ele>1563.826</ele>
        <time>2020-05-22T17:42:30Z</time>
      </trkpt>
      <trkpt lat="43.083840" lon="-6.007420">
        <ele>1563.421</ele>
        <time>2020-05-22T17:42:50Z</time>
      </trkpt>
      <trkpt lat="43.083850" lon="-6.007400">
        <ele>1563.148</ele>
        <time>2020-05-22T17:43:10Z</time>
      </trkpt>
      <trkpt lat="43.083870" lon="-6.007370">
        <ele>1562.524</ele>
        <time>2020-05-22T17:43:30Z</time>
      </trkpt>
      <trkpt lat="43.083890" lon="-6.007350">
        <ele>1561.953</ele>
        <time>2020-05-22T17:43:50Z</time>
      </trkpt>
      <trkpt lat="43.084000" lon="-6.007240">
        <ele>1558.054</ele>
        <time>2020-05-22T17:44:10Z</time>
      </trkpt>
      <trkpt lat="43.084040" lon="-6.007200">
        <ele>1556.733</ele>
        <time>2020-05-22T17:44:30Z</time>
      </trkpt>
      <trkpt lat="43.084090" lon="-6.007140">
        <ele>1555.676</ele>
        <time>2020-05-22T17:44:50Z</time>
      </trkpt>
      <trkpt lat="43.084160" lon="-6.007050">
        <ele>1554.415</ele>
        <time>2020-05-22T17:45:10Z</time>
      </trkpt>
      <trkpt lat="43.084170" lon="-6.007040">
        <ele>1554.265</ele>
        <time>2020-05-22T17:45:30Z</time>
      </trkpt>
      <trkpt lat="43.084180" lon="-6.007030">
        <ele>1554.111</ele>
        <time>2020-05-22T17:45:50Z</time>
      </trkpt>
      <trkpt lat="43.084190" lon="-6.007030">
        <ele>1553.908</ele>
        <time>2020-05-22T17:46:10Z</time>
      </trkpt>
      <trkpt lat="43.084210" lon="-6.007030">
        <ele>1553.525</ele>
        <time>2020-05-22T17:46:30Z</time>
      </trkpt>
      <trkpt lat="43.084220" lon="-6.007030">
        <ele>1553.360</ele>
        <time>2020-05-22T17:46:50Z</time>
      </trkpt>
      <trkpt lat="43.084270" lon="-6.007040">
        <ele>1552.327</ele>
        <time>2020-05-22T17:47:10Z</time>
      </trkpt>
      <trkpt lat="43.084290" lon="-6.007040">
        <ele>1552.053</ele>
        <time>2020-05-22T17:47:30Z</time>
      </trkpt>
      <trkpt lat="43.084330" lon="-6.007050">
        <ele>1551.272</ele>
        <time>2020-05-22T17:47:50Z</time>
      </trkpt>
      <trkpt lat="43.084350" lon="-6.007050">
        <ele>1550.843</ele>
        <time>2020-05-22T17:48:10Z</time>
      </trkpt>
      <trkpt lat="43.084380" lon="-6.007050">
        <ele>1550.292</ele>
        <time>2020-05-22T17:48:30Z</time>
      </trkpt>
      <trkpt lat="43.084440" lon="-6.007050">
        <ele>1549.145</ele>
        <time>2020-05-22T17:48:50Z</time>
      </trkpt>
      <trkpt lat="43.084530" lon="-6.007060">
        <ele>1547.011</ele>
        <time>2020-05-22T17:49:10Z</time>
      </trkpt>
      <trkpt lat="43.084710" lon="-6.007060">
        <ele>1542.921</ele>
        <time>2020-05-22T17:49:30Z</time>
      </trkpt>
      <trkpt lat="43.084750" lon="-6.007060">
        <ele>1541.703</ele>
        <time>2020-05-22T17:49:50Z</time>
      </trkpt>
      <trkpt lat="43.084770" lon="-6.007060">
        <ele>1541.008</ele>
        <time>2020-05-22T17:50:10Z</time>
      </trkpt>
      <trkpt lat="43.084790" lon="-6.007070">
        <ele>1540.355</ele>
        <time>2020-05-22T17:50:30Z</time>
      </trkpt>
      <trkpt lat="43.084800" lon="-6.007070">
        <ele>1540.030</ele>
        <time>2020-05-22T17:50:50Z</time>
      </trkpt>
      <trkpt lat="43.084820" lon="-6.007080">
        <ele>1539.397</ele>
        <time>2020-05-22T17:51:10Z</time>
      </trkpt>
      <trkpt lat="43.084830" lon="-6.007100">
        <ele>1539.063</ele>
        <time>2020-05-22T17:51:30Z</time>
      </trkpt>
      <trkpt lat="43.084850" lon="-6.007120">
        <ele>1538.382</ele>
        <time>2020-05-22T17:51:50Z</time>
      </trkpt>
      <trkpt lat="43.084870" lon="-6.007140">
        <ele>1537.763</ele>
        <time>2020-05-22T17:52:10Z</time>
      </trkpt>
      <trkpt lat="43.084880" lon="-6.007160">
        <ele>1537.482</ele>
        <time>2020-05-22T17:52:30Z</time>
      </trkpt>
      <trkpt lat="43.084890" lon="-6.007190">
        <ele>1537.195</ele>
        <time>2020-05-22T17:52:50Z</time>
      </trkpt>
      <trkpt lat="43.084900" lon="-6.007220">
        <ele>1536.912</ele>
        <time>2020-05-22T17:53:10Z</time>
      </trkpt>
      <trkpt lat="43.084940" lon="-6.007370">
        <ele>1535.432</ele>
        <time>2020-05-22T17:53:30Z</time>
      </trkpt>
      <trkpt lat="43.084950" lon="-6.007400">
        <ele>1535.105</ele>
        <time>2020-05-22T17:53:50Z</time>
      </trkpt>
      <trkpt lat="43.084960" lon="-6.007430">
        <ele>1534.808</ele>
        <time>2020-05-22T17:54:10Z</time>
      </trkpt>
      <trkpt lat="43.084970" lon="-6.007460">
        <ele>1534.695</ele>
        <time>2020-05-22T17:54:30Z</time>
      </trkpt>
      <trkpt lat="43.084990" lon="-6.007490">
        <ele>1534.240</ele>
        <time>2020-05-22T17:54:50Z</time>
      </trkpt>
      <trkpt lat="43.085000" lon="-6.007510">
        <ele>1533.947</ele>
        <time>2020-05-22T17:55:10Z</time>
      </trkpt>
      <trkpt lat="43.085010" lon="-6.007520">
        <ele>1533.783</ele>
        <time>2020-05-22T17:55:30Z</time>
      </trkpt>
      <trkpt lat="43.085020" lon="-6.007540">
        <ele>1533.452</ele>
        <time>2020-05-22T17:55:50Z</time>
      </trkpt>
      <trkpt lat="43.085040" lon="-6.007550">
        <ele>1533.113</ele>
        <time>2020-05-22T17:56:10Z</time>
      </trkpt>
      <trkpt lat="43.085060" lon="-6.007570">
        <ele>1532.872</ele>
        <time>2020-05-22T17:56:30Z</time>
      </trkpt>
      <trkpt lat="43.085090" lon="-6.007590">
        <ele>1532.435</ele>
        <time>2020-05-22T17:56:50Z</time>
      </trkpt>
      <trkpt lat="43.085200" lon="-6.007660">
        <ele>1531.478</ele>
        <time>2020-05-22T17:57:10Z</time>
      </trkpt>
      <trkpt lat="43.085240" lon="-6.007690">
        <ele>1531.133</ele>
        <time>2020-05-22T17:57:30Z</time>
      </trkpt>
      <trkpt lat="43.085270" lon="-6.007710">
        <ele>1531.026</ele>
        <time>2020-05-22T17:57:50Z</time>
      </trkpt>
      <trkpt lat="43.085310" lon="-6.007750">
        <ele>1531.008</ele>
        <time>2020-05-22T17:58:10Z</time>
      </trkpt>
      <trkpt lat="43.085350" lon="-6.007790">
        <ele>1530.921</ele>
        <time>2020-05-22T17:58:30Z</time>
      </trkpt>
      <trkpt lat="43.085360" lon="-6.007800">
        <ele>1530.876</ele>
        <time>2020-05-22T17:58:50Z</time>
      </trkpt>
      <trkpt lat="43.085390" lon="-6.007840">
        <ele>1530.523</ele>
        <time>2020-05-22T17:59:10Z</time>
      </trkpt>
      <trkpt lat="43.085420" lon="-6.007870">
        <ele>1530.289</ele>
        <time>2020-05-22T17:59:30Z</time>
      </trkpt>
      <trkpt lat="43.085440" lon="-6.007900">
        <ele>1529.998</ele>
        <time>2020-05-22T17:59:50Z</time>
      </trkpt>
      <trkpt lat="43.085460" lon="-6.007940">
        <ele>1529.499</ele>
        <time>2020-05-22T18:00:10Z</time>
      </trkpt>
      <trkpt lat="43.085560" lon="-6.008090">
        <ele>1527.438</ele>
        <time>2020-05-22T18:00:30Z</time>
      </trkpt>
      <trkpt lat="43.085740" lon="-6.008320">
        <ele>1523.851</ele>
        <time>2020-05-22T18:00:50Z</time>
      </trkpt>
      <trkpt lat="43.085860" lon="-6.008460">
        <ele>1522.879</ele>
        <time>2020-05-22T18:01:10Z</time>
      </trkpt>
      <trkpt lat="43.085880" lon="-6.008490">
        <ele>1522.705</ele>
        <time>2020-05-22T18:01:30Z</time>
      </trkpt>
      <trkpt lat="43.085900" lon="-6.008530">
        <ele>1522.525</ele>
        <time>2020-05-22T18:01:50Z</time>
      </trkpt>
      <trkpt lat="43.085930" lon="-6.008580">
        <ele>1522.308</ele>
        <time>2020-05-22T18:02:10Z</time>
      </trkpt>
      <trkpt lat="43.085950" lon="-6.008620">
        <ele>1522.241</ele>
        <time>2020-05-22T18:02:30Z</time>
      </trkpt>
      <trkpt lat="43.085970" lon="-6.008670">
        <ele>1521.966</ele>
        <time>2020-05-22T18:02:50Z</time>
      </trkpt>
      <trkpt lat="43.085990" lon="-6.008720">
        <ele>1521.713</ele>
        <time>2020-05-22T18:03:10Z</time>
      </trkpt>
      <trkpt lat="43.086000" lon="-6.008770">
        <ele>1521.459</ele>
        <time>2020-05-22T18:03:30Z</time>
      </trkpt>
      <trkpt lat="43.086020" lon="-6.008870">
        <ele>1520.858</ele>
        <time>2020-05-22T18:03:50Z</time>
      </trkpt>
      <trkpt lat="43.086030" lon="-6.008920">
        <ele>1520.269</ele>
        <time>2020-05-22T18:04:10Z</time>
      </trkpt>
      <trkpt lat="43.086070" lon="-6.009110">
        <ele>1517.348</ele>
        <time>2020-05-22T18:04:30Z</time>
      </trkpt>
      <trkpt lat="43.086080" lon="-6.009160">
        <ele>1516.671</ele>
        <time>2020-05-22T18:04:50Z</time>
      </trkpt>
      <trkpt lat="43.086090" lon="-6.009180">
        <ele>1516.499</ele>
        <time>2020-05-22T18:05:10Z</time>
      </trkpt>
      <trkpt lat="43.086100" lon="-6.009210">
        <ele>1516.007</ele>
        <time>2020-05-22T18:05:30Z</time>
      </trkpt>
      <trkpt lat="43.086110" lon="-6.009230">
        <ele>1515.827</ele>
        <time>2020-05-22T18:05:50Z</time>
      </trkpt>
      <trkpt lat="43.086130" lon="-6.009260">
        <ele>1515.808</ele>
        <time>2020-05-22T18:06:10Z</time>
      </trkpt>
      <trkpt lat="43.086160" lon="-6.009310">
        <ele>1515.533</ele>
        <time>2020-05-22T18:06:30Z</time>
      </trkpt>
      <trkpt lat="43.086190" lon="-6.009350">
        <ele>1515.398</ele>
        <time>2020-05-22T18:06:50Z</time>
      </trkpt>
      <trkpt lat="43.086210" lon="-6.009390">
        <ele>1514.925</ele>
        <time>2020-05-22T18:07:10Z</time>
      </trkpt>
      <trkpt lat="43.086280" lon="-6.009480">
        <ele>1514.261</ele>
        <time>2020-05-22T18:07:30Z</time>
      </trkpt>
      <trkpt lat="43.086320" lon="-6.009520">
        <ele>1514.040</ele>
        <time>2020-05-22T18:07:50Z</time>
      </trkpt>
      <trkpt lat="43.086360" lon="-6.009570">
        <ele>1513.791</ele>
        <time>2020-05-22T18:08:10Z</time>
      </trkpt>
      <trkpt lat="43.086400" lon="-6.009600">
        <ele>1513.950</ele>
        <time>2020-05-22T18:08:30Z</time>
      </trkpt>
      <trkpt lat="43.086440" lon="-6.009640">
        <ele>1514.013</ele>
        <time>2020-05-22T18:08:50Z</time>
      </trkpt>
      <trkpt lat="43.086470" lon="-6.009660">
        <ele>1514.358</ele>
        <time>2020-05-22T18:09:10Z</time>
      </trkpt>
      <trkpt lat="43.086530" lon="-6.009720">
        <ele>1514.652</ele>
        <time>2020-05-22T18:09:30Z</time>
      </trkpt>
      <trkpt lat="43.086610" lon="-6.009800">
        <ele>1514.817</ele>
        <time>2020-05-22T18:09:50Z</time>
      </trkpt>
      <trkpt lat="43.086650" lon="-6.009840">
        <ele>1515.008</ele>
        <time>2020-05-22T18:10:10Z</time>
      </trkpt>
      <trkpt lat="43.086690" lon="-6.009880">
        <ele>1515.059</ele>
        <time>2020-05-22T18:10:30Z</time>
      </trkpt>
      <trkpt lat="43.086720" lon="-6.009940">
        <ele>1514.334</ele>
        <time>2020-05-22T18:10:50Z</time>
      </trkpt>
      <trkpt lat="43.086750" lon="-6.009970">
        <ele>1514.121</ele>
        <time>2020-05-22T18:11:10Z</time>
      </trkpt>
      <trkpt lat="43.086760" lon="-6.009990">
        <ele>1513.917</ele>
        <time>2020-05-22T18:11:30Z</time>
      </trkpt>
      <trkpt lat="43.086790" lon="-6.010050">
        <ele>1513.276</ele>
        <time>2020-05-22T18:11:50Z</time>
      </trkpt>
      <trkpt lat="43.086830" lon="-6.010130">
        <ele>1512.517</ele>
        <time>2020-05-22T18:12:10Z</time>
      </trkpt>
      <trkpt lat="43.086850" lon="-6.010170">
        <ele>1512.296</ele>
        <time>2020-05-22T18:12:30Z</time>
      </trkpt>
      <trkpt lat="43.086860" lon="-6.010200">
        <ele>1511.939</ele>
        <time>2020-05-22T18:12:50Z</time>
      </trkpt>
      <trkpt lat="43.086880" lon="-6.010270">
        <ele>1511.378</ele>
        <time>2020-05-22T18:13:10Z</time>
      </trkpt>
      <trkpt lat="43.086920" lon="-6.010380">
        <ele>1510.533</ele>
        <time>2020-05-22T18:13:30Z</time>
      </trkpt>
      <trkpt lat="43.086920" lon="-6.010400">
        <ele>1510.126</ele>
        <time>2020-05-22T18:13:50Z</time>
      </trkpt>
      <trkpt lat="43.086940" lon="-6.010470">
        <ele>1509.408</ele>
        <time>2020-05-22T18:14:10Z</time>
      </trkpt>
      <trkpt lat="43.086960" lon="-6.010590">
        <ele>1508.281</ele>
        <time>2020-05-22T18:14:30Z</time>
      </trkpt>
      <trkpt lat="43.086960" lon="-6.010640">
        <ele>1507.876</ele>
        <time>2020-05-22T18:14:50Z</time>
      </trkpt>
      <trkpt lat="43.086970" lon="-6.010660">
        <ele>1508.073</ele>
        <time>2020-05-22T18:15:10Z</time>
      </trkpt>
      <trkpt lat="43.086970" lon="-6.010730">
        <ele>1507.559</ele>
        <time>2020-05-22T18:15:30Z</time>
      </trkpt>
      <trkpt lat="43.086980" lon="-6.010800">
        <ele>1507.358</ele>
        <time>2020-05-22T18:15:50Z</time>
      </trkpt>
      <trkpt lat="43.086980" lon="-6.010850">
        <ele>1506.969</ele>
        <time>2020-05-22T18:16:10Z</time>
      </trkpt>
      <trkpt lat="43.086970" lon="-6.010900">
        <ele>1506.538</ele>
        <time>2020-05-22T18:16:30Z</time>
      </trkpt>
      <trkpt lat="43.086970" lon="-6.010950">
        <ele>1506.221</ele>
        <time>2020-05-22T18:16:50Z</time>
      </trkpt>
      <trkpt lat="43.086960" lon="-6.010990">
        <ele>1505.881</ele>
        <time>2020-05-22T18:17:10Z</time>
      </trkpt>
      <trkpt lat="43.086940" lon="-6.011120">
        <ele>1504.861</ele>
        <time>2020-05-22T18:17:30Z</time>
      </trkpt>
      <trkpt lat="43.086920" lon="-6.011200">
        <ele>1503.417</ele>
        <time>2020-05-22T18:17:50Z</time>
      </trkpt>
      <trkpt lat="43.086920" lon="-6.011230">
        <ele>1503.208</ele>
        <time>2020-05-22T18:18:10Z</time>
      </trkpt>
      <trkpt lat="43.086920" lon="-6.011260">
        <ele>1503.072</ele>
        <time>2020-05-22T18:18:30Z</time>
      </trkpt>
      <trkpt lat="43.086920" lon="-6.011290">
        <ele>1502.867</ele>
        <time>2020-05-22T18:18:50Z</time>
      </trkpt>
      <trkpt lat="43.086920" lon="-6.011320">
        <ele>1502.644</ele>
        <time>2020-05-22T18:19:10Z</time>
      </trkpt>
      <trkpt lat="43.086920" lon="-6.011380">
        <ele>1502.270</ele>
        <time>2020-05-22T18:19:30Z</time>
      </trkpt>
      <trkpt lat="43.086940" lon="-6.011460">
        <ele>1502.189</ele>
        <time>2020-05-22T18:19:50Z</time>
      </trkpt>
      <trkpt lat="43.086950" lon="-6.011520">
        <ele>1501.770</ele>
        <time>2020-05-22T18:20:10Z</time>
      </trkpt>
      <trkpt lat="43.086970" lon="-6.011600">
        <ele>1501.159</ele>
        <time>2020-05-22T18:20:30Z</time>
      </trkpt>
      <trkpt lat="43.086980" lon="-6.011650">
        <ele>1500.772</ele>
        <time>2020-05-22T18:20:50Z</time>
      </trkpt>
      <trkpt lat="43.086990" lon="-6.011690">
        <ele>1500.452</ele>
        <time>2020-05-22T18:21:10Z</time>
      </trkpt>
      <trkpt lat="43.087000" lon="-6.011750">
        <ele>1499.953</ele>
        <time>2020-05-22T18:21:30Z</time>
      </trkpt>
      <trkpt lat="43.087010" lon="-6.011820">
        <ele>1499.308</ele>
        <time>2020-05-22T18:21:50Z</time>
      </trkpt>
      <trkpt lat="43.087010" lon="-6.011840">
        <ele>1499.108</ele>
        <time>2020-05-22T18:22:10Z</time>
      </trkpt>
      <trkpt lat="43.087020" lon="-6.011920">
        <ele>1498.439</ele>
        <time>2020-05-22T18:22:30Z</time>
      </trkpt>
      <trkpt lat="43.087030" lon="-6.011980">
        <ele>1498.194</ele>
        <time>2020-05-22T18:22:50Z</time>
      </trkpt>
      <trkpt lat="43.087040" lon="-6.012020">
        <ele>1498.021</ele>
        <time>2020-05-22T18:23:10Z</time>
      </trkpt>
      <trkpt lat="43.087060" lon="-6.012060">
        <ele>1498.057</ele>
        <time>2020-05-22T18:23:30Z</time>
      </trkpt>
      <trkpt lat="43.087060" lon="-6.012070">
        <ele>1497.946</ele>
        <time>2020-05-22T18:23:50Z</time>
      </trkpt>
      <trkpt lat="43.087070" lon="-6.012090">
        <ele>1497.987</ele>
        <time>2020-05-22T18:24:10Z</time>
      </trkpt>
      <trkpt lat="43.087080" lon="-6.012100">
        <ele>1497.936</ele>
        <time>2020-05-22T18:24:30Z</time>
      </trkpt>
      <trkpt lat="43.087090" lon="-6.012120">
        <ele>1497.839</ele>
        <time>2020-05-22T18:24:50Z</time>
      </trkpt>
      <trkpt lat="43.087110" lon="-6.012130">
        <ele>1497.886</ele>
        <time>2020-05-22T18:25:10Z</time>
      </trkpt>
      <trkpt lat="43.087130" lon="-6.012140">
        <ele>1497.860</ele>
        <time>2020-05-22T18:25:30Z</time>
      </trkpt>
      <trkpt lat="43.087150" lon="-6.012150">
        <ele>1497.826</ele>
        <time>2020-05-22T18:25:50Z</time>
      </trkpt>
      <trkpt lat="43.087170" lon="-6.012160">
        <ele>1497.708</ele>
        <time>2020-05-22T18:26:10Z</time>
      </trkpt>
      <trkpt lat="43.087200" lon="-6.012170">
        <ele>1497.722</ele>
        <time>2020-05-22T18:26:30Z</time>
      </trkpt>
      <trkpt lat="43.087310" lon="-6.012180">
        <ele>1496.677</ele>
        <time>2020-05-22T18:26:50Z</time>
      </trkpt>
      <trkpt lat="43.087400" lon="-6.012190">
        <ele>1495.364</ele>
        <time>2020-05-22T18:27:10Z</time>
      </trkpt>
      <trkpt lat="43.087440" lon="-6.012190">
        <ele>1494.840</ele>
        <time>2020-05-22T18:27:30Z</time>
      </trkpt>
      <trkpt lat="43.087530" lon="-6.012190">
        <ele>1494.379</ele>
        <time>2020-05-22T18:27:50Z</time>
      </trkpt>
      <trkpt lat="43.087580" lon="-6.012190">
        <ele>1494.640</ele>
        <time>2020-05-22T18:28:10Z</time>
      </trkpt>
      <trkpt lat="43.087620" lon="-6.012190">
        <ele>1494.939</ele>
        <time>2020-05-22T18:28:30Z</time>
      </trkpt>
      <trkpt lat="43.087790" lon="-6.012190">
        <ele>1496.062</ele>
        <time>2020-05-22T18:28:50Z</time>
      </trkpt>
      <trkpt lat="43.087850" lon="-6.012190">
        <ele>1496.043</ele>
        <time>2020-05-22T18:29:10Z</time>
      </trkpt>
      <trkpt lat="43.087910" lon="-6.012200">
        <ele>1495.764</ele>
        <time>2020-05-22T18:29:30Z</time>
      </trkpt>
      <trkpt lat="43.087960" lon="-6.012210">
        <ele>1495.410</ele>
        <time>2020-05-22T18:29:50Z</time>
      </trkpt>
      <trkpt lat="43.087990" lon="-6.012210">
        <ele>1495.408</ele>
        <time>2020-05-22T18:30:10Z</time>
      </trkpt>
      <trkpt lat="43.088000" lon="-6.012210">
        <ele>1495.448</ele>
        <time>2020-05-22T18:30:30Z</time>
      </trkpt>
      <trkpt lat="43.088020" lon="-6.012200">
        <ele>1495.793</ele>
        <time>2020-05-22T18:30:50Z</time>
      </trkpt>
      <trkpt lat="43.088040" lon="-6.012200">
        <ele>1495.730</ele>
        <time>2020-05-22T18:31:10Z</time>
      </trkpt>
      <trkpt lat="43.088060" lon="-6.012190">
        <ele>1495.966</ele>
        <time>2020-05-22T18:31:30Z</time>
      </trkpt>
      <trkpt lat="43.088080" lon="-6.012180">
        <ele>1495.345</ele>
        <time>2020-05-22T18:31:50Z</time>
      </trkpt>
      <trkpt lat="43.088110" lon="-6.012150">
        <ele>1495.026</ele>
        <time>2020-05-22T18:32:10Z</time>
      </trkpt>
      <trkpt lat="43.088120" lon="-6.012150">
        <ele>1494.615</ele>
        <time>2020-05-22T18:32:30Z</time>
      </trkpt>
      <trkpt lat="43.088230" lon="-6.012040">
        <ele>1493.498</ele>
        <time>2020-05-22T18:32:50Z</time>
      </trkpt>
      <trkpt lat="43.088290" lon="-6.011980">
        <ele>1492.756</ele>
        <time>2020-05-22T18:33:10Z</time>
      </trkpt>
      <trkpt lat="43.088320" lon="-6.011950">
        <ele>1492.459</ele>
        <time>2020-05-22T18:33:30Z</time>
      </trkpt>
      <trkpt lat="43.088380" lon="-6.011910">
        <ele>1489.714</ele>
        <time>2020-05-22T18:33:50Z</time>
      </trkpt>
      <trkpt lat="43.088400" lon="-6.011880">
        <ele>1489.208</ele>
        <time>2020-05-22T18:34:10Z</time>
      </trkpt>
      <trkpt lat="43.088410" lon="-6.011880">
        <ele>1488.629</ele>
        <time>2020-05-22T18:34:30Z</time>
      </trkpt>
      <trkpt lat="43.088430" lon="-6.011850">
        <ele>1488.184</ele>
        <time>2020-05-22T18:34:50Z</time>
      </trkpt>
      <trkpt lat="43.088470" lon="-6.011810">
        <ele>1486.871</ele>
        <time>2020-05-22T18:35:10Z</time>
      </trkpt>
      <trkpt lat="43.088490" lon="-6.011770">
        <ele>1486.767</ele>
        <time>2020-05-22T18:35:30Z</time>
      </trkpt>
      <trkpt lat="43.088590" lon="-6.011630">
        <ele>1485.566</ele>
        <time>2020-05-22T18:35:50Z</time>
      </trkpt>
      <trkpt lat="43.088610" lon="-6.011590">
        <ele>1485.847</ele>
        <time>2020-05-22T18:36:10Z</time>
      </trkpt>
      <trkpt lat="43.088640" lon="-6.011540">
        <ele>1486.056</ele>
        <time>2020-05-22T18:36:30Z</time>
      </trkpt>
      <trkpt lat="43.088650" lon="-6.011510">
        <ele>1486.459</ele>
        <time>2020-05-22T18:36:50Z</time>
      </trkpt>
      <trkpt lat="43.088670" lon="-6.011460">
        <ele>1487.079</ele>
        <time>2020-05-22T18:37:10Z</time>
      </trkpt>
      <trkpt lat="43.088690" lon="-6.011390">
        <ele>1488.105</ele>
        <time>2020-05-22T18:37:30Z</time>
      </trkpt>
      <trkpt lat="43.088710" lon="-6.011340">
        <ele>1488.025</ele>
        <time>2020-05-22T18:37:50Z</time>
      </trkpt>
      <trkpt lat="43.088730" lon="-6.011290">
        <ele>1487.908</ele>
        <time>2020-05-22T18:38:10Z</time>
      </trkpt>
      <trkpt lat="43.088840" lon="-6.011090">
        <ele>1485.321</ele>
        <time>2020-05-22T18:38:30Z</time>
      </trkpt>
      <trkpt lat="43.088880" lon="-6.011030">
        <ele>1484.066</ele>
        <time>2020-05-22T18:38:50Z</time>
      </trkpt>
      <trkpt lat="43.088920" lon="-6.010970">
        <ele>1482.893</ele>
        <time>2020-05-22T18:39:10Z</time>
      </trkpt>
      <trkpt lat="43.088960" lon="-6.010910">
        <ele>1481.769</ele>
        <time>2020-05-22T18:39:30Z</time>
      </trkpt>
      <trkpt lat="43.088970" lon="-6.010900">
        <ele>1481.388</ele>
        <time>2020-05-22T18:39:50Z</time>
      </trkpt>
      <trkpt lat="43.089020" lon="-6.010840">
        <ele>1479.879</ele>
        <time>2020-05-22T18:40:10Z</time>
      </trkpt>
      <trkpt lat="43.089100" lon="-6.010750">
        <ele>1477.028</ele>
        <time>2020-05-22T18:40:30Z</time>
      </trkpt>
      <trkpt lat="43.089140" lon="-6.010700">
        <ele>1475.781</ele>
        <time>2020-05-22T18:40:50Z</time>
      </trkpt>
      <trkpt lat="43.089180" lon="-6.010650">
        <ele>1474.917</ele>
        <time>2020-05-22T18:41:10Z</time>
      </trkpt>
      <trkpt lat="43.089350" lon="-6.010400">
        <ele>1474.287</ele>
        <time>2020-05-22T18:41:30Z</time>
      </trkpt>
      <trkpt lat="43.089380" lon="-6.010350">
        <ele>1474.415</ele>
        <time>2020-05-22T18:41:50Z</time>
      </trkpt>
      <trkpt lat="43.089420" lon="-6.010310">
        <ele>1474.008</ele>
        <time>2020-05-22T18:42:10Z</time>
      </trkpt>
      <trkpt lat="43.089440" lon="-6.010280">
        <ele>1474.115</ele>
        <time>2020-05-22T18:42:30Z</time>
      </trkpt>
      <trkpt lat="43.089460" lon="-6.010260">
        <ele>1473.860</ele>
        <time>2020-05-22T18:42:50Z</time>
      </trkpt>
      <trkpt lat="43.089480" lon="-6.010250">
        <ele>1473.377</ele>
        <time>2020-05-22T18:43:10Z</time>
      </trkpt>
      <trkpt lat="43.089510" lon="-6.010230">
        <ele>1472.723</ele>
        <time>2020-05-22T18:43:30Z</time>
      </trkpt>
      <trkpt lat="43.089530" lon="-6.010210">
        <ele>1472.432</ele>
        <time>2020-05-22T18:43:50Z</time>
      </trkpt>
      <trkpt lat="43.089560" lon="-6.010200">
        <ele>1471.753</ele>
        <time>2020-05-22T18:44:10Z</time>
      </trkpt>
      <trkpt lat="43.089670" lon="-6.010160">
        <ele>1469.542</ele>
        <time>2020-05-22T18:44:30Z</time>
      </trkpt>
      <trkpt lat="43.089750" lon="-6.010140">
        <ele>1468.125</ele>
        <time>2020-05-22T18:44:50Z</time>
      </trkpt>
      <trkpt lat="43.089780" lon="-6.010130">
        <ele>1467.928</ele>
        <time>2020-05-22T18:45:10Z</time>
      </trkpt>
      <trkpt lat="43.089800" lon="-6.010130">
        <ele>1467.789</ele>
        <time>2020-05-22T18:45:30Z</time>
      </trkpt>
      <trkpt lat="43.089820" lon="-6.010130">
        <ele>1467.417</ele>
        <time>2020-05-22T18:45:50Z</time>
      </trkpt>
      <trkpt lat="43.089850" lon="-6.010140">
        <ele>1466.908</ele>
        <time>2020-05-22T18:46:10Z</time>
      </trkpt>
      <trkpt lat="43.089980" lon="-6.010180">
        <ele>1464.676</ele>
        <time>2020-05-22T18:46:30Z</time>
      </trkpt>
      <trkpt lat="43.090160" lon="-6.010240">
        <ele>1462.431</ele>
        <time>2020-05-22T18:46:50Z</time>
      </trkpt>
      <trkpt lat="43.090190" lon="-6.010250">
        <ele>1462.048</ele>
        <time>2020-05-22T18:47:10Z</time>
      </trkpt>
      <trkpt lat="43.090360" lon="-6.010290">
        <ele>1459.544</ele>
        <time>2020-05-22T18:47:30Z</time>
      </trkpt>
      <trkpt lat="43.090400" lon="-6.010300">
        <ele>1458.683</ele>
        <time>2020-05-22T18:47:50Z</time>
      </trkpt>
      <trkpt lat="43.090430" lon="-6.010300">
        <ele>1458.264</ele>
        <time>2020-05-22T18:48:10Z</time>
      </trkpt>
      <trkpt lat="43.090460" lon="-6.010290">
        <ele>1458.183</ele>
        <time>2020-05-22T18:48:30Z</time>
      </trkpt>
      <trkpt lat="43.090490" lon="-6.010280">
        <ele>1457.996</ele>
        <time>2020-05-22T18:48:50Z</time>
      </trkpt>
      <trkpt lat="43.090510" lon="-6.010270">
        <ele>1457.774</ele>
        <time>2020-05-22T18:49:10Z</time>
      </trkpt>
      <trkpt lat="43.090540" lon="-6.010250">
        <ele>1457.356</ele>
        <time>2020-05-22T18:49:30Z</time>
      </trkpt>
      <trkpt lat="43.090560" lon="-6.010230">
        <ele>1457.021</ele>
        <time>2020-05-22T18:49:50Z</time>
      </trkpt>
      <trkpt lat="43.090570" lon="-6.010210">
        <ele>1456.708</ele>
        <time>2020-05-22T18:50:10Z</time>
      </trkpt>
      <trkpt lat="43.090590" lon="-6.010180">
        <ele>1456.021</ele>
        <time>2020-05-22T18:50:30Z</time>
      </trkpt>
      <trkpt lat="43.090590" lon="-6.010150">
        <ele>1456.076</ele>
        <time>2020-05-22T18:50:50Z</time>
      </trkpt>
      <trkpt lat="43.090600" lon="-6.010120">
        <ele>1455.773</ele>
        <time>2020-05-22T18:51:10Z</time>
      </trkpt>
      <trkpt lat="43.090610" lon="-6.010080">
        <ele>1455.339</ele>
        <time>2020-05-22T18:51:30Z</time>
      </trkpt>
      <trkpt lat="43.090610" lon="-6.010070">
        <ele>1455.348</ele>
        <time>2020-05-22T18:51:50Z</time>
      </trkpt>
      <trkpt lat="43.090610" lon="-6.010030">
        <ele>1455.439</ele>
        <time>2020-05-22T18:52:10Z</time>
      </trkpt>
      <trkpt lat="43.090610" lon="-6.009990">
        <ele>1455.248</ele>
        <time>2020-05-22T18:52:30Z</time>
      </trkpt>
      <trkpt lat="43.090610" lon="-6.009970">
        <ele>1454.761</ele>
        <time>2020-05-22T18:52:50Z</time>
      </trkpt>
      <trkpt lat="43.090610" lon="-6.009940">
        <ele>1453.971</ele>
        <time>2020-05-22T18:53:10Z</time>
      </trkpt>
      <trkpt lat="43.090600" lon="-6.009910">
        <ele>1453.741</ele>
        <time>2020-05-22T18:53:30Z</time>
      </trkpt>
      <trkpt lat="43.090590" lon="-6.009890">
        <ele>1453.715</ele>
        <time>2020-05-22T18:53:50Z</time>
      </trkpt>
      <trkpt lat="43.090580" lon="-6.009870">
        <ele>1453.808</ele>
        <time>2020-05-22T18:54:10Z</time>
      </trkpt>
      <trkpt lat="43.090570" lon="-6.009850">
        <ele>1453.951</ele>
        <time>2020-05-22T18:54:30Z</time>
      </trkpt>
      <trkpt lat="43.090560" lon="-6.009830">
        <ele>1454.186</ele>
        <time>2020-05-22T18:54:50Z</time>
      </trkpt>
      <trkpt lat="43.090540" lon="-6.009820">
        <ele>1454.653</ele>
        <time>2020-05-22T18:55:10Z</time>
      </trkpt>
      <trkpt lat="43.090520" lon="-6.009800">
        <ele>1454.829</ele>
        <time>2020-05-22T18:55:30Z</time>
      </trkpt>
      <trkpt lat="43.090490" lon="-6.009780">
        <ele>1455.358</ele>
        <time>2020-05-22T18:55:50Z</time>
      </trkpt>
      <trkpt lat="43.090470" lon="-6.009760">
        <ele>1455.529</ele>
        <time>2020-05-22T18:56:10Z</time>
      </trkpt>
      <trkpt lat="43.090450" lon="-6.009750">
        <ele>1455.998</ele>
        <time>2020-05-22T18:56:30Z</time>
      </trkpt>
      <trkpt lat="43.090400" lon="-6.009730">
        <ele>1457.291</ele>
        <time>2020-05-22T18:56:50Z</time>
      </trkpt>
      <trkpt lat="43.090370" lon="-6.009720">
        <ele>1457.988</ele>
        <time>2020-05-22T18:57:10Z</time>
      </trkpt>
      <trkpt lat="43.090330" lon="-6.009700">
        <ele>1458.524</ele>
        <time>2020-05-22T18:57:30Z</time>
      </trkpt>
      <trkpt lat="43.090290" lon="-6.009690">
        <ele>1459.426</ele>
        <time>2020-05-22T18:57:50Z</time>
      </trkpt>
      <trkpt lat="43.090230" lon="-6.009680">
        <ele>1459.808</ele>
        <time>2020-05-22T18:58:10Z</time>
      </trkpt>
      <trkpt lat="43.090170" lon="-6.009680">
        <ele>1460.312</ele>
        <time>2020-05-22T18:58:30Z</time>
      </trkpt>
      <trkpt lat="43.090110" lon="-6.009680">
        <ele>1460.877</ele>
        <time>2020-05-22T18:58:50Z</time>
      </trkpt>
      <trkpt lat="43.090050" lon="-6.009680">
        <ele>1461.284</ele>
        <time>2020-05-22T18:59:10Z</time>
      </trkpt>
      <trkpt lat="43.089960" lon="-6.009670">
        <ele>1461.990</ele>
        <time>2020-05-22T18:59:30Z</time>
      </trkpt>
      <trkpt lat="43.089910" lon="-6.009670">
        <ele>1462.779</ele>
        <time>2020-05-22T18:59:50Z</time>
      </trkpt>
      <trkpt lat="43.089880" lon="-6.009660">
        <ele>1462.990</ele>
        <time>2020-05-22T19:00:10Z</time>
      </trkpt>
      <trkpt lat="43.089870" lon="-6.009660">
        <ele>1463.189</ele>
        <time>2020-05-22T19:00:30Z</time>
      </trkpt>
      <trkpt lat="43.089830" lon="-6.009650">
        <ele>1463.432</ele>
        <time>2020-05-22T19:00:50Z</time>
      </trkpt>
      <trkpt lat="43.089770" lon="-6.009640">
        <ele>1464.176</ele>
        <time>2020-05-22T19:01:10Z</time>
      </trkpt>
      <trkpt lat="43.089720" lon="-6.009620">
        <ele>1464.590</ele>
        <time>2020-05-22T19:01:30Z</time>
      </trkpt>
      <trkpt lat="43.089690" lon="-6.009620">
        <ele>1465.419</ele>
        <time>2020-05-22T19:01:50Z</time>
      </trkpt>
      <trkpt lat="43.089670" lon="-6.009610">
        <ele>1465.808</ele>
        <time>2020-05-22T19:02:10Z</time>
      </trkpt>
      <trkpt lat="43.089620" lon="-6.009590">
        <ele>1466.871</ele>
        <time>2020-05-22T19:02:30Z</time>
      </trkpt>
      <trkpt lat="43.089580" lon="-6.009570">
        <ele>1467.586</ele>
        <time>2020-05-22T19:02:50Z</time>
      </trkpt>
      <trkpt lat="43.089540" lon="-6.009550">
        <ele>1468.273</ele>
        <time>2020-05-22T19:03:10Z</time>
      </trkpt>
      <trkpt lat="43.089520" lon="-6.009540">
        <ele>1468.529</ele>
        <time>2020-05-22T19:03:30Z</time>
      </trkpt>
      <trkpt lat="43.089480" lon="-6.009520">
        <ele>1469.168</ele>
        <time>2020-05-22T19:03:50Z</time>
      </trkpt>
      <trkpt lat="43.089390" lon="-6.009450">
        <ele>1469.959</ele>
        <time>2020-05-22T19:04:10Z</time>
      </trkpt>
      <trkpt lat="43.089360" lon="-6.009430">
        <ele>1470.268</ele>
        <time>2020-05-22T19:04:30Z</time>
      </trkpt>
      <trkpt lat="43.089320" lon="-6.009390">
        <ele>1470.231</ele>
        <time>2020-05-22T19:04:50Z</time>
      </trkpt>
      <trkpt lat="43.089290" lon="-6.009350">
        <ele>1470.089</ele>
        <time>2020-05-22T19:05:10Z</time>
      </trkpt>
      <trkpt lat="43.089270" lon="-6.009320">
        <ele>1469.706</ele>
        <time>2020-05-22T19:05:30Z</time>
      </trkpt>
      <trkpt lat="43.089250" lon="-6.009290">
        <ele>1469.526</ele>
        <time>2020-05-22T19:05:50Z</time>
      </trkpt>
      <trkpt lat="43.089240" lon="-6.009250">
        <ele>1468.708</ele>
        <time>2020-05-22T19:06:10Z</time>
      </trkpt>
      <trkpt lat="43.089220" lon="-6.009230">
        <ele>1468.892</ele>
        <time>2020-05-22T19:06:30Z</time>
      </trkpt>
      <trkpt lat="43.089150" lon="-6.009040">
        <ele>1466.197</ele>
        <time>2020-05-22T19:06:50Z</time>
      </trkpt>
      <trkpt lat="43.089070" lon="-6.008820">
        <ele>1463.734</ele>
        <time>2020-05-22T19:07:10Z</time>
      </trkpt>
      <trkpt lat="43.088980" lon="-6.008600">
        <ele>1462.970</ele>
        <time>2020-05-22T19:07:30Z</time>
      </trkpt>
      <trkpt lat="43.088900" lon="-6.008380">
        <ele>1459.949</ele>
        <time>2020-05-22T19:07:50Z</time>
      </trkpt>
      <trkpt lat="43.088820" lon="-6.008160">
        <ele>1451.620</ele>
        <time>2020-05-22T19:08:10Z</time>
      </trkpt>
      <trkpt lat="43.088730" lon="-6.007950">
        <ele>1447.339</ele>
        <time>2020-05-22T19:08:30Z</time>
      </trkpt>
      <trkpt lat="43.088670" lon="-6.007790">
        <ele>1445.252</ele>
        <time>2020-05-22T19:08:50Z</time>
      </trkpt>
      <trkpt lat="43.088650" lon="-6.007730">
        <ele>1445.317</ele>
        <time>2020-05-22T19:09:10Z</time>
      </trkpt>
      <trkpt lat="43.088640" lon="-6.007730">
        <ele>1446.287</ele>
        <time>2020-05-22T19:09:30Z</time>
      </trkpt>
      <trkpt lat="43.088630" lon="-6.007700">
        <ele>1446.415</ele>
        <time>2020-05-22T19:09:50Z</time>
      </trkpt>
      <trkpt lat="43.088620" lon="-6.007670">
        <ele>1446.508</ele>
        <time>2020-05-22T19:10:10Z</time>
      </trkpt>
      <trkpt lat="43.088610" lon="-6.007650">
        <ele>1446.895</ele>
        <time>2020-05-22T19:10:30Z</time>
      </trkpt>
      <trkpt lat="43.088600" lon="-6.007640">
        <ele>1447.070</ele>
        <time>2020-05-22T19:10:50Z</time>
      </trkpt>
      <trkpt lat="43.088580" lon="-6.007630">
        <ele>1447.557</ele>
        <time>2020-05-22T19:11:10Z</time>
      </trkpt>
      <trkpt lat="43.088570" lon="-6.007620">
        <ele>1447.643</ele>
        <time>2020-05-22T19:11:30Z</time>
      </trkpt>
      <trkpt lat="43.088550" lon="-6.007610">
        <ele>1448.112</ele>
        <time>2020-05-22T19:11:50Z</time>
      </trkpt>
      <trkpt lat="43.088510" lon="-6.007610">
        <ele>1449.683</ele>
        <time>2020-05-22T19:12:10Z</time>
      </trkpt>
      <trkpt lat="43.088410" lon="-6.007590">
        <ele>1452.732</ele>
        <time>2020-05-22T19:12:30Z</time>
      </trkpt>
      <trkpt lat="43.088360" lon="-6.007580">
        <ele>1454.275</ele>
        <time>2020-05-22T19:12:50Z</time>
      </trkpt>
      <trkpt lat="43.088330" lon="-6.007570">
        <ele>1454.927</ele>
        <time>2020-05-22T19:13:10Z</time>
      </trkpt>
      <trkpt lat="43.088310" lon="-6.007570">
        <ele>1455.768</ele>
        <time>2020-05-22T19:13:30Z</time>
      </trkpt>
      <trkpt lat="43.088250" lon="-6.007540">
        <ele>1456.914</ele>
        <time>2020-05-22T19:13:50Z</time>
      </trkpt>
      <trkpt lat="43.088210" lon="-6.007520">
        <ele>1457.708</ele>
        <time>2020-05-22T19:14:10Z</time>
      </trkpt>
      <trkpt lat="43.088180" lon="-6.007490">
        <ele>1457.756</ele>
        <time>2020-05-22T19:14:30Z</time>
      </trkpt>
      <trkpt lat="43.088160" lon="-6.007470">
        <ele>1457.741</ele>
        <time>2020-05-22T19:14:50Z</time>
      </trkpt>
      <trkpt lat="43.088150" lon="-6.007460">
        <ele>1457.798</ele>
        <time>2020-05-22T19:15:10Z</time>
      </trkpt>
      <trkpt lat="43.088120" lon="-6.007430">
        <ele>1457.754</ele>
        <time>2020-05-22T19:15:30Z</time>
      </trkpt>
      <trkpt lat="43.088110" lon="-6.007400">
        <ele>1457.083</ele>
        <time>2020-05-22T19:15:50Z</time>
      </trkpt>
      <trkpt lat="43.088100" lon="-6.007380">
        <ele>1456.614</ele>
        <time>2020-05-22T19:16:10Z</time>
      </trkpt>
      <trkpt lat="43.088100" lon="-6.007360">
        <ele>1455.883</ele>
        <time>2020-05-22T19:16:30Z</time>
      </trkpt>
      <trkpt lat="43.088100" lon="-6.007340">
        <ele>1455.026</ele>
        <time>2020-05-22T19:16:50Z</time>
      </trkpt>
      <trkpt lat="43.088100" lon="-6.007310">
        <ele>1453.887</ele>
        <time>2020-05-22T19:17:10Z</time>
      </trkpt>
      <trkpt lat="43.088110" lon="-6.007290">
        <ele>1452.742</ele>
        <time>2020-05-22T19:17:30Z</time>
      </trkpt>
      <trkpt lat="43.088120" lon="-6.007280">
        <ele>1451.926</ele>
        <time>2020-05-22T19:17:50Z</time>
      </trkpt>
      <trkpt lat="43.088120" lon="-6.007270">
        <ele>1451.508</ele>
        <time>2020-05-22T19:18:10Z</time>
      </trkpt>
      <trkpt lat="43.088130" lon="-6.007260">
        <ele>1450.832</ele>
        <time>2020-05-22T19:18:30Z</time>
      </trkpt>
      <trkpt lat="43.088140" lon="-6.007240">
        <ele>1449.617</ele>
        <time>2020-05-22T19:18:50Z</time>
      </trkpt>
      <trkpt lat="43.088160" lon="-6.007230">
        <ele>1448.534</ele>
        <time>2020-05-22T19:19:10Z</time>
      </trkpt>
      <trkpt lat="43.088170" lon="-6.007230">
        <ele>1448.260</ele>
        <time>2020-05-22T19:19:30Z</time>
      </trkpt>
      <trkpt lat="43.088180" lon="-6.007230">
        <ele>1447.879</ele>
        <time>2020-05-22T19:19:50Z</time>
      </trkpt>
      <trkpt lat="43.088190" lon="-6.007240">
        <ele>1447.880</ele>
        <time>2020-05-22T19:20:10Z</time>
      </trkpt>
      <trkpt lat="43.088200" lon="-6.007250">
        <ele>1447.879</ele>
        <time>2020-05-22T19:20:30Z</time>
      </trkpt>
      <trkpt lat="43.088210" lon="-6.007270">
        <ele>1448.252</ele>
        <time>2020-05-22T19:20:50Z</time>
      </trkpt>
      <trkpt lat="43.088270" lon="-6.007320">
        <ele>1447.961</ele>
        <time>2020-05-22T19:21:10Z</time>
      </trkpt>
      <trkpt lat="43.088310" lon="-6.007350">
        <ele>1447.521</ele>
        <time>2020-05-22T19:21:30Z</time>
      </trkpt>
      <trkpt lat="43.088350" lon="-6.007380">
        <ele>1447.113</ele>
        <time>2020-05-22T19:21:50Z</time>
      </trkpt>
      <trkpt lat="43.088400" lon="-6.007400">
        <ele>1446.208</ele>
        <time>2020-05-22T19:22:10Z</time>
      </trkpt>
      <trkpt lat="43.088440" lon="-6.007410">
        <ele>1445.240</ele>
        <time>2020-05-22T19:22:30Z</time>
      </trkpt>
      <trkpt lat="43.088480" lon="-6.007420">
        <ele>1444.245</ele>
        <time>2020-05-22T19:22:50Z</time>
      </trkpt>
      <trkpt lat="43.088510" lon="-6.007420">
        <ele>1443.242</ele>
        <time>2020-05-22T19:23:10Z</time>
      </trkpt>
      <trkpt lat="43.088530" lon="-6.007420">
        <ele>1442.518</ele>
        <time>2020-05-22T19:23:30Z</time>
      </trkpt>
      <trkpt lat="43.088550" lon="-6.007420">
        <ele>1441.967</ele>
        <time>2020-05-22T19:23:50Z</time>
      </trkpt>
      <trkpt lat="43.088570" lon="-6.007410">
        <ele>1440.848</ele>
        <time>2020-05-22T19:24:10Z</time>
      </trkpt>
      <trkpt lat="43.088590" lon="-6.007410">
        <ele>1440.137</ele>
        <time>2020-05-22T19:24:30Z</time>
      </trkpt>
      <trkpt lat="43.088610" lon="-6.007420">
        <ele>1439.910</ele>
        <time>2020-05-22T19:24:50Z</time>
      </trkpt>
      <trkpt lat="43.088620" lon="-6.007420">
        <ele>1439.174</ele>
        <time>2020-05-22T19:25:10Z</time>
      </trkpt>
      <trkpt lat="43.088630" lon="-6.007420">
        <ele>1438.356</ele>
        <time>2020-05-22T19:25:30Z</time>
      </trkpt>
      <trkpt lat="43.088660" lon="-6.007430">
        <ele>1436.221</ele>
        <time>2020-05-22T19:25:50Z</time>
      </trkpt>
      <trkpt lat="43.088680" lon="-6.007440">
        <ele>1435.008</ele>
        <time>2020-05-22T19:26:10Z</time>
      </trkpt>
      <trkpt lat="43.088710" lon="-6.007470">
        <ele>1433.711</ele>
        <time>2020-05-22T19:26:30Z</time>
      </trkpt>
      <trkpt lat="43.088780" lon="-6.007520">
        <ele>1429.446</ele>
        <time>2020-05-22T19:26:50Z</time>
      </trkpt>
      <trkpt lat="43.088860" lon="-6.007600">
        <ele>1424.363</ele>
        <time>2020-05-22T19:27:10Z</time>
      </trkpt>
      <trkpt lat="43.088890" lon="-6.007620">
        <ele>1422.189</ele>
        <time>2020-05-22T19:27:30Z</time>
      </trkpt>
      <trkpt lat="43.088910" lon="-6.007650">
        <ele>1420.978</ele>
        <time>2020-05-22T19:27:50Z</time>
      </trkpt>
      <trkpt lat="43.088920" lon="-6.007670">
        <ele>1420.579</ele>
        <time>2020-05-22T19:28:10Z</time>
      </trkpt>
      <trkpt lat="43.088930" lon="-6.007680">
        <ele>1419.958</ele>
        <time>2020-05-22T19:28:30Z</time>
      </trkpt>
      <trkpt lat="43.088980" lon="-6.007750">
        <ele>1417.781</ele>
        <time>2020-05-22T19:28:50Z</time>
      </trkpt>
      <trkpt lat="43.089010" lon="-6.007800">
        <ele>1417.369</ele>
        <time>2020-05-22T19:29:10Z</time>
      </trkpt>
      <trkpt lat="43.089040" lon="-6.007850">
        <ele>1417.504</ele>
        <time>2020-05-22T19:29:30Z</time>
      </trkpt>
      <trkpt lat="43.089160" lon="-6.008040">
        <ele>1416.924</ele>
        <time>2020-05-22T19:29:50Z</time>
      </trkpt>
      <trkpt lat="43.089280" lon="-6.008220">
        <ele>1424.008</ele>
        <time>2020-05-22T19:30:10Z</time>
      </trkpt>
      <trkpt lat="43.089380" lon="-6.008380">
        <ele>1428.240</ele>
        <time>2020-05-22T19:30:30Z</time>
      </trkpt>
      <trkpt lat="43.089400" lon="-6.008410">
        <ele>1428.665</ele>
        <time>2020-05-22T19:30:50Z</time>
      </trkpt>
      <trkpt lat="43.089460" lon="-6.008500">
        <ele>1429.592</ele>
        <time>2020-05-22T19:31:10Z</time>
      </trkpt>
      <trkpt lat="43.089490" lon="-6.008550">
        <ele>1430.498</ele>
        <time>2020-05-22T19:31:30Z</time>
      </trkpt>
      <trkpt lat="43.089520" lon="-6.008580">
        <ele>1430.577</ele>
        <time>2020-05-22T19:31:50Z</time>
      </trkpt>
      <trkpt lat="43.089530" lon="-6.008580">
        <ele>1430.258</ele>
        <time>2020-05-22T19:32:10Z</time>
      </trkpt>
      <trkpt lat="43.089560" lon="-6.008600">
        <ele>1429.957</ele>
        <time>2020-05-22T19:32:30Z</time>
      </trkpt>
      <trkpt lat="43.089600" lon="-6.008620">
        <ele>1429.380</ele>
        <time>2020-05-22T19:32:50Z</time>
      </trkpt>
      <trkpt lat="43.089660" lon="-6.008640">
        <ele>1428.233</ele>
        <time>2020-05-22T19:33:10Z</time>
      </trkpt>
      <trkpt lat="43.089700" lon="-6.008650">
        <ele>1427.423</ele>
        <time>2020-05-22T19:33:30Z</time>
      </trkpt>
      <trkpt lat="43.089730" lon="-6.008670">
        <ele>1427.515</ele>
        <time>2020-05-22T19:33:50Z</time>
      </trkpt>
      <trkpt lat="43.089810" lon="-6.008680">
        <ele>1427.708</ele>
        <time>2020-05-22T19:34:10Z</time>
      </trkpt>
      <trkpt lat="43.089860" lon="-6.008690">
        <ele>1427.947</ele>
        <time>2020-05-22T19:34:30Z</time>
      </trkpt>
      <trkpt lat="43.089870" lon="-6.008690">
        <ele>1427.992</ele>
        <time>2020-05-22T19:34:50Z</time>
      </trkpt>
      <trkpt lat="43.089920" lon="-6.008690">
        <ele>1427.779</ele>
        <time>2020-05-22T19:35:10Z</time>
      </trkpt>
      <trkpt lat="43.090010" lon="-6.008690">
        <ele>1427.325</ele>
        <time>2020-05-22T19:35:30Z</time>
      </trkpt>
      <trkpt lat="43.090040" lon="-6.008690">
        <ele>1426.964</ele>
        <time>2020-05-22T19:35:50Z</time>
      </trkpt>
      <trkpt lat="43.090050" lon="-6.008690">
        <ele>1426.855</ele>
        <time>2020-05-22T19:36:10Z</time>
      </trkpt>
      <trkpt lat="43.090080" lon="-6.008690">
        <ele>1426.454</ele>
        <time>2020-05-22T19:36:30Z</time>
      </trkpt>
      <trkpt lat="43.090130" lon="-6.008670">
        <ele>1424.987</ele>
        <time>2020-05-22T19:36:50Z</time>
      </trkpt>
      <trkpt lat="43.090210" lon="-6.008650">
        <ele>1422.926</ele>
        <time>2020-05-22T19:37:10Z</time>
      </trkpt>
      <trkpt lat="43.090230" lon="-6.008640">
        <ele>1422.147</ele>
        <time>2020-05-22T19:37:30Z</time>
      </trkpt>
      <trkpt lat="43.090400" lon="-6.008600">
        <ele>1416.411</ele>
        <time>2020-05-22T19:37:50Z</time>
      </trkpt>
      <trkpt lat="43.090410" lon="-6.008600">
        <ele>1416.108</ele>
        <time>2020-05-22T19:38:10Z</time>
      </trkpt>
      <trkpt lat="43.090420" lon="-6.008590">
        <ele>1415.486</ele>
        <time>2020-05-22T19:38:30Z</time>
      </trkpt>
      <trkpt lat="43.090450" lon="-6.008590">
        <ele>1414.661</ele>
        <time>2020-05-22T19:38:50Z</time>
      </trkpt>
      <trkpt lat="43.090470" lon="-6.008590">
        <ele>1414.178</ele>
        <time>2020-05-22T19:39:10Z</time>
      </trkpt>
      <trkpt lat="43.090500" lon="-6.008590">
        <ele>1413.484</ele>
        <time>2020-05-22T19:39:30Z</time>
      </trkpt>
      <trkpt lat="43.090530" lon="-6.008600">
        <ele>1413.143</ele>
        <time>2020-05-22T19:39:50Z</time>
      </trkpt>
      <trkpt lat="43.090560" lon="-6.008600">
        <ele>1412.234</ele>
        <time>2020-05-22T19:40:10Z</time>
      </trkpt>
      <trkpt lat="43.090580" lon="-6.008620">
        <ele>1411.943</ele>
        <time>2020-05-22T19:40:30Z</time>
      </trkpt>
      <trkpt lat="43.090620" lon="-6.008630">
        <ele>1409.936</ele>
        <time>2020-05-22T19:40:50Z</time>
      </trkpt>
      <trkpt lat="43.090650" lon="-6.008650">
        <ele>1408.924</ele>
        <time>2020-05-22T19:41:10Z</time>
      </trkpt>
      <trkpt lat="43.090690" lon="-6.008670">
        <ele>1407.404</ele>
        <time>2020-05-22T19:41:30Z</time>
      </trkpt>
      <trkpt lat="43.090720" lon="-6.008700">
        <ele>1406.814</ele>
        <time>2020-05-22T19:41:50Z</time>
      </trkpt>
      <trkpt lat="43.090750" lon="-6.008720">
        <ele>1405.908</ele>
        <time>2020-05-22T19:42:10Z</time>
      </trkpt>
      <trkpt lat="43.090760" lon="-6.008730">
        <ele>1405.726</ele>
        <time>2020-05-22T19:42:30Z</time>
      </trkpt>
      <trkpt lat="43.090790" lon="-6.008760">
        <ele>1405.261</ele>
        <time>2020-05-22T19:42:50Z</time>
      </trkpt>
      <trkpt lat="43.090870" lon="-6.008840">
        <ele>1403.868</ele>
        <time>2020-05-22T19:43:10Z</time>
      </trkpt>
      <trkpt lat="43.090890" lon="-6.008860">
        <ele>1403.394</ele>
        <time>2020-05-22T19:43:30Z</time>
      </trkpt>
      <trkpt lat="43.091040" lon="-6.009010">
        <ele>1399.133</ele>
        <time>2020-05-22T19:43:50Z</time>
      </trkpt>
      <trkpt lat="43.091050" lon="-6.009020">
        <ele>1398.894</ele>
        <time>2020-05-22T19:44:10Z</time>
      </trkpt>
      <trkpt lat="43.091170" lon="-6.009150">
        <ele>1397.073</ele>
        <time>2020-05-22T19:44:30Z</time>
      </trkpt>
      <trkpt lat="43.091230" lon="-6.009220">
        <ele>1395.266</ele>
        <time>2020-05-22T19:44:50Z</time>
      </trkpt>
      <trkpt lat="43.091280" lon="-6.009270">
        <ele>1393.331</ele>
        <time>2020-05-22T19:45:10Z</time>
      </trkpt>
      <trkpt lat="43.091320" lon="-6.009320">
        <ele>1391.961</ele>
        <time>2020-05-22T19:45:30Z</time>
      </trkpt>
      <trkpt lat="43.091360" lon="-6.009370">
        <ele>1390.407</ele>
        <time>2020-05-22T19:45:50Z</time>
      </trkpt>
      <trkpt lat="43.091400" lon="-6.009430">
        <ele>1389.108</ele>
        <time>2020-05-22T19:46:10Z</time>
      </trkpt>
      <trkpt lat="43.091440" lon="-6.009500">
        <ele>1388.187</ele>
        <time>2020-05-22T19:46:30Z</time>
      </trkpt>
      <trkpt lat="43.091490" lon="-6.009580">
        <ele>1386.732</ele>
        <time>2020-05-22T19:46:50Z</time>
      </trkpt>
      <trkpt lat="43.091520" lon="-6.009650">
        <ele>1386.219</ele>
        <time>2020-05-22T19:47:10Z</time>
      </trkpt>
      <trkpt lat="43.091540" lon="-6.009700">
        <ele>1386.035</ele>
        <time>2020-05-22T19:47:30Z</time>
      </trkpt>
      <trkpt lat="43.091560" lon="-6.009730">
        <ele>1385.634</ele>
        <time>2020-05-22T19:47:50Z</time>
      </trkpt>
      <trkpt lat="43.091590" lon="-6.009820">
        <ele>1386.275</ele>
        <time>2020-05-22T19:48:10Z</time>
      </trkpt>
      <trkpt lat="43.091620" lon="-6.009920">
        <ele>1387.244</ele>
        <time>2020-05-22T19:48:30Z</time>
      </trkpt>
      <trkpt lat="43.091720" lon="-6.010180">
        <ele>1391.477</ele>
        <time>2020-05-22T19:48:50Z</time>
      </trkpt>
      <trkpt lat="43.091750" lon="-6.010260">
        <ele>1393.391</ele>
        <time>2020-05-22T19:49:10Z</time>
      </trkpt>
      <trkpt lat="43.091770" lon="-6.010320">
        <ele>1395.081</ele>
        <time>2020-05-22T19:49:30Z</time>
      </trkpt>
      <trkpt lat="43.091790" lon="-6.010350">
        <ele>1395.719</ele>
        <time>2020-05-22T19:49:50Z</time>
      </trkpt>
      <trkpt lat="43.091800" lon="-6.010370">
        <ele>1396.308</ele>
        <time>2020-05-22T19:50:10Z</time>
      </trkpt>
      <trkpt lat="43.091820" lon="-6.010410">
        <ele>1397.583</ele>
        <time>2020-05-22T19:50:30Z</time>
      </trkpt>
      <trkpt lat="43.091850" lon="-6.010450">
        <ele>1398.698</ele>
        <time>2020-05-22T19:50:50Z</time>
      </trkpt>
      <trkpt lat="43.091880" lon="-6.010500">
        <ele>1400.315</ele>
        <time>2020-05-22T19:51:10Z</time>
      </trkpt>
      <trkpt lat="43.091910" lon="-6.010530">
        <ele>1401.241</ele>
        <time>2020-05-22T19:51:30Z</time>
      </trkpt>
      <trkpt lat="43.091940" lon="-6.010550">
        <ele>1401.880</ele>
        <time>2020-05-22T19:51:50Z</time>
      </trkpt>
      <trkpt lat="43.091960" lon="-6.010570">
        <ele>1402.391</ele>
        <time>2020-05-22T19:52:10Z</time>
      </trkpt>
      <trkpt lat="43.092000" lon="-6.010590">
        <ele>1402.520</ele>
        <time>2020-05-22T19:52:30Z</time>
      </trkpt>
      <trkpt lat="43.092030" lon="-6.010610">
        <ele>1402.813</ele>
        <time>2020-05-22T19:52:50Z</time>
      </trkpt>
      <trkpt lat="43.092060" lon="-6.010620">
        <ele>1402.923</ele>
        <time>2020-05-22T19:53:10Z</time>
      </trkpt>
      <trkpt lat="43.092080" lon="-6.010620">
        <ele>1402.883</ele>
        <time>2020-05-22T19:53:30Z</time>
      </trkpt>
      <trkpt lat="43.092100" lon="-6.010630">
        <ele>1402.911</ele>
        <time>2020-05-22T19:53:50Z</time>
      </trkpt>
      <trkpt lat="43.092130" lon="-6.010630">
        <ele>1402.708</ele>
        <time>2020-05-22T19:54:10Z</time>
      </trkpt>
      <trkpt lat="43.092180" lon="-6.010630">
        <ele>1402.466</ele>
        <time>2020-05-22T19:54:30Z</time>
      </trkpt>
      <trkpt lat="43.092230" lon="-6.010620">
        <ele>1401.811</ele>
        <time>2020-05-22T19:54:50Z</time>
      </trkpt>
      <trkpt lat="43.092260" lon="-6.010620">
        <ele>1401.498</ele>
        <time>2020-05-22T19:55:10Z</time>
      </trkpt>
      <trkpt lat="43.092440" lon="-6.010590">
        <ele>1397.744</ele>
        <time>2020-05-22T19:55:30Z</time>
      </trkpt>
      <trkpt lat="43.092520" lon="-6.010570">
        <ele>1395.473</ele>
        <time>2020-05-22T19:55:50Z</time>
      </trkpt>
      <trkpt lat="43.092560" lon="-6.010570">
        <ele>1394.744</ele>
        <time>2020-05-22T19:56:10Z</time>
      </trkpt>
      <trkpt lat="43.092590" lon="-6.010570">
        <ele>1394.263</ele>
        <time>2020-05-22T19:56:30Z</time>
      </trkpt>
      <trkpt lat="43.092620" lon="-6.010580">
        <ele>1394.376</ele>
        <time>2020-05-22T19:56:50Z</time>
      </trkpt>
      <trkpt lat="43.092660" lon="-6.010590">
        <ele>1394.487</ele>
        <time>2020-05-22T19:57:10Z</time>
      </trkpt>
      <trkpt lat="43.092690" lon="-6.010600">
        <ele>1394.642</ele>
        <time>2020-05-22T19:57:30Z</time>
      </trkpt>
      <trkpt lat="43.092730" lon="-6.010620">
        <ele>1395.526</ele>
        <time>2020-05-22T19:57:50Z</time>
      </trkpt>
      <trkpt lat="43.092770" lon="-6.010640">
        <ele>1396.508</ele>
        <time>2020-05-22T19:58:10Z</time>
      </trkpt>
      <trkpt lat="43.092790" lon="-6.010650">
        <ele>1397.142</ele>
        <time>2020-05-22T19:58:30Z</time>
      </trkpt>
      <trkpt lat="43.092960" lon="-6.010730">
        <ele>1402.077</ele>
        <time>2020-05-22T19:58:50Z</time>
      </trkpt>
      <trkpt lat="43.092990" lon="-6.010750">
        <ele>1403.174</ele>
        <time>2020-05-22T19:59:10Z</time>
      </trkpt>
      <trkpt lat="43.093020" lon="-6.010750">
        <ele>1402.990</ele>
        <time>2020-05-22T19:59:30Z</time>
      </trkpt>
      <trkpt lat="43.093040" lon="-6.010750">
        <ele>1402.759</ele>
        <time>2020-05-22T19:59:50Z</time>
      </trkpt>
      <trkpt lat="43.093060" lon="-6.010750">
        <ele>1402.750</ele>
        <time>2020-05-22T20:00:10Z</time>
      </trkpt>
      <trkpt lat="43.093080" lon="-6.010750">
        <ele>1402.969</ele>
        <time>2020-05-22T20:00:30Z</time>
      </trkpt>
      <trkpt lat="43.093100" lon="-6.010750">
        <ele>1403.182</ele>
        <time>2020-05-22T20:00:50Z</time>
      </trkpt>
      <trkpt lat="43.093130" lon="-6.010730">
        <ele>1402.245</ele>
        <time>2020-05-22T20:01:10Z</time>
      </trkpt>
      <trkpt lat="43.093140" lon="-6.010730">
        <ele>1402.347</ele>
        <time>2020-05-22T20:01:30Z</time>
      </trkpt>
      <trkpt lat="43.093170" lon="-6.010720">
        <ele>1402.111</ele>
        <time>2020-05-22T20:01:50Z</time>
      </trkpt>
      <trkpt lat="43.093240" lon="-6.010670">
        <ele>1399.808</ele>
        <time>2020-05-22T20:02:10Z</time>
      </trkpt>
      <trkpt lat="43.093450" lon="-6.010510">
        <ele>1394.818</ele>
        <time>2020-05-22T20:02:30Z</time>
      </trkpt>
      <trkpt lat="43.093540" lon="-6.010460">
        <ele>1394.943</ele>
        <time>2020-05-22T20:02:50Z</time>
      </trkpt>
      <trkpt lat="43.093570" lon="-6.010430">
        <ele>1394.520</ele>
        <time>2020-05-22T20:03:10Z</time>
      </trkpt>
      <trkpt lat="43.093580" lon="-6.010430">
        <ele>1394.896</ele>
        <time>2020-05-22T20:03:30Z</time>
      </trkpt>
      <trkpt lat="43.093580" lon="-6.010420">
        <ele>1394.475</ele>
        <time>2020-05-22T20:03:50Z</time>
      </trkpt>
      <trkpt lat="43.093590" lon="-6.010410">
        <ele>1394.346</ele>
        <time>2020-05-22T20:04:10Z</time>
      </trkpt>
      <trkpt lat="43.093600" lon="-6.010390">
        <ele>1393.865</ele>
        <time>2020-05-22T20:04:30Z</time>
      </trkpt>
      <trkpt lat="43.093600" lon="-6.010380">
        <ele>1393.448</ele>
        <time>2020-05-22T20:04:50Z</time>
      </trkpt>
      <trkpt lat="43.093600" lon="-6.010370">
        <ele>1393.153</ele>
        <time>2020-05-22T20:05:10Z</time>
      </trkpt>
      <trkpt lat="43.093600" lon="-6.010360">
        <ele>1392.704</ele>
        <time>2020-05-22T20:05:30Z</time>
      </trkpt>
      <trkpt lat="43.093600" lon="-6.010340">
        <ele>1392.014</ele>
        <time>2020-05-22T20:05:50Z</time>
      </trkpt>
      <trkpt lat="43.093600" lon="-6.010330">
        <ele>1391.608</ele>
        <time>2020-05-22T20:06:10Z</time>
      </trkpt>
      <trkpt lat="43.093590" lon="-6.010310">
        <ele>1390.659</ele>
        <time>2020-05-22T20:06:30Z</time>
      </trkpt>
      <trkpt lat="43.093580" lon="-6.010310">
        <ele>1390.424</ele>
        <time>2020-05-22T20:06:50Z</time>
      </trkpt>
      <trkpt lat="43.093570" lon="-6.010310">
        <ele>1390.191</ele>
        <time>2020-05-22T20:07:10Z</time>
      </trkpt>
      <trkpt lat="43.093550" lon="-6.010300">
        <ele>1389.387</ele>
        <time>2020-05-22T20:07:30Z</time>
      </trkpt>
      <trkpt lat="43.093540" lon="-6.010300">
        <ele>1389.096</ele>
        <time>2020-05-22T20:07:50Z</time>
      </trkpt>
      <trkpt lat="43.093530" lon="-6.010310">
        <ele>1389.287</ele>
        <time>2020-05-22T20:08:10Z</time>
      </trkpt>
      <trkpt lat="43.093500" lon="-6.010330">
        <ele>1389.276</ele>
        <time>2020-05-22T20:08:30Z</time>
      </trkpt>
      <trkpt lat="43.093470" lon="-6.010340">
        <ele>1388.899</ele>
        <time>2020-05-22T20:08:50Z</time>
      </trkpt>
      <trkpt lat="43.093440" lon="-6.010360">
        <ele>1388.875</ele>
        <time>2020-05-22T20:09:10Z</time>
      </trkpt>
      <trkpt lat="43.093280" lon="-6.010440">
        <ele>1388.328</ele>
        <time>2020-05-22T20:09:30Z</time>
      </trkpt>
      <trkpt lat="43.093220" lon="-6.010460">
        <ele>1388.020</ele>
        <time>2020-05-22T20:09:50Z</time>
      </trkpt>
      <trkpt lat="43.093170" lon="-6.010480">
        <ele>1388.008</ele>
        <time>2020-05-22T20:10:10Z</time>
      </trkpt>
      <trkpt lat="43.093140" lon="-6.010490">
        <ele>1388.081</ele>
        <time>2020-05-22T20:10:30Z</time>
      </trkpt>
      <trkpt lat="43.093130" lon="-6.010490">
        <ele>1387.846</ele>
        <time>2020-05-22T20:10:50Z</time>
      </trkpt>
      <trkpt lat="43.093110" lon="-6.010490">
        <ele>1387.433</ele>
        <time>2020-05-22T20:11:10Z</time>
      </trkpt>
      <trkpt lat="43.093090" lon="-6.010490">
        <ele>1387.199</ele>
        <time>2020-05-22T20:11:30Z</time>
      </trkpt>
      <trkpt lat="43.093060" lon="-6.010480">
        <ele>1386.078</ele>
        <time>2020-05-22T20:11:50Z</time>
      </trkpt>
      <trkpt lat="43.093030" lon="-6.010470">
        <ele>1385.479</ele>
        <time>2020-05-22T20:12:10Z</time>
      </trkpt>
      <trkpt lat="43.092980" lon="-6.010440">
        <ele>1383.678</ele>
        <time>2020-05-22T20:12:30Z</time>
      </trkpt>
      <trkpt lat="43.092950" lon="-6.010420">
        <ele>1382.521</ele>
        <time>2020-05-22T20:12:50Z</time>
      </trkpt>
      <trkpt lat="43.092910" lon="-6.010390">
        <ele>1380.747</ele>
        <time>2020-05-22T20:13:10Z</time>
      </trkpt>
      <trkpt lat="43.092850" lon="-6.010340">
        <ele>1377.829</ele>
        <time>2020-05-22T20:13:30Z</time>
      </trkpt>
      <trkpt lat="43.092800" lon="-6.010290">
        <ele>1374.821</ele>
        <time>2020-05-22T20:13:50Z</time>
      </trkpt>
      <trkpt lat="43.092800" lon="-6.010280">
        <ele>1374.208</ele>
        <time>2020-05-22T20:14:10Z</time>
      </trkpt>
      <trkpt lat="43.092760" lon="-6.010240">
        <ele>1373.158</ele>
        <time>2020-05-22T20:14:30Z</time>
      </trkpt>
      <trkpt lat="43.092730" lon="-6.010210">
        <ele>1372.853</ele>
        <time>2020-05-22T20:14:50Z</time>
      </trkpt>
      <trkpt lat="43.092710" lon="-6.010190">
        <ele>1372.570</ele>
        <time>2020-05-22T20:15:10Z</time>
      </trkpt>
      <trkpt lat="43.092680" lon="-6.010170">
        <ele>1372.356</ele>
        <time>2020-05-22T20:15:30Z</time>
      </trkpt>
      <trkpt lat="43.092650" lon="-6.010160">
        <ele>1372.635</ele>
        <time>2020-05-22T20:15:50Z</time>
      </trkpt>
      <trkpt lat="43.092480" lon="-6.010080">
        <ele>1372.656</ele>
        <time>2020-05-22T20:16:10Z</time>
      </trkpt>
      <trkpt lat="43.092460" lon="-6.010070">
        <ele>1372.645</ele>
        <time>2020-05-22T20:16:30Z</time>
      </trkpt>
      <trkpt lat="43.092420" lon="-6.010040">
        <ele>1372.198</ele>
        <time>2020-05-22T20:16:50Z</time>
      </trkpt>
      <trkpt lat="43.092390" lon="-6.010030">
        <ele>1372.314</ele>
        <time>2020-05-22T20:17:10Z</time>
      </trkpt>
      <trkpt lat="43.092360" lon="-6.010000">
        <ele>1371.554</ele>
        <time>2020-05-22T20:17:30Z</time>
      </trkpt>
      <trkpt lat="43.092330" lon="-6.009960">
        <ele>1370.609</ele>
        <time>2020-05-22T20:17:50Z</time>
      </trkpt>
      <trkpt lat="43.092300" lon="-6.009920">
        <ele>1369.608</ele>
        <time>2020-05-22T20:18:10Z</time>
      </trkpt>
      <trkpt lat="43.092280" lon="-6.009890">
        <ele>1368.845</ele>
        <time>2020-05-22T20:18:30Z</time>
      </trkpt>
      <trkpt lat="43.092260" lon="-6.009850">
        <ele>1367.550</ele>
        <time>2020-05-22T20:18:50Z</time>
      </trkpt>
      <trkpt lat="43.092240" lon="-6.009800">
        <ele>1365.937</ele>
        <time>2020-05-22T20:19:10Z</time>
      </trkpt>
      <trkpt lat="43.092230" lon="-6.009760">
        <ele>1364.463</ele>
        <time>2020-05-22T20:19:30Z</time>
      </trkpt>
      <trkpt lat="43.092070" lon="-6.009310">
        <ele>1355.042</ele>
        <time>2020-05-22T20:19:50Z</time>
      </trkpt>
      <trkpt lat="43.092000" lon="-6.009120">
        <ele>1353.723</ele>
        <time>2020-05-22T20:20:10Z</time>
      </trkpt>
      <trkpt lat="43.091990" lon="-6.009090">
        <ele>1353.232</ele>
        <time>2020-05-22T20:20:30Z</time>
      </trkpt>
      <trkpt lat="43.091930" lon="-6.008920">
        <ele>1350.775</ele>
        <time>2020-05-22T20:20:50Z</time>
      </trkpt>
      <trkpt lat="43.091910" lon="-6.008870">
        <ele>1350.431</ele>
        <time>2020-05-22T20:21:10Z</time>
      </trkpt>
      <trkpt lat="43.091850" lon="-6.008700">
        <ele>1348.861</ele>
        <time>2020-05-22T20:21:30Z</time>
      </trkpt>
      <trkpt lat="43.091830" lon="-6.008650">
        <ele>1348.407</ele>
        <time>2020-05-22T20:21:50Z</time>
      </trkpt>
      <trkpt lat="43.091790" lon="-6.008550">
        <ele>1348.108</ele>
        <time>2020-05-22T20:22:10Z</time>
      </trkpt>
      <trkpt lat="43.091750" lon="-6.008430">
        <ele>1347.877</ele>
        <time>2020-05-22T20:22:30Z</time>
      </trkpt>
      <trkpt lat="43.091730" lon="-6.008350">
        <ele>1347.272</ele>
        <time>2020-05-22T20:22:50Z</time>
      </trkpt>
      <trkpt lat="43.091720" lon="-6.008290">
        <ele>1347.189</ele>
        <time>2020-05-22T20:23:10Z</time>
      </trkpt>
      <trkpt lat="43.091710" lon="-6.008240">
        <ele>1347.375</ele>
        <time>2020-05-22T20:23:30Z</time>
      </trkpt>
      <trkpt lat="43.091710" lon="-6.008190">
        <ele>1347.174</ele>
        <time>2020-05-22T20:23:50Z</time>
      </trkpt>
      <trkpt lat="43.091710" lon="-6.008110">
        <ele>1346.695</ele>
        <time>2020-05-22T20:24:10Z</time>
      </trkpt>
      <trkpt lat="43.091710" lon="-6.007970">
        <ele>1345.414</ele>
        <time>2020-05-22T20:24:30Z</time>
      </trkpt>
      <trkpt lat="43.091710" lon="-6.007950">
        <ele>1345.287</ele>
        <time>2020-05-22T20:24:50Z</time>
      </trkpt>
      <trkpt lat="43.091730" lon="-6.007780">
        <ele>1342.179</ele>
        <time>2020-05-22T20:25:10Z</time>
      </trkpt>
      <trkpt lat="43.091740" lon="-6.007700">
        <ele>1341.305</ele>
        <time>2020-05-22T20:25:30Z</time>
      </trkpt>
      <trkpt lat="43.091760" lon="-6.007530">
        <ele>1339.725</ele>
        <time>2020-05-22T20:25:50Z</time>
      </trkpt>
      <trkpt lat="43.091770" lon="-6.007460">
        <ele>1338.808</ele>
        <time>2020-05-22T20:26:10Z</time>
      </trkpt>
      <trkpt lat="43.091790" lon="-6.007280">
        <ele>1336.371</ele>
        <time>2020-05-22T20:26:30Z</time>
      </trkpt>
      <trkpt lat="43.091790" lon="-6.007260">
        <ele>1336.226</ele>
        <time>2020-05-22T20:26:50Z</time>
      </trkpt>
      <trkpt lat="43.091800" lon="-6.007250">
        <ele>1335.533</ele>
        <time>2020-05-22T20:27:10Z</time>
      </trkpt>
      <trkpt lat="43.091800" lon="-6.007230">
        <ele>1335.469</ele>
        <time>2020-05-22T20:27:30Z</time>
      </trkpt>
      <trkpt lat="43.091810" lon="-6.007220">
        <ele>1334.728</ele>
        <time>2020-05-22T20:27:50Z</time>
      </trkpt>
      <trkpt lat="43.091820" lon="-6.007210">
        <ele>1334.149</ele>
        <time>2020-05-22T20:28:10Z</time>
      </trkpt>
      <trkpt lat="43.091830" lon="-6.007210">
        <ele>1333.578</ele>
        <time>2020-05-22T20:28:30Z</time>
      </trkpt>
      <trkpt lat="43.091840" lon="-6.007200">
        <ele>1332.821</ele>
        <time>2020-05-22T20:28:50Z</time>
      </trkpt>
      <trkpt lat="43.091860" lon="-6.007200">
        <ele>1331.733</ele>
        <time>2020-05-22T20:29:10Z</time>
      </trkpt>
      <trkpt lat="43.091870" lon="-6.007210">
        <ele>1331.223</ele>
        <time>2020-05-22T20:29:30Z</time>
      </trkpt>
      <trkpt lat="43.091880" lon="-6.007210">
        <ele>1330.615</ele>
        <time>2020-05-22T20:29:50Z</time>
      </trkpt>
      <trkpt lat="43.091880" lon="-6.007220">
        <ele>1330.708</ele>
        <time>2020-05-22T20:30:10Z</time>
      </trkpt>
      <trkpt lat="43.091890" lon="-6.007230">
        <ele>1330.217</ele>
        <time>2020-05-22T20:30:30Z</time>
      </trkpt>
      <trkpt lat="43.091890" lon="-6.007240">
        <ele>1330.362</ele>
        <time>2020-05-22T20:30:50Z</time>
      </trkpt>
      <trkpt lat="43.091890" lon="-6.007270">
        <ele>1330.529</ele>
        <time>2020-05-22T20:31:10Z</time>
      </trkpt>
      <trkpt lat="43.091890" lon="-6.007290">
        <ele>1330.685</ele>
        <time>2020-05-22T20:31:30Z</time>
      </trkpt>
      <trkpt lat="43.091890" lon="-6.007320">
        <ele>1330.844</ele>
        <time>2020-05-22T20:31:50Z</time>
      </trkpt>
      <trkpt lat="43.091890" lon="-6.007350">
        <ele>1331.185</ele>
        <time>2020-05-22T20:32:10Z</time>
      </trkpt>
      <trkpt lat="43.091870" lon="-6.007590">
        <ele>1333.434</ele>
        <time>2020-05-22T20:32:30Z</time>
      </trkpt>
      <trkpt lat="43.091850" lon="-6.007750">
        <ele>1334.777</ele>
        <time>2020-05-22T20:32:50Z</time>
      </trkpt>
      <trkpt lat="43.091850" lon="-6.007840">
        <ele>1335.572</ele>
        <time>2020-05-22T20:33:10Z</time>
      </trkpt>
      <trkpt lat="43.091850" lon="-6.007910">
        <ele>1336.213</ele>
        <time>2020-05-22T20:33:30Z</time>
      </trkpt>
      <trkpt lat="43.091850" lon="-6.007970">
        <ele>1336.914</ele>
        <time>2020-05-22T20:33:50Z</time>
      </trkpt>
      <trkpt lat="43.091860" lon="-6.008030">
        <ele>1336.908</ele>
        <time>2020-05-22T20:34:10Z</time>
      </trkpt>
      <trkpt lat="43.091870" lon="-6.008070">
        <ele>1336.711</ele>
        <time>2020-05-22T20:34:30Z</time>
      </trkpt>
      <trkpt lat="43.091870" lon="-6.008080">
        <ele>1336.846</ele>
        <time>2020-05-22T20:34:50Z</time>
      </trkpt>
      <trkpt lat="43.091880" lon="-6.008110">
        <ele>1336.663</ele>
        <time>2020-05-22T20:35:10Z</time>
      </trkpt>
      <trkpt lat="43.091890" lon="-6.008150">
        <ele>1336.539</ele>
        <time>2020-05-22T20:35:30Z</time>
      </trkpt>
      <trkpt lat="43.091910" lon="-6.008190">
        <ele>1335.998</ele>
        <time>2020-05-22T20:35:50Z</time>
      </trkpt>
      <trkpt lat="43.091940" lon="-6.008250">
        <ele>1335.049</ele>
        <time>2020-05-22T20:36:10Z</time>
      </trkpt>
      <trkpt lat="43.091960" lon="-6.008290">
        <ele>1334.778</ele>
        <time>2020-05-22T20:36:30Z</time>
      </trkpt>
      <trkpt lat="43.091970" lon="-6.008300">
        <ele>1334.451</ele>
        <time>2020-05-22T20:36:50Z</time>
      </trkpt>
      <trkpt lat="43.092020" lon="-6.008360">
        <ele>1333.248</ele>
        <time>2020-05-22T20:37:10Z</time>
      </trkpt>
      <trkpt lat="43.092100" lon="-6.008450">
        <ele>1331.661</ele>
        <time>2020-05-22T20:37:30Z</time>
      </trkpt>
      <trkpt lat="43.092240" lon="-6.008600">
        <ele>1329.217</ele>
        <time>2020-05-22T20:37:50Z</time>
      </trkpt>
      <trkpt lat="43.092270" lon="-6.008640">
        <ele>1329.408</ele>
        <time>2020-05-22T20:38:10Z</time>
      </trkpt>
      <trkpt lat="43.092380" lon="-6.008760">
        <ele>1329.778</ele>
        <time>2020-05-22T20:38:30Z</time>
      </trkpt>
      <trkpt lat="43.092480" lon="-6.008880">
        <ele>1330.463</ele>
        <time>2020-05-22T20:38:50Z</time>
      </trkpt>
      <trkpt lat="43.092520" lon="-6.008920">
        <ele>1330.670</ele>
        <time>2020-05-22T20:39:10Z</time>
      </trkpt>
      <trkpt lat="43.092580" lon="-6.008980">
        <ele>1331.146</ele>
        <time>2020-05-22T20:39:30Z</time>
      </trkpt>
      <trkpt lat="43.092640" lon="-6.009040">
        <ele>1331.785</ele>
        <time>2020-05-22T20:39:50Z</time>
      </trkpt>
      <trkpt lat="43.092740" lon="-6.009120">
        <ele>1332.186</ele>
        <time>2020-05-22T20:40:10Z</time>
      </trkpt>
      <trkpt lat="43.092770" lon="-6.009140">
        <ele>1332.155</ele>
        <time>2020-05-22T20:40:30Z</time>
      </trkpt>
      <trkpt lat="43.092800" lon="-6.009150">
        <ele>1331.988</ele>
        <time>2020-05-22T20:40:50Z</time>
      </trkpt>
      <trkpt lat="43.092820" lon="-6.009170">
        <ele>1332.386</ele>
        <time>2020-05-22T20:41:10Z</time>
      </trkpt>
      <trkpt lat="43.092840" lon="-6.009170">
        <ele>1332.060</ele>
        <time>2020-05-22T20:41:30Z</time>
      </trkpt>
      <trkpt lat="43.092880" lon="-6.009190">
        <ele>1331.926</ele>
        <time>2020-05-22T20:41:50Z</time>
      </trkpt>
      <trkpt lat="43.092910" lon="-6.009190">
        <ele>1331.408</ele>
        <time>2020-05-22T20:42:10Z</time>
      </trkpt>
      <trkpt lat="43.092940" lon="-6.009200">
        <ele>1331.292</ele>
        <time>2020-05-22T20:42:30Z</time>
      </trkpt>
      <trkpt lat="43.092960" lon="-6.009200">
        <ele>1330.837</ele>
        <time>2020-05-22T20:42:50Z</time>
      </trkpt>
      <trkpt lat="43.092990" lon="-6.009190">
        <ele>1330.094</ele>
        <time>2020-05-22T20:43:10Z</time>
      </trkpt>
      <trkpt lat="43.093020" lon="-6.009190">
        <ele>1329.510</ele>
        <time>2020-05-22T20:43:30Z</time>
      </trkpt>
      <trkpt lat="43.093070" lon="-6.009180">
        <ele>1328.329</ele>
        <time>2020-05-22T20:43:50Z</time>
      </trkpt>
      <trkpt lat="43.093140" lon="-6.009160">
        <ele>1326.720</ele>
        <time>2020-05-22T20:44:10Z</time>
      </trkpt>
      <trkpt lat="43.093180" lon="-6.009140">
        <ele>1325.249</ele>
        <time>2020-05-22T20:44:30Z</time>
      </trkpt>
      <trkpt lat="43.093220" lon="-6.009130">
        <ele>1324.272</ele>
        <time>2020-05-22T20:44:50Z</time>
      </trkpt>
      <trkpt lat="43.093290" lon="-6.009100">
        <ele>1321.524</ele>
        <time>2020-05-22T20:45:10Z</time>
      </trkpt>
      <trkpt lat="43.093350" lon="-6.009070">
        <ele>1318.804</ele>
        <time>2020-05-22T20:45:30Z</time>
      </trkpt>
      <trkpt lat="43.093380" lon="-6.009060">
        <ele>1317.714</ele>
        <time>2020-05-22T20:45:50Z</time>
      </trkpt>
      <trkpt lat="43.093520" lon="-6.008980">
        <ele>1310.708</ele>
        <time>2020-05-22T20:46:10Z</time>
      </trkpt>
      <trkpt lat="43.093890" lon="-6.008790">
        <ele>1298.616</ele>
        <time>2020-05-22T20:46:30Z</time>
      </trkpt>
      <trkpt lat="43.094020" lon="-6.008730">
        <ele>1293.751</ele>
        <time>2020-05-22T20:46:50Z</time>
      </trkpt>
      <trkpt lat="43.094130" lon="-6.008690">
        <ele>1290.048</ele>
        <time>2020-05-22T20:47:10Z</time>
      </trkpt>
      <trkpt lat="43.094200" lon="-6.008670">
        <ele>1287.544</ele>
        <time>2020-05-22T20:47:30Z</time>
      </trkpt>
      <trkpt lat="43.094240" lon="-6.008660">
        <ele>1285.813</ele>
        <time>2020-05-22T20:47:50Z</time>
      </trkpt>
      <trkpt lat="43.094360" lon="-6.008650">
        <ele>1281.994</ele>
        <time>2020-05-22T20:48:10Z</time>
      </trkpt>
      <trkpt lat="43.094560" lon="-6.008640">
        <ele>1279.633</ele>
        <time>2020-05-22T20:48:30Z</time>
      </trkpt>
      <trkpt lat="43.094670" lon="-6.008620">
        <ele>1279.766</ele>
        <time>2020-05-22T20:48:50Z</time>
      </trkpt>
      <trkpt lat="43.094790" lon="-6.008620">
        <ele>1282.136</ele>
        <time>2020-05-22T20:49:10Z</time>
      </trkpt>
      <trkpt lat="43.094880" lon="-6.008600">
        <ele>1284.117</ele>
        <time>2020-05-22T20:49:30Z</time>
      </trkpt>
      <trkpt lat="43.094920" lon="-6.008590">
        <ele>1284.918</ele>
        <time>2020-05-22T20:49:50Z</time>
      </trkpt>
      <trkpt lat="43.094950" lon="-6.008580">
        <ele>1285.408</ele>
        <time>2020-05-22T20:50:10Z</time>
      </trkpt>
      <trkpt lat="43.095070" lon="-6.008520">
        <ele>1286.197</ele>
        <time>2020-05-22T20:50:30Z</time>
      </trkpt>
      <trkpt lat="43.095150" lon="-6.008490">
        <ele>1286.992</ele>
        <time>2020-05-22T20:50:50Z</time>
      </trkpt>
      <trkpt lat="43.095190" lon="-6.008460">
        <ele>1286.969</ele>
        <time>2020-05-22T20:51:10Z</time>
      </trkpt>
      <trkpt lat="43.095210" lon="-6.008430">
        <ele>1286.325</ele>
        <time>2020-05-22T20:51:30Z</time>
      </trkpt>
      <trkpt lat="43.095230" lon="-6.008380">
        <ele>1285.224</ele>
        <time>2020-05-22T20:51:50Z</time>
      </trkpt>
      <trkpt lat="43.095240" lon="-6.008300">
        <ele>1281.925</ele>
        <time>2020-05-22T20:52:10Z</time>
      </trkpt>
      <trkpt lat="43.095280" lon="-6.008150">
        <ele>1273.864</ele>
        <time>2020-05-22T20:52:30Z</time>
      </trkpt>
      <trkpt lat="43.095350" lon="-6.007930">
        <ele>1262.777</ele>
        <time>2020-05-22T20:52:50Z</time>
      </trkpt>
      <trkpt lat="43.095350" lon="-6.007920">
        <ele>1262.232</ele>
        <time>2020-05-22T20:53:10Z</time>
      </trkpt>
      <trkpt lat="43.095430" lon="-6.007600">
        <ele>1250.992</ele>
        <time>2020-05-22T20:53:30Z</time>
      </trkpt>
      <trkpt lat="43.095460" lon="-6.007490">
        <ele>1248.011</ele>
        <time>2020-05-22T20:53:50Z</time>
      </trkpt>
      <trkpt lat="43.095480" lon="-6.007460">
        <ele>1247.908</ele>
        <time>2020-05-22T20:54:10Z</time>
      </trkpt>
      <trkpt lat="43.095510" lon="-6.007400">
        <ele>1247.287</ele>
        <time>2020-05-22T20:54:30Z</time>
      </trkpt>
      <trkpt lat="43.095580" lon="-6.007310">
        <ele>1246.962</ele>
        <time>2020-05-22T20:54:50Z</time>
      </trkpt>
      <trkpt lat="43.095600" lon="-6.007290">
        <ele>1246.969</ele>
        <time>2020-05-22T20:55:10Z</time>
      </trkpt>
      <trkpt lat="43.095690" lon="-6.007190">
        <ele>1246.195</ele>
        <time>2020-05-22T20:55:30Z</time>
      </trkpt>
      <trkpt lat="43.095750" lon="-6.007150">
        <ele>1245.974</ele>
        <time>2020-05-22T20:55:50Z</time>
      </trkpt>
      <trkpt lat="43.095760" lon="-6.007150">
        <ele>1246.175</ele>
        <time>2020-05-22T20:56:10Z</time>
      </trkpt>
      <trkpt lat="43.095890" lon="-6.007100">
        <ele>1247.184</ele>
        <time>2020-05-22T20:56:30Z</time>
      </trkpt>
      <trkpt lat="43.096030" lon="-6.007060">
        <ele>1248.567</ele>
        <time>2020-05-22T20:56:50Z</time>
      </trkpt>
      <trkpt lat="43.096100" lon="-6.007060">
        <ele>1250.258</ele>
        <time>2020-05-22T20:57:10Z</time>
      </trkpt>
      <trkpt lat="43.096110" lon="-6.007070">
        <ele>1250.852</ele>
        <time>2020-05-22T20:57:30Z</time>
      </trkpt>
      <trkpt lat="43.096200" lon="-6.007040">
        <ele>1252.017</ele>
        <time>2020-05-22T20:57:50Z</time>
      </trkpt>
      <trkpt lat="43.096270" lon="-6.007020">
        <ele>1253.108</ele>
        <time>2020-05-22T20:58:10Z</time>
      </trkpt>
      <trkpt lat="43.096330" lon="-6.006990">
        <ele>1253.469</ele>
        <time>2020-05-22T20:58:30Z</time>
      </trkpt>
      <trkpt lat="43.096360" lon="-6.006960">
        <ele>1252.944</ele>
        <time>2020-05-22T20:58:50Z</time>
      </trkpt>
      <trkpt lat="43.096370" lon="-6.006910">
        <ele>1251.321</ele>
        <time>2020-05-22T20:59:10Z</time>
      </trkpt>
      <trkpt lat="43.096370" lon="-6.006840">
        <ele>1248.917</ele>
        <time>2020-05-22T20:59:30Z</time>
      </trkpt>
      <trkpt lat="43.096400" lon="-6.006600">
        <ele>1243.096</ele>
        <time>2020-05-22T20:59:50Z</time>
      </trkpt>
      <trkpt lat="43.096440" lon="-6.006180">
        <ele>1239.037</ele>
        <time>2020-05-22T21:00:10Z</time>
      </trkpt>
      <trkpt lat="43.096450" lon="-6.006110">
        <ele>1239.156</ele>
        <time>2020-05-22T21:00:30Z</time>
      </trkpt>
      <trkpt lat="43.096490" lon="-6.005870">
        <ele>1237.589</ele>
        <time>2020-05-22T21:00:50Z</time>
      </trkpt>
      <trkpt lat="43.096520" lon="-6.005690">
        <ele>1234.831</ele>
        <time>2020-05-22T21:01:10Z</time>
      </trkpt>
      <trkpt lat="43.096540" lon="-6.005580">
        <ele>1233.261</ele>
        <time>2020-05-22T21:01:30Z</time>
      </trkpt>
      <trkpt lat="43.096550" lon="-6.005480">
        <ele>1231.307</ele>
        <time>2020-05-22T21:01:50Z</time>
      </trkpt>
      <trkpt lat="43.096560" lon="-6.005390">
        <ele>1229.608</ele>
        <time>2020-05-22T21:02:10Z</time>
      </trkpt>
      <trkpt lat="43.096560" lon="-6.005380">
        <ele>1229.397</ele>
        <time>2020-05-22T21:02:30Z</time>
      </trkpt>
      <trkpt lat="43.096580" lon="-6.005280">
        <ele>1228.172</ele>
        <time>2020-05-22T21:02:50Z</time>
      </trkpt>
      <trkpt lat="43.096610" lon="-6.005170">
        <ele>1227.189</ele>
        <time>2020-05-22T21:03:10Z</time>
      </trkpt>
      <trkpt lat="43.096620" lon="-6.005160">
        <ele>1227.475</ele>
        <time>2020-05-22T21:03:30Z</time>
      </trkpt>
      <trkpt lat="43.096670" lon="-6.005060">
        <ele>1227.734</ele>
        <time>2020-05-22T21:03:50Z</time>
      </trkpt>
      <trkpt lat="43.096740" lon="-6.004970">
        <ele>1229.355</ele>
        <time>2020-05-22T21:04:10Z</time>
      </trkpt>
      <trkpt lat="43.096750" lon="-6.004940">
        <ele>1229.124</ele>
        <time>2020-05-22T21:04:30Z</time>
      </trkpt>
      <trkpt lat="43.096800" lon="-6.004860">
        <ele>1229.757</ele>
        <time>2020-05-22T21:04:50Z</time>
      </trkpt>
      <trkpt lat="43.096840" lon="-6.004780">
        <ele>1229.645</ele>
        <time>2020-05-22T21:05:10Z</time>
      </trkpt>
      <trkpt lat="43.096840" lon="-6.004770">
        <ele>1229.447</ele>
        <time>2020-05-22T21:05:30Z</time>
      </trkpt>
      <trkpt lat="43.096840" lon="-6.004760">
        <ele>1229.111</ele>
        <time>2020-05-22T21:05:50Z</time>
      </trkpt>
      <trkpt lat="43.096840" lon="-6.004710">
        <ele>1227.808</ele>
        <time>2020-05-22T21:06:10Z</time>
      </trkpt>
      <trkpt lat="43.096840" lon="-6.004680">
        <ele>1227.188</ele>
        <time>2020-05-22T21:06:30Z</time>
      </trkpt>
      <trkpt lat="43.096840" lon="-6.004650">
        <ele>1226.353</ele>
        <time>2020-05-22T21:06:50Z</time>
      </trkpt>
      <trkpt lat="43.096830" lon="-6.004620">
        <ele>1225.220</ele>
        <time>2020-05-22T21:07:10Z</time>
      </trkpt>
      <trkpt lat="43.096820" lon="-6.004610">
        <ele>1224.546</ele>
        <time>2020-05-22T21:07:30Z</time>
      </trkpt>
      <trkpt lat="43.096800" lon="-6.004590">
        <ele>1223.265</ele>
        <time>2020-05-22T21:07:50Z</time>
      </trkpt>
      <trkpt lat="43.096790" lon="-6.004590">
        <ele>1222.846</ele>
        <time>2020-05-22T21:08:10Z</time>
      </trkpt>
      <trkpt lat="43.096770" lon="-6.004590">
        <ele>1221.955</ele>
        <time>2020-05-22T21:08:30Z</time>
      </trkpt>
      <trkpt lat="43.096760" lon="-6.004590">
        <ele>1221.558</ele>
        <time>2020-05-22T21:08:50Z</time>
      </trkpt>
      <trkpt lat="43.096740" lon="-6.004600">
        <ele>1220.922</ele>
        <time>2020-05-22T21:09:10Z</time>
      </trkpt>
      <trkpt lat="43.096660" lon="-6.004770">
        <ele>1220.762</ele>
        <time>2020-05-22T21:09:30Z</time>
      </trkpt>
      <trkpt lat="43.096600" lon="-6.004890">
        <ele>1220.108</ele>
        <time>2020-05-22T21:09:50Z</time>
      </trkpt>
      <trkpt lat="43.096550" lon="-6.004970">
        <ele>1219.108</ele>
        <time>2020-05-22T21:10:10Z</time>
      </trkpt>
      <trkpt lat="43.096390" lon="-6.005210">
        <ele>1215.686</ele>
        <time>2020-05-22T21:10:30Z</time>
      </trkpt>
      <trkpt lat="43.096320" lon="-6.005350">
        <ele>1215.451</ele>
        <time>2020-05-22T21:10:50Z</time>
      </trkpt>
      <trkpt lat="43.096220" lon="-6.005550">
        <ele>1216.368</ele>
        <time>2020-05-22T21:11:10Z</time>
      </trkpt>
      <trkpt lat="43.096120" lon="-6.005760">
        <ele>1216.684</ele>
        <time>2020-05-22T21:11:30Z</time>
      </trkpt>
      <trkpt lat="43.096110" lon="-6.005770">
        <ele>1216.413</ele>
        <time>2020-05-22T21:11:50Z</time>
      </trkpt>
      <trkpt lat="43.096010" lon="-6.005950">
        <ele>1214.544</ele>
        <time>2020-05-22T21:12:10Z</time>
      </trkpt>
      <trkpt lat="43.095950" lon="-6.006070">
        <ele>1213.083</ele>
        <time>2020-05-22T21:12:30Z</time>
      </trkpt>
      <trkpt lat="43.095910" lon="-6.006150">
        <ele>1212.146</ele>
        <time>2020-05-22T21:12:50Z</time>
      </trkpt>
      <trkpt lat="43.095900" lon="-6.006170">
        <ele>1211.986</ele>
        <time>2020-05-22T21:13:10Z</time>
      </trkpt>
      <trkpt lat="43.095870" lon="-6.006230">
        <ele>1211.460</ele>
        <time>2020-05-22T21:13:30Z</time>
      </trkpt>
      <trkpt lat="43.095840" lon="-6.006310">
        <ele>1211.226</ele>
        <time>2020-05-22T21:13:50Z</time>
      </trkpt>
      <trkpt lat="43.095820" lon="-6.006340">
        <ele>1210.908</ele>
        <time>2020-05-22T21:14:10Z</time>
      </trkpt>
      <trkpt lat="43.095800" lon="-6.006380">
        <ele>1210.982</ele>
        <time>2020-05-22T21:14:30Z</time>
      </trkpt>
      <trkpt lat="43.095770" lon="-6.006400">
        <ele>1210.827</ele>
        <time>2020-05-22T21:14:50Z</time>
      </trkpt>
      <trkpt lat="43.095740" lon="-6.006410">
        <ele>1210.514</ele>
        <time>2020-05-22T21:15:10Z</time>
      </trkpt>
      <trkpt lat="43.095680" lon="-6.006420">
        <ele>1209.320</ele>
        <time>2020-05-22T21:15:30Z</time>
      </trkpt>
      <trkpt lat="43.095610" lon="-6.006410">
        <ele>1206.759</ele>
        <time>2020-05-22T21:15:50Z</time>
      </trkpt>
      <trkpt lat="43.095560" lon="-6.006410">
        <ele>1205.390</ele>
        <time>2020-05-22T21:16:10Z</time>
      </trkpt>
      <trkpt lat="43.095460" lon="-6.006400">
        <ele>1204.519</ele>
        <time>2020-05-22T21:16:30Z</time>
      </trkpt>
      <trkpt lat="43.095390" lon="-6.006390">
        <ele>1204.082</ele>
        <time>2020-05-22T21:16:50Z</time>
      </trkpt>
      <trkpt lat="43.095230" lon="-6.006420">
        <ele>1204.783</ele>
        <time>2020-05-22T21:17:10Z</time>
      </trkpt>
      <trkpt lat="43.095110" lon="-6.006470">
        <ele>1205.025</ele>
        <time>2020-05-22T21:17:30Z</time>
      </trkpt>
      <trkpt lat="43.095040" lon="-6.006490">
        <ele>1204.817</ele>
        <time>2020-05-22T21:17:50Z</time>
      </trkpt>
      <trkpt lat="43.094930" lon="-6.006530">
        <ele>1203.808</ele>
        <time>2020-05-22T21:18:10Z</time>
      </trkpt>
      <trkpt lat="43.094790" lon="-6.006580">
        <ele>1201.622</ele>
        <time>2020-05-22T21:18:30Z</time>
      </trkpt>
      <trkpt lat="43.094770" lon="-6.006600">
        <ele>1201.697</ele>
        <time>2020-05-22T21:18:50Z</time>
      </trkpt>
      <trkpt lat="43.094710" lon="-6.006630">
        <ele>1200.964</ele>
        <time>2020-05-22T21:19:10Z</time>
      </trkpt>
      <trkpt lat="43.094680" lon="-6.006650">
        <ele>1201.050</ele>
        <time>2020-05-22T21:19:30Z</time>
      </trkpt>
      <trkpt lat="43.094620" lon="-6.006680">
        <ele>1201.149</ele>
        <time>2020-05-22T21:19:50Z</time>
      </trkpt>
      <trkpt lat="43.094590" lon="-6.006680">
        <ele>1200.680</ele>
        <time>2020-05-22T21:20:10Z</time>
      </trkpt>
      <trkpt lat="43.094580" lon="-6.006690">
        <ele>1200.959</ele>
        <time>2020-05-22T21:20:30Z</time>
      </trkpt>
      <trkpt lat="43.094420" lon="-6.006740">
        <ele>1201.152</ele>
        <time>2020-05-22T21:20:50Z</time>
      </trkpt>
      <trkpt lat="43.094320" lon="-6.006770">
        <ele>1203.254</ele>
        <time>2020-05-22T21:21:10Z</time>
      </trkpt>
      <trkpt lat="43.094290" lon="-6.006770">
        <ele>1203.456</ele>
        <time>2020-05-22T21:21:30Z</time>
      </trkpt>
      <trkpt lat="43.094240" lon="-6.006790">
        <ele>1204.711</ele>
        <time>2020-05-22T21:21:50Z</time>
      </trkpt>
      <trkpt lat="43.094200" lon="-6.006800">
        <ele>1205.508</ele>
        <time>2020-05-22T21:22:10Z</time>
      </trkpt>
      <trkpt lat="43.094160" lon="-6.006800">
        <ele>1205.819</ele>
        <time>2020-05-22T21:22:30Z</time>
      </trkpt>
      <trkpt lat="43.094110" lon="-6.006790">
        <ele>1206.044</ele>
        <time>2020-05-22T21:22:50Z</time>
      </trkpt>
      <trkpt lat="43.094080" lon="-6.006780">
        <ele>1205.981</ele>
        <time>2020-05-22T21:23:10Z</time>
      </trkpt>
      <trkpt lat="43.094060" lon="-6.006780">
        <ele>1206.147</ele>
        <time>2020-05-22T21:23:30Z</time>
      </trkpt>
      <trkpt lat="43.094040" lon="-6.006770">
        <ele>1205.946</ele>
        <time>2020-05-22T21:23:50Z</time>
      </trkpt>
      <trkpt lat="43.094000" lon="-6.006760">
        <ele>1205.837</ele>
        <time>2020-05-22T21:24:10Z</time>
      </trkpt>
      <trkpt lat="43.093960" lon="-6.006750">
        <ele>1205.846</ele>
        <time>2020-05-22T21:24:30Z</time>
      </trkpt>
      <trkpt lat="43.093900" lon="-6.006720">
        <ele>1204.879</ele>
        <time>2020-05-22T21:24:50Z</time>
      </trkpt>
      <trkpt lat="43.093860" lon="-6.006690">
        <ele>1204.466</ele>
        <time>2020-05-22T21:25:10Z</time>
      </trkpt>
      <trkpt lat="43.093840" lon="-6.006670">
        <ele>1204.129</ele>
        <time>2020-05-22T21:25:30Z</time>
      </trkpt>
      <trkpt lat="43.093830" lon="-6.006650">
        <ele>1203.621</ele>
        <time>2020-05-22T21:25:50Z</time>
      </trkpt>
      <trkpt lat="43.093810" lon="-6.006630">
        <ele>1203.608</ele>
        <time>2020-05-22T21:26:10Z</time>
      </trkpt>
      <trkpt lat="43.093800" lon="-6.006590">
        <ele>1202.370</ele>
        <time>2020-05-22T21:26:30Z</time>
      </trkpt>
      <trkpt lat="43.093790" lon="-6.006560">
        <ele>1201.535</ele>
        <time>2020-05-22T21:26:50Z</time>
      </trkpt>
      <trkpt lat="43.093780" lon="-6.006530">
        <ele>1200.772</ele>
        <time>2020-05-22T21:27:10Z</time>
      </trkpt>
      <trkpt lat="43.093780" lon="-6.006520">
        <ele>1200.328</ele>
        <time>2020-05-22T21:27:30Z</time>
      </trkpt>
      <trkpt lat="43.093770" lon="-6.006480">
        <ele>1199.147</ele>
        <time>2020-05-22T21:27:50Z</time>
      </trkpt>
      <trkpt lat="43.093760" lon="-6.006390">
        <ele>1196.018</ele>
        <time>2020-05-22T21:28:10Z</time>
      </trkpt>
      <trkpt lat="43.093750" lon="-6.006290">
        <ele>1195.187</ele>
        <time>2020-05-22T21:28:30Z</time>
      </trkpt>
      <trkpt lat="43.093710" lon="-6.005800">
        <ele>1190.190</ele>
        <time>2020-05-22T21:28:50Z</time>
      </trkpt>
      <trkpt lat="43.093690" lon="-6.005570">
        <ele>1193.169</ele>
        <time>2020-05-22T21:29:10Z</time>
      </trkpt>
      <trkpt lat="43.093690" lon="-6.005550">
        <ele>1193.004</ele>
        <time>2020-05-22T21:29:30Z</time>
      </trkpt>
      <trkpt lat="43.093680" lon="-6.005340">
        <ele>1186.124</ele>
        <time>2020-05-22T21:29:50Z</time>
      </trkpt>
      <trkpt lat="43.093680" lon="-6.005310">
        <ele>1185.008</ele>
        <time>2020-05-22T21:30:10Z</time>
      </trkpt>
      <trkpt lat="43.093670" lon="-6.005150">
        <ele>1178.570</ele>
        <time>2020-05-22T21:30:30Z</time>
      </trkpt>
      <trkpt lat="43.093670" lon="-6.005060">
        <ele>1174.215</ele>
        <time>2020-05-22T21:30:50Z</time>
      </trkpt>
      <trkpt lat="43.093660" lon="-6.004640">
        <ele>1169.062</ele>
        <time>2020-05-22T21:31:10Z</time>
      </trkpt>
      <trkpt lat="43.093660" lon="-6.004570">
        <ele>1168.738</ele>
        <time>2020-05-22T21:31:30Z</time>
      </trkpt>
      <trkpt lat="43.093660" lon="-6.004560">
        <ele>1168.697</ele>
        <time>2020-05-22T21:31:50Z</time>
      </trkpt>
      <trkpt lat="43.093650" lon="-6.004490">
        <ele>1168.788</ele>
        <time>2020-05-22T21:32:10Z</time>
      </trkpt>
      <trkpt lat="43.093640" lon="-6.004400">
        <ele>1168.437</ele>
        <time>2020-05-22T21:32:30Z</time>
      </trkpt>
      <trkpt lat="43.093630" lon="-6.004330">
        <ele>1168.110</ele>
        <time>2020-05-22T21:32:50Z</time>
      </trkpt>
      <trkpt lat="43.093630" lon="-6.004320">
        <ele>1168.021</ele>
        <time>2020-05-22T21:33:10Z</time>
      </trkpt>
      <trkpt lat="43.093600" lon="-6.004210">
        <ele>1168.041</ele>
        <time>2020-05-22T21:33:30Z</time>
      </trkpt>
      <trkpt lat="43.093580" lon="-6.004090">
        <ele>1167.805</ele>
        <time>2020-05-22T21:33:50Z</time>
      </trkpt>
      <trkpt lat="43.093570" lon="-6.004070">
        <ele>1168.108</ele>
        <time>2020-05-22T21:34:10Z</time>
      </trkpt>
      <trkpt lat="43.093530" lon="-6.003890">
        <ele>1168.426</ele>
        <time>2020-05-22T21:34:30Z</time>
      </trkpt>
      <trkpt lat="43.093510" lon="-6.003770">
        <ele>1166.791</ele>
        <time>2020-05-22T21:34:50Z</time>
      </trkpt>
      <trkpt lat="43.093490" lon="-6.003650">
        <ele>1165.048</ele>
        <time>2020-05-22T21:35:10Z</time>
      </trkpt>
      <trkpt lat="43.093470" lon="-6.003510">
        <ele>1162.614</ele>
        <time>2020-05-22T21:35:30Z</time>
      </trkpt>
      <trkpt lat="43.093450" lon="-6.003370">
        <ele>1160.223</ele>
        <time>2020-05-22T21:35:50Z</time>
      </trkpt>
      <trkpt lat="43.093420" lon="-6.003100">
        <ele>1150.664</ele>
        <time>2020-05-22T21:36:10Z</time>
      </trkpt>
      <trkpt lat="43.093410" lon="-6.003020">
        <ele>1147.263</ele>
        <time>2020-05-22T21:36:30Z</time>
      </trkpt>
      <trkpt lat="43.093400" lon="-6.002980">
        <ele>1145.486</ele>
        <time>2020-05-22T21:36:50Z</time>
      </trkpt>
      <trkpt lat="43.093390" lon="-6.002950">
        <ele>1144.264</ele>
        <time>2020-05-22T21:37:10Z</time>
      </trkpt>
      <trkpt lat="43.093380" lon="-6.002930">
        <ele>1143.606</ele>
        <time>2020-05-22T21:37:30Z</time>
      </trkpt>
      <trkpt lat="43.093370" lon="-6.002910">
        <ele>1142.916</ele>
        <time>2020-05-22T21:37:50Z</time>
      </trkpt>
      <trkpt lat="43.093360" lon="-6.002900">
        <ele>1142.808</ele>
        <time>2020-05-22T21:38:10Z</time>
      </trkpt>
      <trkpt lat="43.093340" lon="-6.002890">
        <ele>1143.230</ele>
        <time>2020-05-22T21:38:30Z</time>
      </trkpt>
      <trkpt lat="43.093320" lon="-6.002880">
        <ele>1143.165</ele>
        <time>2020-05-22T21:38:50Z</time>
      </trkpt>
      <trkpt lat="43.093290" lon="-6.002870">
        <ele>1143.122</ele>
        <time>2020-05-22T21:39:10Z</time>
      </trkpt>
      <trkpt lat="43.093270" lon="-6.002860">
        <ele>1142.998</ele>
        <time>2020-05-22T21:39:30Z</time>
      </trkpt>
      <trkpt lat="43.093220" lon="-6.002860">
        <ele>1143.987</ele>
        <time>2020-05-22T21:39:50Z</time>
      </trkpt>
      <trkpt lat="43.093190" lon="-6.002860">
        <ele>1144.588</ele>
        <time>2020-05-22T21:40:10Z</time>
      </trkpt>
      <trkpt lat="43.093010" lon="-6.002850">
        <ele>1146.147</ele>
        <time>2020-05-22T21:40:30Z</time>
      </trkpt>
      <trkpt lat="43.092800" lon="-6.002850">
        <ele>1144.550</ele>
        <time>2020-05-22T21:40:50Z</time>
      </trkpt>
      <trkpt lat="43.092650" lon="-6.002850">
        <ele>1144.745</ele>
        <time>2020-05-22T21:41:10Z</time>
      </trkpt>
      <trkpt lat="43.092630" lon="-6.002850">
        <ele>1144.847</ele>
        <time>2020-05-22T21:41:30Z</time>
      </trkpt>
      <trkpt lat="43.092470" lon="-6.002840">
        <ele>1144.911</ele>
        <time>2020-05-22T21:41:50Z</time>
      </trkpt>
      <trkpt lat="43.092400" lon="-6.002840">
        <ele>1145.408</ele>
        <time>2020-05-22T21:42:10Z</time>
      </trkpt>
      <trkpt lat="43.092290" lon="-6.002850">
        <ele>1146.648</ele>
        <time>2020-05-22T21:42:30Z</time>
      </trkpt>
      <trkpt lat="43.092230" lon="-6.002850">
        <ele>1147.063</ele>
        <time>2020-05-22T21:42:50Z</time>
      </trkpt>
      <trkpt lat="43.092170" lon="-6.002860">
        <ele>1148.090</ele>
        <time>2020-05-22T21:43:10Z</time>
      </trkpt>
      <trkpt lat="43.092110" lon="-6.002880">
        <ele>1149.136</ele>
        <time>2020-05-22T21:43:30Z</time>
      </trkpt>
      <trkpt lat="43.091990" lon="-6.002930">
        <ele>1151.485</ele>
        <time>2020-05-22T21:43:50Z</time>
      </trkpt>
      <trkpt lat="43.091940" lon="-6.002950">
        <ele>1152.296</ele>
        <time>2020-05-22T21:44:10Z</time>
      </trkpt>
      <trkpt lat="43.091900" lon="-6.002960">
        <ele>1153.685</ele>
        <time>2020-05-22T21:44:30Z</time>
      </trkpt>
      <trkpt lat="43.091880" lon="-6.002960">
        <ele>1154.138</ele>
        <time>2020-05-22T21:44:50Z</time>
      </trkpt>
      <trkpt lat="43.091870" lon="-6.002960">
        <ele>1154.423</ele>
        <time>2020-05-22T21:45:10Z</time>
      </trkpt>
      <trkpt lat="43.091850" lon="-6.002960">
        <ele>1155.083</ele>
        <time>2020-05-22T21:45:30Z</time>
      </trkpt>
      <trkpt lat="43.091840" lon="-6.002960">
        <ele>1155.311</ele>
        <time>2020-05-22T21:45:50Z</time>
      </trkpt>
      <trkpt lat="43.091830" lon="-6.002950">
        <ele>1155.508</ele>
        <time>2020-05-22T21:46:10Z</time>
      </trkpt>
      <trkpt lat="43.091830" lon="-6.002930">
        <ele>1155.246</ele>
        <time>2020-05-22T21:46:30Z</time>
      </trkpt>
      <trkpt lat="43.091830" lon="-6.002920">
        <ele>1155.011</ele>
        <time>2020-05-22T21:46:50Z</time>
      </trkpt>
      <trkpt lat="43.091820" lon="-6.002900">
        <ele>1155.198</ele>
        <time>2020-05-22T21:47:10Z</time>
      </trkpt>
      <trkpt lat="43.091830" lon="-6.002870">
        <ele>1154.444</ele>
        <time>2020-05-22T21:47:30Z</time>
      </trkpt>
      <trkpt lat="43.091830" lon="-6.002850">
        <ele>1154.183</ele>
        <time>2020-05-22T21:47:50Z</time>
      </trkpt>
      <trkpt lat="43.091850" lon="-6.002790">
        <ele>1152.644</ele>
        <time>2020-05-22T21:48:10Z</time>
      </trkpt>
      <trkpt lat="43.091880" lon="-6.002650">
        <ele>1150.783</ele>
        <time>2020-05-22T21:48:30Z</time>
      </trkpt>
      <trkpt lat="43.091890" lon="-6.002620">
        <ele>1150.216</ele>
        <time>2020-05-22T21:48:50Z</time>
      </trkpt>
      <trkpt lat="43.091930" lon="-6.002460">
        <ele>1147.888</ele>
        <time>2020-05-22T21:49:10Z</time>
      </trkpt>
      <trkpt lat="43.091950" lon="-6.002390">
        <ele>1147.224</ele>
        <time>2020-05-22T21:49:30Z</time>
      </trkpt>
      <trkpt lat="43.091970" lon="-6.002340">
        <ele>1146.426</ele>
        <time>2020-05-22T21:49:50Z</time>
      </trkpt>
      <trkpt lat="43.092000" lon="-6.002280">
        <ele>1144.908</ele>
        <time>2020-05-22T21:50:10Z</time>
      </trkpt>
      <trkpt lat="43.092030" lon="-6.002210">
        <ele>1143.242</ele>
        <time>2020-05-22T21:50:30Z</time>
      </trkpt>
      <trkpt lat="43.092050" lon="-6.002180">
        <ele>1142.477</ele>
        <time>2020-05-22T21:50:50Z</time>
      </trkpt>
      <trkpt lat="43.092090" lon="-6.002130">
        <ele>1140.634</ele>
        <time>2020-05-22T21:51:10Z</time>
      </trkpt>
      <trkpt lat="43.092180" lon="-6.002010">
        <ele>1136.740</ele>
        <time>2020-05-22T21:51:30Z</time>
      </trkpt>
      <trkpt lat="43.092210" lon="-6.001980">
        <ele>1135.359</ele>
        <time>2020-05-22T21:51:50Z</time>
      </trkpt>
      <trkpt lat="43.092300" lon="-6.001850">
        <ele>1134.320</ele>
        <time>2020-05-22T21:52:10Z</time>
      </trkpt>
      <trkpt lat="43.092310" lon="-6.001840">
        <ele>1134.229</ele>
        <time>2020-05-22T21:52:30Z</time>
      </trkpt>
      <trkpt lat="43.092370" lon="-6.001740">
        <ele>1134.322</ele>
        <time>2020-05-22T21:52:50Z</time>
      </trkpt>
      <trkpt lat="43.092420" lon="-6.001650">
        <ele>1134.681</ele>
        <time>2020-05-22T21:53:10Z</time>
      </trkpt>
      <trkpt lat="43.092470" lon="-6.001560">
        <ele>1135.061</ele>
        <time>2020-05-22T21:53:30Z</time>
      </trkpt>
      <trkpt lat="43.092530" lon="-6.001450">
        <ele>1135.117</ele>
        <time>2020-05-22T21:53:50Z</time>
      </trkpt>
      <trkpt lat="43.092590" lon="-6.001330">
        <ele>1134.408</ele>
        <time>2020-05-22T21:54:10Z</time>
      </trkpt>
      <trkpt lat="43.092670" lon="-6.001170">
        <ele>1133.412</ele>
        <time>2020-05-22T21:54:30Z</time>
      </trkpt>
      <trkpt lat="43.092750" lon="-6.000990">
        <ele>1132.827</ele>
        <time>2020-05-22T21:54:50Z</time>
      </trkpt>
      <trkpt lat="43.092820" lon="-6.000830">
        <ele>1132.514</ele>
        <time>2020-05-22T21:55:10Z</time>
      </trkpt>
      <trkpt lat="43.092850" lon="-6.000770">
        <ele>1132.130</ele>
        <time>2020-05-22T21:55:30Z</time>
      </trkpt>
      <trkpt lat="43.092990" lon="-6.000420">
        <ele>1131.979</ele>
        <time>2020-05-22T21:55:50Z</time>
      </trkpt>
      <trkpt lat="43.093000" lon="-6.000400">
        <ele>1131.950</ele>
        <time>2020-05-22T21:56:10Z</time>
      </trkpt>
      <trkpt lat="43.093080" lon="-6.000230">
        <ele>1130.589</ele>
        <time>2020-05-22T21:56:30Z</time>
      </trkpt>
      <trkpt lat="43.093090" lon="-6.000190">
        <ele>1130.212</ele>
        <time>2020-05-22T21:56:50Z</time>
      </trkpt>
      <trkpt lat="43.093200" lon="-5.999990">
        <ele>1105.928</ele>
        <time>2020-05-22T21:57:10Z</time>
      </trkpt>
      <trkpt lat="43.093200" lon="-5.999980">
        <ele>1106.289</ele>
        <time>2020-05-22T21:57:30Z</time>
      </trkpt>
      <trkpt lat="43.093340" lon="-5.999700">
        <ele>1104.117</ele>
        <time>2020-05-22T21:57:50Z</time>
      </trkpt>
      <trkpt lat="43.093400" lon="-5.999580">
        <ele>1103.108</ele>
        <time>2020-05-22T21:58:10Z</time>
      </trkpt>
      <trkpt lat="43.093460" lon="-5.999460">
        <ele>1102.096</ele>
        <time>2020-05-22T21:58:30Z</time>
      </trkpt>
      <trkpt lat="43.093500" lon="-5.999380">
        <ele>1101.181</ele>
        <time>2020-05-22T21:58:50Z</time>
      </trkpt>
      <trkpt lat="43.093590" lon="-5.999160">
        <ele>1100.598</ele>
        <time>2020-05-22T21:59:10Z</time>
      </trkpt>
      <trkpt lat="43.093650" lon="-5.999020">
        <ele>1098.624</ele>
        <time>2020-05-22T21:59:30Z</time>
      </trkpt>
      <trkpt lat="43.093680" lon="-5.998950">
        <ele>1097.883</ele>
        <time>2020-05-22T21:59:50Z</time>
      </trkpt>
      <trkpt lat="43.093740" lon="-5.998790">
        <ele>1096.214</ele>
        <time>2020-05-22T22:00:10Z</time>
      </trkpt>
      <trkpt lat="43.093790" lon="-5.998650">
        <ele>1094.933</ele>
        <time>2020-05-22T22:00:30Z</time>
      </trkpt>
      <trkpt lat="43.093810" lon="-5.998610">
        <ele>1094.216</ele>
        <time>2020-05-22T22:00:50Z</time>
      </trkpt>
      <trkpt lat="43.093810" lon="-5.998570">
        <ele>1093.878</ele>
        <time>2020-05-22T22:01:10Z</time>
      </trkpt>
      <trkpt lat="43.093810" lon="-5.998530">
        <ele>1093.333</ele>
        <time>2020-05-22T22:01:30Z</time>
      </trkpt>
      <trkpt lat="43.093800" lon="-5.998500">
        <ele>1093.526</ele>
        <time>2020-05-22T22:01:50Z</time>
      </trkpt>
      <trkpt lat="43.093790" lon="-5.998460">
        <ele>1093.608</ele>
        <time>2020-05-22T22:02:10Z</time>
      </trkpt>
      <trkpt lat="43.093710" lon="-5.998290">
        <ele>1096.331</ele>
        <time>2020-05-22T22:02:30Z</time>
      </trkpt>
      <trkpt lat="43.093700" lon="-5.998260">
        <ele>1096.426</ele>
        <time>2020-05-22T22:02:50Z</time>
      </trkpt>
      <trkpt lat="43.093680" lon="-5.998210">
        <ele>1096.843</ele>
        <time>2020-05-22T22:03:10Z</time>
      </trkpt>
      <trkpt lat="43.093670" lon="-5.998180">
        <ele>1096.959</ele>
        <time>2020-05-22T22:03:30Z</time>
      </trkpt>
      <trkpt lat="43.093670" lon="-5.998150">
        <ele>1096.498</ele>
        <time>2020-05-22T22:03:50Z</time>
      </trkpt>
      <trkpt lat="43.093670" lon="-5.998130">
        <ele>1096.049</ele>
        <time>2020-05-22T22:04:10Z</time>
      </trkpt>
      <trkpt lat="43.093670" lon="-5.998100">
        <ele>1095.678</ele>
        <time>2020-05-22T22:04:30Z</time>
      </trkpt>
      <trkpt lat="43.093670" lon="-5.998070">
        <ele>1095.111</ele>
        <time>2020-05-22T22:04:50Z</time>
      </trkpt>
      <trkpt lat="43.093680" lon="-5.998060">
        <ele>1094.445</ele>
        <time>2020-05-22T22:05:10Z</time>
      </trkpt>
      <trkpt lat="43.093680" lon="-5.998040">
        <ele>1094.747</ele>
        <time>2020-05-22T22:05:30Z</time>
      </trkpt>
      <trkpt lat="43.093700" lon="-5.998020">
        <ele>1094.111</ele>
        <time>2020-05-22T22:05:50Z</time>
      </trkpt>
      <trkpt lat="43.093720" lon="-5.998000">
        <ele>1093.608</ele>
        <time>2020-05-22T22:06:10Z</time>
      </trkpt>
      <trkpt lat="43.093750" lon="-5.997970">
        <ele>1093.078</ele>
        <time>2020-05-22T22:06:30Z</time>
      </trkpt>
      <trkpt lat="43.093800" lon="-5.997930">
        <ele>1091.753</ele>
        <time>2020-05-22T22:06:50Z</time>
      </trkpt>
      <trkpt lat="43.093820" lon="-5.997910">
        <ele>1091.450</ele>
        <time>2020-05-22T22:07:10Z</time>
      </trkpt>
      <trkpt lat="43.093850" lon="-5.997900">
        <ele>1090.486</ele>
        <time>2020-05-22T22:07:30Z</time>
      </trkpt>
      <trkpt lat="43.093910" lon="-5.997860">
        <ele>1089.485</ele>
        <time>2020-05-22T22:07:50Z</time>
      </trkpt>
      <trkpt lat="43.093980" lon="-5.997810">
        <ele>1089.416</ele>
        <time>2020-05-22T22:08:10Z</time>
      </trkpt>
      <trkpt lat="43.094010" lon="-5.997790">
        <ele>1089.565</ele>
        <time>2020-05-22T22:08:30Z</time>
      </trkpt>
      <trkpt lat="43.094090" lon="-5.997750">
        <ele>1089.318</ele>
        <time>2020-05-22T22:08:50Z</time>
      </trkpt>
      <trkpt lat="43.094150" lon="-5.997730">
        <ele>1088.741</ele>
        <time>2020-05-22T22:09:10Z</time>
      </trkpt>
      <trkpt lat="43.094220" lon="-5.997710">
        <ele>1088.381</ele>
        <time>2020-05-22T22:09:30Z</time>
      </trkpt>
      <trkpt lat="43.094280" lon="-5.997680">
        <ele>1088.309</ele>
        <time>2020-05-22T22:09:50Z</time>
      </trkpt>
      <trkpt lat="43.094320" lon="-5.997650">
        <ele>1088.508</ele>
        <time>2020-05-22T22:10:10Z</time>
      </trkpt>
      <trkpt lat="43.094340" lon="-5.997640">
        <ele>1088.438</ele>
        <time>2020-05-22T22:10:30Z</time>
      </trkpt>
      <trkpt lat="43.094380" lon="-5.997610">
        <ele>1088.383</ele>
        <time>2020-05-22T22:10:50Z</time>
      </trkpt>
      <trkpt lat="43.094430" lon="-5.997570">
        <ele>1087.920</ele>
        <time>2020-05-22T22:11:10Z</time>
      </trkpt>
      <trkpt lat="43.094470" lon="-5.997510">
        <ele>1087.926</ele>
        <time>2020-05-22T22:11:30Z</time>
      </trkpt>
      <trkpt lat="43.094510" lon="-5.997460">
        <ele>1087.865</ele>
        <time>2020-05-22T22:11:50Z</time>
      </trkpt>
      <trkpt lat="43.094530" lon="-5.997420">
        <ele>1088.136</ele>
        <time>2020-05-22T22:12:10Z</time>
      </trkpt>
      <trkpt lat="43.094580" lon="-5.997350">
        <ele>1087.755</ele>
        <time>2020-05-22T22:12:30Z</time>
      </trkpt>
      <trkpt lat="43.094590" lon="-5.997330">
        <ele>1087.728</ele>
        <time>2020-05-22T22:12:50Z</time>
      </trkpt>
      <trkpt lat="43.094610" lon="-5.997290">
        <ele>1087.642</ele>
        <time>2020-05-22T22:13:10Z</time>
      </trkpt>
      <trkpt lat="43.094630" lon="-5.997240">
        <ele>1087.622</ele>
        <time>2020-05-22T22:13:30Z</time>
      </trkpt>
      <trkpt lat="43.094660" lon="-5.997170">
        <ele>1086.714</ele>
        <time>2020-05-22T22:13:50Z</time>
      </trkpt>
      <trkpt lat="43.094670" lon="-5.997110">
        <ele>1086.508</ele>
        <time>2020-05-22T22:14:10Z</time>
      </trkpt>
      <trkpt lat="43.094690" lon="-5.997050">
        <ele>1085.618</ele>
        <time>2020-05-22T22:14:30Z</time>
      </trkpt>
      <trkpt lat="43.094730" lon="-5.996880">
        <ele>1083.913</ele>
        <time>2020-05-22T22:14:50Z</time>
      </trkpt>
      <trkpt lat="43.094760" lon="-5.996730">
        <ele>1082.730</ele>
        <time>2020-05-22T22:15:10Z</time>
      </trkpt>
      <trkpt lat="43.094780" lon="-5.996630">
        <ele>1082.326</ele>
        <time>2020-05-22T22:15:30Z</time>
      </trkpt>
      <trkpt lat="43.094820" lon="-5.996500">
        <ele>1081.945</ele>
        <time>2020-05-22T22:15:50Z</time>
      </trkpt>
      <trkpt lat="43.094840" lon="-5.996410">
        <ele>1082.446</ele>
        <time>2020-05-22T22:16:10Z</time>
      </trkpt>
      <trkpt lat="43.094860" lon="-5.996370">
        <ele>1081.985</ele>
        <time>2020-05-22T22:16:30Z</time>
      </trkpt>
      <trkpt lat="43.094920" lon="-5.996210">
        <ele>1081.198</ele>
        <time>2020-05-22T22:16:50Z</time>
      </trkpt>
      <trkpt lat="43.094920" lon="-5.996190">
        <ele>1081.552</ele>
        <time>2020-05-22T22:17:10Z</time>
      </trkpt>
      <trkpt lat="43.095100" lon="-5.995770">
        <ele>1077.853</ele>
        <time>2020-05-22T22:17:30Z</time>
      </trkpt>
      <trkpt lat="43.095190" lon="-5.995550">
        <ele>1074.808</ele>
        <time>2020-05-22T22:17:50Z</time>
      </trkpt>
      <trkpt lat="43.095220" lon="-5.995470">
        <ele>1074.608</ele>
        <time>2020-05-22T22:18:10Z</time>
      </trkpt>
      <trkpt lat="43.095280" lon="-5.995370">
        <ele>1072.919</ele>
        <time>2020-05-22T22:18:30Z</time>
      </trkpt>
      <trkpt lat="43.095290" lon="-5.995350">
        <ele>1072.874</ele>
        <time>2020-05-22T22:18:50Z</time>
      </trkpt>
      <trkpt lat="43.095480" lon="-5.995110">
        <ele>1072.221</ele>
        <time>2020-05-22T22:19:10Z</time>
      </trkpt>
      <trkpt lat="43.095570" lon="-5.995050">
        <ele>1071.077</ele>
        <time>2020-05-22T22:19:30Z</time>
      </trkpt>
      <trkpt lat="43.095630" lon="-5.995000">
        <ele>1070.596</ele>
        <time>2020-05-22T22:19:50Z</time>
      </trkpt>
      <trkpt lat="43.095690" lon="-5.994940">
        <ele>1069.737</ele>
        <time>2020-05-22T22:20:10Z</time>
      </trkpt>
      <trkpt lat="43.095720" lon="-5.994910">
        <ele>1069.196</ele>
        <time>2020-05-22T22:20:30Z</time>
      </trkpt>
      <trkpt lat="43.095740" lon="-5.994880">
        <ele>1069.089</ele>
        <time>2020-05-22T22:20:50Z</time>
      </trkpt>
      <trkpt lat="43.095810" lon="-5.994740">
        <ele>1069.031</ele>
        <time>2020-05-22T22:21:10Z</time>
      </trkpt>
      <trkpt lat="43.095820" lon="-5.994700">
        <ele>1069.161</ele>
        <time>2020-05-22T22:21:30Z</time>
      </trkpt>
      <trkpt lat="43.095850" lon="-5.994630">
        <ele>1068.007</ele>
        <time>2020-05-22T22:21:50Z</time>
      </trkpt>
      <trkpt lat="43.095870" lon="-5.994570">
        <ele>1067.408</ele>
        <time>2020-05-22T22:22:10Z</time>
      </trkpt>
      <trkpt lat="43.095880" lon="-5.994470">
        <ele>1067.927</ele>
        <time>2020-05-22T22:22:30Z</time>
      </trkpt>
      <trkpt lat="43.095930" lon="-5.994190">
        <ele>1065.752</ele>
        <time>2020-05-22T22:22:50Z</time>
      </trkpt>
      <trkpt lat="43.095940" lon="-5.994140">
        <ele>1065.329</ele>
        <time>2020-05-22T22:23:10Z</time>
      </trkpt>
      <trkpt lat="43.095950" lon="-5.993990">
        <ele>1065.065</ele>
        <time>2020-05-22T22:23:30Z</time>
      </trkpt>
      <trkpt lat="43.095970" lon="-5.993750">
        <ele>1064.424</ele>
        <time>2020-05-22T22:23:50Z</time>
      </trkpt>
      <trkpt lat="43.095990" lon="-5.993500">
        <ele>1063.195</ele>
        <time>2020-05-22T22:24:10Z</time>
      </trkpt>
      <trkpt lat="43.096000" lon="-5.993490">
        <ele>1062.384</ele>
        <time>2020-05-22T22:24:30Z</time>
      </trkpt>
      <trkpt lat="43.096000" lon="-5.993340">
        <ele>1062.047</ele>
        <time>2020-05-22T22:24:50Z</time>
      </trkpt>
      <trkpt lat="43.096000" lon="-5.993260">
        <ele>1061.556</ele>
        <time>2020-05-22T22:25:10Z</time>
      </trkpt>
      <trkpt lat="43.095990" lon="-5.993070">
        <ele>1060.959</ele>
        <time>2020-05-22T22:25:30Z</time>
      </trkpt>
      <trkpt lat="43.095980" lon="-5.993010">
        <ele>1061.014</ele>
        <time>2020-05-22T22:25:50Z</time>
      </trkpt>
      <trkpt lat="43.095970" lon="-5.992760">
        <ele>1059.008</ele>
        <time>2020-05-22T22:26:10Z</time>
      </trkpt>
      <trkpt lat="43.095960" lon="-5.992650">
        <ele>1058.629</ele>
        <time>2020-05-22T22:26:30Z</time>
      </trkpt>
      <trkpt lat="43.095950" lon="-5.992570">
        <ele>1058.494</ele>
        <time>2020-05-22T22:26:50Z</time>
      </trkpt>
      <trkpt lat="43.095940" lon="-5.992520">
        <ele>1058.461</ele>
        <time>2020-05-22T22:27:10Z</time>
      </trkpt>
      <trkpt lat="43.095870" lon="-5.992270">
        <ele>1058.077</ele>
        <time>2020-05-22T22:27:30Z</time>
      </trkpt>
      <trkpt lat="43.095800" lon="-5.992070">
        <ele>1055.946</ele>
        <time>2020-05-22T22:27:50Z</time>
      </trkpt>
      <trkpt lat="43.095760" lon="-5.991970">
        <ele>1054.217</ele>
        <time>2020-05-22T22:28:10Z</time>
      </trkpt>
      <trkpt lat="43.095700" lon="-5.991870">
        <ele>1053.846</ele>
        <time>2020-05-22T22:28:30Z</time>
      </trkpt>
      <trkpt lat="43.095680" lon="-5.991820">
        <ele>1053.569</ele>
        <time>2020-05-22T22:28:50Z</time>
      </trkpt>
      <trkpt lat="43.095660" lon="-5.991770">
        <ele>1053.233</ele>
        <time>2020-05-22T22:29:10Z</time>
      </trkpt>
      <trkpt lat="43.095620" lon="-5.991640">
        <ele>1052.423</ele>
        <time>2020-05-22T22:29:30Z</time>
      </trkpt>
      <trkpt lat="43.095610" lon="-5.991610">
        <ele>1052.415</ele>
        <time>2020-05-22T22:29:50Z</time>
      </trkpt>
      <trkpt lat="43.095600" lon="-5.991550">
        <ele>1052.108</ele>
        <time>2020-05-22T22:30:10Z</time>
      </trkpt>
      <trkpt lat="43.095590" lon="-5.991460">
        <ele>1051.557</ele>
        <time>2020-05-22T22:30:30Z</time>
      </trkpt>
      <trkpt lat="43.095590" lon="-5.991410">
        <ele>1051.032</ele>
        <time>2020-05-22T22:30:50Z</time>
      </trkpt>
      <trkpt lat="43.095590" lon="-5.991330">
        <ele>1050.959</ele>
        <time>2020-05-22T22:31:10Z</time>
      </trkpt>
      <trkpt lat="43.095590" lon="-5.991290">
        <ele>1051.165</ele>
        <time>2020-05-22T22:31:30Z</time>
      </trkpt>
      <trkpt lat="43.095590" lon="-5.991250">
        <ele>1051.234</ele>
        <time>2020-05-22T22:31:50Z</time>
      </trkpt>
      <trkpt lat="43.095600" lon="-5.991210">
        <ele>1050.985</ele>
        <time>2020-05-22T22:32:10Z</time>
      </trkpt>
      <trkpt lat="43.095610" lon="-5.991160">
        <ele>1050.774</ele>
        <time>2020-05-22T22:32:30Z</time>
      </trkpt>
      <trkpt lat="43.095700" lon="-5.990950">
        <ele>1048.717</ele>
        <time>2020-05-22T22:32:50Z</time>
      </trkpt>
      <trkpt lat="43.095740" lon="-5.990870">
        <ele>1048.051</ele>
        <time>2020-05-22T22:33:10Z</time>
      </trkpt>
      <trkpt lat="43.095760" lon="-5.990830">
        <ele>1047.701</ele>
        <time>2020-05-22T22:33:30Z</time>
      </trkpt>
      <trkpt lat="43.095810" lon="-5.990760">
        <ele>1046.111</ele>
        <time>2020-05-22T22:33:50Z</time>
      </trkpt>
      <trkpt lat="43.095830" lon="-5.990730">
        <ele>1045.508</ele>
        <time>2020-05-22T22:34:10Z</time>
      </trkpt>
      <trkpt lat="43.095850" lon="-5.990690">
        <ele>1044.869</ele>
        <time>2020-05-22T22:34:30Z</time>
      </trkpt>
      <trkpt lat="43.095870" lon="-5.990640">
        <ele>1044.184</ele>
        <time>2020-05-22T22:34:50Z</time>
      </trkpt>
      <trkpt lat="43.095870" lon="-5.990590">
        <ele>1044.111</ele>
        <time>2020-05-22T22:35:10Z</time>
      </trkpt>
      <trkpt lat="43.095860" lon="-5.990530">
        <ele>1044.497</ele>
        <time>2020-05-22T22:35:30Z</time>
      </trkpt>
      <trkpt lat="43.095860" lon="-5.990500">
        <ele>1044.066</ele>
        <time>2020-05-22T22:35:50Z</time>
      </trkpt>
      <trkpt lat="43.095840" lon="-5.990420">
        <ele>1044.227</ele>
        <time>2020-05-22T22:36:10Z</time>
      </trkpt>
      <trkpt lat="43.095820" lon="-5.990350">
        <ele>1044.446</ele>
        <time>2020-05-22T22:36:30Z</time>
      </trkpt>
      <trkpt lat="43.095810" lon="-5.990300">
        <ele>1044.339</ele>
        <time>2020-05-22T22:36:50Z</time>
      </trkpt>
      <trkpt lat="43.095790" lon="-5.990270">
        <ele>1044.835</ele>
        <time>2020-05-22T22:37:10Z</time>
      </trkpt>
      <trkpt lat="43.095710" lon="-5.990100">
        <ele>1044.086</ele>
        <time>2020-05-22T22:37:30Z</time>
      </trkpt>
      <trkpt lat="43.095650" lon="-5.989980">
        <ele>1043.214</ele>
        <time>2020-05-22T22:37:50Z</time>
      </trkpt>
      <trkpt lat="43.095600" lon="-5.989900">
        <ele>1042.808</ele>
        <time>2020-05-22T22:38:10Z</time>
      </trkpt>
      <trkpt lat="43.095320" lon="-5.989480">
        <ele>1039.667</ele>
        <time>2020-05-22T22:38:30Z</time>
      </trkpt>
      <trkpt lat="43.095230" lon="-5.989360">
        <ele>1038.632</ele>
        <time>2020-05-22T22:38:50Z</time>
      </trkpt>
      <trkpt lat="43.095200" lon="-5.989320">
        <ele>1038.249</ele>
        <time>2020-05-22T22:39:10Z</time>
      </trkpt>
      <trkpt lat="43.095110" lon="-5.989200">
        <ele>1036.925</ele>
        <time>2020-05-22T22:39:30Z</time>
      </trkpt>
      <trkpt lat="43.095010" lon="-5.989070">
        <ele>1037.054</ele>
        <time>2020-05-22T22:39:50Z</time>
      </trkpt>
      <trkpt lat="43.094980" lon="-5.989020">
        <ele>1036.955</ele>
        <time>2020-05-22T22:40:10Z</time>
      </trkpt>
      <trkpt lat="43.094950" lon="-5.988980">
        <ele>1037.194</ele>
        <time>2020-05-22T22:40:30Z</time>
      </trkpt>
      <trkpt lat="43.094890" lon="-5.988870">
        <ele>1037.097</ele>
        <time>2020-05-22T22:40:50Z</time>
      </trkpt>
      <trkpt lat="43.094860" lon="-5.988820">
        <ele>1037.272</ele>
        <time>2020-05-22T22:41:10Z</time>
      </trkpt>
      <trkpt lat="43.094830" lon="-5.988750">
        <ele>1037.013</ele>
        <time>2020-05-22T22:41:30Z</time>
      </trkpt>
      <trkpt lat="43.094790" lon="-5.988640">
        <ele>1036.214</ele>
        <time>2020-05-22T22:41:50Z</time>
      </trkpt>
      <trkpt lat="43.094780" lon="-5.988610">
        <ele>1035.908</ele>
        <time>2020-05-22T22:42:10Z</time>
      </trkpt>
      <trkpt lat="43.094740" lon="-5.988510">
        <ele>1034.431</ele>
        <time>2020-05-22T22:42:30Z</time>
      </trkpt>
      <trkpt lat="43.094710" lon="-5.988380">
        <ele>1032.626</ele>
        <time>2020-05-22T22:42:50Z</time>
      </trkpt>
      <trkpt lat="43.094680" lon="-5.988290">
        <ele>1032.353</ele>
        <time>2020-05-22T22:43:10Z</time>
      </trkpt>
      <trkpt lat="43.094640" lon="-5.988150">
        <ele>1031.619</ele>
        <time>2020-05-22T22:43:30Z</time>
      </trkpt>
      <trkpt lat="43.094580" lon="-5.987920">
        <ele>1030.748</ele>
        <time>2020-05-22T22:43:50Z</time>
      </trkpt>
      <trkpt lat="43.094550" lon="-5.987810">
        <ele>1030.399</ele>
        <time>2020-05-22T22:44:10Z</time>
      </trkpt>
      <trkpt lat="43.094510" lon="-5.987690">
        <ele>1029.488</ele>
        <time>2020-05-22T22:44:30Z</time>
      </trkpt>
      <trkpt lat="43.094500" lon="-5.987650">
        <ele>1028.941</ele>
        <time>2020-05-22T22:44:50Z</time>
      </trkpt>
      <trkpt lat="43.094450" lon="-5.987530">
        <ele>1028.499</ele>
        <time>2020-05-22T22:45:10Z</time>
      </trkpt>
      <trkpt lat="43.094410" lon="-5.987470">
        <ele>1028.607</ele>
        <time>2020-05-22T22:45:30Z</time>
      </trkpt>
      <trkpt lat="43.094390" lon="-5.987430">
        <ele>1028.327</ele>
        <time>2020-05-22T22:45:50Z</time>
      </trkpt>
      <trkpt lat="43.094350" lon="-5.987390">
        <ele>1028.708</ele>
        <time>2020-05-22T22:46:10Z</time>
      </trkpt>
      <trkpt lat="43.094290" lon="-5.987340">
        <ele>1029.493</ele>
        <time>2020-05-22T22:46:30Z</time>
      </trkpt>
      <trkpt lat="43.094270" lon="-5.987310">
        <ele>1029.368</ele>
        <time>2020-05-22T22:46:50Z</time>
      </trkpt>
      <trkpt lat="43.094250" lon="-5.987280">
        <ele>1029.015</ele>
        <time>2020-05-22T22:47:10Z</time>
      </trkpt>
      <trkpt lat="43.094170" lon="-5.987130">
        <ele>1027.671</ele>
        <time>2020-05-22T22:47:30Z</time>
      </trkpt>
      <trkpt lat="43.094150" lon="-5.987080">
        <ele>1027.090</ele>
        <time>2020-05-22T22:47:50Z</time>
      </trkpt>
      <trkpt lat="43.094090" lon="-5.986990">
        <ele>1026.771</ele>
        <time>2020-05-22T22:48:10Z</time>
      </trkpt>
      <trkpt lat="43.094060" lon="-5.986940">
        <ele>1026.360</ele>
        <time>2020-05-22T22:48:30Z</time>
      </trkpt>
      <trkpt lat="43.094020" lon="-5.986880">
        <ele>1025.783</ele>
        <time>2020-05-22T22:48:50Z</time>
      </trkpt>
      <trkpt lat="43.093930" lon="-5.986770">
        <ele>1025.012</ele>
        <time>2020-05-22T22:49:10Z</time>
      </trkpt>
      <trkpt lat="43.093800" lon="-5.986600">
        <ele>1023.232</ele>
        <time>2020-05-22T22:49:30Z</time>
      </trkpt>
      <trkpt lat="43.093780" lon="-5.986560">
        <ele>1022.305</ele>
        <time>2020-05-22T22:49:50Z</time>
      </trkpt>
      <trkpt lat="43.093690" lon="-5.986460">
        <ele>1021.308</ele>
        <time>2020-05-22T22:50:10Z</time>
      </trkpt>
      <trkpt lat="43.093670" lon="-5.986430">
        <ele>1020.825</ele>
        <time>2020-05-22T22:50:30Z</time>
      </trkpt>
      <trkpt lat="43.093610" lon="-5.986360">
        <ele>1020.120</ele>
        <time>2020-05-22T22:50:50Z</time>
      </trkpt>
      <trkpt lat="43.093560" lon="-5.986310">
        <ele>1018.687</ele>
        <time>2020-05-22T22:51:10Z</time>
      </trkpt>
      <trkpt lat="43.093540" lon="-5.986290">
        <ele>1018.143</ele>
        <time>2020-05-22T22:51:30Z</time>
      </trkpt>
      <trkpt lat="43.093530" lon="-5.986280">
        <ele>1017.972</ele>
        <time>2020-05-22T22:51:50Z</time>
      </trkpt>
      <trkpt lat="43.093510" lon="-5.986270">
        <ele>1017.783</ele>
        <time>2020-05-22T22:52:10Z</time>
      </trkpt>
      <trkpt lat="43.093480" lon="-5.986260">
        <ele>1017.712</ele>
        <time>2020-05-22T22:52:30Z</time>
      </trkpt>
      <trkpt lat="43.093460" lon="-5.986250">
        <ele>1017.675</ele>
        <time>2020-05-22T22:52:50Z</time>
      </trkpt>
      <trkpt lat="43.093440" lon="-5.986250">
        <ele>1017.723</ele>
        <time>2020-05-22T22:53:10Z</time>
      </trkpt>
      <trkpt lat="43.093410" lon="-5.986250">
        <ele>1017.983</ele>
        <time>2020-05-22T22:53:30Z</time>
      </trkpt>
      <trkpt lat="43.093390" lon="-5.986260">
        <ele>1018.211</ele>
        <time>2020-05-22T22:53:50Z</time>
      </trkpt>
      <trkpt lat="43.093370" lon="-5.986270">
        <ele>1018.508</ele>
        <time>2020-05-22T22:54:10Z</time>
      </trkpt>
      <trkpt lat="43.093350" lon="-5.986280">
        <ele>1018.756</ele>
        <time>2020-05-22T22:54:30Z</time>
      </trkpt>
      <trkpt lat="43.093340" lon="-5.986280">
        <ele>1018.831</ele>
        <time>2020-05-22T22:54:50Z</time>
      </trkpt>
      <trkpt lat="43.093300" lon="-5.986310">
        <ele>1017.788</ele>
        <time>2020-05-22T22:55:10Z</time>
      </trkpt>
      <trkpt lat="43.093270" lon="-5.986330">
        <ele>1016.734</ele>
        <time>2020-05-22T22:55:30Z</time>
      </trkpt>
      <trkpt lat="43.093250" lon="-5.986360">
        <ele>1016.133</ele>
        <time>2020-05-22T22:55:50Z</time>
      </trkpt>
      <trkpt lat="43.093230" lon="-5.986390">
        <ele>1015.684</ele>
        <time>2020-05-22T22:56:10Z</time>
      </trkpt>
      <trkpt lat="43.093210" lon="-5.986420">
        <ele>1015.263</ele>
        <time>2020-05-22T22:56:30Z</time>
      </trkpt>
      <trkpt lat="43.093210" lon="-5.986440">
        <ele>1015.526</ele>
        <time>2020-05-22T22:56:50Z</time>
      </trkpt>
      <trkpt lat="43.093170" lon="-5.986520">
        <ele>1014.947</ele>
        <time>2020-05-22T22:57:10Z</time>
      </trkpt>
      <trkpt lat="43.093140" lon="-5.986610">
        <ele>1014.829</ele>
        <time>2020-05-22T22:57:30Z</time>
      </trkpt>
      <trkpt lat="43.093130" lon="-5.986640">
        <ele>1014.721</ele>
        <time>2020-05-22T22:57:50Z</time>
      </trkpt>
      <trkpt lat="43.093030" lon="-5.987070">
        <ele>1014.508</ele>
        <time>2020-05-22T22:58:10Z</time>
      </trkpt>
      <trkpt lat="43.093020" lon="-5.987110">
        <ele>1014.748</ele>
        <time>2020-05-22T22:58:30Z</time>
      </trkpt>
      <trkpt lat="43.093000" lon="-5.987160">
        <ele>1014.633</ele>
        <time>2020-05-22T22:58:50Z</time>
      </trkpt>
      <trkpt lat="43.092970" lon="-5.987240">
        <ele>1015.210</ele>
        <time>2020-05-22T22:59:10Z</time>
      </trkpt>
      <trkpt lat="43.092950" lon="-5.987290">
        <ele>1015.936</ele>
        <time>2020-05-22T22:59:30Z</time>
      </trkpt>
      <trkpt lat="43.092920" lon="-5.987320">
        <ele>1015.675</ele>
        <time>2020-05-22T22:59:50Z</time>
      </trkpt>
      <trkpt lat="43.092900" lon="-5.987360">
        <ele>1016.096</ele>
        <time>2020-05-22T23:00:10Z</time>
      </trkpt>
      <trkpt lat="43.092840" lon="-5.987400">
        <ele>1014.795</ele>
        <time>2020-05-22T23:00:30Z</time>
      </trkpt>
      <trkpt lat="43.092760" lon="-5.987450">
        <ele>1012.918</ele>
        <time>2020-05-22T23:00:50Z</time>
      </trkpt>
      <trkpt lat="43.092730" lon="-5.987470">
        <ele>1012.315</ele>
        <time>2020-05-22T23:01:10Z</time>
      </trkpt>
      <trkpt lat="43.092700" lon="-5.987500">
        <ele>1011.965</ele>
        <time>2020-05-22T23:01:30Z</time>
      </trkpt>
      <trkpt lat="43.092680" lon="-5.987530">
        <ele>1011.811</ele>
        <time>2020-05-22T23:01:50Z</time>
      </trkpt>
      <trkpt lat="43.092650" lon="-5.987560">
        <ele>1011.208</ele>
        <time>2020-05-22T23:02:10Z</time>
      </trkpt>
      <trkpt lat="43.092630" lon="-5.987600">
        <ele>1011.175</ele>
        <time>2020-05-22T23:02:30Z</time>
      </trkpt>
      <trkpt lat="43.092590" lon="-5.987670">
        <ele>1010.620</ele>
        <time>2020-05-22T23:02:50Z</time>
      </trkpt>
      <trkpt lat="43.092520" lon="-5.987780">
        <ele>1009.077</ele>
        <time>2020-05-22T23:03:10Z</time>
      </trkpt>
      <trkpt lat="43.092480" lon="-5.987850">
        <ele>1008.313</ele>
        <time>2020-05-22T23:03:30Z</time>
      </trkpt>
      <trkpt lat="43.092410" lon="-5.987950">
        <ele>1008.092</ele>
        <time>2020-05-22T23:03:50Z</time>
      </trkpt>
      <trkpt lat="43.092400" lon="-5.987970">
        <ele>1008.123</ele>
        <time>2020-05-22T23:04:10Z</time>
      </trkpt>
      <trkpt lat="43.092340" lon="-5.988030">
        <ele>1007.732</ele>
        <time>2020-05-22T23:04:30Z</time>
      </trkpt>
      <trkpt lat="43.092310" lon="-5.988060">
        <ele>1007.755</ele>
        <time>2020-05-22T23:04:50Z</time>
      </trkpt>
      <trkpt lat="43.092280" lon="-5.988080">
        <ele>1007.688</ele>
        <time>2020-05-22T23:05:10Z</time>
      </trkpt>
      <trkpt lat="43.092250" lon="-5.988090">
        <ele>1007.224</ele>
        <time>2020-05-22T23:05:30Z</time>
      </trkpt>
      <trkpt lat="43.092220" lon="-5.988100">
        <ele>1006.826</ele>
        <time>2020-05-22T23:05:50Z</time>
      </trkpt>
      <trkpt lat="43.092180" lon="-5.988100">
        <ele>1006.808</ele>
        <time>2020-05-22T23:06:10Z</time>
      </trkpt>
      <trkpt lat="43.092130" lon="-5.988090">
        <ele>1006.692</ele>
        <time>2020-05-22T23:06:30Z</time>
      </trkpt>
      <trkpt lat="43.092060" lon="-5.988080">
        <ele>1006.467</ele>
        <time>2020-05-22T23:06:50Z</time>
      </trkpt>
      <trkpt lat="43.091980" lon="-5.988060">
        <ele>1006.124</ele>
        <time>2020-05-22T23:07:10Z</time>
      </trkpt>
      <trkpt lat="43.091890" lon="-5.988050">
        <ele>1005.150</ele>
        <time>2020-05-22T23:07:30Z</time>
      </trkpt>
      <trkpt lat="43.091850" lon="-5.988060">
        <ele>1004.759</ele>
        <time>2020-05-22T23:07:50Z</time>
      </trkpt>
      <trkpt lat="43.091800" lon="-5.988070">
        <ele>1004.120</ele>
        <time>2020-05-22T23:08:10Z</time>
      </trkpt>
      <trkpt lat="43.091770" lon="-5.988080">
        <ele>1003.859</ele>
        <time>2020-05-22T23:08:30Z</time>
      </trkpt>
      <trkpt lat="43.091730" lon="-5.988100">
        <ele>1003.442</ele>
        <time>2020-05-22T23:08:50Z</time>
      </trkpt>
      <trkpt lat="43.091720" lon="-5.988110">
        <ele>1003.425</ele>
        <time>2020-05-22T23:09:10Z</time>
      </trkpt>
      <trkpt lat="43.091700" lon="-5.988120">
        <ele>1003.226</ele>
        <time>2020-05-22T23:09:30Z</time>
      </trkpt>
      <trkpt lat="43.091680" lon="-5.988140">
        <ele>1003.108</ele>
        <time>2020-05-22T23:09:50Z</time>
      </trkpt>
      <trkpt lat="43.091660" lon="-5.988160">
        <ele>1002.908</ele>
        <time>2020-05-22T23:10:10Z</time>
      </trkpt>
      <trkpt lat="43.091610" lon="-5.988260">
        <ele>1002.736</ele>
        <time>2020-05-22T23:10:30Z</time>
      </trkpt>
      <trkpt lat="43.091550" lon="-5.988360">
        <ele>1002.311</ele>
        <time>2020-05-22T23:10:50Z</time>
      </trkpt>
      <trkpt lat="43.091500" lon="-5.988440">
        <ele>1002.068</ele>
        <time>2020-05-22T23:11:10Z</time>
      </trkpt>
      <trkpt lat="43.091480" lon="-5.988480">
        <ele>1001.964</ele>
        <time>2020-05-22T23:11:30Z</time>
      </trkpt>
      <trkpt lat="43.091440" lon="-5.988540">
        <ele>1001.583</ele>
        <time>2020-05-22T23:11:50Z</time>
      </trkpt>
      <trkpt lat="43.091360" lon="-5.988650">
        <ele>1001.024</ele>
        <time>2020-05-22T23:12:10Z</time>
      </trkpt>
      <trkpt lat="43.091310" lon="-5.988720">
        <ele>1000.973</ele>
        <time>2020-05-22T23:12:30Z</time>
      </trkpt>
      <trkpt lat="43.091260" lon="-5.988770">
        <ele>1000.336</ele>
        <time>2020-05-22T23:12:50Z</time>
      </trkpt>
      <trkpt lat="43.091220" lon="-5.988820">
        <ele>1000.096</ele>
        <time>2020-05-22T23:13:10Z</time>
      </trkpt>
      <trkpt lat="43.091200" lon="-5.988830">
        <ele>999.631</ele>
        <time>2020-05-22T23:13:30Z</time>
      </trkpt>
      <trkpt lat="43.091160" lon="-5.988870">
        <ele>999.124</ele>
        <time>2020-05-22T23:13:50Z</time>
      </trkpt>
      <trkpt lat="43.091110" lon="-5.988910">
        <ele>998.508</ele>
        <time>2020-05-22T23:14:10Z</time>
      </trkpt>
      <trkpt lat="43.091070" lon="-5.988930">
        <ele>998.823</ele>
        <time>2020-05-22T23:14:30Z</time>
      </trkpt>
      <trkpt lat="43.091060" lon="-5.988940">
        <ele>999.088</ele>
        <time>2020-05-22T23:14:50Z</time>
      </trkpt>
      <trkpt lat="43.091010" lon="-5.988960">
        <ele>999.225</ele>
        <time>2020-05-22T23:15:10Z</time>
      </trkpt>
      <trkpt lat="43.090960" lon="-5.988980">
        <ele>999.471</ele>
        <time>2020-05-22T23:15:30Z</time>
      </trkpt>
      <trkpt lat="43.090900" lon="-5.988980">
        <ele>999.020</ele>
        <time>2020-05-22T23:15:50Z</time>
      </trkpt>
      <trkpt lat="43.090890" lon="-5.988980">
        <ele>999.021</ele>
        <time>2020-05-22T23:16:10Z</time>
      </trkpt>
      <trkpt lat="43.090850" lon="-5.988980">
        <ele>998.760</ele>
        <time>2020-05-22T23:16:30Z</time>
      </trkpt>
      <trkpt lat="43.090820" lon="-5.988980">
        <ele>998.783</ele>
        <time>2020-05-22T23:16:50Z</time>
      </trkpt>
      <trkpt lat="43.090770" lon="-5.988960">
        <ele>998.322</ele>
        <time>2020-05-22T23:17:10Z</time>
      </trkpt>
      <trkpt lat="43.090740" lon="-5.988940">
        <ele>997.962</ele>
        <time>2020-05-22T23:17:30Z</time>
      </trkpt>
      <trkpt lat="43.090720" lon="-5.988930">
        <ele>997.708</ele>
        <time>2020-05-22T23:17:50Z</time>
      </trkpt>
      <trkpt lat="43.090700" lon="-5.988920">
        <ele>997.408</ele>
        <time>2020-05-22T23:18:10Z</time>
      </trkpt>
      <trkpt lat="43.090660" lon="-5.988890">
        <ele>996.736</ele>
        <time>2020-05-22T23:18:30Z</time>
      </trkpt>
      <trkpt lat="43.090630" lon="-5.988860">
        <ele>996.291</ele>
        <time>2020-05-22T23:18:50Z</time>
      </trkpt>
      <trkpt lat="43.090610" lon="-5.988830">
        <ele>995.768</ele>
        <time>2020-05-22T23:19:10Z</time>
      </trkpt>
      <trkpt lat="43.090570" lon="-5.988790">
        <ele>995.284</ele>
        <time>2020-05-22T23:19:30Z</time>
      </trkpt>
      <trkpt lat="43.090540" lon="-5.988740">
        <ele>994.463</ele>
        <time>2020-05-22T23:19:50Z</time>
      </trkpt>
      <trkpt lat="43.090460" lon="-5.988590">
        <ele>992.454</ele>
        <time>2020-05-22T23:20:10Z</time>
      </trkpt>
      <trkpt lat="43.090420" lon="-5.988530">
        <ele>991.893</ele>
        <time>2020-05-22T23:20:30Z</time>
      </trkpt>
      <trkpt lat="43.090380" lon="-5.988450">
        <ele>990.946</ele>
        <time>2020-05-22T23:20:50Z</time>
      </trkpt>
      <trkpt lat="43.090340" lon="-5.988400">
        <ele>990.539</ele>
        <time>2020-05-22T23:21:10Z</time>
      </trkpt>
      <trkpt lat="43.090330" lon="-5.988390">
        <ele>990.401</ele>
        <time>2020-05-22T23:21:30Z</time>
      </trkpt>
      <trkpt lat="43.090300" lon="-5.988350">
        <ele>990.121</ele>
        <time>2020-05-22T23:21:50Z</time>
      </trkpt>
      <trkpt lat="43.090270" lon="-5.988330">
        <ele>989.908</ele>
        <time>2020-05-22T23:22:10Z</time>
      </trkpt>
      <trkpt lat="43.090260" lon="-5.988320">
        <ele>989.887</ele>
        <time>2020-05-22T23:22:30Z</time>
      </trkpt>
      <trkpt lat="43.090240" lon="-5.988310">
        <ele>989.642</ele>
        <time>2020-05-22T23:22:50Z</time>
      </trkpt>
      <trkpt lat="43.090220" lon="-5.988310">
        <ele>989.469</ele>
        <time>2020-05-22T23:23:10Z</time>
      </trkpt>
      <trkpt lat="43.090200" lon="-5.988300">
        <ele>989.225</ele>
        <time>2020-05-22T23:23:30Z</time>
      </trkpt>
      <trkpt lat="43.090190" lon="-5.988300">
        <ele>989.184</ele>
        <time>2020-05-22T23:23:50Z</time>
      </trkpt>
      <trkpt lat="43.090180" lon="-5.988300">
        <ele>989.015</ele>
        <time>2020-05-22T23:24:10Z</time>
      </trkpt>
      <trkpt lat="43.090140" lon="-5.988300">
        <ele>988.774</ele>
        <time>2020-05-22T23:24:30Z</time>
      </trkpt>
      <trkpt lat="43.090120" lon="-5.988310">
        <ele>988.697</ele>
        <time>2020-05-22T23:24:50Z</time>
      </trkpt>
      <trkpt lat="43.090090" lon="-5.988320">
        <ele>988.549</ele>
        <time>2020-05-22T23:25:10Z</time>
      </trkpt>
      <trkpt lat="43.090040" lon="-5.988350">
        <ele>988.702</ele>
        <time>2020-05-22T23:25:30Z</time>
      </trkpt>
      <trkpt lat="43.089850" lon="-5.988450">
        <ele>987.922</ele>
        <time>2020-05-22T23:25:50Z</time>
      </trkpt>
      <trkpt lat="43.089640" lon="-5.988570">
        <ele>986.008</ele>
        <time>2020-05-22T23:26:10Z</time>
      </trkpt>
      <trkpt lat="43.089620" lon="-5.988580">
        <ele>986.028</ele>
        <time>2020-05-22T23:26:30Z</time>
      </trkpt>
      <trkpt lat="43.089600" lon="-5.988580">
        <ele>985.863</ele>
        <time>2020-05-22T23:26:50Z</time>
      </trkpt>
      <trkpt lat="43.089590" lon="-5.988590">
        <ele>985.970</ele>
        <time>2020-05-22T23:27:10Z</time>
      </trkpt>
      <trkpt lat="43.089560" lon="-5.988590">
        <ele>985.646</ele>
        <time>2020-05-22T23:27:30Z</time>
      </trkpt>
      <trkpt lat="43.089540" lon="-5.988590">
        <ele>985.535</ele>
        <time>2020-05-22T23:27:50Z</time>
      </trkpt>
      <trkpt lat="43.089520" lon="-5.988580">
        <ele>985.366</ele>
        <time>2020-05-22T23:28:10Z</time>
      </trkpt>
      <trkpt lat="43.089500" lon="-5.988580">
        <ele>985.235</ele>
        <time>2020-05-22T23:28:30Z</time>
      </trkpt>
      <trkpt lat="43.089470" lon="-5.988560">
        <ele>984.898</ele>
        <time>2020-05-22T23:28:50Z</time>
      </trkpt>
      <trkpt lat="43.089450" lon="-5.988540">
        <ele>984.514</ele>
        <time>2020-05-22T23:29:10Z</time>
      </trkpt>
      <trkpt lat="43.089410" lon="-5.988510">
        <ele>985.354</ele>
        <time>2020-05-22T23:29:30Z</time>
      </trkpt>
      <trkpt lat="43.089390" lon="-5.988490">
        <ele>985.809</ele>
        <time>2020-05-22T23:29:50Z</time>
      </trkpt>
      <trkpt lat="43.089370" lon="-5.988460">
        <ele>986.208</ele>
        <time>2020-05-22T23:30:10Z</time>
      </trkpt>
      <trkpt lat="43.089340" lon="-5.988420">
        <ele>986.755</ele>
        <time>2020-05-22T23:30:30Z</time>
      </trkpt>
      <trkpt lat="43.089320" lon="-5.988370">
        <ele>986.920</ele>
        <time>2020-05-22T23:30:50Z</time>
      </trkpt>
      <trkpt lat="43.089290" lon="-5.988300">
        <ele>987.257</ele>
        <time>2020-05-22T23:31:10Z</time>
      </trkpt>
      <trkpt lat="43.089270" lon="-5.988230">
        <ele>987.343</ele>
        <time>2020-05-22T23:31:30Z</time>
      </trkpt>
      <trkpt lat="43.089270" lon="-5.988220">
        <ele>987.292</ele>
        <time>2020-05-22T23:31:50Z</time>
      </trkpt>
      <trkpt lat="43.089260" lon="-5.988180">
        <ele>987.253</ele>
        <time>2020-05-22T23:32:10Z</time>
      </trkpt>
      <trkpt lat="43.089260" lon="-5.988140">
        <ele>986.972</ele>
        <time>2020-05-22T23:32:30Z</time>
      </trkpt>
      <trkpt lat="43.089250" lon="-5.988100">
        <ele>986.955</ele>
        <time>2020-05-22T23:32:50Z</time>
      </trkpt>
      <trkpt lat="43.089250" lon="-5.988050">
        <ele>986.596</ele>
        <time>2020-05-22T23:33:10Z</time>
      </trkpt>
      <trkpt lat="43.089260" lon="-5.988010">
        <ele>985.831</ele>
        <time>2020-05-22T23:33:30Z</time>
      </trkpt>
      <trkpt lat="43.089260" lon="-5.987980">
        <ele>985.424</ele>
        <time>2020-05-22T23:33:50Z</time>
      </trkpt>
      <trkpt lat="43.089260" lon="-5.987960">
        <ele>985.208</ele>
        <time>2020-05-22T23:34:10Z</time>
      </trkpt>
      <trkpt lat="43.089280" lon="-5.987860">
        <ele>983.583</ele>
        <time>2020-05-22T23:34:30Z</time>
      </trkpt>
      <trkpt lat="43.089310" lon="-5.987770">
        <ele>981.918</ele>
        <time>2020-05-22T23:34:50Z</time>
      </trkpt>
      <trkpt lat="43.089310" lon="-5.987750">
        <ele>981.955</ele>
        <time>2020-05-22T23:35:10Z</time>
      </trkpt>
      <trkpt lat="43.089340" lon="-5.987640">
        <ele>981.351</ele>
        <time>2020-05-22T23:35:30Z</time>
      </trkpt>
      <trkpt lat="43.089380" lon="-5.987520">
        <ele>980.490</ele>
        <time>2020-05-22T23:35:50Z</time>
      </trkpt>
      <trkpt lat="43.089390" lon="-5.987500">
        <ele>980.291</ele>
        <time>2020-05-22T23:36:10Z</time>
      </trkpt>
      <trkpt lat="43.089430" lon="-5.987390">
        <ele>979.440</ele>
        <time>2020-05-22T23:36:30Z</time>
      </trkpt>
      <trkpt lat="43.089460" lon="-5.987300">
        <ele>978.983</ele>
        <time>2020-05-22T23:36:50Z</time>
      </trkpt>
      <trkpt lat="43.089470" lon="-5.987290">
        <ele>978.938</ele>
        <time>2020-05-22T23:37:10Z</time>
      </trkpt>
      <trkpt lat="43.089560" lon="-5.987100">
        <ele>978.170</ele>
        <time>2020-05-22T23:37:30Z</time>
      </trkpt>
      <trkpt lat="43.089570" lon="-5.987080">
        <ele>977.917</ele>
        <time>2020-05-22T23:37:50Z</time>
      </trkpt>
      <trkpt lat="43.089610" lon="-5.986990">
        <ele>977.108</ele>
        <time>2020-05-22T23:38:10Z</time>
      </trkpt>
      <trkpt lat="43.089630" lon="-5.986940">
        <ele>976.757</ele>
        <time>2020-05-22T23:38:30Z</time>
      </trkpt>
      <trkpt lat="43.089640" lon="-5.986910">
        <ele>976.572</ele>
        <time>2020-05-22T23:38:50Z</time>
      </trkpt>
      <trkpt lat="43.089650" lon="-5.986880">
        <ele>976.279</ele>
        <time>2020-05-22T23:39:10Z</time>
      </trkpt>
      <trkpt lat="43.089650" lon="-5.986820">
        <ele>976.275</ele>
        <time>2020-05-22T23:39:30Z</time>
      </trkpt>
      <trkpt lat="43.089650" lon="-5.986770">
        <ele>976.254</ele>
        <time>2020-05-22T23:39:50Z</time>
      </trkpt>
      <trkpt lat="43.089650" lon="-5.986740">
        <ele>976.195</ele>
        <time>2020-05-22T23:40:10Z</time>
      </trkpt>
      <trkpt lat="43.089650" lon="-5.986690">
        <ele>976.164</ele>
        <time>2020-05-22T23:40:30Z</time>
      </trkpt>
      <trkpt lat="43.089630" lon="-5.986600">
        <ele>976.287</ele>
        <time>2020-05-22T23:40:50Z</time>
      </trkpt>
      <trkpt lat="43.089610" lon="-5.986530">
        <ele>976.247</ele>
        <time>2020-05-22T23:41:10Z</time>
      </trkpt>
      <trkpt lat="43.089600" lon="-5.986490">
        <ele>976.229</ele>
        <time>2020-05-22T23:41:30Z</time>
      </trkpt>
      <trkpt lat="43.089570" lon="-5.986420">
        <ele>976.621</ele>
        <time>2020-05-22T23:41:50Z</time>
      </trkpt>
      <trkpt lat="43.089560" lon="-5.986420">
        <ele>976.908</ele>
        <time>2020-05-22T23:42:10Z</time>
      </trkpt>
      <trkpt lat="43.089550" lon="-5.986390">
        <ele>977.048</ele>
        <time>2020-05-22T23:42:30Z</time>
      </trkpt>
      <trkpt lat="43.089550" lon="-5.986380">
        <ele>976.963</ele>
        <time>2020-05-22T23:42:50Z</time>
      </trkpt>
      <trkpt lat="43.089540" lon="-5.986360">
        <ele>976.910</ele>
        <time>2020-05-22T23:43:10Z</time>
      </trkpt>
      <trkpt lat="43.089540" lon="-5.986350">
        <ele>976.846</ele>
        <time>2020-05-22T23:43:30Z</time>
      </trkpt>
      <trkpt lat="43.089540" lon="-5.986330">
        <ele>976.665</ele>
        <time>2020-05-22T23:43:50Z</time>
      </trkpt>
      <trkpt lat="43.089540" lon="-5.986310">
        <ele>976.446</ele>
        <time>2020-05-22T23:44:10Z</time>
      </trkpt>
      <trkpt lat="43.089570" lon="-5.986180">
        <ele>974.195</ele>
        <time>2020-05-22T23:44:30Z</time>
      </trkpt>
      <trkpt lat="43.089590" lon="-5.986050">
        <ele>972.988</ele>
        <time>2020-05-22T23:44:50Z</time>
      </trkpt>
      <trkpt lat="43.089600" lon="-5.986000">
        <ele>972.612</ele>
        <time>2020-05-22T23:45:10Z</time>
      </trkpt>
      <trkpt lat="43.089620" lon="-5.985950">
        <ele>971.932</ele>
        <time>2020-05-22T23:45:30Z</time>
      </trkpt>
      <trkpt lat="43.089630" lon="-5.985930">
        <ele>971.405</ele>
        <time>2020-05-22T23:45:50Z</time>
      </trkpt>
      <trkpt lat="43.089650" lon="-5.985850">
        <ele>970.408</ele>
        <time>2020-05-22T23:46:10Z</time>
      </trkpt>
      <trkpt lat="43.089660" lon="-5.985790">
        <ele>969.945</ele>
        <time>2020-05-22T23:46:30Z</time>
      </trkpt>
      <trkpt lat="43.089680" lon="-5.985740">
        <ele>969.080</ele>
        <time>2020-05-22T23:46:50Z</time>
      </trkpt>
      <trkpt lat="43.089690" lon="-5.985690">
        <ele>968.537</ele>
        <time>2020-05-22T23:47:10Z</time>
      </trkpt>
      <trkpt lat="43.089690" lon="-5.985650">
        <ele>968.573</ele>
        <time>2020-05-22T23:47:30Z</time>
      </trkpt>
      <trkpt lat="43.089690" lon="-5.985620">
        <ele>968.572</ele>
        <time>2020-05-22T23:47:50Z</time>
      </trkpt>
      <trkpt lat="43.089690" lon="-5.985590">
        <ele>968.573</ele>
        <time>2020-05-22T23:48:10Z</time>
      </trkpt>
      <trkpt lat="43.089690" lon="-5.985570">
        <ele>968.542</ele>
        <time>2020-05-22T23:48:30Z</time>
      </trkpt>
      <trkpt lat="43.089690" lon="-5.985530">
        <ele>968.315</ele>
        <time>2020-05-22T23:48:50Z</time>
      </trkpt>
      <trkpt lat="43.089680" lon="-5.985490">
        <ele>968.566</ele>
        <time>2020-05-22T23:49:10Z</time>
      </trkpt>
      <trkpt lat="43.089670" lon="-5.985440">
        <ele>968.629</ele>
        <time>2020-05-22T23:49:30Z</time>
      </trkpt>
      <trkpt lat="43.089670" lon="-5.985400">
        <ele>968.321</ele>
        <time>2020-05-22T23:49:50Z</time>
      </trkpt>
      <trkpt lat="43.089670" lon="-5.985380">
        <ele>968.208</ele>
        <time>2020-05-22T23:50:10Z</time>
      </trkpt>
      <trkpt lat="43.089670" lon="-5.985350">
        <ele>968.070</ele>
        <time>2020-05-22T23:50:30Z</time>
      </trkpt>
      <trkpt lat="43.089680" lon="-5.985320">
        <ele>967.355</ele>
        <time>2020-05-22T23:50:50Z</time>
      </trkpt>
      <trkpt lat="43.089700" lon="-5.985240">
        <ele>966.272</ele>
        <time>2020-05-22T23:51:10Z</time>
      </trkpt>
      <trkpt lat="43.089770" lon="-5.985010">
        <ele>964.178</ele>
        <time>2020-05-22T23:51:30Z</time>
      </trkpt>
      <trkpt lat="43.089800" lon="-5.984900">
        <ele>962.967</ele>
        <time>2020-05-22T23:51:50Z</time>
      </trkpt>
      <trkpt lat="43.089810" lon="-5.984860">
        <ele>962.478</ele>
        <time>2020-05-22T23:52:10Z</time>
      </trkpt>
      <trkpt lat="43.089810" lon="-5.984830">
        <ele>962.457</ele>
        <time>2020-05-22T23:52:30Z</time>
      </trkpt>
      <trkpt lat="43.089810" lon="-5.984790">
        <ele>962.350</ele>
        <time>2020-05-22T23:52:50Z</time>
      </trkpt>
      <trkpt lat="43.089810" lon="-5.984770">
        <ele>962.362</ele>
        <time>2020-05-22T23:53:10Z</time>
      </trkpt>
      <trkpt lat="43.089810" lon="-5.984740">
        <ele>962.383</ele>
        <time>2020-05-22T23:53:30Z</time>
      </trkpt>
      <trkpt lat="43.089800" lon="-5.984680">
        <ele>962.311</ele>
        <time>2020-05-22T23:53:50Z</time>
      </trkpt>
      <trkpt lat="43.089770" lon="-5.984580">
        <ele>962.808</ele>
        <time>2020-05-22T23:54:10Z</time>
      </trkpt>
      <trkpt lat="43.089760" lon="-5.984540">
        <ele>962.960</ele>
        <time>2020-05-22T23:54:30Z</time>
      </trkpt>
      <trkpt lat="43.089690" lon="-5.984310">
        <ele>963.375</ele>
        <time>2020-05-22T23:54:50Z</time>
      </trkpt>
      <trkpt lat="43.089640" lon="-5.984160">
        <ele>962.872</ele>
        <time>2020-05-22T23:55:10Z</time>
      </trkpt>
      <trkpt lat="43.089550" lon="-5.983860">
        <ele>958.728</ele>
        <time>2020-05-22T23:55:30Z</time>
      </trkpt>
      <trkpt lat="43.089530" lon="-5.983790">
        <ele>958.437</ele>
        <time>2020-05-22T23:55:50Z</time>
      </trkpt>
      <trkpt lat="43.089520" lon="-5.983740">
        <ele>958.098</ele>
        <time>2020-05-22T23:56:10Z</time>
      </trkpt>
      <trkpt lat="43.089510" lon="-5.983690">
        <ele>957.647</ele>
        <time>2020-05-22T23:56:30Z</time>
      </trkpt>
      <trkpt lat="43.089510" lon="-5.983620">
        <ele>956.570</ele>
        <time>2020-05-22T23:56:50Z</time>
      </trkpt>
      <trkpt lat="43.089510" lon="-5.983530">
        <ele>956.115</ele>
        <time>2020-05-22T23:57:10Z</time>
      </trkpt>
      <trkpt lat="43.089550" lon="-5.983240">
        <ele>953.365</ele>
        <time>2020-05-22T23:57:30Z</time>
      </trkpt>
      <trkpt lat="43.089550" lon="-5.983190">
        <ele>953.211</ele>
        <time>2020-05-22T23:57:50Z</time>
      </trkpt>
      <trkpt lat="43.089630" lon="-5.982680">
        <ele>950.608</ele>
        <time>2020-05-22T23:58:10Z</time>
      </trkpt>
      <trkpt lat="43.089760" lon="-5.982310">
        <ele>947.285</ele>
        <time>2020-05-22T23:58:30Z</time>
      </trkpt>
      <trkpt lat="43.089800" lon="-5.982190">
        <ele>945.920</ele>
        <time>2020-05-22T23:58:50Z</time>
      </trkpt>
      <trkpt lat="43.089830" lon="-5.982080">
        <ele>945.017</ele>
        <time>2020-05-22T23:59:10Z</time>
      </trkpt>
      <trkpt lat="43.089850" lon="-5.982020">
        <ele>944.493</ele>
        <time>2020-05-22T23:59:30Z</time>
      </trkpt>
      <trkpt lat="43.089870" lon="-5.981930">
        <ele>944.292</ele>
        <time>2020-05-22T23:59:50Z</time>
      </trkpt>
      <trkpt lat="43.089860" lon="-5.981860">
        <ele>944.793</ele>
        <time>2020-05-23T00:00:10Z</time>
      </trkpt>
      <trkpt lat="43.089860" lon="-5.981840">
        <ele>944.762</ele>
        <time>2020-05-23T00:00:30Z</time>
      </trkpt>
      <trkpt lat="43.089850" lon="-5.981780">
        <ele>945.295</ele>
        <time>2020-05-23T00:00:50Z</time>
      </trkpt>
      <trkpt lat="43.089820" lon="-5.981670">
        <ele>946.245</ele>
        <time>2020-05-23T00:01:10Z</time>
      </trkpt>
      <trkpt lat="43.089750" lon="-5.981510">
        <ele>944.547</ele>
        <time>2020-05-23T00:01:30Z</time>
      </trkpt>
      <trkpt lat="43.089630" lon="-5.981290">
        <ele>944.811</ele>
        <time>2020-05-23T00:01:50Z</time>
      </trkpt>
      <trkpt lat="43.089590" lon="-5.981210">
        <ele>945.008</ele>
        <time>2020-05-23T00:02:10Z</time>
      </trkpt>
      <trkpt lat="43.089530" lon="-5.981050">
        <ele>944.338</ele>
        <time>2020-05-23T00:02:30Z</time>
      </trkpt>
      <trkpt lat="43.089520" lon="-5.980990">
        <ele>943.833</ele>
        <time>2020-05-23T00:02:50Z</time>
      </trkpt>
      <trkpt lat="43.089470" lon="-5.980760">
        <ele>942.050</ele>
        <time>2020-05-23T00:03:10Z</time>
      </trkpt>
      <trkpt lat="43.089470" lon="-5.980750">
        <ele>941.836</ele>
        <time>2020-05-23T00:03:30Z</time>
      </trkpt>
      <trkpt lat="43.089440" lon="-5.980510">
        <ele>939.755</ele>
        <time>2020-05-23T00:03:50Z</time>
      </trkpt>
      <trkpt lat="43.089420" lon="-5.980370">
        <ele>939.246</ele>
        <time>2020-05-23T00:04:10Z</time>
      </trkpt>
      <trkpt lat="43.089410" lon="-5.980260">
        <ele>938.595</ele>
        <time>2020-05-23T00:04:30Z</time>
      </trkpt>
      <trkpt lat="43.089390" lon="-5.980020">
        <ele>935.978</ele>
        <time>2020-05-23T00:04:50Z</time>
      </trkpt>
      <trkpt lat="43.089420" lon="-5.979780">
        <ele>933.342</ele>
        <time>2020-05-23T00:05:10Z</time>
      </trkpt>
      <trkpt lat="43.089420" lon="-5.979750">
        <ele>933.222</ele>
        <time>2020-05-23T00:05:30Z</time>
      </trkpt>
      <trkpt lat="43.089430" lon="-5.979680">
        <ele>932.214</ele>
        <time>2020-05-23T00:05:50Z</time>
      </trkpt>
      <trkpt lat="43.089430" lon="-5.979590">
        <ele>931.208</ele>
        <time>2020-05-23T00:06:10Z</time>
      </trkpt>
      <trkpt lat="43.089410" lon="-5.979420">
        <ele>930.528</ele>
        <time>2020-05-23T00:06:30Z</time>
      </trkpt>
      <trkpt lat="43.089390" lon="-5.979290">
        <ele>930.713</ele>
        <time>2020-05-23T00:06:50Z</time>
      </trkpt>
      <trkpt lat="43.089350" lon="-5.979050">
        <ele>931.190</ele>
        <time>2020-05-23T00:07:10Z</time>
      </trkpt>
      <trkpt lat="43.089350" lon="-5.979040">
        <ele>931.176</ele>
        <time>2020-05-23T00:07:30Z</time>
      </trkpt>
      <trkpt lat="43.089340" lon="-5.978930">
        <ele>931.065</ele>
        <time>2020-05-23T00:07:50Z</time>
      </trkpt>
      <trkpt lat="43.089380" lon="-5.978740">
        <ele>929.156</ele>
        <time>2020-05-23T00:08:10Z</time>
      </trkpt>
      <trkpt lat="43.089420" lon="-5.978570">
        <ele>927.355</ele>
        <time>2020-05-23T00:08:30Z</time>
      </trkpt>
      <trkpt lat="43.089420" lon="-5.978560">
        <ele>927.398</ele>
        <time>2020-05-23T00:08:50Z</time>
      </trkpt>
      <trkpt lat="43.089530" lon="-5.978380">
        <ele>923.927</ele>
        <time>2020-05-23T00:09:10Z</time>
      </trkpt>
      <trkpt lat="43.089640" lon="-5.978200">
        <ele>921.868</ele>
        <time>2020-05-23T00:09:30Z</time>
      </trkpt>
      <trkpt lat="43.089650" lon="-5.978190">
        <ele>921.614</ele>
        <time>2020-05-23T00:09:50Z</time>
      </trkpt>
      <trkpt lat="43.089770" lon="-5.978010">
        <ele>920.608</ele>
        <time>2020-05-23T00:10:10Z</time>
      </trkpt>
      <trkpt lat="43.089770" lon="-5.978000">
        <ele>920.766</ele>
        <time>2020-05-23T00:10:30Z</time>
      </trkpt>
      <trkpt lat="43.089820" lon="-5.977900">
        <ele>920.921</ele>
        <time>2020-05-23T00:10:50Z</time>
      </trkpt>
      <trkpt lat="43.089850" lon="-5.977800">
        <ele>921.598</ele>
        <time>2020-05-23T00:11:10Z</time>
      </trkpt>
      <trkpt lat="43.089850" lon="-5.977790">
        <ele>921.674</ele>
        <time>2020-05-23T00:11:30Z</time>
      </trkpt>
      <trkpt lat="43.089870" lon="-5.977680">
        <ele>921.263</ele>
        <time>2020-05-23T00:11:50Z</time>
      </trkpt>
      <trkpt lat="43.089870" lon="-5.977550">
        <ele>920.984</ele>
        <time>2020-05-23T00:12:10Z</time>
      </trkpt>
      <trkpt lat="43.089870" lon="-5.977490">
        <ele>920.823</ele>
        <time>2020-05-23T00:12:30Z</time>
      </trkpt>
      <trkpt lat="43.089850" lon="-5.977300">
        <ele>920.286</ele>
        <time>2020-05-23T00:12:50Z</time>
      </trkpt>
      <trkpt lat="43.089850" lon="-5.977240">
        <ele>919.921</ele>
        <time>2020-05-23T00:13:10Z</time>
      </trkpt>
      <trkpt lat="43.089850" lon="-5.977140">
        <ele>919.341</ele>
        <time>2020-05-23T00:13:30Z</time>
      </trkpt>
      <trkpt lat="43.089860" lon="-5.977080">
        <ele>918.805</ele>
        <time>2020-05-23T00:13:50Z</time>
      </trkpt>
      <trkpt lat="43.089860" lon="-5.977060">
        <ele>918.608</ele>
        <time>2020-05-23T00:14:10Z</time>
      </trkpt>
      <trkpt lat="43.089870" lon="-5.977050">
        <ele>918.486</ele>
        <time>2020-05-23T00:14:30Z</time>
      </trkpt>
      <trkpt lat="43.089880" lon="-5.977020">
        <ele>918.031</ele>
        <time>2020-05-23T00:14:50Z</time>
      </trkpt>
      <trkpt lat="43.089910" lon="-5.976970">
        <ele>917.188</ele>
        <time>2020-05-23T00:15:10Z</time>
      </trkpt>
      <trkpt lat="43.089940" lon="-5.976930">
        <ele>916.324</ele>
        <time>2020-05-23T00:15:30Z</time>
      </trkpt>
      <trkpt lat="43.089970" lon="-5.976900">
        <ele>915.613</ele>
        <time>2020-05-23T00:15:50Z</time>
      </trkpt>
      <trkpt lat="43.090000" lon="-5.976870">
        <ele>915.014</ele>
        <time>2020-05-23T00:16:10Z</time>
      </trkpt>
      <trkpt lat="43.090050" lon="-5.976830">
        <ele>914.443</ele>
        <time>2020-05-23T00:16:30Z</time>
      </trkpt>
      <trkpt lat="43.090120" lon="-5.976810">
        <ele>913.546</ele>
        <time>2020-05-23T00:16:50Z</time>
      </trkpt>
      <trkpt lat="43.090160" lon="-5.976810">
        <ele>913.016</ele>
        <time>2020-05-23T00:17:10Z</time>
      </trkpt>
      <trkpt lat="43.090190" lon="-5.976810">
        <ele>912.676</ele>
        <time>2020-05-23T00:17:30Z</time>
      </trkpt>
      <trkpt lat="43.090230" lon="-5.976810">
        <ele>912.113</ele>
        <time>2020-05-23T00:17:50Z</time>
      </trkpt>
      <trkpt lat="43.090310" lon="-5.976830">
        <ele>911.108</ele>
        <time>2020-05-23T00:18:10Z</time>
      </trkpt>
      <trkpt lat="43.090370" lon="-5.976860">
        <ele>910.465</ele>
        <time>2020-05-23T00:18:30Z</time>
      </trkpt>
      <trkpt lat="43.090400" lon="-5.976890">
        <ele>910.030</ele>
        <time>2020-05-23T00:18:50Z</time>
      </trkpt>
      <trkpt lat="43.090430" lon="-5.976920">
        <ele>909.777</ele>
        <time>2020-05-23T00:19:10Z</time>
      </trkpt>
      <trkpt lat="43.090450" lon="-5.976950">
        <ele>909.553</ele>
        <time>2020-05-23T00:19:30Z</time>
      </trkpt>
      <trkpt lat="43.090480" lon="-5.977000">
        <ele>909.162</ele>
        <time>2020-05-23T00:19:50Z</time>
      </trkpt>
      <trkpt lat="43.090500" lon="-5.977060">
        <ele>908.873</ele>
        <time>2020-05-23T00:20:10Z</time>
      </trkpt>
      <trkpt lat="43.090520" lon="-5.977120">
        <ele>908.542</ele>
        <time>2020-05-23T00:20:30Z</time>
      </trkpt>
      <trkpt lat="43.090550" lon="-5.977320">
        <ele>907.785</ele>
        <time>2020-05-23T00:20:50Z</time>
      </trkpt>
      <trkpt lat="43.090580" lon="-5.977510">
        <ele>906.587</ele>
        <time>2020-05-23T00:21:10Z</time>
      </trkpt>
      <trkpt lat="43.090580" lon="-5.977560">
        <ele>906.542</ele>
        <time>2020-05-23T00:21:30Z</time>
      </trkpt>
      <trkpt lat="43.090620" lon="-5.977900">
        <ele>904.626</ele>
        <time>2020-05-23T00:21:50Z</time>
      </trkpt>
      <trkpt lat="43.090640" lon="-5.978050">
        <ele>903.208</ele>
        <time>2020-05-23T00:22:10Z</time>
      </trkpt>
      <trkpt lat="43.090650" lon="-5.978160">
        <ele>902.622</ele>
        <time>2020-05-23T00:22:30Z</time>
      </trkpt>
      <trkpt lat="43.090670" lon="-5.978290">
        <ele>901.777</ele>
        <time>2020-05-23T00:22:50Z</time>
      </trkpt>
      <trkpt lat="43.090680" lon="-5.978350">
        <ele>901.474</ele>
        <time>2020-05-23T00:23:10Z</time>
      </trkpt>
      <trkpt lat="43.090730" lon="-5.978510">
        <ele>901.350</ele>
        <time>2020-05-23T00:23:30Z</time>
      </trkpt>
      <trkpt lat="43.090820" lon="-5.978740">
        <ele>899.879</ele>
        <time>2020-05-23T00:23:50Z</time>
      </trkpt>
      <trkpt lat="43.090850" lon="-5.978810">
        <ele>899.350</ele>
        <time>2020-05-23T00:24:10Z</time>
      </trkpt>
      <trkpt lat="43.090920" lon="-5.978940">
        <ele>898.449</ele>
        <time>2020-05-23T00:24:30Z</time>
      </trkpt>
      <trkpt lat="43.090940" lon="-5.978980">
        <ele>898.372</ele>
        <time>2020-05-23T00:24:50Z</time>
      </trkpt>
      <trkpt lat="43.091020" lon="-5.979100">
        <ele>897.679</ele>
        <time>2020-05-23T00:25:10Z</time>
      </trkpt>
      <trkpt lat="43.091120" lon="-5.979230">
        <ele>896.705</ele>
        <time>2020-05-23T00:25:30Z</time>
      </trkpt>
      <trkpt lat="43.091170" lon="-5.979280">
        <ele>896.325</ele>
        <time>2020-05-23T00:25:50Z</time>
      </trkpt>
      <trkpt lat="43.091180" lon="-5.979290">
        <ele>896.308</ele>
        <time>2020-05-23T00:26:10Z</time>
      </trkpt>
      <trkpt lat="43.091240" lon="-5.979340">
        <ele>895.811</ele>
        <time>2020-05-23T00:26:30Z</time>
      </trkpt>
      <trkpt lat="43.091300" lon="-5.979390">
        <ele>895.526</ele>
        <time>2020-05-23T00:26:50Z</time>
      </trkpt>
      <trkpt lat="43.091330" lon="-5.979410">
        <ele>895.423</ele>
        <time>2020-05-23T00:27:10Z</time>
      </trkpt>
      <trkpt lat="43.091390" lon="-5.979440">
        <ele>894.969</ele>
        <time>2020-05-23T00:27:30Z</time>
      </trkpt>
      <trkpt lat="43.091580" lon="-5.979570">
        <ele>892.068</ele>
        <time>2020-05-23T00:27:50Z</time>
      </trkpt>
      <trkpt lat="43.091620" lon="-5.979610">
        <ele>891.529</ele>
        <time>2020-05-23T00:28:10Z</time>
      </trkpt>
      <trkpt lat="43.091650" lon="-5.979640">
        <ele>891.118</ele>
        <time>2020-05-23T00:28:30Z</time>
      </trkpt>
      <trkpt lat="43.091670" lon="-5.979660">
        <ele>890.881</ele>
        <time>2020-05-23T00:28:50Z</time>
      </trkpt>
      <trkpt lat="43.091710" lon="-5.979730">
        <ele>890.899</ele>
        <time>2020-05-23T00:29:10Z</time>
      </trkpt>
      <trkpt lat="43.091760" lon="-5.979830">
        <ele>890.107</ele>
        <time>2020-05-23T00:29:30Z</time>
      </trkpt>
      <trkpt lat="43.091790" lon="-5.979900">
        <ele>889.727</ele>
        <time>2020-05-23T00:29:50Z</time>
      </trkpt>
      <trkpt lat="43.091860" lon="-5.980030">
        <ele>888.608</ele>
        <time>2020-05-23T00:30:10Z</time>
      </trkpt>
      <trkpt lat="43.091960" lon="-5.980230">
        <ele>887.593</ele>
        <time>2020-05-23T00:30:30Z</time>
      </trkpt>
      <trkpt lat="43.091970" lon="-5.980240">
        <ele>887.548</ele>
        <time>2020-05-23T00:30:50Z</time>
      </trkpt>
      <trkpt lat="43.092000" lon="-5.980290">
        <ele>887.895</ele>
        <time>2020-05-23T00:31:10Z</time>
      </trkpt>
      <trkpt lat="43.092020" lon="-5.980350">
        <ele>887.411</ele>
        <time>2020-05-23T00:31:30Z</time>
      </trkpt>
      <trkpt lat="43.092030" lon="-5.980420">
        <ele>886.970</ele>
        <time>2020-05-23T00:31:50Z</time>
      </trkpt>
      <trkpt lat="43.092030" lon="-5.980450">
        <ele>886.831</ele>
        <time>2020-05-23T00:32:10Z</time>
      </trkpt>
      <trkpt lat="43.092040" lon="-5.980470">
        <ele>886.460</ele>
        <time>2020-05-23T00:32:30Z</time>
      </trkpt>
      <trkpt lat="43.092030" lon="-5.980530">
        <ele>886.423</ele>
        <time>2020-05-23T00:32:50Z</time>
      </trkpt>
      <trkpt lat="43.092020" lon="-5.980590">
        <ele>885.653</ele>
        <time>2020-05-23T00:33:10Z</time>
      </trkpt>
      <trkpt lat="43.091990" lon="-5.980680">
        <ele>884.104</ele>
        <time>2020-05-23T00:33:30Z</time>
      </trkpt>
      <trkpt lat="43.091990" lon="-5.980690">
        <ele>883.814</ele>
        <time>2020-05-23T00:33:50Z</time>
      </trkpt>
      <trkpt lat="43.091960" lon="-5.980750">
        <ele>883.008</ele>
        <time>2020-05-23T00:34:10Z</time>
      </trkpt>
      <trkpt lat="43.091930" lon="-5.980790">
        <ele>882.689</ele>
        <time>2020-05-23T00:34:30Z</time>
      </trkpt>
      <trkpt lat="43.091910" lon="-5.980820">
        <ele>882.484</ele>
        <time>2020-05-23T00:34:50Z</time>
      </trkpt>
      <trkpt lat="43.091860" lon="-5.980860">
        <ele>882.971</ele>
        <time>2020-05-23T00:35:10Z</time>
      </trkpt>
      <trkpt lat="43.091730" lon="-5.981000">
        <ele>882.097</ele>
        <time>2020-05-23T00:35:30Z</time>
      </trkpt>
      <trkpt lat="43.091570" lon="-5.981140">
        <ele>880.766</ele>
        <time>2020-05-23T00:35:50Z</time>
      </trkpt>
      <trkpt lat="43.091530" lon="-5.981180">
        <ele>880.367</ele>
        <time>2020-05-23T00:36:10Z</time>
      </trkpt>
      <trkpt lat="43.091460" lon="-5.981240">
        <ele>880.246</ele>
        <time>2020-05-23T00:36:30Z</time>
      </trkpt>
      <trkpt lat="43.091420" lon="-5.981280">
        <ele>880.049</ele>
        <time>2020-05-23T00:36:50Z</time>
      </trkpt>
      <trkpt lat="43.091390" lon="-5.981320">
        <ele>879.485</ele>
        <time>2020-05-23T00:37:10Z</time>
      </trkpt>
      <trkpt lat="43.091300" lon="-5.981460">
        <ele>880.489</ele>
        <time>2020-05-23T00:37:30Z</time>
      </trkpt>
      <trkpt lat="43.091180" lon="-5.981650">
        <ele>879.317</ele>
        <time>2020-05-23T00:37:50Z</time>
      </trkpt>
      <trkpt lat="43.091170" lon="-5.981680">
        <ele>878.508</ele>
        <time>2020-05-23T00:38:10Z</time>
      </trkpt>
      <trkpt lat="43.091070" lon="-5.981850">
        <ele>877.612</ele>
        <time>2020-05-23T00:38:30Z</time>
      </trkpt>
      <trkpt lat="43.090930" lon="-5.982110">
        <ele>874.897</ele>
        <time>2020-05-23T00:38:50Z</time>
      </trkpt>
      <trkpt lat="43.090870" lon="-5.982220">
        <ele>873.034</ele>
        <time>2020-05-23T00:39:10Z</time>
      </trkpt>
      <trkpt lat="43.090860" lon="-5.982240">
        <ele>873.290</ele>
        <time>2020-05-23T00:39:30Z</time>
      </trkpt>
      <trkpt lat="43.090840" lon="-5.982270">
        <ele>873.849</ele>
        <time>2020-05-23T00:39:50Z</time>
      </trkpt>
      <trkpt lat="43.090800" lon="-5.982360">
        <ele>875.040</ele>
        <time>2020-05-23T00:40:10Z</time>
      </trkpt>
      <trkpt lat="43.090790" lon="-5.982390">
        <ele>875.329</ele>
        <time>2020-05-23T00:40:30Z</time>
      </trkpt>
      <trkpt lat="43.090780" lon="-5.982440">
        <ele>875.132</ele>
        <time>2020-05-23T00:40:50Z</time>
      </trkpt>
      <trkpt lat="43.090780" lon="-5.982460">
        <ele>874.883</ele>
        <time>2020-05-23T00:41:10Z</time>
      </trkpt>
      <trkpt lat="43.090770" lon="-5.982490">
        <ele>875.025</ele>
        <time>2020-05-23T00:41:30Z</time>
      </trkpt>
      <trkpt lat="43.090770" lon="-5.982550">
        <ele>877.017</ele>
        <time>2020-05-23T00:41:50Z</time>
      </trkpt>
      <trkpt lat="43.090770" lon="-5.982630">
        <ele>880.508</ele>
        <time>2020-05-23T00:42:10Z</time>
      </trkpt>
      <trkpt lat="43.090770" lon="-5.982670">
        <ele>882.362</ele>
        <time>2020-05-23T00:42:30Z</time>
      </trkpt>
      <trkpt lat="43.090770" lon="-5.982700">
        <ele>883.687</ele>
        <time>2020-05-23T00:42:50Z</time>
      </trkpt>
      <trkpt lat="43.090770" lon="-5.982720">
        <ele>884.574</ele>
        <time>2020-05-23T00:43:10Z</time>
      </trkpt>
      <trkpt lat="43.090780" lon="-5.982750">
        <ele>885.570</ele>
        <time>2020-05-23T00:43:30Z</time>
      </trkpt>
      <trkpt lat="43.090790" lon="-5.982780">
        <ele>886.519</ele>
        <time>2020-05-23T00:43:50Z</time>
      </trkpt>
      <trkpt lat="43.090800" lon="-5.982800">
        <ele>886.770</ele>
        <time>2020-05-23T00:44:10Z</time>
      </trkpt>
      <trkpt lat="43.090810" lon="-5.982830">
        <ele>887.339</ele>
        <time>2020-05-23T00:44:30Z</time>
      </trkpt>
      <trkpt lat="43.090820" lon="-5.982850">
        <ele>887.522</ele>
        <time>2020-05-23T00:44:50Z</time>
      </trkpt>
      <trkpt lat="43.090830" lon="-5.982860">
        <ele>887.522</ele>
        <time>2020-05-23T00:45:10Z</time>
      </trkpt>
      <trkpt lat="43.090840" lon="-5.982870">
        <ele>887.362</ele>
        <time>2020-05-23T00:45:30Z</time>
      </trkpt>
      <trkpt lat="43.090860" lon="-5.982880">
        <ele>886.508</ele>
        <time>2020-05-23T00:45:50Z</time>
      </trkpt>
      <trkpt lat="43.090880" lon="-5.982890">
        <ele>885.808</ele>
        <time>2020-05-23T00:46:10Z</time>
      </trkpt>
      <trkpt lat="43.090890" lon="-5.982890">
        <ele>885.356</ele>
        <time>2020-05-23T00:46:30Z</time>
      </trkpt>
      <trkpt lat="43.090920" lon="-5.982900">
        <ele>884.141</ele>
        <time>2020-05-23T00:46:50Z</time>
      </trkpt>
      <trkpt lat="43.090970" lon="-5.982900">
        <ele>881.558</ele>
        <time>2020-05-23T00:47:10Z</time>
      </trkpt>
      <trkpt lat="43.091020" lon="-5.982900">
        <ele>879.074</ele>
        <time>2020-05-23T00:47:30Z</time>
      </trkpt>
      <trkpt lat="43.091040" lon="-5.982900">
        <ele>877.913</ele>
        <time>2020-05-23T00:47:50Z</time>
      </trkpt>
      <trkpt lat="43.091050" lon="-5.982890">
        <ele>877.064</ele>
        <time>2020-05-23T00:48:10Z</time>
      </trkpt>
      <trkpt lat="43.091060" lon="-5.982890">
        <ele>876.593</ele>
        <time>2020-05-23T00:48:30Z</time>
      </trkpt>
      <trkpt lat="43.091080" lon="-5.982890">
        <ele>875.516</ele>
        <time>2020-05-23T00:48:50Z</time>
      </trkpt>
      <trkpt lat="43.091110" lon="-5.982870">
        <ele>873.068</ele>
        <time>2020-05-23T00:49:10Z</time>
      </trkpt>
      <trkpt lat="43.091170" lon="-5.982830">
        <ele>872.742</ele>
        <time>2020-05-23T00:49:30Z</time>
      </trkpt>
      <trkpt lat="43.091220" lon="-5.982790">
        <ele>872.226</ele>
        <time>2020-05-23T00:49:50Z</time>
      </trkpt>
      <trkpt lat="43.091290" lon="-5.982740">
        <ele>871.808</ele>
        <time>2020-05-23T00:50:10Z</time>
      </trkpt>
      <trkpt lat="43.091360" lon="-5.982650">
        <ele>869.010</ele>
        <time>2020-05-23T00:50:30Z</time>
      </trkpt>
      <trkpt lat="43.091470" lon="-5.982470">
        <ele>863.755</ele>
        <time>2020-05-23T00:50:50Z</time>
      </trkpt>
      <trkpt lat="43.091480" lon="-5.982460">
        <ele>863.692</ele>
        <time>2020-05-23T00:51:10Z</time>
      </trkpt>
      <trkpt lat="43.091590" lon="-5.982310">
        <ele>860.728</ele>
        <time>2020-05-23T00:51:30Z</time>
      </trkpt>
      <trkpt lat="43.091610" lon="-5.982300">
        <ele>860.977</ele>
        <time>2020-05-23T00:51:50Z</time>
      </trkpt>
      <trkpt lat="43.091640" lon="-5.982270">
        <ele>860.428</ele>
        <time>2020-05-23T00:52:10Z</time>
      </trkpt>
      <trkpt lat="43.091690" lon="-5.982240">
        <ele>859.937</ele>
        <time>2020-05-23T00:52:30Z</time>
      </trkpt>
      <trkpt lat="43.091720" lon="-5.982220">
        <ele>859.190</ele>
        <time>2020-05-23T00:52:50Z</time>
      </trkpt>
      <trkpt lat="43.091770" lon="-5.982210">
        <ele>858.823</ele>
        <time>2020-05-23T00:53:10Z</time>
      </trkpt>
      <trkpt lat="43.091780" lon="-5.982210">
        <ele>858.983</ele>
        <time>2020-05-23T00:53:30Z</time>
      </trkpt>
      <trkpt lat="43.091800" lon="-5.982210">
        <ele>859.011</ele>
        <time>2020-05-23T00:53:50Z</time>
      </trkpt>
      <trkpt lat="43.091850" lon="-5.982210">
        <ele>859.208</ele>
        <time>2020-05-23T00:54:10Z</time>
      </trkpt>
      <trkpt lat="43.091900" lon="-5.982230">
        <ele>860.356</ele>
        <time>2020-05-23T00:54:30Z</time>
      </trkpt>
      <trkpt lat="43.091950" lon="-5.982240">
        <ele>861.151</ele>
        <time>2020-05-23T00:54:50Z</time>
      </trkpt>
      <trkpt lat="43.092040" lon="-5.982270">
        <ele>863.228</ele>
        <time>2020-05-23T00:55:10Z</time>
      </trkpt>
      <trkpt lat="43.092070" lon="-5.982260">
        <ele>862.814</ele>
        <time>2020-05-23T00:55:30Z</time>
      </trkpt>
      <trkpt lat="43.092100" lon="-5.982250">
        <ele>862.573</ele>
        <time>2020-05-23T00:55:50Z</time>
      </trkpt>
      <trkpt lat="43.092130" lon="-5.982240">
        <ele>862.234</ele>
        <time>2020-05-23T00:56:10Z</time>
      </trkpt>
      <trkpt lat="43.092160" lon="-5.982220">
        <ele>861.523</ele>
        <time>2020-05-23T00:56:30Z</time>
      </trkpt>
      <trkpt lat="43.092190" lon="-5.982210">
        <ele>861.226</ele>
        <time>2020-05-23T00:56:50Z</time>
      </trkpt>
      <trkpt lat="43.092230" lon="-5.982190">
        <ele>860.654</ele>
        <time>2020-05-23T00:57:10Z</time>
      </trkpt>
      <trkpt lat="43.092290" lon="-5.982150">
        <ele>859.556</ele>
        <time>2020-05-23T00:57:30Z</time>
      </trkpt>
      <trkpt lat="43.092300" lon="-5.982140">
        <ele>859.111</ele>
        <time>2020-05-23T00:57:50Z</time>
      </trkpt>
      <trkpt lat="43.092430" lon="-5.982080">
        <ele>857.608</ele>
        <time>2020-05-23T00:58:10Z</time>
      </trkpt>
      <trkpt lat="43.092460" lon="-5.982070">
        <ele>857.419</ele>
        <time>2020-05-23T00:58:30Z</time>
      </trkpt>
      <trkpt lat="43.092470" lon="-5.982060">
        <ele>856.964</ele>
        <time>2020-05-23T00:58:50Z</time>
      </trkpt>
      <trkpt lat="43.092520" lon="-5.982060">
        <ele>857.121</ele>
        <time>2020-05-23T00:59:10Z</time>
      </trkpt>
      <trkpt lat="43.092600" lon="-5.982060">
        <ele>856.767</ele>
        <time>2020-05-23T00:59:30Z</time>
      </trkpt>
      <trkpt lat="43.092640" lon="-5.982060">
        <ele>856.556</ele>
        <time>2020-05-23T00:59:50Z</time>
      </trkpt>
      <trkpt lat="43.092720" lon="-5.982080">
        <ele>857.187</ele>
        <time>2020-05-23T01:00:10Z</time>
      </trkpt>
      <trkpt lat="43.092820" lon="-5.982100">
        <ele>857.996</ele>
        <time>2020-05-23T01:00:30Z</time>
      </trkpt>
      <trkpt lat="43.092840" lon="-5.982100">
        <ele>858.079</ele>
        <time>2020-05-23T01:00:50Z</time>
      </trkpt>
      <trkpt lat="43.092860" lon="-5.982100">
        <ele>858.095</ele>
        <time>2020-05-23T01:01:10Z</time>
      </trkpt>
      <trkpt lat="43.092870" lon="-5.982100">
        <ele>858.049</ele>
        <time>2020-05-23T01:01:30Z</time>
      </trkpt>
      <trkpt lat="43.092890" lon="-5.982090">
        <ele>857.523</ele>
        <time>2020-05-23T01:01:50Z</time>
      </trkpt>
      <trkpt lat="43.092940" lon="-5.982070">
        <ele>856.608</ele>
        <time>2020-05-23T01:02:10Z</time>
      </trkpt>
      <trkpt lat="43.092980" lon="-5.982050">
        <ele>855.623</ele>
        <time>2020-05-23T01:02:30Z</time>
      </trkpt>
      <trkpt lat="43.092990" lon="-5.982040">
        <ele>855.158</ele>
        <time>2020-05-23T01:02:50Z</time>
      </trkpt>
      <trkpt lat="43.093050" lon="-5.981990">
        <ele>852.595</ele>
        <time>2020-05-23T01:03:10Z</time>
      </trkpt>
      <trkpt lat="43.093150" lon="-5.981920">
        <ele>851.991</ele>
        <time>2020-05-23T01:03:30Z</time>
      </trkpt>
      <trkpt lat="43.093230" lon="-5.981860">
        <ele>851.830</ele>
        <time>2020-05-23T01:03:50Z</time>
      </trkpt>
      <trkpt lat="43.093310" lon="-5.981800">
        <ele>850.851</ele>
        <time>2020-05-23T01:04:10Z</time>
      </trkpt>
      <trkpt lat="43.093460" lon="-5.981670">
        <ele>848.450</ele>
        <time>2020-05-23T01:04:30Z</time>
      </trkpt>
      <trkpt lat="43.093650" lon="-5.981450">
        <ele>843.363</ele>
        <time>2020-05-23T01:04:50Z</time>
      </trkpt>
      <trkpt lat="43.093730" lon="-5.981350">
        <ele>842.718</ele>
        <time>2020-05-23T01:05:10Z</time>
      </trkpt>
      <trkpt lat="43.093790" lon="-5.981260">
        <ele>842.598</ele>
        <time>2020-05-23T01:05:30Z</time>
      </trkpt>
      <trkpt lat="43.093850" lon="-5.981170">
        <ele>842.317</ele>
        <time>2020-05-23T01:05:50Z</time>
      </trkpt>
      <trkpt lat="43.093860" lon="-5.981150">
        <ele>842.108</ele>
        <time>2020-05-23T01:06:10Z</time>
      </trkpt>
      <trkpt lat="43.093980" lon="-5.980870">
        <ele>840.585</ele>
        <time>2020-05-23T01:06:30Z</time>
      </trkpt>
      <trkpt lat="43.094030" lon="-5.980740">
        <ele>839.140</ele>
        <time>2020-05-23T01:06:50Z</time>
      </trkpt>
      <trkpt lat="43.094130" lon="-5.980530">
        <ele>836.957</ele>
        <time>2020-05-23T01:07:10Z</time>
      </trkpt>
      <trkpt lat="43.094140" lon="-5.980490">
        <ele>836.123</ele>
        <time>2020-05-23T01:07:30Z</time>
      </trkpt>
      <trkpt lat="43.094220" lon="-5.980320">
        <ele>833.642</ele>
        <time>2020-05-23T01:07:50Z</time>
      </trkpt>
      <trkpt lat="43.094240" lon="-5.980300">
        <ele>833.573</ele>
        <time>2020-05-23T01:08:10Z</time>
      </trkpt>
      <trkpt lat="43.094330" lon="-5.980140">
        <ele>830.922</ele>
        <time>2020-05-23T01:08:30Z</time>
      </trkpt>
      <trkpt lat="43.094340" lon="-5.980130">
        <ele>830.935</ele>
        <time>2020-05-23T01:08:50Z</time>
      </trkpt>
      <trkpt lat="43.094450" lon="-5.980000">
        <ele>830.067</ele>
        <time>2020-05-23T01:09:10Z</time>
      </trkpt>
      <trkpt lat="43.094470" lon="-5.979980">
        <ele>829.481</ele>
        <time>2020-05-23T01:09:30Z</time>
      </trkpt>
      <trkpt lat="43.094500" lon="-5.979960">
        <ele>828.819</ele>
        <time>2020-05-23T01:09:50Z</time>
      </trkpt>
      <trkpt lat="43.094550" lon="-5.979940">
        <ele>828.308</ele>
        <time>2020-05-23T01:10:10Z</time>
      </trkpt>
      <trkpt lat="43.094620" lon="-5.979930">
        <ele>828.080</ele>
        <time>2020-05-23T01:10:30Z</time>
      </trkpt>
      <trkpt lat="43.094650" lon="-5.979930">
        <ele>828.015</ele>
        <time>2020-05-23T01:10:50Z</time>
      </trkpt>
      <trkpt lat="43.094670" lon="-5.979930">
        <ele>828.042</ele>
        <time>2020-05-23T01:11:10Z</time>
      </trkpt>
      <trkpt lat="43.094740" lon="-5.979950">
        <ele>828.228</ele>
        <time>2020-05-23T01:11:30Z</time>
      </trkpt>
      <trkpt lat="43.094820" lon="-5.979990">
        <ele>828.067</ele>
        <time>2020-05-23T01:11:50Z</time>
      </trkpt>
      <trkpt lat="43.094840" lon="-5.979990">
        <ele>827.628</ele>
        <time>2020-05-23T01:12:10Z</time>
      </trkpt>
      <trkpt lat="43.094980" lon="-5.980060">
        <ele>827.147</ele>
        <time>2020-05-23T01:12:30Z</time>
      </trkpt>
      <trkpt lat="43.094990" lon="-5.980070">
        <ele>827.210</ele>
        <time>2020-05-23T01:12:50Z</time>
      </trkpt>
      <trkpt lat="43.095210" lon="-5.980210">
        <ele>825.969</ele>
        <time>2020-05-23T01:13:10Z</time>
      </trkpt>
      <trkpt lat="43.095300" lon="-5.980300">
        <ele>824.804</ele>
        <time>2020-05-23T01:13:30Z</time>
      </trkpt>
      <trkpt lat="43.095310" lon="-5.980310">
        <ele>824.724</ele>
        <time>2020-05-23T01:13:50Z</time>
      </trkpt>
      <trkpt lat="43.095340" lon="-5.980350">
        <ele>824.408</ele>
        <time>2020-05-23T01:14:10Z</time>
      </trkpt>
      <trkpt lat="43.095360" lon="-5.980450">
        <ele>825.320</ele>
        <time>2020-05-23T01:14:30Z</time>
      </trkpt>
      <trkpt lat="43.095380" lon="-5.980530">
        <ele>825.595</ele>
        <time>2020-05-23T01:14:50Z</time>
      </trkpt>
      <trkpt lat="43.095390" lon="-5.980560">
        <ele>825.492</ele>
        <time>2020-05-23T01:15:10Z</time>
      </trkpt>
      <trkpt lat="43.095420" lon="-5.980740">
        <ele>825.128</ele>
        <time>2020-05-23T01:15:30Z</time>
      </trkpt>
      <trkpt lat="43.095420" lon="-5.980770">
        <ele>825.467</ele>
        <time>2020-05-23T01:15:50Z</time>
      </trkpt>
      <trkpt lat="43.095440" lon="-5.980820">
        <ele>824.638</ele>
        <time>2020-05-23T01:16:10Z</time>
      </trkpt>
      <trkpt lat="43.095470" lon="-5.980890">
        <ele>823.647</ele>
        <time>2020-05-23T01:16:30Z</time>
      </trkpt>
      <trkpt lat="43.095510" lon="-5.980980">
        <ele>822.320</ele>
        <time>2020-05-23T01:16:50Z</time>
      </trkpt>
      <trkpt lat="43.095530" lon="-5.981000">
        <ele>821.332</ele>
        <time>2020-05-23T01:17:10Z</time>
      </trkpt>
      <trkpt lat="43.095560" lon="-5.981050">
        <ele>820.492</ele>
        <time>2020-05-23T01:17:30Z</time>
      </trkpt>
      <trkpt lat="43.095610" lon="-5.981080">
        <ele>821.111</ele>
        <time>2020-05-23T01:17:50Z</time>
      </trkpt>
      <trkpt lat="43.095640" lon="-5.981090">
        <ele>821.508</ele>
        <time>2020-05-23T01:18:10Z</time>
      </trkpt>
      <trkpt lat="43.095660" lon="-5.981100">
        <ele>821.967</ele>
        <time>2020-05-23T01:18:30Z</time>
      </trkpt>
      <trkpt lat="43.095680" lon="-5.981100">
        <ele>822.122</ele>
        <time>2020-05-23T01:18:50Z</time>
      </trkpt>
      <trkpt lat="43.095730" lon="-5.981090">
        <ele>822.349</ele>
        <time>2020-05-23T01:19:10Z</time>
      </trkpt>
      <trkpt lat="43.095790" lon="-5.981070">
        <ele>822.195</ele>
        <time>2020-05-23T01:19:30Z</time>
      </trkpt>
      <trkpt lat="43.095840" lon="-5.981040">
        <ele>821.394</ele>
        <time>2020-05-23T01:19:50Z</time>
      </trkpt>
      <trkpt lat="43.095850" lon="-5.981030">
        <ele>821.085</ele>
        <time>2020-05-23T01:20:10Z</time>
      </trkpt>
      <trkpt lat="43.095920" lon="-5.980970">
        <ele>819.734</ele>
        <time>2020-05-23T01:20:30Z</time>
      </trkpt>
      <trkpt lat="43.096050" lon="-5.980850">
        <ele>816.867</ele>
        <time>2020-05-23T01:20:50Z</time>
      </trkpt>
      <trkpt lat="43.096110" lon="-5.980800">
        <ele>815.865</ele>
        <time>2020-05-23T01:21:10Z</time>
      </trkpt>
      <trkpt lat="43.096150" lon="-5.980780">
        <ele>814.868</ele>
        <time>2020-05-23T01:21:30Z</time>
      </trkpt>
      <trkpt lat="43.096190" lon="-5.980780">
        <ele>814.614</ele>
        <time>2020-05-23T01:21:50Z</time>
      </trkpt>
      <trkpt lat="43.096220" lon="-5.980770">
        <ele>814.008</ele>
        <time>2020-05-23T01:22:10Z</time>
      </trkpt>
      <trkpt lat="43.096250" lon="-5.980770">
        <ele>813.820</ele>
        <time>2020-05-23T01:22:30Z</time>
      </trkpt>
      <trkpt lat="43.096290" lon="-5.980770">
        <ele>813.685</ele>
        <time>2020-05-23T01:22:50Z</time>
      </trkpt>
      <trkpt lat="43.096320" lon="-5.980770">
        <ele>813.422</ele>
        <time>2020-05-23T01:23:10Z</time>
      </trkpt>
      <trkpt lat="43.096330" lon="-5.980770">
        <ele>813.388</ele>
        <time>2020-05-23T01:23:30Z</time>
      </trkpt>
      <trkpt lat="43.096360" lon="-5.980770">
        <ele>813.127</ele>
        <time>2020-05-23T01:23:50Z</time>
      </trkpt>
      <trkpt lat="43.096410" lon="-5.980780">
        <ele>812.928</ele>
        <time>2020-05-23T01:24:10Z</time>
      </trkpt>
      <trkpt lat="43.096450" lon="-5.980790">
        <ele>812.497</ele>
        <time>2020-05-23T01:24:30Z</time>
      </trkpt>
      <trkpt lat="43.096510" lon="-5.980810">
        <ele>811.790</ele>
        <time>2020-05-23T01:24:50Z</time>
      </trkpt>
      <trkpt lat="43.096600" lon="-5.980850">
        <ele>810.926</ele>
        <time>2020-05-23T01:25:10Z</time>
      </trkpt>
      <trkpt lat="43.096810" lon="-5.980950">
        <ele>809.847</ele>
        <time>2020-05-23T01:25:30Z</time>
      </trkpt>
      <trkpt lat="43.096840" lon="-5.980970">
        <ele>809.811</ele>
        <time>2020-05-23T01:25:50Z</time>
      </trkpt>
      <trkpt lat="43.097010" lon="-5.981070">
        <ele>809.408</ele>
        <time>2020-05-23T01:26:10Z</time>
      </trkpt>
      <trkpt lat="43.097130" lon="-5.981130">
        <ele>808.616</ele>
        <time>2020-05-23T01:26:30Z</time>
      </trkpt>
      <trkpt lat="43.097350" lon="-5.981230">
        <ele>806.631</ele>
        <time>2020-05-23T01:26:50Z</time>
      </trkpt>
      <trkpt lat="43.097790" lon="-5.981440">
        <ele>800.888</ele>
        <time>2020-05-23T01:27:10Z</time>
      </trkpt>
      <trkpt lat="43.097860" lon="-5.981470">
        <ele>800.664</ele>
        <time>2020-05-23T01:27:30Z</time>
      </trkpt>
      <trkpt lat="43.098110" lon="-5.981600">
        <ele>800.643</ele>
        <time>2020-05-23T01:27:50Z</time>
      </trkpt>
      <trkpt lat="43.098140" lon="-5.981610">
        <ele>800.784</ele>
        <time>2020-05-23T01:28:10Z</time>
      </trkpt>
      <trkpt lat="43.098170" lon="-5.981620">
        <ele>800.883</ele>
        <time>2020-05-23T01:28:30Z</time>
      </trkpt>
      <trkpt lat="43.098210" lon="-5.981620">
        <ele>800.786</ele>
        <time>2020-05-23T01:28:50Z</time>
      </trkpt>
      <trkpt lat="43.098240" lon="-5.981630">
        <ele>800.952</ele>
        <time>2020-05-23T01:29:10Z</time>
      </trkpt>
      <trkpt lat="43.098290" lon="-5.981620">
        <ele>800.553</ele>
        <time>2020-05-23T01:29:30Z</time>
      </trkpt>
      <trkpt lat="43.098340" lon="-5.981620">
        <ele>800.408</ele>
        <time>2020-05-23T01:29:50Z</time>
      </trkpt>
      <trkpt lat="43.098380" lon="-5.981610">
        <ele>800.308</ele>
        <time>2020-05-23T01:30:10Z</time>
      </trkpt>
      <trkpt lat="43.098400" lon="-5.981610">
        <ele>800.549</ele>
        <time>2020-05-23T01:30:30Z</time>
      </trkpt>
      <trkpt lat="43.098460" lon="-5.981590">
        <ele>800.114</ele>
        <time>2020-05-23T01:30:50Z</time>
      </trkpt>
      <trkpt lat="43.098520" lon="-5.981580">
        <ele>800.111</ele>
        <time>2020-05-23T01:31:10Z</time>
      </trkpt>
      <trkpt lat="43.098550" lon="-5.981570">
        <ele>799.827</ele>
        <time>2020-05-23T01:31:30Z</time>
      </trkpt>
      <trkpt lat="43.098600" lon="-5.981570">
        <ele>800.116</ele>
        <time>2020-05-23T01:31:50Z</time>
      </trkpt>
      <trkpt lat="43.098700" lon="-5.981550">
        <ele>797.757</ele>
        <time>2020-05-23T01:32:10Z</time>
      </trkpt>
      <trkpt lat="43.098730" lon="-5.981540">
        <ele>796.876</ele>
        <time>2020-05-23T01:32:30Z</time>
      </trkpt>
      <trkpt lat="43.098760" lon="-5.981540">
        <ele>796.489</ele>
        <time>2020-05-23T01:32:50Z</time>
      </trkpt>
      <trkpt lat="43.098850" lon="-5.981530">
        <ele>794.662</ele>
        <time>2020-05-23T01:33:10Z</time>
      </trkpt>
      <trkpt lat="43.098880" lon="-5.981530">
        <ele>794.283</ele>
        <time>2020-05-23T01:33:30Z</time>
      </trkpt>
      <trkpt lat="43.098910" lon="-5.981540">
        <ele>793.911</ele>
        <time>2020-05-23T01:33:50Z</time>
      </trkpt>
      <trkpt lat="43.098940" lon="-5.981550">
        <ele>793.608</ele>
        <time>2020-05-23T01:34:10Z</time>
      </trkpt>
      <trkpt lat="43.099000" lon="-5.981570">
        <ele>792.710</ele>
        <time>2020-05-23T01:34:30Z</time>
      </trkpt>
      <trkpt lat="43.099030" lon="-5.981580">
        <ele>792.345</ele>
        <time>2020-05-23T01:34:50Z</time>
      </trkpt>
      <trkpt lat="43.099080" lon="-5.981610">
        <ele>791.912</ele>
        <time>2020-05-23T01:35:10Z</time>
      </trkpt>
      <trkpt lat="43.099130" lon="-5.981620">
        <ele>790.868</ele>
        <time>2020-05-23T01:35:30Z</time>
      </trkpt>
      <trkpt lat="43.099180" lon="-5.981640">
        <ele>790.257</ele>
        <time>2020-05-23T01:35:50Z</time>
      </trkpt>
      <trkpt lat="43.099250" lon="-5.981640">
        <ele>789.718</ele>
        <time>2020-05-23T01:36:10Z</time>
      </trkpt>
      <trkpt lat="43.099260" lon="-5.981650">
        <ele>789.947</ele>
        <time>2020-05-23T01:36:30Z</time>
      </trkpt>
      <trkpt lat="43.099300" lon="-5.981650">
        <ele>789.670</ele>
        <time>2020-05-23T01:36:50Z</time>
      </trkpt>
      <trkpt lat="43.099340" lon="-5.981650">
        <ele>789.318</ele>
        <time>2020-05-23T01:37:10Z</time>
      </trkpt>
      <trkpt lat="43.099400" lon="-5.981650">
        <ele>788.898</ele>
        <time>2020-05-23T01:37:30Z</time>
      </trkpt>
      <trkpt lat="43.099440" lon="-5.981660">
        <ele>788.817</ele>
        <time>2020-05-23T01:37:50Z</time>
      </trkpt>
      <trkpt lat="43.099460" lon="-5.981660">
        <ele>788.608</ele>
        <time>2020-05-23T01:38:10Z</time>
      </trkpt>
      <trkpt lat="43.099520" lon="-5.981660">
        <ele>788.045</ele>
        <time>2020-05-23T01:38:30Z</time>
      </trkpt>
      <trkpt lat="43.099620" lon="-5.981670">
        <ele>787.260</ele>
        <time>2020-05-23T01:38:50Z</time>
      </trkpt>
      <trkpt lat="43.099650" lon="-5.981680">
        <ele>787.297</ele>
        <time>2020-05-23T01:39:10Z</time>
      </trkpt>
      <trkpt lat="43.099930" lon="-5.981720">
        <ele>784.973</ele>
        <time>2020-05-23T01:39:30Z</time>
      </trkpt>
      <trkpt lat="43.099980" lon="-5.981730">
        <ele>784.452</ele>
        <time>2020-05-23T01:39:50Z</time>
      </trkpt>
      <trkpt lat="43.100100" lon="-5.981740">
        <ele>783.523</ele>
        <time>2020-05-23T01:40:10Z</time>
      </trkpt>
      <trkpt lat="43.100170" lon="-5.981740">
        <ele>783.092</ele>
        <time>2020-05-23T01:40:30Z</time>
      </trkpt>
      <trkpt lat="43.100210" lon="-5.981740">
        <ele>782.735</ele>
        <time>2020-05-23T01:40:50Z</time>
      </trkpt>
      <trkpt lat="43.100240" lon="-5.981740">
        <ele>782.424</ele>
        <time>2020-05-23T01:41:10Z</time>
      </trkpt>
      <trkpt lat="43.100270" lon="-5.981740">
        <ele>782.204</ele>
        <time>2020-05-23T01:41:30Z</time>
      </trkpt>
      <trkpt lat="43.100310" lon="-5.981730">
        <ele>781.814</ele>
        <time>2020-05-23T01:41:50Z</time>
      </trkpt>
      <trkpt lat="43.100340" lon="-5.981730">
        <ele>781.808</ele>
        <time>2020-05-23T01:42:10Z</time>
      </trkpt>
      <trkpt lat="43.100410" lon="-5.981720">
        <ele>781.576</ele>
        <time>2020-05-23T01:42:30Z</time>
      </trkpt>
      <trkpt lat="43.100440" lon="-5.981710">
        <ele>781.291</ele>
        <time>2020-05-23T01:42:50Z</time>
      </trkpt>
      <trkpt lat="43.100480" lon="-5.981700">
        <ele>781.018</ele>
        <time>2020-05-23T01:43:10Z</time>
      </trkpt>
      <trkpt lat="43.100510" lon="-5.981690">
        <ele>780.774</ele>
        <time>2020-05-23T01:43:30Z</time>
      </trkpt>
      <trkpt lat="43.100540" lon="-5.981670">
        <ele>780.143</ele>
        <time>2020-05-23T01:43:50Z</time>
      </trkpt>
      <trkpt lat="43.100680" lon="-5.981600">
        <ele>778.334</ele>
        <time>2020-05-23T01:44:10Z</time>
      </trkpt>
      <trkpt lat="43.100690" lon="-5.981600">
        <ele>778.333</ele>
        <time>2020-05-23T01:44:30Z</time>
      </trkpt>
      <trkpt lat="43.100940" lon="-5.981470">
        <ele>775.666</ele>
        <time>2020-05-23T01:44:50Z</time>
      </trkpt>
      <trkpt lat="43.100945" lon="-5.981475">
        <ele>775.884</ele>
        <time>2020-05-23T01:45:10Z</time>
      </trkpt>
      <trkpt lat="43.101190" lon="-5.981370">
        <ele>773.307</ele>
        <time>2020-05-23T01:45:30Z</time>
      </trkpt>
      <trkpt lat="43.101230" lon="-5.981360">
        <ele>773.017</ele>
        <time>2020-05-23T01:45:50Z</time>
      </trkpt>
      <trkpt lat="43.101260" lon="-5.981360">
        <ele>772.908</ele>
        <time>2020-05-23T01:46:10Z</time>
      </trkpt>
      <trkpt lat="43.101270" lon="-5.981360">
        <ele>772.922</ele>
        <time>2020-05-23T01:46:30Z</time>
      </trkpt>
      <trkpt lat="43.101300" lon="-5.981360">
        <ele>772.867</ele>
        <time>2020-05-23T01:46:50Z</time>
      </trkpt>
      <trkpt lat="43.101320" lon="-5.981360">
        <ele>772.814</ele>
        <time>2020-05-23T01:47:10Z</time>
      </trkpt>
      <trkpt lat="43.101360" lon="-5.981350">
        <ele>772.580</ele>
        <time>2020-05-23T01:47:30Z</time>
      </trkpt>
      <trkpt lat="43.101540" lon="-5.981360">
        <ele>769.919</ele>
        <time>2020-05-23T01:47:50Z</time>
      </trkpt>
      <trkpt lat="43.101620" lon="-5.981360">
        <ele>768.510</ele>
        <time>2020-05-23T01:48:10Z</time>
      </trkpt>
      <trkpt lat="43.101630" lon="-5.981360">
        <ele>768.369</ele>
        <time>2020-05-23T01:48:30Z</time>
      </trkpt>
      <trkpt lat="43.101670" lon="-5.981360">
        <ele>767.722</ele>
        <time>2020-05-23T01:48:50Z</time>
      </trkpt>
      <trkpt lat="43.101700" lon="-5.981350">
        <ele>767.819</ele>
        <time>2020-05-23T01:49:10Z</time>
      </trkpt>
      <trkpt lat="43.101740" lon="-5.981340">
        <ele>768.009</ele>
        <time>2020-05-23T01:49:30Z</time>
      </trkpt>
      <trkpt lat="43.101760" lon="-5.981330">
        <ele>768.019</ele>
        <time>2020-05-23T01:49:50Z</time>
      </trkpt>
      <trkpt lat="43.101780" lon="-5.981330">
        <ele>768.208</ele>
        <time>2020-05-23T01:50:10Z</time>
      </trkpt>
      <trkpt lat="43.101800" lon="-5.981320">
        <ele>768.255</ele>
        <time>2020-05-23T01:50:30Z</time>
      </trkpt>
      <trkpt lat="43.101810" lon="-5.981310">
        <ele>768.210</ele>
        <time>2020-05-23T01:50:50Z</time>
      </trkpt>
      <trkpt lat="43.101820" lon="-5.981300">
        <ele>768.187</ele>
        <time>2020-05-23T01:51:10Z</time>
      </trkpt>
      <trkpt lat="43.101840" lon="-5.981290">
        <ele>768.223</ele>
        <time>2020-05-23T01:51:30Z</time>
      </trkpt>
      <trkpt lat="43.101850" lon="-5.981270">
        <ele>768.082</ele>
        <time>2020-05-23T01:51:50Z</time>
      </trkpt>
      <trkpt lat="43.101870" lon="-5.981250">
        <ele>768.073</ele>
        <time>2020-05-23T01:52:10Z</time>
      </trkpt>
      <trkpt lat="43.101940" lon="-5.981140">
        <ele>767.322</ele>
        <time>2020-05-23T01:52:30Z</time>
      </trkpt>
      <trkpt lat="43.101950" lon="-5.981130">
        <ele>767.325</ele>
        <time>2020-05-23T01:52:50Z</time>
      </trkpt>
      <trkpt lat="43.102140" lon="-5.980810">
        <ele>765.261</ele>
        <time>2020-05-23T01:53:10Z</time>
      </trkpt>
      <trkpt lat="43.102170" lon="-5.980760">
        <ele>764.821</ele>
        <time>2020-05-23T01:53:30Z</time>
      </trkpt>
      <trkpt lat="43.102330" lon="-5.980530">
        <ele>763.513</ele>
        <time>2020-05-23T01:53:50Z</time>
      </trkpt>
      <trkpt lat="43.102390" lon="-5.980450">
        <ele>762.808</ele>
        <time>2020-05-23T01:54:10Z</time>
      </trkpt>
      <trkpt lat="43.102420" lon="-5.980410">
        <ele>762.520</ele>
        <time>2020-05-23T01:54:30Z</time>
      </trkpt>
      <trkpt lat="43.102440" lon="-5.980390">
        <ele>762.335</ele>
        <time>2020-05-23T01:54:50Z</time>
      </trkpt>
      <trkpt lat="43.102450" lon="-5.980370">
        <ele>762.142</ele>
        <time>2020-05-23T01:55:10Z</time>
      </trkpt>
      <trkpt lat="43.102470" lon="-5.980350">
        <ele>761.978</ele>
        <time>2020-05-23T01:55:30Z</time>
      </trkpt>
      <trkpt lat="43.102490" lon="-5.980340">
        <ele>761.947</ele>
        <time>2020-05-23T01:55:50Z</time>
      </trkpt>
      <trkpt lat="43.102510" lon="-5.980330">
        <ele>761.788</ele>
        <time>2020-05-23T01:56:10Z</time>
      </trkpt>
      <trkpt lat="43.102530" lon="-5.980320">
        <ele>761.437</ele>
        <time>2020-05-23T01:56:30Z</time>
      </trkpt>
      <trkpt lat="43.102550" lon="-5.980320">
        <ele>761.380</ele>
        <time>2020-05-23T01:56:50Z</time>
      </trkpt>
      <trkpt lat="43.102590" lon="-5.980300">
        <ele>760.727</ele>
        <time>2020-05-23T01:57:10Z</time>
      </trkpt>
      <trkpt lat="43.102630" lon="-5.980290">
        <ele>760.368</ele>
        <time>2020-05-23T01:57:30Z</time>
      </trkpt>
      <trkpt lat="43.102650" lon="-5.980280">
        <ele>760.014</ele>
        <time>2020-05-23T01:57:50Z</time>
      </trkpt>
      <trkpt lat="43.102700" lon="-5.980280">
        <ele>759.608</ele>
        <time>2020-05-23T01:58:10Z</time>
      </trkpt>
      <trkpt lat="43.102740" lon="-5.980270">
        <ele>759.266</ele>
        <time>2020-05-23T01:58:30Z</time>
      </trkpt>
      <trkpt lat="43.102800" lon="-5.980270">
        <ele>758.751</ele>
        <time>2020-05-23T01:58:50Z</time>
      </trkpt>
      <trkpt lat="43.102810" lon="-5.980270">
        <ele>758.738</ele>
        <time>2020-05-23T01:59:10Z</time>
      </trkpt>
      <trkpt lat="43.102990" lon="-5.980260">
        <ele>757.214</ele>
        <time>2020-05-23T01:59:30Z</time>
      </trkpt>
      <trkpt lat="43.103210" lon="-5.980250">
        <ele>755.483</ele>
        <time>2020-05-23T01:59:50Z</time>
      </trkpt>
      <trkpt lat="43.103350" lon="-5.980240">
        <ele>754.324</ele>
        <time>2020-05-23T02:00:10Z</time>
      </trkpt>
      <trkpt lat="43.103840" lon="-5.980190">
        <ele>751.623</ele>
        <time>2020-05-23T02:00:30Z</time>
      </trkpt>
      <trkpt lat="43.104070" lon="-5.980190">
        <ele>749.756</ele>
        <time>2020-05-23T02:00:50Z</time>
      </trkpt>
      <trkpt lat="43.104430" lon="-5.980180">
        <ele>747.021</ele>
        <time>2020-05-23T02:01:10Z</time>
      </trkpt>
      <trkpt lat="43.104480" lon="-5.980180">
        <ele>746.641</ele>
        <time>2020-05-23T02:01:30Z</time>
      </trkpt>
      <trkpt lat="43.104550" lon="-5.980180">
        <ele>746.105</ele>
        <time>2020-05-23T02:01:50Z</time>
      </trkpt>
      <trkpt lat="43.104610" lon="-5.980190">
        <ele>745.908</ele>
        <time>2020-05-23T02:02:10Z</time>
      </trkpt>
      <trkpt lat="43.104620" lon="-5.980190">
        <ele>745.816</ele>
        <time>2020-05-23T02:02:30Z</time>
      </trkpt>
      <trkpt lat="43.104670" lon="-5.980200">
        <ele>745.761</ele>
        <time>2020-05-23T02:02:50Z</time>
      </trkpt>
      <trkpt lat="43.104710" lon="-5.980220">
        <ele>745.858</ele>
        <time>2020-05-23T02:03:10Z</time>
      </trkpt>
      <trkpt lat="43.104790" lon="-5.980240">
        <ele>744.944</ele>
        <time>2020-05-23T02:03:30Z</time>
      </trkpt>
      <trkpt lat="43.105130" lon="-5.980360">
        <ele>743.043</ele>
        <time>2020-05-23T02:03:50Z</time>
      </trkpt>
      <trkpt lat="43.105310" lon="-5.980420">
        <ele>741.254</ele>
        <time>2020-05-23T02:04:10Z</time>
      </trkpt>
      <trkpt lat="43.105350" lon="-5.980440">
        <ele>741.293</ele>
        <time>2020-05-23T02:04:30Z</time>
      </trkpt>
      <trkpt lat="43.105380" lon="-5.980440">
        <ele>740.876</ele>
        <time>2020-05-23T02:04:50Z</time>
      </trkpt>
      <trkpt lat="43.105410" lon="-5.980440">
        <ele>740.414</ele>
        <time>2020-05-23T02:05:10Z</time>
      </trkpt>
      <trkpt lat="43.105460" lon="-5.980450">
        <ele>740.054</ele>
        <time>2020-05-23T02:05:30Z</time>
      </trkpt>
      <trkpt lat="43.105490" lon="-5.980450">
        <ele>739.609</ele>
        <time>2020-05-23T02:05:50Z</time>
      </trkpt>
      <trkpt lat="43.105500" lon="-5.980450">
        <ele>739.408</ele>
        <time>2020-05-23T02:06:10Z</time>
      </trkpt>
      <trkpt lat="43.105550" lon="-5.980450">
        <ele>738.825</ele>
        <time>2020-05-23T02:06:30Z</time>
      </trkpt>
      <trkpt lat="43.105590" lon="-5.980450">
        <ele>738.730</ele>
        <time>2020-05-23T02:06:50Z</time>
      </trkpt>
      <trkpt lat="43.105630" lon="-5.980440">
        <ele>738.417</ele>
        <time>2020-05-23T02:07:10Z</time>
      </trkpt>
      <trkpt lat="43.105690" lon="-5.980440">
        <ele>738.373</ele>
        <time>2020-05-23T02:07:30Z</time>
      </trkpt>
      <trkpt lat="43.105780" lon="-5.980430">
        <ele>737.982</ele>
        <time>2020-05-23T02:07:50Z</time>
      </trkpt>
      <trkpt lat="43.105830" lon="-5.980430">
        <ele>737.823</ele>
        <time>2020-05-23T02:08:10Z</time>
      </trkpt>
      <trkpt lat="43.105890" lon="-5.980430">
        <ele>737.172</ele>
        <time>2020-05-23T02:08:30Z</time>
      </trkpt>
      <trkpt lat="43.105940" lon="-5.980430">
        <ele>736.595</ele>
        <time>2020-05-23T02:08:50Z</time>
      </trkpt>
      <trkpt lat="43.105990" lon="-5.980430">
        <ele>735.997</ele>
        <time>2020-05-23T02:09:10Z</time>
      </trkpt>
      <trkpt lat="43.106030" lon="-5.980430">
        <ele>735.423</ele>
        <time>2020-05-23T02:09:30Z</time>
      </trkpt>
      <trkpt lat="43.106130" lon="-5.980440">
        <ele>734.625</ele>
        <time>2020-05-23T02:09:50Z</time>
      </trkpt>
      <trkpt lat="43.106350" lon="-5.980460">
        <ele>733.808</ele>
        <time>2020-05-23T02:10:10Z</time>
      </trkpt>
      <trkpt lat="43.106700" lon="-5.980440">
        <ele>729.463</ele>
        <time>2020-05-23T02:10:30Z</time>
      </trkpt>
      <trkpt lat="43.106760" lon="-5.980430">
        <ele>729.198</ele>
        <time>2020-05-23T02:10:50Z</time>
      </trkpt>
      <trkpt lat="43.106820" lon="-5.980420">
        <ele>728.845</ele>
        <time>2020-05-23T02:11:10Z</time>
      </trkpt>
      <trkpt lat="43.106870" lon="-5.980400">
        <ele>728.351</ele>
        <time>2020-05-23T02:11:30Z</time>
      </trkpt>
      <trkpt lat="43.106910" lon="-5.980380">
        <ele>727.990</ele>
        <time>2020-05-23T02:11:50Z</time>
      </trkpt>
      <trkpt lat="43.106920" lon="-5.980380">
        <ele>727.941</ele>
        <time>2020-05-23T02:12:10Z</time>
      </trkpt>
      <trkpt lat="43.106950" lon="-5.980360">
        <ele>727.630</ele>
        <time>2020-05-23T02:12:30Z</time>
      </trkpt>
      <trkpt lat="43.106990" lon="-5.980340">
        <ele>727.863</ele>
        <time>2020-05-23T02:12:50Z</time>
      </trkpt>
      <trkpt lat="43.107030" lon="-5.980300">
        <ele>727.722</ele>
        <time>2020-05-23T02:13:10Z</time>
      </trkpt>
      <trkpt lat="43.107080" lon="-5.980270">
        <ele>727.862</ele>
        <time>2020-05-23T02:13:30Z</time>
      </trkpt>
      <trkpt lat="43.107120" lon="-5.980220">
        <ele>727.108</ele>
        <time>2020-05-23T02:13:50Z</time>
      </trkpt>
      <trkpt lat="43.107160" lon="-5.980180">
        <ele>726.708</ele>
        <time>2020-05-23T02:14:10Z</time>
      </trkpt>
      <trkpt lat="43.107200" lon="-5.980130">
        <ele>726.026</ele>
        <time>2020-05-23T02:14:30Z</time>
      </trkpt>
      <trkpt lat="43.107360" lon="-5.979930">
        <ele>724.571</ele>
        <time>2020-05-23T02:14:50Z</time>
      </trkpt>
      <trkpt lat="43.107410" lon="-5.979860">
        <ele>723.958</ele>
        <time>2020-05-23T02:15:10Z</time>
      </trkpt>
      <trkpt lat="43.107450" lon="-5.979810">
        <ele>723.474</ele>
        <time>2020-05-23T02:15:30Z</time>
      </trkpt>
      <trkpt lat="43.107480" lon="-5.979770">
        <ele>722.913</ele>
        <time>2020-05-23T02:15:50Z</time>
      </trkpt>
      <trkpt lat="43.107490" lon="-5.979760">
        <ele>722.854</ele>
        <time>2020-05-23T02:16:10Z</time>
      </trkpt>
      <trkpt lat="43.107520" lon="-5.979710">
        <ele>722.043</ele>
        <time>2020-05-23T02:16:30Z</time>
      </trkpt>
      <trkpt lat="43.107590" lon="-5.979550">
        <ele>720.136</ele>
        <time>2020-05-23T02:16:50Z</time>
      </trkpt>
      <trkpt lat="43.107670" lon="-5.979360">
        <ele>719.357</ele>
        <time>2020-05-23T02:17:10Z</time>
      </trkpt>
      <trkpt lat="43.107940" lon="-5.978720">
        <ele>714.900</ele>
        <time>2020-05-23T02:17:30Z</time>
      </trkpt>
      <trkpt lat="43.107990" lon="-5.978600">
        <ele>714.220</ele>
        <time>2020-05-23T02:17:50Z</time>
      </trkpt>
      <trkpt lat="43.108030" lon="-5.978500">
        <ele>713.508</ele>
        <time>2020-05-23T02:18:10Z</time>
      </trkpt>
      <trkpt lat="43.108050" lon="-5.978460">
        <ele>713.319</ele>
        <time>2020-05-23T02:18:30Z</time>
      </trkpt>
      <trkpt lat="43.108080" lon="-5.978410">
        <ele>712.924</ele>
        <time>2020-05-23T02:18:50Z</time>
      </trkpt>
      <trkpt lat="43.108100" lon="-5.978370">
        <ele>712.611</ele>
        <time>2020-05-23T02:19:10Z</time>
      </trkpt>
      <trkpt lat="43.108130" lon="-5.978320">
        <ele>712.087</ele>
        <time>2020-05-23T02:19:30Z</time>
      </trkpt>
      <trkpt lat="43.108150" lon="-5.978290">
        <ele>711.686</ele>
        <time>2020-05-23T02:19:50Z</time>
      </trkpt>
      <trkpt lat="43.108180" lon="-5.978250">
        <ele>711.157</ele>
        <time>2020-05-23T02:20:10Z</time>
      </trkpt>
      <trkpt lat="43.108220" lon="-5.978220">
        <ele>710.876</ele>
        <time>2020-05-23T02:20:30Z</time>
      </trkpt>
      <trkpt lat="43.108250" lon="-5.978200">
        <ele>710.629</ele>
        <time>2020-05-23T02:20:50Z</time>
      </trkpt>
      <trkpt lat="43.108300" lon="-5.978180">
        <ele>710.658</ele>
        <time>2020-05-23T02:21:10Z</time>
      </trkpt>
      <trkpt lat="43.108770" lon="-5.978030">
        <ele>707.152</ele>
        <time>2020-05-23T02:21:30Z</time>
      </trkpt>
      <trkpt lat="43.108820" lon="-5.978020">
        <ele>706.817</ele>
        <time>2020-05-23T02:21:50Z</time>
      </trkpt>
      <trkpt lat="43.109390" lon="-5.977880">
        <ele>702.208</ele>
        <time>2020-05-23T02:22:10Z</time>
      </trkpt>
      <trkpt lat="43.109700" lon="-5.977810">
        <ele>699.959</ele>
        <time>2020-05-23T02:22:30Z</time>
      </trkpt>
      <trkpt lat="43.109920" lon="-5.977760">
        <ele>697.754</ele>
        <time>2020-05-23T02:22:50Z</time>
      </trkpt>
      <trkpt lat="43.109950" lon="-5.977760">
        <ele>697.571</ele>
        <time>2020-05-23T02:23:10Z</time>
      </trkpt>
      <trkpt lat="43.109980" lon="-5.977760">
        <ele>697.487</ele>
        <time>2020-05-23T02:23:30Z</time>
      </trkpt>
      <trkpt lat="43.110030" lon="-5.977770">
        <ele>696.846</ele>
        <time>2020-05-23T02:23:50Z</time>
      </trkpt>
      <trkpt lat="43.110060" lon="-5.977780">
        <ele>696.487</ele>
        <time>2020-05-23T02:24:10Z</time>
      </trkpt>
      <trkpt lat="43.110100" lon="-5.977800">
        <ele>695.916</ele>
        <time>2020-05-23T02:24:30Z</time>
      </trkpt>
      <trkpt lat="43.110140" lon="-5.977810">
        <ele>695.289</ele>
        <time>2020-05-23T02:24:50Z</time>
      </trkpt>
      <trkpt lat="43.110170" lon="-5.977830">
        <ele>695.183</ele>
        <time>2020-05-23T02:25:10Z</time>
      </trkpt>
      <trkpt lat="43.110210" lon="-5.977850">
        <ele>694.725</ele>
        <time>2020-05-23T02:25:30Z</time>
      </trkpt>
      <trkpt lat="43.110240" lon="-5.977870">
        <ele>694.717</ele>
        <time>2020-05-23T02:25:50Z</time>
      </trkpt>
      <trkpt lat="43.110380" lon="-5.977970">
        <ele>695.108</ele>
        <time>2020-05-23T02:26:10Z</time>
      </trkpt>
      <trkpt lat="43.110430" lon="-5.977990">
        <ele>694.772</ele>
        <time>2020-05-23T02:26:30Z</time>
      </trkpt>
      <trkpt lat="43.110480" lon="-5.978010">
        <ele>694.257</ele>
        <time>2020-05-23T02:26:50Z</time>
      </trkpt>
      <trkpt lat="43.110520" lon="-5.978030">
        <ele>694.014</ele>
        <time>2020-05-23T02:27:10Z</time>
      </trkpt>
      <trkpt lat="43.110560" lon="-5.978040">
        <ele>693.410</ele>
        <time>2020-05-23T02:27:30Z</time>
      </trkpt>
      <trkpt lat="43.110570" lon="-5.978040">
        <ele>693.229</ele>
        <time>2020-05-23T02:27:50Z</time>
      </trkpt>
      <trkpt lat="43.110630" lon="-5.978050">
        <ele>692.710</ele>
        <time>2020-05-23T02:28:10Z</time>
      </trkpt>
      <trkpt lat="43.110740" lon="-5.978070">
        <ele>692.049</ele>
        <time>2020-05-23T02:28:30Z</time>
      </trkpt>
      <trkpt lat="43.110920" lon="-5.978090">
        <ele>690.532</ele>
        <time>2020-05-23T02:28:50Z</time>
      </trkpt>
      <trkpt lat="43.110920" lon="-5.978100">
        <ele>690.911</ele>
        <time>2020-05-23T02:29:10Z</time>
      </trkpt>
      <trkpt lat="43.110960" lon="-5.978100">
        <ele>690.521</ele>
        <time>2020-05-23T02:29:30Z</time>
      </trkpt>
      <trkpt lat="43.111010" lon="-5.978100">
        <ele>689.903</ele>
        <time>2020-05-23T02:29:50Z</time>
      </trkpt>
      <trkpt lat="43.111050" lon="-5.978100">
        <ele>689.508</ele>
        <time>2020-05-23T02:30:10Z</time>
      </trkpt>
      <trkpt lat="43.111080" lon="-5.978100">
        <ele>689.185</ele>
        <time>2020-05-23T02:30:30Z</time>
      </trkpt>
      <trkpt lat="43.111130" lon="-5.978100">
        <ele>688.640</ele>
        <time>2020-05-23T02:30:50Z</time>
      </trkpt>
      <trkpt lat="43.111180" lon="-5.978090">
        <ele>688.067</ele>
        <time>2020-05-23T02:31:10Z</time>
      </trkpt>
      <trkpt lat="43.111230" lon="-5.978080">
        <ele>687.483</ele>
        <time>2020-05-23T02:31:30Z</time>
      </trkpt>
      <trkpt lat="43.111280" lon="-5.978070">
        <ele>686.872</ele>
        <time>2020-05-23T02:31:50Z</time>
      </trkpt>
      <trkpt lat="43.111350" lon="-5.978050">
        <ele>685.963</ele>
        <time>2020-05-23T02:32:10Z</time>
      </trkpt>
      <trkpt lat="43.111390" lon="-5.978040">
        <ele>685.212</ele>
        <time>2020-05-23T02:32:30Z</time>
      </trkpt>
      <trkpt lat="43.111420" lon="-5.978040">
        <ele>684.685</ele>
        <time>2020-05-23T02:32:50Z</time>
      </trkpt>
      <trkpt lat="43.111450" lon="-5.978050">
        <ele>684.465</ele>
        <time>2020-05-23T02:33:10Z</time>
      </trkpt>
      <trkpt lat="43.111470" lon="-5.978060">
        <ele>684.468</ele>
        <time>2020-05-23T02:33:30Z</time>
      </trkpt>
      <trkpt lat="43.111500" lon="-5.978100">
        <ele>684.814</ele>
        <time>2020-05-23T02:33:50Z</time>
      </trkpt>
      <trkpt lat="43.111530" lon="-5.978140">
        <ele>685.208</ele>
        <time>2020-05-23T02:34:10Z</time>
      </trkpt>
      <trkpt lat="43.111531" lon="-5.978145">
        <ele>685.360</ele>
        <time>2020-05-23T02:34:30Z</time>
      </trkpt>
      <trkpt lat="43.111570" lon="-5.978130">
        <ele>684.195</ele>
        <time>2020-05-23T02:34:50Z</time>
      </trkpt>
      <trkpt lat="43.111620" lon="-5.978130">
        <ele>683.112</ele>
        <time>2020-05-23T02:35:10Z</time>
      </trkpt>
      <trkpt lat="43.111670" lon="-5.978140">
        <ele>682.498</ele>
        <time>2020-05-23T02:35:30Z</time>
      </trkpt>
      <trkpt lat="43.111710" lon="-5.978150">
        <ele>682.187</ele>
        <time>2020-05-23T02:35:50Z</time>
      </trkpt>
      <trkpt lat="43.111720" lon="-5.978160">
        <ele>682.218</ele>
        <time>2020-05-23T02:36:10Z</time>
      </trkpt>
      <trkpt lat="43.111770" lon="-5.978170">
        <ele>681.847</ele>
        <time>2020-05-23T02:36:30Z</time>
      </trkpt>
      <trkpt lat="43.111790" lon="-5.978180">
        <ele>681.860</ele>
        <time>2020-05-23T02:36:50Z</time>
      </trkpt>
      <trkpt lat="43.111810" lon="-5.978180">
        <ele>681.542</ele>
        <time>2020-05-23T02:37:10Z</time>
      </trkpt>
      <trkpt lat="43.111830" lon="-5.978180">
        <ele>681.222</ele>
        <time>2020-05-23T02:37:30Z</time>
      </trkpt>
      <trkpt lat="43.111850" lon="-5.978180">
        <ele>680.914</ele>
        <time>2020-05-23T02:37:50Z</time>
      </trkpt>
      <trkpt lat="43.111880" lon="-5.978170">
        <ele>680.208</ele>
        <time>2020-05-23T02:38:10Z</time>
      </trkpt>
      <trkpt lat="43.111880" lon="-5.978160">
        <ele>679.958</ele>
        <time>2020-05-23T02:38:30Z</time>
      </trkpt>
      <trkpt lat="43.111910" lon="-5.978150">
        <ele>679.273</ele>
        <time>2020-05-23T02:38:50Z</time>
      </trkpt>
      <trkpt lat="43.111920" lon="-5.978130">
        <ele>678.530</ele>
        <time>2020-05-23T02:39:10Z</time>
      </trkpt>
      <trkpt lat="43.111960" lon="-5.978090">
        <ele>677.016</ele>
        <time>2020-05-23T02:39:30Z</time>
      </trkpt>
      <trkpt lat="43.111990" lon="-5.978050">
        <ele>675.975</ele>
        <time>2020-05-23T02:39:50Z</time>
      </trkpt>
      <trkpt lat="43.112010" lon="-5.978030">
        <ele>675.466</ele>
        <time>2020-05-23T02:40:10Z</time>
      </trkpt>
      <trkpt lat="43.112020" lon="-5.977990">
        <ele>674.315</ele>
        <time>2020-05-23T02:40:30Z</time>
      </trkpt>
      <trkpt lat="43.112030" lon="-5.977970">
        <ele>673.858</ele>
        <time>2020-05-23T02:40:50Z</time>
      </trkpt>
      <trkpt lat="43.112030" lon="-5.977960">
        <ele>673.614</ele>
        <time>2020-05-23T02:41:10Z</time>
      </trkpt>
      <trkpt lat="43.112030" lon="-5.977940">
        <ele>673.154</ele>
        <time>2020-05-23T02:41:30Z</time>
      </trkpt>
      <trkpt lat="43.112030" lon="-5.977920">
        <ele>672.609</ele>
        <time>2020-05-23T02:41:50Z</time>
      </trkpt>
      <trkpt lat="43.112020" lon="-5.977900">
        <ele>672.108</ele>
        <time>2020-05-23T02:42:10Z</time>
      </trkpt>
      <trkpt lat="43.112010" lon="-5.977870">
        <ele>671.335</ele>
        <time>2020-05-23T02:42:30Z</time>
      </trkpt>
      <trkpt lat="43.111990" lon="-5.977840">
        <ele>670.660</ele>
        <time>2020-05-23T02:42:50Z</time>
      </trkpt>
      <trkpt lat="43.111950" lon="-5.977790">
        <ele>669.347</ele>
        <time>2020-05-23T02:43:10Z</time>
      </trkpt>
      <trkpt lat="43.111940" lon="-5.977780">
        <ele>669.133</ele>
        <time>2020-05-23T02:43:30Z</time>
      </trkpt>
      <trkpt lat="43.111920" lon="-5.977750">
        <ele>668.312</ele>
        <time>2020-05-23T02:43:50Z</time>
      </trkpt>
      <trkpt lat="43.111900" lon="-5.977740">
        <ele>668.183</ele>
        <time>2020-05-23T02:44:10Z</time>
      </trkpt>
      <trkpt lat="43.111890" lon="-5.977720">
        <ele>667.692</ele>
        <time>2020-05-23T02:44:30Z</time>
      </trkpt>
      <trkpt lat="43.111880" lon="-5.977700">
        <ele>667.135</ele>
        <time>2020-05-23T02:44:50Z</time>
      </trkpt>
      <trkpt lat="43.111870" lon="-5.977680">
        <ele>666.591</ele>
        <time>2020-05-23T02:45:10Z</time>
      </trkpt>
      <trkpt lat="43.111870" lon="-5.977660">
        <ele>666.081</ele>
        <time>2020-05-23T02:45:30Z</time>
      </trkpt>
      <trkpt lat="43.111870" lon="-5.977650">
        <ele>665.719</ele>
        <time>2020-05-23T02:45:50Z</time>
      </trkpt>
      <trkpt lat="43.111880" lon="-5.977620">
        <ele>664.808</ele>
        <time>2020-05-23T02:46:10Z</time>
      </trkpt>
      <trkpt lat="43.111890" lon="-5.977600">
        <ele>664.293</ele>
        <time>2020-05-23T02:46:30Z</time>
      </trkpt>
      <trkpt lat="43.111900" lon="-5.977570">
        <ele>663.318</ele>
        <time>2020-05-23T02:46:50Z</time>
      </trkpt>
      <trkpt lat="43.111930" lon="-5.977490">
        <ele>661.235</ele>
        <time>2020-05-23T02:47:10Z</time>
      </trkpt>
      <trkpt lat="43.111980" lon="-5.977390">
        <ele>661.591</ele>
        <time>2020-05-23T02:47:30Z</time>
      </trkpt>
      <trkpt lat="43.112020" lon="-5.977300">
        <ele>661.770</ele>
        <time>2020-05-23T02:47:50Z</time>
      </trkpt>
      <trkpt lat="43.112020" lon="-5.977280">
        <ele>661.851</ele>
        <time>2020-05-23T02:48:10Z</time>
      </trkpt>
      <trkpt lat="43.112030" lon="-5.977260">
        <ele>661.820</ele>
        <time>2020-05-23T02:48:30Z</time>
      </trkpt>
      <trkpt lat="43.112040" lon="-5.977240">
        <ele>661.993</ele>
        <time>2020-05-23T02:48:50Z</time>
      </trkpt>
      <trkpt lat="43.112060" lon="-5.977210">
        <ele>662.379</ele>
        <time>2020-05-23T02:49:10Z</time>
      </trkpt>
      <trkpt lat="43.112070" lon="-5.977200">
        <ele>662.705</ele>
        <time>2020-05-23T02:49:30Z</time>
      </trkpt>
      <trkpt lat="43.112090" lon="-5.977190">
        <ele>662.925</ele>
        <time>2020-05-23T02:49:50Z</time>
      </trkpt>
      <trkpt lat="43.112100" lon="-5.977180">
        <ele>663.308</ele>
        <time>2020-05-23T02:50:10Z</time>
      </trkpt>
      <trkpt lat="43.112130" lon="-5.977160">
        <ele>663.991</ele>
        <time>2020-05-23T02:50:30Z</time>
      </trkpt>
      <trkpt lat="43.112150" lon="-5.977150">
        <ele>664.256</ele>
        <time>2020-05-23T02:50:50Z</time>
      </trkpt>
      <trkpt lat="43.112250" lon="-5.977090">
        <ele>666.143</ele>
        <time>2020-05-23T02:51:10Z</time>
      </trkpt>
      <trkpt lat="43.112360" lon="-5.977030">
        <ele>668.519</ele>
        <time>2020-05-23T02:51:30Z</time>
      </trkpt>
      <trkpt lat="43.112410" lon="-5.977000">
        <ele>669.718</ele>
        <time>2020-05-23T02:51:50Z</time>
      </trkpt>
      <trkpt lat="43.112440" lon="-5.976980">
        <ele>670.699</ele>
        <time>2020-05-23T02:52:10Z</time>
      </trkpt>
      <trkpt lat="43.112480" lon="-5.976960">
        <ele>671.328</ele>
        <time>2020-05-23T02:52:30Z</time>
      </trkpt>
      <trkpt lat="43.112510" lon="-5.976940">
        <ele>672.271</ele>
        <time>2020-05-23T02:52:50Z</time>
      </trkpt>
      <trkpt lat="43.112530" lon="-5.976920">
        <ele>672.858</ele>
        <time>2020-05-23T02:53:10Z</time>
      </trkpt>
      <trkpt lat="43.112560" lon="-5.976880">
        <ele>673.852</ele>
        <time>2020-05-23T02:53:30Z</time>
      </trkpt>
      <trkpt lat="43.112590" lon="-5.976850">
        <ele>674.417</ele>
        <time>2020-05-23T02:53:50Z</time>
      </trkpt>
      <trkpt lat="43.112590" lon="-5.976840">
        <ele>674.608</ele>
        <time>2020-05-23T02:54:10Z</time>
      </trkpt>
      <trkpt lat="43.112610" lon="-5.976820">
        <ele>674.959</ele>
        <time>2020-05-23T02:54:30Z</time>
      </trkpt>
      <trkpt lat="43.112620" lon="-5.976810">
        <ele>675.184</ele>
        <time>2020-05-23T02:54:50Z</time>
      </trkpt>
      <trkpt lat="43.112630" lon="-5.976800">
        <ele>675.321</ele>
        <time>2020-05-23T02:55:10Z</time>
      </trkpt>
      <trkpt lat="43.112640" lon="-5.976790">
        <ele>675.477</ele>
        <time>2020-05-23T02:55:30Z</time>
      </trkpt>
      <trkpt lat="43.112650" lon="-5.976790">
        <ele>675.466</ele>
        <time>2020-05-23T02:55:50Z</time>
      </trkpt>
      <trkpt lat="43.112660" lon="-5.976780">
        <ele>675.657</ele>
        <time>2020-05-23T02:56:10Z</time>
      </trkpt>
      <trkpt lat="43.112680" lon="-5.976780">
        <ele>675.636</ele>
        <time>2020-05-23T02:56:30Z</time>
      </trkpt>
      <trkpt lat="43.112720" lon="-5.976780">
        <ele>675.879</ele>
        <time>2020-05-23T02:56:50Z</time>
      </trkpt>
      <trkpt lat="43.112760" lon="-5.976770">
        <ele>675.997</ele>
        <time>2020-05-23T02:57:10Z</time>
      </trkpt>
      <trkpt lat="43.112800" lon="-5.976770">
        <ele>675.723</ele>
        <time>2020-05-23T02:57:30Z</time>
      </trkpt>
      <trkpt lat="43.112830" lon="-5.976760">
        <ele>675.325</ele>
        <time>2020-05-23T02:57:50Z</time>
      </trkpt>
      <trkpt lat="43.112870" lon="-5.976760">
        <ele>674.808</ele>
        <time>2020-05-23T02:58:10Z</time>
      </trkpt>
      <trkpt lat="43.112960" lon="-5.976750">
        <ele>673.673</ele>
        <time>2020-05-23T02:58:30Z</time>
      </trkpt>
      <trkpt lat="43.112980" lon="-5.976740">
        <ele>673.418</ele>
        <time>2020-05-23T02:58:50Z</time>
      </trkpt>
      <trkpt lat="43.113200" lon="-5.976700">
        <ele>670.825</ele>
        <time>2020-05-23T02:59:10Z</time>
      </trkpt>
      <trkpt lat="43.113290" lon="-5.976690">
        <ele>669.881</ele>
        <time>2020-05-23T02:59:30Z</time>
      </trkpt>
      <trkpt lat="43.113320" lon="-5.976680">
        <ele>669.770</ele>
        <time>2020-05-23T02:59:50Z</time>
      </trkpt>
      <trkpt lat="43.113340" lon="-5.976670">
        <ele>669.661</ele>
        <time>2020-05-23T03:00:10Z</time>
      </trkpt>
      <trkpt lat="43.113336" lon="-5.976672">
        <ele>669.740</ele>
        <time>2020-05-23T03:00:30Z</time>
      </trkpt>
      <trkpt lat="43.113350" lon="-5.976670">
        <ele>669.233</ele>
        <time>2020-05-23T03:00:50Z</time>
      </trkpt>
      <trkpt lat="43.113380" lon="-5.976660">
        <ele>668.117</ele>
        <time>2020-05-23T03:01:10Z</time>
      </trkpt>
      <trkpt lat="43.113400" lon="-5.976640">
        <ele>667.887</ele>
        <time>2020-05-23T03:01:30Z</time>
      </trkpt>
      <trkpt lat="43.113420" lon="-5.976620">
        <ele>667.415</ele>
        <time>2020-05-23T03:01:50Z</time>
      </trkpt>
      <trkpt lat="43.113480" lon="-5.976540">
        <ele>667.108</ele>
        <time>2020-05-23T03:02:10Z</time>
      </trkpt>
      <trkpt lat="43.113490" lon="-5.976540">
        <ele>666.745</ele>
        <time>2020-05-23T03:02:30Z</time>
      </trkpt>
      <trkpt lat="43.113550" lon="-5.976460">
        <ele>666.810</ele>
        <time>2020-05-23T03:02:50Z</time>
      </trkpt>
      <trkpt lat="43.113620" lon="-5.976390">
        <ele>666.747</ele>
        <time>2020-05-23T03:03:10Z</time>
      </trkpt>
      <trkpt lat="43.113670" lon="-5.976310">
        <ele>666.613</ele>
        <time>2020-05-23T03:03:30Z</time>
      </trkpt>
      <trkpt lat="43.113690" lon="-5.976280">
        <ele>666.592</ele>
        <time>2020-05-23T03:03:50Z</time>
      </trkpt>
      <trkpt lat="43.113720" lon="-5.976250">
        <ele>666.013</ele>
        <time>2020-05-23T03:04:10Z</time>
      </trkpt>
      <trkpt lat="43.113750" lon="-5.976220">
        <ele>665.472</ele>
        <time>2020-05-23T03:04:30Z</time>
      </trkpt>
      <trkpt lat="43.113770" lon="-5.976200">
        <ele>665.065</ele>
        <time>2020-05-23T03:04:50Z</time>
      </trkpt>
      <trkpt lat="43.113800" lon="-5.976170">
        <ele>664.496</ele>
        <time>2020-05-23T03:05:10Z</time>
      </trkpt>
      <trkpt lat="43.113820" lon="-5.976150">
        <ele>664.031</ele>
        <time>2020-05-23T03:05:30Z</time>
      </trkpt>
      <trkpt lat="43.113850" lon="-5.976140">
        <ele>663.124</ele>
        <time>2020-05-23T03:05:50Z</time>
      </trkpt>
      <trkpt lat="43.113900" lon="-5.976120">
        <ele>661.808</ele>
        <time>2020-05-23T03:06:10Z</time>
      </trkpt>
      <trkpt lat="43.113920" lon="-5.976110">
        <ele>661.793</ele>
        <time>2020-05-23T03:06:30Z</time>
      </trkpt>
      <trkpt lat="43.113930" lon="-5.976110">
        <ele>661.688</ele>
        <time>2020-05-23T03:06:50Z</time>
      </trkpt>
      <trkpt lat="43.113960" lon="-5.976100">
        <ele>661.365</ele>
        <time>2020-05-23T03:07:10Z</time>
      </trkpt>
      <trkpt lat="43.114050" lon="-5.976070">
        <ele>660.711</ele>
        <time>2020-05-23T03:07:30Z</time>
      </trkpt>
      <trkpt lat="43.114130" lon="-5.976050">
        <ele>660.270</ele>
        <time>2020-05-23T03:07:50Z</time>
      </trkpt>
      <trkpt lat="43.114170" lon="-5.976040">
        <ele>660.061</ele>
        <time>2020-05-23T03:08:10Z</time>
      </trkpt>
      <trkpt lat="43.114240" lon="-5.976030">
        <ele>660.440</ele>
        <time>2020-05-23T03:08:30Z</time>
      </trkpt>
      <trkpt lat="43.114270" lon="-5.976020">
        <ele>660.723</ele>
        <time>2020-05-23T03:08:50Z</time>
      </trkpt>
      <trkpt lat="43.114290" lon="-5.976020">
        <ele>660.724</ele>
        <time>2020-05-23T03:09:10Z</time>
      </trkpt>
      <trkpt lat="43.114320" lon="-5.976030">
        <ele>660.704</ele>
        <time>2020-05-23T03:09:30Z</time>
      </trkpt>
      <trkpt lat="43.114350" lon="-5.976040">
        <ele>660.514</ele>
        <time>2020-05-23T03:09:50Z</time>
      </trkpt>
      <trkpt lat="43.114380" lon="-5.976050">
        <ele>660.408</ele>
        <time>2020-05-23T03:10:10Z</time>
      </trkpt>
      <trkpt lat="43.114420" lon="-5.976060">
        <ele>660.216</ele>
        <time>2020-05-23T03:10:30Z</time>
      </trkpt>
      <trkpt lat="43.114450" lon="-5.976090">
        <ele>659.591</ele>
        <time>2020-05-23T03:10:50Z</time>
      </trkpt>
      <trkpt lat="43.114480" lon="-5.976120">
        <ele>658.768</ele>
        <time>2020-05-23T03:11:10Z</time>
      </trkpt>
      <trkpt lat="43.114520" lon="-5.976150">
        <ele>657.944</ele>
        <time>2020-05-23T03:11:30Z</time>
      </trkpt>
      <trkpt lat="43.114580" lon="-5.976190">
        <ele>656.773</ele>
        <time>2020-05-23T03:11:50Z</time>
      </trkpt>
      <trkpt lat="43.114610" lon="-5.976200">
        <ele>656.314</ele>
        <time>2020-05-23T03:12:10Z</time>
      </trkpt>
      <trkpt lat="43.114620" lon="-5.976210">
        <ele>656.093</ele>
        <time>2020-05-23T03:12:30Z</time>
      </trkpt>
      <trkpt lat="43.114670" lon="-5.976220">
        <ele>655.576</ele>
        <time>2020-05-23T03:12:50Z</time>
      </trkpt>
      <trkpt lat="43.114710" lon="-5.976230">
        <ele>655.184</ele>
        <time>2020-05-23T03:13:10Z</time>
      </trkpt>
      <trkpt lat="43.114790" lon="-5.976250">
        <ele>653.907</ele>
        <time>2020-05-23T03:13:30Z</time>
      </trkpt>
      <trkpt lat="43.114787" lon="-5.976245">
        <ele>654.017</ele>
        <time>2020-05-23T03:13:50Z</time>
      </trkpt>
      <trkpt lat="43.114800" lon="-5.976230">
        <ele>654.208</ele>
        <time>2020-05-23T03:14:10Z</time>
      </trkpt>
      <trkpt lat="43.114830" lon="-5.976200">
        <ele>654.632</ele>
        <time>2020-05-23T03:14:30Z</time>
      </trkpt>
      <trkpt lat="43.114880" lon="-5.976170">
        <ele>654.647</ele>
        <time>2020-05-23T03:14:50Z</time>
      </trkpt>
      <trkpt lat="43.114930" lon="-5.976140">
        <ele>654.534</ele>
        <time>2020-05-23T03:15:10Z</time>
      </trkpt>
      <trkpt lat="43.114970" lon="-5.976130">
        <ele>654.180</ele>
        <time>2020-05-23T03:15:30Z</time>
      </trkpt>
      <trkpt lat="43.114980" lon="-5.976120">
        <ele>654.289</ele>
        <time>2020-05-23T03:15:50Z</time>
      </trkpt>
      <trkpt lat="43.115020" lon="-5.976100">
        <ele>653.660</ele>
        <time>2020-05-23T03:16:10Z</time>
      </trkpt>
      <trkpt lat="43.115110" lon="-5.976030">
        <ele>652.189</ele>
        <time>2020-05-23T03:16:30Z</time>
      </trkpt>
      <trkpt lat="43.115170" lon="-5.975980">
        <ele>651.452</ele>
        <time>2020-05-23T03:16:50Z</time>
      </trkpt>
      <trkpt lat="43.115350" lon="-5.975810">
        <ele>650.889</ele>
        <time>2020-05-23T03:17:10Z</time>
      </trkpt>
      <trkpt lat="43.115560" lon="-5.975590">
        <ele>649.406</ele>
        <time>2020-05-23T03:17:30Z</time>
      </trkpt>
      <trkpt lat="43.115650" lon="-5.975500">
        <ele>648.626</ele>
        <time>2020-05-23T03:17:50Z</time>
      </trkpt>
      <trkpt lat="43.115700" lon="-5.975420">
        <ele>648.608</ele>
        <time>2020-05-23T03:18:10Z</time>
      </trkpt>
      <trkpt lat="43.115740" lon="-5.975380">
        <ele>648.372</ele>
        <time>2020-05-23T03:18:30Z</time>
      </trkpt>
      <trkpt lat="43.115780" lon="-5.975320">
        <ele>648.417</ele>
        <time>2020-05-23T03:18:50Z</time>
      </trkpt>
      <trkpt lat="43.115810" lon="-5.975280">
        <ele>648.484</ele>
        <time>2020-05-23T03:19:10Z</time>
      </trkpt>
      <trkpt lat="43.115850" lon="-5.975240">
        <ele>648.120</ele>
        <time>2020-05-23T03:19:30Z</time>
      </trkpt>
      <trkpt lat="43.115880" lon="-5.975210">
        <ele>647.819</ele>
        <time>2020-05-23T03:19:50Z</time>
      </trkpt>
      <trkpt lat="43.115910" lon="-5.975190">
        <ele>647.560</ele>
        <time>2020-05-23T03:20:10Z</time>
      </trkpt>
      <trkpt lat="43.115950" lon="-5.975170">
        <ele>647.049</ele>
        <time>2020-05-23T03:20:30Z</time>
      </trkpt>
      <trkpt lat="43.115980" lon="-5.975160">
        <ele>646.622</ele>
        <time>2020-05-23T03:20:50Z</time>
      </trkpt>
      <trkpt lat="43.116020" lon="-5.975150">
        <ele>646.039</ele>
        <time>2020-05-23T03:21:10Z</time>
      </trkpt>
      <trkpt lat="43.116170" lon="-5.975080">
        <ele>645.001</ele>
        <time>2020-05-23T03:21:30Z</time>
      </trkpt>
      <trkpt lat="43.116310" lon="-5.975030">
        <ele>644.421</ele>
        <time>2020-05-23T03:21:50Z</time>
      </trkpt>
      <trkpt lat="43.116340" lon="-5.975020">
        <ele>644.208</ele>
        <time>2020-05-23T03:22:10Z</time>
      </trkpt>
      <trkpt lat="43.116360" lon="-5.975020">
        <ele>644.057</ele>
        <time>2020-05-23T03:22:30Z</time>
      </trkpt>
      <trkpt lat="43.116400" lon="-5.975010">
        <ele>643.922</ele>
        <time>2020-05-23T03:22:50Z</time>
      </trkpt>
      <trkpt lat="43.116440" lon="-5.975010">
        <ele>644.079</ele>
        <time>2020-05-23T03:23:10Z</time>
      </trkpt>
      <trkpt lat="43.116480" lon="-5.975020">
        <ele>644.065</ele>
        <time>2020-05-23T03:23:30Z</time>
      </trkpt>
      <trkpt lat="43.116520" lon="-5.975030">
        <ele>643.974</ele>
        <time>2020-05-23T03:23:50Z</time>
      </trkpt>
      <trkpt lat="43.116560" lon="-5.975040">
        <ele>643.945</ele>
        <time>2020-05-23T03:24:10Z</time>
      </trkpt>
      <trkpt lat="43.116590" lon="-5.975060">
        <ele>643.544</ele>
        <time>2020-05-23T03:24:30Z</time>
      </trkpt>
      <trkpt lat="43.116630" lon="-5.975070">
        <ele>643.417</ele>
        <time>2020-05-23T03:24:50Z</time>
      </trkpt>
      <trkpt lat="43.116670" lon="-5.975100">
        <ele>642.943</ele>
        <time>2020-05-23T03:25:10Z</time>
      </trkpt>
      <trkpt lat="43.116690" lon="-5.975110">
        <ele>643.064</ele>
        <time>2020-05-23T03:25:30Z</time>
      </trkpt>
      <trkpt lat="43.116750" lon="-5.975150">
        <ele>643.010</ele>
        <time>2020-05-23T03:25:50Z</time>
      </trkpt>
      <trkpt lat="43.116980" lon="-5.975300">
        <ele>640.308</ele>
        <time>2020-05-23T03:26:10Z</time>
      </trkpt>
      <trkpt lat="43.117010" lon="-5.975310">
        <ele>639.938</ele>
        <time>2020-05-23T03:26:30Z</time>
      </trkpt>
      <trkpt lat="43.117030" lon="-5.975310">
        <ele>639.913</ele>
        <time>2020-05-23T03:26:50Z</time>
      </trkpt>
      <trkpt lat="43.117070" lon="-5.975310">
        <ele>639.910</ele>
        <time>2020-05-23T03:27:10Z</time>
      </trkpt>
      <trkpt lat="43.117110" lon="-5.975300">
        <ele>640.276</ele>
        <time>2020-05-23T03:27:30Z</time>
      </trkpt>
      <trkpt lat="43.117150" lon="-5.975290">
        <ele>640.635</ele>
        <time>2020-05-23T03:27:50Z</time>
      </trkpt>
      <trkpt lat="43.117190" lon="-5.975280">
        <ele>640.976</ele>
        <time>2020-05-23T03:28:10Z</time>
      </trkpt>
      <trkpt lat="43.117200" lon="-5.975280">
        <ele>640.965</ele>
        <time>2020-05-23T03:28:30Z</time>
      </trkpt>
      <trkpt lat="43.117230" lon="-5.975270">
        <ele>641.148</ele>
        <time>2020-05-23T03:28:50Z</time>
      </trkpt>
      <trkpt lat="43.117260" lon="-5.975260">
        <ele>640.977</ele>
        <time>2020-05-23T03:29:10Z</time>
      </trkpt>
      <trkpt lat="43.117360" lon="-5.975230">
        <ele>640.061</ele>
        <time>2020-05-23T03:29:30Z</time>
      </trkpt>
      <trkpt lat="43.117370" lon="-5.975220">
        <ele>640.227</ele>
        <time>2020-05-23T03:29:50Z</time>
      </trkpt>
      <trkpt lat="43.117730" lon="-5.975150">
        <ele>638.908</ele>
        <time>2020-05-23T03:30:10Z</time>
      </trkpt>
      <trkpt lat="43.117900" lon="-5.975110">
        <ele>640.451</ele>
        <time>2020-05-23T03:30:30Z</time>
      </trkpt>
      <trkpt lat="43.117910" lon="-5.975110">
        <ele>640.496</ele>
        <time>2020-05-23T03:30:50Z</time>
      </trkpt>
      <trkpt lat="43.118000" lon="-5.975110">
        <ele>640.663</ele>
        <time>2020-05-23T03:31:10Z</time>
      </trkpt>
      <trkpt lat="43.118030" lon="-5.975110">
        <ele>640.649</ele>
        <time>2020-05-23T03:31:30Z</time>
      </trkpt>
      <trkpt lat="43.118070" lon="-5.975120">
        <ele>640.568</ele>
        <time>2020-05-23T03:31:50Z</time>
      </trkpt>
      <trkpt lat="43.118120" lon="-5.975140">
        <ele>640.789</ele>
        <time>2020-05-23T03:32:10Z</time>
      </trkpt>
      <trkpt lat="43.118150" lon="-5.975150">
        <ele>640.998</ele>
        <time>2020-05-23T03:32:30Z</time>
      </trkpt>
      <trkpt lat="43.118190" lon="-5.975170">
        <ele>641.091</ele>
        <time>2020-05-23T03:32:50Z</time>
      </trkpt>
      <trkpt lat="43.118220" lon="-5.975190">
        <ele>640.819</ele>
        <time>2020-05-23T03:33:10Z</time>
      </trkpt>
      <trkpt lat="43.118250" lon="-5.975210">
        <ele>640.709</ele>
        <time>2020-05-23T03:33:30Z</time>
      </trkpt>
      <trkpt lat="43.118260" lon="-5.975220">
        <ele>640.619</ele>
        <time>2020-05-23T03:33:50Z</time>
      </trkpt>
      <trkpt lat="43.118410" lon="-5.975330">
        <ele>639.808</ele>
        <time>2020-05-23T03:34:10Z</time>
      </trkpt>
      <trkpt lat="43.118730" lon="-5.975560">
        <ele>640.735</ele>
        <time>2020-05-23T03:34:30Z</time>
      </trkpt>
      <trkpt lat="43.118940" lon="-5.975710">
        <ele>641.610</ele>
        <time>2020-05-23T03:34:50Z</time>
      </trkpt>
      <trkpt lat="43.118990" lon="-5.975740">
        <ele>641.287</ele>
        <time>2020-05-23T03:35:10Z</time>
      </trkpt>
      <trkpt lat="43.119050" lon="-5.975770">
        <ele>640.923</ele>
        <time>2020-05-23T03:35:30Z</time>
      </trkpt>
      <trkpt lat="43.119110" lon="-5.975790">
        <ele>640.972</ele>
        <time>2020-05-23T03:35:50Z</time>
      </trkpt>
      <trkpt lat="43.119140" lon="-5.975810">
        <ele>640.583</ele>
        <time>2020-05-23T03:36:10Z</time>
      </trkpt>
      <trkpt lat="43.119190" lon="-5.975820">
        <ele>640.632</ele>
        <time>2020-05-23T03:36:30Z</time>
      </trkpt>
      <trkpt lat="43.119230" lon="-5.975820">
        <ele>640.925</ele>
        <time>2020-05-23T03:36:50Z</time>
      </trkpt>
      <trkpt lat="43.119270" lon="-5.975820">
        <ele>641.298</ele>
        <time>2020-05-23T03:37:10Z</time>
      </trkpt>
      <trkpt lat="43.119310" lon="-5.975830">
        <ele>641.115</ele>
        <time>2020-05-23T03:37:30Z</time>
      </trkpt>
      <trkpt lat="43.119350" lon="-5.975820">
        <ele>641.726</ele>
        <time>2020-05-23T03:37:50Z</time>
      </trkpt>
      <trkpt lat="43.119410" lon="-5.975820">
        <ele>642.108</ele>
        <time>2020-05-23T03:38:10Z</time>
      </trkpt>
      <trkpt lat="43.119470" lon="-5.975800">
        <ele>642.653</ele>
        <time>2020-05-23T03:38:30Z</time>
      </trkpt>
      <trkpt lat="43.119530" lon="-5.975760">
        <ele>643.098</ele>
        <time>2020-05-23T03:38:50Z</time>
      </trkpt>
      <trkpt lat="43.119570" lon="-5.975730">
        <ele>643.335</ele>
        <time>2020-05-23T03:39:10Z</time>
      </trkpt>
      <trkpt lat="43.119590" lon="-5.975710">
        <ele>643.491</ele>
        <time>2020-05-23T03:39:30Z</time>
      </trkpt>
      <trkpt lat="43.119650" lon="-5.975650">
        <ele>643.840</ele>
        <time>2020-05-23T03:39:50Z</time>
      </trkpt>
      <trkpt lat="43.119710" lon="-5.975580">
        <ele>643.941</ele>
        <time>2020-05-23T03:40:10Z</time>
      </trkpt>
      <trkpt lat="43.119790" lon="-5.975470">
        <ele>644.110</ele>
        <time>2020-05-23T03:40:30Z</time>
      </trkpt>
      <trkpt lat="43.119840" lon="-5.975360">
        <ele>645.023</ele>
        <time>2020-05-23T03:40:50Z</time>
      </trkpt>
      <trkpt lat="43.119920" lon="-5.975170">
        <ele>645.636</ele>
        <time>2020-05-23T03:41:10Z</time>
      </trkpt>
      <trkpt lat="43.119940" lon="-5.975120">
        <ele>645.517</ele>
        <time>2020-05-23T03:41:30Z</time>
      </trkpt>
      <trkpt lat="43.119990" lon="-5.974940">
        <ele>644.918</ele>
        <time>2020-05-23T03:41:50Z</time>
      </trkpt>
      <trkpt lat="43.120000" lon="-5.974900">
        <ele>644.708</ele>
        <time>2020-05-23T03:42:10Z</time>
      </trkpt>
      <trkpt lat="43.120030" lon="-5.974770">
        <ele>644.527</ele>
        <time>2020-05-23T03:42:30Z</time>
      </trkpt>
      <trkpt lat="43.120050" lon="-5.974710">
        <ele>644.412</ele>
        <time>2020-05-23T03:42:50Z</time>
      </trkpt>
      <trkpt lat="43.120070" lon="-5.974640">
        <ele>644.749</ele>
        <time>2020-05-23T03:43:10Z</time>
      </trkpt>
      <trkpt lat="43.120100" lon="-5.974550">
        <ele>644.915</ele>
        <time>2020-05-23T03:43:30Z</time>
      </trkpt>
      <trkpt lat="43.120130" lon="-5.974490">
        <ele>644.744</ele>
        <time>2020-05-23T03:43:50Z</time>
      </trkpt>
      <trkpt lat="43.120160" lon="-5.974420">
        <ele>644.715</ele>
        <time>2020-05-23T03:44:10Z</time>
      </trkpt>
      <trkpt lat="43.120200" lon="-5.974360">
        <ele>644.764</ele>
        <time>2020-05-23T03:44:30Z</time>
      </trkpt>
      <trkpt lat="43.120240" lon="-5.974300">
        <ele>644.837</ele>
        <time>2020-05-23T03:44:50Z</time>
      </trkpt>
      <trkpt lat="43.120290" lon="-5.974250">
        <ele>644.634</ele>
        <time>2020-05-23T03:45:10Z</time>
      </trkpt>
      <trkpt lat="43.120350" lon="-5.974200">
        <ele>644.455</ele>
        <time>2020-05-23T03:45:30Z</time>
      </trkpt>
      <trkpt lat="43.120390" lon="-5.974170">
        <ele>644.110</ele>
        <time>2020-05-23T03:45:50Z</time>
      </trkpt>
      <trkpt lat="43.120420" lon="-5.974150">
        <ele>644.108</ele>
        <time>2020-05-23T03:46:10Z</time>
      </trkpt>
      <trkpt lat="43.120540" lon="-5.974030">
        <ele>646.397</ele>
        <time>2020-05-23T03:46:30Z</time>
      </trkpt>
      <trkpt lat="43.120620" lon="-5.973950">
        <ele>646.942</ele>
        <time>2020-05-23T03:46:50Z</time>
      </trkpt>
      <trkpt lat="43.120670" lon="-5.973900">
        <ele>646.719</ele>
        <time>2020-05-23T03:47:10Z</time>
      </trkpt>
      <trkpt lat="43.120680" lon="-5.973880">
        <ele>646.825</ele>
        <time>2020-05-23T03:47:30Z</time>
      </trkpt>
      <trkpt lat="43.120700" lon="-5.973860">
        <ele>646.364</ele>
        <time>2020-05-23T03:47:50Z</time>
      </trkpt>
      <trkpt lat="43.120740" lon="-5.973820">
        <ele>645.175</ele>
        <time>2020-05-23T03:48:10Z</time>
      </trkpt>
      <trkpt lat="43.120780" lon="-5.973770">
        <ele>643.974</ele>
        <time>2020-05-23T03:48:30Z</time>
      </trkpt>
      <trkpt lat="43.120810" lon="-5.973730">
        <ele>642.997</ele>
        <time>2020-05-23T03:48:50Z</time>
      </trkpt>
      <trkpt lat="43.120820" lon="-5.973720">
        <ele>642.518</ele>
        <time>2020-05-23T03:49:10Z</time>
      </trkpt>
      <trkpt lat="43.120830" lon="-5.973690">
        <ele>642.398</ele>
        <time>2020-05-23T03:49:30Z</time>
      </trkpt>
      <trkpt lat="43.120860" lon="-5.973630">
        <ele>641.917</ele>
        <time>2020-05-23T03:49:50Z</time>
      </trkpt>
      <trkpt lat="43.120920" lon="-5.973490">
        <ele>640.808</ele>
        <time>2020-05-23T03:50:10Z</time>
      </trkpt>
      <trkpt lat="43.120940" lon="-5.973400">
        <ele>640.615</ele>
        <time>2020-05-23T03:50:30Z</time>
      </trkpt>
      <trkpt lat="43.120970" lon="-5.973340">
        <ele>640.010</ele>
        <time>2020-05-23T03:50:50Z</time>
      </trkpt>
      <trkpt lat="43.121000" lon="-5.973290">
        <ele>639.977</ele>
        <time>2020-05-23T03:51:10Z</time>
      </trkpt>
      <trkpt lat="43.121040" lon="-5.973230">
        <ele>639.963</ele>
        <time>2020-05-23T03:51:30Z</time>
      </trkpt>
      <trkpt lat="43.121080" lon="-5.973190">
        <ele>639.872</ele>
        <time>2020-05-23T03:51:50Z</time>
      </trkpt>
      <trkpt lat="43.121130" lon="-5.973130">
        <ele>639.983</ele>
        <time>2020-05-23T03:52:10Z</time>
      </trkpt>
      <trkpt lat="43.121140" lon="-5.973130">
        <ele>639.612</ele>
        <time>2020-05-23T03:52:30Z</time>
      </trkpt>
      <trkpt lat="43.121200" lon="-5.973060">
        <ele>639.425</ele>
        <time>2020-05-23T03:52:50Z</time>
      </trkpt>
      <trkpt lat="43.121250" lon="-5.972990">
        <ele>639.121</ele>
        <time>2020-05-23T03:53:10Z</time>
      </trkpt>
      <trkpt lat="43.121260" lon="-5.972970">
        <ele>639.041</ele>
        <time>2020-05-23T03:53:30Z</time>
      </trkpt>
      <trkpt lat="43.121300" lon="-5.972910">
        <ele>638.405</ele>
        <time>2020-05-23T03:53:50Z</time>
      </trkpt>
      <trkpt lat="43.121340" lon="-5.972840">
        <ele>637.608</ele>
        <time>2020-05-23T03:54:10Z</time>
      </trkpt>
      <trkpt lat="43.121380" lon="-5.972780">
        <ele>636.476</ele>
        <time>2020-05-23T03:54:30Z</time>
      </trkpt>
      <trkpt lat="43.121390" lon="-5.972760">
        <ele>636.181</ele>
        <time>2020-05-23T03:54:50Z</time>
      </trkpt>
      <trkpt lat="43.121420" lon="-5.972680">
        <ele>636.028</ele>
        <time>2020-05-23T03:55:10Z</time>
      </trkpt>
      <trkpt lat="43.121460" lon="-5.972610">
        <ele>635.774</ele>
        <time>2020-05-23T03:55:30Z</time>
      </trkpt>
      <trkpt lat="43.121480" lon="-5.972570">
        <ele>635.533</ele>
        <time>2020-05-23T03:55:50Z</time>
      </trkpt>
      <trkpt lat="43.121520" lon="-5.972480">
        <ele>635.654</ele>
        <time>2020-05-23T03:56:10Z</time>
      </trkpt>
      <trkpt lat="43.121560" lon="-5.972430">
        <ele>635.653</ele>
        <time>2020-05-23T03:56:30Z</time>
      </trkpt>
      <trkpt lat="43.121600" lon="-5.972390">
        <ele>635.346</ele>
        <time>2020-05-23T03:56:50Z</time>
      </trkpt>
      <trkpt lat="43.121610" lon="-5.972370">
        <ele>635.421</ele>
        <time>2020-05-23T03:57:10Z</time>
      </trkpt>
      <trkpt lat="43.121740" lon="-5.972250">
        <ele>634.341</ele>
        <time>2020-05-23T03:57:30Z</time>
      </trkpt>
      <trkpt lat="43.121890" lon="-5.972110">
        <ele>634.105</ele>
        <time>2020-05-23T03:57:50Z</time>
      </trkpt>
      <trkpt lat="43.122180" lon="-5.971840">
        <ele>634.608</ele>
        <time>2020-05-23T03:58:10Z</time>
      </trkpt>
      <trkpt lat="43.122250" lon="-5.971760">
        <ele>634.356</ele>
        <time>2020-05-23T03:58:30Z</time>
      </trkpt>
      <trkpt lat="43.122290" lon="-5.971700">
        <ele>633.951</ele>
        <time>2020-05-23T03:58:50Z</time>
      </trkpt>
      <trkpt lat="43.122330" lon="-5.971640">
        <ele>633.628</ele>
        <time>2020-05-23T03:59:10Z</time>
      </trkpt>
      <trkpt lat="43.122360" lon="-5.971580">
        <ele>633.384</ele>
        <time>2020-05-23T03:59:30Z</time>
      </trkpt>
      <trkpt lat="43.122390" lon="-5.971530">
        <ele>632.623</ele>
        <time>2020-05-23T03:59:50Z</time>
      </trkpt>
      <trkpt lat="43.122410" lon="-5.971470">
        <ele>632.334</ele>
        <time>2020-05-23T04:00:10Z</time>
      </trkpt>
      <trkpt lat="43.122410" lon="-5.971450">
        <ele>632.513</ele>
        <time>2020-05-23T04:00:30Z</time>
      </trkpt>
      <trkpt lat="43.122420" lon="-5.971410">
        <ele>632.466</ele>
        <time>2020-05-23T04:00:50Z</time>
      </trkpt>
      <trkpt lat="43.122420" lon="-5.971350">
        <ele>632.512</ele>
        <time>2020-05-23T04:01:10Z</time>
      </trkpt>
      <trkpt lat="43.122430" lon="-5.971240">
        <ele>631.832</ele>
        <time>2020-05-23T04:01:30Z</time>
      </trkpt>
      <trkpt lat="43.122430" lon="-5.971200">
        <ele>631.705</ele>
        <time>2020-05-23T04:01:50Z</time>
      </trkpt>
      <trkpt lat="43.122430" lon="-5.971100">
        <ele>631.508</ele>
        <time>2020-05-23T04:02:10Z</time>
      </trkpt>
      <trkpt lat="43.122420" lon="-5.970980">
        <ele>631.885</ele>
        <time>2020-05-23T04:02:30Z</time>
      </trkpt>
      <trkpt lat="43.122420" lon="-5.970880">
        <ele>631.620</ele>
        <time>2020-05-23T04:02:50Z</time>
      </trkpt>
      <trkpt lat="43.122410" lon="-5.970810">
        <ele>631.827</ele>
        <time>2020-05-23T04:03:10Z</time>
      </trkpt>
      <trkpt lat="43.122410" lon="-5.970760">
        <ele>631.533</ele>
        <time>2020-05-23T04:03:30Z</time>
      </trkpt>
      <trkpt lat="43.122410" lon="-5.970720">
        <ele>631.262</ele>
        <time>2020-05-23T04:03:50Z</time>
      </trkpt>
      <trkpt lat="43.122410" lon="-5.970710">
        <ele>631.273</ele>
        <time>2020-05-23T04:04:10Z</time>
      </trkpt>
      <trkpt lat="43.122410" lon="-5.970670">
        <ele>630.922</ele>
        <time>2020-05-23T04:04:30Z</time>
      </trkpt>
      <trkpt lat="43.122420" lon="-5.970630">
        <ele>630.365</ele>
        <time>2020-05-23T04:04:50Z</time>
      </trkpt>
      <trkpt lat="43.122420" lon="-5.970590">
        <ele>630.177</ele>
        <time>2020-05-23T04:05:10Z</time>
      </trkpt>
      <trkpt lat="43.122430" lon="-5.970550">
        <ele>629.561</ele>
        <time>2020-05-23T04:05:30Z</time>
      </trkpt>
      <trkpt lat="43.122430" lon="-5.970520">
        <ele>629.527</ele>
        <time>2020-05-23T04:05:50Z</time>
      </trkpt>
      <trkpt lat="43.122440" lon="-5.970500">
        <ele>629.108</ele>
        <time>2020-05-23T04:06:10Z</time>
      </trkpt>
      <trkpt lat="43.122450" lon="-5.970470">
        <ele>628.721</ele>
        <time>2020-05-23T04:06:30Z</time>
      </trkpt>
      <trkpt lat="43.122470" lon="-5.970440">
        <ele>628.016</ele>
        <time>2020-05-23T04:06:50Z</time>
      </trkpt>
      <trkpt lat="43.122490" lon="-5.970410">
        <ele>627.393</ele>
        <time>2020-05-23T04:07:10Z</time>
      </trkpt>
      <trkpt lat="43.122510" lon="-5.970390">
        <ele>626.999</ele>
        <time>2020-05-23T04:07:30Z</time>
      </trkpt>
      <trkpt lat="43.122530" lon="-5.970370">
        <ele>626.798</ele>
        <time>2020-05-23T04:07:50Z</time>
      </trkpt>
      <trkpt lat="43.122550" lon="-5.970360">
        <ele>626.589</ele>
        <time>2020-05-23T04:08:10Z</time>
      </trkpt>
      <trkpt lat="43.122560" lon="-5.970350">
        <ele>626.438</ele>
        <time>2020-05-23T04:08:30Z</time>
      </trkpt>
      <trkpt lat="43.122580" lon="-5.970340">
        <ele>626.251</ele>
        <time>2020-05-23T04:08:50Z</time>
      </trkpt>
      <trkpt lat="43.122600" lon="-5.970340">
        <ele>626.032</ele>
        <time>2020-05-23T04:09:10Z</time>
      </trkpt>
      <trkpt lat="43.122790" lon="-5.970320">
        <ele>624.492</ele>
        <time>2020-05-23T04:09:30Z</time>
      </trkpt>
      <trkpt lat="43.123130" lon="-5.970300">
        <ele>621.911</ele>
        <time>2020-05-23T04:09:50Z</time>
      </trkpt>
      <trkpt lat="43.123310" lon="-5.970290">
        <ele>620.808</ele>
        <time>2020-05-23T04:10:10Z</time>
      </trkpt>
      <trkpt lat="43.123340" lon="-5.970280">
        <ele>620.987</ele>
        <time>2020-05-23T04:10:30Z</time>
      </trkpt>
      <trkpt lat="43.123490" lon="-5.970270">
        <ele>619.732</ele>
        <time>2020-05-23T04:10:50Z</time>
      </trkpt>
      <trkpt lat="43.123670" lon="-5.970250">
        <ele>618.649</ele>
        <time>2020-05-23T04:11:10Z</time>
      </trkpt>
      <trkpt lat="43.123950" lon="-5.970220">
        <ele>617.265</ele>
        <time>2020-05-23T04:11:30Z</time>
      </trkpt>
      <trkpt lat="43.124000" lon="-5.970220">
        <ele>616.844</ele>
        <time>2020-05-23T04:11:50Z</time>
      </trkpt>
      <trkpt lat="43.124060" lon="-5.970210">
        <ele>616.685</ele>
        <time>2020-05-23T04:12:10Z</time>
      </trkpt>
      <trkpt lat="43.124140" lon="-5.970190">
        <ele>616.494</ele>
        <time>2020-05-23T04:12:30Z</time>
      </trkpt>
      <trkpt lat="43.124190" lon="-5.970180">
        <ele>616.067</ele>
        <time>2020-05-23T04:12:50Z</time>
      </trkpt>
      <trkpt lat="43.124240" lon="-5.970160">
        <ele>615.634</ele>
        <time>2020-05-23T04:13:10Z</time>
      </trkpt>
      <trkpt lat="43.124290" lon="-5.970140">
        <ele>615.355</ele>
        <time>2020-05-23T04:13:30Z</time>
      </trkpt>
      <trkpt lat="43.124350" lon="-5.970120">
        <ele>614.710</ele>
        <time>2020-05-23T04:13:50Z</time>
      </trkpt>
      <trkpt lat="43.124380" lon="-5.970100">
        <ele>614.608</ele>
        <time>2020-05-23T04:14:10Z</time>
      </trkpt>
      <trkpt lat="43.124420" lon="-5.970090">
        <ele>614.267</ele>
        <time>2020-05-23T04:14:30Z</time>
      </trkpt>
      <trkpt lat="43.124520" lon="-5.970030">
        <ele>613.662</ele>
        <time>2020-05-23T04:14:50Z</time>
      </trkpt>
      <trkpt lat="43.124720" lon="-5.969940">
        <ele>612.289</ele>
        <time>2020-05-23T04:15:10Z</time>
      </trkpt>
      <trkpt lat="43.124780" lon="-5.969900">
        <ele>612.395</ele>
        <time>2020-05-23T04:15:30Z</time>
      </trkpt>
      <trkpt lat="43.124890" lon="-5.969850">
        <ele>611.544</ele>
        <time>2020-05-23T04:15:50Z</time>
      </trkpt>
      <trkpt lat="43.125060" lon="-5.969770">
        <ele>609.965</ele>
        <time>2020-05-23T04:16:10Z</time>
      </trkpt>
      <trkpt lat="43.125390" lon="-5.969610">
        <ele>607.654</ele>
        <time>2020-05-23T04:16:30Z</time>
      </trkpt>
      <trkpt lat="43.125400" lon="-5.969600">
        <ele>607.877</ele>
        <time>2020-05-23T04:16:50Z</time>
      </trkpt>
      <trkpt lat="43.125570" lon="-5.969530">
        <ele>606.659</ele>
        <time>2020-05-23T04:17:10Z</time>
      </trkpt>
      <trkpt lat="43.125740" lon="-5.969460">
        <ele>606.003</ele>
        <time>2020-05-23T04:17:30Z</time>
      </trkpt>
      <trkpt lat="43.125910" lon="-5.969380">
        <ele>607.223</ele>
        <time>2020-05-23T04:17:50Z</time>
      </trkpt>
      <trkpt lat="43.126080" lon="-5.969310">
        <ele>607.108</ele>
        <time>2020-05-23T04:18:10Z</time>
      </trkpt>
      <trkpt lat="43.126170" lon="-5.969270">
        <ele>607.049</ele>
        <time>2020-05-23T04:18:30Z</time>
      </trkpt>
      <trkpt lat="43.126250" lon="-5.969230">
        <ele>606.924</ele>
        <time>2020-05-23T04:18:50Z</time>
      </trkpt>
      <trkpt lat="43.126420" lon="-5.969160">
        <ele>605.091</ele>
        <time>2020-05-23T04:19:10Z</time>
      </trkpt>
      <trkpt lat="43.126530" lon="-5.969120">
        <ele>602.697</ele>
        <time>2020-05-23T04:19:30Z</time>
      </trkpt>
      <trkpt lat="43.126600" lon="-5.969090">
        <ele>601.266</ele>
        <time>2020-05-23T04:19:50Z</time>
      </trkpt>
      <trkpt lat="43.126650" lon="-5.969060">
        <ele>600.787</ele>
        <time>2020-05-23T04:20:10Z</time>
      </trkpt>
      <trkpt lat="43.126770" lon="-5.969010">
        <ele>599.476</ele>
        <time>2020-05-23T04:20:30Z</time>
      </trkpt>
      <trkpt lat="43.126930" lon="-5.968920">
        <ele>598.829</ele>
        <time>2020-05-23T04:20:50Z</time>
      </trkpt>
      <trkpt lat="43.126970" lon="-5.968910">
        <ele>597.935</ele>
        <time>2020-05-23T04:21:10Z</time>
      </trkpt>
      <trkpt lat="43.127030" lon="-5.968870">
        <ele>598.086</ele>
        <time>2020-05-23T04:21:30Z</time>
      </trkpt>
      <trkpt lat="43.127080" lon="-5.968850">
        <ele>597.614</ele>
        <time>2020-05-23T04:21:50Z</time>
      </trkpt>
      <trkpt lat="43.127140" lon="-5.968810">
        <ele>598.208</ele>
        <time>2020-05-23T04:22:10Z</time>
      </trkpt>
      <trkpt lat="43.127270" lon="-5.968750">
        <ele>597.977</ele>
        <time>2020-05-23T04:22:30Z</time>
      </trkpt>
      <trkpt lat="43.127440" lon="-5.968670">
        <ele>593.932</ele>
        <time>2020-05-23T04:22:50Z</time>
      </trkpt>
      <trkpt lat="43.127610" lon="-5.968590">
        <ele>591.949</ele>
        <time>2020-05-23T04:23:10Z</time>
      </trkpt>
      <trkpt lat="43.127780" lon="-5.968510">
        <ele>590.955</ele>
        <time>2020-05-23T04:23:30Z</time>
      </trkpt>
      <trkpt lat="43.127930" lon="-5.968440">
        <ele>590.844</ele>
        <time>2020-05-23T04:23:50Z</time>
      </trkpt>
      <trkpt lat="43.127950" lon="-5.968440">
        <ele>590.595</ele>
        <time>2020-05-23T04:24:10Z</time>
      </trkpt>
      <trkpt lat="43.127980" lon="-5.968430">
        <ele>590.314</ele>
        <time>2020-05-23T04:24:30Z</time>
      </trkpt>
      <trkpt lat="43.128020" lon="-5.968410">
        <ele>590.257</ele>
        <time>2020-05-23T04:24:50Z</time>
      </trkpt>
      <trkpt lat="43.128060" lon="-5.968390">
        <ele>589.993</ele>
        <time>2020-05-23T04:25:10Z</time>
      </trkpt>
      <trkpt lat="43.128100" lon="-5.968370">
        <ele>589.465</ele>
        <time>2020-05-23T04:25:30Z</time>
      </trkpt>
      <trkpt lat="43.128140" lon="-5.968350">
        <ele>588.921</ele>
        <time>2020-05-23T04:25:50Z</time>
      </trkpt>
      <trkpt lat="43.128330" lon="-5.968190">
        <ele>586.108</ele>
        <time>2020-05-23T04:26:10Z</time>
      </trkpt>
      <trkpt lat="43.128470" lon="-5.968080">
        <ele>586.793</ele>
        <time>2020-05-23T04:26:30Z</time>
      </trkpt>
      <trkpt lat="43.128500" lon="-5.968070">
        <ele>586.848</ele>
        <time>2020-05-23T04:26:50Z</time>
      </trkpt>
      <trkpt lat="43.128530" lon="-5.968060">
        <ele>586.995</ele>
        <time>2020-05-23T04:27:10Z</time>
      </trkpt>
      <trkpt lat="43.128550" lon="-5.968060">
        <ele>586.941</ele>
        <time>2020-05-23T04:27:30Z</time>
      </trkpt>
      <trkpt lat="43.128560" lon="-5.968060">
        <ele>586.960</ele>
        <time>2020-05-23T04:27:50Z</time>
      </trkpt>
      <trkpt lat="43.128590" lon="-5.968070">
        <ele>586.831</ele>
        <time>2020-05-23T04:28:10Z</time>
      </trkpt>
      <trkpt lat="43.128610" lon="-5.968070">
        <ele>586.840</ele>
        <time>2020-05-23T04:28:30Z</time>
      </trkpt>
      <trkpt lat="43.128640" lon="-5.968080">
        <ele>587.033</ele>
        <time>2020-05-23T04:28:50Z</time>
      </trkpt>
      <trkpt lat="43.128670" lon="-5.968110">
        <ele>587.029</ele>
        <time>2020-05-23T04:29:10Z</time>
      </trkpt>
      <trkpt lat="43.128710" lon="-5.968140">
        <ele>587.000</ele>
        <time>2020-05-23T04:29:30Z</time>
      </trkpt>
      <trkpt lat="43.128720" lon="-5.968150">
        <ele>586.920</ele>
        <time>2020-05-23T04:29:50Z</time>
      </trkpt>
      <trkpt lat="43.128870" lon="-5.968290">
        <ele>585.808</ele>
        <time>2020-05-23T04:30:10Z</time>
      </trkpt>
      <trkpt lat="43.128880" lon="-5.968300">
        <ele>585.626</ele>
        <time>2020-05-23T04:30:30Z</time>
      </trkpt>
      <trkpt lat="43.128910" lon="-5.968310">
        <ele>585.411</ele>
        <time>2020-05-23T04:30:50Z</time>
      </trkpt>
      <trkpt lat="43.128940" lon="-5.968320">
        <ele>585.188</ele>
        <time>2020-05-23T04:31:10Z</time>
      </trkpt>
      <trkpt lat="43.128970" lon="-5.968330">
        <ele>584.844</ele>
        <time>2020-05-23T04:31:30Z</time>
      </trkpt>
      <trkpt lat="43.129010" lon="-5.968320">
        <ele>584.813</ele>
        <time>2020-05-23T04:31:50Z</time>
      </trkpt>
      <trkpt lat="43.129040" lon="-5.968320">
        <ele>584.734</ele>
        <time>2020-05-23T04:32:10Z</time>
      </trkpt>
      <trkpt lat="43.129070" lon="-5.968310">
        <ele>584.723</ele>
        <time>2020-05-23T04:32:30Z</time>
      </trkpt>
      <trkpt lat="43.129100" lon="-5.968300">
        <ele>584.896</ele>
        <time>2020-05-23T04:32:50Z</time>
      </trkpt>
      <trkpt lat="43.129140" lon="-5.968280">
        <ele>584.979</ele>
        <time>2020-05-23T04:33:10Z</time>
      </trkpt>
      <trkpt lat="43.129170" lon="-5.968260">
        <ele>585.005</ele>
        <time>2020-05-23T04:33:30Z</time>
      </trkpt>
      <trkpt lat="43.129190" lon="-5.968240">
        <ele>584.825</ele>
        <time>2020-05-23T04:33:50Z</time>
      </trkpt>
      <trkpt lat="43.129200" lon="-5.968220">
        <ele>584.808</ele>
        <time>2020-05-23T04:34:10Z</time>
      </trkpt>
      <trkpt lat="43.129220" lon="-5.968210">
        <ele>584.561</ele>
        <time>2020-05-23T04:34:30Z</time>
      </trkpt>
      <trkpt lat="43.129240" lon="-5.968170">
        <ele>584.546</ele>
        <time>2020-05-23T04:34:50Z</time>
      </trkpt>
      <trkpt lat="43.129260" lon="-5.968130">
        <ele>584.453</ele>
        <time>2020-05-23T04:35:10Z</time>
      </trkpt>
      <trkpt lat="43.129310" lon="-5.968040">
        <ele>584.199</ele>
        <time>2020-05-23T04:35:30Z</time>
      </trkpt>
      <trkpt lat="43.129550" lon="-5.967530">
        <ele>584.038</ele>
        <time>2020-05-23T04:35:50Z</time>
      </trkpt>
      <trkpt lat="43.129590" lon="-5.967450">
        <ele>584.749</ele>
        <time>2020-05-23T04:36:10Z</time>
      </trkpt>
      <trkpt lat="43.129640" lon="-5.967370">
        <ele>585.098</ele>
        <time>2020-05-23T04:36:30Z</time>
      </trkpt>
      <trkpt lat="43.129690" lon="-5.967300">
        <ele>584.711</ele>
        <time>2020-05-23T04:36:50Z</time>
      </trkpt>
      <trkpt lat="43.129740" lon="-5.967230">
        <ele>584.439</ele>
        <time>2020-05-23T04:37:10Z</time>
      </trkpt>
      <trkpt lat="43.129790" lon="-5.967170">
        <ele>585.901</ele>
        <time>2020-05-23T04:37:30Z</time>
      </trkpt>
      <trkpt lat="43.129840" lon="-5.967120">
        <ele>586.621</ele>
        <time>2020-05-23T04:37:50Z</time>
      </trkpt>
      <trkpt lat="43.129880" lon="-5.967090">
        <ele>586.308</ele>
        <time>2020-05-23T04:38:10Z</time>
      </trkpt>
      <trkpt lat="43.130190" lon="-5.966840">
        <ele>585.417</ele>
        <time>2020-05-23T04:38:30Z</time>
      </trkpt>
      <trkpt lat="43.130390" lon="-5.966680">
        <ele>582.552</ele>
        <time>2020-05-23T04:38:50Z</time>
      </trkpt>
      <trkpt lat="43.130460" lon="-5.966630">
        <ele>582.479</ele>
        <time>2020-05-23T04:39:10Z</time>
      </trkpt>
      <trkpt lat="43.130500" lon="-5.966590">
        <ele>582.555</ele>
        <time>2020-05-23T04:39:30Z</time>
      </trkpt>
      <trkpt lat="43.130510" lon="-5.966580">
        <ele>582.534</ele>
        <time>2020-05-23T04:39:50Z</time>
      </trkpt>
      <trkpt lat="43.130840" lon="-5.966220">
        <ele>579.775</ele>
        <time>2020-05-23T04:40:10Z</time>
      </trkpt>
      <trkpt lat="43.130910" lon="-5.966150">
        <ele>579.794</ele>
        <time>2020-05-23T04:40:30Z</time>
      </trkpt>
      <trkpt lat="43.130930" lon="-5.966140">
        <ele>579.467</ele>
        <time>2020-05-23T04:40:50Z</time>
      </trkpt>
      <trkpt lat="43.130980" lon="-5.966090">
        <ele>579.965</ele>
        <time>2020-05-23T04:41:10Z</time>
      </trkpt>
      <trkpt lat="43.131030" lon="-5.966040">
        <ele>580.468</ele>
        <time>2020-05-23T04:41:30Z</time>
      </trkpt>
      <trkpt lat="43.131080" lon="-5.966000">
        <ele>579.714</ele>
        <time>2020-05-23T04:41:50Z</time>
      </trkpt>
      <trkpt lat="43.131130" lon="-5.965960">
        <ele>578.808</ele>
        <time>2020-05-23T04:42:10Z</time>
      </trkpt>
      <trkpt lat="43.131210" lon="-5.965890">
        <ele>578.560</ele>
        <time>2020-05-23T04:42:30Z</time>
      </trkpt>
      <trkpt lat="43.131230" lon="-5.965880">
        <ele>578.225</ele>
        <time>2020-05-23T04:42:50Z</time>
      </trkpt>
      <trkpt lat="43.131300" lon="-5.965830">
        <ele>577.862</ele>
        <time>2020-05-23T04:43:10Z</time>
      </trkpt>
      <trkpt lat="43.131400" lon="-5.965790">
        <ele>577.668</ele>
        <time>2020-05-23T04:43:30Z</time>
      </trkpt>
      <trkpt lat="43.131520" lon="-5.965740">
        <ele>578.087</ele>
        <time>2020-05-23T04:43:50Z</time>
      </trkpt>
      <trkpt lat="43.131580" lon="-5.965710">
        <ele>577.918</ele>
        <time>2020-05-23T04:44:10Z</time>
      </trkpt>
      <trkpt lat="43.131640" lon="-5.965690">
        <ele>576.937</ele>
        <time>2020-05-23T04:44:30Z</time>
      </trkpt>
      <trkpt lat="43.131710" lon="-5.965660">
        <ele>576.160</ele>
        <time>2020-05-23T04:44:50Z</time>
      </trkpt>
      <trkpt lat="43.131750" lon="-5.965640">
        <ele>575.958</ele>
        <time>2020-05-23T04:45:10Z</time>
      </trkpt>
      <trkpt lat="43.131790" lon="-5.965620">
        <ele>575.652</ele>
        <time>2020-05-23T04:45:30Z</time>
      </trkpt>
      <trkpt lat="43.131840" lon="-5.965590">
        <ele>575.317</ele>
        <time>2020-05-23T04:45:50Z</time>
      </trkpt>
      <trkpt lat="43.131880" lon="-5.965550">
        <ele>575.608</ele>
        <time>2020-05-23T04:46:10Z</time>
      </trkpt>
      <trkpt lat="43.131900" lon="-5.965520">
        <ele>576.079</ele>
        <time>2020-05-23T04:46:30Z</time>
      </trkpt>
      <trkpt lat="43.132030" lon="-5.965360">
        <ele>575.884</ele>
        <time>2020-05-23T04:46:50Z</time>
      </trkpt>
      <trkpt lat="43.132160" lon="-5.965190">
        <ele>575.451</ele>
        <time>2020-05-23T04:47:10Z</time>
      </trkpt>
      <trkpt lat="43.132190" lon="-5.965160">
        <ele>574.927</ele>
        <time>2020-05-23T04:47:30Z</time>
      </trkpt>
      <trkpt lat="43.132230" lon="-5.965110">
        <ele>574.276</ele>
        <time>2020-05-23T04:47:50Z</time>
      </trkpt>
      <trkpt lat="43.132260" lon="-5.965080">
        <ele>574.077</ele>
        <time>2020-05-23T04:48:10Z</time>
      </trkpt>
      <trkpt lat="43.132290" lon="-5.965060">
        <ele>573.756</ele>
        <time>2020-05-23T04:48:30Z</time>
      </trkpt>
      <trkpt lat="43.132310" lon="-5.965050">
        <ele>573.529</ele>
        <time>2020-05-23T04:48:50Z</time>
      </trkpt>
      <trkpt lat="43.132330" lon="-5.965040">
        <ele>573.373</ele>
        <time>2020-05-23T04:49:10Z</time>
      </trkpt>
      <trkpt lat="43.132380" lon="-5.965030">
        <ele>572.585</ele>
        <time>2020-05-23T04:49:30Z</time>
      </trkpt>
      <trkpt lat="43.132480" lon="-5.964990">
        <ele>571.813</ele>
        <time>2020-05-23T04:49:50Z</time>
      </trkpt>
      <trkpt lat="43.132660" lon="-5.964930">
        <ele>571.808</ele>
        <time>2020-05-23T04:50:10Z</time>
      </trkpt>
      <trkpt lat="43.132760" lon="-5.964890">
        <ele>571.851</ele>
        <time>2020-05-23T04:50:30Z</time>
      </trkpt>
      <trkpt lat="43.132790" lon="-5.964890">
        <ele>571.546</ele>
        <time>2020-05-23T04:50:50Z</time>
      </trkpt>
      <trkpt lat="43.132830" lon="-5.964880">
        <ele>571.623</ele>
        <time>2020-05-23T04:51:10Z</time>
      </trkpt>
      <trkpt lat="43.132860" lon="-5.964880">
        <ele>571.589</ele>
        <time>2020-05-23T04:51:30Z</time>
      </trkpt>
      <trkpt lat="43.132890" lon="-5.964880">
        <ele>571.318</ele>
        <time>2020-05-23T04:51:50Z</time>
      </trkpt>
      <trkpt lat="43.132940" lon="-5.964890">
        <ele>570.789</ele>
        <time>2020-05-23T04:52:10Z</time>
      </trkpt>
      <trkpt lat="43.132980" lon="-5.964890">
        <ele>570.518</ele>
        <time>2020-05-23T04:52:30Z</time>
      </trkpt>
      <trkpt lat="43.133010" lon="-5.964900">
        <ele>570.191</ele>
        <time>2020-05-23T04:52:50Z</time>
      </trkpt>
      <trkpt lat="43.133050" lon="-5.964910">
        <ele>569.691</ele>
        <time>2020-05-23T04:53:10Z</time>
      </trkpt>
      <trkpt lat="43.133160" lon="-5.964950">
        <ele>569.181</ele>
        <time>2020-05-23T04:53:30Z</time>
      </trkpt>
      <trkpt lat="43.133190" lon="-5.964960">
        <ele>569.019</ele>
        <time>2020-05-23T04:53:50Z</time>
      </trkpt>
      <trkpt lat="43.133360" lon="-5.965010">
        <ele>568.708</ele>
        <time>2020-05-23T04:54:10Z</time>
      </trkpt>
      <trkpt lat="43.133640" lon="-5.965100">
        <ele>565.893</ele>
        <time>2020-05-23T04:54:30Z</time>
      </trkpt>
      <trkpt lat="43.133690" lon="-5.965110">
        <ele>565.578</ele>
        <time>2020-05-23T04:54:50Z</time>
      </trkpt>
      <trkpt lat="43.133720" lon="-5.965110">
        <ele>565.595</ele>
        <time>2020-05-23T04:55:10Z</time>
      </trkpt>
      <trkpt lat="43.133740" lon="-5.965110">
        <ele>565.541</ele>
        <time>2020-05-23T04:55:30Z</time>
      </trkpt>
      <trkpt lat="43.133790" lon="-5.965110">
        <ele>565.630</ele>
        <time>2020-05-23T04:55:50Z</time>
      </trkpt>
      <trkpt lat="43.133840" lon="-5.965110">
        <ele>565.691</ele>
        <time>2020-05-23T04:56:10Z</time>
      </trkpt>
      <trkpt lat="43.133900" lon="-5.965100">
        <ele>565.850</ele>
        <time>2020-05-23T04:56:30Z</time>
      </trkpt>
      <trkpt lat="43.133980" lon="-5.965090">
        <ele>565.643</ele>
        <time>2020-05-23T04:56:50Z</time>
      </trkpt>
      <trkpt lat="43.134070" lon="-5.965060">
        <ele>565.794</ele>
        <time>2020-05-23T04:57:10Z</time>
      </trkpt>
      <trkpt lat="43.134290" lon="-5.965010">
        <ele>565.457</ele>
        <time>2020-05-23T04:57:30Z</time>
      </trkpt>
      <trkpt lat="43.134400" lon="-5.964980">
        <ele>565.322</ele>
        <time>2020-05-23T04:57:50Z</time>
      </trkpt>
      <trkpt lat="43.134430" lon="-5.964970">
        <ele>565.308</ele>
        <time>2020-05-23T04:58:10Z</time>
      </trkpt>
      <trkpt lat="43.134450" lon="-5.964960">
        <ele>565.253</ele>
        <time>2020-05-23T04:58:30Z</time>
      </trkpt>
      <trkpt lat="43.134490" lon="-5.964940">
        <ele>564.858</ele>
        <time>2020-05-23T04:58:50Z</time>
      </trkpt>
      <trkpt lat="43.134530" lon="-5.964920">
        <ele>564.355</ele>
        <time>2020-05-23T04:59:10Z</time>
      </trkpt>
      <trkpt lat="43.134560" lon="-5.964880">
        <ele>564.261</ele>
        <time>2020-05-23T04:59:30Z</time>
      </trkpt>
      <trkpt lat="43.134600" lon="-5.964840">
        <ele>563.930</ele>
        <time>2020-05-23T04:59:50Z</time>
      </trkpt>
      <trkpt lat="43.134630" lon="-5.964790">
        <ele>563.841</ele>
        <time>2020-05-23T05:00:10Z</time>
      </trkpt>
      <trkpt lat="43.134690" lon="-5.964660">
        <ele>563.970</ele>
        <time>2020-05-23T05:00:30Z</time>
      </trkpt>
      <trkpt lat="43.134780" lon="-5.964450">
        <ele>563.963</ele>
        <time>2020-05-23T05:00:50Z</time>
      </trkpt>
      <trkpt lat="43.134860" lon="-5.964270">
        <ele>562.823</ele>
        <time>2020-05-23T05:01:10Z</time>
      </trkpt>
      <trkpt lat="43.134920" lon="-5.964150">
        <ele>561.983</ele>
        <time>2020-05-23T05:01:30Z</time>
      </trkpt>
      <trkpt lat="43.134940" lon="-5.964080">
        <ele>562.211</ele>
        <time>2020-05-23T05:01:50Z</time>
      </trkpt>
      <trkpt lat="43.134970" lon="-5.964020">
        <ele>562.208</ele>
        <time>2020-05-23T05:02:10Z</time>
      </trkpt>
      <trkpt lat="43.135010" lon="-5.963970">
        <ele>561.836</ele>
        <time>2020-05-23T05:02:30Z</time>
      </trkpt>
      <trkpt lat="43.135040" lon="-5.963930">
        <ele>561.261</ele>
        <time>2020-05-23T05:02:50Z</time>
      </trkpt>
      <trkpt lat="43.135080" lon="-5.963890">
        <ele>560.428</ele>
        <time>2020-05-23T05:03:10Z</time>
      </trkpt>
      <trkpt lat="43.135110" lon="-5.963870">
        <ele>559.984</ele>
        <time>2020-05-23T05:03:30Z</time>
      </trkpt>
      <trkpt lat="43.135180" lon="-5.963810">
        <ele>559.363</ele>
        <time>2020-05-23T05:03:50Z</time>
      </trkpt>
      <trkpt lat="43.135270" lon="-5.963760">
        <ele>558.084</ele>
        <time>2020-05-23T05:04:10Z</time>
      </trkpt>
      <trkpt lat="43.135430" lon="-5.963650">
        <ele>557.453</ele>
        <time>2020-05-23T05:04:30Z</time>
      </trkpt>
      <trkpt lat="43.135590" lon="-5.963550">
        <ele>557.536</ele>
        <time>2020-05-23T05:04:50Z</time>
      </trkpt>
      <trkpt lat="43.135600" lon="-5.963540">
        <ele>557.658</ele>
        <time>2020-05-23T05:05:10Z</time>
      </trkpt>
      <trkpt lat="43.135700" lon="-5.963490">
        <ele>556.752</ele>
        <time>2020-05-23T05:05:30Z</time>
      </trkpt>
      <trkpt lat="43.135750" lon="-5.963450">
        <ele>556.217</ele>
        <time>2020-05-23T05:05:50Z</time>
      </trkpt>
      <trkpt lat="43.135780" lon="-5.963420">
        <ele>555.808</ele>
        <time>2020-05-23T05:06:10Z</time>
      </trkpt>
      <trkpt lat="43.135820" lon="-5.963380">
        <ele>555.059</ele>
        <time>2020-05-23T05:06:30Z</time>
      </trkpt>
      <trkpt lat="43.135850" lon="-5.963330">
        <ele>554.384</ele>
        <time>2020-05-23T05:06:50Z</time>
      </trkpt>
      <trkpt lat="43.135870" lon="-5.963290">
        <ele>554.721</ele>
        <time>2020-05-23T05:07:10Z</time>
      </trkpt>
      <trkpt lat="43.135880" lon="-5.963270">
        <ele>554.897</ele>
        <time>2020-05-23T05:07:30Z</time>
      </trkpt>
      <trkpt lat="43.135900" lon="-5.963230">
        <ele>555.186</ele>
        <time>2020-05-23T05:07:50Z</time>
      </trkpt>
      <trkpt lat="43.135920" lon="-5.963160">
        <ele>556.417</ele>
        <time>2020-05-23T05:08:10Z</time>
      </trkpt>
      <trkpt lat="43.135950" lon="-5.963080">
        <ele>557.426</ele>
        <time>2020-05-23T05:08:30Z</time>
      </trkpt>
      <trkpt lat="43.135960" lon="-5.963050">
        <ele>557.739</ele>
        <time>2020-05-23T05:08:50Z</time>
      </trkpt>
      <trkpt lat="43.135980" lon="-5.963000">
        <ele>557.718</ele>
        <time>2020-05-23T05:09:10Z</time>
      </trkpt>
      <trkpt lat="43.136000" lon="-5.962970">
        <ele>557.298</ele>
        <time>2020-05-23T05:09:30Z</time>
      </trkpt>
      <trkpt lat="43.136010" lon="-5.962950">
        <ele>557.017</ele>
        <time>2020-05-23T05:09:50Z</time>
      </trkpt>
      <trkpt lat="43.136020" lon="-5.962920">
        <ele>557.008</ele>
        <time>2020-05-23T05:10:10Z</time>
      </trkpt>
      <trkpt lat="43.136040" lon="-5.962910">
        <ele>556.175</ele>
        <time>2020-05-23T05:10:30Z</time>
      </trkpt>
      <trkpt lat="43.136060" lon="-5.962890">
        <ele>555.310</ele>
        <time>2020-05-23T05:10:50Z</time>
      </trkpt>
      <trkpt lat="43.136070" lon="-5.962880">
        <ele>554.987</ele>
        <time>2020-05-23T05:11:10Z</time>
      </trkpt>
      <trkpt lat="43.136080" lon="-5.962870">
        <ele>554.543</ele>
        <time>2020-05-23T05:11:30Z</time>
      </trkpt>
      <trkpt lat="43.136110" lon="-5.962860">
        <ele>552.942</ele>
        <time>2020-05-23T05:11:50Z</time>
      </trkpt>
      <trkpt lat="43.136140" lon="-5.962850">
        <ele>552.933</ele>
        <time>2020-05-23T05:12:10Z</time>
      </trkpt>
      <trkpt lat="43.136160" lon="-5.962850">
        <ele>552.952</ele>
        <time>2020-05-23T05:12:30Z</time>
      </trkpt>
      <trkpt lat="43.136210" lon="-5.962850">
        <ele>552.815</ele>
        <time>2020-05-23T05:12:50Z</time>
      </trkpt>
      <trkpt lat="43.136250" lon="-5.962860">
        <ele>552.568</ele>
        <time>2020-05-23T05:13:10Z</time>
      </trkpt>
      <trkpt lat="43.136300" lon="-5.962880">
        <ele>552.042</ele>
        <time>2020-05-23T05:13:30Z</time>
      </trkpt>
      <trkpt lat="43.136350" lon="-5.962900">
        <ele>551.526</ele>
        <time>2020-05-23T05:13:50Z</time>
      </trkpt>
      <trkpt lat="43.136400" lon="-5.962920">
        <ele>550.808</ele>
        <time>2020-05-23T05:14:10Z</time>
      </trkpt>
      <trkpt lat="43.136430" lon="-5.962930">
        <ele>550.290</ele>
        <time>2020-05-23T05:14:30Z</time>
      </trkpt>
      <trkpt lat="43.136450" lon="-5.962940">
        <ele>549.735</ele>
        <time>2020-05-23T05:14:50Z</time>
      </trkpt>
      <trkpt lat="43.136500" lon="-5.962940">
        <ele>549.192</ele>
        <time>2020-05-23T05:15:10Z</time>
      </trkpt>
      <trkpt lat="43.136550" lon="-5.962940">
        <ele>548.458</ele>
        <time>2020-05-23T05:15:30Z</time>
      </trkpt>
      <trkpt lat="43.136600" lon="-5.962930">
        <ele>548.047</ele>
        <time>2020-05-23T05:15:50Z</time>
      </trkpt>
      <trkpt lat="43.136610" lon="-5.962920">
        <ele>548.138</ele>
        <time>2020-05-23T05:16:10Z</time>
      </trkpt>
      <trkpt lat="43.136660" lon="-5.962910">
        <ele>547.867</ele>
        <time>2020-05-23T05:16:30Z</time>
      </trkpt>
      <trkpt lat="43.136710" lon="-5.962890">
        <ele>547.320</ele>
        <time>2020-05-23T05:16:50Z</time>
      </trkpt>
      <trkpt lat="43.136740" lon="-5.962880">
        <ele>546.969</ele>
        <time>2020-05-23T05:17:10Z</time>
      </trkpt>
      <trkpt lat="43.136780" lon="-5.962850">
        <ele>546.904</ele>
        <time>2020-05-23T05:17:30Z</time>
      </trkpt>
      <trkpt lat="43.136810" lon="-5.962820">
        <ele>547.224</ele>
        <time>2020-05-23T05:17:50Z</time>
      </trkpt>
      <trkpt lat="43.136860" lon="-5.962790">
        <ele>547.208</ele>
        <time>2020-05-23T05:18:10Z</time>
      </trkpt>
      <trkpt lat="43.136890" lon="-5.962760">
        <ele>547.520</ele>
        <time>2020-05-23T05:18:30Z</time>
      </trkpt>
      <trkpt lat="43.136930" lon="-5.962720">
        <ele>547.955</ele>
        <time>2020-05-23T05:18:50Z</time>
      </trkpt>
      <trkpt lat="43.136990" lon="-5.962660">
        <ele>547.012</ele>
        <time>2020-05-23T05:19:10Z</time>
      </trkpt>
      <trkpt lat="43.137200" lon="-5.962380">
        <ele>544.098</ele>
        <time>2020-05-23T05:19:30Z</time>
      </trkpt>
      <trkpt lat="43.137230" lon="-5.962340">
        <ele>543.987</ele>
        <time>2020-05-23T05:19:50Z</time>
      </trkpt>
      <trkpt lat="43.137300" lon="-5.962240">
        <ele>544.688</ele>
        <time>2020-05-23T05:20:10Z</time>
      </trkpt>
      <trkpt lat="43.137360" lon="-5.962180">
        <ele>545.547</ele>
        <time>2020-05-23T05:20:30Z</time>
      </trkpt>
      <trkpt lat="43.137380" lon="-5.962160">
        <ele>546.180</ele>
        <time>2020-05-23T05:20:50Z</time>
      </trkpt>
      <trkpt lat="43.137440" lon="-5.962100">
        <ele>548.017</ele>
        <time>2020-05-23T05:21:10Z</time>
      </trkpt>
      <trkpt lat="43.137500" lon="-5.962060">
        <ele>549.187</ele>
        <time>2020-05-23T05:21:30Z</time>
      </trkpt>
      <trkpt lat="43.137510" lon="-5.962050">
        <ele>549.315</ele>
        <time>2020-05-23T05:21:50Z</time>
      </trkpt>
      <trkpt lat="43.137560" lon="-5.962010">
        <ele>549.608</ele>
        <time>2020-05-23T05:22:10Z</time>
      </trkpt>
      <trkpt lat="43.137650" lon="-5.961950">
        <ele>548.635</ele>
        <time>2020-05-23T05:22:30Z</time>
      </trkpt>
      <trkpt lat="43.137670" lon="-5.961940">
        <ele>548.190</ele>
        <time>2020-05-23T05:22:50Z</time>
      </trkpt>
      <trkpt lat="43.137710" lon="-5.961910">
        <ele>548.277</ele>
        <time>2020-05-23T05:23:10Z</time>
      </trkpt>
      <trkpt lat="43.137770" lon="-5.961900">
        <ele>545.923</ele>
        <time>2020-05-23T05:23:30Z</time>
      </trkpt>
      <trkpt lat="43.137850" lon="-5.961890">
        <ele>545.632</ele>
        <time>2020-05-23T05:23:50Z</time>
      </trkpt>
      <trkpt lat="43.137920" lon="-5.961890">
        <ele>545.093</ele>
        <time>2020-05-23T05:24:10Z</time>
      </trkpt>
      <trkpt lat="43.137980" lon="-5.961900">
        <ele>543.742</ele>
        <time>2020-05-23T05:24:30Z</time>
      </trkpt>
      <trkpt lat="43.138030" lon="-5.961910">
        <ele>542.695</ele>
        <time>2020-05-23T05:24:50Z</time>
      </trkpt>
      <trkpt lat="43.138090" lon="-5.961920">
        <ele>541.771</ele>
        <time>2020-05-23T05:25:10Z</time>
      </trkpt>
      <trkpt lat="43.138150" lon="-5.961950">
        <ele>539.841</ele>
        <time>2020-05-23T05:25:30Z</time>
      </trkpt>
      <trkpt lat="43.138200" lon="-5.961970">
        <ele>539.215</ele>
        <time>2020-05-23T05:25:50Z</time>
      </trkpt>
      <trkpt lat="43.138220" lon="-5.961980">
        <ele>538.908</ele>
        <time>2020-05-23T05:26:10Z</time>
      </trkpt>
      <trkpt lat="43.138290" lon="-5.962010">
        <ele>538.051</ele>
        <time>2020-05-23T05:26:30Z</time>
      </trkpt>
      <trkpt lat="43.138340" lon="-5.962020">
        <ele>537.876</ele>
        <time>2020-05-23T05:26:50Z</time>
      </trkpt>
      <trkpt lat="43.138410" lon="-5.962040">
        <ele>536.553</ele>
        <time>2020-05-23T05:27:10Z</time>
      </trkpt>
      <trkpt lat="43.138550" lon="-5.962060">
        <ele>534.759</ele>
        <time>2020-05-23T05:27:30Z</time>
      </trkpt>
      <trkpt lat="43.138720" lon="-5.962070">
        <ele>533.648</ele>
        <time>2020-05-23T05:27:50Z</time>
      </trkpt>
      <trkpt lat="43.138900" lon="-5.962080">
        <ele>533.069</ele>
        <time>2020-05-23T05:28:10Z</time>
      </trkpt>
      <trkpt lat="43.138910" lon="-5.962080">
        <ele>532.988</ele>
        <time>2020-05-23T05:28:30Z</time>
      </trkpt>
      <trkpt lat="43.138940" lon="-5.962080">
        <ele>532.791</ele>
        <time>2020-05-23T05:28:50Z</time>
      </trkpt>
      <trkpt lat="43.138990" lon="-5.962070">
        <ele>532.546</ele>
        <time>2020-05-23T05:29:10Z</time>
      </trkpt>
      <trkpt lat="43.139040" lon="-5.962060">
        <ele>532.288</ele>
        <time>2020-05-23T05:29:30Z</time>
      </trkpt>
      <trkpt lat="43.139080" lon="-5.962040">
        <ele>532.216</ele>
        <time>2020-05-23T05:29:50Z</time>
      </trkpt>
      <trkpt lat="43.139120" lon="-5.962020">
        <ele>532.208</ele>
        <time>2020-05-23T05:30:10Z</time>
      </trkpt>
      <trkpt lat="43.139250" lon="-5.961960">
        <ele>531.338</ele>
        <time>2020-05-23T05:30:30Z</time>
      </trkpt>
      <trkpt lat="43.139420" lon="-5.961880">
        <ele>531.743</ele>
        <time>2020-05-23T05:30:50Z</time>
      </trkpt>
      <trkpt lat="43.139450" lon="-5.961870">
        <ele>531.690</ele>
        <time>2020-05-23T05:31:10Z</time>
      </trkpt>
      <trkpt lat="43.139500" lon="-5.961860">
        <ele>530.956</ele>
        <time>2020-05-23T05:31:30Z</time>
      </trkpt>
      <trkpt lat="43.139540" lon="-5.961850">
        <ele>530.345</ele>
        <time>2020-05-23T05:31:50Z</time>
      </trkpt>
      <trkpt lat="43.139580" lon="-5.961840">
        <ele>529.836</ele>
        <time>2020-05-23T05:32:10Z</time>
      </trkpt>
      <trkpt lat="43.139600" lon="-5.961840">
        <ele>529.365</ele>
        <time>2020-05-23T05:32:30Z</time>
      </trkpt>
      <trkpt lat="43.139630" lon="-5.961840">
        <ele>528.558</ele>
        <time>2020-05-23T05:32:50Z</time>
      </trkpt>
      <trkpt lat="43.139680" lon="-5.961840">
        <ele>527.291</ele>
        <time>2020-05-23T05:33:10Z</time>
      </trkpt>
      <trkpt lat="43.139720" lon="-5.961840">
        <ele>526.281</ele>
        <time>2020-05-23T05:33:30Z</time>
      </trkpt>
      <trkpt lat="43.139760" lon="-5.961830">
        <ele>525.919</ele>
        <time>2020-05-23T05:33:50Z</time>
      </trkpt>
      <trkpt lat="43.139800" lon="-5.961810">
        <ele>525.908</ele>
        <time>2020-05-23T05:34:10Z</time>
      </trkpt>
      <trkpt lat="43.139840" lon="-5.961770">
        <ele>526.753</ele>
        <time>2020-05-23T05:34:30Z</time>
      </trkpt>
      <trkpt lat="43.139880" lon="-5.961740">
        <ele>527.048</ele>
        <time>2020-05-23T05:34:50Z</time>
      </trkpt>
      <trkpt lat="43.139930" lon="-5.961700">
        <ele>527.455</ele>
        <time>2020-05-23T05:35:10Z</time>
      </trkpt>
      <trkpt lat="43.140260" lon="-5.961490">
        <ele>525.991</ele>
        <time>2020-05-23T05:35:30Z</time>
      </trkpt>
      <trkpt lat="43.140330" lon="-5.961440">
        <ele>526.540</ele>
        <time>2020-05-23T05:35:50Z</time>
      </trkpt>
      <trkpt lat="43.140420" lon="-5.961380">
        <ele>527.411</ele>
        <time>2020-05-23T05:36:10Z</time>
      </trkpt>
      <trkpt lat="43.140420" lon="-5.961370">
        <ele>528.050</ele>
        <time>2020-05-23T05:36:30Z</time>
      </trkpt>
      <trkpt lat="43.140450" lon="-5.961360">
        <ele>527.933</ele>
        <time>2020-05-23T05:36:50Z</time>
      </trkpt>
      <trkpt lat="43.140490" lon="-5.961350">
        <ele>527.531</ele>
        <time>2020-05-23T05:37:10Z</time>
      </trkpt>
      <trkpt lat="43.140520" lon="-5.961350">
        <ele>526.861</ele>
        <time>2020-05-23T05:37:30Z</time>
      </trkpt>
      <trkpt lat="43.140570" lon="-5.961350">
        <ele>525.907</ele>
        <time>2020-05-23T05:37:50Z</time>
      </trkpt>
      <trkpt lat="43.140620" lon="-5.961360">
        <ele>525.208</ele>
        <time>2020-05-23T05:38:10Z</time>
      </trkpt>
      <trkpt lat="43.140670" lon="-5.961370">
        <ele>524.577</ele>
        <time>2020-05-23T05:38:30Z</time>
      </trkpt>
      <trkpt lat="43.140770" lon="-5.961400">
        <ele>522.852</ele>
        <time>2020-05-23T05:38:50Z</time>
      </trkpt>
      <trkpt lat="43.140780" lon="-5.961400">
        <ele>522.849</ele>
        <time>2020-05-23T05:39:10Z</time>
      </trkpt>
      <trkpt lat="43.140850" lon="-5.961420">
        <ele>522.115</ele>
        <time>2020-05-23T05:39:30Z</time>
      </trkpt>
      <trkpt lat="43.140920" lon="-5.961440">
        <ele>521.914</ele>
        <time>2020-05-23T05:39:50Z</time>
      </trkpt>
      <trkpt lat="43.140950" lon="-5.961440">
        <ele>522.085</ele>
        <time>2020-05-23T05:40:10Z</time>
      </trkpt>
      <trkpt lat="43.141030" lon="-5.961460">
        <ele>521.864</ele>
        <time>2020-05-23T05:40:30Z</time>
      </trkpt>
      <trkpt lat="43.141130" lon="-5.961460">
        <ele>522.187</ele>
        <time>2020-05-23T05:40:50Z</time>
      </trkpt>
      <trkpt lat="43.141350" lon="-5.961480">
        <ele>520.221</ele>
        <time>2020-05-23T05:41:10Z</time>
      </trkpt>
      <trkpt lat="43.141400" lon="-5.961480">
        <ele>519.841</ele>
        <time>2020-05-23T05:41:30Z</time>
      </trkpt>
      <trkpt lat="43.141450" lon="-5.961470">
        <ele>519.105</ele>
        <time>2020-05-23T05:41:50Z</time>
      </trkpt>
      <trkpt lat="43.141490" lon="-5.961470">
        <ele>518.408</ele>
        <time>2020-05-23T05:42:10Z</time>
      </trkpt>
      <trkpt lat="43.141500" lon="-5.961460">
        <ele>518.546</ele>
        <time>2020-05-23T05:42:30Z</time>
      </trkpt>
      <trkpt lat="43.141560" lon="-5.961440">
        <ele>517.811</ele>
        <time>2020-05-23T05:42:50Z</time>
      </trkpt>
      <trkpt lat="43.141650" lon="-5.961380">
        <ele>517.628</ele>
        <time>2020-05-23T05:43:10Z</time>
      </trkpt>
      <trkpt lat="43.141810" lon="-5.961260">
        <ele>516.134</ele>
        <time>2020-05-23T05:43:30Z</time>
      </trkpt>
      <trkpt lat="43.141970" lon="-5.961130">
        <ele>514.063</ele>
        <time>2020-05-23T05:43:50Z</time>
      </trkpt>
      <trkpt lat="43.142020" lon="-5.961090">
        <ele>513.714</ele>
        <time>2020-05-23T05:44:10Z</time>
      </trkpt>
      <trkpt lat="43.142110" lon="-5.960990">
        <ele>513.883</ele>
        <time>2020-05-23T05:44:30Z</time>
      </trkpt>
      <trkpt lat="43.142260" lon="-5.960840">
        <ele>512.816</ele>
        <time>2020-05-23T05:44:50Z</time>
      </trkpt>
      <trkpt lat="43.142360" lon="-5.960730">
        <ele>512.387</ele>
        <time>2020-05-23T05:45:10Z</time>
      </trkpt>
      <trkpt lat="43.142480" lon="-5.960600">
        <ele>512.342</ele>
        <time>2020-05-23T05:45:30Z</time>
      </trkpt>
      <trkpt lat="43.142650" lon="-5.960430">
        <ele>511.326</ele>
        <time>2020-05-23T05:45:50Z</time>
      </trkpt>
      <trkpt lat="43.142690" lon="-5.960400">
        <ele>511.108</ele>
        <time>2020-05-23T05:46:10Z</time>
      </trkpt>
      <trkpt lat="43.142750" lon="-5.960350">
        <ele>511.492</ele>
        <time>2020-05-23T05:46:30Z</time>
      </trkpt>
      <trkpt lat="43.142800" lon="-5.960310">
        <ele>511.657</ele>
        <time>2020-05-23T05:46:50Z</time>
      </trkpt>
      <trkpt lat="43.142840" lon="-5.960280">
        <ele>511.684</ele>
        <time>2020-05-23T05:47:10Z</time>
      </trkpt>
      <trkpt lat="43.142860" lon="-5.960270">
        <ele>511.470</ele>
        <time>2020-05-23T05:47:30Z</time>
      </trkpt>
      <trkpt lat="43.143010" lon="-5.960190">
        <ele>510.149</ele>
        <time>2020-05-23T05:47:50Z</time>
      </trkpt>
      <trkpt lat="43.143180" lon="-5.960100">
        <ele>509.580</ele>
        <time>2020-05-23T05:48:10Z</time>
      </trkpt>
      <trkpt lat="43.143240" lon="-5.960070">
        <ele>509.429</ele>
        <time>2020-05-23T05:48:30Z</time>
      </trkpt>
      <trkpt lat="43.143350" lon="-5.960010">
        <ele>509.512</ele>
        <time>2020-05-23T05:48:50Z</time>
      </trkpt>
      <trkpt lat="43.143520" lon="-5.959930">
        <ele>509.257</ele>
        <time>2020-05-23T05:49:10Z</time>
      </trkpt>
      <trkpt lat="43.143850" lon="-5.959750">
        <ele>509.000</ele>
        <time>2020-05-23T05:49:30Z</time>
      </trkpt>
      <trkpt lat="43.143880" lon="-5.959740">
        <ele>508.720</ele>
        <time>2020-05-23T05:49:50Z</time>
      </trkpt>
      <trkpt lat="43.143950" lon="-5.959720">
        <ele>508.508</ele>
        <time>2020-05-23T05:50:10Z</time>
      </trkpt>
      <trkpt lat="43.144020" lon="-5.959700">
        <ele>508.819</ele>
        <time>2020-05-23T05:50:30Z</time>
      </trkpt>
      <trkpt lat="43.144030" lon="-5.959700">
        <ele>508.734</ele>
        <time>2020-05-23T05:50:50Z</time>
      </trkpt>
      <trkpt lat="43.144120" lon="-5.959690">
        <ele>508.221</ele>
        <time>2020-05-23T05:51:10Z</time>
      </trkpt>
      <trkpt lat="43.144170" lon="-5.959680">
        <ele>508.117</ele>
        <time>2020-05-23T05:51:30Z</time>
      </trkpt>
      <trkpt lat="43.144210" lon="-5.959680">
        <ele>507.926</ele>
        <time>2020-05-23T05:51:50Z</time>
      </trkpt>
      <trkpt lat="43.144230" lon="-5.959680">
        <ele>507.987</ele>
        <time>2020-05-23T05:52:10Z</time>
      </trkpt>
      <trkpt lat="43.144290" lon="-5.959690">
        <ele>507.176</ele>
        <time>2020-05-23T05:52:30Z</time>
      </trkpt>
      <trkpt lat="43.144350" lon="-5.959700">
        <ele>506.419</ele>
        <time>2020-05-23T05:52:50Z</time>
      </trkpt>
      <trkpt lat="43.144420" lon="-5.959710">
        <ele>505.752</ele>
        <time>2020-05-23T05:53:10Z</time>
      </trkpt>
      <trkpt lat="43.144480" lon="-5.959730">
        <ele>504.853</ele>
        <time>2020-05-23T05:53:30Z</time>
      </trkpt>
      <trkpt lat="43.144750" lon="-5.959800">
        <ele>502.408</ele>
        <time>2020-05-23T05:53:50Z</time>
      </trkpt>
      <trkpt lat="43.144920" lon="-5.959820">
        <ele>501.708</ele>
        <time>2020-05-23T05:54:10Z</time>
      </trkpt>
      <trkpt lat="43.145100" lon="-5.959850">
        <ele>501.219</ele>
        <time>2020-05-23T05:54:30Z</time>
      </trkpt>
      <trkpt lat="43.145280" lon="-5.959880">
        <ele>501.324</ele>
        <time>2020-05-23T05:54:50Z</time>
      </trkpt>
      <trkpt lat="43.145370" lon="-5.959890">
        <ele>501.431</ele>
        <time>2020-05-23T05:55:10Z</time>
      </trkpt>
      <trkpt lat="43.145420" lon="-5.959910">
        <ele>500.747</ele>
        <time>2020-05-23T05:55:30Z</time>
      </trkpt>
      <trkpt lat="43.145460" lon="-5.959930">
        <ele>499.936</ele>
        <time>2020-05-23T05:55:50Z</time>
      </trkpt>
      <trkpt lat="43.145520" lon="-5.959940">
        <ele>499.427</ele>
        <time>2020-05-23T05:56:10Z</time>
      </trkpt>
      <trkpt lat="43.145570" lon="-5.959960">
        <ele>498.666</ele>
        <time>2020-05-23T05:56:30Z</time>
      </trkpt>
      <trkpt lat="43.145620" lon="-5.959980">
        <ele>498.389</ele>
        <time>2020-05-23T05:56:50Z</time>
      </trkpt>
      <trkpt lat="43.145660" lon="-5.960000">
        <ele>497.988</ele>
        <time>2020-05-23T05:57:10Z</time>
      </trkpt>
      <trkpt lat="43.145790" lon="-5.960070">
        <ele>497.124</ele>
        <time>2020-05-23T05:57:30Z</time>
      </trkpt>
      <trkpt lat="43.145810" lon="-5.960080">
        <ele>496.926</ele>
        <time>2020-05-23T05:57:50Z</time>
      </trkpt>
      <trkpt lat="43.146200" lon="-5.960300">
        <ele>492.008</ele>
        <time>2020-05-23T05:58:10Z</time>
      </trkpt>
      <trkpt lat="43.146250" lon="-5.960330">
        <ele>491.272</ele>
        <time>2020-05-23T05:58:30Z</time>
      </trkpt>
      <trkpt lat="43.146290" lon="-5.960330">
        <ele>491.687</ele>
        <time>2020-05-23T05:58:50Z</time>
      </trkpt>
      <trkpt lat="43.146300" lon="-5.960330">
        <ele>491.724</ele>
        <time>2020-05-23T05:59:10Z</time>
      </trkpt>
      <trkpt lat="43.146340" lon="-5.960330">
        <ele>492.190</ele>
        <time>2020-05-23T05:59:30Z</time>
      </trkpt>
      <trkpt lat="43.146390" lon="-5.960330">
        <ele>492.599</ele>
        <time>2020-05-23T05:59:50Z</time>
      </trkpt>
      <trkpt lat="43.146440" lon="-5.960330">
        <ele>492.220</ele>
        <time>2020-05-23T06:00:10Z</time>
      </trkpt>
      <trkpt lat="43.146480" lon="-5.960330">
        <ele>492.099</ele>
        <time>2020-05-23T06:00:30Z</time>
      </trkpt>
      <trkpt lat="43.146660" lon="-5.960330">
        <ele>490.822</ele>
        <time>2020-05-23T06:00:50Z</time>
      </trkpt>
      <trkpt lat="43.146750" lon="-5.960330">
        <ele>491.833</ele>
        <time>2020-05-23T06:01:10Z</time>
      </trkpt>
      <trkpt lat="43.146800" lon="-5.960340">
        <ele>491.923</ele>
        <time>2020-05-23T06:01:30Z</time>
      </trkpt>
      <trkpt lat="43.146840" lon="-5.960340">
        <ele>492.415</ele>
        <time>2020-05-23T06:01:50Z</time>
      </trkpt>
      <trkpt lat="43.146840" lon="-5.960350">
        <ele>491.908</ele>
        <time>2020-05-23T06:02:10Z</time>
      </trkpt>
      <trkpt lat="43.146870" lon="-5.960350">
        <ele>492.247</ele>
        <time>2020-05-23T06:02:30Z</time>
      </trkpt>
      <trkpt lat="43.146910" lon="-5.960370">
        <ele>491.632</ele>
        <time>2020-05-23T06:02:50Z</time>
      </trkpt>
      <trkpt lat="43.146950" lon="-5.960400">
        <ele>490.579</ele>
        <time>2020-05-23T06:03:10Z</time>
      </trkpt>
      <trkpt lat="43.147140" lon="-5.960500">
        <ele>488.595</ele>
        <time>2020-05-23T06:03:30Z</time>
      </trkpt>
      <trkpt lat="43.147170" lon="-5.960530">
        <ele>487.484</ele>
        <time>2020-05-23T06:03:50Z</time>
      </trkpt>
      <trkpt lat="43.147330" lon="-5.960640">
        <ele>486.715</ele>
        <time>2020-05-23T06:04:10Z</time>
      </trkpt>
      <trkpt lat="43.147440" lon="-5.960730">
        <ele>485.314</ele>
        <time>2020-05-23T06:04:30Z</time>
      </trkpt>
      <trkpt lat="43.147490" lon="-5.960750">
        <ele>485.287</ele>
        <time>2020-05-23T06:04:50Z</time>
      </trkpt>
      <trkpt lat="43.147520" lon="-5.960760">
        <ele>484.685</ele>
        <time>2020-05-23T06:05:10Z</time>
      </trkpt>
      <trkpt lat="43.147540" lon="-5.960760">
        <ele>484.289</ele>
        <time>2020-05-23T06:05:30Z</time>
      </trkpt>
      <trkpt lat="43.147610" lon="-5.960730">
        <ele>484.117</ele>
        <time>2020-05-23T06:05:50Z</time>
      </trkpt>
      <trkpt lat="43.147660" lon="-5.960710">
        <ele>483.808</ele>
        <time>2020-05-23T06:06:10Z</time>
      </trkpt>
      <trkpt lat="43.147670" lon="-5.960710">
        <ele>483.692</ele>
        <time>2020-05-23T06:06:30Z</time>
      </trkpt>
      <trkpt lat="43.147710" lon="-5.960680">
        <ele>483.867</ele>
        <time>2020-05-23T06:06:50Z</time>
      </trkpt>
      <trkpt lat="43.147760" lon="-5.960640">
        <ele>484.024</ele>
        <time>2020-05-23T06:07:10Z</time>
      </trkpt>
      <trkpt lat="43.147800" lon="-5.960610">
        <ele>483.850</ele>
        <time>2020-05-23T06:07:30Z</time>
      </trkpt>
      <trkpt lat="43.147820" lon="-5.960590">
        <ele>483.849</ele>
        <time>2020-05-23T06:07:50Z</time>
      </trkpt>
      <trkpt lat="43.148120" lon="-5.960320">
        <ele>482.810</ele>
        <time>2020-05-23T06:08:10Z</time>
      </trkpt>
      <trkpt lat="43.148260" lon="-5.960200">
        <ele>479.649</ele>
        <time>2020-05-23T06:08:30Z</time>
      </trkpt>
      <trkpt lat="43.148430" lon="-5.960190">
        <ele>476.152</ele>
        <time>2020-05-23T06:08:50Z</time>
      </trkpt>
      <trkpt lat="43.148570" lon="-5.960180">
        <ele>475.234</ele>
        <time>2020-05-23T06:09:10Z</time>
      </trkpt>
      <trkpt lat="43.148740" lon="-5.960240">
        <ele>475.755</ele>
        <time>2020-05-23T06:09:30Z</time>
      </trkpt>
      <trkpt lat="43.148760" lon="-5.960250">
        <ele>475.710</ele>
        <time>2020-05-23T06:09:50Z</time>
      </trkpt>
      <trkpt lat="43.148780" lon="-5.960250">
        <ele>475.808</ele>
        <time>2020-05-23T06:10:10Z</time>
      </trkpt>
      <trkpt lat="43.148810" lon="-5.960240">
        <ele>476.057</ele>
        <time>2020-05-23T06:10:30Z</time>
      </trkpt>
      <trkpt lat="43.148870" lon="-5.960210">
        <ele>476.632</ele>
        <time>2020-05-23T06:10:50Z</time>
      </trkpt>
      <trkpt lat="43.148869" lon="-5.960214">
        <ele>476.649</ele>
        <time>2020-05-23T06:11:10Z</time>
      </trkpt>
      <trkpt lat="43.148840" lon="-5.960170">
        <ele>476.855</ele>
        <time>2020-05-23T06:11:30Z</time>
      </trkpt>
      <trkpt lat="43.148820" lon="-5.960140">
        <ele>476.984</ele>
        <time>2020-05-23T06:11:50Z</time>
      </trkpt>
      <trkpt lat="43.148810" lon="-5.960110">
        <ele>477.085</ele>
        <time>2020-05-23T06:12:10Z</time>
      </trkpt>
      <trkpt lat="43.148800" lon="-5.960060">
        <ele>477.394</ele>
        <time>2020-05-23T06:12:30Z</time>
      </trkpt>
      <trkpt lat="43.148790" lon="-5.960040">
        <ele>477.357</ele>
        <time>2020-05-23T06:12:50Z</time>
      </trkpt>
      <trkpt lat="43.148790" lon="-5.960020">
        <ele>477.432</ele>
        <time>2020-05-23T06:13:10Z</time>
      </trkpt>
      <trkpt lat="43.148780" lon="-5.959970">
        <ele>477.492</ele>
        <time>2020-05-23T06:13:30Z</time>
      </trkpt>
      <trkpt lat="43.148780" lon="-5.959920">
        <ele>477.311</ele>
        <time>2020-05-23T06:13:50Z</time>
      </trkpt>
      <trkpt lat="43.148790" lon="-5.959870">
        <ele>477.408</ele>
        <time>2020-05-23T06:14:10Z</time>
      </trkpt>
      <trkpt lat="43.148790" lon="-5.959830">
        <ele>477.417</ele>
        <time>2020-05-23T06:14:30Z</time>
      </trkpt>
      <trkpt lat="43.148800" lon="-5.959780">
        <ele>477.572</ele>
        <time>2020-05-23T06:14:50Z</time>
      </trkpt>
      <trkpt lat="43.148810" lon="-5.959740">
        <ele>477.629</ele>
        <time>2020-05-23T06:15:10Z</time>
      </trkpt>
      <trkpt lat="43.148830" lon="-5.959720">
        <ele>477.945</ele>
        <time>2020-05-23T06:15:30Z</time>
      </trkpt>
      <trkpt lat="43.148860" lon="-5.959660">
        <ele>477.964</ele>
        <time>2020-05-23T06:15:50Z</time>
      </trkpt>
      <trkpt lat="43.148910" lon="-5.959610">
        <ele>478.885</ele>
        <time>2020-05-23T06:16:10Z</time>
      </trkpt>
      <trkpt lat="43.149070" lon="-5.959390">
        <ele>483.554</ele>
        <time>2020-05-23T06:16:30Z</time>
      </trkpt>
      <trkpt lat="43.149180" lon="-5.959250">
        <ele>484.357</ele>
        <time>2020-05-23T06:16:50Z</time>
      </trkpt>
      <trkpt lat="43.149230" lon="-5.959170">
        <ele>485.473</ele>
        <time>2020-05-23T06:17:10Z</time>
      </trkpt>
      <trkpt lat="43.149270" lon="-5.959080">
        <ele>486.785</ele>
        <time>2020-05-23T06:17:30Z</time>
      </trkpt>
      <trkpt lat="43.149290" lon="-5.959050">
        <ele>487.513</ele>
        <time>2020-05-23T06:17:50Z</time>
      </trkpt>
      <trkpt lat="43.149310" lon="-5.959000">
        <ele>487.708</ele>
        <time>2020-05-23T06:18:10Z</time>
      </trkpt>
      <trkpt lat="43.149330" lon="-5.958950">
        <ele>487.971</ele>
        <time>2020-05-23T06:18:30Z</time>
      </trkpt>
      <trkpt lat="43.149350" lon="-5.958870">
        <ele>487.696</ele>
        <time>2020-05-23T06:18:50Z</time>
      </trkpt>
      <trkpt lat="43.149360" lon="-5.958830">
        <ele>488.093</ele>
        <time>2020-05-23T06:19:10Z</time>
      </trkpt>
      <trkpt lat="43.149370" lon="-5.958780">
        <ele>488.479</ele>
        <time>2020-05-23T06:19:30Z</time>
      </trkpt>
      <trkpt lat="43.149380" lon="-5.958710">
        <ele>488.828</ele>
        <time>2020-05-23T06:19:50Z</time>
      </trkpt>
      <trkpt lat="43.149390" lon="-5.958660">
        <ele>489.119</ele>
        <time>2020-05-23T06:20:10Z</time>
      </trkpt>
      <trkpt lat="43.149390" lon="-5.958620">
        <ele>489.168</ele>
        <time>2020-05-23T06:20:30Z</time>
      </trkpt>
      <trkpt lat="43.149400" lon="-5.958570">
        <ele>489.731</ele>
        <time>2020-05-23T06:20:50Z</time>
      </trkpt>
      <trkpt lat="43.149400" lon="-5.958520">
        <ele>490.276</ele>
        <time>2020-05-23T06:21:10Z</time>
      </trkpt>
      <trkpt lat="43.149390" lon="-5.958470">
        <ele>490.390</ele>
        <time>2020-05-23T06:21:30Z</time>
      </trkpt>
      <trkpt lat="43.149390" lon="-5.958420">
        <ele>490.719</ele>
        <time>2020-05-23T06:21:50Z</time>
      </trkpt>
      <trkpt lat="43.149380" lon="-5.958380">
        <ele>490.708</ele>
        <time>2020-05-23T06:22:10Z</time>
      </trkpt>
      <trkpt lat="43.149370" lon="-5.958340">
        <ele>490.881</ele>
        <time>2020-05-23T06:22:30Z</time>
      </trkpt>
      <trkpt lat="43.149370" lon="-5.958300">
        <ele>491.346</ele>
        <time>2020-05-23T06:22:50Z</time>
      </trkpt>
      <trkpt lat="43.149350" lon="-5.958220">
        <ele>491.953</ele>
        <time>2020-05-23T06:23:10Z</time>
      </trkpt>
      <trkpt lat="43.149330" lon="-5.958160">
        <ele>492.269</ele>
        <time>2020-05-23T06:23:30Z</time>
      </trkpt>
      <trkpt lat="43.149290" lon="-5.958070">
        <ele>492.338</ele>
        <time>2020-05-23T06:23:50Z</time>
      </trkpt>
      <trkpt lat="43.149030" lon="-5.957480">
        <ele>495.369</ele>
        <time>2020-05-23T06:24:10Z</time>
      </trkpt>
      <trkpt lat="43.148940" lon="-5.957300">
        <ele>496.048</ele>
        <time>2020-05-23T06:24:30Z</time>
      </trkpt>
      <trkpt lat="43.148850" lon="-5.957090">
        <ele>497.821</ele>
        <time>2020-05-23T06:24:50Z</time>
      </trkpt>
      <trkpt lat="43.148780" lon="-5.956940">
        <ele>498.914</ele>
        <time>2020-05-23T06:25:10Z</time>
      </trkpt>
      <trkpt lat="43.148760" lon="-5.956880">
        <ele>499.254</ele>
        <time>2020-05-23T06:25:30Z</time>
      </trkpt>
      <trkpt lat="43.148740" lon="-5.956850">
        <ele>499.009</ele>
        <time>2020-05-23T06:25:50Z</time>
      </trkpt>
      <trkpt lat="43.148720" lon="-5.956790">
        <ele>499.208</ele>
        <time>2020-05-23T06:26:10Z</time>
      </trkpt>
      <trkpt lat="43.148700" lon="-5.956730">
        <ele>499.415</ele>
        <time>2020-05-23T06:26:30Z</time>
      </trkpt>
      <trkpt lat="43.148670" lon="-5.956660">
        <ele>499.260</ele>
        <time>2020-05-23T06:26:50Z</time>
      </trkpt>
      <trkpt lat="43.148620" lon="-5.956460">
        <ele>499.627</ele>
        <time>2020-05-23T06:27:10Z</time>
      </trkpt>
      <trkpt lat="43.148600" lon="-5.956400">
        <ele>499.363</ele>
        <time>2020-05-23T06:27:30Z</time>
      </trkpt>
      <trkpt lat="43.148590" lon="-5.956350">
        <ele>499.362</ele>
        <time>2020-05-23T06:27:50Z</time>
      </trkpt>
      <trkpt lat="43.148580" lon="-5.956280">
        <ele>499.593</ele>
        <time>2020-05-23T06:28:10Z</time>
      </trkpt>
      <trkpt lat="43.148520" lon="-5.955850">
        <ele>500.662</ele>
        <time>2020-05-23T06:28:30Z</time>
      </trkpt>
      <trkpt lat="43.148510" lon="-5.955740">
        <ele>502.015</ele>
        <time>2020-05-23T06:28:50Z</time>
      </trkpt>
      <trkpt lat="43.148480" lon="-5.955500">
        <ele>505.261</ele>
        <time>2020-05-23T06:29:10Z</time>
      </trkpt>
      <trkpt lat="43.148360" lon="-5.954570">
        <ele>508.721</ele>
        <time>2020-05-23T06:29:30Z</time>
      </trkpt>
      <trkpt lat="43.148350" lon="-5.954470">
        <ele>509.013</ele>
        <time>2020-05-23T06:29:50Z</time>
      </trkpt>
      <trkpt lat="43.148340" lon="-5.954380">
        <ele>508.908</ele>
        <time>2020-05-23T06:30:10Z</time>
      </trkpt>
      <trkpt lat="43.148340" lon="-5.954320">
        <ele>509.460</ele>
        <time>2020-05-23T06:30:30Z</time>
      </trkpt>
      <trkpt lat="43.148340" lon="-5.954280">
        <ele>509.675</ele>
        <time>2020-05-23T06:30:50Z</time>
      </trkpt>
      <trkpt lat="43.148340" lon="-5.954260">
        <ele>509.882</ele>
        <time>2020-05-23T06:31:10Z</time>
      </trkpt>
      <trkpt lat="43.148330" lon="-5.954200">
        <ele>509.638</ele>
        <time>2020-05-23T06:31:30Z</time>
      </trkpt>
      <trkpt lat="43.148330" lon="-5.954150">
        <ele>509.827</ele>
        <time>2020-05-23T06:31:50Z</time>
      </trkpt>
      <trkpt lat="43.148340" lon="-5.954090">
        <ele>510.458</ele>
        <time>2020-05-23T06:32:10Z</time>
      </trkpt>
      <trkpt lat="43.148340" lon="-5.954040">
        <ele>510.417</ele>
        <time>2020-05-23T06:32:30Z</time>
      </trkpt>
      <trkpt lat="43.148340" lon="-5.954030">
        <ele>510.410</ele>
        <time>2020-05-23T06:32:50Z</time>
      </trkpt>
      <trkpt lat="43.148340" lon="-5.954000">
        <ele>510.417</ele>
        <time>2020-05-23T06:33:10Z</time>
      </trkpt>
      <trkpt lat="43.148350" lon="-5.953960">
        <ele>511.087</ele>
        <time>2020-05-23T06:33:30Z</time>
      </trkpt>
      <trkpt lat="43.148360" lon="-5.953930">
        <ele>511.615</ele>
        <time>2020-05-23T06:33:50Z</time>
      </trkpt>
      <trkpt lat="43.148370" lon="-5.953880">
        <ele>512.308</ele>
        <time>2020-05-23T06:34:10Z</time>
      </trkpt>
      <trkpt lat="43.148380" lon="-5.953820">
        <ele>513.165</ele>
        <time>2020-05-23T06:34:30Z</time>
      </trkpt>
      <trkpt lat="43.148410" lon="-5.953760">
        <ele>515.040</ele>
        <time>2020-05-23T06:34:50Z</time>
      </trkpt>
      <trkpt lat="43.148470" lon="-5.953610">
        <ele>518.947</ele>
        <time>2020-05-23T06:35:10Z</time>
      </trkpt>
      <trkpt lat="43.148710" lon="-5.953050">
        <ele>519.963</ele>
        <time>2020-05-23T06:35:30Z</time>
      </trkpt>
      <trkpt lat="43.148730" lon="-5.952990">
        <ele>520.492</ele>
        <time>2020-05-23T06:35:50Z</time>
      </trkpt>
      <trkpt lat="43.148740" lon="-5.952950">
        <ele>520.563</ele>
        <time>2020-05-23T06:36:10Z</time>
      </trkpt>
      <trkpt lat="43.148740" lon="-5.952940">
        <ele>520.442</ele>
        <time>2020-05-23T06:36:30Z</time>
      </trkpt>
      <trkpt lat="43.148750" lon="-5.952890">
        <ele>520.595</ele>
        <time>2020-05-23T06:36:50Z</time>
      </trkpt>
      <trkpt lat="43.148770" lon="-5.952840">
        <ele>521.234</ele>
        <time>2020-05-23T06:37:10Z</time>
      </trkpt>
      <trkpt lat="43.148770" lon="-5.952780">
        <ele>520.755</ele>
        <time>2020-05-23T06:37:30Z</time>
      </trkpt>
      <trkpt lat="43.148780" lon="-5.952710">
        <ele>520.810</ele>
        <time>2020-05-23T06:37:50Z</time>
      </trkpt>
      <trkpt lat="43.148780" lon="-5.952700">
        <ele>520.808</ele>
        <time>2020-05-23T06:38:10Z</time>
      </trkpt>
      <trkpt lat="43.148820" lon="-5.952210">
        <ele>522.017</ele>
        <time>2020-05-23T06:38:30Z</time>
      </trkpt>
      <trkpt lat="43.148850" lon="-5.951920">
        <ele>523.182</ele>
        <time>2020-05-23T06:38:50Z</time>
      </trkpt>
      <trkpt lat="43.148860" lon="-5.951720">
        <ele>525.159</ele>
        <time>2020-05-23T06:39:10Z</time>
      </trkpt>
      <trkpt lat="43.148890" lon="-5.951200">
        <ele>529.185</ele>
        <time>2020-05-23T06:39:30Z</time>
      </trkpt>
      <trkpt lat="43.148910" lon="-5.951010">
        <ele>531.114</ele>
        <time>2020-05-23T06:39:50Z</time>
      </trkpt>
      <trkpt lat="43.148920" lon="-5.950940">
        <ele>532.125</ele>
        <time>2020-05-23T06:40:10Z</time>
      </trkpt>
      <trkpt lat="43.148930" lon="-5.950900">
        <ele>532.914</ele>
        <time>2020-05-23T06:40:30Z</time>
      </trkpt>
      <trkpt lat="43.148940" lon="-5.950840">
        <ele>533.877</ele>
        <time>2020-05-23T06:40:50Z</time>
      </trkpt>
      <trkpt lat="43.148950" lon="-5.950760">
        <ele>534.419</ele>
        <time>2020-05-23T06:41:10Z</time>
      </trkpt>
      <trkpt lat="43.148980" lon="-5.950680">
        <ele>535.809</ele>
        <time>2020-05-23T06:41:30Z</time>
      </trkpt>
      <trkpt lat="43.148990" lon="-5.950630">
        <ele>536.019</ele>
        <time>2020-05-23T06:41:50Z</time>
      </trkpt>
      <trkpt lat="43.149000" lon="-5.950590">
        <ele>536.108</ele>
        <time>2020-05-23T06:42:10Z</time>
      </trkpt>
      <trkpt lat="43.149010" lon="-5.950560">
        <ele>536.385</ele>
        <time>2020-05-23T06:42:30Z</time>
      </trkpt>
      <trkpt lat="43.149050" lon="-5.950480">
        <ele>536.770</ele>
        <time>2020-05-23T06:42:50Z</time>
      </trkpt>
      <trkpt lat="43.149110" lon="-5.950340">
        <ele>536.457</ele>
        <time>2020-05-23T06:43:10Z</time>
      </trkpt>
      <trkpt lat="43.149230" lon="-5.950110">
        <ele>539.183</ele>
        <time>2020-05-23T06:43:30Z</time>
      </trkpt>
      <trkpt lat="43.149340" lon="-5.949910">
        <ele>539.972</ele>
        <time>2020-05-23T06:43:50Z</time>
      </trkpt>
      <trkpt lat="43.149370" lon="-5.949850">
        <ele>539.833</ele>
        <time>2020-05-23T06:44:10Z</time>
      </trkpt>
      <trkpt lat="43.149390" lon="-5.949810">
        <ele>539.942</ele>
        <time>2020-05-23T06:44:30Z</time>
      </trkpt>
      <trkpt lat="43.149400" lon="-5.949770">
        <ele>539.525</ele>
        <time>2020-05-23T06:44:50Z</time>
      </trkpt>
      <trkpt lat="43.149410" lon="-5.949740">
        <ele>539.321</ele>
        <time>2020-05-23T06:45:10Z</time>
      </trkpt>
      <trkpt lat="43.149430" lon="-5.949690">
        <ele>539.641</ele>
        <time>2020-05-23T06:45:30Z</time>
      </trkpt>
      <trkpt lat="43.149430" lon="-5.949650">
        <ele>539.005</ele>
        <time>2020-05-23T06:45:50Z</time>
      </trkpt>
      <trkpt lat="43.149510" lon="-5.949230">
        <ele>542.208</ele>
        <time>2020-05-23T06:46:10Z</time>
      </trkpt>
      <trkpt lat="43.149520" lon="-5.949140">
        <ele>542.716</ele>
        <time>2020-05-23T06:46:30Z</time>
      </trkpt>
      <trkpt lat="43.149540" lon="-5.949080">
        <ele>543.661</ele>
        <time>2020-05-23T06:46:50Z</time>
      </trkpt>
      <trkpt lat="43.149550" lon="-5.949030">
        <ele>543.778</ele>
        <time>2020-05-23T06:47:10Z</time>
      </trkpt>
      <trkpt lat="43.149570" lon="-5.948990">
        <ele>544.464</ele>
        <time>2020-05-23T06:47:30Z</time>
      </trkpt>
      <trkpt lat="43.149590" lon="-5.948950">
        <ele>544.993</ele>
        <time>2020-05-23T06:47:50Z</time>
      </trkpt>
      <trkpt lat="43.149610" lon="-5.948900">
        <ele>545.094</ele>
        <time>2020-05-23T06:48:10Z</time>
      </trkpt>
      <trkpt lat="43.149620" lon="-5.948880">
        <ele>545.033</ele>
        <time>2020-05-23T06:48:30Z</time>
      </trkpt>
      <trkpt lat="43.149660" lon="-5.948830">
        <ele>545.716</ele>
        <time>2020-05-23T06:48:50Z</time>
      </trkpt>
      <trkpt lat="43.149690" lon="-5.948800">
        <ele>546.484</ele>
        <time>2020-05-23T06:49:10Z</time>
      </trkpt>
      <trkpt lat="43.149700" lon="-5.948780">
        <ele>546.307</ele>
        <time>2020-05-23T06:49:30Z</time>
      </trkpt>
      <trkpt lat="43.149740" lon="-5.948750">
        <ele>546.817</ele>
        <time>2020-05-23T06:49:50Z</time>
      </trkpt>
      <trkpt lat="43.149760" lon="-5.948730">
        <ele>546.708</ele>
        <time>2020-05-23T06:50:10Z</time>
      </trkpt>
      <trkpt lat="43.149800" lon="-5.948710">
        <ele>546.862</ele>
        <time>2020-05-23T06:50:30Z</time>
      </trkpt>
      <trkpt lat="43.149820" lon="-5.948700">
        <ele>546.987</ele>
        <time>2020-05-23T06:50:50Z</time>
      </trkpt>
      <trkpt lat="43.149840" lon="-5.948680">
        <ele>546.694</ele>
        <time>2020-05-23T06:51:10Z</time>
      </trkpt>
      <trkpt lat="43.149870" lon="-5.948680">
        <ele>547.160</ele>
        <time>2020-05-23T06:51:30Z</time>
      </trkpt>
      <trkpt lat="43.149890" lon="-5.948670">
        <ele>547.289</ele>
        <time>2020-05-23T06:51:50Z</time>
      </trkpt>
      <trkpt lat="43.149940" lon="-5.948660">
        <ele>547.640</ele>
        <time>2020-05-23T06:52:10Z</time>
      </trkpt>
      <trkpt lat="43.149970" lon="-5.948660">
        <ele>548.119</ele>
        <time>2020-05-23T06:52:30Z</time>
      </trkpt>
      <trkpt lat="43.150000" lon="-5.948670">
        <ele>548.952</ele>
        <time>2020-05-23T06:52:50Z</time>
      </trkpt>
      <trkpt lat="43.150020" lon="-5.948670">
        <ele>548.762</ele>
        <time>2020-05-23T06:53:10Z</time>
      </trkpt>
      <trkpt lat="43.150050" lon="-5.948670">
        <ele>548.583</ele>
        <time>2020-05-23T06:53:30Z</time>
      </trkpt>
      <trkpt lat="43.150080" lon="-5.948680">
        <ele>548.511</ele>
        <time>2020-05-23T06:53:50Z</time>
      </trkpt>
      <trkpt lat="43.150140" lon="-5.948710">
        <ele>548.808</ele>
        <time>2020-05-23T06:54:10Z</time>
      </trkpt>
      <trkpt lat="43.150170" lon="-5.948720">
        <ele>548.850</ele>
        <time>2020-05-23T06:54:30Z</time>
      </trkpt>
      <trkpt lat="43.150190" lon="-5.948740">
        <ele>549.255</ele>
        <time>2020-05-23T06:54:50Z</time>
      </trkpt>
      <trkpt lat="43.150220" lon="-5.948760">
        <ele>549.452</ele>
        <time>2020-05-23T06:55:10Z</time>
      </trkpt>
      <trkpt lat="43.150250" lon="-5.948790">
        <ele>549.828</ele>
        <time>2020-05-23T06:55:30Z</time>
      </trkpt>
      <trkpt lat="43.150280" lon="-5.948830">
        <ele>550.577</ele>
        <time>2020-05-23T06:55:50Z</time>
      </trkpt>
      <trkpt lat="43.150340" lon="-5.948910">
        <ele>551.998</ele>
        <time>2020-05-23T06:56:10Z</time>
      </trkpt>
      <trkpt lat="43.150410" lon="-5.948990">
        <ele>553.477</ele>
        <time>2020-05-23T06:56:30Z</time>
      </trkpt>
      <trkpt lat="43.150480" lon="-5.949080">
        <ele>554.330</ele>
        <time>2020-05-23T06:56:50Z</time>
      </trkpt>
      <trkpt lat="43.150600" lon="-5.949220">
        <ele>555.764</ele>
        <time>2020-05-23T06:57:10Z</time>
      </trkpt>
      <trkpt lat="43.150700" lon="-5.949320">
        <ele>557.406</ele>
        <time>2020-05-23T06:57:30Z</time>
      </trkpt>
      <trkpt lat="43.150730" lon="-5.949340">
        <ele>557.216</ele>
        <time>2020-05-23T06:57:50Z</time>
      </trkpt>
      <trkpt lat="43.150760" lon="-5.949360">
        <ele>557.008</ele>
        <time>2020-05-23T06:58:10Z</time>
      </trkpt>
      <trkpt lat="43.150790" lon="-5.949390">
        <ele>557.020</ele>
        <time>2020-05-23T06:58:30Z</time>
      </trkpt>
      <trkpt lat="43.150820" lon="-5.949400">
        <ele>556.355</ele>
        <time>2020-05-23T06:58:50Z</time>
      </trkpt>
      <trkpt lat="43.151060" lon="-5.949550">
        <ele>559.782</ele>
        <time>2020-05-23T06:59:10Z</time>
      </trkpt>
      <trkpt lat="43.151280" lon="-5.949660">
        <ele>561.088</ele>
        <time>2020-05-23T06:59:30Z</time>
      </trkpt>
      <trkpt lat="43.151360" lon="-5.949670">
        <ele>560.247</ele>
        <time>2020-05-23T06:59:50Z</time>
      </trkpt>
      <trkpt lat="43.151420" lon="-5.949670">
        <ele>560.688</ele>
        <time>2020-05-23T07:00:10Z</time>
      </trkpt>
      <trkpt lat="43.151470" lon="-5.949660">
        <ele>561.677</ele>
        <time>2020-05-23T07:00:30Z</time>
      </trkpt>
      <trkpt lat="43.151560" lon="-5.949620">
        <ele>562.910</ele>
        <time>2020-05-23T07:00:50Z</time>
      </trkpt>
      <trkpt lat="43.151600" lon="-5.949600">
        <ele>563.331</ele>
        <time>2020-05-23T07:01:10Z</time>
      </trkpt>
      <trkpt lat="43.151660" lon="-5.949560">
        <ele>563.861</ele>
        <time>2020-05-23T07:01:30Z</time>
      </trkpt>
      <trkpt lat="43.151750" lon="-5.949480">
        <ele>565.907</ele>
        <time>2020-05-23T07:01:50Z</time>
      </trkpt>
      <trkpt lat="43.151770" lon="-5.949470">
        <ele>566.608</ele>
        <time>2020-05-23T07:02:10Z</time>
      </trkpt>
      <trkpt lat="43.151890" lon="-5.949380">
        <ele>569.447</ele>
        <time>2020-05-23T07:02:30Z</time>
      </trkpt>
      <trkpt lat="43.151990" lon="-5.949330">
        <ele>570.672</ele>
        <time>2020-05-23T07:02:50Z</time>
      </trkpt>
      <trkpt lat="43.152080" lon="-5.949300">
        <ele>570.729</ele>
        <time>2020-05-23T07:03:10Z</time>
      </trkpt>
      <trkpt lat="43.152160" lon="-5.949290">
        <ele>571.485</ele>
        <time>2020-05-23T07:03:30Z</time>
      </trkpt>
      <trkpt lat="43.152220" lon="-5.949300">
        <ele>572.794</ele>
        <time>2020-05-23T07:03:50Z</time>
      </trkpt>
      <trkpt lat="43.152270" lon="-5.949320">
        <ele>573.225</ele>
        <time>2020-05-23T07:04:10Z</time>
      </trkpt>
      <trkpt lat="43.152400" lon="-5.949370">
        <ele>573.434</ele>
        <time>2020-05-23T07:04:30Z</time>
      </trkpt>
      <trkpt lat="43.152430" lon="-5.949390">
        <ele>573.647</ele>
        <time>2020-05-23T07:04:50Z</time>
      </trkpt>
      <trkpt lat="43.152510" lon="-5.949420">
        <ele>573.367</ele>
        <time>2020-05-23T07:05:10Z</time>
      </trkpt>
      <trkpt lat="43.152610" lon="-5.949470">
        <ele>576.381</ele>
        <time>2020-05-23T07:05:30Z</time>
      </trkpt>
      <trkpt lat="43.152700" lon="-5.949490">
        <ele>578.019</ele>
        <time>2020-05-23T07:05:50Z</time>
      </trkpt>
      <trkpt lat="43.152800" lon="-5.949480">
        <ele>577.708</ele>
        <time>2020-05-23T07:06:10Z</time>
      </trkpt>
      <trkpt lat="43.152870" lon="-5.949460">
        <ele>576.750</ele>
        <time>2020-05-23T07:06:30Z</time>
      </trkpt>
      <trkpt lat="43.152920" lon="-5.949430">
        <ele>575.765</ele>
        <time>2020-05-23T07:06:50Z</time>
      </trkpt>
      <trkpt lat="43.152950" lon="-5.949400">
        <ele>575.452</ele>
        <time>2020-05-23T07:07:10Z</time>
      </trkpt>
      <trkpt lat="43.152990" lon="-5.949360">
        <ele>575.228</ele>
        <time>2020-05-23T07:07:30Z</time>
      </trkpt>
      <trkpt lat="43.153040" lon="-5.949290">
        <ele>575.097</ele>
        <time>2020-05-23T07:07:50Z</time>
      </trkpt>
      <trkpt lat="43.153070" lon="-5.949220">
        <ele>574.718</ele>
        <time>2020-05-23T07:08:10Z</time>
      </trkpt>
      <trkpt lat="43.153110" lon="-5.949130">
        <ele>574.637</ele>
        <time>2020-05-23T07:08:30Z</time>
      </trkpt>
      <trkpt lat="43.153150" lon="-5.949030">
        <ele>575.590</ele>
        <time>2020-05-23T07:08:50Z</time>
      </trkpt>
      <trkpt lat="43.153160" lon="-5.948940">
        <ele>576.241</ele>
        <time>2020-05-23T07:09:10Z</time>
      </trkpt>
      <trkpt lat="43.153170" lon="-5.948780">
        <ele>579.881</ele>
        <time>2020-05-23T07:09:30Z</time>
      </trkpt>
      <trkpt lat="43.153160" lon="-5.948670">
        <ele>582.709</ele>
        <time>2020-05-23T07:09:50Z</time>
      </trkpt>
      <trkpt lat="43.153140" lon="-5.948600">
        <ele>583.908</ele>
        <time>2020-05-23T07:10:10Z</time>
      </trkpt>
      <trkpt lat="43.153110" lon="-5.948520">
        <ele>584.398</ele>
        <time>2020-05-23T07:10:30Z</time>
      </trkpt>
      <trkpt lat="43.153100" lon="-5.948490">
        <ele>584.583</ele>
        <time>2020-05-23T07:10:50Z</time>
      </trkpt>
      <trkpt lat="43.153080" lon="-5.948460">
        <ele>584.210</ele>
        <time>2020-05-23T07:11:10Z</time>
      </trkpt>
      <trkpt lat="43.153060" lon="-5.948410">
        <ele>584.186</ele>
        <time>2020-05-23T07:11:30Z</time>
      </trkpt>
      <trkpt lat="43.153040" lon="-5.948390">
        <ele>584.035</ele>
        <time>2020-05-23T07:11:50Z</time>
      </trkpt>
      <trkpt lat="43.153010" lon="-5.948350">
        <ele>584.476</ele>
        <time>2020-05-23T07:12:10Z</time>
      </trkpt>
      <trkpt lat="43.153000" lon="-5.948340">
        <ele>584.595</ele>
        <time>2020-05-23T07:12:30Z</time>
      </trkpt>
      <trkpt lat="43.152980" lon="-5.948310">
        <ele>585.268</ele>
        <time>2020-05-23T07:12:50Z</time>
      </trkpt>
      <trkpt lat="43.152840" lon="-5.948220">
        <ele>585.922</ele>
        <time>2020-05-23T07:13:10Z</time>
      </trkpt>
      <trkpt lat="43.152600" lon="-5.948040">
        <ele>586.762</ele>
        <time>2020-05-23T07:13:30Z</time>
      </trkpt>
      <trkpt lat="43.152520" lon="-5.947990">
        <ele>588.208</ele>
        <time>2020-05-23T07:13:50Z</time>
      </trkpt>
      <trkpt lat="43.152280" lon="-5.947830">
        <ele>590.508</ele>
        <time>2020-05-23T07:14:10Z</time>
      </trkpt>
      <trkpt lat="43.151800" lon="-5.947490">
        <ele>598.146</ele>
        <time>2020-05-23T07:14:30Z</time>
      </trkpt>
      <trkpt lat="43.151720" lon="-5.947430">
        <ele>600.421</ele>
        <time>2020-05-23T07:14:50Z</time>
      </trkpt>
      <trkpt lat="43.151660" lon="-5.947400">
        <ele>600.898</ele>
        <time>2020-05-23T07:15:10Z</time>
      </trkpt>
      <trkpt lat="43.151590" lon="-5.947330">
        <ele>601.654</ele>
        <time>2020-05-23T07:15:30Z</time>
      </trkpt>
      <trkpt lat="43.151520" lon="-5.947260">
        <ele>602.053</ele>
        <time>2020-05-23T07:15:50Z</time>
      </trkpt>
      <trkpt lat="43.151450" lon="-5.947170">
        <ele>602.764</ele>
        <time>2020-05-23T07:16:10Z</time>
      </trkpt>
      <trkpt lat="43.151430" lon="-5.947150">
        <ele>602.523</ele>
        <time>2020-05-23T07:16:30Z</time>
      </trkpt>
      <trkpt lat="43.151370" lon="-5.947040">
        <ele>602.786</ele>
        <time>2020-05-23T07:16:50Z</time>
      </trkpt>
      <trkpt lat="43.151330" lon="-5.946950">
        <ele>603.266</ele>
        <time>2020-05-23T07:17:10Z</time>
      </trkpt>
      <trkpt lat="43.151320" lon="-5.946920">
        <ele>603.529</ele>
        <time>2020-05-23T07:17:30Z</time>
      </trkpt>
      <trkpt lat="43.151270" lon="-5.946770">
        <ele>604.721</ele>
        <time>2020-05-23T07:17:50Z</time>
      </trkpt>
      <trkpt lat="43.151260" lon="-5.946720">
        <ele>605.608</ele>
        <time>2020-05-23T07:18:10Z</time>
      </trkpt>
      <trkpt lat="43.151240" lon="-5.946600">
        <ele>607.330</ele>
        <time>2020-05-23T07:18:30Z</time>
      </trkpt>
      <trkpt lat="43.151180" lon="-5.946120">
        <ele>610.285</ele>
        <time>2020-05-23T07:18:50Z</time>
      </trkpt>
      <trkpt lat="43.151170" lon="-5.946010">
        <ele>610.582</ele>
        <time>2020-05-23T07:19:10Z</time>
      </trkpt>
      <trkpt lat="43.151160" lon="-5.945990">
        <ele>610.178</ele>
        <time>2020-05-23T07:19:30Z</time>
      </trkpt>
      <trkpt lat="43.151150" lon="-5.945930">
        <ele>610.277</ele>
        <time>2020-05-23T07:19:50Z</time>
      </trkpt>
      <trkpt lat="43.151130" lon="-5.945830">
        <ele>610.128</ele>
        <time>2020-05-23T07:20:10Z</time>
      </trkpt>
      <trkpt lat="43.151100" lon="-5.945760">
        <ele>610.147</ele>
        <time>2020-05-23T07:20:30Z</time>
      </trkpt>
      <trkpt lat="43.151090" lon="-5.945710">
        <ele>610.870</ele>
        <time>2020-05-23T07:20:50Z</time>
      </trkpt>
      <trkpt lat="43.151040" lon="-5.945620">
        <ele>611.062</ele>
        <time>2020-05-23T07:21:10Z</time>
      </trkpt>
      <trkpt lat="43.151000" lon="-5.945550">
        <ele>611.683</ele>
        <time>2020-05-23T07:21:30Z</time>
      </trkpt>
      <trkpt lat="43.150950" lon="-5.945470">
        <ele>612.611</ele>
        <time>2020-05-23T07:21:50Z</time>
      </trkpt>
      <trkpt lat="43.150900" lon="-5.945400">
        <ele>613.508</ele>
        <time>2020-05-23T07:22:10Z</time>
      </trkpt>
      <trkpt lat="43.150850" lon="-5.945310">
        <ele>615.310</ele>
        <time>2020-05-23T07:22:30Z</time>
      </trkpt>
      <trkpt lat="43.150790" lon="-5.945170">
        <ele>617.475</ele>
        <time>2020-05-23T07:22:50Z</time>
      </trkpt>
      <trkpt lat="43.150760" lon="-5.945060">
        <ele>619.392</ele>
        <time>2020-05-23T07:23:10Z</time>
      </trkpt>
      <trkpt lat="43.150760" lon="-5.944930">
        <ele>621.038</ele>
        <time>2020-05-23T07:23:30Z</time>
      </trkpt>
      <trkpt lat="43.150760" lon="-5.944920">
        <ele>621.057</ele>
        <time>2020-05-23T07:23:50Z</time>
      </trkpt>
      <trkpt lat="43.150760" lon="-5.944830">
        <ele>621.518</ele>
        <time>2020-05-23T07:24:10Z</time>
      </trkpt>
      <trkpt lat="43.150780" lon="-5.944740">
        <ele>622.297</ele>
        <time>2020-05-23T07:24:30Z</time>
      </trkpt>
      <trkpt lat="43.150790" lon="-5.944690">
        <ele>622.250</ele>
        <time>2020-05-23T07:24:50Z</time>
      </trkpt>
      <trkpt lat="43.150800" lon="-5.944660">
        <ele>622.154</ele>
        <time>2020-05-23T07:25:10Z</time>
      </trkpt>
      <trkpt lat="43.150830" lon="-5.944600">
        <ele>622.156</ele>
        <time>2020-05-23T07:25:30Z</time>
      </trkpt>
      <trkpt lat="43.150860" lon="-5.944550">
        <ele>622.511</ele>
        <time>2020-05-23T07:25:50Z</time>
      </trkpt>
      <trkpt lat="43.150890" lon="-5.944510">
        <ele>623.108</ele>
        <time>2020-05-23T07:26:10Z</time>
      </trkpt>
      <trkpt lat="43.150900" lon="-5.944490">
        <ele>623.229</ele>
        <time>2020-05-23T07:26:30Z</time>
      </trkpt>
      <trkpt lat="43.151070" lon="-5.944340">
        <ele>625.454</ele>
        <time>2020-05-23T07:26:50Z</time>
      </trkpt>
      <trkpt lat="43.151290" lon="-5.944160">
        <ele>628.621</ele>
        <time>2020-05-23T07:27:10Z</time>
      </trkpt>
      <trkpt lat="43.151390" lon="-5.944080">
        <ele>629.627</ele>
        <time>2020-05-23T07:27:30Z</time>
      </trkpt>
      <trkpt lat="43.151510" lon="-5.943940">
        <ele>631.456</ele>
        <time>2020-05-23T07:27:50Z</time>
      </trkpt>
      <trkpt lat="43.151540" lon="-5.943890">
        <ele>631.627</ele>
        <time>2020-05-23T07:28:10Z</time>
      </trkpt>
      <trkpt lat="43.151570" lon="-5.943850">
        <ele>631.866</ele>
        <time>2020-05-23T07:28:30Z</time>
      </trkpt>
      <trkpt lat="43.151610" lon="-5.943810">
        <ele>632.529</ele>
        <time>2020-05-23T07:28:50Z</time>
      </trkpt>
      <trkpt lat="43.151660" lon="-5.943740">
        <ele>632.891</ele>
        <time>2020-05-23T07:29:10Z</time>
      </trkpt>
      <trkpt lat="43.151700" lon="-5.943680">
        <ele>633.781</ele>
        <time>2020-05-23T07:29:30Z</time>
      </trkpt>
      <trkpt lat="43.151720" lon="-5.943640">
        <ele>633.919</ele>
        <time>2020-05-23T07:29:50Z</time>
      </trkpt>
      <trkpt lat="43.151760" lon="-5.943570">
        <ele>635.108</ele>
        <time>2020-05-23T07:30:10Z</time>
      </trkpt>
      <trkpt lat="43.151780" lon="-5.943510">
        <ele>635.253</ele>
        <time>2020-05-23T07:30:30Z</time>
      </trkpt>
      <trkpt lat="43.151820" lon="-5.943440">
        <ele>636.218</ele>
        <time>2020-05-23T07:30:50Z</time>
      </trkpt>
      <trkpt lat="43.151840" lon="-5.943380">
        <ele>635.945</ele>
        <time>2020-05-23T07:31:10Z</time>
      </trkpt>
      <trkpt lat="43.151840" lon="-5.943360">
        <ele>635.321</ele>
        <time>2020-05-23T07:31:30Z</time>
      </trkpt>
      <trkpt lat="43.151860" lon="-5.943280">
        <ele>635.660</ele>
        <time>2020-05-23T07:31:50Z</time>
      </trkpt>
      <trkpt lat="43.151880" lon="-5.943220">
        <ele>636.691</ele>
        <time>2020-05-23T07:32:10Z</time>
      </trkpt>
      <trkpt lat="43.151890" lon="-5.943160">
        <ele>637.060</ele>
        <time>2020-05-23T07:32:30Z</time>
      </trkpt>
      <trkpt lat="43.151900" lon="-5.943090">
        <ele>637.433</ele>
        <time>2020-05-23T07:32:50Z</time>
      </trkpt>
      <trkpt lat="43.151910" lon="-5.943020">
        <ele>637.995</ele>
        <time>2020-05-23T07:33:10Z</time>
      </trkpt>
      <trkpt lat="43.151910" lon="-5.942960">
        <ele>637.949</ele>
        <time>2020-05-23T07:33:30Z</time>
      </trkpt>
      <trkpt lat="43.151900" lon="-5.942900">
        <ele>637.523</ele>
        <time>2020-05-23T07:33:50Z</time>
      </trkpt>
      <trkpt lat="43.151890" lon="-5.942800">
        <ele>637.408</ele>
        <time>2020-05-23T07:34:10Z</time>
      </trkpt>
      <trkpt lat="43.151880" lon="-5.942720">
        <ele>637.843</ele>
        <time>2020-05-23T07:34:30Z</time>
      </trkpt>
      <trkpt lat="43.151850" lon="-5.942630">
        <ele>638.678</ele>
        <time>2020-05-23T07:34:50Z</time>
      </trkpt>
      <trkpt lat="43.151810" lon="-5.942550">
        <ele>639.925</ele>
        <time>2020-05-23T07:35:10Z</time>
      </trkpt>
      <trkpt lat="43.151760" lon="-5.942470">
        <ele>641.731</ele>
        <time>2020-05-23T07:35:30Z</time>
      </trkpt>
      <trkpt lat="43.151690" lon="-5.942410">
        <ele>643.310</ele>
        <time>2020-05-23T07:35:50Z</time>
      </trkpt>
      <trkpt lat="43.151590" lon="-5.942350">
        <ele>645.521</ele>
        <time>2020-05-23T07:36:10Z</time>
      </trkpt>
      <trkpt lat="43.151490" lon="-5.942320">
        <ele>647.550</ele>
        <time>2020-05-23T07:36:30Z</time>
      </trkpt>
      <trkpt lat="43.151410" lon="-5.942320">
        <ele>648.523</ele>
        <time>2020-05-23T07:36:50Z</time>
      </trkpt>
      <trkpt lat="43.151360" lon="-5.942320">
        <ele>648.912</ele>
        <time>2020-05-23T07:37:10Z</time>
      </trkpt>
      <trkpt lat="43.151240" lon="-5.942320">
        <ele>649.532</ele>
        <time>2020-05-23T07:37:30Z</time>
      </trkpt>
      <trkpt lat="43.151000" lon="-5.942300">
        <ele>650.405</ele>
        <time>2020-05-23T07:37:50Z</time>
      </trkpt>
      <trkpt lat="43.150930" lon="-5.942280">
        <ele>650.908</ele>
        <time>2020-05-23T07:38:10Z</time>
      </trkpt>
      <trkpt lat="43.150890" lon="-5.942270">
        <ele>651.265</ele>
        <time>2020-05-23T07:38:30Z</time>
      </trkpt>
      <trkpt lat="43.150880" lon="-5.942260">
        <ele>651.670</ele>
        <time>2020-05-23T07:38:50Z</time>
      </trkpt>
      <trkpt lat="43.150730" lon="-5.942210">
        <ele>652.537</ele>
        <time>2020-05-23T07:39:10Z</time>
      </trkpt>
      <trkpt lat="43.150650" lon="-5.942160">
        <ele>653.773</ele>
        <time>2020-05-23T07:39:30Z</time>
      </trkpt>
      <trkpt lat="43.150580" lon="-5.942110">
        <ele>654.512</ele>
        <time>2020-05-23T07:39:50Z</time>
      </trkpt>
      <trkpt lat="43.150540" lon="-5.942070">
        <ele>655.043</ele>
        <time>2020-05-23T07:40:10Z</time>
      </trkpt>
      <trkpt lat="43.150510" lon="-5.942030">
        <ele>655.562</ele>
        <time>2020-05-23T07:40:30Z</time>
      </trkpt>
      <trkpt lat="43.150480" lon="-5.941980">
        <ele>656.595</ele>
        <time>2020-05-23T07:40:50Z</time>
      </trkpt>
      <trkpt lat="43.150440" lon="-5.941910">
        <ele>657.791</ele>
        <time>2020-05-23T07:41:10Z</time>
      </trkpt>
      <trkpt lat="43.150400" lon="-5.941860">
        <ele>657.881</ele>
        <time>2020-05-23T07:41:30Z</time>
      </trkpt>
      <trkpt lat="43.150380" lon="-5.941780">
        <ele>659.119</ele>
        <time>2020-05-23T07:41:50Z</time>
      </trkpt>
      <trkpt lat="43.150360" lon="-5.941690">
        <ele>660.208</ele>
        <time>2020-05-23T07:42:10Z</time>
      </trkpt>
      <trkpt lat="43.150350" lon="-5.941650">
        <ele>660.223</ele>
        <time>2020-05-23T07:42:30Z</time>
      </trkpt>
      <trkpt lat="43.150340" lon="-5.941600">
        <ele>659.888</ele>
        <time>2020-05-23T07:42:50Z</time>
      </trkpt>
      <trkpt lat="43.150330" lon="-5.941560">
        <ele>659.325</ele>
        <time>2020-05-23T07:43:10Z</time>
      </trkpt>
      <trkpt lat="43.150330" lon="-5.941510">
        <ele>659.581</ele>
        <time>2020-05-23T07:43:30Z</time>
      </trkpt>
      <trkpt lat="43.150330" lon="-5.941470">
        <ele>659.610</ele>
        <time>2020-05-23T07:43:50Z</time>
      </trkpt>
      <trkpt lat="43.150340" lon="-5.941430">
        <ele>660.261</ele>
        <time>2020-05-23T07:44:10Z</time>
      </trkpt>
      <trkpt lat="43.150350" lon="-5.941350">
        <ele>660.940</ele>
        <time>2020-05-23T07:44:30Z</time>
      </trkpt>
      <trkpt lat="43.150380" lon="-5.941190">
        <ele>662.513</ele>
        <time>2020-05-23T07:44:50Z</time>
      </trkpt>
      <trkpt lat="43.150380" lon="-5.941180">
        <ele>662.575</ele>
        <time>2020-05-23T07:45:10Z</time>
      </trkpt>
      <trkpt lat="43.150450" lon="-5.940920">
        <ele>665.428</ele>
        <time>2020-05-23T07:45:30Z</time>
      </trkpt>
      <trkpt lat="43.150530" lon="-5.940560">
        <ele>665.620</ele>
        <time>2020-05-23T07:45:50Z</time>
      </trkpt>
      <trkpt lat="43.150550" lon="-5.940490">
        <ele>666.208</ele>
        <time>2020-05-23T07:46:10Z</time>
      </trkpt>
      <trkpt lat="43.150560" lon="-5.940450">
        <ele>666.631</ele>
        <time>2020-05-23T07:46:30Z</time>
      </trkpt>
      <trkpt lat="43.150570" lon="-5.940380">
        <ele>666.956</ele>
        <time>2020-05-23T07:46:50Z</time>
      </trkpt>
      <trkpt lat="43.150580" lon="-5.940260">
        <ele>667.243</ele>
        <time>2020-05-23T07:47:10Z</time>
      </trkpt>
      <trkpt lat="43.150580" lon="-5.940120">
        <ele>669.219</ele>
        <time>2020-05-23T07:47:30Z</time>
      </trkpt>
      <trkpt lat="43.150580" lon="-5.939990">
        <ele>671.148</ele>
        <time>2020-05-23T07:47:50Z</time>
      </trkpt>
      <trkpt lat="43.150550" lon="-5.939850">
        <ele>672.049</ele>
        <time>2020-05-23T07:48:10Z</time>
      </trkpt>
      <trkpt lat="43.150520" lon="-5.939740">
        <ele>673.398</ele>
        <time>2020-05-23T07:48:30Z</time>
      </trkpt>
      <trkpt lat="43.150480" lon="-5.939640">
        <ele>675.121</ele>
        <time>2020-05-23T07:48:50Z</time>
      </trkpt>
      <trkpt lat="43.150390" lon="-5.939470">
        <ele>675.883</ele>
        <time>2020-05-23T07:49:10Z</time>
      </trkpt>
      <trkpt lat="43.150320" lon="-5.939350">
        <ele>676.225</ele>
        <time>2020-05-23T07:49:30Z</time>
      </trkpt>
      <trkpt lat="43.150230" lon="-5.939230">
        <ele>675.817</ele>
        <time>2020-05-23T07:49:50Z</time>
      </trkpt>
      <trkpt lat="43.150200" lon="-5.939190">
        <ele>676.308</ele>
        <time>2020-05-23T07:50:10Z</time>
      </trkpt>
      <trkpt lat="43.150150" lon="-5.939120">
        <ele>678.292</ele>
        <time>2020-05-23T07:50:30Z</time>
      </trkpt>
      <trkpt lat="43.150090" lon="-5.939070">
        <ele>678.697</ele>
        <time>2020-05-23T07:50:50Z</time>
      </trkpt>
      <trkpt lat="43.150050" lon="-5.939040">
        <ele>678.324</ele>
        <time>2020-05-23T07:51:10Z</time>
      </trkpt>
      <trkpt lat="43.150030" lon="-5.939020">
        <ele>678.390</ele>
        <time>2020-05-23T07:51:30Z</time>
      </trkpt>
      <trkpt lat="43.149940" lon="-5.938960">
        <ele>678.579</ele>
        <time>2020-05-23T07:51:50Z</time>
      </trkpt>
      <trkpt lat="43.149900" lon="-5.938940">
        <ele>678.780</ele>
        <time>2020-05-23T07:52:10Z</time>
      </trkpt>
      <trkpt lat="43.149890" lon="-5.938930">
        <ele>679.069</ele>
        <time>2020-05-23T07:52:30Z</time>
      </trkpt>
      <trkpt lat="43.149870" lon="-5.938910">
        <ele>679.612</ele>
        <time>2020-05-23T07:52:50Z</time>
      </trkpt>
      <trkpt lat="43.149840" lon="-5.938880">
        <ele>680.583</ele>
        <time>2020-05-23T07:53:10Z</time>
      </trkpt>
      <trkpt lat="43.149820" lon="-5.938840">
        <ele>681.425</ele>
        <time>2020-05-23T07:53:30Z</time>
      </trkpt>
      <trkpt lat="43.149790" lon="-5.938800">
        <ele>681.717</ele>
        <time>2020-05-23T07:53:50Z</time>
      </trkpt>
      <trkpt lat="43.149770" lon="-5.938750">
        <ele>682.108</ele>
        <time>2020-05-23T07:54:10Z</time>
      </trkpt>
      <trkpt lat="43.149770" lon="-5.938740">
        <ele>682.462</ele>
        <time>2020-05-23T07:54:30Z</time>
      </trkpt>
      <trkpt lat="43.149750" lon="-5.938690">
        <ele>682.437</ele>
        <time>2020-05-23T07:54:50Z</time>
      </trkpt>
      <trkpt lat="43.149740" lon="-5.938640">
        <ele>682.834</ele>
        <time>2020-05-23T07:55:10Z</time>
      </trkpt>
      <trkpt lat="43.149730" lon="-5.938570">
        <ele>683.030</ele>
        <time>2020-05-23T07:55:30Z</time>
      </trkpt>
      <trkpt lat="43.149730" lon="-5.938520">
        <ele>683.529</ele>
        <time>2020-05-23T07:55:50Z</time>
      </trkpt>
      <trkpt lat="43.149720" lon="-5.938450">
        <ele>683.770</ele>
        <time>2020-05-23T07:56:10Z</time>
      </trkpt>
      <trkpt lat="43.149730" lon="-5.938390">
        <ele>684.989</ele>
        <time>2020-05-23T07:56:30Z</time>
      </trkpt>
      <trkpt lat="43.149740" lon="-5.938330">
        <ele>686.172</ele>
        <time>2020-05-23T07:56:50Z</time>
      </trkpt>
      <trkpt lat="43.149750" lon="-5.938270">
        <ele>686.043</ele>
        <time>2020-05-23T07:57:10Z</time>
      </trkpt>
      <trkpt lat="43.149760" lon="-5.938240">
        <ele>686.164</ele>
        <time>2020-05-23T07:57:30Z</time>
      </trkpt>
      <trkpt lat="43.149780" lon="-5.938190">
        <ele>686.410</ele>
        <time>2020-05-23T07:57:50Z</time>
      </trkpt>
      <trkpt lat="43.149790" lon="-5.938140">
        <ele>686.108</ele>
        <time>2020-05-23T07:58:10Z</time>
      </trkpt>
      <trkpt lat="43.149810" lon="-5.938100">
        <ele>686.348</ele>
        <time>2020-05-23T07:58:30Z</time>
      </trkpt>
      <trkpt lat="43.149840" lon="-5.938060">
        <ele>686.833</ele>
        <time>2020-05-23T07:58:50Z</time>
      </trkpt>
      <trkpt lat="43.149860" lon="-5.938030">
        <ele>686.870</ele>
        <time>2020-05-23T07:59:10Z</time>
      </trkpt>
      <trkpt lat="43.149890" lon="-5.937990">
        <ele>687.096</ele>
        <time>2020-05-23T07:59:30Z</time>
      </trkpt>
      <trkpt lat="43.149920" lon="-5.937960">
        <ele>687.485</ele>
        <time>2020-05-23T07:59:50Z</time>
      </trkpt>
      <trkpt lat="43.149950" lon="-5.937930">
        <ele>687.916</ele>
        <time>2020-05-23T08:00:10Z</time>
      </trkpt>
      <trkpt lat="43.149980" lon="-5.937910">
        <ele>688.585</ele>
        <time>2020-05-23T08:00:30Z</time>
      </trkpt>
      <trkpt lat="43.150010" lon="-5.937890">
        <ele>688.968</ele>
        <time>2020-05-23T08:00:50Z</time>
      </trkpt>
      <trkpt lat="43.150040" lon="-5.937870">
        <ele>688.644</ele>
        <time>2020-05-23T08:01:10Z</time>
      </trkpt>
      <trkpt lat="43.150070" lon="-5.937870">
        <ele>688.805</ele>
        <time>2020-05-23T08:01:30Z</time>
      </trkpt>
      <trkpt lat="43.150120" lon="-5.937850">
        <ele>688.715</ele>
        <time>2020-05-23T08:01:50Z</time>
      </trkpt>
      <trkpt lat="43.150150" lon="-5.937850">
        <ele>688.908</ele>
        <time>2020-05-23T08:02:10Z</time>
      </trkpt>
      <trkpt lat="43.150180" lon="-5.937850">
        <ele>689.118</ele>
        <time>2020-05-23T08:02:30Z</time>
      </trkpt>
      <trkpt lat="43.150300" lon="-5.937860">
        <ele>690.293</ele>
        <time>2020-05-23T08:02:50Z</time>
      </trkpt>
      <trkpt lat="43.150330" lon="-5.937870">
        <ele>690.530</ele>
        <time>2020-05-23T08:03:10Z</time>
      </trkpt>
      <trkpt lat="43.150650" lon="-5.937920">
        <ele>693.486</ele>
        <time>2020-05-23T08:03:30Z</time>
      </trkpt>
      <trkpt lat="43.150710" lon="-5.937920">
        <ele>694.035</ele>
        <time>2020-05-23T08:03:50Z</time>
      </trkpt>
      <trkpt lat="43.150750" lon="-5.937920">
        <ele>694.356</ele>
        <time>2020-05-23T08:04:10Z</time>
      </trkpt>
      <trkpt lat="43.150770" lon="-5.937920">
        <ele>694.555</ele>
        <time>2020-05-23T08:04:30Z</time>
      </trkpt>
      <trkpt lat="43.150830" lon="-5.937910">
        <ele>694.838</ele>
        <time>2020-05-23T08:04:50Z</time>
      </trkpt>
      <trkpt lat="43.150850" lon="-5.937910">
        <ele>695.262</ele>
        <time>2020-05-23T08:05:10Z</time>
      </trkpt>
      <trkpt lat="43.150890" lon="-5.937900">
        <ele>696.083</ele>
        <time>2020-05-23T08:05:30Z</time>
      </trkpt>
      <trkpt lat="43.150930" lon="-5.937880">
        <ele>696.511</ele>
        <time>2020-05-23T08:05:50Z</time>
      </trkpt>
      <trkpt lat="43.150970" lon="-5.937860">
        <ele>697.108</ele>
        <time>2020-05-23T08:06:10Z</time>
      </trkpt>
      <trkpt lat="43.151010" lon="-5.937830">
        <ele>697.590</ele>
        <time>2020-05-23T08:06:30Z</time>
      </trkpt>
      <trkpt lat="43.151030" lon="-5.937810">
        <ele>697.675</ele>
        <time>2020-05-23T08:06:50Z</time>
      </trkpt>
      <trkpt lat="43.151050" lon="-5.937800">
        <ele>697.962</ele>
        <time>2020-05-23T08:07:10Z</time>
      </trkpt>
      <trkpt lat="43.151080" lon="-5.937770">
        <ele>698.198</ele>
        <time>2020-05-23T08:07:30Z</time>
      </trkpt>
      <trkpt lat="43.151110" lon="-5.937730">
        <ele>698.137</ele>
        <time>2020-05-23T08:07:50Z</time>
      </trkpt>
      <trkpt lat="43.151170" lon="-5.937650">
        <ele>698.058</ele>
        <time>2020-05-23T08:08:10Z</time>
      </trkpt>
      <trkpt lat="43.151230" lon="-5.937570">
        <ele>697.877</ele>
        <time>2020-05-23T08:08:30Z</time>
      </trkpt>
      <trkpt lat="43.151260" lon="-5.937510">
        <ele>697.470</ele>
        <time>2020-05-23T08:08:50Z</time>
      </trkpt>
      <trkpt lat="43.151290" lon="-5.937460">
        <ele>697.793</ele>
        <time>2020-05-23T08:09:10Z</time>
      </trkpt>
      <trkpt lat="43.151320" lon="-5.937370">
        <ele>698.265</ele>
        <time>2020-05-23T08:09:30Z</time>
      </trkpt>
      <trkpt lat="43.151340" lon="-5.937290">
        <ele>698.521</ele>
        <time>2020-05-23T08:09:50Z</time>
      </trkpt>
      <trkpt lat="43.151360" lon="-5.937220">
        <ele>699.108</ele>
        <time>2020-05-23T08:10:10Z</time>
      </trkpt>
      <trkpt lat="43.151380" lon="-5.937160">
        <ele>699.943</ele>
        <time>2020-05-23T08:10:30Z</time>
      </trkpt>
      <trkpt lat="43.151390" lon="-5.937080">
        <ele>700.538</ele>
        <time>2020-05-23T08:10:50Z</time>
      </trkpt>
      <trkpt lat="43.151400" lon="-5.937030">
        <ele>701.095</ele>
        <time>2020-05-23T08:11:10Z</time>
      </trkpt>
      <trkpt lat="43.151410" lon="-5.936930">
        <ele>701.791</ele>
        <time>2020-05-23T08:11:30Z</time>
      </trkpt>
      <trkpt lat="43.151420" lon="-5.936860">
        <ele>702.320</ele>
        <time>2020-05-23T08:11:50Z</time>
      </trkpt>
      <trkpt lat="43.151430" lon="-5.936790">
        <ele>703.081</ele>
        <time>2020-05-23T08:12:10Z</time>
      </trkpt>
      <trkpt lat="43.151440" lon="-5.936720">
        <ele>703.740</ele>
        <time>2020-05-23T08:12:30Z</time>
      </trkpt>
      <trkpt lat="43.151440" lon="-5.936620">
        <ele>704.373</ele>
        <time>2020-05-23T08:12:50Z</time>
      </trkpt>
      <trkpt lat="43.151450" lon="-5.935770">
        <ele>708.667</ele>
        <time>2020-05-23T08:13:10Z</time>
      </trkpt>
      <trkpt lat="43.151450" lon="-5.935600">
        <ele>709.581</ele>
        <time>2020-05-23T08:13:30Z</time>
      </trkpt>
      <trkpt lat="43.151450" lon="-5.935510">
        <ele>709.919</ele>
        <time>2020-05-23T08:13:50Z</time>
      </trkpt>
      <trkpt lat="43.151440" lon="-5.935410">
        <ele>709.908</ele>
        <time>2020-05-23T08:14:10Z</time>
      </trkpt>
      <trkpt lat="43.151430" lon="-5.935320">
        <ele>709.990</ele>
        <time>2020-05-23T08:14:30Z</time>
      </trkpt>
      <trkpt lat="43.151420" lon="-5.935190">
        <ele>710.415</ele>
        <time>2020-05-23T08:14:50Z</time>
      </trkpt>
      <trkpt lat="43.151410" lon="-5.935090">
        <ele>710.982</ele>
        <time>2020-05-23T08:15:10Z</time>
      </trkpt>
      <trkpt lat="43.151400" lon="-5.935030">
        <ele>711.178</ele>
        <time>2020-05-23T08:15:30Z</time>
      </trkpt>
      <trkpt lat="43.151400" lon="-5.934970">
        <ele>711.647</ele>
        <time>2020-05-23T08:15:50Z</time>
      </trkpt>
      <trkpt lat="43.151330" lon="-5.934550">
        <ele>714.878</ele>
        <time>2020-05-23T08:16:10Z</time>
      </trkpt>
      <trkpt lat="43.151300" lon="-5.934390">
        <ele>716.457</ele>
        <time>2020-05-23T08:16:30Z</time>
      </trkpt>
      <trkpt lat="43.151280" lon="-5.934310">
        <ele>716.960</ele>
        <time>2020-05-23T08:16:50Z</time>
      </trkpt>
      <trkpt lat="43.151260" lon="-5.934180">
        <ele>718.297</ele>
        <time>2020-05-23T08:17:10Z</time>
      </trkpt>
      <trkpt lat="43.151240" lon="-5.934040">
        <ele>718.923</ele>
        <time>2020-05-23T08:17:30Z</time>
      </trkpt>
      <trkpt lat="43.151220" lon="-5.933920">
        <ele>719.225</ele>
        <time>2020-05-23T08:17:50Z</time>
      </trkpt>
      <trkpt lat="43.151200" lon="-5.933760">
        <ele>719.108</ele>
        <time>2020-05-23T08:18:10Z</time>
      </trkpt>
      <trkpt lat="43.151190" lon="-5.933690">
        <ele>719.083</ele>
        <time>2020-05-23T08:18:30Z</time>
      </trkpt>
      <trkpt lat="43.151180" lon="-5.933610">
        <ele>719.068</ele>
        <time>2020-05-23T08:18:50Z</time>
      </trkpt>
      <trkpt lat="43.151170" lon="-5.933510">
        <ele>719.095</ele>
        <time>2020-05-23T08:19:10Z</time>
      </trkpt>
      <trkpt lat="43.151170" lon="-5.933400">
        <ele>719.471</ele>
        <time>2020-05-23T08:19:30Z</time>
      </trkpt>
      <trkpt lat="43.151170" lon="-5.933300">
        <ele>719.770</ele>
        <time>2020-05-23T08:19:50Z</time>
      </trkpt>
      <trkpt lat="43.151170" lon="-5.933220">
        <ele>719.891</ele>
        <time>2020-05-23T08:20:10Z</time>
      </trkpt>
      <trkpt lat="43.151170" lon="-5.933160">
        <ele>719.810</ele>
        <time>2020-05-23T08:20:30Z</time>
      </trkpt>
      <trkpt lat="43.151170" lon="-5.933140">
        <ele>719.863</ele>
        <time>2020-05-23T08:20:50Z</time>
      </trkpt>
      <trkpt lat="43.151180" lon="-5.933070">
        <ele>720.046</ele>
        <time>2020-05-23T08:21:10Z</time>
      </trkpt>
      <trkpt lat="43.151180" lon="-5.933000">
        <ele>719.188</ele>
        <time>2020-05-23T08:21:30Z</time>
      </trkpt>
      <trkpt lat="43.151200" lon="-5.932880">
        <ele>717.516</ele>
        <time>2020-05-23T08:21:50Z</time>
      </trkpt>
      <trkpt lat="43.151220" lon="-5.932790">
        <ele>716.508</ele>
        <time>2020-05-23T08:22:10Z</time>
      </trkpt>
      <trkpt lat="43.151240" lon="-5.932700">
        <ele>716.278</ele>
        <time>2020-05-23T08:22:30Z</time>
      </trkpt>
      <trkpt lat="43.151250" lon="-5.932680">
        <ele>716.353</ele>
        <time>2020-05-23T08:22:50Z</time>
      </trkpt>
      <trkpt lat="43.151260" lon="-5.932630">
        <ele>716.250</ele>
        <time>2020-05-23T08:23:10Z</time>
      </trkpt>
      <trkpt lat="43.151320" lon="-5.932490">
        <ele>717.646</ele>
        <time>2020-05-23T08:23:30Z</time>
      </trkpt>
      <trkpt lat="43.151330" lon="-5.932460">
        <ele>718.095</ele>
        <time>2020-05-23T08:23:50Z</time>
      </trkpt>
      <trkpt lat="43.151380" lon="-5.932340">
        <ele>720.816</ele>
        <time>2020-05-23T08:24:10Z</time>
      </trkpt>
      <trkpt lat="43.151440" lon="-5.932230">
        <ele>724.365</ele>
        <time>2020-05-23T08:24:30Z</time>
      </trkpt>
      <trkpt lat="43.151490" lon="-5.932150">
        <ele>726.438</ele>
        <time>2020-05-23T08:24:50Z</time>
      </trkpt>
      <trkpt lat="43.151540" lon="-5.932070">
        <ele>728.265</ele>
        <time>2020-05-23T08:25:10Z</time>
      </trkpt>
      <trkpt lat="43.151580" lon="-5.932020">
        <ele>729.468</ele>
        <time>2020-05-23T08:25:30Z</time>
      </trkpt>
      <trkpt lat="43.151610" lon="-5.931980">
        <ele>730.314</ele>
        <time>2020-05-23T08:25:50Z</time>
      </trkpt>
      <trkpt lat="43.151640" lon="-5.931940">
        <ele>730.908</ele>
        <time>2020-05-23T08:26:10Z</time>
      </trkpt>
      <trkpt lat="43.151710" lon="-5.931890">
        <ele>732.550</ele>
        <time>2020-05-23T08:26:30Z</time>
      </trkpt>
      <trkpt lat="43.151730" lon="-5.931860">
        <ele>732.515</ele>
        <time>2020-05-23T08:26:50Z</time>
      </trkpt>
      <trkpt lat="43.151770" lon="-5.931830">
        <ele>733.372</ele>
        <time>2020-05-23T08:27:10Z</time>
      </trkpt>
      <trkpt lat="43.151820" lon="-5.931790">
        <ele>734.148</ele>
        <time>2020-05-23T08:27:30Z</time>
      </trkpt>
      <trkpt lat="43.151860" lon="-5.931770">
        <ele>735.087</ele>
        <time>2020-05-23T08:27:50Z</time>
      </trkpt>
      <trkpt lat="43.151900" lon="-5.931740">
        <ele>735.438</ele>
        <time>2020-05-23T08:28:10Z</time>
      </trkpt>
      <trkpt lat="43.151930" lon="-5.931720">
        <ele>735.727</ele>
        <time>2020-05-23T08:28:30Z</time>
      </trkpt>
      <trkpt lat="43.151970" lon="-5.931700">
        <ele>736.140</ele>
        <time>2020-05-23T08:28:50Z</time>
      </trkpt>
      <trkpt lat="43.152000" lon="-5.931690">
        <ele>736.423</ele>
        <time>2020-05-23T08:29:10Z</time>
      </trkpt>
      <trkpt lat="43.152030" lon="-5.931670">
        <ele>736.383</ele>
        <time>2020-05-23T08:29:30Z</time>
      </trkpt>
      <trkpt lat="43.152110" lon="-5.931650">
        <ele>737.511</ele>
        <time>2020-05-23T08:29:50Z</time>
      </trkpt>
      <trkpt lat="43.152180" lon="-5.931630">
        <ele>738.308</ele>
        <time>2020-05-23T08:30:10Z</time>
      </trkpt>
      <trkpt lat="43.152300" lon="-5.931600">
        <ele>739.416</ele>
        <time>2020-05-23T08:30:30Z</time>
      </trkpt>
      <trkpt lat="43.152400" lon="-5.931580">
        <ele>740.551</ele>
        <time>2020-05-23T08:30:50Z</time>
      </trkpt>
      <trkpt lat="43.152470" lon="-5.931570">
        <ele>741.638</ele>
        <time>2020-05-23T08:31:10Z</time>
      </trkpt>
      <trkpt lat="43.152530" lon="-5.931560">
        <ele>742.144</ele>
        <time>2020-05-23T08:31:30Z</time>
      </trkpt>
      <trkpt lat="43.152570" lon="-5.931570">
        <ele>742.933</ele>
        <time>2020-05-23T08:31:50Z</time>
      </trkpt>
      <trkpt lat="43.152610" lon="-5.931570">
        <ele>743.214</ele>
        <time>2020-05-23T08:32:10Z</time>
      </trkpt>
      <trkpt lat="43.152660" lon="-5.931580">
        <ele>744.143</ele>
        <time>2020-05-23T08:32:30Z</time>
      </trkpt>
      <trkpt lat="43.152710" lon="-5.931590">
        <ele>744.916</ele>
        <time>2020-05-23T08:32:50Z</time>
      </trkpt>
      <trkpt lat="43.152770" lon="-5.931600">
        <ele>745.897</ele>
        <time>2020-05-23T08:33:10Z</time>
      </trkpt>
      <trkpt lat="43.152880" lon="-5.931640">
        <ele>746.823</ele>
        <time>2020-05-23T08:33:30Z</time>
      </trkpt>
      <trkpt lat="43.153060" lon="-5.931700">
        <ele>749.025</ele>
        <time>2020-05-23T08:33:50Z</time>
      </trkpt>
      <trkpt lat="43.153290" lon="-5.931780">
        <ele>752.208</ele>
        <time>2020-05-23T08:34:10Z</time>
      </trkpt>
      <trkpt lat="43.153360" lon="-5.931800">
        <ele>752.953</ele>
        <time>2020-05-23T08:34:30Z</time>
      </trkpt>
      <trkpt lat="43.153390" lon="-5.931810">
        <ele>753.478</ele>
        <time>2020-05-23T08:34:50Z</time>
      </trkpt>
      <trkpt lat="43.153430" lon="-5.931820">
        <ele>753.945</ele>
        <time>2020-05-23T08:35:10Z</time>
      </trkpt>
      <trkpt lat="43.153470" lon="-5.931820">
        <ele>754.021</ele>
        <time>2020-05-23T08:35:30Z</time>
      </trkpt>
      <trkpt lat="43.153500" lon="-5.931820">
        <ele>754.170</ele>
        <time>2020-05-23T08:35:50Z</time>
      </trkpt>
      <trkpt lat="43.153540" lon="-5.931820">
        <ele>754.271</ele>
        <time>2020-05-23T08:36:10Z</time>
      </trkpt>
      <trkpt lat="43.153580" lon="-5.931810">
        <ele>754.080</ele>
        <time>2020-05-23T08:36:30Z</time>
      </trkpt>
      <trkpt lat="43.153590" lon="-5.931810">
        <ele>754.183</ele>
        <time>2020-05-23T08:36:50Z</time>
      </trkpt>
      <trkpt lat="43.153610" lon="-5.931800">
        <ele>753.843</ele>
        <time>2020-05-23T08:37:10Z</time>
      </trkpt>
      <trkpt lat="43.153650" lon="-5.931790">
        <ele>754.064</ele>
        <time>2020-05-23T08:37:30Z</time>
      </trkpt>
      <trkpt lat="43.153680" lon="-5.931780">
        <ele>754.210</ele>
        <time>2020-05-23T08:37:50Z</time>
      </trkpt>
      <trkpt lat="43.153720" lon="-5.931760">
        <ele>754.408</ele>
        <time>2020-05-23T08:38:10Z</time>
      </trkpt>
      <trkpt lat="43.153760" lon="-5.931740">
        <ele>754.748</ele>
        <time>2020-05-23T08:38:30Z</time>
      </trkpt>
      <trkpt lat="43.153790" lon="-5.931710">
        <ele>755.053</ele>
        <time>2020-05-23T08:38:50Z</time>
      </trkpt>
      <trkpt lat="43.153820" lon="-5.931680">
        <ele>755.430</ele>
        <time>2020-05-23T08:39:10Z</time>
      </trkpt>
      <trkpt lat="43.153890" lon="-5.931630">
        <ele>756.566</ele>
        <time>2020-05-23T08:39:30Z</time>
      </trkpt>
      <trkpt lat="43.153910" lon="-5.931600">
        <ele>756.645</ele>
        <time>2020-05-23T08:39:50Z</time>
      </trkpt>
      <trkpt lat="43.153970" lon="-5.931520">
        <ele>757.426</ele>
        <time>2020-05-23T08:40:10Z</time>
      </trkpt>
      <trkpt lat="43.154090" lon="-5.931370">
        <ele>760.935</ele>
        <time>2020-05-23T08:40:30Z</time>
      </trkpt>
      <trkpt lat="43.154350" lon="-5.931020">
        <ele>770.538</ele>
        <time>2020-05-23T08:40:50Z</time>
      </trkpt>
      <trkpt lat="43.154490" lon="-5.930850">
        <ele>772.727</ele>
        <time>2020-05-23T08:41:10Z</time>
      </trkpt>
      <trkpt lat="43.154550" lon="-5.930780">
        <ele>774.168</ele>
        <time>2020-05-23T08:41:30Z</time>
      </trkpt>
      <trkpt lat="43.154580" lon="-5.930750">
        <ele>774.814</ele>
        <time>2020-05-23T08:41:50Z</time>
      </trkpt>
      <trkpt lat="43.154610" lon="-5.930710">
        <ele>775.008</ele>
        <time>2020-05-23T08:42:10Z</time>
      </trkpt>
      <trkpt lat="43.154640" lon="-5.930680">
        <ele>775.366</ele>
        <time>2020-05-23T08:42:30Z</time>
      </trkpt>
      <trkpt lat="43.154680" lon="-5.930650">
        <ele>775.971</ele>
        <time>2020-05-23T08:42:50Z</time>
      </trkpt>
      <trkpt lat="43.154710" lon="-5.930620">
        <ele>775.938</ele>
        <time>2020-05-23T08:43:10Z</time>
      </trkpt>
      <trkpt lat="43.154720" lon="-5.930610">
        <ele>775.924</ele>
        <time>2020-05-23T08:43:30Z</time>
      </trkpt>
      <trkpt lat="43.154750" lon="-5.930590">
        <ele>776.053</ele>
        <time>2020-05-23T08:43:50Z</time>
      </trkpt>
      <trkpt lat="43.154760" lon="-5.930580">
        <ele>775.974</ele>
        <time>2020-05-23T08:44:10Z</time>
      </trkpt>
      <trkpt lat="43.154780" lon="-5.930570">
        <ele>776.063</ele>
        <time>2020-05-23T08:44:30Z</time>
      </trkpt>
      <trkpt lat="43.154810" lon="-5.930560">
        <ele>776.426</ele>
        <time>2020-05-23T08:44:50Z</time>
      </trkpt>
      <trkpt lat="43.154830" lon="-5.930540">
        <ele>776.163</ele>
        <time>2020-05-23T08:45:10Z</time>
      </trkpt>
      <trkpt lat="43.154860" lon="-5.930530">
        <ele>776.544</ele>
        <time>2020-05-23T08:45:30Z</time>
      </trkpt>
      <trkpt lat="43.154880" lon="-5.930520">
        <ele>776.618</ele>
        <time>2020-05-23T08:45:50Z</time>
      </trkpt>
      <trkpt lat="43.154890" lon="-5.930520">
        <ele>776.808</ele>
        <time>2020-05-23T08:46:10Z</time>
      </trkpt>
      <trkpt lat="43.154930" lon="-5.930510">
        <ele>777.470</ele>
        <time>2020-05-23T08:46:30Z</time>
      </trkpt>
      <trkpt lat="43.154960" lon="-5.930510">
        <ele>778.175</ele>
        <time>2020-05-23T08:46:50Z</time>
      </trkpt>
      <trkpt lat="43.155030" lon="-5.930500">
        <ele>778.972</ele>
        <time>2020-05-23T08:47:10Z</time>
      </trkpt>
      <trkpt lat="43.155060" lon="-5.930500">
        <ele>779.378</ele>
        <time>2020-05-23T08:47:30Z</time>
      </trkpt>
      <trkpt lat="43.155110" lon="-5.930500">
        <ele>779.947</ele>
        <time>2020-05-23T08:47:50Z</time>
      </trkpt>
      <trkpt lat="43.155240" lon="-5.930490">
        <ele>781.158</ele>
        <time>2020-05-23T08:48:10Z</time>
      </trkpt>
      <trkpt lat="43.155250" lon="-5.930490">
        <ele>781.297</ele>
        <time>2020-05-23T08:48:30Z</time>
      </trkpt>
      <trkpt lat="43.155340" lon="-5.930490">
        <ele>782.020</ele>
        <time>2020-05-23T08:48:50Z</time>
      </trkpt>
      <trkpt lat="43.155390" lon="-5.930480">
        <ele>782.196</ele>
        <time>2020-05-23T08:49:10Z</time>
      </trkpt>
      <trkpt lat="43.155420" lon="-5.930480">
        <ele>782.331</ele>
        <time>2020-05-23T08:49:30Z</time>
      </trkpt>
      <trkpt lat="43.155460" lon="-5.930470">
        <ele>782.424</ele>
        <time>2020-05-23T08:49:50Z</time>
      </trkpt>
      <trkpt lat="43.155480" lon="-5.930460">
        <ele>782.408</ele>
        <time>2020-05-23T08:50:10Z</time>
      </trkpt>
      <trkpt lat="43.155500" lon="-5.930460">
        <ele>782.683</ele>
        <time>2020-05-23T08:50:30Z</time>
      </trkpt>
      <trkpt lat="43.155520" lon="-5.930450">
        <ele>782.658</ele>
        <time>2020-05-23T08:50:50Z</time>
      </trkpt>
      <trkpt lat="43.155550" lon="-5.930440">
        <ele>782.745</ele>
        <time>2020-05-23T08:51:10Z</time>
      </trkpt>
      <trkpt lat="43.155640" lon="-5.930390">
        <ele>783.661</ele>
        <time>2020-05-23T08:51:30Z</time>
      </trkpt>
      <trkpt lat="43.155720" lon="-5.930310">
        <ele>783.830</ele>
        <time>2020-05-23T08:51:50Z</time>
      </trkpt>
      <trkpt lat="43.155750" lon="-5.930280">
        <ele>783.851</ele>
        <time>2020-05-23T08:52:10Z</time>
      </trkpt>
      <trkpt lat="43.155800" lon="-5.930230">
        <ele>784.250</ele>
        <time>2020-05-23T08:52:30Z</time>
      </trkpt>
      <trkpt lat="43.155920" lon="-5.930070">
        <ele>785.133</ele>
        <time>2020-05-23T08:52:50Z</time>
      </trkpt>
      <trkpt lat="43.155970" lon="-5.930000">
        <ele>785.578</ele>
        <time>2020-05-23T08:53:10Z</time>
      </trkpt>
      <trkpt lat="43.156170" lon="-5.929730">
        <ele>789.333</ele>
        <time>2020-05-23T08:53:30Z</time>
      </trkpt>
      <trkpt lat="43.156210" lon="-5.929680">
        <ele>789.926</ele>
        <time>2020-05-23T08:53:50Z</time>
      </trkpt>
      <trkpt lat="43.156220" lon="-5.929660">
        <ele>790.108</ele>
        <time>2020-05-23T08:54:10Z</time>
      </trkpt>
      <trkpt lat="43.156490" lon="-5.929300">
        <ele>796.411</ele>
        <time>2020-05-23T08:54:30Z</time>
      </trkpt>
      <trkpt lat="43.156610" lon="-5.929120">
        <ele>798.786</ele>
        <time>2020-05-23T08:54:50Z</time>
      </trkpt>
      <trkpt lat="43.156680" lon="-5.929010">
        <ele>800.083</ele>
        <time>2020-05-23T08:55:10Z</time>
      </trkpt>
      <trkpt lat="43.156770" lon="-5.928860">
        <ele>799.699</ele>
        <time>2020-05-23T08:55:30Z</time>
      </trkpt>
      <trkpt lat="43.156820" lon="-5.928730">
        <ele>799.728</ele>
        <time>2020-05-23T08:55:50Z</time>
      </trkpt>
      <trkpt lat="43.156870" lon="-5.928620">
        <ele>800.859</ele>
        <time>2020-05-23T08:56:10Z</time>
      </trkpt>
      <trkpt lat="43.156900" lon="-5.928550">
        <ele>802.648</ele>
        <time>2020-05-23T08:56:30Z</time>
      </trkpt>
      <trkpt lat="43.156920" lon="-5.928490">
        <ele>804.241</ele>
        <time>2020-05-23T08:56:50Z</time>
      </trkpt>
      <trkpt lat="43.156930" lon="-5.928450">
        <ele>805.321</ele>
        <time>2020-05-23T08:57:10Z</time>
      </trkpt>
      <trkpt lat="43.156930" lon="-5.928430">
        <ele>805.641</ele>
        <time>2020-05-23T08:57:30Z</time>
      </trkpt>
      <trkpt lat="43.156940" lon="-5.928370">
        <ele>807.105</ele>
        <time>2020-05-23T08:57:50Z</time>
      </trkpt>
      <trkpt lat="43.156950" lon="-5.928300">
        <ele>808.308</ele>
        <time>2020-05-23T08:58:10Z</time>
      </trkpt>
      <trkpt lat="43.156960" lon="-5.928240">
        <ele>808.846</ele>
        <time>2020-05-23T08:58:30Z</time>
      </trkpt>
      <trkpt lat="43.156970" lon="-5.928160">
        <ele>809.671</ele>
        <time>2020-05-23T08:58:50Z</time>
      </trkpt>
      <trkpt lat="43.156970" lon="-5.928100">
        <ele>810.158</ele>
        <time>2020-05-23T08:59:10Z</time>
      </trkpt>
      <trkpt lat="43.156970" lon="-5.928040">
        <ele>810.894</ele>
        <time>2020-05-23T08:59:30Z</time>
      </trkpt>
      <trkpt lat="43.156970" lon="-5.928030">
        <ele>811.113</ele>
        <time>2020-05-23T08:59:50Z</time>
      </trkpt>
      <trkpt lat="43.156970" lon="-5.927970">
        <ele>812.534</ele>
        <time>2020-05-23T09:00:10Z</time>
      </trkpt>
      <trkpt lat="43.156960" lon="-5.927890">
        <ele>814.183</ele>
        <time>2020-05-23T09:00:30Z</time>
      </trkpt>
      <trkpt lat="43.156950" lon="-5.927810">
        <ele>815.536</ele>
        <time>2020-05-23T09:00:50Z</time>
      </trkpt>
      <trkpt lat="43.156950" lon="-5.927800">
        <ele>815.781</ele>
        <time>2020-05-23T09:01:10Z</time>
      </trkpt>
      <trkpt lat="43.156940" lon="-5.927750">
        <ele>816.461</ele>
        <time>2020-05-23T09:01:30Z</time>
      </trkpt>
      <trkpt lat="43.156920" lon="-5.927670">
        <ele>817.317</ele>
        <time>2020-05-23T09:01:50Z</time>
      </trkpt>
      <trkpt lat="43.156920" lon="-5.927660">
        <ele>817.508</ele>
        <time>2020-05-23T09:02:10Z</time>
      </trkpt>
      <trkpt lat="43.156900" lon="-5.927600">
        <ele>818.142</ele>
        <time>2020-05-23T09:02:30Z</time>
      </trkpt>
      <trkpt lat="43.156880" lon="-5.927520">
        <ele>819.277</ele>
        <time>2020-05-23T09:02:50Z</time>
      </trkpt>
      <trkpt lat="43.156850" lon="-5.927450">
        <ele>820.174</ele>
        <time>2020-05-23T09:03:10Z</time>
      </trkpt>
      <trkpt lat="43.156840" lon="-5.927440">
        <ele>820.120</ele>
        <time>2020-05-23T09:03:30Z</time>
      </trkpt>
      <trkpt lat="43.156830" lon="-5.927400">
        <ele>820.849</ele>
        <time>2020-05-23T09:03:50Z</time>
      </trkpt>
      <trkpt lat="43.156810" lon="-5.927370">
        <ele>820.950</ele>
        <time>2020-05-23T09:04:10Z</time>
      </trkpt>
      <trkpt lat="43.156770" lon="-5.927300">
        <ele>821.479</ele>
        <time>2020-05-23T09:04:30Z</time>
      </trkpt>
      <trkpt lat="43.156740" lon="-5.927260">
        <ele>821.422</ele>
        <time>2020-05-23T09:04:50Z</time>
      </trkpt>
      <trkpt lat="43.156720" lon="-5.927240">
        <ele>821.296</ele>
        <time>2020-05-23T09:05:10Z</time>
      </trkpt>
      <trkpt lat="43.156700" lon="-5.927210">
        <ele>821.231</ele>
        <time>2020-05-23T09:05:30Z</time>
      </trkpt>
      <trkpt lat="43.156670" lon="-5.927180">
        <ele>821.024</ele>
        <time>2020-05-23T09:05:50Z</time>
      </trkpt>
      <trkpt lat="43.156650" lon="-5.927160">
        <ele>821.108</ele>
        <time>2020-05-23T09:06:10Z</time>
      </trkpt>
      <trkpt lat="43.156600" lon="-5.927110">
        <ele>821.493</ele>
        <time>2020-05-23T09:06:30Z</time>
      </trkpt>
      <trkpt lat="43.156570" lon="-5.927080">
        <ele>821.728</ele>
        <time>2020-05-23T09:06:50Z</time>
      </trkpt>
      <trkpt lat="43.156540" lon="-5.927060">
        <ele>821.895</ele>
        <time>2020-05-23T09:07:10Z</time>
      </trkpt>
      <trkpt lat="43.156520" lon="-5.927050">
        <ele>821.761</ele>
        <time>2020-05-23T09:07:30Z</time>
      </trkpt>
      <trkpt lat="43.156510" lon="-5.927040">
        <ele>821.920</ele>
        <time>2020-05-23T09:07:50Z</time>
      </trkpt>
      <trkpt lat="43.156480" lon="-5.927030">
        <ele>821.731</ele>
        <time>2020-05-23T09:08:10Z</time>
      </trkpt>
      <trkpt lat="43.156420" lon="-5.927000">
        <ele>821.810</ele>
        <time>2020-05-23T09:08:30Z</time>
      </trkpt>
      <trkpt lat="43.156380" lon="-5.926980">
        <ele>822.043</ele>
        <time>2020-05-23T09:08:50Z</time>
      </trkpt>
      <trkpt lat="43.156320" lon="-5.926960">
        <ele>823.095</ele>
        <time>2020-05-23T09:09:10Z</time>
      </trkpt>
      <trkpt lat="43.156270" lon="-5.926950">
        <ele>823.749</ele>
        <time>2020-05-23T09:09:30Z</time>
      </trkpt>
      <trkpt lat="43.156230" lon="-5.926940">
        <ele>824.223</ele>
        <time>2020-05-23T09:09:50Z</time>
      </trkpt>
      <trkpt lat="43.156170" lon="-5.926930">
        <ele>824.908</ele>
        <time>2020-05-23T09:10:10Z</time>
      </trkpt>
      <trkpt lat="43.156130" lon="-5.926930">
        <ele>825.273</ele>
        <time>2020-05-23T09:10:30Z</time>
      </trkpt>
      <trkpt lat="43.156060" lon="-5.926910">
        <ele>825.968</ele>
        <time>2020-05-23T09:10:50Z</time>
      </trkpt>
      <trkpt lat="43.155990" lon="-5.926900">
        <ele>826.315</ele>
        <time>2020-05-23T09:11:10Z</time>
      </trkpt>
      <trkpt lat="43.155960" lon="-5.926900">
        <ele>826.471</ele>
        <time>2020-05-23T09:11:30Z</time>
      </trkpt>
      <trkpt lat="43.155920" lon="-5.926890">
        <ele>826.790</ele>
        <time>2020-05-23T09:11:50Z</time>
      </trkpt>
      <trkpt lat="43.155890" lon="-5.926880">
        <ele>827.091</ele>
        <time>2020-05-23T09:12:10Z</time>
      </trkpt>
      <trkpt lat="43.155860" lon="-5.926870">
        <ele>827.320</ele>
        <time>2020-05-23T09:12:30Z</time>
      </trkpt>
      <trkpt lat="43.155820" lon="-5.926860">
        <ele>827.433</ele>
        <time>2020-05-23T09:12:50Z</time>
      </trkpt>
      <trkpt lat="43.155780" lon="-5.926830">
        <ele>827.881</ele>
        <time>2020-05-23T09:13:10Z</time>
      </trkpt>
      <trkpt lat="43.155750" lon="-5.926800">
        <ele>828.261</ele>
        <time>2020-05-23T09:13:30Z</time>
      </trkpt>
      <trkpt lat="43.155720" lon="-5.926770">
        <ele>828.617</ele>
        <time>2020-05-23T09:13:50Z</time>
      </trkpt>
      <trkpt lat="43.155690" lon="-5.926740">
        <ele>829.008</ele>
        <time>2020-05-23T09:14:10Z</time>
      </trkpt>
      <trkpt lat="43.155660" lon="-5.926710">
        <ele>829.522</ele>
        <time>2020-05-23T09:14:30Z</time>
      </trkpt>
      <trkpt lat="43.155630" lon="-5.926670">
        <ele>830.257</ele>
        <time>2020-05-23T09:14:50Z</time>
      </trkpt>
      <trkpt lat="43.155600" lon="-5.926620">
        <ele>830.734</ele>
        <time>2020-05-23T09:15:10Z</time>
      </trkpt>
      <trkpt lat="43.155580" lon="-5.926570">
        <ele>831.280</ele>
        <time>2020-05-23T09:15:30Z</time>
      </trkpt>
      <trkpt lat="43.155560" lon="-5.926520">
        <ele>831.689</ele>
        <time>2020-05-23T09:15:50Z</time>
      </trkpt>
      <trkpt lat="43.155550" lon="-5.926470">
        <ele>832.040</ele>
        <time>2020-05-23T09:16:10Z</time>
      </trkpt>
      <trkpt lat="43.155530" lon="-5.926410">
        <ele>832.259</ele>
        <time>2020-05-23T09:16:30Z</time>
      </trkpt>
      <trkpt lat="43.155520" lon="-5.926360">
        <ele>832.432</ele>
        <time>2020-05-23T09:16:50Z</time>
      </trkpt>
      <trkpt lat="43.155390" lon="-5.925440">
        <ele>837.751</ele>
        <time>2020-05-23T09:17:10Z</time>
      </trkpt>
      <trkpt lat="43.155340" lon="-5.925080">
        <ele>840.501</ele>
        <time>2020-05-23T09:17:30Z</time>
      </trkpt>
      <trkpt lat="43.155320" lon="-5.924910">
        <ele>841.511</ele>
        <time>2020-05-23T09:17:50Z</time>
      </trkpt>
      <trkpt lat="43.155300" lon="-5.924720">
        <ele>842.808</ele>
        <time>2020-05-23T09:18:10Z</time>
      </trkpt>
      <trkpt lat="43.155300" lon="-5.924700">
        <ele>843.019</ele>
        <time>2020-05-23T09:18:30Z</time>
      </trkpt>
      <trkpt lat="43.155270" lon="-5.924480">
        <ele>843.574</ele>
        <time>2020-05-23T09:18:50Z</time>
      </trkpt>
      <trkpt lat="43.155250" lon="-5.924410">
        <ele>843.451</ele>
        <time>2020-05-23T09:19:10Z</time>
      </trkpt>
      <trkpt lat="43.155240" lon="-5.924350">
        <ele>843.457</ele>
        <time>2020-05-23T09:19:30Z</time>
      </trkpt>
      <trkpt lat="43.155230" lon="-5.924300">
        <ele>843.526</ele>
        <time>2020-05-23T09:19:50Z</time>
      </trkpt>
      <trkpt lat="43.155200" lon="-5.924230">
        <ele>843.497</ele>
        <time>2020-05-23T09:20:10Z</time>
      </trkpt>
      <trkpt lat="43.155200" lon="-5.924220">
        <ele>843.526</ele>
        <time>2020-05-23T09:20:30Z</time>
      </trkpt>
      <trkpt lat="43.155180" lon="-5.924170">
        <ele>843.659</ele>
        <time>2020-05-23T09:20:50Z</time>
      </trkpt>
      <trkpt lat="43.155160" lon="-5.924110">
        <ele>843.574</ele>
        <time>2020-05-23T09:21:10Z</time>
      </trkpt>
      <trkpt lat="43.155140" lon="-5.924050">
        <ele>843.456</ele>
        <time>2020-05-23T09:21:30Z</time>
      </trkpt>
      <trkpt lat="43.155130" lon="-5.923990">
        <ele>843.521</ele>
        <time>2020-05-23T09:21:50Z</time>
      </trkpt>
      <trkpt lat="43.155110" lon="-5.923950">
        <ele>843.508</ele>
        <time>2020-05-23T09:22:10Z</time>
      </trkpt>
      <trkpt lat="43.155110" lon="-5.923920">
        <ele>843.761</ele>
        <time>2020-05-23T09:22:30Z</time>
      </trkpt>
      <trkpt lat="43.155100" lon="-5.923900">
        <ele>843.716</ele>
        <time>2020-05-23T09:22:50Z</time>
      </trkpt>
      <trkpt lat="43.155100" lon="-5.923830">
        <ele>844.113</ele>
        <time>2020-05-23T09:23:10Z</time>
      </trkpt>
      <trkpt lat="43.155090" lon="-5.923780">
        <ele>844.359</ele>
        <time>2020-05-23T09:23:30Z</time>
      </trkpt>
      <trkpt lat="43.155090" lon="-5.923720">
        <ele>844.688</ele>
        <time>2020-05-23T09:23:50Z</time>
      </trkpt>
      <trkpt lat="43.155090" lon="-5.923650">
        <ele>845.189</ele>
        <time>2020-05-23T09:24:10Z</time>
      </trkpt>
      <trkpt lat="43.155100" lon="-5.923610">
        <ele>845.498</ele>
        <time>2020-05-23T09:24:30Z</time>
      </trkpt>
      <trkpt lat="43.155100" lon="-5.923590">
        <ele>845.671</ele>
        <time>2020-05-23T09:24:50Z</time>
      </trkpt>
      <trkpt lat="43.155110" lon="-5.923540">
        <ele>846.281</ele>
        <time>2020-05-23T09:25:10Z</time>
      </trkpt>
      <trkpt lat="43.155120" lon="-5.923480">
        <ele>846.961</ele>
        <time>2020-05-23T09:25:30Z</time>
      </trkpt>
      <trkpt lat="43.155140" lon="-5.923430">
        <ele>847.617</ele>
        <time>2020-05-23T09:25:50Z</time>
      </trkpt>
      <trkpt lat="43.155160" lon="-5.923390">
        <ele>848.408</ele>
        <time>2020-05-23T09:26:10Z</time>
      </trkpt>
      <trkpt lat="43.155160" lon="-5.923380">
        <ele>848.462</ele>
        <time>2020-05-23T09:26:30Z</time>
      </trkpt>
      <trkpt lat="43.155200" lon="-5.923330">
        <ele>849.617</ele>
        <time>2020-05-23T09:26:50Z</time>
      </trkpt>
      <trkpt lat="43.155270" lon="-5.923220">
        <ele>850.074</ele>
        <time>2020-05-23T09:27:10Z</time>
      </trkpt>
      <trkpt lat="43.155370" lon="-5.923100">
        <ele>851.990</ele>
        <time>2020-05-23T09:27:30Z</time>
      </trkpt>
      <trkpt lat="43.155450" lon="-5.923010">
        <ele>853.389</ele>
        <time>2020-05-23T09:27:50Z</time>
      </trkpt>
      <trkpt lat="43.155540" lon="-5.922920">
        <ele>855.090</ele>
        <time>2020-05-23T09:28:10Z</time>
      </trkpt>
      <trkpt lat="43.155590" lon="-5.922870">
        <ele>856.089</ele>
        <time>2020-05-23T09:28:30Z</time>
      </trkpt>
      <trkpt lat="43.155620" lon="-5.922840">
        <ele>856.662</ele>
        <time>2020-05-23T09:28:50Z</time>
      </trkpt>
      <trkpt lat="43.155650" lon="-5.922820">
        <ele>857.233</ele>
        <time>2020-05-23T09:29:10Z</time>
      </trkpt>
      <trkpt lat="43.155680" lon="-5.922790">
        <ele>857.723</ele>
        <time>2020-05-23T09:29:30Z</time>
      </trkpt>
      <trkpt lat="43.155700" lon="-5.922780">
        <ele>858.215</ele>
        <time>2020-05-23T09:29:50Z</time>
      </trkpt>
      <trkpt lat="43.155780" lon="-5.922720">
        <ele>860.008</ele>
        <time>2020-05-23T09:30:10Z</time>
      </trkpt>
      <trkpt lat="43.156070" lon="-5.922540">
        <ele>864.487</ele>
        <time>2020-05-23T09:30:30Z</time>
      </trkpt>
      <trkpt lat="43.156430" lon="-5.922350">
        <ele>868.672</ele>
        <time>2020-05-23T09:30:50Z</time>
      </trkpt>
      <trkpt lat="43.156540" lon="-5.922280">
        <ele>869.419</ele>
        <time>2020-05-23T09:31:10Z</time>
      </trkpt>
      <trkpt lat="43.156740" lon="-5.922130">
        <ele>871.525</ele>
        <time>2020-05-23T09:31:30Z</time>
      </trkpt>
      <trkpt lat="43.156780" lon="-5.922090">
        <ele>871.824</ele>
        <time>2020-05-23T09:31:50Z</time>
      </trkpt>
      <trkpt lat="43.156830" lon="-5.922050">
        <ele>872.345</ele>
        <time>2020-05-23T09:32:10Z</time>
      </trkpt>
      <trkpt lat="43.156990" lon="-5.921880">
        <ele>873.334</ele>
        <time>2020-05-23T09:32:30Z</time>
      </trkpt>
      <trkpt lat="43.157150" lon="-5.921670">
        <ele>875.737</ele>
        <time>2020-05-23T09:32:50Z</time>
      </trkpt>
      <trkpt lat="43.157230" lon="-5.921550">
        <ele>876.629</ele>
        <time>2020-05-23T09:33:10Z</time>
      </trkpt>
      <trkpt lat="43.157260" lon="-5.921490">
        <ele>876.800</ele>
        <time>2020-05-23T09:33:30Z</time>
      </trkpt>
      <trkpt lat="43.157300" lon="-5.921420">
        <ele>877.720</ele>
        <time>2020-05-23T09:33:50Z</time>
      </trkpt>
      <trkpt lat="43.157300" lon="-5.921410">
        <ele>877.608</ele>
        <time>2020-05-23T09:34:10Z</time>
      </trkpt>
      <trkpt lat="43.157310" lon="-5.921390">
        <ele>877.846</ele>
        <time>2020-05-23T09:34:30Z</time>
      </trkpt>
      <trkpt lat="43.157340" lon="-5.921320">
        <ele>878.271</ele>
        <time>2020-05-23T09:34:50Z</time>
      </trkpt>
      <trkpt lat="43.157370" lon="-5.921260">
        <ele>878.898</ele>
        <time>2020-05-23T09:35:10Z</time>
      </trkpt>
      <trkpt lat="43.157390" lon="-5.921170">
        <ele>878.774</ele>
        <time>2020-05-23T09:35:30Z</time>
      </trkpt>
      <trkpt lat="43.157400" lon="-5.921150">
        <ele>879.093</ele>
        <time>2020-05-23T09:35:50Z</time>
      </trkpt>
      <trkpt lat="43.157420" lon="-5.921090">
        <ele>879.774</ele>
        <time>2020-05-23T09:36:10Z</time>
      </trkpt>
      <trkpt lat="43.157430" lon="-5.921030">
        <ele>880.453</ele>
        <time>2020-05-23T09:36:30Z</time>
      </trkpt>
      <trkpt lat="43.157440" lon="-5.920970">
        <ele>881.046</ele>
        <time>2020-05-23T09:36:50Z</time>
      </trkpt>
      <trkpt lat="43.157440" lon="-5.920940">
        <ele>881.149</ele>
        <time>2020-05-23T09:37:10Z</time>
      </trkpt>
      <trkpt lat="43.157440" lon="-5.920900">
        <ele>881.202</ele>
        <time>2020-05-23T09:37:30Z</time>
      </trkpt>
      <trkpt lat="43.157450" lon="-5.920820">
        <ele>881.922</ele>
        <time>2020-05-23T09:37:50Z</time>
      </trkpt>
      <trkpt lat="43.157440" lon="-5.920740">
        <ele>881.408</ele>
        <time>2020-05-23T09:38:10Z</time>
      </trkpt>
      <trkpt lat="43.157440" lon="-5.920720">
        <ele>881.468</ele>
        <time>2020-05-23T09:38:30Z</time>
      </trkpt>
      <trkpt lat="43.157440" lon="-5.920670">
        <ele>881.483</ele>
        <time>2020-05-23T09:38:50Z</time>
      </trkpt>
      <trkpt lat="43.157430" lon="-5.920620">
        <ele>881.120</ele>
        <time>2020-05-23T09:39:10Z</time>
      </trkpt>
      <trkpt lat="43.157420" lon="-5.920570">
        <ele>880.996</ele>
        <time>2020-05-23T09:39:30Z</time>
      </trkpt>
      <trkpt lat="43.157410" lon="-5.920520">
        <ele>880.985</ele>
        <time>2020-05-23T09:39:50Z</time>
      </trkpt>
      <trkpt lat="43.157390" lon="-5.920480">
        <ele>880.976</ele>
        <time>2020-05-23T09:40:10Z</time>
      </trkpt>
      <trkpt lat="43.157370" lon="-5.920420">
        <ele>881.375</ele>
        <time>2020-05-23T09:40:30Z</time>
      </trkpt>
      <trkpt lat="43.157350" lon="-5.920390">
        <ele>881.698</ele>
        <time>2020-05-23T09:40:50Z</time>
      </trkpt>
      <trkpt lat="43.157330" lon="-5.920350">
        <ele>882.253</ele>
        <time>2020-05-23T09:41:10Z</time>
      </trkpt>
      <trkpt lat="43.157310" lon="-5.920320">
        <ele>882.904</ele>
        <time>2020-05-23T09:41:30Z</time>
      </trkpt>
      <trkpt lat="43.157290" lon="-5.920290">
        <ele>883.714</ele>
        <time>2020-05-23T09:41:50Z</time>
      </trkpt>
      <trkpt lat="43.157260" lon="-5.920270">
        <ele>884.508</ele>
        <time>2020-05-23T09:42:10Z</time>
      </trkpt>
      <trkpt lat="43.157230" lon="-5.920240">
        <ele>885.279</ele>
        <time>2020-05-23T09:42:30Z</time>
      </trkpt>
      <trkpt lat="43.157200" lon="-5.920220">
        <ele>885.854</ele>
        <time>2020-05-23T09:42:50Z</time>
      </trkpt>
      <trkpt lat="43.157160" lon="-5.920200">
        <ele>886.711</ele>
        <time>2020-05-23T09:43:10Z</time>
      </trkpt>
      <trkpt lat="43.157130" lon="-5.920190">
        <ele>887.467</ele>
        <time>2020-05-23T09:43:30Z</time>
      </trkpt>
      <trkpt lat="43.157100" lon="-5.920180">
        <ele>888.156</ele>
        <time>2020-05-23T09:43:50Z</time>
      </trkpt>
      <trkpt lat="43.157070" lon="-5.920170">
        <ele>888.827</ele>
        <time>2020-05-23T09:44:10Z</time>
      </trkpt>
      <trkpt lat="43.157030" lon="-5.920170">
        <ele>889.696</ele>
        <time>2020-05-23T09:44:30Z</time>
      </trkpt>
      <trkpt lat="43.156990" lon="-5.920170">
        <ele>890.449</ele>
        <time>2020-05-23T09:44:50Z</time>
      </trkpt>
      <trkpt lat="43.156950" lon="-5.920170">
        <ele>891.245</ele>
        <time>2020-05-23T09:45:10Z</time>
      </trkpt>
      <trkpt lat="43.156920" lon="-5.920170">
        <ele>892.047</ele>
        <time>2020-05-23T09:45:30Z</time>
      </trkpt>
      <trkpt lat="43.156750" lon="-5.920220">
        <ele>894.211</ele>
        <time>2020-05-23T09:45:50Z</time>
      </trkpt>
      <trkpt lat="43.156680" lon="-5.920230">
        <ele>895.108</ele>
        <time>2020-05-23T09:46:10Z</time>
      </trkpt>
      <trkpt lat="43.156580" lon="-5.920260">
        <ele>894.648</ele>
        <time>2020-05-23T09:46:30Z</time>
      </trkpt>
      <trkpt lat="43.156570" lon="-5.920260">
        <ele>894.793</ele>
        <time>2020-05-23T09:46:50Z</time>
      </trkpt>
      <trkpt lat="43.156510" lon="-5.920270">
        <ele>894.610</ele>
        <time>2020-05-23T09:47:10Z</time>
      </trkpt>
      <trkpt lat="43.156450" lon="-5.920280">
        <ele>894.546</ele>
        <time>2020-05-23T09:47:30Z</time>
      </trkpt>
      <trkpt lat="43.156420" lon="-5.920290">
        <ele>894.255</ele>
        <time>2020-05-23T09:47:50Z</time>
      </trkpt>
      <trkpt lat="43.156390" lon="-5.920290">
        <ele>894.476</ele>
        <time>2020-05-23T09:48:10Z</time>
      </trkpt>
      <trkpt lat="43.156370" lon="-5.920290">
        <ele>894.685</ele>
        <time>2020-05-23T09:48:30Z</time>
      </trkpt>
      <trkpt lat="43.156340" lon="-5.920280">
        <ele>895.228</ele>
        <time>2020-05-23T09:48:50Z</time>
      </trkpt>
      <trkpt lat="43.156310" lon="-5.920280">
        <ele>895.517</ele>
        <time>2020-05-23T09:49:10Z</time>
      </trkpt>
      <trkpt lat="43.156260" lon="-5.920270">
        <ele>896.387</ele>
        <time>2020-05-23T09:49:30Z</time>
      </trkpt>
      <trkpt lat="43.156210" lon="-5.920260">
        <ele>897.215</ele>
        <time>2020-05-23T09:49:50Z</time>
      </trkpt>
      <trkpt lat="43.156040" lon="-5.920180">
        <ele>899.908</ele>
        <time>2020-05-23T09:50:10Z</time>
      </trkpt>
      <trkpt lat="43.156010" lon="-5.920170">
        <ele>899.875</ele>
        <time>2020-05-23T09:50:30Z</time>
      </trkpt>
      <trkpt lat="43.155920" lon="-5.920120">
        <ele>900.450</ele>
        <time>2020-05-23T09:50:50Z</time>
      </trkpt>
      <trkpt lat="43.155870" lon="-5.920100">
        <ele>900.357</ele>
        <time>2020-05-23T09:51:10Z</time>
      </trkpt>
      <trkpt lat="43.155830" lon="-5.920070">
        <ele>900.943</ele>
        <time>2020-05-23T09:51:30Z</time>
      </trkpt>
      <trkpt lat="43.155770" lon="-5.920040">
        <ele>901.722</ele>
        <time>2020-05-23T09:51:50Z</time>
      </trkpt>
      <trkpt lat="43.155730" lon="-5.920020">
        <ele>902.323</ele>
        <time>2020-05-23T09:52:10Z</time>
      </trkpt>
      <trkpt lat="43.155700" lon="-5.920010">
        <ele>902.582</ele>
        <time>2020-05-23T09:52:30Z</time>
      </trkpt>
      <trkpt lat="43.155700" lon="-5.920000">
        <ele>903.095</ele>
        <time>2020-05-23T09:52:50Z</time>
      </trkpt>
      <trkpt lat="43.155660" lon="-5.919990">
        <ele>903.275</ele>
        <time>2020-05-23T09:53:10Z</time>
      </trkpt>
      <trkpt lat="43.155630" lon="-5.919990">
        <ele>903.028</ele>
        <time>2020-05-23T09:53:30Z</time>
      </trkpt>
      <trkpt lat="43.155590" lon="-5.919980">
        <ele>903.220</ele>
        <time>2020-05-23T09:53:50Z</time>
      </trkpt>
      <trkpt lat="43.155560" lon="-5.919980">
        <ele>903.008</ele>
        <time>2020-05-23T09:54:10Z</time>
      </trkpt>
      <trkpt lat="43.155510" lon="-5.919980">
        <ele>903.441</ele>
        <time>2020-05-23T09:54:30Z</time>
      </trkpt>
      <trkpt lat="43.155470" lon="-5.919980">
        <ele>903.866</ele>
        <time>2020-05-23T09:54:50Z</time>
      </trkpt>
      <trkpt lat="43.155430" lon="-5.919990">
        <ele>903.893</ele>
        <time>2020-05-23T09:55:10Z</time>
      </trkpt>
      <trkpt lat="43.155410" lon="-5.920000">
        <ele>903.619</ele>
        <time>2020-05-23T09:55:30Z</time>
      </trkpt>
      <trkpt lat="43.155350" lon="-5.920020">
        <ele>903.318</ele>
        <time>2020-05-23T09:55:50Z</time>
      </trkpt>
      <trkpt lat="43.155180" lon="-5.920080">
        <ele>903.599</ele>
        <time>2020-05-23T09:56:10Z</time>
      </trkpt>
      <trkpt lat="43.155150" lon="-5.920090">
        <ele>903.638</ele>
        <time>2020-05-23T09:56:30Z</time>
      </trkpt>
      <trkpt lat="43.155080" lon="-5.920110">
        <ele>904.011</ele>
        <time>2020-05-23T09:56:50Z</time>
      </trkpt>
      <trkpt lat="43.155040" lon="-5.920120">
        <ele>904.298</ele>
        <time>2020-05-23T09:57:10Z</time>
      </trkpt>
      <trkpt lat="43.155000" lon="-5.920120">
        <ele>905.015</ele>
        <time>2020-05-23T09:57:30Z</time>
      </trkpt>
      <trkpt lat="43.154970" lon="-5.920120">
        <ele>904.926</ele>
        <time>2020-05-23T09:57:50Z</time>
      </trkpt>
      <trkpt lat="43.154930" lon="-5.920110">
        <ele>905.408</ele>
        <time>2020-05-23T09:58:10Z</time>
      </trkpt>
      <trkpt lat="43.154900" lon="-5.920110">
        <ele>905.333</ele>
        <time>2020-05-23T09:58:30Z</time>
      </trkpt>
      <trkpt lat="43.154870" lon="-5.920100">
        <ele>905.898</ele>
        <time>2020-05-23T09:58:50Z</time>
      </trkpt>
      <trkpt lat="43.154820" lon="-5.920080">
        <ele>906.835</ele>
        <time>2020-05-23T09:59:10Z</time>
      </trkpt>
      <trkpt lat="43.154490" lon="-5.919930">
        <ele>912.631</ele>
        <time>2020-05-23T09:59:30Z</time>
      </trkpt>
      <trkpt lat="43.154480" lon="-5.919920">
        <ele>913.040</ele>
        <time>2020-05-23T09:59:50Z</time>
      </trkpt>
      <trkpt lat="43.154420" lon="-5.919890">
        <ele>914.471</ele>
        <time>2020-05-23T10:00:10Z</time>
      </trkpt>
      <trkpt lat="43.154370" lon="-5.919870">
        <ele>915.780</ele>
        <time>2020-05-23T10:00:30Z</time>
      </trkpt>
      <trkpt lat="43.154330" lon="-5.919860">
        <ele>916.393</ele>
        <time>2020-05-23T10:00:50Z</time>
      </trkpt>
      <trkpt lat="43.154310" lon="-5.919850">
        <ele>916.823</ele>
        <time>2020-05-23T10:01:10Z</time>
      </trkpt>
      <trkpt lat="43.154290" lon="-5.919850">
        <ele>916.883</ele>
        <time>2020-05-23T10:01:30Z</time>
      </trkpt>
      <trkpt lat="43.154260" lon="-5.919840">
        <ele>917.311</ele>
        <time>2020-05-23T10:01:50Z</time>
      </trkpt>
      <trkpt lat="43.154220" lon="-5.919840">
        <ele>917.308</ele>
        <time>2020-05-23T10:02:10Z</time>
      </trkpt>
      <trkpt lat="43.154190" lon="-5.919840">
        <ele>917.366</ele>
        <time>2020-05-23T10:02:30Z</time>
      </trkpt>
      <trkpt lat="43.154160" lon="-5.919850">
        <ele>917.291</ele>
        <time>2020-05-23T10:02:50Z</time>
      </trkpt>
      <trkpt lat="43.154130" lon="-5.919860">
        <ele>917.948</ele>
        <time>2020-05-23T10:03:10Z</time>
      </trkpt>
      <trkpt lat="43.154120" lon="-5.919860">
        <ele>918.374</ele>
        <time>2020-05-23T10:03:30Z</time>
      </trkpt>
      <trkpt lat="43.154090" lon="-5.919870">
        <ele>919.033</ele>
        <time>2020-05-23T10:03:50Z</time>
      </trkpt>
      <trkpt lat="43.154070" lon="-5.919870">
        <ele>919.874</ele>
        <time>2020-05-23T10:04:10Z</time>
      </trkpt>
      <trkpt lat="43.154020" lon="-5.919900">
        <ele>920.333</ele>
        <time>2020-05-23T10:04:30Z</time>
      </trkpt>
      <trkpt lat="43.153970" lon="-5.919930">
        <ele>920.786</ele>
        <time>2020-05-23T10:04:50Z</time>
      </trkpt>
      <trkpt lat="43.153960" lon="-5.919940">
        <ele>920.624</ele>
        <time>2020-05-23T10:05:10Z</time>
      </trkpt>
      <trkpt lat="43.153810" lon="-5.920070">
        <ele>921.904</ele>
        <time>2020-05-23T10:05:30Z</time>
      </trkpt>
      <trkpt lat="43.153660" lon="-5.920200">
        <ele>923.514</ele>
        <time>2020-05-23T10:05:50Z</time>
      </trkpt>
      <trkpt lat="43.153510" lon="-5.920340">
        <ele>924.808</ele>
        <time>2020-05-23T10:06:10Z</time>
      </trkpt>
      <trkpt lat="43.153380" lon="-5.920450">
        <ele>927.896</ele>
        <time>2020-05-23T10:06:30Z</time>
      </trkpt>
      <trkpt lat="43.153360" lon="-5.920470">
        <ele>928.171</ele>
        <time>2020-05-23T10:06:50Z</time>
      </trkpt>
      <trkpt lat="43.153270" lon="-5.920530">
        <ele>929.058</ele>
        <time>2020-05-23T10:07:10Z</time>
      </trkpt>
      <trkpt lat="43.153200" lon="-5.920580">
        <ele>928.454</ele>
        <time>2020-05-23T10:07:30Z</time>
      </trkpt>
      <trkpt lat="43.153150" lon="-5.920610">
        <ele>928.013</ele>
        <time>2020-05-23T10:07:50Z</time>
      </trkpt>
      <trkpt lat="43.153100" lon="-5.920630">
        <ele>927.974</ele>
        <time>2020-05-23T10:08:10Z</time>
      </trkpt>
      <trkpt lat="43.153050" lon="-5.920640">
        <ele>928.173</ele>
        <time>2020-05-23T10:08:30Z</time>
      </trkpt>
      <trkpt lat="43.153020" lon="-5.920640">
        <ele>928.386</ele>
        <time>2020-05-23T10:08:50Z</time>
      </trkpt>
      <trkpt lat="43.153000" lon="-5.920640">
        <ele>928.459</ele>
        <time>2020-05-23T10:09:10Z</time>
      </trkpt>
      <trkpt lat="43.152960" lon="-5.920650">
        <ele>928.203</ele>
        <time>2020-05-23T10:09:30Z</time>
      </trkpt>
      <trkpt lat="43.152900" lon="-5.920640">
        <ele>929.023</ele>
        <time>2020-05-23T10:09:50Z</time>
      </trkpt>
      <trkpt lat="43.152840" lon="-5.920640">
        <ele>929.408</ele>
        <time>2020-05-23T10:10:10Z</time>
      </trkpt>
      <trkpt lat="43.152830" lon="-5.920640">
        <ele>929.469</ele>
        <time>2020-05-23T10:10:30Z</time>
      </trkpt>
      <trkpt lat="43.152790" lon="-5.920630">
        <ele>930.264</ele>
        <time>2020-05-23T10:10:50Z</time>
      </trkpt>
      <trkpt lat="43.152730" lon="-5.920620">
        <ele>930.861</ele>
        <time>2020-05-23T10:11:10Z</time>
      </trkpt>
      <trkpt lat="43.152680" lon="-5.920600">
        <ele>931.837</ele>
        <time>2020-05-23T10:11:30Z</time>
      </trkpt>
      <trkpt lat="43.152670" lon="-5.920600">
        <ele>931.836</ele>
        <time>2020-05-23T10:11:50Z</time>
      </trkpt>
      <trkpt lat="43.152630" lon="-5.920580">
        <ele>932.867</ele>
        <time>2020-05-23T10:12:10Z</time>
      </trkpt>
      <trkpt lat="43.152580" lon="-5.920550">
        <ele>934.236</ele>
        <time>2020-05-23T10:12:30Z</time>
      </trkpt>
      <trkpt lat="43.152520" lon="-5.920510">
        <ele>935.629</ele>
        <time>2020-05-23T10:12:50Z</time>
      </trkpt>
      <trkpt lat="43.152500" lon="-5.920500">
        <ele>935.844</ele>
        <time>2020-05-23T10:13:10Z</time>
      </trkpt>
      <trkpt lat="43.152480" lon="-5.920480">
        <ele>936.305</ele>
        <time>2020-05-23T10:13:30Z</time>
      </trkpt>
      <trkpt lat="43.152450" lon="-5.920450">
        <ele>937.015</ele>
        <time>2020-05-23T10:13:50Z</time>
      </trkpt>
      <trkpt lat="43.152410" lon="-5.920420">
        <ele>937.608</ele>
        <time>2020-05-23T10:14:10Z</time>
      </trkpt>
      <trkpt lat="43.152390" lon="-5.920390">
        <ele>938.378</ele>
        <time>2020-05-23T10:14:30Z</time>
      </trkpt>
      <trkpt lat="43.152360" lon="-5.920360">
        <ele>939.013</ele>
        <time>2020-05-23T10:14:50Z</time>
      </trkpt>
      <trkpt lat="43.152310" lon="-5.920300">
        <ele>940.370</ele>
        <time>2020-05-23T10:15:10Z</time>
      </trkpt>
      <trkpt lat="43.152270" lon="-5.920240">
        <ele>941.436</ele>
        <time>2020-05-23T10:15:30Z</time>
      </trkpt>
      <trkpt lat="43.152240" lon="-5.920190">
        <ele>941.785</ele>
        <time>2020-05-23T10:15:50Z</time>
      </trkpt>
      <trkpt lat="43.152230" lon="-5.920170">
        <ele>941.836</ele>
        <time>2020-05-23T10:16:10Z</time>
      </trkpt>
      <trkpt lat="43.152220" lon="-5.920140">
        <ele>941.985</ele>
        <time>2020-05-23T10:16:30Z</time>
      </trkpt>
      <trkpt lat="43.152190" lon="-5.920100">
        <ele>941.388</ele>
        <time>2020-05-23T10:16:50Z</time>
      </trkpt>
      <trkpt lat="43.152170" lon="-5.920050">
        <ele>941.415</ele>
        <time>2020-05-23T10:17:10Z</time>
      </trkpt>
      <trkpt lat="43.152150" lon="-5.920000">
        <ele>941.765</ele>
        <time>2020-05-23T10:17:30Z</time>
      </trkpt>
      <trkpt lat="43.152140" lon="-5.919960">
        <ele>942.511</ele>
        <time>2020-05-23T10:17:50Z</time>
      </trkpt>
      <trkpt lat="43.152130" lon="-5.919920">
        <ele>943.308</ele>
        <time>2020-05-23T10:18:10Z</time>
      </trkpt>
      <trkpt lat="43.152110" lon="-5.919850">
        <ele>944.635</ele>
        <time>2020-05-23T10:18:30Z</time>
      </trkpt>
      <trkpt lat="43.152090" lon="-5.919790">
        <ele>945.470</ele>
        <time>2020-05-23T10:18:50Z</time>
      </trkpt>
      <trkpt lat="43.152080" lon="-5.919740">
        <ele>946.427</ele>
        <time>2020-05-23T10:19:10Z</time>
      </trkpt>
      <trkpt lat="43.152070" lon="-5.919730">
        <ele>946.243</ele>
        <time>2020-05-23T10:19:30Z</time>
      </trkpt>
      <trkpt lat="43.152060" lon="-5.919690">
        <ele>946.882</ele>
        <time>2020-05-23T10:19:50Z</time>
      </trkpt>
      <trkpt lat="43.152040" lon="-5.919570">
        <ele>948.563</ele>
        <time>2020-05-23T10:20:10Z</time>
      </trkpt>
      <trkpt lat="43.152030" lon="-5.919500">
        <ele>949.352</ele>
        <time>2020-05-23T10:20:30Z</time>
      </trkpt>
      <trkpt lat="43.151960" lon="-5.919010">
        <ele>952.545</ele>
        <time>2020-05-23T10:20:50Z</time>
      </trkpt>
      <trkpt lat="43.151920" lon="-5.918770">
        <ele>954.121</ele>
        <time>2020-05-23T10:21:10Z</time>
      </trkpt>
      <trkpt lat="43.151880" lon="-5.918490">
        <ele>956.241</ele>
        <time>2020-05-23T10:21:30Z</time>
      </trkpt>
      <trkpt lat="43.151860" lon="-5.918290">
        <ele>958.905</ele>
        <time>2020-05-23T10:21:50Z</time>
      </trkpt>
      <trkpt lat="43.151850" lon="-5.918220">
        <ele>959.508</ele>
        <time>2020-05-23T10:22:10Z</time>
      </trkpt>
      <trkpt lat="43.151830" lon="-5.918060">
        <ele>960.996</ele>
        <time>2020-05-23T10:22:30Z</time>
      </trkpt>
      <trkpt lat="43.151820" lon="-5.918040">
        <ele>960.751</ele>
        <time>2020-05-23T10:22:50Z</time>
      </trkpt>
      <trkpt lat="43.151800" lon="-5.917940">
        <ele>961.368</ele>
        <time>2020-05-23T10:23:10Z</time>
      </trkpt>
      <trkpt lat="43.151770" lon="-5.917770">
        <ele>963.034</ele>
        <time>2020-05-23T10:23:30Z</time>
      </trkpt>
      <trkpt lat="43.151730" lon="-5.917620">
        <ele>964.433</ele>
        <time>2020-05-23T10:23:50Z</time>
      </trkpt>
      <trkpt lat="43.151720" lon="-5.917570">
        <ele>965.064</ele>
        <time>2020-05-23T10:24:10Z</time>
      </trkpt>
      <trkpt lat="43.151710" lon="-5.917530">
        <ele>965.483</ele>
        <time>2020-05-23T10:24:30Z</time>
      </trkpt>
      <trkpt lat="43.151670" lon="-5.917420">
        <ele>966.266</ele>
        <time>2020-05-23T10:24:50Z</time>
      </trkpt>
      <trkpt lat="43.151640" lon="-5.917350">
        <ele>966.545</ele>
        <time>2020-05-23T10:25:10Z</time>
      </trkpt>
      <trkpt lat="43.151630" lon="-5.917320">
        <ele>966.847</ele>
        <time>2020-05-23T10:25:30Z</time>
      </trkpt>
      <trkpt lat="43.151600" lon="-5.917250">
        <ele>967.311</ele>
        <time>2020-05-23T10:25:50Z</time>
      </trkpt>
      <trkpt lat="43.151560" lon="-5.917180">
        <ele>967.508</ele>
        <time>2020-05-23T10:26:10Z</time>
      </trkpt>
      <trkpt lat="43.151540" lon="-5.917140">
        <ele>967.738</ele>
        <time>2020-05-23T10:26:30Z</time>
      </trkpt>
      <trkpt lat="43.151530" lon="-5.917120">
        <ele>967.863</ele>
        <time>2020-05-23T10:26:50Z</time>
      </trkpt>
      <trkpt lat="43.151510" lon="-5.917090">
        <ele>967.930</ele>
        <time>2020-05-23T10:27:10Z</time>
      </trkpt>
      <trkpt lat="43.151450" lon="-5.917000">
        <ele>968.316</ele>
        <time>2020-05-23T10:27:30Z</time>
      </trkpt>
      <trkpt lat="43.151420" lon="-5.916960">
        <ele>968.565</ele>
        <time>2020-05-23T10:27:50Z</time>
      </trkpt>
      <trkpt lat="43.151400" lon="-5.916930">
        <ele>968.636</ele>
        <time>2020-05-23T10:28:10Z</time>
      </trkpt>
      <trkpt lat="43.151380" lon="-5.916890">
        <ele>968.895</ele>
        <time>2020-05-23T10:28:30Z</time>
      </trkpt>
      <trkpt lat="43.151340" lon="-5.916840">
        <ele>969.788</ele>
        <time>2020-05-23T10:28:50Z</time>
      </trkpt>
      <trkpt lat="43.151290" lon="-5.916790">
        <ele>970.833</ele>
        <time>2020-05-23T10:29:10Z</time>
      </trkpt>
      <trkpt lat="43.151280" lon="-5.916780">
        <ele>971.123</ele>
        <time>2020-05-23T10:29:30Z</time>
      </trkpt>
      <trkpt lat="43.151230" lon="-5.916730">
        <ele>972.415</ele>
        <time>2020-05-23T10:29:50Z</time>
      </trkpt>
      <trkpt lat="43.151170" lon="-5.916680">
        <ele>974.108</ele>
        <time>2020-05-23T10:30:10Z</time>
      </trkpt>
      <trkpt lat="43.151140" lon="-5.916660">
        <ele>974.917</ele>
        <time>2020-05-23T10:30:30Z</time>
      </trkpt>
      <trkpt lat="43.151070" lon="-5.916600">
        <ele>977.012</ele>
        <time>2020-05-23T10:30:50Z</time>
      </trkpt>
      <trkpt lat="43.150970" lon="-5.916540">
        <ele>979.019</ele>
        <time>2020-05-23T10:31:10Z</time>
      </trkpt>
      <trkpt lat="43.150870" lon="-5.916480">
        <ele>980.695</ele>
        <time>2020-05-23T10:31:30Z</time>
      </trkpt>
      <trkpt lat="43.150820" lon="-5.916450">
        <ele>981.174</ele>
        <time>2020-05-23T10:31:50Z</time>
      </trkpt>
      <trkpt lat="43.150760" lon="-5.916420">
        <ele>981.615</ele>
        <time>2020-05-23T10:32:10Z</time>
      </trkpt>
      <trkpt lat="43.150720" lon="-5.916400">
        <ele>981.894</ele>
        <time>2020-05-23T10:32:30Z</time>
      </trkpt>
      <trkpt lat="43.150650" lon="-5.916370">
        <ele>982.877</ele>
        <time>2020-05-23T10:32:50Z</time>
      </trkpt>
      <trkpt lat="43.150620" lon="-5.916360">
        <ele>983.193</ele>
        <time>2020-05-23T10:33:10Z</time>
      </trkpt>
      <trkpt lat="43.150520" lon="-5.916330">
        <ele>983.865</ele>
        <time>2020-05-23T10:33:30Z</time>
      </trkpt>
      <trkpt lat="43.150470" lon="-5.916310">
        <ele>984.121</ele>
        <time>2020-05-23T10:33:50Z</time>
      </trkpt>
      <trkpt lat="43.150420" lon="-5.916300">
        <ele>984.108</ele>
        <time>2020-05-23T10:34:10Z</time>
      </trkpt>
      <trkpt lat="43.150370" lon="-5.916290">
        <ele>984.023</ele>
        <time>2020-05-23T10:34:30Z</time>
      </trkpt>
      <trkpt lat="43.150310" lon="-5.916270">
        <ele>984.018</ele>
        <time>2020-05-23T10:34:50Z</time>
      </trkpt>
      <trkpt lat="43.150290" lon="-5.916270">
        <ele>983.885</ele>
        <time>2020-05-23T10:35:10Z</time>
      </trkpt>
      <trkpt lat="43.150260" lon="-5.916270">
        <ele>983.991</ele>
        <time>2020-05-23T10:35:30Z</time>
      </trkpt>
      <trkpt lat="43.150170" lon="-5.916260">
        <ele>985.060</ele>
        <time>2020-05-23T10:35:50Z</time>
      </trkpt>
      <trkpt lat="43.150120" lon="-5.916250">
        <ele>985.751</ele>
        <time>2020-05-23T10:36:10Z</time>
      </trkpt>
      <trkpt lat="43.150060" lon="-5.916250">
        <ele>986.460</ele>
        <time>2020-05-23T10:36:30Z</time>
      </trkpt>
      <trkpt lat="43.150020" lon="-5.916240">
        <ele>986.943</ele>
        <time>2020-05-23T10:36:50Z</time>
      </trkpt>
      <trkpt lat="43.149970" lon="-5.916240">
        <ele>988.163</ele>
        <time>2020-05-23T10:37:10Z</time>
      </trkpt>
      <trkpt lat="43.149940" lon="-5.916250">
        <ele>988.844</ele>
        <time>2020-05-23T10:37:30Z</time>
      </trkpt>
      <trkpt lat="43.149920" lon="-5.916250">
        <ele>989.418</ele>
        <time>2020-05-23T10:37:50Z</time>
      </trkpt>
      <trkpt lat="43.149810" lon="-5.916270">
        <ele>992.308</ele>
        <time>2020-05-23T10:38:10Z</time>
      </trkpt>
      <trkpt lat="43.149760" lon="-5.916290">
        <ele>993.180</ele>
        <time>2020-05-23T10:38:30Z</time>
      </trkpt>
      <trkpt lat="43.149740" lon="-5.916300">
        <ele>993.475</ele>
        <time>2020-05-23T10:38:50Z</time>
      </trkpt>
      <trkpt lat="43.149660" lon="-5.916340">
        <ele>995.242</ele>
        <time>2020-05-23T10:39:10Z</time>
      </trkpt>
      <trkpt lat="43.149620" lon="-5.916370">
        <ele>995.818</ele>
        <time>2020-05-23T10:39:30Z</time>
      </trkpt>
      <trkpt lat="43.149600" lon="-5.916390">
        <ele>995.817</ele>
        <time>2020-05-23T10:39:50Z</time>
      </trkpt>
      <trkpt lat="43.149570" lon="-5.916410">
        <ele>996.338</ele>
        <time>2020-05-23T10:40:10Z</time>
      </trkpt>
      <trkpt lat="43.149540" lon="-5.916440">
        <ele>996.467</ele>
        <time>2020-05-23T10:40:30Z</time>
      </trkpt>
      <trkpt lat="43.149500" lon="-5.916480">
        <ele>996.780</ele>
        <time>2020-05-23T10:40:50Z</time>
      </trkpt>
      <trkpt lat="43.149460" lon="-5.916510">
        <ele>997.483</ele>
        <time>2020-05-23T10:41:10Z</time>
      </trkpt>
      <trkpt lat="43.149450" lon="-5.916530">
        <ele>997.225</ele>
        <time>2020-05-23T10:41:30Z</time>
      </trkpt>
      <trkpt lat="43.149430" lon="-5.916560">
        <ele>997.317</ele>
        <time>2020-05-23T10:41:50Z</time>
      </trkpt>
      <trkpt lat="43.149390" lon="-5.916600">
        <ele>998.308</ele>
        <time>2020-05-23T10:42:10Z</time>
      </trkpt>
      <trkpt lat="43.149360" lon="-5.916640">
        <ele>998.712</ele>
        <time>2020-05-23T10:42:30Z</time>
      </trkpt>
      <trkpt lat="43.149330" lon="-5.916680">
        <ele>999.327</ele>
        <time>2020-05-23T10:42:50Z</time>
      </trkpt>
      <trkpt lat="43.149290" lon="-5.916750">
        <ele>1000.124</ele>
        <time>2020-05-23T10:43:10Z</time>
      </trkpt>
      <trkpt lat="43.149240" lon="-5.916860">
        <ele>1000.650</ele>
        <time>2020-05-23T10:43:30Z</time>
      </trkpt>
      <trkpt lat="43.149210" lon="-5.916900">
        <ele>1001.589</ele>
        <time>2020-05-23T10:43:50Z</time>
      </trkpt>
      <trkpt lat="43.149110" lon="-5.917100">
        <ele>1005.220</ele>
        <time>2020-05-23T10:44:10Z</time>
      </trkpt>
      <trkpt lat="43.149030" lon="-5.917320">
        <ele>1006.479</ele>
        <time>2020-05-23T10:44:30Z</time>
      </trkpt>
      <trkpt lat="43.148970" lon="-5.917480">
        <ele>1006.382</ele>
        <time>2020-05-23T10:44:50Z</time>
      </trkpt>
      <trkpt lat="43.148940" lon="-5.917540">
        <ele>1006.923</ele>
        <time>2020-05-23T10:45:10Z</time>
      </trkpt>
      <trkpt lat="43.148790" lon="-5.917990">
        <ele>1009.983</ele>
        <time>2020-05-23T10:45:30Z</time>
      </trkpt>
      <trkpt lat="43.148770" lon="-5.918070">
        <ele>1010.311</ele>
        <time>2020-05-23T10:45:50Z</time>
      </trkpt>
      <trkpt lat="43.148720" lon="-5.918220">
        <ele>1013.708</ele>
        <time>2020-05-23T10:46:10Z</time>
      </trkpt>
      <trkpt lat="43.148700" lon="-5.918290">
        <ele>1014.816</ele>
        <time>2020-05-23T10:46:30Z</time>
      </trkpt>
      <trkpt lat="43.148670" lon="-5.918360">
        <ele>1015.951</ele>
        <time>2020-05-23T10:46:50Z</time>
      </trkpt>
      <trkpt lat="43.148640" lon="-5.918430">
        <ele>1016.468</ele>
        <time>2020-05-23T10:47:10Z</time>
      </trkpt>
      <trkpt lat="43.148640" lon="-5.918440">
        <ele>1016.244</ele>
        <time>2020-05-23T10:47:30Z</time>
      </trkpt>
      <trkpt lat="43.148610" lon="-5.918490">
        <ele>1016.893</ele>
        <time>2020-05-23T10:47:50Z</time>
      </trkpt>
      <trkpt lat="43.148570" lon="-5.918540">
        <ele>1017.194</ele>
        <time>2020-05-23T10:48:10Z</time>
      </trkpt>
      <trkpt lat="43.148520" lon="-5.918590">
        <ele>1017.143</ele>
        <time>2020-05-23T10:48:30Z</time>
      </trkpt>
      <trkpt lat="43.148510" lon="-5.918600">
        <ele>1017.186</ele>
        <time>2020-05-23T10:48:50Z</time>
      </trkpt>
      <trkpt lat="43.148480" lon="-5.918630">
        <ele>1017.029</ele>
        <time>2020-05-23T10:49:10Z</time>
      </trkpt>
      <trkpt lat="43.148410" lon="-5.918680">
        <ele>1017.500</ele>
        <time>2020-05-23T10:49:30Z</time>
      </trkpt>
      <trkpt lat="43.148350" lon="-5.918700">
        <ele>1018.420</ele>
        <time>2020-05-23T10:49:50Z</time>
      </trkpt>
      <trkpt lat="43.148300" lon="-5.918710">
        <ele>1018.708</ele>
        <time>2020-05-23T10:50:10Z</time>
      </trkpt>
      <trkpt lat="43.148250" lon="-5.918710">
        <ele>1019.036</ele>
        <time>2020-05-23T10:50:30Z</time>
      </trkpt>
      <trkpt lat="43.148210" lon="-5.918710">
        <ele>1019.121</ele>
        <time>2020-05-23T10:50:50Z</time>
      </trkpt>
      <trkpt lat="43.148180" lon="-5.918700">
        <ele>1019.518</ele>
        <time>2020-05-23T10:51:10Z</time>
      </trkpt>
      <trkpt lat="43.148140" lon="-5.918690">
        <ele>1019.984</ele>
        <time>2020-05-23T10:51:30Z</time>
      </trkpt>
      <trkpt lat="43.148100" lon="-5.918670">
        <ele>1020.563</ele>
        <time>2020-05-23T10:51:50Z</time>
      </trkpt>
      <trkpt lat="43.148060" lon="-5.918640">
        <ele>1021.374</ele>
        <time>2020-05-23T10:52:10Z</time>
      </trkpt>
      <trkpt lat="43.148020" lon="-5.918620">
        <ele>1021.353</ele>
        <time>2020-05-23T10:52:30Z</time>
      </trkpt>
      <trkpt lat="43.147970" lon="-5.918570">
        <ele>1022.246</ele>
        <time>2020-05-23T10:52:50Z</time>
      </trkpt>
      <trkpt lat="43.147930" lon="-5.918530">
        <ele>1022.835</ele>
        <time>2020-05-23T10:53:10Z</time>
      </trkpt>
      <trkpt lat="43.147890" lon="-5.918470">
        <ele>1024.186</ele>
        <time>2020-05-23T10:53:30Z</time>
      </trkpt>
      <trkpt lat="43.147840" lon="-5.918400">
        <ele>1025.314</ele>
        <time>2020-05-23T10:53:50Z</time>
      </trkpt>
      <trkpt lat="43.147720" lon="-5.918170">
        <ele>1027.508</ele>
        <time>2020-05-23T10:54:10Z</time>
      </trkpt>
      <trkpt lat="43.147700" lon="-5.918120">
        <ele>1028.027</ele>
        <time>2020-05-23T10:54:30Z</time>
      </trkpt>
      <trkpt lat="43.147680" lon="-5.918040">
        <ele>1029.282</ele>
        <time>2020-05-23T10:54:50Z</time>
      </trkpt>
      <trkpt lat="43.147670" lon="-5.918030">
        <ele>1029.259</ele>
        <time>2020-05-23T10:55:10Z</time>
      </trkpt>
      <trkpt lat="43.147660" lon="-5.917950">
        <ele>1030.935</ele>
        <time>2020-05-23T10:55:30Z</time>
      </trkpt>
      <trkpt lat="43.147630" lon="-5.917860">
        <ele>1032.144</ele>
        <time>2020-05-23T10:55:50Z</time>
      </trkpt>
      <trkpt lat="43.147610" lon="-5.917740">
        <ele>1034.115</ele>
        <time>2020-05-23T10:56:10Z</time>
      </trkpt>
      <trkpt lat="43.147610" lon="-5.917680">
        <ele>1035.274</ele>
        <time>2020-05-23T10:56:30Z</time>
      </trkpt>
      <trkpt lat="43.147590" lon="-5.917530">
        <ele>1037.017</ele>
        <time>2020-05-23T10:56:50Z</time>
      </trkpt>
      <trkpt lat="43.147510" lon="-5.916840">
        <ele>1041.243</ele>
        <time>2020-05-23T10:57:10Z</time>
      </trkpt>
      <trkpt lat="43.147440" lon="-5.916010">
        <ele>1048.964</ele>
        <time>2020-05-23T10:57:30Z</time>
      </trkpt>
      <trkpt lat="43.147420" lon="-5.915870">
        <ele>1050.210</ele>
        <time>2020-05-23T10:57:50Z</time>
      </trkpt>
      <trkpt lat="43.147410" lon="-5.915790">
        <ele>1051.208</ele>
        <time>2020-05-23T10:58:10Z</time>
      </trkpt>
      <trkpt lat="43.147400" lon="-5.915740">
        <ele>1051.748</ele>
        <time>2020-05-23T10:58:30Z</time>
      </trkpt>
      <trkpt lat="43.147380" lon="-5.915680">
        <ele>1051.923</ele>
        <time>2020-05-23T10:58:50Z</time>
      </trkpt>
      <trkpt lat="43.147370" lon="-5.915640">
        <ele>1052.460</ele>
        <time>2020-05-23T10:59:10Z</time>
      </trkpt>
      <trkpt lat="43.147350" lon="-5.915600">
        <ele>1052.356</ele>
        <time>2020-05-23T10:59:30Z</time>
      </trkpt>
      <trkpt lat="43.147310" lon="-5.915540">
        <ele>1051.915</ele>
        <time>2020-05-23T10:59:50Z</time>
      </trkpt>
      <trkpt lat="43.147280" lon="-5.915500">
        <ele>1051.616</ele>
        <time>2020-05-23T11:00:10Z</time>
      </trkpt>
      <trkpt lat="43.147260" lon="-5.915470">
        <ele>1051.525</ele>
        <time>2020-05-23T11:00:30Z</time>
      </trkpt>
      <trkpt lat="43.147240" lon="-5.915440">
        <ele>1051.688</ele>
        <time>2020-05-23T11:00:50Z</time>
      </trkpt>
      <trkpt lat="43.147210" lon="-5.915410">
        <ele>1051.782</ele>
        <time>2020-05-23T11:01:10Z</time>
      </trkpt>
      <trkpt lat="43.147180" lon="-5.915390">
        <ele>1052.443</ele>
        <time>2020-05-23T11:01:30Z</time>
      </trkpt>
      <trkpt lat="43.147160" lon="-5.915380">
        <ele>1052.817</ele>
        <time>2020-05-23T11:01:50Z</time>
      </trkpt>
      <trkpt lat="43.147130" lon="-5.915370">
        <ele>1053.208</ele>
        <time>2020-05-23T11:02:10Z</time>
      </trkpt>
      <trkpt lat="43.147090" lon="-5.915360">
        <ele>1053.732</ele>
        <time>2020-05-23T11:02:30Z</time>
      </trkpt>
      <trkpt lat="43.147050" lon="-5.915350">
        <ele>1054.347</ele>
        <time>2020-05-23T11:02:50Z</time>
      </trkpt>
      <trkpt lat="43.147010" lon="-5.915340">
        <ele>1054.844</ele>
        <time>2020-05-23T11:03:10Z</time>
      </trkpt>
      <trkpt lat="43.146770" lon="-5.915340">
        <ele>1058.020</ele>
        <time>2020-05-23T11:03:30Z</time>
      </trkpt>
      <trkpt lat="43.146010" lon="-5.915340">
        <ele>1065.619</ele>
        <time>2020-05-23T11:03:50Z</time>
      </trkpt>
      <trkpt lat="43.145750" lon="-5.915330">
        <ele>1068.690</ele>
        <time>2020-05-23T11:04:10Z</time>
      </trkpt>
      <trkpt lat="43.145680" lon="-5.915330">
        <ele>1069.629</ele>
        <time>2020-05-23T11:04:30Z</time>
      </trkpt>
      <trkpt lat="43.145610" lon="-5.915320">
        <ele>1071.012</ele>
        <time>2020-05-23T11:04:50Z</time>
      </trkpt>
      <trkpt lat="43.145590" lon="-5.915320">
        <ele>1071.397</ele>
        <time>2020-05-23T11:05:10Z</time>
      </trkpt>
      <trkpt lat="43.145530" lon="-5.915300">
        <ele>1072.523</ele>
        <time>2020-05-23T11:05:30Z</time>
      </trkpt>
      <trkpt lat="43.145440" lon="-5.915280">
        <ele>1073.825</ele>
        <time>2020-05-23T11:05:50Z</time>
      </trkpt>
      <trkpt lat="43.145000" lon="-5.915180">
        <ele>1078.608</ele>
        <time>2020-05-23T11:06:10Z</time>
      </trkpt>
      <trkpt lat="43.144900" lon="-5.915160">
        <ele>1079.273</ele>
        <time>2020-05-23T11:06:30Z</time>
      </trkpt>
      <trkpt lat="43.144600" lon="-5.915090">
        <ele>1082.198</ele>
        <time>2020-05-23T11:06:50Z</time>
      </trkpt>
      <trkpt lat="43.144280" lon="-5.915010">
        <ele>1085.545</ele>
        <time>2020-05-23T11:07:10Z</time>
      </trkpt>
      <trkpt lat="43.144220" lon="-5.914990">
        <ele>1086.231</ele>
        <time>2020-05-23T11:07:30Z</time>
      </trkpt>
      <trkpt lat="43.144170" lon="-5.914960">
        <ele>1087.680</ele>
        <time>2020-05-23T11:07:50Z</time>
      </trkpt>
      <trkpt lat="43.144130" lon="-5.914940">
        <ele>1088.541</ele>
        <time>2020-05-23T11:08:10Z</time>
      </trkpt>
      <trkpt lat="43.144090" lon="-5.914910">
        <ele>1089.440</ele>
        <time>2020-05-23T11:08:30Z</time>
      </trkpt>
      <trkpt lat="43.144040" lon="-5.914860">
        <ele>1090.493</ele>
        <time>2020-05-23T11:08:50Z</time>
      </trkpt>
      <trkpt lat="43.144010" lon="-5.914820">
        <ele>1090.883</ele>
        <time>2020-05-23T11:09:10Z</time>
      </trkpt>
      <trkpt lat="43.143980" lon="-5.914780">
        <ele>1090.925</ele>
        <time>2020-05-23T11:09:30Z</time>
      </trkpt>
      <trkpt lat="43.143940" lon="-5.914720">
        <ele>1090.517</ele>
        <time>2020-05-23T11:09:50Z</time>
      </trkpt>
      <trkpt lat="43.143920" lon="-5.914680">
        <ele>1090.808</ele>
        <time>2020-05-23T11:10:10Z</time>
      </trkpt>
      <trkpt lat="43.143920" lon="-5.914670">
        <ele>1091.072</ele>
        <time>2020-05-23T11:10:30Z</time>
      </trkpt>
      <trkpt lat="43.143900" lon="-5.914630">
        <ele>1091.187</ele>
        <time>2020-05-23T11:10:50Z</time>
      </trkpt>
      <trkpt lat="43.143890" lon="-5.914590">
        <ele>1091.494</ele>
        <time>2020-05-23T11:11:10Z</time>
      </trkpt>
      <trkpt lat="43.143880" lon="-5.914540">
        <ele>1092.120</ele>
        <time>2020-05-23T11:11:30Z</time>
      </trkpt>
      <trkpt lat="43.143870" lon="-5.914500">
        <ele>1092.419</ele>
        <time>2020-05-23T11:11:50Z</time>
      </trkpt>
      <trkpt lat="43.143860" lon="-5.914450">
        <ele>1092.990</ele>
        <time>2020-05-23T11:12:10Z</time>
      </trkpt>
      <trkpt lat="43.143860" lon="-5.914410">
        <ele>1093.129</ele>
        <time>2020-05-23T11:12:30Z</time>
      </trkpt>
      <trkpt lat="43.143850" lon="-5.914360">
        <ele>1093.022</ele>
        <time>2020-05-23T11:12:50Z</time>
      </trkpt>
      <trkpt lat="43.143850" lon="-5.914300">
        <ele>1093.388</ele>
        <time>2020-05-23T11:13:10Z</time>
      </trkpt>
      <trkpt lat="43.143850" lon="-5.914250">
        <ele>1093.524</ele>
        <time>2020-05-23T11:13:30Z</time>
      </trkpt>
      <trkpt lat="43.143860" lon="-5.914180">
        <ele>1094.426</ele>
        <time>2020-05-23T11:13:50Z</time>
      </trkpt>
      <trkpt lat="43.143870" lon="-5.914120">
        <ele>1094.508</ele>
        <time>2020-05-23T11:14:10Z</time>
      </trkpt>
      <trkpt lat="43.143880" lon="-5.914080">
        <ele>1094.682</ele>
        <time>2020-05-23T11:14:30Z</time>
      </trkpt>
      <trkpt lat="43.143890" lon="-5.914040">
        <ele>1094.797</ele>
        <time>2020-05-23T11:14:50Z</time>
      </trkpt>
      <trkpt lat="43.143900" lon="-5.913980">
        <ele>1094.684</ele>
        <time>2020-05-23T11:15:10Z</time>
      </trkpt>
      <trkpt lat="43.143930" lon="-5.913920">
        <ele>1095.480</ele>
        <time>2020-05-23T11:15:30Z</time>
      </trkpt>
      <trkpt lat="43.143980" lon="-5.913850">
        <ele>1096.829</ele>
        <time>2020-05-23T11:15:50Z</time>
      </trkpt>
      <trkpt lat="43.144000" lon="-5.913810">
        <ele>1096.920</ele>
        <time>2020-05-23T11:16:10Z</time>
      </trkpt>
      <trkpt lat="43.144040" lon="-5.913770">
        <ele>1097.759</ele>
        <time>2020-05-23T11:16:30Z</time>
      </trkpt>
      <trkpt lat="43.144080" lon="-5.913720">
        <ele>1098.182</ele>
        <time>2020-05-23T11:16:50Z</time>
      </trkpt>
      <trkpt lat="43.144130" lon="-5.913680">
        <ele>1098.981</ele>
        <time>2020-05-23T11:17:10Z</time>
      </trkpt>
      <trkpt lat="43.144290" lon="-5.913560">
        <ele>1101.161</ele>
        <time>2020-05-23T11:17:30Z</time>
      </trkpt>
      <trkpt lat="43.144420" lon="-5.913490">
        <ele>1103.717</ele>
        <time>2020-05-23T11:17:50Z</time>
      </trkpt>
      <trkpt lat="43.144510" lon="-5.913440">
        <ele>1104.708</ele>
        <time>2020-05-23T11:18:10Z</time>
      </trkpt>
      <trkpt lat="43.144550" lon="-5.913410">
        <ele>1104.682</ele>
        <time>2020-05-23T11:18:30Z</time>
      </trkpt>
      <trkpt lat="43.144670" lon="-5.913330">
        <ele>1104.687</ele>
        <time>2020-05-23T11:18:50Z</time>
      </trkpt>
      <trkpt lat="43.144690" lon="-5.913320">
        <ele>1104.764</ele>
        <time>2020-05-23T11:19:10Z</time>
      </trkpt>
      <trkpt lat="43.144780" lon="-5.913260">
        <ele>1105.260</ele>
        <time>2020-05-23T11:19:30Z</time>
      </trkpt>
      <trkpt lat="43.144830" lon="-5.913210">
        <ele>1105.289</ele>
        <time>2020-05-23T11:19:50Z</time>
      </trkpt>
      <trkpt lat="43.144870" lon="-5.913170">
        <ele>1105.320</ele>
        <time>2020-05-23T11:20:10Z</time>
      </trkpt>
      <trkpt lat="43.144910" lon="-5.913130">
        <ele>1105.659</ele>
        <time>2020-05-23T11:20:30Z</time>
      </trkpt>
      <trkpt lat="43.144960" lon="-5.913070">
        <ele>1105.872</ele>
        <time>2020-05-23T11:20:50Z</time>
      </trkpt>
      <trkpt lat="43.145010" lon="-5.913010">
        <ele>1106.729</ele>
        <time>2020-05-23T11:21:10Z</time>
      </trkpt>
      <trkpt lat="43.145040" lon="-5.912970">
        <ele>1107.600</ele>
        <time>2020-05-23T11:21:30Z</time>
      </trkpt>
      <trkpt lat="43.145070" lon="-5.912930">
        <ele>1108.520</ele>
        <time>2020-05-23T11:21:50Z</time>
      </trkpt>
      <trkpt lat="43.145090" lon="-5.912890">
        <ele>1108.908</ele>
        <time>2020-05-23T11:22:10Z</time>
      </trkpt>
      <trkpt lat="43.145130" lon="-5.912830">
        <ele>1110.396</ele>
        <time>2020-05-23T11:22:30Z</time>
      </trkpt>
      <trkpt lat="43.145190" lon="-5.912720">
        <ele>1112.271</ele>
        <time>2020-05-23T11:22:50Z</time>
      </trkpt>
      <trkpt lat="43.145210" lon="-5.912670">
        <ele>1112.768</ele>
        <time>2020-05-23T11:23:10Z</time>
      </trkpt>
      <trkpt lat="43.145240" lon="-5.912630">
        <ele>1113.844</ele>
        <time>2020-05-23T11:23:30Z</time>
      </trkpt>
      <trkpt lat="43.145260" lon="-5.912590">
        <ele>1114.493</ele>
        <time>2020-05-23T11:23:50Z</time>
      </trkpt>
      <trkpt lat="43.145320" lon="-5.912460">
        <ele>1117.054</ele>
        <time>2020-05-23T11:24:10Z</time>
      </trkpt>
      <trkpt lat="43.145400" lon="-5.912290">
        <ele>1120.683</ele>
        <time>2020-05-23T11:24:30Z</time>
      </trkpt>
      <trkpt lat="43.145440" lon="-5.912180">
        <ele>1120.966</ele>
        <time>2020-05-23T11:24:50Z</time>
      </trkpt>
      <trkpt lat="43.145470" lon="-5.912120">
        <ele>1121.162</ele>
        <time>2020-05-23T11:25:10Z</time>
      </trkpt>
      <trkpt lat="43.145540" lon="-5.911950">
        <ele>1120.583</ele>
        <time>2020-05-23T11:25:30Z</time>
      </trkpt>
      <trkpt lat="43.145610" lon="-5.911760">
        <ele>1122.611</ele>
        <time>2020-05-23T11:25:50Z</time>
      </trkpt>
      <trkpt lat="43.145650" lon="-5.911610">
        <ele>1123.008</ele>
        <time>2020-05-23T11:26:10Z</time>
      </trkpt>
      <trkpt lat="43.145680" lon="-5.911490">
        <ele>1122.920</ele>
        <time>2020-05-23T11:26:30Z</time>
      </trkpt>
      <trkpt lat="43.145700" lon="-5.911430">
        <ele>1123.065</ele>
        <time>2020-05-23T11:26:50Z</time>
      </trkpt>
      <trkpt lat="43.145710" lon="-5.911380">
        <ele>1122.852</ele>
        <time>2020-05-23T11:27:10Z</time>
      </trkpt>
      <trkpt lat="43.145720" lon="-5.911310">
        <ele>1123.688</ele>
        <time>2020-05-23T11:27:30Z</time>
      </trkpt>
      <trkpt lat="43.145740" lon="-5.911210">
        <ele>1125.217</ele>
        <time>2020-05-23T11:27:50Z</time>
      </trkpt>
      <trkpt lat="43.145750" lon="-5.911130">
        <ele>1126.118</ele>
        <time>2020-05-23T11:28:10Z</time>
      </trkpt>
      <trkpt lat="43.145760" lon="-5.911080">
        <ele>1127.037</ele>
        <time>2020-05-23T11:28:30Z</time>
      </trkpt>
      <trkpt lat="43.145770" lon="-5.910950">
        <ele>1128.630</ele>
        <time>2020-05-23T11:28:50Z</time>
      </trkpt>
      <trkpt lat="43.145770" lon="-5.910840">
        <ele>1129.518</ele>
        <time>2020-05-23T11:29:10Z</time>
      </trkpt>
      <trkpt lat="43.145770" lon="-5.910540">
        <ele>1134.298</ele>
        <time>2020-05-23T11:29:30Z</time>
      </trkpt>
      <trkpt lat="43.145780" lon="-5.910410">
        <ele>1136.317</ele>
        <time>2020-05-23T11:29:50Z</time>
      </trkpt>
      <trkpt lat="43.145780" lon="-5.910340">
        <ele>1137.108</ele>
        <time>2020-05-23T11:30:10Z</time>
      </trkpt>
      <trkpt lat="43.145770" lon="-5.910170">
        <ele>1137.955</ele>
        <time>2020-05-23T11:30:30Z</time>
      </trkpt>
      <trkpt lat="43.145770" lon="-5.910000">
        <ele>1138.540</ele>
        <time>2020-05-23T11:30:50Z</time>
      </trkpt>
      <trkpt lat="43.145760" lon="-5.909800">
        <ele>1139.597</ele>
        <time>2020-05-23T11:31:10Z</time>
      </trkpt>
      <trkpt lat="43.145740" lon="-5.909640">
        <ele>1140.573</ele>
        <time>2020-05-23T11:31:30Z</time>
      </trkpt>
      <trkpt lat="43.145730" lon="-5.909560">
        <ele>1141.272</ele>
        <time>2020-05-23T11:31:50Z</time>
      </trkpt>
      <trkpt lat="43.145730" lon="-5.909480">
        <ele>1142.423</ele>
        <time>2020-05-23T11:32:10Z</time>
      </trkpt>
      <trkpt lat="43.145710" lon="-5.909350">
        <ele>1143.162</ele>
        <time>2020-05-23T11:32:30Z</time>
      </trkpt>
      <trkpt lat="43.145690" lon="-5.909270">
        <ele>1143.235</ele>
        <time>2020-05-23T11:32:50Z</time>
      </trkpt>
      <trkpt lat="43.145680" lon="-5.909190">
        <ele>1143.728</ele>
        <time>2020-05-23T11:33:10Z</time>
      </trkpt>
      <trkpt lat="43.145670" lon="-5.909160">
        <ele>1143.789</ele>
        <time>2020-05-23T11:33:30Z</time>
      </trkpt>
      <trkpt lat="43.145650" lon="-5.909080">
        <ele>1144.317</ele>
        <time>2020-05-23T11:33:50Z</time>
      </trkpt>
      <trkpt lat="43.145630" lon="-5.909010">
        <ele>1144.808</ele>
        <time>2020-05-23T11:34:10Z</time>
      </trkpt>
      <trkpt lat="43.145620" lon="-5.908950">
        <ele>1145.516</ele>
        <time>2020-05-23T11:34:30Z</time>
      </trkpt>
      <trkpt lat="43.145600" lon="-5.908900">
        <ele>1145.641</ele>
        <time>2020-05-23T11:34:50Z</time>
      </trkpt>
      <trkpt lat="43.145590" lon="-5.908860">
        <ele>1146.178</ele>
        <time>2020-05-23T11:35:10Z</time>
      </trkpt>
      <trkpt lat="43.145580" lon="-5.908850">
        <ele>1145.974</ele>
        <time>2020-05-23T11:35:30Z</time>
      </trkpt>
      <trkpt lat="43.145550" lon="-5.908780">
        <ele>1146.663</ele>
        <time>2020-05-23T11:35:50Z</time>
      </trkpt>
      <trkpt lat="43.145510" lon="-5.908690">
        <ele>1147.554</ele>
        <time>2020-05-23T11:36:10Z</time>
      </trkpt>
      <trkpt lat="43.145490" lon="-5.908640">
        <ele>1148.173</ele>
        <time>2020-05-23T11:36:30Z</time>
      </trkpt>
      <trkpt lat="43.145480" lon="-5.908620">
        <ele>1148.346</ele>
        <time>2020-05-23T11:36:50Z</time>
      </trkpt>
      <trkpt lat="43.145450" lon="-5.908570">
        <ele>1148.988</ele>
        <time>2020-05-23T11:37:10Z</time>
      </trkpt>
      <trkpt lat="43.145420" lon="-5.908530">
        <ele>1149.224</ele>
        <time>2020-05-23T11:37:30Z</time>
      </trkpt>
      <trkpt lat="43.145380" lon="-5.908450">
        <ele>1150.426</ele>
        <time>2020-05-23T11:37:50Z</time>
      </trkpt>
      <trkpt lat="43.145320" lon="-5.908370">
        <ele>1150.608</ele>
        <time>2020-05-23T11:38:10Z</time>
      </trkpt>
      <trkpt lat="43.145280" lon="-5.908320">
        <ele>1150.612</ele>
        <time>2020-05-23T11:38:30Z</time>
      </trkpt>
      <trkpt lat="43.145240" lon="-5.908280">
        <ele>1151.147</ele>
        <time>2020-05-23T11:38:50Z</time>
      </trkpt>
      <trkpt lat="43.145160" lon="-5.908190">
        <ele>1152.424</ele>
        <time>2020-05-23T11:39:10Z</time>
      </trkpt>
      <trkpt lat="43.145110" lon="-5.908140">
        <ele>1152.940</ele>
        <time>2020-05-23T11:39:30Z</time>
      </trkpt>
      <trkpt lat="43.145080" lon="-5.908110">
        <ele>1153.269</ele>
        <time>2020-05-23T11:39:50Z</time>
      </trkpt>
      <trkpt lat="43.145040" lon="-5.908080">
        <ele>1153.240</ele>
        <time>2020-05-23T11:40:10Z</time>
      </trkpt>
      <trkpt lat="43.145000" lon="-5.908050">
        <ele>1153.219</ele>
        <time>2020-05-23T11:40:30Z</time>
      </trkpt>
      <trkpt lat="43.144950" lon="-5.908010">
        <ele>1154.252</ele>
        <time>2020-05-23T11:40:50Z</time>
      </trkpt>
      <trkpt lat="43.144900" lon="-5.907990">
        <ele>1154.377</ele>
        <time>2020-05-23T11:41:10Z</time>
      </trkpt>
      <trkpt lat="43.144860" lon="-5.907960">
        <ele>1154.961</ele>
        <time>2020-05-23T11:41:30Z</time>
      </trkpt>
      <trkpt lat="43.144820" lon="-5.907950">
        <ele>1154.727</ele>
        <time>2020-05-23T11:41:50Z</time>
      </trkpt>
      <trkpt lat="43.144780" lon="-5.907930">
        <ele>1154.908</ele>
        <time>2020-05-23T11:42:10Z</time>
      </trkpt>
      <trkpt lat="43.144560" lon="-5.907840">
        <ele>1156.821</ele>
        <time>2020-05-23T11:42:30Z</time>
      </trkpt>
      <trkpt lat="43.144510" lon="-5.907830">
        <ele>1157.086</ele>
        <time>2020-05-23T11:42:50Z</time>
      </trkpt>
      <trkpt lat="43.144300" lon="-5.907760">
        <ele>1160.333</ele>
        <time>2020-05-23T11:43:10Z</time>
      </trkpt>
      <trkpt lat="43.144210" lon="-5.907730">
        <ele>1161.669</ele>
        <time>2020-05-23T11:43:30Z</time>
      </trkpt>
      <trkpt lat="43.144150" lon="-5.907710">
        <ele>1162.398</ele>
        <time>2020-05-23T11:43:50Z</time>
      </trkpt>
      <trkpt lat="43.144100" lon="-5.907690">
        <ele>1162.559</ele>
        <time>2020-05-23T11:44:10Z</time>
      </trkpt>
      <trkpt lat="43.144060" lon="-5.907670">
        <ele>1162.858</ele>
        <time>2020-05-23T11:44:30Z</time>
      </trkpt>
      <trkpt lat="43.143990" lon="-5.907630">
        <ele>1163.411</ele>
        <time>2020-05-23T11:44:50Z</time>
      </trkpt>
      <trkpt lat="43.143940" lon="-5.907590">
        <ele>1164.034</ele>
        <time>2020-05-23T11:45:10Z</time>
      </trkpt>
      <trkpt lat="43.143900" lon="-5.907560">
        <ele>1164.455</ele>
        <time>2020-05-23T11:45:30Z</time>
      </trkpt>
      <trkpt lat="43.143870" lon="-5.907540">
        <ele>1164.510</ele>
        <time>2020-05-23T11:45:50Z</time>
      </trkpt>
      <trkpt lat="43.143820" lon="-5.907500">
        <ele>1164.808</ele>
        <time>2020-05-23T11:46:10Z</time>
      </trkpt>
      <trkpt lat="43.143770" lon="-5.907450">
        <ele>1165.577</ele>
        <time>2020-05-23T11:46:30Z</time>
      </trkpt>
      <trkpt lat="43.143710" lon="-5.907390">
        <ele>1166.252</ele>
        <time>2020-05-23T11:46:50Z</time>
      </trkpt>
      <trkpt lat="43.143670" lon="-5.907340">
        <ele>1166.969</ele>
        <time>2020-05-23T11:47:10Z</time>
      </trkpt>
      <trkpt lat="43.143630" lon="-5.907280">
        <ele>1167.815</ele>
        <time>2020-05-23T11:47:30Z</time>
      </trkpt>
      <trkpt lat="43.143600" lon="-5.907230">
        <ele>1168.574</ele>
        <time>2020-05-23T11:47:50Z</time>
      </trkpt>
      <trkpt lat="43.143570" lon="-5.907180">
        <ele>1169.095</ele>
        <time>2020-05-23T11:48:10Z</time>
      </trkpt>
      <trkpt lat="43.143540" lon="-5.907100">
        <ele>1170.194</ele>
        <time>2020-05-23T11:48:30Z</time>
      </trkpt>
      <trkpt lat="43.143510" lon="-5.907030">
        <ele>1170.867</ele>
        <time>2020-05-23T11:48:50Z</time>
      </trkpt>
      <trkpt lat="43.143480" lon="-5.906950">
        <ele>1171.647</ele>
        <time>2020-05-23T11:49:10Z</time>
      </trkpt>
      <trkpt lat="43.143450" lon="-5.906870">
        <ele>1172.229</ele>
        <time>2020-05-23T11:49:30Z</time>
      </trkpt>
      <trkpt lat="43.143430" lon="-5.906800">
        <ele>1172.921</ele>
        <time>2020-05-23T11:49:50Z</time>
      </trkpt>
      <trkpt lat="43.143410" lon="-5.906730">
        <ele>1173.608</ele>
        <time>2020-05-23T11:50:10Z</time>
      </trkpt>
      <trkpt lat="43.143410" lon="-5.906710">
        <ele>1173.918</ele>
        <time>2020-05-23T11:50:30Z</time>
      </trkpt>
      <trkpt lat="43.143400" lon="-5.906670">
        <ele>1174.393</ele>
        <time>2020-05-23T11:50:50Z</time>
      </trkpt>
      <trkpt lat="43.143390" lon="-5.906590">
        <ele>1174.580</ele>
        <time>2020-05-23T11:51:10Z</time>
      </trkpt>
      <trkpt lat="43.143390" lon="-5.906520">
        <ele>1174.936</ele>
        <time>2020-05-23T11:51:30Z</time>
      </trkpt>
      <trkpt lat="43.143390" lon="-5.906470">
        <ele>1175.225</ele>
        <time>2020-05-23T11:51:50Z</time>
      </trkpt>
      <trkpt lat="43.143390" lon="-5.906420">
        <ele>1175.546</ele>
        <time>2020-05-23T11:52:10Z</time>
      </trkpt>
      <trkpt lat="43.143390" lon="-5.906270">
        <ele>1175.865</ele>
        <time>2020-05-23T11:52:30Z</time>
      </trkpt>
      <trkpt lat="43.143390" lon="-5.906220">
        <ele>1175.948</ele>
        <time>2020-05-23T11:52:50Z</time>
      </trkpt>
      <trkpt lat="43.143400" lon="-5.906160">
        <ele>1176.246</ele>
        <time>2020-05-23T11:53:10Z</time>
      </trkpt>
      <trkpt lat="43.143410" lon="-5.906090">
        <ele>1176.488</ele>
        <time>2020-05-23T11:53:30Z</time>
      </trkpt>
      <trkpt lat="43.143440" lon="-5.905980">
        <ele>1177.016</ele>
        <time>2020-05-23T11:53:50Z</time>
      </trkpt>
      <trkpt lat="43.143490" lon="-5.905910">
        <ele>1177.208</ele>
        <time>2020-05-23T11:54:10Z</time>
      </trkpt>
      <trkpt lat="43.143490" lon="-5.905900">
        <ele>1177.228</ele>
        <time>2020-05-23T11:54:30Z</time>
      </trkpt>
      <trkpt lat="43.143530" lon="-5.905850">
        <ele>1177.163</ele>
        <time>2020-05-23T11:54:50Z</time>
      </trkpt>
      <trkpt lat="43.143560" lon="-5.905810">
        <ele>1176.990</ele>
        <time>2020-05-23T11:55:10Z</time>
      </trkpt>
      <trkpt lat="43.143600" lon="-5.905770">
        <ele>1176.866</ele>
        <time>2020-05-23T11:55:30Z</time>
      </trkpt>
      <trkpt lat="43.143620" lon="-5.905750">
        <ele>1176.835</ele>
        <time>2020-05-23T11:55:50Z</time>
      </trkpt>
      <trkpt lat="43.143660" lon="-5.905730">
        <ele>1177.186</ele>
        <time>2020-05-23T11:56:10Z</time>
      </trkpt>
      <trkpt lat="43.143680" lon="-5.905720">
        <ele>1177.275</ele>
        <time>2020-05-23T11:56:30Z</time>
      </trkpt>
      <trkpt lat="43.143700" lon="-5.905710">
        <ele>1177.378</ele>
        <time>2020-05-23T11:56:50Z</time>
      </trkpt>
      <trkpt lat="43.143740" lon="-5.905700">
        <ele>1177.555</ele>
        <time>2020-05-23T11:57:10Z</time>
      </trkpt>
      <trkpt lat="43.143790" lon="-5.905690">
        <ele>1177.707</ele>
        <time>2020-05-23T11:57:30Z</time>
      </trkpt>
      <trkpt lat="43.143900" lon="-5.905670">
        <ele>1177.917</ele>
        <time>2020-05-23T11:57:50Z</time>
      </trkpt>
      <trkpt lat="43.143920" lon="-5.905660">
        <ele>1177.708</ele>
        <time>2020-05-23T11:58:10Z</time>
      </trkpt>
      <trkpt lat="43.144010" lon="-5.905650">
        <ele>1177.799</ele>
        <time>2020-05-23T11:58:30Z</time>
      </trkpt>
      <trkpt lat="43.144080" lon="-5.905640">
        <ele>1177.544</ele>
        <time>2020-05-23T11:58:50Z</time>
      </trkpt>
      <trkpt lat="43.144100" lon="-5.905640">
        <ele>1177.661</ele>
        <time>2020-05-23T11:59:10Z</time>
      </trkpt>
      <trkpt lat="43.144140" lon="-5.905630">
        <ele>1177.487</ele>
        <time>2020-05-23T11:59:30Z</time>
      </trkpt>
      <trkpt lat="43.144180" lon="-5.905620">
        <ele>1177.326</ele>
        <time>2020-05-23T11:59:50Z</time>
      </trkpt>
      <trkpt lat="43.144210" lon="-5.905610">
        <ele>1177.387</ele>
        <time>2020-05-23T12:00:10Z</time>
      </trkpt>
      <trkpt lat="43.144260" lon="-5.905590">
        <ele>1177.256</ele>
        <time>2020-05-23T12:00:30Z</time>
      </trkpt>
      <trkpt lat="43.144270" lon="-5.905590">
        <ele>1177.439</ele>
        <time>2020-05-23T12:00:50Z</time>
      </trkpt>
      <trkpt lat="43.144320" lon="-5.905570">
        <ele>1177.222</ele>
        <time>2020-05-23T12:01:10Z</time>
      </trkpt>
      <trkpt lat="43.144380" lon="-5.905550">
        <ele>1177.162</ele>
        <time>2020-05-23T12:01:30Z</time>
      </trkpt>
      <trkpt lat="43.144420" lon="-5.905530">
        <ele>1177.008</ele>
        <time>2020-05-23T12:01:50Z</time>
      </trkpt>
      <trkpt lat="43.144450" lon="-5.905510">
        <ele>1176.808</ele>
        <time>2020-05-23T12:02:10Z</time>
      </trkpt>
      <trkpt lat="43.144480" lon="-5.905490">
        <ele>1177.146</ele>
        <time>2020-05-23T12:02:30Z</time>
      </trkpt>
      <trkpt lat="43.144520" lon="-5.905460">
        <ele>1177.361</ele>
        <time>2020-05-23T12:02:50Z</time>
      </trkpt>
      <trkpt lat="43.144560" lon="-5.905420">
        <ele>1177.278</ele>
        <time>2020-05-23T12:03:10Z</time>
      </trkpt>
      <trkpt lat="43.144580" lon="-5.905400">
        <ele>1177.254</ele>
        <time>2020-05-23T12:03:30Z</time>
      </trkpt>
      <trkpt lat="43.144600" lon="-5.905390">
        <ele>1177.443</ele>
        <time>2020-05-23T12:03:50Z</time>
      </trkpt>
      <trkpt lat="43.144610" lon="-5.905380">
        <ele>1177.314</ele>
        <time>2020-05-23T12:04:10Z</time>
      </trkpt>
      <trkpt lat="43.144790" lon="-5.905170">
        <ele>1176.433</ele>
        <time>2020-05-23T12:04:30Z</time>
      </trkpt>
      <trkpt lat="43.145120" lon="-5.904750">
        <ele>1175.466</ele>
        <time>2020-05-23T12:04:50Z</time>
      </trkpt>
      <trkpt lat="43.145210" lon="-5.904650">
        <ele>1174.774</ele>
        <time>2020-05-23T12:05:10Z</time>
      </trkpt>
      <trkpt lat="43.145280" lon="-5.904590">
        <ele>1174.756</ele>
        <time>2020-05-23T12:05:30Z</time>
      </trkpt>
      <trkpt lat="43.145310" lon="-5.904570">
        <ele>1174.621</ele>
        <time>2020-05-23T12:05:50Z</time>
      </trkpt>
      <trkpt lat="43.145340" lon="-5.904540">
        <ele>1174.208</ele>
        <time>2020-05-23T12:06:10Z</time>
      </trkpt>
      <trkpt lat="43.145410" lon="-5.904500">
        <ele>1174.061</ele>
        <time>2020-05-23T12:06:30Z</time>
      </trkpt>
      <trkpt lat="43.145490" lon="-5.904460">
        <ele>1173.826</ele>
        <time>2020-05-23T12:06:50Z</time>
      </trkpt>
      <trkpt lat="43.145530" lon="-5.904440">
        <ele>1173.613</ele>
        <time>2020-05-23T12:07:10Z</time>
      </trkpt>
      <trkpt lat="43.145580" lon="-5.904430">
        <ele>1173.839</ele>
        <time>2020-05-23T12:07:30Z</time>
      </trkpt>
      <trkpt lat="43.145610" lon="-5.904420">
        <ele>1173.728</ele>
        <time>2020-05-23T12:07:50Z</time>
      </trkpt>
      <trkpt lat="43.145610" lon="-5.904410">
        <ele>1173.529</ele>
        <time>2020-05-23T12:08:10Z</time>
      </trkpt>
      <trkpt lat="43.145650" lon="-5.904410">
        <ele>1173.628</ele>
        <time>2020-05-23T12:08:30Z</time>
      </trkpt>
      <trkpt lat="43.145680" lon="-5.904400">
        <ele>1173.581</ele>
        <time>2020-05-23T12:08:50Z</time>
      </trkpt>
      <trkpt lat="43.145720" lon="-5.904390">
        <ele>1173.496</ele>
        <time>2020-05-23T12:09:10Z</time>
      </trkpt>
      <trkpt lat="43.145760" lon="-5.904390">
        <ele>1173.631</ele>
        <time>2020-05-23T12:09:30Z</time>
      </trkpt>
      <trkpt lat="43.145870" lon="-5.904380">
        <ele>1173.324</ele>
        <time>2020-05-23T12:09:50Z</time>
      </trkpt>
      <trkpt lat="43.145900" lon="-5.904390">
        <ele>1173.308</ele>
        <time>2020-05-23T12:10:10Z</time>
      </trkpt>
      <trkpt lat="43.145950" lon="-5.904390">
        <ele>1172.993</ele>
        <time>2020-05-23T12:10:30Z</time>
      </trkpt>
      <trkpt lat="43.145990" lon="-5.904400">
        <ele>1172.838</ele>
        <time>2020-05-23T12:10:50Z</time>
      </trkpt>
      <trkpt lat="43.146030" lon="-5.904410">
        <ele>1172.855</ele>
        <time>2020-05-23T12:11:10Z</time>
      </trkpt>
      <trkpt lat="43.146070" lon="-5.904420">
        <ele>1172.751</ele>
        <time>2020-05-23T12:11:30Z</time>
      </trkpt>
      <trkpt lat="43.146130" lon="-5.904440">
        <ele>1172.750</ele>
        <time>2020-05-23T12:11:50Z</time>
      </trkpt>
      <trkpt lat="43.146190" lon="-5.904460">
        <ele>1173.041</ele>
        <time>2020-05-23T12:12:10Z</time>
      </trkpt>
      <trkpt lat="43.146250" lon="-5.904490">
        <ele>1173.550</ele>
        <time>2020-05-23T12:12:30Z</time>
      </trkpt>
      <trkpt lat="43.146320" lon="-5.904520">
        <ele>1173.823</ele>
        <time>2020-05-23T12:12:50Z</time>
      </trkpt>
      <trkpt lat="43.146390" lon="-5.904560">
        <ele>1174.398</ele>
        <time>2020-05-23T12:13:10Z</time>
      </trkpt>
      <trkpt lat="43.146640" lon="-5.904740">
        <ele>1172.515</ele>
        <time>2020-05-23T12:13:30Z</time>
      </trkpt>
      <trkpt lat="43.146800" lon="-5.904850">
        <ele>1173.026</ele>
        <time>2020-05-23T12:13:50Z</time>
      </trkpt>
      <trkpt lat="43.146950" lon="-5.904940">
        <ele>1171.608</ele>
        <time>2020-05-23T12:14:10Z</time>
      </trkpt>
      <trkpt lat="43.146960" lon="-5.904940">
        <ele>1171.573</ele>
        <time>2020-05-23T12:14:30Z</time>
      </trkpt>
      <trkpt lat="43.146970" lon="-5.904950">
        <ele>1171.618</ele>
        <time>2020-05-23T12:14:50Z</time>
      </trkpt>
      <trkpt lat="43.147030" lon="-5.904980">
        <ele>1171.435</ele>
        <time>2020-05-23T12:15:10Z</time>
      </trkpt>
      <trkpt lat="43.147070" lon="-5.904990">
        <ele>1171.011</ele>
        <time>2020-05-23T12:15:30Z</time>
      </trkpt>
      <trkpt lat="43.147110" lon="-5.905000">
        <ele>1170.610</ele>
        <time>2020-05-23T12:15:50Z</time>
      </trkpt>
      <trkpt lat="43.147150" lon="-5.905000">
        <ele>1170.081</ele>
        <time>2020-05-23T12:16:10Z</time>
      </trkpt>
      <trkpt lat="43.147190" lon="-5.905010">
        <ele>1170.020</ele>
        <time>2020-05-23T12:16:30Z</time>
      </trkpt>
      <trkpt lat="43.147330" lon="-5.905020">
        <ele>1169.733</ele>
        <time>2020-05-23T12:16:50Z</time>
      </trkpt>
      <trkpt lat="43.147390" lon="-5.905020">
        <ele>1169.592</ele>
        <time>2020-05-23T12:17:10Z</time>
      </trkpt>
      <trkpt lat="43.147430" lon="-5.905020">
        <ele>1169.373</ele>
        <time>2020-05-23T12:17:30Z</time>
      </trkpt>
      <trkpt lat="43.147490" lon="-5.905010">
        <ele>1168.620</ele>
        <time>2020-05-23T12:17:50Z</time>
      </trkpt>
      <trkpt lat="43.147530" lon="-5.905000">
        <ele>1168.308</ele>
        <time>2020-05-23T12:18:10Z</time>
      </trkpt>
      <trkpt lat="43.147610" lon="-5.904980">
        <ele>1168.663</ele>
        <time>2020-05-23T12:18:30Z</time>
      </trkpt>
      <trkpt lat="43.147670" lon="-5.904960">
        <ele>1168.778</ele>
        <time>2020-05-23T12:18:50Z</time>
      </trkpt>
      <trkpt lat="43.147750" lon="-5.904920">
        <ele>1168.435</ele>
        <time>2020-05-23T12:19:10Z</time>
      </trkpt>
      <trkpt lat="43.147840" lon="-5.904870">
        <ele>1167.611</ele>
        <time>2020-05-23T12:19:30Z</time>
      </trkpt>
      <trkpt lat="43.147920" lon="-5.904820">
        <ele>1166.720</ele>
        <time>2020-05-23T12:19:50Z</time>
      </trkpt>
      <trkpt lat="43.147950" lon="-5.904790">
        <ele>1166.021</ele>
        <time>2020-05-23T12:20:10Z</time>
      </trkpt>
      <trkpt lat="43.148000" lon="-5.904750">
        <ele>1165.310</ele>
        <time>2020-05-23T12:20:30Z</time>
      </trkpt>
      <trkpt lat="43.148030" lon="-5.904710">
        <ele>1164.583</ele>
        <time>2020-05-23T12:20:50Z</time>
      </trkpt>
      <trkpt lat="43.148100" lon="-5.904640">
        <ele>1164.255</ele>
        <time>2020-05-23T12:21:10Z</time>
      </trkpt>
      <trkpt lat="43.148140" lon="-5.904590">
        <ele>1164.207</ele>
        <time>2020-05-23T12:21:30Z</time>
      </trkpt>
      <trkpt lat="43.148180" lon="-5.904540">
        <ele>1164.517</ele>
        <time>2020-05-23T12:21:50Z</time>
      </trkpt>
      <trkpt lat="43.148210" lon="-5.904490">
        <ele>1164.608</ele>
        <time>2020-05-23T12:22:10Z</time>
      </trkpt>
      <trkpt lat="43.148230" lon="-5.904460">
        <ele>1164.859</ele>
        <time>2020-05-23T12:22:30Z</time>
      </trkpt>
      <trkpt lat="43.148270" lon="-5.904390">
        <ele>1164.934</ele>
        <time>2020-05-23T12:22:50Z</time>
      </trkpt>
      <trkpt lat="43.148450" lon="-5.904030">
        <ele>1165.011</ele>
        <time>2020-05-23T12:23:10Z</time>
      </trkpt>
      <trkpt lat="43.148560" lon="-5.903800">
        <ele>1164.237</ele>
        <time>2020-05-23T12:23:30Z</time>
      </trkpt>
      <trkpt lat="43.148720" lon="-5.903490">
        <ele>1163.836</ele>
        <time>2020-05-23T12:23:50Z</time>
      </trkpt>
      <trkpt lat="43.148870" lon="-5.903230">
        <ele>1163.227</ele>
        <time>2020-05-23T12:24:10Z</time>
      </trkpt>
      <trkpt lat="43.148920" lon="-5.903160">
        <ele>1163.136</ele>
        <time>2020-05-23T12:24:30Z</time>
      </trkpt>
      <trkpt lat="43.148960" lon="-5.903090">
        <ele>1162.699</ele>
        <time>2020-05-23T12:24:50Z</time>
      </trkpt>
      <trkpt lat="43.149020" lon="-5.903020">
        <ele>1162.342</ele>
        <time>2020-05-23T12:25:10Z</time>
      </trkpt>
      <trkpt lat="43.149080" lon="-5.902960">
        <ele>1162.222</ele>
        <time>2020-05-23T12:25:30Z</time>
      </trkpt>
      <trkpt lat="43.149160" lon="-5.902900">
        <ele>1162.414</ele>
        <time>2020-05-23T12:25:50Z</time>
      </trkpt>
      <trkpt lat="43.149250" lon="-5.902830">
        <ele>1162.308</ele>
        <time>2020-05-23T12:26:10Z</time>
      </trkpt>
      <trkpt lat="43.149340" lon="-5.902780">
        <ele>1162.848</ele>
        <time>2020-05-23T12:26:30Z</time>
      </trkpt>
      <trkpt lat="43.149570" lon="-5.902650">
        <ele>1162.073</ele>
        <time>2020-05-23T12:26:50Z</time>
      </trkpt>
      <trkpt lat="43.149690" lon="-5.902590">
        <ele>1161.420</ele>
        <time>2020-05-23T12:27:10Z</time>
      </trkpt>
      <trkpt lat="43.149710" lon="-5.902580">
        <ele>1161.396</ele>
        <time>2020-05-23T12:27:30Z</time>
      </trkpt>
      <trkpt lat="43.149820" lon="-5.902530">
        <ele>1161.195</ele>
        <time>2020-05-23T12:27:50Z</time>
      </trkpt>
      <trkpt lat="43.149920" lon="-5.902470">
        <ele>1160.696</ele>
        <time>2020-05-23T12:28:10Z</time>
      </trkpt>
      <trkpt lat="43.150000" lon="-5.902420">
        <ele>1160.735</ele>
        <time>2020-05-23T12:28:30Z</time>
      </trkpt>
      <trkpt lat="43.150030" lon="-5.902390">
        <ele>1161.138</ele>
        <time>2020-05-23T12:28:50Z</time>
      </trkpt>
      <trkpt lat="43.150070" lon="-5.902360">
        <ele>1161.719</ele>
        <time>2020-05-23T12:29:10Z</time>
      </trkpt>
      <trkpt lat="43.150100" lon="-5.902330">
        <ele>1161.909</ele>
        <time>2020-05-23T12:29:30Z</time>
      </trkpt>
      <trkpt lat="43.150130" lon="-5.902290">
        <ele>1161.619</ele>
        <time>2020-05-23T12:29:50Z</time>
      </trkpt>
      <trkpt lat="43.150160" lon="-5.902260">
        <ele>1161.608</ele>
        <time>2020-05-23T12:30:10Z</time>
      </trkpt>
      <trkpt lat="43.150190" lon="-5.902190">
        <ele>1160.345</ele>
        <time>2020-05-23T12:30:30Z</time>
      </trkpt>
      <trkpt lat="43.150230" lon="-5.902100">
        <ele>1159.410</ele>
        <time>2020-05-23T12:30:50Z</time>
      </trkpt>
      <trkpt lat="43.150240" lon="-5.902090">
        <ele>1159.697</ele>
        <time>2020-05-23T12:31:10Z</time>
      </trkpt>
      <trkpt lat="43.150260" lon="-5.902030">
        <ele>1159.133</ele>
        <time>2020-05-23T12:31:30Z</time>
      </trkpt>
      <trkpt lat="43.150280" lon="-5.901990">
        <ele>1159.172</ele>
        <time>2020-05-23T12:31:50Z</time>
      </trkpt>
      <trkpt lat="43.150290" lon="-5.901920">
        <ele>1158.723</ele>
        <time>2020-05-23T12:32:10Z</time>
      </trkpt>
      <trkpt lat="43.150300" lon="-5.901860">
        <ele>1159.042</ele>
        <time>2020-05-23T12:32:30Z</time>
      </trkpt>
      <trkpt lat="43.150310" lon="-5.901800">
        <ele>1159.435</ele>
        <time>2020-05-23T12:32:50Z</time>
      </trkpt>
      <trkpt lat="43.150320" lon="-5.901730">
        <ele>1159.745</ele>
        <time>2020-05-23T12:33:10Z</time>
      </trkpt>
      <trkpt lat="43.150330" lon="-5.901660">
        <ele>1159.947</ele>
        <time>2020-05-23T12:33:30Z</time>
      </trkpt>
      <trkpt lat="43.150330" lon="-5.901610">
        <ele>1159.511</ele>
        <time>2020-05-23T12:33:50Z</time>
      </trkpt>
      <trkpt lat="43.150330" lon="-5.901550">
        <ele>1158.908</ele>
        <time>2020-05-23T12:34:10Z</time>
      </trkpt>
      <trkpt lat="43.150310" lon="-5.901300">
        <ele>1156.878</ele>
        <time>2020-05-23T12:34:30Z</time>
      </trkpt>
      <trkpt lat="43.150300" lon="-5.901180">
        <ele>1157.023</ele>
        <time>2020-05-23T12:34:50Z</time>
      </trkpt>
      <trkpt lat="43.150300" lon="-5.901090">
        <ele>1157.570</ele>
        <time>2020-05-23T12:35:10Z</time>
      </trkpt>
      <trkpt lat="43.150300" lon="-5.901020">
        <ele>1157.596</ele>
        <time>2020-05-23T12:35:30Z</time>
      </trkpt>
      <trkpt lat="43.150290" lon="-5.900960">
        <ele>1156.875</ele>
        <time>2020-05-23T12:35:50Z</time>
      </trkpt>
      <trkpt lat="43.150300" lon="-5.900890">
        <ele>1157.526</ele>
        <time>2020-05-23T12:36:10Z</time>
      </trkpt>
      <trkpt lat="43.150300" lon="-5.900820">
        <ele>1157.475</ele>
        <time>2020-05-23T12:36:30Z</time>
      </trkpt>
      <trkpt lat="43.150310" lon="-5.900770">
        <ele>1157.678</ele>
        <time>2020-05-23T12:36:50Z</time>
      </trkpt>
      <trkpt lat="43.150310" lon="-5.900720">
        <ele>1157.137</ele>
        <time>2020-05-23T12:37:10Z</time>
      </trkpt>
      <trkpt lat="43.150330" lon="-5.900660">
        <ele>1157.649</ele>
        <time>2020-05-23T12:37:30Z</time>
      </trkpt>
      <trkpt lat="43.150350" lon="-5.900580">
        <ele>1157.713</ele>
        <time>2020-05-23T12:37:50Z</time>
      </trkpt>
      <trkpt lat="43.150400" lon="-5.900440">
        <ele>1155.908</ele>
        <time>2020-05-23T12:38:10Z</time>
      </trkpt>
      <trkpt lat="43.150500" lon="-5.900230">
        <ele>1152.517</ele>
        <time>2020-05-23T12:38:30Z</time>
      </trkpt>
      <trkpt lat="43.150540" lon="-5.900140">
        <ele>1152.462</ele>
        <time>2020-05-23T12:38:50Z</time>
      </trkpt>
      <trkpt lat="43.150890" lon="-5.899370">
        <ele>1152.349</ele>
        <time>2020-05-23T12:39:10Z</time>
      </trkpt>
      <trkpt lat="43.151020" lon="-5.899110">
        <ele>1150.355</ele>
        <time>2020-05-23T12:39:30Z</time>
      </trkpt>
      <trkpt lat="43.151060" lon="-5.899020">
        <ele>1150.054</ele>
        <time>2020-05-23T12:39:50Z</time>
      </trkpt>
      <trkpt lat="43.151090" lon="-5.898970">
        <ele>1149.865</ele>
        <time>2020-05-23T12:40:10Z</time>
      </trkpt>
      <trkpt lat="43.151120" lon="-5.898920">
        <ele>1149.454</ele>
        <time>2020-05-23T12:40:30Z</time>
      </trkpt>
      <trkpt lat="43.151140" lon="-5.898890">
        <ele>1148.917</ele>
        <time>2020-05-23T12:40:50Z</time>
      </trkpt>
      <trkpt lat="43.151160" lon="-5.898870">
        <ele>1148.826</ele>
        <time>2020-05-23T12:41:10Z</time>
      </trkpt>
      <trkpt lat="43.151180" lon="-5.898840">
        <ele>1148.647</ele>
        <time>2020-05-23T12:41:30Z</time>
      </trkpt>
      <trkpt lat="43.151210" lon="-5.898820">
        <ele>1148.411</ele>
        <time>2020-05-23T12:41:50Z</time>
      </trkpt>
      <trkpt lat="43.151230" lon="-5.898800">
        <ele>1148.308</ele>
        <time>2020-05-23T12:42:10Z</time>
      </trkpt>
      <trkpt lat="43.151330" lon="-5.898720">
        <ele>1147.666</ele>
        <time>2020-05-23T12:42:30Z</time>
      </trkpt>
      <trkpt lat="43.151400" lon="-5.898680">
        <ele>1147.291</ele>
        <time>2020-05-23T12:42:50Z</time>
      </trkpt>
      <trkpt lat="43.151450" lon="-5.898660">
        <ele>1146.688</ele>
        <time>2020-05-23T12:43:10Z</time>
      </trkpt>
      <trkpt lat="43.151510" lon="-5.898630">
        <ele>1145.844</ele>
        <time>2020-05-23T12:43:30Z</time>
      </trkpt>
      <trkpt lat="43.151610" lon="-5.898630">
        <ele>1144.813</ele>
        <time>2020-05-23T12:43:50Z</time>
      </trkpt>
      <trkpt lat="43.151730" lon="-5.898640">
        <ele>1143.334</ele>
        <time>2020-05-23T12:44:10Z</time>
      </trkpt>
      <trkpt lat="43.151760" lon="-5.898650">
        <ele>1143.013</ele>
        <time>2020-05-23T12:44:30Z</time>
      </trkpt>
      <trkpt lat="43.151890" lon="-5.898690">
        <ele>1141.846</ele>
        <time>2020-05-23T12:44:50Z</time>
      </trkpt>
      <trkpt lat="43.151970" lon="-5.898720">
        <ele>1141.253</ele>
        <time>2020-05-23T12:45:10Z</time>
      </trkpt>
      <trkpt lat="43.152120" lon="-5.898800">
        <ele>1140.204</ele>
        <time>2020-05-23T12:45:30Z</time>
      </trkpt>
      <trkpt lat="43.152220" lon="-5.898870">
        <ele>1139.614</ele>
        <time>2020-05-23T12:45:50Z</time>
      </trkpt>
      <trkpt lat="43.152320" lon="-5.898960">
        <ele>1139.808</ele>
        <time>2020-05-23T12:46:10Z</time>
      </trkpt>
      <trkpt lat="43.152460" lon="-5.899080">
        <ele>1138.869</ele>
        <time>2020-05-23T12:46:30Z</time>
      </trkpt>
      <trkpt lat="43.152490" lon="-5.899100">
        <ele>1138.344</ele>
        <time>2020-05-23T12:46:50Z</time>
      </trkpt>
      <trkpt lat="43.152520" lon="-5.899120">
        <ele>1137.931</ele>
        <time>2020-05-23T12:47:10Z</time>
      </trkpt>
      <trkpt lat="43.152550" lon="-5.899130">
        <ele>1137.657</ele>
        <time>2020-05-23T12:47:30Z</time>
      </trkpt>
      <trkpt lat="43.152570" lon="-5.899140">
        <ele>1137.416</ele>
        <time>2020-05-23T12:47:50Z</time>
      </trkpt>
      <trkpt lat="43.152610" lon="-5.899150">
        <ele>1137.097</ele>
        <time>2020-05-23T12:48:10Z</time>
      </trkpt>
      <trkpt lat="43.152650" lon="-5.899150">
        <ele>1136.386</ele>
        <time>2020-05-23T12:48:30Z</time>
      </trkpt>
      <trkpt lat="43.152710" lon="-5.899160">
        <ele>1135.779</ele>
        <time>2020-05-23T12:48:50Z</time>
      </trkpt>
      <trkpt lat="43.152750" lon="-5.899160">
        <ele>1135.135</ele>
        <time>2020-05-23T12:49:10Z</time>
      </trkpt>
      <trkpt lat="43.152790" lon="-5.899160">
        <ele>1134.686</ele>
        <time>2020-05-23T12:49:30Z</time>
      </trkpt>
      <trkpt lat="43.152820" lon="-5.899150">
        <ele>1133.914</ele>
        <time>2020-05-23T12:49:50Z</time>
      </trkpt>
      <trkpt lat="43.152890" lon="-5.899140">
        <ele>1132.908</ele>
        <time>2020-05-23T12:50:10Z</time>
      </trkpt>
      <trkpt lat="43.153110" lon="-5.899090">
        <ele>1129.767</ele>
        <time>2020-05-23T12:50:30Z</time>
      </trkpt>
      <trkpt lat="43.153130" lon="-5.899090">
        <ele>1129.492</ele>
        <time>2020-05-23T12:50:50Z</time>
      </trkpt>
      <trkpt lat="43.153160" lon="-5.899090">
        <ele>1128.899</ele>
        <time>2020-05-23T12:51:10Z</time>
      </trkpt>
      <trkpt lat="43.153180" lon="-5.899090">
        <ele>1128.565</ele>
        <time>2020-05-23T12:51:30Z</time>
      </trkpt>
      <trkpt lat="43.153200" lon="-5.899090">
        <ele>1128.244</ele>
        <time>2020-05-23T12:51:50Z</time>
      </trkpt>
      <trkpt lat="43.153230" lon="-5.899100">
        <ele>1127.815</ele>
        <time>2020-05-23T12:52:10Z</time>
      </trkpt>
      <trkpt lat="43.153260" lon="-5.899110">
        <ele>1127.524</ele>
        <time>2020-05-23T12:52:30Z</time>
      </trkpt>
      <trkpt lat="43.153280" lon="-5.899120">
        <ele>1127.317</ele>
        <time>2020-05-23T12:52:50Z</time>
      </trkpt>
      <trkpt lat="43.153300" lon="-5.899130">
        <ele>1127.155</ele>
        <time>2020-05-23T12:53:10Z</time>
      </trkpt>
      <trkpt lat="43.153320" lon="-5.899150">
        <ele>1127.007</ele>
        <time>2020-05-23T12:53:30Z</time>
      </trkpt>
      <trkpt lat="43.153350" lon="-5.899170">
        <ele>1126.517</ele>
        <time>2020-05-23T12:53:50Z</time>
      </trkpt>
      <trkpt lat="43.153380" lon="-5.899210">
        <ele>1126.708</ele>
        <time>2020-05-23T12:54:10Z</time>
      </trkpt>
      <trkpt lat="43.153410" lon="-5.899250">
        <ele>1126.959</ele>
        <time>2020-05-23T12:54:30Z</time>
      </trkpt>
      <trkpt lat="43.153440" lon="-5.899280">
        <ele>1126.714</ele>
        <time>2020-05-23T12:54:50Z</time>
      </trkpt>
      <trkpt lat="43.153490" lon="-5.899340">
        <ele>1126.661</ele>
        <time>2020-05-23T12:55:10Z</time>
      </trkpt>
      <trkpt lat="43.153530" lon="-5.899380">
        <ele>1126.397</ele>
        <time>2020-05-23T12:55:30Z</time>
      </trkpt>
      <trkpt lat="43.153570" lon="-5.899410">
        <ele>1125.636</ele>
        <time>2020-05-23T12:55:50Z</time>
      </trkpt>
      <trkpt lat="43.153610" lon="-5.899440">
        <ele>1124.997</ele>
        <time>2020-05-23T12:56:10Z</time>
      </trkpt>
      <trkpt lat="43.153650" lon="-5.899460">
        <ele>1124.966</ele>
        <time>2020-05-23T12:56:30Z</time>
      </trkpt>
      <trkpt lat="43.153700" lon="-5.899480">
        <ele>1124.519</ele>
        <time>2020-05-23T12:56:50Z</time>
      </trkpt>
      <trkpt lat="43.153730" lon="-5.899500">
        <ele>1124.579</ele>
        <time>2020-05-23T12:57:10Z</time>
      </trkpt>
      <trkpt lat="43.153780" lon="-5.899510">
        <ele>1123.605</ele>
        <time>2020-05-23T12:57:30Z</time>
      </trkpt>
      <trkpt lat="43.153830" lon="-5.899520">
        <ele>1122.625</ele>
        <time>2020-05-23T12:57:50Z</time>
      </trkpt>
      <trkpt lat="43.153890" lon="-5.899530">
        <ele>1121.208</ele>
        <time>2020-05-23T12:58:10Z</time>
      </trkpt>
      <trkpt lat="43.153920" lon="-5.899540">
        <ele>1120.621</ele>
        <time>2020-05-23T12:58:30Z</time>
      </trkpt>
      <trkpt lat="43.153940" lon="-5.899570">
        <ele>1120.576</ele>
        <time>2020-05-23T12:58:50Z</time>
      </trkpt>
      <trkpt lat="43.153980" lon="-5.899600">
        <ele>1120.073</ele>
        <time>2020-05-23T12:59:10Z</time>
      </trkpt>
      <trkpt lat="43.154010" lon="-5.899640">
        <ele>1119.939</ele>
        <time>2020-05-23T12:59:30Z</time>
      </trkpt>
      <trkpt lat="43.154030" lon="-5.899680">
        <ele>1120.298</ele>
        <time>2020-05-23T12:59:50Z</time>
      </trkpt>
      <trkpt lat="43.154040" lon="-5.899700">
        <ele>1120.369</ele>
        <time>2020-05-23T13:00:10Z</time>
      </trkpt>
      <trkpt lat="43.154060" lon="-5.899730">
        <ele>1120.518</ele>
        <time>2020-05-23T13:00:30Z</time>
      </trkpt>
      <trkpt lat="43.154080" lon="-5.899780">
        <ele>1121.191</ele>
        <time>2020-05-23T13:00:50Z</time>
      </trkpt>
      <trkpt lat="43.154110" lon="-5.899830">
        <ele>1121.354</ele>
        <time>2020-05-23T13:01:10Z</time>
      </trkpt>
      <trkpt lat="43.154140" lon="-5.899860">
        <ele>1120.856</ele>
        <time>2020-05-23T13:01:30Z</time>
      </trkpt>
      <trkpt lat="43.154180" lon="-5.899920">
        <ele>1120.311</ele>
        <time>2020-05-23T13:01:50Z</time>
      </trkpt>
      <trkpt lat="43.154240" lon="-5.900030">
        <ele>1119.608</ele>
        <time>2020-05-23T13:02:10Z</time>
      </trkpt>
      <trkpt lat="43.154340" lon="-5.900180">
        <ele>1118.079</ele>
        <time>2020-05-23T13:02:30Z</time>
      </trkpt>
      <trkpt lat="43.154400" lon="-5.900280">
        <ele>1116.914</ele>
        <time>2020-05-23T13:02:50Z</time>
      </trkpt>
      <trkpt lat="43.154430" lon="-5.900340">
        <ele>1115.451</ele>
        <time>2020-05-23T13:03:10Z</time>
      </trkpt>
      <trkpt lat="43.154480" lon="-5.900400">
        <ele>1113.827</ele>
        <time>2020-05-23T13:03:30Z</time>
      </trkpt>
      <trkpt lat="43.154530" lon="-5.900450">
        <ele>1112.926</ele>
        <time>2020-05-23T13:03:50Z</time>
      </trkpt>
      <trkpt lat="43.154570" lon="-5.900500">
        <ele>1112.737</ele>
        <time>2020-05-23T13:04:10Z</time>
      </trkpt>
      <trkpt lat="43.154600" lon="-5.900530">
        <ele>1112.686</ele>
        <time>2020-05-23T13:04:30Z</time>
      </trkpt>
      <trkpt lat="43.154650" lon="-5.900570">
        <ele>1112.819</ele>
        <time>2020-05-23T13:04:50Z</time>
      </trkpt>
      <trkpt lat="43.154730" lon="-5.900610">
        <ele>1112.948</ele>
        <time>2020-05-23T13:05:10Z</time>
      </trkpt>
      <trkpt lat="43.154770" lon="-5.900630">
        <ele>1113.061</ele>
        <time>2020-05-23T13:05:30Z</time>
      </trkpt>
      <trkpt lat="43.154810" lon="-5.900650">
        <ele>1113.217</ele>
        <time>2020-05-23T13:05:50Z</time>
      </trkpt>
      <trkpt lat="43.154840" lon="-5.900660">
        <ele>1113.208</ele>
        <time>2020-05-23T13:06:10Z</time>
      </trkpt>
      <trkpt lat="43.154880" lon="-5.900660">
        <ele>1113.088</ele>
        <time>2020-05-23T13:06:30Z</time>
      </trkpt>
      <trkpt lat="43.154930" lon="-5.900670">
        <ele>1113.073</ele>
        <time>2020-05-23T13:06:50Z</time>
      </trkpt>
      <trkpt lat="43.154970" lon="-5.900670">
        <ele>1112.930</ele>
        <time>2020-05-23T13:07:10Z</time>
      </trkpt>
      <trkpt lat="43.155060" lon="-5.900650">
        <ele>1112.126</ele>
        <time>2020-05-23T13:07:30Z</time>
      </trkpt>
      <trkpt lat="43.155140" lon="-5.900630">
        <ele>1111.545</ele>
        <time>2020-05-23T13:07:50Z</time>
      </trkpt>
      <trkpt lat="43.155200" lon="-5.900600">
        <ele>1110.676</ele>
        <time>2020-05-23T13:08:10Z</time>
      </trkpt>
      <trkpt lat="43.155260" lon="-5.900570">
        <ele>1109.565</ele>
        <time>2020-05-23T13:08:30Z</time>
      </trkpt>
      <trkpt lat="43.155300" lon="-5.900550">
        <ele>1109.528</ele>
        <time>2020-05-23T13:08:50Z</time>
      </trkpt>
      <trkpt lat="43.155340" lon="-5.900510">
        <ele>1109.474</ele>
        <time>2020-05-23T13:09:10Z</time>
      </trkpt>
      <trkpt lat="43.155390" lon="-5.900460">
        <ele>1109.356</ele>
        <time>2020-05-23T13:09:30Z</time>
      </trkpt>
      <trkpt lat="43.155420" lon="-5.900420">
        <ele>1109.021</ele>
        <time>2020-05-23T13:09:50Z</time>
      </trkpt>
      <trkpt lat="43.155460" lon="-5.900360">
        <ele>1108.408</ele>
        <time>2020-05-23T13:10:10Z</time>
      </trkpt>
      <trkpt lat="43.155520" lon="-5.900210">
        <ele>1106.381</ele>
        <time>2020-05-23T13:10:30Z</time>
      </trkpt>
      <trkpt lat="43.155800" lon="-5.899420">
        <ele>1100.266</ele>
        <time>2020-05-23T13:10:50Z</time>
      </trkpt>
      <trkpt lat="43.156050" lon="-5.898700">
        <ele>1098.433</ele>
        <time>2020-05-23T13:11:10Z</time>
      </trkpt>
      <trkpt lat="43.156140" lon="-5.898470">
        <ele>1098.259</ele>
        <time>2020-05-23T13:11:30Z</time>
      </trkpt>
      <trkpt lat="43.156200" lon="-5.898320">
        <ele>1098.248</ele>
        <time>2020-05-23T13:11:50Z</time>
      </trkpt>
      <trkpt lat="43.156230" lon="-5.898240">
        <ele>1097.319</ele>
        <time>2020-05-23T13:12:10Z</time>
      </trkpt>
      <trkpt lat="43.156350" lon="-5.897980">
        <ele>1093.968</ele>
        <time>2020-05-23T13:12:30Z</time>
      </trkpt>
      <trkpt lat="43.156450" lon="-5.897840">
        <ele>1092.741</ele>
        <time>2020-05-23T13:12:50Z</time>
      </trkpt>
      <trkpt lat="43.156560" lon="-5.897740">
        <ele>1091.536</ele>
        <time>2020-05-23T13:13:10Z</time>
      </trkpt>
      <trkpt lat="43.156640" lon="-5.897690">
        <ele>1091.717</ele>
        <time>2020-05-23T13:13:30Z</time>
      </trkpt>
      <trkpt lat="43.156700" lon="-5.897670">
        <ele>1091.418</ele>
        <time>2020-05-23T13:13:50Z</time>
      </trkpt>
      <trkpt lat="43.156730" lon="-5.897660">
        <ele>1090.908</ele>
        <time>2020-05-23T13:14:10Z</time>
      </trkpt>
      <trkpt lat="43.156780" lon="-5.897660">
        <ele>1090.557</ele>
        <time>2020-05-23T13:14:30Z</time>
      </trkpt>
      <trkpt lat="43.156820" lon="-5.897670">
        <ele>1090.342</ele>
        <time>2020-05-23T13:14:50Z</time>
      </trkpt>
      <trkpt lat="43.156950" lon="-5.897730">
        <ele>1089.529</ele>
        <time>2020-05-23T13:15:10Z</time>
      </trkpt>
      <trkpt lat="43.157010" lon="-5.897780">
        <ele>1087.965</ele>
        <time>2020-05-23T13:15:30Z</time>
      </trkpt>
      <trkpt lat="43.157080" lon="-5.897860">
        <ele>1087.774</ele>
        <time>2020-05-23T13:15:50Z</time>
      </trkpt>
      <trkpt lat="43.157170" lon="-5.897990">
        <ele>1086.175</ele>
        <time>2020-05-23T13:16:10Z</time>
      </trkpt>
      <trkpt lat="43.157250" lon="-5.898140">
        <ele>1083.594</ele>
        <time>2020-05-23T13:16:30Z</time>
      </trkpt>
      <trkpt lat="43.157270" lon="-5.898180">
        <ele>1083.057</ele>
        <time>2020-05-23T13:16:50Z</time>
      </trkpt>
      <trkpt lat="43.157360" lon="-5.898330">
        <ele>1081.593</ele>
        <time>2020-05-23T13:17:10Z</time>
      </trkpt>
      <trkpt lat="43.157450" lon="-5.898500">
        <ele>1081.565</ele>
        <time>2020-05-23T13:17:30Z</time>
      </trkpt>
      <trkpt lat="43.157550" lon="-5.898630">
        <ele>1080.621</ele>
        <time>2020-05-23T13:17:50Z</time>
      </trkpt>
      <trkpt lat="43.157730" lon="-5.898860">
        <ele>1079.708</ele>
        <time>2020-05-23T13:18:10Z</time>
      </trkpt>
      <trkpt lat="43.157740" lon="-5.898880">
        <ele>1079.963</ele>
        <time>2020-05-23T13:18:30Z</time>
      </trkpt>
      <trkpt lat="43.157760" lon="-5.898910">
        <ele>1079.848</ele>
        <time>2020-05-23T13:18:50Z</time>
      </trkpt>
      <trkpt lat="43.157860" lon="-5.899040">
        <ele>1076.495</ele>
        <time>2020-05-23T13:19:10Z</time>
      </trkpt>
      <trkpt lat="43.157880" lon="-5.899080">
        <ele>1076.211</ele>
        <time>2020-05-23T13:19:30Z</time>
      </trkpt>
      <trkpt lat="43.157880" lon="-5.899090">
        <ele>1076.460</ele>
        <time>2020-05-23T13:19:50Z</time>
      </trkpt>
      <trkpt lat="43.157890" lon="-5.899110">
        <ele>1076.441</ele>
        <time>2020-05-23T13:20:10Z</time>
      </trkpt>
      <trkpt lat="43.157900" lon="-5.899130">
        <ele>1076.370</ele>
        <time>2020-05-23T13:20:30Z</time>
      </trkpt>
      <trkpt lat="43.157920" lon="-5.899170">
        <ele>1076.413</ele>
        <time>2020-05-23T13:20:50Z</time>
      </trkpt>
      <trkpt lat="43.157920" lon="-5.899200">
        <ele>1076.735</ele>
        <time>2020-05-23T13:21:10Z</time>
      </trkpt>
      <trkpt lat="43.157930" lon="-5.899230">
        <ele>1076.686</ele>
        <time>2020-05-23T13:21:30Z</time>
      </trkpt>
      <trkpt lat="43.157940" lon="-5.899270">
        <ele>1076.514</ele>
        <time>2020-05-23T13:21:50Z</time>
      </trkpt>
      <trkpt lat="43.157940" lon="-5.899310">
        <ele>1077.008</ele>
        <time>2020-05-23T13:22:10Z</time>
      </trkpt>
      <trkpt lat="43.157950" lon="-5.899340">
        <ele>1076.877</ele>
        <time>2020-05-23T13:22:30Z</time>
      </trkpt>
      <trkpt lat="43.157950" lon="-5.899380">
        <ele>1077.262</ele>
        <time>2020-05-23T13:22:50Z</time>
      </trkpt>
      <trkpt lat="43.157950" lon="-5.899430">
        <ele>1077.859</ele>
        <time>2020-05-23T13:23:10Z</time>
      </trkpt>
      <trkpt lat="43.157950" lon="-5.899480">
        <ele>1078.025</ele>
        <time>2020-05-23T13:23:30Z</time>
      </trkpt>
      <trkpt lat="43.157940" lon="-5.899530">
        <ele>1078.714</ele>
        <time>2020-05-23T13:23:50Z</time>
      </trkpt>
      <trkpt lat="43.157930" lon="-5.899630">
        <ele>1079.545</ele>
        <time>2020-05-23T13:24:10Z</time>
      </trkpt>
      <trkpt lat="43.157930" lon="-5.899770">
        <ele>1079.914</ele>
        <time>2020-05-23T13:24:30Z</time>
      </trkpt>
      <trkpt lat="43.157920" lon="-5.899830">
        <ele>1080.727</ele>
        <time>2020-05-23T13:24:50Z</time>
      </trkpt>
      <trkpt lat="43.157930" lon="-5.899900">
        <ele>1080.471</ele>
        <time>2020-05-23T13:25:10Z</time>
      </trkpt>
      <trkpt lat="43.157930" lon="-5.899960">
        <ele>1080.641</ele>
        <time>2020-05-23T13:25:30Z</time>
      </trkpt>
      <trkpt lat="43.157940" lon="-5.900000">
        <ele>1080.115</ele>
        <time>2020-05-23T13:25:50Z</time>
      </trkpt>
      <trkpt lat="43.157950" lon="-5.900040">
        <ele>1080.208</ele>
        <time>2020-05-23T13:26:10Z</time>
      </trkpt>
      <trkpt lat="43.157950" lon="-5.900050">
        <ele>1080.461</ele>
        <time>2020-05-23T13:26:30Z</time>
      </trkpt>
      <trkpt lat="43.157960" lon="-5.900080">
        <ele>1080.346</ele>
        <time>2020-05-23T13:26:50Z</time>
      </trkpt>
      <trkpt lat="43.157980" lon="-5.900120">
        <ele>1079.863</ele>
        <time>2020-05-23T13:27:10Z</time>
      </trkpt>
      <trkpt lat="43.158000" lon="-5.900160">
        <ele>1079.339</ele>
        <time>2020-05-23T13:27:30Z</time>
      </trkpt>
      <trkpt lat="43.158040" lon="-5.900190">
        <ele>1077.478</ele>
        <time>2020-05-23T13:27:50Z</time>
      </trkpt>
      <trkpt lat="43.158070" lon="-5.900220">
        <ele>1076.749</ele>
        <time>2020-05-23T13:28:10Z</time>
      </trkpt>
      <trkpt lat="43.158080" lon="-5.900220">
        <ele>1076.528</ele>
        <time>2020-05-23T13:28:30Z</time>
      </trkpt>
      <trkpt lat="43.158120" lon="-5.900230">
        <ele>1076.011</ele>
        <time>2020-05-23T13:28:50Z</time>
      </trkpt>
      <trkpt lat="43.158160" lon="-5.900250">
        <ele>1075.792</ele>
        <time>2020-05-23T13:29:10Z</time>
      </trkpt>
      <trkpt lat="43.158200" lon="-5.900260">
        <ele>1075.173</ele>
        <time>2020-05-23T13:29:30Z</time>
      </trkpt>
      <trkpt lat="43.158240" lon="-5.900260">
        <ele>1074.420</ele>
        <time>2020-05-23T13:29:50Z</time>
      </trkpt>
      <trkpt lat="43.158250" lon="-5.900260">
        <ele>1074.208</ele>
        <time>2020-05-23T13:30:10Z</time>
      </trkpt>
      <trkpt lat="43.158300" lon="-5.900270">
        <ele>1073.593</ele>
        <time>2020-05-23T13:30:30Z</time>
      </trkpt>
      <trkpt lat="43.158430" lon="-5.900290">
        <ele>1072.388</ele>
        <time>2020-05-23T13:30:50Z</time>
      </trkpt>
      <trkpt lat="43.158780" lon="-5.900340">
        <ele>1069.085</ele>
        <time>2020-05-23T13:31:10Z</time>
      </trkpt>
      <trkpt lat="43.158940" lon="-5.900360">
        <ele>1066.941</ele>
        <time>2020-05-23T13:31:30Z</time>
      </trkpt>
      <trkpt lat="43.159180" lon="-5.900390">
        <ele>1063.360</ele>
        <time>2020-05-23T13:31:50Z</time>
      </trkpt>
      <trkpt lat="43.159250" lon="-5.900400">
        <ele>1062.681</ele>
        <time>2020-05-23T13:32:10Z</time>
      </trkpt>
      <trkpt lat="43.159280" lon="-5.900400">
        <ele>1062.340</ele>
        <time>2020-05-23T13:32:30Z</time>
      </trkpt>
      <trkpt lat="43.159320" lon="-5.900400">
        <ele>1061.883</ele>
        <time>2020-05-23T13:32:50Z</time>
      </trkpt>
      <trkpt lat="43.159350" lon="-5.900390">
        <ele>1061.398</ele>
        <time>2020-05-23T13:33:10Z</time>
      </trkpt>
      <trkpt lat="43.159380" lon="-5.900380">
        <ele>1060.815</ele>
        <time>2020-05-23T13:33:30Z</time>
      </trkpt>
      <trkpt lat="43.159400" lon="-5.900370">
        <ele>1060.526</ele>
        <time>2020-05-23T13:33:50Z</time>
      </trkpt>
      <trkpt lat="43.159420" lon="-5.900360">
        <ele>1060.108</ele>
        <time>2020-05-23T13:34:10Z</time>
      </trkpt>
      <trkpt lat="43.159440" lon="-5.900340">
        <ele>1059.743</ele>
        <time>2020-05-23T13:34:30Z</time>
      </trkpt>
      <trkpt lat="43.159470" lon="-5.900320">
        <ele>1059.948</ele>
        <time>2020-05-23T13:34:50Z</time>
      </trkpt>
      <trkpt lat="43.159490" lon="-5.900300">
        <ele>1059.985</ele>
        <time>2020-05-23T13:35:10Z</time>
      </trkpt>
      <trkpt lat="43.159510" lon="-5.900280">
        <ele>1060.051</ele>
        <time>2020-05-23T13:35:30Z</time>
      </trkpt>
      <trkpt lat="43.159540" lon="-5.900240">
        <ele>1059.910</ele>
        <time>2020-05-23T13:35:50Z</time>
      </trkpt>
      <trkpt lat="43.159570" lon="-5.900210">
        <ele>1060.041</ele>
        <time>2020-05-23T13:36:10Z</time>
      </trkpt>
      <trkpt lat="43.159580" lon="-5.900190">
        <ele>1059.890</ele>
        <time>2020-05-23T13:36:30Z</time>
      </trkpt>
      <trkpt lat="43.159590" lon="-5.900160">
        <ele>1059.653</ele>
        <time>2020-05-23T13:36:50Z</time>
      </trkpt>
      <trkpt lat="43.159600" lon="-5.900140">
        <ele>1059.541</ele>
        <time>2020-05-23T13:37:10Z</time>
      </trkpt>
      <trkpt lat="43.159610" lon="-5.900120">
        <ele>1059.381</ele>
        <time>2020-05-23T13:37:30Z</time>
      </trkpt>
      <trkpt lat="43.159610" lon="-5.900110">
        <ele>1059.209</ele>
        <time>2020-05-23T13:37:50Z</time>
      </trkpt>
      <trkpt lat="43.159620" lon="-5.900090">
        <ele>1059.108</ele>
        <time>2020-05-23T13:38:10Z</time>
      </trkpt>
      <trkpt lat="43.159630" lon="-5.900040">
        <ele>1058.558</ele>
        <time>2020-05-23T13:38:30Z</time>
      </trkpt>
      <trkpt lat="43.159640" lon="-5.899990">
        <ele>1058.033</ele>
        <time>2020-05-23T13:38:50Z</time>
      </trkpt>
      <trkpt lat="43.159650" lon="-5.899950">
        <ele>1057.690</ele>
        <time>2020-05-23T13:39:10Z</time>
      </trkpt>
      <trkpt lat="43.159660" lon="-5.899900">
        <ele>1057.056</ele>
        <time>2020-05-23T13:39:30Z</time>
      </trkpt>
      <trkpt lat="43.159680" lon="-5.899860">
        <ele>1056.795</ele>
        <time>2020-05-23T13:39:50Z</time>
      </trkpt>
      <trkpt lat="43.159710" lon="-5.899790">
        <ele>1055.936</ele>
        <time>2020-05-23T13:40:10Z</time>
      </trkpt>
      <trkpt lat="43.159730" lon="-5.899700">
        <ele>1055.135</ele>
        <time>2020-05-23T13:40:30Z</time>
      </trkpt>
      <trkpt lat="43.159750" lon="-5.899650">
        <ele>1055.598</ele>
        <time>2020-05-23T13:40:50Z</time>
      </trkpt>
      <trkpt lat="43.159780" lon="-5.899600">
        <ele>1056.536</ele>
        <time>2020-05-23T13:41:10Z</time>
      </trkpt>
      <trkpt lat="43.159800" lon="-5.899540">
        <ele>1056.717</ele>
        <time>2020-05-23T13:41:30Z</time>
      </trkpt>
      <trkpt lat="43.159920" lon="-5.898970">
        <ele>1049.118</ele>
        <time>2020-05-23T13:41:50Z</time>
      </trkpt>
      <trkpt lat="43.159950" lon="-5.898840">
        <ele>1047.408</ele>
        <time>2020-05-23T13:42:10Z</time>
      </trkpt>
      <trkpt lat="43.159980" lon="-5.898700">
        <ele>1046.417</ele>
        <time>2020-05-23T13:42:30Z</time>
      </trkpt>
      <trkpt lat="43.160070" lon="-5.898300">
        <ele>1043.832</ele>
        <time>2020-05-23T13:42:50Z</time>
      </trkpt>
      <trkpt lat="43.160100" lon="-5.898090">
        <ele>1041.969</ele>
        <time>2020-05-23T13:43:10Z</time>
      </trkpt>
      <trkpt lat="43.160120" lon="-5.897850">
        <ele>1040.255</ele>
        <time>2020-05-23T13:43:30Z</time>
      </trkpt>
      <trkpt lat="43.160130" lon="-5.897780">
        <ele>1040.054</ele>
        <time>2020-05-23T13:43:50Z</time>
      </trkpt>
      <trkpt lat="43.160160" lon="-5.897510">
        <ele>1039.315</ele>
        <time>2020-05-23T13:44:10Z</time>
      </trkpt>
      <trkpt lat="43.160180" lon="-5.897310">
        <ele>1037.244</ele>
        <time>2020-05-23T13:44:30Z</time>
      </trkpt>
      <trkpt lat="43.160190" lon="-5.897210">
        <ele>1036.067</ele>
        <time>2020-05-23T13:44:50Z</time>
      </trkpt>
      <trkpt lat="43.160220" lon="-5.896940">
        <ele>1030.498</ele>
        <time>2020-05-23T13:45:10Z</time>
      </trkpt>
      <trkpt lat="43.160270" lon="-5.896620">
        <ele>1026.815</ele>
        <time>2020-05-23T13:45:30Z</time>
      </trkpt>
      <trkpt lat="43.160280" lon="-5.896560">
        <ele>1026.226</ele>
        <time>2020-05-23T13:45:50Z</time>
      </trkpt>
      <trkpt lat="43.160360" lon="-5.896170">
        <ele>1022.908</ele>
        <time>2020-05-23T13:46:10Z</time>
      </trkpt>
      <trkpt lat="43.160420" lon="-5.895830">
        <ele>1018.573</ele>
        <time>2020-05-23T13:46:30Z</time>
      </trkpt>
      <trkpt lat="43.160460" lon="-5.895550">
        <ele>1014.858</ele>
        <time>2020-05-23T13:46:50Z</time>
      </trkpt>
      <trkpt lat="43.160510" lon="-5.895320">
        <ele>1013.055</ele>
        <time>2020-05-23T13:47:10Z</time>
      </trkpt>
      <trkpt lat="43.160520" lon="-5.895280">
        <ele>1012.821</ele>
        <time>2020-05-23T13:47:30Z</time>
      </trkpt>
      <trkpt lat="43.160550" lon="-5.895150">
        <ele>1011.540</ele>
        <time>2020-05-23T13:47:50Z</time>
      </trkpt>
      <trkpt lat="43.160560" lon="-5.895130">
        <ele>1011.511</ele>
        <time>2020-05-23T13:48:10Z</time>
      </trkpt>
      <trkpt lat="43.160590" lon="-5.895040">
        <ele>1010.450</ele>
        <time>2020-05-23T13:48:30Z</time>
      </trkpt>
      <trkpt lat="43.160660" lon="-5.894920">
        <ele>1008.673</ele>
        <time>2020-05-23T13:48:50Z</time>
      </trkpt>
      <trkpt lat="43.160710" lon="-5.894850">
        <ele>1007.379</ele>
        <time>2020-05-23T13:49:10Z</time>
      </trkpt>
      <trkpt lat="43.160780" lon="-5.894780">
        <ele>1005.705</ele>
        <time>2020-05-23T13:49:30Z</time>
      </trkpt>
      <trkpt lat="43.160880" lon="-5.894720">
        <ele>1003.525</ele>
        <time>2020-05-23T13:49:50Z</time>
      </trkpt>
      <trkpt lat="43.161000" lon="-5.894710">
        <ele>1002.008</ele>
        <time>2020-05-23T13:50:10Z</time>
      </trkpt>
      <trkpt lat="43.161080" lon="-5.894710">
        <ele>1001.191</ele>
        <time>2020-05-23T13:50:30Z</time>
      </trkpt>
      <trkpt lat="43.161140" lon="-5.894730">
        <ele>1000.416</ele>
        <time>2020-05-23T13:50:50Z</time>
      </trkpt>
      <trkpt lat="43.161160" lon="-5.894730">
        <ele>999.733</ele>
        <time>2020-05-23T13:51:10Z</time>
      </trkpt>
      <trkpt lat="43.161310" lon="-5.894820">
        <ele>997.949</ele>
        <time>2020-05-23T13:51:30Z</time>
      </trkpt>
      <trkpt lat="43.161420" lon="-5.894880">
        <ele>996.028</ele>
        <time>2020-05-23T13:51:50Z</time>
      </trkpt>
      <trkpt lat="43.161530" lon="-5.894940">
        <ele>994.079</ele>
        <time>2020-05-23T13:52:10Z</time>
      </trkpt>
      <trkpt lat="43.161600" lon="-5.894980">
        <ele>992.888</ele>
        <time>2020-05-23T13:52:30Z</time>
      </trkpt>
      <trkpt lat="43.161740" lon="-5.895040">
        <ele>989.851</ele>
        <time>2020-05-23T13:52:50Z</time>
      </trkpt>
      <trkpt lat="43.161810" lon="-5.895060">
        <ele>988.459</ele>
        <time>2020-05-23T13:53:10Z</time>
      </trkpt>
      <trkpt lat="43.161820" lon="-5.895060">
        <ele>988.203</ele>
        <time>2020-05-23T13:53:30Z</time>
      </trkpt>
      <trkpt lat="43.161890" lon="-5.895060">
        <ele>986.623</ele>
        <time>2020-05-23T13:53:50Z</time>
      </trkpt>
      <trkpt lat="43.161940" lon="-5.895050">
        <ele>985.508</ele>
        <time>2020-05-23T13:54:10Z</time>
      </trkpt>
      <trkpt lat="43.161990" lon="-5.895030">
        <ele>986.019</ele>
        <time>2020-05-23T13:54:30Z</time>
      </trkpt>
      <trkpt lat="43.162070" lon="-5.894970">
        <ele>985.984</ele>
        <time>2020-05-23T13:54:50Z</time>
      </trkpt>
      <trkpt lat="43.162140" lon="-5.894910">
        <ele>985.131</ele>
        <time>2020-05-23T13:55:10Z</time>
      </trkpt>
      <trkpt lat="43.162190" lon="-5.894860">
        <ele>984.417</ele>
        <time>2020-05-23T13:55:30Z</time>
      </trkpt>
      <trkpt lat="43.162240" lon="-5.894750">
        <ele>982.426</ele>
        <time>2020-05-23T13:55:50Z</time>
      </trkpt>
      <trkpt lat="43.162270" lon="-5.894680">
        <ele>981.747</ele>
        <time>2020-05-23T13:56:10Z</time>
      </trkpt>
      <trkpt lat="43.162290" lon="-5.894620">
        <ele>981.386</ele>
        <time>2020-05-23T13:56:30Z</time>
      </trkpt>
      <trkpt lat="43.162310" lon="-5.894470">
        <ele>979.389</ele>
        <time>2020-05-23T13:56:50Z</time>
      </trkpt>
      <trkpt lat="43.162320" lon="-5.894450">
        <ele>979.394</ele>
        <time>2020-05-23T13:57:10Z</time>
      </trkpt>
      <trkpt lat="43.162330" lon="-5.894230">
        <ele>976.357</ele>
        <time>2020-05-23T13:57:30Z</time>
      </trkpt>
      <trkpt lat="43.162350" lon="-5.893840">
        <ele>971.422</ele>
        <time>2020-05-23T13:57:50Z</time>
      </trkpt>
      <trkpt lat="43.162370" lon="-5.893300">
        <ele>970.608</ele>
        <time>2020-05-23T13:58:10Z</time>
      </trkpt>
      <trkpt lat="43.162380" lon="-5.893210">
        <ele>970.313</ele>
        <time>2020-05-23T13:58:30Z</time>
      </trkpt>
      <trkpt lat="43.162400" lon="-5.892830">
        <ele>968.418</ele>
        <time>2020-05-23T13:58:50Z</time>
      </trkpt>
      <trkpt lat="43.162420" lon="-5.892560">
        <ele>966.555</ele>
        <time>2020-05-23T13:59:10Z</time>
      </trkpt>
      <trkpt lat="43.162460" lon="-5.892300">
        <ele>962.421</ele>
        <time>2020-05-23T13:59:30Z</time>
      </trkpt>
      <trkpt lat="43.162530" lon="-5.892050">
        <ele>958.460</ele>
        <time>2020-05-23T13:59:50Z</time>
      </trkpt>
      <trkpt lat="43.162610" lon="-5.891810">
        <ele>954.071</ele>
        <time>2020-05-23T14:00:10Z</time>
      </trkpt>
      <trkpt lat="43.162680" lon="-5.891620">
        <ele>951.910</ele>
        <time>2020-05-23T14:00:30Z</time>
      </trkpt>
      <trkpt lat="43.162760" lon="-5.891400">
        <ele>951.523</ele>
        <time>2020-05-23T14:00:50Z</time>
      </trkpt>
      <trkpt lat="43.162800" lon="-5.891290">
        <ele>950.792</ele>
        <time>2020-05-23T14:01:10Z</time>
      </trkpt>
      <trkpt lat="43.163040" lon="-5.890670">
        <ele>945.673</ele>
        <time>2020-05-23T14:01:30Z</time>
      </trkpt>
      <trkpt lat="43.163140" lon="-5.890340">
        <ele>942.920</ele>
        <time>2020-05-23T14:01:50Z</time>
      </trkpt>
      <trkpt lat="43.163160" lon="-5.890240">
        <ele>942.008</ele>
        <time>2020-05-23T14:02:10Z</time>
      </trkpt>
      <trkpt lat="43.163170" lon="-5.890150">
        <ele>941.153</ele>
        <time>2020-05-23T14:02:30Z</time>
      </trkpt>
      <trkpt lat="43.163190" lon="-5.890070">
        <ele>940.898</ele>
        <time>2020-05-23T14:02:50Z</time>
      </trkpt>
      <trkpt lat="43.163190" lon="-5.889930">
        <ele>939.795</ele>
        <time>2020-05-23T14:03:10Z</time>
      </trkpt>
      <trkpt lat="43.163190" lon="-5.889850">
        <ele>939.541</ele>
        <time>2020-05-23T14:03:30Z</time>
      </trkpt>
      <trkpt lat="43.163180" lon="-5.889770">
        <ele>939.050</ele>
        <time>2020-05-23T14:03:50Z</time>
      </trkpt>
      <trkpt lat="43.163170" lon="-5.889670">
        <ele>938.481</ele>
        <time>2020-05-23T14:04:10Z</time>
      </trkpt>
      <trkpt lat="43.163150" lon="-5.889560">
        <ele>937.490</ele>
        <time>2020-05-23T14:04:30Z</time>
      </trkpt>
      <trkpt lat="43.163110" lon="-5.889440">
        <ele>935.493</ele>
        <time>2020-05-23T14:04:50Z</time>
      </trkpt>
      <trkpt lat="43.163080" lon="-5.889340">
        <ele>934.487</ele>
        <time>2020-05-23T14:05:10Z</time>
      </trkpt>
      <trkpt lat="43.163020" lon="-5.889170">
        <ele>932.542</ele>
        <time>2020-05-23T14:05:30Z</time>
      </trkpt>
      <trkpt lat="43.162960" lon="-5.889050">
        <ele>931.326</ele>
        <time>2020-05-23T14:05:50Z</time>
      </trkpt>
      <trkpt lat="43.162890" lon="-5.888910">
        <ele>930.208</ele>
        <time>2020-05-23T14:06:10Z</time>
      </trkpt>
      <trkpt lat="43.162630" lon="-5.888480">
        <ele>926.832</ele>
        <time>2020-05-23T14:06:30Z</time>
      </trkpt>
      <trkpt lat="43.162330" lon="-5.888000">
        <ele>919.617</ele>
        <time>2020-05-23T14:06:50Z</time>
      </trkpt>
      <trkpt lat="43.162140" lon="-5.887710">
        <ele>915.434</ele>
        <time>2020-05-23T14:07:10Z</time>
      </trkpt>
      <trkpt lat="43.161890" lon="-5.887350">
        <ele>911.110</ele>
        <time>2020-05-23T14:07:30Z</time>
      </trkpt>
      <trkpt lat="43.161600" lon="-5.886960">
        <ele>907.339</ele>
        <time>2020-05-23T14:07:50Z</time>
      </trkpt>
      <trkpt lat="43.161250" lon="-5.886490">
        <ele>904.310</ele>
        <time>2020-05-23T14:08:10Z</time>
      </trkpt>
      <trkpt lat="43.160990" lon="-5.886140">
        <ele>898.879</ele>
        <time>2020-05-23T14:08:30Z</time>
      </trkpt>
      <trkpt lat="43.160920" lon="-5.886050">
        <ele>897.152</ele>
        <time>2020-05-23T14:08:50Z</time>
      </trkpt>
      <trkpt lat="43.160780" lon="-5.885860">
        <ele>892.638</ele>
        <time>2020-05-23T14:09:10Z</time>
      </trkpt>
      <trkpt lat="43.160630" lon="-5.885670">
        <ele>890.670</ele>
        <time>2020-05-23T14:09:30Z</time>
      </trkpt>
      <trkpt lat="43.160600" lon="-5.885630">
        <ele>890.217</ele>
        <time>2020-05-23T14:09:50Z</time>
      </trkpt>
      <trkpt lat="43.160480" lon="-5.885450">
        <ele>889.108</ele>
        <time>2020-05-23T14:10:10Z</time>
      </trkpt>
      <trkpt lat="43.160420" lon="-5.885380">
        <ele>887.917</ele>
        <time>2020-05-23T14:10:30Z</time>
      </trkpt>
      <trkpt lat="43.160300" lon="-5.885200">
        <ele>884.582</ele>
        <time>2020-05-23T14:10:50Z</time>
      </trkpt>
      <trkpt lat="43.160270" lon="-5.885120">
        <ele>883.349</ele>
        <time>2020-05-23T14:11:10Z</time>
      </trkpt>
      <trkpt lat="43.160250" lon="-5.885060">
        <ele>883.135</ele>
        <time>2020-05-23T14:11:30Z</time>
      </trkpt>
      <trkpt lat="43.160230" lon="-5.885020">
        <ele>883.094</ele>
        <time>2020-05-23T14:11:50Z</time>
      </trkpt>
      <trkpt lat="43.160220" lon="-5.884960">
        <ele>882.635</ele>
        <time>2020-05-23T14:12:10Z</time>
      </trkpt>
      <trkpt lat="43.160220" lon="-5.884940">
        <ele>882.414</ele>
        <time>2020-05-23T14:12:30Z</time>
      </trkpt>
      <trkpt lat="43.160220" lon="-5.884880">
        <ele>881.967</ele>
        <time>2020-05-23T14:12:50Z</time>
      </trkpt>
      <trkpt lat="43.160230" lon="-5.884830">
        <ele>881.713</ele>
        <time>2020-05-23T14:13:10Z</time>
      </trkpt>
      <trkpt lat="43.160230" lon="-5.884780">
        <ele>881.343</ele>
        <time>2020-05-23T14:13:30Z</time>
      </trkpt>
      <trkpt lat="43.160250" lon="-5.884680">
        <ele>880.107</ele>
        <time>2020-05-23T14:13:50Z</time>
      </trkpt>
      <trkpt lat="43.160270" lon="-5.884590">
        <ele>878.408</ele>
        <time>2020-05-23T14:14:10Z</time>
      </trkpt>
      <trkpt lat="43.160330" lon="-5.884380">
        <ele>876.565</ele>
        <time>2020-05-23T14:14:30Z</time>
      </trkpt>
      <trkpt lat="43.160400" lon="-5.884190">
        <ele>875.250</ele>
        <time>2020-05-23T14:14:50Z</time>
      </trkpt>
      <trkpt lat="43.160450" lon="-5.884010">
        <ele>872.437</ele>
        <time>2020-05-23T14:15:10Z</time>
      </trkpt>
      <trkpt lat="43.160460" lon="-5.883940">
        <ele>870.693</ele>
        <time>2020-05-23T14:15:30Z</time>
      </trkpt>
      <trkpt lat="43.160470" lon="-5.883840">
        <ele>868.492</ele>
        <time>2020-05-23T14:15:50Z</time>
      </trkpt>
      <trkpt lat="43.160470" lon="-5.883760">
        <ele>866.863</ele>
        <time>2020-05-23T14:16:10Z</time>
      </trkpt>
      <trkpt lat="43.160470" lon="-5.883680">
        <ele>865.392</ele>
        <time>2020-05-23T14:16:30Z</time>
      </trkpt>
      <trkpt lat="43.160470" lon="-5.883610">
        <ele>863.925</ele>
        <time>2020-05-23T14:16:50Z</time>
      </trkpt>
      <trkpt lat="43.160460" lon="-5.883540">
        <ele>863.181</ele>
        <time>2020-05-23T14:17:10Z</time>
      </trkpt>
      <trkpt lat="43.160440" lon="-5.883440">
        <ele>862.061</ele>
        <time>2020-05-23T14:17:30Z</time>
      </trkpt>
      <trkpt lat="43.160410" lon="-5.883340">
        <ele>860.917</ele>
        <time>2020-05-23T14:17:50Z</time>
      </trkpt>
      <trkpt lat="43.160360" lon="-5.883230">
        <ele>861.608</ele>
        <time>2020-05-23T14:18:10Z</time>
      </trkpt>
      <trkpt lat="43.160270" lon="-5.883060">
        <ele>860.732</ele>
        <time>2020-05-23T14:18:30Z</time>
      </trkpt>
      <trkpt lat="43.160160" lon="-5.882920">
        <ele>859.887</ele>
        <time>2020-05-23T14:18:50Z</time>
      </trkpt>
      <trkpt lat="43.160030" lon="-5.882800">
        <ele>856.234</ele>
        <time>2020-05-23T14:19:10Z</time>
      </trkpt>
      <trkpt lat="43.159860" lon="-5.882680">
        <ele>851.040</ele>
        <time>2020-05-23T14:19:30Z</time>
      </trkpt>
      <trkpt lat="43.159850" lon="-5.882680">
        <ele>850.769</ele>
        <time>2020-05-23T14:19:50Z</time>
      </trkpt>
      <trkpt lat="43.159770" lon="-5.882640">
        <ele>848.960</ele>
        <time>2020-05-23T14:20:10Z</time>
      </trkpt>
      <trkpt lat="43.159700" lon="-5.882610">
        <ele>847.639</ele>
        <time>2020-05-23T14:20:30Z</time>
      </trkpt>
      <trkpt lat="43.159480" lon="-5.882510">
        <ele>847.082</ele>
        <time>2020-05-23T14:20:50Z</time>
      </trkpt>
      <trkpt lat="43.159330" lon="-5.882480">
        <ele>845.626</ele>
        <time>2020-05-23T14:21:10Z</time>
      </trkpt>
      <trkpt lat="43.159250" lon="-5.882470">
        <ele>844.547</ele>
        <time>2020-05-23T14:21:30Z</time>
      </trkpt>
      <trkpt lat="43.159120" lon="-5.882450">
        <ele>843.011</ele>
        <time>2020-05-23T14:21:50Z</time>
      </trkpt>
      <trkpt lat="43.158850" lon="-5.882420">
        <ele>839.708</ele>
        <time>2020-05-23T14:22:10Z</time>
      </trkpt>
      <trkpt lat="43.158620" lon="-5.882390">
        <ele>837.396</ele>
        <time>2020-05-23T14:22:30Z</time>
      </trkpt>
      <trkpt lat="43.158530" lon="-5.882380">
        <ele>835.921</ele>
        <time>2020-05-23T14:22:50Z</time>
      </trkpt>
      <trkpt lat="43.158280" lon="-5.882330">
        <ele>831.998</ele>
        <time>2020-05-23T14:23:10Z</time>
      </trkpt>
      <trkpt lat="43.158090" lon="-5.882240">
        <ele>828.654</ele>
        <time>2020-05-23T14:23:30Z</time>
      </trkpt>
      <trkpt lat="43.157910" lon="-5.882090">
        <ele>827.923</ele>
        <time>2020-05-23T14:23:50Z</time>
      </trkpt>
      <trkpt lat="43.157790" lon="-5.881980">
        <ele>826.454</ele>
        <time>2020-05-23T14:24:10Z</time>
      </trkpt>
      <trkpt lat="43.157770" lon="-5.881960">
        <ele>826.193</ele>
        <time>2020-05-23T14:24:30Z</time>
      </trkpt>
      <trkpt lat="43.157720" lon="-5.881910">
        <ele>825.736</ele>
        <time>2020-05-23T14:24:50Z</time>
      </trkpt>
      <trkpt lat="43.157600" lon="-5.881770">
        <ele>824.034</ele>
        <time>2020-05-23T14:25:10Z</time>
      </trkpt>
      <trkpt lat="43.157510" lon="-5.881620">
        <ele>821.755</ele>
        <time>2020-05-23T14:25:30Z</time>
      </trkpt>
      <trkpt lat="43.157450" lon="-5.881520">
        <ele>819.610</ele>
        <time>2020-05-23T14:25:50Z</time>
      </trkpt>
      <trkpt lat="43.157420" lon="-5.881420">
        <ele>819.808</ele>
        <time>2020-05-23T14:26:10Z</time>
      </trkpt>
      <trkpt lat="43.157400" lon="-5.881280">
        <ele>819.017</ele>
        <time>2020-05-23T14:26:30Z</time>
      </trkpt>
      <trkpt lat="43.157380" lon="-5.881200">
        <ele>817.892</ele>
        <time>2020-05-23T14:26:50Z</time>
      </trkpt>
      <trkpt lat="43.157380" lon="-5.881070">
        <ele>817.429</ele>
        <time>2020-05-23T14:27:10Z</time>
      </trkpt>
      <trkpt lat="43.157370" lon="-5.880950">
        <ele>815.945</ele>
        <time>2020-05-23T14:27:30Z</time>
      </trkpt>
      <trkpt lat="43.157370" lon="-5.880930">
        <ele>815.734</ele>
        <time>2020-05-23T14:27:50Z</time>
      </trkpt>
      <trkpt lat="43.157360" lon="-5.880800">
        <ele>814.475</ele>
        <time>2020-05-23T14:28:10Z</time>
      </trkpt>
      <trkpt lat="43.157350" lon="-5.880710">
        <ele>813.874</ele>
        <time>2020-05-23T14:28:30Z</time>
      </trkpt>
      <trkpt lat="43.157350" lon="-5.880690">
        <ele>813.847</ele>
        <time>2020-05-23T14:28:50Z</time>
      </trkpt>
      <trkpt lat="43.157330" lon="-5.880570">
        <ele>812.751</ele>
        <time>2020-05-23T14:29:10Z</time>
      </trkpt>
      <trkpt lat="43.157300" lon="-5.880480">
        <ele>812.101</ele>
        <time>2020-05-23T14:29:30Z</time>
      </trkpt>
      <trkpt lat="43.157290" lon="-5.880470">
        <ele>811.711</ele>
        <time>2020-05-23T14:29:50Z</time>
      </trkpt>
      <trkpt lat="43.157270" lon="-5.880400">
        <ele>811.208</ele>
        <time>2020-05-23T14:30:10Z</time>
      </trkpt>
      <trkpt lat="43.157130" lon="-5.879920">
        <ele>809.029</ele>
        <time>2020-05-23T14:30:30Z</time>
      </trkpt>
      <trkpt lat="43.157060" lon="-5.879690">
        <ele>805.084</ele>
        <time>2020-05-23T14:30:50Z</time>
      </trkpt>
      <trkpt lat="43.157000" lon="-5.879480">
        <ele>798.251</ele>
        <time>2020-05-23T14:31:10Z</time>
      </trkpt>
      <trkpt lat="43.156970" lon="-5.879380">
        <ele>796.487</ele>
        <time>2020-05-23T14:31:30Z</time>
      </trkpt>
      <trkpt lat="43.156940" lon="-5.879290">
        <ele>795.346</ele>
        <time>2020-05-23T14:31:50Z</time>
      </trkpt>
      <trkpt lat="43.156940" lon="-5.879270">
        <ele>795.217</ele>
        <time>2020-05-23T14:32:10Z</time>
      </trkpt>
      <trkpt lat="43.156890" lon="-5.879130">
        <ele>792.976</ele>
        <time>2020-05-23T14:32:30Z</time>
      </trkpt>
      <trkpt lat="43.156870" lon="-5.879040">
        <ele>791.979</ele>
        <time>2020-05-23T14:32:50Z</time>
      </trkpt>
      <trkpt lat="43.156860" lon="-5.878990">
        <ele>791.599</ele>
        <time>2020-05-23T14:33:10Z</time>
      </trkpt>
      <trkpt lat="43.156840" lon="-5.878870">
        <ele>790.907</ele>
        <time>2020-05-23T14:33:30Z</time>
      </trkpt>
      <trkpt lat="43.156840" lon="-5.878790">
        <ele>791.727</ele>
        <time>2020-05-23T14:33:50Z</time>
      </trkpt>
      <trkpt lat="43.156830" lon="-5.878720">
        <ele>792.108</ele>
        <time>2020-05-23T14:34:10Z</time>
      </trkpt>
      <trkpt lat="43.156810" lon="-5.878590">
        <ele>792.833</ele>
        <time>2020-05-23T14:34:30Z</time>
      </trkpt>
      <trkpt lat="43.156790" lon="-5.878480">
        <ele>793.418</ele>
        <time>2020-05-23T14:34:50Z</time>
      </trkpt>
      <trkpt lat="43.156760" lon="-5.878390">
        <ele>793.045</ele>
        <time>2020-05-23T14:35:10Z</time>
      </trkpt>
      <trkpt lat="43.156720" lon="-5.878310">
        <ele>792.041</ele>
        <time>2020-05-23T14:35:30Z</time>
      </trkpt>
      <trkpt lat="43.156670" lon="-5.878220">
        <ele>791.620</ele>
        <time>2020-05-23T14:35:50Z</time>
      </trkpt>
      <trkpt lat="43.156610" lon="-5.878120">
        <ele>791.541</ele>
        <time>2020-05-23T14:36:10Z</time>
      </trkpt>
      <trkpt lat="43.156540" lon="-5.878040">
        <ele>790.580</ele>
        <time>2020-05-23T14:36:30Z</time>
      </trkpt>
      <trkpt lat="43.156450" lon="-5.877930">
        <ele>790.143</ele>
        <time>2020-05-23T14:36:50Z</time>
      </trkpt>
      <trkpt lat="43.156310" lon="-5.877780">
        <ele>788.553</ele>
        <time>2020-05-23T14:37:10Z</time>
      </trkpt>
      <trkpt lat="43.156200" lon="-5.877690">
        <ele>786.104</ele>
        <time>2020-05-23T14:37:30Z</time>
      </trkpt>
      <trkpt lat="43.156120" lon="-5.877620">
        <ele>784.414</ele>
        <time>2020-05-23T14:37:50Z</time>
      </trkpt>
      <trkpt lat="43.156100" lon="-5.877610">
        <ele>783.808</ele>
        <time>2020-05-23T14:38:10Z</time>
      </trkpt>
      <trkpt lat="43.155960" lon="-5.877520">
        <ele>779.789</ele>
        <time>2020-05-23T14:38:30Z</time>
      </trkpt>
      <trkpt lat="43.155960" lon="-5.877510">
        <ele>779.824</ele>
        <time>2020-05-23T14:38:50Z</time>
      </trkpt>
      <trkpt lat="43.155880" lon="-5.877450">
        <ele>776.971</ele>
        <time>2020-05-23T14:39:10Z</time>
      </trkpt>
      <trkpt lat="43.155810" lon="-5.877380">
        <ele>775.267</ele>
        <time>2020-05-23T14:39:30Z</time>
      </trkpt>
      <trkpt lat="43.155740" lon="-5.877280">
        <ele>774.846</ele>
        <time>2020-05-23T14:39:50Z</time>
      </trkpt>
      <trkpt lat="43.155580" lon="-5.877010">
        <ele>769.517</ele>
        <time>2020-05-23T14:40:10Z</time>
      </trkpt>
      <trkpt lat="43.155480" lon="-5.876790">
        <ele>765.926</ele>
        <time>2020-05-23T14:40:30Z</time>
      </trkpt>
      <trkpt lat="43.155430" lon="-5.876690">
        <ele>764.039</ele>
        <time>2020-05-23T14:40:50Z</time>
      </trkpt>
      <trkpt lat="43.155330" lon="-5.876490">
        <ele>760.693</ele>
        <time>2020-05-23T14:41:10Z</time>
      </trkpt>
      <trkpt lat="43.155240" lon="-5.876310">
        <ele>757.965</ele>
        <time>2020-05-23T14:41:30Z</time>
      </trkpt>
      <trkpt lat="43.155220" lon="-5.876270">
        <ele>757.321</ele>
        <time>2020-05-23T14:41:50Z</time>
      </trkpt>
      <trkpt lat="43.155160" lon="-5.876150">
        <ele>755.908</ele>
        <time>2020-05-23T14:42:10Z</time>
      </trkpt>
      <trkpt lat="43.155130" lon="-5.876060">
        <ele>755.983</ele>
        <time>2020-05-23T14:42:30Z</time>
      </trkpt>
      <trkpt lat="43.155090" lon="-5.875960">
        <ele>755.518</ele>
        <time>2020-05-23T14:42:50Z</time>
      </trkpt>
      <trkpt lat="43.155050" lon="-5.875780">
        <ele>755.375</ele>
        <time>2020-05-23T14:43:10Z</time>
      </trkpt>
      <trkpt lat="43.155030" lon="-5.875650">
        <ele>754.431</ele>
        <time>2020-05-23T14:43:30Z</time>
      </trkpt>
      <trkpt lat="43.155030" lon="-5.875550">
        <ele>754.330</ele>
        <time>2020-05-23T14:43:50Z</time>
      </trkpt>
      <trkpt lat="43.155040" lon="-5.875420">
        <ele>752.211</ele>
        <time>2020-05-23T14:44:10Z</time>
      </trkpt>
      <trkpt lat="43.155080" lon="-5.875280">
        <ele>750.610</ele>
        <time>2020-05-23T14:44:30Z</time>
      </trkpt>
      <trkpt lat="43.155110" lon="-5.875170">
        <ele>748.583</ele>
        <time>2020-05-23T14:44:50Z</time>
      </trkpt>
      <trkpt lat="43.155130" lon="-5.875120">
        <ele>747.515</ele>
        <time>2020-05-23T14:45:10Z</time>
      </trkpt>
      <trkpt lat="43.155150" lon="-5.875090">
        <ele>747.065</ele>
        <time>2020-05-23T14:45:30Z</time>
      </trkpt>
      <trkpt lat="43.155230" lon="-5.874960">
        <ele>744.311</ele>
        <time>2020-05-23T14:45:50Z</time>
      </trkpt>
      <trkpt lat="43.155310" lon="-5.874860">
        <ele>742.808</ele>
        <time>2020-05-23T14:46:10Z</time>
      </trkpt>
      <trkpt lat="43.155390" lon="-5.874780">
        <ele>741.335</ele>
        <time>2020-05-23T14:46:30Z</time>
      </trkpt>
      <trkpt lat="43.155410" lon="-5.874760">
        <ele>741.060</ele>
        <time>2020-05-23T14:46:50Z</time>
      </trkpt>
      <trkpt lat="43.155520" lon="-5.874660">
        <ele>738.977</ele>
        <time>2020-05-23T14:47:10Z</time>
      </trkpt>
      <trkpt lat="43.155540" lon="-5.874650">
        <ele>738.823</ele>
        <time>2020-05-23T14:47:30Z</time>
      </trkpt>
      <trkpt lat="43.155680" lon="-5.874520">
        <ele>737.342</ele>
        <time>2020-05-23T14:47:50Z</time>
      </trkpt>
      <trkpt lat="43.155690" lon="-5.874510">
        <ele>737.213</ele>
        <time>2020-05-23T14:48:10Z</time>
      </trkpt>
      <trkpt lat="43.155830" lon="-5.874360">
        <ele>735.212</ele>
        <time>2020-05-23T14:48:30Z</time>
      </trkpt>
      <trkpt lat="43.155880" lon="-5.874310">
        <ele>734.715</ele>
        <time>2020-05-23T14:48:50Z</time>
      </trkpt>
      <trkpt lat="43.155970" lon="-5.874200">
        <ele>732.788</ele>
        <time>2020-05-23T14:49:10Z</time>
      </trkpt>
      <trkpt lat="43.156090" lon="-5.874040">
        <ele>730.324</ele>
        <time>2020-05-23T14:49:30Z</time>
      </trkpt>
      <trkpt lat="43.156180" lon="-5.873920">
        <ele>728.826</ele>
        <time>2020-05-23T14:49:50Z</time>
      </trkpt>
      <trkpt lat="43.156250" lon="-5.873800">
        <ele>727.608</ele>
        <time>2020-05-23T14:50:10Z</time>
      </trkpt>
      <trkpt lat="43.156310" lon="-5.873660">
        <ele>726.382</ele>
        <time>2020-05-23T14:50:30Z</time>
      </trkpt>
      <trkpt lat="43.156360" lon="-5.873460">
        <ele>723.647</ele>
        <time>2020-05-23T14:50:50Z</time>
      </trkpt>
      <trkpt lat="43.156370" lon="-5.873400">
        <ele>722.894</ele>
        <time>2020-05-23T14:51:10Z</time>
      </trkpt>
      <trkpt lat="43.156380" lon="-5.873290">
        <ele>721.840</ele>
        <time>2020-05-23T14:51:30Z</time>
      </trkpt>
      <trkpt lat="43.156380" lon="-5.873170">
        <ele>721.759</ele>
        <time>2020-05-23T14:51:50Z</time>
      </trkpt>
      <trkpt lat="43.156360" lon="-5.873060">
        <ele>721.150</ele>
        <time>2020-05-23T14:52:10Z</time>
      </trkpt>
      <trkpt lat="43.156340" lon="-5.872930">
        <ele>721.229</ele>
        <time>2020-05-23T14:52:30Z</time>
      </trkpt>
      <trkpt lat="43.156320" lon="-5.872840">
        <ele>720.922</ele>
        <time>2020-05-23T14:52:50Z</time>
      </trkpt>
      <trkpt lat="43.156280" lon="-5.872740">
        <ele>719.982</ele>
        <time>2020-05-23T14:53:10Z</time>
      </trkpt>
      <trkpt lat="43.156220" lon="-5.872620">
        <ele>718.243</ele>
        <time>2020-05-23T14:53:30Z</time>
      </trkpt>
      <trkpt lat="43.156100" lon="-5.872420">
        <ele>716.917</ele>
        <time>2020-05-23T14:53:50Z</time>
      </trkpt>
      <trkpt lat="43.155860" lon="-5.872080">
        <ele>716.908</ele>
        <time>2020-05-23T14:54:10Z</time>
      </trkpt>
      <trkpt lat="43.155670" lon="-5.871810">
        <ele>715.672</ele>
        <time>2020-05-23T14:54:30Z</time>
      </trkpt>
      <trkpt lat="43.155440" lon="-5.871490">
        <ele>710.877</ele>
        <time>2020-05-23T14:54:50Z</time>
      </trkpt>
      <trkpt lat="43.155400" lon="-5.871430">
        <ele>710.124</ele>
        <time>2020-05-23T14:55:10Z</time>
      </trkpt>
      <trkpt lat="43.155250" lon="-5.871220">
        <ele>705.040</ele>
        <time>2020-05-23T14:55:30Z</time>
      </trkpt>
      <trkpt lat="43.155210" lon="-5.871150">
        <ele>704.249</ele>
        <time>2020-05-23T14:55:50Z</time>
      </trkpt>
      <trkpt lat="43.155170" lon="-5.871060">
        <ele>703.250</ele>
        <time>2020-05-23T14:56:10Z</time>
      </trkpt>
      <trkpt lat="43.155140" lon="-5.870970">
        <ele>702.399</ele>
        <time>2020-05-23T14:56:30Z</time>
      </trkpt>
      <trkpt lat="43.155120" lon="-5.870860">
        <ele>702.232</ele>
        <time>2020-05-23T14:56:50Z</time>
      </trkpt>
      <trkpt lat="43.155110" lon="-5.870760">
        <ele>700.439</ele>
        <time>2020-05-23T14:57:10Z</time>
      </trkpt>
      <trkpt lat="43.155130" lon="-5.870650">
        <ele>698.801</ele>
        <time>2020-05-23T14:57:30Z</time>
      </trkpt>
      <trkpt lat="43.155140" lon="-5.870590">
        <ele>697.821</ele>
        <time>2020-05-23T14:57:50Z</time>
      </trkpt>
      <trkpt lat="43.155160" lon="-5.870540">
        <ele>697.108</ele>
        <time>2020-05-23T14:58:10Z</time>
      </trkpt>
      <trkpt lat="43.155230" lon="-5.870410">
        <ele>694.957</ele>
        <time>2020-05-23T14:58:30Z</time>
      </trkpt>
      <trkpt lat="43.155250" lon="-5.870390">
        <ele>694.882</ele>
        <time>2020-05-23T14:58:50Z</time>
      </trkpt>
      <trkpt lat="43.155290" lon="-5.870340">
        <ele>694.399</ele>
        <time>2020-05-23T14:59:10Z</time>
      </trkpt>
      <trkpt lat="43.155350" lon="-5.870260">
        <ele>692.725</ele>
        <time>2020-05-23T14:59:30Z</time>
      </trkpt>
      <trkpt lat="43.155550" lon="-5.870060">
        <ele>689.194</ele>
        <time>2020-05-23T14:59:50Z</time>
      </trkpt>
      <trkpt lat="43.155630" lon="-5.869980">
        <ele>687.155</ele>
        <time>2020-05-23T15:00:10Z</time>
      </trkpt>
      <trkpt lat="43.155680" lon="-5.869940">
        <ele>686.594</ele>
        <time>2020-05-23T15:00:30Z</time>
      </trkpt>
      <trkpt lat="43.155980" lon="-5.869620">
        <ele>682.077</ele>
        <time>2020-05-23T15:00:50Z</time>
      </trkpt>
      <trkpt lat="43.156220" lon="-5.869370">
        <ele>678.568</ele>
        <time>2020-05-23T15:01:10Z</time>
      </trkpt>
      <trkpt lat="43.156460" lon="-5.869110">
        <ele>677.342</ele>
        <time>2020-05-23T15:01:30Z</time>
      </trkpt>
      <trkpt lat="43.156600" lon="-5.868940">
        <ele>675.726</ele>
        <time>2020-05-23T15:01:50Z</time>
      </trkpt>
      <trkpt lat="43.156660" lon="-5.868860">
        <ele>674.508</ele>
        <time>2020-05-23T15:02:10Z</time>
      </trkpt>
      <trkpt lat="43.156700" lon="-5.868810">
        <ele>674.480</ele>
        <time>2020-05-23T15:02:30Z</time>
      </trkpt>
      <trkpt lat="43.156780" lon="-5.868680">
        <ele>673.045</ele>
        <time>2020-05-23T15:02:50Z</time>
      </trkpt>
      <trkpt lat="43.156850" lon="-5.868540">
        <ele>670.212</ele>
        <time>2020-05-23T15:03:10Z</time>
      </trkpt>
      <trkpt lat="43.156870" lon="-5.868470">
        <ele>668.798</ele>
        <time>2020-05-23T15:03:30Z</time>
      </trkpt>
      <trkpt lat="43.156900" lon="-5.868390">
        <ele>667.487</ele>
        <time>2020-05-23T15:03:50Z</time>
      </trkpt>
      <trkpt lat="43.156930" lon="-5.868240">
        <ele>665.318</ele>
        <time>2020-05-23T15:04:10Z</time>
      </trkpt>
      <trkpt lat="43.156950" lon="-5.868180">
        <ele>664.987</ele>
        <time>2020-05-23T15:04:30Z</time>
      </trkpt>
      <trkpt lat="43.156960" lon="-5.868000">
        <ele>663.020</ele>
        <time>2020-05-23T15:04:50Z</time>
      </trkpt>
      <trkpt lat="43.156940" lon="-5.867810">
        <ele>661.962</ele>
        <time>2020-05-23T15:05:10Z</time>
      </trkpt>
      <trkpt lat="43.156890" lon="-5.867650">
        <ele>661.783</ele>
        <time>2020-05-23T15:05:30Z</time>
      </trkpt>
      <trkpt lat="43.156830" lon="-5.867550">
        <ele>661.011</ele>
        <time>2020-05-23T15:05:50Z</time>
      </trkpt>
      <trkpt lat="43.156800" lon="-5.867510">
        <ele>660.608</ele>
        <time>2020-05-23T15:06:10Z</time>
      </trkpt>
      <trkpt lat="43.156700" lon="-5.867400">
        <ele>660.770</ele>
        <time>2020-05-23T15:06:30Z</time>
      </trkpt>
      <trkpt lat="43.156690" lon="-5.867390">
        <ele>660.675</ele>
        <time>2020-05-23T15:06:50Z</time>
      </trkpt>
      <trkpt lat="43.156600" lon="-5.867330">
        <ele>658.442</ele>
        <time>2020-05-23T15:07:10Z</time>
      </trkpt>
      <trkpt lat="43.156440" lon="-5.867220">
        <ele>654.528</ele>
        <time>2020-05-23T15:07:30Z</time>
      </trkpt>
      <trkpt lat="43.156190" lon="-5.867070">
        <ele>651.997</ele>
        <time>2020-05-23T15:07:50Z</time>
      </trkpt>
      <trkpt lat="43.156000" lon="-5.866920">
        <ele>650.098</ele>
        <time>2020-05-23T15:08:10Z</time>
      </trkpt>
      <trkpt lat="43.155940" lon="-5.866850">
        <ele>649.617</ele>
        <time>2020-05-23T15:08:30Z</time>
      </trkpt>
      <trkpt lat="43.155880" lon="-5.866760">
        <ele>647.410</ele>
        <time>2020-05-23T15:08:50Z</time>
      </trkpt>
      <trkpt lat="43.155850" lon="-5.866680">
        <ele>645.473</ele>
        <time>2020-05-23T15:09:10Z</time>
      </trkpt>
      <trkpt lat="43.155840" lon="-5.866600">
        <ele>644.385</ele>
        <time>2020-05-23T15:09:30Z</time>
      </trkpt>
      <trkpt lat="43.155820" lon="-5.866540">
        <ele>643.413</ele>
        <time>2020-05-23T15:09:50Z</time>
      </trkpt>
      <trkpt lat="43.155820" lon="-5.866350">
        <ele>642.108</ele>
        <time>2020-05-23T15:10:10Z</time>
      </trkpt>
      <trkpt lat="43.155850" lon="-5.866170">
        <ele>640.051</ele>
        <time>2020-05-23T15:10:30Z</time>
      </trkpt>
      <trkpt lat="43.155950" lon="-5.865840">
        <ele>634.896</ele>
        <time>2020-05-23T15:10:50Z</time>
      </trkpt>
      <trkpt lat="43.156030" lon="-5.865650">
        <ele>632.353</ele>
        <time>2020-05-23T15:11:10Z</time>
      </trkpt>
      <trkpt lat="43.156080" lon="-5.865510">
        <ele>630.619</ele>
        <time>2020-05-23T15:11:30Z</time>
      </trkpt>
      <trkpt lat="43.156100" lon="-5.865380">
        <ele>628.748</ele>
        <time>2020-05-23T15:11:50Z</time>
      </trkpt>
      <trkpt lat="43.156110" lon="-5.865150">
        <ele>626.039</ele>
        <time>2020-05-23T15:12:10Z</time>
      </trkpt>
      <trkpt lat="43.156100" lon="-5.865030">
        <ele>624.728</ele>
        <time>2020-05-23T15:12:30Z</time>
      </trkpt>
      <trkpt lat="43.156070" lon="-5.864890">
        <ele>623.451</ele>
        <time>2020-05-23T15:12:50Z</time>
      </trkpt>
      <trkpt lat="43.156020" lon="-5.864730">
        <ele>622.061</ele>
        <time>2020-05-23T15:13:10Z</time>
      </trkpt>
      <trkpt lat="43.155950" lon="-5.864590">
        <ele>622.021</ele>
        <time>2020-05-23T15:13:30Z</time>
      </trkpt>
      <trkpt lat="43.155830" lon="-5.864420">
        <ele>619.413</ele>
        <time>2020-05-23T15:13:50Z</time>
      </trkpt>
      <trkpt lat="43.155790" lon="-5.864340">
        <ele>619.008</ele>
        <time>2020-05-23T15:14:10Z</time>
      </trkpt>
      <trkpt lat="43.155730" lon="-5.864230">
        <ele>618.130</ele>
        <time>2020-05-23T15:14:30Z</time>
      </trkpt>
      <trkpt lat="43.155670" lon="-5.864080">
        <ele>617.165</ele>
        <time>2020-05-23T15:14:50Z</time>
      </trkpt>
      <trkpt lat="43.155630" lon="-5.863910">
        <ele>616.432</ele>
        <time>2020-05-23T15:15:10Z</time>
      </trkpt>
      <trkpt lat="43.155640" lon="-5.863780">
        <ele>614.998</ele>
        <time>2020-05-23T15:15:30Z</time>
      </trkpt>
      <trkpt lat="43.155660" lon="-5.863600">
        <ele>611.897</ele>
        <time>2020-05-23T15:15:50Z</time>
      </trkpt>
      <trkpt lat="43.155670" lon="-5.863500">
        <ele>608.768</ele>
        <time>2020-05-23T15:16:10Z</time>
      </trkpt>
      <trkpt lat="43.155690" lon="-5.863410">
        <ele>606.127</ele>
        <time>2020-05-23T15:16:30Z</time>
      </trkpt>
      <trkpt lat="43.155720" lon="-5.863250">
        <ele>602.620</ele>
        <time>2020-05-23T15:16:50Z</time>
      </trkpt>
      <trkpt lat="43.155770" lon="-5.862950">
        <ele>599.361</ele>
        <time>2020-05-23T15:17:10Z</time>
      </trkpt>
      <trkpt lat="43.155800" lon="-5.862760">
        <ele>598.221</ele>
        <time>2020-05-23T15:17:30Z</time>
      </trkpt>
      <trkpt lat="43.155810" lon="-5.862690">
        <ele>598.013</ele>
        <time>2020-05-23T15:17:50Z</time>
      </trkpt>
      <trkpt lat="43.155820" lon="-5.862580">
        <ele>597.208</ele>
        <time>2020-05-23T15:18:10Z</time>
      </trkpt>
      <trkpt lat="43.155820" lon="-5.862380">
        <ele>596.520</ele>
        <time>2020-05-23T15:18:30Z</time>
      </trkpt>
      <trkpt lat="43.155800" lon="-5.862150">
        <ele>595.915</ele>
        <time>2020-05-23T15:18:50Z</time>
      </trkpt>
      <trkpt lat="43.155760" lon="-5.861880">
        <ele>594.872</ele>
        <time>2020-05-23T15:19:10Z</time>
      </trkpt>
      <trkpt lat="43.155720" lon="-5.861720">
        <ele>593.978</ele>
        <time>2020-05-23T15:19:30Z</time>
      </trkpt>
      <trkpt lat="43.155690" lon="-5.861590">
        <ele>592.757</ele>
        <time>2020-05-23T15:19:50Z</time>
      </trkpt>
      <trkpt lat="43.155610" lon="-5.861340">
        <ele>588.548</ele>
        <time>2020-05-23T15:20:10Z</time>
      </trkpt>
      <trkpt lat="43.155490" lon="-5.861080">
        <ele>585.947</ele>
        <time>2020-05-23T15:20:30Z</time>
      </trkpt>
      <trkpt lat="43.155330" lon="-5.860840">
        <ele>582.760</ele>
        <time>2020-05-23T15:20:50Z</time>
      </trkpt>
      <trkpt lat="43.155150" lon="-5.860640">
        <ele>580.239</ele>
        <time>2020-05-23T15:21:10Z</time>
      </trkpt>
      <trkpt lat="43.155070" lon="-5.860590">
        <ele>578.101</ele>
        <time>2020-05-23T15:21:30Z</time>
      </trkpt>
      <trkpt lat="43.154770" lon="-5.860350">
        <ele>573.121</ele>
        <time>2020-05-23T15:21:50Z</time>
      </trkpt>
      <trkpt lat="43.154630" lon="-5.860260">
        <ele>570.608</ele>
        <time>2020-05-23T15:22:10Z</time>
      </trkpt>
      <trkpt lat="43.154600" lon="-5.860230">
        <ele>570.577</ele>
        <time>2020-05-23T15:22:30Z</time>
      </trkpt>
      <trkpt lat="43.154510" lon="-5.860140">
        <ele>569.342</ele>
        <time>2020-05-23T15:22:50Z</time>
      </trkpt>
      <trkpt lat="43.154470" lon="-5.860070">
        <ele>569.049</ele>
        <time>2020-05-23T15:23:10Z</time>
      </trkpt>
      <trkpt lat="43.154450" lon="-5.860030">
        <ele>568.735</ele>
        <time>2020-05-23T15:23:30Z</time>
      </trkpt>
      <trkpt lat="43.154420" lon="-5.859960">
        <ele>568.134</ele>
        <time>2020-05-23T15:23:50Z</time>
      </trkpt>
      <trkpt lat="43.154410" lon="-5.859890">
        <ele>567.875</ele>
        <time>2020-05-23T15:24:10Z</time>
      </trkpt>
      <trkpt lat="43.154410" lon="-5.859840">
        <ele>567.914</ele>
        <time>2020-05-23T15:24:30Z</time>
      </trkpt>
      <trkpt lat="43.154400" lon="-5.859820">
        <ele>567.737</ele>
        <time>2020-05-23T15:24:50Z</time>
      </trkpt>
      <trkpt lat="43.154400" lon="-5.859740">
        <ele>567.831</ele>
        <time>2020-05-23T15:25:10Z</time>
      </trkpt>
      <trkpt lat="43.154410" lon="-5.859650">
        <ele>566.861</ele>
        <time>2020-05-23T15:25:30Z</time>
      </trkpt>
      <trkpt lat="43.154450" lon="-5.859550">
        <ele>565.407</ele>
        <time>2020-05-23T15:25:50Z</time>
      </trkpt>
      <trkpt lat="43.154490" lon="-5.859460">
        <ele>563.908</ele>
        <time>2020-05-23T15:26:10Z</time>
      </trkpt>
      <trkpt lat="43.154540" lon="-5.859410">
        <ele>563.227</ele>
        <time>2020-05-23T15:26:30Z</time>
      </trkpt>
      <trkpt lat="43.154580" lon="-5.859370">
        <ele>562.262</ele>
        <time>2020-05-23T15:26:50Z</time>
      </trkpt>
      <trkpt lat="43.154630" lon="-5.859340">
        <ele>561.219</ele>
        <time>2020-05-23T15:27:10Z</time>
      </trkpt>
      <trkpt lat="43.154680" lon="-5.859320">
        <ele>560.345</ele>
        <time>2020-05-23T15:27:30Z</time>
      </trkpt>
      <trkpt lat="43.154700" lon="-5.859310">
        <ele>559.814</ele>
        <time>2020-05-23T15:27:50Z</time>
      </trkpt>
      <trkpt lat="43.154760" lon="-5.859310">
        <ele>559.055</ele>
        <time>2020-05-23T15:28:10Z</time>
      </trkpt>
      <trkpt lat="43.155000" lon="-5.859360">
        <ele>556.764</ele>
        <time>2020-05-23T15:28:30Z</time>
      </trkpt>
      <trkpt lat="43.155240" lon="-5.859420">
        <ele>551.417</ele>
        <time>2020-05-23T15:28:50Z</time>
      </trkpt>
      <trkpt lat="43.155270" lon="-5.859420">
        <ele>550.531</ele>
        <time>2020-05-23T15:29:10Z</time>
      </trkpt>
      <trkpt lat="43.155360" lon="-5.859430">
        <ele>549.461</ele>
        <time>2020-05-23T15:29:30Z</time>
      </trkpt>
      <trkpt lat="43.155420" lon="-5.859430">
        <ele>548.507</ele>
        <time>2020-05-23T15:29:50Z</time>
      </trkpt>
      <trkpt lat="43.155430" lon="-5.859430">
        <ele>548.408</ele>
        <time>2020-05-23T15:30:10Z</time>
      </trkpt>
      <trkpt lat="43.155560" lon="-5.859390">
        <ele>545.437</ele>
        <time>2020-05-23T15:30:30Z</time>
      </trkpt>
      <trkpt lat="43.155620" lon="-5.859350">
        <ele>544.262</ele>
        <time>2020-05-23T15:30:50Z</time>
      </trkpt>
      <trkpt lat="43.155690" lon="-5.859300">
        <ele>543.199</ele>
        <time>2020-05-23T15:31:10Z</time>
      </trkpt>
      <trkpt lat="43.155760" lon="-5.859200">
        <ele>541.715</ele>
        <time>2020-05-23T15:31:30Z</time>
      </trkpt>
      <trkpt lat="43.155810" lon="-5.859110">
        <ele>540.824</ele>
        <time>2020-05-23T15:31:50Z</time>
      </trkpt>
      <trkpt lat="43.155840" lon="-5.859020">
        <ele>540.125</ele>
        <time>2020-05-23T15:32:10Z</time>
      </trkpt>
      <trkpt lat="43.155860" lon="-5.858870">
        <ele>539.134</ele>
        <time>2020-05-23T15:32:30Z</time>
      </trkpt>
      <trkpt lat="43.155880" lon="-5.858790">
        <ele>539.787</ele>
        <time>2020-05-23T15:32:50Z</time>
      </trkpt>
      <trkpt lat="43.155880" lon="-5.858760">
        <ele>539.651</ele>
        <time>2020-05-23T15:33:10Z</time>
      </trkpt>
      <trkpt lat="43.155880" lon="-5.858640">
        <ele>539.301</ele>
        <time>2020-05-23T15:33:30Z</time>
      </trkpt>
      <trkpt lat="43.155870" lon="-5.858550">
        <ele>538.711</ele>
        <time>2020-05-23T15:33:50Z</time>
      </trkpt>
      <trkpt lat="43.155860" lon="-5.858390">
        <ele>538.408</ele>
        <time>2020-05-23T15:34:10Z</time>
      </trkpt>
      <trkpt lat="43.155810" lon="-5.858170">
        <ele>536.399</ele>
        <time>2020-05-23T15:34:30Z</time>
      </trkpt>
      <trkpt lat="43.155740" lon="-5.858000">
        <ele>534.894</ele>
        <time>2020-05-23T15:34:50Z</time>
      </trkpt>
      <trkpt lat="43.155670" lon="-5.857870">
        <ele>531.941</ele>
        <time>2020-05-23T15:35:10Z</time>
      </trkpt>
      <trkpt lat="43.155600" lon="-5.857770">
        <ele>528.317</ele>
        <time>2020-05-23T15:35:30Z</time>
      </trkpt>
      <trkpt lat="43.155500" lon="-5.857630">
        <ele>525.486</ele>
        <time>2020-05-23T15:35:50Z</time>
      </trkpt>
      <trkpt lat="43.155410" lon="-5.857530">
        <ele>524.177</ele>
        <time>2020-05-23T15:36:10Z</time>
      </trkpt>
      <trkpt lat="43.155120" lon="-5.857260">
        <ele>521.546</ele>
        <time>2020-05-23T15:36:30Z</time>
      </trkpt>
      <trkpt lat="43.155020" lon="-5.857170">
        <ele>520.439</ele>
        <time>2020-05-23T15:36:50Z</time>
      </trkpt>
      <trkpt lat="43.154960" lon="-5.857130">
        <ele>519.326</ele>
        <time>2020-05-23T15:37:10Z</time>
      </trkpt>
      <trkpt lat="43.154710" lon="-5.856930">
        <ele>514.247</ele>
        <time>2020-05-23T15:37:30Z</time>
      </trkpt>
      <trkpt lat="43.154460" lon="-5.856740">
        <ele>510.611</ele>
        <time>2020-05-23T15:37:50Z</time>
      </trkpt>
      <trkpt lat="43.154230" lon="-5.856550">
        <ele>508.108</ele>
        <time>2020-05-23T15:38:10Z</time>
      </trkpt>
      <trkpt lat="43.154190" lon="-5.856500">
        <ele>507.766</ele>
        <time>2020-05-23T15:38:30Z</time>
      </trkpt>
      <trkpt lat="43.154160" lon="-5.856470">
        <ele>507.071</ele>
        <time>2020-05-23T15:38:50Z</time>
      </trkpt>
      <trkpt lat="43.154110" lon="-5.856380">
        <ele>507.718</ele>
        <time>2020-05-23T15:39:10Z</time>
      </trkpt>
      <trkpt lat="43.154070" lon="-5.856290">
        <ele>507.594</ele>
        <time>2020-05-23T15:39:30Z</time>
      </trkpt>
      <trkpt lat="43.154060" lon="-5.856270">
        <ele>507.463</ele>
        <time>2020-05-23T15:39:50Z</time>
      </trkpt>
      <trkpt lat="43.154060" lon="-5.856250">
        <ele>507.544</ele>
        <time>2020-05-23T15:40:10Z</time>
      </trkpt>
      <trkpt lat="43.154050" lon="-5.856220">
        <ele>507.563</ele>
        <time>2020-05-23T15:40:30Z</time>
      </trkpt>
      <trkpt lat="43.154050" lon="-5.856180">
        <ele>507.836</ele>
        <time>2020-05-23T15:40:50Z</time>
      </trkpt>
      <trkpt lat="43.154030" lon="-5.855990">
        <ele>504.125</ele>
        <time>2020-05-23T15:41:10Z</time>
      </trkpt>
      <trkpt lat="43.154030" lon="-5.855920">
        <ele>502.126</ele>
        <time>2020-05-23T15:41:30Z</time>
      </trkpt>
      <trkpt lat="43.154040" lon="-5.855830">
        <ele>499.808</ele>
        <time>2020-05-23T15:41:50Z</time>
      </trkpt>
      <trkpt lat="43.154040" lon="-5.855820">
        <ele>499.608</ele>
        <time>2020-05-23T15:42:10Z</time>
      </trkpt>
      <trkpt lat="43.154050" lon="-5.855750">
        <ele>498.446</ele>
        <time>2020-05-23T15:42:30Z</time>
      </trkpt>
      <trkpt lat="43.154050" lon="-5.855660">
        <ele>496.461</ele>
        <time>2020-05-23T15:42:50Z</time>
      </trkpt>
      <trkpt lat="43.154040" lon="-5.855580">
        <ele>494.388</ele>
        <time>2020-05-23T15:43:10Z</time>
      </trkpt>
      <trkpt lat="43.154040" lon="-5.855560">
        <ele>493.984</ele>
        <time>2020-05-23T15:43:30Z</time>
      </trkpt>
      <trkpt lat="43.154040" lon="-5.855490">
        <ele>493.883</ele>
        <time>2020-05-23T15:43:50Z</time>
      </trkpt>
      <trkpt lat="43.154040" lon="-5.855460">
        <ele>493.884</ele>
        <time>2020-05-23T15:44:10Z</time>
      </trkpt>
      <trkpt lat="43.154020" lon="-5.855370">
        <ele>493.333</ele>
        <time>2020-05-23T15:44:30Z</time>
      </trkpt>
      <trkpt lat="43.154010" lon="-5.855310">
        <ele>492.966</ele>
        <time>2020-05-23T15:44:50Z</time>
      </trkpt>
      <trkpt lat="43.153990" lon="-5.855270">
        <ele>492.454</ele>
        <time>2020-05-23T15:45:10Z</time>
      </trkpt>
      <trkpt lat="43.153980" lon="-5.855230">
        <ele>492.856</ele>
        <time>2020-05-23T15:45:30Z</time>
      </trkpt>
      <trkpt lat="43.153960" lon="-5.855180">
        <ele>492.911</ele>
        <time>2020-05-23T15:45:50Z</time>
      </trkpt>
      <trkpt lat="43.153950" lon="-5.855170">
        <ele>492.708</ele>
        <time>2020-05-23T15:46:10Z</time>
      </trkpt>
      <trkpt lat="43.153930" lon="-5.855140">
        <ele>492.319</ele>
        <time>2020-05-23T15:46:30Z</time>
      </trkpt>
      <trkpt lat="43.153850" lon="-5.855050">
        <ele>489.854</ele>
        <time>2020-05-23T15:46:50Z</time>
      </trkpt>
      <trkpt lat="43.153490" lon="-5.854750">
        <ele>483.351</ele>
        <time>2020-05-23T15:47:10Z</time>
      </trkpt>
      <trkpt lat="43.153480" lon="-5.854730">
        <ele>483.657</ele>
        <time>2020-05-23T15:47:30Z</time>
      </trkpt>
      <trkpt lat="43.153460" lon="-5.854710">
        <ele>483.346</ele>
        <time>2020-05-23T15:47:50Z</time>
      </trkpt>
      <trkpt lat="43.153450" lon="-5.854700">
        <ele>483.167</ele>
        <time>2020-05-23T15:48:10Z</time>
      </trkpt>
      <trkpt lat="43.153380" lon="-5.854600">
        <ele>482.386</ele>
        <time>2020-05-23T15:48:30Z</time>
      </trkpt>
      <trkpt lat="43.153340" lon="-5.854500">
        <ele>482.269</ele>
        <time>2020-05-23T15:48:50Z</time>
      </trkpt>
      <trkpt lat="43.153330" lon="-5.854470">
        <ele>482.381</ele>
        <time>2020-05-23T15:49:10Z</time>
      </trkpt>
      <trkpt lat="43.153320" lon="-5.854450">
        <ele>482.461</ele>
        <time>2020-05-23T15:49:30Z</time>
      </trkpt>
      <trkpt lat="43.153280" lon="-5.854310">
        <ele>481.717</ele>
        <time>2020-05-23T15:49:50Z</time>
      </trkpt>
      <trkpt lat="43.153280" lon="-5.854270">
        <ele>481.908</ele>
        <time>2020-05-23T15:50:10Z</time>
      </trkpt>
      <trkpt lat="43.153260" lon="-5.854100">
        <ele>481.032</ele>
        <time>2020-05-23T15:50:30Z</time>
      </trkpt>
      <trkpt lat="43.153260" lon="-5.854070">
        <ele>480.777</ele>
        <time>2020-05-23T15:50:50Z</time>
      </trkpt>
      <trkpt lat="43.153250" lon="-5.853950">
        <ele>479.184</ele>
        <time>2020-05-23T15:51:10Z</time>
      </trkpt>
      <trkpt lat="43.153250" lon="-5.853810">
        <ele>478.310</ele>
        <time>2020-05-23T15:51:30Z</time>
      </trkpt>
      <trkpt lat="43.153250" lon="-5.853740">
        <ele>478.179</ele>
        <time>2020-05-23T15:51:50Z</time>
      </trkpt>
      <trkpt lat="43.153250" lon="-5.853700">
        <ele>478.070</ele>
        <time>2020-05-23T15:52:10Z</time>
      </trkpt>
      <trkpt lat="43.153240" lon="-5.853670">
        <ele>477.439</ele>
        <time>2020-05-23T15:52:30Z</time>
      </trkpt>
      <trkpt lat="43.153240" lon="-5.853640">
        <ele>477.492</ele>
        <time>2020-05-23T15:52:50Z</time>
      </trkpt>
      <trkpt lat="43.153230" lon="-5.853570">
        <ele>477.116</ele>
        <time>2020-05-23T15:53:10Z</time>
      </trkpt>
      <trkpt lat="43.153210" lon="-5.853470">
        <ele>476.976</ele>
        <time>2020-05-23T15:53:30Z</time>
      </trkpt>
      <trkpt lat="43.153190" lon="-5.853410">
        <ele>476.213</ele>
        <time>2020-05-23T15:53:50Z</time>
      </trkpt>
      <trkpt lat="43.153170" lon="-5.853370">
        <ele>475.408</ele>
        <time>2020-05-23T15:54:10Z</time>
      </trkpt>
      <trkpt lat="43.153140" lon="-5.853300">
        <ele>474.285</ele>
        <time>2020-05-23T15:54:30Z</time>
      </trkpt>
      <trkpt lat="43.153080" lon="-5.853200">
        <ele>471.590</ele>
        <time>2020-05-23T15:54:50Z</time>
      </trkpt>
      <trkpt lat="43.153030" lon="-5.853130">
        <ele>469.547</ele>
        <time>2020-05-23T15:55:10Z</time>
      </trkpt>
      <trkpt lat="43.153030" lon="-5.853120">
        <ele>469.683</ele>
        <time>2020-05-23T15:55:30Z</time>
      </trkpt>
      <trkpt lat="43.153000" lon="-5.853090">
        <ele>468.882</ele>
        <time>2020-05-23T15:55:50Z</time>
      </trkpt>
      <trkpt lat="43.152960" lon="-5.853050">
        <ele>468.223</ele>
        <time>2020-05-23T15:56:10Z</time>
      </trkpt>
      <trkpt lat="43.152930" lon="-5.853010">
        <ele>469.092</ele>
        <time>2020-05-23T15:56:30Z</time>
      </trkpt>
      <trkpt lat="43.152880" lon="-5.852970">
        <ele>468.915</ele>
        <time>2020-05-23T15:56:50Z</time>
      </trkpt>
      <trkpt lat="43.152820" lon="-5.852940">
        <ele>467.652</ele>
        <time>2020-05-23T15:57:10Z</time>
      </trkpt>
      <trkpt lat="43.152650" lon="-5.852840">
        <ele>464.953</ele>
        <time>2020-05-23T15:57:30Z</time>
      </trkpt>
      <trkpt lat="43.152590" lon="-5.852820">
        <ele>463.708</ele>
        <time>2020-05-23T15:57:50Z</time>
      </trkpt>
      <trkpt lat="43.152380" lon="-5.852700">
        <ele>460.208</ele>
        <time>2020-05-23T15:58:10Z</time>
      </trkpt>
      <trkpt lat="43.152150" lon="-5.852530">
        <ele>458.019</ele>
        <time>2020-05-23T15:58:30Z</time>
      </trkpt>
      <trkpt lat="43.152120" lon="-5.852500">
        <ele>458.154</ele>
        <time>2020-05-23T15:58:50Z</time>
      </trkpt>
      <trkpt lat="43.152090" lon="-5.852480">
        <ele>457.331</ele>
        <time>2020-05-23T15:59:10Z</time>
      </trkpt>
      <trkpt lat="43.152060" lon="-5.852450">
        <ele>456.747</ele>
        <time>2020-05-23T15:59:30Z</time>
      </trkpt>
      <trkpt lat="43.152050" lon="-5.852440">
        <ele>456.476</ele>
        <time>2020-05-23T15:59:50Z</time>
      </trkpt>
      <trkpt lat="43.152030" lon="-5.852420">
        <ele>455.997</ele>
        <time>2020-05-23T16:00:10Z</time>
      </trkpt>
      <trkpt lat="43.152020" lon="-5.852400">
        <ele>455.786</ele>
        <time>2020-05-23T16:00:30Z</time>
      </trkpt>
      <trkpt lat="43.152000" lon="-5.852380">
        <ele>455.289</ele>
        <time>2020-05-23T16:00:50Z</time>
      </trkpt>
      <trkpt lat="43.151980" lon="-5.852350">
        <ele>454.781</ele>
        <time>2020-05-23T16:01:10Z</time>
      </trkpt>
      <trkpt lat="43.151960" lon="-5.852320">
        <ele>454.261</ele>
        <time>2020-05-23T16:01:30Z</time>
      </trkpt>
      <trkpt lat="43.151960" lon="-5.852310">
        <ele>454.217</ele>
        <time>2020-05-23T16:01:50Z</time>
      </trkpt>
      <trkpt lat="43.151960" lon="-5.852300">
        <ele>454.208</ele>
        <time>2020-05-23T16:02:10Z</time>
      </trkpt>
      <trkpt lat="43.151950" lon="-5.852300">
        <ele>453.952</ele>
        <time>2020-05-23T16:02:30Z</time>
      </trkpt>
      <trkpt lat="43.151940" lon="-5.852280">
        <ele>453.687</ele>
        <time>2020-05-23T16:02:50Z</time>
      </trkpt>
      <trkpt lat="43.151940" lon="-5.852270">
        <ele>453.714</ele>
        <time>2020-05-23T16:03:10Z</time>
      </trkpt>
      <trkpt lat="43.151930" lon="-5.852220">
        <ele>453.410</ele>
        <time>2020-05-23T16:03:30Z</time>
      </trkpt>
      <trkpt lat="43.151930" lon="-5.852200">
        <ele>453.389</ele>
        <time>2020-05-23T16:03:50Z</time>
      </trkpt>
      <trkpt lat="43.151920" lon="-5.852190">
        <ele>452.920</ele>
        <time>2020-05-23T16:04:10Z</time>
      </trkpt>
      <trkpt lat="43.151920" lon="-5.852180">
        <ele>452.899</ele>
        <time>2020-05-23T16:04:30Z</time>
      </trkpt>
      <trkpt lat="43.151920" lon="-5.852150">
        <ele>452.782</ele>
        <time>2020-05-23T16:04:50Z</time>
      </trkpt>
      <trkpt lat="43.151920" lon="-5.852120">
        <ele>452.626</ele>
        <time>2020-05-23T16:05:10Z</time>
      </trkpt>
      <trkpt lat="43.151920" lon="-5.852110">
        <ele>452.547</ele>
        <time>2020-05-23T16:05:30Z</time>
      </trkpt>
      <trkpt lat="43.151920" lon="-5.852050">
        <ele>452.211</ele>
        <time>2020-05-23T16:05:50Z</time>
      </trkpt>
      <trkpt lat="43.151920" lon="-5.852040">
        <ele>452.208</ele>
        <time>2020-05-23T16:06:10Z</time>
      </trkpt>
      <trkpt lat="43.151920" lon="-5.852010">
        <ele>452.136</ele>
        <time>2020-05-23T16:06:30Z</time>
      </trkpt>
      <trkpt lat="43.151940" lon="-5.851900">
        <ele>452.371</ele>
        <time>2020-05-23T16:06:50Z</time>
      </trkpt>
      <trkpt lat="43.151980" lon="-5.851550">
        <ele>451.118</ele>
        <time>2020-05-23T16:07:10Z</time>
      </trkpt>
      <trkpt lat="43.152000" lon="-5.851460">
        <ele>451.614</ele>
        <time>2020-05-23T16:07:30Z</time>
      </trkpt>
      <trkpt lat="43.152000" lon="-5.851430">
        <ele>451.533</ele>
        <time>2020-05-23T16:07:50Z</time>
      </trkpt>
      <trkpt lat="43.152020" lon="-5.851400">
        <ele>451.954</ele>
        <time>2020-05-23T16:08:10Z</time>
      </trkpt>
      <trkpt lat="43.152020" lon="-5.851380">
        <ele>451.873</ele>
        <time>2020-05-23T16:08:30Z</time>
      </trkpt>
      <trkpt lat="43.152030" lon="-5.851370">
        <ele>451.966</ele>
        <time>2020-05-23T16:08:50Z</time>
      </trkpt>
      <trkpt lat="43.152050" lon="-5.851340">
        <ele>451.969</ele>
        <time>2020-05-23T16:09:10Z</time>
      </trkpt>
      <trkpt lat="43.152080" lon="-5.851280">
        <ele>451.704</ele>
        <time>2020-05-23T16:09:30Z</time>
      </trkpt>
      <trkpt lat="43.152090" lon="-5.851260">
        <ele>451.624</ele>
        <time>2020-05-23T16:09:50Z</time>
      </trkpt>
      <trkpt lat="43.152140" lon="-5.851150">
        <ele>450.908</ele>
        <time>2020-05-23T16:10:10Z</time>
      </trkpt>
      <trkpt lat="43.152170" lon="-5.851070">
        <ele>450.620</ele>
        <time>2020-05-23T16:10:30Z</time>
      </trkpt>
      <trkpt lat="43.152270" lon="-5.850410">
        <ele>447.795</ele>
        <time>2020-05-23T16:10:50Z</time>
      </trkpt>
      <trkpt lat="43.152280" lon="-5.850370">
        <ele>447.662</ele>
        <time>2020-05-23T16:11:10Z</time>
      </trkpt>
      <trkpt lat="43.152290" lon="-5.850210">
        <ele>446.968</ele>
        <time>2020-05-23T16:11:30Z</time>
      </trkpt>
      <trkpt lat="43.152290" lon="-5.850170">
        <ele>446.617</ele>
        <time>2020-05-23T16:11:50Z</time>
      </trkpt>
      <trkpt lat="43.152290" lon="-5.850140">
        <ele>446.518</ele>
        <time>2020-05-23T16:12:10Z</time>
      </trkpt>
      <trkpt lat="43.152300" lon="-5.850090">
        <ele>446.427</ele>
        <time>2020-05-23T16:12:30Z</time>
      </trkpt>
      <trkpt lat="43.152300" lon="-5.850060">
        <ele>446.390</ele>
        <time>2020-05-23T16:12:50Z</time>
      </trkpt>
      <trkpt lat="43.152300" lon="-5.850030">
        <ele>446.184</ele>
        <time>2020-05-23T16:13:10Z</time>
      </trkpt>
      <trkpt lat="43.152290" lon="-5.850000">
        <ele>445.707</ele>
        <time>2020-05-23T16:13:30Z</time>
      </trkpt>
      <trkpt lat="43.152290" lon="-5.849970">
        <ele>445.617</ele>
        <time>2020-05-23T16:13:50Z</time>
      </trkpt>
      <trkpt lat="43.152280" lon="-5.849920">
        <ele>445.208</ele>
        <time>2020-05-23T16:14:10Z</time>
      </trkpt>
      <trkpt lat="43.152280" lon="-5.849880">
        <ele>445.192</ele>
        <time>2020-05-23T16:14:30Z</time>
      </trkpt>
      <trkpt lat="43.152270" lon="-5.849840">
        <ele>444.777</ele>
        <time>2020-05-23T16:14:50Z</time>
      </trkpt>
      <trkpt lat="43.152250" lon="-5.849750">
        <ele>443.934</ele>
        <time>2020-05-23T16:15:10Z</time>
      </trkpt>
      <trkpt lat="43.152170" lon="-5.849440">
        <ele>441.450</ele>
        <time>2020-05-23T16:15:30Z</time>
      </trkpt>
      <trkpt lat="43.152130" lon="-5.849280">
        <ele>440.669</ele>
        <time>2020-05-23T16:15:50Z</time>
      </trkpt>
      <trkpt lat="43.152110" lon="-5.849220">
        <ele>440.190</ele>
        <time>2020-05-23T16:16:10Z</time>
      </trkpt>
      <trkpt lat="43.151990" lon="-5.848850">
        <ele>437.029</ele>
        <time>2020-05-23T16:16:30Z</time>
      </trkpt>
      <trkpt lat="43.151880" lon="-5.848540">
        <ele>434.942</ele>
        <time>2020-05-23T16:16:50Z</time>
      </trkpt>
      <trkpt lat="43.151830" lon="-5.848410">
        <ele>434.317</ele>
        <time>2020-05-23T16:17:10Z</time>
      </trkpt>
      <trkpt lat="43.151760" lon="-5.848220">
        <ele>432.787</ele>
        <time>2020-05-23T16:17:30Z</time>
      </trkpt>
      <trkpt lat="43.151740" lon="-5.848160">
        <ele>432.115</ele>
        <time>2020-05-23T16:17:50Z</time>
      </trkpt>
      <trkpt lat="43.151730" lon="-5.848110">
        <ele>431.708</ele>
        <time>2020-05-23T16:18:10Z</time>
      </trkpt>
      <trkpt lat="43.151730" lon="-5.848080">
        <ele>431.715</ele>
        <time>2020-05-23T16:18:30Z</time>
      </trkpt>
      <trkpt lat="43.151720" lon="-5.848030">
        <ele>431.290</ele>
        <time>2020-05-23T16:18:50Z</time>
      </trkpt>
      <trkpt lat="43.151720" lon="-5.847930">
        <ele>430.457</ele>
        <time>2020-05-23T16:19:10Z</time>
      </trkpt>
      <trkpt lat="43.151730" lon="-5.847830">
        <ele>430.043</ele>
        <time>2020-05-23T16:19:30Z</time>
      </trkpt>
      <trkpt lat="43.151750" lon="-5.847650">
        <ele>428.462</ele>
        <time>2020-05-23T16:19:50Z</time>
      </trkpt>
      <trkpt lat="43.151750" lon="-5.847620">
        <ele>428.043</ele>
        <time>2020-05-23T16:20:10Z</time>
      </trkpt>
      <trkpt lat="43.151800" lon="-5.847280">
        <ele>425.582</ele>
        <time>2020-05-23T16:20:30Z</time>
      </trkpt>
      <trkpt lat="43.151820" lon="-5.847150">
        <ele>424.685</ele>
        <time>2020-05-23T16:20:50Z</time>
      </trkpt>
      <trkpt lat="43.151830" lon="-5.847070">
        <ele>424.032</ele>
        <time>2020-05-23T16:21:10Z</time>
      </trkpt>
      <trkpt lat="43.151860" lon="-5.846980">
        <ele>423.692</ele>
        <time>2020-05-23T16:21:30Z</time>
      </trkpt>
      <trkpt lat="43.151870" lon="-5.846950">
        <ele>423.511</ele>
        <time>2020-05-23T16:21:50Z</time>
      </trkpt>
      <trkpt lat="43.151870" lon="-5.846930">
        <ele>423.008</ele>
        <time>2020-05-23T16:22:10Z</time>
      </trkpt>
      <trkpt lat="43.151890" lon="-5.846900">
        <ele>422.797</ele>
        <time>2020-05-23T16:22:30Z</time>
      </trkpt>
      <trkpt lat="43.151890" lon="-5.846890">
        <ele>422.532</ele>
        <time>2020-05-23T16:22:50Z</time>
      </trkpt>
      <trkpt lat="43.151910" lon="-5.846870">
        <ele>422.489</ele>
        <time>2020-05-23T16:23:10Z</time>
      </trkpt>
      <trkpt lat="43.151960" lon="-5.846810">
        <ele>421.915</ele>
        <time>2020-05-23T16:23:30Z</time>
      </trkpt>
      <trkpt lat="43.151990" lon="-5.846780">
        <ele>421.744</ele>
        <time>2020-05-23T16:23:50Z</time>
      </trkpt>
      <trkpt lat="43.152020" lon="-5.846740">
        <ele>421.375</ele>
        <time>2020-05-23T16:24:10Z</time>
      </trkpt>
      <trkpt lat="43.152110" lon="-5.846610">
        <ele>420.424</ele>
        <time>2020-05-23T16:24:30Z</time>
      </trkpt>
      <trkpt lat="43.152150" lon="-5.846540">
        <ele>419.737</ele>
        <time>2020-05-23T16:24:50Z</time>
      </trkpt>
      <trkpt lat="43.152190" lon="-5.846470">
        <ele>419.183</ele>
        <time>2020-05-23T16:25:10Z</time>
      </trkpt>
      <trkpt lat="43.152220" lon="-5.846400">
        <ele>418.225</ele>
        <time>2020-05-23T16:25:30Z</time>
      </trkpt>
      <trkpt lat="43.152260" lon="-5.846300">
        <ele>417.217</ele>
        <time>2020-05-23T16:25:50Z</time>
      </trkpt>
      <trkpt lat="43.152280" lon="-5.846240">
        <ele>416.308</ele>
        <time>2020-05-23T16:26:10Z</time>
      </trkpt>
      <trkpt lat="43.152310" lon="-5.846170">
        <ele>415.462</ele>
        <time>2020-05-23T16:26:30Z</time>
      </trkpt>
      <trkpt lat="43.152320" lon="-5.846150">
        <ele>415.167</ele>
        <time>2020-05-23T16:26:50Z</time>
      </trkpt>
      <trkpt lat="43.152340" lon="-5.846130">
        <ele>415.054</ele>
        <time>2020-05-23T16:27:10Z</time>
      </trkpt>
      <trkpt lat="43.152350" lon="-5.846110">
        <ele>414.780</ele>
        <time>2020-05-23T16:27:30Z</time>
      </trkpt>
      <trkpt lat="43.152380" lon="-5.846090">
        <ele>414.999</ele>
        <time>2020-05-23T16:27:50Z</time>
      </trkpt>
      <trkpt lat="43.152400" lon="-5.846060">
        <ele>414.410</ele>
        <time>2020-05-23T16:28:10Z</time>
      </trkpt>
      <trkpt lat="43.152470" lon="-5.845980">
        <ele>413.399</ele>
        <time>2020-05-23T16:28:30Z</time>
      </trkpt>
      <trkpt lat="43.152560" lon="-5.845960">
        <ele>414.442</ele>
        <time>2020-05-23T16:28:50Z</time>
      </trkpt>
      <trkpt lat="43.152610" lon="-5.845930">
        <ele>414.311</ele>
        <time>2020-05-23T16:29:10Z</time>
      </trkpt>
      <trkpt lat="43.152670" lon="-5.845900">
        <ele>414.221</ele>
        <time>2020-05-23T16:29:30Z</time>
      </trkpt>
      <trkpt lat="43.152720" lon="-5.845860">
        <ele>413.303</ele>
        <time>2020-05-23T16:29:50Z</time>
      </trkpt>
      <trkpt lat="43.152770" lon="-5.845800">
        <ele>411.908</ele>
        <time>2020-05-23T16:30:10Z</time>
      </trkpt>
      <trkpt lat="43.152820" lon="-5.845750">
        <ele>412.215</ele>
        <time>2020-05-23T16:30:30Z</time>
      </trkpt>
      <trkpt lat="43.152850" lon="-5.845700">
        <ele>411.980</ele>
        <time>2020-05-23T16:30:50Z</time>
      </trkpt>
      <trkpt lat="43.152860" lon="-5.845690">
        <ele>412.087</ele>
        <time>2020-05-23T16:31:10Z</time>
      </trkpt>
      <trkpt lat="43.152870" lon="-5.845670">
        <ele>411.843</ele>
        <time>2020-05-23T16:31:30Z</time>
      </trkpt>
      <trkpt lat="43.152880" lon="-5.845660">
        <ele>411.832</ele>
        <time>2020-05-23T16:31:50Z</time>
      </trkpt>
      <trkpt lat="43.152890" lon="-5.845640">
        <ele>411.663</ele>
        <time>2020-05-23T16:32:10Z</time>
      </trkpt>
      <trkpt lat="43.152930" lon="-5.845560">
        <ele>410.622</ele>
        <time>2020-05-23T16:32:30Z</time>
      </trkpt>
      <trkpt lat="43.153050" lon="-5.845340">
        <ele>407.875</ele>
        <time>2020-05-23T16:32:50Z</time>
      </trkpt>
      <trkpt lat="43.153110" lon="-5.845240">
        <ele>407.714</ele>
        <time>2020-05-23T16:33:10Z</time>
      </trkpt>
      <trkpt lat="43.153180" lon="-5.845090">
        <ele>406.954</ele>
        <time>2020-05-23T16:33:30Z</time>
      </trkpt>
      <trkpt lat="43.153200" lon="-5.845060">
        <ele>406.809</ele>
        <time>2020-05-23T16:33:50Z</time>
      </trkpt>
      <trkpt lat="43.153250" lon="-5.844980">
        <ele>406.308</ele>
        <time>2020-05-23T16:34:10Z</time>
      </trkpt>
      <trkpt lat="43.153250" lon="-5.844970">
        <ele>405.965</ele>
        <time>2020-05-23T16:34:30Z</time>
      </trkpt>
      <trkpt lat="43.153280" lon="-5.844930">
        <ele>405.560</ele>
        <time>2020-05-23T16:34:50Z</time>
      </trkpt>
      <trkpt lat="43.153460" lon="-5.844720">
        <ele>402.187</ele>
        <time>2020-05-23T16:35:10Z</time>
      </trkpt>
      <trkpt lat="43.153470" lon="-5.844710">
        <ele>402.153</ele>
        <time>2020-05-23T16:35:30Z</time>
      </trkpt>
      <trkpt lat="43.153520" lon="-5.844630">
        <ele>401.272</ele>
        <time>2020-05-23T16:35:50Z</time>
      </trkpt>
      <trkpt lat="43.153550" lon="-5.844570">
        <ele>400.483</ele>
        <time>2020-05-23T16:36:10Z</time>
      </trkpt>
      <trkpt lat="43.153590" lon="-5.844510">
        <ele>400.092</ele>
        <time>2020-05-23T16:36:30Z</time>
      </trkpt>
      <trkpt lat="43.153630" lon="-5.844430">
        <ele>399.615</ele>
        <time>2020-05-23T16:36:50Z</time>
      </trkpt>
      <trkpt lat="43.153650" lon="-5.844380">
        <ele>399.754</ele>
        <time>2020-05-23T16:37:10Z</time>
      </trkpt>
      <trkpt lat="43.153670" lon="-5.844310">
        <ele>399.456</ele>
        <time>2020-05-23T16:37:30Z</time>
      </trkpt>
      <trkpt lat="43.153670" lon="-5.844290">
        <ele>399.111</ele>
        <time>2020-05-23T16:37:50Z</time>
      </trkpt>
      <trkpt lat="43.153680" lon="-5.844270">
        <ele>399.208</ele>
        <time>2020-05-23T16:38:10Z</time>
      </trkpt>
      <trkpt lat="43.153680" lon="-5.844230">
        <ele>398.569</ele>
        <time>2020-05-23T16:38:30Z</time>
      </trkpt>
      <trkpt lat="43.153680" lon="-5.844210">
        <ele>398.224</ele>
        <time>2020-05-23T16:38:50Z</time>
      </trkpt>
      <trkpt lat="43.153680" lon="-5.844130">
        <ele>397.211</ele>
        <time>2020-05-23T16:39:10Z</time>
      </trkpt>
      <trkpt lat="43.153670" lon="-5.843980">
        <ele>395.587</ele>
        <time>2020-05-23T16:39:30Z</time>
      </trkpt>
      <trkpt lat="43.153680" lon="-5.843880">
        <ele>394.916</ele>
        <time>2020-05-23T16:39:50Z</time>
      </trkpt>
      <trkpt lat="43.153690" lon="-5.843800">
        <ele>394.327</ele>
        <time>2020-05-23T16:40:10Z</time>
      </trkpt>
      <trkpt lat="43.153710" lon="-5.843690">
        <ele>393.736</ele>
        <time>2020-05-23T16:40:30Z</time>
      </trkpt>
      <trkpt lat="43.153720" lon="-5.843670">
        <ele>393.889</ele>
        <time>2020-05-23T16:40:50Z</time>
      </trkpt>
      <trkpt lat="43.153780" lon="-5.843500">
        <ele>393.046</ele>
        <time>2020-05-23T16:41:10Z</time>
      </trkpt>
      <trkpt lat="43.153800" lon="-5.843460">
        <ele>392.988</ele>
        <time>2020-05-23T16:41:30Z</time>
      </trkpt>
      <trkpt lat="43.153810" lon="-5.843400">
        <ele>392.116</ele>
        <time>2020-05-23T16:41:50Z</time>
      </trkpt>
      <trkpt lat="43.153860" lon="-5.843270">
        <ele>391.208</ele>
        <time>2020-05-23T16:42:10Z</time>
      </trkpt>
      <trkpt lat="43.153900" lon="-5.843160">
        <ele>390.238</ele>
        <time>2020-05-23T16:42:30Z</time>
      </trkpt>
      <trkpt lat="43.154000" lon="-5.842890">
        <ele>387.223</ele>
        <time>2020-05-23T16:42:50Z</time>
      </trkpt>
      <trkpt lat="43.154070" lon="-5.842740">
        <ele>386.020</ele>
        <time>2020-05-23T16:43:10Z</time>
      </trkpt>
      <trkpt lat="43.154070" lon="-5.842730">
        <ele>386.056</ele>
        <time>2020-05-23T16:43:30Z</time>
      </trkpt>
      <trkpt lat="43.154070" lon="-5.842720">
        <ele>385.955</ele>
        <time>2020-05-23T16:43:50Z</time>
      </trkpt>
      <trkpt lat="43.154090" lon="-5.842650">
        <ele>385.936</ele>
        <time>2020-05-23T16:44:10Z</time>
      </trkpt>
      <trkpt lat="43.154100" lon="-5.842610">
        <ele>385.955</ele>
        <time>2020-05-23T16:44:30Z</time>
      </trkpt>
      <trkpt lat="43.154100" lon="-5.842580">
        <ele>385.798</ele>
        <time>2020-05-23T16:44:50Z</time>
      </trkpt>
      <trkpt lat="43.154130" lon="-5.842350">
        <ele>384.836</ele>
        <time>2020-05-23T16:45:10Z</time>
      </trkpt>
      <trkpt lat="43.154170" lon="-5.841860">
        <ele>379.217</ele>
        <time>2020-05-23T16:45:30Z</time>
      </trkpt>
      <trkpt lat="43.154170" lon="-5.841820">
        <ele>378.718</ele>
        <time>2020-05-23T16:45:50Z</time>
      </trkpt>
      <trkpt lat="43.154170" lon="-5.841750">
        <ele>378.008</ele>
        <time>2020-05-23T16:46:10Z</time>
      </trkpt>
      <trkpt lat="43.154180" lon="-5.841640">
        <ele>377.147</ele>
        <time>2020-05-23T16:46:30Z</time>
      </trkpt>
      <trkpt lat="43.154170" lon="-5.841490">
        <ele>375.852</ele>
        <time>2020-05-23T16:46:50Z</time>
      </trkpt>
      <trkpt lat="43.154170" lon="-5.841290">
        <ele>374.799</ele>
        <time>2020-05-23T16:47:10Z</time>
      </trkpt>
      <trkpt lat="43.154140" lon="-5.841010">
        <ele>372.685</ele>
        <time>2020-05-23T16:47:30Z</time>
      </trkpt>
      <trkpt lat="43.154090" lon="-5.840400">
        <ele>368.244</ele>
        <time>2020-05-23T16:47:50Z</time>
      </trkpt>
      <trkpt lat="43.154040" lon="-5.839790">
        <ele>364.165</ele>
        <time>2020-05-23T16:48:10Z</time>
      </trkpt>
      <trkpt lat="43.153980" lon="-5.839230">
        <ele>359.384</ele>
        <time>2020-05-23T16:48:30Z</time>
      </trkpt>
      <trkpt lat="43.153980" lon="-5.839180">
        <ele>359.097</ele>
        <time>2020-05-23T16:48:50Z</time>
      </trkpt>
      <trkpt lat="43.153970" lon="-5.839040">
        <ele>357.981</ele>
        <time>2020-05-23T16:49:10Z</time>
      </trkpt>
      <trkpt lat="43.153970" lon="-5.838770">
        <ele>356.661</ele>
        <time>2020-05-23T16:49:30Z</time>
      </trkpt>
      <trkpt lat="43.153970" lon="-5.838700">
        <ele>356.317</ele>
        <time>2020-05-23T16:49:50Z</time>
      </trkpt>
      <trkpt lat="43.153970" lon="-5.838630">
        <ele>356.008</ele>
        <time>2020-05-23T16:50:10Z</time>
      </trkpt>
      <trkpt lat="43.153990" lon="-5.838440">
        <ele>355.232</ele>
        <time>2020-05-23T16:50:30Z</time>
      </trkpt>
      <trkpt lat="43.154020" lon="-5.838160">
        <ele>353.847</ele>
        <time>2020-05-23T16:50:50Z</time>
      </trkpt>
      <trkpt lat="43.154120" lon="-5.837470">
        <ele>348.384</ele>
        <time>2020-05-23T16:51:10Z</time>
      </trkpt>
      <trkpt lat="43.154120" lon="-5.837460">
        <ele>348.190</ele>
        <time>2020-05-23T16:51:30Z</time>
      </trkpt>
      <trkpt lat="43.154190" lon="-5.836730">
        <ele>342.559</ele>
        <time>2020-05-23T16:51:50Z</time>
      </trkpt>
      <trkpt lat="43.154200" lon="-5.836560">
        <ele>340.730</ele>
        <time>2020-05-23T16:52:10Z</time>
      </trkpt>
      <trkpt lat="43.154220" lon="-5.836430">
        <ele>340.139</ele>
        <time>2020-05-23T16:52:30Z</time>
      </trkpt>
      <trkpt lat="43.154240" lon="-5.836320">
        <ele>339.672</ele>
        <time>2020-05-23T16:52:50Z</time>
      </trkpt>
      <trkpt lat="43.154270" lon="-5.836200">
        <ele>338.988</ele>
        <time>2020-05-23T16:53:10Z</time>
      </trkpt>
      <trkpt lat="43.154330" lon="-5.835980">
        <ele>336.924</ele>
        <time>2020-05-23T16:53:30Z</time>
      </trkpt>
      <trkpt lat="43.154360" lon="-5.835880">
        <ele>335.826</ele>
        <time>2020-05-23T16:53:50Z</time>
      </trkpt>
      <trkpt lat="43.154410" lon="-5.835690">
        <ele>334.308</ele>
        <time>2020-05-23T16:54:10Z</time>
      </trkpt>
      <trkpt lat="43.154500" lon="-5.835420">
        <ele>333.472</ele>
        <time>2020-05-23T16:54:30Z</time>
      </trkpt>
      <trkpt lat="43.154570" lon="-5.835190">
        <ele>332.377</ele>
        <time>2020-05-23T16:54:50Z</time>
      </trkpt>
      <trkpt lat="43.154660" lon="-5.834910">
        <ele>330.144</ele>
        <time>2020-05-23T16:55:10Z</time>
      </trkpt>
      <trkpt lat="43.154710" lon="-5.834740">
        <ele>328.960</ele>
        <time>2020-05-23T16:55:30Z</time>
      </trkpt>
      <trkpt lat="43.154770" lon="-5.834510">
        <ele>329.559</ele>
        <time>2020-05-23T16:55:50Z</time>
      </trkpt>
      <trkpt lat="43.154900" lon="-5.834070">
        <ele>329.150</ele>
        <time>2020-05-23T16:56:10Z</time>
      </trkpt>
      <trkpt lat="43.155040" lon="-5.833600">
        <ele>327.679</ele>
        <time>2020-05-23T16:56:30Z</time>
      </trkpt>
      <trkpt lat="43.155260" lon="-5.832810">
        <ele>323.992</ele>
        <time>2020-05-23T16:56:50Z</time>
      </trkpt>
      <trkpt lat="43.155450" lon="-5.832230">
        <ele>321.795</ele>
        <time>2020-05-23T16:57:10Z</time>
      </trkpt>
      <trkpt lat="43.155540" lon="-5.831970">
        <ele>321.049</ele>
        <time>2020-05-23T16:57:30Z</time>
      </trkpt>
      <trkpt lat="43.155590" lon="-5.831840">
        <ele>320.423</ele>
        <time>2020-05-23T16:57:50Z</time>
      </trkpt>
      <trkpt lat="43.155620" lon="-5.831740">
        <ele>319.808</ele>
        <time>2020-05-23T16:58:10Z</time>
      </trkpt>
      <trkpt lat="43.155680" lon="-5.831590">
        <ele>319.243</ele>
        <time>2020-05-23T16:58:30Z</time>
      </trkpt>
      <trkpt lat="43.155790" lon="-5.831340">
        <ele>318.528</ele>
        <time>2020-05-23T16:58:50Z</time>
      </trkpt>
      <trkpt lat="43.155900" lon="-5.831100">
        <ele>317.325</ele>
        <time>2020-05-23T16:59:10Z</time>
      </trkpt>
      <trkpt lat="43.156000" lon="-5.830860">
        <ele>318.551</ele>
        <time>2020-05-23T16:59:30Z</time>
      </trkpt>
      <trkpt lat="43.156080" lon="-5.830640">
        <ele>319.250</ele>
        <time>2020-05-23T16:59:50Z</time>
      </trkpt>
      <trkpt lat="43.156090" lon="-5.830620">
        <ele>319.241</ele>
        <time>2020-05-23T17:00:10Z</time>
      </trkpt>
      <trkpt lat="43.156100" lon="-5.830590">
        <ele>319.150</ele>
        <time>2020-05-23T17:00:30Z</time>
      </trkpt>
      <trkpt lat="43.156110" lon="-5.830570">
        <ele>319.013</ele>
        <time>2020-05-23T17:00:50Z</time>
      </trkpt>
      <trkpt lat="43.156120" lon="-5.830550">
        <ele>318.946</ele>
        <time>2020-05-23T17:01:10Z</time>
      </trkpt>
      <trkpt lat="43.156140" lon="-5.830530">
        <ele>318.588</ele>
        <time>2020-05-23T17:01:30Z</time>
      </trkpt>
      <trkpt lat="43.156170" lon="-5.830510">
        <ele>318.016</ele>
        <time>2020-05-23T17:01:50Z</time>
      </trkpt>
      <trkpt lat="43.156240" lon="-5.830470">
        <ele>317.308</ele>
        <time>2020-05-23T17:02:10Z</time>
      </trkpt>
      <trkpt lat="43.156560" lon="-5.830300">
        <ele>315.858</ele>
        <time>2020-05-23T17:02:30Z</time>
      </trkpt>
      <trkpt lat="43.156590" lon="-5.830280">
        <ele>315.783</ele>
        <time>2020-05-23T17:02:50Z</time>
      </trkpt>
      <trkpt lat="43.156700" lon="-5.830220">
        <ele>315.720</ele>
        <time>2020-05-23T17:03:10Z</time>
      </trkpt>
      <trkpt lat="43.156830" lon="-5.830150">
        <ele>315.746</ele>
        <time>2020-05-23T17:03:30Z</time>
      </trkpt>
      <trkpt lat="43.157330" lon="-5.829880">
        <ele>314.875</ele>
        <time>2020-05-23T17:03:50Z</time>
      </trkpt>
      <trkpt lat="43.157440" lon="-5.829810">
        <ele>314.626</ele>
        <time>2020-05-23T17:04:10Z</time>
      </trkpt>
      <trkpt lat="43.157430" lon="-5.829700">
        <ele>313.815</ele>
        <time>2020-05-23T17:04:30Z</time>
      </trkpt>
      <trkpt lat="43.157434" lon="-5.829700">
        <ele>313.828</ele>
        <time>2020-05-23T17:04:50Z</time>
      </trkpt>
      <trkpt lat="43.157220" lon="-5.829600">
        <ele>313.125</ele>
        <time>2020-05-23T17:05:10Z</time>
      </trkpt>
      <trkpt lat="43.156830" lon="-5.829330">
        <ele>310.926</ele>
        <time>2020-05-23T17:05:30Z</time>
      </trkpt>
      <trkpt lat="43.156750" lon="-5.829270">
        <ele>310.508</ele>
        <time>2020-05-23T17:05:50Z</time>
      </trkpt>
      <trkpt lat="43.156730" lon="-5.829230">
        <ele>310.308</ele>
        <time>2020-05-23T17:06:10Z</time>
      </trkpt>
      <trkpt lat="43.156720" lon="-5.829220">
        <ele>310.216</ele>
        <time>2020-05-23T17:06:30Z</time>
      </trkpt>
      <trkpt lat="43.156700" lon="-5.829180">
        <ele>310.171</ele>
        <time>2020-05-23T17:06:50Z</time>
      </trkpt>
      <trkpt lat="43.156690" lon="-5.829160">
        <ele>310.058</ele>
        <time>2020-05-23T17:07:10Z</time>
      </trkpt>
      <trkpt lat="43.156680" lon="-5.829130">
        <ele>309.974</ele>
        <time>2020-05-23T17:07:30Z</time>
      </trkpt>
      <trkpt lat="43.156680" lon="-5.829110">
        <ele>309.823</ele>
        <time>2020-05-23T17:07:50Z</time>
      </trkpt>
      <trkpt lat="43.156670" lon="-5.829060">
        <ele>309.694</ele>
        <time>2020-05-23T17:08:10Z</time>
      </trkpt>
      <trkpt lat="43.156660" lon="-5.829020">
        <ele>309.553</ele>
        <time>2020-05-23T17:08:30Z</time>
      </trkpt>
      <trkpt lat="43.156660" lon="-5.829010">
        <ele>309.476</ele>
        <time>2020-05-23T17:08:50Z</time>
      </trkpt>
      <trkpt lat="43.156660" lon="-5.828980">
        <ele>309.357</ele>
        <time>2020-05-23T17:09:10Z</time>
      </trkpt>
      <trkpt lat="43.156670" lon="-5.828730">
        <ele>308.400</ele>
        <time>2020-05-23T17:09:30Z</time>
      </trkpt>
      <trkpt lat="43.156750" lon="-5.828350">
        <ele>307.120</ele>
        <time>2020-05-23T17:09:50Z</time>
      </trkpt>
      <trkpt lat="43.156747" lon="-5.828349">
        <ele>307.108</ele>
        <time>2020-05-23T17:10:10Z</time>
      </trkpt>
      <trkpt lat="43.156780" lon="-5.828110">
        <ele>305.119</ele>
        <time>2020-05-23T17:10:30Z</time>
      </trkpt>
      <trkpt lat="43.156820" lon="-5.827870">
        <ele>302.864</ele>
        <time>2020-05-23T17:10:50Z</time>
      </trkpt>
      <trkpt lat="43.156840" lon="-5.827780">
        <ele>302.071</ele>
        <time>2020-05-23T17:11:10Z</time>
      </trkpt>
      <trkpt lat="43.156835" lon="-5.827782">
        <ele>302.077</ele>
        <time>2020-05-23T17:11:30Z</time>
      </trkpt>
      <trkpt lat="43.157100" lon="-5.827810">
        <ele>301.616</ele>
        <time>2020-05-23T17:11:50Z</time>
      </trkpt>
      <trkpt lat="43.157580" lon="-5.827880">
        <ele>301.037</ele>
        <time>2020-05-23T17:12:10Z</time>
      </trkpt>
      <trkpt lat="43.157870" lon="-5.827920">
        <ele>301.086</ele>
        <time>2020-05-23T17:12:30Z</time>
      </trkpt>
      <trkpt lat="43.158310" lon="-5.828010">
        <ele>301.079</ele>
        <time>2020-05-23T17:12:50Z</time>
      </trkpt>
      <trkpt lat="43.158950" lon="-5.828110">
        <ele>300.077</ele>
        <time>2020-05-23T17:13:10Z</time>
      </trkpt>
      <trkpt lat="43.159400" lon="-5.828200">
        <ele>300.561</ele>
        <time>2020-05-23T17:13:30Z</time>
      </trkpt>
      <trkpt lat="43.159480" lon="-5.828210">
        <ele>300.627</ele>
        <time>2020-05-23T17:13:50Z</time>
      </trkpt>
      <trkpt lat="43.159600" lon="-5.828190">
        <ele>300.508</ele>
        <time>2020-05-23T17:14:10Z</time>
      </trkpt>
      <trkpt lat="43.159680" lon="-5.828170">
        <ele>300.461</ele>
        <time>2020-05-23T17:14:30Z</time>
      </trkpt>
      <trkpt lat="43.159760" lon="-5.828110">
        <ele>300.266</ele>
        <time>2020-05-23T17:14:50Z</time>
      </trkpt>
      <trkpt lat="43.159830" lon="-5.828060">
        <ele>300.053</ele>
        <time>2020-05-23T17:15:10Z</time>
      </trkpt>
      <trkpt lat="43.159920" lon="-5.827990">
        <ele>299.879</ele>
        <time>2020-05-23T17:15:30Z</time>
      </trkpt>
      <trkpt lat="43.160010" lon="-5.827920">
        <ele>299.558</ele>
        <time>2020-05-23T17:15:50Z</time>
      </trkpt>
      <trkpt lat="43.160220" lon="-5.827300">
        <ele>298.879</ele>
        <time>2020-05-23T17:16:10Z</time>
      </trkpt>
      <trkpt lat="43.160220" lon="-5.827295">
        <ele>298.888</ele>
        <time>2020-05-23T17:16:30Z</time>
      </trkpt>
      <trkpt lat="43.160720" lon="-5.827360">
        <ele>299.281</ele>
        <time>2020-05-23T17:16:50Z</time>
      </trkpt>
      <trkpt lat="43.161000" lon="-5.827390">
        <ele>298.481</ele>
        <time>2020-05-23T17:17:10Z</time>
      </trkpt>
      <trkpt lat="43.161040" lon="-5.827400">
        <ele>298.361</ele>
        <time>2020-05-23T17:17:30Z</time>
      </trkpt>
      <trkpt lat="43.161590" lon="-5.827550">
        <ele>297.117</ele>
        <time>2020-05-23T17:17:50Z</time>
      </trkpt>
      <trkpt lat="43.161650" lon="-5.827560">
        <ele>297.008</ele>
        <time>2020-05-23T17:18:10Z</time>
      </trkpt>
      <trkpt lat="43.162180" lon="-5.827710">
        <ele>296.012</ele>
        <time>2020-05-23T17:18:30Z</time>
      </trkpt>
      <trkpt lat="43.162970" lon="-5.827930">
        <ele>295.267</ele>
        <time>2020-05-23T17:18:50Z</time>
      </trkpt>
      <trkpt lat="43.163930" lon="-5.828250">
        <ele>295.034</ele>
        <time>2020-05-23T17:19:10Z</time>
      </trkpt>
      <trkpt lat="43.163931" lon="-5.828245">
        <ele>295.040</ele>
        <time>2020-05-23T17:19:30Z</time>
      </trkpt>
      <trkpt lat="43.163940" lon="-5.828220">
        <ele>295.099</ele>
        <time>2020-05-23T17:19:50Z</time>
      </trkpt>
      <trkpt lat="43.163940" lon="-5.828210">
        <ele>295.020</ele>
        <time>2020-05-23T17:20:10Z</time>
      </trkpt>
      <trkpt lat="43.163940" lon="-5.828190">
        <ele>295.049</ele>
        <time>2020-05-23T17:20:30Z</time>
      </trkpt>
      <trkpt lat="43.163950" lon="-5.828180">
        <ele>295.082</ele>
        <time>2020-05-23T17:20:50Z</time>
      </trkpt>
      <trkpt lat="43.163960" lon="-5.828160">
        <ele>295.017</ele>
        <time>2020-05-23T17:21:10Z</time>
      </trkpt>
      <trkpt lat="43.163960" lon="-5.828150">
        <ele>295.087</ele>
        <time>2020-05-23T17:21:30Z</time>
      </trkpt>
      <trkpt lat="43.163970" lon="-5.828140">
        <ele>295.015</ele>
        <time>2020-05-23T17:21:50Z</time>
      </trkpt>
      <trkpt lat="43.163980" lon="-5.828130">
        <ele>295.008</ele>
        <time>2020-05-23T17:22:10Z</time>
      </trkpt>
      <trkpt lat="43.163990" lon="-5.828120">
        <ele>295.065</ele>
        <time>2020-05-23T17:22:30Z</time>
      </trkpt>
      <trkpt lat="43.164000" lon="-5.828110">
        <ele>295.050</ele>
        <time>2020-05-23T17:22:50Z</time>
      </trkpt>
      <trkpt lat="43.164010" lon="-5.828100">
        <ele>295.057</ele>
        <time>2020-05-23T17:23:10Z</time>
      </trkpt>
      <trkpt lat="43.164020" lon="-5.828090">
        <ele>295.053</ele>
        <time>2020-05-23T17:23:30Z</time>
      </trkpt>
      <trkpt lat="43.164030" lon="-5.828080">
        <ele>295.032</ele>
        <time>2020-05-23T17:23:50Z</time>
      </trkpt>
      <trkpt lat="43.164040" lon="-5.828080">
        <ele>295.083</ele>
        <time>2020-05-23T17:24:10Z</time>
      </trkpt>
      <trkpt lat="43.164050" lon="-5.828070">
        <ele>295.052</ele>
        <time>2020-05-23T17:24:30Z</time>
      </trkpt>
      <trkpt lat="43.164060" lon="-5.828070">
        <ele>295.055</ele>
        <time>2020-05-23T17:24:50Z</time>
      </trkpt>
      <trkpt lat="43.164070" lon="-5.828070">
        <ele>295.094</ele>
        <time>2020-05-23T17:25:10Z</time>
      </trkpt>
      <trkpt lat="43.164080" lon="-5.828070">
        <ele>295.057</ele>
        <time>2020-05-23T17:25:30Z</time>
      </trkpt>
      <trkpt lat="43.164100" lon="-5.828070">
        <ele>295.022</ele>
        <time>2020-05-23T17:25:50Z</time>
      </trkpt>
      <trkpt lat="43.164110" lon="-5.828070">
        <ele>295.008</ele>
        <time>2020-05-23T17:26:10Z</time>
      </trkpt>
      <trkpt lat="43.164120" lon="-5.828070">
        <ele>295.053</ele>
        <time>2020-05-23T17:26:30Z</time>
      </trkpt>
      <trkpt lat="43.164130" lon="-5.828070">
        <ele>295.078</ele>
        <time>2020-05-23T17:26:50Z</time>
      </trkpt>
      <trkpt lat="43.164140" lon="-5.828080">
        <ele>295.025</ele>
        <time>2020-05-23T17:27:10Z</time>
      </trkpt>
      <trkpt lat="43.164150" lon="-5.828080">
        <ele>295.011</ele>
        <time>2020-05-23T17:27:30Z</time>
      </trkpt>
      <trkpt lat="43.164160" lon="-5.828090">
        <ele>295.040</ele>
        <time>2020-05-23T17:27:50Z</time>
      </trkpt>
      <trkpt lat="43.164170" lon="-5.828100">
        <ele>295.041</ele>
        <time>2020-05-23T17:28:10Z</time>
      </trkpt>
      <trkpt lat="43.164180" lon="-5.828110">
        <ele>295.050</ele>
        <time>2020-05-23T17:28:30Z</time>
      </trkpt>
      <trkpt lat="43.164190" lon="-5.828120">
        <ele>294.983</ele>
        <time>2020-05-23T17:28:50Z</time>
      </trkpt>
      <trkpt lat="43.164200" lon="-5.828130">
        <ele>294.929</ele>
        <time>2020-05-23T17:29:10Z</time>
      </trkpt>
      <trkpt lat="43.164220" lon="-5.828150">
        <ele>294.900</ele>
        <time>2020-05-23T17:29:30Z</time>
      </trkpt>
      <trkpt lat="43.164220" lon="-5.828160">
        <ele>294.920</ele>
        <time>2020-05-23T17:29:50Z</time>
      </trkpt>
      <trkpt lat="43.164230" lon="-5.828180">
        <ele>294.908</ele>
        <time>2020-05-23T17:30:10Z</time>
      </trkpt>
      <trkpt lat="43.164240" lon="-5.828190">
        <ele>294.976</ele>
        <time>2020-05-23T17:30:30Z</time>
      </trkpt>
      <trkpt lat="43.164240" lon="-5.828210">
        <ele>294.971</ele>
        <time>2020-05-23T17:30:50Z</time>
      </trkpt>
      <trkpt lat="43.164250" lon="-5.828220">
        <ele>294.998</ele>
        <time>2020-05-23T17:31:10Z</time>
      </trkpt>
      <trkpt lat="43.164250" lon="-5.828240">
        <ele>294.984</ele>
        <time>2020-05-23T17:31:30Z</time>
      </trkpt>
      <trkpt lat="43.164250" lon="-5.828250">
        <ele>294.933</ele>
        <time>2020-05-23T17:31:50Z</time>
      </trkpt>
      <trkpt lat="43.164250" lon="-5.828270">
        <ele>294.924</ele>
        <time>2020-05-23T17:32:10Z</time>
      </trkpt>
      <trkpt lat="43.164250" lon="-5.828280">
        <ele>294.923</ele>
        <time>2020-05-23T17:32:30Z</time>
      </trkpt>
      <trkpt lat="43.164250" lon="-5.828300">
        <ele>295.086</ele>
        <time>2020-05-23T17:32:50Z</time>
      </trkpt>
      <trkpt lat="43.164250" lon="-5.828320">
        <ele>295.037</ele>
        <time>2020-05-23T17:33:10Z</time>
      </trkpt>
      <trkpt lat="43.164250" lon="-5.828330">
        <ele>295.049</ele>
        <time>2020-05-23T17:33:30Z</time>
      </trkpt>
      <trkpt lat="43.164250" lon="-5.828350">
        <ele>295.013</ele>
        <time>2020-05-23T17:33:50Z</time>
      </trkpt>
      <trkpt lat="43.164930" lon="-5.828530">
        <ele>294.808</ele>
        <time>2020-05-23T17:34:10Z</time>
      </trkpt>
      <trkpt lat="43.165620" lon="-5.828710">
        <ele>294.467</ele>
        <time>2020-05-23T17:34:30Z</time>
      </trkpt>
      <trkpt lat="43.165680" lon="-5.828730">
        <ele>294.452</ele>
        <time>2020-05-23T17:34:50Z</time>
      </trkpt>
      <trkpt lat="43.166210" lon="-5.828870">
        <ele>294.929</ele>
        <time>2020-05-23T17:35:10Z</time>
      </trkpt>
      <trkpt lat="43.166820" lon="-5.829040">
        <ele>295.035</ele>
        <time>2020-05-23T17:35:30Z</time>
      </trkpt>
      <trkpt lat="43.166860" lon="-5.829070">
        <ele>295.054</ele>
        <time>2020-05-23T17:35:50Z</time>
      </trkpt>
      <trkpt lat="43.166880" lon="-5.829090">
        <ele>295.075</ele>
        <time>2020-05-23T17:36:10Z</time>
      </trkpt>
      <trkpt lat="43.166890" lon="-5.829110">
        <ele>295.074</ele>
        <time>2020-05-23T17:36:30Z</time>
      </trkpt>
      <trkpt lat="43.166890" lon="-5.829130">
        <ele>295.097</ele>
        <time>2020-05-23T17:36:50Z</time>
      </trkpt>
      <trkpt lat="43.166900" lon="-5.829160">
        <ele>295.075</ele>
        <time>2020-05-23T17:37:10Z</time>
      </trkpt>
      <trkpt lat="43.166900" lon="-5.829200">
        <ele>295.228</ele>
        <time>2020-05-23T17:37:30Z</time>
      </trkpt>
      <trkpt lat="43.166900" lon="-5.829330">
        <ele>296.120</ele>
        <time>2020-05-23T17:37:50Z</time>
      </trkpt>
      <trkpt lat="43.166905" lon="-5.829331">
        <ele>296.108</ele>
        <time>2020-05-23T17:38:10Z</time>
      </trkpt>
      <trkpt lat="43.167080" lon="-5.829240">
        <ele>296.581</ele>
        <time>2020-05-23T17:38:30Z</time>
      </trkpt>
      <trkpt lat="43.167160" lon="-5.829200">
        <ele>296.456</ele>
        <time>2020-05-23T17:38:50Z</time>
      </trkpt>
      <trkpt lat="43.167250" lon="-5.829160">
        <ele>296.473</ele>
        <time>2020-05-23T17:39:10Z</time>
      </trkpt>
      <trkpt lat="43.167300" lon="-5.829130">
        <ele>297.059</ele>
        <time>2020-05-23T17:39:30Z</time>
      </trkpt>
      <trkpt lat="43.167340" lon="-5.829100">
        <ele>297.158</ele>
        <time>2020-05-23T17:39:50Z</time>
      </trkpt>
      <trkpt lat="43.167350" lon="-5.829100">
        <ele>297.399</ele>
        <time>2020-05-23T17:40:10Z</time>
      </trkpt>
      <trkpt lat="43.167430" lon="-5.829040">
        <ele>297.138</ele>
        <time>2020-05-23T17:40:30Z</time>
      </trkpt>
      <trkpt lat="43.167570" lon="-5.828940">
        <ele>296.411</ele>
        <time>2020-05-23T17:40:50Z</time>
      </trkpt>
      <trkpt lat="43.167740" lon="-5.828810">
        <ele>295.677</ele>
        <time>2020-05-23T17:41:10Z</time>
      </trkpt>
      <trkpt lat="43.167890" lon="-5.828720">
        <ele>294.561</ele>
        <time>2020-05-23T17:41:30Z</time>
      </trkpt>
      <trkpt lat="43.167960" lon="-5.828680">
        <ele>293.727</ele>
        <time>2020-05-23T17:41:50Z</time>
      </trkpt>
      <trkpt lat="43.167970" lon="-5.828680">
        <ele>293.808</ele>
        <time>2020-05-23T17:42:10Z</time>
      </trkpt>
      <trkpt lat="43.168010" lon="-5.828660">
        <ele>293.491</ele>
        <time>2020-05-23T17:42:30Z</time>
      </trkpt>
      <trkpt lat="43.168020" lon="-5.828660">
        <ele>293.486</ele>
        <time>2020-05-23T17:42:50Z</time>
      </trkpt>
      <trkpt lat="43.168030" lon="-5.828660">
        <ele>293.593</ele>
        <time>2020-05-23T17:43:10Z</time>
      </trkpt>
      <trkpt lat="43.168050" lon="-5.828650">
        <ele>293.259</ele>
        <time>2020-05-23T17:43:30Z</time>
      </trkpt>
      <trkpt lat="43.168100" lon="-5.828650">
        <ele>293.388</ele>
        <time>2020-05-23T17:43:50Z</time>
      </trkpt>
      <trkpt lat="43.168160" lon="-5.828650">
        <ele>293.349</ele>
        <time>2020-05-23T17:44:10Z</time>
      </trkpt>
      <trkpt lat="43.168210" lon="-5.828660">
        <ele>293.628</ele>
        <time>2020-05-23T17:44:30Z</time>
      </trkpt>
      <trkpt lat="43.168230" lon="-5.828660">
        <ele>293.681</ele>
        <time>2020-05-23T17:44:50Z</time>
      </trkpt>
      <trkpt lat="43.168280" lon="-5.828670">
        <ele>293.992</ele>
        <time>2020-05-23T17:45:10Z</time>
      </trkpt>
      <trkpt lat="43.168370" lon="-5.828680">
        <ele>294.173</ele>
        <time>2020-05-23T17:45:30Z</time>
      </trkpt>
      <trkpt lat="43.168490" lon="-5.828720">
        <ele>294.720</ele>
        <time>2020-05-23T17:45:50Z</time>
      </trkpt>
      <trkpt lat="43.168570" lon="-5.828740">
        <ele>294.908</ele>
        <time>2020-05-23T17:46:10Z</time>
      </trkpt>
      <trkpt lat="43.168600" lon="-5.828760">
        <ele>295.363</ele>
        <time>2020-05-23T17:46:30Z</time>
      </trkpt>
      <trkpt lat="43.168630" lon="-5.828780">
        <ele>295.588</ele>
        <time>2020-05-23T17:46:50Z</time>
      </trkpt>
      <trkpt lat="43.168650" lon="-5.828790">
        <ele>295.335</ele>
        <time>2020-05-23T17:47:10Z</time>
      </trkpt>
      <trkpt lat="43.168790" lon="-5.828890">
        <ele>293.941</ele>
        <time>2020-05-23T17:47:30Z</time>
      </trkpt>
      <trkpt lat="43.168830" lon="-5.828910">
        <ele>293.310</ele>
        <time>2020-05-23T17:47:50Z</time>
      </trkpt>
      <trkpt lat="43.168850" lon="-5.828930">
        <ele>293.311</ele>
        <time>2020-05-23T17:48:10Z</time>
      </trkpt>
      <trkpt lat="43.168880" lon="-5.828950">
        <ele>293.080</ele>
        <time>2020-05-23T17:48:30Z</time>
      </trkpt>
      <trkpt lat="43.168900" lon="-5.828950">
        <ele>292.773</ele>
        <time>2020-05-23T17:48:50Z</time>
      </trkpt>
      <trkpt lat="43.168920" lon="-5.828960">
        <ele>292.887</ele>
        <time>2020-05-23T17:49:10Z</time>
      </trkpt>
      <trkpt lat="43.168960" lon="-5.828960">
        <ele>292.642</ele>
        <time>2020-05-23T17:49:30Z</time>
      </trkpt>
      <trkpt lat="43.169050" lon="-5.828960">
        <ele>292.026</ele>
        <time>2020-05-23T17:49:50Z</time>
      </trkpt>
      <trkpt lat="43.169080" lon="-5.828960">
        <ele>291.808</ele>
        <time>2020-05-23T17:50:10Z</time>
      </trkpt>
      <trkpt lat="43.169160" lon="-5.828940">
        <ele>291.212</ele>
        <time>2020-05-23T17:50:30Z</time>
      </trkpt>
      <trkpt lat="43.169270" lon="-5.828910">
        <ele>292.917</ele>
        <time>2020-05-23T17:50:50Z</time>
      </trkpt>
      <trkpt lat="43.169500" lon="-5.828680">
        <ele>292.424</ele>
        <time>2020-05-23T17:51:10Z</time>
      </trkpt>
      <trkpt lat="43.169530" lon="-5.828650">
        <ele>292.520</ele>
        <time>2020-05-23T17:51:30Z</time>
      </trkpt>
      <trkpt lat="43.169550" lon="-5.828630">
        <ele>292.569</ele>
        <time>2020-05-23T17:51:50Z</time>
      </trkpt>
      <trkpt lat="43.169610" lon="-5.828540">
        <ele>292.740</ele>
        <time>2020-05-23T17:52:10Z</time>
      </trkpt>
      <trkpt lat="43.169670" lon="-5.828460">
        <ele>292.479</ele>
        <time>2020-05-23T17:52:30Z</time>
      </trkpt>
      <trkpt lat="43.169790" lon="-5.828290">
        <ele>291.492</ele>
        <time>2020-05-23T17:52:50Z</time>
      </trkpt>
      <trkpt lat="43.169900" lon="-5.828160">
        <ele>291.185</ele>
        <time>2020-05-23T17:53:10Z</time>
      </trkpt>
      <trkpt lat="43.169940" lon="-5.828130">
        <ele>290.889</ele>
        <time>2020-05-23T17:53:30Z</time>
      </trkpt>
      <trkpt lat="43.169960" lon="-5.828100">
        <ele>290.117</ele>
        <time>2020-05-23T17:53:50Z</time>
      </trkpt>
      <trkpt lat="43.170010" lon="-5.828070">
        <ele>289.708</ele>
        <time>2020-05-23T17:54:10Z</time>
      </trkpt>
      <trkpt lat="43.170070" lon="-5.828040">
        <ele>290.312</ele>
        <time>2020-05-23T17:54:30Z</time>
      </trkpt>
      <trkpt lat="43.170150" lon="-5.828000">
        <ele>291.287</ele>
        <time>2020-05-23T17:54:50Z</time>
      </trkpt>
      <trkpt lat="43.170320" lon="-5.827920">
        <ele>291.914</ele>
        <time>2020-05-23T17:55:10Z</time>
      </trkpt>
      <trkpt lat="43.170460" lon="-5.827860">
        <ele>292.630</ele>
        <time>2020-05-23T17:55:30Z</time>
      </trkpt>
      <trkpt lat="43.170570" lon="-5.827810">
        <ele>292.739</ele>
        <time>2020-05-23T17:55:50Z</time>
      </trkpt>
      <trkpt lat="43.170640" lon="-5.827770">
        <ele>293.660</ele>
        <time>2020-05-23T17:56:10Z</time>
      </trkpt>
      <trkpt lat="43.170660" lon="-5.827760">
        <ele>293.949</ele>
        <time>2020-05-23T17:56:30Z</time>
      </trkpt>
      <trkpt lat="43.170770" lon="-5.827670">
        <ele>294.532</ele>
        <time>2020-05-23T17:56:50Z</time>
      </trkpt>
      <trkpt lat="43.170810" lon="-5.827640">
        <ele>294.589</ele>
        <time>2020-05-23T17:57:10Z</time>
      </trkpt>
      <trkpt lat="43.171220" lon="-5.827270">
        <ele>294.106</ele>
        <time>2020-05-23T17:57:30Z</time>
      </trkpt>
      <trkpt lat="43.171370" lon="-5.827130">
        <ele>294.026</ele>
        <time>2020-05-23T17:57:50Z</time>
      </trkpt>
      <trkpt lat="43.171440" lon="-5.827060">
        <ele>293.508</ele>
        <time>2020-05-23T17:58:10Z</time>
      </trkpt>
      <trkpt lat="43.171970" lon="-5.826580">
        <ele>291.452</ele>
        <time>2020-05-23T17:58:30Z</time>
      </trkpt>
      <trkpt lat="43.172240" lon="-5.826330">
        <ele>290.537</ele>
        <time>2020-05-23T17:58:50Z</time>
      </trkpt>
      <trkpt lat="43.172560" lon="-5.826050">
        <ele>288.754</ele>
        <time>2020-05-23T17:59:10Z</time>
      </trkpt>
      <trkpt lat="43.172610" lon="-5.826000">
        <ele>288.370</ele>
        <time>2020-05-23T17:59:30Z</time>
      </trkpt>
      <trkpt lat="43.172650" lon="-5.825970">
        <ele>288.079</ele>
        <time>2020-05-23T17:59:50Z</time>
      </trkpt>
      <trkpt lat="43.172730" lon="-5.825930">
        <ele>287.840</ele>
        <time>2020-05-23T18:00:10Z</time>
      </trkpt>
      <trkpt lat="43.172730" lon="-5.825920">
        <ele>287.669</ele>
        <time>2020-05-23T18:00:30Z</time>
      </trkpt>
      <trkpt lat="43.172800" lon="-5.825890">
        <ele>287.492</ele>
        <time>2020-05-23T18:00:50Z</time>
      </trkpt>
      <trkpt lat="43.172880" lon="-5.825850">
        <ele>287.179</ele>
        <time>2020-05-23T18:01:10Z</time>
      </trkpt>
      <trkpt lat="43.173200" lon="-5.825720">
        <ele>288.105</ele>
        <time>2020-05-23T18:01:30Z</time>
      </trkpt>
      <trkpt lat="43.173420" lon="-5.825640">
        <ele>288.625</ele>
        <time>2020-05-23T18:01:50Z</time>
      </trkpt>
      <trkpt lat="43.173520" lon="-5.825610">
        <ele>288.808</ele>
        <time>2020-05-23T18:02:10Z</time>
      </trkpt>
      <trkpt lat="43.173600" lon="-5.825560">
        <ele>288.071</ele>
        <time>2020-05-23T18:02:30Z</time>
      </trkpt>
      <trkpt lat="43.173770" lon="-5.825470">
        <ele>290.626</ele>
        <time>2020-05-23T18:02:50Z</time>
      </trkpt>
      <trkpt lat="43.173800" lon="-5.825450">
        <ele>290.983</ele>
        <time>2020-05-23T18:03:10Z</time>
      </trkpt>
      <trkpt lat="43.173850" lon="-5.825410">
        <ele>291.089</ele>
        <time>2020-05-23T18:03:30Z</time>
      </trkpt>
      <trkpt lat="43.173990" lon="-5.825280">
        <ele>290.298</ele>
        <time>2020-05-23T18:03:50Z</time>
      </trkpt>
      <trkpt lat="43.174210" lon="-5.825090">
        <ele>291.089</ele>
        <time>2020-05-23T18:04:10Z</time>
      </trkpt>
      <trkpt lat="43.174270" lon="-5.825040">
        <ele>291.498</ele>
        <time>2020-05-23T18:04:30Z</time>
      </trkpt>
      <trkpt lat="43.174400" lon="-5.824900">
        <ele>291.661</ele>
        <time>2020-05-23T18:04:50Z</time>
      </trkpt>
      <trkpt lat="43.174500" lon="-5.824780">
        <ele>290.883</ele>
        <time>2020-05-23T18:05:10Z</time>
      </trkpt>
      <trkpt lat="43.174750" lon="-5.824500">
        <ele>288.725</ele>
        <time>2020-05-23T18:05:30Z</time>
      </trkpt>
      <trkpt lat="43.174960" lon="-5.824230">
        <ele>289.217</ele>
        <time>2020-05-23T18:05:50Z</time>
      </trkpt>
      <trkpt lat="43.174990" lon="-5.824200">
        <ele>289.508</ele>
        <time>2020-05-23T18:06:10Z</time>
      </trkpt>
      <trkpt lat="43.175000" lon="-5.824180">
        <ele>289.392</ele>
        <time>2020-05-23T18:06:30Z</time>
      </trkpt>
      <trkpt lat="43.175010" lon="-5.824160">
        <ele>289.177</ele>
        <time>2020-05-23T18:06:50Z</time>
      </trkpt>
      <trkpt lat="43.175020" lon="-5.824130">
        <ele>288.764</ele>
        <time>2020-05-23T18:07:10Z</time>
      </trkpt>
      <trkpt lat="43.175080" lon="-5.824030">
        <ele>288.180</ele>
        <time>2020-05-23T18:07:30Z</time>
      </trkpt>
      <trkpt lat="43.175130" lon="-5.823920">
        <ele>287.439</ele>
        <time>2020-05-23T18:07:50Z</time>
      </trkpt>
      <trkpt lat="43.175190" lon="-5.823800">
        <ele>286.960</ele>
        <time>2020-05-23T18:08:10Z</time>
      </trkpt>
      <trkpt lat="43.175270" lon="-5.823650">
        <ele>285.899</ele>
        <time>2020-05-23T18:08:30Z</time>
      </trkpt>
      <trkpt lat="43.175390" lon="-5.823470">
        <ele>285.552</ele>
        <time>2020-05-23T18:08:50Z</time>
      </trkpt>
      <trkpt lat="43.175610" lon="-5.823180">
        <ele>284.776</ele>
        <time>2020-05-23T18:09:10Z</time>
      </trkpt>
      <trkpt lat="43.175670" lon="-5.823110">
        <ele>284.790</ele>
        <time>2020-05-23T18:09:30Z</time>
      </trkpt>
      <trkpt lat="43.175730" lon="-5.823040">
        <ele>284.519</ele>
        <time>2020-05-23T18:09:50Z</time>
      </trkpt>
      <trkpt lat="43.175750" lon="-5.823030">
        <ele>284.708</ele>
        <time>2020-05-23T18:10:10Z</time>
      </trkpt>
      <trkpt lat="43.175850" lon="-5.822920">
        <ele>284.421</ele>
        <time>2020-05-23T18:10:30Z</time>
      </trkpt>
      <trkpt lat="43.175940" lon="-5.822830">
        <ele>284.266</ele>
        <time>2020-05-23T18:10:50Z</time>
      </trkpt>
      <trkpt lat="43.176090" lon="-5.822730">
        <ele>284.513</ele>
        <time>2020-05-23T18:11:10Z</time>
      </trkpt>
      <trkpt lat="43.176270" lon="-5.822600">
        <ele>284.229</ele>
        <time>2020-05-23T18:11:30Z</time>
      </trkpt>
      <trkpt lat="43.176370" lon="-5.822540">
        <ele>284.048</ele>
        <time>2020-05-23T18:11:50Z</time>
      </trkpt>
      <trkpt lat="43.176450" lon="-5.822500">
        <ele>284.359</ele>
        <time>2020-05-23T18:12:10Z</time>
      </trkpt>
      <trkpt lat="43.176670" lon="-5.822360">
        <ele>284.568</ele>
        <time>2020-05-23T18:12:30Z</time>
      </trkpt>
      <trkpt lat="43.176700" lon="-5.822340">
        <ele>284.531</ele>
        <time>2020-05-23T18:12:50Z</time>
      </trkpt>
      <trkpt lat="43.176740" lon="-5.822320">
        <ele>284.779</ele>
        <time>2020-05-23T18:13:10Z</time>
      </trkpt>
      <trkpt lat="43.176800" lon="-5.822280">
        <ele>284.705</ele>
        <time>2020-05-23T18:13:30Z</time>
      </trkpt>
      <trkpt lat="43.177080" lon="-5.822120">
        <ele>285.325</ele>
        <time>2020-05-23T18:13:50Z</time>
      </trkpt>
      <trkpt lat="43.177320" lon="-5.821960">
        <ele>285.508</ele>
        <time>2020-05-23T18:14:10Z</time>
      </trkpt>
      <trkpt lat="43.177350" lon="-5.821940">
        <ele>285.761</ele>
        <time>2020-05-23T18:14:30Z</time>
      </trkpt>
      <trkpt lat="43.177630" lon="-5.821720">
        <ele>285.586</ele>
        <time>2020-05-23T18:14:50Z</time>
      </trkpt>
      <trkpt lat="43.177890" lon="-5.821470">
        <ele>285.253</ele>
        <time>2020-05-23T18:15:10Z</time>
      </trkpt>
      <trkpt lat="43.178080" lon="-5.821300">
        <ele>284.719</ele>
        <time>2020-05-23T18:15:30Z</time>
      </trkpt>
      <trkpt lat="43.178280" lon="-5.821120">
        <ele>283.698</ele>
        <time>2020-05-23T18:15:50Z</time>
      </trkpt>
      <trkpt lat="43.178620" lon="-5.820850">
        <ele>283.469</ele>
        <time>2020-05-23T18:16:10Z</time>
      </trkpt>
      <trkpt lat="43.178920" lon="-5.820610">
        <ele>283.158</ele>
        <time>2020-05-23T18:16:30Z</time>
      </trkpt>
      <trkpt lat="43.179470" lon="-5.820230">
        <ele>281.691</ele>
        <time>2020-05-23T18:16:50Z</time>
      </trkpt>
      <trkpt lat="43.179570" lon="-5.820150">
        <ele>281.777</ele>
        <time>2020-05-23T18:17:10Z</time>
      </trkpt>
      <trkpt lat="43.179690" lon="-5.820060">
        <ele>282.261</ele>
        <time>2020-05-23T18:17:30Z</time>
      </trkpt>
      <trkpt lat="43.179900" lon="-5.819890">
        <ele>282.727</ele>
        <time>2020-05-23T18:17:50Z</time>
      </trkpt>
      <trkpt lat="43.180080" lon="-5.819740">
        <ele>283.108</ele>
        <time>2020-05-23T18:18:10Z</time>
      </trkpt>
      <trkpt lat="43.180210" lon="-5.819640">
        <ele>283.331</ele>
        <time>2020-05-23T18:18:30Z</time>
      </trkpt>
      <trkpt lat="43.180460" lon="-5.819430">
        <ele>284.566</ele>
        <time>2020-05-23T18:18:50Z</time>
      </trkpt>
      <trkpt lat="43.180510" lon="-5.819370">
        <ele>284.853</ele>
        <time>2020-05-23T18:19:10Z</time>
      </trkpt>
      <trkpt lat="43.180580" lon="-5.819290">
        <ele>285.279</ele>
        <time>2020-05-23T18:19:30Z</time>
      </trkpt>
      <trkpt lat="43.180610" lon="-5.819250">
        <ele>285.258</ele>
        <time>2020-05-23T18:19:50Z</time>
      </trkpt>
      <trkpt lat="43.180650" lon="-5.819190">
        <ele>285.299</ele>
        <time>2020-05-23T18:20:10Z</time>
      </trkpt>
      <trkpt lat="43.180690" lon="-5.819110">
        <ele>284.968</ele>
        <time>2020-05-23T18:20:30Z</time>
      </trkpt>
      <trkpt lat="43.180730" lon="-5.819030">
        <ele>284.731</ele>
        <time>2020-05-23T18:20:50Z</time>
      </trkpt>
      <trkpt lat="43.180750" lon="-5.818970">
        <ele>284.518</ele>
        <time>2020-05-23T18:21:10Z</time>
      </trkpt>
      <trkpt lat="43.180770" lon="-5.818880">
        <ele>284.098</ele>
        <time>2020-05-23T18:21:30Z</time>
      </trkpt>
      <trkpt lat="43.180790" lon="-5.818840">
        <ele>283.917</ele>
        <time>2020-05-23T18:21:50Z</time>
      </trkpt>
      <trkpt lat="43.180810" lon="-5.818770">
        <ele>283.608</ele>
        <time>2020-05-23T18:22:10Z</time>
      </trkpt>
      <trkpt lat="43.180850" lon="-5.818680">
        <ele>283.715</ele>
        <time>2020-05-23T18:22:30Z</time>
      </trkpt>
      <trkpt lat="43.180860" lon="-5.818660">
        <ele>283.680</ele>
        <time>2020-05-23T18:22:50Z</time>
      </trkpt>
      <trkpt lat="43.180870" lon="-5.818640">
        <ele>283.657</ele>
        <time>2020-05-23T18:23:10Z</time>
      </trkpt>
      <trkpt lat="43.180880" lon="-5.818620">
        <ele>283.623</ele>
        <time>2020-05-23T18:23:30Z</time>
      </trkpt>
      <trkpt lat="43.180940" lon="-5.818540">
        <ele>282.962</ele>
        <time>2020-05-23T18:23:50Z</time>
      </trkpt>
      <trkpt lat="43.180990" lon="-5.818470">
        <ele>282.683</ele>
        <time>2020-05-23T18:24:10Z</time>
      </trkpt>
      <trkpt lat="43.181120" lon="-5.818300">
        <ele>283.552</ele>
        <time>2020-05-23T18:24:30Z</time>
      </trkpt>
      <trkpt lat="43.181260" lon="-5.818130">
        <ele>283.765</ele>
        <time>2020-05-23T18:24:50Z</time>
      </trkpt>
      <trkpt lat="43.181770" lon="-5.817480">
        <ele>284.161</ele>
        <time>2020-05-23T18:25:10Z</time>
      </trkpt>
      <trkpt lat="43.182270" lon="-5.816790">
        <ele>279.721</ele>
        <time>2020-05-23T18:25:30Z</time>
      </trkpt>
      <trkpt lat="43.182350" lon="-5.816670">
        <ele>279.413</ele>
        <time>2020-05-23T18:25:50Z</time>
      </trkpt>
      <trkpt lat="43.182390" lon="-5.816620">
        <ele>278.808</ele>
        <time>2020-05-23T18:26:10Z</time>
      </trkpt>
      <trkpt lat="43.182640" lon="-5.816200">
        <ele>275.620</ele>
        <time>2020-05-23T18:26:30Z</time>
      </trkpt>
      <trkpt lat="43.182860" lon="-5.815810">
        <ele>275.955</ele>
        <time>2020-05-23T18:26:50Z</time>
      </trkpt>
      <trkpt lat="43.182930" lon="-5.815690">
        <ele>276.532</ele>
        <time>2020-05-23T18:27:10Z</time>
      </trkpt>
      <trkpt lat="43.183070" lon="-5.815440">
        <ele>277.478</ele>
        <time>2020-05-23T18:27:30Z</time>
      </trkpt>
      <trkpt lat="43.183260" lon="-5.815090">
        <ele>277.657</ele>
        <time>2020-05-23T18:27:50Z</time>
      </trkpt>
      <trkpt lat="43.183490" lon="-5.814690">
        <ele>279.138</ele>
        <time>2020-05-23T18:28:10Z</time>
      </trkpt>
      <trkpt lat="43.183510" lon="-5.814660">
        <ele>279.277</ele>
        <time>2020-05-23T18:28:30Z</time>
      </trkpt>
      <trkpt lat="43.183750" lon="-5.814290">
        <ele>280.190</ele>
        <time>2020-05-23T18:28:50Z</time>
      </trkpt>
      <trkpt lat="43.183780" lon="-5.814230">
        <ele>279.936</ele>
        <time>2020-05-23T18:29:10Z</time>
      </trkpt>
      <trkpt lat="43.183860" lon="-5.814110">
        <ele>280.117</ele>
        <time>2020-05-23T18:29:30Z</time>
      </trkpt>
      <trkpt lat="43.183950" lon="-5.813940">
        <ele>280.318</ele>
        <time>2020-05-23T18:29:50Z</time>
      </trkpt>
      <trkpt lat="43.183970" lon="-5.813910">
        <ele>280.408</ele>
        <time>2020-05-23T18:30:10Z</time>
      </trkpt>
      <trkpt lat="43.184060" lon="-5.813770">
        <ele>280.567</ele>
        <time>2020-05-23T18:30:30Z</time>
      </trkpt>
      <trkpt lat="43.184120" lon="-5.813670">
        <ele>281.142</ele>
        <time>2020-05-23T18:30:50Z</time>
      </trkpt>
      <trkpt lat="43.184140" lon="-5.813620">
        <ele>281.489</ele>
        <time>2020-05-23T18:31:10Z</time>
      </trkpt>
      <trkpt lat="43.184160" lon="-5.813580">
        <ele>281.675</ele>
        <time>2020-05-23T18:31:30Z</time>
      </trkpt>
      <trkpt lat="43.184190" lon="-5.813470">
        <ele>281.614</ele>
        <time>2020-05-23T18:31:50Z</time>
      </trkpt>
      <trkpt lat="43.184210" lon="-5.813400">
        <ele>281.765</ele>
        <time>2020-05-23T18:32:10Z</time>
      </trkpt>
      <trkpt lat="43.184240" lon="-5.813320">
        <ele>281.964</ele>
        <time>2020-05-23T18:32:30Z</time>
      </trkpt>
      <trkpt lat="43.184270" lon="-5.813270">
        <ele>282.047</ele>
        <time>2020-05-23T18:32:50Z</time>
      </trkpt>
      <trkpt lat="43.184310" lon="-5.813200">
        <ele>282.078</ele>
        <time>2020-05-23T18:33:10Z</time>
      </trkpt>
      <trkpt lat="43.184350" lon="-5.813130">
        <ele>281.933</ele>
        <time>2020-05-23T18:33:30Z</time>
      </trkpt>
      <trkpt lat="43.184910" lon="-5.812360">
        <ele>278.126</ele>
        <time>2020-05-23T18:33:50Z</time>
      </trkpt>
      <trkpt lat="43.185240" lon="-5.811940">
        <ele>277.408</ele>
        <time>2020-05-23T18:34:10Z</time>
      </trkpt>
      <trkpt lat="43.185380" lon="-5.811760">
        <ele>276.691</ele>
        <time>2020-05-23T18:34:30Z</time>
      </trkpt>
      <trkpt lat="43.185420" lon="-5.811710">
        <ele>276.446</ele>
        <time>2020-05-23T18:34:50Z</time>
      </trkpt>
      <trkpt lat="43.185570" lon="-5.811530">
        <ele>275.123</ele>
        <time>2020-05-23T18:35:10Z</time>
      </trkpt>
      <trkpt lat="43.185680" lon="-5.811410">
        <ele>274.719</ele>
        <time>2020-05-23T18:35:30Z</time>
      </trkpt>
      <trkpt lat="43.185760" lon="-5.811310">
        <ele>274.728</ele>
        <time>2020-05-23T18:35:50Z</time>
      </trkpt>
      <trkpt lat="43.185780" lon="-5.811290">
        <ele>274.739</ele>
        <time>2020-05-23T18:36:10Z</time>
      </trkpt>
      <trkpt lat="43.185850" lon="-5.811200">
        <ele>273.988</ele>
        <time>2020-05-23T18:36:30Z</time>
      </trkpt>
      <trkpt lat="43.185940" lon="-5.811080">
        <ele>273.831</ele>
        <time>2020-05-23T18:36:50Z</time>
      </trkpt>
      <trkpt lat="43.186020" lon="-5.810960">
        <ele>273.545</ele>
        <time>2020-05-23T18:37:10Z</time>
      </trkpt>
      <trkpt lat="43.186100" lon="-5.810820">
        <ele>271.547</ele>
        <time>2020-05-23T18:37:30Z</time>
      </trkpt>
      <trkpt lat="43.186170" lon="-5.810690">
        <ele>271.611</ele>
        <time>2020-05-23T18:37:50Z</time>
      </trkpt>
      <trkpt lat="43.186270" lon="-5.810470">
        <ele>271.408</ele>
        <time>2020-05-23T18:38:10Z</time>
      </trkpt>
      <trkpt lat="43.186330" lon="-5.810320">
        <ele>271.768</ele>
        <time>2020-05-23T18:38:30Z</time>
      </trkpt>
      <trkpt lat="43.186340" lon="-5.810280">
        <ele>271.613</ele>
        <time>2020-05-23T18:38:50Z</time>
      </trkpt>
      <trkpt lat="43.186410" lon="-5.810110">
        <ele>270.290</ele>
        <time>2020-05-23T18:39:10Z</time>
      </trkpt>
      <trkpt lat="43.186410" lon="-5.810100">
        <ele>270.056</ele>
        <time>2020-05-23T18:39:30Z</time>
      </trkpt>
      <trkpt lat="43.186490" lon="-5.809920">
        <ele>269.745</ele>
        <time>2020-05-23T18:39:50Z</time>
      </trkpt>
      <trkpt lat="43.186620" lon="-5.809640">
        <ele>268.866</ele>
        <time>2020-05-23T18:40:10Z</time>
      </trkpt>
      <trkpt lat="43.186690" lon="-5.809470">
        <ele>268.585</ele>
        <time>2020-05-23T18:40:30Z</time>
      </trkpt>
      <trkpt lat="43.186750" lon="-5.809350">
        <ele>269.518</ele>
        <time>2020-05-23T18:40:50Z</time>
      </trkpt>
      <trkpt lat="43.186790" lon="-5.809260">
        <ele>269.692</ele>
        <time>2020-05-23T18:41:10Z</time>
      </trkpt>
      <trkpt lat="43.186930" lon="-5.808970">
        <ele>269.173</ele>
        <time>2020-05-23T18:41:30Z</time>
      </trkpt>
      <trkpt lat="43.187000" lon="-5.808790">
        <ele>269.720</ele>
        <time>2020-05-23T18:41:50Z</time>
      </trkpt>
      <trkpt lat="43.187040" lon="-5.808670">
        <ele>269.708</ele>
        <time>2020-05-23T18:42:10Z</time>
      </trkpt>
      <trkpt lat="43.187060" lon="-5.808620">
        <ele>269.843</ele>
        <time>2020-05-23T18:42:30Z</time>
      </trkpt>
      <trkpt lat="43.187080" lon="-5.808550">
        <ele>270.378</ele>
        <time>2020-05-23T18:42:50Z</time>
      </trkpt>
      <trkpt lat="43.187110" lon="-5.808390">
        <ele>270.365</ele>
        <time>2020-05-23T18:43:10Z</time>
      </trkpt>
      <trkpt lat="43.187120" lon="-5.808380">
        <ele>270.751</ele>
        <time>2020-05-23T18:43:30Z</time>
      </trkpt>
      <trkpt lat="43.187150" lon="-5.808160">
        <ele>270.780</ele>
        <time>2020-05-23T18:43:50Z</time>
      </trkpt>
      <trkpt lat="43.187160" lon="-5.808150">
        <ele>271.131</ele>
        <time>2020-05-23T18:44:10Z</time>
      </trkpt>
      <trkpt lat="43.187180" lon="-5.807970">
        <ele>271.040</ele>
        <time>2020-05-23T18:44:30Z</time>
      </trkpt>
      <trkpt lat="43.187190" lon="-5.807910">
        <ele>271.283</ele>
        <time>2020-05-23T18:44:50Z</time>
      </trkpt>
      <trkpt lat="43.187200" lon="-5.807780">
        <ele>271.175</ele>
        <time>2020-05-23T18:45:10Z</time>
      </trkpt>
      <trkpt lat="43.187220" lon="-5.807610">
        <ele>271.928</ele>
        <time>2020-05-23T18:45:30Z</time>
      </trkpt>
      <trkpt lat="43.187220" lon="-5.807530">
        <ele>271.920</ele>
        <time>2020-05-23T18:45:50Z</time>
      </trkpt>
      <trkpt lat="43.187220" lon="-5.807460">
        <ele>271.908</ele>
        <time>2020-05-23T18:46:10Z</time>
      </trkpt>
      <trkpt lat="43.187210" lon="-5.807420">
        <ele>271.611</ele>
        <time>2020-05-23T18:46:30Z</time>
      </trkpt>
      <trkpt lat="43.187210" lon="-5.807390">
        <ele>271.636</ele>
        <time>2020-05-23T18:46:50Z</time>
      </trkpt>
      <trkpt lat="43.187200" lon="-5.807320">
        <ele>271.363</ele>
        <time>2020-05-23T18:47:10Z</time>
      </trkpt>
      <trkpt lat="43.187180" lon="-5.807220">
        <ele>270.799</ele>
        <time>2020-05-23T18:47:30Z</time>
      </trkpt>
      <trkpt lat="43.187170" lon="-5.807180">
        <ele>270.748</ele>
        <time>2020-05-23T18:47:50Z</time>
      </trkpt>
      <trkpt lat="43.187060" lon="-5.806850">
        <ele>270.369</ele>
        <time>2020-05-23T18:48:10Z</time>
      </trkpt>
      <trkpt lat="43.186970" lon="-5.806490">
        <ele>270.998</ele>
        <time>2020-05-23T18:48:30Z</time>
      </trkpt>
      <trkpt lat="43.186930" lon="-5.806340">
        <ele>270.951</ele>
        <time>2020-05-23T18:48:50Z</time>
      </trkpt>
      <trkpt lat="43.186910" lon="-5.806260">
        <ele>270.834</ele>
        <time>2020-05-23T18:49:10Z</time>
      </trkpt>
      <trkpt lat="43.186880" lon="-5.806120">
        <ele>270.855</ele>
        <time>2020-05-23T18:49:30Z</time>
      </trkpt>
      <trkpt lat="43.186860" lon="-5.805970">
        <ele>271.010</ele>
        <time>2020-05-23T18:49:50Z</time>
      </trkpt>
      <trkpt lat="43.186830" lon="-5.805800">
        <ele>270.708</ele>
        <time>2020-05-23T18:50:10Z</time>
      </trkpt>
      <trkpt lat="43.186800" lon="-5.805620">
        <ele>270.897</ele>
        <time>2020-05-23T18:50:30Z</time>
      </trkpt>
      <trkpt lat="43.186760" lon="-5.805470">
        <ele>270.872</ele>
        <time>2020-05-23T18:50:50Z</time>
      </trkpt>
      <trkpt lat="43.186710" lon="-5.805310">
        <ele>271.139</ele>
        <time>2020-05-23T18:51:10Z</time>
      </trkpt>
      <trkpt lat="43.186690" lon="-5.805220">
        <ele>270.915</ele>
        <time>2020-05-23T18:51:30Z</time>
      </trkpt>
      <trkpt lat="43.186680" lon="-5.805160">
        <ele>270.594</ele>
        <time>2020-05-23T18:51:50Z</time>
      </trkpt>
      <trkpt lat="43.186680" lon="-5.805060">
        <ele>270.625</ele>
        <time>2020-05-23T18:52:10Z</time>
      </trkpt>
      <trkpt lat="43.186680" lon="-5.804970">
        <ele>270.554</ele>
        <time>2020-05-23T18:52:30Z</time>
      </trkpt>
      <trkpt lat="43.186710" lon="-5.804800">
        <ele>271.347</ele>
        <time>2020-05-23T18:52:50Z</time>
      </trkpt>
      <trkpt lat="43.186730" lon="-5.804600">
        <ele>271.665</ele>
        <time>2020-05-23T18:53:10Z</time>
      </trkpt>
      <trkpt lat="43.186770" lon="-5.804340">
        <ele>272.768</ele>
        <time>2020-05-23T18:53:30Z</time>
      </trkpt>
      <trkpt lat="43.186770" lon="-5.804320">
        <ele>272.614</ele>
        <time>2020-05-23T18:53:50Z</time>
      </trkpt>
      <trkpt lat="43.186780" lon="-5.804190">
        <ele>272.408</ele>
        <time>2020-05-23T18:54:10Z</time>
      </trkpt>
      <trkpt lat="43.186790" lon="-5.804100">
        <ele>272.840</ele>
        <time>2020-05-23T18:54:30Z</time>
      </trkpt>
      <trkpt lat="43.186790" lon="-5.804090">
        <ele>272.825</ele>
        <time>2020-05-23T18:54:50Z</time>
      </trkpt>
      <trkpt lat="43.186790" lon="-5.803990">
        <ele>272.882</ele>
        <time>2020-05-23T18:55:10Z</time>
      </trkpt>
      <trkpt lat="43.186780" lon="-5.803850">
        <ele>272.528</ele>
        <time>2020-05-23T18:55:30Z</time>
      </trkpt>
      <trkpt lat="43.186780" lon="-5.803830">
        <ele>272.677</ele>
        <time>2020-05-23T18:55:50Z</time>
      </trkpt>
      <trkpt lat="43.186760" lon="-5.803740">
        <ele>272.368</ele>
        <time>2020-05-23T18:56:10Z</time>
      </trkpt>
      <trkpt lat="43.186740" lon="-5.803630">
        <ele>272.137</ele>
        <time>2020-05-23T18:56:30Z</time>
      </trkpt>
      <trkpt lat="43.186730" lon="-5.803610">
        <ele>271.740</ele>
        <time>2020-05-23T18:56:50Z</time>
      </trkpt>
      <trkpt lat="43.186710" lon="-5.803510">
        <ele>271.794</ele>
        <time>2020-05-23T18:57:10Z</time>
      </trkpt>
      <trkpt lat="43.186660" lon="-5.803390">
        <ele>270.557</ele>
        <time>2020-05-23T18:57:30Z</time>
      </trkpt>
      <trkpt lat="43.186650" lon="-5.803380">
        <ele>270.422</ele>
        <time>2020-05-23T18:57:50Z</time>
      </trkpt>
      <trkpt lat="43.186600" lon="-5.803260">
        <ele>271.308</ele>
        <time>2020-05-23T18:58:10Z</time>
      </trkpt>
      <trkpt lat="43.186540" lon="-5.803160">
        <ele>271.553</ele>
        <time>2020-05-23T18:58:30Z</time>
      </trkpt>
      <trkpt lat="43.186480" lon="-5.803040">
        <ele>271.268</ele>
        <time>2020-05-23T18:58:50Z</time>
      </trkpt>
      <trkpt lat="43.186450" lon="-5.802950">
        <ele>271.285</ele>
        <time>2020-05-23T18:59:10Z</time>
      </trkpt>
      <trkpt lat="43.186430" lon="-5.802850">
        <ele>271.461</ele>
        <time>2020-05-23T18:59:30Z</time>
      </trkpt>
      <trkpt lat="43.186410" lon="-5.802770">
        <ele>271.110</ele>
        <time>2020-05-23T18:59:50Z</time>
      </trkpt>
      <trkpt lat="43.186400" lon="-5.802680">
        <ele>271.321</ele>
        <time>2020-05-23T19:00:10Z</time>
      </trkpt>
      <trkpt lat="43.186400" lon="-5.802580">
        <ele>272.120</ele>
        <time>2020-05-23T19:00:30Z</time>
      </trkpt>
      <trkpt lat="43.186400" lon="-5.802450">
        <ele>272.563</ele>
        <time>2020-05-23T19:00:50Z</time>
      </trkpt>
      <trkpt lat="43.186400" lon="-5.802420">
        <ele>272.447</ele>
        <time>2020-05-23T19:01:10Z</time>
      </trkpt>
      <trkpt lat="43.186400" lon="-5.802170">
        <ele>271.629</ele>
        <time>2020-05-23T19:01:30Z</time>
      </trkpt>
      <trkpt lat="43.186400" lon="-5.801930">
        <ele>271.621</ele>
        <time>2020-05-23T19:01:50Z</time>
      </trkpt>
      <trkpt lat="43.186400" lon="-5.801790">
        <ele>271.508</ele>
        <time>2020-05-23T19:02:10Z</time>
      </trkpt>
      <trkpt lat="43.186400" lon="-5.801590">
        <ele>271.578</ele>
        <time>2020-05-23T19:02:30Z</time>
      </trkpt>
      <trkpt lat="43.186390" lon="-5.801470">
        <ele>271.013</ele>
        <time>2020-05-23T19:02:50Z</time>
      </trkpt>
      <trkpt lat="43.186370" lon="-5.801350">
        <ele>270.670</ele>
        <time>2020-05-23T19:03:10Z</time>
      </trkpt>
      <trkpt lat="43.186360" lon="-5.801250">
        <ele>270.436</ele>
        <time>2020-05-23T19:03:30Z</time>
      </trkpt>
      <trkpt lat="43.186360" lon="-5.801190">
        <ele>270.415</ele>
        <time>2020-05-23T19:03:50Z</time>
      </trkpt>
      <trkpt lat="43.186350" lon="-5.801100">
        <ele>270.196</ele>
        <time>2020-05-23T19:04:10Z</time>
      </trkpt>
      <trkpt lat="43.186350" lon="-5.801000">
        <ele>269.855</ele>
        <time>2020-05-23T19:04:30Z</time>
      </trkpt>
      <trkpt lat="43.186360" lon="-5.800940">
        <ele>269.858</ele>
        <time>2020-05-23T19:04:50Z</time>
      </trkpt>
      <trkpt lat="43.186360" lon="-5.800930">
        <ele>269.715</ele>
        <time>2020-05-23T19:05:10Z</time>
      </trkpt>
      <trkpt lat="43.186370" lon="-5.800830">
        <ele>269.665</ele>
        <time>2020-05-23T19:05:30Z</time>
      </trkpt>
      <trkpt lat="43.186390" lon="-5.800760">
        <ele>269.211</ele>
        <time>2020-05-23T19:05:50Z</time>
      </trkpt>
      <trkpt lat="43.186430" lon="-5.800680">
        <ele>269.808</ele>
        <time>2020-05-23T19:06:10Z</time>
      </trkpt>
      <trkpt lat="43.186500" lon="-5.800540">
        <ele>270.485</ele>
        <time>2020-05-23T19:06:30Z</time>
      </trkpt>
      <trkpt lat="43.186520" lon="-5.800510">
        <ele>270.570</ele>
        <time>2020-05-23T19:06:50Z</time>
      </trkpt>
      <trkpt lat="43.186590" lon="-5.800400">
        <ele>269.767</ele>
        <time>2020-05-23T19:07:10Z</time>
      </trkpt>
      <trkpt lat="43.186670" lon="-5.800290">
        <ele>267.563</ele>
        <time>2020-05-23T19:07:30Z</time>
      </trkpt>
      <trkpt lat="43.186740" lon="-5.800210">
        <ele>267.932</ele>
        <time>2020-05-23T19:07:50Z</time>
      </trkpt>
      <trkpt lat="43.186780" lon="-5.800170">
        <ele>268.283</ele>
        <time>2020-05-23T19:08:10Z</time>
      </trkpt>
      <trkpt lat="43.186910" lon="-5.800010">
        <ele>267.862</ele>
        <time>2020-05-23T19:08:30Z</time>
      </trkpt>
      <trkpt lat="43.186910" lon="-5.800000">
        <ele>267.645</ele>
        <time>2020-05-23T19:08:50Z</time>
      </trkpt>
      <trkpt lat="43.186980" lon="-5.799910">
        <ele>268.178</ele>
        <time>2020-05-23T19:09:10Z</time>
      </trkpt>
      <trkpt lat="43.187030" lon="-5.799840">
        <ele>269.133</ele>
        <time>2020-05-23T19:09:30Z</time>
      </trkpt>
      <trkpt lat="43.187040" lon="-5.799830">
        <ele>269.326</ele>
        <time>2020-05-23T19:09:50Z</time>
      </trkpt>
      <trkpt lat="43.187060" lon="-5.799780">
        <ele>269.408</ele>
        <time>2020-05-23T19:10:10Z</time>
      </trkpt>
      <trkpt lat="43.187100" lon="-5.799670">
        <ele>269.561</ele>
        <time>2020-05-23T19:10:30Z</time>
      </trkpt>
      <trkpt lat="43.187120" lon="-5.799620">
        <ele>269.696</ele>
        <time>2020-05-23T19:10:50Z</time>
      </trkpt>
      <trkpt lat="43.187200" lon="-5.799390">
        <ele>268.113</ele>
        <time>2020-05-23T19:11:10Z</time>
      </trkpt>
      <trkpt lat="43.187200" lon="-5.799380">
        <ele>268.019</ele>
        <time>2020-05-23T19:11:30Z</time>
      </trkpt>
      <trkpt lat="43.187270" lon="-5.799160">
        <ele>268.768</ele>
        <time>2020-05-23T19:11:50Z</time>
      </trkpt>
      <trkpt lat="43.187310" lon="-5.799040">
        <ele>269.969</ele>
        <time>2020-05-23T19:12:10Z</time>
      </trkpt>
      <trkpt lat="43.187330" lon="-5.798940">
        <ele>269.918</ele>
        <time>2020-05-23T19:12:30Z</time>
      </trkpt>
      <trkpt lat="43.187380" lon="-5.798730">
        <ele>270.171</ele>
        <time>2020-05-23T19:12:50Z</time>
      </trkpt>
      <trkpt lat="43.187390" lon="-5.798700">
        <ele>270.134</ele>
        <time>2020-05-23T19:13:10Z</time>
      </trkpt>
      <trkpt lat="43.187450" lon="-5.798470">
        <ele>269.555</ele>
        <time>2020-05-23T19:13:30Z</time>
      </trkpt>
      <trkpt lat="43.187490" lon="-5.798280">
        <ele>268.210</ele>
        <time>2020-05-23T19:13:50Z</time>
      </trkpt>
      <trkpt lat="43.187530" lon="-5.798080">
        <ele>268.908</ele>
        <time>2020-05-23T19:14:10Z</time>
      </trkpt>
      <trkpt lat="43.187610" lon="-5.797540">
        <ele>269.827</ele>
        <time>2020-05-23T19:14:30Z</time>
      </trkpt>
      <trkpt lat="43.187650" lon="-5.797380">
        <ele>269.882</ele>
        <time>2020-05-23T19:14:50Z</time>
      </trkpt>
      <trkpt lat="43.187680" lon="-5.797250">
        <ele>268.789</ele>
        <time>2020-05-23T19:15:10Z</time>
      </trkpt>
      <trkpt lat="43.187720" lon="-5.797130">
        <ele>268.085</ele>
        <time>2020-05-23T19:15:30Z</time>
      </trkpt>
      <trkpt lat="43.187800" lon="-5.796930">
        <ele>267.534</ele>
        <time>2020-05-23T19:15:50Z</time>
      </trkpt>
      <trkpt lat="43.187870" lon="-5.796740">
        <ele>269.325</ele>
        <time>2020-05-23T19:16:10Z</time>
      </trkpt>
      <trkpt lat="43.187930" lon="-5.796570">
        <ele>269.994</ele>
        <time>2020-05-23T19:16:30Z</time>
      </trkpt>
      <trkpt lat="43.187940" lon="-5.796530">
        <ele>269.727</ele>
        <time>2020-05-23T19:16:50Z</time>
      </trkpt>
      <trkpt lat="43.187990" lon="-5.796390">
        <ele>269.195</ele>
        <time>2020-05-23T19:17:10Z</time>
      </trkpt>
      <trkpt lat="43.188020" lon="-5.796260">
        <ele>267.949</ele>
        <time>2020-05-23T19:17:30Z</time>
      </trkpt>
      <trkpt lat="43.188050" lon="-5.796110">
        <ele>265.923</ele>
        <time>2020-05-23T19:17:50Z</time>
      </trkpt>
      <trkpt lat="43.188060" lon="-5.795980">
        <ele>265.808</ele>
        <time>2020-05-23T19:18:10Z</time>
      </trkpt>
      <trkpt lat="43.188070" lon="-5.795860">
        <ele>265.733</ele>
        <time>2020-05-23T19:18:30Z</time>
      </trkpt>
      <trkpt lat="43.188070" lon="-5.795850">
        <ele>265.738</ele>
        <time>2020-05-23T19:18:50Z</time>
      </trkpt>
      <trkpt lat="43.188070" lon="-5.795710">
        <ele>264.625</ele>
        <time>2020-05-23T19:19:10Z</time>
      </trkpt>
      <trkpt lat="43.188070" lon="-5.795620">
        <ele>263.911</ele>
        <time>2020-05-23T19:19:30Z</time>
      </trkpt>
      <trkpt lat="43.188080" lon="-5.795550">
        <ele>263.560</ele>
        <time>2020-05-23T19:19:50Z</time>
      </trkpt>
      <trkpt lat="43.188100" lon="-5.795490">
        <ele>263.041</ele>
        <time>2020-05-23T19:20:10Z</time>
      </trkpt>
      <trkpt lat="43.188120" lon="-5.795420">
        <ele>262.350</ele>
        <time>2020-05-23T19:20:30Z</time>
      </trkpt>
      <trkpt lat="43.188130" lon="-5.795390">
        <ele>262.133</ele>
        <time>2020-05-23T19:20:50Z</time>
      </trkpt>
      <trkpt lat="43.188160" lon="-5.795340">
        <ele>262.057</ele>
        <time>2020-05-23T19:21:10Z</time>
      </trkpt>
      <trkpt lat="43.188230" lon="-5.795230">
        <ele>261.800</ele>
        <time>2020-05-23T19:21:30Z</time>
      </trkpt>
      <trkpt lat="43.188360" lon="-5.795010">
        <ele>258.920</ele>
        <time>2020-05-23T19:21:50Z</time>
      </trkpt>
      <trkpt lat="43.188510" lon="-5.794770">
        <ele>257.308</ele>
        <time>2020-05-23T19:22:10Z</time>
      </trkpt>
      <trkpt lat="43.188580" lon="-5.794680">
        <ele>256.799</ele>
        <time>2020-05-23T19:22:30Z</time>
      </trkpt>
      <trkpt lat="43.188690" lon="-5.794580">
        <ele>256.364</ele>
        <time>2020-05-23T19:22:50Z</time>
      </trkpt>
      <trkpt lat="43.188780" lon="-5.794510">
        <ele>256.051</ele>
        <time>2020-05-23T19:23:10Z</time>
      </trkpt>
      <trkpt lat="43.188820" lon="-5.794480">
        <ele>255.917</ele>
        <time>2020-05-23T19:23:30Z</time>
      </trkpt>
      <trkpt lat="43.188860" lon="-5.794450">
        <ele>255.816</ele>
        <time>2020-05-23T19:23:50Z</time>
      </trkpt>
      <trkpt lat="43.188960" lon="-5.794390">
        <ele>255.567</ele>
        <time>2020-05-23T19:24:10Z</time>
      </trkpt>
      <trkpt lat="43.189050" lon="-5.794360">
        <ele>255.436</ele>
        <time>2020-05-23T19:24:30Z</time>
      </trkpt>
      <trkpt lat="43.189160" lon="-5.794340">
        <ele>255.569</ele>
        <time>2020-05-23T19:24:50Z</time>
      </trkpt>
      <trkpt lat="43.189340" lon="-5.794310">
        <ele>256.022</ele>
        <time>2020-05-23T19:25:10Z</time>
      </trkpt>
      <trkpt lat="43.189500" lon="-5.794290">
        <ele>256.062</ele>
        <time>2020-05-23T19:25:30Z</time>
      </trkpt>
      <trkpt lat="43.189620" lon="-5.794270">
        <ele>255.008</ele>
        <time>2020-05-23T19:25:50Z</time>
      </trkpt>
      <trkpt lat="43.189760" lon="-5.794240">
        <ele>253.808</ele>
        <time>2020-05-23T19:26:10Z</time>
      </trkpt>
      <trkpt lat="43.190000" lon="-5.794200">
        <ele>253.316</ele>
        <time>2020-05-23T19:26:30Z</time>
      </trkpt>
      <trkpt lat="43.190040" lon="-5.794200">
        <ele>253.771</ele>
        <time>2020-05-23T19:26:50Z</time>
      </trkpt>
      <trkpt lat="43.190150" lon="-5.794170">
        <ele>253.258</ele>
        <time>2020-05-23T19:27:10Z</time>
      </trkpt>
      <trkpt lat="43.190220" lon="-5.794160">
        <ele>253.574</ele>
        <time>2020-05-23T19:27:30Z</time>
      </trkpt>
      <trkpt lat="43.190280" lon="-5.794150">
        <ele>253.853</ele>
        <time>2020-05-23T19:27:50Z</time>
      </trkpt>
      <trkpt lat="43.190390" lon="-5.794120">
        <ele>254.354</ele>
        <time>2020-05-23T19:28:10Z</time>
      </trkpt>
      <trkpt lat="43.190610" lon="-5.794080">
        <ele>255.493</ele>
        <time>2020-05-23T19:28:30Z</time>
      </trkpt>
      <trkpt lat="43.190830" lon="-5.794040">
        <ele>256.066</ele>
        <time>2020-05-23T19:28:50Z</time>
      </trkpt>
      <trkpt lat="43.190930" lon="-5.794020">
        <ele>255.758</ele>
        <time>2020-05-23T19:29:10Z</time>
      </trkpt>
      <trkpt lat="43.191010" lon="-5.794000">
        <ele>255.352</ele>
        <time>2020-05-23T19:29:30Z</time>
      </trkpt>
      <trkpt lat="43.191110" lon="-5.793980">
        <ele>254.917</ele>
        <time>2020-05-23T19:29:50Z</time>
      </trkpt>
      <trkpt lat="43.191160" lon="-5.793960">
        <ele>254.708</ele>
        <time>2020-05-23T19:30:10Z</time>
      </trkpt>
      <trkpt lat="43.191230" lon="-5.793930">
        <ele>254.259</ele>
        <time>2020-05-23T19:30:30Z</time>
      </trkpt>
      <trkpt lat="43.191310" lon="-5.793900">
        <ele>253.774</ele>
        <time>2020-05-23T19:30:50Z</time>
      </trkpt>
      <trkpt lat="43.191390" lon="-5.793860">
        <ele>253.691</ele>
        <time>2020-05-23T19:31:10Z</time>
      </trkpt>
      <trkpt lat="43.191520" lon="-5.793800">
        <ele>254.347</ele>
        <time>2020-05-23T19:31:30Z</time>
      </trkpt>
      <trkpt lat="43.191620" lon="-5.793760">
        <ele>254.496</ele>
        <time>2020-05-23T19:31:50Z</time>
      </trkpt>
      <trkpt lat="43.191660" lon="-5.793740">
        <ele>254.157</ele>
        <time>2020-05-23T19:32:10Z</time>
      </trkpt>
      <trkpt lat="43.191780" lon="-5.793680">
        <ele>253.596</ele>
        <time>2020-05-23T19:32:30Z</time>
      </trkpt>
      <trkpt lat="43.191790" lon="-5.793680">
        <ele>253.669</ele>
        <time>2020-05-23T19:32:50Z</time>
      </trkpt>
      <trkpt lat="43.191970" lon="-5.793600">
        <ele>252.464</ele>
        <time>2020-05-23T19:33:10Z</time>
      </trkpt>
      <trkpt lat="43.192140" lon="-5.793550">
        <ele>254.506</ele>
        <time>2020-05-23T19:33:30Z</time>
      </trkpt>
      <trkpt lat="43.192160" lon="-5.793540">
        <ele>254.616</ele>
        <time>2020-05-23T19:33:50Z</time>
      </trkpt>
      <trkpt lat="43.192290" lon="-5.793510">
        <ele>255.308</ele>
        <time>2020-05-23T19:34:10Z</time>
      </trkpt>
      <trkpt lat="43.192310" lon="-5.793500">
        <ele>255.270</ele>
        <time>2020-05-23T19:34:30Z</time>
      </trkpt>
      <trkpt lat="43.192490" lon="-5.793450">
        <ele>254.775</ele>
        <time>2020-05-23T19:34:50Z</time>
      </trkpt>
      <trkpt lat="43.192690" lon="-5.793410">
        <ele>253.612</ele>
        <time>2020-05-23T19:35:10Z</time>
      </trkpt>
      <trkpt lat="43.192850" lon="-5.793380">
        <ele>252.528</ele>
        <time>2020-05-23T19:35:30Z</time>
      </trkpt>
      <trkpt lat="43.192970" lon="-5.793360">
        <ele>252.177</ele>
        <time>2020-05-23T19:35:50Z</time>
      </trkpt>
      <trkpt lat="43.193030" lon="-5.793350">
        <ele>251.818</ele>
        <time>2020-05-23T19:36:10Z</time>
      </trkpt>
      <trkpt lat="43.193090" lon="-5.793340">
        <ele>251.557</ele>
        <time>2020-05-23T19:36:30Z</time>
      </trkpt>
      <trkpt lat="43.193430" lon="-5.793290">
        <ele>252.170</ele>
        <time>2020-05-23T19:36:50Z</time>
      </trkpt>
      <trkpt lat="43.193690" lon="-5.793240">
        <ele>253.595</ele>
        <time>2020-05-23T19:37:10Z</time>
      </trkpt>
      <trkpt lat="43.193880" lon="-5.793190">
        <ele>252.849</ele>
        <time>2020-05-23T19:37:30Z</time>
      </trkpt>
      <trkpt lat="43.193920" lon="-5.793180">
        <ele>252.823</ele>
        <time>2020-05-23T19:37:50Z</time>
      </trkpt>
      <trkpt lat="43.194080" lon="-5.793140">
        <ele>252.608</ele>
        <time>2020-05-23T19:38:10Z</time>
      </trkpt>
      <trkpt lat="43.194090" lon="-5.793140">
        <ele>252.673</ele>
        <time>2020-05-23T19:38:30Z</time>
      </trkpt>
      <trkpt lat="43.194270" lon="-5.793090">
        <ele>251.368</ele>
        <time>2020-05-23T19:38:50Z</time>
      </trkpt>
      <trkpt lat="43.194370" lon="-5.793060">
        <ele>250.055</ele>
        <time>2020-05-23T19:39:10Z</time>
      </trkpt>
      <trkpt lat="43.194650" lon="-5.792990">
        <ele>250.551</ele>
        <time>2020-05-23T19:39:30Z</time>
      </trkpt>
      <trkpt lat="43.194800" lon="-5.792950">
        <ele>250.820</ele>
        <time>2020-05-23T19:39:50Z</time>
      </trkpt>
      <trkpt lat="43.194870" lon="-5.792930">
        <ele>250.871</ele>
        <time>2020-05-23T19:40:10Z</time>
      </trkpt>
      <trkpt lat="43.194980" lon="-5.792910">
        <ele>251.170</ele>
        <time>2020-05-23T19:40:30Z</time>
      </trkpt>
      <trkpt lat="43.195020" lon="-5.792900">
        <ele>251.293</ele>
        <time>2020-05-23T19:40:50Z</time>
      </trkpt>
      <trkpt lat="43.195130" lon="-5.792860">
        <ele>251.223</ele>
        <time>2020-05-23T19:41:10Z</time>
      </trkpt>
      <trkpt lat="43.195150" lon="-5.792860">
        <ele>251.583</ele>
        <time>2020-05-23T19:41:30Z</time>
      </trkpt>
      <trkpt lat="43.195250" lon="-5.792830">
        <ele>251.411</ele>
        <time>2020-05-23T19:41:50Z</time>
      </trkpt>
      <trkpt lat="43.195290" lon="-5.792820">
        <ele>251.608</ele>
        <time>2020-05-23T19:42:10Z</time>
      </trkpt>
      <trkpt lat="43.195320" lon="-5.792800">
        <ele>251.476</ele>
        <time>2020-05-23T19:42:30Z</time>
      </trkpt>
      <trkpt lat="43.195330" lon="-5.792800">
        <ele>251.731</ele>
        <time>2020-05-23T19:42:50Z</time>
      </trkpt>
      <trkpt lat="43.195380" lon="-5.792770">
        <ele>251.818</ele>
        <time>2020-05-23T19:43:10Z</time>
      </trkpt>
      <trkpt lat="43.195470" lon="-5.792710">
        <ele>253.214</ele>
        <time>2020-05-23T19:43:30Z</time>
      </trkpt>
      <trkpt lat="43.195490" lon="-5.792690">
        <ele>253.323</ele>
        <time>2020-05-23T19:43:50Z</time>
      </trkpt>
      <trkpt lat="43.195640" lon="-5.792560">
        <ele>253.894</ele>
        <time>2020-05-23T19:44:10Z</time>
      </trkpt>
      <trkpt lat="43.195650" lon="-5.792540">
        <ele>253.443</ele>
        <time>2020-05-23T19:44:30Z</time>
      </trkpt>
      <trkpt lat="43.195790" lon="-5.792430">
        <ele>253.756</ele>
        <time>2020-05-23T19:44:50Z</time>
      </trkpt>
      <trkpt lat="43.195940" lon="-5.792320">
        <ele>254.652</ele>
        <time>2020-05-23T19:45:10Z</time>
      </trkpt>
      <trkpt lat="43.196030" lon="-5.792250">
        <ele>253.453</ele>
        <time>2020-05-23T19:45:30Z</time>
      </trkpt>
      <trkpt lat="43.196080" lon="-5.792210">
        <ele>252.408</ele>
        <time>2020-05-23T19:45:50Z</time>
      </trkpt>
      <trkpt lat="43.196160" lon="-5.792120">
        <ele>253.008</ele>
        <time>2020-05-23T19:46:10Z</time>
      </trkpt>
      <trkpt lat="43.196210" lon="-5.792070">
        <ele>253.729</ele>
        <time>2020-05-23T19:46:30Z</time>
      </trkpt>
      <trkpt lat="43.196220" lon="-5.792060">
        <ele>253.854</ele>
        <time>2020-05-23T19:46:50Z</time>
      </trkpt>
      <trkpt lat="43.196260" lon="-5.792010">
        <ele>253.661</ele>
        <time>2020-05-23T19:47:10Z</time>
      </trkpt>
      <trkpt lat="43.196350" lon="-5.791900">
        <ele>252.787</ele>
        <time>2020-05-23T19:47:30Z</time>
      </trkpt>
      <trkpt lat="43.196380" lon="-5.791870">
        <ele>252.656</ele>
        <time>2020-05-23T19:47:50Z</time>
      </trkpt>
      <trkpt lat="43.196490" lon="-5.791730">
        <ele>253.637</ele>
        <time>2020-05-23T19:48:10Z</time>
      </trkpt>
      <trkpt lat="43.196640" lon="-5.791550">
        <ele>253.456</ele>
        <time>2020-05-23T19:48:30Z</time>
      </trkpt>
      <trkpt lat="43.196750" lon="-5.791400">
        <ele>252.569</ele>
        <time>2020-05-23T19:48:50Z</time>
      </trkpt>
      <trkpt lat="43.196780" lon="-5.791370">
        <ele>252.621</ele>
        <time>2020-05-23T19:49:10Z</time>
      </trkpt>
      <trkpt lat="43.196880" lon="-5.791250">
        <ele>252.641</ele>
        <time>2020-05-23T19:49:30Z</time>
      </trkpt>
      <trkpt lat="43.196890" lon="-5.791240">
        <ele>252.605</ele>
        <time>2020-05-23T19:49:50Z</time>
      </trkpt>
      <trkpt lat="43.196950" lon="-5.791170">
        <ele>252.108</ele>
        <time>2020-05-23T19:50:10Z</time>
      </trkpt>
      <trkpt lat="43.197030" lon="-5.791080">
        <ele>251.416</ele>
        <time>2020-05-23T19:50:30Z</time>
      </trkpt>
      <trkpt lat="43.197040" lon="-5.791080">
        <ele>251.731</ele>
        <time>2020-05-23T19:50:50Z</time>
      </trkpt>
      <trkpt lat="43.197100" lon="-5.791010">
        <ele>251.328</ele>
        <time>2020-05-23T19:51:10Z</time>
      </trkpt>
      <trkpt lat="43.197160" lon="-5.790960">
        <ele>251.314</ele>
        <time>2020-05-23T19:51:30Z</time>
      </trkpt>
      <trkpt lat="43.197180" lon="-5.790940">
        <ele>251.213</ele>
        <time>2020-05-23T19:51:50Z</time>
      </trkpt>
      <trkpt lat="43.197210" lon="-5.790920">
        <ele>251.214</ele>
        <time>2020-05-23T19:52:10Z</time>
      </trkpt>
      <trkpt lat="43.197250" lon="-5.790880">
        <ele>250.713</ele>
        <time>2020-05-23T19:52:30Z</time>
      </trkpt>
      <trkpt lat="43.197290" lon="-5.790850">
        <ele>250.366</ele>
        <time>2020-05-23T19:52:50Z</time>
      </trkpt>
      <trkpt lat="43.197330" lon="-5.790820">
        <ele>249.949</ele>
        <time>2020-05-23T19:53:10Z</time>
      </trkpt>
      <trkpt lat="43.197370" lon="-5.790800">
        <ele>250.002</ele>
        <time>2020-05-23T19:53:30Z</time>
      </trkpt>
      <trkpt lat="43.197450" lon="-5.790760">
        <ele>250.122</ele>
        <time>2020-05-23T19:53:50Z</time>
      </trkpt>
      <trkpt lat="43.197500" lon="-5.790740">
        <ele>250.308</ele>
        <time>2020-05-23T19:54:10Z</time>
      </trkpt>
      <trkpt lat="43.197530" lon="-5.790730">
        <ele>250.318</ele>
        <time>2020-05-23T19:54:30Z</time>
      </trkpt>
      <trkpt lat="43.197590" lon="-5.790700">
        <ele>249.983</ele>
        <time>2020-05-23T19:54:50Z</time>
      </trkpt>
      <trkpt lat="43.197680" lon="-5.790670">
        <ele>249.610</ele>
        <time>2020-05-23T19:55:10Z</time>
      </trkpt>
      <trkpt lat="43.197780" lon="-5.790650">
        <ele>249.486</ele>
        <time>2020-05-23T19:55:30Z</time>
      </trkpt>
      <trkpt lat="43.197890" lon="-5.790640">
        <ele>249.455</ele>
        <time>2020-05-23T19:55:50Z</time>
      </trkpt>
      <trkpt lat="43.198010" lon="-5.790620">
        <ele>249.076</ele>
        <time>2020-05-23T19:56:10Z</time>
      </trkpt>
      <trkpt lat="43.198090" lon="-5.790620">
        <ele>249.075</ele>
        <time>2020-05-23T19:56:30Z</time>
      </trkpt>
      <trkpt lat="43.198180" lon="-5.790620">
        <ele>248.658</ele>
        <time>2020-05-23T19:56:50Z</time>
      </trkpt>
      <trkpt lat="43.198250" lon="-5.790620">
        <ele>248.484</ele>
        <time>2020-05-23T19:57:10Z</time>
      </trkpt>
      <trkpt lat="43.198320" lon="-5.790620">
        <ele>248.107</ele>
        <time>2020-05-23T19:57:30Z</time>
      </trkpt>
      <trkpt lat="43.198400" lon="-5.790640">
        <ele>248.317</ele>
        <time>2020-05-23T19:57:50Z</time>
      </trkpt>
      <trkpt lat="43.198490" lon="-5.790650">
        <ele>247.908</ele>
        <time>2020-05-23T19:58:10Z</time>
      </trkpt>
      <trkpt lat="43.198590" lon="-5.790680">
        <ele>248.212</ele>
        <time>2020-05-23T19:58:30Z</time>
      </trkpt>
      <trkpt lat="43.198620" lon="-5.790680">
        <ele>247.997</ele>
        <time>2020-05-23T19:58:50Z</time>
      </trkpt>
      <trkpt lat="43.198680" lon="-5.790700">
        <ele>247.914</ele>
        <time>2020-05-23T19:59:10Z</time>
      </trkpt>
      <trkpt lat="43.198740" lon="-5.790710">
        <ele>247.670</ele>
        <time>2020-05-23T19:59:30Z</time>
      </trkpt>
      <trkpt lat="43.198790" lon="-5.790730">
        <ele>247.789</ele>
        <time>2020-05-23T19:59:50Z</time>
      </trkpt>
      <trkpt lat="43.198970" lon="-5.790770">
        <ele>247.630</ele>
        <time>2020-05-23T20:00:10Z</time>
      </trkpt>
      <trkpt lat="43.199030" lon="-5.790780">
        <ele>247.739</ele>
        <time>2020-05-23T20:00:30Z</time>
      </trkpt>
      <trkpt lat="43.199100" lon="-5.790790">
        <ele>247.722</ele>
        <time>2020-05-23T20:00:50Z</time>
      </trkpt>
      <trkpt lat="43.199150" lon="-5.790790">
        <ele>247.569</ele>
        <time>2020-05-23T20:01:10Z</time>
      </trkpt>
      <trkpt lat="43.199270" lon="-5.790800">
        <ele>247.504</ele>
        <time>2020-05-23T20:01:30Z</time>
      </trkpt>
      <trkpt lat="43.199410" lon="-5.790800">
        <ele>247.024</ele>
        <time>2020-05-23T20:01:50Z</time>
      </trkpt>
      <trkpt lat="43.199470" lon="-5.790800">
        <ele>247.108</ele>
        <time>2020-05-23T20:02:10Z</time>
      </trkpt>
      <trkpt lat="43.199520" lon="-5.790790">
        <ele>247.150</ele>
        <time>2020-05-23T20:02:30Z</time>
      </trkpt>
      <trkpt lat="43.199570" lon="-5.790770">
        <ele>246.775</ele>
        <time>2020-05-23T20:02:50Z</time>
      </trkpt>
      <trkpt lat="43.199650" lon="-5.790750">
        <ele>246.672</ele>
        <time>2020-05-23T20:03:10Z</time>
      </trkpt>
      <trkpt lat="43.199680" lon="-5.790730">
        <ele>246.058</ele>
        <time>2020-05-23T20:03:30Z</time>
      </trkpt>
      <trkpt lat="43.199740" lon="-5.790710">
        <ele>245.717</ele>
        <time>2020-05-23T20:03:50Z</time>
      </trkpt>
      <trkpt lat="43.199860" lon="-5.790680">
        <ele>245.228</ele>
        <time>2020-05-23T20:04:10Z</time>
      </trkpt>
      <trkpt lat="43.199920" lon="-5.790660">
        <ele>244.787</ele>
        <time>2020-05-23T20:04:30Z</time>
      </trkpt>
      <trkpt lat="43.200090" lon="-5.790620">
        <ele>244.540</ele>
        <time>2020-05-23T20:04:50Z</time>
      </trkpt>
      <trkpt lat="43.200210" lon="-5.790580">
        <ele>244.297</ele>
        <time>2020-05-23T20:05:10Z</time>
      </trkpt>
      <trkpt lat="43.200220" lon="-5.790580">
        <ele>244.323</ele>
        <time>2020-05-23T20:05:30Z</time>
      </trkpt>
      <trkpt lat="43.200340" lon="-5.790540">
        <ele>244.325</ele>
        <time>2020-05-23T20:05:50Z</time>
      </trkpt>
      <trkpt lat="43.200530" lon="-5.790490">
        <ele>244.608</ele>
        <time>2020-05-23T20:06:10Z</time>
      </trkpt>
      <trkpt lat="43.200680" lon="-5.790450">
        <ele>244.633</ele>
        <time>2020-05-23T20:06:30Z</time>
      </trkpt>
      <trkpt lat="43.200860" lon="-5.790390">
        <ele>243.958</ele>
        <time>2020-05-23T20:06:50Z</time>
      </trkpt>
      <trkpt lat="43.200980" lon="-5.790350">
        <ele>244.475</ele>
        <time>2020-05-23T20:07:10Z</time>
      </trkpt>
      <trkpt lat="43.201090" lon="-5.790300">
        <ele>244.411</ele>
        <time>2020-05-23T20:07:30Z</time>
      </trkpt>
      <trkpt lat="43.201310" lon="-5.790190">
        <ele>244.280</ele>
        <time>2020-05-23T20:07:50Z</time>
      </trkpt>
      <trkpt lat="43.201360" lon="-5.790170">
        <ele>244.391</ele>
        <time>2020-05-23T20:08:10Z</time>
      </trkpt>
      <trkpt lat="43.201430" lon="-5.790130">
        <ele>244.350</ele>
        <time>2020-05-23T20:08:30Z</time>
      </trkpt>
      <trkpt lat="43.201470" lon="-5.790100">
        <ele>244.353</ele>
        <time>2020-05-23T20:08:50Z</time>
      </trkpt>
      <trkpt lat="43.201510" lon="-5.790050">
        <ele>244.016</ele>
        <time>2020-05-23T20:09:10Z</time>
      </trkpt>
      <trkpt lat="43.201570" lon="-5.790010">
        <ele>244.476</ele>
        <time>2020-05-23T20:09:30Z</time>
      </trkpt>
      <trkpt lat="43.201610" lon="-5.789980">
        <ele>244.613</ele>
        <time>2020-05-23T20:09:50Z</time>
      </trkpt>
      <trkpt lat="43.201650" lon="-5.789960">
        <ele>244.908</ele>
        <time>2020-05-23T20:10:10Z</time>
      </trkpt>
      <trkpt lat="43.201710" lon="-5.789930">
        <ele>244.635</ele>
        <time>2020-05-23T20:10:30Z</time>
      </trkpt>
      <trkpt lat="43.201750" lon="-5.789910">
        <ele>244.310</ele>
        <time>2020-05-23T20:10:50Z</time>
      </trkpt>
      <trkpt lat="43.201820" lon="-5.789870">
        <ele>244.057</ele>
        <time>2020-05-23T20:11:10Z</time>
      </trkpt>
      <trkpt lat="43.201825" lon="-5.789874">
        <ele>244.143</ele>
        <time>2020-05-23T20:11:30Z</time>
      </trkpt>
      <trkpt lat="43.201900" lon="-5.789780">
        <ele>243.292</ele>
        <time>2020-05-23T20:11:50Z</time>
      </trkpt>
      <trkpt lat="43.201895" lon="-5.789781">
        <ele>243.213</ele>
        <time>2020-05-23T20:12:10Z</time>
      </trkpt>
      <trkpt lat="43.201840" lon="-5.789740">
        <ele>242.132</ele>
        <time>2020-05-23T20:12:30Z</time>
      </trkpt>
      <trkpt lat="43.201835" lon="-5.789744">
        <ele>242.115</ele>
        <time>2020-05-23T20:12:50Z</time>
      </trkpt>
      <trkpt lat="43.202050" lon="-5.789490">
        <ele>239.848</ele>
        <time>2020-05-23T20:13:10Z</time>
      </trkpt>
      <trkpt lat="43.202090" lon="-5.789440">
        <ele>239.561</ele>
        <time>2020-05-23T20:13:30Z</time>
      </trkpt>
      <trkpt lat="43.202230" lon="-5.789280">
        <ele>239.417</ele>
        <time>2020-05-23T20:13:50Z</time>
      </trkpt>
      <trkpt lat="43.202610" lon="-5.788880">
        <ele>239.508</ele>
        <time>2020-05-23T20:14:10Z</time>
      </trkpt>
      <trkpt lat="43.202680" lon="-5.788800">
        <ele>239.568</ele>
        <time>2020-05-23T20:14:30Z</time>
      </trkpt>
      <trkpt lat="43.202900" lon="-5.788600">
        <ele>239.263</ele>
        <time>2020-05-23T20:14:50Z</time>
      </trkpt>
      <trkpt lat="43.203060" lon="-5.788460">
        <ele>238.360</ele>
        <time>2020-05-23T20:15:10Z</time>
      </trkpt>
      <trkpt lat="43.203200" lon="-5.788360">
        <ele>237.396</ele>
        <time>2020-05-23T20:15:30Z</time>
      </trkpt>
      <trkpt lat="43.203300" lon="-5.788310">
        <ele>237.495</ele>
        <time>2020-05-23T20:15:50Z</time>
      </trkpt>
      <trkpt lat="43.203370" lon="-5.788280">
        <ele>237.496</ele>
        <time>2020-05-23T20:16:10Z</time>
      </trkpt>
      <trkpt lat="43.203470" lon="-5.788240">
        <ele>237.175</ele>
        <time>2020-05-23T20:16:30Z</time>
      </trkpt>
      <trkpt lat="43.203590" lon="-5.788200">
        <ele>237.018</ele>
        <time>2020-05-23T20:16:50Z</time>
      </trkpt>
      <trkpt lat="43.203860" lon="-5.788150">
        <ele>236.683</ele>
        <time>2020-05-23T20:17:10Z</time>
      </trkpt>
      <trkpt lat="43.204190" lon="-5.788140">
        <ele>236.625</ele>
        <time>2020-05-23T20:17:30Z</time>
      </trkpt>
      <trkpt lat="43.204260" lon="-5.788140">
        <ele>236.417</ele>
        <time>2020-05-23T20:17:50Z</time>
      </trkpt>
      <trkpt lat="43.204770" lon="-5.788170">
        <ele>236.008</ele>
        <time>2020-05-23T20:18:10Z</time>
      </trkpt>
      <trkpt lat="43.204900" lon="-5.788200">
        <ele>235.652</ele>
        <time>2020-05-23T20:18:30Z</time>
      </trkpt>
      <trkpt lat="43.205120" lon="-5.788240">
        <ele>235.467</ele>
        <time>2020-05-23T20:18:50Z</time>
      </trkpt>
      <trkpt lat="43.205440" lon="-5.788300">
        <ele>235.174</ele>
        <time>2020-05-23T20:19:10Z</time>
      </trkpt>
      <trkpt lat="43.205780" lon="-5.788370">
        <ele>235.120</ele>
        <time>2020-05-23T20:19:30Z</time>
      </trkpt>
      <trkpt lat="43.206050" lon="-5.788420">
        <ele>234.889</ele>
        <time>2020-05-23T20:19:50Z</time>
      </trkpt>
      <trkpt lat="43.206140" lon="-5.788450">
        <ele>234.760</ele>
        <time>2020-05-23T20:20:10Z</time>
      </trkpt>
      <trkpt lat="43.206190" lon="-5.788460">
        <ele>234.689</ele>
        <time>2020-05-23T20:20:30Z</time>
      </trkpt>
      <trkpt lat="43.206310" lon="-5.788520">
        <ele>234.962</ele>
        <time>2020-05-23T20:20:50Z</time>
      </trkpt>
      <trkpt lat="43.206420" lon="-5.788570">
        <ele>235.234</ele>
        <time>2020-05-23T20:21:10Z</time>
      </trkpt>
      <trkpt lat="43.206760" lon="-5.788730">
        <ele>234.555</ele>
        <time>2020-05-23T20:21:30Z</time>
      </trkpt>
      <trkpt lat="43.206990" lon="-5.788860">
        <ele>235.310</ele>
        <time>2020-05-23T20:21:50Z</time>
      </trkpt>
      <trkpt lat="43.206986" lon="-5.788860">
        <ele>235.308</ele>
        <time>2020-05-23T20:22:10Z</time>
      </trkpt>
      <trkpt lat="43.207120" lon="-5.788250">
        <ele>233.687</ele>
        <time>2020-05-23T20:22:30Z</time>
      </trkpt>
      <trkpt lat="43.207250" lon="-5.788140">
        <ele>235.842</ele>
        <time>2020-05-23T20:22:50Z</time>
      </trkpt>
      <trkpt lat="43.207246" lon="-5.788138">
        <ele>235.859</ele>
        <time>2020-05-23T20:23:10Z</time>
      </trkpt>
      <trkpt lat="43.207500" lon="-5.788290">
        <ele>234.545</ele>
        <time>2020-05-23T20:23:30Z</time>
      </trkpt>
      <trkpt lat="43.207830" lon="-5.788450">
        <ele>234.574</ele>
        <time>2020-05-23T20:23:50Z</time>
      </trkpt>
      <trkpt lat="43.207920" lon="-5.788490">
        <ele>234.315</ele>
        <time>2020-05-23T20:24:10Z</time>
      </trkpt>
      <trkpt lat="43.208270" lon="-5.788640">
        <ele>234.494</ele>
        <time>2020-05-23T20:24:30Z</time>
      </trkpt>
      <trkpt lat="43.208620" lon="-5.788800">
        <ele>234.087</ele>
        <time>2020-05-23T20:24:50Z</time>
      </trkpt>
      <trkpt lat="43.208850" lon="-5.788890">
        <ele>233.945</ele>
        <time>2020-05-23T20:25:10Z</time>
      </trkpt>
      <trkpt lat="43.208960" lon="-5.788920">
        <ele>233.747</ele>
        <time>2020-05-23T20:25:30Z</time>
      </trkpt>
      <trkpt lat="43.208990" lon="-5.788930">
        <ele>233.711</ele>
        <time>2020-05-23T20:25:50Z</time>
      </trkpt>
      <trkpt lat="43.209050" lon="-5.788920">
        <ele>233.708</ele>
        <time>2020-05-23T20:26:10Z</time>
      </trkpt>
      <trkpt lat="43.209120" lon="-5.788900">
        <ele>233.998</ele>
        <time>2020-05-23T20:26:30Z</time>
      </trkpt>
      <trkpt lat="43.209200" lon="-5.788880">
        <ele>233.833</ele>
        <time>2020-05-23T20:26:50Z</time>
      </trkpt>
      <trkpt lat="43.209280" lon="-5.788840">
        <ele>233.640</ele>
        <time>2020-05-23T20:27:10Z</time>
      </trkpt>
      <trkpt lat="43.209340" lon="-5.788800">
        <ele>233.736</ele>
        <time>2020-05-23T20:27:30Z</time>
      </trkpt>
      <trkpt lat="43.209400" lon="-5.788740">
        <ele>234.235</ele>
        <time>2020-05-23T20:27:50Z</time>
      </trkpt>
      <trkpt lat="43.209440" lon="-5.788680">
        <ele>235.096</ele>
        <time>2020-05-23T20:28:10Z</time>
      </trkpt>
      <trkpt lat="43.209450" lon="-5.788670">
        <ele>235.195</ele>
        <time>2020-05-23T20:28:30Z</time>
      </trkpt>
      <trkpt lat="43.209580" lon="-5.788520">
        <ele>234.988</ele>
        <time>2020-05-23T20:28:50Z</time>
      </trkpt>
      <trkpt lat="43.209740" lon="-5.788320">
        <ele>235.783</ele>
        <time>2020-05-23T20:29:10Z</time>
      </trkpt>
      <trkpt lat="43.209980" lon="-5.788020">
        <ele>236.225</ele>
        <time>2020-05-23T20:29:30Z</time>
      </trkpt>
      <trkpt lat="43.210190" lon="-5.787680">
        <ele>235.817</ele>
        <time>2020-05-23T20:29:50Z</time>
      </trkpt>
      <trkpt lat="43.210210" lon="-5.787640">
        <ele>236.008</ele>
        <time>2020-05-23T20:30:10Z</time>
      </trkpt>
      <trkpt lat="43.210330" lon="-5.787450">
        <ele>236.562</ele>
        <time>2020-05-23T20:30:30Z</time>
      </trkpt>
      <trkpt lat="43.210420" lon="-5.787290">
        <ele>236.567</ele>
        <time>2020-05-23T20:30:50Z</time>
      </trkpt>
      <trkpt lat="43.210540" lon="-5.787080">
        <ele>237.184</ele>
        <time>2020-05-23T20:31:10Z</time>
      </trkpt>
      <trkpt lat="43.210620" lon="-5.786900">
        <ele>237.880</ele>
        <time>2020-05-23T20:31:30Z</time>
      </trkpt>
      <trkpt lat="43.210630" lon="-5.786760">
        <ele>238.549</ele>
        <time>2020-05-23T20:31:50Z</time>
      </trkpt>
      <trkpt lat="43.210640" lon="-5.786650">
        <ele>238.970</ele>
        <time>2020-05-23T20:32:10Z</time>
      </trkpt>
      <trkpt lat="43.210650" lon="-5.786530">
        <ele>238.019</ele>
        <time>2020-05-23T20:32:30Z</time>
      </trkpt>
      <trkpt lat="43.210510" lon="-5.786190">
        <ele>236.512</ele>
        <time>2020-05-23T20:32:50Z</time>
      </trkpt>
      <trkpt lat="43.210470" lon="-5.786080">
        <ele>235.714</ele>
        <time>2020-05-23T20:33:10Z</time>
      </trkpt>
      <trkpt lat="43.210440" lon="-5.786020">
        <ele>235.754</ele>
        <time>2020-05-23T20:33:30Z</time>
      </trkpt>
      <trkpt lat="43.210420" lon="-5.785980">
        <ele>235.709</ele>
        <time>2020-05-23T20:33:50Z</time>
      </trkpt>
      <trkpt lat="43.210420" lon="-5.785960">
        <ele>235.808</ele>
        <time>2020-05-23T20:34:10Z</time>
      </trkpt>
      <trkpt lat="43.210390" lon="-5.785900">
        <ele>236.065</ele>
        <time>2020-05-23T20:34:30Z</time>
      </trkpt>
      <trkpt lat="43.210240" lon="-5.785570">
        <ele>236.910</ele>
        <time>2020-05-23T20:34:50Z</time>
      </trkpt>
      <trkpt lat="43.210180" lon="-5.785420">
        <ele>236.067</ele>
        <time>2020-05-23T20:35:10Z</time>
      </trkpt>
      <trkpt lat="43.210100" lon="-5.785210">
        <ele>235.343</ele>
        <time>2020-05-23T20:35:30Z</time>
      </trkpt>
      <trkpt lat="43.210080" lon="-5.785130">
        <ele>235.052</ele>
        <time>2020-05-23T20:35:50Z</time>
      </trkpt>
      <trkpt lat="43.210050" lon="-5.785040">
        <ele>234.833</ele>
        <time>2020-05-23T20:36:10Z</time>
      </trkpt>
      <trkpt lat="43.210020" lon="-5.784930">
        <ele>234.882</ele>
        <time>2020-05-23T20:36:30Z</time>
      </trkpt>
      <trkpt lat="43.210021" lon="-5.784933">
        <ele>234.845</ele>
        <time>2020-05-23T20:36:50Z</time>
      </trkpt>
      <trkpt lat="43.210090" lon="-5.784790">
        <ele>234.118</ele>
        <time>2020-05-23T20:37:10Z</time>
      </trkpt>
      <trkpt lat="43.210160" lon="-5.784650">
        <ele>233.398</ele>
        <time>2020-05-23T20:37:30Z</time>
      </trkpt>
      <trkpt lat="43.210230" lon="-5.784500">
        <ele>233.017</ele>
        <time>2020-05-23T20:37:50Z</time>
      </trkpt>
      <trkpt lat="43.210270" lon="-5.784420">
        <ele>233.008</ele>
        <time>2020-05-23T20:38:10Z</time>
      </trkpt>
      <trkpt lat="43.210290" lon="-5.784380">
        <ele>233.015</ele>
        <time>2020-05-23T20:38:30Z</time>
      </trkpt>
      <trkpt lat="43.210320" lon="-5.784300">
        <ele>232.840</ele>
        <time>2020-05-23T20:38:50Z</time>
      </trkpt>
      <trkpt lat="43.210350" lon="-5.784220">
        <ele>232.767</ele>
        <time>2020-05-23T20:39:10Z</time>
      </trkpt>
      <trkpt lat="43.210370" lon="-5.784160">
        <ele>232.783</ele>
        <time>2020-05-23T20:39:30Z</time>
      </trkpt>
      <trkpt lat="43.210390" lon="-5.784110">
        <ele>232.622</ele>
        <time>2020-05-23T20:39:50Z</time>
      </trkpt>
      <trkpt lat="43.210420" lon="-5.784010">
        <ele>232.523</ele>
        <time>2020-05-23T20:40:10Z</time>
      </trkpt>
      <trkpt lat="43.210450" lon="-5.783890">
        <ele>232.652</ele>
        <time>2020-05-23T20:40:30Z</time>
      </trkpt>
      <trkpt lat="43.210480" lon="-5.783770">
        <ele>233.225</ele>
        <time>2020-05-23T20:40:50Z</time>
      </trkpt>
      <trkpt lat="43.210490" lon="-5.783700">
        <ele>233.412</ele>
        <time>2020-05-23T20:41:10Z</time>
      </trkpt>
      <trkpt lat="43.210520" lon="-5.783430">
        <ele>233.932</ele>
        <time>2020-05-23T20:41:30Z</time>
      </trkpt>
      <trkpt lat="43.210530" lon="-5.783230">
        <ele>233.905</ele>
        <time>2020-05-23T20:41:50Z</time>
      </trkpt>
      <trkpt lat="43.210530" lon="-5.783050">
        <ele>233.908</ele>
        <time>2020-05-23T20:42:10Z</time>
      </trkpt>
      <trkpt lat="43.210530" lon="-5.783040">
        <ele>233.925</ele>
        <time>2020-05-23T20:42:30Z</time>
      </trkpt>
      <trkpt lat="43.210540" lon="-5.782770">
        <ele>234.060</ele>
        <time>2020-05-23T20:42:50Z</time>
      </trkpt>
      <trkpt lat="43.210540" lon="-5.782310">
        <ele>235.427</ele>
        <time>2020-05-23T20:43:10Z</time>
      </trkpt>
      <trkpt lat="43.210540" lon="-5.782240">
        <ele>235.913</ele>
        <time>2020-05-23T20:43:30Z</time>
      </trkpt>
      <trkpt lat="43.210537" lon="-5.782237">
        <ele>235.912</ele>
        <time>2020-05-23T20:43:50Z</time>
      </trkpt>
      <trkpt lat="43.210530" lon="-5.781740">
        <ele>236.083</ele>
        <time>2020-05-23T20:44:10Z</time>
      </trkpt>
      <trkpt lat="43.210530" lon="-5.781570">
        <ele>236.032</ele>
        <time>2020-05-23T20:44:30Z</time>
      </trkpt>
      <trkpt lat="43.210530" lon="-5.781250">
        <ele>236.175</ele>
        <time>2020-05-23T20:44:50Z</time>
      </trkpt>
      <trkpt lat="43.210520" lon="-5.781000">
        <ele>237.244</ele>
        <time>2020-05-23T20:45:10Z</time>
      </trkpt>
      <trkpt lat="43.210520" lon="-5.780990">
        <ele>237.305</ele>
        <time>2020-05-23T20:45:30Z</time>
      </trkpt>
      <trkpt lat="43.210510" lon="-5.780880">
        <ele>238.015</ele>
        <time>2020-05-23T20:45:50Z</time>
      </trkpt>
      <trkpt lat="43.210490" lon="-5.780750">
        <ele>238.908</ele>
        <time>2020-05-23T20:46:10Z</time>
      </trkpt>
      <trkpt lat="43.210450" lon="-5.780520">
        <ele>240.118</ele>
        <time>2020-05-23T20:46:30Z</time>
      </trkpt>
      <trkpt lat="43.210400" lon="-5.780280">
        <ele>239.893</ele>
        <time>2020-05-23T20:46:50Z</time>
      </trkpt>
      <trkpt lat="43.210340" lon="-5.779990">
        <ele>240.060</ele>
        <time>2020-05-23T20:47:10Z</time>
      </trkpt>
      <trkpt lat="43.210250" lon="-5.779520">
        <ele>239.096</ele>
        <time>2020-05-23T20:47:30Z</time>
      </trkpt>
      <trkpt lat="43.210210" lon="-5.779370">
        <ele>239.225</ele>
        <time>2020-05-23T20:47:50Z</time>
      </trkpt>
      <trkpt lat="43.210170" lon="-5.779220">
        <ele>239.576</ele>
        <time>2020-05-23T20:48:10Z</time>
      </trkpt>
      <trkpt lat="43.210140" lon="-5.779120">
        <ele>239.865</ele>
        <time>2020-05-23T20:48:30Z</time>
      </trkpt>
      <trkpt lat="43.210140" lon="-5.779110">
        <ele>239.848</ele>
        <time>2020-05-23T20:48:50Z</time>
      </trkpt>
      <trkpt lat="43.210110" lon="-5.779010">
        <ele>239.941</ele>
        <time>2020-05-23T20:49:10Z</time>
      </trkpt>
      <trkpt lat="43.210060" lon="-5.778880">
        <ele>240.181</ele>
        <time>2020-05-23T20:49:30Z</time>
      </trkpt>
      <trkpt lat="43.209990" lon="-5.778680">
        <ele>240.709</ele>
        <time>2020-05-23T20:49:50Z</time>
      </trkpt>
      <trkpt lat="43.209940" lon="-5.778530">
        <ele>242.508</ele>
        <time>2020-05-23T20:50:10Z</time>
      </trkpt>
      <trkpt lat="43.209920" lon="-5.778430">
        <ele>242.848</ele>
        <time>2020-05-23T20:50:30Z</time>
      </trkpt>
      <trkpt lat="43.209910" lon="-5.778420">
        <ele>243.123</ele>
        <time>2020-05-23T20:50:50Z</time>
      </trkpt>
      <trkpt lat="43.209870" lon="-5.778260">
        <ele>243.580</ele>
        <time>2020-05-23T20:51:10Z</time>
      </trkpt>
      <trkpt lat="43.209820" lon="-5.778070">
        <ele>244.266</ele>
        <time>2020-05-23T20:51:30Z</time>
      </trkpt>
      <trkpt lat="43.209770" lon="-5.777900">
        <ele>243.295</ele>
        <time>2020-05-23T20:51:50Z</time>
      </trkpt>
      <trkpt lat="43.209750" lon="-5.777790">
        <ele>241.896</ele>
        <time>2020-05-23T20:52:10Z</time>
      </trkpt>
      <trkpt lat="43.209740" lon="-5.777730">
        <ele>241.495</ele>
        <time>2020-05-23T20:52:30Z</time>
      </trkpt>
      <trkpt lat="43.209730" lon="-5.777680">
        <ele>241.218</ele>
        <time>2020-05-23T20:52:50Z</time>
      </trkpt>
      <trkpt lat="43.209720" lon="-5.777600">
        <ele>240.819</ele>
        <time>2020-05-23T20:53:10Z</time>
      </trkpt>
      <trkpt lat="43.209700" lon="-5.777540">
        <ele>240.709</ele>
        <time>2020-05-23T20:53:30Z</time>
      </trkpt>
      <trkpt lat="43.209660" lon="-5.777320">
        <ele>239.919</ele>
        <time>2020-05-23T20:53:50Z</time>
      </trkpt>
      <trkpt lat="43.209650" lon="-5.777150">
        <ele>239.208</ele>
        <time>2020-05-23T20:54:10Z</time>
      </trkpt>
      <trkpt lat="43.209640" lon="-5.776990">
        <ele>238.545</ele>
        <time>2020-05-23T20:54:30Z</time>
      </trkpt>
      <trkpt lat="43.209640" lon="-5.776870">
        <ele>238.250</ele>
        <time>2020-05-23T20:54:50Z</time>
      </trkpt>
      <trkpt lat="43.209630" lon="-5.776860">
        <ele>238.287</ele>
        <time>2020-05-23T20:55:10Z</time>
      </trkpt>
      <trkpt lat="43.209630" lon="-5.776780">
        <ele>238.153</ele>
        <time>2020-05-23T20:55:30Z</time>
      </trkpt>
      <trkpt lat="43.209630" lon="-5.776710">
        <ele>238.172</ele>
        <time>2020-05-23T20:55:50Z</time>
      </trkpt>
      <trkpt lat="43.209640" lon="-5.776650">
        <ele>238.053</ele>
        <time>2020-05-23T20:56:10Z</time>
      </trkpt>
      <trkpt lat="43.209640" lon="-5.776590">
        <ele>238.142</ele>
        <time>2020-05-23T20:56:30Z</time>
      </trkpt>
      <trkpt lat="43.209650" lon="-5.776540">
        <ele>238.195</ele>
        <time>2020-05-23T20:56:50Z</time>
      </trkpt>
      <trkpt lat="43.209670" lon="-5.776510">
        <ele>238.187</ele>
        <time>2020-05-23T20:57:10Z</time>
      </trkpt>
      <trkpt lat="43.209690" lon="-5.776480">
        <ele>238.142</ele>
        <time>2020-05-23T20:57:30Z</time>
      </trkpt>
      <trkpt lat="43.209688" lon="-5.776477">
        <ele>238.126</ele>
        <time>2020-05-23T20:57:50Z</time>
      </trkpt>
      <trkpt lat="43.209680" lon="-5.776430">
        <ele>238.108</ele>
        <time>2020-05-23T20:58:10Z</time>
      </trkpt>
      <trkpt lat="43.209650" lon="-5.776280">
        <ele>238.692</ele>
        <time>2020-05-23T20:58:30Z</time>
      </trkpt>
      <trkpt lat="43.209630" lon="-5.776200">
        <ele>238.867</ele>
        <time>2020-05-23T20:58:50Z</time>
      </trkpt>
      <trkpt lat="43.209620" lon="-5.776130">
        <ele>239.024</ele>
        <time>2020-05-23T20:59:10Z</time>
      </trkpt>
      <trkpt lat="43.209620" lon="-5.776120">
        <ele>239.080</ele>
        <time>2020-05-23T20:59:30Z</time>
      </trkpt>
      <trkpt lat="43.209610" lon="-5.776030">
        <ele>239.219</ele>
        <time>2020-05-23T20:59:50Z</time>
      </trkpt>
      <trkpt lat="43.209610" lon="-5.775930">
        <ele>239.490</ele>
        <time>2020-05-23T21:00:10Z</time>
      </trkpt>
      <trkpt lat="43.209610" lon="-5.775840">
        <ele>239.649</ele>
        <time>2020-05-23T21:00:30Z</time>
      </trkpt>
      <trkpt lat="43.209610" lon="-5.775740">
        <ele>239.732</ele>
        <time>2020-05-23T21:00:50Z</time>
      </trkpt>
      <trkpt lat="43.209610" lon="-5.775650">
        <ele>239.982</ele>
        <time>2020-05-23T21:01:10Z</time>
      </trkpt>
      <trkpt lat="43.209620" lon="-5.775400">
        <ele>240.643</ele>
        <time>2020-05-23T21:01:30Z</time>
      </trkpt>
      <trkpt lat="43.209640" lon="-5.775100">
        <ele>241.017</ele>
        <time>2020-05-23T21:01:50Z</time>
      </trkpt>
      <trkpt lat="43.209650" lon="-5.775020">
        <ele>241.008</ele>
        <time>2020-05-23T21:02:10Z</time>
      </trkpt>
      <trkpt lat="43.209650" lon="-5.774960">
        <ele>241.112</ele>
        <time>2020-05-23T21:02:30Z</time>
      </trkpt>
      <trkpt lat="43.209670" lon="-5.774800">
        <ele>241.457</ele>
        <time>2020-05-23T21:02:50Z</time>
      </trkpt>
      <trkpt lat="43.209670" lon="-5.774690">
        <ele>241.724</ele>
        <time>2020-05-23T21:03:10Z</time>
      </trkpt>
      <trkpt lat="43.209680" lon="-5.774540">
        <ele>242.320</ele>
        <time>2020-05-23T21:03:30Z</time>
      </trkpt>
      <trkpt lat="43.209677" lon="-5.774542">
        <ele>242.249</ele>
        <time>2020-05-23T21:03:50Z</time>
      </trkpt>
      <trkpt lat="43.209740" lon="-5.774570">
        <ele>242.970</ele>
        <time>2020-05-23T21:04:10Z</time>
      </trkpt>
      <trkpt lat="43.209741" lon="-5.774571">
        <ele>242.979</ele>
        <time>2020-05-23T21:04:30Z</time>
      </trkpt>
      <trkpt lat="43.209750" lon="-5.774320">
        <ele>244.692</ele>
        <time>2020-05-23T21:04:50Z</time>
      </trkpt>
      <trkpt lat="43.209770" lon="-5.774080">
        <ele>246.324</ele>
        <time>2020-05-23T21:05:10Z</time>
      </trkpt>
      <trkpt lat="43.209800" lon="-5.773340">
        <ele>246.204</ele>
        <time>2020-05-23T21:05:30Z</time>
      </trkpt>
      <trkpt lat="43.209820" lon="-5.773100">
        <ele>247.114</ele>
        <time>2020-05-23T21:05:50Z</time>
      </trkpt>
      <trkpt lat="43.209820" lon="-5.773090">
        <ele>247.108</ele>
        <time>2020-05-23T21:06:10Z</time>
      </trkpt>
      <trkpt lat="43.209840" lon="-5.772570">
        <ele>247.836</ele>
        <time>2020-05-23T21:06:30Z</time>
      </trkpt>
      <trkpt lat="43.209840" lon="-5.772540">
        <ele>247.931</ele>
        <time>2020-05-23T21:06:50Z</time>
      </trkpt>
      <trkpt lat="43.209850" lon="-5.772350">
        <ele>248.798</ele>
        <time>2020-05-23T21:07:10Z</time>
      </trkpt>
      <trkpt lat="43.209860" lon="-5.772240">
        <ele>249.424</ele>
        <time>2020-05-23T21:07:30Z</time>
      </trkpt>
      <trkpt lat="43.209860" lon="-5.772100">
        <ele>249.253</ele>
        <time>2020-05-23T21:07:50Z</time>
      </trkpt>
      <trkpt lat="43.209870" lon="-5.771970">
        <ele>249.484</ele>
        <time>2020-05-23T21:08:10Z</time>
      </trkpt>
      <trkpt lat="43.209880" lon="-5.771830">
        <ele>249.423</ele>
        <time>2020-05-23T21:08:30Z</time>
      </trkpt>
      <trkpt lat="43.209900" lon="-5.771620">
        <ele>249.746</ele>
        <time>2020-05-23T21:08:50Z</time>
      </trkpt>
      <trkpt lat="43.209910" lon="-5.771520">
        <ele>249.981</ele>
        <time>2020-05-23T21:09:10Z</time>
      </trkpt>
      <trkpt lat="43.209920" lon="-5.771440">
        <ele>250.161</ele>
        <time>2020-05-23T21:09:30Z</time>
      </trkpt>
      <trkpt lat="43.209950" lon="-5.771260">
        <ele>250.117</ele>
        <time>2020-05-23T21:09:50Z</time>
      </trkpt>
      <trkpt lat="43.209990" lon="-5.771040">
        <ele>249.408</ele>
        <time>2020-05-23T21:10:10Z</time>
      </trkpt>
      <trkpt lat="43.210030" lon="-5.770840">
        <ele>250.052</ele>
        <time>2020-05-23T21:10:30Z</time>
      </trkpt>
      <trkpt lat="43.210100" lon="-5.770570">
        <ele>253.117</ele>
        <time>2020-05-23T21:10:50Z</time>
      </trkpt>
      <trkpt lat="43.210140" lon="-5.770340">
        <ele>252.754</ele>
        <time>2020-05-23T21:11:10Z</time>
      </trkpt>
      <trkpt lat="43.210170" lon="-5.770180">
        <ele>252.730</ele>
        <time>2020-05-23T21:11:30Z</time>
      </trkpt>
      <trkpt lat="43.210190" lon="-5.770090">
        <ele>252.829</ele>
        <time>2020-05-23T21:11:50Z</time>
      </trkpt>
      <trkpt lat="43.210200" lon="-5.770020">
        <ele>252.620</ele>
        <time>2020-05-23T21:12:10Z</time>
      </trkpt>
      <trkpt lat="43.210210" lon="-5.769830">
        <ele>252.019</ele>
        <time>2020-05-23T21:12:30Z</time>
      </trkpt>
      <trkpt lat="43.210200" lon="-5.769610">
        <ele>251.322</ele>
        <time>2020-05-23T21:12:50Z</time>
      </trkpt>
      <trkpt lat="43.210190" lon="-5.769340">
        <ele>251.561</ele>
        <time>2020-05-23T21:13:10Z</time>
      </trkpt>
      <trkpt lat="43.210180" lon="-5.769020">
        <ele>252.921</ele>
        <time>2020-05-23T21:13:30Z</time>
      </trkpt>
      <trkpt lat="43.210150" lon="-5.768560">
        <ele>252.913</ele>
        <time>2020-05-23T21:13:50Z</time>
      </trkpt>
      <trkpt lat="43.210140" lon="-5.768370">
        <ele>251.308</ele>
        <time>2020-05-23T21:14:10Z</time>
      </trkpt>
      <trkpt lat="43.210120" lon="-5.767970">
        <ele>250.950</ele>
        <time>2020-05-23T21:14:30Z</time>
      </trkpt>
      <trkpt lat="43.210090" lon="-5.767440">
        <ele>251.395</ele>
        <time>2020-05-23T21:14:50Z</time>
      </trkpt>
      <trkpt lat="43.210080" lon="-5.767120">
        <ele>252.652</ele>
        <time>2020-05-23T21:15:10Z</time>
      </trkpt>
      <trkpt lat="43.210080" lon="-5.766890">
        <ele>253.548</ele>
        <time>2020-05-23T21:15:30Z</time>
      </trkpt>
      <trkpt lat="43.210080" lon="-5.766850">
        <ele>253.617</ele>
        <time>2020-05-23T21:15:50Z</time>
      </trkpt>
      <trkpt lat="43.210100" lon="-5.766630">
        <ele>254.948</ele>
        <time>2020-05-23T21:16:10Z</time>
      </trkpt>
      <trkpt lat="43.210110" lon="-5.766410">
        <ele>254.697</ele>
        <time>2020-05-23T21:16:30Z</time>
      </trkpt>
      <trkpt lat="43.210120" lon="-5.766210">
        <ele>254.370</ele>
        <time>2020-05-23T21:16:50Z</time>
      </trkpt>
      <trkpt lat="43.210140" lon="-5.765970">
        <ele>254.069</ele>
        <time>2020-05-23T21:17:10Z</time>
      </trkpt>
      <trkpt lat="43.210140" lon="-5.765890">
        <ele>253.704</ele>
        <time>2020-05-23T21:17:30Z</time>
      </trkpt>
      <trkpt lat="43.210140" lon="-5.765820">
        <ele>253.524</ele>
        <time>2020-05-23T21:17:50Z</time>
      </trkpt>
      <trkpt lat="43.210150" lon="-5.765710">
        <ele>253.708</ele>
        <time>2020-05-23T21:18:10Z</time>
      </trkpt>
      <trkpt lat="43.210150" lon="-5.765640">
        <ele>253.750</ele>
        <time>2020-05-23T21:18:30Z</time>
      </trkpt>
      <trkpt lat="43.210160" lon="-5.765390">
        <ele>253.285</ele>
        <time>2020-05-23T21:18:50Z</time>
      </trkpt>
      <trkpt lat="43.210170" lon="-5.764950">
        <ele>252.812</ele>
        <time>2020-05-23T21:19:10Z</time>
      </trkpt>
      <trkpt lat="43.210190" lon="-5.764560">
        <ele>253.518</ele>
        <time>2020-05-23T21:19:30Z</time>
      </trkpt>
      <trkpt lat="43.210190" lon="-5.764520">
        <ele>253.687</ele>
        <time>2020-05-23T21:19:50Z</time>
      </trkpt>
      <trkpt lat="43.210190" lon="-5.764500">
        <ele>253.648</ele>
        <time>2020-05-23T21:20:10Z</time>
      </trkpt>
      <trkpt lat="43.210190" lon="-5.764470">
        <ele>253.787</ele>
        <time>2020-05-23T21:20:30Z</time>
      </trkpt>
      <trkpt lat="43.210190" lon="-5.764390">
        <ele>253.740</ele>
        <time>2020-05-23T21:20:50Z</time>
      </trkpt>
      <trkpt lat="43.210210" lon="-5.763960">
        <ele>254.259</ele>
        <time>2020-05-23T21:21:10Z</time>
      </trkpt>
      <trkpt lat="43.210220" lon="-5.763730">
        <ele>254.403</ele>
        <time>2020-05-23T21:21:30Z</time>
      </trkpt>
      <trkpt lat="43.210240" lon="-5.763410">
        <ele>254.623</ele>
        <time>2020-05-23T21:21:50Z</time>
      </trkpt>
      <trkpt lat="43.210250" lon="-5.763240">
        <ele>255.008</ele>
        <time>2020-05-23T21:22:10Z</time>
      </trkpt>
      <trkpt lat="43.210260" lon="-5.763020">
        <ele>256.059</ele>
        <time>2020-05-23T21:22:30Z</time>
      </trkpt>
      <trkpt lat="43.210280" lon="-5.762750">
        <ele>258.124</ele>
        <time>2020-05-23T21:22:50Z</time>
      </trkpt>
      <trkpt lat="43.210290" lon="-5.762560">
        <ele>258.711</ele>
        <time>2020-05-23T21:23:10Z</time>
      </trkpt>
      <trkpt lat="43.210340" lon="-5.762150">
        <ele>259.677</ele>
        <time>2020-05-23T21:23:30Z</time>
      </trkpt>
      <trkpt lat="43.210380" lon="-5.761840">
        <ele>259.566</ele>
        <time>2020-05-23T21:23:50Z</time>
      </trkpt>
      <trkpt lat="43.210400" lon="-5.761650">
        <ele>260.137</ele>
        <time>2020-05-23T21:24:10Z</time>
      </trkpt>
      <trkpt lat="43.210420" lon="-5.761450">
        <ele>260.476</ele>
        <time>2020-05-23T21:24:30Z</time>
      </trkpt>
      <trkpt lat="43.210420" lon="-5.761280">
        <ele>260.139</ele>
        <time>2020-05-23T21:24:50Z</time>
      </trkpt>
      <trkpt lat="43.210420" lon="-5.761120">
        <ele>260.148</ele>
        <time>2020-05-23T21:25:10Z</time>
      </trkpt>
      <trkpt lat="43.210410" lon="-5.760910">
        <ele>260.861</ele>
        <time>2020-05-23T21:25:30Z</time>
      </trkpt>
      <trkpt lat="43.210400" lon="-5.760790">
        <ele>261.017</ele>
        <time>2020-05-23T21:25:50Z</time>
      </trkpt>
      <trkpt lat="43.210390" lon="-5.760680">
        <ele>261.208</ele>
        <time>2020-05-23T21:26:10Z</time>
      </trkpt>
      <trkpt lat="43.210340" lon="-5.760340">
        <ele>260.768</ele>
        <time>2020-05-23T21:26:30Z</time>
      </trkpt>
      <trkpt lat="43.210290" lon="-5.759990">
        <ele>259.623</ele>
        <time>2020-05-23T21:26:50Z</time>
      </trkpt>
      <trkpt lat="43.210240" lon="-5.759690">
        <ele>260.250</ele>
        <time>2020-05-23T21:27:10Z</time>
      </trkpt>
      <trkpt lat="43.210230" lon="-5.759580">
        <ele>260.336</ele>
        <time>2020-05-23T21:27:30Z</time>
      </trkpt>
      <trkpt lat="43.210230" lon="-5.759560">
        <ele>260.465</ele>
        <time>2020-05-23T21:27:50Z</time>
      </trkpt>
      <trkpt lat="43.210230" lon="-5.759380">
        <ele>260.526</ele>
        <time>2020-05-23T21:28:10Z</time>
      </trkpt>
      <trkpt lat="43.210250" lon="-5.759150">
        <ele>259.715</ele>
        <time>2020-05-23T21:28:30Z</time>
      </trkpt>
      <trkpt lat="43.210240" lon="-5.759040">
        <ele>260.458</ele>
        <time>2020-05-23T21:28:50Z</time>
      </trkpt>
      <trkpt lat="43.210240" lon="-5.758850">
        <ele>261.664</ele>
        <time>2020-05-23T21:29:10Z</time>
      </trkpt>
      <trkpt lat="43.210240" lon="-5.758690">
        <ele>262.106</ele>
        <time>2020-05-23T21:29:30Z</time>
      </trkpt>
      <trkpt lat="43.210260" lon="-5.758550">
        <ele>262.316</ele>
        <time>2020-05-23T21:29:50Z</time>
      </trkpt>
      <trkpt lat="43.210280" lon="-5.758420">
        <ele>261.708</ele>
        <time>2020-05-23T21:30:10Z</time>
      </trkpt>
      <trkpt lat="43.210280" lon="-5.758400">
        <ele>261.690</ele>
        <time>2020-05-23T21:30:30Z</time>
      </trkpt>
      <trkpt lat="43.210310" lon="-5.758280">
        <ele>262.395</ele>
        <time>2020-05-23T21:30:50Z</time>
      </trkpt>
      <trkpt lat="43.210340" lon="-5.758140">
        <ele>263.242</ele>
        <time>2020-05-23T21:31:10Z</time>
      </trkpt>
      <trkpt lat="43.210380" lon="-5.758020">
        <ele>264.758</ele>
        <time>2020-05-23T21:31:30Z</time>
      </trkpt>
      <trkpt lat="43.210420" lon="-5.757870">
        <ele>266.077</ele>
        <time>2020-05-23T21:31:50Z</time>
      </trkpt>
      <trkpt lat="43.210450" lon="-5.757740">
        <ele>266.698</ele>
        <time>2020-05-23T21:32:10Z</time>
      </trkpt>
      <trkpt lat="43.210500" lon="-5.757570">
        <ele>267.037</ele>
        <time>2020-05-23T21:32:30Z</time>
      </trkpt>
      <trkpt lat="43.210550" lon="-5.757430">
        <ele>267.120</ele>
        <time>2020-05-23T21:32:50Z</time>
      </trkpt>
      <trkpt lat="43.210600" lon="-5.757230">
        <ele>268.411</ele>
        <time>2020-05-23T21:33:10Z</time>
      </trkpt>
      <trkpt lat="43.210640" lon="-5.757030">
        <ele>269.621</ele>
        <time>2020-05-23T21:33:30Z</time>
      </trkpt>
      <trkpt lat="43.210660" lon="-5.756980">
        <ele>270.503</ele>
        <time>2020-05-23T21:33:50Z</time>
      </trkpt>
      <trkpt lat="43.210680" lon="-5.756760">
        <ele>270.308</ele>
        <time>2020-05-23T21:34:10Z</time>
      </trkpt>
      <trkpt lat="43.210700" lon="-5.756630">
        <ele>270.375</ele>
        <time>2020-05-23T21:34:30Z</time>
      </trkpt>
      <trkpt lat="43.210720" lon="-5.756460">
        <ele>268.820</ele>
        <time>2020-05-23T21:34:50Z</time>
      </trkpt>
      <trkpt lat="43.210720" lon="-5.756360">
        <ele>267.537</ele>
        <time>2020-05-23T21:35:10Z</time>
      </trkpt>
      <trkpt lat="43.210720" lon="-5.756240">
        <ele>266.643</ele>
        <time>2020-05-23T21:35:30Z</time>
      </trkpt>
      <trkpt lat="43.210720" lon="-5.756210">
        <ele>266.432</ele>
        <time>2020-05-23T21:35:50Z</time>
      </trkpt>
      <trkpt lat="43.210730" lon="-5.756120">
        <ele>266.163</ele>
        <time>2020-05-23T21:36:10Z</time>
      </trkpt>
      <trkpt lat="43.210730" lon="-5.756010">
        <ele>267.442</ele>
        <time>2020-05-23T21:36:30Z</time>
      </trkpt>
      <trkpt lat="43.210750" lon="-5.755900">
        <ele>269.325</ele>
        <time>2020-05-23T21:36:50Z</time>
      </trkpt>
      <trkpt lat="43.210760" lon="-5.755790">
        <ele>271.242</ele>
        <time>2020-05-23T21:37:10Z</time>
      </trkpt>
      <trkpt lat="43.210780" lon="-5.755690">
        <ele>273.422</ele>
        <time>2020-05-23T21:37:30Z</time>
      </trkpt>
      <trkpt lat="43.210790" lon="-5.755610">
        <ele>275.114</ele>
        <time>2020-05-23T21:37:50Z</time>
      </trkpt>
      <trkpt lat="43.210790" lon="-5.755530">
        <ele>276.208</ele>
        <time>2020-05-23T21:38:10Z</time>
      </trkpt>
      <trkpt lat="43.210790" lon="-5.755480">
        <ele>276.578</ele>
        <time>2020-05-23T21:38:30Z</time>
      </trkpt>
      <trkpt lat="43.210790" lon="-5.755450">
        <ele>276.753</ele>
        <time>2020-05-23T21:38:50Z</time>
      </trkpt>
      <trkpt lat="43.210780" lon="-5.755370">
        <ele>276.980</ele>
        <time>2020-05-23T21:39:10Z</time>
      </trkpt>
      <trkpt lat="43.210770" lon="-5.755230">
        <ele>277.426</ele>
        <time>2020-05-23T21:39:30Z</time>
      </trkpt>
      <trkpt lat="43.210740" lon="-5.755030">
        <ele>277.525</ele>
        <time>2020-05-23T21:39:50Z</time>
      </trkpt>
      <trkpt lat="43.210720" lon="-5.754810">
        <ele>276.946</ele>
        <time>2020-05-23T21:40:10Z</time>
      </trkpt>
      <trkpt lat="43.210710" lon="-5.754600">
        <ele>277.045</ele>
        <time>2020-05-23T21:40:30Z</time>
      </trkpt>
      <trkpt lat="43.210690" lon="-5.754380">
        <ele>277.078</ele>
        <time>2020-05-23T21:40:50Z</time>
      </trkpt>
      <trkpt lat="43.210690" lon="-5.754250">
        <ele>277.516</ele>
        <time>2020-05-23T21:41:10Z</time>
      </trkpt>
      <trkpt lat="43.210680" lon="-5.754160">
        <ele>277.376</ele>
        <time>2020-05-23T21:41:30Z</time>
      </trkpt>
      <trkpt lat="43.210680" lon="-5.754020">
        <ele>277.613</ele>
        <time>2020-05-23T21:41:50Z</time>
      </trkpt>
      <trkpt lat="43.210680" lon="-5.753810">
        <ele>277.908</ele>
        <time>2020-05-23T21:42:10Z</time>
      </trkpt>
      <trkpt lat="43.210680" lon="-5.753760">
        <ele>277.925</ele>
        <time>2020-05-23T21:42:30Z</time>
      </trkpt>
      <trkpt lat="43.210710" lon="-5.753300">
        <ele>279.610</ele>
        <time>2020-05-23T21:42:50Z</time>
      </trkpt>
      <trkpt lat="43.210710" lon="-5.753270">
        <ele>279.797</ele>
        <time>2020-05-23T21:43:10Z</time>
      </trkpt>
      <trkpt lat="43.210710" lon="-5.753190">
        <ele>279.863</ele>
        <time>2020-05-23T21:43:30Z</time>
      </trkpt>
      <trkpt lat="43.210720" lon="-5.753150">
        <ele>280.382</ele>
        <time>2020-05-23T21:43:50Z</time>
      </trkpt>
      <trkpt lat="43.210720" lon="-5.753130">
        <ele>280.443</ele>
        <time>2020-05-23T21:44:10Z</time>
      </trkpt>
      <trkpt lat="43.210750" lon="-5.753060">
        <ele>281.792</ele>
        <time>2020-05-23T21:44:30Z</time>
      </trkpt>
      <trkpt lat="43.210830" lon="-5.752840">
        <ele>283.355</ele>
        <time>2020-05-23T21:44:50Z</time>
      </trkpt>
      <trkpt lat="43.210827" lon="-5.752835">
        <ele>283.258</ele>
        <time>2020-05-23T21:45:10Z</time>
      </trkpt>
      <trkpt lat="43.210820" lon="-5.752640">
        <ele>282.052</ele>
        <time>2020-05-23T21:45:30Z</time>
      </trkpt>
      <trkpt lat="43.210780" lon="-5.752380">
        <ele>280.117</ele>
        <time>2020-05-23T21:45:50Z</time>
      </trkpt>
      <trkpt lat="43.210740" lon="-5.752200">
        <ele>279.008</ele>
        <time>2020-05-23T21:46:10Z</time>
      </trkpt>
      <trkpt lat="43.210660" lon="-5.751890">
        <ele>277.849</ele>
        <time>2020-05-23T21:46:30Z</time>
      </trkpt>
      <trkpt lat="43.210490" lon="-5.751080">
        <ele>279.954</ele>
        <time>2020-05-23T21:46:50Z</time>
      </trkpt>
      <trkpt lat="43.210420" lon="-5.750750">
        <ele>279.971</ele>
        <time>2020-05-23T21:47:10Z</time>
      </trkpt>
      <trkpt lat="43.210410" lon="-5.750710">
        <ele>279.757</ele>
        <time>2020-05-23T21:47:30Z</time>
      </trkpt>
      <trkpt lat="43.210350" lon="-5.750470">
        <ele>278.226</ele>
        <time>2020-05-23T21:47:50Z</time>
      </trkpt>
      <trkpt lat="43.210320" lon="-5.750350">
        <ele>277.567</ele>
        <time>2020-05-23T21:48:10Z</time>
      </trkpt>
      <trkpt lat="43.210280" lon="-5.750090">
        <ele>278.146</ele>
        <time>2020-05-23T21:48:30Z</time>
      </trkpt>
      <trkpt lat="43.210250" lon="-5.749910">
        <ele>278.689</ele>
        <time>2020-05-23T21:48:50Z</time>
      </trkpt>
      <trkpt lat="43.210200" lon="-5.749620">
        <ele>277.946</ele>
        <time>2020-05-23T21:49:10Z</time>
      </trkpt>
      <trkpt lat="43.210140" lon="-5.749370">
        <ele>276.588</ele>
        <time>2020-05-23T21:49:30Z</time>
      </trkpt>
      <trkpt lat="43.210010" lon="-5.748860">
        <ele>275.116</ele>
        <time>2020-05-23T21:49:50Z</time>
      </trkpt>
      <trkpt lat="43.209930" lon="-5.748500">
        <ele>275.008</ele>
        <time>2020-05-23T21:50:10Z</time>
      </trkpt>
      <trkpt lat="43.209890" lon="-5.748350">
        <ele>275.278</ele>
        <time>2020-05-23T21:50:30Z</time>
      </trkpt>
      <trkpt lat="43.209850" lon="-5.748200">
        <ele>274.923</ele>
        <time>2020-05-23T21:50:50Z</time>
      </trkpt>
      <trkpt lat="43.209847" lon="-5.748204">
        <ele>274.980</ele>
        <time>2020-05-23T21:51:10Z</time>
      </trkpt>
      <trkpt lat="43.209900" lon="-5.748140">
        <ele>275.376</ele>
        <time>2020-05-23T21:51:30Z</time>
      </trkpt>
      <trkpt lat="43.209930" lon="-5.748090">
        <ele>275.535</ele>
        <time>2020-05-23T21:51:50Z</time>
      </trkpt>
      <trkpt lat="43.209970" lon="-5.748030">
        <ele>275.836</ele>
        <time>2020-05-23T21:52:10Z</time>
      </trkpt>
      <trkpt lat="43.210010" lon="-5.747950">
        <ele>276.325</ele>
        <time>2020-05-23T21:52:30Z</time>
      </trkpt>
      <trkpt lat="43.210040" lon="-5.747870">
        <ele>277.248</ele>
        <time>2020-05-23T21:52:50Z</time>
      </trkpt>
      <trkpt lat="43.210060" lon="-5.747810">
        <ele>277.942</ele>
        <time>2020-05-23T21:53:10Z</time>
      </trkpt>
      <trkpt lat="43.210070" lon="-5.747760">
        <ele>278.322</ele>
        <time>2020-05-23T21:53:30Z</time>
      </trkpt>
      <trkpt lat="43.210090" lon="-5.747680">
        <ele>279.214</ele>
        <time>2020-05-23T21:53:50Z</time>
      </trkpt>
      <trkpt lat="43.210100" lon="-5.747600">
        <ele>279.608</ele>
        <time>2020-05-23T21:54:10Z</time>
      </trkpt>
      <trkpt lat="43.210100" lon="-5.747570">
        <ele>279.738</ele>
        <time>2020-05-23T21:54:30Z</time>
      </trkpt>
      <trkpt lat="43.210110" lon="-5.747530">
        <ele>280.163</ele>
        <time>2020-05-23T21:54:50Z</time>
      </trkpt>
      <trkpt lat="43.210110" lon="-5.747390">
        <ele>281.460</ele>
        <time>2020-05-23T21:55:10Z</time>
      </trkpt>
      <trkpt lat="43.210110" lon="-5.747340">
        <ele>281.996</ele>
        <time>2020-05-23T21:55:30Z</time>
      </trkpt>
      <trkpt lat="43.210110" lon="-5.747230">
        <ele>283.145</ele>
        <time>2020-05-23T21:55:50Z</time>
      </trkpt>
      <trkpt lat="43.210100" lon="-5.747190">
        <ele>283.196</ele>
        <time>2020-05-23T21:56:10Z</time>
      </trkpt>
      <trkpt lat="43.210100" lon="-5.747140">
        <ele>283.535</ele>
        <time>2020-05-23T21:56:30Z</time>
      </trkpt>
      <trkpt lat="43.210090" lon="-5.747100">
        <ele>283.558</ele>
        <time>2020-05-23T21:56:50Z</time>
      </trkpt>
      <trkpt lat="43.210070" lon="-5.747000">
        <ele>283.617</ele>
        <time>2020-05-23T21:57:10Z</time>
      </trkpt>
      <trkpt lat="43.210020" lon="-5.746870">
        <ele>283.787</ele>
        <time>2020-05-23T21:57:30Z</time>
      </trkpt>
      <trkpt lat="43.210000" lon="-5.746830">
        <ele>283.615</ele>
        <time>2020-05-23T21:57:50Z</time>
      </trkpt>
      <trkpt lat="43.209870" lon="-5.746480">
        <ele>284.508</ele>
        <time>2020-05-23T21:58:10Z</time>
      </trkpt>
      <trkpt lat="43.209710" lon="-5.746040">
        <ele>285.665</ele>
        <time>2020-05-23T21:58:30Z</time>
      </trkpt>
      <trkpt lat="43.209640" lon="-5.745910">
        <ele>285.450</ele>
        <time>2020-05-23T21:58:50Z</time>
      </trkpt>
      <trkpt lat="43.209610" lon="-5.745870">
        <ele>285.137</ele>
        <time>2020-05-23T21:59:10Z</time>
      </trkpt>
      <trkpt lat="43.209550" lon="-5.745800">
        <ele>284.463</ele>
        <time>2020-05-23T21:59:30Z</time>
      </trkpt>
      <trkpt lat="43.209390" lon="-5.745660">
        <ele>282.162</ele>
        <time>2020-05-23T21:59:50Z</time>
      </trkpt>
      <trkpt lat="43.209260" lon="-5.745550">
        <ele>281.463</ele>
        <time>2020-05-23T22:00:10Z</time>
      </trkpt>
      <trkpt lat="43.209220" lon="-5.745510">
        <ele>281.092</ele>
        <time>2020-05-23T22:00:30Z</time>
      </trkpt>
      <trkpt lat="43.208850" lon="-5.745150">
        <ele>278.455</ele>
        <time>2020-05-23T22:00:50Z</time>
      </trkpt>
      <trkpt lat="43.208760" lon="-5.745060">
        <ele>280.081</ele>
        <time>2020-05-23T22:01:10Z</time>
      </trkpt>
      <trkpt lat="43.208730" lon="-5.745020">
        <ele>280.561</ele>
        <time>2020-05-23T22:01:30Z</time>
      </trkpt>
      <trkpt lat="43.208700" lon="-5.744990">
        <ele>281.117</ele>
        <time>2020-05-23T22:01:50Z</time>
      </trkpt>
      <trkpt lat="43.208690" lon="-5.744960">
        <ele>281.408</ele>
        <time>2020-05-23T22:02:10Z</time>
      </trkpt>
      <trkpt lat="43.208680" lon="-5.744930">
        <ele>281.772</ele>
        <time>2020-05-23T22:02:30Z</time>
      </trkpt>
      <trkpt lat="43.208670" lon="-5.744900">
        <ele>282.017</ele>
        <time>2020-05-23T22:02:50Z</time>
      </trkpt>
      <trkpt lat="43.208670" lon="-5.744870">
        <ele>282.194</ele>
        <time>2020-05-23T22:03:10Z</time>
      </trkpt>
      <trkpt lat="43.208670" lon="-5.744780">
        <ele>282.480</ele>
        <time>2020-05-23T22:03:30Z</time>
      </trkpt>
      <trkpt lat="43.208680" lon="-5.744420">
        <ele>282.639</ele>
        <time>2020-05-23T22:03:50Z</time>
      </trkpt>
      <trkpt lat="43.208680" lon="-5.744270">
        <ele>283.130</ele>
        <time>2020-05-23T22:04:10Z</time>
      </trkpt>
      <trkpt lat="43.208690" lon="-5.744060">
        <ele>283.769</ele>
        <time>2020-05-23T22:04:30Z</time>
      </trkpt>
      <trkpt lat="43.208710" lon="-5.743700">
        <ele>284.832</ele>
        <time>2020-05-23T22:04:50Z</time>
      </trkpt>
      <trkpt lat="43.208710" lon="-5.743580">
        <ele>285.069</ele>
        <time>2020-05-23T22:05:10Z</time>
      </trkpt>
      <trkpt lat="43.208700" lon="-5.743540">
        <ele>285.004</ele>
        <time>2020-05-23T22:05:30Z</time>
      </trkpt>
      <trkpt lat="43.208700" lon="-5.743500">
        <ele>284.724</ele>
        <time>2020-05-23T22:05:50Z</time>
      </trkpt>
      <trkpt lat="43.208690" lon="-5.743430">
        <ele>284.608</ele>
        <time>2020-05-23T22:06:10Z</time>
      </trkpt>
      <trkpt lat="43.208650" lon="-5.743290">
        <ele>285.010</ele>
        <time>2020-05-23T22:06:30Z</time>
      </trkpt>
      <trkpt lat="43.208440" lon="-5.742490">
        <ele>289.175</ele>
        <time>2020-05-23T22:06:50Z</time>
      </trkpt>
      <trkpt lat="43.208430" lon="-5.742410">
        <ele>289.262</ele>
        <time>2020-05-23T22:07:10Z</time>
      </trkpt>
      <trkpt lat="43.208310" lon="-5.741780">
        <ele>289.758</ele>
        <time>2020-05-23T22:07:30Z</time>
      </trkpt>
      <trkpt lat="43.208340" lon="-5.741480">
        <ele>289.077</ele>
        <time>2020-05-23T22:07:50Z</time>
      </trkpt>
      <trkpt lat="43.208350" lon="-5.741310">
        <ele>289.368</ele>
        <time>2020-05-23T22:08:10Z</time>
      </trkpt>
      <trkpt lat="43.208400" lon="-5.740830">
        <ele>289.857</ele>
        <time>2020-05-23T22:08:30Z</time>
      </trkpt>
      <trkpt lat="43.208420" lon="-5.740480">
        <ele>290.920</ele>
        <time>2020-05-23T22:08:50Z</time>
      </trkpt>
      <trkpt lat="43.208440" lon="-5.740220">
        <ele>291.422</ele>
        <time>2020-05-23T22:09:10Z</time>
      </trkpt>
      <trkpt lat="43.208460" lon="-5.739940">
        <ele>291.662</ele>
        <time>2020-05-23T22:09:30Z</time>
      </trkpt>
      <trkpt lat="43.208480" lon="-5.739740">
        <ele>291.408</ele>
        <time>2020-05-23T22:09:50Z</time>
      </trkpt>
      <trkpt lat="43.208500" lon="-5.739350">
        <ele>291.308</ele>
        <time>2020-05-23T22:10:10Z</time>
      </trkpt>
      <trkpt lat="43.208500" lon="-5.739260">
        <ele>291.186</ele>
        <time>2020-05-23T22:10:30Z</time>
      </trkpt>
      <trkpt lat="43.208490" lon="-5.739190">
        <ele>290.951</ele>
        <time>2020-05-23T22:10:50Z</time>
      </trkpt>
      <trkpt lat="43.208470" lon="-5.739070">
        <ele>291.028</ele>
        <time>2020-05-23T22:11:10Z</time>
      </trkpt>
      <trkpt lat="43.208470" lon="-5.739073">
        <ele>291.044</ele>
        <time>2020-05-23T22:11:30Z</time>
      </trkpt>
      <trkpt lat="43.208450" lon="-5.739070">
        <ele>291.183</ele>
        <time>2020-05-23T22:11:50Z</time>
      </trkpt>
      <trkpt lat="43.208440" lon="-5.739070">
        <ele>291.234</ele>
        <time>2020-05-23T22:12:10Z</time>
      </trkpt>
      <trkpt lat="43.208430" lon="-5.739070">
        <ele>291.293</ele>
        <time>2020-05-23T22:12:30Z</time>
      </trkpt>
      <trkpt lat="43.208420" lon="-5.739060">
        <ele>291.246</ele>
        <time>2020-05-23T22:12:50Z</time>
      </trkpt>
      <trkpt lat="43.208410" lon="-5.739060">
        <ele>291.355</ele>
        <time>2020-05-23T22:13:10Z</time>
      </trkpt>
      <trkpt lat="43.208400" lon="-5.739050">
        <ele>291.307</ele>
        <time>2020-05-23T22:13:30Z</time>
      </trkpt>
      <trkpt lat="43.208390" lon="-5.739050">
        <ele>291.317</ele>
        <time>2020-05-23T22:13:50Z</time>
      </trkpt>
      <trkpt lat="43.208380" lon="-5.739040">
        <ele>291.408</ele>
        <time>2020-05-23T22:14:10Z</time>
      </trkpt>
      <trkpt lat="43.208370" lon="-5.739030">
        <ele>291.459</ele>
        <time>2020-05-23T22:14:30Z</time>
      </trkpt>
      <trkpt lat="43.208370" lon="-5.739020">
        <ele>291.314</ele>
        <time>2020-05-23T22:14:50Z</time>
      </trkpt>
      <trkpt lat="43.208360" lon="-5.739010">
        <ele>291.471</ele>
        <time>2020-05-23T22:15:10Z</time>
      </trkpt>
      <trkpt lat="43.208350" lon="-5.739000">
        <ele>291.457</ele>
        <time>2020-05-23T22:15:30Z</time>
      </trkpt>
      <trkpt lat="43.208350" lon="-5.738990">
        <ele>291.396</ele>
        <time>2020-05-23T22:15:50Z</time>
      </trkpt>
      <trkpt lat="43.208340" lon="-5.738980">
        <ele>291.327</ele>
        <time>2020-05-23T22:16:10Z</time>
      </trkpt>
      <trkpt lat="43.208330" lon="-5.738970">
        <ele>291.416</ele>
        <time>2020-05-23T22:16:30Z</time>
      </trkpt>
      <trkpt lat="43.208330" lon="-5.738950">
        <ele>291.329</ele>
        <time>2020-05-23T22:16:50Z</time>
      </trkpt>
      <trkpt lat="43.208330" lon="-5.738940">
        <ele>291.275</ele>
        <time>2020-05-23T22:17:10Z</time>
      </trkpt>
      <trkpt lat="43.208320" lon="-5.738930">
        <ele>291.428</ele>
        <time>2020-05-23T22:17:30Z</time>
      </trkpt>
      <trkpt lat="43.208320" lon="-5.738920">
        <ele>291.420</ele>
        <time>2020-05-23T22:17:50Z</time>
      </trkpt>
      <trkpt lat="43.208320" lon="-5.738900">
        <ele>291.308</ele>
        <time>2020-05-23T22:18:10Z</time>
      </trkpt>
      <trkpt lat="43.208320" lon="-5.738890">
        <ele>291.281</ele>
        <time>2020-05-23T22:18:30Z</time>
      </trkpt>
      <trkpt lat="43.208320" lon="-5.738880">
        <ele>291.266</ele>
        <time>2020-05-23T22:18:50Z</time>
      </trkpt>
      <trkpt lat="43.208320" lon="-5.738860">
        <ele>291.223</ele>
        <time>2020-05-23T22:19:10Z</time>
      </trkpt>
      <trkpt lat="43.208320" lon="-5.738850">
        <ele>291.239</ele>
        <time>2020-05-23T22:19:30Z</time>
      </trkpt>
      <trkpt lat="43.208320" lon="-5.738840">
        <ele>291.268</ele>
        <time>2020-05-23T22:19:50Z</time>
      </trkpt>
      <trkpt lat="43.208320" lon="-5.738820">
        <ele>291.239</ele>
        <time>2020-05-23T22:20:10Z</time>
      </trkpt>
      <trkpt lat="43.208170" lon="-5.738730">
        <ele>292.658</ele>
        <time>2020-05-23T22:20:30Z</time>
      </trkpt>
      <trkpt lat="43.208140" lon="-5.738690">
        <ele>292.521</ele>
        <time>2020-05-23T22:20:50Z</time>
      </trkpt>
      <trkpt lat="43.208110" lon="-5.738670">
        <ele>292.528</ele>
        <time>2020-05-23T22:21:10Z</time>
      </trkpt>
      <trkpt lat="43.208090" lon="-5.738630">
        <ele>292.189</ele>
        <time>2020-05-23T22:21:30Z</time>
      </trkpt>
      <trkpt lat="43.208060" lon="-5.738570">
        <ele>291.817</ele>
        <time>2020-05-23T22:21:50Z</time>
      </trkpt>
      <trkpt lat="43.208010" lon="-5.738410">
        <ele>292.908</ele>
        <time>2020-05-23T22:22:10Z</time>
      </trkpt>
      <trkpt lat="43.207990" lon="-5.738340">
        <ele>293.276</ele>
        <time>2020-05-23T22:22:30Z</time>
      </trkpt>
      <trkpt lat="43.207990" lon="-5.738330">
        <ele>293.151</ele>
        <time>2020-05-23T22:22:50Z</time>
      </trkpt>
      <trkpt lat="43.207980" lon="-5.738280">
        <ele>293.698</ele>
        <time>2020-05-23T22:23:10Z</time>
      </trkpt>
      <trkpt lat="43.207980" lon="-5.738220">
        <ele>293.714</ele>
        <time>2020-05-23T22:23:30Z</time>
      </trkpt>
      <trkpt lat="43.207980" lon="-5.738160">
        <ele>293.873</ele>
        <time>2020-05-23T22:23:50Z</time>
      </trkpt>
      <trkpt lat="43.207990" lon="-5.738100">
        <ele>293.524</ele>
        <time>2020-05-23T22:24:10Z</time>
      </trkpt>
      <trkpt lat="43.208000" lon="-5.738010">
        <ele>293.613</ele>
        <time>2020-05-23T22:24:30Z</time>
      </trkpt>
      <trkpt lat="43.208040" lon="-5.737870">
        <ele>292.556</ele>
        <time>2020-05-23T22:24:50Z</time>
      </trkpt>
      <trkpt lat="43.208140" lon="-5.737660">
        <ele>293.843</ele>
        <time>2020-05-23T22:25:10Z</time>
      </trkpt>
      <trkpt lat="43.208250" lon="-5.737440">
        <ele>294.664</ele>
        <time>2020-05-23T22:25:30Z</time>
      </trkpt>
      <trkpt lat="43.208260" lon="-5.737420">
        <ele>294.610</ele>
        <time>2020-05-23T22:25:50Z</time>
      </trkpt>
      <trkpt lat="43.208360" lon="-5.737250">
        <ele>293.508</ele>
        <time>2020-05-23T22:26:10Z</time>
      </trkpt>
      <trkpt lat="43.208500" lon="-5.737060">
        <ele>294.348</ele>
        <time>2020-05-23T22:26:30Z</time>
      </trkpt>
      <trkpt lat="43.208570" lon="-5.736980">
        <ele>293.763</ele>
        <time>2020-05-23T22:26:50Z</time>
      </trkpt>
      <trkpt lat="43.208620" lon="-5.736930">
        <ele>293.290</ele>
        <time>2020-05-23T22:27:10Z</time>
      </trkpt>
      <trkpt lat="43.209020" lon="-5.736610">
        <ele>294.086</ele>
        <time>2020-05-23T22:27:30Z</time>
      </trkpt>
      <trkpt lat="43.209250" lon="-5.736430">
        <ele>294.165</ele>
        <time>2020-05-23T22:27:50Z</time>
      </trkpt>
      <trkpt lat="43.209470" lon="-5.736260">
        <ele>295.116</ele>
        <time>2020-05-23T22:28:10Z</time>
      </trkpt>
      <trkpt lat="43.209730" lon="-5.736080">
        <ele>296.315</ele>
        <time>2020-05-23T22:28:30Z</time>
      </trkpt>
      <trkpt lat="43.209727" lon="-5.736081">
        <ele>296.218</ele>
        <time>2020-05-23T22:28:50Z</time>
      </trkpt>
      <trkpt lat="43.209820" lon="-5.736080">
        <ele>296.634</ele>
        <time>2020-05-23T22:29:10Z</time>
      </trkpt>
      <trkpt lat="43.209900" lon="-5.736090">
        <ele>296.555</ele>
        <time>2020-05-23T22:29:30Z</time>
      </trkpt>
      <trkpt lat="43.210010" lon="-5.736140">
        <ele>295.710</ele>
        <time>2020-05-23T22:29:50Z</time>
      </trkpt>
      <trkpt lat="43.210220" lon="-5.736240">
        <ele>295.708</ele>
        <time>2020-05-23T22:30:10Z</time>
      </trkpt>
      <trkpt lat="43.210320" lon="-5.736290">
        <ele>295.547</ele>
        <time>2020-05-23T22:30:30Z</time>
      </trkpt>
      <trkpt lat="43.210390" lon="-5.736320">
        <ele>295.222</ele>
        <time>2020-05-23T22:30:50Z</time>
      </trkpt>
      <trkpt lat="43.210391" lon="-5.736316">
        <ele>295.289</ele>
        <time>2020-05-23T22:31:10Z</time>
      </trkpt>
      <trkpt lat="43.210470" lon="-5.736340">
        <ele>295.245</ele>
        <time>2020-05-23T22:31:30Z</time>
      </trkpt>
      <trkpt lat="43.210560" lon="-5.736350">
        <ele>295.314</ele>
        <time>2020-05-23T22:31:50Z</time>
      </trkpt>
      <trkpt lat="43.210640" lon="-5.736350">
        <ele>295.575</ele>
        <time>2020-05-23T22:32:10Z</time>
      </trkpt>
      <trkpt lat="43.210710" lon="-5.736320">
        <ele>295.994</ele>
        <time>2020-05-23T22:32:30Z</time>
      </trkpt>
      <trkpt lat="43.210740" lon="-5.736310">
        <ele>296.027</ele>
        <time>2020-05-23T22:32:50Z</time>
      </trkpt>
      <trkpt lat="43.210780" lon="-5.736300">
        <ele>296.222</ele>
        <time>2020-05-23T22:33:10Z</time>
      </trkpt>
      <trkpt lat="43.210840" lon="-5.736250">
        <ele>296.562</ele>
        <time>2020-05-23T22:33:30Z</time>
      </trkpt>
      <trkpt lat="43.210910" lon="-5.736180">
        <ele>296.508</ele>
        <time>2020-05-23T22:33:50Z</time>
      </trkpt>
      <trkpt lat="43.210940" lon="-5.736140">
        <ele>296.608</ele>
        <time>2020-05-23T22:34:10Z</time>
      </trkpt>
      <trkpt lat="43.210980" lon="-5.736100">
        <ele>296.556</ele>
        <time>2020-05-23T22:34:30Z</time>
      </trkpt>
      <trkpt lat="43.211010" lon="-5.736040">
        <ele>296.551</ele>
        <time>2020-05-23T22:34:50Z</time>
      </trkpt>
      <trkpt lat="43.211020" lon="-5.736000">
        <ele>296.578</ele>
        <time>2020-05-23T22:35:10Z</time>
      </trkpt>
      <trkpt lat="43.211040" lon="-5.735950">
        <ele>296.374</ele>
        <time>2020-05-23T22:35:30Z</time>
      </trkpt>
      <trkpt lat="43.211050" lon="-5.735910">
        <ele>296.133</ele>
        <time>2020-05-23T22:35:50Z</time>
      </trkpt>
      <trkpt lat="43.211060" lon="-5.735860">
        <ele>295.954</ele>
        <time>2020-05-23T22:36:10Z</time>
      </trkpt>
      <trkpt lat="43.211060" lon="-5.735820">
        <ele>296.033</ele>
        <time>2020-05-23T22:36:30Z</time>
      </trkpt>
      <trkpt lat="43.211070" lon="-5.735720">
        <ele>296.456</ele>
        <time>2020-05-23T22:36:50Z</time>
      </trkpt>
      <trkpt lat="43.211150" lon="-5.734640">
        <ele>301.024</ele>
        <time>2020-05-23T22:37:10Z</time>
      </trkpt>
      <trkpt lat="43.211220" lon="-5.733870">
        <ele>300.004</ele>
        <time>2020-05-23T22:37:30Z</time>
      </trkpt>
      <trkpt lat="43.211220" lon="-5.733810">
        <ele>300.114</ele>
        <time>2020-05-23T22:37:50Z</time>
      </trkpt>
      <trkpt lat="43.211220" lon="-5.733770">
        <ele>300.208</ele>
        <time>2020-05-23T22:38:10Z</time>
      </trkpt>
      <trkpt lat="43.211220" lon="-5.733720">
        <ele>300.296</ele>
        <time>2020-05-23T22:38:30Z</time>
      </trkpt>
      <trkpt lat="43.211210" lon="-5.733660">
        <ele>300.321</ele>
        <time>2020-05-23T22:38:50Z</time>
      </trkpt>
      <trkpt lat="43.211180" lon="-5.733530">
        <ele>300.468</ele>
        <time>2020-05-23T22:39:10Z</time>
      </trkpt>
      <trkpt lat="43.211150" lon="-5.733430">
        <ele>300.324</ele>
        <time>2020-05-23T22:39:30Z</time>
      </trkpt>
      <trkpt lat="43.211140" lon="-5.733390">
        <ele>300.383</ele>
        <time>2020-05-23T22:39:50Z</time>
      </trkpt>
      <trkpt lat="43.211090" lon="-5.733250">
        <ele>300.494</ele>
        <time>2020-05-23T22:40:10Z</time>
      </trkpt>
      <trkpt lat="43.210950" lon="-5.732900">
        <ele>302.563</ele>
        <time>2020-05-23T22:40:30Z</time>
      </trkpt>
      <trkpt lat="43.210890" lon="-5.732780">
        <ele>302.836</ele>
        <time>2020-05-23T22:40:50Z</time>
      </trkpt>
      <trkpt lat="43.210888" lon="-5.732783">
        <ele>302.837</ele>
        <time>2020-05-23T22:41:10Z</time>
      </trkpt>
      <trkpt lat="43.210770" lon="-5.732320">
        <ele>306.149</ele>
        <time>2020-05-23T22:41:30Z</time>
      </trkpt>
      <trkpt lat="43.210700" lon="-5.732040">
        <ele>309.013</ele>
        <time>2020-05-23T22:41:50Z</time>
      </trkpt>
      <trkpt lat="43.210660" lon="-5.731810">
        <ele>309.408</ele>
        <time>2020-05-23T22:42:10Z</time>
      </trkpt>
      <trkpt lat="43.210650" lon="-5.731710">
        <ele>309.237</ele>
        <time>2020-05-23T22:42:30Z</time>
      </trkpt>
      <trkpt lat="43.210650" lon="-5.731640">
        <ele>308.872</ele>
        <time>2020-05-23T22:42:50Z</time>
      </trkpt>
      <trkpt lat="43.210640" lon="-5.731580">
        <ele>308.759</ele>
        <time>2020-05-23T22:43:10Z</time>
      </trkpt>
      <trkpt lat="43.210640" lon="-5.731530">
        <ele>308.585</ele>
        <time>2020-05-23T22:43:30Z</time>
      </trkpt>
      <trkpt lat="43.210640" lon="-5.731480">
        <ele>308.294</ele>
        <time>2020-05-23T22:43:50Z</time>
      </trkpt>
      <trkpt lat="43.210640" lon="-5.731430">
        <ele>308.055</ele>
        <time>2020-05-23T22:44:10Z</time>
      </trkpt>
      <trkpt lat="43.210640" lon="-5.731390">
        <ele>307.824</ele>
        <time>2020-05-23T22:44:30Z</time>
      </trkpt>
      <trkpt lat="43.210640" lon="-5.731350">
        <ele>307.967</ele>
        <time>2020-05-23T22:44:50Z</time>
      </trkpt>
      <trkpt lat="43.210650" lon="-5.731300">
        <ele>307.931</ele>
        <time>2020-05-23T22:45:10Z</time>
      </trkpt>
      <trkpt lat="43.210670" lon="-5.731130">
        <ele>307.961</ele>
        <time>2020-05-23T22:45:30Z</time>
      </trkpt>
      <trkpt lat="43.210680" lon="-5.731110">
        <ele>307.807</ele>
        <time>2020-05-23T22:45:50Z</time>
      </trkpt>
      <trkpt lat="43.210730" lon="-5.730890">
        <ele>307.508</ele>
        <time>2020-05-23T22:46:10Z</time>
      </trkpt>
      <trkpt lat="43.210790" lon="-5.730680">
        <ele>306.897</ele>
        <time>2020-05-23T22:46:30Z</time>
      </trkpt>
      <trkpt lat="43.210900" lon="-5.730380">
        <ele>307.392</ele>
        <time>2020-05-23T22:46:50Z</time>
      </trkpt>
      <trkpt lat="43.210980" lon="-5.730230">
        <ele>307.149</ele>
        <time>2020-05-23T22:47:10Z</time>
      </trkpt>
      <trkpt lat="43.211020" lon="-5.730160">
        <ele>306.715</ele>
        <time>2020-05-23T22:47:30Z</time>
      </trkpt>
      <trkpt lat="43.211070" lon="-5.730060">
        <ele>306.414</ele>
        <time>2020-05-23T22:47:50Z</time>
      </trkpt>
      <trkpt lat="43.211200" lon="-5.729860">
        <ele>309.025</ele>
        <time>2020-05-23T22:48:10Z</time>
      </trkpt>
      <trkpt lat="43.211199" lon="-5.729857">
        <ele>309.094</ele>
        <time>2020-05-23T22:48:30Z</time>
      </trkpt>
      <trkpt lat="43.211220" lon="-5.729760">
        <ele>309.627</ele>
        <time>2020-05-23T22:48:50Z</time>
      </trkpt>
      <trkpt lat="43.211240" lon="-5.729680">
        <ele>310.339</ele>
        <time>2020-05-23T22:49:10Z</time>
      </trkpt>
      <trkpt lat="43.211240" lon="-5.729620">
        <ele>310.401</ele>
        <time>2020-05-23T22:49:30Z</time>
      </trkpt>
      <trkpt lat="43.211250" lon="-5.729550">
        <ele>310.821</ele>
        <time>2020-05-23T22:49:50Z</time>
      </trkpt>
      <trkpt lat="43.211240" lon="-5.729500">
        <ele>310.608</ele>
        <time>2020-05-23T22:50:10Z</time>
      </trkpt>
      <trkpt lat="43.211240" lon="-5.729440">
        <ele>310.747</ele>
        <time>2020-05-23T22:50:30Z</time>
      </trkpt>
      <trkpt lat="43.211220" lon="-5.729340">
        <ele>310.782</ele>
        <time>2020-05-23T22:50:50Z</time>
      </trkpt>
      <trkpt lat="43.211200" lon="-5.729210">
        <ele>311.019</ele>
        <time>2020-05-23T22:51:10Z</time>
      </trkpt>
      <trkpt lat="43.211190" lon="-5.729090">
        <ele>311.095</ele>
        <time>2020-05-23T22:51:30Z</time>
      </trkpt>
      <trkpt lat="43.211180" lon="-5.728960">
        <ele>310.974</ele>
        <time>2020-05-23T22:51:50Z</time>
      </trkpt>
      <trkpt lat="43.211180" lon="-5.728860">
        <ele>311.075</ele>
        <time>2020-05-23T22:52:10Z</time>
      </trkpt>
      <trkpt lat="43.211180" lon="-5.728810">
        <ele>310.914</ele>
        <time>2020-05-23T22:52:30Z</time>
      </trkpt>
      <trkpt lat="43.211180" lon="-5.728750">
        <ele>310.967</ele>
        <time>2020-05-23T22:52:50Z</time>
      </trkpt>
      <trkpt lat="43.211190" lon="-5.728650">
        <ele>310.993</ele>
        <time>2020-05-23T22:53:10Z</time>
      </trkpt>
      <trkpt lat="43.211210" lon="-5.728580">
        <ele>311.065</ele>
        <time>2020-05-23T22:53:30Z</time>
      </trkpt>
      <trkpt lat="43.211230" lon="-5.728490">
        <ele>311.121</ele>
        <time>2020-05-23T22:53:50Z</time>
      </trkpt>
      <trkpt lat="43.211250" lon="-5.728400">
        <ele>311.108</ele>
        <time>2020-05-23T22:54:10Z</time>
      </trkpt>
      <trkpt lat="43.211320" lon="-5.728230">
        <ele>310.913</ele>
        <time>2020-05-23T22:54:30Z</time>
      </trkpt>
      <trkpt lat="43.211360" lon="-5.728150">
        <ele>310.648</ele>
        <time>2020-05-23T22:54:50Z</time>
      </trkpt>
      <trkpt lat="43.211500" lon="-5.727970">
        <ele>310.625</ele>
        <time>2020-05-23T22:55:10Z</time>
      </trkpt>
      <trkpt lat="43.211500" lon="-5.727960">
        <ele>310.671</ele>
        <time>2020-05-23T22:55:30Z</time>
      </trkpt>
      <trkpt lat="43.211570" lon="-5.727890">
        <ele>310.680</ele>
        <time>2020-05-23T22:55:50Z</time>
      </trkpt>
      <trkpt lat="43.211650" lon="-5.727850">
        <ele>310.741</ele>
        <time>2020-05-23T22:56:10Z</time>
      </trkpt>
      <trkpt lat="43.211740" lon="-5.727810">
        <ele>310.640</ele>
        <time>2020-05-23T22:56:30Z</time>
      </trkpt>
      <trkpt lat="43.211780" lon="-5.727790">
        <ele>310.693</ele>
        <time>2020-05-23T22:56:50Z</time>
      </trkpt>
      <trkpt lat="43.211830" lon="-5.727770">
        <ele>310.557</ele>
        <time>2020-05-23T22:57:10Z</time>
      </trkpt>
      <trkpt lat="43.211900" lon="-5.727740">
        <ele>310.600</ele>
        <time>2020-05-23T22:57:30Z</time>
      </trkpt>
      <trkpt lat="43.211990" lon="-5.727700">
        <ele>310.820</ele>
        <time>2020-05-23T22:57:50Z</time>
      </trkpt>
      <trkpt lat="43.212130" lon="-5.727660">
        <ele>311.308</ele>
        <time>2020-05-23T22:58:10Z</time>
      </trkpt>
      <trkpt lat="43.212450" lon="-5.727540">
        <ele>311.529</ele>
        <time>2020-05-23T22:58:30Z</time>
      </trkpt>
      <trkpt lat="43.212660" lon="-5.727460">
        <ele>312.964</ele>
        <time>2020-05-23T22:58:50Z</time>
      </trkpt>
      <trkpt lat="43.212710" lon="-5.727440">
        <ele>313.341</ele>
        <time>2020-05-23T22:59:10Z</time>
      </trkpt>
      <trkpt lat="43.212770" lon="-5.727410">
        <ele>313.677</ele>
        <time>2020-05-23T22:59:30Z</time>
      </trkpt>
      <trkpt lat="43.212820" lon="-5.727380">
        <ele>314.576</ele>
        <time>2020-05-23T22:59:50Z</time>
      </trkpt>
      <trkpt lat="43.212870" lon="-5.727350">
        <ele>315.417</ele>
        <time>2020-05-23T23:00:10Z</time>
      </trkpt>
      <trkpt lat="43.212920" lon="-5.727320">
        <ele>316.216</ele>
        <time>2020-05-23T23:00:30Z</time>
      </trkpt>
      <trkpt lat="43.212960" lon="-5.727270">
        <ele>316.179</ele>
        <time>2020-05-23T23:00:50Z</time>
      </trkpt>
      <trkpt lat="43.212970" lon="-5.727260">
        <ele>316.134</ele>
        <time>2020-05-23T23:01:10Z</time>
      </trkpt>
      <trkpt lat="43.213040" lon="-5.727170">
        <ele>316.055</ele>
        <time>2020-05-23T23:01:30Z</time>
      </trkpt>
      <trkpt lat="43.213070" lon="-5.727130">
        <ele>316.610</ele>
        <time>2020-05-23T23:01:50Z</time>
      </trkpt>
      <trkpt lat="43.213090" lon="-5.727080">
        <ele>317.108</ele>
        <time>2020-05-23T23:02:10Z</time>
      </trkpt>
      <trkpt lat="43.213100" lon="-5.727040">
        <ele>317.197</ele>
        <time>2020-05-23T23:02:30Z</time>
      </trkpt>
      <trkpt lat="43.213100" lon="-5.726990">
        <ele>316.492</ele>
        <time>2020-05-23T23:02:50Z</time>
      </trkpt>
      <trkpt lat="43.213110" lon="-5.726860">
        <ele>316.529</ele>
        <time>2020-05-23T23:03:10Z</time>
      </trkpt>
      <trkpt lat="43.213080" lon="-5.726590">
        <ele>315.285</ele>
        <time>2020-05-23T23:03:30Z</time>
      </trkpt>
      <trkpt lat="43.213070" lon="-5.726520">
        <ele>314.784</ele>
        <time>2020-05-23T23:03:50Z</time>
      </trkpt>
      <trkpt lat="43.212920" lon="-5.725640">
        <ele>315.625</ele>
        <time>2020-05-23T23:04:10Z</time>
      </trkpt>
      <trkpt lat="43.212920" lon="-5.725620">
        <ele>315.754</ele>
        <time>2020-05-23T23:04:30Z</time>
      </trkpt>
      <trkpt lat="43.212890" lon="-5.725430">
        <ele>316.317</ele>
        <time>2020-05-23T23:04:50Z</time>
      </trkpt>
      <trkpt lat="43.212880" lon="-5.725350">
        <ele>316.763</ele>
        <time>2020-05-23T23:05:10Z</time>
      </trkpt>
      <trkpt lat="43.212870" lon="-5.725270">
        <ele>317.044</ele>
        <time>2020-05-23T23:05:30Z</time>
      </trkpt>
      <trkpt lat="43.212880" lon="-5.725190">
        <ele>317.218</ele>
        <time>2020-05-23T23:05:50Z</time>
      </trkpt>
      <trkpt lat="43.212890" lon="-5.725140">
        <ele>317.308</ele>
        <time>2020-05-23T23:06:10Z</time>
      </trkpt>
      <trkpt lat="43.212910" lon="-5.725070">
        <ele>317.520</ele>
        <time>2020-05-23T23:06:30Z</time>
      </trkpt>
      <trkpt lat="43.212930" lon="-5.725020">
        <ele>317.795</ele>
        <time>2020-05-23T23:06:50Z</time>
      </trkpt>
      <trkpt lat="43.212960" lon="-5.724990">
        <ele>317.942</ele>
        <time>2020-05-23T23:07:10Z</time>
      </trkpt>
      <trkpt lat="43.213020" lon="-5.724920">
        <ele>318.198</ele>
        <time>2020-05-23T23:07:30Z</time>
      </trkpt>
      <trkpt lat="43.213300" lon="-5.724680">
        <ele>319.227</ele>
        <time>2020-05-23T23:07:50Z</time>
      </trkpt>
      <trkpt lat="43.213320" lon="-5.724660">
        <ele>319.248</ele>
        <time>2020-05-23T23:08:10Z</time>
      </trkpt>
      <trkpt lat="43.213620" lon="-5.724420">
        <ele>319.037</ele>
        <time>2020-05-23T23:08:30Z</time>
      </trkpt>
      <trkpt lat="43.213630" lon="-5.724410">
        <ele>319.160</ele>
        <time>2020-05-23T23:08:50Z</time>
      </trkpt>
      <trkpt lat="43.213820" lon="-5.724220">
        <ele>320.817</ele>
        <time>2020-05-23T23:09:10Z</time>
      </trkpt>
      <trkpt lat="43.213890" lon="-5.724140">
        <ele>320.887</ele>
        <time>2020-05-23T23:09:30Z</time>
      </trkpt>
      <trkpt lat="43.213920" lon="-5.724070">
        <ele>321.415</ele>
        <time>2020-05-23T23:09:50Z</time>
      </trkpt>
      <trkpt lat="43.213970" lon="-5.723960">
        <ele>322.408</ele>
        <time>2020-05-23T23:10:10Z</time>
      </trkpt>
      <trkpt lat="43.214010" lon="-5.723850">
        <ele>323.275</ele>
        <time>2020-05-23T23:10:30Z</time>
      </trkpt>
      <trkpt lat="43.214030" lon="-5.723760">
        <ele>323.980</ele>
        <time>2020-05-23T23:10:50Z</time>
      </trkpt>
      <trkpt lat="43.214060" lon="-5.723650">
        <ele>324.717</ele>
        <time>2020-05-23T23:11:10Z</time>
      </trkpt>
      <trkpt lat="43.214060" lon="-5.723530">
        <ele>324.473</ele>
        <time>2020-05-23T23:11:30Z</time>
      </trkpt>
      <trkpt lat="43.214050" lon="-5.723360">
        <ele>323.752</ele>
        <time>2020-05-23T23:11:50Z</time>
      </trkpt>
      <trkpt lat="43.214030" lon="-5.723170">
        <ele>324.263</ele>
        <time>2020-05-23T23:12:10Z</time>
      </trkpt>
      <trkpt lat="43.214020" lon="-5.723160">
        <ele>324.052</ele>
        <time>2020-05-23T23:12:30Z</time>
      </trkpt>
      <trkpt lat="43.213990" lon="-5.723020">
        <ele>324.675</ele>
        <time>2020-05-23T23:12:50Z</time>
      </trkpt>
      <trkpt lat="43.213940" lon="-5.722900">
        <ele>325.062</ele>
        <time>2020-05-23T23:13:10Z</time>
      </trkpt>
      <trkpt lat="43.213880" lon="-5.722800">
        <ele>324.583</ele>
        <time>2020-05-23T23:13:30Z</time>
      </trkpt>
      <trkpt lat="43.213790" lon="-5.722710">
        <ele>324.911</ele>
        <time>2020-05-23T23:13:50Z</time>
      </trkpt>
      <trkpt lat="43.213650" lon="-5.722590">
        <ele>325.408</ele>
        <time>2020-05-23T23:14:10Z</time>
      </trkpt>
      <trkpt lat="43.213560" lon="-5.722530">
        <ele>325.690</ele>
        <time>2020-05-23T23:14:30Z</time>
      </trkpt>
      <trkpt lat="43.213480" lon="-5.722460">
        <ele>326.085</ele>
        <time>2020-05-23T23:14:50Z</time>
      </trkpt>
      <trkpt lat="43.213420" lon="-5.722390">
        <ele>326.352</ele>
        <time>2020-05-23T23:15:10Z</time>
      </trkpt>
      <trkpt lat="43.213390" lon="-5.722340">
        <ele>326.628</ele>
        <time>2020-05-23T23:15:30Z</time>
      </trkpt>
      <trkpt lat="43.213370" lon="-5.722320">
        <ele>326.517</ele>
        <time>2020-05-23T23:15:50Z</time>
      </trkpt>
      <trkpt lat="43.213350" lon="-5.722240">
        <ele>327.248</ele>
        <time>2020-05-23T23:16:10Z</time>
      </trkpt>
      <trkpt lat="43.213340" lon="-5.722140">
        <ele>327.287</ele>
        <time>2020-05-23T23:16:30Z</time>
      </trkpt>
      <trkpt lat="43.213330" lon="-5.722020">
        <ele>327.160</ele>
        <time>2020-05-23T23:16:50Z</time>
      </trkpt>
      <trkpt lat="43.213330" lon="-5.721950">
        <ele>327.122</ele>
        <time>2020-05-23T23:17:10Z</time>
      </trkpt>
      <trkpt lat="43.213340" lon="-5.721850">
        <ele>327.262</ele>
        <time>2020-05-23T23:17:30Z</time>
      </trkpt>
      <trkpt lat="43.213370" lon="-5.721740">
        <ele>327.808</ele>
        <time>2020-05-23T23:17:50Z</time>
      </trkpt>
      <trkpt lat="43.213420" lon="-5.721500">
        <ele>328.908</ele>
        <time>2020-05-23T23:18:10Z</time>
      </trkpt>
      <trkpt lat="43.213460" lon="-5.721380">
        <ele>328.736</ele>
        <time>2020-05-23T23:18:30Z</time>
      </trkpt>
      <trkpt lat="43.213500" lon="-5.721230">
        <ele>329.651</ele>
        <time>2020-05-23T23:18:50Z</time>
      </trkpt>
      <trkpt lat="43.213580" lon="-5.720930">
        <ele>328.288</ele>
        <time>2020-05-23T23:19:10Z</time>
      </trkpt>
      <trkpt lat="43.213600" lon="-5.720730">
        <ele>327.124</ele>
        <time>2020-05-23T23:19:30Z</time>
      </trkpt>
      <trkpt lat="43.213600" lon="-5.720560">
        <ele>326.413</ele>
        <time>2020-05-23T23:19:50Z</time>
      </trkpt>
      <trkpt lat="43.213610" lon="-5.720460">
        <ele>326.414</ele>
        <time>2020-05-23T23:20:10Z</time>
      </trkpt>
      <trkpt lat="43.213630" lon="-5.720350">
        <ele>326.883</ele>
        <time>2020-05-23T23:20:30Z</time>
      </trkpt>
      <trkpt lat="43.213650" lon="-5.720260">
        <ele>327.286</ele>
        <time>2020-05-23T23:20:50Z</time>
      </trkpt>
      <trkpt lat="43.213670" lon="-5.720120">
        <ele>327.755</ele>
        <time>2020-05-23T23:21:10Z</time>
      </trkpt>
      <trkpt lat="43.213680" lon="-5.719910">
        <ele>328.207</ele>
        <time>2020-05-23T23:21:30Z</time>
      </trkpt>
      <trkpt lat="43.213690" lon="-5.719780">
        <ele>328.717</ele>
        <time>2020-05-23T23:21:50Z</time>
      </trkpt>
      <trkpt lat="43.213690" lon="-5.719520">
        <ele>329.108</ele>
        <time>2020-05-23T23:22:10Z</time>
      </trkpt>
      <trkpt lat="43.213690" lon="-5.719480">
        <ele>329.159</ele>
        <time>2020-05-23T23:22:30Z</time>
      </trkpt>
      <trkpt lat="43.213670" lon="-5.719090">
        <ele>329.124</ele>
        <time>2020-05-23T23:22:50Z</time>
      </trkpt>
      <trkpt lat="43.213670" lon="-5.719030">
        <ele>329.161</ele>
        <time>2020-05-23T23:23:10Z</time>
      </trkpt>
      <trkpt lat="43.213660" lon="-5.718850">
        <ele>329.077</ele>
        <time>2020-05-23T23:23:30Z</time>
      </trkpt>
      <trkpt lat="43.213670" lon="-5.718780">
        <ele>329.446</ele>
        <time>2020-05-23T23:23:50Z</time>
      </trkpt>
      <trkpt lat="43.213680" lon="-5.718660">
        <ele>329.927</ele>
        <time>2020-05-23T23:24:10Z</time>
      </trkpt>
      <trkpt lat="43.213720" lon="-5.718560">
        <ele>330.726</ele>
        <time>2020-05-23T23:24:30Z</time>
      </trkpt>
      <trkpt lat="43.213750" lon="-5.718490">
        <ele>331.269</ele>
        <time>2020-05-23T23:24:50Z</time>
      </trkpt>
      <trkpt lat="43.213770" lon="-5.718410">
        <ele>331.674</ele>
        <time>2020-05-23T23:25:10Z</time>
      </trkpt>
      <trkpt lat="43.213770" lon="-5.718370">
        <ele>331.756</ele>
        <time>2020-05-23T23:25:30Z</time>
      </trkpt>
      <trkpt lat="43.213770" lon="-5.718220">
        <ele>331.721</ele>
        <time>2020-05-23T23:25:50Z</time>
      </trkpt>
      <trkpt lat="43.213770" lon="-5.718130">
        <ele>331.708</ele>
        <time>2020-05-23T23:26:10Z</time>
      </trkpt>
      <trkpt lat="43.213780" lon="-5.718030">
        <ele>331.941</ele>
        <time>2020-05-23T23:26:30Z</time>
      </trkpt>
      <trkpt lat="43.213800" lon="-5.717990">
        <ele>332.166</ele>
        <time>2020-05-23T23:26:50Z</time>
      </trkpt>
      <trkpt lat="43.213820" lon="-5.717960">
        <ele>332.353</ele>
        <time>2020-05-23T23:27:10Z</time>
      </trkpt>
      <trkpt lat="43.213860" lon="-5.717940">
        <ele>332.799</ele>
        <time>2020-05-23T23:27:30Z</time>
      </trkpt>
      <trkpt lat="43.213900" lon="-5.717940">
        <ele>333.388</ele>
        <time>2020-05-23T23:27:50Z</time>
      </trkpt>
      <trkpt lat="43.213930" lon="-5.717930">
        <ele>334.069</ele>
        <time>2020-05-23T23:28:10Z</time>
      </trkpt>
      <trkpt lat="43.214070" lon="-5.717890">
        <ele>337.658</ele>
        <time>2020-05-23T23:28:30Z</time>
      </trkpt>
      <trkpt lat="43.214073" lon="-5.717895">
        <ele>337.641</ele>
        <time>2020-05-23T23:28:50Z</time>
      </trkpt>
      <trkpt lat="43.214060" lon="-5.717330">
        <ele>336.621</ele>
        <time>2020-05-23T23:29:10Z</time>
      </trkpt>
      <trkpt lat="43.214080" lon="-5.716940">
        <ele>337.141</ele>
        <time>2020-05-23T23:29:30Z</time>
      </trkpt>
      <trkpt lat="43.214090" lon="-5.716790">
        <ele>337.305</ele>
        <time>2020-05-23T23:29:50Z</time>
      </trkpt>
      <trkpt lat="43.214130" lon="-5.716180">
        <ele>338.108</ele>
        <time>2020-05-23T23:30:10Z</time>
      </trkpt>
      <trkpt lat="43.214140" lon="-5.716060">
        <ele>337.856</ele>
        <time>2020-05-23T23:30:30Z</time>
      </trkpt>
      <trkpt lat="43.214180" lon="-5.715370">
        <ele>334.191</ele>
        <time>2020-05-23T23:30:50Z</time>
      </trkpt>
      <trkpt lat="43.214210" lon="-5.715100">
        <ele>335.588</ele>
        <time>2020-05-23T23:31:10Z</time>
      </trkpt>
      <trkpt lat="43.214240" lon="-5.714870">
        <ele>336.824</ele>
        <time>2020-05-23T23:31:30Z</time>
      </trkpt>
      <trkpt lat="43.214290" lon="-5.714580">
        <ele>338.933</ele>
        <time>2020-05-23T23:31:50Z</time>
      </trkpt>
      <trkpt lat="43.214310" lon="-5.714350">
        <ele>339.464</ele>
        <time>2020-05-23T23:32:10Z</time>
      </trkpt>
      <trkpt lat="43.214310" lon="-5.714180">
        <ele>338.823</ele>
        <time>2020-05-23T23:32:30Z</time>
      </trkpt>
      <trkpt lat="43.214300" lon="-5.714050">
        <ele>338.976</ele>
        <time>2020-05-23T23:32:50Z</time>
      </trkpt>
      <trkpt lat="43.214210" lon="-5.713740">
        <ele>337.363</ele>
        <time>2020-05-23T23:33:10Z</time>
      </trkpt>
      <trkpt lat="43.214050" lon="-5.713320">
        <ele>336.944</ele>
        <time>2020-05-23T23:33:30Z</time>
      </trkpt>
      <trkpt lat="43.214000" lon="-5.713130">
        <ele>336.118</ele>
        <time>2020-05-23T23:33:50Z</time>
      </trkpt>
      <trkpt lat="43.213960" lon="-5.712970">
        <ele>335.308</ele>
        <time>2020-05-23T23:34:10Z</time>
      </trkpt>
      <trkpt lat="43.213940" lon="-5.712830">
        <ele>335.110</ele>
        <time>2020-05-23T23:34:30Z</time>
      </trkpt>
      <trkpt lat="43.213930" lon="-5.712690">
        <ele>336.025</ele>
        <time>2020-05-23T23:34:50Z</time>
      </trkpt>
      <trkpt lat="43.213940" lon="-5.712540">
        <ele>337.952</ele>
        <time>2020-05-23T23:35:10Z</time>
      </trkpt>
      <trkpt lat="43.213950" lon="-5.712480">
        <ele>338.658</ele>
        <time>2020-05-23T23:35:30Z</time>
      </trkpt>
      <trkpt lat="43.213960" lon="-5.712370">
        <ele>338.917</ele>
        <time>2020-05-23T23:35:50Z</time>
      </trkpt>
      <trkpt lat="43.213980" lon="-5.712230">
        <ele>339.628</ele>
        <time>2020-05-23T23:36:10Z</time>
      </trkpt>
      <trkpt lat="43.214010" lon="-5.712130">
        <ele>340.697</ele>
        <time>2020-05-23T23:36:30Z</time>
      </trkpt>
      <trkpt lat="43.214010" lon="-5.712110">
        <ele>340.650</ele>
        <time>2020-05-23T23:36:50Z</time>
      </trkpt>
      <trkpt lat="43.214040" lon="-5.711990">
        <ele>341.267</ele>
        <time>2020-05-23T23:37:10Z</time>
      </trkpt>
      <trkpt lat="43.214050" lon="-5.711820">
        <ele>339.881</ele>
        <time>2020-05-23T23:37:30Z</time>
      </trkpt>
      <trkpt lat="43.214050" lon="-5.711750">
        <ele>338.919</ele>
        <time>2020-05-23T23:37:50Z</time>
      </trkpt>
      <trkpt lat="43.214050" lon="-5.711630">
        <ele>338.208</ele>
        <time>2020-05-23T23:38:10Z</time>
      </trkpt>
      <trkpt lat="43.214040" lon="-5.711450">
        <ele>339.380</ele>
        <time>2020-05-23T23:38:30Z</time>
      </trkpt>
      <trkpt lat="43.214040" lon="-5.711340">
        <ele>340.715</ele>
        <time>2020-05-23T23:38:50Z</time>
      </trkpt>
      <trkpt lat="43.214030" lon="-5.711200">
        <ele>342.772</ele>
        <time>2020-05-23T23:39:10Z</time>
      </trkpt>
      <trkpt lat="43.214000" lon="-5.711090">
        <ele>343.038</ele>
        <time>2020-05-23T23:39:30Z</time>
      </trkpt>
      <trkpt lat="43.213960" lon="-5.710980">
        <ele>343.217</ele>
        <time>2020-05-23T23:39:50Z</time>
      </trkpt>
      <trkpt lat="43.213950" lon="-5.710950">
        <ele>343.288</ele>
        <time>2020-05-23T23:40:10Z</time>
      </trkpt>
      <trkpt lat="43.213910" lon="-5.710860">
        <ele>342.717</ele>
        <time>2020-05-23T23:40:30Z</time>
      </trkpt>
      <trkpt lat="43.213860" lon="-5.710720">
        <ele>344.820</ele>
        <time>2020-05-23T23:40:50Z</time>
      </trkpt>
      <trkpt lat="43.213820" lon="-5.710580">
        <ele>346.947</ele>
        <time>2020-05-23T23:41:10Z</time>
      </trkpt>
      <trkpt lat="43.213780" lon="-5.710360">
        <ele>347.329</ele>
        <time>2020-05-23T23:41:30Z</time>
      </trkpt>
      <trkpt lat="43.213760" lon="-5.710170">
        <ele>346.421</ele>
        <time>2020-05-23T23:41:50Z</time>
      </trkpt>
      <trkpt lat="43.213750" lon="-5.710060">
        <ele>345.308</ele>
        <time>2020-05-23T23:42:10Z</time>
      </trkpt>
      <trkpt lat="43.213730" lon="-5.709940">
        <ele>344.188</ele>
        <time>2020-05-23T23:42:30Z</time>
      </trkpt>
      <trkpt lat="43.213730" lon="-5.709820">
        <ele>344.083</ele>
        <time>2020-05-23T23:42:50Z</time>
      </trkpt>
      <trkpt lat="43.213760" lon="-5.709720">
        <ele>344.880</ele>
        <time>2020-05-23T23:43:10Z</time>
      </trkpt>
      <trkpt lat="43.213810" lon="-5.709560">
        <ele>344.256</ele>
        <time>2020-05-23T23:43:30Z</time>
      </trkpt>
      <trkpt lat="43.213860" lon="-5.709410">
        <ele>343.415</ele>
        <time>2020-05-23T23:43:50Z</time>
      </trkpt>
      <trkpt lat="43.213890" lon="-5.709260">
        <ele>343.426</ele>
        <time>2020-05-23T23:44:10Z</time>
      </trkpt>
      <trkpt lat="43.213920" lon="-5.709100">
        <ele>344.345</ele>
        <time>2020-05-23T23:44:30Z</time>
      </trkpt>
      <trkpt lat="43.213920" lon="-5.708930">
        <ele>344.078</ele>
        <time>2020-05-23T23:44:50Z</time>
      </trkpt>
      <trkpt lat="43.213920" lon="-5.708780">
        <ele>344.818</ele>
        <time>2020-05-23T23:45:10Z</time>
      </trkpt>
      <trkpt lat="43.213930" lon="-5.708530">
        <ele>347.598</ele>
        <time>2020-05-23T23:45:30Z</time>
      </trkpt>
      <trkpt lat="43.213930" lon="-5.708280">
        <ele>349.417</ele>
        <time>2020-05-23T23:45:50Z</time>
      </trkpt>
      <trkpt lat="43.213920" lon="-5.708110">
        <ele>350.508</ele>
        <time>2020-05-23T23:46:10Z</time>
      </trkpt>
      <trkpt lat="43.213900" lon="-5.707970">
        <ele>350.145</ele>
        <time>2020-05-23T23:46:30Z</time>
      </trkpt>
      <trkpt lat="43.213880" lon="-5.707870">
        <ele>349.460</ele>
        <time>2020-05-23T23:46:50Z</time>
      </trkpt>
      <trkpt lat="43.213840" lon="-5.707820">
        <ele>348.687</ele>
        <time>2020-05-23T23:47:10Z</time>
      </trkpt>
      <trkpt lat="43.213680" lon="-5.707660">
        <ele>345.573</ele>
        <time>2020-05-23T23:47:30Z</time>
      </trkpt>
      <trkpt lat="43.213530" lon="-5.707520">
        <ele>344.812</ele>
        <time>2020-05-23T23:47:50Z</time>
      </trkpt>
      <trkpt lat="43.213450" lon="-5.707410">
        <ele>345.873</ele>
        <time>2020-05-23T23:48:10Z</time>
      </trkpt>
      <trkpt lat="43.213390" lon="-5.707320">
        <ele>346.452</ele>
        <time>2020-05-23T23:48:30Z</time>
      </trkpt>
      <trkpt lat="43.213350" lon="-5.707230">
        <ele>347.035</ele>
        <time>2020-05-23T23:48:50Z</time>
      </trkpt>
      <trkpt lat="43.213330" lon="-5.707120">
        <ele>347.337</ele>
        <time>2020-05-23T23:49:10Z</time>
      </trkpt>
      <trkpt lat="43.213300" lon="-5.706860">
        <ele>347.849</ele>
        <time>2020-05-23T23:49:30Z</time>
      </trkpt>
      <trkpt lat="43.213200" lon="-5.705290">
        <ele>355.113</ele>
        <time>2020-05-23T23:49:50Z</time>
      </trkpt>
      <trkpt lat="43.213180" lon="-5.705070">
        <ele>356.008</ele>
        <time>2020-05-23T23:50:10Z</time>
      </trkpt>
      <trkpt lat="43.213180" lon="-5.704940">
        <ele>356.817</ele>
        <time>2020-05-23T23:50:30Z</time>
      </trkpt>
      <trkpt lat="43.213190" lon="-5.704820">
        <ele>357.812</ele>
        <time>2020-05-23T23:50:50Z</time>
      </trkpt>
      <trkpt lat="43.213220" lon="-5.704670">
        <ele>360.039</ele>
        <time>2020-05-23T23:51:10Z</time>
      </trkpt>
      <trkpt lat="43.213220" lon="-5.704500">
        <ele>361.045</ele>
        <time>2020-05-23T23:51:30Z</time>
      </trkpt>
      <trkpt lat="43.213220" lon="-5.704420">
        <ele>361.664</ele>
        <time>2020-05-23T23:51:50Z</time>
      </trkpt>
      <trkpt lat="43.213220" lon="-5.704340">
        <ele>362.885</ele>
        <time>2020-05-23T23:52:10Z</time>
      </trkpt>
      <trkpt lat="43.213180" lon="-5.704040">
        <ele>363.864</ele>
        <time>2020-05-23T23:52:30Z</time>
      </trkpt>
      <trkpt lat="43.213120" lon="-5.703700">
        <ele>362.927</ele>
        <time>2020-05-23T23:52:50Z</time>
      </trkpt>
      <trkpt lat="43.213120" lon="-5.703670">
        <ele>363.261</ele>
        <time>2020-05-23T23:53:10Z</time>
      </trkpt>
      <trkpt lat="43.213050" lon="-5.703470">
        <ele>360.921</ele>
        <time>2020-05-23T23:53:30Z</time>
      </trkpt>
      <trkpt lat="43.213020" lon="-5.703370">
        <ele>361.313</ele>
        <time>2020-05-23T23:53:50Z</time>
      </trkpt>
      <trkpt lat="43.212970" lon="-5.703250">
        <ele>361.908</ele>
        <time>2020-05-23T23:54:10Z</time>
      </trkpt>
      <trkpt lat="43.212930" lon="-5.703160">
        <ele>361.980</ele>
        <time>2020-05-23T23:54:30Z</time>
      </trkpt>
      <trkpt lat="43.212880" lon="-5.702980">
        <ele>362.565</ele>
        <time>2020-05-23T23:54:50Z</time>
      </trkpt>
      <trkpt lat="43.212860" lon="-5.702790">
        <ele>364.472</ele>
        <time>2020-05-23T23:55:10Z</time>
      </trkpt>
      <trkpt lat="43.212870" lon="-5.702570">
        <ele>365.318</ele>
        <time>2020-05-23T23:55:30Z</time>
      </trkpt>
      <trkpt lat="43.212910" lon="-5.702380">
        <ele>366.577</ele>
        <time>2020-05-23T23:55:50Z</time>
      </trkpt>
      <trkpt lat="43.212930" lon="-5.702300">
        <ele>366.978</ele>
        <time>2020-05-23T23:56:10Z</time>
      </trkpt>
      <trkpt lat="43.212950" lon="-5.702200">
        <ele>366.947</ele>
        <time>2020-05-23T23:56:30Z</time>
      </trkpt>
      <trkpt lat="43.213040" lon="-5.701720">
        <ele>365.860</ele>
        <time>2020-05-23T23:56:50Z</time>
      </trkpt>
      <trkpt lat="43.213080" lon="-5.701460">
        <ele>366.386</ele>
        <time>2020-05-23T23:57:10Z</time>
      </trkpt>
      <trkpt lat="43.213100" lon="-5.701340">
        <ele>367.160</ele>
        <time>2020-05-23T23:57:30Z</time>
      </trkpt>
      <trkpt lat="43.213110" lon="-5.701210">
        <ele>367.326</ele>
        <time>2020-05-23T23:57:50Z</time>
      </trkpt>
      <trkpt lat="43.213120" lon="-5.701100">
        <ele>367.508</ele>
        <time>2020-05-23T23:58:10Z</time>
      </trkpt>
      <trkpt lat="43.213130" lon="-5.700890">
        <ele>368.012</ele>
        <time>2020-05-23T23:58:30Z</time>
      </trkpt>
      <trkpt lat="43.213140" lon="-5.700720">
        <ele>368.857</ele>
        <time>2020-05-23T23:58:50Z</time>
      </trkpt>
      <trkpt lat="43.213120" lon="-5.700590">
        <ele>367.914</ele>
        <time>2020-05-23T23:59:10Z</time>
      </trkpt>
      <trkpt lat="43.213110" lon="-5.700480">
        <ele>367.620</ele>
        <time>2020-05-23T23:59:30Z</time>
      </trkpt>
      <trkpt lat="43.213110" lon="-5.700350">
        <ele>368.179</ele>
        <time>2020-05-23T23:59:50Z</time>
      </trkpt>
      <trkpt lat="43.213130" lon="-5.700180">
        <ele>369.060</ele>
        <time>2020-05-24T00:00:10Z</time>
      </trkpt>
      <trkpt lat="43.213150" lon="-5.700120">
        <ele>370.079</ele>
        <time>2020-05-24T00:00:30Z</time>
      </trkpt>
      <trkpt lat="43.213150" lon="-5.700100">
        <ele>369.992</ele>
        <time>2020-05-24T00:00:50Z</time>
      </trkpt>
      <trkpt lat="43.213200" lon="-5.699940">
        <ele>371.859</ele>
        <time>2020-05-24T00:01:10Z</time>
      </trkpt>
      <trkpt lat="43.213260" lon="-5.699760">
        <ele>372.303</ele>
        <time>2020-05-24T00:01:30Z</time>
      </trkpt>
      <trkpt lat="43.213280" lon="-5.699660">
        <ele>372.223</ele>
        <time>2020-05-24T00:01:50Z</time>
      </trkpt>
      <trkpt lat="43.213290" lon="-5.699610">
        <ele>372.308</ele>
        <time>2020-05-24T00:02:10Z</time>
      </trkpt>
      <trkpt lat="43.213310" lon="-5.699480">
        <ele>372.219</ele>
        <time>2020-05-24T00:02:30Z</time>
      </trkpt>
      <trkpt lat="43.213310" lon="-5.699420">
        <ele>371.934</ele>
        <time>2020-05-24T00:02:50Z</time>
      </trkpt>
      <trkpt lat="43.213310" lon="-5.699360">
        <ele>372.251</ele>
        <time>2020-05-24T00:03:10Z</time>
      </trkpt>
      <trkpt lat="43.213300" lon="-5.699230">
        <ele>372.327</ele>
        <time>2020-05-24T00:03:30Z</time>
      </trkpt>
      <trkpt lat="43.213290" lon="-5.699180">
        <ele>372.126</ele>
        <time>2020-05-24T00:03:50Z</time>
      </trkpt>
      <trkpt lat="43.213280" lon="-5.699070">
        <ele>374.727</ele>
        <time>2020-05-24T00:04:10Z</time>
      </trkpt>
      <trkpt lat="43.213250" lon="-5.698920">
        <ele>377.436</ele>
        <time>2020-05-24T00:04:30Z</time>
      </trkpt>
      <trkpt lat="43.213210" lon="-5.698800">
        <ele>377.729</ele>
        <time>2020-05-24T00:04:50Z</time>
      </trkpt>
      <trkpt lat="43.213170" lon="-5.698720">
        <ele>376.686</ele>
        <time>2020-05-24T00:05:10Z</time>
      </trkpt>
      <trkpt lat="43.213070" lon="-5.698520">
        <ele>373.160</ele>
        <time>2020-05-24T00:05:30Z</time>
      </trkpt>
      <trkpt lat="43.213050" lon="-5.698490">
        <ele>372.526</ele>
        <time>2020-05-24T00:05:50Z</time>
      </trkpt>
      <trkpt lat="43.212990" lon="-5.698370">
        <ele>372.808</ele>
        <time>2020-05-24T00:06:10Z</time>
      </trkpt>
      <trkpt lat="43.212970" lon="-5.698310">
        <ele>372.942</ele>
        <time>2020-05-24T00:06:30Z</time>
      </trkpt>
      <trkpt lat="43.212940" lon="-5.698250">
        <ele>372.477</ele>
        <time>2020-05-24T00:06:50Z</time>
      </trkpt>
      <trkpt lat="43.212920" lon="-5.698130">
        <ele>372.864</ele>
        <time>2020-05-24T00:07:10Z</time>
      </trkpt>
      <trkpt lat="43.212900" lon="-5.698020">
        <ele>372.940</ele>
        <time>2020-05-24T00:07:30Z</time>
      </trkpt>
      <trkpt lat="43.212910" lon="-5.697950">
        <ele>373.849</ele>
        <time>2020-05-24T00:07:50Z</time>
      </trkpt>
      <trkpt lat="43.212920" lon="-5.697870">
        <ele>374.660</ele>
        <time>2020-05-24T00:08:10Z</time>
      </trkpt>
      <trkpt lat="43.212930" lon="-5.697770">
        <ele>375.459</ele>
        <time>2020-05-24T00:08:30Z</time>
      </trkpt>
      <trkpt lat="43.212950" lon="-5.697680">
        <ele>374.052</ele>
        <time>2020-05-24T00:08:50Z</time>
      </trkpt>
      <trkpt lat="43.212960" lon="-5.697590">
        <ele>372.025</ele>
        <time>2020-05-24T00:09:10Z</time>
      </trkpt>
      <trkpt lat="43.212960" lon="-5.697570">
        <ele>371.426</ele>
        <time>2020-05-24T00:09:30Z</time>
      </trkpt>
      <trkpt lat="43.212960" lon="-5.697480">
        <ele>369.408</ele>
        <time>2020-05-24T00:09:50Z</time>
      </trkpt>
      <trkpt lat="43.212940" lon="-5.697350">
        <ele>367.608</ele>
        <time>2020-05-24T00:10:10Z</time>
      </trkpt>
      <trkpt lat="43.212920" lon="-5.697240">
        <ele>366.216</ele>
        <time>2020-05-24T00:10:30Z</time>
      </trkpt>
      <trkpt lat="43.212910" lon="-5.697110">
        <ele>367.231</ele>
        <time>2020-05-24T00:10:50Z</time>
      </trkpt>
      <trkpt lat="43.212910" lon="-5.696950">
        <ele>369.058</ele>
        <time>2020-05-24T00:11:10Z</time>
      </trkpt>
      <trkpt lat="43.212910" lon="-5.696860">
        <ele>369.544</ele>
        <time>2020-05-24T00:11:30Z</time>
      </trkpt>
      <trkpt lat="43.212910" lon="-5.696790">
        <ele>369.983</ele>
        <time>2020-05-24T00:11:50Z</time>
      </trkpt>
      <trkpt lat="43.212920" lon="-5.696580">
        <ele>371.354</ele>
        <time>2020-05-24T00:12:10Z</time>
      </trkpt>
      <trkpt lat="43.212910" lon="-5.696360">
        <ele>373.923</ele>
        <time>2020-05-24T00:12:30Z</time>
      </trkpt>
      <trkpt lat="43.212900" lon="-5.696290">
        <ele>374.556</ele>
        <time>2020-05-24T00:12:50Z</time>
      </trkpt>
      <trkpt lat="43.212870" lon="-5.696080">
        <ele>376.345</ele>
        <time>2020-05-24T00:13:10Z</time>
      </trkpt>
      <trkpt lat="43.212860" lon="-5.695880">
        <ele>376.447</ele>
        <time>2020-05-24T00:13:30Z</time>
      </trkpt>
      <trkpt lat="43.212850" lon="-5.695800">
        <ele>376.811</ele>
        <time>2020-05-24T00:13:50Z</time>
      </trkpt>
      <trkpt lat="43.212850" lon="-5.695630">
        <ele>377.408</ele>
        <time>2020-05-24T00:14:10Z</time>
      </trkpt>
      <trkpt lat="43.212850" lon="-5.695470">
        <ele>378.018</ele>
        <time>2020-05-24T00:14:30Z</time>
      </trkpt>
      <trkpt lat="43.212860" lon="-5.695390">
        <ele>378.043</ele>
        <time>2020-05-24T00:14:50Z</time>
      </trkpt>
      <trkpt lat="43.212870" lon="-5.695290">
        <ele>378.060</ele>
        <time>2020-05-24T00:15:10Z</time>
      </trkpt>
      <trkpt lat="43.212900" lon="-5.695150">
        <ele>378.076</ele>
        <time>2020-05-24T00:15:30Z</time>
      </trkpt>
      <trkpt lat="43.212930" lon="-5.695000">
        <ele>377.865</ele>
        <time>2020-05-24T00:15:50Z</time>
      </trkpt>
      <trkpt lat="43.212980" lon="-5.694840">
        <ele>378.486</ele>
        <time>2020-05-24T00:16:10Z</time>
      </trkpt>
      <trkpt lat="43.213010" lon="-5.694770">
        <ele>378.055</ele>
        <time>2020-05-24T00:16:30Z</time>
      </trkpt>
      <trkpt lat="43.213090" lon="-5.694600">
        <ele>379.098</ele>
        <time>2020-05-24T00:16:50Z</time>
      </trkpt>
      <trkpt lat="43.213130" lon="-5.694500">
        <ele>381.079</ele>
        <time>2020-05-24T00:17:10Z</time>
      </trkpt>
      <trkpt lat="43.213200" lon="-5.694340">
        <ele>383.105</ele>
        <time>2020-05-24T00:17:30Z</time>
      </trkpt>
      <trkpt lat="43.213360" lon="-5.694070">
        <ele>382.925</ele>
        <time>2020-05-24T00:17:50Z</time>
      </trkpt>
      <trkpt lat="43.213430" lon="-5.693960">
        <ele>383.608</ele>
        <time>2020-05-24T00:18:10Z</time>
      </trkpt>
      <trkpt lat="43.213530" lon="-5.693770">
        <ele>383.741</ele>
        <time>2020-05-24T00:18:30Z</time>
      </trkpt>
      <trkpt lat="43.213530" lon="-5.693760">
        <ele>383.996</ele>
        <time>2020-05-24T00:18:50Z</time>
      </trkpt>
      <trkpt lat="43.213600" lon="-5.693590">
        <ele>383.883</ele>
        <time>2020-05-24T00:19:10Z</time>
      </trkpt>
      <trkpt lat="43.213620" lon="-5.693540">
        <ele>383.839</ele>
        <time>2020-05-24T00:19:30Z</time>
      </trkpt>
      <trkpt lat="43.213640" lon="-5.693470">
        <ele>384.168</ele>
        <time>2020-05-24T00:19:50Z</time>
      </trkpt>
      <trkpt lat="43.213660" lon="-5.693400">
        <ele>384.329</ele>
        <time>2020-05-24T00:20:10Z</time>
      </trkpt>
      <trkpt lat="43.213670" lon="-5.693330">
        <ele>384.738</ele>
        <time>2020-05-24T00:20:30Z</time>
      </trkpt>
      <trkpt lat="43.213660" lon="-5.693130">
        <ele>386.421</ele>
        <time>2020-05-24T00:20:50Z</time>
      </trkpt>
      <trkpt lat="43.213660" lon="-5.693060">
        <ele>386.959</ele>
        <time>2020-05-24T00:21:10Z</time>
      </trkpt>
      <trkpt lat="43.213670" lon="-5.692960">
        <ele>387.603</ele>
        <time>2020-05-24T00:21:30Z</time>
      </trkpt>
      <trkpt lat="43.213700" lon="-5.692840">
        <ele>387.723</ele>
        <time>2020-05-24T00:21:50Z</time>
      </trkpt>
      <trkpt lat="43.213700" lon="-5.692820">
        <ele>388.008</ele>
        <time>2020-05-24T00:22:10Z</time>
      </trkpt>
      <trkpt lat="43.213740" lon="-5.692710">
        <ele>389.119</ele>
        <time>2020-05-24T00:22:30Z</time>
      </trkpt>
      <trkpt lat="43.213780" lon="-5.692630">
        <ele>390.044</ele>
        <time>2020-05-24T00:22:50Z</time>
      </trkpt>
      <trkpt lat="43.213860" lon="-5.692500">
        <ele>390.451</ele>
        <time>2020-05-24T00:23:10Z</time>
      </trkpt>
      <trkpt lat="43.213900" lon="-5.692410">
        <ele>390.567</ele>
        <time>2020-05-24T00:23:30Z</time>
      </trkpt>
      <trkpt lat="43.213930" lon="-5.692340">
        <ele>390.716</ele>
        <time>2020-05-24T00:23:50Z</time>
      </trkpt>
      <trkpt lat="43.214020" lon="-5.692160">
        <ele>391.157</ele>
        <time>2020-05-24T00:24:10Z</time>
      </trkpt>
      <trkpt lat="43.214110" lon="-5.691990">
        <ele>392.186</ele>
        <time>2020-05-24T00:24:30Z</time>
      </trkpt>
      <trkpt lat="43.214160" lon="-5.691870">
        <ele>391.819</ele>
        <time>2020-05-24T00:24:50Z</time>
      </trkpt>
      <trkpt lat="43.214190" lon="-5.691780">
        <ele>391.363</ele>
        <time>2020-05-24T00:25:10Z</time>
      </trkpt>
      <trkpt lat="43.214190" lon="-5.691770">
        <ele>391.444</ele>
        <time>2020-05-24T00:25:30Z</time>
      </trkpt>
      <trkpt lat="43.214200" lon="-5.691650">
        <ele>391.518</ele>
        <time>2020-05-24T00:25:50Z</time>
      </trkpt>
      <trkpt lat="43.214180" lon="-5.691520">
        <ele>390.408</ele>
        <time>2020-05-24T00:26:10Z</time>
      </trkpt>
      <trkpt lat="43.214150" lon="-5.691440">
        <ele>390.810</ele>
        <time>2020-05-24T00:26:30Z</time>
      </trkpt>
      <trkpt lat="43.214120" lon="-5.691370">
        <ele>391.995</ele>
        <time>2020-05-24T00:26:50Z</time>
      </trkpt>
      <trkpt lat="43.214090" lon="-5.691300">
        <ele>393.122</ele>
        <time>2020-05-24T00:27:10Z</time>
      </trkpt>
      <trkpt lat="43.214050" lon="-5.691190">
        <ele>394.478</ele>
        <time>2020-05-24T00:27:30Z</time>
      </trkpt>
      <trkpt lat="43.214020" lon="-5.691080">
        <ele>395.337</ele>
        <time>2020-05-24T00:27:50Z</time>
      </trkpt>
      <trkpt lat="43.214010" lon="-5.691040">
        <ele>395.728</ele>
        <time>2020-05-24T00:28:10Z</time>
      </trkpt>
      <trkpt lat="43.214000" lon="-5.690880">
        <ele>395.237</ele>
        <time>2020-05-24T00:28:30Z</time>
      </trkpt>
      <trkpt lat="43.213990" lon="-5.690840">
        <ele>395.580</ele>
        <time>2020-05-24T00:28:50Z</time>
      </trkpt>
      <trkpt lat="43.213990" lon="-5.690720">
        <ele>395.457</ele>
        <time>2020-05-24T00:29:10Z</time>
      </trkpt>
      <trkpt lat="43.213980" lon="-5.690590">
        <ele>396.100</ele>
        <time>2020-05-24T00:29:30Z</time>
      </trkpt>
      <trkpt lat="43.213980" lon="-5.690550">
        <ele>396.120</ele>
        <time>2020-05-24T00:29:50Z</time>
      </trkpt>
      <trkpt lat="43.213980" lon="-5.690420">
        <ele>396.608</ele>
        <time>2020-05-24T00:30:10Z</time>
      </trkpt>
      <trkpt lat="43.213990" lon="-5.690290">
        <ele>396.629</ele>
        <time>2020-05-24T00:30:30Z</time>
      </trkpt>
      <trkpt lat="43.214010" lon="-5.690230">
        <ele>396.264</ele>
        <time>2020-05-24T00:30:50Z</time>
      </trkpt>
      <trkpt lat="43.214050" lon="-5.690120">
        <ele>395.621</ele>
        <time>2020-05-24T00:31:10Z</time>
      </trkpt>
      <trkpt lat="43.214070" lon="-5.690020">
        <ele>395.937</ele>
        <time>2020-05-24T00:31:30Z</time>
      </trkpt>
      <trkpt lat="43.214070" lon="-5.689930">
        <ele>395.126</ele>
        <time>2020-05-24T00:31:50Z</time>
      </trkpt>
      <trkpt lat="43.214050" lon="-5.689880">
        <ele>395.117</ele>
        <time>2020-05-24T00:32:10Z</time>
      </trkpt>
      <trkpt lat="43.214030" lon="-5.689820">
        <ele>394.816</ele>
        <time>2020-05-24T00:32:30Z</time>
      </trkpt>
      <trkpt lat="43.213950" lon="-5.689710">
        <ele>395.889</ele>
        <time>2020-05-24T00:32:50Z</time>
      </trkpt>
      <trkpt lat="43.213800" lon="-5.689530">
        <ele>398.588</ele>
        <time>2020-05-24T00:33:10Z</time>
      </trkpt>
      <trkpt lat="43.213720" lon="-5.689340">
        <ele>398.624</ele>
        <time>2020-05-24T00:33:30Z</time>
      </trkpt>
      <trkpt lat="43.213640" lon="-5.689160">
        <ele>399.426</ele>
        <time>2020-05-24T00:33:50Z</time>
      </trkpt>
      <trkpt lat="43.213600" lon="-5.689020">
        <ele>400.008</ele>
        <time>2020-05-24T00:34:10Z</time>
      </trkpt>
      <trkpt lat="43.213580" lon="-5.688860">
        <ele>400.182</ele>
        <time>2020-05-24T00:34:30Z</time>
      </trkpt>
      <trkpt lat="43.213590" lon="-5.688670">
        <ele>399.657</ele>
        <time>2020-05-24T00:34:50Z</time>
      </trkpt>
      <trkpt lat="43.213600" lon="-5.688620">
        <ele>398.974</ele>
        <time>2020-05-24T00:35:10Z</time>
      </trkpt>
      <trkpt lat="43.213670" lon="-5.688290">
        <ele>398.970</ele>
        <time>2020-05-24T00:35:30Z</time>
      </trkpt>
      <trkpt lat="43.213720" lon="-5.688150">
        <ele>397.989</ele>
        <time>2020-05-24T00:35:50Z</time>
      </trkpt>
      <trkpt lat="43.213800" lon="-5.687930">
        <ele>397.420</ele>
        <time>2020-05-24T00:36:10Z</time>
      </trkpt>
      <trkpt lat="43.213810" lon="-5.687900">
        <ele>397.419</ele>
        <time>2020-05-24T00:36:30Z</time>
      </trkpt>
      <trkpt lat="43.213810" lon="-5.687890">
        <ele>397.552</ele>
        <time>2020-05-24T00:36:50Z</time>
      </trkpt>
      <trkpt lat="43.213940" lon="-5.687730">
        <ele>396.082</ele>
        <time>2020-05-24T00:37:10Z</time>
      </trkpt>
      <trkpt lat="43.213950" lon="-5.687710">
        <ele>396.143</ele>
        <time>2020-05-24T00:37:30Z</time>
      </trkpt>
      <trkpt lat="43.214030" lon="-5.687560">
        <ele>396.617</ele>
        <time>2020-05-24T00:37:50Z</time>
      </trkpt>
      <trkpt lat="43.214120" lon="-5.687410">
        <ele>396.508</ele>
        <time>2020-05-24T00:38:10Z</time>
      </trkpt>
      <trkpt lat="43.214180" lon="-5.687290">
        <ele>397.252</ele>
        <time>2020-05-24T00:38:30Z</time>
      </trkpt>
      <trkpt lat="43.214210" lon="-5.687240">
        <ele>397.317</ele>
        <time>2020-05-24T00:38:50Z</time>
      </trkpt>
      <trkpt lat="43.214210" lon="-5.687220">
        <ele>397.654</ele>
        <time>2020-05-24T00:39:10Z</time>
      </trkpt>
      <trkpt lat="43.214230" lon="-5.687160">
        <ele>397.350</ele>
        <time>2020-05-24T00:39:30Z</time>
      </trkpt>
      <trkpt lat="43.214250" lon="-5.687040">
        <ele>397.269</ele>
        <time>2020-05-24T00:39:50Z</time>
      </trkpt>
      <trkpt lat="43.214260" lon="-5.686830">
        <ele>396.880</ele>
        <time>2020-05-24T00:40:10Z</time>
      </trkpt>
      <trkpt lat="43.214250" lon="-5.686640">
        <ele>396.289</ele>
        <time>2020-05-24T00:40:30Z</time>
      </trkpt>
      <trkpt lat="43.214210" lon="-5.686490">
        <ele>396.672</ele>
        <time>2020-05-24T00:40:50Z</time>
      </trkpt>
      <trkpt lat="43.214190" lon="-5.686420">
        <ele>396.799</ele>
        <time>2020-05-24T00:41:10Z</time>
      </trkpt>
      <trkpt lat="43.214130" lon="-5.686160">
        <ele>397.107</ele>
        <time>2020-05-24T00:41:30Z</time>
      </trkpt>
      <trkpt lat="43.214100" lon="-5.686020">
        <ele>397.527</ele>
        <time>2020-05-24T00:41:50Z</time>
      </trkpt>
      <trkpt lat="43.214070" lon="-5.685870">
        <ele>397.808</ele>
        <time>2020-05-24T00:42:10Z</time>
      </trkpt>
      <trkpt lat="43.214060" lon="-5.685720">
        <ele>397.763</ele>
        <time>2020-05-24T00:42:30Z</time>
      </trkpt>
      <trkpt lat="43.214050" lon="-5.685610">
        <ele>397.898</ele>
        <time>2020-05-24T00:42:50Z</time>
      </trkpt>
      <trkpt lat="43.214060" lon="-5.685560">
        <ele>397.275</ele>
        <time>2020-05-24T00:43:10Z</time>
      </trkpt>
      <trkpt lat="43.214060" lon="-5.685540">
        <ele>397.221</ele>
        <time>2020-05-24T00:43:30Z</time>
      </trkpt>
      <trkpt lat="43.214080" lon="-5.685500">
        <ele>396.670</ele>
        <time>2020-05-24T00:43:50Z</time>
      </trkpt>
      <trkpt lat="43.214140" lon="-5.685390">
        <ele>395.021</ele>
        <time>2020-05-24T00:44:10Z</time>
      </trkpt>
      <trkpt lat="43.214160" lon="-5.685340">
        <ele>394.720</ele>
        <time>2020-05-24T00:44:30Z</time>
      </trkpt>
      <trkpt lat="43.214170" lon="-5.685340">
        <ele>394.783</ele>
        <time>2020-05-24T00:44:50Z</time>
      </trkpt>
      <trkpt lat="43.214190" lon="-5.685290">
        <ele>395.796</ele>
        <time>2020-05-24T00:45:10Z</time>
      </trkpt>
      <trkpt lat="43.214210" lon="-5.685220">
        <ele>396.531</ele>
        <time>2020-05-24T00:45:30Z</time>
      </trkpt>
      <trkpt lat="43.214220" lon="-5.685160">
        <ele>396.824</ele>
        <time>2020-05-24T00:45:50Z</time>
      </trkpt>
      <trkpt lat="43.214220" lon="-5.685110">
        <ele>396.808</ele>
        <time>2020-05-24T00:46:10Z</time>
      </trkpt>
      <trkpt lat="43.214220" lon="-5.685030">
        <ele>396.743</ele>
        <time>2020-05-24T00:46:30Z</time>
      </trkpt>
      <trkpt lat="43.214190" lon="-5.684810">
        <ele>395.668</ele>
        <time>2020-05-24T00:46:50Z</time>
      </trkpt>
      <trkpt lat="43.214180" lon="-5.684720">
        <ele>395.345</ele>
        <time>2020-05-24T00:47:10Z</time>
      </trkpt>
      <trkpt lat="43.214180" lon="-5.684630">
        <ele>395.431</ele>
        <time>2020-05-24T00:47:30Z</time>
      </trkpt>
      <trkpt lat="43.214200" lon="-5.684520">
        <ele>396.090</ele>
        <time>2020-05-24T00:47:50Z</time>
      </trkpt>
      <trkpt lat="43.214240" lon="-5.684350">
        <ele>397.911</ele>
        <time>2020-05-24T00:48:10Z</time>
      </trkpt>
      <trkpt lat="43.214270" lon="-5.684220">
        <ele>399.810</ele>
        <time>2020-05-24T00:48:30Z</time>
      </trkpt>
      <trkpt lat="43.214300" lon="-5.684040">
        <ele>401.153</ele>
        <time>2020-05-24T00:48:50Z</time>
      </trkpt>
      <trkpt lat="43.214320" lon="-5.683880">
        <ele>401.575</ele>
        <time>2020-05-24T00:49:10Z</time>
      </trkpt>
      <trkpt lat="43.214330" lon="-5.683700">
        <ele>403.728</ele>
        <time>2020-05-24T00:49:30Z</time>
      </trkpt>
      <trkpt lat="43.214290" lon="-5.683550">
        <ele>403.920</ele>
        <time>2020-05-24T00:49:50Z</time>
      </trkpt>
      <trkpt lat="43.214240" lon="-5.683450">
        <ele>403.308</ele>
        <time>2020-05-24T00:50:10Z</time>
      </trkpt>
      <trkpt lat="43.214150" lon="-5.683350">
        <ele>401.511</ele>
        <time>2020-05-24T00:50:30Z</time>
      </trkpt>
      <trkpt lat="43.214140" lon="-5.683340">
        <ele>401.676</ele>
        <time>2020-05-24T00:50:50Z</time>
      </trkpt>
      <trkpt lat="43.214080" lon="-5.683300">
        <ele>401.813</ele>
        <time>2020-05-24T00:51:10Z</time>
      </trkpt>
      <trkpt lat="43.214020" lon="-5.683260">
        <ele>401.899</ele>
        <time>2020-05-24T00:51:30Z</time>
      </trkpt>
      <trkpt lat="43.213980" lon="-5.683230">
        <ele>401.838</ele>
        <time>2020-05-24T00:51:50Z</time>
      </trkpt>
      <trkpt lat="43.213970" lon="-5.683220">
        <ele>401.959</ele>
        <time>2020-05-24T00:52:10Z</time>
      </trkpt>
      <trkpt lat="43.213940" lon="-5.683180">
        <ele>402.128</ele>
        <time>2020-05-24T00:52:30Z</time>
      </trkpt>
      <trkpt lat="43.213890" lon="-5.683110">
        <ele>402.281</ele>
        <time>2020-05-24T00:52:50Z</time>
      </trkpt>
      <trkpt lat="43.213870" lon="-5.683070">
        <ele>402.779</ele>
        <time>2020-05-24T00:53:10Z</time>
      </trkpt>
      <trkpt lat="43.213850" lon="-5.683030">
        <ele>402.705</ele>
        <time>2020-05-24T00:53:30Z</time>
      </trkpt>
      <trkpt lat="43.213840" lon="-5.682970">
        <ele>402.625</ele>
        <time>2020-05-24T00:53:50Z</time>
      </trkpt>
      <trkpt lat="43.213830" lon="-5.682880">
        <ele>402.608</ele>
        <time>2020-05-24T00:54:10Z</time>
      </trkpt>
      <trkpt lat="43.213810" lon="-5.682710">
        <ele>402.311</ele>
        <time>2020-05-24T00:54:30Z</time>
      </trkpt>
      <trkpt lat="43.213800" lon="-5.682570">
        <ele>402.166</ele>
        <time>2020-05-24T00:54:50Z</time>
      </trkpt>
      <trkpt lat="43.213800" lon="-5.682560">
        <ele>402.123</ele>
        <time>2020-05-24T00:55:10Z</time>
      </trkpt>
      <trkpt lat="43.213790" lon="-5.682490">
        <ele>402.179</ele>
        <time>2020-05-24T00:55:30Z</time>
      </trkpt>
      <trkpt lat="43.213790" lon="-5.682440">
        <ele>402.718</ele>
        <time>2020-05-24T00:55:50Z</time>
      </trkpt>
      <trkpt lat="43.213810" lon="-5.682380">
        <ele>403.479</ele>
        <time>2020-05-24T00:56:10Z</time>
      </trkpt>
      <trkpt lat="43.213820" lon="-5.682330">
        <ele>404.038</ele>
        <time>2020-05-24T00:56:30Z</time>
      </trkpt>
      <trkpt lat="43.213820" lon="-5.682320">
        <ele>404.191</ele>
        <time>2020-05-24T00:56:50Z</time>
      </trkpt>
      <trkpt lat="43.213840" lon="-5.682280">
        <ele>404.518</ele>
        <time>2020-05-24T00:57:10Z</time>
      </trkpt>
      <trkpt lat="43.213870" lon="-5.682240">
        <ele>404.998</ele>
        <time>2020-05-24T00:57:30Z</time>
      </trkpt>
      <trkpt lat="43.213910" lon="-5.682200">
        <ele>405.517</ele>
        <time>2020-05-24T00:57:50Z</time>
      </trkpt>
      <trkpt lat="43.213970" lon="-5.682140">
        <ele>406.608</ele>
        <time>2020-05-24T00:58:10Z</time>
      </trkpt>
      <trkpt lat="43.214200" lon="-5.682000">
        <ele>407.555</ele>
        <time>2020-05-24T00:58:30Z</time>
      </trkpt>
      <trkpt lat="43.214270" lon="-5.681940">
        <ele>407.790</ele>
        <time>2020-05-24T00:58:50Z</time>
      </trkpt>
      <trkpt lat="43.214350" lon="-5.681870">
        <ele>408.717</ele>
        <time>2020-05-24T00:59:10Z</time>
      </trkpt>
      <trkpt lat="43.214430" lon="-5.681780">
        <ele>409.553</ele>
        <time>2020-05-24T00:59:30Z</time>
      </trkpt>
      <trkpt lat="43.214500" lon="-5.681660">
        <ele>411.722</ele>
        <time>2020-05-24T00:59:50Z</time>
      </trkpt>
      <trkpt lat="43.214520" lon="-5.681600">
        <ele>412.413</ele>
        <time>2020-05-24T01:00:10Z</time>
      </trkpt>
      <trkpt lat="43.214540" lon="-5.681540">
        <ele>413.042</ele>
        <time>2020-05-24T01:00:30Z</time>
      </trkpt>
      <trkpt lat="43.214560" lon="-5.681470">
        <ele>413.595</ele>
        <time>2020-05-24T01:00:50Z</time>
      </trkpt>
      <trkpt lat="43.214570" lon="-5.681360">
        <ele>414.174</ele>
        <time>2020-05-24T01:01:10Z</time>
      </trkpt>
      <trkpt lat="43.214570" lon="-5.681240">
        <ele>413.656</ele>
        <time>2020-05-24T01:01:30Z</time>
      </trkpt>
      <trkpt lat="43.214570" lon="-5.681090">
        <ele>413.021</ele>
        <time>2020-05-24T01:01:50Z</time>
      </trkpt>
      <trkpt lat="43.214570" lon="-5.680870">
        <ele>413.408</ele>
        <time>2020-05-24T01:02:10Z</time>
      </trkpt>
      <trkpt lat="43.214570" lon="-5.680540">
        <ele>414.621</ele>
        <time>2020-05-24T01:02:30Z</time>
      </trkpt>
      <trkpt lat="43.214610" lon="-5.680000">
        <ele>417.046</ele>
        <time>2020-05-24T01:02:50Z</time>
      </trkpt>
      <trkpt lat="43.214620" lon="-5.679890">
        <ele>417.623</ele>
        <time>2020-05-24T01:03:10Z</time>
      </trkpt>
      <trkpt lat="43.214630" lon="-5.679780">
        <ele>418.269</ele>
        <time>2020-05-24T01:03:30Z</time>
      </trkpt>
      <trkpt lat="43.214620" lon="-5.679700">
        <ele>418.938</ele>
        <time>2020-05-24T01:03:50Z</time>
      </trkpt>
      <trkpt lat="43.214610" lon="-5.679670">
        <ele>419.039</ele>
        <time>2020-05-24T01:04:10Z</time>
      </trkpt>
      <trkpt lat="43.214580" lon="-5.679550">
        <ele>419.128</ele>
        <time>2020-05-24T01:04:30Z</time>
      </trkpt>
      <trkpt lat="43.214540" lon="-5.679480">
        <ele>419.581</ele>
        <time>2020-05-24T01:04:50Z</time>
      </trkpt>
      <trkpt lat="43.214540" lon="-5.679460">
        <ele>419.441</ele>
        <time>2020-05-24T01:05:10Z</time>
      </trkpt>
      <trkpt lat="43.214420" lon="-5.679130">
        <ele>420.581</ele>
        <time>2020-05-24T01:05:30Z</time>
      </trkpt>
      <trkpt lat="43.214380" lon="-5.679040">
        <ele>422.609</ele>
        <time>2020-05-24T01:05:50Z</time>
      </trkpt>
      <trkpt lat="43.214340" lon="-5.678950">
        <ele>423.508</ele>
        <time>2020-05-24T01:06:10Z</time>
      </trkpt>
      <trkpt lat="43.214290" lon="-5.678820">
        <ele>423.488</ele>
        <time>2020-05-24T01:06:30Z</time>
      </trkpt>
      <trkpt lat="43.214270" lon="-5.678770">
        <ele>423.283</ele>
        <time>2020-05-24T01:06:50Z</time>
      </trkpt>
      <trkpt lat="43.214200" lon="-5.678500">
        <ele>422.830</ele>
        <time>2020-05-24T01:07:10Z</time>
      </trkpt>
      <trkpt lat="43.214180" lon="-5.678360">
        <ele>423.716</ele>
        <time>2020-05-24T01:07:30Z</time>
      </trkpt>
      <trkpt lat="43.214170" lon="-5.678350">
        <ele>423.935</ele>
        <time>2020-05-24T01:07:50Z</time>
      </trkpt>
      <trkpt lat="43.214160" lon="-5.678170">
        <ele>425.416</ele>
        <time>2020-05-24T01:08:10Z</time>
      </trkpt>
      <trkpt lat="43.214130" lon="-5.677980">
        <ele>427.265</ele>
        <time>2020-05-24T01:08:30Z</time>
      </trkpt>
      <trkpt lat="43.214120" lon="-5.677870">
        <ele>428.178</ele>
        <time>2020-05-24T01:08:50Z</time>
      </trkpt>
      <trkpt lat="43.214120" lon="-5.677770">
        <ele>428.781</ele>
        <time>2020-05-24T01:09:10Z</time>
      </trkpt>
      <trkpt lat="43.214120" lon="-5.677620">
        <ele>428.961</ele>
        <time>2020-05-24T01:09:30Z</time>
      </trkpt>
      <trkpt lat="43.214120" lon="-5.677610">
        <ele>428.917</ele>
        <time>2020-05-24T01:09:50Z</time>
      </trkpt>
      <trkpt lat="43.214150" lon="-5.677410">
        <ele>427.808</ele>
        <time>2020-05-24T01:10:10Z</time>
      </trkpt>
      <trkpt lat="43.214160" lon="-5.677380">
        <ele>427.312</ele>
        <time>2020-05-24T01:10:30Z</time>
      </trkpt>
      <trkpt lat="43.214200" lon="-5.677140">
        <ele>428.117</ele>
        <time>2020-05-24T01:10:50Z</time>
      </trkpt>
      <trkpt lat="43.214210" lon="-5.677130">
        <ele>428.314</ele>
        <time>2020-05-24T01:11:10Z</time>
      </trkpt>
      <trkpt lat="43.214310" lon="-5.676940">
        <ele>430.010</ele>
        <time>2020-05-24T01:11:30Z</time>
      </trkpt>
      <trkpt lat="43.214360" lon="-5.676840">
        <ele>430.319</ele>
        <time>2020-05-24T01:11:50Z</time>
      </trkpt>
      <trkpt lat="43.214450" lon="-5.676630">
        <ele>428.070</ele>
        <time>2020-05-24T01:12:10Z</time>
      </trkpt>
      <trkpt lat="43.214490" lon="-5.676520">
        <ele>428.259</ele>
        <time>2020-05-24T01:12:30Z</time>
      </trkpt>
      <trkpt lat="43.214510" lon="-5.676480">
        <ele>428.452</ele>
        <time>2020-05-24T01:12:50Z</time>
      </trkpt>
      <trkpt lat="43.214540" lon="-5.676370">
        <ele>428.793</ele>
        <time>2020-05-24T01:13:10Z</time>
      </trkpt>
      <trkpt lat="43.214550" lon="-5.676290">
        <ele>428.965</ele>
        <time>2020-05-24T01:13:30Z</time>
      </trkpt>
      <trkpt lat="43.214560" lon="-5.676240">
        <ele>428.921</ele>
        <time>2020-05-24T01:13:50Z</time>
      </trkpt>
      <trkpt lat="43.214570" lon="-5.676140">
        <ele>428.908</ele>
        <time>2020-05-24T01:14:10Z</time>
      </trkpt>
      <trkpt lat="43.214570" lon="-5.676050">
        <ele>428.233</ele>
        <time>2020-05-24T01:14:30Z</time>
      </trkpt>
      <trkpt lat="43.214570" lon="-5.676010">
        <ele>427.898</ele>
        <time>2020-05-24T01:14:50Z</time>
      </trkpt>
      <trkpt lat="43.214560" lon="-5.675920">
        <ele>426.925</ele>
        <time>2020-05-24T01:15:10Z</time>
      </trkpt>
      <trkpt lat="43.214550" lon="-5.675800">
        <ele>426.051</ele>
        <time>2020-05-24T01:15:30Z</time>
      </trkpt>
      <trkpt lat="43.214550" lon="-5.675780">
        <ele>425.840</ele>
        <time>2020-05-24T01:15:50Z</time>
      </trkpt>
      <trkpt lat="43.214490" lon="-5.675570">
        <ele>425.261</ele>
        <time>2020-05-24T01:16:10Z</time>
      </trkpt>
      <trkpt lat="43.214460" lon="-5.675450">
        <ele>425.180</ele>
        <time>2020-05-24T01:16:30Z</time>
      </trkpt>
      <trkpt lat="43.214420" lon="-5.675340">
        <ele>425.973</ele>
        <time>2020-05-24T01:16:50Z</time>
      </trkpt>
      <trkpt lat="43.214350" lon="-5.675140">
        <ele>428.371</ele>
        <time>2020-05-24T01:17:10Z</time>
      </trkpt>
      <trkpt lat="43.214270" lon="-5.674930">
        <ele>428.541</ele>
        <time>2020-05-24T01:17:30Z</time>
      </trkpt>
      <trkpt lat="43.214260" lon="-5.674910">
        <ele>428.515</ele>
        <time>2020-05-24T01:17:50Z</time>
      </trkpt>
      <trkpt lat="43.214190" lon="-5.674790">
        <ele>427.408</ele>
        <time>2020-05-24T01:18:10Z</time>
      </trkpt>
      <trkpt lat="43.214140" lon="-5.674720">
        <ele>427.611</ele>
        <time>2020-05-24T01:18:30Z</time>
      </trkpt>
      <trkpt lat="43.214120" lon="-5.674670">
        <ele>428.376</ele>
        <time>2020-05-24T01:18:50Z</time>
      </trkpt>
      <trkpt lat="43.214030" lon="-5.674530">
        <ele>429.933</ele>
        <time>2020-05-24T01:19:10Z</time>
      </trkpt>
      <trkpt lat="43.213680" lon="-5.673960">
        <ele>431.299</ele>
        <time>2020-05-24T01:19:30Z</time>
      </trkpt>
      <trkpt lat="43.213440" lon="-5.673540">
        <ele>433.078</ele>
        <time>2020-05-24T01:19:50Z</time>
      </trkpt>
      <trkpt lat="43.213330" lon="-5.673350">
        <ele>431.669</ele>
        <time>2020-05-24T01:20:10Z</time>
      </trkpt>
      <trkpt lat="43.213220" lon="-5.673150">
        <ele>433.928</ele>
        <time>2020-05-24T01:20:30Z</time>
      </trkpt>
      <trkpt lat="43.213000" lon="-5.672760">
        <ele>433.551</ele>
        <time>2020-05-24T01:20:50Z</time>
      </trkpt>
      <trkpt lat="43.212910" lon="-5.672610">
        <ele>435.366</ele>
        <time>2020-05-24T01:21:10Z</time>
      </trkpt>
      <trkpt lat="43.212880" lon="-5.672570">
        <ele>435.429</ele>
        <time>2020-05-24T01:21:30Z</time>
      </trkpt>
      <trkpt lat="43.212820" lon="-5.672490">
        <ele>435.121</ele>
        <time>2020-05-24T01:21:50Z</time>
      </trkpt>
      <trkpt lat="43.212740" lon="-5.672440">
        <ele>436.208</ele>
        <time>2020-05-24T01:22:10Z</time>
      </trkpt>
      <trkpt lat="43.212730" lon="-5.672430">
        <ele>436.340</ele>
        <time>2020-05-24T01:22:30Z</time>
      </trkpt>
      <trkpt lat="43.212600" lon="-5.672350">
        <ele>437.935</ele>
        <time>2020-05-24T01:22:50Z</time>
      </trkpt>
      <trkpt lat="43.212480" lon="-5.672280">
        <ele>438.032</ele>
        <time>2020-05-24T01:23:10Z</time>
      </trkpt>
      <trkpt lat="43.212410" lon="-5.672230">
        <ele>437.318</ele>
        <time>2020-05-24T01:23:30Z</time>
      </trkpt>
      <trkpt lat="43.212360" lon="-5.672200">
        <ele>437.727</ele>
        <time>2020-05-24T01:23:50Z</time>
      </trkpt>
      <trkpt lat="43.212250" lon="-5.672110">
        <ele>438.148</ele>
        <time>2020-05-24T01:24:10Z</time>
      </trkpt>
      <trkpt lat="43.212240" lon="-5.672090">
        <ele>437.997</ele>
        <time>2020-05-24T01:24:30Z</time>
      </trkpt>
      <trkpt lat="43.212140" lon="-5.671990">
        <ele>438.510</ele>
        <time>2020-05-24T01:24:50Z</time>
      </trkpt>
      <trkpt lat="43.212110" lon="-5.671960">
        <ele>438.623</ele>
        <time>2020-05-24T01:25:10Z</time>
      </trkpt>
      <trkpt lat="43.212020" lon="-5.671850">
        <ele>439.983</ele>
        <time>2020-05-24T01:25:30Z</time>
      </trkpt>
      <trkpt lat="43.211970" lon="-5.671800">
        <ele>440.411</ele>
        <time>2020-05-24T01:25:50Z</time>
      </trkpt>
      <trkpt lat="43.211900" lon="-5.671700">
        <ele>440.608</ele>
        <time>2020-05-24T01:26:10Z</time>
      </trkpt>
      <trkpt lat="43.211850" lon="-5.671620">
        <ele>441.286</ele>
        <time>2020-05-24T01:26:30Z</time>
      </trkpt>
      <trkpt lat="43.211840" lon="-5.671600">
        <ele>441.341</ele>
        <time>2020-05-24T01:26:50Z</time>
      </trkpt>
      <trkpt lat="43.211760" lon="-5.671420">
        <ele>441.318</ele>
        <time>2020-05-24T01:27:10Z</time>
      </trkpt>
      <trkpt lat="43.211760" lon="-5.671410">
        <ele>441.254</ele>
        <time>2020-05-24T01:27:30Z</time>
      </trkpt>
      <trkpt lat="43.211690" lon="-5.671180">
        <ele>443.443</ele>
        <time>2020-05-24T01:27:50Z</time>
      </trkpt>
      <trkpt lat="43.211680" lon="-5.671160">
        <ele>443.614</ele>
        <time>2020-05-24T01:28:10Z</time>
      </trkpt>
      <trkpt lat="43.211620" lon="-5.670960">
        <ele>444.193</ele>
        <time>2020-05-24T01:28:30Z</time>
      </trkpt>
      <trkpt lat="43.211620" lon="-5.670950">
        <ele>444.026</ele>
        <time>2020-05-24T01:28:50Z</time>
      </trkpt>
      <trkpt lat="43.211570" lon="-5.670820">
        <ele>444.119</ele>
        <time>2020-05-24T01:29:10Z</time>
      </trkpt>
      <trkpt lat="43.211540" lon="-5.670740">
        <ele>444.509</ele>
        <time>2020-05-24T01:29:30Z</time>
      </trkpt>
      <trkpt lat="43.211490" lon="-5.670650">
        <ele>444.819</ele>
        <time>2020-05-24T01:29:50Z</time>
      </trkpt>
      <trkpt lat="43.211420" lon="-5.670490">
        <ele>444.908</ele>
        <time>2020-05-24T01:30:10Z</time>
      </trkpt>
      <trkpt lat="43.211360" lon="-5.670310">
        <ele>446.015</ele>
        <time>2020-05-24T01:30:30Z</time>
      </trkpt>
      <trkpt lat="43.211360" lon="-5.670300">
        <ele>446.020</ele>
        <time>2020-05-24T01:30:50Z</time>
      </trkpt>
      <trkpt lat="43.211330" lon="-5.670190">
        <ele>446.347</ele>
        <time>2020-05-24T01:31:10Z</time>
      </trkpt>
      <trkpt lat="43.211300" lon="-5.670070">
        <ele>446.433</ele>
        <time>2020-05-24T01:31:30Z</time>
      </trkpt>
      <trkpt lat="43.211300" lon="-5.670060">
        <ele>446.352</ele>
        <time>2020-05-24T01:31:50Z</time>
      </trkpt>
      <trkpt lat="43.211270" lon="-5.669890">
        <ele>447.673</ele>
        <time>2020-05-24T01:32:10Z</time>
      </trkpt>
      <trkpt lat="43.211260" lon="-5.669830">
        <ele>448.212</ele>
        <time>2020-05-24T01:32:30Z</time>
      </trkpt>
      <trkpt lat="43.211250" lon="-5.669720">
        <ele>449.015</ele>
        <time>2020-05-24T01:32:50Z</time>
      </trkpt>
      <trkpt lat="43.211210" lon="-5.669500">
        <ele>450.483</ele>
        <time>2020-05-24T01:33:10Z</time>
      </trkpt>
      <trkpt lat="43.211190" lon="-5.669430">
        <ele>450.725</ele>
        <time>2020-05-24T01:33:30Z</time>
      </trkpt>
      <trkpt lat="43.211180" lon="-5.669360">
        <ele>450.917</ele>
        <time>2020-05-24T01:33:50Z</time>
      </trkpt>
      <trkpt lat="43.211170" lon="-5.669340">
        <ele>450.908</ele>
        <time>2020-05-24T01:34:10Z</time>
      </trkpt>
      <trkpt lat="43.211150" lon="-5.669260">
        <ele>451.082</ele>
        <time>2020-05-24T01:34:30Z</time>
      </trkpt>
      <trkpt lat="43.211130" lon="-5.669220">
        <ele>451.047</ele>
        <time>2020-05-24T01:34:50Z</time>
      </trkpt>
      <trkpt lat="43.211110" lon="-5.669180">
        <ele>451.014</ele>
        <time>2020-05-24T01:35:10Z</time>
      </trkpt>
      <trkpt lat="43.211090" lon="-5.669140">
        <ele>451.490</ele>
        <time>2020-05-24T01:35:30Z</time>
      </trkpt>
      <trkpt lat="43.211050" lon="-5.669100">
        <ele>452.049</ele>
        <time>2020-05-24T01:35:50Z</time>
      </trkpt>
      <trkpt lat="43.210960" lon="-5.669040">
        <ele>452.780</ele>
        <time>2020-05-24T01:36:10Z</time>
      </trkpt>
      <trkpt lat="43.210910" lon="-5.669020">
        <ele>452.979</ele>
        <time>2020-05-24T01:36:30Z</time>
      </trkpt>
      <trkpt lat="43.210880" lon="-5.669000">
        <ele>452.882</ele>
        <time>2020-05-24T01:36:50Z</time>
      </trkpt>
      <trkpt lat="43.210860" lon="-5.668980">
        <ele>452.543</ele>
        <time>2020-05-24T01:37:10Z</time>
      </trkpt>
      <trkpt lat="43.210840" lon="-5.668950">
        <ele>452.164</ele>
        <time>2020-05-24T01:37:30Z</time>
      </trkpt>
      <trkpt lat="43.210830" lon="-5.668930">
        <ele>451.810</ele>
        <time>2020-05-24T01:37:50Z</time>
      </trkpt>
      <trkpt lat="43.210820" lon="-5.668900">
        <ele>451.408</ele>
        <time>2020-05-24T01:38:10Z</time>
      </trkpt>
      <trkpt lat="43.210810" lon="-5.668860">
        <ele>451.438</ele>
        <time>2020-05-24T01:38:30Z</time>
      </trkpt>
      <trkpt lat="43.210810" lon="-5.668830">
        <ele>451.553</ele>
        <time>2020-05-24T01:38:50Z</time>
      </trkpt>
      <trkpt lat="43.210800" lon="-5.668800">
        <ele>451.740</ele>
        <time>2020-05-24T01:39:10Z</time>
      </trkpt>
      <trkpt lat="43.210800" lon="-5.668770">
        <ele>451.866</ele>
        <time>2020-05-24T01:39:30Z</time>
      </trkpt>
      <trkpt lat="43.210810" lon="-5.668700">
        <ele>451.895</ele>
        <time>2020-05-24T01:39:50Z</time>
      </trkpt>
      <trkpt lat="43.210820" lon="-5.668560">
        <ele>453.076</ele>
        <time>2020-05-24T01:40:10Z</time>
      </trkpt>
      <trkpt lat="43.210840" lon="-5.668390">
        <ele>455.925</ele>
        <time>2020-05-24T01:40:30Z</time>
      </trkpt>
      <trkpt lat="43.210850" lon="-5.668340">
        <ele>456.748</ele>
        <time>2020-05-24T01:40:50Z</time>
      </trkpt>
      <trkpt lat="43.210850" lon="-5.668290">
        <ele>456.461</ele>
        <time>2020-05-24T01:41:10Z</time>
      </trkpt>
      <trkpt lat="43.210840" lon="-5.668250">
        <ele>456.021</ele>
        <time>2020-05-24T01:41:30Z</time>
      </trkpt>
      <trkpt lat="43.210830" lon="-5.668220">
        <ele>455.813</ele>
        <time>2020-05-24T01:41:50Z</time>
      </trkpt>
      <trkpt lat="43.210790" lon="-5.668140">
        <ele>455.808</ele>
        <time>2020-05-24T01:42:10Z</time>
      </trkpt>
      <trkpt lat="43.210760" lon="-5.668060">
        <ele>455.990</ele>
        <time>2020-05-24T01:42:30Z</time>
      </trkpt>
      <trkpt lat="43.210710" lon="-5.667950">
        <ele>457.035</ele>
        <time>2020-05-24T01:42:50Z</time>
      </trkpt>
      <trkpt lat="43.210690" lon="-5.667870">
        <ele>457.252</ele>
        <time>2020-05-24T01:43:10Z</time>
      </trkpt>
      <trkpt lat="43.210660" lon="-5.667580">
        <ele>457.928</ele>
        <time>2020-05-24T01:43:30Z</time>
      </trkpt>
      <trkpt lat="43.210630" lon="-5.667230">
        <ele>459.657</ele>
        <time>2020-05-24T01:43:50Z</time>
      </trkpt>
      <trkpt lat="43.210600" lon="-5.667020">
        <ele>462.258</ele>
        <time>2020-05-24T01:44:10Z</time>
      </trkpt>
      <trkpt lat="43.210590" lon="-5.666920">
        <ele>463.557</ele>
        <time>2020-05-24T01:44:30Z</time>
      </trkpt>
      <trkpt lat="43.210560" lon="-5.666800">
        <ele>463.790</ele>
        <time>2020-05-24T01:44:50Z</time>
      </trkpt>
      <trkpt lat="43.210540" lon="-5.666650">
        <ele>464.696</ele>
        <time>2020-05-24T01:45:10Z</time>
      </trkpt>
      <trkpt lat="43.210540" lon="-5.666540">
        <ele>464.731</ele>
        <time>2020-05-24T01:45:30Z</time>
      </trkpt>
      <trkpt lat="43.210540" lon="-5.666530">
        <ele>464.724</ele>
        <time>2020-05-24T01:45:50Z</time>
      </trkpt>
      <trkpt lat="43.210550" lon="-5.666450">
        <ele>464.908</ele>
        <time>2020-05-24T01:46:10Z</time>
      </trkpt>
      <trkpt lat="43.210570" lon="-5.666370">
        <ele>465.563</ele>
        <time>2020-05-24T01:46:30Z</time>
      </trkpt>
      <trkpt lat="43.210600" lon="-5.666300">
        <ele>466.498</ele>
        <time>2020-05-24T01:46:50Z</time>
      </trkpt>
      <trkpt lat="43.210620" lon="-5.666210">
        <ele>467.015</ele>
        <time>2020-05-24T01:47:10Z</time>
      </trkpt>
      <trkpt lat="43.210660" lon="-5.666070">
        <ele>468.171</ele>
        <time>2020-05-24T01:47:30Z</time>
      </trkpt>
      <trkpt lat="43.210670" lon="-5.666040">
        <ele>468.360</ele>
        <time>2020-05-24T01:47:50Z</time>
      </trkpt>
      <trkpt lat="43.210690" lon="-5.665910">
        <ele>467.711</ele>
        <time>2020-05-24T01:48:10Z</time>
      </trkpt>
      <trkpt lat="43.210690" lon="-5.665830">
        <ele>466.860</ele>
        <time>2020-05-24T01:48:30Z</time>
      </trkpt>
      <trkpt lat="43.210690" lon="-5.665750">
        <ele>466.373</ele>
        <time>2020-05-24T01:48:50Z</time>
      </trkpt>
      <trkpt lat="43.210710" lon="-5.665650">
        <ele>465.983</ele>
        <time>2020-05-24T01:49:10Z</time>
      </trkpt>
      <trkpt lat="43.210730" lon="-5.665590">
        <ele>465.625</ele>
        <time>2020-05-24T01:49:30Z</time>
      </trkpt>
      <trkpt lat="43.210760" lon="-5.665550">
        <ele>465.417</ele>
        <time>2020-05-24T01:49:50Z</time>
      </trkpt>
      <trkpt lat="43.210780" lon="-5.665530">
        <ele>465.408</ele>
        <time>2020-05-24T01:50:10Z</time>
      </trkpt>
      <trkpt lat="43.210800" lon="-5.665530">
        <ele>465.682</ele>
        <time>2020-05-24T01:50:30Z</time>
      </trkpt>
      <trkpt lat="43.210830" lon="-5.665530">
        <ele>465.727</ele>
        <time>2020-05-24T01:50:50Z</time>
      </trkpt>
      <trkpt lat="43.210860" lon="-5.665530">
        <ele>466.554</ele>
        <time>2020-05-24T01:51:10Z</time>
      </trkpt>
      <trkpt lat="43.210870" lon="-5.665550">
        <ele>467.080</ele>
        <time>2020-05-24T01:51:30Z</time>
      </trkpt>
      <trkpt lat="43.210880" lon="-5.665570">
        <ele>467.629</ele>
        <time>2020-05-24T01:51:50Z</time>
      </trkpt>
      <trkpt lat="43.210890" lon="-5.665570">
        <ele>467.920</ele>
        <time>2020-05-24T01:52:10Z</time>
      </trkpt>
      <trkpt lat="43.210900" lon="-5.665600">
        <ele>468.749</ele>
        <time>2020-05-24T01:52:30Z</time>
      </trkpt>
      <trkpt lat="43.210900" lon="-5.665620">
        <ele>469.022</ele>
        <time>2020-05-24T01:52:50Z</time>
      </trkpt>
      <trkpt lat="43.210900" lon="-5.665650">
        <ele>469.573</ele>
        <time>2020-05-24T01:53:10Z</time>
      </trkpt>
      <trkpt lat="43.210890" lon="-5.665660">
        <ele>469.485</ele>
        <time>2020-05-24T01:53:30Z</time>
      </trkpt>
      <trkpt lat="43.210880" lon="-5.665700">
        <ele>469.913</ele>
        <time>2020-05-24T01:53:50Z</time>
      </trkpt>
      <trkpt lat="43.210850" lon="-5.665740">
        <ele>469.808</ele>
        <time>2020-05-24T01:54:10Z</time>
      </trkpt>
      <trkpt lat="43.210790" lon="-5.665830">
        <ele>469.711</ele>
        <time>2020-05-24T01:54:30Z</time>
      </trkpt>
      <trkpt lat="43.210770" lon="-5.665890">
        <ele>470.066</ele>
        <time>2020-05-24T01:54:50Z</time>
      </trkpt>
      <trkpt lat="43.210760" lon="-5.665940">
        <ele>470.473</ele>
        <time>2020-05-24T01:55:10Z</time>
      </trkpt>
      <trkpt lat="43.210750" lon="-5.666010">
        <ele>471.099</ele>
        <time>2020-05-24T01:55:30Z</time>
      </trkpt>
      <trkpt lat="43.210750" lon="-5.666090">
        <ele>472.198</ele>
        <time>2020-05-24T01:55:50Z</time>
      </trkpt>
      <trkpt lat="43.210760" lon="-5.666240">
        <ele>472.699</ele>
        <time>2020-05-24T01:56:10Z</time>
      </trkpt>
      <trkpt lat="43.210770" lon="-5.666350">
        <ele>472.858</ele>
        <time>2020-05-24T01:56:30Z</time>
      </trkpt>
      <trkpt lat="43.210780" lon="-5.666430">
        <ele>473.011</ele>
        <time>2020-05-24T01:56:50Z</time>
      </trkpt>
      <trkpt lat="43.210790" lon="-5.666540">
        <ele>473.043</ele>
        <time>2020-05-24T01:57:10Z</time>
      </trkpt>
      <trkpt lat="43.210800" lon="-5.666720">
        <ele>472.564</ele>
        <time>2020-05-24T01:57:30Z</time>
      </trkpt>
      <trkpt lat="43.210800" lon="-5.666780">
        <ele>472.110</ele>
        <time>2020-05-24T01:57:50Z</time>
      </trkpt>
      <trkpt lat="43.210810" lon="-5.666830">
        <ele>472.008</ele>
        <time>2020-05-24T01:58:10Z</time>
      </trkpt>
      <trkpt lat="43.210820" lon="-5.666870">
        <ele>472.118</ele>
        <time>2020-05-24T01:58:30Z</time>
      </trkpt>
      <trkpt lat="43.210850" lon="-5.666910">
        <ele>472.553</ele>
        <time>2020-05-24T01:58:50Z</time>
      </trkpt>
      <trkpt lat="43.210870" lon="-5.666950">
        <ele>472.640</ele>
        <time>2020-05-24T01:59:10Z</time>
      </trkpt>
      <trkpt lat="43.210900" lon="-5.666990">
        <ele>472.566</ele>
        <time>2020-05-24T01:59:30Z</time>
      </trkpt>
      <trkpt lat="43.210980" lon="-5.667070">
        <ele>473.115</ele>
        <time>2020-05-24T01:59:50Z</time>
      </trkpt>
      <trkpt lat="43.211020" lon="-5.667110">
        <ele>473.696</ele>
        <time>2020-05-24T02:00:10Z</time>
      </trkpt>
      <trkpt lat="43.211120" lon="-5.667230">
        <ele>475.125</ele>
        <time>2020-05-24T02:00:30Z</time>
      </trkpt>
      <trkpt lat="43.211120" lon="-5.667240">
        <ele>474.948</ele>
        <time>2020-05-24T02:00:50Z</time>
      </trkpt>
      <trkpt lat="43.211240" lon="-5.667350">
        <ele>476.036</ele>
        <time>2020-05-24T02:01:10Z</time>
      </trkpt>
      <trkpt lat="43.211270" lon="-5.667360">
        <ele>476.617</ele>
        <time>2020-05-24T02:01:30Z</time>
      </trkpt>
      <trkpt lat="43.211400" lon="-5.667430">
        <ele>478.818</ele>
        <time>2020-05-24T02:01:50Z</time>
      </trkpt>
      <trkpt lat="43.211440" lon="-5.667460">
        <ele>479.408</ele>
        <time>2020-05-24T02:02:10Z</time>
      </trkpt>
      <trkpt lat="43.211480" lon="-5.667520">
        <ele>479.367</ele>
        <time>2020-05-24T02:02:30Z</time>
      </trkpt>
      <trkpt lat="43.211510" lon="-5.667610">
        <ele>478.612</ele>
        <time>2020-05-24T02:02:50Z</time>
      </trkpt>
      <trkpt lat="43.211520" lon="-5.667700">
        <ele>477.539</ele>
        <time>2020-05-24T02:03:10Z</time>
      </trkpt>
      <trkpt lat="43.211550" lon="-5.667800">
        <ele>477.245</ele>
        <time>2020-05-24T02:03:30Z</time>
      </trkpt>
      <trkpt lat="43.211560" lon="-5.667830">
        <ele>477.434</ele>
        <time>2020-05-24T02:03:50Z</time>
      </trkpt>
      <trkpt lat="43.211590" lon="-5.667860">
        <ele>478.445</ele>
        <time>2020-05-24T02:04:10Z</time>
      </trkpt>
      <trkpt lat="43.211600" lon="-5.667870">
        <ele>478.744</ele>
        <time>2020-05-24T02:04:30Z</time>
      </trkpt>
      <trkpt lat="43.211740" lon="-5.668010">
        <ele>481.527</ele>
        <time>2020-05-24T02:04:50Z</time>
      </trkpt>
      <trkpt lat="43.211810" lon="-5.668070">
        <ele>482.065</ele>
        <time>2020-05-24T02:05:10Z</time>
      </trkpt>
      <trkpt lat="43.211860" lon="-5.668130">
        <ele>482.268</ele>
        <time>2020-05-24T02:05:30Z</time>
      </trkpt>
      <trkpt lat="43.211930" lon="-5.668230">
        <ele>482.514</ele>
        <time>2020-05-24T02:05:50Z</time>
      </trkpt>
      <trkpt lat="43.211980" lon="-5.668310">
        <ele>483.708</ele>
        <time>2020-05-24T02:06:10Z</time>
      </trkpt>
      <trkpt lat="43.212000" lon="-5.668360">
        <ele>484.280</ele>
        <time>2020-05-24T02:06:30Z</time>
      </trkpt>
      <trkpt lat="43.212020" lon="-5.668400">
        <ele>484.895</ele>
        <time>2020-05-24T02:06:50Z</time>
      </trkpt>
      <trkpt lat="43.212040" lon="-5.668480">
        <ele>485.382</ele>
        <time>2020-05-24T02:07:10Z</time>
      </trkpt>
      <trkpt lat="43.212060" lon="-5.668590">
        <ele>485.538</ele>
        <time>2020-05-24T02:07:30Z</time>
      </trkpt>
      <trkpt lat="43.212070" lon="-5.668600">
        <ele>485.947</ele>
        <time>2020-05-24T02:07:50Z</time>
      </trkpt>
      <trkpt lat="43.212070" lon="-5.668660">
        <ele>485.558</ele>
        <time>2020-05-24T02:08:10Z</time>
      </trkpt>
      <trkpt lat="43.212080" lon="-5.668700">
        <ele>485.747</ele>
        <time>2020-05-24T02:08:30Z</time>
      </trkpt>
      <trkpt lat="43.212110" lon="-5.668800">
        <ele>486.410</ele>
        <time>2020-05-24T02:08:50Z</time>
      </trkpt>
      <trkpt lat="43.212170" lon="-5.668940">
        <ele>488.166</ele>
        <time>2020-05-24T02:09:10Z</time>
      </trkpt>
      <trkpt lat="43.212260" lon="-5.669130">
        <ele>490.429</ele>
        <time>2020-05-24T02:09:30Z</time>
      </trkpt>
      <trkpt lat="43.212310" lon="-5.669240">
        <ele>490.521</ele>
        <time>2020-05-24T02:09:50Z</time>
      </trkpt>
      <trkpt lat="43.212330" lon="-5.669280">
        <ele>490.408</ele>
        <time>2020-05-24T02:10:10Z</time>
      </trkpt>
      <trkpt lat="43.212340" lon="-5.669310">
        <ele>490.220</ele>
        <time>2020-05-24T02:10:30Z</time>
      </trkpt>
      <trkpt lat="43.212370" lon="-5.669340">
        <ele>490.415</ele>
        <time>2020-05-24T02:10:50Z</time>
      </trkpt>
      <trkpt lat="43.212380" lon="-5.669360">
        <ele>490.342</ele>
        <time>2020-05-24T02:11:10Z</time>
      </trkpt>
      <trkpt lat="43.212410" lon="-5.669370">
        <ele>490.768</ele>
        <time>2020-05-24T02:11:30Z</time>
      </trkpt>
      <trkpt lat="43.212450" lon="-5.669380">
        <ele>491.437</ele>
        <time>2020-05-24T02:11:50Z</time>
      </trkpt>
      <trkpt lat="43.212500" lon="-5.669390">
        <ele>492.218</ele>
        <time>2020-05-24T02:12:10Z</time>
      </trkpt>
      <trkpt lat="43.212630" lon="-5.669400">
        <ele>493.357</ele>
        <time>2020-05-24T02:12:30Z</time>
      </trkpt>
      <trkpt lat="43.212710" lon="-5.669420">
        <ele>493.760</ele>
        <time>2020-05-24T02:12:50Z</time>
      </trkpt>
      <trkpt lat="43.212790" lon="-5.669450">
        <ele>493.967</ele>
        <time>2020-05-24T02:13:10Z</time>
      </trkpt>
      <trkpt lat="43.212800" lon="-5.669460">
        <ele>493.781</ele>
        <time>2020-05-24T02:13:30Z</time>
      </trkpt>
      <trkpt lat="43.212840" lon="-5.669460">
        <ele>493.819</ele>
        <time>2020-05-24T02:13:50Z</time>
      </trkpt>
      <trkpt lat="43.212890" lon="-5.669460">
        <ele>494.008</ele>
        <time>2020-05-24T02:14:10Z</time>
      </trkpt>
      <trkpt lat="43.212930" lon="-5.669450">
        <ele>494.410</ele>
        <time>2020-05-24T02:14:30Z</time>
      </trkpt>
      <trkpt lat="43.212980" lon="-5.669430">
        <ele>495.185</ele>
        <time>2020-05-24T02:14:50Z</time>
      </trkpt>
      <trkpt lat="43.213070" lon="-5.669370">
        <ele>497.582</ele>
        <time>2020-05-24T02:15:10Z</time>
      </trkpt>
      <trkpt lat="43.213120" lon="-5.669350">
        <ele>499.148</ele>
        <time>2020-05-24T02:15:30Z</time>
      </trkpt>
      <trkpt lat="43.213180" lon="-5.669320">
        <ele>501.357</ele>
        <time>2020-05-24T02:15:50Z</time>
      </trkpt>
      <trkpt lat="43.213200" lon="-5.669320">
        <ele>501.768</ele>
        <time>2020-05-24T02:16:10Z</time>
      </trkpt>
      <trkpt lat="43.213220" lon="-5.669330">
        <ele>501.887</ele>
        <time>2020-05-24T02:16:30Z</time>
      </trkpt>
      <trkpt lat="43.213250" lon="-5.669340">
        <ele>502.210</ele>
        <time>2020-05-24T02:16:50Z</time>
      </trkpt>
      <trkpt lat="43.213270" lon="-5.669360">
        <ele>502.169</ele>
        <time>2020-05-24T02:17:10Z</time>
      </trkpt>
      <trkpt lat="43.213280" lon="-5.669380">
        <ele>501.704</ele>
        <time>2020-05-24T02:17:30Z</time>
      </trkpt>
      <trkpt lat="43.213300" lon="-5.669410">
        <ele>501.324</ele>
        <time>2020-05-24T02:17:50Z</time>
      </trkpt>
      <trkpt lat="43.213320" lon="-5.669450">
        <ele>500.608</ele>
        <time>2020-05-24T02:18:10Z</time>
      </trkpt>
      <trkpt lat="43.213400" lon="-5.669600">
        <ele>501.410</ele>
        <time>2020-05-24T02:18:30Z</time>
      </trkpt>
      <trkpt lat="43.213400" lon="-5.669610">
        <ele>501.295</ele>
        <time>2020-05-24T02:18:50Z</time>
      </trkpt>
      <trkpt lat="43.213530" lon="-5.669810">
        <ele>503.782</ele>
        <time>2020-05-24T02:19:10Z</time>
      </trkpt>
      <trkpt lat="43.213630" lon="-5.670000">
        <ele>503.518</ele>
        <time>2020-05-24T02:19:30Z</time>
      </trkpt>
      <trkpt lat="43.213660" lon="-5.670040">
        <ele>505.067</ele>
        <time>2020-05-24T02:19:50Z</time>
      </trkpt>
      <trkpt lat="43.213680" lon="-5.670110">
        <ele>504.918</ele>
        <time>2020-05-24T02:20:10Z</time>
      </trkpt>
      <trkpt lat="43.213750" lon="-5.670340">
        <ele>504.837</ele>
        <time>2020-05-24T02:20:30Z</time>
      </trkpt>
      <trkpt lat="43.213770" lon="-5.670400">
        <ele>504.980</ele>
        <time>2020-05-24T02:20:50Z</time>
      </trkpt>
      <trkpt lat="43.213800" lon="-5.670470">
        <ele>505.252</ele>
        <time>2020-05-24T02:21:10Z</time>
      </trkpt>
      <trkpt lat="43.213930" lon="-5.670690">
        <ele>508.453</ele>
        <time>2020-05-24T02:21:30Z</time>
      </trkpt>
      <trkpt lat="43.213950" lon="-5.670770">
        <ele>508.608</ele>
        <time>2020-05-24T02:21:50Z</time>
      </trkpt>
      <trkpt lat="43.213960" lon="-5.670850">
        <ele>508.208</ele>
        <time>2020-05-24T02:22:10Z</time>
      </trkpt>
      <trkpt lat="43.213970" lon="-5.670910">
        <ele>508.029</ele>
        <time>2020-05-24T02:22:30Z</time>
      </trkpt>
      <trkpt lat="43.213970" lon="-5.670970">
        <ele>507.384</ele>
        <time>2020-05-24T02:22:50Z</time>
      </trkpt>
      <trkpt lat="43.213980" lon="-5.671040">
        <ele>506.971</ele>
        <time>2020-05-24T02:23:10Z</time>
      </trkpt>
      <trkpt lat="43.213990" lon="-5.671090">
        <ele>506.747</ele>
        <time>2020-05-24T02:23:30Z</time>
      </trkpt>
      <trkpt lat="43.214020" lon="-5.671170">
        <ele>506.426</ele>
        <time>2020-05-24T02:23:50Z</time>
      </trkpt>
      <trkpt lat="43.214040" lon="-5.671210">
        <ele>506.497</ele>
        <time>2020-05-24T02:24:10Z</time>
      </trkpt>
      <trkpt lat="43.214060" lon="-5.671240">
        <ele>506.546</ele>
        <time>2020-05-24T02:24:30Z</time>
      </trkpt>
      <trkpt lat="43.214110" lon="-5.671260">
        <ele>508.029</ele>
        <time>2020-05-24T02:24:50Z</time>
      </trkpt>
      <trkpt lat="43.214120" lon="-5.671260">
        <ele>508.452</ele>
        <time>2020-05-24T02:25:10Z</time>
      </trkpt>
      <trkpt lat="43.214150" lon="-5.671280">
        <ele>509.153</ele>
        <time>2020-05-24T02:25:30Z</time>
      </trkpt>
      <trkpt lat="43.214190" lon="-5.671300">
        <ele>509.608</ele>
        <time>2020-05-24T02:25:50Z</time>
      </trkpt>
      <trkpt lat="43.214210" lon="-5.671310">
        <ele>509.708</ele>
        <time>2020-05-24T02:26:10Z</time>
      </trkpt>
      <trkpt lat="43.214220" lon="-5.671320">
        <ele>509.629</ele>
        <time>2020-05-24T02:26:30Z</time>
      </trkpt>
      <trkpt lat="43.214250" lon="-5.671340">
        <ele>509.724</ele>
        <time>2020-05-24T02:26:50Z</time>
      </trkpt>
      <trkpt lat="43.214330" lon="-5.671390">
        <ele>509.991</ele>
        <time>2020-05-24T02:27:10Z</time>
      </trkpt>
      <trkpt lat="43.214420" lon="-5.671450">
        <ele>509.897</ele>
        <time>2020-05-24T02:27:30Z</time>
      </trkpt>
      <trkpt lat="43.214500" lon="-5.671500">
        <ele>510.176</ele>
        <time>2020-05-24T02:27:50Z</time>
      </trkpt>
      <trkpt lat="43.214590" lon="-5.671520">
        <ele>511.657</ele>
        <time>2020-05-24T02:28:10Z</time>
      </trkpt>
      <trkpt lat="43.214670" lon="-5.671530">
        <ele>513.246</ele>
        <time>2020-05-24T02:28:30Z</time>
      </trkpt>
      <trkpt lat="43.214770" lon="-5.671540">
        <ele>514.259</ele>
        <time>2020-05-24T02:28:50Z</time>
      </trkpt>
      <trkpt lat="43.214860" lon="-5.671520">
        <ele>515.037</ele>
        <time>2020-05-24T02:29:10Z</time>
      </trkpt>
      <trkpt lat="43.215020" lon="-5.671460">
        <ele>517.349</ele>
        <time>2020-05-24T02:29:30Z</time>
      </trkpt>
      <trkpt lat="43.215060" lon="-5.671440">
        <ele>517.613</ele>
        <time>2020-05-24T02:29:50Z</time>
      </trkpt>
      <trkpt lat="43.215110" lon="-5.671410">
        <ele>518.108</ele>
        <time>2020-05-24T02:30:10Z</time>
      </trkpt>
      <trkpt lat="43.215190" lon="-5.671360">
        <ele>518.567</ele>
        <time>2020-05-24T02:30:30Z</time>
      </trkpt>
      <trkpt lat="43.215270" lon="-5.671290">
        <ele>518.982</ele>
        <time>2020-05-24T02:30:50Z</time>
      </trkpt>
      <trkpt lat="43.215330" lon="-5.671230">
        <ele>519.249</ele>
        <time>2020-05-24T02:31:10Z</time>
      </trkpt>
      <trkpt lat="43.215360" lon="-5.671180">
        <ele>519.685</ele>
        <time>2020-05-24T02:31:30Z</time>
      </trkpt>
      <trkpt lat="43.215380" lon="-5.671130">
        <ele>520.234</ele>
        <time>2020-05-24T02:31:50Z</time>
      </trkpt>
      <trkpt lat="43.215400" lon="-5.671080">
        <ele>520.655</ele>
        <time>2020-05-24T02:32:10Z</time>
      </trkpt>
      <trkpt lat="43.215420" lon="-5.670950">
        <ele>521.784</ele>
        <time>2020-05-24T02:32:30Z</time>
      </trkpt>
      <trkpt lat="43.215440" lon="-5.670860">
        <ele>522.417</ele>
        <time>2020-05-24T02:32:50Z</time>
      </trkpt>
      <trkpt lat="43.215460" lon="-5.670800">
        <ele>522.794</ele>
        <time>2020-05-24T02:33:10Z</time>
      </trkpt>
      <trkpt lat="43.215480" lon="-5.670760">
        <ele>522.757</ele>
        <time>2020-05-24T02:33:30Z</time>
      </trkpt>
      <trkpt lat="43.215490" lon="-5.670720">
        <ele>522.922</ele>
        <time>2020-05-24T02:33:50Z</time>
      </trkpt>
      <trkpt lat="43.215510" lon="-5.670660">
        <ele>523.008</ele>
        <time>2020-05-24T02:34:10Z</time>
      </trkpt>
      <trkpt lat="43.215550" lon="-5.670560">
        <ele>523.173</ele>
        <time>2020-05-24T02:34:30Z</time>
      </trkpt>
      <trkpt lat="43.215590" lon="-5.670490">
        <ele>523.418</ele>
        <time>2020-05-24T02:34:50Z</time>
      </trkpt>
      <trkpt lat="43.215620" lon="-5.670450">
        <ele>523.745</ele>
        <time>2020-05-24T02:35:10Z</time>
      </trkpt>
      <trkpt lat="43.215660" lon="-5.670390">
        <ele>524.331</ele>
        <time>2020-05-24T02:35:30Z</time>
      </trkpt>
      <trkpt lat="43.215710" lon="-5.670350">
        <ele>524.820</ele>
        <time>2020-05-24T02:35:50Z</time>
      </trkpt>
      <trkpt lat="43.215770" lon="-5.670310">
        <ele>525.431</ele>
        <time>2020-05-24T02:36:10Z</time>
      </trkpt>
      <trkpt lat="43.215840" lon="-5.670270">
        <ele>526.270</ele>
        <time>2020-05-24T02:36:30Z</time>
      </trkpt>
      <trkpt lat="43.215950" lon="-5.670210">
        <ele>527.323</ele>
        <time>2020-05-24T02:36:50Z</time>
      </trkpt>
      <trkpt lat="43.216020" lon="-5.670180">
        <ele>527.679</ele>
        <time>2020-05-24T02:37:10Z</time>
      </trkpt>
      <trkpt lat="43.216080" lon="-5.670150">
        <ele>527.905</ele>
        <time>2020-05-24T02:37:30Z</time>
      </trkpt>
      <trkpt lat="43.216120" lon="-5.670120">
        <ele>528.225</ele>
        <time>2020-05-24T02:37:50Z</time>
      </trkpt>
      <trkpt lat="43.216170" lon="-5.670080">
        <ele>528.608</ele>
        <time>2020-05-24T02:38:10Z</time>
      </trkpt>
      <trkpt lat="43.216200" lon="-5.670040">
        <ele>529.141</ele>
        <time>2020-05-24T02:38:30Z</time>
      </trkpt>
      <trkpt lat="43.216230" lon="-5.670000">
        <ele>529.666</ele>
        <time>2020-05-24T02:38:50Z</time>
      </trkpt>
      <trkpt lat="43.216300" lon="-5.669910">
        <ele>530.563</ele>
        <time>2020-05-24T02:39:10Z</time>
      </trkpt>
      <trkpt lat="43.216350" lon="-5.669830">
        <ele>531.119</ele>
        <time>2020-05-24T02:39:30Z</time>
      </trkpt>
      <trkpt lat="43.216390" lon="-5.669780">
        <ele>531.498</ele>
        <time>2020-05-24T02:39:50Z</time>
      </trkpt>
      <trkpt lat="43.216490" lon="-5.669610">
        <ele>532.769</ele>
        <time>2020-05-24T02:40:10Z</time>
      </trkpt>
      <trkpt lat="43.216630" lon="-5.669390">
        <ele>534.668</ele>
        <time>2020-05-24T02:40:30Z</time>
      </trkpt>
      <trkpt lat="43.216640" lon="-5.669370">
        <ele>534.971</ele>
        <time>2020-05-24T02:40:50Z</time>
      </trkpt>
      <trkpt lat="43.216650" lon="-5.669350">
        <ele>535.243</ele>
        <time>2020-05-24T02:41:10Z</time>
      </trkpt>
      <trkpt lat="43.216650" lon="-5.669340">
        <ele>535.464</ele>
        <time>2020-05-24T02:41:30Z</time>
      </trkpt>
      <trkpt lat="43.216650" lon="-5.669330">
        <ele>535.710</ele>
        <time>2020-05-24T02:41:50Z</time>
      </trkpt>
      <trkpt lat="43.216650" lon="-5.669310">
        <ele>536.108</ele>
        <time>2020-05-24T02:42:10Z</time>
      </trkpt>
      <trkpt lat="43.216640" lon="-5.669290">
        <ele>536.648</ele>
        <time>2020-05-24T02:42:30Z</time>
      </trkpt>
      <trkpt lat="43.216630" lon="-5.669280">
        <ele>536.963</ele>
        <time>2020-05-24T02:42:50Z</time>
      </trkpt>
      <trkpt lat="43.216630" lon="-5.669270">
        <ele>537.260</ele>
        <time>2020-05-24T02:43:10Z</time>
      </trkpt>
      <trkpt lat="43.216610" lon="-5.669260">
        <ele>537.636</ele>
        <time>2020-05-24T02:43:30Z</time>
      </trkpt>
      <trkpt lat="43.216600" lon="-5.669250">
        <ele>537.935</ele>
        <time>2020-05-24T02:43:50Z</time>
      </trkpt>
      <trkpt lat="43.216440" lon="-5.669240">
        <ele>539.956</ele>
        <time>2020-05-24T02:44:10Z</time>
      </trkpt>
      <trkpt lat="43.216280" lon="-5.669230">
        <ele>541.495</ele>
        <time>2020-05-24T02:44:30Z</time>
      </trkpt>
      <trkpt lat="43.216200" lon="-5.669220">
        <ele>542.278</ele>
        <time>2020-05-24T02:44:50Z</time>
      </trkpt>
      <trkpt lat="43.216120" lon="-5.669220">
        <ele>542.837</ele>
        <time>2020-05-24T02:45:10Z</time>
      </trkpt>
      <trkpt lat="43.216030" lon="-5.669220">
        <ele>544.349</ele>
        <time>2020-05-24T02:45:30Z</time>
      </trkpt>
      <trkpt lat="43.215940" lon="-5.669230">
        <ele>545.613</ele>
        <time>2020-05-24T02:45:50Z</time>
      </trkpt>
      <trkpt lat="43.215870" lon="-5.669240">
        <ele>546.508</ele>
        <time>2020-05-24T02:46:10Z</time>
      </trkpt>
      <trkpt lat="43.215790" lon="-5.669260">
        <ele>547.337</ele>
        <time>2020-05-24T02:46:30Z</time>
      </trkpt>
      <trkpt lat="43.215770" lon="-5.669270">
        <ele>547.342</ele>
        <time>2020-05-24T02:46:50Z</time>
      </trkpt>
      <trkpt lat="43.215710" lon="-5.669290">
        <ele>547.789</ele>
        <time>2020-05-24T02:47:10Z</time>
      </trkpt>
      <trkpt lat="43.215610" lon="-5.669340">
        <ele>547.825</ele>
        <time>2020-05-24T02:47:30Z</time>
      </trkpt>
      <trkpt lat="43.215530" lon="-5.669400">
        <ele>547.874</ele>
        <time>2020-05-24T02:47:50Z</time>
      </trkpt>
      <trkpt lat="43.215440" lon="-5.669480">
        <ele>548.525</ele>
        <time>2020-05-24T02:48:10Z</time>
      </trkpt>
      <trkpt lat="43.215420" lon="-5.669490">
        <ele>548.864</ele>
        <time>2020-05-24T02:48:30Z</time>
      </trkpt>
      <trkpt lat="43.215320" lon="-5.669570">
        <ele>549.077</ele>
        <time>2020-05-24T02:48:50Z</time>
      </trkpt>
      <trkpt lat="43.215220" lon="-5.669610">
        <ele>549.515</ele>
        <time>2020-05-24T02:49:10Z</time>
      </trkpt>
      <trkpt lat="43.215090" lon="-5.669650">
        <ele>550.765</ele>
        <time>2020-05-24T02:49:30Z</time>
      </trkpt>
      <trkpt lat="43.215020" lon="-5.669670">
        <ele>551.611</ele>
        <time>2020-05-24T02:49:50Z</time>
      </trkpt>
      <trkpt lat="43.214950" lon="-5.669680">
        <ele>551.908</ele>
        <time>2020-05-24T02:50:10Z</time>
      </trkpt>
      <trkpt lat="43.214900" lon="-5.669670">
        <ele>552.255</ele>
        <time>2020-05-24T02:50:30Z</time>
      </trkpt>
      <trkpt lat="43.214870" lon="-5.669660">
        <ele>552.490</ele>
        <time>2020-05-24T02:50:50Z</time>
      </trkpt>
      <trkpt lat="43.214840" lon="-5.669630">
        <ele>552.917</ele>
        <time>2020-05-24T02:51:10Z</time>
      </trkpt>
      <trkpt lat="43.214820" lon="-5.669600">
        <ele>553.313</ele>
        <time>2020-05-24T02:51:30Z</time>
      </trkpt>
      <trkpt lat="43.214790" lon="-5.669550">
        <ele>553.972</ele>
        <time>2020-05-24T02:51:50Z</time>
      </trkpt>
      <trkpt lat="43.214770" lon="-5.669500">
        <ele>554.573</ele>
        <time>2020-05-24T02:52:10Z</time>
      </trkpt>
      <trkpt lat="43.214760" lon="-5.669470">
        <ele>554.882</ele>
        <time>2020-05-24T02:52:30Z</time>
      </trkpt>
      <trkpt lat="43.214720" lon="-5.669380">
        <ele>555.765</ele>
        <time>2020-05-24T02:52:50Z</time>
      </trkpt>
      <trkpt lat="43.214670" lon="-5.669280">
        <ele>556.121</ele>
        <time>2020-05-24T02:53:10Z</time>
      </trkpt>
      <trkpt lat="43.214630" lon="-5.669200">
        <ele>556.641</ele>
        <time>2020-05-24T02:53:30Z</time>
      </trkpt>
      <trkpt lat="43.214590" lon="-5.669100">
        <ele>557.305</ele>
        <time>2020-05-24T02:53:50Z</time>
      </trkpt>
      <trkpt lat="43.214550" lon="-5.669010">
        <ele>557.808</ele>
        <time>2020-05-24T02:54:10Z</time>
      </trkpt>
      <trkpt lat="43.214530" lon="-5.668970">
        <ele>558.076</ele>
        <time>2020-05-24T02:54:30Z</time>
      </trkpt>
      <trkpt lat="43.214510" lon="-5.668910">
        <ele>558.551</ele>
        <time>2020-05-24T02:54:50Z</time>
      </trkpt>
      <trkpt lat="43.214500" lon="-5.668870">
        <ele>558.868</ele>
        <time>2020-05-24T02:55:10Z</time>
      </trkpt>
      <trkpt lat="43.214500" lon="-5.668860">
        <ele>558.884</ele>
        <time>2020-05-24T02:55:30Z</time>
      </trkpt>
      <trkpt lat="43.214490" lon="-5.668820">
        <ele>559.033</ele>
        <time>2020-05-24T02:55:50Z</time>
      </trkpt>
      <trkpt lat="43.214490" lon="-5.668770">
        <ele>559.484</ele>
        <time>2020-05-24T02:56:10Z</time>
      </trkpt>
      <trkpt lat="43.214500" lon="-5.668700">
        <ele>560.153</ele>
        <time>2020-05-24T02:56:30Z</time>
      </trkpt>
      <trkpt lat="43.214510" lon="-5.668660">
        <ele>560.576</ele>
        <time>2020-05-24T02:56:50Z</time>
      </trkpt>
      <trkpt lat="43.214530" lon="-5.668600">
        <ele>561.333</ele>
        <time>2020-05-24T02:57:10Z</time>
      </trkpt>
      <trkpt lat="43.214610" lon="-5.668430">
        <ele>563.223</ele>
        <time>2020-05-24T02:57:30Z</time>
      </trkpt>
      <trkpt lat="43.214680" lon="-5.668260">
        <ele>565.215</ele>
        <time>2020-05-24T02:57:50Z</time>
      </trkpt>
      <trkpt lat="43.214700" lon="-5.668170">
        <ele>565.608</ele>
        <time>2020-05-24T02:58:10Z</time>
      </trkpt>
      <trkpt lat="43.214730" lon="-5.668060">
        <ele>566.277</ele>
        <time>2020-05-24T02:58:30Z</time>
      </trkpt>
      <trkpt lat="43.214750" lon="-5.667970">
        <ele>567.022</ele>
        <time>2020-05-24T02:58:50Z</time>
      </trkpt>
      <trkpt lat="43.214760" lon="-5.667880">
        <ele>567.599</ele>
        <time>2020-05-24T02:59:10Z</time>
      </trkpt>
      <trkpt lat="43.214760" lon="-5.667820">
        <ele>567.645</ele>
        <time>2020-05-24T02:59:30Z</time>
      </trkpt>
      <trkpt lat="43.214760" lon="-5.667730">
        <ele>568.014</ele>
        <time>2020-05-24T02:59:50Z</time>
      </trkpt>
      <trkpt lat="43.214760" lon="-5.667560">
        <ele>569.135</ele>
        <time>2020-05-24T03:00:10Z</time>
      </trkpt>
      <trkpt lat="43.214750" lon="-5.667450">
        <ele>569.814</ele>
        <time>2020-05-24T03:00:30Z</time>
      </trkpt>
      <trkpt lat="43.214740" lon="-5.667330">
        <ele>570.627</ele>
        <time>2020-05-24T03:00:50Z</time>
      </trkpt>
      <trkpt lat="43.214730" lon="-5.667260">
        <ele>570.953</ele>
        <time>2020-05-24T03:01:10Z</time>
      </trkpt>
      <trkpt lat="43.214730" lon="-5.667090">
        <ele>572.104</ele>
        <time>2020-05-24T03:01:30Z</time>
      </trkpt>
      <trkpt lat="43.214730" lon="-5.667040">
        <ele>572.514</ele>
        <time>2020-05-24T03:01:50Z</time>
      </trkpt>
      <trkpt lat="43.214740" lon="-5.666830">
        <ele>574.708</ele>
        <time>2020-05-24T03:02:10Z</time>
      </trkpt>
      <trkpt lat="43.214730" lon="-5.666760">
        <ele>575.299</ele>
        <time>2020-05-24T03:02:30Z</time>
      </trkpt>
      <trkpt lat="43.214710" lon="-5.666690">
        <ele>575.464</ele>
        <time>2020-05-24T03:02:50Z</time>
      </trkpt>
      <trkpt lat="43.214670" lon="-5.666620">
        <ele>575.341</ele>
        <time>2020-05-24T03:03:10Z</time>
      </trkpt>
      <trkpt lat="43.214670" lon="-5.666610">
        <ele>575.527</ele>
        <time>2020-05-24T03:03:30Z</time>
      </trkpt>
      <trkpt lat="43.214610" lon="-5.666530">
        <ele>575.576</ele>
        <time>2020-05-24T03:03:50Z</time>
      </trkpt>
      <trkpt lat="43.214480" lon="-5.666320">
        <ele>577.577</ele>
        <time>2020-05-24T03:04:10Z</time>
      </trkpt>
      <trkpt lat="43.214360" lon="-5.666050">
        <ele>579.656</ele>
        <time>2020-05-24T03:04:30Z</time>
      </trkpt>
      <trkpt lat="43.214310" lon="-5.665980">
        <ele>580.249</ele>
        <time>2020-05-24T03:04:50Z</time>
      </trkpt>
      <trkpt lat="43.214240" lon="-5.665900">
        <ele>580.752</ele>
        <time>2020-05-24T03:05:10Z</time>
      </trkpt>
      <trkpt lat="43.214210" lon="-5.665870">
        <ele>580.953</ele>
        <time>2020-05-24T03:05:30Z</time>
      </trkpt>
      <trkpt lat="43.214100" lon="-5.665770">
        <ele>581.308</ele>
        <time>2020-05-24T03:05:50Z</time>
      </trkpt>
      <trkpt lat="43.214060" lon="-5.665730">
        <ele>581.508</ele>
        <time>2020-05-24T03:06:10Z</time>
      </trkpt>
      <trkpt lat="43.214020" lon="-5.665680">
        <ele>581.949</ele>
        <time>2020-05-24T03:06:30Z</time>
      </trkpt>
      <trkpt lat="43.213970" lon="-5.665590">
        <ele>583.034</ele>
        <time>2020-05-24T03:06:50Z</time>
      </trkpt>
      <trkpt lat="43.213930" lon="-5.665470">
        <ele>583.791</ele>
        <time>2020-05-24T03:07:10Z</time>
      </trkpt>
      <trkpt lat="43.213910" lon="-5.665340">
        <ele>584.217</ele>
        <time>2020-05-24T03:07:30Z</time>
      </trkpt>
      <trkpt lat="43.213910" lon="-5.665190">
        <ele>584.376</ele>
        <time>2020-05-24T03:07:50Z</time>
      </trkpt>
      <trkpt lat="43.213920" lon="-5.665070">
        <ele>584.177</ele>
        <time>2020-05-24T03:08:10Z</time>
      </trkpt>
      <trkpt lat="43.213920" lon="-5.665060">
        <ele>584.186</ele>
        <time>2020-05-24T03:08:30Z</time>
      </trkpt>
      <trkpt lat="43.213940" lon="-5.664970">
        <ele>585.059</ele>
        <time>2020-05-24T03:08:50Z</time>
      </trkpt>
      <trkpt lat="43.213960" lon="-5.664890">
        <ele>586.391</ele>
        <time>2020-05-24T03:09:10Z</time>
      </trkpt>
      <trkpt lat="43.213990" lon="-5.664830">
        <ele>588.381</ele>
        <time>2020-05-24T03:09:30Z</time>
      </trkpt>
      <trkpt lat="43.214020" lon="-5.664760">
        <ele>590.419</ele>
        <time>2020-05-24T03:09:50Z</time>
      </trkpt>
      <trkpt lat="43.214020" lon="-5.664750">
        <ele>590.408</ele>
        <time>2020-05-24T03:10:10Z</time>
      </trkpt>
      <trkpt lat="43.214030" lon="-5.664700">
        <ele>591.593</ele>
        <time>2020-05-24T03:10:30Z</time>
      </trkpt>
      <trkpt lat="43.214030" lon="-5.664640">
        <ele>592.388</ele>
        <time>2020-05-24T03:10:50Z</time>
      </trkpt>
      <trkpt lat="43.214020" lon="-5.664590">
        <ele>592.545</ele>
        <time>2020-05-24T03:11:10Z</time>
      </trkpt>
      <trkpt lat="43.214010" lon="-5.664540">
        <ele>592.621</ele>
        <time>2020-05-24T03:11:30Z</time>
      </trkpt>
      <trkpt lat="43.213990" lon="-5.664490">
        <ele>592.450</ele>
        <time>2020-05-24T03:11:50Z</time>
      </trkpt>
      <trkpt lat="43.213950" lon="-5.664420">
        <ele>591.551</ele>
        <time>2020-05-24T03:12:10Z</time>
      </trkpt>
      <trkpt lat="43.213910" lon="-5.664350">
        <ele>591.070</ele>
        <time>2020-05-24T03:12:30Z</time>
      </trkpt>
      <trkpt lat="43.213900" lon="-5.664350">
        <ele>590.643</ele>
        <time>2020-05-24T03:12:50Z</time>
      </trkpt>
      <trkpt lat="43.213880" lon="-5.664290">
        <ele>590.933</ele>
        <time>2020-05-24T03:13:10Z</time>
      </trkpt>
      <trkpt lat="43.213870" lon="-5.664220">
        <ele>592.023</ele>
        <time>2020-05-24T03:13:30Z</time>
      </trkpt>
      <trkpt lat="43.213870" lon="-5.664170">
        <ele>593.015</ele>
        <time>2020-05-24T03:13:50Z</time>
      </trkpt>
      <trkpt lat="43.213870" lon="-5.664100">
        <ele>592.708</ele>
        <time>2020-05-24T03:14:10Z</time>
      </trkpt>
      <trkpt lat="43.213880" lon="-5.664050">
        <ele>592.847</ele>
        <time>2020-05-24T03:14:30Z</time>
      </trkpt>
      <trkpt lat="43.213910" lon="-5.663970">
        <ele>593.542</ele>
        <time>2020-05-24T03:14:50Z</time>
      </trkpt>
      <trkpt lat="43.213950" lon="-5.663910">
        <ele>595.099</ele>
        <time>2020-05-24T03:15:10Z</time>
      </trkpt>
      <trkpt lat="43.213950" lon="-5.663900">
        <ele>594.935</ele>
        <time>2020-05-24T03:15:30Z</time>
      </trkpt>
      <trkpt lat="43.214000" lon="-5.663850">
        <ele>595.594</ele>
        <time>2020-05-24T03:15:50Z</time>
      </trkpt>
      <trkpt lat="43.214060" lon="-5.663790">
        <ele>595.765</ele>
        <time>2020-05-24T03:16:10Z</time>
      </trkpt>
      <trkpt lat="43.214100" lon="-5.663760">
        <ele>596.144</ele>
        <time>2020-05-24T03:16:30Z</time>
      </trkpt>
      <trkpt lat="43.214170" lon="-5.663700">
        <ele>596.387</ele>
        <time>2020-05-24T03:16:50Z</time>
      </trkpt>
      <trkpt lat="43.214440" lon="-5.663560">
        <ele>604.233</ele>
        <time>2020-05-24T03:17:10Z</time>
      </trkpt>
      <trkpt lat="43.214580" lon="-5.663440">
        <ele>603.123</ele>
        <time>2020-05-24T03:17:30Z</time>
      </trkpt>
      <trkpt lat="43.214590" lon="-5.663440">
        <ele>603.515</ele>
        <time>2020-05-24T03:17:50Z</time>
      </trkpt>
      <trkpt lat="43.214690" lon="-5.663400">
        <ele>604.708</ele>
        <time>2020-05-24T03:18:10Z</time>
      </trkpt>
      <trkpt lat="43.214760" lon="-5.663370">
        <ele>604.987</ele>
        <time>2020-05-24T03:18:30Z</time>
      </trkpt>
      <trkpt lat="43.214890" lon="-5.663330">
        <ele>605.592</ele>
        <time>2020-05-24T03:18:50Z</time>
      </trkpt>
      <trkpt lat="43.214930" lon="-5.663310">
        <ele>605.729</ele>
        <time>2020-05-24T03:19:10Z</time>
      </trkpt>
      <trkpt lat="43.215040" lon="-5.663280">
        <ele>608.245</ele>
        <time>2020-05-24T03:19:30Z</time>
      </trkpt>
      <trkpt lat="43.215100" lon="-5.663240">
        <ele>609.854</ele>
        <time>2020-05-24T03:19:50Z</time>
      </trkpt>
      <trkpt lat="43.215160" lon="-5.663200">
        <ele>611.225</ele>
        <time>2020-05-24T03:20:10Z</time>
      </trkpt>
      <trkpt lat="43.215260" lon="-5.663120">
        <ele>612.884</ele>
        <time>2020-05-24T03:20:30Z</time>
      </trkpt>
      <trkpt lat="43.215270" lon="-5.663120">
        <ele>613.247</ele>
        <time>2020-05-24T03:20:50Z</time>
      </trkpt>
      <trkpt lat="43.215300" lon="-5.663090">
        <ele>614.183</ele>
        <time>2020-05-24T03:21:10Z</time>
      </trkpt>
      <trkpt lat="43.215320" lon="-5.663070">
        <ele>614.925</ele>
        <time>2020-05-24T03:21:30Z</time>
      </trkpt>
      <trkpt lat="43.215330" lon="-5.663050">
        <ele>615.117</ele>
        <time>2020-05-24T03:21:50Z</time>
      </trkpt>
      <trkpt lat="43.215340" lon="-5.663020">
        <ele>615.508</ele>
        <time>2020-05-24T03:22:10Z</time>
      </trkpt>
      <trkpt lat="43.215340" lon="-5.663000">
        <ele>615.222</ele>
        <time>2020-05-24T03:22:30Z</time>
      </trkpt>
      <trkpt lat="43.215340" lon="-5.662980">
        <ele>615.087</ele>
        <time>2020-05-24T03:22:50Z</time>
      </trkpt>
      <trkpt lat="43.215340" lon="-5.662910">
        <ele>614.114</ele>
        <time>2020-05-24T03:23:10Z</time>
      </trkpt>
      <trkpt lat="43.215340" lon="-5.662870">
        <ele>613.510</ele>
        <time>2020-05-24T03:23:30Z</time>
      </trkpt>
      <trkpt lat="43.215350" lon="-5.662780">
        <ele>612.919</ele>
        <time>2020-05-24T03:23:50Z</time>
      </trkpt>
      <trkpt lat="43.215360" lon="-5.662720">
        <ele>612.550</ele>
        <time>2020-05-24T03:24:10Z</time>
      </trkpt>
      <trkpt lat="43.215380" lon="-5.662670">
        <ele>612.859</ele>
        <time>2020-05-24T03:24:30Z</time>
      </trkpt>
      <trkpt lat="43.215410" lon="-5.662570">
        <ele>612.882</ele>
        <time>2020-05-24T03:24:50Z</time>
      </trkpt>
      <trkpt lat="43.215440" lon="-5.662520">
        <ele>613.532</ele>
        <time>2020-05-24T03:25:10Z</time>
      </trkpt>
      <trkpt lat="43.215470" lon="-5.662480">
        <ele>614.192</ele>
        <time>2020-05-24T03:25:30Z</time>
      </trkpt>
      <trkpt lat="43.215480" lon="-5.662470">
        <ele>614.311</ele>
        <time>2020-05-24T03:25:50Z</time>
      </trkpt>
      <trkpt lat="43.215580" lon="-5.662340">
        <ele>615.108</ele>
        <time>2020-05-24T03:26:10Z</time>
      </trkpt>
      <trkpt lat="43.215600" lon="-5.662320">
        <ele>615.647</ele>
        <time>2020-05-24T03:26:30Z</time>
      </trkpt>
      <trkpt lat="43.215750" lon="-5.662170">
        <ele>619.712</ele>
        <time>2020-05-24T03:26:50Z</time>
      </trkpt>
      <trkpt lat="43.215890" lon="-5.662020">
        <ele>622.849</ele>
        <time>2020-05-24T03:27:10Z</time>
      </trkpt>
      <trkpt lat="43.215940" lon="-5.661970">
        <ele>624.355</ele>
        <time>2020-05-24T03:27:30Z</time>
      </trkpt>
      <trkpt lat="43.215990" lon="-5.661910">
        <ele>625.824</ele>
        <time>2020-05-24T03:27:50Z</time>
      </trkpt>
      <trkpt lat="43.216020" lon="-5.661850">
        <ele>626.155</ele>
        <time>2020-05-24T03:28:10Z</time>
      </trkpt>
      <trkpt lat="43.216040" lon="-5.661820">
        <ele>626.514</ele>
        <time>2020-05-24T03:28:30Z</time>
      </trkpt>
      <trkpt lat="43.216060" lon="-5.661760">
        <ele>626.037</ele>
        <time>2020-05-24T03:28:50Z</time>
      </trkpt>
      <trkpt lat="43.216080" lon="-5.661680">
        <ele>624.914</ele>
        <time>2020-05-24T03:29:10Z</time>
      </trkpt>
      <trkpt lat="43.216090" lon="-5.661620">
        <ele>625.054</ele>
        <time>2020-05-24T03:29:30Z</time>
      </trkpt>
      <trkpt lat="43.216120" lon="-5.661460">
        <ele>626.609</ele>
        <time>2020-05-24T03:29:50Z</time>
      </trkpt>
      <trkpt lat="43.216170" lon="-5.661210">
        <ele>628.208</ele>
        <time>2020-05-24T03:30:10Z</time>
      </trkpt>
      <trkpt lat="43.216180" lon="-5.661140">
        <ele>628.255</ele>
        <time>2020-05-24T03:30:30Z</time>
      </trkpt>
      <trkpt lat="43.216180" lon="-5.661110">
        <ele>628.040</ele>
        <time>2020-05-24T03:30:50Z</time>
      </trkpt>
      <trkpt lat="43.216180" lon="-5.661040">
        <ele>628.657</ele>
        <time>2020-05-24T03:31:10Z</time>
      </trkpt>
      <trkpt lat="43.216170" lon="-5.660960">
        <ele>628.833</ele>
        <time>2020-05-24T03:31:30Z</time>
      </trkpt>
      <trkpt lat="43.216160" lon="-5.660850">
        <ele>629.442</ele>
        <time>2020-05-24T03:31:50Z</time>
      </trkpt>
      <trkpt lat="43.216160" lon="-5.660740">
        <ele>629.573</ele>
        <time>2020-05-24T03:32:10Z</time>
      </trkpt>
      <trkpt lat="43.216170" lon="-5.660710">
        <ele>629.722</ele>
        <time>2020-05-24T03:32:30Z</time>
      </trkpt>
      <trkpt lat="43.216170" lon="-5.660680">
        <ele>629.735</ele>
        <time>2020-05-24T03:32:50Z</time>
      </trkpt>
      <trkpt lat="43.216210" lon="-5.660600">
        <ele>630.698</ele>
        <time>2020-05-24T03:33:10Z</time>
      </trkpt>
      <trkpt lat="43.216250" lon="-5.660550">
        <ele>631.415</ele>
        <time>2020-05-24T03:33:30Z</time>
      </trkpt>
      <trkpt lat="43.216280" lon="-5.660530">
        <ele>631.926</ele>
        <time>2020-05-24T03:33:50Z</time>
      </trkpt>
      <trkpt lat="43.216290" lon="-5.660520">
        <ele>632.008</ele>
        <time>2020-05-24T03:34:10Z</time>
      </trkpt>
      <trkpt lat="43.216440" lon="-5.660410">
        <ele>633.913</ele>
        <time>2020-05-24T03:34:30Z</time>
      </trkpt>
      <trkpt lat="43.216580" lon="-5.660340">
        <ele>635.918</ele>
        <time>2020-05-24T03:34:50Z</time>
      </trkpt>
      <trkpt lat="43.216770" lon="-5.660220">
        <ele>639.145</ele>
        <time>2020-05-24T03:35:10Z</time>
      </trkpt>
      <trkpt lat="43.216840" lon="-5.660170">
        <ele>640.491</ele>
        <time>2020-05-24T03:35:30Z</time>
      </trkpt>
      <trkpt lat="43.216890" lon="-5.660110">
        <ele>640.960</ele>
        <time>2020-05-24T03:35:50Z</time>
      </trkpt>
      <trkpt lat="43.216920" lon="-5.660070">
        <ele>641.221</ele>
        <time>2020-05-24T03:36:10Z</time>
      </trkpt>
      <trkpt lat="43.216940" lon="-5.660050">
        <ele>641.470</ele>
        <time>2020-05-24T03:36:30Z</time>
      </trkpt>
      <trkpt lat="43.216990" lon="-5.659980">
        <ele>642.343</ele>
        <time>2020-05-24T03:36:50Z</time>
      </trkpt>
      <trkpt lat="43.217050" lon="-5.659890">
        <ele>643.796</ele>
        <time>2020-05-24T03:37:10Z</time>
      </trkpt>
      <trkpt lat="43.217070" lon="-5.659850">
        <ele>644.131</ele>
        <time>2020-05-24T03:37:30Z</time>
      </trkpt>
      <trkpt lat="43.217100" lon="-5.659810">
        <ele>644.724</ele>
        <time>2020-05-24T03:37:50Z</time>
      </trkpt>
      <trkpt lat="43.217110" lon="-5.659780">
        <ele>644.808</ele>
        <time>2020-05-24T03:38:10Z</time>
      </trkpt>
      <trkpt lat="43.217120" lon="-5.659760">
        <ele>645.083</ele>
        <time>2020-05-24T03:38:30Z</time>
      </trkpt>
      <trkpt lat="43.217130" lon="-5.659730">
        <ele>645.038</ele>
        <time>2020-05-24T03:38:50Z</time>
      </trkpt>
      <trkpt lat="43.217140" lon="-5.659690">
        <ele>645.455</ele>
        <time>2020-05-24T03:39:10Z</time>
      </trkpt>
      <trkpt lat="43.217140" lon="-5.659630">
        <ele>645.751</ele>
        <time>2020-05-24T03:39:30Z</time>
      </trkpt>
      <trkpt lat="43.217130" lon="-5.659560">
        <ele>645.870</ele>
        <time>2020-05-24T03:39:50Z</time>
      </trkpt>
      <trkpt lat="43.217130" lon="-5.659450">
        <ele>646.351</ele>
        <time>2020-05-24T03:40:10Z</time>
      </trkpt>
      <trkpt lat="43.217130" lon="-5.659440">
        <ele>646.320</ele>
        <time>2020-05-24T03:40:30Z</time>
      </trkpt>
      <trkpt lat="43.217150" lon="-5.659310">
        <ele>647.293</ele>
        <time>2020-05-24T03:40:50Z</time>
      </trkpt>
      <trkpt lat="43.217160" lon="-5.659240">
        <ele>647.686</ele>
        <time>2020-05-24T03:41:10Z</time>
      </trkpt>
      <trkpt lat="43.217170" lon="-5.659210">
        <ele>648.060</ele>
        <time>2020-05-24T03:41:30Z</time>
      </trkpt>
      <trkpt lat="43.217190" lon="-5.659160">
        <ele>649.026</ele>
        <time>2020-05-24T03:41:50Z</time>
      </trkpt>
      <trkpt lat="43.217190" lon="-5.659120">
        <ele>649.708</ele>
        <time>2020-05-24T03:42:10Z</time>
      </trkpt>
      <trkpt lat="43.217190" lon="-5.659080">
        <ele>650.442</ele>
        <time>2020-05-24T03:42:30Z</time>
      </trkpt>
      <trkpt lat="43.217190" lon="-5.659050">
        <ele>651.017</ele>
        <time>2020-05-24T03:42:50Z</time>
      </trkpt>
      <trkpt lat="43.217180" lon="-5.659010">
        <ele>651.484</ele>
        <time>2020-05-24T03:43:10Z</time>
      </trkpt>
      <trkpt lat="43.217170" lon="-5.658980">
        <ele>651.660</ele>
        <time>2020-05-24T03:43:30Z</time>
      </trkpt>
      <trkpt lat="43.217160" lon="-5.658950">
        <ele>651.849</ele>
        <time>2020-05-24T03:43:50Z</time>
      </trkpt>
      <trkpt lat="43.217140" lon="-5.658920">
        <ele>651.760</ele>
        <time>2020-05-24T03:44:10Z</time>
      </trkpt>
      <trkpt lat="43.217110" lon="-5.658880">
        <ele>651.649</ele>
        <time>2020-05-24T03:44:30Z</time>
      </trkpt>
      <trkpt lat="43.217080" lon="-5.658850">
        <ele>651.452</ele>
        <time>2020-05-24T03:44:50Z</time>
      </trkpt>
      <trkpt lat="43.217050" lon="-5.658820">
        <ele>651.299</ele>
        <time>2020-05-24T03:45:10Z</time>
      </trkpt>
      <trkpt lat="43.216960" lon="-5.658750">
        <ele>650.407</ele>
        <time>2020-05-24T03:45:30Z</time>
      </trkpt>
      <trkpt lat="43.216850" lon="-5.658660">
        <ele>650.827</ele>
        <time>2020-05-24T03:45:50Z</time>
      </trkpt>
      <trkpt lat="43.216800" lon="-5.658610">
        <ele>651.408</ele>
        <time>2020-05-24T03:46:10Z</time>
      </trkpt>
      <trkpt lat="43.216770" lon="-5.658570">
        <ele>651.413</ele>
        <time>2020-05-24T03:46:30Z</time>
      </trkpt>
      <trkpt lat="43.216750" lon="-5.658530">
        <ele>651.588</ele>
        <time>2020-05-24T03:46:50Z</time>
      </trkpt>
      <trkpt lat="43.216740" lon="-5.658520">
        <ele>651.485</ele>
        <time>2020-05-24T03:47:10Z</time>
      </trkpt>
      <trkpt lat="43.216740" lon="-5.658490">
        <ele>651.731</ele>
        <time>2020-05-24T03:47:30Z</time>
      </trkpt>
      <trkpt lat="43.216740" lon="-5.658440">
        <ele>652.320</ele>
        <time>2020-05-24T03:47:50Z</time>
      </trkpt>
      <trkpt lat="43.216750" lon="-5.658390">
        <ele>653.151</ele>
        <time>2020-05-24T03:48:10Z</time>
      </trkpt>
      <trkpt lat="43.216760" lon="-5.658340">
        <ele>653.990</ele>
        <time>2020-05-24T03:48:30Z</time>
      </trkpt>
      <trkpt lat="43.216810" lon="-5.658240">
        <ele>654.673</ele>
        <time>2020-05-24T03:48:50Z</time>
      </trkpt>
      <trkpt lat="43.216860" lon="-5.658160">
        <ele>655.669</ele>
        <time>2020-05-24T03:49:10Z</time>
      </trkpt>
      <trkpt lat="43.216920" lon="-5.658100">
        <ele>657.204</ele>
        <time>2020-05-24T03:49:30Z</time>
      </trkpt>
      <trkpt lat="43.216930" lon="-5.658070">
        <ele>657.524</ele>
        <time>2020-05-24T03:49:50Z</time>
      </trkpt>
      <trkpt lat="43.216950" lon="-5.658030">
        <ele>658.308</ele>
        <time>2020-05-24T03:50:10Z</time>
      </trkpt>
      <trkpt lat="43.216970" lon="-5.657970">
        <ele>659.490</ele>
        <time>2020-05-24T03:50:30Z</time>
      </trkpt>
      <trkpt lat="43.216980" lon="-5.657910">
        <ele>660.135</ele>
        <time>2020-05-24T03:50:50Z</time>
      </trkpt>
      <trkpt lat="43.216990" lon="-5.657860">
        <ele>660.742</ele>
        <time>2020-05-24T03:51:10Z</time>
      </trkpt>
      <trkpt lat="43.216990" lon="-5.657790">
        <ele>661.118</ele>
        <time>2020-05-24T03:51:30Z</time>
      </trkpt>
      <trkpt lat="43.216990" lon="-5.657640">
        <ele>662.037</ele>
        <time>2020-05-24T03:51:50Z</time>
      </trkpt>
      <trkpt lat="43.216980" lon="-5.657530">
        <ele>662.348</ele>
        <time>2020-05-24T03:52:10Z</time>
      </trkpt>
      <trkpt lat="43.216980" lon="-5.657480">
        <ele>662.947</ele>
        <time>2020-05-24T03:52:30Z</time>
      </trkpt>
      <trkpt lat="43.216970" lon="-5.657400">
        <ele>664.220</ele>
        <time>2020-05-24T03:52:50Z</time>
      </trkpt>
      <trkpt lat="43.216970" lon="-5.657370">
        <ele>664.834</ele>
        <time>2020-05-24T03:53:10Z</time>
      </trkpt>
      <trkpt lat="43.216960" lon="-5.657350">
        <ele>664.855</ele>
        <time>2020-05-24T03:53:30Z</time>
      </trkpt>
      <trkpt lat="43.216950" lon="-5.657330">
        <ele>664.910</ele>
        <time>2020-05-24T03:53:50Z</time>
      </trkpt>
      <trkpt lat="43.216940" lon="-5.657310">
        <ele>665.008</ele>
        <time>2020-05-24T03:54:10Z</time>
      </trkpt>
      <trkpt lat="43.216930" lon="-5.657290">
        <ele>665.197</ele>
        <time>2020-05-24T03:54:30Z</time>
      </trkpt>
      <trkpt lat="43.216910" lon="-5.657270">
        <ele>665.062</ele>
        <time>2020-05-24T03:54:50Z</time>
      </trkpt>
      <trkpt lat="43.216910" lon="-5.657260">
        <ele>665.389</ele>
        <time>2020-05-24T03:55:10Z</time>
      </trkpt>
      <trkpt lat="43.216820" lon="-5.657200">
        <ele>664.415</ele>
        <time>2020-05-24T03:55:30Z</time>
      </trkpt>
      <trkpt lat="43.216720" lon="-5.657130">
        <ele>663.624</ele>
        <time>2020-05-24T03:55:50Z</time>
      </trkpt>
      <trkpt lat="43.216640" lon="-5.657060">
        <ele>663.275</ele>
        <time>2020-05-24T03:56:10Z</time>
      </trkpt>
      <trkpt lat="43.216590" lon="-5.657000">
        <ele>663.174</ele>
        <time>2020-05-24T03:56:30Z</time>
      </trkpt>
      <trkpt lat="43.216550" lon="-5.656940">
        <ele>663.387</ele>
        <time>2020-05-24T03:56:50Z</time>
      </trkpt>
      <trkpt lat="43.216530" lon="-5.656880">
        <ele>663.649</ele>
        <time>2020-05-24T03:57:10Z</time>
      </trkpt>
      <trkpt lat="43.216530" lon="-5.656830">
        <ele>664.402</ele>
        <time>2020-05-24T03:57:30Z</time>
      </trkpt>
      <trkpt lat="43.216520" lon="-5.656800">
        <ele>664.622</ele>
        <time>2020-05-24T03:57:50Z</time>
      </trkpt>
      <trkpt lat="43.216520" lon="-5.656790">
        <ele>664.708</ele>
        <time>2020-05-24T03:58:10Z</time>
      </trkpt>
      <trkpt lat="43.216520" lon="-5.656740">
        <ele>665.518</ele>
        <time>2020-05-24T03:58:30Z</time>
      </trkpt>
      <trkpt lat="43.216520" lon="-5.656700">
        <ele>666.213</ele>
        <time>2020-05-24T03:58:50Z</time>
      </trkpt>
      <trkpt lat="43.216520" lon="-5.656650">
        <ele>666.750</ele>
        <time>2020-05-24T03:59:10Z</time>
      </trkpt>
      <trkpt lat="43.216530" lon="-5.656600">
        <ele>667.216</ele>
        <time>2020-05-24T03:59:30Z</time>
      </trkpt>
      <trkpt lat="43.216540" lon="-5.656550">
        <ele>667.765</ele>
        <time>2020-05-24T03:59:50Z</time>
      </trkpt>
      <trkpt lat="43.216560" lon="-5.656500">
        <ele>668.526</ele>
        <time>2020-05-24T04:00:10Z</time>
      </trkpt>
      <trkpt lat="43.216640" lon="-5.656360">
        <ele>671.665</ele>
        <time>2020-05-24T04:00:30Z</time>
      </trkpt>
      <trkpt lat="43.216760" lon="-5.656160">
        <ele>673.868</ele>
        <time>2020-05-24T04:00:50Z</time>
      </trkpt>
      <trkpt lat="43.216790" lon="-5.656110">
        <ele>674.466</ele>
        <time>2020-05-24T04:01:10Z</time>
      </trkpt>
      <trkpt lat="43.216820" lon="-5.656040">
        <ele>675.429</ele>
        <time>2020-05-24T04:01:30Z</time>
      </trkpt>
      <trkpt lat="43.216860" lon="-5.655920">
        <ele>676.821</ele>
        <time>2020-05-24T04:01:50Z</time>
      </trkpt>
      <trkpt lat="43.216890" lon="-5.655820">
        <ele>678.008</ele>
        <time>2020-05-24T04:02:10Z</time>
      </trkpt>
      <trkpt lat="43.216890" lon="-5.655760">
        <ele>678.560</ele>
        <time>2020-05-24T04:02:30Z</time>
      </trkpt>
      <trkpt lat="43.216900" lon="-5.655710">
        <ele>679.325</ele>
        <time>2020-05-24T04:02:50Z</time>
      </trkpt>
      <trkpt lat="43.216900" lon="-5.655690">
        <ele>679.432</ele>
        <time>2020-05-24T04:03:10Z</time>
      </trkpt>
      <trkpt lat="43.216890" lon="-5.655620">
        <ele>679.778</ele>
        <time>2020-05-24T04:03:30Z</time>
      </trkpt>
      <trkpt lat="43.216880" lon="-5.655540">
        <ele>680.597</ele>
        <time>2020-05-24T04:03:50Z</time>
      </trkpt>
      <trkpt lat="43.216860" lon="-5.655480">
        <ele>682.118</ele>
        <time>2020-05-24T04:04:10Z</time>
      </trkpt>
      <trkpt lat="43.216820" lon="-5.655430">
        <ele>682.567</ele>
        <time>2020-05-24T04:04:30Z</time>
      </trkpt>
      <trkpt lat="43.216770" lon="-5.655370">
        <ele>682.990</ele>
        <time>2020-05-24T04:04:50Z</time>
      </trkpt>
      <trkpt lat="43.216690" lon="-5.655290">
        <ele>682.562</ele>
        <time>2020-05-24T04:05:10Z</time>
      </trkpt>
      <trkpt lat="43.216570" lon="-5.655180">
        <ele>681.583</ele>
        <time>2020-05-24T04:05:30Z</time>
      </trkpt>
      <trkpt lat="43.216530" lon="-5.655150">
        <ele>681.011</ele>
        <time>2020-05-24T04:05:50Z</time>
      </trkpt>
      <trkpt lat="43.216420" lon="-5.655010">
        <ele>681.808</ele>
        <time>2020-05-24T04:06:10Z</time>
      </trkpt>
      <trkpt lat="43.216380" lon="-5.654960">
        <ele>681.430</ele>
        <time>2020-05-24T04:06:30Z</time>
      </trkpt>
      <trkpt lat="43.216350" lon="-5.654920">
        <ele>681.055</ele>
        <time>2020-05-24T04:06:50Z</time>
      </trkpt>
      <trkpt lat="43.216340" lon="-5.654880">
        <ele>681.312</ele>
        <time>2020-05-24T04:07:10Z</time>
      </trkpt>
      <trkpt lat="43.216330" lon="-5.654830">
        <ele>681.858</ele>
        <time>2020-05-24T04:07:30Z</time>
      </trkpt>
      <trkpt lat="43.216320" lon="-5.654790">
        <ele>682.157</ele>
        <time>2020-05-24T04:07:50Z</time>
      </trkpt>
      <trkpt lat="43.216330" lon="-5.654750">
        <ele>683.288</ele>
        <time>2020-05-24T04:08:10Z</time>
      </trkpt>
      <trkpt lat="43.216330" lon="-5.654710">
        <ele>683.737</ele>
        <time>2020-05-24T04:08:30Z</time>
      </trkpt>
      <trkpt lat="43.216330" lon="-5.654670">
        <ele>683.640</ele>
        <time>2020-05-24T04:08:50Z</time>
      </trkpt>
      <trkpt lat="43.216350" lon="-5.654610">
        <ele>684.446</ele>
        <time>2020-05-24T04:09:10Z</time>
      </trkpt>
      <trkpt lat="43.216350" lon="-5.654580">
        <ele>684.488</ele>
        <time>2020-05-24T04:09:30Z</time>
      </trkpt>
      <trkpt lat="43.216360" lon="-5.654570">
        <ele>684.816</ele>
        <time>2020-05-24T04:09:50Z</time>
      </trkpt>
      <trkpt lat="43.216370" lon="-5.654510">
        <ele>685.208</ele>
        <time>2020-05-24T04:10:10Z</time>
      </trkpt>
      <trkpt lat="43.216400" lon="-5.654460">
        <ele>686.498</ele>
        <time>2020-05-24T04:10:30Z</time>
      </trkpt>
      <trkpt lat="43.216430" lon="-5.654400">
        <ele>686.223</ele>
        <time>2020-05-24T04:10:50Z</time>
      </trkpt>
      <trkpt lat="43.216440" lon="-5.654370">
        <ele>685.770</ele>
        <time>2020-05-24T04:11:10Z</time>
      </trkpt>
      <trkpt lat="43.216450" lon="-5.654370">
        <ele>686.056</ele>
        <time>2020-05-24T04:11:30Z</time>
      </trkpt>
      <trkpt lat="43.216480" lon="-5.654340">
        <ele>686.155</ele>
        <time>2020-05-24T04:11:50Z</time>
      </trkpt>
      <trkpt lat="43.216520" lon="-5.654310">
        <ele>686.486</ele>
        <time>2020-05-24T04:12:10Z</time>
      </trkpt>
      <trkpt lat="43.216580" lon="-5.654290">
        <ele>687.525</ele>
        <time>2020-05-24T04:12:30Z</time>
      </trkpt>
      <trkpt lat="43.216610" lon="-5.654280">
        <ele>688.178</ele>
        <time>2020-05-24T04:12:50Z</time>
      </trkpt>
      <trkpt lat="43.216670" lon="-5.654270">
        <ele>689.468</ele>
        <time>2020-05-24T04:13:10Z</time>
      </trkpt>
      <trkpt lat="43.216870" lon="-5.654250">
        <ele>691.142</ele>
        <time>2020-05-24T04:13:30Z</time>
      </trkpt>
      <trkpt lat="43.216940" lon="-5.654250">
        <ele>691.926</ele>
        <time>2020-05-24T04:13:50Z</time>
      </trkpt>
      <trkpt lat="43.216970" lon="-5.654250">
        <ele>692.708</ele>
        <time>2020-05-24T04:14:10Z</time>
      </trkpt>
      <trkpt lat="43.217000" lon="-5.654250">
        <ele>693.590</ele>
        <time>2020-05-24T04:14:30Z</time>
      </trkpt>
      <trkpt lat="43.217060" lon="-5.654220">
        <ele>694.195</ele>
        <time>2020-05-24T04:14:50Z</time>
      </trkpt>
      <trkpt lat="43.217120" lon="-5.654180">
        <ele>694.522</ele>
        <time>2020-05-24T04:15:10Z</time>
      </trkpt>
      <trkpt lat="43.217180" lon="-5.654130">
        <ele>694.098</ele>
        <time>2020-05-24T04:15:30Z</time>
      </trkpt>
      <trkpt lat="43.217230" lon="-5.654100">
        <ele>694.017</ele>
        <time>2020-05-24T04:15:50Z</time>
      </trkpt>
      <trkpt lat="43.217270" lon="-5.654070">
        <ele>693.578</ele>
        <time>2020-05-24T04:16:10Z</time>
      </trkpt>
      <trkpt lat="43.217300" lon="-5.654060">
        <ele>693.737</ele>
        <time>2020-05-24T04:16:30Z</time>
      </trkpt>
      <trkpt lat="43.217320" lon="-5.654050">
        <ele>693.760</ele>
        <time>2020-05-24T04:16:50Z</time>
      </trkpt>
      <trkpt lat="43.217360" lon="-5.654040">
        <ele>694.091</ele>
        <time>2020-05-24T04:17:10Z</time>
      </trkpt>
      <trkpt lat="43.217400" lon="-5.654040">
        <ele>694.981</ele>
        <time>2020-05-24T04:17:30Z</time>
      </trkpt>
      <trkpt lat="43.217470" lon="-5.654030">
        <ele>696.019</ele>
        <time>2020-05-24T04:17:50Z</time>
      </trkpt>
      <trkpt lat="43.217540" lon="-5.654020">
        <ele>696.808</ele>
        <time>2020-05-24T04:18:10Z</time>
      </trkpt>
      <trkpt lat="43.217670" lon="-5.654020">
        <ele>698.973</ele>
        <time>2020-05-24T04:18:30Z</time>
      </trkpt>
      <trkpt lat="43.217830" lon="-5.654010">
        <ele>700.558</ele>
        <time>2020-05-24T04:18:50Z</time>
      </trkpt>
      <trkpt lat="43.217970" lon="-5.654030">
        <ele>701.825</ele>
        <time>2020-05-24T04:19:10Z</time>
      </trkpt>
      <trkpt lat="43.218120" lon="-5.654070">
        <ele>702.771</ele>
        <time>2020-05-24T04:19:30Z</time>
      </trkpt>
      <trkpt lat="43.218190" lon="-5.654100">
        <ele>703.080</ele>
        <time>2020-05-24T04:19:50Z</time>
      </trkpt>
      <trkpt lat="43.218290" lon="-5.654150">
        <ele>703.821</ele>
        <time>2020-05-24T04:20:10Z</time>
      </trkpt>
      <trkpt lat="43.218430" lon="-5.654220">
        <ele>704.550</ele>
        <time>2020-05-24T04:20:30Z</time>
      </trkpt>
      <trkpt lat="43.218520" lon="-5.654280">
        <ele>705.723</ele>
        <time>2020-05-24T04:20:50Z</time>
      </trkpt>
      <trkpt lat="43.218550" lon="-5.654300">
        <ele>706.126</ele>
        <time>2020-05-24T04:21:10Z</time>
      </trkpt>
      <trkpt lat="43.218630" lon="-5.654330">
        <ele>706.847</ele>
        <time>2020-05-24T04:21:30Z</time>
      </trkpt>
      <trkpt lat="43.218720" lon="-5.654340">
        <ele>707.711</ele>
        <time>2020-05-24T04:21:50Z</time>
      </trkpt>
      <trkpt lat="43.218800" lon="-5.654340">
        <ele>708.208</ele>
        <time>2020-05-24T04:22:10Z</time>
      </trkpt>
      <trkpt lat="43.218890" lon="-5.654340">
        <ele>708.766</ele>
        <time>2020-05-24T04:22:30Z</time>
      </trkpt>
      <trkpt lat="43.219050" lon="-5.654340">
        <ele>710.351</ele>
        <time>2020-05-24T04:22:50Z</time>
      </trkpt>
      <trkpt lat="43.219230" lon="-5.654350">
        <ele>713.038</ele>
        <time>2020-05-24T04:23:10Z</time>
      </trkpt>
      <trkpt lat="43.219250" lon="-5.654350">
        <ele>713.394</ele>
        <time>2020-05-24T04:23:30Z</time>
      </trkpt>
      <trkpt lat="43.219270" lon="-5.654350">
        <ele>713.713</ele>
        <time>2020-05-24T04:23:50Z</time>
      </trkpt>
      <trkpt lat="43.219280" lon="-5.654360">
        <ele>714.334</ele>
        <time>2020-05-24T04:24:10Z</time>
      </trkpt>
      <trkpt lat="43.219310" lon="-5.654390">
        <ele>716.183</ele>
        <time>2020-05-24T04:24:30Z</time>
      </trkpt>
      <trkpt lat="43.219310" lon="-5.654420">
        <ele>717.596</ele>
        <time>2020-05-24T04:24:50Z</time>
      </trkpt>
      <trkpt lat="43.219310" lon="-5.654440">
        <ele>718.487</ele>
        <time>2020-05-24T04:25:10Z</time>
      </trkpt>
      <trkpt lat="43.219300" lon="-5.654460">
        <ele>718.942</ele>
        <time>2020-05-24T04:25:30Z</time>
      </trkpt>
      <trkpt lat="43.219290" lon="-5.654480">
        <ele>719.326</ele>
        <time>2020-05-24T04:25:50Z</time>
      </trkpt>
      <trkpt lat="43.219270" lon="-5.654490">
        <ele>719.308</ele>
        <time>2020-05-24T04:26:10Z</time>
      </trkpt>
      <trkpt lat="43.219260" lon="-5.654500">
        <ele>719.442</ele>
        <time>2020-05-24T04:26:30Z</time>
      </trkpt>
      <trkpt lat="43.219170" lon="-5.654530">
        <ele>718.887</ele>
        <time>2020-05-24T04:26:50Z</time>
      </trkpt>
      <trkpt lat="43.219090" lon="-5.654550">
        <ele>719.034</ele>
        <time>2020-05-24T04:27:10Z</time>
      </trkpt>
      <trkpt lat="43.218880" lon="-5.654600">
        <ele>719.650</ele>
        <time>2020-05-24T04:27:30Z</time>
      </trkpt>
      <trkpt lat="43.218730" lon="-5.654660">
        <ele>721.579</ele>
        <time>2020-05-24T04:27:50Z</time>
      </trkpt>
      <trkpt lat="43.218580" lon="-5.654690">
        <ele>722.870</ele>
        <time>2020-05-24T04:28:10Z</time>
      </trkpt>
      <trkpt lat="43.218210" lon="-5.654740">
        <ele>726.929</ele>
        <time>2020-05-24T04:28:30Z</time>
      </trkpt>
      <trkpt lat="43.218130" lon="-5.654760">
        <ele>727.782</ele>
        <time>2020-05-24T04:28:50Z</time>
      </trkpt>
      <trkpt lat="43.218080" lon="-5.654780">
        <ele>728.267</ele>
        <time>2020-05-24T04:29:10Z</time>
      </trkpt>
      <trkpt lat="43.218040" lon="-5.654810">
        <ele>728.781</ele>
        <time>2020-05-24T04:29:30Z</time>
      </trkpt>
      <trkpt lat="43.218020" lon="-5.654830">
        <ele>728.919</ele>
        <time>2020-05-24T04:29:50Z</time>
      </trkpt>
      <trkpt lat="43.217980" lon="-5.654860">
        <ele>729.008</ele>
        <time>2020-05-24T04:30:10Z</time>
      </trkpt>
      <trkpt lat="43.217960" lon="-5.654890">
        <ele>729.460</ele>
        <time>2020-05-24T04:30:30Z</time>
      </trkpt>
      <trkpt lat="43.217950" lon="-5.654920">
        <ele>729.955</ele>
        <time>2020-05-24T04:30:50Z</time>
      </trkpt>
      <trkpt lat="43.217950" lon="-5.654950">
        <ele>730.542</ele>
        <time>2020-05-24T04:31:10Z</time>
      </trkpt>
      <trkpt lat="43.217950" lon="-5.654980">
        <ele>731.128</ele>
        <time>2020-05-24T04:31:30Z</time>
      </trkpt>
      <trkpt lat="43.217950" lon="-5.655000">
        <ele>731.597</ele>
        <time>2020-05-24T04:31:50Z</time>
      </trkpt>
      <trkpt lat="43.217960" lon="-5.655000">
        <ele>731.618</ele>
        <time>2020-05-24T04:32:10Z</time>
      </trkpt>
      <trkpt lat="43.217960" lon="-5.655020">
        <ele>731.577</ele>
        <time>2020-05-24T04:32:30Z</time>
      </trkpt>
      <trkpt lat="43.217970" lon="-5.655040">
        <ele>731.580</ele>
        <time>2020-05-24T04:32:50Z</time>
      </trkpt>
      <trkpt lat="43.217990" lon="-5.655060">
        <ele>731.745</ele>
        <time>2020-05-24T04:33:10Z</time>
      </trkpt>
      <trkpt lat="43.218000" lon="-5.655070">
        <ele>731.847</ele>
        <time>2020-05-24T04:33:30Z</time>
      </trkpt>
      <trkpt lat="43.218010" lon="-5.655080">
        <ele>731.911</ele>
        <time>2020-05-24T04:33:50Z</time>
      </trkpt>
      <trkpt lat="43.218030" lon="-5.655090">
        <ele>732.208</ele>
        <time>2020-05-24T04:34:10Z</time>
      </trkpt>
      <trkpt lat="43.218050" lon="-5.655090">
        <ele>732.668</ele>
        <time>2020-05-24T04:34:30Z</time>
      </trkpt>
      <trkpt lat="43.218070" lon="-5.655100">
        <ele>732.863</ele>
        <time>2020-05-24T04:34:50Z</time>
      </trkpt>
      <trkpt lat="43.218090" lon="-5.655100">
        <ele>733.010</ele>
        <time>2020-05-24T04:35:10Z</time>
      </trkpt>
      <trkpt lat="43.218140" lon="-5.655090">
        <ele>733.566</ele>
        <time>2020-05-24T04:35:30Z</time>
      </trkpt>
      <trkpt lat="43.218280" lon="-5.655080">
        <ele>734.845</ele>
        <time>2020-05-24T04:35:50Z</time>
      </trkpt>
      <trkpt lat="43.218276" lon="-5.655077">
        <ele>734.856</ele>
        <time>2020-05-24T04:36:10Z</time>
      </trkpt>
      <trkpt lat="43.218280" lon="-5.655140">
        <ele>734.925</ele>
        <time>2020-05-24T04:36:30Z</time>
      </trkpt>
      <trkpt lat="43.218280" lon="-5.655200">
        <ele>735.168</ele>
        <time>2020-05-24T04:36:50Z</time>
      </trkpt>
      <trkpt lat="43.218290" lon="-5.655280">
        <ele>735.492</ele>
        <time>2020-05-24T04:37:10Z</time>
      </trkpt>
      <trkpt lat="43.218300" lon="-5.655320">
        <ele>735.573</ele>
        <time>2020-05-24T04:37:30Z</time>
      </trkpt>
      <trkpt lat="43.218310" lon="-5.655380">
        <ele>735.620</ele>
        <time>2020-05-24T04:37:50Z</time>
      </trkpt>
      <trkpt lat="43.218350" lon="-5.655490">
        <ele>736.508</ele>
        <time>2020-05-24T04:38:10Z</time>
      </trkpt>
      <trkpt lat="43.218380" lon="-5.655540">
        <ele>737.393</ele>
        <time>2020-05-24T04:38:30Z</time>
      </trkpt>
      <trkpt lat="43.218400" lon="-5.655580">
        <ele>737.688</ele>
        <time>2020-05-24T04:38:50Z</time>
      </trkpt>
      <trkpt lat="43.218460" lon="-5.655680">
        <ele>738.125</ele>
        <time>2020-05-24T04:39:10Z</time>
      </trkpt>
      <trkpt lat="43.218520" lon="-5.655770">
        <ele>738.871</ele>
        <time>2020-05-24T04:39:30Z</time>
      </trkpt>
      <trkpt lat="43.218640" lon="-5.655890">
        <ele>741.080</ele>
        <time>2020-05-24T04:39:50Z</time>
      </trkpt>
      <trkpt lat="43.218700" lon="-5.655960">
        <ele>742.011</ele>
        <time>2020-05-24T04:40:10Z</time>
      </trkpt>
      <trkpt lat="43.218740" lon="-5.656020">
        <ele>742.890</ele>
        <time>2020-05-24T04:40:30Z</time>
      </trkpt>
      <trkpt lat="43.218750" lon="-5.656060">
        <ele>742.653</ele>
        <time>2020-05-24T04:40:50Z</time>
      </trkpt>
      <trkpt lat="43.218760" lon="-5.656080">
        <ele>742.854</ele>
        <time>2020-05-24T04:41:10Z</time>
      </trkpt>
      <trkpt lat="43.218780" lon="-5.656130">
        <ele>743.256</ele>
        <time>2020-05-24T04:41:30Z</time>
      </trkpt>
      <trkpt lat="43.218790" lon="-5.656240">
        <ele>743.211</ele>
        <time>2020-05-24T04:41:50Z</time>
      </trkpt>
      <trkpt lat="43.218840" lon="-5.656440">
        <ele>744.708</ele>
        <time>2020-05-24T04:42:10Z</time>
      </trkpt>
      <trkpt lat="43.218890" lon="-5.656630">
        <ele>744.679</ele>
        <time>2020-05-24T04:42:30Z</time>
      </trkpt>
      <trkpt lat="43.218990" lon="-5.656910">
        <ele>747.194</ele>
        <time>2020-05-24T04:42:50Z</time>
      </trkpt>
      <trkpt lat="43.219010" lon="-5.656980">
        <ele>747.241</ele>
        <time>2020-05-24T04:43:10Z</time>
      </trkpt>
      <trkpt lat="43.219060" lon="-5.657100">
        <ele>747.567</ele>
        <time>2020-05-24T04:43:30Z</time>
      </trkpt>
      <trkpt lat="43.219090" lon="-5.657150">
        <ele>747.816</ele>
        <time>2020-05-24T04:43:50Z</time>
      </trkpt>
      <trkpt lat="43.219120" lon="-5.657180">
        <ele>748.317</ele>
        <time>2020-05-24T04:44:10Z</time>
      </trkpt>
      <trkpt lat="43.219170" lon="-5.657220">
        <ele>749.176</ele>
        <time>2020-05-24T04:44:30Z</time>
      </trkpt>
      <trkpt lat="43.219210" lon="-5.657260">
        <ele>749.269</ele>
        <time>2020-05-24T04:44:50Z</time>
      </trkpt>
      <trkpt lat="43.219270" lon="-5.657300">
        <ele>750.284</ele>
        <time>2020-05-24T04:45:10Z</time>
      </trkpt>
      <trkpt lat="43.219320" lon="-5.657350">
        <ele>750.807</ele>
        <time>2020-05-24T04:45:30Z</time>
      </trkpt>
      <trkpt lat="43.219370" lon="-5.657410">
        <ele>751.417</ele>
        <time>2020-05-24T04:45:50Z</time>
      </trkpt>
      <trkpt lat="43.219410" lon="-5.657460">
        <ele>752.208</ele>
        <time>2020-05-24T04:46:10Z</time>
      </trkpt>
      <trkpt lat="43.219430" lon="-5.657490">
        <ele>752.512</ele>
        <time>2020-05-24T04:46:30Z</time>
      </trkpt>
      <trkpt lat="43.219530" lon="-5.657650">
        <ele>753.887</ele>
        <time>2020-05-24T04:46:50Z</time>
      </trkpt>
      <trkpt lat="43.219580" lon="-5.657730">
        <ele>754.414</ele>
        <time>2020-05-24T04:47:10Z</time>
      </trkpt>
      <trkpt lat="43.219840" lon="-5.658100">
        <ele>757.830</ele>
        <time>2020-05-24T04:47:30Z</time>
      </trkpt>
      <trkpt lat="43.219900" lon="-5.658170">
        <ele>758.869</ele>
        <time>2020-05-24T04:47:50Z</time>
      </trkpt>
      <trkpt lat="43.220040" lon="-5.658330">
        <ele>761.610</ele>
        <time>2020-05-24T04:48:10Z</time>
      </trkpt>
      <trkpt lat="43.220070" lon="-5.658370">
        <ele>763.019</ele>
        <time>2020-05-24T04:48:30Z</time>
      </trkpt>
      <trkpt lat="43.220110" lon="-5.658420">
        <ele>765.062</ele>
        <time>2020-05-24T04:48:50Z</time>
      </trkpt>
      <trkpt lat="43.220120" lon="-5.658460">
        <ele>765.748</ele>
        <time>2020-05-24T04:49:10Z</time>
      </trkpt>
      <trkpt lat="43.220120" lon="-5.658520">
        <ele>766.161</ele>
        <time>2020-05-24T04:49:30Z</time>
      </trkpt>
      <trkpt lat="43.220120" lon="-5.658540">
        <ele>766.217</ele>
        <time>2020-05-24T04:49:50Z</time>
      </trkpt>
      <trkpt lat="43.220110" lon="-5.658620">
        <ele>766.508</ele>
        <time>2020-05-24T04:50:10Z</time>
      </trkpt>
      <trkpt lat="43.220100" lon="-5.658700">
        <ele>767.328</ele>
        <time>2020-05-24T04:50:30Z</time>
      </trkpt>
      <trkpt lat="43.220080" lon="-5.658780">
        <ele>767.573</ele>
        <time>2020-05-24T04:50:50Z</time>
      </trkpt>
      <trkpt lat="43.220070" lon="-5.658810">
        <ele>767.530</ele>
        <time>2020-05-24T04:51:10Z</time>
      </trkpt>
      <trkpt lat="43.220020" lon="-5.658990">
        <ele>767.536</ele>
        <time>2020-05-24T04:51:30Z</time>
      </trkpt>
      <trkpt lat="43.219970" lon="-5.659250">
        <ele>767.655</ele>
        <time>2020-05-24T04:51:50Z</time>
      </trkpt>
      <trkpt lat="43.219970" lon="-5.659260">
        <ele>767.656</ele>
        <time>2020-05-24T04:52:10Z</time>
      </trkpt>
      <trkpt lat="43.219970" lon="-5.659400">
        <ele>768.265</ele>
        <time>2020-05-24T04:52:30Z</time>
      </trkpt>
      <trkpt lat="43.219980" lon="-5.659490">
        <ele>769.098</ele>
        <time>2020-05-24T04:52:50Z</time>
      </trkpt>
      <trkpt lat="43.219980" lon="-5.659500">
        <ele>769.096</ele>
        <time>2020-05-24T04:53:10Z</time>
      </trkpt>
      <trkpt lat="43.220000" lon="-5.659600">
        <ele>770.031</ele>
        <time>2020-05-24T04:53:30Z</time>
      </trkpt>
      <trkpt lat="43.220040" lon="-5.659660">
        <ele>770.024</ele>
        <time>2020-05-24T04:53:50Z</time>
      </trkpt>
      <trkpt lat="43.220070" lon="-5.659680">
        <ele>769.908</ele>
        <time>2020-05-24T04:54:10Z</time>
      </trkpt>
      <trkpt lat="43.220080" lon="-5.659680">
        <ele>769.973</ele>
        <time>2020-05-24T04:54:30Z</time>
      </trkpt>
      <trkpt lat="43.220120" lon="-5.659700">
        <ele>769.538</ele>
        <time>2020-05-24T04:54:50Z</time>
      </trkpt>
      <trkpt lat="43.220210" lon="-5.659710">
        <ele>768.885</ele>
        <time>2020-05-24T04:55:10Z</time>
      </trkpt>
      <trkpt lat="43.220230" lon="-5.659710">
        <ele>768.751</ele>
        <time>2020-05-24T04:55:30Z</time>
      </trkpt>
      <trkpt lat="43.220320" lon="-5.659710">
        <ele>768.980</ele>
        <time>2020-05-24T04:55:50Z</time>
      </trkpt>
      <trkpt lat="43.220380" lon="-5.659730">
        <ele>768.871</ele>
        <time>2020-05-24T04:56:10Z</time>
      </trkpt>
      <trkpt lat="43.220400" lon="-5.659740">
        <ele>768.720</ele>
        <time>2020-05-24T04:56:30Z</time>
      </trkpt>
      <trkpt lat="43.220480" lon="-5.659750">
        <ele>769.163</ele>
        <time>2020-05-24T04:56:50Z</time>
      </trkpt>
      <trkpt lat="43.220560" lon="-5.659780">
        <ele>768.671</ele>
        <time>2020-05-24T04:57:10Z</time>
      </trkpt>
      <trkpt lat="43.220570" lon="-5.659790">
        <ele>768.341</ele>
        <time>2020-05-24T04:57:30Z</time>
      </trkpt>
      <trkpt lat="43.220670" lon="-5.659820">
        <ele>768.115</ele>
        <time>2020-05-24T04:57:50Z</time>
      </trkpt>
      <trkpt lat="43.220740" lon="-5.659820">
        <ele>768.908</ele>
        <time>2020-05-24T04:58:10Z</time>
      </trkpt>
      <trkpt lat="43.220790" lon="-5.659800">
        <ele>770.791</ele>
        <time>2020-05-24T04:58:30Z</time>
      </trkpt>
      <trkpt lat="43.220850" lon="-5.659770">
        <ele>772.826</ele>
        <time>2020-05-24T04:58:50Z</time>
      </trkpt>
      <trkpt lat="43.220900" lon="-5.659730">
        <ele>774.483</ele>
        <time>2020-05-24T04:59:10Z</time>
      </trkpt>
      <trkpt lat="43.221070" lon="-5.659610">
        <ele>775.629</ele>
        <time>2020-05-24T04:59:30Z</time>
      </trkpt>
      <trkpt lat="43.221190" lon="-5.659510">
        <ele>777.048</ele>
        <time>2020-05-24T04:59:50Z</time>
      </trkpt>
      <trkpt lat="43.221210" lon="-5.659480">
        <ele>777.679</ele>
        <time>2020-05-24T05:00:10Z</time>
      </trkpt>
      <trkpt lat="43.221250" lon="-5.659420">
        <ele>778.788</ele>
        <time>2020-05-24T05:00:30Z</time>
      </trkpt>
      <trkpt lat="43.221330" lon="-5.659290">
        <ele>780.341</ele>
        <time>2020-05-24T05:00:50Z</time>
      </trkpt>
      <trkpt lat="43.221400" lon="-5.659080">
        <ele>783.424</ele>
        <time>2020-05-24T05:01:10Z</time>
      </trkpt>
      <trkpt lat="43.221410" lon="-5.659070">
        <ele>783.104</ele>
        <time>2020-05-24T05:01:30Z</time>
      </trkpt>
      <trkpt lat="43.221490" lon="-5.658910">
        <ele>783.114</ele>
        <time>2020-05-24T05:01:50Z</time>
      </trkpt>
      <trkpt lat="43.221600" lon="-5.658800">
        <ele>782.408</ele>
        <time>2020-05-24T05:02:10Z</time>
      </trkpt>
      <trkpt lat="43.221770" lon="-5.658670">
        <ele>783.186</ele>
        <time>2020-05-24T05:02:30Z</time>
      </trkpt>
      <trkpt lat="43.221830" lon="-5.658630">
        <ele>783.631</ele>
        <time>2020-05-24T05:02:50Z</time>
      </trkpt>
      <trkpt lat="43.221880" lon="-5.658600">
        <ele>783.848</ele>
        <time>2020-05-24T05:03:10Z</time>
      </trkpt>
      <trkpt lat="43.221960" lon="-5.658560">
        <ele>784.044</ele>
        <time>2020-05-24T05:03:30Z</time>
      </trkpt>
      <trkpt lat="43.222090" lon="-5.658520">
        <ele>784.983</ele>
        <time>2020-05-24T05:03:50Z</time>
      </trkpt>
      <trkpt lat="43.222170" lon="-5.658490">
        <ele>785.644</ele>
        <time>2020-05-24T05:04:10Z</time>
      </trkpt>
      <trkpt lat="43.222290" lon="-5.658410">
        <ele>786.533</ele>
        <time>2020-05-24T05:04:30Z</time>
      </trkpt>
      <trkpt lat="43.222350" lon="-5.658350">
        <ele>787.296</ele>
        <time>2020-05-24T05:04:50Z</time>
      </trkpt>
      <trkpt lat="43.222420" lon="-5.658280">
        <ele>788.031</ele>
        <time>2020-05-24T05:05:10Z</time>
      </trkpt>
      <trkpt lat="43.222470" lon="-5.658220">
        <ele>788.961</ele>
        <time>2020-05-24T05:05:30Z</time>
      </trkpt>
      <trkpt lat="43.222500" lon="-5.658200">
        <ele>788.807</ele>
        <time>2020-05-24T05:05:50Z</time>
      </trkpt>
      <trkpt lat="43.222530" lon="-5.658150">
        <ele>791.208</ele>
        <time>2020-05-24T05:06:10Z</time>
      </trkpt>
      <trkpt lat="43.222560" lon="-5.658130">
        <ele>792.517</ele>
        <time>2020-05-24T05:06:30Z</time>
      </trkpt>
      <trkpt lat="43.222580" lon="-5.658120">
        <ele>793.212</ele>
        <time>2020-05-24T05:06:50Z</time>
      </trkpt>
      <trkpt lat="43.222620" lon="-5.658130">
        <ele>793.639</ele>
        <time>2020-05-24T05:07:10Z</time>
      </trkpt>
      <trkpt lat="43.222630" lon="-5.658130">
        <ele>793.895</ele>
        <time>2020-05-24T05:07:30Z</time>
      </trkpt>
      <trkpt lat="43.222650" lon="-5.658140">
        <ele>793.884</ele>
        <time>2020-05-24T05:07:50Z</time>
      </trkpt>
      <trkpt lat="43.222780" lon="-5.658260">
        <ele>792.485</ele>
        <time>2020-05-24T05:08:10Z</time>
      </trkpt>
      <trkpt lat="43.222850" lon="-5.658330">
        <ele>792.294</ele>
        <time>2020-05-24T05:08:30Z</time>
      </trkpt>
      <trkpt lat="43.222900" lon="-5.658380">
        <ele>791.747</ele>
        <time>2020-05-24T05:08:50Z</time>
      </trkpt>
      <trkpt lat="43.222930" lon="-5.658400">
        <ele>791.897</ele>
        <time>2020-05-24T05:09:10Z</time>
      </trkpt>
      <trkpt lat="43.222950" lon="-5.658420">
        <ele>791.623</ele>
        <time>2020-05-24T05:09:30Z</time>
      </trkpt>
      <trkpt lat="43.222990" lon="-5.658450">
        <ele>791.725</ele>
        <time>2020-05-24T05:09:50Z</time>
      </trkpt>
      <trkpt lat="43.223050" lon="-5.658480">
        <ele>792.508</ele>
        <time>2020-05-24T05:10:10Z</time>
      </trkpt>
      <trkpt lat="43.223120" lon="-5.658500">
        <ele>793.143</ele>
        <time>2020-05-24T05:10:30Z</time>
      </trkpt>
      <trkpt lat="43.223220" lon="-5.658520">
        <ele>794.038</ele>
        <time>2020-05-24T05:10:50Z</time>
      </trkpt>
      <trkpt lat="43.223320" lon="-5.658540">
        <ele>795.175</ele>
        <time>2020-05-24T05:11:10Z</time>
      </trkpt>
      <trkpt lat="43.223410" lon="-5.658550">
        <ele>796.121</ele>
        <time>2020-05-24T05:11:30Z</time>
      </trkpt>
      <trkpt lat="43.223450" lon="-5.658560">
        <ele>796.320</ele>
        <time>2020-05-24T05:11:50Z</time>
      </trkpt>
      <trkpt lat="43.223570" lon="-5.658570">
        <ele>797.751</ele>
        <time>2020-05-24T05:12:10Z</time>
      </trkpt>
      <trkpt lat="43.223660" lon="-5.658590">
        <ele>797.540</ele>
        <time>2020-05-24T05:12:30Z</time>
      </trkpt>
      <trkpt lat="43.223690" lon="-5.658590">
        <ele>797.313</ele>
        <time>2020-05-24T05:12:50Z</time>
      </trkpt>
      <trkpt lat="43.223720" lon="-5.658580">
        <ele>797.527</ele>
        <time>2020-05-24T05:13:10Z</time>
      </trkpt>
      <trkpt lat="43.223740" lon="-5.658570">
        <ele>797.768</ele>
        <time>2020-05-24T05:13:30Z</time>
      </trkpt>
      <trkpt lat="43.223760" lon="-5.658560">
        <ele>797.814</ele>
        <time>2020-05-24T05:13:50Z</time>
      </trkpt>
      <trkpt lat="43.223780" lon="-5.658540">
        <ele>798.208</ele>
        <time>2020-05-24T05:14:10Z</time>
      </trkpt>
      <trkpt lat="43.223800" lon="-5.658510">
        <ele>798.916</ele>
        <time>2020-05-24T05:14:30Z</time>
      </trkpt>
      <trkpt lat="43.223810" lon="-5.658500">
        <ele>799.061</ele>
        <time>2020-05-24T05:14:50Z</time>
      </trkpt>
      <trkpt lat="43.223820" lon="-5.658470">
        <ele>799.758</ele>
        <time>2020-05-24T05:15:10Z</time>
      </trkpt>
      <trkpt lat="43.223820" lon="-5.658460">
        <ele>799.974</ele>
        <time>2020-05-24T05:15:30Z</time>
      </trkpt>
      <trkpt lat="43.223840" lon="-5.658420">
        <ele>800.773</ele>
        <time>2020-05-24T05:15:50Z</time>
      </trkpt>
      <trkpt lat="43.223850" lon="-5.658390">
        <ele>801.254</ele>
        <time>2020-05-24T05:16:10Z</time>
      </trkpt>
      <trkpt lat="43.223860" lon="-5.658340">
        <ele>802.333</ele>
        <time>2020-05-24T05:16:30Z</time>
      </trkpt>
      <trkpt lat="43.223870" lon="-5.658220">
        <ele>803.796</ele>
        <time>2020-05-24T05:16:50Z</time>
      </trkpt>
      <trkpt lat="43.223870" lon="-5.658210">
        <ele>803.835</ele>
        <time>2020-05-24T05:17:10Z</time>
      </trkpt>
      <trkpt lat="43.223890" lon="-5.658080">
        <ele>804.786</ele>
        <time>2020-05-24T05:17:30Z</time>
      </trkpt>
      <trkpt lat="43.223920" lon="-5.657990">
        <ele>804.514</ele>
        <time>2020-05-24T05:17:50Z</time>
      </trkpt>
      <trkpt lat="43.223920" lon="-5.657960">
        <ele>804.808</ele>
        <time>2020-05-24T05:18:10Z</time>
      </trkpt>
      <trkpt lat="43.223950" lon="-5.657840">
        <ele>805.457</ele>
        <time>2020-05-24T05:18:30Z</time>
      </trkpt>
      <trkpt lat="43.224000" lon="-5.657730">
        <ele>806.162</ele>
        <time>2020-05-24T05:18:50Z</time>
      </trkpt>
      <trkpt lat="43.224060" lon="-5.657630">
        <ele>807.159</ele>
        <time>2020-05-24T05:19:10Z</time>
      </trkpt>
      <trkpt lat="43.224110" lon="-5.657580">
        <ele>807.245</ele>
        <time>2020-05-24T05:19:30Z</time>
      </trkpt>
      <trkpt lat="43.224130" lon="-5.657550">
        <ele>807.514</ele>
        <time>2020-05-24T05:19:50Z</time>
      </trkpt>
      <trkpt lat="43.224210" lon="-5.657480">
        <ele>807.525</ele>
        <time>2020-05-24T05:20:10Z</time>
      </trkpt>
      <trkpt lat="43.224260" lon="-5.657450">
        <ele>807.394</ele>
        <time>2020-05-24T05:20:30Z</time>
      </trkpt>
      <trkpt lat="43.224380" lon="-5.657360">
        <ele>807.827</ele>
        <time>2020-05-24T05:20:50Z</time>
      </trkpt>
      <trkpt lat="43.224420" lon="-5.657340">
        <ele>807.869</ele>
        <time>2020-05-24T05:21:10Z</time>
      </trkpt>
      <trkpt lat="43.224470" lon="-5.657320">
        <ele>808.104</ele>
        <time>2020-05-24T05:21:30Z</time>
      </trkpt>
      <trkpt lat="43.224560" lon="-5.657320">
        <ele>808.024</ele>
        <time>2020-05-24T05:21:50Z</time>
      </trkpt>
      <trkpt lat="43.224600" lon="-5.657310">
        <ele>808.408</ele>
        <time>2020-05-24T05:22:10Z</time>
      </trkpt>
      <trkpt lat="43.224670" lon="-5.657310">
        <ele>808.380</ele>
        <time>2020-05-24T05:22:30Z</time>
      </trkpt>
      <trkpt lat="43.224770" lon="-5.657310">
        <ele>807.765</ele>
        <time>2020-05-24T05:22:50Z</time>
      </trkpt>
      <trkpt lat="43.224860" lon="-5.657290">
        <ele>807.932</ele>
        <time>2020-05-24T05:23:10Z</time>
      </trkpt>
      <trkpt lat="43.224930" lon="-5.657270">
        <ele>808.278</ele>
        <time>2020-05-24T05:23:30Z</time>
      </trkpt>
      <trkpt lat="43.224990" lon="-5.657240">
        <ele>809.177</ele>
        <time>2020-05-24T05:23:50Z</time>
      </trkpt>
      <trkpt lat="43.225120" lon="-5.657160">
        <ele>811.058</ele>
        <time>2020-05-24T05:24:10Z</time>
      </trkpt>
      <trkpt lat="43.225160" lon="-5.657140">
        <ele>811.387</ele>
        <time>2020-05-24T05:24:30Z</time>
      </trkpt>
      <trkpt lat="43.225290" lon="-5.657100">
        <ele>811.160</ele>
        <time>2020-05-24T05:24:50Z</time>
      </trkpt>
      <trkpt lat="43.225300" lon="-5.657100">
        <ele>811.174</ele>
        <time>2020-05-24T05:25:10Z</time>
      </trkpt>
      <trkpt lat="43.225390" lon="-5.657080">
        <ele>811.856</ele>
        <time>2020-05-24T05:25:30Z</time>
      </trkpt>
      <trkpt lat="43.225460" lon="-5.657050">
        <ele>812.921</ele>
        <time>2020-05-24T05:25:50Z</time>
      </trkpt>
      <trkpt lat="43.225520" lon="-5.657020">
        <ele>813.908</ele>
        <time>2020-05-24T05:26:10Z</time>
      </trkpt>
      <trkpt lat="43.225580" lon="-5.656980">
        <ele>815.191</ele>
        <time>2020-05-24T05:26:30Z</time>
      </trkpt>
      <trkpt lat="43.225630" lon="-5.656940">
        <ele>815.876</ele>
        <time>2020-05-24T05:26:50Z</time>
      </trkpt>
      <trkpt lat="43.225650" lon="-5.656930">
        <ele>815.873</ele>
        <time>2020-05-24T05:27:10Z</time>
      </trkpt>
      <trkpt lat="43.225730" lon="-5.656880">
        <ele>816.269</ele>
        <time>2020-05-24T05:27:30Z</time>
      </trkpt>
      <trkpt lat="43.225830" lon="-5.656820">
        <ele>816.588</ele>
        <time>2020-05-24T05:27:50Z</time>
      </trkpt>
      <trkpt lat="43.225940" lon="-5.656760">
        <ele>816.719</ele>
        <time>2020-05-24T05:28:10Z</time>
      </trkpt>
      <trkpt lat="43.226180" lon="-5.656640">
        <ele>818.568</ele>
        <time>2020-05-24T05:28:30Z</time>
      </trkpt>
      <trkpt lat="43.226290" lon="-5.656610">
        <ele>819.121</ele>
        <time>2020-05-24T05:28:50Z</time>
      </trkpt>
      <trkpt lat="43.226440" lon="-5.656580">
        <ele>821.032</ele>
        <time>2020-05-24T05:29:10Z</time>
      </trkpt>
      <trkpt lat="43.226480" lon="-5.656580">
        <ele>821.892</ele>
        <time>2020-05-24T05:29:30Z</time>
      </trkpt>
      <trkpt lat="43.226540" lon="-5.656580">
        <ele>823.011</ele>
        <time>2020-05-24T05:29:50Z</time>
      </trkpt>
      <trkpt lat="43.226630" lon="-5.656610">
        <ele>823.508</ele>
        <time>2020-05-24T05:30:10Z</time>
      </trkpt>
      <trkpt lat="43.226660" lon="-5.656630">
        <ele>823.327</ele>
        <time>2020-05-24T05:30:30Z</time>
      </trkpt>
      <trkpt lat="43.226700" lon="-5.656660">
        <ele>823.032</ele>
        <time>2020-05-24T05:30:50Z</time>
      </trkpt>
      <trkpt lat="43.226790" lon="-5.656730">
        <ele>822.899</ele>
        <time>2020-05-24T05:31:10Z</time>
      </trkpt>
      <trkpt lat="43.226820" lon="-5.656740">
        <ele>823.225</ele>
        <time>2020-05-24T05:31:30Z</time>
      </trkpt>
      <trkpt lat="43.226850" lon="-5.656760">
        <ele>823.364</ele>
        <time>2020-05-24T05:31:50Z</time>
      </trkpt>
      <trkpt lat="43.226910" lon="-5.656780">
        <ele>824.015</ele>
        <time>2020-05-24T05:32:10Z</time>
      </trkpt>
      <trkpt lat="43.227040" lon="-5.656850">
        <ele>824.554</ele>
        <time>2020-05-24T05:32:30Z</time>
      </trkpt>
      <trkpt lat="43.227160" lon="-5.656900">
        <ele>825.787</ele>
        <time>2020-05-24T05:32:50Z</time>
      </trkpt>
      <trkpt lat="43.227200" lon="-5.656920">
        <ele>826.124</ele>
        <time>2020-05-24T05:33:10Z</time>
      </trkpt>
      <trkpt lat="43.227240" lon="-5.656970">
        <ele>827.304</ele>
        <time>2020-05-24T05:33:30Z</time>
      </trkpt>
      <trkpt lat="43.227260" lon="-5.657030">
        <ele>828.714</ele>
        <time>2020-05-24T05:33:50Z</time>
      </trkpt>
      <trkpt lat="43.227260" lon="-5.657180">
        <ele>828.608</ele>
        <time>2020-05-24T05:34:10Z</time>
      </trkpt>
      <trkpt lat="43.227220" lon="-5.657400">
        <ele>825.226</ele>
        <time>2020-05-24T05:34:30Z</time>
      </trkpt>
      <trkpt lat="43.227220" lon="-5.657500">
        <ele>824.881</ele>
        <time>2020-05-24T05:34:50Z</time>
      </trkpt>
      <trkpt lat="43.227220" lon="-5.657560">
        <ele>823.538</ele>
        <time>2020-05-24T05:35:10Z</time>
      </trkpt>
      <trkpt lat="43.227220" lon="-5.657580">
        <ele>823.194</ele>
        <time>2020-05-24T05:35:30Z</time>
      </trkpt>
      <trkpt lat="43.227220" lon="-5.657660">
        <ele>821.473</ele>
        <time>2020-05-24T05:35:50Z</time>
      </trkpt>
      <trkpt lat="43.227230" lon="-5.657730">
        <ele>820.334</ele>
        <time>2020-05-24T05:36:10Z</time>
      </trkpt>
      <trkpt lat="43.227240" lon="-5.657770">
        <ele>819.633</ele>
        <time>2020-05-24T05:36:30Z</time>
      </trkpt>
      <trkpt lat="43.227250" lon="-5.657790">
        <ele>819.246</ele>
        <time>2020-05-24T05:36:50Z</time>
      </trkpt>
      <trkpt lat="43.227270" lon="-5.657830">
        <ele>818.116</ele>
        <time>2020-05-24T05:37:10Z</time>
      </trkpt>
      <trkpt lat="43.227290" lon="-5.657840">
        <ele>818.176</ele>
        <time>2020-05-24T05:37:30Z</time>
      </trkpt>
      <trkpt lat="43.227320" lon="-5.657850">
        <ele>818.313</ele>
        <time>2020-05-24T05:37:50Z</time>
      </trkpt>
      <trkpt lat="43.227360" lon="-5.657850">
        <ele>819.108</ele>
        <time>2020-05-24T05:38:10Z</time>
      </trkpt>
      <trkpt lat="43.227420" lon="-5.657850">
        <ele>820.335</ele>
        <time>2020-05-24T05:38:30Z</time>
      </trkpt>
      <trkpt lat="43.227460" lon="-5.657850">
        <ele>821.160</ele>
        <time>2020-05-24T05:38:50Z</time>
      </trkpt>
      <trkpt lat="43.227600" lon="-5.657830">
        <ele>822.957</ele>
        <time>2020-05-24T05:39:10Z</time>
      </trkpt>
      <trkpt lat="43.227720" lon="-5.657800">
        <ele>824.623</ele>
        <time>2020-05-24T05:39:30Z</time>
      </trkpt>
      <trkpt lat="43.227780" lon="-5.657790">
        <ele>825.232</ele>
        <time>2020-05-24T05:39:50Z</time>
      </trkpt>
      <trkpt lat="43.227800" lon="-5.657790">
        <ele>825.093</ele>
        <time>2020-05-24T05:40:10Z</time>
      </trkpt>
      <trkpt lat="43.227840" lon="-5.657770">
        <ele>825.772</ele>
        <time>2020-05-24T05:40:30Z</time>
      </trkpt>
      <trkpt lat="43.227880" lon="-5.657740">
        <ele>826.575</ele>
        <time>2020-05-24T05:40:50Z</time>
      </trkpt>
      <trkpt lat="43.227930" lon="-5.657680">
        <ele>827.942</ele>
        <time>2020-05-24T05:41:10Z</time>
      </trkpt>
      <trkpt lat="43.227980" lon="-5.657630">
        <ele>828.622</ele>
        <time>2020-05-24T05:41:30Z</time>
      </trkpt>
      <trkpt lat="43.228110" lon="-5.657490">
        <ele>829.614</ele>
        <time>2020-05-24T05:41:50Z</time>
      </trkpt>
      <trkpt lat="43.228200" lon="-5.657390">
        <ele>832.308</ele>
        <time>2020-05-24T05:42:10Z</time>
      </trkpt>
      <trkpt lat="43.228220" lon="-5.657380">
        <ele>832.328</ele>
        <time>2020-05-24T05:42:30Z</time>
      </trkpt>
      <trkpt lat="43.228230" lon="-5.657370">
        <ele>832.513</ele>
        <time>2020-05-24T05:42:50Z</time>
      </trkpt>
      <trkpt lat="43.228260" lon="-5.657350">
        <ele>832.790</ele>
        <time>2020-05-24T05:43:10Z</time>
      </trkpt>
      <trkpt lat="43.228300" lon="-5.657350">
        <ele>832.046</ele>
        <time>2020-05-24T05:43:30Z</time>
      </trkpt>
      <trkpt lat="43.228330" lon="-5.657350">
        <ele>831.525</ele>
        <time>2020-05-24T05:43:50Z</time>
      </trkpt>
      <trkpt lat="43.228370" lon="-5.657360">
        <ele>832.036</ele>
        <time>2020-05-24T05:44:10Z</time>
      </trkpt>
      <trkpt lat="43.228390" lon="-5.657360">
        <ele>832.645</ele>
        <time>2020-05-24T05:44:30Z</time>
      </trkpt>
      <trkpt lat="43.228420" lon="-5.657380">
        <ele>832.628</ele>
        <time>2020-05-24T05:44:50Z</time>
      </trkpt>
      <trkpt lat="43.228440" lon="-5.657390">
        <ele>832.876</ele>
        <time>2020-05-24T05:45:10Z</time>
      </trkpt>
      <trkpt lat="43.228500" lon="-5.657430">
        <ele>832.990</ele>
        <time>2020-05-24T05:45:30Z</time>
      </trkpt>
      <trkpt lat="43.228550" lon="-5.657470">
        <ele>832.619</ele>
        <time>2020-05-24T05:45:50Z</time>
      </trkpt>
      <trkpt lat="43.228570" lon="-5.657490">
        <ele>832.408</ele>
        <time>2020-05-24T05:46:10Z</time>
      </trkpt>
      <trkpt lat="43.228640" lon="-5.657550">
        <ele>832.591</ele>
        <time>2020-05-24T05:46:30Z</time>
      </trkpt>
      <trkpt lat="43.228720" lon="-5.657630">
        <ele>832.516</ele>
        <time>2020-05-24T05:46:50Z</time>
      </trkpt>
      <trkpt lat="43.228800" lon="-5.657690">
        <ele>832.943</ele>
        <time>2020-05-24T05:47:10Z</time>
      </trkpt>
      <trkpt lat="43.228840" lon="-5.657720">
        <ele>833.079</ele>
        <time>2020-05-24T05:47:30Z</time>
      </trkpt>
      <trkpt lat="43.228860" lon="-5.657720">
        <ele>833.678</ele>
        <time>2020-05-24T05:47:50Z</time>
      </trkpt>
      <trkpt lat="43.228910" lon="-5.657740">
        <ele>834.379</ele>
        <time>2020-05-24T05:48:10Z</time>
      </trkpt>
      <trkpt lat="43.228960" lon="-5.657770">
        <ele>834.688</ele>
        <time>2020-05-24T05:48:30Z</time>
      </trkpt>
      <trkpt lat="43.229020" lon="-5.657800">
        <ele>835.941</ele>
        <time>2020-05-24T05:48:50Z</time>
      </trkpt>
      <trkpt lat="43.229030" lon="-5.657800">
        <ele>836.269</ele>
        <time>2020-05-24T05:49:10Z</time>
      </trkpt>
      <trkpt lat="43.229080" lon="-5.657830">
        <ele>837.504</ele>
        <time>2020-05-24T05:49:30Z</time>
      </trkpt>
      <trkpt lat="43.229110" lon="-5.657880">
        <ele>838.124</ele>
        <time>2020-05-24T05:49:50Z</time>
      </trkpt>
      <trkpt lat="43.229130" lon="-5.657940">
        <ele>838.308</ele>
        <time>2020-05-24T05:50:10Z</time>
      </trkpt>
      <trkpt lat="43.229140" lon="-5.658010">
        <ele>838.140</ele>
        <time>2020-05-24T05:50:30Z</time>
      </trkpt>
      <trkpt lat="43.229140" lon="-5.658130">
        <ele>838.735</ele>
        <time>2020-05-24T05:50:50Z</time>
      </trkpt>
      <trkpt lat="43.229130" lon="-5.658210">
        <ele>839.252</ele>
        <time>2020-05-24T05:51:10Z</time>
      </trkpt>
      <trkpt lat="43.229130" lon="-5.658230">
        <ele>839.558</ele>
        <time>2020-05-24T05:51:30Z</time>
      </trkpt>
      <trkpt lat="43.229110" lon="-5.658300">
        <ele>839.387</ele>
        <time>2020-05-24T05:51:50Z</time>
      </trkpt>
      <trkpt lat="43.229050" lon="-5.658430">
        <ele>838.348</ele>
        <time>2020-05-24T05:52:10Z</time>
      </trkpt>
      <trkpt lat="43.229010" lon="-5.658540">
        <ele>837.947</ele>
        <time>2020-05-24T05:52:30Z</time>
      </trkpt>
      <trkpt lat="43.228980" lon="-5.658630">
        <ele>837.470</ele>
        <time>2020-05-24T05:52:50Z</time>
      </trkpt>
      <trkpt lat="43.228960" lon="-5.658690">
        <ele>836.726</ele>
        <time>2020-05-24T05:53:10Z</time>
      </trkpt>
      <trkpt lat="43.228930" lon="-5.658770">
        <ele>835.847</ele>
        <time>2020-05-24T05:53:30Z</time>
      </trkpt>
      <trkpt lat="43.228920" lon="-5.658830">
        <ele>835.911</ele>
        <time>2020-05-24T05:53:50Z</time>
      </trkpt>
      <trkpt lat="43.228910" lon="-5.658900">
        <ele>836.008</ele>
        <time>2020-05-24T05:54:10Z</time>
      </trkpt>
      <trkpt lat="43.228900" lon="-5.658930">
        <ele>835.026</ele>
        <time>2020-05-24T05:54:30Z</time>
      </trkpt>
      <trkpt lat="43.228890" lon="-5.658980">
        <ele>833.721</ele>
        <time>2020-05-24T05:54:50Z</time>
      </trkpt>
      <trkpt lat="43.228890" lon="-5.659060">
        <ele>832.678</ele>
        <time>2020-05-24T05:55:10Z</time>
      </trkpt>
      <trkpt lat="43.228910" lon="-5.659120">
        <ele>832.394</ele>
        <time>2020-05-24T05:55:30Z</time>
      </trkpt>
      <trkpt lat="43.228910" lon="-5.659130">
        <ele>832.193</ele>
        <time>2020-05-24T05:55:50Z</time>
      </trkpt>
      <trkpt lat="43.228940" lon="-5.659160">
        <ele>832.454</ele>
        <time>2020-05-24T05:56:10Z</time>
      </trkpt>
      <trkpt lat="43.228980" lon="-5.659180">
        <ele>832.743</ele>
        <time>2020-05-24T05:56:30Z</time>
      </trkpt>
      <trkpt lat="43.229040" lon="-5.659180">
        <ele>834.256</ele>
        <time>2020-05-24T05:56:50Z</time>
      </trkpt>
      <trkpt lat="43.229080" lon="-5.659180">
        <ele>835.216</ele>
        <time>2020-05-24T05:57:10Z</time>
      </trkpt>
      <trkpt lat="43.229130" lon="-5.659180">
        <ele>836.576</ele>
        <time>2020-05-24T05:57:30Z</time>
      </trkpt>
      <trkpt lat="43.229220" lon="-5.659180">
        <ele>838.213</ele>
        <time>2020-05-24T05:57:50Z</time>
      </trkpt>
      <trkpt lat="43.229260" lon="-5.659180">
        <ele>838.808</ele>
        <time>2020-05-24T05:58:10Z</time>
      </trkpt>
      <trkpt lat="43.229310" lon="-5.659170">
        <ele>839.985</ele>
        <time>2020-05-24T05:58:30Z</time>
      </trkpt>
      <trkpt lat="43.229370" lon="-5.659180">
        <ele>840.450</ele>
        <time>2020-05-24T05:58:50Z</time>
      </trkpt>
      <trkpt lat="43.229430" lon="-5.659190">
        <ele>840.917</ele>
        <time>2020-05-24T05:59:10Z</time>
      </trkpt>
      <trkpt lat="43.229560" lon="-5.659220">
        <ele>843.043</ele>
        <time>2020-05-24T05:59:30Z</time>
      </trkpt>
      <trkpt lat="43.229710" lon="-5.659270">
        <ele>845.862</ele>
        <time>2020-05-24T05:59:50Z</time>
      </trkpt>
      <trkpt lat="43.229780" lon="-5.659300">
        <ele>846.333</ele>
        <time>2020-05-24T06:00:10Z</time>
      </trkpt>
      <trkpt lat="43.229790" lon="-5.659310">
        <ele>846.352</ele>
        <time>2020-05-24T06:00:30Z</time>
      </trkpt>
      <trkpt lat="43.229860" lon="-5.659340">
        <ele>846.925</ele>
        <time>2020-05-24T06:00:50Z</time>
      </trkpt>
      <trkpt lat="43.229900" lon="-5.659360">
        <ele>847.469</ele>
        <time>2020-05-24T06:01:10Z</time>
      </trkpt>
      <trkpt lat="43.229940" lon="-5.659360">
        <ele>848.004</ele>
        <time>2020-05-24T06:01:30Z</time>
      </trkpt>
      <trkpt lat="43.229960" lon="-5.659360">
        <ele>848.424</ele>
        <time>2020-05-24T06:01:50Z</time>
      </trkpt>
      <trkpt lat="43.230010" lon="-5.659350">
        <ele>848.708</ele>
        <time>2020-05-24T06:02:10Z</time>
      </trkpt>
      <trkpt lat="43.230030" lon="-5.659310">
        <ele>848.140</ele>
        <time>2020-05-24T06:02:30Z</time>
      </trkpt>
      <trkpt lat="43.230050" lon="-5.659250">
        <ele>847.475</ele>
        <time>2020-05-24T06:02:50Z</time>
      </trkpt>
      <trkpt lat="43.230080" lon="-5.659150">
        <ele>846.332</ele>
        <time>2020-05-24T06:03:10Z</time>
      </trkpt>
      <trkpt lat="43.230100" lon="-5.659100">
        <ele>845.938</ele>
        <time>2020-05-24T06:03:30Z</time>
      </trkpt>
      <trkpt lat="43.230100" lon="-5.659070">
        <ele>846.237</ele>
        <time>2020-05-24T06:03:50Z</time>
      </trkpt>
      <trkpt lat="43.230130" lon="-5.658980">
        <ele>845.788</ele>
        <time>2020-05-24T06:04:10Z</time>
      </trkpt>
      <trkpt lat="43.230160" lon="-5.658920">
        <ele>844.957</ele>
        <time>2020-05-24T06:04:30Z</time>
      </trkpt>
      <trkpt lat="43.230180" lon="-5.658880">
        <ele>844.460</ele>
        <time>2020-05-24T06:04:50Z</time>
      </trkpt>
      <trkpt lat="43.230200" lon="-5.658840">
        <ele>844.519</ele>
        <time>2020-05-24T06:05:10Z</time>
      </trkpt>
      <trkpt lat="43.230280" lon="-5.658700">
        <ele>844.009</ele>
        <time>2020-05-24T06:05:30Z</time>
      </trkpt>
      <trkpt lat="43.230340" lon="-5.658600">
        <ele>842.919</ele>
        <time>2020-05-24T06:05:50Z</time>
      </trkpt>
      <trkpt lat="43.230400" lon="-5.658500">
        <ele>842.208</ele>
        <time>2020-05-24T06:06:10Z</time>
      </trkpt>
      <trkpt lat="43.230480" lon="-5.658380">
        <ele>840.985</ele>
        <time>2020-05-24T06:06:30Z</time>
      </trkpt>
      <trkpt lat="43.230530" lon="-5.658320">
        <ele>839.770</ele>
        <time>2020-05-24T06:06:50Z</time>
      </trkpt>
      <trkpt lat="43.230550" lon="-5.658290">
        <ele>839.437</ele>
        <time>2020-05-24T06:07:10Z</time>
      </trkpt>
      <trkpt lat="43.230610" lon="-5.658210">
        <ele>838.023</ele>
        <time>2020-05-24T06:07:30Z</time>
      </trkpt>
      <trkpt lat="43.230670" lon="-5.658100">
        <ele>837.052</ele>
        <time>2020-05-24T06:07:50Z</time>
      </trkpt>
      <trkpt lat="43.230700" lon="-5.658030">
        <ele>836.573</ele>
        <time>2020-05-24T06:08:10Z</time>
      </trkpt>
      <trkpt lat="43.230730" lon="-5.657930">
        <ele>836.042</ele>
        <time>2020-05-24T06:08:30Z</time>
      </trkpt>
      <trkpt lat="43.230760" lon="-5.657780">
        <ele>836.045</ele>
        <time>2020-05-24T06:08:50Z</time>
      </trkpt>
      <trkpt lat="43.230770" lon="-5.657680">
        <ele>835.175</ele>
        <time>2020-05-24T06:09:10Z</time>
      </trkpt>
      <trkpt lat="43.230770" lon="-5.657650">
        <ele>835.128</ele>
        <time>2020-05-24T06:09:30Z</time>
      </trkpt>
      <trkpt lat="43.230770" lon="-5.657490">
        <ele>834.720</ele>
        <time>2020-05-24T06:09:50Z</time>
      </trkpt>
      <trkpt lat="43.230770" lon="-5.657370">
        <ele>833.508</ele>
        <time>2020-05-24T06:10:10Z</time>
      </trkpt>
      <trkpt lat="43.230770" lon="-5.657250">
        <ele>832.481</ele>
        <time>2020-05-24T06:10:30Z</time>
      </trkpt>
      <trkpt lat="43.230780" lon="-5.657180">
        <ele>832.756</ele>
        <time>2020-05-24T06:10:50Z</time>
      </trkpt>
      <trkpt lat="43.230780" lon="-5.657160">
        <ele>833.363</ele>
        <time>2020-05-24T06:11:10Z</time>
      </trkpt>
      <trkpt lat="43.230800" lon="-5.657120">
        <ele>833.329</ele>
        <time>2020-05-24T06:11:30Z</time>
      </trkpt>
      <trkpt lat="43.230830" lon="-5.657080">
        <ele>832.818</ele>
        <time>2020-05-24T06:11:50Z</time>
      </trkpt>
      <trkpt lat="43.230880" lon="-5.657040">
        <ele>832.739</ele>
        <time>2020-05-24T06:12:10Z</time>
      </trkpt>
      <trkpt lat="43.230910" lon="-5.657030">
        <ele>832.238</ele>
        <time>2020-05-24T06:12:30Z</time>
      </trkpt>
      <trkpt lat="43.230960" lon="-5.657020">
        <ele>831.311</ele>
        <time>2020-05-24T06:12:50Z</time>
      </trkpt>
      <trkpt lat="43.231030" lon="-5.657010">
        <ele>830.069</ele>
        <time>2020-05-24T06:13:10Z</time>
      </trkpt>
      <trkpt lat="43.231130" lon="-5.656990">
        <ele>828.304</ele>
        <time>2020-05-24T06:13:30Z</time>
      </trkpt>
      <trkpt lat="43.231210" lon="-5.656960">
        <ele>827.524</ele>
        <time>2020-05-24T06:13:50Z</time>
      </trkpt>
      <trkpt lat="43.231260" lon="-5.656940">
        <ele>826.908</ele>
        <time>2020-05-24T06:14:10Z</time>
      </trkpt>
      <trkpt lat="43.231320" lon="-5.656920">
        <ele>825.840</ele>
        <time>2020-05-24T06:14:30Z</time>
      </trkpt>
      <trkpt lat="43.231390" lon="-5.656870">
        <ele>825.135</ele>
        <time>2020-05-24T06:14:50Z</time>
      </trkpt>
      <trkpt lat="43.231430" lon="-5.656810">
        <ele>824.612</ele>
        <time>2020-05-24T06:15:10Z</time>
      </trkpt>
      <trkpt lat="43.231500" lon="-5.656690">
        <ele>824.018</ele>
        <time>2020-05-24T06:15:30Z</time>
      </trkpt>
      <trkpt lat="43.231510" lon="-5.656630">
        <ele>824.877</ele>
        <time>2020-05-24T06:15:50Z</time>
      </trkpt>
      <trkpt lat="43.231530" lon="-5.656590">
        <ele>824.548</ele>
        <time>2020-05-24T06:16:10Z</time>
      </trkpt>
      <trkpt lat="43.231570" lon="-5.656460">
        <ele>825.037</ele>
        <time>2020-05-24T06:16:30Z</time>
      </trkpt>
      <trkpt lat="43.231600" lon="-5.656410">
        <ele>824.430</ele>
        <time>2020-05-24T06:16:50Z</time>
      </trkpt>
      <trkpt lat="43.231620" lon="-5.656380">
        <ele>824.057</ele>
        <time>2020-05-24T06:17:10Z</time>
      </trkpt>
      <trkpt lat="43.231660" lon="-5.656320">
        <ele>824.100</ele>
        <time>2020-05-24T06:17:30Z</time>
      </trkpt>
      <trkpt lat="43.231710" lon="-5.656300">
        <ele>823.920</ele>
        <time>2020-05-24T06:17:50Z</time>
      </trkpt>
      <trkpt lat="43.231740" lon="-5.656300">
        <ele>823.508</ele>
        <time>2020-05-24T06:18:10Z</time>
      </trkpt>
      <trkpt lat="43.231760" lon="-5.656300">
        <ele>823.329</ele>
        <time>2020-05-24T06:18:30Z</time>
      </trkpt>
      <trkpt lat="43.231840" lon="-5.656290">
        <ele>822.644</ele>
        <time>2020-05-24T06:18:50Z</time>
      </trkpt>
      <trkpt lat="43.231920" lon="-5.656300">
        <ele>821.211</ele>
        <time>2020-05-24T06:19:10Z</time>
      </trkpt>
      <trkpt lat="43.231950" lon="-5.656300">
        <ele>820.947</ele>
        <time>2020-05-24T06:19:30Z</time>
      </trkpt>
      <trkpt lat="43.232060" lon="-5.656300">
        <ele>821.236</ele>
        <time>2020-05-24T06:19:50Z</time>
      </trkpt>
      <trkpt lat="43.232100" lon="-5.656320">
        <ele>820.467</ele>
        <time>2020-05-24T06:20:10Z</time>
      </trkpt>
      <trkpt lat="43.232180" lon="-5.656340">
        <ele>819.646</ele>
        <time>2020-05-24T06:20:30Z</time>
      </trkpt>
      <trkpt lat="43.232270" lon="-5.656400">
        <ele>817.789</ele>
        <time>2020-05-24T06:20:50Z</time>
      </trkpt>
      <trkpt lat="43.232350" lon="-5.656460">
        <ele>817.172</ele>
        <time>2020-05-24T06:21:10Z</time>
      </trkpt>
      <trkpt lat="43.232420" lon="-5.656540">
        <ele>815.513</ele>
        <time>2020-05-24T06:21:30Z</time>
      </trkpt>
      <trkpt lat="43.232510" lon="-5.656670">
        <ele>812.214</ele>
        <time>2020-05-24T06:21:50Z</time>
      </trkpt>
      <trkpt lat="43.232590" lon="-5.656780">
        <ele>810.508</ele>
        <time>2020-05-24T06:22:10Z</time>
      </trkpt>
      <trkpt lat="43.232680" lon="-5.656910">
        <ele>808.551</ele>
        <time>2020-05-24T06:22:30Z</time>
      </trkpt>
      <trkpt lat="43.232800" lon="-5.657070">
        <ele>806.466</ele>
        <time>2020-05-24T06:22:50Z</time>
      </trkpt>
      <trkpt lat="43.232820" lon="-5.657100">
        <ele>805.823</ele>
        <time>2020-05-24T06:23:10Z</time>
      </trkpt>
      <trkpt lat="43.232900" lon="-5.657200">
        <ele>804.059</ele>
        <time>2020-05-24T06:23:30Z</time>
      </trkpt>
      <trkpt lat="43.232930" lon="-5.657230">
        <ele>803.658</ele>
        <time>2020-05-24T06:23:50Z</time>
      </trkpt>
      <trkpt lat="43.233020" lon="-5.657340">
        <ele>801.799</ele>
        <time>2020-05-24T06:24:10Z</time>
      </trkpt>
      <trkpt lat="43.233070" lon="-5.657370">
        <ele>801.788</ele>
        <time>2020-05-24T06:24:30Z</time>
      </trkpt>
      <trkpt lat="43.233080" lon="-5.657370">
        <ele>801.831</ele>
        <time>2020-05-24T06:24:50Z</time>
      </trkpt>
      <trkpt lat="43.233160" lon="-5.657410">
        <ele>800.528</ele>
        <time>2020-05-24T06:25:10Z</time>
      </trkpt>
      <trkpt lat="43.233240" lon="-5.657400">
        <ele>801.489</ele>
        <time>2020-05-24T06:25:30Z</time>
      </trkpt>
      <trkpt lat="43.233330" lon="-5.657400">
        <ele>801.917</ele>
        <time>2020-05-24T06:25:50Z</time>
      </trkpt>
      <trkpt lat="43.233400" lon="-5.657400">
        <ele>802.708</ele>
        <time>2020-05-24T06:26:10Z</time>
      </trkpt>
      <trkpt lat="43.233430" lon="-5.657420">
        <ele>802.246</ele>
        <time>2020-05-24T06:26:30Z</time>
      </trkpt>
      <trkpt lat="43.233460" lon="-5.657440">
        <ele>801.621</ele>
        <time>2020-05-24T06:26:50Z</time>
      </trkpt>
      <trkpt lat="43.233560" lon="-5.657510">
        <ele>799.158</ele>
        <time>2020-05-24T06:27:10Z</time>
      </trkpt>
      <trkpt lat="43.233670" lon="-5.657590">
        <ele>796.494</ele>
        <time>2020-05-24T06:27:30Z</time>
      </trkpt>
      <trkpt lat="43.233810" lon="-5.657650">
        <ele>796.633</ele>
        <time>2020-05-24T06:27:50Z</time>
      </trkpt>
      <trkpt lat="43.233920" lon="-5.657720">
        <ele>795.794</ele>
        <time>2020-05-24T06:28:10Z</time>
      </trkpt>
      <trkpt lat="43.233960" lon="-5.657740">
        <ele>795.233</ele>
        <time>2020-05-24T06:28:30Z</time>
      </trkpt>
      <trkpt lat="43.234060" lon="-5.657790">
        <ele>793.736</ele>
        <time>2020-05-24T06:28:50Z</time>
      </trkpt>
      <trkpt lat="43.234160" lon="-5.657870">
        <ele>790.668</ele>
        <time>2020-05-24T06:29:10Z</time>
      </trkpt>
      <trkpt lat="43.234240" lon="-5.657940">
        <ele>788.442</ele>
        <time>2020-05-24T06:29:30Z</time>
      </trkpt>
      <trkpt lat="43.234250" lon="-5.657950">
        <ele>788.226</ele>
        <time>2020-05-24T06:29:50Z</time>
      </trkpt>
      <trkpt lat="43.234310" lon="-5.657990">
        <ele>787.608</ele>
        <time>2020-05-24T06:30:10Z</time>
      </trkpt>
      <trkpt lat="43.234360" lon="-5.658010">
        <ele>787.720</ele>
        <time>2020-05-24T06:30:30Z</time>
      </trkpt>
      <trkpt lat="43.234400" lon="-5.658020">
        <ele>788.285</ele>
        <time>2020-05-24T06:30:50Z</time>
      </trkpt>
      <trkpt lat="43.234410" lon="-5.658020">
        <ele>788.482</ele>
        <time>2020-05-24T06:31:10Z</time>
      </trkpt>
      <trkpt lat="43.234420" lon="-5.658010">
        <ele>788.958</ele>
        <time>2020-05-24T06:31:30Z</time>
      </trkpt>
      <trkpt lat="43.234450" lon="-5.657980">
        <ele>790.037</ele>
        <time>2020-05-24T06:31:50Z</time>
      </trkpt>
      <trkpt lat="43.234490" lon="-5.657900">
        <ele>790.718</ele>
        <time>2020-05-24T06:32:10Z</time>
      </trkpt>
      <trkpt lat="43.234530" lon="-5.657810">
        <ele>791.237</ele>
        <time>2020-05-24T06:32:30Z</time>
      </trkpt>
      <trkpt lat="43.234580" lon="-5.657690">
        <ele>791.170</ele>
        <time>2020-05-24T06:32:50Z</time>
      </trkpt>
      <trkpt lat="43.234610" lon="-5.657620">
        <ele>790.621</ele>
        <time>2020-05-24T06:33:10Z</time>
      </trkpt>
      <trkpt lat="43.234650" lon="-5.657530">
        <ele>789.841</ele>
        <time>2020-05-24T06:33:30Z</time>
      </trkpt>
      <trkpt lat="43.234710" lon="-5.657410">
        <ele>788.305</ele>
        <time>2020-05-24T06:33:50Z</time>
      </trkpt>
      <trkpt lat="43.234730" lon="-5.657360">
        <ele>788.108</ele>
        <time>2020-05-24T06:34:10Z</time>
      </trkpt>
      <trkpt lat="43.234810" lon="-5.657210">
        <ele>786.226</ele>
        <time>2020-05-24T06:34:30Z</time>
      </trkpt>
      <trkpt lat="43.234840" lon="-5.657140">
        <ele>786.471</ele>
        <time>2020-05-24T06:34:50Z</time>
      </trkpt>
      <trkpt lat="43.234930" lon="-5.657010">
        <ele>785.368</ele>
        <time>2020-05-24T06:35:10Z</time>
      </trkpt>
      <trkpt lat="43.234930" lon="-5.657000">
        <ele>785.674</ele>
        <time>2020-05-24T06:35:30Z</time>
      </trkpt>
      <trkpt lat="43.235020" lon="-5.656910">
        <ele>784.413</ele>
        <time>2020-05-24T06:35:50Z</time>
      </trkpt>
      <trkpt lat="43.235130" lon="-5.656810">
        <ele>783.974</ele>
        <time>2020-05-24T06:36:10Z</time>
      </trkpt>
      <trkpt lat="43.235220" lon="-5.656770">
        <ele>782.283</ele>
        <time>2020-05-24T06:36:30Z</time>
      </trkpt>
      <trkpt lat="43.235340" lon="-5.656720">
        <ele>780.416</ele>
        <time>2020-05-24T06:36:50Z</time>
      </trkpt>
      <trkpt lat="43.235500" lon="-5.656640">
        <ele>779.473</ele>
        <time>2020-05-24T06:37:10Z</time>
      </trkpt>
      <trkpt lat="43.235630" lon="-5.656580">
        <ele>780.985</ele>
        <time>2020-05-24T06:37:30Z</time>
      </trkpt>
      <trkpt lat="43.235700" lon="-5.656580">
        <ele>781.613</ele>
        <time>2020-05-24T06:37:50Z</time>
      </trkpt>
      <trkpt lat="43.235760" lon="-5.656630">
        <ele>780.108</ele>
        <time>2020-05-24T06:38:10Z</time>
      </trkpt>
      <trkpt lat="43.235820" lon="-5.656710">
        <ele>777.021</ele>
        <time>2020-05-24T06:38:30Z</time>
      </trkpt>
      <trkpt lat="43.235880" lon="-5.656770">
        <ele>775.526</ele>
        <time>2020-05-24T06:38:50Z</time>
      </trkpt>
      <trkpt lat="43.235950" lon="-5.656830">
        <ele>773.973</ele>
        <time>2020-05-24T06:39:10Z</time>
      </trkpt>
      <trkpt lat="43.236020" lon="-5.656890">
        <ele>771.989</ele>
        <time>2020-05-24T06:39:30Z</time>
      </trkpt>
      <trkpt lat="43.236040" lon="-5.656900">
        <ele>771.628</ele>
        <time>2020-05-24T06:39:50Z</time>
      </trkpt>
      <trkpt lat="43.236100" lon="-5.656920">
        <ele>771.349</ele>
        <time>2020-05-24T06:40:10Z</time>
      </trkpt>
      <trkpt lat="43.236180" lon="-5.656940">
        <ele>770.288</ele>
        <time>2020-05-24T06:40:30Z</time>
      </trkpt>
      <trkpt lat="43.236210" lon="-5.656940">
        <ele>770.211</ele>
        <time>2020-05-24T06:40:50Z</time>
      </trkpt>
      <trkpt lat="43.236250" lon="-5.656940">
        <ele>770.225</ele>
        <time>2020-05-24T06:41:10Z</time>
      </trkpt>
      <trkpt lat="43.236330" lon="-5.656920">
        <ele>771.326</ele>
        <time>2020-05-24T06:41:30Z</time>
      </trkpt>
      <trkpt lat="43.236410" lon="-5.656920">
        <ele>772.308</ele>
        <time>2020-05-24T06:41:50Z</time>
      </trkpt>
      <trkpt lat="43.236470" lon="-5.656940">
        <ele>774.608</ele>
        <time>2020-05-24T06:42:10Z</time>
      </trkpt>
      <trkpt lat="43.236490" lon="-5.656970">
        <ele>774.476</ele>
        <time>2020-05-24T06:42:30Z</time>
      </trkpt>
      <trkpt lat="43.236510" lon="-5.657040">
        <ele>772.611</ele>
        <time>2020-05-24T06:42:50Z</time>
      </trkpt>
      <trkpt lat="43.236520" lon="-5.657060">
        <ele>772.358</ele>
        <time>2020-05-24T06:43:10Z</time>
      </trkpt>
      <trkpt lat="43.236530" lon="-5.657120">
        <ele>770.374</ele>
        <time>2020-05-24T06:43:30Z</time>
      </trkpt>
      <trkpt lat="43.236560" lon="-5.657200">
        <ele>768.653</ele>
        <time>2020-05-24T06:43:50Z</time>
      </trkpt>
      <trkpt lat="43.236590" lon="-5.657300">
        <ele>766.234</ele>
        <time>2020-05-24T06:44:10Z</time>
      </trkpt>
      <trkpt lat="43.236630" lon="-5.657420">
        <ele>763.843</ele>
        <time>2020-05-24T06:44:30Z</time>
      </trkpt>
      <trkpt lat="43.236670" lon="-5.657500">
        <ele>763.276</ele>
        <time>2020-05-24T06:44:50Z</time>
      </trkpt>
      <trkpt lat="43.236750" lon="-5.657620">
        <ele>761.352</ele>
        <time>2020-05-24T06:45:10Z</time>
      </trkpt>
      <trkpt lat="43.236790" lon="-5.657690">
        <ele>759.953</ele>
        <time>2020-05-24T06:45:30Z</time>
      </trkpt>
      <trkpt lat="43.236840" lon="-5.657770">
        <ele>758.508</ele>
        <time>2020-05-24T06:45:50Z</time>
      </trkpt>
      <trkpt lat="43.236910" lon="-5.657900">
        <ele>756.508</ele>
        <time>2020-05-24T06:46:10Z</time>
      </trkpt>
      <trkpt lat="43.236980" lon="-5.658010">
        <ele>755.149</ele>
        <time>2020-05-24T06:46:30Z</time>
      </trkpt>
      <trkpt lat="43.237010" lon="-5.658070">
        <ele>753.814</ele>
        <time>2020-05-24T06:46:50Z</time>
      </trkpt>
      <trkpt lat="43.237040" lon="-5.658120">
        <ele>752.951</ele>
        <time>2020-05-24T06:47:10Z</time>
      </trkpt>
      <trkpt lat="43.237070" lon="-5.658190">
        <ele>751.237</ele>
        <time>2020-05-24T06:47:30Z</time>
      </trkpt>
      <trkpt lat="43.237120" lon="-5.658240">
        <ele>751.036</ele>
        <time>2020-05-24T06:47:50Z</time>
      </trkpt>
      <trkpt lat="43.237140" lon="-5.658240">
        <ele>751.797</ele>
        <time>2020-05-24T06:48:10Z</time>
      </trkpt>
      <trkpt lat="43.237190" lon="-5.658270">
        <ele>752.396</ele>
        <time>2020-05-24T06:48:30Z</time>
      </trkpt>
      <trkpt lat="43.237260" lon="-5.658270">
        <ele>752.749</ele>
        <time>2020-05-24T06:48:50Z</time>
      </trkpt>
      <trkpt lat="43.237310" lon="-5.658250">
        <ele>752.368</ele>
        <time>2020-05-24T06:49:10Z</time>
      </trkpt>
      <trkpt lat="43.237320" lon="-5.658240">
        <ele>752.542</ele>
        <time>2020-05-24T06:49:30Z</time>
      </trkpt>
      <trkpt lat="43.237410" lon="-5.658180">
        <ele>752.626</ele>
        <time>2020-05-24T06:49:50Z</time>
      </trkpt>
      <trkpt lat="43.237510" lon="-5.658080">
        <ele>753.908</ele>
        <time>2020-05-24T06:50:10Z</time>
      </trkpt>
      <trkpt lat="43.237590" lon="-5.658010">
        <ele>755.340</ele>
        <time>2020-05-24T06:50:30Z</time>
      </trkpt>
      <trkpt lat="43.237620" lon="-5.657990">
        <ele>755.745</ele>
        <time>2020-05-24T06:50:50Z</time>
      </trkpt>
      <trkpt lat="43.237680" lon="-5.657950">
        <ele>756.572</ele>
        <time>2020-05-24T06:51:10Z</time>
      </trkpt>
      <trkpt lat="43.237740" lon="-5.657920">
        <ele>757.018</ele>
        <time>2020-05-24T06:51:30Z</time>
      </trkpt>
      <trkpt lat="43.237790" lon="-5.657930">
        <ele>755.857</ele>
        <time>2020-05-24T06:51:50Z</time>
      </trkpt>
      <trkpt lat="43.237800" lon="-5.657930">
        <ele>755.988</ele>
        <time>2020-05-24T06:52:10Z</time>
      </trkpt>
      <trkpt lat="43.237890" lon="-5.657960">
        <ele>754.817</ele>
        <time>2020-05-24T06:52:30Z</time>
      </trkpt>
      <trkpt lat="43.237960" lon="-5.657980">
        <ele>754.260</ele>
        <time>2020-05-24T06:52:50Z</time>
      </trkpt>
      <trkpt lat="43.237980" lon="-5.657990">
        <ele>753.885</ele>
        <time>2020-05-24T06:53:10Z</time>
      </trkpt>
      <trkpt lat="43.238080" lon="-5.657990">
        <ele>755.589</ele>
        <time>2020-05-24T06:53:30Z</time>
      </trkpt>
      <trkpt lat="43.238140" lon="-5.657990">
        <ele>758.617</ele>
        <time>2020-05-24T06:53:50Z</time>
      </trkpt>
      <trkpt lat="43.238180" lon="-5.657990">
        <ele>760.608</ele>
        <time>2020-05-24T06:54:10Z</time>
      </trkpt>
      <trkpt lat="43.238220" lon="-5.658030">
        <ele>761.312</ele>
        <time>2020-05-24T06:54:30Z</time>
      </trkpt>
      <trkpt lat="43.238230" lon="-5.658070">
        <ele>760.877</ele>
        <time>2020-05-24T06:54:50Z</time>
      </trkpt>
      <trkpt lat="43.238240" lon="-5.658140">
        <ele>760.144</ele>
        <time>2020-05-24T06:55:10Z</time>
      </trkpt>
      <trkpt lat="43.238240" lon="-5.658150">
        <ele>759.990</ele>
        <time>2020-05-24T06:55:30Z</time>
      </trkpt>
      <trkpt lat="43.238230" lon="-5.658280">
        <ele>756.879</ele>
        <time>2020-05-24T06:55:50Z</time>
      </trkpt>
      <trkpt lat="43.238210" lon="-5.658400">
        <ele>753.150</ele>
        <time>2020-05-24T06:56:10Z</time>
      </trkpt>
      <trkpt lat="43.238210" lon="-5.658430">
        <ele>752.619</ele>
        <time>2020-05-24T06:56:30Z</time>
      </trkpt>
      <trkpt lat="43.238170" lon="-5.658560">
        <ele>747.582</ele>
        <time>2020-05-24T06:56:50Z</time>
      </trkpt>
      <trkpt lat="43.238170" lon="-5.658620">
        <ele>746.369</ele>
        <time>2020-05-24T06:57:10Z</time>
      </trkpt>
      <trkpt lat="43.238180" lon="-5.658630">
        <ele>746.704</ele>
        <time>2020-05-24T06:57:30Z</time>
      </trkpt>
      <trkpt lat="43.238190" lon="-5.658690">
        <ele>745.024</ele>
        <time>2020-05-24T06:57:50Z</time>
      </trkpt>
      <trkpt lat="43.238230" lon="-5.658740">
        <ele>746.008</ele>
        <time>2020-05-24T06:58:10Z</time>
      </trkpt>
      <trkpt lat="43.238280" lon="-5.658810">
        <ele>746.720</ele>
        <time>2020-05-24T06:58:30Z</time>
      </trkpt>
      <trkpt lat="43.238290" lon="-5.658830">
        <ele>746.555</ele>
        <time>2020-05-24T06:58:50Z</time>
      </trkpt>
      <trkpt lat="43.238330" lon="-5.658900">
        <ele>746.452</ele>
        <time>2020-05-24T06:59:10Z</time>
      </trkpt>
      <trkpt lat="43.238370" lon="-5.659000">
        <ele>746.058</ele>
        <time>2020-05-24T06:59:30Z</time>
      </trkpt>
      <trkpt lat="43.238420" lon="-5.659160">
        <ele>744.887</ele>
        <time>2020-05-24T06:59:50Z</time>
      </trkpt>
      <trkpt lat="43.238430" lon="-5.659270">
        <ele>743.418</ele>
        <time>2020-05-24T07:00:10Z</time>
      </trkpt>
      <trkpt lat="43.238440" lon="-5.659350">
        <ele>742.827</ele>
        <time>2020-05-24T07:00:30Z</time>
      </trkpt>
      <trkpt lat="43.238430" lon="-5.659520">
        <ele>739.930</ele>
        <time>2020-05-24T07:00:50Z</time>
      </trkpt>
      <trkpt lat="43.238420" lon="-5.659710">
        <ele>737.957</ele>
        <time>2020-05-24T07:01:10Z</time>
      </trkpt>
      <trkpt lat="43.238400" lon="-5.659920">
        <ele>735.200</ele>
        <time>2020-05-24T07:01:30Z</time>
      </trkpt>
      <trkpt lat="43.238390" lon="-5.660010">
        <ele>734.020</ele>
        <time>2020-05-24T07:01:50Z</time>
      </trkpt>
      <trkpt lat="43.238370" lon="-5.660250">
        <ele>731.508</ele>
        <time>2020-05-24T07:02:10Z</time>
      </trkpt>
      <trkpt lat="43.238350" lon="-5.660500">
        <ele>728.359</ele>
        <time>2020-05-24T07:02:30Z</time>
      </trkpt>
      <trkpt lat="43.238350" lon="-5.660520">
        <ele>728.224</ele>
        <time>2020-05-24T07:02:50Z</time>
      </trkpt>
      <trkpt lat="43.238340" lon="-5.660620">
        <ele>726.611</ele>
        <time>2020-05-24T07:03:10Z</time>
      </trkpt>
      <trkpt lat="43.238340" lon="-5.660700">
        <ele>725.747</ele>
        <time>2020-05-24T07:03:30Z</time>
      </trkpt>
      <trkpt lat="43.238350" lon="-5.660740">
        <ele>725.776</ele>
        <time>2020-05-24T07:03:50Z</time>
      </trkpt>
      <trkpt lat="43.238350" lon="-5.660770">
        <ele>725.317</ele>
        <time>2020-05-24T07:04:10Z</time>
      </trkpt>
      <trkpt lat="43.238370" lon="-5.660840">
        <ele>725.056</ele>
        <time>2020-05-24T07:04:30Z</time>
      </trkpt>
      <trkpt lat="43.238400" lon="-5.660890">
        <ele>724.289</ele>
        <time>2020-05-24T07:04:50Z</time>
      </trkpt>
      <trkpt lat="43.238450" lon="-5.660940">
        <ele>723.898</ele>
        <time>2020-05-24T07:05:10Z</time>
      </trkpt>
      <trkpt lat="43.238520" lon="-5.661000">
        <ele>723.415</ele>
        <time>2020-05-24T07:05:30Z</time>
      </trkpt>
      <trkpt lat="43.238600" lon="-5.661060">
        <ele>722.926</ele>
        <time>2020-05-24T07:05:50Z</time>
      </trkpt>
      <trkpt lat="43.238610" lon="-5.661060">
        <ele>723.208</ele>
        <time>2020-05-24T07:06:10Z</time>
      </trkpt>
      <trkpt lat="43.238690" lon="-5.661120">
        <ele>722.333</ele>
        <time>2020-05-24T07:06:30Z</time>
      </trkpt>
      <trkpt lat="43.238780" lon="-5.661170">
        <ele>722.088</ele>
        <time>2020-05-24T07:06:50Z</time>
      </trkpt>
      <trkpt lat="43.238860" lon="-5.661220">
        <ele>721.365</ele>
        <time>2020-05-24T07:07:10Z</time>
      </trkpt>
      <trkpt lat="43.238930" lon="-5.661250">
        <ele>722.091</ele>
        <time>2020-05-24T07:07:30Z</time>
      </trkpt>
      <trkpt lat="43.238950" lon="-5.661260">
        <ele>722.210</ele>
        <time>2020-05-24T07:07:50Z</time>
      </trkpt>
      <trkpt lat="43.239030" lon="-5.661310">
        <ele>723.051</ele>
        <time>2020-05-24T07:08:10Z</time>
      </trkpt>
      <trkpt lat="43.239070" lon="-5.661370">
        <ele>722.010</ele>
        <time>2020-05-24T07:08:30Z</time>
      </trkpt>
      <trkpt lat="43.239110" lon="-5.661440">
        <ele>721.063</ele>
        <time>2020-05-24T07:08:50Z</time>
      </trkpt>
      <trkpt lat="43.239140" lon="-5.661550">
        <ele>718.523</ele>
        <time>2020-05-24T07:09:10Z</time>
      </trkpt>
      <trkpt lat="43.239160" lon="-5.661610">
        <ele>717.583</ele>
        <time>2020-05-24T07:09:30Z</time>
      </trkpt>
      <trkpt lat="43.239190" lon="-5.661700">
        <ele>716.211</ele>
        <time>2020-05-24T07:09:50Z</time>
      </trkpt>
      <trkpt lat="43.239230" lon="-5.661830">
        <ele>714.308</ele>
        <time>2020-05-24T07:10:10Z</time>
      </trkpt>
      <trkpt lat="43.239230" lon="-5.661860">
        <ele>713.366</ele>
        <time>2020-05-24T07:10:30Z</time>
      </trkpt>
      <trkpt lat="43.239260" lon="-5.661980">
        <ele>711.191</ele>
        <time>2020-05-24T07:10:50Z</time>
      </trkpt>
      <trkpt lat="43.239290" lon="-5.662070">
        <ele>709.448</ele>
        <time>2020-05-24T07:11:10Z</time>
      </trkpt>
      <trkpt lat="43.239290" lon="-5.662080">
        <ele>709.134</ele>
        <time>2020-05-24T07:11:30Z</time>
      </trkpt>
      <trkpt lat="43.239310" lon="-5.662160">
        <ele>707.123</ele>
        <time>2020-05-24T07:11:50Z</time>
      </trkpt>
      <trkpt lat="43.239340" lon="-5.662210">
        <ele>706.654</ele>
        <time>2020-05-24T07:12:10Z</time>
      </trkpt>
      <trkpt lat="43.239380" lon="-5.662250">
        <ele>706.623</ele>
        <time>2020-05-24T07:12:30Z</time>
      </trkpt>
      <trkpt lat="43.239420" lon="-5.662280">
        <ele>706.846</ele>
        <time>2020-05-24T07:12:50Z</time>
      </trkpt>
      <trkpt lat="43.239460" lon="-5.662290">
        <ele>707.154</ele>
        <time>2020-05-24T07:13:10Z</time>
      </trkpt>
      <trkpt lat="43.239500" lon="-5.662290">
        <ele>706.656</ele>
        <time>2020-05-24T07:13:30Z</time>
      </trkpt>
      <trkpt lat="43.239540" lon="-5.662280">
        <ele>706.611</ele>
        <time>2020-05-24T07:13:50Z</time>
      </trkpt>
      <trkpt lat="43.239560" lon="-5.662260">
        <ele>707.408</ele>
        <time>2020-05-24T07:14:10Z</time>
      </trkpt>
      <trkpt lat="43.239600" lon="-5.662230">
        <ele>708.499</ele>
        <time>2020-05-24T07:14:30Z</time>
      </trkpt>
      <trkpt lat="43.239670" lon="-5.662160">
        <ele>710.354</ele>
        <time>2020-05-24T07:14:50Z</time>
      </trkpt>
      <trkpt lat="43.239850" lon="-5.661980">
        <ele>709.631</ele>
        <time>2020-05-24T07:15:10Z</time>
      </trkpt>
      <trkpt lat="43.239940" lon="-5.661870">
        <ele>708.957</ele>
        <time>2020-05-24T07:15:30Z</time>
      </trkpt>
      <trkpt lat="43.240100" lon="-5.661680">
        <ele>706.086</ele>
        <time>2020-05-24T07:15:50Z</time>
      </trkpt>
      <trkpt lat="43.240120" lon="-5.661640">
        <ele>705.987</ele>
        <time>2020-05-24T07:16:10Z</time>
      </trkpt>
      <trkpt lat="43.240180" lon="-5.661560">
        <ele>704.356</ele>
        <time>2020-05-24T07:16:30Z</time>
      </trkpt>
      <trkpt lat="43.240240" lon="-5.661460">
        <ele>703.319</ele>
        <time>2020-05-24T07:16:50Z</time>
      </trkpt>
      <trkpt lat="43.240270" lon="-5.661430">
        <ele>702.364</ele>
        <time>2020-05-24T07:17:10Z</time>
      </trkpt>
      <trkpt lat="43.240400" lon="-5.661260">
        <ele>704.506</ele>
        <time>2020-05-24T07:17:30Z</time>
      </trkpt>
      <trkpt lat="43.240510" lon="-5.661140">
        <ele>706.016</ele>
        <time>2020-05-24T07:17:50Z</time>
      </trkpt>
      <trkpt lat="43.240550" lon="-5.661120">
        <ele>705.808</ele>
        <time>2020-05-24T07:18:10Z</time>
      </trkpt>
      <trkpt lat="43.240590" lon="-5.661130">
        <ele>707.460</ele>
        <time>2020-05-24T07:18:30Z</time>
      </trkpt>
      <trkpt lat="43.240620" lon="-5.661170">
        <ele>707.815</ele>
        <time>2020-05-24T07:18:50Z</time>
      </trkpt>
      <trkpt lat="43.240640" lon="-5.661250">
        <ele>706.362</ele>
        <time>2020-05-24T07:19:10Z</time>
      </trkpt>
      <trkpt lat="43.240650" lon="-5.661270">
        <ele>706.138</ele>
        <time>2020-05-24T07:19:30Z</time>
      </trkpt>
      <trkpt lat="43.240670" lon="-5.661350">
        <ele>704.367</ele>
        <time>2020-05-24T07:19:50Z</time>
      </trkpt>
      <trkpt lat="43.240690" lon="-5.661430">
        <ele>702.248</ele>
        <time>2020-05-24T07:20:10Z</time>
      </trkpt>
      <trkpt lat="43.240710" lon="-5.661490">
        <ele>700.687</ele>
        <time>2020-05-24T07:20:30Z</time>
      </trkpt>
      <trkpt lat="43.240750" lon="-5.661570">
        <ele>699.080</ele>
        <time>2020-05-24T07:20:50Z</time>
      </trkpt>
      <trkpt lat="43.240790" lon="-5.661650">
        <ele>697.138</ele>
        <time>2020-05-24T07:21:10Z</time>
      </trkpt>
      <trkpt lat="43.240810" lon="-5.661680">
        <ele>696.770</ele>
        <time>2020-05-24T07:21:30Z</time>
      </trkpt>
      <trkpt lat="43.240840" lon="-5.661740">
        <ele>696.017</ele>
        <time>2020-05-24T07:21:50Z</time>
      </trkpt>
      <trkpt lat="43.240880" lon="-5.661820">
        <ele>695.308</ele>
        <time>2020-05-24T07:22:10Z</time>
      </trkpt>
      <trkpt lat="43.240910" lon="-5.661890">
        <ele>694.137</ele>
        <time>2020-05-24T07:22:30Z</time>
      </trkpt>
      <trkpt lat="43.240920" lon="-5.661920">
        <ele>693.482</ele>
        <time>2020-05-24T07:22:50Z</time>
      </trkpt>
      <trkpt lat="43.240950" lon="-5.661990">
        <ele>691.719</ele>
        <time>2020-05-24T07:23:10Z</time>
      </trkpt>
      <trkpt lat="43.241000" lon="-5.662050">
        <ele>691.225</ele>
        <time>2020-05-24T07:23:30Z</time>
      </trkpt>
      <trkpt lat="43.241030" lon="-5.662070">
        <ele>691.574</ele>
        <time>2020-05-24T07:23:50Z</time>
      </trkpt>
      <trkpt lat="43.241060" lon="-5.662090">
        <ele>691.865</ele>
        <time>2020-05-24T07:24:10Z</time>
      </trkpt>
      <trkpt lat="43.241140" lon="-5.662120">
        <ele>692.894</ele>
        <time>2020-05-24T07:24:30Z</time>
      </trkpt>
      <trkpt lat="43.241200" lon="-5.662140">
        <ele>692.797</ele>
        <time>2020-05-24T07:24:50Z</time>
      </trkpt>
      <trkpt lat="43.241250" lon="-5.662150">
        <ele>692.934</ele>
        <time>2020-05-24T07:25:10Z</time>
      </trkpt>
      <trkpt lat="43.241350" lon="-5.662180">
        <ele>692.755</ele>
        <time>2020-05-24T07:25:30Z</time>
      </trkpt>
      <trkpt lat="43.241460" lon="-5.662230">
        <ele>692.810</ele>
        <time>2020-05-24T07:25:50Z</time>
      </trkpt>
      <trkpt lat="43.241540" lon="-5.662270">
        <ele>693.708</ele>
        <time>2020-05-24T07:26:10Z</time>
      </trkpt>
      <trkpt lat="43.241600" lon="-5.662310">
        <ele>694.367</ele>
        <time>2020-05-24T07:26:30Z</time>
      </trkpt>
      <trkpt lat="43.241660" lon="-5.662370">
        <ele>694.562</ele>
        <time>2020-05-24T07:26:50Z</time>
      </trkpt>
      <trkpt lat="43.241680" lon="-5.662420">
        <ele>694.189</ele>
        <time>2020-05-24T07:27:10Z</time>
      </trkpt>
      <trkpt lat="43.241700" lon="-5.662440">
        <ele>694.815</ele>
        <time>2020-05-24T07:27:30Z</time>
      </trkpt>
      <trkpt lat="43.241710" lon="-5.662520">
        <ele>693.824</ele>
        <time>2020-05-24T07:27:50Z</time>
      </trkpt>
      <trkpt lat="43.241710" lon="-5.662600">
        <ele>694.355</ele>
        <time>2020-05-24T07:28:10Z</time>
      </trkpt>
      <trkpt lat="43.241690" lon="-5.662650">
        <ele>693.514</ele>
        <time>2020-05-24T07:28:30Z</time>
      </trkpt>
      <trkpt lat="43.241670" lon="-5.662690">
        <ele>692.617</ele>
        <time>2020-05-24T07:28:50Z</time>
      </trkpt>
      <trkpt lat="43.241610" lon="-5.662800">
        <ele>690.247</ele>
        <time>2020-05-24T07:29:10Z</time>
      </trkpt>
      <trkpt lat="43.241580" lon="-5.662860">
        <ele>689.729</ele>
        <time>2020-05-24T07:29:30Z</time>
      </trkpt>
      <trkpt lat="43.241550" lon="-5.662910">
        <ele>688.821</ele>
        <time>2020-05-24T07:29:50Z</time>
      </trkpt>
      <trkpt lat="43.241490" lon="-5.663070">
        <ele>687.608</ele>
        <time>2020-05-24T07:30:10Z</time>
      </trkpt>
      <trkpt lat="43.241430" lon="-5.663220">
        <ele>686.538</ele>
        <time>2020-05-24T07:30:30Z</time>
      </trkpt>
      <trkpt lat="43.241360" lon="-5.663360">
        <ele>683.973</ele>
        <time>2020-05-24T07:30:50Z</time>
      </trkpt>
      <trkpt lat="43.241310" lon="-5.663500">
        <ele>681.340</ele>
        <time>2020-05-24T07:31:10Z</time>
      </trkpt>
      <trkpt lat="43.241300" lon="-5.663530">
        <ele>680.886</ele>
        <time>2020-05-24T07:31:30Z</time>
      </trkpt>
      <trkpt lat="43.241300" lon="-5.663660">
        <ele>681.125</ele>
        <time>2020-05-24T07:31:50Z</time>
      </trkpt>
      <trkpt lat="43.241290" lon="-5.663780">
        <ele>679.366</ele>
        <time>2020-05-24T07:32:10Z</time>
      </trkpt>
      <trkpt lat="43.241310" lon="-5.663940">
        <ele>678.945</ele>
        <time>2020-05-24T07:32:30Z</time>
      </trkpt>
      <trkpt lat="43.241320" lon="-5.663980">
        <ele>679.118</ele>
        <time>2020-05-24T07:32:50Z</time>
      </trkpt>
      <trkpt lat="43.241350" lon="-5.664120">
        <ele>679.553</ele>
        <time>2020-05-24T07:33:10Z</time>
      </trkpt>
      <trkpt lat="43.241350" lon="-5.664200">
        <ele>678.904</ele>
        <time>2020-05-24T07:33:30Z</time>
      </trkpt>
      <trkpt lat="43.241350" lon="-5.664300">
        <ele>678.814</ele>
        <time>2020-05-24T07:33:50Z</time>
      </trkpt>
      <trkpt lat="43.241330" lon="-5.664430">
        <ele>677.408</ele>
        <time>2020-05-24T07:34:10Z</time>
      </trkpt>
      <trkpt lat="43.241300" lon="-5.664490">
        <ele>676.819</ele>
        <time>2020-05-24T07:34:30Z</time>
      </trkpt>
      <trkpt lat="43.241270" lon="-5.664570">
        <ele>677.374</ele>
        <time>2020-05-24T07:34:50Z</time>
      </trkpt>
      <trkpt lat="43.241220" lon="-5.664630">
        <ele>676.251</ele>
        <time>2020-05-24T07:35:10Z</time>
      </trkpt>
      <trkpt lat="43.241200" lon="-5.664650">
        <ele>675.617</ele>
        <time>2020-05-24T07:35:30Z</time>
      </trkpt>
      <trkpt lat="43.241130" lon="-5.664720">
        <ele>673.926</ele>
        <time>2020-05-24T07:35:50Z</time>
      </trkpt>
      <trkpt lat="43.240990" lon="-5.664800">
        <ele>670.227</ele>
        <time>2020-05-24T07:36:10Z</time>
      </trkpt>
      <trkpt lat="43.240930" lon="-5.664860">
        <ele>669.036</ele>
        <time>2020-05-24T07:36:30Z</time>
      </trkpt>
      <trkpt lat="43.240860" lon="-5.664960">
        <ele>667.749</ele>
        <time>2020-05-24T07:36:50Z</time>
      </trkpt>
      <trkpt lat="43.240810" lon="-5.665080">
        <ele>665.657</ele>
        <time>2020-05-24T07:37:10Z</time>
      </trkpt>
      <trkpt lat="43.240800" lon="-5.665110">
        <ele>665.000</ele>
        <time>2020-05-24T07:37:30Z</time>
      </trkpt>
      <trkpt lat="43.240770" lon="-5.665240">
        <ele>663.520</ele>
        <time>2020-05-24T07:37:50Z</time>
      </trkpt>
      <trkpt lat="43.240760" lon="-5.665350">
        <ele>662.508</ele>
        <time>2020-05-24T07:38:10Z</time>
      </trkpt>
      <trkpt lat="43.240750" lon="-5.665430">
        <ele>661.359</ele>
        <time>2020-05-24T07:38:30Z</time>
      </trkpt>
      <trkpt lat="43.240760" lon="-5.665590">
        <ele>660.314</ele>
        <time>2020-05-24T07:38:50Z</time>
      </trkpt>
      <trkpt lat="43.240760" lon="-5.665610">
        <ele>660.011</ele>
        <time>2020-05-24T07:39:10Z</time>
      </trkpt>
      <trkpt lat="43.240790" lon="-5.665750">
        <ele>659.027</ele>
        <time>2020-05-24T07:39:30Z</time>
      </trkpt>
      <trkpt lat="43.240820" lon="-5.665820">
        <ele>658.886</ele>
        <time>2020-05-24T07:39:50Z</time>
      </trkpt>
      <trkpt lat="43.240840" lon="-5.665860">
        <ele>658.447</ele>
        <time>2020-05-24T07:40:10Z</time>
      </trkpt>
      <trkpt lat="43.240910" lon="-5.665950">
        <ele>657.246</ele>
        <time>2020-05-24T07:40:30Z</time>
      </trkpt>
      <trkpt lat="43.241050" lon="-5.666060">
        <ele>656.579</ele>
        <time>2020-05-24T07:40:50Z</time>
      </trkpt>
      <trkpt lat="43.241110" lon="-5.666100">
        <ele>656.399</ele>
        <time>2020-05-24T07:41:10Z</time>
      </trkpt>
      <trkpt lat="43.241180" lon="-5.666140">
        <ele>655.407</ele>
        <time>2020-05-24T07:41:30Z</time>
      </trkpt>
      <trkpt lat="43.241310" lon="-5.666190">
        <ele>654.027</ele>
        <time>2020-05-24T07:41:50Z</time>
      </trkpt>
      <trkpt lat="43.241460" lon="-5.666200">
        <ele>654.208</ele>
        <time>2020-05-24T07:42:10Z</time>
      </trkpt>
      <trkpt lat="43.241550" lon="-5.666200">
        <ele>654.613</ele>
        <time>2020-05-24T07:42:30Z</time>
      </trkpt>
      <trkpt lat="43.241610" lon="-5.666200">
        <ele>654.958</ele>
        <time>2020-05-24T07:42:50Z</time>
      </trkpt>
      <trkpt lat="43.241640" lon="-5.666200">
        <ele>655.025</ele>
        <time>2020-05-24T07:43:10Z</time>
      </trkpt>
      <trkpt lat="43.241700" lon="-5.666210">
        <ele>655.731</ele>
        <time>2020-05-24T07:43:30Z</time>
      </trkpt>
      <trkpt lat="43.241770" lon="-5.666230">
        <ele>657.160</ele>
        <time>2020-05-24T07:43:50Z</time>
      </trkpt>
      <trkpt lat="43.241830" lon="-5.666270">
        <ele>657.751</ele>
        <time>2020-05-24T07:44:10Z</time>
      </trkpt>
      <trkpt lat="43.241870" lon="-5.666320">
        <ele>657.720</ele>
        <time>2020-05-24T07:44:30Z</time>
      </trkpt>
      <trkpt lat="43.241880" lon="-5.666380">
        <ele>656.553</ele>
        <time>2020-05-24T07:44:50Z</time>
      </trkpt>
      <trkpt lat="43.241880" lon="-5.666470">
        <ele>655.168</ele>
        <time>2020-05-24T07:45:10Z</time>
      </trkpt>
      <trkpt lat="43.241880" lon="-5.666480">
        <ele>654.942</ele>
        <time>2020-05-24T07:45:30Z</time>
      </trkpt>
      <trkpt lat="43.241870" lon="-5.666540">
        <ele>653.626</ele>
        <time>2020-05-24T07:45:50Z</time>
      </trkpt>
      <trkpt lat="43.241850" lon="-5.666670">
        <ele>650.508</ele>
        <time>2020-05-24T07:46:10Z</time>
      </trkpt>
      <trkpt lat="43.241830" lon="-5.666820">
        <ele>648.340</ele>
        <time>2020-05-24T07:46:30Z</time>
      </trkpt>
      <trkpt lat="43.241830" lon="-5.666950">
        <ele>647.445</ele>
        <time>2020-05-24T07:46:50Z</time>
      </trkpt>
      <trkpt lat="43.241800" lon="-5.667140">
        <ele>644.732</ele>
        <time>2020-05-24T07:47:10Z</time>
      </trkpt>
      <trkpt lat="43.241800" lon="-5.667200">
        <ele>644.428</ele>
        <time>2020-05-24T07:47:30Z</time>
      </trkpt>
      <trkpt lat="43.241790" lon="-5.667320">
        <ele>642.567</ele>
        <time>2020-05-24T07:47:50Z</time>
      </trkpt>
      <trkpt lat="43.241800" lon="-5.667450">
        <ele>641.458</ele>
        <time>2020-05-24T07:48:10Z</time>
      </trkpt>
      <trkpt lat="43.241800" lon="-5.667460">
        <ele>641.287</ele>
        <time>2020-05-24T07:48:30Z</time>
      </trkpt>
      <trkpt lat="43.241820" lon="-5.667540">
        <ele>640.950</ele>
        <time>2020-05-24T07:48:50Z</time>
      </trkpt>
      <trkpt lat="43.241840" lon="-5.667650">
        <ele>639.697</ele>
        <time>2020-05-24T07:49:10Z</time>
      </trkpt>
      <trkpt lat="43.241870" lon="-5.667740">
        <ele>639.523</ele>
        <time>2020-05-24T07:49:30Z</time>
      </trkpt>
      <trkpt lat="43.241900" lon="-5.667840">
        <ele>639.125</ele>
        <time>2020-05-24T07:49:50Z</time>
      </trkpt>
      <trkpt lat="43.241920" lon="-5.667940">
        <ele>638.108</ele>
        <time>2020-05-24T07:50:10Z</time>
      </trkpt>
      <trkpt lat="43.241940" lon="-5.668000">
        <ele>637.973</ele>
        <time>2020-05-24T07:50:30Z</time>
      </trkpt>
      <trkpt lat="43.241930" lon="-5.668040">
        <ele>636.568</ele>
        <time>2020-05-24T07:50:50Z</time>
      </trkpt>
      <trkpt lat="43.241900" lon="-5.668050">
        <ele>634.655</ele>
        <time>2020-05-24T07:51:10Z</time>
      </trkpt>
      <trkpt lat="43.241850" lon="-5.668040">
        <ele>631.921</ele>
        <time>2020-05-24T07:51:30Z</time>
      </trkpt>
      <trkpt lat="43.241820" lon="-5.667990">
        <ele>631.280</ele>
        <time>2020-05-24T07:51:50Z</time>
      </trkpt>
      <trkpt lat="43.241800" lon="-5.667910">
        <ele>631.871</ele>
        <time>2020-05-24T07:52:10Z</time>
      </trkpt>
      <trkpt lat="43.241750" lon="-5.667800">
        <ele>631.350</ele>
        <time>2020-05-24T07:52:30Z</time>
      </trkpt>
      <trkpt lat="43.241690" lon="-5.667660">
        <ele>631.213</ele>
        <time>2020-05-24T07:52:50Z</time>
      </trkpt>
      <trkpt lat="43.241670" lon="-5.667610">
        <ele>631.494</ele>
        <time>2020-05-24T07:53:10Z</time>
      </trkpt>
      <trkpt lat="43.241620" lon="-5.667510">
        <ele>631.157</ele>
        <time>2020-05-24T07:53:30Z</time>
      </trkpt>
      <trkpt lat="43.241590" lon="-5.667400">
        <ele>630.822</ele>
        <time>2020-05-24T07:53:50Z</time>
      </trkpt>
      <trkpt lat="43.241580" lon="-5.667390">
        <ele>630.308</ele>
        <time>2020-05-24T07:54:10Z</time>
      </trkpt>
      <trkpt lat="43.241560" lon="-5.667280">
        <ele>630.443</ele>
        <time>2020-05-24T07:54:30Z</time>
      </trkpt>
      <trkpt lat="43.241550" lon="-5.667180">
        <ele>630.648</ele>
        <time>2020-05-24T07:54:50Z</time>
      </trkpt>
      <trkpt lat="43.241560" lon="-5.667160">
        <ele>631.325</ele>
        <time>2020-05-24T07:55:10Z</time>
      </trkpt>
      <trkpt lat="43.241560" lon="-5.667050">
        <ele>631.871</ele>
        <time>2020-05-24T07:55:30Z</time>
      </trkpt>
      <trkpt lat="43.241550" lon="-5.666960">
        <ele>631.650</ele>
        <time>2020-05-24T07:55:50Z</time>
      </trkpt>
      <trkpt lat="43.241540" lon="-5.666910">
        <ele>631.741</ele>
        <time>2020-05-24T07:56:10Z</time>
      </trkpt>
      <trkpt lat="43.241530" lon="-5.666850">
        <ele>632.370</ele>
        <time>2020-05-24T07:56:30Z</time>
      </trkpt>
      <trkpt lat="43.241490" lon="-5.666770">
        <ele>632.133</ele>
        <time>2020-05-24T07:56:50Z</time>
      </trkpt>
      <trkpt lat="43.241440" lon="-5.666750">
        <ele>630.674</ele>
        <time>2020-05-24T07:57:10Z</time>
      </trkpt>
      <trkpt lat="43.241430" lon="-5.666750">
        <ele>630.256</ele>
        <time>2020-05-24T07:57:30Z</time>
      </trkpt>
      <trkpt lat="43.241380" lon="-5.666760">
        <ele>628.421</ele>
        <time>2020-05-24T07:57:50Z</time>
      </trkpt>
      <trkpt lat="43.241300" lon="-5.666790">
        <ele>627.708</ele>
        <time>2020-05-24T07:58:10Z</time>
      </trkpt>
      <trkpt lat="43.241260" lon="-5.666810">
        <ele>627.151</ele>
        <time>2020-05-24T07:58:30Z</time>
      </trkpt>
      <trkpt lat="43.241200" lon="-5.666840">
        <ele>625.926</ele>
        <time>2020-05-24T07:58:50Z</time>
      </trkpt>
      <trkpt lat="43.241090" lon="-5.666880">
        <ele>623.933</ele>
        <time>2020-05-24T07:59:10Z</time>
      </trkpt>
      <trkpt lat="43.241010" lon="-5.666890">
        <ele>622.899</ele>
        <time>2020-05-24T07:59:30Z</time>
      </trkpt>
      <trkpt lat="43.240930" lon="-5.666900">
        <ele>621.888</ele>
        <time>2020-05-24T07:59:50Z</time>
      </trkpt>
      <trkpt lat="43.240840" lon="-5.666900">
        <ele>621.129</ele>
        <time>2020-05-24T08:00:10Z</time>
      </trkpt>
      <trkpt lat="43.240760" lon="-5.666900">
        <ele>620.168</ele>
        <time>2020-05-24T08:00:30Z</time>
      </trkpt>
      <trkpt lat="43.240670" lon="-5.666890">
        <ele>619.341</ele>
        <time>2020-05-24T08:00:50Z</time>
      </trkpt>
      <trkpt lat="43.240650" lon="-5.666890">
        <ele>619.134</ele>
        <time>2020-05-24T08:01:10Z</time>
      </trkpt>
      <trkpt lat="43.240580" lon="-5.666890">
        <ele>618.155</ele>
        <time>2020-05-24T08:01:30Z</time>
      </trkpt>
      <trkpt lat="43.240500" lon="-5.666860">
        <ele>617.010</ele>
        <time>2020-05-24T08:01:50Z</time>
      </trkpt>
      <trkpt lat="43.240480" lon="-5.666850">
        <ele>616.708</ele>
        <time>2020-05-24T08:02:10Z</time>
      </trkpt>
      <trkpt lat="43.240420" lon="-5.666830">
        <ele>615.477</ele>
        <time>2020-05-24T08:02:30Z</time>
      </trkpt>
      <trkpt lat="43.240360" lon="-5.666770">
        <ele>615.182</ele>
        <time>2020-05-24T08:02:50Z</time>
      </trkpt>
      <trkpt lat="43.240300" lon="-5.666720">
        <ele>614.419</ele>
        <time>2020-05-24T08:03:10Z</time>
      </trkpt>
      <trkpt lat="43.240230" lon="-5.666650">
        <ele>613.715</ele>
        <time>2020-05-24T08:03:30Z</time>
      </trkpt>
      <trkpt lat="43.240170" lon="-5.666590">
        <ele>613.164</ele>
        <time>2020-05-24T08:03:50Z</time>
      </trkpt>
      <trkpt lat="43.240160" lon="-5.666570">
        <ele>613.275</ele>
        <time>2020-05-24T08:04:10Z</time>
      </trkpt>
      <trkpt lat="43.240100" lon="-5.666500">
        <ele>612.674</ele>
        <time>2020-05-24T08:04:30Z</time>
      </trkpt>
      <trkpt lat="43.240050" lon="-5.666410">
        <ele>612.757</ele>
        <time>2020-05-24T08:04:50Z</time>
      </trkpt>
      <trkpt lat="43.240010" lon="-5.666330">
        <ele>612.165</ele>
        <time>2020-05-24T08:05:10Z</time>
      </trkpt>
      <trkpt lat="43.239970" lon="-5.666220">
        <ele>611.368</ele>
        <time>2020-05-24T08:05:30Z</time>
      </trkpt>
      <trkpt lat="43.239960" lon="-5.666200">
        <ele>611.014</ele>
        <time>2020-05-24T08:05:50Z</time>
      </trkpt>
      <trkpt lat="43.239940" lon="-5.666120">
        <ele>610.708</ele>
        <time>2020-05-24T08:06:10Z</time>
      </trkpt>
      <trkpt lat="43.239920" lon="-5.665980">
        <ele>610.730</ele>
        <time>2020-05-24T08:06:30Z</time>
      </trkpt>
      <trkpt lat="43.239920" lon="-5.665960">
        <ele>610.835</ele>
        <time>2020-05-24T08:06:50Z</time>
      </trkpt>
      <trkpt lat="43.239900" lon="-5.665860">
        <ele>610.372</ele>
        <time>2020-05-24T08:07:10Z</time>
      </trkpt>
      <trkpt lat="43.239900" lon="-5.665760">
        <ele>610.468</ele>
        <time>2020-05-24T08:07:30Z</time>
      </trkpt>
      <trkpt lat="43.239880" lon="-5.665610">
        <ele>608.967</ele>
        <time>2020-05-24T08:07:50Z</time>
      </trkpt>
      <trkpt lat="43.239880" lon="-5.665480">
        <ele>608.268</ele>
        <time>2020-05-24T08:08:10Z</time>
      </trkpt>
      <trkpt lat="43.239870" lon="-5.665380">
        <ele>606.857</ele>
        <time>2020-05-24T08:08:30Z</time>
      </trkpt>
      <trkpt lat="43.239870" lon="-5.665360">
        <ele>606.730</ele>
        <time>2020-05-24T08:08:50Z</time>
      </trkpt>
      <trkpt lat="43.239860" lon="-5.665300">
        <ele>605.673</ele>
        <time>2020-05-24T08:09:10Z</time>
      </trkpt>
      <trkpt lat="43.239850" lon="-5.665230">
        <ele>604.485</ele>
        <time>2020-05-24T08:09:30Z</time>
      </trkpt>
      <trkpt lat="43.239850" lon="-5.665180">
        <ele>604.013</ele>
        <time>2020-05-24T08:09:50Z</time>
      </trkpt>
      <trkpt lat="43.239860" lon="-5.665110">
        <ele>604.208</ele>
        <time>2020-05-24T08:10:10Z</time>
      </trkpt>
      <trkpt lat="43.239880" lon="-5.665040">
        <ele>605.151</ele>
        <time>2020-05-24T08:10:30Z</time>
      </trkpt>
      <trkpt lat="43.239910" lon="-5.664960">
        <ele>606.286</ele>
        <time>2020-05-24T08:10:50Z</time>
      </trkpt>
      <trkpt lat="43.239960" lon="-5.664810">
        <ele>606.913</ele>
        <time>2020-05-24T08:11:10Z</time>
      </trkpt>
      <trkpt lat="43.240000" lon="-5.664670">
        <ele>607.189</ele>
        <time>2020-05-24T08:11:30Z</time>
      </trkpt>
      <trkpt lat="43.240000" lon="-5.664660">
        <ele>606.968</ele>
        <time>2020-05-24T08:11:50Z</time>
      </trkpt>
      <trkpt lat="43.240030" lon="-5.664550">
        <ele>606.849</ele>
        <time>2020-05-24T08:12:10Z</time>
      </trkpt>
      <trkpt lat="43.240040" lon="-5.664450">
        <ele>605.778</ele>
        <time>2020-05-24T08:12:30Z</time>
      </trkpt>
      <trkpt lat="43.240050" lon="-5.664420">
        <ele>605.931</ele>
        <time>2020-05-24T08:12:50Z</time>
      </trkpt>
      <trkpt lat="43.240050" lon="-5.664390">
        <ele>605.576</ele>
        <time>2020-05-24T08:13:10Z</time>
      </trkpt>
      <trkpt lat="43.240060" lon="-5.664340">
        <ele>605.590</ele>
        <time>2020-05-24T08:13:30Z</time>
      </trkpt>
      <trkpt lat="43.240070" lon="-5.664290">
        <ele>605.419</ele>
        <time>2020-05-24T08:13:50Z</time>
      </trkpt>
      <trkpt lat="43.240070" lon="-5.664230">
        <ele>604.608</ele>
        <time>2020-05-24T08:14:10Z</time>
      </trkpt>
      <trkpt lat="43.240070" lon="-5.664180">
        <ele>604.091</ele>
        <time>2020-05-24T08:14:30Z</time>
      </trkpt>
      <trkpt lat="43.240070" lon="-5.664170">
        <ele>603.816</ele>
        <time>2020-05-24T08:14:50Z</time>
      </trkpt>
      <trkpt lat="43.240070" lon="-5.664120">
        <ele>604.543</ele>
        <time>2020-05-24T08:15:10Z</time>
      </trkpt>
      <trkpt lat="43.240060" lon="-5.664080">
        <ele>604.749</ele>
        <time>2020-05-24T08:15:30Z</time>
      </trkpt>
      <trkpt lat="43.240050" lon="-5.664070">
        <ele>604.438</ele>
        <time>2020-05-24T08:15:50Z</time>
      </trkpt>
      <trkpt lat="43.240030" lon="-5.664060">
        <ele>603.939</ele>
        <time>2020-05-24T08:16:10Z</time>
      </trkpt>
      <trkpt lat="43.240010" lon="-5.664050">
        <ele>603.338</ele>
        <time>2020-05-24T08:16:30Z</time>
      </trkpt>
      <trkpt lat="43.239990" lon="-5.664050">
        <ele>603.021</ele>
        <time>2020-05-24T08:16:50Z</time>
      </trkpt>
      <trkpt lat="43.239980" lon="-5.664060">
        <ele>602.851</ele>
        <time>2020-05-24T08:17:10Z</time>
      </trkpt>
      <trkpt lat="43.239960" lon="-5.664080">
        <ele>602.401</ele>
        <time>2020-05-24T08:17:30Z</time>
      </trkpt>
      <trkpt lat="43.239950" lon="-5.664090">
        <ele>602.111</ele>
        <time>2020-05-24T08:17:50Z</time>
      </trkpt>
      <trkpt lat="43.239954" lon="-5.664089">
        <ele>602.108</ele>
        <time>2020-05-24T08:18:10Z</time>
      </trkpt>
      <trkpt lat="43.239950" lon="-5.664100">
        <ele>601.899</ele>
        <time>2020-05-24T08:18:30Z</time>
      </trkpt>
      <trkpt lat="43.239940" lon="-5.664130">
        <ele>600.914</ele>
        <time>2020-05-24T08:18:50Z</time>
      </trkpt>
      <trkpt lat="43.239930" lon="-5.664200">
        <ele>599.751</ele>
        <time>2020-05-24T08:19:10Z</time>
      </trkpt>
      <trkpt lat="43.239920" lon="-5.664310">
        <ele>599.587</ele>
        <time>2020-05-24T08:19:30Z</time>
      </trkpt>
      <trkpt lat="43.239910" lon="-5.664410">
        <ele>598.946</ele>
        <time>2020-05-24T08:19:50Z</time>
      </trkpt>
      <trkpt lat="43.239900" lon="-5.664480">
        <ele>598.757</ele>
        <time>2020-05-24T08:20:10Z</time>
      </trkpt>
      <trkpt lat="43.239890" lon="-5.664530">
        <ele>598.896</ele>
        <time>2020-05-24T08:20:30Z</time>
      </trkpt>
      <trkpt lat="43.239880" lon="-5.664570">
        <ele>598.789</ele>
        <time>2020-05-24T08:20:50Z</time>
      </trkpt>
      <trkpt lat="43.239880" lon="-5.664580">
        <ele>598.835</ele>
        <time>2020-05-24T08:21:10Z</time>
      </trkpt>
      <trkpt lat="43.239850" lon="-5.664670">
        <ele>597.886</ele>
        <time>2020-05-24T08:21:30Z</time>
      </trkpt>
      <trkpt lat="43.239730" lon="-5.664940">
        <ele>593.714</ele>
        <time>2020-05-24T08:21:50Z</time>
      </trkpt>
      <trkpt lat="43.239710" lon="-5.665000">
        <ele>593.408</ele>
        <time>2020-05-24T08:22:10Z</time>
      </trkpt>
      <trkpt lat="43.239680" lon="-5.665070">
        <ele>592.337</ele>
        <time>2020-05-24T08:22:30Z</time>
      </trkpt>
      <trkpt lat="43.239630" lon="-5.665220">
        <ele>590.732</ele>
        <time>2020-05-24T08:22:50Z</time>
      </trkpt>
      <trkpt lat="43.239630" lon="-5.665230">
        <ele>590.729</ele>
        <time>2020-05-24T08:23:10Z</time>
      </trkpt>
      <trkpt lat="43.239570" lon="-5.665440">
        <ele>588.665</ele>
        <time>2020-05-24T08:23:30Z</time>
      </trkpt>
      <trkpt lat="43.239560" lon="-5.665450">
        <ele>588.114</ele>
        <time>2020-05-24T08:23:50Z</time>
      </trkpt>
      <trkpt lat="43.239510" lon="-5.665690">
        <ele>586.355</ele>
        <time>2020-05-24T08:24:10Z</time>
      </trkpt>
      <trkpt lat="43.239490" lon="-5.665780">
        <ele>585.454</ele>
        <time>2020-05-24T08:24:30Z</time>
      </trkpt>
      <trkpt lat="43.239460" lon="-5.665970">
        <ele>583.937</ele>
        <time>2020-05-24T08:24:50Z</time>
      </trkpt>
      <trkpt lat="43.239390" lon="-5.666300">
        <ele>580.253</ele>
        <time>2020-05-24T08:25:10Z</time>
      </trkpt>
      <trkpt lat="43.239370" lon="-5.666400">
        <ele>579.204</ele>
        <time>2020-05-24T08:25:30Z</time>
      </trkpt>
      <trkpt lat="43.239350" lon="-5.666490">
        <ele>578.214</ele>
        <time>2020-05-24T08:25:50Z</time>
      </trkpt>
      <trkpt lat="43.239320" lon="-5.666640">
        <ele>576.708</ele>
        <time>2020-05-24T08:26:10Z</time>
      </trkpt>
      <trkpt lat="43.239310" lon="-5.666700">
        <ele>575.799</ele>
        <time>2020-05-24T08:26:30Z</time>
      </trkpt>
      <trkpt lat="43.239300" lon="-5.666790">
        <ele>573.774</ele>
        <time>2020-05-24T08:26:50Z</time>
      </trkpt>
      <trkpt lat="43.239290" lon="-5.666830">
        <ele>572.791</ele>
        <time>2020-05-24T08:27:10Z</time>
      </trkpt>
      <trkpt lat="43.239300" lon="-5.666870">
        <ele>572.537</ele>
        <time>2020-05-24T08:27:30Z</time>
      </trkpt>
      <trkpt lat="43.239300" lon="-5.666880">
        <ele>572.386</ele>
        <time>2020-05-24T08:27:50Z</time>
      </trkpt>
      <trkpt lat="43.239320" lon="-5.666920">
        <ele>572.547</ele>
        <time>2020-05-24T08:28:10Z</time>
      </trkpt>
      <trkpt lat="43.239340" lon="-5.666950">
        <ele>572.766</ele>
        <time>2020-05-24T08:28:30Z</time>
      </trkpt>
      <trkpt lat="43.239360" lon="-5.666990">
        <ele>572.549</ele>
        <time>2020-05-24T08:28:50Z</time>
      </trkpt>
      <trkpt lat="43.239400" lon="-5.667030">
        <ele>573.134</ele>
        <time>2020-05-24T08:29:10Z</time>
      </trkpt>
      <trkpt lat="43.239450" lon="-5.667080">
        <ele>573.855</ele>
        <time>2020-05-24T08:29:30Z</time>
      </trkpt>
      <trkpt lat="43.239480" lon="-5.667100">
        <ele>574.310</ele>
        <time>2020-05-24T08:29:50Z</time>
      </trkpt>
      <trkpt lat="43.239510" lon="-5.667130">
        <ele>574.608</ele>
        <time>2020-05-24T08:30:10Z</time>
      </trkpt>
      <trkpt lat="43.239540" lon="-5.667170">
        <ele>574.727</ele>
        <time>2020-05-24T08:30:30Z</time>
      </trkpt>
      <trkpt lat="43.239550" lon="-5.667210">
        <ele>574.112</ele>
        <time>2020-05-24T08:30:50Z</time>
      </trkpt>
      <trkpt lat="43.239560" lon="-5.667220">
        <ele>574.299</ele>
        <time>2020-05-24T08:31:10Z</time>
      </trkpt>
      <trkpt lat="43.239560" lon="-5.667240">
        <ele>573.785</ele>
        <time>2020-05-24T08:31:30Z</time>
      </trkpt>
      <trkpt lat="43.239550" lon="-5.667270">
        <ele>572.744</ele>
        <time>2020-05-24T08:31:50Z</time>
      </trkpt>
      <trkpt lat="43.239540" lon="-5.667300">
        <ele>571.635</ele>
        <time>2020-05-24T08:32:10Z</time>
      </trkpt>
      <trkpt lat="43.239510" lon="-5.667310">
        <ele>570.234</ele>
        <time>2020-05-24T08:32:30Z</time>
      </trkpt>
      <trkpt lat="43.239490" lon="-5.667310">
        <ele>569.537</ele>
        <time>2020-05-24T08:32:50Z</time>
      </trkpt>
      <trkpt lat="43.239450" lon="-5.667290">
        <ele>568.581</ele>
        <time>2020-05-24T08:33:10Z</time>
      </trkpt>
      <trkpt lat="43.239430" lon="-5.667280">
        <ele>568.061</ele>
        <time>2020-05-24T08:33:30Z</time>
      </trkpt>
      <trkpt lat="43.239420" lon="-5.667270">
        <ele>567.817</ele>
        <time>2020-05-24T08:33:50Z</time>
      </trkpt>
      <trkpt lat="43.239370" lon="-5.667220">
        <ele>567.108</ele>
        <time>2020-05-24T08:34:10Z</time>
      </trkpt>
      <trkpt lat="43.239340" lon="-5.667170">
        <ele>567.292</ele>
        <time>2020-05-24T08:34:30Z</time>
      </trkpt>
      <trkpt lat="43.239310" lon="-5.667130">
        <ele>567.047</ele>
        <time>2020-05-24T08:34:50Z</time>
      </trkpt>
      <trkpt lat="43.239280" lon="-5.667080">
        <ele>567.154</ele>
        <time>2020-05-24T08:35:10Z</time>
      </trkpt>
      <trkpt lat="43.239250" lon="-5.667040">
        <ele>566.990</ele>
        <time>2020-05-24T08:35:30Z</time>
      </trkpt>
      <trkpt lat="43.239220" lon="-5.666990">
        <ele>567.089</ele>
        <time>2020-05-24T08:35:50Z</time>
      </trkpt>
      <trkpt lat="43.239180" lon="-5.666920">
        <ele>566.830</ele>
        <time>2020-05-24T08:36:10Z</time>
      </trkpt>
      <trkpt lat="43.239160" lon="-5.666840">
        <ele>566.849</ele>
        <time>2020-05-24T08:36:30Z</time>
      </trkpt>
      <trkpt lat="43.239120" lon="-5.666720">
        <ele>565.662</ele>
        <time>2020-05-24T08:36:50Z</time>
      </trkpt>
      <trkpt lat="43.239120" lon="-5.666690">
        <ele>565.955</ele>
        <time>2020-05-24T08:37:10Z</time>
      </trkpt>
      <trkpt lat="43.239110" lon="-5.666560">
        <ele>565.707</ele>
        <time>2020-05-24T08:37:30Z</time>
      </trkpt>
      <trkpt lat="43.239090" lon="-5.666350">
        <ele>564.817</ele>
        <time>2020-05-24T08:37:50Z</time>
      </trkpt>
      <trkpt lat="43.239090" lon="-5.666230">
        <ele>564.408</ele>
        <time>2020-05-24T08:38:10Z</time>
      </trkpt>
      <trkpt lat="43.239090" lon="-5.666200">
        <ele>564.459</ele>
        <time>2020-05-24T08:38:30Z</time>
      </trkpt>
      <trkpt lat="43.239090" lon="-5.666100">
        <ele>564.114</ele>
        <time>2020-05-24T08:38:50Z</time>
      </trkpt>
      <trkpt lat="43.239120" lon="-5.665980">
        <ele>565.351</ele>
        <time>2020-05-24T08:39:10Z</time>
      </trkpt>
      <trkpt lat="43.239120" lon="-5.665960">
        <ele>565.247</ele>
        <time>2020-05-24T08:39:30Z</time>
      </trkpt>
      <trkpt lat="43.239140" lon="-5.665870">
        <ele>565.976</ele>
        <time>2020-05-24T08:39:50Z</time>
      </trkpt>
      <trkpt lat="43.239150" lon="-5.665790">
        <ele>566.247</ele>
        <time>2020-05-24T08:40:10Z</time>
      </trkpt>
      <trkpt lat="43.239150" lon="-5.665730">
        <ele>566.226</ele>
        <time>2020-05-24T08:40:30Z</time>
      </trkpt>
      <trkpt lat="43.239150" lon="-5.665720">
        <ele>566.289</ele>
        <time>2020-05-24T08:40:50Z</time>
      </trkpt>
      <trkpt lat="43.239140" lon="-5.665680">
        <ele>565.845</ele>
        <time>2020-05-24T08:41:10Z</time>
      </trkpt>
      <trkpt lat="43.239130" lon="-5.665650">
        <ele>565.447</ele>
        <time>2020-05-24T08:41:30Z</time>
      </trkpt>
      <trkpt lat="43.239100" lon="-5.665630">
        <ele>564.111</ele>
        <time>2020-05-24T08:41:50Z</time>
      </trkpt>
      <trkpt lat="43.239070" lon="-5.665630">
        <ele>562.708</ele>
        <time>2020-05-24T08:42:10Z</time>
      </trkpt>
      <trkpt lat="43.239040" lon="-5.665650">
        <ele>561.428</ele>
        <time>2020-05-24T08:42:30Z</time>
      </trkpt>
      <trkpt lat="43.239030" lon="-5.665670">
        <ele>560.963</ele>
        <time>2020-05-24T08:42:50Z</time>
      </trkpt>
      <trkpt lat="43.239020" lon="-5.665690">
        <ele>560.440</ele>
        <time>2020-05-24T08:43:10Z</time>
      </trkpt>
      <trkpt lat="43.239010" lon="-5.665700">
        <ele>559.946</ele>
        <time>2020-05-24T08:43:30Z</time>
      </trkpt>
      <trkpt lat="43.239000" lon="-5.665740">
        <ele>559.415</ele>
        <time>2020-05-24T08:43:50Z</time>
      </trkpt>
      <trkpt lat="43.238990" lon="-5.665800">
        <ele>558.886</ele>
        <time>2020-05-24T08:44:10Z</time>
      </trkpt>
      <trkpt lat="43.238990" lon="-5.665840">
        <ele>558.795</ele>
        <time>2020-05-24T08:44:30Z</time>
      </trkpt>
      <trkpt lat="43.238980" lon="-5.665920">
        <ele>558.448</ele>
        <time>2020-05-24T08:44:50Z</time>
      </trkpt>
      <trkpt lat="43.238970" lon="-5.665980">
        <ele>558.049</ele>
        <time>2020-05-24T08:45:10Z</time>
      </trkpt>
      <trkpt lat="43.238970" lon="-5.666080">
        <ele>558.102</ele>
        <time>2020-05-24T08:45:30Z</time>
      </trkpt>
      <trkpt lat="43.238960" lon="-5.666220">
        <ele>557.722</ele>
        <time>2020-05-24T08:45:50Z</time>
      </trkpt>
      <trkpt lat="43.238940" lon="-5.666400">
        <ele>556.708</ele>
        <time>2020-05-24T08:46:10Z</time>
      </trkpt>
      <trkpt lat="43.238940" lon="-5.666410">
        <ele>556.688</ele>
        <time>2020-05-24T08:46:30Z</time>
      </trkpt>
      <trkpt lat="43.238930" lon="-5.666550">
        <ele>555.213</ele>
        <time>2020-05-24T08:46:50Z</time>
      </trkpt>
      <trkpt lat="43.238920" lon="-5.666630">
        <ele>554.180</ele>
        <time>2020-05-24T08:47:10Z</time>
      </trkpt>
      <trkpt lat="43.238920" lon="-5.666770">
        <ele>553.496</ele>
        <time>2020-05-24T08:47:30Z</time>
      </trkpt>
      <trkpt lat="43.238900" lon="-5.667070">
        <ele>549.795</ele>
        <time>2020-05-24T08:47:50Z</time>
      </trkpt>
      <trkpt lat="43.238930" lon="-5.667200">
        <ele>549.146</ele>
        <time>2020-05-24T08:48:10Z</time>
      </trkpt>
      <trkpt lat="43.238960" lon="-5.667310">
        <ele>547.925</ele>
        <time>2020-05-24T08:48:30Z</time>
      </trkpt>
      <trkpt lat="43.239000" lon="-5.667390">
        <ele>547.698</ele>
        <time>2020-05-24T08:48:50Z</time>
      </trkpt>
      <trkpt lat="43.239040" lon="-5.667480">
        <ele>547.044</ele>
        <time>2020-05-24T08:49:10Z</time>
      </trkpt>
      <trkpt lat="43.239090" lon="-5.667590">
        <ele>546.205</ele>
        <time>2020-05-24T08:49:30Z</time>
      </trkpt>
      <trkpt lat="43.239130" lon="-5.667730">
        <ele>544.315</ele>
        <time>2020-05-24T08:49:50Z</time>
      </trkpt>
      <trkpt lat="43.239190" lon="-5.667890">
        <ele>543.008</ele>
        <time>2020-05-24T08:50:10Z</time>
      </trkpt>
      <trkpt lat="43.239190" lon="-5.667920">
        <ele>542.358</ele>
        <time>2020-05-24T08:50:30Z</time>
      </trkpt>
      <trkpt lat="43.239240" lon="-5.668070">
        <ele>539.963</ele>
        <time>2020-05-24T08:50:50Z</time>
      </trkpt>
      <trkpt lat="43.239270" lon="-5.668150">
        <ele>538.150</ele>
        <time>2020-05-24T08:51:10Z</time>
      </trkpt>
      <trkpt lat="43.239300" lon="-5.668220">
        <ele>536.766</ele>
        <time>2020-05-24T08:51:30Z</time>
      </trkpt>
      <trkpt lat="43.239340" lon="-5.668280">
        <ele>536.095</ele>
        <time>2020-05-24T08:51:50Z</time>
      </trkpt>
      <trkpt lat="43.239380" lon="-5.668330">
        <ele>535.876</ele>
        <time>2020-05-24T08:52:10Z</time>
      </trkpt>
      <trkpt lat="43.239430" lon="-5.668360">
        <ele>536.415</ele>
        <time>2020-05-24T08:52:30Z</time>
      </trkpt>
      <trkpt lat="43.239470" lon="-5.668380">
        <ele>536.368</ele>
        <time>2020-05-24T08:52:50Z</time>
      </trkpt>
      <trkpt lat="43.239510" lon="-5.668390">
        <ele>536.072</ele>
        <time>2020-05-24T08:53:10Z</time>
      </trkpt>
      <trkpt lat="43.239560" lon="-5.668390">
        <ele>536.313</ele>
        <time>2020-05-24T08:53:30Z</time>
      </trkpt>
      <trkpt lat="43.239640" lon="-5.668390">
        <ele>536.614</ele>
        <time>2020-05-24T08:53:50Z</time>
      </trkpt>
      <trkpt lat="43.239690" lon="-5.668380">
        <ele>537.208</ele>
        <time>2020-05-24T08:54:10Z</time>
      </trkpt>
      <trkpt lat="43.239730" lon="-5.668390">
        <ele>537.111</ele>
        <time>2020-05-24T08:54:30Z</time>
      </trkpt>
      <trkpt lat="43.239750" lon="-5.668400">
        <ele>537.026</ele>
        <time>2020-05-24T08:54:50Z</time>
      </trkpt>
      <trkpt lat="43.239810" lon="-5.668430">
        <ele>537.183</ele>
        <time>2020-05-24T08:55:10Z</time>
      </trkpt>
      <trkpt lat="43.239860" lon="-5.668480">
        <ele>536.849</ele>
        <time>2020-05-24T08:55:30Z</time>
      </trkpt>
      <trkpt lat="43.239880" lon="-5.668530">
        <ele>536.038</ele>
        <time>2020-05-24T08:55:50Z</time>
      </trkpt>
      <trkpt lat="43.239900" lon="-5.668560">
        <ele>535.949</ele>
        <time>2020-05-24T08:56:10Z</time>
      </trkpt>
      <trkpt lat="43.239910" lon="-5.668610">
        <ele>535.148</ele>
        <time>2020-05-24T08:56:30Z</time>
      </trkpt>
      <trkpt lat="43.239910" lon="-5.668680">
        <ele>534.271</ele>
        <time>2020-05-24T08:56:50Z</time>
      </trkpt>
      <trkpt lat="43.239910" lon="-5.668740">
        <ele>533.492</ele>
        <time>2020-05-24T08:57:10Z</time>
      </trkpt>
      <trkpt lat="43.239900" lon="-5.668760">
        <ele>532.873</ele>
        <time>2020-05-24T08:57:30Z</time>
      </trkpt>
      <trkpt lat="43.239900" lon="-5.668810">
        <ele>532.120</ele>
        <time>2020-05-24T08:57:50Z</time>
      </trkpt>
      <trkpt lat="43.239910" lon="-5.668880">
        <ele>531.608</ele>
        <time>2020-05-24T08:58:10Z</time>
      </trkpt>
      <trkpt lat="43.239910" lon="-5.668900">
        <ele>531.053</ele>
        <time>2020-05-24T08:58:30Z</time>
      </trkpt>
      <trkpt lat="43.239920" lon="-5.668920">
        <ele>530.628</ele>
        <time>2020-05-24T08:58:50Z</time>
      </trkpt>
      <trkpt lat="43.239970" lon="-5.668980">
        <ele>530.095</ele>
        <time>2020-05-24T08:59:10Z</time>
      </trkpt>
      <trkpt lat="43.239980" lon="-5.669000">
        <ele>529.581</ele>
        <time>2020-05-24T08:59:30Z</time>
      </trkpt>
      <trkpt lat="43.240050" lon="-5.669080">
        <ele>528.710</ele>
        <time>2020-05-24T08:59:50Z</time>
      </trkpt>
      <trkpt lat="43.240120" lon="-5.669180">
        <ele>527.211</ele>
        <time>2020-05-24T09:00:10Z</time>
      </trkpt>
      <trkpt lat="43.240220" lon="-5.669330">
        <ele>525.650</ele>
        <time>2020-05-24T09:00:30Z</time>
      </trkpt>
      <trkpt lat="43.240280" lon="-5.669420">
        <ele>525.013</ele>
        <time>2020-05-24T09:00:50Z</time>
      </trkpt>
      <trkpt lat="43.240320" lon="-5.669480">
        <ele>524.166</ele>
        <time>2020-05-24T09:01:10Z</time>
      </trkpt>
      <trkpt lat="43.240350" lon="-5.669510">
        <ele>523.929</ele>
        <time>2020-05-24T09:01:30Z</time>
      </trkpt>
      <trkpt lat="43.240420" lon="-5.669610">
        <ele>522.321</ele>
        <time>2020-05-24T09:01:50Z</time>
      </trkpt>
      <trkpt lat="43.240450" lon="-5.669640">
        <ele>522.008</ele>
        <time>2020-05-24T09:02:10Z</time>
      </trkpt>
      <trkpt lat="43.240480" lon="-5.669680">
        <ele>521.320</ele>
        <time>2020-05-24T09:02:30Z</time>
      </trkpt>
      <trkpt lat="43.240570" lon="-5.669720">
        <ele>522.395</ele>
        <time>2020-05-24T09:02:50Z</time>
      </trkpt>
      <trkpt lat="43.240610" lon="-5.669750">
        <ele>521.662</ele>
        <time>2020-05-24T09:03:10Z</time>
      </trkpt>
      <trkpt lat="43.240660" lon="-5.669780">
        <ele>521.048</ele>
        <time>2020-05-24T09:03:30Z</time>
      </trkpt>
      <trkpt lat="43.240770" lon="-5.669840">
        <ele>520.077</ele>
        <time>2020-05-24T09:03:50Z</time>
      </trkpt>
      <trkpt lat="43.240870" lon="-5.669900">
        <ele>519.148</ele>
        <time>2020-05-24T09:04:10Z</time>
      </trkpt>
      <trkpt lat="43.240950" lon="-5.669940">
        <ele>518.967</ele>
        <time>2020-05-24T09:04:30Z</time>
      </trkpt>
      <trkpt lat="43.240980" lon="-5.669950">
        <ele>519.030</ele>
        <time>2020-05-24T09:04:50Z</time>
      </trkpt>
      <trkpt lat="43.241090" lon="-5.670000">
        <ele>518.658</ele>
        <time>2020-05-24T09:05:10Z</time>
      </trkpt>
      <trkpt lat="43.241120" lon="-5.670010">
        <ele>518.852</ele>
        <time>2020-05-24T09:05:30Z</time>
      </trkpt>
      <trkpt lat="43.241180" lon="-5.670020">
        <ele>520.917</ele>
        <time>2020-05-24T09:05:50Z</time>
      </trkpt>
      <trkpt lat="43.241240" lon="-5.670060">
        <ele>521.508</ele>
        <time>2020-05-24T09:06:10Z</time>
      </trkpt>
      <trkpt lat="43.241280" lon="-5.670100">
        <ele>521.389</ele>
        <time>2020-05-24T09:06:30Z</time>
      </trkpt>
      <trkpt lat="43.241290" lon="-5.670110">
        <ele>521.344</ele>
        <time>2020-05-24T09:06:50Z</time>
      </trkpt>
      <trkpt lat="43.241350" lon="-5.670180">
        <ele>520.761</ele>
        <time>2020-05-24T09:07:10Z</time>
      </trkpt>
      <trkpt lat="43.241410" lon="-5.670280">
        <ele>519.467</ele>
        <time>2020-05-24T09:07:30Z</time>
      </trkpt>
      <trkpt lat="43.241450" lon="-5.670380">
        <ele>518.496</ele>
        <time>2020-05-24T09:07:50Z</time>
      </trkpt>
      <trkpt lat="43.241490" lon="-5.670500">
        <ele>517.097</ele>
        <time>2020-05-24T09:08:10Z</time>
      </trkpt>
      <trkpt lat="43.241510" lon="-5.670610">
        <ele>515.346</ele>
        <time>2020-05-24T09:08:30Z</time>
      </trkpt>
      <trkpt lat="43.241530" lon="-5.670720">
        <ele>514.329</ele>
        <time>2020-05-24T09:08:50Z</time>
      </trkpt>
      <trkpt lat="43.241540" lon="-5.670740">
        <ele>514.645</ele>
        <time>2020-05-24T09:09:10Z</time>
      </trkpt>
      <trkpt lat="43.241550" lon="-5.670840">
        <ele>513.047</ele>
        <time>2020-05-24T09:09:30Z</time>
      </trkpt>
      <trkpt lat="43.241560" lon="-5.670980">
        <ele>510.811</ele>
        <time>2020-05-24T09:09:50Z</time>
      </trkpt>
      <trkpt lat="43.241560" lon="-5.671000">
        <ele>510.408</ele>
        <time>2020-05-24T09:10:10Z</time>
      </trkpt>
      <trkpt lat="43.241580" lon="-5.671110">
        <ele>509.418</ele>
        <time>2020-05-24T09:10:30Z</time>
      </trkpt>
      <trkpt lat="43.241600" lon="-5.671220">
        <ele>508.623</ele>
        <time>2020-05-24T09:10:50Z</time>
      </trkpt>
      <trkpt lat="43.241610" lon="-5.671250">
        <ele>508.790</ele>
        <time>2020-05-24T09:11:10Z</time>
      </trkpt>
      <trkpt lat="43.241630" lon="-5.671430">
        <ele>506.836</ele>
        <time>2020-05-24T09:11:30Z</time>
      </trkpt>
      <trkpt lat="43.241630" lon="-5.671460">
        <ele>506.245</ele>
        <time>2020-05-24T09:11:50Z</time>
      </trkpt>
      <trkpt lat="43.241640" lon="-5.671550">
        <ele>505.386</ele>
        <time>2020-05-24T09:12:10Z</time>
      </trkpt>
      <trkpt lat="43.241640" lon="-5.671640">
        <ele>503.785</ele>
        <time>2020-05-24T09:12:30Z</time>
      </trkpt>
      <trkpt lat="43.241660" lon="-5.671740">
        <ele>502.878</ele>
        <time>2020-05-24T09:12:50Z</time>
      </trkpt>
      <trkpt lat="43.241690" lon="-5.671850">
        <ele>501.157</ele>
        <time>2020-05-24T09:13:10Z</time>
      </trkpt>
      <trkpt lat="43.241720" lon="-5.671940">
        <ele>499.800</ele>
        <time>2020-05-24T09:13:30Z</time>
      </trkpt>
      <trkpt lat="43.241760" lon="-5.672020">
        <ele>498.520</ele>
        <time>2020-05-24T09:13:50Z</time>
      </trkpt>
      <trkpt lat="43.241820" lon="-5.672140">
        <ele>496.708</ele>
        <time>2020-05-24T09:14:10Z</time>
      </trkpt>
      <trkpt lat="43.241870" lon="-5.672270">
        <ele>494.979</ele>
        <time>2020-05-24T09:14:30Z</time>
      </trkpt>
      <trkpt lat="43.241920" lon="-5.672340">
        <ele>495.184</ele>
        <time>2020-05-24T09:14:50Z</time>
      </trkpt>
      <trkpt lat="43.241930" lon="-5.672350">
        <ele>495.321</ele>
        <time>2020-05-24T09:15:10Z</time>
      </trkpt>
      <trkpt lat="43.241990" lon="-5.672410">
        <ele>495.427</ele>
        <time>2020-05-24T09:15:30Z</time>
      </trkpt>
      <trkpt lat="43.242050" lon="-5.672500">
        <ele>494.716</ele>
        <time>2020-05-24T09:15:50Z</time>
      </trkpt>
      <trkpt lat="43.242060" lon="-5.672510">
        <ele>494.617</ele>
        <time>2020-05-24T09:16:10Z</time>
      </trkpt>
      <trkpt lat="43.242110" lon="-5.672580">
        <ele>494.066</ele>
        <time>2020-05-24T09:16:30Z</time>
      </trkpt>
      <trkpt lat="43.242160" lon="-5.672650">
        <ele>493.219</ele>
        <time>2020-05-24T09:16:50Z</time>
      </trkpt>
      <trkpt lat="43.242210" lon="-5.672710">
        <ele>492.738</ele>
        <time>2020-05-24T09:17:10Z</time>
      </trkpt>
      <trkpt lat="43.242270" lon="-5.672750">
        <ele>492.470</ele>
        <time>2020-05-24T09:17:30Z</time>
      </trkpt>
      <trkpt lat="43.242330" lon="-5.672800">
        <ele>491.517</ele>
        <time>2020-05-24T09:17:50Z</time>
      </trkpt>
      <trkpt lat="43.242340" lon="-5.672800">
        <ele>491.608</ele>
        <time>2020-05-24T09:18:10Z</time>
      </trkpt>
      <trkpt lat="43.242420" lon="-5.672840">
        <ele>491.017</ele>
        <time>2020-05-24T09:18:30Z</time>
      </trkpt>
      <trkpt lat="43.242490" lon="-5.672870">
        <ele>490.662</ele>
        <time>2020-05-24T09:18:50Z</time>
      </trkpt>
      <trkpt lat="43.242510" lon="-5.672870">
        <ele>490.869</ele>
        <time>2020-05-24T09:19:10Z</time>
      </trkpt>
      <trkpt lat="43.242580" lon="-5.672900">
        <ele>490.855</ele>
        <time>2020-05-24T09:19:30Z</time>
      </trkpt>
      <trkpt lat="43.242640" lon="-5.672920">
        <ele>491.244</ele>
        <time>2020-05-24T09:19:50Z</time>
      </trkpt>
      <trkpt lat="43.242680" lon="-5.672970">
        <ele>490.625</ele>
        <time>2020-05-24T09:20:10Z</time>
      </trkpt>
      <trkpt lat="43.242720" lon="-5.673050">
        <ele>489.714</ele>
        <time>2020-05-24T09:20:30Z</time>
      </trkpt>
      <trkpt lat="43.242740" lon="-5.673170">
        <ele>487.917</ele>
        <time>2020-05-24T09:20:50Z</time>
      </trkpt>
      <trkpt lat="43.242750" lon="-5.673190">
        <ele>487.852</ele>
        <time>2020-05-24T09:21:10Z</time>
      </trkpt>
      <trkpt lat="43.242760" lon="-5.673300">
        <ele>486.153</ele>
        <time>2020-05-24T09:21:30Z</time>
      </trkpt>
      <trkpt lat="43.242790" lon="-5.673430">
        <ele>484.608</ele>
        <time>2020-05-24T09:21:50Z</time>
      </trkpt>
      <trkpt lat="43.242810" lon="-5.673530">
        <ele>483.308</ele>
        <time>2020-05-24T09:22:10Z</time>
      </trkpt>
      <trkpt lat="43.242850" lon="-5.673620">
        <ele>482.519</ele>
        <time>2020-05-24T09:22:30Z</time>
      </trkpt>
      <trkpt lat="43.242880" lon="-5.673680">
        <ele>481.334</ele>
        <time>2020-05-24T09:22:50Z</time>
      </trkpt>
      <trkpt lat="43.242910" lon="-5.673730">
        <ele>480.351</ele>
        <time>2020-05-24T09:23:10Z</time>
      </trkpt>
      <trkpt lat="43.242920" lon="-5.673750">
        <ele>479.817</ele>
        <time>2020-05-24T09:23:30Z</time>
      </trkpt>
      <trkpt lat="43.242960" lon="-5.673790">
        <ele>479.416</ele>
        <time>2020-05-24T09:23:50Z</time>
      </trkpt>
      <trkpt lat="43.242990" lon="-5.673810">
        <ele>479.417</ele>
        <time>2020-05-24T09:24:10Z</time>
      </trkpt>
      <trkpt lat="43.243030" lon="-5.673840">
        <ele>479.246</ele>
        <time>2020-05-24T09:24:30Z</time>
      </trkpt>
      <trkpt lat="43.243070" lon="-5.673840">
        <ele>479.799</ele>
        <time>2020-05-24T09:24:50Z</time>
      </trkpt>
      <trkpt lat="43.243090" lon="-5.673840">
        <ele>479.726</ele>
        <time>2020-05-24T09:25:10Z</time>
      </trkpt>
      <trkpt lat="43.243160" lon="-5.673840">
        <ele>479.447</ele>
        <time>2020-05-24T09:25:30Z</time>
      </trkpt>
      <trkpt lat="43.243230" lon="-5.673830">
        <ele>479.611</ele>
        <time>2020-05-24T09:25:50Z</time>
      </trkpt>
      <trkpt lat="43.243250" lon="-5.673820">
        <ele>480.008</ele>
        <time>2020-05-24T09:26:10Z</time>
      </trkpt>
      <trkpt lat="43.243280" lon="-5.673810">
        <ele>480.316</ele>
        <time>2020-05-24T09:26:30Z</time>
      </trkpt>
      <trkpt lat="43.243340" lon="-5.673800">
        <ele>480.771</ele>
        <time>2020-05-24T09:26:50Z</time>
      </trkpt>
      <trkpt lat="43.243400" lon="-5.673810">
        <ele>481.538</ele>
        <time>2020-05-24T09:27:10Z</time>
      </trkpt>
      <trkpt lat="43.243430" lon="-5.673820">
        <ele>481.624</ele>
        <time>2020-05-24T09:27:30Z</time>
      </trkpt>
      <trkpt lat="43.243470" lon="-5.673840">
        <ele>481.643</ele>
        <time>2020-05-24T09:27:50Z</time>
      </trkpt>
      <trkpt lat="43.243500" lon="-5.673870">
        <ele>480.884</ele>
        <time>2020-05-24T09:28:10Z</time>
      </trkpt>
      <trkpt lat="43.243560" lon="-5.673910">
        <ele>480.063</ele>
        <time>2020-05-24T09:28:30Z</time>
      </trkpt>
      <trkpt lat="43.243580" lon="-5.673940">
        <ele>479.046</ele>
        <time>2020-05-24T09:28:50Z</time>
      </trkpt>
      <trkpt lat="43.243610" lon="-5.673960">
        <ele>478.623</ele>
        <time>2020-05-24T09:29:10Z</time>
      </trkpt>
      <trkpt lat="43.243650" lon="-5.674020">
        <ele>478.283</ele>
        <time>2020-05-24T09:29:30Z</time>
      </trkpt>
      <trkpt lat="43.243670" lon="-5.674070">
        <ele>477.111</ele>
        <time>2020-05-24T09:29:50Z</time>
      </trkpt>
      <trkpt lat="43.243700" lon="-5.674120">
        <ele>476.608</ele>
        <time>2020-05-24T09:30:10Z</time>
      </trkpt>
      <trkpt lat="43.243700" lon="-5.674130">
        <ele>476.216</ele>
        <time>2020-05-24T09:30:30Z</time>
      </trkpt>
      <trkpt lat="43.243720" lon="-5.674180">
        <ele>475.211</ele>
        <time>2020-05-24T09:30:50Z</time>
      </trkpt>
      <trkpt lat="43.243740" lon="-5.674280">
        <ele>472.558</ele>
        <time>2020-05-24T09:31:10Z</time>
      </trkpt>
      <trkpt lat="43.243760" lon="-5.674340">
        <ele>471.244</ele>
        <time>2020-05-24T09:31:30Z</time>
      </trkpt>
      <trkpt lat="43.243760" lon="-5.674350">
        <ele>470.883</ele>
        <time>2020-05-24T09:31:50Z</time>
      </trkpt>
      <trkpt lat="43.243780" lon="-5.674400">
        <ele>469.794</ele>
        <time>2020-05-24T09:32:10Z</time>
      </trkpt>
      <trkpt lat="43.243810" lon="-5.674450">
        <ele>469.143</ele>
        <time>2020-05-24T09:32:30Z</time>
      </trkpt>
      <trkpt lat="43.243850" lon="-5.674480">
        <ele>469.656</ele>
        <time>2020-05-24T09:32:50Z</time>
      </trkpt>
      <trkpt lat="43.243890" lon="-5.674520">
        <ele>469.512</ele>
        <time>2020-05-24T09:33:10Z</time>
      </trkpt>
      <trkpt lat="43.243940" lon="-5.674540">
        <ele>469.332</ele>
        <time>2020-05-24T09:33:30Z</time>
      </trkpt>
      <trkpt lat="43.243990" lon="-5.674550">
        <ele>469.705</ele>
        <time>2020-05-24T09:33:50Z</time>
      </trkpt>
      <trkpt lat="43.244030" lon="-5.674550">
        <ele>470.308</ele>
        <time>2020-05-24T09:34:10Z</time>
      </trkpt>
      <trkpt lat="43.244070" lon="-5.674560">
        <ele>470.555</ele>
        <time>2020-05-24T09:34:30Z</time>
      </trkpt>
      <trkpt lat="43.244080" lon="-5.674570">
        <ele>470.230</ele>
        <time>2020-05-24T09:34:50Z</time>
      </trkpt>
      <trkpt lat="43.244120" lon="-5.674590">
        <ele>470.067</ele>
        <time>2020-05-24T09:35:10Z</time>
      </trkpt>
      <trkpt lat="43.244160" lon="-5.674630">
        <ele>468.973</ele>
        <time>2020-05-24T09:35:30Z</time>
      </trkpt>
      <trkpt lat="43.244220" lon="-5.674680">
        <ele>467.582</ele>
        <time>2020-05-24T09:35:50Z</time>
      </trkpt>
      <trkpt lat="43.244220" lon="-5.674690">
        <ele>467.053</ele>
        <time>2020-05-24T09:36:10Z</time>
      </trkpt>
      <trkpt lat="43.244250" lon="-5.674720">
        <ele>466.062</ele>
        <time>2020-05-24T09:36:30Z</time>
      </trkpt>
      <trkpt lat="43.244310" lon="-5.674760">
        <ele>464.615</ele>
        <time>2020-05-24T09:36:50Z</time>
      </trkpt>
      <trkpt lat="43.244360" lon="-5.674780">
        <ele>464.378</ele>
        <time>2020-05-24T09:37:10Z</time>
      </trkpt>
      <trkpt lat="43.244420" lon="-5.674800">
        <ele>464.033</ele>
        <time>2020-05-24T09:37:30Z</time>
      </trkpt>
      <trkpt lat="43.244500" lon="-5.674810">
        <ele>463.726</ele>
        <time>2020-05-24T09:37:50Z</time>
      </trkpt>
      <trkpt lat="43.244570" lon="-5.674810">
        <ele>463.608</ele>
        <time>2020-05-24T09:38:10Z</time>
      </trkpt>
      <trkpt lat="43.244650" lon="-5.674800">
        <ele>463.711</ele>
        <time>2020-05-24T09:38:30Z</time>
      </trkpt>
      <trkpt lat="43.244710" lon="-5.674810">
        <ele>463.266</ele>
        <time>2020-05-24T09:38:50Z</time>
      </trkpt>
      <trkpt lat="43.244740" lon="-5.674820">
        <ele>463.173</ele>
        <time>2020-05-24T09:39:10Z</time>
      </trkpt>
      <trkpt lat="43.244760" lon="-5.674830">
        <ele>463.269</ele>
        <time>2020-05-24T09:39:30Z</time>
      </trkpt>
      <trkpt lat="43.244780" lon="-5.674850">
        <ele>462.978</ele>
        <time>2020-05-24T09:39:50Z</time>
      </trkpt>
      <trkpt lat="43.244790" lon="-5.674870">
        <ele>462.459</ele>
        <time>2020-05-24T09:40:10Z</time>
      </trkpt>
      <trkpt lat="43.244810" lon="-5.674900">
        <ele>461.988</ele>
        <time>2020-05-24T09:40:30Z</time>
      </trkpt>
      <trkpt lat="43.244820" lon="-5.674930">
        <ele>461.231</ele>
        <time>2020-05-24T09:40:50Z</time>
      </trkpt>
      <trkpt lat="43.244840" lon="-5.674980">
        <ele>460.134</ele>
        <time>2020-05-24T09:41:10Z</time>
      </trkpt>
      <trkpt lat="43.244850" lon="-5.674990">
        <ele>460.155</ele>
        <time>2020-05-24T09:41:30Z</time>
      </trkpt>
      <trkpt lat="43.244870" lon="-5.675030">
        <ele>459.110</ele>
        <time>2020-05-24T09:41:50Z</time>
      </trkpt>
      <trkpt lat="43.244880" lon="-5.675050">
        <ele>458.608</ele>
        <time>2020-05-24T09:42:10Z</time>
      </trkpt>
      <trkpt lat="43.244900" lon="-5.675080">
        <ele>458.037</ele>
        <time>2020-05-24T09:42:30Z</time>
      </trkpt>
      <trkpt lat="43.244930" lon="-5.675110">
        <ele>457.572</ele>
        <time>2020-05-24T09:42:50Z</time>
      </trkpt>
      <trkpt lat="43.244950" lon="-5.675130">
        <ele>457.259</ele>
        <time>2020-05-24T09:43:10Z</time>
      </trkpt>
      <trkpt lat="43.244980" lon="-5.675150">
        <ele>457.255</ele>
        <time>2020-05-24T09:43:30Z</time>
      </trkpt>
      <trkpt lat="43.244980" lon="-5.675160">
        <ele>456.844</ele>
        <time>2020-05-24T09:43:50Z</time>
      </trkpt>
      <trkpt lat="43.245040" lon="-5.675210">
        <ele>456.185</ele>
        <time>2020-05-24T09:44:10Z</time>
      </trkpt>
      <trkpt lat="43.245100" lon="-5.675260">
        <ele>455.164</ele>
        <time>2020-05-24T09:44:30Z</time>
      </trkpt>
      <trkpt lat="43.245140" lon="-5.675290">
        <ele>454.667</ele>
        <time>2020-05-24T09:44:50Z</time>
      </trkpt>
      <trkpt lat="43.245160" lon="-5.675310">
        <ele>454.244</ele>
        <time>2020-05-24T09:45:10Z</time>
      </trkpt>
      <trkpt lat="43.245220" lon="-5.675370">
        <ele>453.005</ele>
        <time>2020-05-24T09:45:30Z</time>
      </trkpt>
      <trkpt lat="43.245280" lon="-5.675440">
        <ele>451.215</ele>
        <time>2020-05-24T09:45:50Z</time>
      </trkpt>
      <trkpt lat="43.245320" lon="-5.675490">
        <ele>449.608</ele>
        <time>2020-05-24T09:46:10Z</time>
      </trkpt>
      <trkpt lat="43.245430" lon="-5.675570">
        <ele>447.578</ele>
        <time>2020-05-24T09:46:30Z</time>
      </trkpt>
      <trkpt lat="43.245500" lon="-5.675580">
        <ele>447.523</ele>
        <time>2020-05-24T09:46:50Z</time>
      </trkpt>
      <trkpt lat="43.245550" lon="-5.675570">
        <ele>448.340</ele>
        <time>2020-05-24T09:47:10Z</time>
      </trkpt>
      <trkpt lat="43.245630" lon="-5.675550">
        <ele>447.326</ele>
        <time>2020-05-24T09:47:30Z</time>
      </trkpt>
      <trkpt lat="43.245710" lon="-5.675520">
        <ele>446.695</ele>
        <time>2020-05-24T09:47:50Z</time>
      </trkpt>
      <trkpt lat="43.245800" lon="-5.675480">
        <ele>446.586</ele>
        <time>2020-05-24T09:48:10Z</time>
      </trkpt>
      <trkpt lat="43.245870" lon="-5.675470">
        <ele>446.195</ele>
        <time>2020-05-24T09:48:30Z</time>
      </trkpt>
      <trkpt lat="43.245930" lon="-5.675460">
        <ele>446.448</ele>
        <time>2020-05-24T09:48:50Z</time>
      </trkpt>
      <trkpt lat="43.245970" lon="-5.675470">
        <ele>445.692</ele>
        <time>2020-05-24T09:49:10Z</time>
      </trkpt>
      <trkpt lat="43.245980" lon="-5.675470">
        <ele>445.673</ele>
        <time>2020-05-24T09:49:30Z</time>
      </trkpt>
      <trkpt lat="43.246050" lon="-5.675480">
        <ele>444.720</ele>
        <time>2020-05-24T09:49:50Z</time>
      </trkpt>
      <trkpt lat="43.246150" lon="-5.675510">
        <ele>442.908</ele>
        <time>2020-05-24T09:50:10Z</time>
      </trkpt>
      <trkpt lat="43.246200" lon="-5.675530">
        <ele>442.163</ele>
        <time>2020-05-24T09:50:30Z</time>
      </trkpt>
      <trkpt lat="43.246320" lon="-5.675570">
        <ele>440.878</ele>
        <time>2020-05-24T09:50:50Z</time>
      </trkpt>
      <trkpt lat="43.246350" lon="-5.675580">
        <ele>440.575</ele>
        <time>2020-05-24T09:51:10Z</time>
      </trkpt>
      <trkpt lat="43.246450" lon="-5.675590">
        <ele>441.121</ele>
        <time>2020-05-24T09:51:30Z</time>
      </trkpt>
      <trkpt lat="43.246500" lon="-5.675600">
        <ele>441.260</ele>
        <time>2020-05-24T09:51:50Z</time>
      </trkpt>
      <trkpt lat="43.246550" lon="-5.675610">
        <ele>441.351</ele>
        <time>2020-05-24T09:52:10Z</time>
      </trkpt>
      <trkpt lat="43.246610" lon="-5.675650">
        <ele>440.260</ele>
        <time>2020-05-24T09:52:30Z</time>
      </trkpt>
      <trkpt lat="43.246650" lon="-5.675680">
        <ele>439.433</ele>
        <time>2020-05-24T09:52:50Z</time>
      </trkpt>
      <trkpt lat="43.246660" lon="-5.675700">
        <ele>438.783</ele>
        <time>2020-05-24T09:53:10Z</time>
      </trkpt>
      <trkpt lat="43.246690" lon="-5.675730">
        <ele>437.125</ele>
        <time>2020-05-24T09:53:30Z</time>
      </trkpt>
      <trkpt lat="43.246740" lon="-5.675770">
        <ele>434.817</ele>
        <time>2020-05-24T09:53:50Z</time>
      </trkpt>
      <trkpt lat="43.246780" lon="-5.675820">
        <ele>432.608</ele>
        <time>2020-05-24T09:54:10Z</time>
      </trkpt>
      <trkpt lat="43.246810" lon="-5.675830">
        <ele>432.112</ele>
        <time>2020-05-24T09:54:30Z</time>
      </trkpt>
      <trkpt lat="43.246830" lon="-5.675840">
        <ele>431.617</ele>
        <time>2020-05-24T09:54:50Z</time>
      </trkpt>
      <trkpt lat="43.246880" lon="-5.675820">
        <ele>431.894</ele>
        <time>2020-05-24T09:55:10Z</time>
      </trkpt>
      <trkpt lat="43.246930" lon="-5.675760">
        <ele>432.580</ele>
        <time>2020-05-24T09:55:30Z</time>
      </trkpt>
      <trkpt lat="43.246960" lon="-5.675730">
        <ele>432.859</ele>
        <time>2020-05-24T09:55:50Z</time>
      </trkpt>
      <trkpt lat="43.246990" lon="-5.675700">
        <ele>433.210</ele>
        <time>2020-05-24T09:56:10Z</time>
      </trkpt>
      <trkpt lat="43.247060" lon="-5.675630">
        <ele>434.489</ele>
        <time>2020-05-24T09:56:30Z</time>
      </trkpt>
      <trkpt lat="43.247100" lon="-5.675610">
        <ele>434.892</ele>
        <time>2020-05-24T09:56:50Z</time>
      </trkpt>
      <trkpt lat="43.247120" lon="-5.675600">
        <ele>435.066</ele>
        <time>2020-05-24T09:57:10Z</time>
      </trkpt>
      <trkpt lat="43.247140" lon="-5.675600">
        <ele>435.029</ele>
        <time>2020-05-24T09:57:30Z</time>
      </trkpt>
      <trkpt lat="43.247190" lon="-5.675610">
        <ele>434.721</ele>
        <time>2020-05-24T09:57:50Z</time>
      </trkpt>
      <trkpt lat="43.247230" lon="-5.675650">
        <ele>434.008</ele>
        <time>2020-05-24T09:58:10Z</time>
      </trkpt>
      <trkpt lat="43.247260" lon="-5.675710">
        <ele>433.920</ele>
        <time>2020-05-24T09:58:30Z</time>
      </trkpt>
      <trkpt lat="43.247260" lon="-5.675730">
        <ele>433.475</ele>
        <time>2020-05-24T09:58:50Z</time>
      </trkpt>
      <trkpt lat="43.247290" lon="-5.675820">
        <ele>432.332</ele>
        <time>2020-05-24T09:59:10Z</time>
      </trkpt>
      <trkpt lat="43.247330" lon="-5.675920">
        <ele>431.148</ele>
        <time>2020-05-24T09:59:30Z</time>
      </trkpt>
      <trkpt lat="43.247340" lon="-5.675930">
        <ele>431.197</ele>
        <time>2020-05-24T09:59:50Z</time>
      </trkpt>
      <trkpt lat="43.247360" lon="-5.676000">
        <ele>429.658</ele>
        <time>2020-05-24T10:00:10Z</time>
      </trkpt>
      <trkpt lat="43.247410" lon="-5.676080">
        <ele>428.257</ele>
        <time>2020-05-24T10:00:30Z</time>
      </trkpt>
      <trkpt lat="43.247480" lon="-5.676160">
        <ele>426.550</ele>
        <time>2020-05-24T10:00:50Z</time>
      </trkpt>
      <trkpt lat="43.247550" lon="-5.676210">
        <ele>425.132</ele>
        <time>2020-05-24T10:01:10Z</time>
      </trkpt>
      <trkpt lat="43.247610" lon="-5.676230">
        <ele>424.592</ele>
        <time>2020-05-24T10:01:30Z</time>
      </trkpt>
      <trkpt lat="43.247650" lon="-5.676240">
        <ele>424.311</ele>
        <time>2020-05-24T10:01:50Z</time>
      </trkpt>
      <trkpt lat="43.247760" lon="-5.676250">
        <ele>424.408</ele>
        <time>2020-05-24T10:02:10Z</time>
      </trkpt>
      <trkpt lat="43.247790" lon="-5.676250">
        <ele>424.787</ele>
        <time>2020-05-24T10:02:30Z</time>
      </trkpt>
      <trkpt lat="43.247850" lon="-5.676250">
        <ele>425.552</ele>
        <time>2020-05-24T10:02:50Z</time>
      </trkpt>
      <trkpt lat="43.247940" lon="-5.676270">
        <ele>425.789</ele>
        <time>2020-05-24T10:03:10Z</time>
      </trkpt>
      <trkpt lat="43.248010" lon="-5.676300">
        <ele>424.835</ele>
        <time>2020-05-24T10:03:30Z</time>
      </trkpt>
      <trkpt lat="43.248060" lon="-5.676370">
        <ele>421.384</ele>
        <time>2020-05-24T10:03:50Z</time>
      </trkpt>
      <trkpt lat="43.248100" lon="-5.676430">
        <ele>419.945</ele>
        <time>2020-05-24T10:04:10Z</time>
      </trkpt>
      <trkpt lat="43.248110" lon="-5.676440">
        <ele>419.834</ele>
        <time>2020-05-24T10:04:30Z</time>
      </trkpt>
      <trkpt lat="43.248160" lon="-5.676520">
        <ele>417.787</ele>
        <time>2020-05-24T10:04:50Z</time>
      </trkpt>
      <trkpt lat="43.248220" lon="-5.676600">
        <ele>415.333</ele>
        <time>2020-05-24T10:05:10Z</time>
      </trkpt>
      <trkpt lat="43.248280" lon="-5.676640">
        <ele>414.523</ele>
        <time>2020-05-24T10:05:30Z</time>
      </trkpt>
      <trkpt lat="43.248350" lon="-5.676660">
        <ele>414.415</ele>
        <time>2020-05-24T10:05:50Z</time>
      </trkpt>
      <trkpt lat="43.248400" lon="-5.676660">
        <ele>414.408</ele>
        <time>2020-05-24T10:06:10Z</time>
      </trkpt>
      <trkpt lat="43.248420" lon="-5.676660">
        <ele>414.477</ele>
        <time>2020-05-24T10:06:30Z</time>
      </trkpt>
      <trkpt lat="43.248490" lon="-5.676660">
        <ele>414.442</ele>
        <time>2020-05-24T10:06:50Z</time>
      </trkpt>
      <trkpt lat="43.248580" lon="-5.676660">
        <ele>414.479</ele>
        <time>2020-05-24T10:07:10Z</time>
      </trkpt>
      <trkpt lat="43.248650" lon="-5.676680">
        <ele>413.755</ele>
        <time>2020-05-24T10:07:30Z</time>
      </trkpt>
      <trkpt lat="43.248730" lon="-5.676710">
        <ele>413.044</ele>
        <time>2020-05-24T10:07:50Z</time>
      </trkpt>
      <trkpt lat="43.248750" lon="-5.676730">
        <ele>412.415</ele>
        <time>2020-05-24T10:08:10Z</time>
      </trkpt>
      <trkpt lat="43.248760" lon="-5.676730">
        <ele>412.574</ele>
        <time>2020-05-24T10:08:30Z</time>
      </trkpt>
      <trkpt lat="43.248790" lon="-5.676770">
        <ele>411.227</ele>
        <time>2020-05-24T10:08:50Z</time>
      </trkpt>
      <trkpt lat="43.248820" lon="-5.676810">
        <ele>410.063</ele>
        <time>2020-05-24T10:09:10Z</time>
      </trkpt>
      <trkpt lat="43.248840" lon="-5.676830">
        <ele>409.544</ele>
        <time>2020-05-24T10:09:30Z</time>
      </trkpt>
      <trkpt lat="43.248880" lon="-5.676830">
        <ele>410.018</ele>
        <time>2020-05-24T10:09:50Z</time>
      </trkpt>
      <trkpt lat="43.248910" lon="-5.676830">
        <ele>410.108</ele>
        <time>2020-05-24T10:10:10Z</time>
      </trkpt>
      <trkpt lat="43.248980" lon="-5.676820">
        <ele>410.290</ele>
        <time>2020-05-24T10:10:30Z</time>
      </trkpt>
      <trkpt lat="43.249070" lon="-5.676810">
        <ele>410.245</ele>
        <time>2020-05-24T10:10:50Z</time>
      </trkpt>
      <trkpt lat="43.249090" lon="-5.676810">
        <ele>410.112</ele>
        <time>2020-05-24T10:11:10Z</time>
      </trkpt>
      <trkpt lat="43.249110" lon="-5.676820">
        <ele>409.898</ele>
        <time>2020-05-24T10:11:30Z</time>
      </trkpt>
      <trkpt lat="43.249140" lon="-5.676840">
        <ele>409.137</ele>
        <time>2020-05-24T10:11:50Z</time>
      </trkpt>
      <trkpt lat="43.249220" lon="-5.676920">
        <ele>408.018</ele>
        <time>2020-05-24T10:12:10Z</time>
      </trkpt>
      <trkpt lat="43.249240" lon="-5.676940">
        <ele>407.747</ele>
        <time>2020-05-24T10:12:30Z</time>
      </trkpt>
      <trkpt lat="43.249270" lon="-5.676980">
        <ele>406.450</ele>
        <time>2020-05-24T10:12:50Z</time>
      </trkpt>
      <trkpt lat="43.249350" lon="-5.677030">
        <ele>405.367</ele>
        <time>2020-05-24T10:13:10Z</time>
      </trkpt>
      <trkpt lat="43.249400" lon="-5.677050">
        <ele>405.181</ele>
        <time>2020-05-24T10:13:30Z</time>
      </trkpt>
      <trkpt lat="43.249460" lon="-5.677090">
        <ele>403.619</ele>
        <time>2020-05-24T10:13:50Z</time>
      </trkpt>
      <trkpt lat="43.249530" lon="-5.677110">
        <ele>402.308</ele>
        <time>2020-05-24T10:14:10Z</time>
      </trkpt>
      <trkpt lat="43.249570" lon="-5.677130">
        <ele>401.220</ele>
        <time>2020-05-24T10:14:30Z</time>
      </trkpt>
      <trkpt lat="43.249610" lon="-5.677140">
        <ele>400.675</ele>
        <time>2020-05-24T10:14:50Z</time>
      </trkpt>
      <trkpt lat="43.249710" lon="-5.677150">
        <ele>399.912</ele>
        <time>2020-05-24T10:15:10Z</time>
      </trkpt>
      <trkpt lat="43.249750" lon="-5.677150">
        <ele>399.428</ele>
        <time>2020-05-24T10:15:30Z</time>
      </trkpt>
      <trkpt lat="43.249850" lon="-5.677160">
        <ele>396.997</ele>
        <time>2020-05-24T10:15:50Z</time>
      </trkpt>
      <trkpt lat="43.249940" lon="-5.677150">
        <ele>395.858</ele>
        <time>2020-05-24T10:16:10Z</time>
      </trkpt>
      <trkpt lat="43.249990" lon="-5.677150">
        <ele>394.927</ele>
        <time>2020-05-24T10:16:30Z</time>
      </trkpt>
      <trkpt lat="43.250080" lon="-5.677160">
        <ele>393.830</ele>
        <time>2020-05-24T10:16:50Z</time>
      </trkpt>
      <trkpt lat="43.250160" lon="-5.677170">
        <ele>393.112</ele>
        <time>2020-05-24T10:17:10Z</time>
      </trkpt>
      <trkpt lat="43.250200" lon="-5.677170">
        <ele>393.032</ele>
        <time>2020-05-24T10:17:30Z</time>
      </trkpt>
      <trkpt lat="43.250280" lon="-5.677160">
        <ele>393.305</ele>
        <time>2020-05-24T10:17:50Z</time>
      </trkpt>
      <trkpt lat="43.250290" lon="-5.677160">
        <ele>393.108</ele>
        <time>2020-05-24T10:18:10Z</time>
      </trkpt>
      <trkpt lat="43.250370" lon="-5.677150">
        <ele>391.735</ele>
        <time>2020-05-24T10:18:30Z</time>
      </trkpt>
      <trkpt lat="43.250460" lon="-5.677120">
        <ele>391.230</ele>
        <time>2020-05-24T10:18:50Z</time>
      </trkpt>
      <trkpt lat="43.250500" lon="-5.677110">
        <ele>390.887</ele>
        <time>2020-05-24T10:19:10Z</time>
      </trkpt>
      <trkpt lat="43.250520" lon="-5.677090">
        <ele>391.553</ele>
        <time>2020-05-24T10:19:30Z</time>
      </trkpt>
      <trkpt lat="43.250580" lon="-5.677060">
        <ele>391.732</ele>
        <time>2020-05-24T10:19:50Z</time>
      </trkpt>
      <trkpt lat="43.250630" lon="-5.677030">
        <ele>391.943</ele>
        <time>2020-05-24T10:20:10Z</time>
      </trkpt>
      <trkpt lat="43.250650" lon="-5.677030">
        <ele>391.372</ele>
        <time>2020-05-24T10:20:30Z</time>
      </trkpt>
      <trkpt lat="43.250740" lon="-5.676970">
        <ele>391.715</ele>
        <time>2020-05-24T10:20:50Z</time>
      </trkpt>
      <trkpt lat="43.250790" lon="-5.676950">
        <ele>391.145</ele>
        <time>2020-05-24T10:21:10Z</time>
      </trkpt>
      <trkpt lat="43.250800" lon="-5.676940">
        <ele>391.447</ele>
        <time>2020-05-24T10:21:30Z</time>
      </trkpt>
      <trkpt lat="43.250880" lon="-5.676910">
        <ele>391.111</ele>
        <time>2020-05-24T10:21:50Z</time>
      </trkpt>
      <trkpt lat="43.250980" lon="-5.676890">
        <ele>390.108</ele>
        <time>2020-05-24T10:22:10Z</time>
      </trkpt>
      <trkpt lat="43.251110" lon="-5.676900">
        <ele>386.658</ele>
        <time>2020-05-24T10:22:30Z</time>
      </trkpt>
      <trkpt lat="43.251150" lon="-5.676910">
        <ele>385.983</ele>
        <time>2020-05-24T10:22:50Z</time>
      </trkpt>
      <trkpt lat="43.251350" lon="-5.676960">
        <ele>383.270</ele>
        <time>2020-05-24T10:23:10Z</time>
      </trkpt>
      <trkpt lat="43.251420" lon="-5.676960">
        <ele>382.166</ele>
        <time>2020-05-24T10:23:30Z</time>
      </trkpt>
      <trkpt lat="43.251450" lon="-5.676950">
        <ele>381.595</ele>
        <time>2020-05-24T10:23:50Z</time>
      </trkpt>
      <trkpt lat="43.251500" lon="-5.676930">
        <ele>380.796</ele>
        <time>2020-05-24T10:24:10Z</time>
      </trkpt>
      <trkpt lat="43.251500" lon="-5.676920">
        <ele>381.165</ele>
        <time>2020-05-24T10:24:30Z</time>
      </trkpt>
      <trkpt lat="43.251570" lon="-5.676880">
        <ele>380.338</ele>
        <time>2020-05-24T10:24:50Z</time>
      </trkpt>
      <trkpt lat="43.251660" lon="-5.676810">
        <ele>380.181</ele>
        <time>2020-05-24T10:25:10Z</time>
      </trkpt>
      <trkpt lat="43.251670" lon="-5.676810">
        <ele>379.761</ele>
        <time>2020-05-24T10:25:30Z</time>
      </trkpt>
      <trkpt lat="43.251720" lon="-5.676780">
        <ele>379.817</ele>
        <time>2020-05-24T10:25:50Z</time>
      </trkpt>
      <trkpt lat="43.251830" lon="-5.676730">
        <ele>379.308</ele>
        <time>2020-05-24T10:26:10Z</time>
      </trkpt>
      <trkpt lat="43.251840" lon="-5.676720">
        <ele>379.482</ele>
        <time>2020-05-24T10:26:30Z</time>
      </trkpt>
      <trkpt lat="43.251940" lon="-5.676690">
        <ele>378.257</ele>
        <time>2020-05-24T10:26:50Z</time>
      </trkpt>
      <trkpt lat="43.252010" lon="-5.676670">
        <ele>377.044</ele>
        <time>2020-05-24T10:27:10Z</time>
      </trkpt>
      <trkpt lat="43.252090" lon="-5.676630">
        <ele>376.550</ele>
        <time>2020-05-24T10:27:30Z</time>
      </trkpt>
      <trkpt lat="43.252140" lon="-5.676610">
        <ele>376.029</ele>
        <time>2020-05-24T10:27:50Z</time>
      </trkpt>
      <trkpt lat="43.252160" lon="-5.676600">
        <ele>375.910</ele>
        <time>2020-05-24T10:28:10Z</time>
      </trkpt>
      <trkpt lat="43.252180" lon="-5.676590">
        <ele>375.819</ele>
        <time>2020-05-24T10:28:30Z</time>
      </trkpt>
      <trkpt lat="43.252250" lon="-5.676550">
        <ele>375.212</ele>
        <time>2020-05-24T10:28:50Z</time>
      </trkpt>
      <trkpt lat="43.252340" lon="-5.676490">
        <ele>373.884</ele>
        <time>2020-05-24T10:29:10Z</time>
      </trkpt>
      <trkpt lat="43.252380" lon="-5.676460">
        <ele>373.307</ele>
        <time>2020-05-24T10:29:30Z</time>
      </trkpt>
      <trkpt lat="43.252430" lon="-5.676440">
        <ele>371.917</ele>
        <time>2020-05-24T10:29:50Z</time>
      </trkpt>
      <trkpt lat="43.252450" lon="-5.676420">
        <ele>371.908</ele>
        <time>2020-05-24T10:30:10Z</time>
      </trkpt>
      <trkpt lat="43.252480" lon="-5.676410">
        <ele>370.952</ele>
        <time>2020-05-24T10:30:30Z</time>
      </trkpt>
      <trkpt lat="43.252510" lon="-5.676400">
        <ele>370.387</ele>
        <time>2020-05-24T10:30:50Z</time>
      </trkpt>
      <trkpt lat="43.252680" lon="-5.676350">
        <ele>368.314</ele>
        <time>2020-05-24T10:31:10Z</time>
      </trkpt>
      <trkpt lat="43.252710" lon="-5.676340">
        <ele>367.930</ele>
        <time>2020-05-24T10:31:30Z</time>
      </trkpt>
      <trkpt lat="43.252760" lon="-5.676320">
        <ele>367.279</ele>
        <time>2020-05-24T10:31:50Z</time>
      </trkpt>
      <trkpt lat="43.252790" lon="-5.676300">
        <ele>366.760</ele>
        <time>2020-05-24T10:32:10Z</time>
      </trkpt>
      <trkpt lat="43.252840" lon="-5.676230">
        <ele>366.469</ele>
        <time>2020-05-24T10:32:30Z</time>
      </trkpt>
      <trkpt lat="43.252880" lon="-5.676180">
        <ele>366.172</ele>
        <time>2020-05-24T10:32:50Z</time>
      </trkpt>
      <trkpt lat="43.252950" lon="-5.676090">
        <ele>365.959</ele>
        <time>2020-05-24T10:33:10Z</time>
      </trkpt>
      <trkpt lat="43.252990" lon="-5.676050">
        <ele>366.003</ele>
        <time>2020-05-24T10:33:30Z</time>
      </trkpt>
      <trkpt lat="43.253080" lon="-5.675990">
        <ele>365.423</ele>
        <time>2020-05-24T10:33:50Z</time>
      </trkpt>
      <trkpt lat="43.253130" lon="-5.675960">
        <ele>364.808</ele>
        <time>2020-05-24T10:34:10Z</time>
      </trkpt>
      <trkpt lat="43.253290" lon="-5.675880">
        <ele>362.529</ele>
        <time>2020-05-24T10:34:30Z</time>
      </trkpt>
      <trkpt lat="43.253300" lon="-5.675870">
        <ele>362.674</ele>
        <time>2020-05-24T10:34:50Z</time>
      </trkpt>
      <trkpt lat="43.253470" lon="-5.675800">
        <ele>360.181</ele>
        <time>2020-05-24T10:35:10Z</time>
      </trkpt>
      <trkpt lat="43.253600" lon="-5.675750">
        <ele>358.277</ele>
        <time>2020-05-24T10:35:30Z</time>
      </trkpt>
      <trkpt lat="43.253640" lon="-5.675730">
        <ele>358.226</ele>
        <time>2020-05-24T10:35:50Z</time>
      </trkpt>
      <trkpt lat="43.253860" lon="-5.675640">
        <ele>357.977</ele>
        <time>2020-05-24T10:36:10Z</time>
      </trkpt>
      <trkpt lat="43.253990" lon="-5.675600">
        <ele>356.936</ele>
        <time>2020-05-24T10:36:30Z</time>
      </trkpt>
      <trkpt lat="43.254130" lon="-5.675560">
        <ele>354.919</ele>
        <time>2020-05-24T10:36:50Z</time>
      </trkpt>
      <trkpt lat="43.254160" lon="-5.675530">
        <ele>355.062</ele>
        <time>2020-05-24T10:37:10Z</time>
      </trkpt>
      <trkpt lat="43.254200" lon="-5.675510">
        <ele>354.683</ele>
        <time>2020-05-24T10:37:30Z</time>
      </trkpt>
      <trkpt lat="43.254280" lon="-5.675450">
        <ele>354.311</ele>
        <time>2020-05-24T10:37:50Z</time>
      </trkpt>
      <trkpt lat="43.254320" lon="-5.675420">
        <ele>354.008</ele>
        <time>2020-05-24T10:38:10Z</time>
      </trkpt>
      <trkpt lat="43.254370" lon="-5.675380">
        <ele>353.650</ele>
        <time>2020-05-24T10:38:30Z</time>
      </trkpt>
      <trkpt lat="43.254410" lon="-5.675350">
        <ele>353.295</ele>
        <time>2020-05-24T10:38:50Z</time>
      </trkpt>
      <trkpt lat="43.254460" lon="-5.675320">
        <ele>352.732</ele>
        <time>2020-05-24T10:39:10Z</time>
      </trkpt>
      <trkpt lat="43.254480" lon="-5.675310">
        <ele>352.618</ele>
        <time>2020-05-24T10:39:30Z</time>
      </trkpt>
      <trkpt lat="43.254520" lon="-5.675300">
        <ele>352.397</ele>
        <time>2020-05-24T10:39:50Z</time>
      </trkpt>
      <trkpt lat="43.254590" lon="-5.675280">
        <ele>351.838</ele>
        <time>2020-05-24T10:40:10Z</time>
      </trkpt>
      <trkpt lat="43.254660" lon="-5.675280">
        <ele>350.877</ele>
        <time>2020-05-24T10:40:30Z</time>
      </trkpt>
      <trkpt lat="43.254680" lon="-5.675280">
        <ele>350.590</ele>
        <time>2020-05-24T10:40:50Z</time>
      </trkpt>
      <trkpt lat="43.254770" lon="-5.675290">
        <ele>350.052</ele>
        <time>2020-05-24T10:41:10Z</time>
      </trkpt>
      <trkpt lat="43.254810" lon="-5.675290">
        <ele>350.453</ele>
        <time>2020-05-24T10:41:30Z</time>
      </trkpt>
      <trkpt lat="43.254890" lon="-5.675300">
        <ele>350.808</ele>
        <time>2020-05-24T10:41:50Z</time>
      </trkpt>
      <trkpt lat="43.254960" lon="-5.675310">
        <ele>351.008</ele>
        <time>2020-05-24T10:42:10Z</time>
      </trkpt>
      <trkpt lat="43.254990" lon="-5.675320">
        <ele>350.869</ele>
        <time>2020-05-24T10:42:30Z</time>
      </trkpt>
      <trkpt lat="43.255020" lon="-5.675330">
        <ele>350.414</ele>
        <time>2020-05-24T10:42:50Z</time>
      </trkpt>
      <trkpt lat="43.255030" lon="-5.675340">
        <ele>349.911</ele>
        <time>2020-05-24T10:43:10Z</time>
      </trkpt>
      <trkpt lat="43.255080" lon="-5.675370">
        <ele>348.527</ele>
        <time>2020-05-24T10:43:30Z</time>
      </trkpt>
      <trkpt lat="43.255130" lon="-5.675400">
        <ele>347.186</ele>
        <time>2020-05-24T10:43:50Z</time>
      </trkpt>
      <trkpt lat="43.255150" lon="-5.675420">
        <ele>346.147</ele>
        <time>2020-05-24T10:44:10Z</time>
      </trkpt>
      <trkpt lat="43.255180" lon="-5.675430">
        <ele>345.686</ele>
        <time>2020-05-24T10:44:30Z</time>
      </trkpt>
      <trkpt lat="43.255230" lon="-5.675440">
        <ele>345.239</ele>
        <time>2020-05-24T10:44:50Z</time>
      </trkpt>
      <trkpt lat="43.255320" lon="-5.675440">
        <ele>344.843</ele>
        <time>2020-05-24T10:45:10Z</time>
      </trkpt>
      <trkpt lat="43.255360" lon="-5.675440">
        <ele>344.364</ele>
        <time>2020-05-24T10:45:30Z</time>
      </trkpt>
      <trkpt lat="43.255540" lon="-5.675460">
        <ele>341.010</ele>
        <time>2020-05-24T10:45:50Z</time>
      </trkpt>
      <trkpt lat="43.255720" lon="-5.675470">
        <ele>339.708</ele>
        <time>2020-05-24T10:46:10Z</time>
      </trkpt>
      <trkpt lat="43.255830" lon="-5.675470">
        <ele>339.348</ele>
        <time>2020-05-24T10:46:30Z</time>
      </trkpt>
      <trkpt lat="43.255900" lon="-5.675470">
        <ele>338.273</ele>
        <time>2020-05-24T10:46:50Z</time>
      </trkpt>
      <trkpt lat="43.255970" lon="-5.675470">
        <ele>337.130</ele>
        <time>2020-05-24T10:47:10Z</time>
      </trkpt>
      <trkpt lat="43.256080" lon="-5.675470">
        <ele>335.346</ele>
        <time>2020-05-24T10:47:30Z</time>
      </trkpt>
      <trkpt lat="43.256170" lon="-5.675480">
        <ele>334.655</ele>
        <time>2020-05-24T10:47:50Z</time>
      </trkpt>
      <trkpt lat="43.256260" lon="-5.675490">
        <ele>334.576</ele>
        <time>2020-05-24T10:48:10Z</time>
      </trkpt>
      <trkpt lat="43.256310" lon="-5.675490">
        <ele>334.735</ele>
        <time>2020-05-24T10:48:30Z</time>
      </trkpt>
      <trkpt lat="43.256410" lon="-5.675500">
        <ele>335.058</ele>
        <time>2020-05-24T10:48:50Z</time>
      </trkpt>
      <trkpt lat="43.256440" lon="-5.675510">
        <ele>335.254</ele>
        <time>2020-05-24T10:49:10Z</time>
      </trkpt>
      <trkpt lat="43.256480" lon="-5.675530">
        <ele>335.256</ele>
        <time>2020-05-24T10:49:30Z</time>
      </trkpt>
      <trkpt lat="43.256540" lon="-5.675550">
        <ele>335.411</ele>
        <time>2020-05-24T10:49:50Z</time>
      </trkpt>
      <trkpt lat="43.256600" lon="-5.675580">
        <ele>335.408</ele>
        <time>2020-05-24T10:50:10Z</time>
      </trkpt>
      <trkpt lat="43.256640" lon="-5.675610">
        <ele>335.029</ele>
        <time>2020-05-24T10:50:30Z</time>
      </trkpt>
      <trkpt lat="43.256700" lon="-5.675650">
        <ele>333.574</ele>
        <time>2020-05-24T10:50:50Z</time>
      </trkpt>
      <trkpt lat="43.256760" lon="-5.675710">
        <ele>330.961</ele>
        <time>2020-05-24T10:51:10Z</time>
      </trkpt>
      <trkpt lat="43.256820" lon="-5.675760">
        <ele>328.837</ele>
        <time>2020-05-24T10:51:30Z</time>
      </trkpt>
      <trkpt lat="43.256890" lon="-5.675790">
        <ele>327.426</ele>
        <time>2020-05-24T10:51:50Z</time>
      </trkpt>
      <trkpt lat="43.256940" lon="-5.675790">
        <ele>327.097</ele>
        <time>2020-05-24T10:52:10Z</time>
      </trkpt>
      <trkpt lat="43.256990" lon="-5.675770">
        <ele>327.256</ele>
        <time>2020-05-24T10:52:30Z</time>
      </trkpt>
      <trkpt lat="43.257010" lon="-5.675760">
        <ele>327.379</ele>
        <time>2020-05-24T10:52:50Z</time>
      </trkpt>
      <trkpt lat="43.257060" lon="-5.675710">
        <ele>327.443</ele>
        <time>2020-05-24T10:53:10Z</time>
      </trkpt>
      <trkpt lat="43.257130" lon="-5.675640">
        <ele>326.764</ele>
        <time>2020-05-24T10:53:30Z</time>
      </trkpt>
      <trkpt lat="43.257180" lon="-5.675590">
        <ele>325.410</ele>
        <time>2020-05-24T10:53:50Z</time>
      </trkpt>
      <trkpt lat="43.257300" lon="-5.675490">
        <ele>325.208</ele>
        <time>2020-05-24T10:54:10Z</time>
      </trkpt>
      <trkpt lat="43.257410" lon="-5.675420">
        <ele>325.678</ele>
        <time>2020-05-24T10:54:30Z</time>
      </trkpt>
      <trkpt lat="43.257470" lon="-5.675390">
        <ele>325.463</ele>
        <time>2020-05-24T10:54:50Z</time>
      </trkpt>
      <trkpt lat="43.257510" lon="-5.675370">
        <ele>325.220</ele>
        <time>2020-05-24T10:55:10Z</time>
      </trkpt>
      <trkpt lat="43.257580" lon="-5.675350">
        <ele>324.216</ele>
        <time>2020-05-24T10:55:30Z</time>
      </trkpt>
      <trkpt lat="43.257650" lon="-5.675340">
        <ele>323.115</ele>
        <time>2020-05-24T10:55:50Z</time>
      </trkpt>
      <trkpt lat="43.257720" lon="-5.675340">
        <ele>321.996</ele>
        <time>2020-05-24T10:56:10Z</time>
      </trkpt>
      <trkpt lat="43.257810" lon="-5.675330">
        <ele>320.695</ele>
        <time>2020-05-24T10:56:30Z</time>
      </trkpt>
      <trkpt lat="43.257880" lon="-5.675310">
        <ele>319.458</ele>
        <time>2020-05-24T10:56:50Z</time>
      </trkpt>
      <trkpt lat="43.257940" lon="-5.675280">
        <ele>318.167</ele>
        <time>2020-05-24T10:57:10Z</time>
      </trkpt>
      <trkpt lat="43.258000" lon="-5.675240">
        <ele>317.581</ele>
        <time>2020-05-24T10:57:30Z</time>
      </trkpt>
      <trkpt lat="43.258020" lon="-5.675230">
        <ele>317.219</ele>
        <time>2020-05-24T10:57:50Z</time>
      </trkpt>
      <trkpt lat="43.258080" lon="-5.675170">
        <ele>317.408</ele>
        <time>2020-05-24T10:58:10Z</time>
      </trkpt>
      <trkpt lat="43.258150" lon="-5.675110">
        <ele>318.150</ele>
        <time>2020-05-24T10:58:30Z</time>
      </trkpt>
      <trkpt lat="43.258170" lon="-5.675090">
        <ele>318.155</ele>
        <time>2020-05-24T10:58:50Z</time>
      </trkpt>
      <trkpt lat="43.258220" lon="-5.675050">
        <ele>317.852</ele>
        <time>2020-05-24T10:59:10Z</time>
      </trkpt>
      <trkpt lat="43.258260" lon="-5.675020">
        <ele>317.118</ele>
        <time>2020-05-24T10:59:30Z</time>
      </trkpt>
      <trkpt lat="43.258300" lon="-5.674990">
        <ele>316.697</ele>
        <time>2020-05-24T10:59:50Z</time>
      </trkpt>
      <trkpt lat="43.258420" lon="-5.674890">
        <ele>318.178</ele>
        <time>2020-05-24T11:00:10Z</time>
      </trkpt>
      <trkpt lat="43.258450" lon="-5.674870">
        <ele>318.137</ele>
        <time>2020-05-24T11:00:30Z</time>
      </trkpt>
      <trkpt lat="43.258600" lon="-5.674710">
        <ele>314.710</ele>
        <time>2020-05-24T11:00:50Z</time>
      </trkpt>
      <trkpt lat="43.258700" lon="-5.674640">
        <ele>315.464</ele>
        <time>2020-05-24T11:01:10Z</time>
      </trkpt>
      <trkpt lat="43.258740" lon="-5.674610">
        <ele>315.406</ele>
        <time>2020-05-24T11:01:30Z</time>
      </trkpt>
      <trkpt lat="43.258800" lon="-5.674570">
        <ele>314.716</ele>
        <time>2020-05-24T11:01:50Z</time>
      </trkpt>
      <trkpt lat="43.258870" lon="-5.674520">
        <ele>313.008</ele>
        <time>2020-05-24T11:02:10Z</time>
      </trkpt>
      <trkpt lat="43.258920" lon="-5.674460">
        <ele>312.020</ele>
        <time>2020-05-24T11:02:30Z</time>
      </trkpt>
      <trkpt lat="43.258980" lon="-5.674410">
        <ele>312.595</ele>
        <time>2020-05-24T11:02:50Z</time>
      </trkpt>
      <trkpt lat="43.259030" lon="-5.674360">
        <ele>313.332</ele>
        <time>2020-05-24T11:03:10Z</time>
      </trkpt>
      <trkpt lat="43.259040" lon="-5.674360">
        <ele>313.258</ele>
        <time>2020-05-24T11:03:30Z</time>
      </trkpt>
      <trkpt lat="43.259070" lon="-5.674340">
        <ele>313.327</ele>
        <time>2020-05-24T11:03:50Z</time>
      </trkpt>
      <trkpt lat="43.259120" lon="-5.674320">
        <ele>313.098</ele>
        <time>2020-05-24T11:04:10Z</time>
      </trkpt>
      <trkpt lat="43.259180" lon="-5.674300">
        <ele>312.567</ele>
        <time>2020-05-24T11:04:30Z</time>
      </trkpt>
      <trkpt lat="43.259220" lon="-5.674300">
        <ele>312.360</ele>
        <time>2020-05-24T11:04:50Z</time>
      </trkpt>
      <trkpt lat="43.259280" lon="-5.674290">
        <ele>312.079</ele>
        <time>2020-05-24T11:05:10Z</time>
      </trkpt>
      <trkpt lat="43.259400" lon="-5.674290">
        <ele>311.405</ele>
        <time>2020-05-24T11:05:30Z</time>
      </trkpt>
      <trkpt lat="43.259480" lon="-5.674290">
        <ele>311.025</ele>
        <time>2020-05-24T11:05:50Z</time>
      </trkpt>
      <trkpt lat="43.259580" lon="-5.674280">
        <ele>310.708</ele>
        <time>2020-05-24T11:06:10Z</time>
      </trkpt>
      <trkpt lat="43.259650" lon="-5.674280">
        <ele>310.481</ele>
        <time>2020-05-24T11:06:30Z</time>
      </trkpt>
      <trkpt lat="43.259730" lon="-5.674270">
        <ele>310.276</ele>
        <time>2020-05-24T11:06:50Z</time>
      </trkpt>
      <trkpt lat="43.259790" lon="-5.674280">
        <ele>309.923</ele>
        <time>2020-05-24T11:07:10Z</time>
      </trkpt>
      <trkpt lat="43.259890" lon="-5.674280">
        <ele>309.619</ele>
        <time>2020-05-24T11:07:30Z</time>
      </trkpt>
      <trkpt lat="43.259950" lon="-5.674290">
        <ele>309.368</ele>
        <time>2020-05-24T11:07:50Z</time>
      </trkpt>
      <trkpt lat="43.260020" lon="-5.674310">
        <ele>308.949</ele>
        <time>2020-05-24T11:08:10Z</time>
      </trkpt>
      <trkpt lat="43.260050" lon="-5.674310">
        <ele>308.838</ele>
        <time>2020-05-24T11:08:30Z</time>
      </trkpt>
      <trkpt lat="43.260100" lon="-5.674330">
        <ele>308.531</ele>
        <time>2020-05-24T11:08:50Z</time>
      </trkpt>
      <trkpt lat="43.260170" lon="-5.674330">
        <ele>308.311</ele>
        <time>2020-05-24T11:09:10Z</time>
      </trkpt>
      <trkpt lat="43.260220" lon="-5.674340">
        <ele>308.221</ele>
        <time>2020-05-24T11:09:30Z</time>
      </trkpt>
      <trkpt lat="43.260225" lon="-5.674344">
        <ele>308.103</ele>
        <time>2020-05-24T11:09:50Z</time>
      </trkpt>
      <trkpt lat="43.260380" lon="-5.674290">
        <ele>307.508</ele>
        <time>2020-05-24T11:10:10Z</time>
      </trkpt>
      <trkpt lat="43.260510" lon="-5.674260">
        <ele>306.995</ele>
        <time>2020-05-24T11:10:30Z</time>
      </trkpt>
      <trkpt lat="43.260560" lon="-5.674260">
        <ele>306.760</ele>
        <time>2020-05-24T11:10:50Z</time>
      </trkpt>
      <trkpt lat="43.260610" lon="-5.674280">
        <ele>306.677</ele>
        <time>2020-05-24T11:11:10Z</time>
      </trkpt>
      <trkpt lat="43.260660" lon="-5.674310">
        <ele>306.513</ele>
        <time>2020-05-24T11:11:30Z</time>
      </trkpt>
      <trkpt lat="43.260740" lon="-5.674410">
        <ele>305.662</ele>
        <time>2020-05-24T11:11:50Z</time>
      </trkpt>
      <trkpt lat="43.260810" lon="-5.674460">
        <ele>305.183</ele>
        <time>2020-05-24T11:12:10Z</time>
      </trkpt>
      <trkpt lat="43.260840" lon="-5.674470">
        <ele>305.062</ele>
        <time>2020-05-24T11:12:30Z</time>
      </trkpt>
      <trkpt lat="43.260890" lon="-5.674440">
        <ele>304.855</ele>
        <time>2020-05-24T11:12:50Z</time>
      </trkpt>
      <trkpt lat="43.260930" lon="-5.674410">
        <ele>304.915</ele>
        <time>2020-05-24T11:13:10Z</time>
      </trkpt>
      <trkpt lat="43.261280" lon="-5.674150">
        <ele>303.465</ele>
        <time>2020-05-24T11:13:30Z</time>
      </trkpt>
      <trkpt lat="43.261410" lon="-5.674050">
        <ele>303.311</ele>
        <time>2020-05-24T11:13:50Z</time>
      </trkpt>
      <trkpt lat="43.261500" lon="-5.673970">
        <ele>304.308</ele>
        <time>2020-05-24T11:14:10Z</time>
      </trkpt>
      <trkpt lat="43.261640" lon="-5.673860">
        <ele>304.575</ele>
        <time>2020-05-24T11:14:30Z</time>
      </trkpt>
      <trkpt lat="43.261720" lon="-5.673800">
        <ele>305.140</ele>
        <time>2020-05-24T11:14:50Z</time>
      </trkpt>
      <trkpt lat="43.261810" lon="-5.673730">
        <ele>305.347</ele>
        <time>2020-05-24T11:15:10Z</time>
      </trkpt>
      <trkpt lat="43.261880" lon="-5.673690">
        <ele>305.163</ele>
        <time>2020-05-24T11:15:30Z</time>
      </trkpt>
      <trkpt lat="43.261950" lon="-5.673630">
        <ele>303.792</ele>
        <time>2020-05-24T11:15:50Z</time>
      </trkpt>
      <trkpt lat="43.262020" lon="-5.673590">
        <ele>303.483</ele>
        <time>2020-05-24T11:16:10Z</time>
      </trkpt>
      <trkpt lat="43.262070" lon="-5.673560">
        <ele>303.472</ele>
        <time>2020-05-24T11:16:30Z</time>
      </trkpt>
      <trkpt lat="43.262150" lon="-5.673540">
        <ele>303.685</ele>
        <time>2020-05-24T11:16:50Z</time>
      </trkpt>
      <trkpt lat="43.262200" lon="-5.673540">
        <ele>303.968</ele>
        <time>2020-05-24T11:17:10Z</time>
      </trkpt>
      <trkpt lat="43.262280" lon="-5.673550">
        <ele>303.542</ele>
        <time>2020-05-24T11:17:30Z</time>
      </trkpt>
      <trkpt lat="43.262320" lon="-5.673560">
        <ele>303.126</ele>
        <time>2020-05-24T11:17:50Z</time>
      </trkpt>
      <trkpt lat="43.262330" lon="-5.673570">
        <ele>303.108</ele>
        <time>2020-05-24T11:18:10Z</time>
      </trkpt>
      <trkpt lat="43.262350" lon="-5.673580">
        <ele>302.940</ele>
        <time>2020-05-24T11:18:30Z</time>
      </trkpt>
      <trkpt lat="43.262380" lon="-5.673590">
        <ele>302.695</ele>
        <time>2020-05-24T11:18:50Z</time>
      </trkpt>
      <trkpt lat="43.262410" lon="-5.673610">
        <ele>302.322</ele>
        <time>2020-05-24T11:19:10Z</time>
      </trkpt>
      <trkpt lat="43.262430" lon="-5.673630">
        <ele>302.548</ele>
        <time>2020-05-24T11:19:30Z</time>
      </trkpt>
      <trkpt lat="43.262460" lon="-5.673660">
        <ele>302.987</ele>
        <time>2020-05-24T11:19:50Z</time>
      </trkpt>
      <trkpt lat="43.262480" lon="-5.673680">
        <ele>303.158</ele>
        <time>2020-05-24T11:20:10Z</time>
      </trkpt>
      <trkpt lat="43.262560" lon="-5.673780">
        <ele>304.027</ele>
        <time>2020-05-24T11:20:30Z</time>
      </trkpt>
      <trkpt lat="43.262610" lon="-5.673840">
        <ele>303.890</ele>
        <time>2020-05-24T11:20:50Z</time>
      </trkpt>
      <trkpt lat="43.262630" lon="-5.673860">
        <ele>303.434</ele>
        <time>2020-05-24T11:21:10Z</time>
      </trkpt>
      <trkpt lat="43.262650" lon="-5.673880">
        <ele>303.155</ele>
        <time>2020-05-24T11:21:30Z</time>
      </trkpt>
      <trkpt lat="43.262660" lon="-5.673890">
        <ele>302.810</ele>
        <time>2020-05-24T11:21:50Z</time>
      </trkpt>
      <trkpt lat="43.262690" lon="-5.673900">
        <ele>302.108</ele>
        <time>2020-05-24T11:22:10Z</time>
      </trkpt>
      <trkpt lat="43.262720" lon="-5.673910">
        <ele>301.487</ele>
        <time>2020-05-24T11:22:30Z</time>
      </trkpt>
      <trkpt lat="43.262750" lon="-5.673910">
        <ele>300.432</ele>
        <time>2020-05-24T11:22:50Z</time>
      </trkpt>
      <trkpt lat="43.262770" lon="-5.673910">
        <ele>299.719</ele>
        <time>2020-05-24T11:23:10Z</time>
      </trkpt>
      <trkpt lat="43.262820" lon="-5.673880">
        <ele>298.925</ele>
        <time>2020-05-24T11:23:30Z</time>
      </trkpt>
      <trkpt lat="43.262820" lon="-5.673870">
        <ele>298.984</ele>
        <time>2020-05-24T11:23:50Z</time>
      </trkpt>
      <trkpt lat="43.262860" lon="-5.673840">
        <ele>298.745</ele>
        <time>2020-05-24T11:24:10Z</time>
      </trkpt>
      <trkpt lat="43.262900" lon="-5.673790">
        <ele>298.474</ele>
        <time>2020-05-24T11:24:30Z</time>
      </trkpt>
      <trkpt lat="43.262950" lon="-5.673700">
        <ele>297.877</ele>
        <time>2020-05-24T11:24:50Z</time>
      </trkpt>
      <trkpt lat="43.262980" lon="-5.673630">
        <ele>297.223</ele>
        <time>2020-05-24T11:25:10Z</time>
      </trkpt>
      <trkpt lat="43.263010" lon="-5.673560">
        <ele>296.783</ele>
        <time>2020-05-24T11:25:30Z</time>
      </trkpt>
      <trkpt lat="43.263060" lon="-5.673440">
        <ele>296.011</ele>
        <time>2020-05-24T11:25:50Z</time>
      </trkpt>
      <trkpt lat="43.263140" lon="-5.673280">
        <ele>295.008</ele>
        <time>2020-05-24T11:26:10Z</time>
      </trkpt>
      <trkpt lat="43.263230" lon="-5.673260">
        <ele>294.066</ele>
        <time>2020-05-24T11:26:30Z</time>
      </trkpt>
      <trkpt lat="43.263300" lon="-5.673250">
        <ele>293.161</ele>
        <time>2020-05-24T11:26:50Z</time>
      </trkpt>
      <trkpt lat="43.263310" lon="-5.673250">
        <ele>293.028</ele>
        <time>2020-05-24T11:27:10Z</time>
      </trkpt>
      <trkpt lat="43.263480" lon="-5.673260">
        <ele>294.164</ele>
        <time>2020-05-24T11:27:30Z</time>
      </trkpt>
      <trkpt lat="43.263560" lon="-5.673260">
        <ele>294.763</ele>
        <time>2020-05-24T11:27:50Z</time>
      </trkpt>
      <trkpt lat="43.263590" lon="-5.673250">
        <ele>294.794</ele>
        <time>2020-05-24T11:28:10Z</time>
      </trkpt>
      <trkpt lat="43.263620" lon="-5.673240">
        <ele>294.733</ele>
        <time>2020-05-24T11:28:30Z</time>
      </trkpt>
      <trkpt lat="43.263660" lon="-5.673230">
        <ele>294.956</ele>
        <time>2020-05-24T11:28:50Z</time>
      </trkpt>
      <trkpt lat="43.263670" lon="-5.673230">
        <ele>295.099</ele>
        <time>2020-05-24T11:29:10Z</time>
      </trkpt>
      <trkpt lat="43.263710" lon="-5.673210">
        <ele>294.807</ele>
        <time>2020-05-24T11:29:30Z</time>
      </trkpt>
      <trkpt lat="43.263760" lon="-5.673170">
        <ele>294.127</ele>
        <time>2020-05-24T11:29:50Z</time>
      </trkpt>
      <trkpt lat="43.263930" lon="-5.673050">
        <ele>290.708</ele>
        <time>2020-05-24T11:30:10Z</time>
      </trkpt>
      <trkpt lat="43.264000" lon="-5.673000">
        <ele>290.023</ele>
        <time>2020-05-24T11:30:30Z</time>
      </trkpt>
      <trkpt lat="43.264030" lon="-5.672990">
        <ele>289.658</ele>
        <time>2020-05-24T11:30:50Z</time>
      </trkpt>
      <trkpt lat="43.264060" lon="-5.672970">
        <ele>289.245</ele>
        <time>2020-05-24T11:31:10Z</time>
      </trkpt>
      <trkpt lat="43.264120" lon="-5.672970">
        <ele>288.681</ele>
        <time>2020-05-24T11:31:30Z</time>
      </trkpt>
      <trkpt lat="43.264170" lon="-5.672970">
        <ele>288.180</ele>
        <time>2020-05-24T11:31:50Z</time>
      </trkpt>
      <trkpt lat="43.264210" lon="-5.672980">
        <ele>287.931</ele>
        <time>2020-05-24T11:32:10Z</time>
      </trkpt>
      <trkpt lat="43.264250" lon="-5.673000">
        <ele>287.830</ele>
        <time>2020-05-24T11:32:30Z</time>
      </trkpt>
      <trkpt lat="43.264260" lon="-5.673010">
        <ele>287.833</ele>
        <time>2020-05-24T11:32:50Z</time>
      </trkpt>
      <trkpt lat="43.264300" lon="-5.673050">
        <ele>287.561</ele>
        <time>2020-05-24T11:33:10Z</time>
      </trkpt>
      <trkpt lat="43.264330" lon="-5.673080">
        <ele>287.621</ele>
        <time>2020-05-24T11:33:30Z</time>
      </trkpt>
      <trkpt lat="43.264440" lon="-5.673250">
        <ele>287.513</ele>
        <time>2020-05-24T11:33:50Z</time>
      </trkpt>
      <trkpt lat="43.264550" lon="-5.673440">
        <ele>287.808</ele>
        <time>2020-05-24T11:34:10Z</time>
      </trkpt>
      <trkpt lat="43.264590" lon="-5.673510">
        <ele>287.410</ele>
        <time>2020-05-24T11:34:30Z</time>
      </trkpt>
      <trkpt lat="43.264770" lon="-5.673790">
        <ele>286.775</ele>
        <time>2020-05-24T11:34:50Z</time>
      </trkpt>
      <trkpt lat="43.264810" lon="-5.673840">
        <ele>286.662</ele>
        <time>2020-05-24T11:35:10Z</time>
      </trkpt>
      <trkpt lat="43.264850" lon="-5.673880">
        <ele>286.218</ele>
        <time>2020-05-24T11:35:30Z</time>
      </trkpt>
      <trkpt lat="43.264890" lon="-5.673930">
        <ele>286.397</ele>
        <time>2020-05-24T11:35:50Z</time>
      </trkpt>
      <trkpt lat="43.264930" lon="-5.673960">
        <ele>286.288</ele>
        <time>2020-05-24T11:36:10Z</time>
      </trkpt>
      <trkpt lat="43.265010" lon="-5.674020">
        <ele>285.877</ele>
        <time>2020-05-24T11:36:30Z</time>
      </trkpt>
      <trkpt lat="43.265110" lon="-5.674090">
        <ele>286.020</ele>
        <time>2020-05-24T11:36:50Z</time>
      </trkpt>
      <trkpt lat="43.265300" lon="-5.674200">
        <ele>286.072</ele>
        <time>2020-05-24T11:37:10Z</time>
      </trkpt>
      <trkpt lat="43.265340" lon="-5.674220">
        <ele>286.213</ele>
        <time>2020-05-24T11:37:30Z</time>
      </trkpt>
      <trkpt lat="43.265360" lon="-5.674230">
        <ele>286.414</ele>
        <time>2020-05-24T11:37:50Z</time>
      </trkpt>
      <trkpt lat="43.265470" lon="-5.674280">
        <ele>287.008</ele>
        <time>2020-05-24T11:38:10Z</time>
      </trkpt>
      <trkpt lat="43.265500" lon="-5.674280">
        <ele>286.741</ele>
        <time>2020-05-24T11:38:30Z</time>
      </trkpt>
      <trkpt lat="43.265630" lon="-5.674260">
        <ele>285.796</ele>
        <time>2020-05-24T11:38:50Z</time>
      </trkpt>
      <trkpt lat="43.265670" lon="-5.674250">
        <ele>285.553</ele>
        <time>2020-05-24T11:39:10Z</time>
      </trkpt>
      <trkpt lat="43.265940" lon="-5.674140">
        <ele>282.449</ele>
        <time>2020-05-24T11:39:30Z</time>
      </trkpt>
      <trkpt lat="43.266040" lon="-5.674120">
        <ele>282.348</ele>
        <time>2020-05-24T11:39:50Z</time>
      </trkpt>
      <trkpt lat="43.266110" lon="-5.674130">
        <ele>282.539</ele>
        <time>2020-05-24T11:40:10Z</time>
      </trkpt>
      <trkpt lat="43.266200" lon="-5.674160">
        <ele>281.718</ele>
        <time>2020-05-24T11:40:30Z</time>
      </trkpt>
      <trkpt lat="43.266220" lon="-5.674170">
        <ele>281.651</ele>
        <time>2020-05-24T11:40:50Z</time>
      </trkpt>
      <trkpt lat="43.266350" lon="-5.674240">
        <ele>282.341</ele>
        <time>2020-05-24T11:41:10Z</time>
      </trkpt>
      <trkpt lat="43.266370" lon="-5.674250">
        <ele>282.381</ele>
        <time>2020-05-24T11:41:30Z</time>
      </trkpt>
      <trkpt lat="43.266460" lon="-5.674320">
        <ele>283.209</ele>
        <time>2020-05-24T11:41:50Z</time>
      </trkpt>
      <trkpt lat="43.266520" lon="-5.674370">
        <ele>283.208</ele>
        <time>2020-05-24T11:42:10Z</time>
      </trkpt>
      <trkpt lat="43.266620" lon="-5.674450">
        <ele>281.788</ele>
        <time>2020-05-24T11:42:30Z</time>
      </trkpt>
      <trkpt lat="43.266680" lon="-5.674500">
        <ele>281.423</ele>
        <time>2020-05-24T11:42:50Z</time>
      </trkpt>
      <trkpt lat="43.266830" lon="-5.674640">
        <ele>282.620</ele>
        <time>2020-05-24T11:43:10Z</time>
      </trkpt>
      <trkpt lat="43.267240" lon="-5.675010">
        <ele>282.316</ele>
        <time>2020-05-24T11:43:30Z</time>
      </trkpt>
      <trkpt lat="43.267520" lon="-5.675180">
        <ele>283.775</ele>
        <time>2020-05-24T11:43:50Z</time>
      </trkpt>
      <trkpt lat="43.267590" lon="-5.675210">
        <ele>283.526</ele>
        <time>2020-05-24T11:44:10Z</time>
      </trkpt>
      <trkpt lat="43.267670" lon="-5.675230">
        <ele>282.845</ele>
        <time>2020-05-24T11:44:30Z</time>
      </trkpt>
      <trkpt lat="43.267750" lon="-5.675230">
        <ele>281.888</ele>
        <time>2020-05-24T11:44:50Z</time>
      </trkpt>
      <trkpt lat="43.267780" lon="-5.675230">
        <ele>281.533</ele>
        <time>2020-05-24T11:45:10Z</time>
      </trkpt>
      <trkpt lat="43.267850" lon="-5.675220">
        <ele>280.823</ele>
        <time>2020-05-24T11:45:30Z</time>
      </trkpt>
      <trkpt lat="43.267930" lon="-5.675220">
        <ele>280.215</ele>
        <time>2020-05-24T11:45:50Z</time>
      </trkpt>
      <trkpt lat="43.268030" lon="-5.675240">
        <ele>279.708</ele>
        <time>2020-05-24T11:46:10Z</time>
      </trkpt>
      <trkpt lat="43.268110" lon="-5.675260">
        <ele>279.517</ele>
        <time>2020-05-24T11:46:30Z</time>
      </trkpt>
      <trkpt lat="43.268130" lon="-5.675260">
        <ele>279.582</ele>
        <time>2020-05-24T11:46:50Z</time>
      </trkpt>
      <trkpt lat="43.268210" lon="-5.675270">
        <ele>279.389</ele>
        <time>2020-05-24T11:47:10Z</time>
      </trkpt>
      <trkpt lat="43.268240" lon="-5.675270">
        <ele>279.235</ele>
        <time>2020-05-24T11:47:30Z</time>
      </trkpt>
      <trkpt lat="43.268260" lon="-5.675270">
        <ele>279.194</ele>
        <time>2020-05-24T11:47:50Z</time>
      </trkpt>
      <trkpt lat="43.268350" lon="-5.675250">
        <ele>278.775</ele>
        <time>2020-05-24T11:48:10Z</time>
      </trkpt>
      <trkpt lat="43.268380" lon="-5.675220">
        <ele>278.384</ele>
        <time>2020-05-24T11:48:30Z</time>
      </trkpt>
      <trkpt lat="43.268430" lon="-5.675190">
        <ele>278.057</ele>
        <time>2020-05-24T11:48:50Z</time>
      </trkpt>
      <trkpt lat="43.268510" lon="-5.675120">
        <ele>276.612</ele>
        <time>2020-05-24T11:49:10Z</time>
      </trkpt>
      <trkpt lat="43.268540" lon="-5.675100">
        <ele>276.132</ele>
        <time>2020-05-24T11:49:30Z</time>
      </trkpt>
      <trkpt lat="43.268690" lon="-5.674970">
        <ele>273.605</ele>
        <time>2020-05-24T11:49:50Z</time>
      </trkpt>
      <trkpt lat="43.268810" lon="-5.674880">
        <ele>274.208</ele>
        <time>2020-05-24T11:50:10Z</time>
      </trkpt>
      <trkpt lat="43.268850" lon="-5.674860">
        <ele>274.415</ele>
        <time>2020-05-24T11:50:30Z</time>
      </trkpt>
      <trkpt lat="43.269070" lon="-5.674730">
        <ele>274.060</ele>
        <time>2020-05-24T11:50:50Z</time>
      </trkpt>
      <trkpt lat="43.269170" lon="-5.674710">
        <ele>274.547</ele>
        <time>2020-05-24T11:51:10Z</time>
      </trkpt>
      <trkpt lat="43.269190" lon="-5.674710">
        <ele>274.683</ele>
        <time>2020-05-24T11:51:30Z</time>
      </trkpt>
      <trkpt lat="43.269290" lon="-5.674700">
        <ele>275.232</ele>
        <time>2020-05-24T11:51:50Z</time>
      </trkpt>
      <trkpt lat="43.269370" lon="-5.674720">
        <ele>274.163</ele>
        <time>2020-05-24T11:52:10Z</time>
      </trkpt>
      <trkpt lat="43.269420" lon="-5.674730">
        <ele>274.092</ele>
        <time>2020-05-24T11:52:30Z</time>
      </trkpt>
      <trkpt lat="43.269540" lon="-5.674770">
        <ele>274.765</ele>
        <time>2020-05-24T11:52:50Z</time>
      </trkpt>
      <trkpt lat="43.269580" lon="-5.674780">
        <ele>275.037</ele>
        <time>2020-05-24T11:53:10Z</time>
      </trkpt>
      <trkpt lat="43.269720" lon="-5.674810">
        <ele>275.749</ele>
        <time>2020-05-24T11:53:30Z</time>
      </trkpt>
      <trkpt lat="43.269840" lon="-5.674840">
        <ele>275.813</ele>
        <time>2020-05-24T11:53:50Z</time>
      </trkpt>
      <trkpt lat="43.269900" lon="-5.674850">
        <ele>275.908</ele>
        <time>2020-05-24T11:54:10Z</time>
      </trkpt>
      <trkpt lat="43.270080" lon="-5.674870">
        <ele>275.557</ele>
        <time>2020-05-24T11:54:30Z</time>
      </trkpt>
      <trkpt lat="43.270170" lon="-5.674880">
        <ele>275.052</ele>
        <time>2020-05-24T11:54:50Z</time>
      </trkpt>
      <trkpt lat="43.270260" lon="-5.674900">
        <ele>274.249</ele>
        <time>2020-05-24T11:55:10Z</time>
      </trkpt>
      <trkpt lat="43.270430" lon="-5.674960">
        <ele>272.445</ele>
        <time>2020-05-24T11:55:30Z</time>
      </trkpt>
      <trkpt lat="43.270530" lon="-5.675000">
        <ele>271.144</ele>
        <time>2020-05-24T11:55:50Z</time>
      </trkpt>
      <trkpt lat="43.270580" lon="-5.675000">
        <ele>270.995</ele>
        <time>2020-05-24T11:56:10Z</time>
      </trkpt>
      <trkpt lat="43.270630" lon="-5.674980">
        <ele>271.244</ele>
        <time>2020-05-24T11:56:30Z</time>
      </trkpt>
      <trkpt lat="43.270660" lon="-5.674970">
        <ele>271.287</ele>
        <time>2020-05-24T11:56:50Z</time>
      </trkpt>
      <trkpt lat="43.270770" lon="-5.674920">
        <ele>271.476</ele>
        <time>2020-05-24T11:57:10Z</time>
      </trkpt>
      <trkpt lat="43.270980" lon="-5.674870">
        <ele>270.890</ele>
        <time>2020-05-24T11:57:30Z</time>
      </trkpt>
      <trkpt lat="43.271010" lon="-5.674860">
        <ele>270.919</ele>
        <time>2020-05-24T11:57:50Z</time>
      </trkpt>
      <trkpt lat="43.271160" lon="-5.674820">
        <ele>270.408</ele>
        <time>2020-05-24T11:58:10Z</time>
      </trkpt>
      <trkpt lat="43.271210" lon="-5.674810">
        <ele>269.711</ele>
        <time>2020-05-24T11:58:30Z</time>
      </trkpt>
      <trkpt lat="43.271310" lon="-5.674760">
        <ele>268.446</ele>
        <time>2020-05-24T11:58:50Z</time>
      </trkpt>
      <trkpt lat="43.271460" lon="-5.674680">
        <ele>268.333</ele>
        <time>2020-05-24T11:59:10Z</time>
      </trkpt>
      <trkpt lat="43.271530" lon="-5.674650">
        <ele>268.639</ele>
        <time>2020-05-24T11:59:30Z</time>
      </trkpt>
      <trkpt lat="43.271560" lon="-5.674630">
        <ele>268.968</ele>
        <time>2020-05-24T11:59:50Z</time>
      </trkpt>
      <trkpt lat="43.271650" lon="-5.674590">
        <ele>268.689</ele>
        <time>2020-05-24T12:00:10Z</time>
      </trkpt>
      <trkpt lat="43.271700" lon="-5.674580">
        <ele>268.728</ele>
        <time>2020-05-24T12:00:30Z</time>
      </trkpt>
      <trkpt lat="43.271740" lon="-5.674570">
        <ele>269.161</ele>
        <time>2020-05-24T12:00:50Z</time>
      </trkpt>
      <trkpt lat="43.271820" lon="-5.674570">
        <ele>269.412</ele>
        <time>2020-05-24T12:01:10Z</time>
      </trkpt>
      <trkpt lat="43.271880" lon="-5.674590">
        <ele>269.132</ele>
        <time>2020-05-24T12:01:30Z</time>
      </trkpt>
      <trkpt lat="43.271890" lon="-5.674600">
        <ele>269.005</ele>
        <time>2020-05-24T12:01:50Z</time>
      </trkpt>
      <trkpt lat="43.271960" lon="-5.674630">
        <ele>268.808</ele>
        <time>2020-05-24T12:02:10Z</time>
      </trkpt>
      <trkpt lat="43.272020" lon="-5.674690">
        <ele>268.455</ele>
        <time>2020-05-24T12:02:30Z</time>
      </trkpt>
      <trkpt lat="43.272030" lon="-5.674700">
        <ele>268.320</ele>
        <time>2020-05-24T12:02:50Z</time>
      </trkpt>
      <trkpt lat="43.272110" lon="-5.674800">
        <ele>268.257</ele>
        <time>2020-05-24T12:03:10Z</time>
      </trkpt>
      <trkpt lat="43.272180" lon="-5.674910">
        <ele>268.233</ele>
        <time>2020-05-24T12:03:30Z</time>
      </trkpt>
      <trkpt lat="43.272220" lon="-5.674960">
        <ele>268.342</ele>
        <time>2020-05-24T12:03:50Z</time>
      </trkpt>
      <trkpt lat="43.272270" lon="-5.675020">
        <ele>267.973</ele>
        <time>2020-05-24T12:04:10Z</time>
      </trkpt>
      <trkpt lat="43.272310" lon="-5.675050">
        <ele>267.562</ele>
        <time>2020-05-24T12:04:30Z</time>
      </trkpt>
      <trkpt lat="43.272350" lon="-5.675070">
        <ele>267.345</ele>
        <time>2020-05-24T12:04:50Z</time>
      </trkpt>
      <trkpt lat="43.272390" lon="-5.675090">
        <ele>267.133</ele>
        <time>2020-05-24T12:05:10Z</time>
      </trkpt>
      <trkpt lat="43.272480" lon="-5.675100">
        <ele>267.223</ele>
        <time>2020-05-24T12:05:30Z</time>
      </trkpt>
      <trkpt lat="43.272550" lon="-5.675100">
        <ele>267.115</ele>
        <time>2020-05-24T12:05:50Z</time>
      </trkpt>
      <trkpt lat="43.272750" lon="-5.675100">
        <ele>266.908</ele>
        <time>2020-05-24T12:06:10Z</time>
      </trkpt>
      <trkpt lat="43.272910" lon="-5.675100">
        <ele>266.727</ele>
        <time>2020-05-24T12:06:30Z</time>
      </trkpt>
      <trkpt lat="43.273140" lon="-5.675100">
        <ele>267.012</ele>
        <time>2020-05-24T12:06:50Z</time>
      </trkpt>
      <trkpt lat="43.273290" lon="-5.675110">
        <ele>267.649</ele>
        <time>2020-05-24T12:07:10Z</time>
      </trkpt>
      <trkpt lat="43.273440" lon="-5.675170">
        <ele>268.285</ele>
        <time>2020-05-24T12:07:30Z</time>
      </trkpt>
      <trkpt lat="43.273530" lon="-5.675210">
        <ele>268.734</ele>
        <time>2020-05-24T12:07:50Z</time>
      </trkpt>
      <trkpt lat="43.273690" lon="-5.675250">
        <ele>268.975</ele>
        <time>2020-05-24T12:08:10Z</time>
      </trkpt>
      <trkpt lat="43.273790" lon="-5.675260">
        <ele>268.684</ele>
        <time>2020-05-24T12:08:30Z</time>
      </trkpt>
      <trkpt lat="43.273820" lon="-5.675260">
        <ele>268.657</ele>
        <time>2020-05-24T12:08:50Z</time>
      </trkpt>
      <trkpt lat="43.274150" lon="-5.675240">
        <ele>267.999</ele>
        <time>2020-05-24T12:09:10Z</time>
      </trkpt>
      <trkpt lat="43.274340" lon="-5.675230">
        <ele>266.707</ele>
        <time>2020-05-24T12:09:30Z</time>
      </trkpt>
      <trkpt lat="43.274450" lon="-5.675240">
        <ele>265.627</ele>
        <time>2020-05-24T12:09:50Z</time>
      </trkpt>
      <trkpt lat="43.274630" lon="-5.675240">
        <ele>263.708</ele>
        <time>2020-05-24T12:10:10Z</time>
      </trkpt>
      <trkpt lat="43.274690" lon="-5.675250">
        <ele>262.863</ele>
        <time>2020-05-24T12:10:30Z</time>
      </trkpt>
      <trkpt lat="43.274810" lon="-5.675250">
        <ele>262.438</ele>
        <time>2020-05-24T12:10:50Z</time>
      </trkpt>
      <trkpt lat="43.274990" lon="-5.675250">
        <ele>262.385</ele>
        <time>2020-05-24T12:11:10Z</time>
      </trkpt>
      <trkpt lat="43.275020" lon="-5.675250">
        <ele>262.241</ele>
        <time>2020-05-24T12:11:30Z</time>
      </trkpt>
      <trkpt lat="43.275170" lon="-5.675270">
        <ele>261.570</ele>
        <time>2020-05-24T12:11:50Z</time>
      </trkpt>
      <trkpt lat="43.275210" lon="-5.675280">
        <ele>261.261</ele>
        <time>2020-05-24T12:12:10Z</time>
      </trkpt>
      <trkpt lat="43.275540" lon="-5.675330">
        <ele>260.480</ele>
        <time>2020-05-24T12:12:30Z</time>
      </trkpt>
      <trkpt lat="43.275570" lon="-5.675350">
        <ele>260.363</ele>
        <time>2020-05-24T12:12:50Z</time>
      </trkpt>
      <trkpt lat="43.275730" lon="-5.675460">
        <ele>259.779</ele>
        <time>2020-05-24T12:13:10Z</time>
      </trkpt>
      <trkpt lat="43.275770" lon="-5.675480">
        <ele>259.405</ele>
        <time>2020-05-24T12:13:30Z</time>
      </trkpt>
      <trkpt lat="43.275900" lon="-5.675520">
        <ele>258.625</ele>
        <time>2020-05-24T12:13:50Z</time>
      </trkpt>
      <trkpt lat="43.276080" lon="-5.675520">
        <ele>258.108</ele>
        <time>2020-05-24T12:14:10Z</time>
      </trkpt>
      <trkpt lat="43.276260" lon="-5.675500">
        <ele>257.181</ele>
        <time>2020-05-24T12:14:30Z</time>
      </trkpt>
      <trkpt lat="43.276440" lon="-5.675490">
        <ele>255.826</ele>
        <time>2020-05-24T12:14:50Z</time>
      </trkpt>
      <trkpt lat="43.276460" lon="-5.675480">
        <ele>255.933</ele>
        <time>2020-05-24T12:15:10Z</time>
      </trkpt>
      <trkpt lat="43.276620" lon="-5.675480">
        <ele>254.899</ele>
        <time>2020-05-24T12:15:30Z</time>
      </trkpt>
      <trkpt lat="43.276750" lon="-5.675470">
        <ele>254.448</ele>
        <time>2020-05-24T12:15:50Z</time>
      </trkpt>
      <trkpt lat="43.276800" lon="-5.675470">
        <ele>254.199</ele>
        <time>2020-05-24T12:16:10Z</time>
      </trkpt>
      <trkpt lat="43.276910" lon="-5.675470">
        <ele>253.668</ele>
        <time>2020-05-24T12:16:30Z</time>
      </trkpt>
      <trkpt lat="43.276930" lon="-5.675470">
        <ele>253.591</ele>
        <time>2020-05-24T12:16:50Z</time>
      </trkpt>
      <trkpt lat="43.276980" lon="-5.675470">
        <ele>253.068</ele>
        <time>2020-05-24T12:17:10Z</time>
      </trkpt>
      <trkpt lat="43.277130" lon="-5.675480">
        <ele>250.842</ele>
        <time>2020-05-24T12:17:30Z</time>
      </trkpt>
      <trkpt lat="43.277190" lon="-5.675490">
        <ele>249.926</ele>
        <time>2020-05-24T12:17:50Z</time>
      </trkpt>
      <trkpt lat="43.277250" lon="-5.675520">
        <ele>248.908</ele>
        <time>2020-05-24T12:18:10Z</time>
      </trkpt>
      <trkpt lat="43.277370" lon="-5.675630">
        <ele>247.890</ele>
        <time>2020-05-24T12:18:30Z</time>
      </trkpt>
      <trkpt lat="43.277430" lon="-5.675670">
        <ele>247.545</ele>
        <time>2020-05-24T12:18:50Z</time>
      </trkpt>
      <trkpt lat="43.277520" lon="-5.675710">
        <ele>247.382</ele>
        <time>2020-05-24T12:19:10Z</time>
      </trkpt>
      <trkpt lat="43.277570" lon="-5.675720">
        <ele>247.888</ele>
        <time>2020-05-24T12:19:30Z</time>
      </trkpt>
      <trkpt lat="43.277620" lon="-5.675740">
        <ele>248.527</ele>
        <time>2020-05-24T12:19:50Z</time>
      </trkpt>
      <trkpt lat="43.277623" lon="-5.675735">
        <ele>248.468</ele>
        <time>2020-05-24T12:20:10Z</time>
      </trkpt>
      <trkpt lat="43.277690" lon="-5.675680">
        <ele>248.117</ele>
        <time>2020-05-24T12:20:30Z</time>
      </trkpt>
      <trkpt lat="43.277720" lon="-5.675650">
        <ele>247.810</ele>
        <time>2020-05-24T12:20:50Z</time>
      </trkpt>
      <trkpt lat="43.277760" lon="-5.675600">
        <ele>246.977</ele>
        <time>2020-05-24T12:21:10Z</time>
      </trkpt>
      <trkpt lat="43.277780" lon="-5.675570">
        <ele>246.461</ele>
        <time>2020-05-24T12:21:30Z</time>
      </trkpt>
      <trkpt lat="43.277840" lon="-5.675510">
        <ele>247.427</ele>
        <time>2020-05-24T12:21:50Z</time>
      </trkpt>
      <trkpt lat="43.277960" lon="-5.675320">
        <ele>247.808</ele>
        <time>2020-05-24T12:22:10Z</time>
      </trkpt>
      <trkpt lat="43.278050" lon="-5.675150">
        <ele>247.191</ele>
        <time>2020-05-24T12:22:30Z</time>
      </trkpt>
      <trkpt lat="43.278170" lon="-5.674880">
        <ele>247.956</ele>
        <time>2020-05-24T12:22:50Z</time>
      </trkpt>
      <trkpt lat="43.278210" lon="-5.674780">
        <ele>246.953</ele>
        <time>2020-05-24T12:23:10Z</time>
      </trkpt>
      <trkpt lat="43.278260" lon="-5.674640">
        <ele>245.729</ele>
        <time>2020-05-24T12:23:30Z</time>
      </trkpt>
      <trkpt lat="43.278330" lon="-5.674520">
        <ele>245.378</ele>
        <time>2020-05-24T12:23:50Z</time>
      </trkpt>
      <trkpt lat="43.278430" lon="-5.674420">
        <ele>246.819</ele>
        <time>2020-05-24T12:24:10Z</time>
      </trkpt>
      <trkpt lat="43.278440" lon="-5.674410">
        <ele>246.918</ele>
        <time>2020-05-24T12:24:30Z</time>
      </trkpt>
      <trkpt lat="43.278590" lon="-5.674280">
        <ele>246.751</ele>
        <time>2020-05-24T12:24:50Z</time>
      </trkpt>
      <trkpt lat="43.278710" lon="-5.674190">
        <ele>247.338</ele>
        <time>2020-05-24T12:25:10Z</time>
      </trkpt>
      <trkpt lat="43.278890" lon="-5.674040">
        <ele>247.470</ele>
        <time>2020-05-24T12:25:30Z</time>
      </trkpt>
      <trkpt lat="43.278940" lon="-5.673990">
        <ele>248.017</ele>
        <time>2020-05-24T12:25:50Z</time>
      </trkpt>
      <trkpt lat="43.278980" lon="-5.673940">
        <ele>247.908</ele>
        <time>2020-05-24T12:26:10Z</time>
      </trkpt>
      <trkpt lat="43.279010" lon="-5.673890">
        <ele>247.457</ele>
        <time>2020-05-24T12:26:30Z</time>
      </trkpt>
      <trkpt lat="43.279070" lon="-5.673790">
        <ele>247.432</ele>
        <time>2020-05-24T12:26:50Z</time>
      </trkpt>
      <trkpt lat="43.279080" lon="-5.673740">
        <ele>246.699</ele>
        <time>2020-05-24T12:27:10Z</time>
      </trkpt>
      <trkpt lat="43.279100" lon="-5.673670">
        <ele>245.215</ele>
        <time>2020-05-24T12:27:30Z</time>
      </trkpt>
      <trkpt lat="43.279110" lon="-5.673650">
        <ele>244.854</ele>
        <time>2020-05-24T12:27:50Z</time>
      </trkpt>
      <trkpt lat="43.279190" lon="-5.673460">
        <ele>243.625</ele>
        <time>2020-05-24T12:28:10Z</time>
      </trkpt>
      <trkpt lat="43.279230" lon="-5.673340">
        <ele>243.474</ele>
        <time>2020-05-24T12:28:30Z</time>
      </trkpt>
      <trkpt lat="43.279240" lon="-5.673300">
        <ele>243.367</ele>
        <time>2020-05-24T12:28:50Z</time>
      </trkpt>
      <trkpt lat="43.279260" lon="-5.673250">
        <ele>243.226</ele>
        <time>2020-05-24T12:29:10Z</time>
      </trkpt>
      <trkpt lat="43.279290" lon="-5.673130">
        <ele>242.347</ele>
        <time>2020-05-24T12:29:30Z</time>
      </trkpt>
      <trkpt lat="43.279310" lon="-5.673070">
        <ele>241.711</ele>
        <time>2020-05-24T12:29:50Z</time>
      </trkpt>
      <trkpt lat="43.279320" lon="-5.673010">
        <ele>241.508</ele>
        <time>2020-05-24T12:30:10Z</time>
      </trkpt>
      <trkpt lat="43.279460" lon="-5.672420">
        <ele>239.926</ele>
        <time>2020-05-24T12:30:30Z</time>
      </trkpt>
      <trkpt lat="43.279490" lon="-5.672340">
        <ele>239.821</ele>
        <time>2020-05-24T12:30:50Z</time>
      </trkpt>
      <trkpt lat="43.279520" lon="-5.672210">
        <ele>239.348</ele>
        <time>2020-05-24T12:31:10Z</time>
      </trkpt>
      <trkpt lat="43.279560" lon="-5.672120">
        <ele>239.784</ele>
        <time>2020-05-24T12:31:30Z</time>
      </trkpt>
      <trkpt lat="43.279580" lon="-5.672060">
        <ele>239.853</ele>
        <time>2020-05-24T12:31:50Z</time>
      </trkpt>
      <trkpt lat="43.279600" lon="-5.672020">
        <ele>239.884</ele>
        <time>2020-05-24T12:32:10Z</time>
      </trkpt>
      <trkpt lat="43.279610" lon="-5.672010">
        <ele>239.883</ele>
        <time>2020-05-24T12:32:30Z</time>
      </trkpt>
      <trkpt lat="43.279620" lon="-5.671980">
        <ele>239.746</ele>
        <time>2020-05-24T12:32:50Z</time>
      </trkpt>
      <trkpt lat="43.279650" lon="-5.671930">
        <ele>239.544</ele>
        <time>2020-05-24T12:33:10Z</time>
      </trkpt>
      <trkpt lat="43.279690" lon="-5.671870">
        <ele>239.305</ele>
        <time>2020-05-24T12:33:30Z</time>
      </trkpt>
      <trkpt lat="43.279760" lon="-5.671780">
        <ele>238.915</ele>
        <time>2020-05-24T12:33:50Z</time>
      </trkpt>
      <trkpt lat="43.279830" lon="-5.671700">
        <ele>238.708</ele>
        <time>2020-05-24T12:34:10Z</time>
      </trkpt>
      <trkpt lat="43.279860" lon="-5.671660">
        <ele>238.548</ele>
        <time>2020-05-24T12:34:30Z</time>
      </trkpt>
      <trkpt lat="43.279900" lon="-5.671620">
        <ele>238.453</ele>
        <time>2020-05-24T12:34:50Z</time>
      </trkpt>
      <trkpt lat="43.279960" lon="-5.671560">
        <ele>238.140</ele>
        <time>2020-05-24T12:35:10Z</time>
      </trkpt>
      <trkpt lat="43.280040" lon="-5.671500">
        <ele>237.956</ele>
        <time>2020-05-24T12:35:30Z</time>
      </trkpt>
      <trkpt lat="43.280100" lon="-5.671460">
        <ele>237.755</ele>
        <time>2020-05-24T12:35:50Z</time>
      </trkpt>
      <trkpt lat="43.280230" lon="-5.671400">
        <ele>237.266</ele>
        <time>2020-05-24T12:36:10Z</time>
      </trkpt>
      <trkpt lat="43.280370" lon="-5.671310">
        <ele>237.735</ele>
        <time>2020-05-24T12:36:30Z</time>
      </trkpt>
      <trkpt lat="43.280440" lon="-5.671280">
        <ele>237.968</ele>
        <time>2020-05-24T12:36:50Z</time>
      </trkpt>
      <trkpt lat="43.280520" lon="-5.671230">
        <ele>237.897</ele>
        <time>2020-05-24T12:37:10Z</time>
      </trkpt>
      <trkpt lat="43.280560" lon="-5.671210">
        <ele>237.823</ele>
        <time>2020-05-24T12:37:30Z</time>
      </trkpt>
      <trkpt lat="43.280600" lon="-5.671180">
        <ele>238.125</ele>
        <time>2020-05-24T12:37:50Z</time>
      </trkpt>
      <trkpt lat="43.280630" lon="-5.671140">
        <ele>238.008</ele>
        <time>2020-05-24T12:38:10Z</time>
      </trkpt>
      <trkpt lat="43.280680" lon="-5.671100">
        <ele>237.823</ele>
        <time>2020-05-24T12:38:30Z</time>
      </trkpt>
      <trkpt lat="43.280720" lon="-5.671070">
        <ele>237.918</ele>
        <time>2020-05-24T12:38:50Z</time>
      </trkpt>
      <trkpt lat="43.280840" lon="-5.670960">
        <ele>237.565</ele>
        <time>2020-05-24T12:39:10Z</time>
      </trkpt>
      <trkpt lat="43.280900" lon="-5.670910">
        <ele>238.121</ele>
        <time>2020-05-24T12:39:30Z</time>
      </trkpt>
      <trkpt lat="43.280940" lon="-5.670880">
        <ele>238.210</ele>
        <time>2020-05-24T12:39:50Z</time>
      </trkpt>
      <trkpt lat="43.280980" lon="-5.670850">
        <ele>238.031</ele>
        <time>2020-05-24T12:40:10Z</time>
      </trkpt>
      <trkpt lat="43.281060" lon="-5.670790">
        <ele>238.170</ele>
        <time>2020-05-24T12:40:30Z</time>
      </trkpt>
      <trkpt lat="43.281120" lon="-5.670750">
        <ele>238.133</ele>
        <time>2020-05-24T12:40:50Z</time>
      </trkpt>
      <trkpt lat="43.281330" lon="-5.670620">
        <ele>236.337</ele>
        <time>2020-05-24T12:41:10Z</time>
      </trkpt>
      <trkpt lat="43.281500" lon="-5.670530">
        <ele>234.949</ele>
        <time>2020-05-24T12:41:30Z</time>
      </trkpt>
      <trkpt lat="43.281630" lon="-5.670460">
        <ele>234.713</ele>
        <time>2020-05-24T12:41:50Z</time>
      </trkpt>
      <trkpt lat="43.281730" lon="-5.670410">
        <ele>234.408</ele>
        <time>2020-05-24T12:42:10Z</time>
      </trkpt>
      <trkpt lat="43.281760" lon="-5.670400">
        <ele>234.357</ele>
        <time>2020-05-24T12:42:30Z</time>
      </trkpt>
      <trkpt lat="43.281800" lon="-5.670380">
        <ele>234.142</ele>
        <time>2020-05-24T12:42:50Z</time>
      </trkpt>
      <trkpt lat="43.281820" lon="-5.670380">
        <ele>234.089</ele>
        <time>2020-05-24T12:43:10Z</time>
      </trkpt>
      <trkpt lat="43.281830" lon="-5.670380">
        <ele>234.045</ele>
        <time>2020-05-24T12:43:30Z</time>
      </trkpt>
      <trkpt lat="43.281890" lon="-5.670380">
        <ele>233.954</ele>
        <time>2020-05-24T12:43:50Z</time>
      </trkpt>
      <trkpt lat="43.281970" lon="-5.670380">
        <ele>233.655</ele>
        <time>2020-05-24T12:44:10Z</time>
      </trkpt>
      <trkpt lat="43.282080" lon="-5.670400">
        <ele>233.444</ele>
        <time>2020-05-24T12:44:30Z</time>
      </trkpt>
      <trkpt lat="43.282420" lon="-5.670500">
        <ele>232.917</ele>
        <time>2020-05-24T12:44:50Z</time>
      </trkpt>
      <trkpt lat="43.282570" lon="-5.670540">
        <ele>233.819</ele>
        <time>2020-05-24T12:45:10Z</time>
      </trkpt>
      <trkpt lat="43.282610" lon="-5.670550">
        <ele>234.509</ele>
        <time>2020-05-24T12:45:30Z</time>
      </trkpt>
      <trkpt lat="43.282630" lon="-5.670550">
        <ele>234.819</ele>
        <time>2020-05-24T12:45:50Z</time>
      </trkpt>
      <trkpt lat="43.282650" lon="-5.670540">
        <ele>234.908</ele>
        <time>2020-05-24T12:46:10Z</time>
      </trkpt>
      <trkpt lat="43.282670" lon="-5.670530">
        <ele>235.085</ele>
        <time>2020-05-24T12:46:30Z</time>
      </trkpt>
      <trkpt lat="43.282690" lon="-5.670510">
        <ele>235.070</ele>
        <time>2020-05-24T12:46:50Z</time>
      </trkpt>
      <trkpt lat="43.282780" lon="-5.670460">
        <ele>234.957</ele>
        <time>2020-05-24T12:47:10Z</time>
      </trkpt>
      <trkpt lat="43.282830" lon="-5.670440">
        <ele>234.643</ele>
        <time>2020-05-24T12:47:30Z</time>
      </trkpt>
      <trkpt lat="43.282880" lon="-5.670420">
        <ele>234.312</ele>
        <time>2020-05-24T12:47:50Z</time>
      </trkpt>
      <trkpt lat="43.282930" lon="-5.670420">
        <ele>234.443</ele>
        <time>2020-05-24T12:48:10Z</time>
      </trkpt>
      <trkpt lat="43.282970" lon="-5.670420">
        <ele>234.442</ele>
        <time>2020-05-24T12:48:30Z</time>
      </trkpt>
      <trkpt lat="43.283200" lon="-5.670460">
        <ele>234.455</ele>
        <time>2020-05-24T12:48:50Z</time>
      </trkpt>
      <trkpt lat="43.283390" lon="-5.670510">
        <ele>233.365</ele>
        <time>2020-05-24T12:49:10Z</time>
      </trkpt>
      <trkpt lat="43.283500" lon="-5.670550">
        <ele>232.568</ele>
        <time>2020-05-24T12:49:30Z</time>
      </trkpt>
      <trkpt lat="43.283550" lon="-5.670560">
        <ele>232.114</ele>
        <time>2020-05-24T12:49:50Z</time>
      </trkpt>
      <trkpt lat="43.283670" lon="-5.670580">
        <ele>231.608</ele>
        <time>2020-05-24T12:50:10Z</time>
      </trkpt>
      <trkpt lat="43.283680" lon="-5.670580">
        <ele>231.580</ele>
        <time>2020-05-24T12:50:30Z</time>
      </trkpt>
      <trkpt lat="43.283810" lon="-5.670590">
        <ele>231.245</ele>
        <time>2020-05-24T12:50:50Z</time>
      </trkpt>
      <trkpt lat="43.283990" lon="-5.670620">
        <ele>231.382</ele>
        <time>2020-05-24T12:51:10Z</time>
      </trkpt>
      <trkpt lat="43.284240" lon="-5.670650">
        <ele>231.938</ele>
        <time>2020-05-24T12:51:30Z</time>
      </trkpt>
      <trkpt lat="43.284340" lon="-5.670660">
        <ele>232.017</ele>
        <time>2020-05-24T12:51:50Z</time>
      </trkpt>
      <trkpt lat="43.284400" lon="-5.670670">
        <ele>232.238</ele>
        <time>2020-05-24T12:52:10Z</time>
      </trkpt>
      <trkpt lat="43.284450" lon="-5.670670">
        <ele>232.177</ele>
        <time>2020-05-24T12:52:30Z</time>
      </trkpt>
      <trkpt lat="43.284480" lon="-5.670660">
        <ele>231.780</ele>
        <time>2020-05-24T12:52:50Z</time>
      </trkpt>
      <trkpt lat="43.284520" lon="-5.670650">
        <ele>231.422</ele>
        <time>2020-05-24T12:53:10Z</time>
      </trkpt>
      <trkpt lat="43.284570" lon="-5.670620">
        <ele>230.562</ele>
        <time>2020-05-24T12:53:30Z</time>
      </trkpt>
      <trkpt lat="43.284590" lon="-5.670610">
        <ele>230.208</ele>
        <time>2020-05-24T12:53:50Z</time>
      </trkpt>
      <trkpt lat="43.284650" lon="-5.670560">
        <ele>228.908</ele>
        <time>2020-05-24T12:54:10Z</time>
      </trkpt>
      <trkpt lat="43.284740" lon="-5.670490">
        <ele>228.616</ele>
        <time>2020-05-24T12:54:30Z</time>
      </trkpt>
      <trkpt lat="43.284900" lon="-5.670360">
        <ele>227.871</ele>
        <time>2020-05-24T12:54:50Z</time>
      </trkpt>
      <trkpt lat="43.284960" lon="-5.670300">
        <ele>227.298</ele>
        <time>2020-05-24T12:55:10Z</time>
      </trkpt>
      <trkpt lat="43.285080" lon="-5.670170">
        <ele>226.484</ele>
        <time>2020-05-24T12:55:30Z</time>
      </trkpt>
      <trkpt lat="43.285110" lon="-5.670140">
        <ele>226.313</ele>
        <time>2020-05-24T12:55:50Z</time>
      </trkpt>
      <trkpt lat="43.285170" lon="-5.670050">
        <ele>226.124</ele>
        <time>2020-05-24T12:56:10Z</time>
      </trkpt>
      <trkpt lat="43.285240" lon="-5.669960">
        <ele>226.063</ele>
        <time>2020-05-24T12:56:30Z</time>
      </trkpt>
      <trkpt lat="43.285270" lon="-5.669910">
        <ele>226.026</ele>
        <time>2020-05-24T12:56:50Z</time>
      </trkpt>
      <trkpt lat="43.285310" lon="-5.669870">
        <ele>225.969</ele>
        <time>2020-05-24T12:57:10Z</time>
      </trkpt>
      <trkpt lat="43.285340" lon="-5.669850">
        <ele>225.804</ele>
        <time>2020-05-24T12:57:30Z</time>
      </trkpt>
      <trkpt lat="43.285350" lon="-5.669840">
        <ele>225.724</ele>
        <time>2020-05-24T12:57:50Z</time>
      </trkpt>
      <trkpt lat="43.285380" lon="-5.669840">
        <ele>225.608</ele>
        <time>2020-05-24T12:58:10Z</time>
      </trkpt>
      <trkpt lat="43.285540" lon="-5.669840">
        <ele>225.180</ele>
        <time>2020-05-24T12:58:30Z</time>
      </trkpt>
      <trkpt lat="43.285570" lon="-5.669820">
        <ele>225.075</ele>
        <time>2020-05-24T12:58:50Z</time>
      </trkpt>
      <trkpt lat="43.285590" lon="-5.669820">
        <ele>225.042</ele>
        <time>2020-05-24T12:59:10Z</time>
      </trkpt>
      <trkpt lat="43.285620" lon="-5.669810">
        <ele>225.038</ele>
        <time>2020-05-24T12:59:30Z</time>
      </trkpt>
      <trkpt lat="43.285690" lon="-5.669800">
        <ele>225.037</ele>
        <time>2020-05-24T12:59:50Z</time>
      </trkpt>
      <trkpt lat="43.285740" lon="-5.669790">
        <ele>225.018</ele>
        <time>2020-05-24T13:00:10Z</time>
      </trkpt>
      <trkpt lat="43.286370" lon="-5.669610">
        <ele>223.547</ele>
        <time>2020-05-24T13:00:30Z</time>
      </trkpt>
      <trkpt lat="43.286600" lon="-5.669550">
        <ele>222.490</ele>
        <time>2020-05-24T13:00:50Z</time>
      </trkpt>
      <trkpt lat="43.286920" lon="-5.669470">
        <ele>221.136</ele>
        <time>2020-05-24T13:01:10Z</time>
      </trkpt>
      <trkpt lat="43.287120" lon="-5.669450">
        <ele>220.417</ele>
        <time>2020-05-24T13:01:30Z</time>
      </trkpt>
      <trkpt lat="43.287200" lon="-5.669430">
        <ele>220.118</ele>
        <time>2020-05-24T13:01:50Z</time>
      </trkpt>
      <trkpt lat="43.287280" lon="-5.669410">
        <ele>220.108</ele>
        <time>2020-05-24T13:02:10Z</time>
      </trkpt>
      <trkpt lat="43.287350" lon="-5.669380">
        <ele>220.137</ele>
        <time>2020-05-24T13:02:30Z</time>
      </trkpt>
      <trkpt lat="43.287550" lon="-5.669270">
        <ele>219.892</ele>
        <time>2020-05-24T13:02:50Z</time>
      </trkpt>
      <trkpt lat="43.287690" lon="-5.669210">
        <ele>219.389</ele>
        <time>2020-05-24T13:03:10Z</time>
      </trkpt>
      <trkpt lat="43.287720" lon="-5.669190">
        <ele>219.215</ele>
        <time>2020-05-24T13:03:30Z</time>
      </trkpt>
      <trkpt lat="43.287750" lon="-5.669180">
        <ele>219.114</ele>
        <time>2020-05-24T13:03:50Z</time>
      </trkpt>
      <trkpt lat="43.288340" lon="-5.669040">
        <ele>218.075</ele>
        <time>2020-05-24T13:04:10Z</time>
      </trkpt>
      <trkpt lat="43.288370" lon="-5.669030">
        <ele>218.144</ele>
        <time>2020-05-24T13:04:30Z</time>
      </trkpt>
      <trkpt lat="43.288373" lon="-5.669031">
        <ele>218.127</ele>
        <time>2020-05-24T13:04:50Z</time>
      </trkpt>
      <trkpt lat="43.288390" lon="-5.669210">
        <ele>218.361</ele>
        <time>2020-05-24T13:05:10Z</time>
      </trkpt>
      <trkpt lat="43.288430" lon="-5.669450">
        <ele>219.021</ele>
        <time>2020-05-24T13:05:30Z</time>
      </trkpt>
      <trkpt lat="43.288450" lon="-5.669500">
        <ele>218.913</ele>
        <time>2020-05-24T13:05:50Z</time>
      </trkpt>
      <trkpt lat="43.288500" lon="-5.669690">
        <ele>218.508</ele>
        <time>2020-05-24T13:06:10Z</time>
      </trkpt>
      <trkpt lat="43.288710" lon="-5.670460">
        <ele>218.020</ele>
        <time>2020-05-24T13:06:30Z</time>
      </trkpt>
      <trkpt lat="43.288780" lon="-5.670690">
        <ele>218.255</ele>
        <time>2020-05-24T13:06:50Z</time>
      </trkpt>
      <trkpt lat="43.288810" lon="-5.670760">
        <ele>218.242</ele>
        <time>2020-05-24T13:07:10Z</time>
      </trkpt>
      <trkpt lat="43.288920" lon="-5.670990">
        <ele>218.078</ele>
        <time>2020-05-24T13:07:30Z</time>
      </trkpt>
      <trkpt lat="43.288950" lon="-5.671040">
        <ele>218.097</ele>
        <time>2020-05-24T13:07:50Z</time>
      </trkpt>
      <trkpt lat="43.288970" lon="-5.671080">
        <ele>218.088</ele>
        <time>2020-05-24T13:08:10Z</time>
      </trkpt>
      <trkpt lat="43.289080" lon="-5.671250">
        <ele>217.787</ele>
        <time>2020-05-24T13:08:30Z</time>
      </trkpt>
      <trkpt lat="43.289180" lon="-5.671400">
        <ele>217.050</ele>
        <time>2020-05-24T13:08:50Z</time>
      </trkpt>
      <trkpt lat="43.289570" lon="-5.672030">
        <ele>217.034</ele>
        <time>2020-05-24T13:09:10Z</time>
      </trkpt>
      <trkpt lat="43.289620" lon="-5.672100">
        <ele>217.055</ele>
        <time>2020-05-24T13:09:30Z</time>
      </trkpt>
      <trkpt lat="43.289710" lon="-5.672240">
        <ele>216.910</ele>
        <time>2020-05-24T13:09:50Z</time>
      </trkpt>
      <trkpt lat="43.289760" lon="-5.672320">
        <ele>216.708</ele>
        <time>2020-05-24T13:10:10Z</time>
      </trkpt>
      <trkpt lat="43.289770" lon="-5.672340">
        <ele>216.627</ele>
        <time>2020-05-24T13:10:30Z</time>
      </trkpt>
      <trkpt lat="43.289780" lon="-5.672350">
        <ele>216.652</ele>
        <time>2020-05-24T13:10:50Z</time>
      </trkpt>
      <trkpt lat="43.289910" lon="-5.672720">
        <ele>216.119</ele>
        <time>2020-05-24T13:11:10Z</time>
      </trkpt>
      <trkpt lat="43.290100" lon="-5.673190">
        <ele>216.045</ele>
        <time>2020-05-24T13:11:30Z</time>
      </trkpt>
      <trkpt lat="43.290220" lon="-5.673520">
        <ele>216.024</ele>
        <time>2020-05-24T13:11:50Z</time>
      </trkpt>
      <trkpt lat="43.290230" lon="-5.673540">
        <ele>216.065</ele>
        <time>2020-05-24T13:12:10Z</time>
      </trkpt>
      <trkpt lat="43.290330" lon="-5.673630">
        <ele>216.214</ele>
        <time>2020-05-24T13:12:30Z</time>
      </trkpt>
      <trkpt lat="43.290326" lon="-5.673629">
        <ele>216.217</ele>
        <time>2020-05-24T13:12:50Z</time>
      </trkpt>
      <trkpt lat="43.290330" lon="-5.673620">
        <ele>216.273</ele>
        <time>2020-05-24T13:13:10Z</time>
      </trkpt>
      <trkpt lat="43.290340" lon="-5.673620">
        <ele>216.285</ele>
        <time>2020-05-24T13:13:30Z</time>
      </trkpt>
      <trkpt lat="43.290350" lon="-5.673620">
        <ele>216.313</ele>
        <time>2020-05-24T13:13:50Z</time>
      </trkpt>
      <trkpt lat="43.290360" lon="-5.673620">
        <ele>216.308</ele>
        <time>2020-05-24T13:14:10Z</time>
      </trkpt>
      <trkpt lat="43.290370" lon="-5.673620">
        <ele>216.361</ele>
        <time>2020-05-24T13:14:30Z</time>
      </trkpt>
      <trkpt lat="43.290380" lon="-5.673620">
        <ele>216.476</ele>
        <time>2020-05-24T13:14:50Z</time>
      </trkpt>
      <trkpt lat="43.290390" lon="-5.673620">
        <ele>216.463</ele>
        <time>2020-05-24T13:15:10Z</time>
      </trkpt>
      <trkpt lat="43.290400" lon="-5.673620">
        <ele>216.499</ele>
        <time>2020-05-24T13:15:30Z</time>
      </trkpt>
      <trkpt lat="43.290420" lon="-5.673580">
        <ele>216.578</ele>
        <time>2020-05-24T13:15:50Z</time>
      </trkpt>
      <trkpt lat="43.290460" lon="-5.673510">
        <ele>216.719</ele>
        <time>2020-05-24T13:16:10Z</time>
      </trkpt>
      <trkpt lat="43.290480" lon="-5.673450">
        <ele>216.778</ele>
        <time>2020-05-24T13:16:30Z</time>
      </trkpt>
      <trkpt lat="43.290490" lon="-5.673400">
        <ele>216.811</ele>
        <time>2020-05-24T13:16:50Z</time>
      </trkpt>
      <trkpt lat="43.290510" lon="-5.673320">
        <ele>216.939</ele>
        <time>2020-05-24T13:17:10Z</time>
      </trkpt>
      <trkpt lat="43.290510" lon="-5.673230">
        <ele>217.101</ele>
        <time>2020-05-24T13:17:30Z</time>
      </trkpt>
      <trkpt lat="43.290510" lon="-5.673160">
        <ele>217.421</ele>
        <time>2020-05-24T13:17:50Z</time>
      </trkpt>
      <trkpt lat="43.290440" lon="-5.672720">
        <ele>218.608</ele>
        <time>2020-05-24T13:18:10Z</time>
      </trkpt>
      <trkpt lat="43.290430" lon="-5.672650">
        <ele>218.577</ele>
        <time>2020-05-24T13:18:30Z</time>
      </trkpt>
      <trkpt lat="43.290450" lon="-5.672560">
        <ele>218.622</ele>
        <time>2020-05-24T13:18:50Z</time>
      </trkpt>
      <trkpt lat="43.290460" lon="-5.672500">
        <ele>218.799</ele>
        <time>2020-05-24T13:19:10Z</time>
      </trkpt>
      <trkpt lat="43.290500" lon="-5.672430">
        <ele>218.835</ele>
        <time>2020-05-24T13:19:30Z</time>
      </trkpt>
      <trkpt lat="43.290650" lon="-5.672270">
        <ele>217.434</ele>
        <time>2020-05-24T13:19:50Z</time>
      </trkpt>
      <trkpt lat="43.290750" lon="-5.672160">
        <ele>215.425</ele>
        <time>2020-05-24T13:20:10Z</time>
      </trkpt>
      <trkpt lat="43.291050" lon="-5.671840">
        <ele>218.914</ele>
        <time>2020-05-24T13:20:30Z</time>
      </trkpt>
      <trkpt lat="43.291080" lon="-5.671820">
        <ele>219.767</ele>
        <time>2020-05-24T13:20:50Z</time>
      </trkpt>
      <trkpt lat="43.291210" lon="-5.671670">
        <ele>221.337</ele>
        <time>2020-05-24T13:21:10Z</time>
      </trkpt>
      <trkpt lat="43.291215" lon="-5.671667">
        <ele>221.349</ele>
        <time>2020-05-24T13:21:30Z</time>
      </trkpt>
      <trkpt lat="43.291150" lon="-5.671460">
        <ele>221.713</ele>
        <time>2020-05-24T13:21:50Z</time>
      </trkpt>
      <trkpt lat="43.291140" lon="-5.671440">
        <ele>221.808</ele>
        <time>2020-05-24T13:22:10Z</time>
      </trkpt>
      <trkpt lat="43.291050" lon="-5.671220">
        <ele>219.357</ele>
        <time>2020-05-24T13:22:30Z</time>
      </trkpt>
      <trkpt lat="43.290980" lon="-5.671060">
        <ele>218.072</ele>
        <time>2020-05-24T13:22:50Z</time>
      </trkpt>
      <trkpt lat="43.290920" lon="-5.670850">
        <ele>218.019</ele>
        <time>2020-05-24T13:23:10Z</time>
      </trkpt>
      <trkpt lat="43.290860" lon="-5.670670">
        <ele>218.195</ele>
        <time>2020-05-24T13:23:30Z</time>
      </trkpt>
      <trkpt lat="43.290820" lon="-5.670560">
        <ele>217.984</ele>
        <time>2020-05-24T13:23:50Z</time>
      </trkpt>
      <trkpt lat="43.290820" lon="-5.670540">
        <ele>217.945</ele>
        <time>2020-05-24T13:24:10Z</time>
      </trkpt>
      <trkpt lat="43.290800" lon="-5.670410">
        <ele>217.644</ele>
        <time>2020-05-24T13:24:30Z</time>
      </trkpt>
      <trkpt lat="43.290780" lon="-5.670320">
        <ele>217.467</ele>
        <time>2020-05-24T13:24:50Z</time>
      </trkpt>
      <trkpt lat="43.290710" lon="-5.670020">
        <ele>216.761</ele>
        <time>2020-05-24T13:25:10Z</time>
      </trkpt>
      <trkpt lat="43.290690" lon="-5.669900">
        <ele>216.621</ele>
        <time>2020-05-24T13:25:30Z</time>
      </trkpt>
      <trkpt lat="43.290680" lon="-5.669770">
        <ele>216.813</ele>
        <time>2020-05-24T13:25:50Z</time>
      </trkpt>
      <trkpt lat="43.290680" lon="-5.669750">
        <ele>216.808</ele>
        <time>2020-05-24T13:26:10Z</time>
      </trkpt>
      <trkpt lat="43.290680" lon="-5.669740">
        <ele>216.930</ele>
        <time>2020-05-24T13:26:30Z</time>
      </trkpt>
      <trkpt lat="43.290680" lon="-5.669730">
        <ele>216.935</ele>
        <time>2020-05-24T13:26:50Z</time>
      </trkpt>
      <trkpt lat="43.290690" lon="-5.669710">
        <ele>217.012</ele>
        <time>2020-05-24T13:27:10Z</time>
      </trkpt>
      <trkpt lat="43.290690" lon="-5.669690">
        <ele>217.098</ele>
        <time>2020-05-24T13:27:30Z</time>
      </trkpt>
      <trkpt lat="43.290720" lon="-5.669630">
        <ele>217.317</ele>
        <time>2020-05-24T13:27:50Z</time>
      </trkpt>
      <trkpt lat="43.290722" lon="-5.669631">
        <ele>217.328</ele>
        <time>2020-05-24T13:28:10Z</time>
      </trkpt>
      <trkpt lat="43.290730" lon="-5.669390">
        <ele>217.647</ele>
        <time>2020-05-24T13:28:30Z</time>
      </trkpt>
      <trkpt lat="43.290660" lon="-5.669010">
        <ele>217.740</ele>
        <time>2020-05-24T13:28:50Z</time>
      </trkpt>
      <trkpt lat="43.290610" lon="-5.668810">
        <ele>218.455</ele>
        <time>2020-05-24T13:29:10Z</time>
      </trkpt>
      <trkpt lat="43.290590" lon="-5.668440">
        <ele>219.907</ele>
        <time>2020-05-24T13:29:30Z</time>
      </trkpt>
      <trkpt lat="43.290580" lon="-5.668140">
        <ele>221.017</ele>
        <time>2020-05-24T13:29:50Z</time>
      </trkpt>
      <trkpt lat="43.290570" lon="-5.668090">
        <ele>221.108</ele>
        <time>2020-05-24T13:30:10Z</time>
      </trkpt>
      <trkpt lat="43.290560" lon="-5.667550">
        <ele>221.069</ele>
        <time>2020-05-24T13:30:30Z</time>
      </trkpt>
      <trkpt lat="43.290570" lon="-5.666900">
        <ele>222.294</ele>
        <time>2020-05-24T13:30:50Z</time>
      </trkpt>
      <trkpt lat="43.290490" lon="-5.665930">
        <ele>223.391</ele>
        <time>2020-05-24T13:31:10Z</time>
      </trkpt>
      <trkpt lat="43.290450" lon="-5.665630">
        <ele>223.097</ele>
        <time>2020-05-24T13:31:30Z</time>
      </trkpt>
      <trkpt lat="43.290440" lon="-5.665540">
        <ele>223.086</ele>
        <time>2020-05-24T13:31:50Z</time>
      </trkpt>
      <trkpt lat="43.290420" lon="-5.665290">
        <ele>223.517</ele>
        <time>2020-05-24T13:32:10Z</time>
      </trkpt>
      <trkpt lat="43.290380" lon="-5.665000">
        <ele>223.876</ele>
        <time>2020-05-24T13:32:30Z</time>
      </trkpt>
      <trkpt lat="43.290360" lon="-5.664770">
        <ele>224.179</ele>
        <time>2020-05-24T13:32:50Z</time>
      </trkpt>
      <trkpt lat="43.290340" lon="-5.664490">
        <ele>224.569</ele>
        <time>2020-05-24T13:33:10Z</time>
      </trkpt>
      <trkpt lat="43.290330" lon="-5.664240">
        <ele>225.004</ele>
        <time>2020-05-24T13:33:30Z</time>
      </trkpt>
      <trkpt lat="43.290330" lon="-5.664020">
        <ele>225.624</ele>
        <time>2020-05-24T13:33:50Z</time>
      </trkpt>
      <trkpt lat="43.290330" lon="-5.663850">
        <ele>225.908</ele>
        <time>2020-05-24T13:34:10Z</time>
      </trkpt>
      <trkpt lat="43.290340" lon="-5.663810">
        <ele>226.150</ele>
        <time>2020-05-24T13:34:30Z</time>
      </trkpt>
      <trkpt lat="43.290360" lon="-5.663530">
        <ele>226.025</ele>
        <time>2020-05-24T13:34:50Z</time>
      </trkpt>
      <trkpt lat="43.290420" lon="-5.663010">
        <ele>225.952</ele>
        <time>2020-05-24T13:35:10Z</time>
      </trkpt>
      <trkpt lat="43.290550" lon="-5.662150">
        <ele>227.658</ele>
        <time>2020-05-24T13:35:30Z</time>
      </trkpt>
      <trkpt lat="43.290620" lon="-5.661710">
        <ele>227.087</ele>
        <time>2020-05-24T13:35:50Z</time>
      </trkpt>
      <trkpt lat="43.290730" lon="-5.660940">
        <ele>227.928</ele>
        <time>2020-05-24T13:36:10Z</time>
      </trkpt>
      <trkpt lat="43.290770" lon="-5.660580">
        <ele>227.467</ele>
        <time>2020-05-24T13:36:30Z</time>
      </trkpt>
      <trkpt lat="43.290780" lon="-5.660370">
        <ele>226.890</ele>
        <time>2020-05-24T13:36:50Z</time>
      </trkpt>
      <trkpt lat="43.290780" lon="-5.660160">
        <ele>225.384</ele>
        <time>2020-05-24T13:37:10Z</time>
      </trkpt>
      <trkpt lat="43.290760" lon="-5.659950">
        <ele>223.107</ele>
        <time>2020-05-24T13:37:30Z</time>
      </trkpt>
      <trkpt lat="43.290710" lon="-5.659590">
        <ele>221.517</ele>
        <time>2020-05-24T13:37:50Z</time>
      </trkpt>
      <trkpt lat="43.290590" lon="-5.659050">
        <ele>219.608</ele>
        <time>2020-05-24T13:38:10Z</time>
      </trkpt>
      <trkpt lat="43.290410" lon="-5.658440">
        <ele>224.732</ele>
        <time>2020-05-24T13:38:30Z</time>
      </trkpt>
      <trkpt lat="43.290360" lon="-5.658300">
        <ele>226.597</ele>
        <time>2020-05-24T13:38:50Z</time>
      </trkpt>
      <trkpt lat="43.290360" lon="-5.658290">
        <ele>226.644</ele>
        <time>2020-05-24T13:39:10Z</time>
      </trkpt>
      <trkpt lat="43.290320" lon="-5.658160">
        <ele>228.720</ele>
        <time>2020-05-24T13:39:30Z</time>
      </trkpt>
      <trkpt lat="43.290180" lon="-5.657700">
        <ele>230.819</ele>
        <time>2020-05-24T13:39:50Z</time>
      </trkpt>
      <trkpt lat="43.290030" lon="-5.657220">
        <ele>232.370</ele>
        <time>2020-05-24T13:40:10Z</time>
      </trkpt>
      <trkpt lat="43.289890" lon="-5.656780">
        <ele>232.249</ele>
        <time>2020-05-24T13:40:30Z</time>
      </trkpt>
      <trkpt lat="43.289800" lon="-5.656580">
        <ele>232.592</ele>
        <time>2020-05-24T13:40:50Z</time>
      </trkpt>
      <trkpt lat="43.289730" lon="-5.656420">
        <ele>233.033</ele>
        <time>2020-05-24T13:41:10Z</time>
      </trkpt>
      <trkpt lat="43.289650" lon="-5.656250">
        <ele>232.723</ele>
        <time>2020-05-24T13:41:30Z</time>
      </trkpt>
      <trkpt lat="43.289510" lon="-5.656050">
        <ele>232.715</ele>
        <time>2020-05-24T13:41:50Z</time>
      </trkpt>
      <trkpt lat="43.289290" lon="-5.655760">
        <ele>232.508</ele>
        <time>2020-05-24T13:42:10Z</time>
      </trkpt>
      <trkpt lat="43.289040" lon="-5.655480">
        <ele>232.427</ele>
        <time>2020-05-24T13:42:30Z</time>
      </trkpt>
      <trkpt lat="43.288860" lon="-5.655310">
        <ele>233.292</ele>
        <time>2020-05-24T13:42:50Z</time>
      </trkpt>
      <trkpt lat="43.288620" lon="-5.655100">
        <ele>231.999</ele>
        <time>2020-05-24T13:43:10Z</time>
      </trkpt>
      <trkpt lat="43.288400" lon="-5.654970">
        <ele>231.875</ele>
        <time>2020-05-24T13:43:30Z</time>
      </trkpt>
      <trkpt lat="43.288150" lon="-5.654820">
        <ele>231.394</ele>
        <time>2020-05-24T13:43:50Z</time>
      </trkpt>
      <trkpt lat="43.288010" lon="-5.654730">
        <ele>231.425</ele>
        <time>2020-05-24T13:44:10Z</time>
      </trkpt>
      <trkpt lat="43.287720" lon="-5.654530">
        <ele>231.394</ele>
        <time>2020-05-24T13:44:30Z</time>
      </trkpt>
      <trkpt lat="43.287610" lon="-5.654430">
        <ele>231.017</ele>
        <time>2020-05-24T13:44:50Z</time>
      </trkpt>
      <trkpt lat="43.287540" lon="-5.654380">
        <ele>231.116</ele>
        <time>2020-05-24T13:45:10Z</time>
      </trkpt>
      <trkpt lat="43.287510" lon="-5.654350">
        <ele>231.276</ele>
        <time>2020-05-24T13:45:30Z</time>
      </trkpt>
      <trkpt lat="43.287280" lon="-5.654120">
        <ele>230.613</ele>
        <time>2020-05-24T13:45:50Z</time>
      </trkpt>
      <trkpt lat="43.287120" lon="-5.653870">
        <ele>230.808</ele>
        <time>2020-05-24T13:46:10Z</time>
      </trkpt>
      <trkpt lat="43.286960" lon="-5.653580">
        <ele>229.835</ele>
        <time>2020-05-24T13:46:30Z</time>
      </trkpt>
      <trkpt lat="43.286910" lon="-5.653510">
        <ele>229.540</ele>
        <time>2020-05-24T13:46:50Z</time>
      </trkpt>
      <trkpt lat="43.286880" lon="-5.653400">
        <ele>229.387</ele>
        <time>2020-05-24T13:47:10Z</time>
      </trkpt>
      <trkpt lat="43.286780" lon="-5.653150">
        <ele>229.813</ele>
        <time>2020-05-24T13:47:30Z</time>
      </trkpt>
      <trkpt lat="43.286720" lon="-5.652920">
        <ele>230.482</ele>
        <time>2020-05-24T13:47:50Z</time>
      </trkpt>
      <trkpt lat="43.286720" lon="-5.652910">
        <ele>230.393</ele>
        <time>2020-05-24T13:48:10Z</time>
      </trkpt>
      <trkpt lat="43.286710" lon="-5.652880">
        <ele>230.412</ele>
        <time>2020-05-24T13:48:30Z</time>
      </trkpt>
      <trkpt lat="43.286650" lon="-5.652650">
        <ele>230.375</ele>
        <time>2020-05-24T13:48:50Z</time>
      </trkpt>
      <trkpt lat="43.286650" lon="-5.652630">
        <ele>230.128</ele>
        <time>2020-05-24T13:49:10Z</time>
      </trkpt>
      <trkpt lat="43.286590" lon="-5.652300">
        <ele>228.489</ele>
        <time>2020-05-24T13:49:30Z</time>
      </trkpt>
      <trkpt lat="43.286570" lon="-5.652040">
        <ele>227.617</ele>
        <time>2020-05-24T13:49:50Z</time>
      </trkpt>
      <trkpt lat="43.286570" lon="-5.651920">
        <ele>227.308</ele>
        <time>2020-05-24T13:50:10Z</time>
      </trkpt>
      <trkpt lat="43.286560" lon="-5.651850">
        <ele>227.436</ele>
        <time>2020-05-24T13:50:30Z</time>
      </trkpt>
      <trkpt lat="43.286570" lon="-5.651610">
        <ele>227.661</ele>
        <time>2020-05-24T13:50:50Z</time>
      </trkpt>
      <trkpt lat="43.286590" lon="-5.651380">
        <ele>228.798</ele>
        <time>2020-05-24T13:51:10Z</time>
      </trkpt>
      <trkpt lat="43.286630" lon="-5.651090">
        <ele>229.864</ele>
        <time>2020-05-24T13:51:30Z</time>
      </trkpt>
      <trkpt lat="43.286680" lon="-5.650860">
        <ele>230.663</ele>
        <time>2020-05-24T13:51:50Z</time>
      </trkpt>
      <trkpt lat="43.286750" lon="-5.650660">
        <ele>229.864</ele>
        <time>2020-05-24T13:52:10Z</time>
      </trkpt>
      <trkpt lat="43.286800" lon="-5.650500">
        <ele>229.843</ele>
        <time>2020-05-24T13:52:30Z</time>
      </trkpt>
      <trkpt lat="43.286900" lon="-5.650260">
        <ele>231.066</ele>
        <time>2020-05-24T13:52:50Z</time>
      </trkpt>
      <trkpt lat="43.286940" lon="-5.650170">
        <ele>231.472</ele>
        <time>2020-05-24T13:53:10Z</time>
      </trkpt>
      <trkpt lat="43.286990" lon="-5.650060">
        <ele>231.013</ele>
        <time>2020-05-24T13:53:30Z</time>
      </trkpt>
      <trkpt lat="43.287150" lon="-5.649730">
        <ele>229.214</ele>
        <time>2020-05-24T13:53:50Z</time>
      </trkpt>
      <trkpt lat="43.287400" lon="-5.649220">
        <ele>227.808</ele>
        <time>2020-05-24T13:54:10Z</time>
      </trkpt>
      <trkpt lat="43.287460" lon="-5.649100">
        <ele>227.851</ele>
        <time>2020-05-24T13:54:30Z</time>
      </trkpt>
      <trkpt lat="43.287510" lon="-5.649000">
        <ele>228.136</ele>
        <time>2020-05-24T13:54:50Z</time>
      </trkpt>
      <trkpt lat="43.287520" lon="-5.648990">
        <ele>228.083</ele>
        <time>2020-05-24T13:55:10Z</time>
      </trkpt>
      <trkpt lat="43.287660" lon="-5.648710">
        <ele>227.379</ele>
        <time>2020-05-24T13:55:30Z</time>
      </trkpt>
      <trkpt lat="43.287810" lon="-5.648370">
        <ele>227.468</ele>
        <time>2020-05-24T13:55:50Z</time>
      </trkpt>
      <trkpt lat="43.287810" lon="-5.648360">
        <ele>227.579</ele>
        <time>2020-05-24T13:56:10Z</time>
      </trkpt>
      <trkpt lat="43.287890" lon="-5.648160">
        <ele>227.838</ele>
        <time>2020-05-24T13:56:30Z</time>
      </trkpt>
      <trkpt lat="43.287980" lon="-5.647920">
        <ele>227.491</ele>
        <time>2020-05-24T13:56:50Z</time>
      </trkpt>
      <trkpt lat="43.288060" lon="-5.647670">
        <ele>227.481</ele>
        <time>2020-05-24T13:57:10Z</time>
      </trkpt>
      <trkpt lat="43.288100" lon="-5.647510">
        <ele>227.761</ele>
        <time>2020-05-24T13:57:30Z</time>
      </trkpt>
      <trkpt lat="43.288130" lon="-5.647440">
        <ele>227.517</ele>
        <time>2020-05-24T13:57:50Z</time>
      </trkpt>
      <trkpt lat="43.288240" lon="-5.646990">
        <ele>226.708</ele>
        <time>2020-05-24T13:58:10Z</time>
      </trkpt>
      <trkpt lat="43.288320" lon="-5.646550">
        <ele>226.022</ele>
        <time>2020-05-24T13:58:30Z</time>
      </trkpt>
      <trkpt lat="43.288360" lon="-5.646270">
        <ele>226.657</ele>
        <time>2020-05-24T13:58:50Z</time>
      </trkpt>
      <trkpt lat="43.288380" lon="-5.646050">
        <ele>227.444</ele>
        <time>2020-05-24T13:59:10Z</time>
      </trkpt>
      <trkpt lat="43.288400" lon="-5.645840">
        <ele>228.910</ele>
        <time>2020-05-24T13:59:30Z</time>
      </trkpt>
      <trkpt lat="43.288420" lon="-5.645550">
        <ele>230.859</ele>
        <time>2020-05-24T13:59:50Z</time>
      </trkpt>
      <trkpt lat="43.288520" lon="-5.644370">
        <ele>231.450</ele>
        <time>2020-05-24T14:00:10Z</time>
      </trkpt>
      <trkpt lat="43.288550" lon="-5.644100">
        <ele>232.149</ele>
        <time>2020-05-24T14:00:30Z</time>
      </trkpt>
      <trkpt lat="43.288590" lon="-5.643840">
        <ele>232.392</ele>
        <time>2020-05-24T14:00:50Z</time>
      </trkpt>
      <trkpt lat="43.288660" lon="-5.643340">
        <ele>231.438</ele>
        <time>2020-05-24T14:01:10Z</time>
      </trkpt>
      <trkpt lat="43.288730" lon="-5.642940">
        <ele>232.470</ele>
        <time>2020-05-24T14:01:30Z</time>
      </trkpt>
      <trkpt lat="43.288790" lon="-5.642600">
        <ele>233.617</ele>
        <time>2020-05-24T14:01:50Z</time>
      </trkpt>
      <trkpt lat="43.288900" lon="-5.642020">
        <ele>230.808</ele>
        <time>2020-05-24T14:02:10Z</time>
      </trkpt>
      <trkpt lat="43.288950" lon="-5.641770">
        <ele>230.097</ele>
        <time>2020-05-24T14:02:30Z</time>
      </trkpt>
      <trkpt lat="43.289010" lon="-5.641450">
        <ele>229.452</ele>
        <time>2020-05-24T14:02:50Z</time>
      </trkpt>
      <trkpt lat="43.289020" lon="-5.641370">
        <ele>229.419</ele>
        <time>2020-05-24T14:03:10Z</time>
      </trkpt>
      <trkpt lat="43.289140" lon="-5.640680">
        <ele>230.145</ele>
        <time>2020-05-24T14:03:30Z</time>
      </trkpt>
      <trkpt lat="43.289230" lon="-5.640130">
        <ele>229.584</ele>
        <time>2020-05-24T14:03:50Z</time>
      </trkpt>
      <trkpt lat="43.289260" lon="-5.639930">
        <ele>229.755</ele>
        <time>2020-05-24T14:04:10Z</time>
      </trkpt>
      <trkpt lat="43.289300" lon="-5.639690">
        <ele>230.384</ele>
        <time>2020-05-24T14:04:30Z</time>
      </trkpt>
      <trkpt lat="43.289350" lon="-5.639320">
        <ele>230.097</ele>
        <time>2020-05-24T14:04:50Z</time>
      </trkpt>
      <trkpt lat="43.289420" lon="-5.638750">
        <ele>229.489</ele>
        <time>2020-05-24T14:05:10Z</time>
      </trkpt>
      <trkpt lat="43.289460" lon="-5.638450">
        <ele>229.206</ele>
        <time>2020-05-24T14:05:30Z</time>
      </trkpt>
      <trkpt lat="43.289480" lon="-5.638230">
        <ele>229.526</ele>
        <time>2020-05-24T14:05:50Z</time>
      </trkpt>
      <trkpt lat="43.289500" lon="-5.638040">
        <ele>229.708</ele>
        <time>2020-05-24T14:06:10Z</time>
      </trkpt>
      <trkpt lat="43.289520" lon="-5.637840">
        <ele>229.372</ele>
        <time>2020-05-24T14:06:30Z</time>
      </trkpt>
      <trkpt lat="43.289530" lon="-5.637750">
        <ele>229.237</ele>
        <time>2020-05-24T14:06:50Z</time>
      </trkpt>
      <trkpt lat="43.289550" lon="-5.637510">
        <ele>229.524</ele>
        <time>2020-05-24T14:07:10Z</time>
      </trkpt>
      <trkpt lat="43.289550" lon="-5.637350">
        <ele>229.560</ele>
        <time>2020-05-24T14:07:30Z</time>
      </trkpt>
      <trkpt lat="43.289570" lon="-5.636840">
        <ele>230.539</ele>
        <time>2020-05-24T14:07:50Z</time>
      </trkpt>
      <trkpt lat="43.289570" lon="-5.636700">
        <ele>230.830</ele>
        <time>2020-05-24T14:08:10Z</time>
      </trkpt>
      <trkpt lat="43.289570" lon="-5.636550">
        <ele>230.859</ele>
        <time>2020-05-24T14:08:30Z</time>
      </trkpt>
      <trkpt lat="43.289560" lon="-5.636350">
        <ele>230.762</ele>
        <time>2020-05-24T14:08:50Z</time>
      </trkpt>
      <trkpt lat="43.289560" lon="-5.636290">
        <ele>230.825</ele>
        <time>2020-05-24T14:09:10Z</time>
      </trkpt>
      <trkpt lat="43.289550" lon="-5.635960">
        <ele>230.926</ele>
        <time>2020-05-24T14:09:30Z</time>
      </trkpt>
      <trkpt lat="43.289540" lon="-5.635800">
        <ele>230.908</ele>
        <time>2020-05-24T14:09:50Z</time>
      </trkpt>
      <trkpt lat="43.289520" lon="-5.635580">
        <ele>231.808</ele>
        <time>2020-05-24T14:10:10Z</time>
      </trkpt>
      <trkpt lat="43.289480" lon="-5.635200">
        <ele>234.296</ele>
        <time>2020-05-24T14:10:30Z</time>
      </trkpt>
      <trkpt lat="43.289440" lon="-5.634830">
        <ele>237.771</ele>
        <time>2020-05-24T14:10:50Z</time>
      </trkpt>
      <trkpt lat="43.289380" lon="-5.634460">
        <ele>237.578</ele>
        <time>2020-05-24T14:11:10Z</time>
      </trkpt>
      <trkpt lat="43.289360" lon="-5.634350">
        <ele>237.694</ele>
        <time>2020-05-24T14:11:30Z</time>
      </trkpt>
      <trkpt lat="43.289300" lon="-5.634080">
        <ele>237.823</ele>
        <time>2020-05-24T14:11:50Z</time>
      </trkpt>
      <trkpt lat="43.289280" lon="-5.633970">
        <ele>237.774</ele>
        <time>2020-05-24T14:12:10Z</time>
      </trkpt>
      <trkpt lat="43.289279" lon="-5.633973">
        <ele>237.733</ele>
        <time>2020-05-24T14:12:30Z</time>
      </trkpt>
      <trkpt lat="43.289240" lon="-5.633940">
        <ele>237.886</ele>
        <time>2020-05-24T14:12:50Z</time>
      </trkpt>
      <trkpt lat="43.289220" lon="-5.633900">
        <ele>237.818</ele>
        <time>2020-05-24T14:13:10Z</time>
      </trkpt>
      <trkpt lat="43.289200" lon="-5.633860">
        <ele>238.098</ele>
        <time>2020-05-24T14:13:30Z</time>
      </trkpt>
      <trkpt lat="43.289170" lon="-5.633730">
        <ele>238.617</ele>
        <time>2020-05-24T14:13:50Z</time>
      </trkpt>
      <trkpt lat="43.289160" lon="-5.633700">
        <ele>238.608</ele>
        <time>2020-05-24T14:14:10Z</time>
      </trkpt>
      <trkpt lat="43.289130" lon="-5.633550">
        <ele>238.635</ele>
        <time>2020-05-24T14:14:30Z</time>
      </trkpt>
      <trkpt lat="43.289060" lon="-5.633280">
        <ele>237.970</ele>
        <time>2020-05-24T14:14:50Z</time>
      </trkpt>
      <trkpt lat="43.289050" lon="-5.633230">
        <ele>237.817</ele>
        <time>2020-05-24T14:15:10Z</time>
      </trkpt>
      <trkpt lat="43.289000" lon="-5.633010">
        <ele>237.573</ele>
        <time>2020-05-24T14:15:30Z</time>
      </trkpt>
      <trkpt lat="43.289000" lon="-5.633000">
        <ele>237.532</ele>
        <time>2020-05-24T14:15:50Z</time>
      </trkpt>
      <trkpt lat="43.288960" lon="-5.632850">
        <ele>237.873</ele>
        <time>2020-05-24T14:16:10Z</time>
      </trkpt>
      <trkpt lat="43.288900" lon="-5.632670">
        <ele>238.082</ele>
        <time>2020-05-24T14:16:30Z</time>
      </trkpt>
      <trkpt lat="43.288870" lon="-5.632560">
        <ele>238.015</ele>
        <time>2020-05-24T14:16:50Z</time>
      </trkpt>
      <trkpt lat="43.288850" lon="-5.632490">
        <ele>238.022</ele>
        <time>2020-05-24T14:17:10Z</time>
      </trkpt>
      <trkpt lat="43.288780" lon="-5.632320">
        <ele>238.062</ele>
        <time>2020-05-24T14:17:30Z</time>
      </trkpt>
      <trkpt lat="43.288780" lon="-5.632300">
        <ele>238.008</ele>
        <time>2020-05-24T14:17:50Z</time>
      </trkpt>
      <trkpt lat="43.288750" lon="-5.632210">
        <ele>238.008</ele>
        <time>2020-05-24T14:18:10Z</time>
      </trkpt>
      <trkpt lat="43.288740" lon="-5.632160">
        <ele>238.156</ele>
        <time>2020-05-24T14:18:30Z</time>
      </trkpt>
      <trkpt lat="43.288650" lon="-5.631750">
        <ele>238.881</ele>
        <time>2020-05-24T14:18:50Z</time>
      </trkpt>
      <trkpt lat="43.288620" lon="-5.631610">
        <ele>238.728</ele>
        <time>2020-05-24T14:19:10Z</time>
      </trkpt>
      <trkpt lat="43.288560" lon="-5.631370">
        <ele>238.414</ele>
        <time>2020-05-24T14:19:30Z</time>
      </trkpt>
      <trkpt lat="43.288540" lon="-5.631250">
        <ele>238.533</ele>
        <time>2020-05-24T14:19:50Z</time>
      </trkpt>
      <trkpt lat="43.288430" lon="-5.630790">
        <ele>238.694</ele>
        <time>2020-05-24T14:20:10Z</time>
      </trkpt>
      <trkpt lat="43.288280" lon="-5.630130">
        <ele>240.353</ele>
        <time>2020-05-24T14:20:30Z</time>
      </trkpt>
      <trkpt lat="43.288210" lon="-5.629830">
        <ele>241.156</ele>
        <time>2020-05-24T14:20:50Z</time>
      </trkpt>
      <trkpt lat="43.288150" lon="-5.629550">
        <ele>240.661</ele>
        <time>2020-05-24T14:21:10Z</time>
      </trkpt>
      <trkpt lat="43.288110" lon="-5.629360">
        <ele>240.321</ele>
        <time>2020-05-24T14:21:30Z</time>
      </trkpt>
      <trkpt lat="43.288090" lon="-5.629250">
        <ele>240.213</ele>
        <time>2020-05-24T14:21:50Z</time>
      </trkpt>
      <trkpt lat="43.288040" lon="-5.629070">
        <ele>239.908</ele>
        <time>2020-05-24T14:22:10Z</time>
      </trkpt>
      <trkpt lat="43.288030" lon="-5.629010">
        <ele>239.760</ele>
        <time>2020-05-24T14:22:30Z</time>
      </trkpt>
      <trkpt lat="43.288010" lon="-5.628900">
        <ele>239.255</ele>
        <time>2020-05-24T14:22:50Z</time>
      </trkpt>
      <trkpt lat="43.287940" lon="-5.628590">
        <ele>239.032</ele>
        <time>2020-05-24T14:23:10Z</time>
      </trkpt>
      <trkpt lat="43.287930" lon="-5.628540">
        <ele>239.178</ele>
        <time>2020-05-24T14:23:30Z</time>
      </trkpt>
      <trkpt lat="43.287890" lon="-5.628360">
        <ele>239.537</ele>
        <time>2020-05-24T14:23:50Z</time>
      </trkpt>
      <trkpt lat="43.287850" lon="-5.628210">
        <ele>239.928</ele>
        <time>2020-05-24T14:24:10Z</time>
      </trkpt>
      <trkpt lat="43.287840" lon="-5.628120">
        <ele>239.917</ele>
        <time>2020-05-24T14:24:30Z</time>
      </trkpt>
      <trkpt lat="43.287820" lon="-5.628020">
        <ele>240.010</ele>
        <time>2020-05-24T14:24:50Z</time>
      </trkpt>
      <trkpt lat="43.287800" lon="-5.627920">
        <ele>240.092</ele>
        <time>2020-05-24T14:25:10Z</time>
      </trkpt>
      <trkpt lat="43.287780" lon="-5.627830">
        <ele>240.073</ele>
        <time>2020-05-24T14:25:30Z</time>
      </trkpt>
      <trkpt lat="43.287770" lon="-5.627800">
        <ele>240.020</ele>
        <time>2020-05-24T14:25:50Z</time>
      </trkpt>
      <trkpt lat="43.287740" lon="-5.627740">
        <ele>240.108</ele>
        <time>2020-05-24T14:26:10Z</time>
      </trkpt>
      <trkpt lat="43.287730" lon="-5.627720">
        <ele>240.243</ele>
        <time>2020-05-24T14:26:30Z</time>
      </trkpt>
      <trkpt lat="43.287700" lon="-5.627690">
        <ele>240.368</ele>
        <time>2020-05-24T14:26:50Z</time>
      </trkpt>
      <trkpt lat="43.287660" lon="-5.627680">
        <ele>240.415</ele>
        <time>2020-05-24T14:27:10Z</time>
      </trkpt>
      <trkpt lat="43.287630" lon="-5.627660">
        <ele>240.531</ele>
        <time>2020-05-24T14:27:30Z</time>
      </trkpt>
      <trkpt lat="43.287626" lon="-5.627664">
        <ele>240.560</ele>
        <time>2020-05-24T14:27:50Z</time>
      </trkpt>
      <trkpt lat="43.287620" lon="-5.627670">
        <ele>240.681</ele>
        <time>2020-05-24T14:28:10Z</time>
      </trkpt>
      <trkpt lat="43.287620" lon="-5.627680">
        <ele>240.680</ele>
        <time>2020-05-24T14:28:30Z</time>
      </trkpt>
      <trkpt lat="43.287610" lon="-5.627690">
        <ele>240.633</ele>
        <time>2020-05-24T14:28:50Z</time>
      </trkpt>
      <trkpt lat="43.287600" lon="-5.627690">
        <ele>240.647</ele>
        <time>2020-05-24T14:29:10Z</time>
      </trkpt>
      <trkpt lat="43.287600" lon="-5.627700">
        <ele>240.629</ele>
        <time>2020-05-24T14:29:30Z</time>
      </trkpt>
      <trkpt lat="43.287590" lon="-5.627700">
        <ele>240.721</ele>
        <time>2020-05-24T14:29:50Z</time>
      </trkpt>
      <trkpt lat="43.287580" lon="-5.627710">
        <ele>240.708</ele>
        <time>2020-05-24T14:30:10Z</time>
      </trkpt>
      <trkpt lat="43.287570" lon="-5.627720">
        <ele>240.788</ele>
        <time>2020-05-24T14:30:30Z</time>
      </trkpt>
      <trkpt lat="43.287560" lon="-5.627720">
        <ele>240.853</ele>
        <time>2020-05-24T14:30:50Z</time>
      </trkpt>
      <trkpt lat="43.287550" lon="-5.627720">
        <ele>240.820</ele>
        <time>2020-05-24T14:31:10Z</time>
      </trkpt>
      <trkpt lat="43.287540" lon="-5.627730">
        <ele>240.926</ele>
        <time>2020-05-24T14:31:30Z</time>
      </trkpt>
      <trkpt lat="43.287530" lon="-5.627730">
        <ele>240.985</ele>
        <time>2020-05-24T14:31:50Z</time>
      </trkpt>
      <trkpt lat="43.287520" lon="-5.627730">
        <ele>240.956</ele>
        <time>2020-05-24T14:32:10Z</time>
      </trkpt>
      <trkpt lat="43.287510" lon="-5.627730">
        <ele>241.035</ele>
        <time>2020-05-24T14:32:30Z</time>
      </trkpt>
      <trkpt lat="43.287500" lon="-5.627720">
        <ele>241.038</ele>
        <time>2020-05-24T14:32:50Z</time>
      </trkpt>
      <trkpt lat="43.287490" lon="-5.627720">
        <ele>240.846</ele>
        <time>2020-05-24T14:33:10Z</time>
      </trkpt>
      <trkpt lat="43.287480" lon="-5.627720">
        <ele>240.588</ele>
        <time>2020-05-24T14:33:30Z</time>
      </trkpt>
      <trkpt lat="43.287480" lon="-5.627710">
        <ele>240.516</ele>
        <time>2020-05-24T14:33:50Z</time>
      </trkpt>
      <trkpt lat="43.287470" lon="-5.627710">
        <ele>240.308</ele>
        <time>2020-05-24T14:34:10Z</time>
      </trkpt>
      <trkpt lat="43.287460" lon="-5.627700">
        <ele>240.098</ele>
        <time>2020-05-24T14:34:30Z</time>
      </trkpt>
      <trkpt lat="43.287450" lon="-5.627690">
        <ele>239.833</ele>
        <time>2020-05-24T14:34:50Z</time>
      </trkpt>
      <trkpt lat="43.287440" lon="-5.627690">
        <ele>239.610</ele>
        <time>2020-05-24T14:35:10Z</time>
      </trkpt>
      <trkpt lat="43.287440" lon="-5.627680">
        <ele>239.686</ele>
        <time>2020-05-24T14:35:30Z</time>
      </trkpt>
      <trkpt lat="43.287430" lon="-5.627670">
        <ele>239.375</ele>
        <time>2020-05-24T14:35:50Z</time>
      </trkpt>
      <trkpt lat="43.287430" lon="-5.627660">
        <ele>239.346</ele>
        <time>2020-05-24T14:36:10Z</time>
      </trkpt>
      <trkpt lat="43.287420" lon="-5.627660">
        <ele>239.125</ele>
        <time>2020-05-24T14:36:30Z</time>
      </trkpt>
      <trkpt lat="43.287420" lon="-5.627650">
        <ele>239.148</ele>
        <time>2020-05-24T14:36:50Z</time>
      </trkpt>
      <trkpt lat="43.287410" lon="-5.627640">
        <ele>238.931</ele>
        <time>2020-05-24T14:37:10Z</time>
      </trkpt>
      <trkpt lat="43.287410" lon="-5.627630">
        <ele>238.961</ele>
        <time>2020-05-24T14:37:30Z</time>
      </trkpt>
      <trkpt lat="43.287410" lon="-5.627620">
        <ele>238.907</ele>
        <time>2020-05-24T14:37:50Z</time>
      </trkpt>
      <trkpt lat="43.287400" lon="-5.627610">
        <ele>238.708</ele>
        <time>2020-05-24T14:38:10Z</time>
      </trkpt>
      <trkpt lat="43.287400" lon="-5.627600">
        <ele>238.747</ele>
        <time>2020-05-24T14:38:30Z</time>
      </trkpt>
      <trkpt lat="43.287400" lon="-5.627590">
        <ele>238.712</ele>
        <time>2020-05-24T14:38:50Z</time>
      </trkpt>
      <trkpt lat="43.287400" lon="-5.627580">
        <ele>238.799</ele>
        <time>2020-05-24T14:39:10Z</time>
      </trkpt>
      <trkpt lat="43.287400" lon="-5.627570">
        <ele>238.785</ele>
        <time>2020-05-24T14:39:30Z</time>
      </trkpt>
      <trkpt lat="43.287400" lon="-5.627560">
        <ele>238.894</ele>
        <time>2020-05-24T14:39:50Z</time>
      </trkpt>
      <trkpt lat="43.287400" lon="-5.627540">
        <ele>238.835</ele>
        <time>2020-05-24T14:40:10Z</time>
      </trkpt>
      <trkpt lat="43.287400" lon="-5.627530">
        <ele>238.874</ele>
        <time>2020-05-24T14:40:30Z</time>
      </trkpt>
      <trkpt lat="43.287400" lon="-5.627520">
        <ele>238.837</ele>
        <time>2020-05-24T14:40:50Z</time>
      </trkpt>
      <trkpt lat="43.287400" lon="-5.627510">
        <ele>238.822</ele>
        <time>2020-05-24T14:41:10Z</time>
      </trkpt>
      <trkpt lat="43.287400" lon="-5.627500">
        <ele>238.862</ele>
        <time>2020-05-24T14:41:30Z</time>
      </trkpt>
      <trkpt lat="43.287400" lon="-5.627490">
        <ele>238.808</ele>
        <time>2020-05-24T14:41:50Z</time>
      </trkpt>
      <trkpt lat="43.287410" lon="-5.627480">
        <ele>239.108</ele>
        <time>2020-05-24T14:42:10Z</time>
      </trkpt>
      <trkpt lat="43.287410" lon="-5.627470">
        <ele>239.136</ele>
        <time>2020-05-24T14:42:30Z</time>
      </trkpt>
      <trkpt lat="43.287410" lon="-5.627460">
        <ele>239.111</ele>
        <time>2020-05-24T14:42:50Z</time>
      </trkpt>
      <trkpt lat="43.287420" lon="-5.627440">
        <ele>239.338</ele>
        <time>2020-05-24T14:43:10Z</time>
      </trkpt>
      <trkpt lat="43.287430" lon="-5.627430">
        <ele>239.524</ele>
        <time>2020-05-24T14:43:30Z</time>
      </trkpt>
      <trkpt lat="43.287440" lon="-5.627420">
        <ele>239.793</ele>
        <time>2020-05-24T14:43:50Z</time>
      </trkpt>
      <trkpt lat="43.287440" lon="-5.627410">
        <ele>239.754</ele>
        <time>2020-05-24T14:44:10Z</time>
      </trkpt>
      <trkpt lat="43.287450" lon="-5.627410">
        <ele>239.933</ele>
        <time>2020-05-24T14:44:30Z</time>
      </trkpt>
      <trkpt lat="43.287460" lon="-5.627400">
        <ele>240.196</ele>
        <time>2020-05-24T14:44:50Z</time>
      </trkpt>
      <trkpt lat="43.287460" lon="-5.627390">
        <ele>240.198</ele>
        <time>2020-05-24T14:45:10Z</time>
      </trkpt>
      <trkpt lat="43.287470" lon="-5.627390">
        <ele>240.415</ele>
        <time>2020-05-24T14:45:30Z</time>
      </trkpt>
      <trkpt lat="43.287480" lon="-5.627390">
        <ele>240.626</ele>
        <time>2020-05-24T14:45:50Z</time>
      </trkpt>
      <trkpt lat="43.287480" lon="-5.627380">
        <ele>240.608</ele>
        <time>2020-05-24T14:46:10Z</time>
      </trkpt>
      <trkpt lat="43.287490" lon="-5.627380">
        <ele>240.843</ele>
        <time>2020-05-24T14:46:30Z</time>
      </trkpt>
      <trkpt lat="43.287500" lon="-5.627380">
        <ele>241.078</ele>
        <time>2020-05-24T14:46:50Z</time>
      </trkpt>
      <trkpt lat="43.287500" lon="-5.627370">
        <ele>241.085</ele>
        <time>2020-05-24T14:47:10Z</time>
      </trkpt>
      <trkpt lat="43.287510" lon="-5.627370">
        <ele>241.081</ele>
        <time>2020-05-24T14:47:30Z</time>
      </trkpt>
      <trkpt lat="43.287520" lon="-5.627370">
        <ele>240.910</ele>
        <time>2020-05-24T14:47:50Z</time>
      </trkpt>
      <trkpt lat="43.287530" lon="-5.627370">
        <ele>240.941</ele>
        <time>2020-05-24T14:48:10Z</time>
      </trkpt>
      <trkpt lat="43.287630" lon="-5.627270">
        <ele>240.590</ele>
        <time>2020-05-24T14:48:30Z</time>
      </trkpt>
      <trkpt lat="43.287660" lon="-5.627400">
        <ele>240.473</ele>
        <time>2020-05-24T14:48:50Z</time>
      </trkpt>
      <trkpt lat="43.287680" lon="-5.627470">
        <ele>240.434</ele>
        <time>2020-05-24T14:49:10Z</time>
      </trkpt>
      <trkpt lat="43.287700" lon="-5.627540">
        <ele>240.355</ele>
        <time>2020-05-24T14:49:30Z</time>
      </trkpt>
      <trkpt lat="43.287710" lon="-5.627580">
        <ele>240.210</ele>
        <time>2020-05-24T14:49:50Z</time>
      </trkpt>
      <trkpt lat="43.287720" lon="-5.627580">
        <ele>240.208</ele>
        <time>2020-05-24T14:50:10Z</time>
      </trkpt>
      <trkpt lat="43.287730" lon="-5.627580">
        <ele>240.287</ele>
        <time>2020-05-24T14:50:30Z</time>
      </trkpt>
      <trkpt lat="43.287730" lon="-5.627560">
        <ele>240.262</ele>
        <time>2020-05-24T14:50:50Z</time>
      </trkpt>
      <trkpt lat="43.287720" lon="-5.627540">
        <ele>240.299</ele>
        <time>2020-05-24T14:51:10Z</time>
      </trkpt>
      <trkpt lat="43.287710" lon="-5.627510">
        <ele>240.235</ele>
        <time>2020-05-24T14:51:30Z</time>
      </trkpt>
      <trkpt lat="43.287700" lon="-5.627450">
        <ele>240.374</ele>
        <time>2020-05-24T14:51:50Z</time>
      </trkpt>
      <trkpt lat="43.287690" lon="-5.627410">
        <ele>240.315</ele>
        <time>2020-05-24T14:52:10Z</time>
      </trkpt>
      <trkpt lat="43.287680" lon="-5.627340">
        <ele>240.424</ele>
        <time>2020-05-24T14:52:30Z</time>
      </trkpt>
      <trkpt lat="43.287660" lon="-5.627270">
        <ele>240.467</ele>
        <time>2020-05-24T14:52:50Z</time>
      </trkpt>
      <trkpt lat="43.287660" lon="-5.627250">
        <ele>240.487</ele>
        <time>2020-05-24T14:53:10Z</time>
      </trkpt>
      <trkpt lat="43.287680" lon="-5.627240">
        <ele>240.442</ele>
        <time>2020-05-24T14:53:30Z</time>
      </trkpt>
      <trkpt lat="43.287710" lon="-5.627230">
        <ele>240.226</ele>
        <time>2020-05-24T14:53:50Z</time>
      </trkpt>
      <trkpt lat="43.287790" lon="-5.627190">
        <ele>239.908</ele>
        <time>2020-05-24T14:54:10Z</time>
      </trkpt>
      <trkpt lat="43.287860" lon="-5.627160">
        <ele>239.442</ele>
        <time>2020-05-24T14:54:30Z</time>
      </trkpt>
      <trkpt lat="43.287960" lon="-5.627120">
        <ele>238.757</ele>
        <time>2020-05-24T14:54:50Z</time>
      </trkpt>
      <trkpt lat="43.287930" lon="-5.627010">
        <ele>238.914</ele>
        <time>2020-05-24T14:55:10Z</time>
      </trkpt>
      <trkpt lat="43.287890" lon="-5.626790">
        <ele>239.280</ele>
        <time>2020-05-24T14:55:30Z</time>
      </trkpt>
      <trkpt lat="43.287900" lon="-5.626750">
        <ele>239.189</ele>
        <time>2020-05-24T14:55:50Z</time>
      </trkpt>
      <trkpt lat="43.287900" lon="-5.626730">
        <ele>239.160</ele>
        <time>2020-05-24T14:56:10Z</time>
      </trkpt>
      <trkpt lat="43.287900" lon="-5.626710">
        <ele>239.159</ele>
        <time>2020-05-24T14:56:30Z</time>
      </trkpt>
      <trkpt lat="43.287890" lon="-5.626680">
        <ele>239.222</ele>
        <time>2020-05-24T14:56:50Z</time>
      </trkpt>
      <trkpt lat="43.287880" lon="-5.626630">
        <ele>239.496</ele>
        <time>2020-05-24T14:57:10Z</time>
      </trkpt>
      <trkpt lat="43.287860" lon="-5.626540">
        <ele>239.931</ele>
        <time>2020-05-24T14:57:30Z</time>
      </trkpt>
      <trkpt lat="43.287850" lon="-5.626480">
        <ele>240.224</ele>
        <time>2020-05-24T14:57:50Z</time>
      </trkpt>
      <trkpt lat="43.287840" lon="-5.626440">
        <ele>240.408</ele>
        <time>2020-05-24T14:58:10Z</time>
      </trkpt>
      <trkpt lat="43.287830" lon="-5.626400">
        <ele>240.673</ele>
        <time>2020-05-24T14:58:30Z</time>
      </trkpt>
      <trkpt lat="43.287830" lon="-5.626290">
        <ele>240.718</ele>
        <time>2020-05-24T14:58:50Z</time>
      </trkpt>
      <trkpt lat="43.287820" lon="-5.626150">
        <ele>240.815</ele>
        <time>2020-05-24T14:59:10Z</time>
      </trkpt>
      <trkpt lat="43.287820" lon="-5.626120">
        <ele>240.841</ele>
        <time>2020-05-24T14:59:30Z</time>
      </trkpt>
      <trkpt lat="43.287790" lon="-5.625990">
        <ele>240.150</ele>
        <time>2020-05-24T14:59:50Z</time>
      </trkpt>
      <trkpt lat="43.287790" lon="-5.625980">
        <ele>240.191</ele>
        <time>2020-05-24T15:00:10Z</time>
      </trkpt>
      <trkpt lat="43.287790" lon="-5.625920">
        <ele>239.680</ele>
        <time>2020-05-24T15:00:30Z</time>
      </trkpt>
      <trkpt lat="43.287790" lon="-5.625860">
        <ele>239.233</ele>
        <time>2020-05-24T15:00:50Z</time>
      </trkpt>
      <trkpt lat="43.287790" lon="-5.625840">
        <ele>239.136</ele>
        <time>2020-05-24T15:01:10Z</time>
      </trkpt>
      <trkpt lat="43.287810" lon="-5.625810">
        <ele>239.017</ele>
        <time>2020-05-24T15:01:30Z</time>
      </trkpt>
      <trkpt lat="43.287840" lon="-5.625770">
        <ele>239.018</ele>
        <time>2020-05-24T15:01:50Z</time>
      </trkpt>
      <trkpt lat="43.287843" lon="-5.625767">
        <ele>239.008</ele>
        <time>2020-05-24T15:02:10Z</time>
      </trkpt>
      <trkpt lat="43.287880" lon="-5.625780">
        <ele>239.257</ele>
        <time>2020-05-24T15:02:30Z</time>
      </trkpt>
      <trkpt lat="43.287910" lon="-5.625790">
        <ele>239.322</ele>
        <time>2020-05-24T15:02:50Z</time>
      </trkpt>
      <trkpt lat="43.287940" lon="-5.625800">
        <ele>239.529</ele>
        <time>2020-05-24T15:03:10Z</time>
      </trkpt>
      <trkpt lat="43.287980" lon="-5.625790">
        <ele>239.625</ele>
        <time>2020-05-24T15:03:30Z</time>
      </trkpt>
      <trkpt lat="43.288090" lon="-5.625760">
        <ele>239.634</ele>
        <time>2020-05-24T15:03:50Z</time>
      </trkpt>
      <trkpt lat="43.288200" lon="-5.625720">
        <ele>239.355</ele>
        <time>2020-05-24T15:04:10Z</time>
      </trkpt>
      <trkpt lat="43.288230" lon="-5.625700">
        <ele>239.274</ele>
        <time>2020-05-24T15:04:30Z</time>
      </trkpt>
      <trkpt lat="43.288380" lon="-5.625620">
        <ele>240.047</ele>
        <time>2020-05-24T15:04:50Z</time>
      </trkpt>
      <trkpt lat="43.288510" lon="-5.625460">
        <ele>241.349</ele>
        <time>2020-05-24T15:05:10Z</time>
      </trkpt>
      <trkpt lat="43.288790" lon="-5.625150">
        <ele>244.902</ele>
        <time>2020-05-24T15:05:30Z</time>
      </trkpt>
      <trkpt lat="43.288810" lon="-5.625140">
        <ele>245.322</ele>
        <time>2020-05-24T15:05:50Z</time>
      </trkpt>
      <trkpt lat="43.289060" lon="-5.624820">
        <ele>243.608</ele>
        <time>2020-05-24T15:06:10Z</time>
      </trkpt>
      <trkpt lat="43.289180" lon="-5.624650">
        <ele>242.648</ele>
        <time>2020-05-24T15:06:30Z</time>
      </trkpt>
      <trkpt lat="43.289300" lon="-5.624460">
        <ele>243.123</ele>
        <time>2020-05-24T15:06:50Z</time>
      </trkpt>
      <trkpt lat="43.289310" lon="-5.624440">
        <ele>243.190</ele>
        <time>2020-05-24T15:07:10Z</time>
      </trkpt>
      <trkpt lat="43.289370" lon="-5.624340">
        <ele>243.316</ele>
        <time>2020-05-24T15:07:30Z</time>
      </trkpt>
      <trkpt lat="43.289590" lon="-5.623930">
        <ele>243.345</ele>
        <time>2020-05-24T15:07:50Z</time>
      </trkpt>
      <trkpt lat="43.289620" lon="-5.623890">
        <ele>243.376</ele>
        <time>2020-05-24T15:08:10Z</time>
      </trkpt>
      <trkpt lat="43.289920" lon="-5.623330">
        <ele>245.295</ele>
        <time>2020-05-24T15:08:30Z</time>
      </trkpt>
      <trkpt lat="43.289918" lon="-5.623329">
        <ele>245.298</ele>
        <time>2020-05-24T15:08:50Z</time>
      </trkpt>
      <trkpt lat="43.289880" lon="-5.623270">
        <ele>245.487</ele>
        <time>2020-05-24T15:09:10Z</time>
      </trkpt>
      <trkpt lat="43.289860" lon="-5.623240">
        <ele>245.742</ele>
        <time>2020-05-24T15:09:30Z</time>
      </trkpt>
      <trkpt lat="43.289830" lon="-5.623190">
        <ele>246.326</ele>
        <time>2020-05-24T15:09:50Z</time>
      </trkpt>
      <trkpt lat="43.289820" lon="-5.623170">
        <ele>246.508</ele>
        <time>2020-05-24T15:10:10Z</time>
      </trkpt>
      <trkpt lat="43.289820" lon="-5.623150">
        <ele>246.922</ele>
        <time>2020-05-24T15:10:30Z</time>
      </trkpt>
      <trkpt lat="43.289820" lon="-5.623130">
        <ele>247.247</ele>
        <time>2020-05-24T15:10:50Z</time>
      </trkpt>
      <trkpt lat="43.289820" lon="-5.623110">
        <ele>247.534</ele>
        <time>2020-05-24T15:11:10Z</time>
      </trkpt>
      <trkpt lat="43.289830" lon="-5.623090">
        <ele>247.730</ele>
        <time>2020-05-24T15:11:30Z</time>
      </trkpt>
      <trkpt lat="43.289850" lon="-5.623060">
        <ele>248.079</ele>
        <time>2020-05-24T15:11:50Z</time>
      </trkpt>
      <trkpt lat="43.289890" lon="-5.623020">
        <ele>247.680</ele>
        <time>2020-05-24T15:12:10Z</time>
      </trkpt>
      <trkpt lat="43.289920" lon="-5.622990">
        <ele>247.239</ele>
        <time>2020-05-24T15:12:30Z</time>
      </trkpt>
      <trkpt lat="43.289950" lon="-5.622970">
        <ele>246.892</ele>
        <time>2020-05-24T15:12:50Z</time>
      </trkpt>
      <trkpt lat="43.290000" lon="-5.622930">
        <ele>246.128</ele>
        <time>2020-05-24T15:13:10Z</time>
      </trkpt>
      <trkpt lat="43.290070" lon="-5.622950">
        <ele>247.089</ele>
        <time>2020-05-24T15:13:30Z</time>
      </trkpt>
      <trkpt lat="43.290120" lon="-5.622960">
        <ele>247.617</ele>
        <time>2020-05-24T15:13:50Z</time>
      </trkpt>
      <trkpt lat="43.290140" lon="-5.622970">
        <ele>247.908</ele>
        <time>2020-05-24T15:14:10Z</time>
      </trkpt>
      <trkpt lat="43.290150" lon="-5.622970">
        <ele>248.026</ele>
        <time>2020-05-24T15:14:30Z</time>
      </trkpt>
      <trkpt lat="43.290180" lon="-5.622980">
        <ele>248.511</ele>
        <time>2020-05-24T15:14:50Z</time>
      </trkpt>
      <trkpt lat="43.290210" lon="-5.622980">
        <ele>248.988</ele>
        <time>2020-05-24T15:15:10Z</time>
      </trkpt>
      <trkpt lat="43.290230" lon="-5.622980">
        <ele>249.124</ele>
        <time>2020-05-24T15:15:30Z</time>
      </trkpt>
      <trkpt lat="43.290270" lon="-5.622970">
        <ele>249.493</ele>
        <time>2020-05-24T15:15:50Z</time>
      </trkpt>
      <trkpt lat="43.290280" lon="-5.622970">
        <ele>249.594</ele>
        <time>2020-05-24T15:16:10Z</time>
      </trkpt>
      <trkpt lat="43.290420" lon="-5.622910">
        <ele>251.413</ele>
        <time>2020-05-24T15:16:30Z</time>
      </trkpt>
      <trkpt lat="43.290450" lon="-5.622900">
        <ele>251.816</ele>
        <time>2020-05-24T15:16:50Z</time>
      </trkpt>
      <trkpt lat="43.290670" lon="-5.622820">
        <ele>254.121</ele>
        <time>2020-05-24T15:17:10Z</time>
      </trkpt>
      <trkpt lat="43.290790" lon="-5.622780">
        <ele>255.341</ele>
        <time>2020-05-24T15:17:30Z</time>
      </trkpt>
      <trkpt lat="43.290930" lon="-5.622740">
        <ele>257.005</ele>
        <time>2020-05-24T15:17:50Z</time>
      </trkpt>
      <trkpt lat="43.290980" lon="-5.622720">
        <ele>257.508</ele>
        <time>2020-05-24T15:18:10Z</time>
      </trkpt>
      <trkpt lat="43.291050" lon="-5.622700">
        <ele>258.116</ele>
        <time>2020-05-24T15:18:30Z</time>
      </trkpt>
      <trkpt lat="43.291080" lon="-5.622680">
        <ele>258.451</ele>
        <time>2020-05-24T15:18:50Z</time>
      </trkpt>
      <trkpt lat="43.291100" lon="-5.622670">
        <ele>258.588</ele>
        <time>2020-05-24T15:19:10Z</time>
      </trkpt>
      <trkpt lat="43.291120" lon="-5.622640">
        <ele>258.694</ele>
        <time>2020-05-24T15:19:30Z</time>
      </trkpt>
      <trkpt lat="43.291130" lon="-5.622620">
        <ele>258.663</ele>
        <time>2020-05-24T15:19:50Z</time>
      </trkpt>
      <trkpt lat="43.291150" lon="-5.622600">
        <ele>258.624</ele>
        <time>2020-05-24T15:20:10Z</time>
      </trkpt>
      <trkpt lat="43.291190" lon="-5.622550">
        <ele>258.653</ele>
        <time>2020-05-24T15:20:30Z</time>
      </trkpt>
      <trkpt lat="43.291230" lon="-5.622520">
        <ele>258.666</ele>
        <time>2020-05-24T15:20:50Z</time>
      </trkpt>
      <trkpt lat="43.291260" lon="-5.622520">
        <ele>258.733</ele>
        <time>2020-05-24T15:21:10Z</time>
      </trkpt>
      <trkpt lat="43.291280" lon="-5.622520">
        <ele>258.823</ele>
        <time>2020-05-24T15:21:30Z</time>
      </trkpt>
      <trkpt lat="43.291310" lon="-5.622540">
        <ele>259.115</ele>
        <time>2020-05-24T15:21:50Z</time>
      </trkpt>
      <trkpt lat="43.291340" lon="-5.622570">
        <ele>259.508</ele>
        <time>2020-05-24T15:22:10Z</time>
      </trkpt>
      <trkpt lat="43.291370" lon="-5.622620">
        <ele>260.277</ele>
        <time>2020-05-24T15:22:30Z</time>
      </trkpt>
      <trkpt lat="43.291420" lon="-5.622700">
        <ele>261.842</ele>
        <time>2020-05-24T15:22:50Z</time>
      </trkpt>
      <trkpt lat="43.291422" lon="-5.622695">
        <ele>261.719</ele>
        <time>2020-05-24T15:23:10Z</time>
      </trkpt>
      <trkpt lat="43.291500" lon="-5.622650">
        <ele>262.345</ele>
        <time>2020-05-24T15:23:30Z</time>
      </trkpt>
      <trkpt lat="43.291570" lon="-5.622610">
        <ele>262.414</ele>
        <time>2020-05-24T15:23:50Z</time>
      </trkpt>
      <trkpt lat="43.291700" lon="-5.622470">
        <ele>260.775</ele>
        <time>2020-05-24T15:24:10Z</time>
      </trkpt>
      <trkpt lat="43.291710" lon="-5.622460">
        <ele>260.894</ele>
        <time>2020-05-24T15:24:30Z</time>
      </trkpt>
      <trkpt lat="43.291830" lon="-5.622310">
        <ele>260.537</ele>
        <time>2020-05-24T15:24:50Z</time>
      </trkpt>
      <trkpt lat="43.291970" lon="-5.622130">
        <ele>258.295</ele>
        <time>2020-05-24T15:25:10Z</time>
      </trkpt>
      <trkpt lat="43.292080" lon="-5.621950">
        <ele>257.549</ele>
        <time>2020-05-24T15:25:30Z</time>
      </trkpt>
      <trkpt lat="43.292790" lon="-5.620850">
        <ele>259.423</ele>
        <time>2020-05-24T15:25:50Z</time>
      </trkpt>
      <trkpt lat="43.292880" lon="-5.620730">
        <ele>260.508</ele>
        <time>2020-05-24T15:26:10Z</time>
      </trkpt>
      <trkpt lat="43.292980" lon="-5.620610">
        <ele>260.443</ele>
        <time>2020-05-24T15:26:30Z</time>
      </trkpt>
      <trkpt lat="43.293070" lon="-5.620520">
        <ele>260.268</ele>
        <time>2020-05-24T15:26:50Z</time>
      </trkpt>
      <trkpt lat="43.293160" lon="-5.620450">
        <ele>261.665</ele>
        <time>2020-05-24T15:27:10Z</time>
      </trkpt>
      <trkpt lat="43.293570" lon="-5.620090">
        <ele>260.731</ele>
        <time>2020-05-24T15:27:30Z</time>
      </trkpt>
      <trkpt lat="43.293830" lon="-5.619880">
        <ele>262.650</ele>
        <time>2020-05-24T15:27:50Z</time>
      </trkpt>
      <trkpt lat="43.293960" lon="-5.619770">
        <ele>263.981</ele>
        <time>2020-05-24T15:28:10Z</time>
      </trkpt>
      <trkpt lat="43.294060" lon="-5.619650">
        <ele>264.410</ele>
        <time>2020-05-24T15:28:30Z</time>
      </trkpt>
      <trkpt lat="43.294120" lon="-5.619580">
        <ele>263.743</ele>
        <time>2020-05-24T15:28:50Z</time>
      </trkpt>
      <trkpt lat="43.294250" lon="-5.619420">
        <ele>261.921</ele>
        <time>2020-05-24T15:29:10Z</time>
      </trkpt>
      <trkpt lat="43.294350" lon="-5.619260">
        <ele>262.241</ele>
        <time>2020-05-24T15:29:30Z</time>
      </trkpt>
      <trkpt lat="43.294440" lon="-5.619120">
        <ele>261.605</ele>
        <time>2020-05-24T15:29:50Z</time>
      </trkpt>
      <trkpt lat="43.294510" lon="-5.619040">
        <ele>262.508</ele>
        <time>2020-05-24T15:30:10Z</time>
      </trkpt>
      <trkpt lat="43.294580" lon="-5.618960">
        <ele>262.416</ele>
        <time>2020-05-24T15:30:30Z</time>
      </trkpt>
      <trkpt lat="43.294800" lon="-5.618710">
        <ele>263.931</ele>
        <time>2020-05-24T15:30:50Z</time>
      </trkpt>
      <trkpt lat="43.294880" lon="-5.618630">
        <ele>265.058</ele>
        <time>2020-05-24T15:31:10Z</time>
      </trkpt>
      <trkpt lat="43.294950" lon="-5.618550">
        <ele>266.074</ele>
        <time>2020-05-24T15:31:30Z</time>
      </trkpt>
      <trkpt lat="43.295010" lon="-5.618510">
        <ele>266.813</ele>
        <time>2020-05-24T15:31:50Z</time>
      </trkpt>
      <trkpt lat="43.295070" lon="-5.618480">
        <ele>267.414</ele>
        <time>2020-05-24T15:32:10Z</time>
      </trkpt>
      <trkpt lat="43.295140" lon="-5.618450">
        <ele>268.033</ele>
        <time>2020-05-24T15:32:30Z</time>
      </trkpt>
      <trkpt lat="43.295140" lon="-5.618440">
        <ele>267.926</ele>
        <time>2020-05-24T15:32:50Z</time>
      </trkpt>
      <trkpt lat="43.295260" lon="-5.618400">
        <ele>268.313</ele>
        <time>2020-05-24T15:33:10Z</time>
      </trkpt>
      <trkpt lat="43.295290" lon="-5.618380">
        <ele>268.143</ele>
        <time>2020-05-24T15:33:30Z</time>
      </trkpt>
      <trkpt lat="43.295400" lon="-5.618310">
        <ele>267.207</ele>
        <time>2020-05-24T15:33:50Z</time>
      </trkpt>
      <trkpt lat="43.295460" lon="-5.618280">
        <ele>267.008</ele>
        <time>2020-05-24T15:34:10Z</time>
      </trkpt>
      <trkpt lat="43.295530" lon="-5.618230">
        <ele>266.545</ele>
        <time>2020-05-24T15:34:30Z</time>
      </trkpt>
      <trkpt lat="43.295630" lon="-5.618150">
        <ele>266.120</ele>
        <time>2020-05-24T15:34:50Z</time>
      </trkpt>
      <trkpt lat="43.295700" lon="-5.618100">
        <ele>265.337</ele>
        <time>2020-05-24T15:35:10Z</time>
      </trkpt>
      <trkpt lat="43.295810" lon="-5.618030">
        <ele>263.973</ele>
        <time>2020-05-24T15:35:30Z</time>
      </trkpt>
      <trkpt lat="43.295880" lon="-5.618010">
        <ele>263.532</ele>
        <time>2020-05-24T15:35:50Z</time>
      </trkpt>
      <trkpt lat="43.295950" lon="-5.617970">
        <ele>262.723</ele>
        <time>2020-05-24T15:36:10Z</time>
      </trkpt>
      <trkpt lat="43.296020" lon="-5.617900">
        <ele>261.732</ele>
        <time>2020-05-24T15:36:30Z</time>
      </trkpt>
      <trkpt lat="43.296050" lon="-5.617850">
        <ele>261.185</ele>
        <time>2020-05-24T15:36:50Z</time>
      </trkpt>
      <trkpt lat="43.296070" lon="-5.617800">
        <ele>260.681</ele>
        <time>2020-05-24T15:37:10Z</time>
      </trkpt>
      <trkpt lat="43.296100" lon="-5.617740">
        <ele>260.361</ele>
        <time>2020-05-24T15:37:30Z</time>
      </trkpt>
      <trkpt lat="43.296110" lon="-5.617690">
        <ele>260.317</ele>
        <time>2020-05-24T15:37:50Z</time>
      </trkpt>
      <trkpt lat="43.296120" lon="-5.617620">
        <ele>260.808</ele>
        <time>2020-05-24T15:38:10Z</time>
      </trkpt>
      <trkpt lat="43.296120" lon="-5.617570">
        <ele>261.062</ele>
        <time>2020-05-24T15:38:30Z</time>
      </trkpt>
      <trkpt lat="43.296120" lon="-5.617550">
        <ele>261.177</ele>
        <time>2020-05-24T15:38:50Z</time>
      </trkpt>
      <trkpt lat="43.296090" lon="-5.616640">
        <ele>261.244</ele>
        <time>2020-05-24T15:39:10Z</time>
      </trkpt>
      <trkpt lat="43.296090" lon="-5.616510">
        <ele>261.680</ele>
        <time>2020-05-24T15:39:30Z</time>
      </trkpt>
      <trkpt lat="43.296090" lon="-5.616360">
        <ele>261.939</ele>
        <time>2020-05-24T15:39:50Z</time>
      </trkpt>
      <trkpt lat="43.296140" lon="-5.615570">
        <ele>261.190</ele>
        <time>2020-05-24T15:40:10Z</time>
      </trkpt>
      <trkpt lat="43.296160" lon="-5.615240">
        <ele>260.939</ele>
        <time>2020-05-24T15:40:30Z</time>
      </trkpt>
      <trkpt lat="43.296170" lon="-5.615130">
        <ele>260.682</ele>
        <time>2020-05-24T15:40:50Z</time>
      </trkpt>
      <trkpt lat="43.296180" lon="-5.615010">
        <ele>260.388</ele>
        <time>2020-05-24T15:41:10Z</time>
      </trkpt>
      <trkpt lat="43.296210" lon="-5.614800">
        <ele>260.424</ele>
        <time>2020-05-24T15:41:30Z</time>
      </trkpt>
      <trkpt lat="43.296240" lon="-5.614670">
        <ele>260.526</ele>
        <time>2020-05-24T15:41:50Z</time>
      </trkpt>
      <trkpt lat="43.296280" lon="-5.614540">
        <ele>260.608</ele>
        <time>2020-05-24T15:42:10Z</time>
      </trkpt>
      <trkpt lat="43.296390" lon="-5.614250">
        <ele>261.092</ele>
        <time>2020-05-24T15:42:30Z</time>
      </trkpt>
      <trkpt lat="43.296560" lon="-5.613860">
        <ele>262.087</ele>
        <time>2020-05-24T15:42:50Z</time>
      </trkpt>
      <trkpt lat="43.296610" lon="-5.613710">
        <ele>261.634</ele>
        <time>2020-05-24T15:43:10Z</time>
      </trkpt>
      <trkpt lat="43.296670" lon="-5.613410">
        <ele>261.110</ele>
        <time>2020-05-24T15:43:30Z</time>
      </trkpt>
      <trkpt lat="43.296720" lon="-5.613160">
        <ele>262.729</ele>
        <time>2020-05-24T15:43:50Z</time>
      </trkpt>
      <trkpt lat="43.296760" lon="-5.612990">
        <ele>262.980</ele>
        <time>2020-05-24T15:44:10Z</time>
      </trkpt>
      <trkpt lat="43.296790" lon="-5.612800">
        <ele>262.959</ele>
        <time>2020-05-24T15:44:30Z</time>
      </trkpt>
      <trkpt lat="43.296800" lon="-5.612650">
        <ele>263.482</ele>
        <time>2020-05-24T15:44:50Z</time>
      </trkpt>
      <trkpt lat="43.296810" lon="-5.612520">
        <ele>264.049</ele>
        <time>2020-05-24T15:45:10Z</time>
      </trkpt>
      <trkpt lat="43.296810" lon="-5.612330">
        <ele>264.002</ele>
        <time>2020-05-24T15:45:30Z</time>
      </trkpt>
      <trkpt lat="43.296860" lon="-5.612190">
        <ele>264.322</ele>
        <time>2020-05-24T15:45:50Z</time>
      </trkpt>
      <trkpt lat="43.296860" lon="-5.612050">
        <ele>264.008</ele>
        <time>2020-05-24T15:46:10Z</time>
      </trkpt>
      <trkpt lat="43.296870" lon="-5.611870">
        <ele>263.988</ele>
        <time>2020-05-24T15:46:30Z</time>
      </trkpt>
      <trkpt lat="43.296880" lon="-5.611800">
        <ele>264.073</ele>
        <time>2020-05-24T15:46:50Z</time>
      </trkpt>
      <trkpt lat="43.296920" lon="-5.611490">
        <ele>264.120</ele>
        <time>2020-05-24T15:47:10Z</time>
      </trkpt>
      <trkpt lat="43.296950" lon="-5.611330">
        <ele>264.026</ele>
        <time>2020-05-24T15:47:30Z</time>
      </trkpt>
      <trkpt lat="43.297010" lon="-5.611120">
        <ele>264.525</ele>
        <time>2020-05-24T15:47:50Z</time>
      </trkpt>
      <trkpt lat="43.297080" lon="-5.610940">
        <ele>265.016</ele>
        <time>2020-05-24T15:48:10Z</time>
      </trkpt>
      <trkpt lat="43.297090" lon="-5.610910">
        <ele>265.035</ele>
        <time>2020-05-24T15:48:30Z</time>
      </trkpt>
      <trkpt lat="43.297170" lon="-5.610680">
        <ele>265.288</ele>
        <time>2020-05-24T15:48:50Z</time>
      </trkpt>
      <trkpt lat="43.297230" lon="-5.610560">
        <ele>265.054</ele>
        <time>2020-05-24T15:49:10Z</time>
      </trkpt>
      <trkpt lat="43.297280" lon="-5.610460">
        <ele>265.556</ele>
        <time>2020-05-24T15:49:30Z</time>
      </trkpt>
      <trkpt lat="43.297430" lon="-5.610190">
        <ele>267.511</ele>
        <time>2020-05-24T15:49:50Z</time>
      </trkpt>
      <trkpt lat="43.297470" lon="-5.610120">
        <ele>267.808</ele>
        <time>2020-05-24T15:50:10Z</time>
      </trkpt>
      <trkpt lat="43.297470" lon="-5.610110">
        <ele>267.969</ele>
        <time>2020-05-24T15:50:30Z</time>
      </trkpt>
      <trkpt lat="43.297490" lon="-5.610070">
        <ele>267.894</ele>
        <time>2020-05-24T15:50:50Z</time>
      </trkpt>
      <trkpt lat="43.297510" lon="-5.610030">
        <ele>267.731</ele>
        <time>2020-05-24T15:51:10Z</time>
      </trkpt>
      <trkpt lat="43.297600" lon="-5.609940">
        <ele>270.037</ele>
        <time>2020-05-24T15:51:30Z</time>
      </trkpt>
      <trkpt lat="43.297630" lon="-5.609920">
        <ele>270.326</ele>
        <time>2020-05-24T15:51:50Z</time>
      </trkpt>
      <trkpt lat="43.297710" lon="-5.609870">
        <ele>270.417</ele>
        <time>2020-05-24T15:52:10Z</time>
      </trkpt>
      <trkpt lat="43.297820" lon="-5.609800">
        <ele>270.086</ele>
        <time>2020-05-24T15:52:30Z</time>
      </trkpt>
      <trkpt lat="43.297920" lon="-5.609770">
        <ele>269.739</ele>
        <time>2020-05-24T15:52:50Z</time>
      </trkpt>
      <trkpt lat="43.298230" lon="-5.609720">
        <ele>268.465</ele>
        <time>2020-05-24T15:53:10Z</time>
      </trkpt>
      <trkpt lat="43.298330" lon="-5.609690">
        <ele>268.668</ele>
        <time>2020-05-24T15:53:30Z</time>
      </trkpt>
      <trkpt lat="43.298410" lon="-5.609670">
        <ele>268.714</ele>
        <time>2020-05-24T15:53:50Z</time>
      </trkpt>
      <trkpt lat="43.298470" lon="-5.609630">
        <ele>269.008</ele>
        <time>2020-05-24T15:54:10Z</time>
      </trkpt>
      <trkpt lat="43.298530" lon="-5.609560">
        <ele>269.320</ele>
        <time>2020-05-24T15:54:30Z</time>
      </trkpt>
      <trkpt lat="43.298610" lon="-5.609460">
        <ele>269.065</ele>
        <time>2020-05-24T15:54:50Z</time>
      </trkpt>
      <trkpt lat="43.298650" lon="-5.609410">
        <ele>269.042</ele>
        <time>2020-05-24T15:55:10Z</time>
      </trkpt>
      <trkpt lat="43.298870" lon="-5.609210">
        <ele>268.928</ele>
        <time>2020-05-24T15:55:30Z</time>
      </trkpt>
      <trkpt lat="43.299030" lon="-5.609120">
        <ele>269.657</ele>
        <time>2020-05-24T15:55:50Z</time>
      </trkpt>
      <trkpt lat="43.299170" lon="-5.609040">
        <ele>269.928</ele>
        <time>2020-05-24T15:56:10Z</time>
      </trkpt>
      <trkpt lat="43.299290" lon="-5.609000">
        <ele>270.497</ele>
        <time>2020-05-24T15:56:30Z</time>
      </trkpt>
      <trkpt lat="43.299380" lon="-5.608960">
        <ele>270.710</ele>
        <time>2020-05-24T15:56:50Z</time>
      </trkpt>
      <trkpt lat="43.299420" lon="-5.608920">
        <ele>270.999</ele>
        <time>2020-05-24T15:57:10Z</time>
      </trkpt>
      <trkpt lat="43.299450" lon="-5.608870">
        <ele>271.107</ele>
        <time>2020-05-24T15:57:30Z</time>
      </trkpt>
      <trkpt lat="43.299470" lon="-5.608810">
        <ele>271.527</ele>
        <time>2020-05-24T15:57:50Z</time>
      </trkpt>
      <trkpt lat="43.299480" lon="-5.608680">
        <ele>271.908</ele>
        <time>2020-05-24T15:58:10Z</time>
      </trkpt>
      <trkpt lat="43.299480" lon="-5.608640">
        <ele>271.953</ele>
        <time>2020-05-24T15:58:30Z</time>
      </trkpt>
      <trkpt lat="43.299490" lon="-5.608460">
        <ele>272.548</ele>
        <time>2020-05-24T15:58:50Z</time>
      </trkpt>
      <trkpt lat="43.299490" lon="-5.608410">
        <ele>272.695</ele>
        <time>2020-05-24T15:59:10Z</time>
      </trkpt>
      <trkpt lat="43.299500" lon="-5.608270">
        <ele>273.871</ele>
        <time>2020-05-24T15:59:30Z</time>
      </trkpt>
      <trkpt lat="43.299530" lon="-5.608080">
        <ele>276.140</ele>
        <time>2020-05-24T15:59:50Z</time>
      </trkpt>
      <trkpt lat="43.299550" lon="-5.608000">
        <ele>276.721</ele>
        <time>2020-05-24T16:00:10Z</time>
      </trkpt>
      <trkpt lat="43.299640" lon="-5.607700">
        <ele>276.640</ele>
        <time>2020-05-24T16:00:30Z</time>
      </trkpt>
      <trkpt lat="43.299790" lon="-5.607300">
        <ele>276.023</ele>
        <time>2020-05-24T16:00:50Z</time>
      </trkpt>
      <trkpt lat="43.299830" lon="-5.607190">
        <ele>276.735</ele>
        <time>2020-05-24T16:01:10Z</time>
      </trkpt>
      <trkpt lat="43.299850" lon="-5.607150">
        <ele>276.786</ele>
        <time>2020-05-24T16:01:30Z</time>
      </trkpt>
      <trkpt lat="43.299850" lon="-5.607130">
        <ele>276.714</ele>
        <time>2020-05-24T16:01:50Z</time>
      </trkpt>
      <trkpt lat="43.299870" lon="-5.607050">
        <ele>276.708</ele>
        <time>2020-05-24T16:02:10Z</time>
      </trkpt>
      <trkpt lat="43.299880" lon="-5.606960">
        <ele>276.737</ele>
        <time>2020-05-24T16:02:30Z</time>
      </trkpt>
      <trkpt lat="43.299900" lon="-5.606910">
        <ele>276.552</ele>
        <time>2020-05-24T16:02:50Z</time>
      </trkpt>
      <trkpt lat="43.299900" lon="-5.606880">
        <ele>276.669</ele>
        <time>2020-05-24T16:03:10Z</time>
      </trkpt>
      <trkpt lat="43.299930" lon="-5.606790">
        <ele>276.375</ele>
        <time>2020-05-24T16:03:30Z</time>
      </trkpt>
      <trkpt lat="43.299980" lon="-5.606720">
        <ele>275.444</ele>
        <time>2020-05-24T16:03:50Z</time>
      </trkpt>
      <trkpt lat="43.300070" lon="-5.606590">
        <ele>275.615</ele>
        <time>2020-05-24T16:04:10Z</time>
      </trkpt>
      <trkpt lat="43.300200" lon="-5.606430">
        <ele>276.194</ele>
        <time>2020-05-24T16:04:30Z</time>
      </trkpt>
      <trkpt lat="43.300280" lon="-5.606340">
        <ele>276.497</ele>
        <time>2020-05-24T16:04:50Z</time>
      </trkpt>
      <trkpt lat="43.300330" lon="-5.606300">
        <ele>277.246</ele>
        <time>2020-05-24T16:05:10Z</time>
      </trkpt>
      <trkpt lat="43.300390" lon="-5.606260">
        <ele>277.888</ele>
        <time>2020-05-24T16:05:30Z</time>
      </trkpt>
      <trkpt lat="43.300470" lon="-5.606230">
        <ele>278.216</ele>
        <time>2020-05-24T16:05:50Z</time>
      </trkpt>
      <trkpt lat="43.300520" lon="-5.606220">
        <ele>278.408</ele>
        <time>2020-05-24T16:06:10Z</time>
      </trkpt>
      <trkpt lat="43.300590" lon="-5.606210">
        <ele>278.638</ele>
        <time>2020-05-24T16:06:30Z</time>
      </trkpt>
      <trkpt lat="43.300690" lon="-5.606200">
        <ele>279.153</ele>
        <time>2020-05-24T16:06:50Z</time>
      </trkpt>
      <trkpt lat="43.300770" lon="-5.606190">
        <ele>279.220</ele>
        <time>2020-05-24T16:07:10Z</time>
      </trkpt>
      <trkpt lat="43.300820" lon="-5.606190">
        <ele>279.566</ele>
        <time>2020-05-24T16:07:30Z</time>
      </trkpt>
      <trkpt lat="43.300930" lon="-5.606200">
        <ele>280.555</ele>
        <time>2020-05-24T16:07:50Z</time>
      </trkpt>
      <trkpt lat="43.301030" lon="-5.606200">
        <ele>281.036</ele>
        <time>2020-05-24T16:08:10Z</time>
      </trkpt>
      <trkpt lat="43.301130" lon="-5.606210">
        <ele>282.125</ele>
        <time>2020-05-24T16:08:30Z</time>
      </trkpt>
      <trkpt lat="43.301260" lon="-5.606220">
        <ele>283.938</ele>
        <time>2020-05-24T16:08:50Z</time>
      </trkpt>
      <trkpt lat="43.301310" lon="-5.606210">
        <ele>284.111</ele>
        <time>2020-05-24T16:09:10Z</time>
      </trkpt>
      <trkpt lat="43.301350" lon="-5.606190">
        <ele>283.721</ele>
        <time>2020-05-24T16:09:30Z</time>
      </trkpt>
      <trkpt lat="43.301390" lon="-5.606160">
        <ele>283.003</ele>
        <time>2020-05-24T16:09:50Z</time>
      </trkpt>
      <trkpt lat="43.301460" lon="-5.606080">
        <ele>283.908</ele>
        <time>2020-05-24T16:10:10Z</time>
      </trkpt>
      <trkpt lat="43.301660" lon="-5.605840">
        <ele>281.385</ele>
        <time>2020-05-24T16:10:30Z</time>
      </trkpt>
      <trkpt lat="43.301730" lon="-5.605750">
        <ele>283.010</ele>
        <time>2020-05-24T16:10:50Z</time>
      </trkpt>
      <trkpt lat="43.301900" lon="-5.605570">
        <ele>281.617</ele>
        <time>2020-05-24T16:11:10Z</time>
      </trkpt>
      <trkpt lat="43.301990" lon="-5.605500">
        <ele>282.063</ele>
        <time>2020-05-24T16:11:30Z</time>
      </trkpt>
      <trkpt lat="43.302000" lon="-5.605490">
        <ele>282.172</ele>
        <time>2020-05-24T16:11:50Z</time>
      </trkpt>
      <trkpt lat="43.302050" lon="-5.605470">
        <ele>282.613</ele>
        <time>2020-05-24T16:12:10Z</time>
      </trkpt>
      <trkpt lat="43.302130" lon="-5.605450">
        <ele>283.282</ele>
        <time>2020-05-24T16:12:30Z</time>
      </trkpt>
      <trkpt lat="43.302180" lon="-5.605440">
        <ele>283.555</ele>
        <time>2020-05-24T16:12:50Z</time>
      </trkpt>
      <trkpt lat="43.302230" lon="-5.605430">
        <ele>283.862</ele>
        <time>2020-05-24T16:13:10Z</time>
      </trkpt>
      <trkpt lat="43.302280" lon="-5.605420">
        <ele>283.583</ele>
        <time>2020-05-24T16:13:30Z</time>
      </trkpt>
      <trkpt lat="43.302320" lon="-5.605400">
        <ele>283.511</ele>
        <time>2020-05-24T16:13:50Z</time>
      </trkpt>
      <trkpt lat="43.302350" lon="-5.605380">
        <ele>283.408</ele>
        <time>2020-05-24T16:14:10Z</time>
      </trkpt>
      <trkpt lat="43.302400" lon="-5.605340">
        <ele>283.190</ele>
        <time>2020-05-24T16:14:30Z</time>
      </trkpt>
      <trkpt lat="43.302480" lon="-5.605260">
        <ele>282.985</ele>
        <time>2020-05-24T16:14:50Z</time>
      </trkpt>
      <trkpt lat="43.302540" lon="-5.605190">
        <ele>284.682</ele>
        <time>2020-05-24T16:15:10Z</time>
      </trkpt>
      <trkpt lat="43.302600" lon="-5.605100">
        <ele>286.038</ele>
        <time>2020-05-24T16:15:30Z</time>
      </trkpt>
      <trkpt lat="43.302620" lon="-5.605060">
        <ele>286.457</ele>
        <time>2020-05-24T16:15:50Z</time>
      </trkpt>
      <trkpt lat="43.302680" lon="-5.604970">
        <ele>286.448</ele>
        <time>2020-05-24T16:16:10Z</time>
      </trkpt>
      <trkpt lat="43.302730" lon="-5.604860">
        <ele>286.337</ele>
        <time>2020-05-24T16:16:30Z</time>
      </trkpt>
      <trkpt lat="43.302750" lon="-5.604760">
        <ele>286.450</ele>
        <time>2020-05-24T16:16:50Z</time>
      </trkpt>
      <trkpt lat="43.302770" lon="-5.604660">
        <ele>285.519</ele>
        <time>2020-05-24T16:17:10Z</time>
      </trkpt>
      <trkpt lat="43.302760" lon="-5.604620">
        <ele>286.209</ele>
        <time>2020-05-24T16:17:30Z</time>
      </trkpt>
      <trkpt lat="43.302760" lon="-5.604520">
        <ele>286.219</ele>
        <time>2020-05-24T16:17:50Z</time>
      </trkpt>
      <trkpt lat="43.302750" lon="-5.604380">
        <ele>287.208</ele>
        <time>2020-05-24T16:18:10Z</time>
      </trkpt>
      <trkpt lat="43.302750" lon="-5.604360">
        <ele>287.335</ele>
        <time>2020-05-24T16:18:30Z</time>
      </trkpt>
      <trkpt lat="43.302750" lon="-5.604230">
        <ele>287.810</ele>
        <time>2020-05-24T16:18:50Z</time>
      </trkpt>
      <trkpt lat="43.302750" lon="-5.604130">
        <ele>288.317</ele>
        <time>2020-05-24T16:19:10Z</time>
      </trkpt>
      <trkpt lat="43.302750" lon="-5.604120">
        <ele>288.433</ele>
        <time>2020-05-24T16:19:30Z</time>
      </trkpt>
      <trkpt lat="43.302750" lon="-5.604030">
        <ele>289.242</ele>
        <time>2020-05-24T16:19:50Z</time>
      </trkpt>
      <trkpt lat="43.302760" lon="-5.603940">
        <ele>289.253</ele>
        <time>2020-05-24T16:20:10Z</time>
      </trkpt>
      <trkpt lat="43.302770" lon="-5.603890">
        <ele>288.752</ele>
        <time>2020-05-24T16:20:30Z</time>
      </trkpt>
      <trkpt lat="43.302770" lon="-5.603870">
        <ele>289.055</ele>
        <time>2020-05-24T16:20:50Z</time>
      </trkpt>
      <trkpt lat="43.302790" lon="-5.603810">
        <ele>289.238</ele>
        <time>2020-05-24T16:21:10Z</time>
      </trkpt>
      <trkpt lat="43.302870" lon="-5.603680">
        <ele>289.870</ele>
        <time>2020-05-24T16:21:30Z</time>
      </trkpt>
      <trkpt lat="43.303090" lon="-5.603290">
        <ele>289.517</ele>
        <time>2020-05-24T16:21:50Z</time>
      </trkpt>
      <trkpt lat="43.303200" lon="-5.603100">
        <ele>291.008</ele>
        <time>2020-05-24T16:22:10Z</time>
      </trkpt>
      <trkpt lat="43.303250" lon="-5.603000">
        <ele>291.387</ele>
        <time>2020-05-24T16:22:30Z</time>
      </trkpt>
      <trkpt lat="43.303350" lon="-5.602820">
        <ele>291.512</ele>
        <time>2020-05-24T16:22:50Z</time>
      </trkpt>
      <trkpt lat="43.303360" lon="-5.602800">
        <ele>291.529</ele>
        <time>2020-05-24T16:23:10Z</time>
      </trkpt>
      <trkpt lat="43.303380" lon="-5.602760">
        <ele>291.465</ele>
        <time>2020-05-24T16:23:30Z</time>
      </trkpt>
      <trkpt lat="43.303390" lon="-5.602710">
        <ele>291.564</ele>
        <time>2020-05-24T16:23:50Z</time>
      </trkpt>
      <trkpt lat="43.303390" lon="-5.602640">
        <ele>291.965</ele>
        <time>2020-05-24T16:24:10Z</time>
      </trkpt>
      <trkpt lat="43.303390" lon="-5.602570">
        <ele>292.294</ele>
        <time>2020-05-24T16:24:30Z</time>
      </trkpt>
      <trkpt lat="43.303380" lon="-5.602540">
        <ele>292.617</ele>
        <time>2020-05-24T16:24:50Z</time>
      </trkpt>
      <trkpt lat="43.303380" lon="-5.602430">
        <ele>293.183</ele>
        <time>2020-05-24T16:25:10Z</time>
      </trkpt>
      <trkpt lat="43.303380" lon="-5.602330">
        <ele>293.525</ele>
        <time>2020-05-24T16:25:30Z</time>
      </trkpt>
      <trkpt lat="43.303380" lon="-5.602320">
        <ele>293.617</ele>
        <time>2020-05-24T16:25:50Z</time>
      </trkpt>
      <trkpt lat="43.303410" lon="-5.602170">
        <ele>294.108</ele>
        <time>2020-05-24T16:26:10Z</time>
      </trkpt>
      <trkpt lat="43.303510" lon="-5.601860">
        <ele>294.962</ele>
        <time>2020-05-24T16:26:30Z</time>
      </trkpt>
      <trkpt lat="43.303660" lon="-5.601810">
        <ele>293.987</ele>
        <time>2020-05-24T16:26:50Z</time>
      </trkpt>
      <trkpt lat="43.303680" lon="-5.601800">
        <ele>294.544</ele>
        <time>2020-05-24T16:27:10Z</time>
      </trkpt>
      <trkpt lat="43.303710" lon="-5.601800">
        <ele>295.130</ele>
        <time>2020-05-24T16:27:30Z</time>
      </trkpt>
      <trkpt lat="43.303750" lon="-5.601820">
        <ele>295.419</ele>
        <time>2020-05-24T16:27:50Z</time>
      </trkpt>
      <trkpt lat="43.303800" lon="-5.601870">
        <ele>294.750</ele>
        <time>2020-05-24T16:28:10Z</time>
      </trkpt>
      <trkpt lat="43.303870" lon="-5.601910">
        <ele>294.229</ele>
        <time>2020-05-24T16:28:30Z</time>
      </trkpt>
      <trkpt lat="43.303940" lon="-5.601920">
        <ele>295.012</ele>
        <time>2020-05-24T16:28:50Z</time>
      </trkpt>
      <trkpt lat="43.304060" lon="-5.601940">
        <ele>296.941</ele>
        <time>2020-05-24T16:29:10Z</time>
      </trkpt>
      <trkpt lat="43.304160" lon="-5.601950">
        <ele>298.781</ele>
        <time>2020-05-24T16:29:30Z</time>
      </trkpt>
      <trkpt lat="43.304240" lon="-5.602000">
        <ele>298.909</ele>
        <time>2020-05-24T16:29:50Z</time>
      </trkpt>
      <trkpt lat="43.304340" lon="-5.602060">
        <ele>299.508</ele>
        <time>2020-05-24T16:30:10Z</time>
      </trkpt>
      <trkpt lat="43.304370" lon="-5.602070">
        <ele>300.048</ele>
        <time>2020-05-24T16:30:30Z</time>
      </trkpt>
      <trkpt lat="43.304410" lon="-5.602090">
        <ele>300.533</ele>
        <time>2020-05-24T16:30:50Z</time>
      </trkpt>
      <trkpt lat="43.304480" lon="-5.602070">
        <ele>301.710</ele>
        <time>2020-05-24T16:31:10Z</time>
      </trkpt>
      <trkpt lat="43.304570" lon="-5.602030">
        <ele>302.466</ele>
        <time>2020-05-24T16:31:30Z</time>
      </trkpt>
      <trkpt lat="43.304680" lon="-5.601960">
        <ele>303.845</ele>
        <time>2020-05-24T16:31:50Z</time>
      </trkpt>
      <trkpt lat="43.304700" lon="-5.601930">
        <ele>304.466</ele>
        <time>2020-05-24T16:32:10Z</time>
      </trkpt>
      <trkpt lat="43.304760" lon="-5.601870">
        <ele>305.655</ele>
        <time>2020-05-24T16:32:30Z</time>
      </trkpt>
      <trkpt lat="43.304840" lon="-5.601820">
        <ele>306.128</ele>
        <time>2020-05-24T16:32:50Z</time>
      </trkpt>
      <trkpt lat="43.304940" lon="-5.601800">
        <ele>305.793</ele>
        <time>2020-05-24T16:33:10Z</time>
      </trkpt>
      <trkpt lat="43.305020" lon="-5.601780">
        <ele>305.565</ele>
        <time>2020-05-24T16:33:30Z</time>
      </trkpt>
      <trkpt lat="43.305120" lon="-5.601790">
        <ele>304.821</ele>
        <time>2020-05-24T16:33:50Z</time>
      </trkpt>
      <trkpt lat="43.305240" lon="-5.601800">
        <ele>303.908</ele>
        <time>2020-05-24T16:34:10Z</time>
      </trkpt>
      <trkpt lat="43.305300" lon="-5.601800">
        <ele>304.223</ele>
        <time>2020-05-24T16:34:30Z</time>
      </trkpt>
      <trkpt lat="43.305350" lon="-5.601810">
        <ele>304.888</ele>
        <time>2020-05-24T16:34:50Z</time>
      </trkpt>
      <trkpt lat="43.305460" lon="-5.601840">
        <ele>305.715</ele>
        <time>2020-05-24T16:35:10Z</time>
      </trkpt>
      <trkpt lat="43.305480" lon="-5.601850">
        <ele>305.621</ele>
        <time>2020-05-24T16:35:30Z</time>
      </trkpt>
      <trkpt lat="43.305570" lon="-5.601880">
        <ele>306.660</ele>
        <time>2020-05-24T16:35:50Z</time>
      </trkpt>
      <trkpt lat="43.305650" lon="-5.601930">
        <ele>308.871</ele>
        <time>2020-05-24T16:36:10Z</time>
      </trkpt>
      <trkpt lat="43.305700" lon="-5.601960">
        <ele>310.250</ele>
        <time>2020-05-24T16:36:30Z</time>
      </trkpt>
      <trkpt lat="43.305800" lon="-5.602060">
        <ele>311.053</ele>
        <time>2020-05-24T16:36:50Z</time>
      </trkpt>
      <trkpt lat="43.305910" lon="-5.602160">
        <ele>312.115</ele>
        <time>2020-05-24T16:37:10Z</time>
      </trkpt>
      <trkpt lat="43.305950" lon="-5.602190">
        <ele>312.765</ele>
        <time>2020-05-24T16:37:30Z</time>
      </trkpt>
      <trkpt lat="43.306100" lon="-5.602340">
        <ele>314.711</ele>
        <time>2020-05-24T16:37:50Z</time>
      </trkpt>
      <trkpt lat="43.306190" lon="-5.602430">
        <ele>314.408</ele>
        <time>2020-05-24T16:38:10Z</time>
      </trkpt>
      <trkpt lat="43.306250" lon="-5.602470">
        <ele>314.065</ele>
        <time>2020-05-24T16:38:30Z</time>
      </trkpt>
      <trkpt lat="43.306330" lon="-5.602520">
        <ele>313.210</ele>
        <time>2020-05-24T16:38:50Z</time>
      </trkpt>
      <trkpt lat="43.306470" lon="-5.602590">
        <ele>313.577</ele>
        <time>2020-05-24T16:39:10Z</time>
      </trkpt>
      <trkpt lat="43.306540" lon="-5.602630">
        <ele>313.713</ele>
        <time>2020-05-24T16:39:30Z</time>
      </trkpt>
      <trkpt lat="43.306640" lon="-5.602660">
        <ele>315.052</ele>
        <time>2020-05-24T16:39:50Z</time>
      </trkpt>
      <trkpt lat="43.306760" lon="-5.602670">
        <ele>314.743</ele>
        <time>2020-05-24T16:40:10Z</time>
      </trkpt>
      <trkpt lat="43.306860" lon="-5.602660">
        <ele>314.592</ele>
        <time>2020-05-24T16:40:30Z</time>
      </trkpt>
      <trkpt lat="43.306940" lon="-5.602650">
        <ele>314.295</ele>
        <time>2020-05-24T16:40:50Z</time>
      </trkpt>
      <trkpt lat="43.306950" lon="-5.602650">
        <ele>314.194</ele>
        <time>2020-05-24T16:41:10Z</time>
      </trkpt>
      <trkpt lat="43.307040" lon="-5.602620">
        <ele>313.457</ele>
        <time>2020-05-24T16:41:30Z</time>
      </trkpt>
      <trkpt lat="43.307120" lon="-5.602590">
        <ele>313.222</ele>
        <time>2020-05-24T16:41:50Z</time>
      </trkpt>
      <trkpt lat="43.307480" lon="-5.602470">
        <ele>316.908</ele>
        <time>2020-05-24T16:42:10Z</time>
      </trkpt>
      <trkpt lat="43.307630" lon="-5.602440">
        <ele>319.493</ele>
        <time>2020-05-24T16:42:30Z</time>
      </trkpt>
      <trkpt lat="43.307650" lon="-5.602440">
        <ele>319.668</ele>
        <time>2020-05-24T16:42:50Z</time>
      </trkpt>
      <trkpt lat="43.307830" lon="-5.602410">
        <ele>321.955</ele>
        <time>2020-05-24T16:43:10Z</time>
      </trkpt>
      <trkpt lat="43.307850" lon="-5.602410">
        <ele>321.661</ele>
        <time>2020-05-24T16:43:30Z</time>
      </trkpt>
      <trkpt lat="43.308160" lon="-5.602390">
        <ele>320.170</ele>
        <time>2020-05-24T16:43:50Z</time>
      </trkpt>
      <trkpt lat="43.308180" lon="-5.602390">
        <ele>320.191</ele>
        <time>2020-05-24T16:44:10Z</time>
      </trkpt>
      <trkpt lat="43.308330" lon="-5.602400">
        <ele>319.380</ele>
        <time>2020-05-24T16:44:30Z</time>
      </trkpt>
      <trkpt lat="43.308360" lon="-5.602400">
        <ele>319.563</ele>
        <time>2020-05-24T16:44:50Z</time>
      </trkpt>
      <trkpt lat="43.308450" lon="-5.602410">
        <ele>319.761</ele>
        <time>2020-05-24T16:45:10Z</time>
      </trkpt>
      <trkpt lat="43.308520" lon="-5.602420">
        <ele>319.821</ele>
        <time>2020-05-24T16:45:30Z</time>
      </trkpt>
      <trkpt lat="43.308620" lon="-5.602450">
        <ele>319.213</ele>
        <time>2020-05-24T16:45:50Z</time>
      </trkpt>
      <trkpt lat="43.308720" lon="-5.602480">
        <ele>318.608</ele>
        <time>2020-05-24T16:46:10Z</time>
      </trkpt>
      <trkpt lat="43.308820" lon="-5.602520">
        <ele>318.250</ele>
        <time>2020-05-24T16:46:30Z</time>
      </trkpt>
      <trkpt lat="43.308890" lon="-5.602550">
        <ele>318.125</ele>
        <time>2020-05-24T16:46:50Z</time>
      </trkpt>
      <trkpt lat="43.309030" lon="-5.602620">
        <ele>318.752</ele>
        <time>2020-05-24T16:47:10Z</time>
      </trkpt>
      <trkpt lat="43.309060" lon="-5.602630">
        <ele>318.838</ele>
        <time>2020-05-24T16:47:30Z</time>
      </trkpt>
      <trkpt lat="43.309090" lon="-5.602640">
        <ele>319.087</ele>
        <time>2020-05-24T16:47:50Z</time>
      </trkpt>
      <trkpt lat="43.309150" lon="-5.602670">
        <ele>319.148</ele>
        <time>2020-05-24T16:48:10Z</time>
      </trkpt>
      <trkpt lat="43.309240" lon="-5.602710">
        <ele>318.797</ele>
        <time>2020-05-24T16:48:30Z</time>
      </trkpt>
      <trkpt lat="43.309340" lon="-5.602750">
        <ele>318.210</ele>
        <time>2020-05-24T16:48:50Z</time>
      </trkpt>
      <trkpt lat="43.309380" lon="-5.602760">
        <ele>318.211</ele>
        <time>2020-05-24T16:49:10Z</time>
      </trkpt>
      <trkpt lat="43.309440" lon="-5.602770">
        <ele>318.221</ele>
        <time>2020-05-24T16:49:30Z</time>
      </trkpt>
      <trkpt lat="43.309530" lon="-5.602780">
        <ele>318.603</ele>
        <time>2020-05-24T16:49:50Z</time>
      </trkpt>
      <trkpt lat="43.309590" lon="-5.602780">
        <ele>319.008</ele>
        <time>2020-05-24T16:50:10Z</time>
      </trkpt>
      <trkpt lat="43.309620" lon="-5.602780">
        <ele>319.295</ele>
        <time>2020-05-24T16:50:30Z</time>
      </trkpt>
      <trkpt lat="43.309690" lon="-5.602790">
        <ele>319.580</ele>
        <time>2020-05-24T16:50:50Z</time>
      </trkpt>
      <trkpt lat="43.309760" lon="-5.602780">
        <ele>319.887</ele>
        <time>2020-05-24T16:51:10Z</time>
      </trkpt>
      <trkpt lat="43.309810" lon="-5.602770">
        <ele>319.973</ele>
        <time>2020-05-24T16:51:30Z</time>
      </trkpt>
      <trkpt lat="43.309870" lon="-5.602770">
        <ele>319.792</ele>
        <time>2020-05-24T16:51:50Z</time>
      </trkpt>
      <trkpt lat="43.309940" lon="-5.602750">
        <ele>320.123</ele>
        <time>2020-05-24T16:52:10Z</time>
      </trkpt>
      <trkpt lat="43.310110" lon="-5.602670">
        <ele>321.342</ele>
        <time>2020-05-24T16:52:30Z</time>
      </trkpt>
      <trkpt lat="43.310180" lon="-5.602630">
        <ele>321.845</ele>
        <time>2020-05-24T16:52:50Z</time>
      </trkpt>
      <trkpt lat="43.310280" lon="-5.602600">
        <ele>321.746</ele>
        <time>2020-05-24T16:53:10Z</time>
      </trkpt>
      <trkpt lat="43.310330" lon="-5.602580">
        <ele>321.788</ele>
        <time>2020-05-24T16:53:30Z</time>
      </trkpt>
      <trkpt lat="43.310490" lon="-5.602490">
        <ele>320.916</ele>
        <time>2020-05-24T16:53:50Z</time>
      </trkpt>
      <trkpt lat="43.310580" lon="-5.602450">
        <ele>321.308</ele>
        <time>2020-05-24T16:54:10Z</time>
      </trkpt>
      <trkpt lat="43.310620" lon="-5.602420">
        <ele>322.488</ele>
        <time>2020-05-24T16:54:30Z</time>
      </trkpt>
      <trkpt lat="43.310700" lon="-5.602370">
        <ele>323.843</ele>
        <time>2020-05-24T16:54:50Z</time>
      </trkpt>
      <trkpt lat="43.310860" lon="-5.602270">
        <ele>325.540</ele>
        <time>2020-05-24T16:55:10Z</time>
      </trkpt>
      <trkpt lat="43.310890" lon="-5.602240">
        <ele>325.936</ele>
        <time>2020-05-24T16:55:30Z</time>
      </trkpt>
      <trkpt lat="43.311200" lon="-5.601990">
        <ele>326.035</ele>
        <time>2020-05-24T16:55:50Z</time>
      </trkpt>
      <trkpt lat="43.311360" lon="-5.601860">
        <ele>326.596</ele>
        <time>2020-05-24T16:56:10Z</time>
      </trkpt>
      <trkpt lat="43.311500" lon="-5.601750">
        <ele>327.055</ele>
        <time>2020-05-24T16:56:30Z</time>
      </trkpt>
      <trkpt lat="43.311570" lon="-5.601700">
        <ele>326.428</ele>
        <time>2020-05-24T16:56:50Z</time>
      </trkpt>
      <trkpt lat="43.311630" lon="-5.601660">
        <ele>325.579</ele>
        <time>2020-05-24T16:57:10Z</time>
      </trkpt>
      <trkpt lat="43.311690" lon="-5.601640">
        <ele>324.605</ele>
        <time>2020-05-24T16:57:30Z</time>
      </trkpt>
      <trkpt lat="43.311780" lon="-5.601610">
        <ele>325.025</ele>
        <time>2020-05-24T16:57:50Z</time>
      </trkpt>
      <trkpt lat="43.312050" lon="-5.601610">
        <ele>324.908</ele>
        <time>2020-05-24T16:58:10Z</time>
      </trkpt>
      <trkpt lat="43.312160" lon="-5.601590">
        <ele>326.861</ele>
        <time>2020-05-24T16:58:30Z</time>
      </trkpt>
      <trkpt lat="43.312270" lon="-5.601590">
        <ele>327.186</ele>
        <time>2020-05-24T16:58:50Z</time>
      </trkpt>
      <trkpt lat="43.312400" lon="-5.601580">
        <ele>326.883</ele>
        <time>2020-05-24T16:59:10Z</time>
      </trkpt>
      <trkpt lat="43.312460" lon="-5.601570">
        <ele>326.849</ele>
        <time>2020-05-24T16:59:30Z</time>
      </trkpt>
      <trkpt lat="43.312530" lon="-5.601560">
        <ele>326.468</ele>
        <time>2020-05-24T16:59:50Z</time>
      </trkpt>
      <trkpt lat="43.312560" lon="-5.601550">
        <ele>326.359</ele>
        <time>2020-05-24T17:00:10Z</time>
      </trkpt>
      <trkpt lat="43.312580" lon="-5.601540">
        <ele>326.358</ele>
        <time>2020-05-24T17:00:30Z</time>
      </trkpt>
      <trkpt lat="43.312630" lon="-5.601530">
        <ele>325.831</ele>
        <time>2020-05-24T17:00:50Z</time>
      </trkpt>
      <trkpt lat="43.312660" lon="-5.601510">
        <ele>326.242</ele>
        <time>2020-05-24T17:01:10Z</time>
      </trkpt>
      <trkpt lat="43.312680" lon="-5.601500">
        <ele>326.322</ele>
        <time>2020-05-24T17:01:30Z</time>
      </trkpt>
      <trkpt lat="43.312720" lon="-5.601480">
        <ele>326.514</ele>
        <time>2020-05-24T17:01:50Z</time>
      </trkpt>
      <trkpt lat="43.312800" lon="-5.601450">
        <ele>326.408</ele>
        <time>2020-05-24T17:02:10Z</time>
      </trkpt>
      <trkpt lat="43.312890" lon="-5.601390">
        <ele>326.748</ele>
        <time>2020-05-24T17:02:30Z</time>
      </trkpt>
      <trkpt lat="43.312900" lon="-5.601380">
        <ele>326.733</ele>
        <time>2020-05-24T17:02:50Z</time>
      </trkpt>
      <trkpt lat="43.312990" lon="-5.601330">
        <ele>325.470</ele>
        <time>2020-05-24T17:03:10Z</time>
      </trkpt>
      <trkpt lat="43.313090" lon="-5.601260">
        <ele>325.366</ele>
        <time>2020-05-24T17:03:30Z</time>
      </trkpt>
      <trkpt lat="43.313160" lon="-5.601210">
        <ele>325.965</ele>
        <time>2020-05-24T17:03:50Z</time>
      </trkpt>
      <trkpt lat="43.313220" lon="-5.601150">
        <ele>327.046</ele>
        <time>2020-05-24T17:04:10Z</time>
      </trkpt>
      <trkpt lat="43.313370" lon="-5.601100">
        <ele>327.195</ele>
        <time>2020-05-24T17:04:30Z</time>
      </trkpt>
      <trkpt lat="43.313520" lon="-5.601040">
        <ele>327.788</ele>
        <time>2020-05-24T17:04:50Z</time>
      </trkpt>
      <trkpt lat="43.313680" lon="-5.600930">
        <ele>329.729</ele>
        <time>2020-05-24T17:05:10Z</time>
      </trkpt>
      <trkpt lat="43.313930" lon="-5.600770">
        <ele>329.200</ele>
        <time>2020-05-24T17:05:30Z</time>
      </trkpt>
      <trkpt lat="43.314020" lon="-5.600710">
        <ele>328.920</ele>
        <time>2020-05-24T17:05:50Z</time>
      </trkpt>
      <trkpt lat="43.314080" lon="-5.600650">
        <ele>328.908</ele>
        <time>2020-05-24T17:06:10Z</time>
      </trkpt>
      <trkpt lat="43.314100" lon="-5.600630">
        <ele>328.946</ele>
        <time>2020-05-24T17:06:30Z</time>
      </trkpt>
      <trkpt lat="43.314110" lon="-5.600620">
        <ele>328.931</ele>
        <time>2020-05-24T17:06:50Z</time>
      </trkpt>
      <trkpt lat="43.314150" lon="-5.600570">
        <ele>329.028</ele>
        <time>2020-05-24T17:07:10Z</time>
      </trkpt>
      <trkpt lat="43.314160" lon="-5.600540">
        <ele>329.544</ele>
        <time>2020-05-24T17:07:30Z</time>
      </trkpt>
      <trkpt lat="43.314180" lon="-5.600520">
        <ele>329.643</ele>
        <time>2020-05-24T17:07:50Z</time>
      </trkpt>
      <trkpt lat="43.314200" lon="-5.600480">
        <ele>330.284</ele>
        <time>2020-05-24T17:08:10Z</time>
      </trkpt>
      <trkpt lat="43.314210" lon="-5.600460">
        <ele>330.613</ele>
        <time>2020-05-24T17:08:30Z</time>
      </trkpt>
      <trkpt lat="43.314240" lon="-5.600410">
        <ele>331.416</ele>
        <time>2020-05-24T17:08:50Z</time>
      </trkpt>
      <trkpt lat="43.314270" lon="-5.600360">
        <ele>332.275</ele>
        <time>2020-05-24T17:09:10Z</time>
      </trkpt>
      <trkpt lat="43.314300" lon="-5.600330">
        <ele>332.628</ele>
        <time>2020-05-24T17:09:30Z</time>
      </trkpt>
      <trkpt lat="43.314310" lon="-5.600320">
        <ele>332.720</ele>
        <time>2020-05-24T17:09:50Z</time>
      </trkpt>
      <trkpt lat="43.314320" lon="-5.600310">
        <ele>332.908</ele>
        <time>2020-05-24T17:10:10Z</time>
      </trkpt>
      <trkpt lat="43.314330" lon="-5.600300">
        <ele>333.011</ele>
        <time>2020-05-24T17:10:30Z</time>
      </trkpt>
      <trkpt lat="43.314340" lon="-5.600290">
        <ele>333.156</ele>
        <time>2020-05-24T17:10:50Z</time>
      </trkpt>
      <trkpt lat="43.314360" lon="-5.600280">
        <ele>333.183</ele>
        <time>2020-05-24T17:11:10Z</time>
      </trkpt>
      <trkpt lat="43.314370" lon="-5.600280">
        <ele>333.049</ele>
        <time>2020-05-24T17:11:30Z</time>
      </trkpt>
      <trkpt lat="43.314390" lon="-5.600280">
        <ele>332.788</ele>
        <time>2020-05-24T17:11:50Z</time>
      </trkpt>
      <trkpt lat="43.314500" lon="-5.600280">
        <ele>332.369</ele>
        <time>2020-05-24T17:12:10Z</time>
      </trkpt>
      <trkpt lat="43.314540" lon="-5.600290">
        <ele>332.378</ele>
        <time>2020-05-24T17:12:30Z</time>
      </trkpt>
      <trkpt lat="43.314610" lon="-5.600290">
        <ele>332.751</ele>
        <time>2020-05-24T17:12:50Z</time>
      </trkpt>
      <trkpt lat="43.314640" lon="-5.600290">
        <ele>332.966</ele>
        <time>2020-05-24T17:13:10Z</time>
      </trkpt>
      <trkpt lat="43.314660" lon="-5.600290">
        <ele>333.129</ele>
        <time>2020-05-24T17:13:30Z</time>
      </trkpt>
      <trkpt lat="43.314670" lon="-5.600290">
        <ele>333.221</ele>
        <time>2020-05-24T17:13:50Z</time>
      </trkpt>
      <trkpt lat="43.314690" lon="-5.600290">
        <ele>333.308</ele>
        <time>2020-05-24T17:14:10Z</time>
      </trkpt>
      <trkpt lat="43.314700" lon="-5.600280">
        <ele>333.880</ele>
        <time>2020-05-24T17:14:30Z</time>
      </trkpt>
      <trkpt lat="43.314720" lon="-5.600280">
        <ele>333.945</ele>
        <time>2020-05-24T17:14:50Z</time>
      </trkpt>
      <trkpt lat="43.314740" lon="-5.600270">
        <ele>334.152</ele>
        <time>2020-05-24T17:15:10Z</time>
      </trkpt>
      <trkpt lat="43.314760" lon="-5.600260">
        <ele>334.288</ele>
        <time>2020-05-24T17:15:30Z</time>
      </trkpt>
      <trkpt lat="43.314810" lon="-5.600230">
        <ele>334.867</ele>
        <time>2020-05-24T17:15:50Z</time>
      </trkpt>
      <trkpt lat="43.314880" lon="-5.600190">
        <ele>335.318</ele>
        <time>2020-05-24T17:16:10Z</time>
      </trkpt>
      <trkpt lat="43.314890" lon="-5.600190">
        <ele>335.067</ele>
        <time>2020-05-24T17:16:30Z</time>
      </trkpt>
      <trkpt lat="43.314900" lon="-5.600180">
        <ele>335.320</ele>
        <time>2020-05-24T17:16:50Z</time>
      </trkpt>
      <trkpt lat="43.314920" lon="-5.600170">
        <ele>335.322</ele>
        <time>2020-05-24T17:17:10Z</time>
      </trkpt>
      <trkpt lat="43.314940" lon="-5.600160">
        <ele>335.262</ele>
        <time>2020-05-24T17:17:30Z</time>
      </trkpt>
      <trkpt lat="43.314970" lon="-5.600150">
        <ele>334.908</ele>
        <time>2020-05-24T17:17:50Z</time>
      </trkpt>
      <trkpt lat="43.315020" lon="-5.600140">
        <ele>334.308</ele>
        <time>2020-05-24T17:18:10Z</time>
      </trkpt>
      <trkpt lat="43.315040" lon="-5.600130">
        <ele>334.746</ele>
        <time>2020-05-24T17:18:30Z</time>
      </trkpt>
      <trkpt lat="43.315060" lon="-5.600130">
        <ele>334.561</ele>
        <time>2020-05-24T17:18:50Z</time>
      </trkpt>
      <trkpt lat="43.315070" lon="-5.600130">
        <ele>334.488</ele>
        <time>2020-05-24T17:19:10Z</time>
      </trkpt>
      <trkpt lat="43.315240" lon="-5.600100">
        <ele>334.114</ele>
        <time>2020-05-24T17:19:30Z</time>
      </trkpt>
      <trkpt lat="43.315500" lon="-5.600050">
        <ele>333.563</ele>
        <time>2020-05-24T17:19:50Z</time>
      </trkpt>
      <trkpt lat="43.315700" lon="-5.600040">
        <ele>334.094</ele>
        <time>2020-05-24T17:20:10Z</time>
      </trkpt>
      <trkpt lat="43.316020" lon="-5.599980">
        <ele>334.433</ele>
        <time>2020-05-24T17:20:30Z</time>
      </trkpt>
      <trkpt lat="43.316610" lon="-5.599890">
        <ele>342.186</ele>
        <time>2020-05-24T17:20:50Z</time>
      </trkpt>
      <trkpt lat="43.316790" lon="-5.599860">
        <ele>344.437</ele>
        <time>2020-05-24T17:21:10Z</time>
      </trkpt>
      <trkpt lat="43.316800" lon="-5.599860">
        <ele>344.649</ele>
        <time>2020-05-24T17:21:30Z</time>
      </trkpt>
      <trkpt lat="43.316970" lon="-5.599840">
        <ele>346.713</ele>
        <time>2020-05-24T17:21:50Z</time>
      </trkpt>
      <trkpt lat="43.317330" lon="-5.599790">
        <ele>346.008</ele>
        <time>2020-05-24T17:22:10Z</time>
      </trkpt>
      <trkpt lat="43.317690" lon="-5.599750">
        <ele>342.157</ele>
        <time>2020-05-24T17:22:30Z</time>
      </trkpt>
      <trkpt lat="43.317780" lon="-5.599740">
        <ele>341.522</ele>
        <time>2020-05-24T17:22:50Z</time>
      </trkpt>
      <trkpt lat="43.317870" lon="-5.599720">
        <ele>342.039</ele>
        <time>2020-05-24T17:23:10Z</time>
      </trkpt>
      <trkpt lat="43.318150" lon="-5.599350">
        <ele>345.715</ele>
        <time>2020-05-24T17:23:30Z</time>
      </trkpt>
      <trkpt lat="43.318180" lon="-5.599310">
        <ele>346.244</ele>
        <time>2020-05-24T17:23:50Z</time>
      </trkpt>
      <trkpt lat="43.318370" lon="-5.599070">
        <ele>347.185</ele>
        <time>2020-05-24T17:24:10Z</time>
      </trkpt>
      <trkpt lat="43.318400" lon="-5.599050">
        <ele>347.894</ele>
        <time>2020-05-24T17:24:30Z</time>
      </trkpt>
      <trkpt lat="43.318510" lon="-5.598960">
        <ele>348.997</ele>
        <time>2020-05-24T17:24:50Z</time>
      </trkpt>
      <trkpt lat="43.318610" lon="-5.598880">
        <ele>348.917</ele>
        <time>2020-05-24T17:25:10Z</time>
      </trkpt>
      <trkpt lat="43.318710" lon="-5.598780">
        <ele>351.587</ele>
        <time>2020-05-24T17:25:30Z</time>
      </trkpt>
      <trkpt lat="43.318730" lon="-5.598750">
        <ele>352.015</ele>
        <time>2020-05-24T17:25:50Z</time>
      </trkpt>
      <trkpt lat="43.318740" lon="-5.598750">
        <ele>352.408</ele>
        <time>2020-05-24T17:26:10Z</time>
      </trkpt>
      <trkpt lat="43.318740" lon="-5.598740">
        <ele>352.315</ele>
        <time>2020-05-24T17:26:30Z</time>
      </trkpt>
      <trkpt lat="43.318740" lon="-5.598730">
        <ele>352.280</ele>
        <time>2020-05-24T17:26:50Z</time>
      </trkpt>
      <trkpt lat="43.318750" lon="-5.598730">
        <ele>352.667</ele>
        <time>2020-05-24T17:27:10Z</time>
      </trkpt>
      <trkpt lat="43.318750" lon="-5.598720">
        <ele>352.593</ele>
        <time>2020-05-24T17:27:30Z</time>
      </trkpt>
      <trkpt lat="43.318750" lon="-5.598700">
        <ele>352.312</ele>
        <time>2020-05-24T17:27:50Z</time>
      </trkpt>
      <trkpt lat="43.318750" lon="-5.598690">
        <ele>352.223</ele>
        <time>2020-05-24T17:28:10Z</time>
      </trkpt>
      <trkpt lat="43.318760" lon="-5.598650">
        <ele>352.232</ele>
        <time>2020-05-24T17:28:30Z</time>
      </trkpt>
      <trkpt lat="43.318750" lon="-5.598500">
        <ele>351.135</ele>
        <time>2020-05-24T17:28:50Z</time>
      </trkpt>
      <trkpt lat="43.318750" lon="-5.598460">
        <ele>351.073</ele>
        <time>2020-05-24T17:29:10Z</time>
      </trkpt>
      <trkpt lat="43.318750" lon="-5.598420">
        <ele>350.885</ele>
        <time>2020-05-24T17:29:30Z</time>
      </trkpt>
      <trkpt lat="43.318750" lon="-5.598390">
        <ele>350.713</ele>
        <time>2020-05-24T17:29:50Z</time>
      </trkpt>
      <trkpt lat="43.318760" lon="-5.598360">
        <ele>350.908</ele>
        <time>2020-05-24T17:30:10Z</time>
      </trkpt>
      <trkpt lat="43.318770" lon="-5.598340">
        <ele>351.221</ele>
        <time>2020-05-24T17:30:30Z</time>
      </trkpt>
      <trkpt lat="43.318780" lon="-5.598310">
        <ele>350.996</ele>
        <time>2020-05-24T17:30:50Z</time>
      </trkpt>
      <trkpt lat="43.318810" lon="-5.598290">
        <ele>351.373</ele>
        <time>2020-05-24T17:31:10Z</time>
      </trkpt>
      <trkpt lat="43.318840" lon="-5.598260">
        <ele>351.399</ele>
        <time>2020-05-24T17:31:30Z</time>
      </trkpt>
      <trkpt lat="43.318920" lon="-5.598220">
        <ele>351.928</ele>
        <time>2020-05-24T17:31:50Z</time>
      </trkpt>
      <trkpt lat="43.318970" lon="-5.598210">
        <ele>352.579</ele>
        <time>2020-05-24T17:32:10Z</time>
      </trkpt>
      <trkpt lat="43.319020" lon="-5.598200">
        <ele>353.148</ele>
        <time>2020-05-24T17:32:30Z</time>
      </trkpt>
      <trkpt lat="43.319110" lon="-5.598190">
        <ele>354.331</ele>
        <time>2020-05-24T17:32:50Z</time>
      </trkpt>
      <trkpt lat="43.319150" lon="-5.598180">
        <ele>354.564</ele>
        <time>2020-05-24T17:33:10Z</time>
      </trkpt>
      <trkpt lat="43.319210" lon="-5.598170">
        <ele>354.706</ele>
        <time>2020-05-24T17:33:30Z</time>
      </trkpt>
      <trkpt lat="43.319300" lon="-5.598160">
        <ele>355.016</ele>
        <time>2020-05-24T17:33:50Z</time>
      </trkpt>
      <trkpt lat="43.319330" lon="-5.598160">
        <ele>355.308</ele>
        <time>2020-05-24T17:34:10Z</time>
      </trkpt>
      <trkpt lat="43.319510" lon="-5.598180">
        <ele>357.880</ele>
        <time>2020-05-24T17:34:30Z</time>
      </trkpt>
      <trkpt lat="43.319570" lon="-5.598180">
        <ele>358.265</ele>
        <time>2020-05-24T17:34:50Z</time>
      </trkpt>
      <trkpt lat="43.319670" lon="-5.598170">
        <ele>358.512</ele>
        <time>2020-05-24T17:35:10Z</time>
      </trkpt>
      <trkpt lat="43.319690" lon="-5.598160">
        <ele>358.388</ele>
        <time>2020-05-24T17:35:30Z</time>
      </trkpt>
      <trkpt lat="43.319750" lon="-5.598120">
        <ele>357.627</ele>
        <time>2020-05-24T17:35:50Z</time>
      </trkpt>
      <trkpt lat="43.319830" lon="-5.598060">
        <ele>357.318</ele>
        <time>2020-05-24T17:36:10Z</time>
      </trkpt>
      <trkpt lat="43.319850" lon="-5.598040">
        <ele>357.227</ele>
        <time>2020-05-24T17:36:30Z</time>
      </trkpt>
      <trkpt lat="43.319900" lon="-5.597990">
        <ele>356.980</ele>
        <time>2020-05-24T17:36:50Z</time>
      </trkpt>
      <trkpt lat="43.319980" lon="-5.597920">
        <ele>356.673</ele>
        <time>2020-05-24T17:37:10Z</time>
      </trkpt>
      <trkpt lat="43.320000" lon="-5.597910">
        <ele>356.885</ele>
        <time>2020-05-24T17:37:30Z</time>
      </trkpt>
      <trkpt lat="43.320050" lon="-5.597860">
        <ele>356.113</ele>
        <time>2020-05-24T17:37:50Z</time>
      </trkpt>
      <trkpt lat="43.320130" lon="-5.597800">
        <ele>355.308</ele>
        <time>2020-05-24T17:38:10Z</time>
      </trkpt>
      <trkpt lat="43.320160" lon="-5.597790">
        <ele>355.451</ele>
        <time>2020-05-24T17:38:30Z</time>
      </trkpt>
      <trkpt lat="43.320220" lon="-5.597750">
        <ele>355.446</ele>
        <time>2020-05-24T17:38:50Z</time>
      </trkpt>
      <trkpt lat="43.320300" lon="-5.597700">
        <ele>356.023</ele>
        <time>2020-05-24T17:39:10Z</time>
      </trkpt>
      <trkpt lat="43.320320" lon="-5.597680">
        <ele>356.179</ele>
        <time>2020-05-24T17:39:30Z</time>
      </trkpt>
      <trkpt lat="43.320380" lon="-5.597630">
        <ele>356.588</ele>
        <time>2020-05-24T17:39:50Z</time>
      </trkpt>
      <trkpt lat="43.320450" lon="-5.597540">
        <ele>355.449</ele>
        <time>2020-05-24T17:40:10Z</time>
      </trkpt>
      <trkpt lat="43.320460" lon="-5.597530">
        <ele>355.368</ele>
        <time>2020-05-24T17:40:30Z</time>
      </trkpt>
      <trkpt lat="43.320520" lon="-5.597430">
        <ele>354.161</ele>
        <time>2020-05-24T17:40:50Z</time>
      </trkpt>
      <trkpt lat="43.320550" lon="-5.597390">
        <ele>353.681</ele>
        <time>2020-05-24T17:41:10Z</time>
      </trkpt>
      <trkpt lat="43.320560" lon="-5.597360">
        <ele>353.161</ele>
        <time>2020-05-24T17:41:30Z</time>
      </trkpt>
      <trkpt lat="43.320580" lon="-5.597350">
        <ele>353.517</ele>
        <time>2020-05-24T17:41:50Z</time>
      </trkpt>
      <trkpt lat="43.320590" lon="-5.597330">
        <ele>353.408</ele>
        <time>2020-05-24T17:42:10Z</time>
      </trkpt>
      <trkpt lat="43.320610" lon="-5.597310">
        <ele>353.452</ele>
        <time>2020-05-24T17:42:30Z</time>
      </trkpt>
      <trkpt lat="43.320620" lon="-5.597300">
        <ele>353.537</ele>
        <time>2020-05-24T17:42:50Z</time>
      </trkpt>
      <trkpt lat="43.320650" lon="-5.597270">
        <ele>353.434</ele>
        <time>2020-05-24T17:43:10Z</time>
      </trkpt>
      <trkpt lat="43.320680" lon="-5.597250">
        <ele>353.670</ele>
        <time>2020-05-24T17:43:30Z</time>
      </trkpt>
      <trkpt lat="43.320770" lon="-5.597180">
        <ele>353.819</ele>
        <time>2020-05-24T17:43:50Z</time>
      </trkpt>
      <trkpt lat="43.320850" lon="-5.597180">
        <ele>354.980</ele>
        <time>2020-05-24T17:44:10Z</time>
      </trkpt>
      <trkpt lat="43.320900" lon="-5.597180">
        <ele>354.649</ele>
        <time>2020-05-24T17:44:30Z</time>
      </trkpt>
      <trkpt lat="43.320940" lon="-5.597180">
        <ele>354.442</ele>
        <time>2020-05-24T17:44:50Z</time>
      </trkpt>
      <trkpt lat="43.320950" lon="-5.597180">
        <ele>354.434</ele>
        <time>2020-05-24T17:45:10Z</time>
      </trkpt>
      <trkpt lat="43.320960" lon="-5.597180">
        <ele>354.355</ele>
        <time>2020-05-24T17:45:30Z</time>
      </trkpt>
      <trkpt lat="43.320980" lon="-5.597190">
        <ele>354.410</ele>
        <time>2020-05-24T17:45:50Z</time>
      </trkpt>
      <trkpt lat="43.320990" lon="-5.597200">
        <ele>354.508</ele>
        <time>2020-05-24T17:46:10Z</time>
      </trkpt>
      <trkpt lat="43.321010" lon="-5.597210">
        <ele>354.577</ele>
        <time>2020-05-24T17:46:30Z</time>
      </trkpt>
      <trkpt lat="43.321030" lon="-5.597210">
        <ele>354.492</ele>
        <time>2020-05-24T17:46:50Z</time>
      </trkpt>
      <trkpt lat="43.321050" lon="-5.597230">
        <ele>354.749</ele>
        <time>2020-05-24T17:47:10Z</time>
      </trkpt>
      <trkpt lat="43.321100" lon="-5.597290">
        <ele>356.175</ele>
        <time>2020-05-24T17:47:30Z</time>
      </trkpt>
      <trkpt lat="43.321110" lon="-5.597290">
        <ele>356.044</ele>
        <time>2020-05-24T17:47:50Z</time>
      </trkpt>
      <trkpt lat="43.321140" lon="-5.597340">
        <ele>357.285</ele>
        <time>2020-05-24T17:48:10Z</time>
      </trkpt>
      <trkpt lat="43.321180" lon="-5.597430">
        <ele>358.854</ele>
        <time>2020-05-24T17:48:30Z</time>
      </trkpt>
      <trkpt lat="43.321210" lon="-5.597490">
        <ele>359.337</ele>
        <time>2020-05-24T17:48:50Z</time>
      </trkpt>
      <trkpt lat="43.321230" lon="-5.597520">
        <ele>359.774</ele>
        <time>2020-05-24T17:49:10Z</time>
      </trkpt>
      <trkpt lat="43.321280" lon="-5.597620">
        <ele>361.456</ele>
        <time>2020-05-24T17:49:30Z</time>
      </trkpt>
      <trkpt lat="43.321330" lon="-5.597680">
        <ele>361.221</ele>
        <time>2020-05-24T17:49:50Z</time>
      </trkpt>
      <trkpt lat="43.321340" lon="-5.597700">
        <ele>361.308</ele>
        <time>2020-05-24T17:50:10Z</time>
      </trkpt>
      <trkpt lat="43.321410" lon="-5.597770">
        <ele>360.651</ele>
        <time>2020-05-24T17:50:30Z</time>
      </trkpt>
      <trkpt lat="43.321480" lon="-5.597820">
        <ele>362.676</ele>
        <time>2020-05-24T17:50:50Z</time>
      </trkpt>
      <trkpt lat="43.321540" lon="-5.597870">
        <ele>364.893</ele>
        <time>2020-05-24T17:51:10Z</time>
      </trkpt>
      <trkpt lat="43.321630" lon="-5.597940">
        <ele>367.859</ele>
        <time>2020-05-24T17:51:30Z</time>
      </trkpt>
      <trkpt lat="43.321740" lon="-5.598010">
        <ele>368.888</ele>
        <time>2020-05-24T17:51:50Z</time>
      </trkpt>
      <trkpt lat="43.321790" lon="-5.598060">
        <ele>369.069</ele>
        <time>2020-05-24T17:52:10Z</time>
      </trkpt>
      <trkpt lat="43.321830" lon="-5.598080">
        <ele>369.098</ele>
        <time>2020-05-24T17:52:30Z</time>
      </trkpt>
      <trkpt lat="43.321910" lon="-5.598120">
        <ele>369.271</ele>
        <time>2020-05-24T17:52:50Z</time>
      </trkpt>
      <trkpt lat="43.322000" lon="-5.598160">
        <ele>370.452</ele>
        <time>2020-05-24T17:53:10Z</time>
      </trkpt>
      <trkpt lat="43.322060" lon="-5.598190">
        <ele>371.753</ele>
        <time>2020-05-24T17:53:30Z</time>
      </trkpt>
      <trkpt lat="43.322130" lon="-5.598220">
        <ele>372.208</ele>
        <time>2020-05-24T17:53:50Z</time>
      </trkpt>
      <trkpt lat="43.322150" lon="-5.598230">
        <ele>372.308</ele>
        <time>2020-05-24T17:54:10Z</time>
      </trkpt>
      <trkpt lat="43.322220" lon="-5.598270">
        <ele>372.699</ele>
        <time>2020-05-24T17:54:30Z</time>
      </trkpt>
      <trkpt lat="43.322300" lon="-5.598320">
        <ele>373.714</ele>
        <time>2020-05-24T17:54:50Z</time>
      </trkpt>
      <trkpt lat="43.322350" lon="-5.598330">
        <ele>373.161</ele>
        <time>2020-05-24T17:55:10Z</time>
      </trkpt>
      <trkpt lat="43.322420" lon="-5.598340">
        <ele>372.137</ele>
        <time>2020-05-24T17:55:30Z</time>
      </trkpt>
      <trkpt lat="43.322580" lon="-5.598330">
        <ele>369.146</ele>
        <time>2020-05-24T17:55:50Z</time>
      </trkpt>
      <trkpt lat="43.322660" lon="-5.598340">
        <ele>368.627</ele>
        <time>2020-05-24T17:56:10Z</time>
      </trkpt>
      <trkpt lat="43.322700" lon="-5.598340">
        <ele>368.266</ele>
        <time>2020-05-24T17:56:30Z</time>
      </trkpt>
      <trkpt lat="43.322900" lon="-5.598360">
        <ele>367.869</ele>
        <time>2020-05-24T17:56:50Z</time>
      </trkpt>
      <trkpt lat="43.323010" lon="-5.598380">
        <ele>368.221</ele>
        <time>2020-05-24T17:57:10Z</time>
      </trkpt>
      <trkpt lat="43.323110" lon="-5.598400">
        <ele>369.641</ele>
        <time>2020-05-24T17:57:30Z</time>
      </trkpt>
      <trkpt lat="43.323130" lon="-5.598390">
        <ele>369.405</ele>
        <time>2020-05-24T17:57:50Z</time>
      </trkpt>
      <trkpt lat="43.323140" lon="-5.598390">
        <ele>369.508</ele>
        <time>2020-05-24T17:58:10Z</time>
      </trkpt>
      <trkpt lat="43.323150" lon="-5.598390">
        <ele>369.716</ele>
        <time>2020-05-24T17:58:30Z</time>
      </trkpt>
      <trkpt lat="43.323160" lon="-5.598380">
        <ele>369.491</ele>
        <time>2020-05-24T17:58:50Z</time>
      </trkpt>
      <trkpt lat="43.323170" lon="-5.598370">
        <ele>369.118</ele>
        <time>2020-05-24T17:59:10Z</time>
      </trkpt>
      <trkpt lat="43.323180" lon="-5.598360">
        <ele>368.974</ele>
        <time>2020-05-24T17:59:30Z</time>
      </trkpt>
      <trkpt lat="43.323180" lon="-5.598350">
        <ele>368.563</ele>
        <time>2020-05-24T17:59:50Z</time>
      </trkpt>
      <trkpt lat="43.323190" lon="-5.598350">
        <ele>368.694</ele>
        <time>2020-05-24T18:00:10Z</time>
      </trkpt>
      <trkpt lat="43.323190" lon="-5.598340">
        <ele>368.293</ele>
        <time>2020-05-24T18:00:30Z</time>
      </trkpt>
      <trkpt lat="43.323200" lon="-5.598320">
        <ele>368.296</ele>
        <time>2020-05-24T18:00:50Z</time>
      </trkpt>
      <trkpt lat="43.323210" lon="-5.598310">
        <ele>368.444</ele>
        <time>2020-05-24T18:01:10Z</time>
      </trkpt>
      <trkpt lat="43.323210" lon="-5.598300">
        <ele>368.405</ele>
        <time>2020-05-24T18:01:30Z</time>
      </trkpt>
      <trkpt lat="43.323210" lon="-5.598280">
        <ele>368.515</ele>
        <time>2020-05-24T18:01:50Z</time>
      </trkpt>
      <trkpt lat="43.323210" lon="-5.598270">
        <ele>368.608</ele>
        <time>2020-05-24T18:02:10Z</time>
      </trkpt>
      <trkpt lat="43.323220" lon="-5.598250">
        <ele>368.918</ele>
        <time>2020-05-24T18:02:30Z</time>
      </trkpt>
      <trkpt lat="43.323220" lon="-5.598230">
        <ele>369.053</ele>
        <time>2020-05-24T18:02:50Z</time>
      </trkpt>
      <trkpt lat="43.323210" lon="-5.598220">
        <ele>368.960</ele>
        <time>2020-05-24T18:03:10Z</time>
      </trkpt>
      <trkpt lat="43.323210" lon="-5.598210">
        <ele>369.076</ele>
        <time>2020-05-24T18:03:30Z</time>
      </trkpt>
      <trkpt lat="43.323210" lon="-5.598190">
        <ele>369.115</ele>
        <time>2020-05-24T18:03:50Z</time>
      </trkpt>
      <trkpt lat="43.323200" lon="-5.598170">
        <ele>369.016</ele>
        <time>2020-05-24T18:04:10Z</time>
      </trkpt>
      <trkpt lat="43.323190" lon="-5.598160">
        <ele>368.835</ele>
        <time>2020-05-24T18:04:30Z</time>
      </trkpt>
      <trkpt lat="43.323180" lon="-5.598140">
        <ele>368.778</ele>
        <time>2020-05-24T18:04:50Z</time>
      </trkpt>
      <trkpt lat="43.323160" lon="-5.598120">
        <ele>368.434</ele>
        <time>2020-05-24T18:05:10Z</time>
      </trkpt>
      <trkpt lat="43.323140" lon="-5.598090">
        <ele>368.055</ele>
        <time>2020-05-24T18:05:30Z</time>
      </trkpt>
      <trkpt lat="43.323090" lon="-5.598060">
        <ele>366.910</ele>
        <time>2020-05-24T18:05:50Z</time>
      </trkpt>
      <trkpt lat="43.322990" lon="-5.597990">
        <ele>368.308</ele>
        <time>2020-05-24T18:06:10Z</time>
      </trkpt>
      <trkpt lat="43.322930" lon="-5.597950">
        <ele>369.257</ele>
        <time>2020-05-24T18:06:30Z</time>
      </trkpt>
      <trkpt lat="43.322860" lon="-5.597920">
        <ele>369.562</ele>
        <time>2020-05-24T18:06:50Z</time>
      </trkpt>
      <trkpt lat="43.322770" lon="-5.597870">
        <ele>369.629</ele>
        <time>2020-05-24T18:07:10Z</time>
      </trkpt>
      <trkpt lat="43.322690" lon="-5.597830">
        <ele>369.965</ele>
        <time>2020-05-24T18:07:30Z</time>
      </trkpt>
      <trkpt lat="43.322590" lon="-5.597770">
        <ele>370.634</ele>
        <time>2020-05-24T18:07:50Z</time>
      </trkpt>
      <trkpt lat="43.322520" lon="-5.597720">
        <ele>372.225</ele>
        <time>2020-05-24T18:08:10Z</time>
      </trkpt>
      <trkpt lat="43.322410" lon="-5.597640">
        <ele>373.854</ele>
        <time>2020-05-24T18:08:30Z</time>
      </trkpt>
      <trkpt lat="43.322370" lon="-5.597610">
        <ele>374.487</ele>
        <time>2020-05-24T18:08:50Z</time>
      </trkpt>
      <trkpt lat="43.322250" lon="-5.597510">
        <ele>376.131</ele>
        <time>2020-05-24T18:09:10Z</time>
      </trkpt>
      <trkpt lat="43.322210" lon="-5.597480">
        <ele>376.461</ele>
        <time>2020-05-24T18:09:30Z</time>
      </trkpt>
      <trkpt lat="43.322170" lon="-5.597440">
        <ele>377.007</ele>
        <time>2020-05-24T18:09:50Z</time>
      </trkpt>
      <trkpt lat="43.322110" lon="-5.597380">
        <ele>377.508</ele>
        <time>2020-05-24T18:10:10Z</time>
      </trkpt>
      <trkpt lat="43.322070" lon="-5.597330">
        <ele>378.287</ele>
        <time>2020-05-24T18:10:30Z</time>
      </trkpt>
      <trkpt lat="43.321990" lon="-5.597220">
        <ele>379.492</ele>
        <time>2020-05-24T18:10:50Z</time>
      </trkpt>
      <trkpt lat="43.321950" lon="-5.597150">
        <ele>380.239</ele>
        <time>2020-05-24T18:11:10Z</time>
      </trkpt>
      <trkpt lat="43.321930" lon="-5.597120">
        <ele>380.485</ele>
        <time>2020-05-24T18:11:30Z</time>
      </trkpt>
      <trkpt lat="43.321830" lon="-5.596960">
        <ele>381.434</ele>
        <time>2020-05-24T18:11:50Z</time>
      </trkpt>
      <trkpt lat="43.321820" lon="-5.596930">
        <ele>381.935</ele>
        <time>2020-05-24T18:12:10Z</time>
      </trkpt>
      <trkpt lat="43.321770" lon="-5.596810">
        <ele>382.834</ele>
        <time>2020-05-24T18:12:30Z</time>
      </trkpt>
      <trkpt lat="43.321750" lon="-5.596780">
        <ele>382.797</ele>
        <time>2020-05-24T18:12:50Z</time>
      </trkpt>
      <trkpt lat="43.321740" lon="-5.596750">
        <ele>383.069</ele>
        <time>2020-05-24T18:13:10Z</time>
      </trkpt>
      <trkpt lat="43.321720" lon="-5.596700">
        <ele>383.404</ele>
        <time>2020-05-24T18:13:30Z</time>
      </trkpt>
      <trkpt lat="43.321710" lon="-5.596660">
        <ele>383.824</ele>
        <time>2020-05-24T18:13:50Z</time>
      </trkpt>
      <trkpt lat="43.321710" lon="-5.596640">
        <ele>383.908</ele>
        <time>2020-05-24T18:14:10Z</time>
      </trkpt>
      <trkpt lat="43.321710" lon="-5.596620">
        <ele>384.180</ele>
        <time>2020-05-24T18:14:30Z</time>
      </trkpt>
      <trkpt lat="43.321710" lon="-5.596610">
        <ele>384.195</ele>
        <time>2020-05-24T18:14:50Z</time>
      </trkpt>
      <trkpt lat="43.321710" lon="-5.596600">
        <ele>384.282</ele>
        <time>2020-05-24T18:15:10Z</time>
      </trkpt>
      <trkpt lat="43.321710" lon="-5.596580">
        <ele>384.348</ele>
        <time>2020-05-24T18:15:30Z</time>
      </trkpt>
      <trkpt lat="43.321710" lon="-5.596560">
        <ele>384.537</ele>
        <time>2020-05-24T18:15:50Z</time>
      </trkpt>
      <trkpt lat="43.321710" lon="-5.596540">
        <ele>384.658</ele>
        <time>2020-05-24T18:16:10Z</time>
      </trkpt>
      <trkpt lat="43.321710" lon="-5.596520">
        <ele>384.897</ele>
        <time>2020-05-24T18:16:30Z</time>
      </trkpt>
      <trkpt lat="43.321750" lon="-5.596410">
        <ele>387.130</ele>
        <time>2020-05-24T18:16:50Z</time>
      </trkpt>
      <trkpt lat="43.321770" lon="-5.596360">
        <ele>387.915</ele>
        <time>2020-05-24T18:17:10Z</time>
      </trkpt>
      <trkpt lat="43.321800" lon="-5.596300">
        <ele>388.865</ele>
        <time>2020-05-24T18:17:30Z</time>
      </trkpt>
      <trkpt lat="43.321810" lon="-5.596280">
        <ele>389.111</ele>
        <time>2020-05-24T18:17:50Z</time>
      </trkpt>
      <trkpt lat="43.321820" lon="-5.596250">
        <ele>389.408</ele>
        <time>2020-05-24T18:18:10Z</time>
      </trkpt>
      <trkpt lat="43.321830" lon="-5.596230">
        <ele>389.845</ele>
        <time>2020-05-24T18:18:30Z</time>
      </trkpt>
      <trkpt lat="43.321840" lon="-5.596200">
        <ele>390.170</ele>
        <time>2020-05-24T18:18:50Z</time>
      </trkpt>
      <trkpt lat="43.321840" lon="-5.596160">
        <ele>389.977</ele>
        <time>2020-05-24T18:19:10Z</time>
      </trkpt>
      <trkpt lat="43.321850" lon="-5.596130">
        <ele>390.313</ele>
        <time>2020-05-24T18:19:30Z</time>
      </trkpt>
      <trkpt lat="43.321860" lon="-5.596080">
        <ele>390.932</ele>
        <time>2020-05-24T18:19:50Z</time>
      </trkpt>
      <trkpt lat="43.321860" lon="-5.596070">
        <ele>390.983</ele>
        <time>2020-05-24T18:20:10Z</time>
      </trkpt>
      <trkpt lat="43.321860" lon="-5.596030">
        <ele>391.122</ele>
        <time>2020-05-24T18:20:30Z</time>
      </trkpt>
      <trkpt lat="43.321860" lon="-5.595980">
        <ele>391.325</ele>
        <time>2020-05-24T18:20:50Z</time>
      </trkpt>
      <trkpt lat="43.321860" lon="-5.595860">
        <ele>391.744</ele>
        <time>2020-05-24T18:21:10Z</time>
      </trkpt>
      <trkpt lat="43.321860" lon="-5.595820">
        <ele>391.905</ele>
        <time>2020-05-24T18:21:30Z</time>
      </trkpt>
      <trkpt lat="43.321860" lon="-5.595760">
        <ele>392.115</ele>
        <time>2020-05-24T18:21:50Z</time>
      </trkpt>
      <trkpt lat="43.321860" lon="-5.595650">
        <ele>392.408</ele>
        <time>2020-05-24T18:22:10Z</time>
      </trkpt>
      <trkpt lat="43.321870" lon="-5.595490">
        <ele>393.568</ele>
        <time>2020-05-24T18:22:30Z</time>
      </trkpt>
      <trkpt lat="43.321880" lon="-5.595420">
        <ele>394.263</ele>
        <time>2020-05-24T18:22:50Z</time>
      </trkpt>
      <trkpt lat="43.321880" lon="-5.595360">
        <ele>394.480</ele>
        <time>2020-05-24T18:23:10Z</time>
      </trkpt>
      <trkpt lat="43.321880" lon="-5.595330">
        <ele>394.586</ele>
        <time>2020-05-24T18:23:30Z</time>
      </trkpt>
      <trkpt lat="43.321880" lon="-5.595320">
        <ele>394.535</ele>
        <time>2020-05-24T18:23:50Z</time>
      </trkpt>
      <trkpt lat="43.321870" lon="-5.595300">
        <ele>394.276</ele>
        <time>2020-05-24T18:24:10Z</time>
      </trkpt>
      <trkpt lat="43.321840" lon="-5.595140">
        <ele>395.525</ele>
        <time>2020-05-24T18:24:30Z</time>
      </trkpt>
      <trkpt lat="43.321820" lon="-5.595100">
        <ele>395.488</ele>
        <time>2020-05-24T18:24:50Z</time>
      </trkpt>
      <trkpt lat="43.321760" lon="-5.594890">
        <ele>397.279</ele>
        <time>2020-05-24T18:25:10Z</time>
      </trkpt>
      <trkpt lat="43.321740" lon="-5.594830">
        <ele>397.705</ele>
        <time>2020-05-24T18:25:30Z</time>
      </trkpt>
      <trkpt lat="43.321720" lon="-5.594770">
        <ele>398.225</ele>
        <time>2020-05-24T18:25:50Z</time>
      </trkpt>
      <trkpt lat="43.321710" lon="-5.594700">
        <ele>398.908</ele>
        <time>2020-05-24T18:26:10Z</time>
      </trkpt>
      <trkpt lat="43.321710" lon="-5.594680">
        <ele>399.071</ele>
        <time>2020-05-24T18:26:30Z</time>
      </trkpt>
      <trkpt lat="43.321710" lon="-5.594660">
        <ele>399.036</ele>
        <time>2020-05-24T18:26:50Z</time>
      </trkpt>
      <trkpt lat="43.321710" lon="-5.594640">
        <ele>399.193</ele>
        <time>2020-05-24T18:27:10Z</time>
      </trkpt>
      <trkpt lat="43.321710" lon="-5.594630">
        <ele>399.159</ele>
        <time>2020-05-24T18:27:30Z</time>
      </trkpt>
      <trkpt lat="43.321710" lon="-5.594620">
        <ele>399.148</ele>
        <time>2020-05-24T18:27:50Z</time>
      </trkpt>
      <trkpt lat="43.321710" lon="-5.594610">
        <ele>399.129</ele>
        <time>2020-05-24T18:28:10Z</time>
      </trkpt>
      <trkpt lat="43.321710" lon="-5.594600">
        <ele>399.118</ele>
        <time>2020-05-24T18:28:30Z</time>
      </trkpt>
      <trkpt lat="43.321710" lon="-5.594580">
        <ele>399.291</ele>
        <time>2020-05-24T18:28:50Z</time>
      </trkpt>
      <trkpt lat="43.321720" lon="-5.594560">
        <ele>399.825</ele>
        <time>2020-05-24T18:29:10Z</time>
      </trkpt>
      <trkpt lat="43.321750" lon="-5.594450">
        <ele>401.826</ele>
        <time>2020-05-24T18:29:30Z</time>
      </trkpt>
      <trkpt lat="43.321780" lon="-5.594290">
        <ele>403.808</ele>
        <time>2020-05-24T18:29:50Z</time>
      </trkpt>
      <trkpt lat="43.321790" lon="-5.594150">
        <ele>404.608</ele>
        <time>2020-05-24T18:30:10Z</time>
      </trkpt>
      <trkpt lat="43.321790" lon="-5.594140">
        <ele>404.766</ele>
        <time>2020-05-24T18:30:30Z</time>
      </trkpt>
      <trkpt lat="43.321800" lon="-5.593940">
        <ele>406.481</ele>
        <time>2020-05-24T18:30:50Z</time>
      </trkpt>
      <trkpt lat="43.321800" lon="-5.593900">
        <ele>406.728</ele>
        <time>2020-05-24T18:31:10Z</time>
      </trkpt>
      <trkpt lat="43.321800" lon="-5.593830">
        <ele>406.454</ele>
        <time>2020-05-24T18:31:30Z</time>
      </trkpt>
      <trkpt lat="43.321810" lon="-5.593770">
        <ele>406.693</ele>
        <time>2020-05-24T18:31:50Z</time>
      </trkpt>
      <trkpt lat="43.321820" lon="-5.593730">
        <ele>406.824</ele>
        <time>2020-05-24T18:32:10Z</time>
      </trkpt>
      <trkpt lat="43.321830" lon="-5.593690">
        <ele>407.163</ele>
        <time>2020-05-24T18:32:30Z</time>
      </trkpt>
      <trkpt lat="43.321840" lon="-5.593670">
        <ele>407.586</ele>
        <time>2020-05-24T18:32:50Z</time>
      </trkpt>
      <trkpt lat="43.321850" lon="-5.593660">
        <ele>407.938</ele>
        <time>2020-05-24T18:33:10Z</time>
      </trkpt>
      <trkpt lat="43.321860" lon="-5.593640">
        <ele>408.270</ele>
        <time>2020-05-24T18:33:30Z</time>
      </trkpt>
      <trkpt lat="43.321870" lon="-5.593620">
        <ele>408.617</ele>
        <time>2020-05-24T18:33:50Z</time>
      </trkpt>
      <trkpt lat="43.321880" lon="-5.593600">
        <ele>408.808</ele>
        <time>2020-05-24T18:34:10Z</time>
      </trkpt>
      <trkpt lat="43.321900" lon="-5.593580">
        <ele>409.347</ele>
        <time>2020-05-24T18:34:30Z</time>
      </trkpt>
      <trkpt lat="43.321920" lon="-5.593560">
        <ele>409.832</ele>
        <time>2020-05-24T18:34:50Z</time>
      </trkpt>
      <trkpt lat="43.321970" lon="-5.593520">
        <ele>410.979</ele>
        <time>2020-05-24T18:35:10Z</time>
      </trkpt>
      <trkpt lat="43.321980" lon="-5.593510">
        <ele>411.075</ele>
        <time>2020-05-24T18:35:30Z</time>
      </trkpt>
      <trkpt lat="43.322000" lon="-5.593500">
        <ele>411.454</ele>
        <time>2020-05-24T18:35:50Z</time>
      </trkpt>
      <trkpt lat="43.322030" lon="-5.593490">
        <ele>412.215</ele>
        <time>2020-05-24T18:36:10Z</time>
      </trkpt>
      <trkpt lat="43.322130" lon="-5.593440">
        <ele>414.284</ele>
        <time>2020-05-24T18:36:30Z</time>
      </trkpt>
      <trkpt lat="43.322150" lon="-5.593430">
        <ele>414.547</ele>
        <time>2020-05-24T18:36:50Z</time>
      </trkpt>
      <trkpt lat="43.322160" lon="-5.593420">
        <ele>414.663</ele>
        <time>2020-05-24T18:37:10Z</time>
      </trkpt>
      <trkpt lat="43.322200" lon="-5.593390">
        <ele>415.044</ele>
        <time>2020-05-24T18:37:30Z</time>
      </trkpt>
      <trkpt lat="43.322240" lon="-5.593350">
        <ele>415.118</ele>
        <time>2020-05-24T18:37:50Z</time>
      </trkpt>
      <trkpt lat="43.322260" lon="-5.593300">
        <ele>415.108</ele>
        <time>2020-05-24T18:38:10Z</time>
      </trkpt>
      <trkpt lat="43.322290" lon="-5.593240">
        <ele>415.630</ele>
        <time>2020-05-24T18:38:30Z</time>
      </trkpt>
      <trkpt lat="43.322330" lon="-5.593170">
        <ele>416.255</ele>
        <time>2020-05-24T18:38:50Z</time>
      </trkpt>
      <trkpt lat="43.322380" lon="-5.593000">
        <ele>416.652</ele>
        <time>2020-05-24T18:39:10Z</time>
      </trkpt>
      <trkpt lat="43.322380" lon="-5.592990">
        <ele>416.678</ele>
        <time>2020-05-24T18:39:30Z</time>
      </trkpt>
      <trkpt lat="43.322420" lon="-5.592940">
        <ele>417.897</ele>
        <time>2020-05-24T18:39:50Z</time>
      </trkpt>
      <trkpt lat="43.322430" lon="-5.592910">
        <ele>418.148</ele>
        <time>2020-05-24T18:40:10Z</time>
      </trkpt>
      <trkpt lat="43.322440" lon="-5.592880">
        <ele>418.417</ele>
        <time>2020-05-24T18:40:30Z</time>
      </trkpt>
      <trkpt lat="43.322450" lon="-5.592860">
        <ele>418.720</ele>
        <time>2020-05-24T18:40:50Z</time>
      </trkpt>
      <trkpt lat="43.322450" lon="-5.592830">
        <ele>418.793</ele>
        <time>2020-05-24T18:41:10Z</time>
      </trkpt>
      <trkpt lat="43.322460" lon="-5.592810">
        <ele>419.065</ele>
        <time>2020-05-24T18:41:30Z</time>
      </trkpt>
      <trkpt lat="43.322460" lon="-5.592790">
        <ele>419.021</ele>
        <time>2020-05-24T18:41:50Z</time>
      </trkpt>
      <trkpt lat="43.322460" lon="-5.592780">
        <ele>419.008</ele>
        <time>2020-05-24T18:42:10Z</time>
      </trkpt>
      <trkpt lat="43.322460" lon="-5.592760">
        <ele>419.433</ele>
        <time>2020-05-24T18:42:30Z</time>
      </trkpt>
      <trkpt lat="43.322450" lon="-5.592730">
        <ele>419.998</ele>
        <time>2020-05-24T18:42:50Z</time>
      </trkpt>
      <trkpt lat="43.322450" lon="-5.592710">
        <ele>420.325</ele>
        <time>2020-05-24T18:43:10Z</time>
      </trkpt>
      <trkpt lat="43.322440" lon="-5.592700">
        <ele>420.331</ele>
        <time>2020-05-24T18:43:30Z</time>
      </trkpt>
      <trkpt lat="43.322440" lon="-5.592680">
        <ele>420.710</ele>
        <time>2020-05-24T18:43:50Z</time>
      </trkpt>
      <trkpt lat="43.322430" lon="-5.592670">
        <ele>420.791</ele>
        <time>2020-05-24T18:44:10Z</time>
      </trkpt>
      <trkpt lat="43.322360" lon="-5.592580">
        <ele>420.430</ele>
        <time>2020-05-24T18:44:30Z</time>
      </trkpt>
      <trkpt lat="43.322230" lon="-5.592410">
        <ele>419.973</ele>
        <time>2020-05-24T18:44:50Z</time>
      </trkpt>
      <trkpt lat="43.322100" lon="-5.592230">
        <ele>421.322</ele>
        <time>2020-05-24T18:45:10Z</time>
      </trkpt>
      <trkpt lat="43.322090" lon="-5.592220">
        <ele>421.262</ele>
        <time>2020-05-24T18:45:30Z</time>
      </trkpt>
      <trkpt lat="43.322030" lon="-5.592140">
        <ele>420.708</ele>
        <time>2020-05-24T18:45:50Z</time>
      </trkpt>
      <trkpt lat="43.322000" lon="-5.592070">
        <ele>420.708</ele>
        <time>2020-05-24T18:46:10Z</time>
      </trkpt>
      <trkpt lat="43.321990" lon="-5.592040">
        <ele>420.756</ele>
        <time>2020-05-24T18:46:30Z</time>
      </trkpt>
      <trkpt lat="43.321980" lon="-5.592010">
        <ele>420.771</ele>
        <time>2020-05-24T18:46:50Z</time>
      </trkpt>
      <trkpt lat="43.321970" lon="-5.591960">
        <ele>420.938</ele>
        <time>2020-05-24T18:47:10Z</time>
      </trkpt>
      <trkpt lat="43.321950" lon="-5.591900">
        <ele>421.764</ele>
        <time>2020-05-24T18:47:30Z</time>
      </trkpt>
      <trkpt lat="43.321940" lon="-5.591830">
        <ele>423.553</ele>
        <time>2020-05-24T18:47:50Z</time>
      </trkpt>
      <trkpt lat="43.321920" lon="-5.591740">
        <ele>425.444</ele>
        <time>2020-05-24T18:48:10Z</time>
      </trkpt>
      <trkpt lat="43.321910" lon="-5.591650">
        <ele>427.553</ele>
        <time>2020-05-24T18:48:30Z</time>
      </trkpt>
      <trkpt lat="43.321900" lon="-5.591580">
        <ele>428.086</ele>
        <time>2020-05-24T18:48:50Z</time>
      </trkpt>
      <trkpt lat="43.321900" lon="-5.591570">
        <ele>428.239</ele>
        <time>2020-05-24T18:49:10Z</time>
      </trkpt>
      <trkpt lat="43.321890" lon="-5.591520">
        <ele>428.401</ele>
        <time>2020-05-24T18:49:30Z</time>
      </trkpt>
      <trkpt lat="43.321890" lon="-5.591460">
        <ele>429.221</ele>
        <time>2020-05-24T18:49:50Z</time>
      </trkpt>
      <trkpt lat="43.321880" lon="-5.591390">
        <ele>429.708</ele>
        <time>2020-05-24T18:50:10Z</time>
      </trkpt>
      <trkpt lat="43.321890" lon="-5.591330">
        <ele>430.357</ele>
        <time>2020-05-24T18:50:30Z</time>
      </trkpt>
      <trkpt lat="43.321890" lon="-5.591270">
        <ele>430.332</ele>
        <time>2020-05-24T18:50:50Z</time>
      </trkpt>
      <trkpt lat="43.321910" lon="-5.591190">
        <ele>431.389</ele>
        <time>2020-05-24T18:51:10Z</time>
      </trkpt>
      <trkpt lat="43.321930" lon="-5.591130">
        <ele>432.365</ele>
        <time>2020-05-24T18:51:30Z</time>
      </trkpt>
      <trkpt lat="43.321960" lon="-5.591080">
        <ele>433.024</ele>
        <time>2020-05-24T18:51:50Z</time>
      </trkpt>
      <trkpt lat="43.321990" lon="-5.591040">
        <ele>433.545</ele>
        <time>2020-05-24T18:52:10Z</time>
      </trkpt>
      <trkpt lat="43.322230" lon="-5.590790">
        <ele>438.414</ele>
        <time>2020-05-24T18:52:30Z</time>
      </trkpt>
      <trkpt lat="43.322310" lon="-5.590710">
        <ele>440.247</ele>
        <time>2020-05-24T18:52:50Z</time>
      </trkpt>
      <trkpt lat="43.322360" lon="-5.590660">
        <ele>441.016</ele>
        <time>2020-05-24T18:53:10Z</time>
      </trkpt>
      <trkpt lat="43.322380" lon="-5.590640">
        <ele>441.276</ele>
        <time>2020-05-24T18:53:30Z</time>
      </trkpt>
      <trkpt lat="43.322390" lon="-5.590630">
        <ele>441.313</ele>
        <time>2020-05-24T18:53:50Z</time>
      </trkpt>
      <trkpt lat="43.322410" lon="-5.590610">
        <ele>441.508</ele>
        <time>2020-05-24T18:54:10Z</time>
      </trkpt>
      <trkpt lat="43.322410" lon="-5.590590">
        <ele>440.835</ele>
        <time>2020-05-24T18:54:30Z</time>
      </trkpt>
      <trkpt lat="43.322420" lon="-5.590570">
        <ele>440.670</ele>
        <time>2020-05-24T18:54:50Z</time>
      </trkpt>
      <trkpt lat="43.322430" lon="-5.590560">
        <ele>440.677</ele>
        <time>2020-05-24T18:55:10Z</time>
      </trkpt>
      <trkpt lat="43.322430" lon="-5.590540">
        <ele>440.613</ele>
        <time>2020-05-24T18:55:30Z</time>
      </trkpt>
      <trkpt lat="43.322430" lon="-5.590520">
        <ele>440.962</ele>
        <time>2020-05-24T18:55:50Z</time>
      </trkpt>
      <trkpt lat="43.322430" lon="-5.590480">
        <ele>441.313</ele>
        <time>2020-05-24T18:56:10Z</time>
      </trkpt>
      <trkpt lat="43.322420" lon="-5.590420">
        <ele>441.652</ele>
        <time>2020-05-24T18:56:30Z</time>
      </trkpt>
      <trkpt lat="43.322410" lon="-5.590350">
        <ele>442.045</ele>
        <time>2020-05-24T18:56:50Z</time>
      </trkpt>
      <trkpt lat="43.322400" lon="-5.590310">
        <ele>442.149</ele>
        <time>2020-05-24T18:57:10Z</time>
      </trkpt>
      <trkpt lat="43.322400" lon="-5.590270">
        <ele>442.502</ele>
        <time>2020-05-24T18:57:30Z</time>
      </trkpt>
      <trkpt lat="43.322390" lon="-5.590190">
        <ele>443.422</ele>
        <time>2020-05-24T18:57:50Z</time>
      </trkpt>
      <trkpt lat="43.322390" lon="-5.590120">
        <ele>444.408</ele>
        <time>2020-05-24T18:58:10Z</time>
      </trkpt>
      <trkpt lat="43.322400" lon="-5.590050">
        <ele>445.998</ele>
        <time>2020-05-24T18:58:30Z</time>
      </trkpt>
      <trkpt lat="43.322410" lon="-5.589930">
        <ele>447.993</ele>
        <time>2020-05-24T18:58:50Z</time>
      </trkpt>
      <trkpt lat="43.322410" lon="-5.589910">
        <ele>448.230</ele>
        <time>2020-05-24T18:59:10Z</time>
      </trkpt>
      <trkpt lat="43.322410" lon="-5.589860">
        <ele>448.816</ele>
        <time>2020-05-24T18:59:30Z</time>
      </trkpt>
      <trkpt lat="43.322420" lon="-5.589830">
        <ele>449.535</ele>
        <time>2020-05-24T18:59:50Z</time>
      </trkpt>
      <trkpt lat="43.322410" lon="-5.589820">
        <ele>449.296</ele>
        <time>2020-05-24T19:00:10Z</time>
      </trkpt>
      <trkpt lat="43.322410" lon="-5.589800">
        <ele>449.545</ele>
        <time>2020-05-24T19:00:30Z</time>
      </trkpt>
      <trkpt lat="43.322410" lon="-5.589790">
        <ele>449.618</ele>
        <time>2020-05-24T19:00:50Z</time>
      </trkpt>
      <trkpt lat="43.322400" lon="-5.589780">
        <ele>449.418</ele>
        <time>2020-05-24T19:01:10Z</time>
      </trkpt>
      <trkpt lat="43.322400" lon="-5.589770">
        <ele>449.598</ele>
        <time>2020-05-24T19:01:30Z</time>
      </trkpt>
      <trkpt lat="43.322370" lon="-5.589730">
        <ele>449.117</ele>
        <time>2020-05-24T19:01:50Z</time>
      </trkpt>
      <trkpt lat="43.322360" lon="-5.589720">
        <ele>449.008</ele>
        <time>2020-05-24T19:02:10Z</time>
      </trkpt>
      <trkpt lat="43.322250" lon="-5.589630">
        <ele>448.455</ele>
        <time>2020-05-24T19:02:30Z</time>
      </trkpt>
      <trkpt lat="43.322240" lon="-5.589620">
        <ele>448.460</ele>
        <time>2020-05-24T19:02:50Z</time>
      </trkpt>
      <trkpt lat="43.322220" lon="-5.589610">
        <ele>448.287</ele>
        <time>2020-05-24T19:03:10Z</time>
      </trkpt>
      <trkpt lat="43.322200" lon="-5.589590">
        <ele>448.843</ele>
        <time>2020-05-24T19:03:30Z</time>
      </trkpt>
      <trkpt lat="43.322200" lon="-5.589580">
        <ele>449.112</ele>
        <time>2020-05-24T19:03:50Z</time>
      </trkpt>
      <trkpt lat="43.322190" lon="-5.589560">
        <ele>449.673</ele>
        <time>2020-05-24T19:04:10Z</time>
      </trkpt>
      <trkpt lat="43.322150" lon="-5.589500">
        <ele>451.362</ele>
        <time>2020-05-24T19:04:30Z</time>
      </trkpt>
      <trkpt lat="43.322120" lon="-5.589480">
        <ele>451.945</ele>
        <time>2020-05-24T19:04:50Z</time>
      </trkpt>
      <trkpt lat="43.322110" lon="-5.589470">
        <ele>452.223</ele>
        <time>2020-05-24T19:05:10Z</time>
      </trkpt>
      <trkpt lat="43.322100" lon="-5.589460">
        <ele>452.583</ele>
        <time>2020-05-24T19:05:30Z</time>
      </trkpt>
      <trkpt lat="43.322080" lon="-5.589450">
        <ele>452.811</ele>
        <time>2020-05-24T19:05:50Z</time>
      </trkpt>
      <trkpt lat="43.322070" lon="-5.589440">
        <ele>453.208</ele>
        <time>2020-05-24T19:06:10Z</time>
      </trkpt>
      <trkpt lat="43.322060" lon="-5.589440">
        <ele>453.256</ele>
        <time>2020-05-24T19:06:30Z</time>
      </trkpt>
      <trkpt lat="43.322040" lon="-5.589440">
        <ele>453.281</ele>
        <time>2020-05-24T19:06:50Z</time>
      </trkpt>
      <trkpt lat="43.321900" lon="-5.589460">
        <ele>452.788</ele>
        <time>2020-05-24T19:07:10Z</time>
      </trkpt>
      <trkpt lat="43.321860" lon="-5.589460">
        <ele>452.884</ele>
        <time>2020-05-24T19:07:30Z</time>
      </trkpt>
      <trkpt lat="43.321760" lon="-5.589430">
        <ele>454.073</ele>
        <time>2020-05-24T19:07:50Z</time>
      </trkpt>
      <trkpt lat="43.321720" lon="-5.589400">
        <ele>454.634</ele>
        <time>2020-05-24T19:08:10Z</time>
      </trkpt>
      <trkpt lat="43.321720" lon="-5.589390">
        <ele>454.893</ele>
        <time>2020-05-24T19:08:30Z</time>
      </trkpt>
      <trkpt lat="43.321690" lon="-5.589360">
        <ele>455.386</ele>
        <time>2020-05-24T19:08:50Z</time>
      </trkpt>
      <trkpt lat="43.321670" lon="-5.589300">
        <ele>456.157</ele>
        <time>2020-05-24T19:09:10Z</time>
      </trkpt>
      <trkpt lat="43.321650" lon="-5.589240">
        <ele>456.200</ele>
        <time>2020-05-24T19:09:30Z</time>
      </trkpt>
      <trkpt lat="43.321640" lon="-5.589180">
        <ele>456.620</ele>
        <time>2020-05-24T19:09:50Z</time>
      </trkpt>
      <trkpt lat="43.321640" lon="-5.589170">
        <ele>456.708</ele>
        <time>2020-05-24T19:10:10Z</time>
      </trkpt>
      <trkpt lat="43.321630" lon="-5.589110">
        <ele>457.029</ele>
        <time>2020-05-24T19:10:30Z</time>
      </trkpt>
      <trkpt lat="43.321620" lon="-5.588960">
        <ele>458.574</ele>
        <time>2020-05-24T19:10:50Z</time>
      </trkpt>
      <trkpt lat="43.321620" lon="-5.588930">
        <ele>458.971</ele>
        <time>2020-05-24T19:11:10Z</time>
      </trkpt>
      <trkpt lat="43.321610" lon="-5.588850">
        <ele>459.297</ele>
        <time>2020-05-24T19:11:30Z</time>
      </trkpt>
      <trkpt lat="43.321620" lon="-5.588720">
        <ele>460.686</ele>
        <time>2020-05-24T19:11:50Z</time>
      </trkpt>
      <trkpt lat="43.321620" lon="-5.588680">
        <ele>460.937</ele>
        <time>2020-05-24T19:12:10Z</time>
      </trkpt>
      <trkpt lat="43.321630" lon="-5.588580">
        <ele>461.966</ele>
        <time>2020-05-24T19:12:30Z</time>
      </trkpt>
      <trkpt lat="43.321640" lon="-5.588460">
        <ele>462.649</ele>
        <time>2020-05-24T19:12:50Z</time>
      </trkpt>
      <trkpt lat="43.321660" lon="-5.588330">
        <ele>463.714</ele>
        <time>2020-05-24T19:13:10Z</time>
      </trkpt>
      <trkpt lat="43.321680" lon="-5.588210">
        <ele>464.554</ele>
        <time>2020-05-24T19:13:30Z</time>
      </trkpt>
      <trkpt lat="43.321730" lon="-5.587970">
        <ele>466.209</ele>
        <time>2020-05-24T19:13:50Z</time>
      </trkpt>
      <trkpt lat="43.321750" lon="-5.587870">
        <ele>466.808</ele>
        <time>2020-05-24T19:14:10Z</time>
      </trkpt>
      <trkpt lat="43.321760" lon="-5.587760">
        <ele>467.255</ele>
        <time>2020-05-24T19:14:30Z</time>
      </trkpt>
      <trkpt lat="43.321760" lon="-5.587710">
        <ele>467.660</ele>
        <time>2020-05-24T19:14:50Z</time>
      </trkpt>
      <trkpt lat="43.321760" lon="-5.587630">
        <ele>468.317</ele>
        <time>2020-05-24T19:15:10Z</time>
      </trkpt>
      <trkpt lat="43.321750" lon="-5.587520">
        <ele>468.833</ele>
        <time>2020-05-24T19:15:30Z</time>
      </trkpt>
      <trkpt lat="43.321730" lon="-5.587240">
        <ele>471.182</ele>
        <time>2020-05-24T19:15:50Z</time>
      </trkpt>
      <trkpt lat="43.321740" lon="-5.587220">
        <ele>471.683</ele>
        <time>2020-05-24T19:16:10Z</time>
      </trkpt>
      <trkpt lat="43.321740" lon="-5.587140">
        <ele>471.942</ele>
        <time>2020-05-24T19:16:30Z</time>
      </trkpt>
      <trkpt lat="43.321750" lon="-5.587080">
        <ele>472.495</ele>
        <time>2020-05-24T19:16:50Z</time>
      </trkpt>
      <trkpt lat="43.321780" lon="-5.586970">
        <ele>473.632</ele>
        <time>2020-05-24T19:17:10Z</time>
      </trkpt>
      <trkpt lat="43.321810" lon="-5.586890">
        <ele>474.492</ele>
        <time>2020-05-24T19:17:30Z</time>
      </trkpt>
      <trkpt lat="43.321830" lon="-5.586840">
        <ele>474.911</ele>
        <time>2020-05-24T19:17:50Z</time>
      </trkpt>
      <trkpt lat="43.321850" lon="-5.586790">
        <ele>475.408</ele>
        <time>2020-05-24T19:18:10Z</time>
      </trkpt>
      <trkpt lat="43.321920" lon="-5.586620">
        <ele>477.227</ele>
        <time>2020-05-24T19:18:30Z</time>
      </trkpt>
      <trkpt lat="43.321940" lon="-5.586530">
        <ele>477.912</ele>
        <time>2020-05-24T19:18:50Z</time>
      </trkpt>
      <trkpt lat="43.321950" lon="-5.586420">
        <ele>478.359</ele>
        <time>2020-05-24T19:19:10Z</time>
      </trkpt>
      <trkpt lat="43.321950" lon="-5.586380">
        <ele>478.495</ele>
        <time>2020-05-24T19:19:30Z</time>
      </trkpt>
      <trkpt lat="43.321950" lon="-5.586340">
        <ele>478.884</ele>
        <time>2020-05-24T19:19:50Z</time>
      </trkpt>
      <trkpt lat="43.321950" lon="-5.586200">
        <ele>480.355</ele>
        <time>2020-05-24T19:20:10Z</time>
      </trkpt>
      <trkpt lat="43.321940" lon="-5.586140">
        <ele>480.664</ele>
        <time>2020-05-24T19:20:30Z</time>
      </trkpt>
      <trkpt lat="43.321920" lon="-5.586040">
        <ele>481.647</ele>
        <time>2020-05-24T19:20:50Z</time>
      </trkpt>
      <trkpt lat="43.321870" lon="-5.585910">
        <ele>482.948</ele>
        <time>2020-05-24T19:21:10Z</time>
      </trkpt>
      <trkpt lat="43.321810" lon="-5.585780">
        <ele>484.561</ele>
        <time>2020-05-24T19:21:30Z</time>
      </trkpt>
      <trkpt lat="43.321770" lon="-5.585710">
        <ele>485.417</ele>
        <time>2020-05-24T19:21:50Z</time>
      </trkpt>
      <trkpt lat="43.321760" lon="-5.585710">
        <ele>485.108</ele>
        <time>2020-05-24T19:22:10Z</time>
      </trkpt>
      <trkpt lat="43.321630" lon="-5.585550">
        <ele>485.858</ele>
        <time>2020-05-24T19:22:30Z</time>
      </trkpt>
      <trkpt lat="43.321620" lon="-5.585540">
        <ele>486.173</ele>
        <time>2020-05-24T19:22:50Z</time>
      </trkpt>
      <trkpt lat="43.321520" lon="-5.585430">
        <ele>489.170</ele>
        <time>2020-05-24T19:23:10Z</time>
      </trkpt>
      <trkpt lat="43.321480" lon="-5.585410">
        <ele>489.296</ele>
        <time>2020-05-24T19:23:30Z</time>
      </trkpt>
      <trkpt lat="43.321450" lon="-5.585380">
        <ele>489.835</ele>
        <time>2020-05-24T19:23:50Z</time>
      </trkpt>
      <trkpt lat="43.321420" lon="-5.585370">
        <ele>489.686</ele>
        <time>2020-05-24T19:24:10Z</time>
      </trkpt>
      <trkpt lat="43.321380" lon="-5.585370">
        <ele>489.245</ele>
        <time>2020-05-24T19:24:30Z</time>
      </trkpt>
      <trkpt lat="43.321340" lon="-5.585370">
        <ele>489.858</ele>
        <time>2020-05-24T19:24:50Z</time>
      </trkpt>
      <trkpt lat="43.321320" lon="-5.585370">
        <ele>490.224</ele>
        <time>2020-05-24T19:25:10Z</time>
      </trkpt>
      <trkpt lat="43.321310" lon="-5.585380">
        <ele>490.004</ele>
        <time>2020-05-24T19:25:30Z</time>
      </trkpt>
      <trkpt lat="43.321220" lon="-5.585400">
        <ele>490.814</ele>
        <time>2020-05-24T19:25:50Z</time>
      </trkpt>
      <trkpt lat="43.321130" lon="-5.585420">
        <ele>491.608</ele>
        <time>2020-05-24T19:26:10Z</time>
      </trkpt>
      <trkpt lat="43.321030" lon="-5.585440">
        <ele>492.696</ele>
        <time>2020-05-24T19:26:30Z</time>
      </trkpt>
      <trkpt lat="43.320950" lon="-5.585450">
        <ele>493.671</ele>
        <time>2020-05-24T19:26:50Z</time>
      </trkpt>
      <trkpt lat="43.320920" lon="-5.585450">
        <ele>494.158</ele>
        <time>2020-05-24T19:27:10Z</time>
      </trkpt>
      <trkpt lat="43.320810" lon="-5.585420">
        <ele>496.414</ele>
        <time>2020-05-24T19:27:30Z</time>
      </trkpt>
      <trkpt lat="43.320780" lon="-5.585390">
        <ele>497.123</ele>
        <time>2020-05-24T19:27:50Z</time>
      </trkpt>
      <trkpt lat="43.320740" lon="-5.585350">
        <ele>497.934</ele>
        <time>2020-05-24T19:28:10Z</time>
      </trkpt>
      <trkpt lat="43.320660" lon="-5.585260">
        <ele>499.233</ele>
        <time>2020-05-24T19:28:30Z</time>
      </trkpt>
      <trkpt lat="43.320640" lon="-5.585240">
        <ele>499.496</ele>
        <time>2020-05-24T19:28:50Z</time>
      </trkpt>
      <trkpt lat="43.320550" lon="-5.585150">
        <ele>500.066</ele>
        <time>2020-05-24T19:29:10Z</time>
      </trkpt>
      <trkpt lat="43.320500" lon="-5.585090">
        <ele>501.029</ele>
        <time>2020-05-24T19:29:30Z</time>
      </trkpt>
      <trkpt lat="43.320480" lon="-5.585070">
        <ele>501.221</ele>
        <time>2020-05-24T19:29:50Z</time>
      </trkpt>
      <trkpt lat="43.320410" lon="-5.585000">
        <ele>501.908</ele>
        <time>2020-05-24T19:30:10Z</time>
      </trkpt>
      <trkpt lat="43.320350" lon="-5.584940">
        <ele>502.590</ele>
        <time>2020-05-24T19:30:30Z</time>
      </trkpt>
      <trkpt lat="43.320340" lon="-5.584920">
        <ele>502.985</ele>
        <time>2020-05-24T19:30:50Z</time>
      </trkpt>
      <trkpt lat="43.320250" lon="-5.584830">
        <ele>503.522</ele>
        <time>2020-05-24T19:31:10Z</time>
      </trkpt>
      <trkpt lat="43.320220" lon="-5.584780">
        <ele>503.958</ele>
        <time>2020-05-24T19:31:30Z</time>
      </trkpt>
      <trkpt lat="43.320190" lon="-5.584740">
        <ele>504.057</ele>
        <time>2020-05-24T19:31:50Z</time>
      </trkpt>
      <trkpt lat="43.320160" lon="-5.584660">
        <ele>503.958</ele>
        <time>2020-05-24T19:32:10Z</time>
      </trkpt>
      <trkpt lat="43.320160" lon="-5.584580">
        <ele>504.717</ele>
        <time>2020-05-24T19:32:30Z</time>
      </trkpt>
      <trkpt lat="43.320160" lon="-5.584560">
        <ele>504.860</ele>
        <time>2020-05-24T19:32:50Z</time>
      </trkpt>
      <trkpt lat="43.320160" lon="-5.584510">
        <ele>505.352</ele>
        <time>2020-05-24T19:33:10Z</time>
      </trkpt>
      <trkpt lat="43.320180" lon="-5.584430">
        <ele>506.853</ele>
        <time>2020-05-24T19:33:30Z</time>
      </trkpt>
      <trkpt lat="43.320210" lon="-5.584290">
        <ele>507.908</ele>
        <time>2020-05-24T19:33:50Z</time>
      </trkpt>
      <trkpt lat="43.320280" lon="-5.584000">
        <ele>510.108</ele>
        <time>2020-05-24T19:34:10Z</time>
      </trkpt>
      <trkpt lat="43.320320" lon="-5.583850">
        <ele>511.559</ele>
        <time>2020-05-24T19:34:30Z</time>
      </trkpt>
      <trkpt lat="43.320340" lon="-5.583730">
        <ele>512.894</ele>
        <time>2020-05-24T19:34:50Z</time>
      </trkpt>
      <trkpt lat="43.320360" lon="-5.583610">
        <ele>514.111</ele>
        <time>2020-05-24T19:35:10Z</time>
      </trkpt>
      <trkpt lat="43.320370" lon="-5.583510">
        <ele>515.417</ele>
        <time>2020-05-24T19:35:30Z</time>
      </trkpt>
      <trkpt lat="43.320380" lon="-5.583490">
        <ele>515.996</ele>
        <time>2020-05-24T19:35:50Z</time>
      </trkpt>
      <trkpt lat="43.320380" lon="-5.583460">
        <ele>516.257</ele>
        <time>2020-05-24T19:36:10Z</time>
      </trkpt>
      <trkpt lat="43.320370" lon="-5.583440">
        <ele>516.236</ele>
        <time>2020-05-24T19:36:30Z</time>
      </trkpt>
      <trkpt lat="43.320370" lon="-5.583420">
        <ele>516.459</ele>
        <time>2020-05-24T19:36:50Z</time>
      </trkpt>
      <trkpt lat="43.320360" lon="-5.583400">
        <ele>516.475</ele>
        <time>2020-05-24T19:37:10Z</time>
      </trkpt>
      <trkpt lat="43.320350" lon="-5.583380">
        <ele>516.328</ele>
        <time>2020-05-24T19:37:30Z</time>
      </trkpt>
      <trkpt lat="43.320340" lon="-5.583380">
        <ele>516.120</ele>
        <time>2020-05-24T19:37:50Z</time>
      </trkpt>
      <trkpt lat="43.320320" lon="-5.583350">
        <ele>515.908</ele>
        <time>2020-05-24T19:38:10Z</time>
      </trkpt>
      <trkpt lat="43.320240" lon="-5.583260">
        <ele>517.111</ele>
        <time>2020-05-24T19:38:30Z</time>
      </trkpt>
      <trkpt lat="43.320210" lon="-5.583210">
        <ele>518.346</ele>
        <time>2020-05-24T19:38:50Z</time>
      </trkpt>
      <trkpt lat="43.320190" lon="-5.583160">
        <ele>519.483</ele>
        <time>2020-05-24T19:39:10Z</time>
      </trkpt>
      <trkpt lat="43.320130" lon="-5.583060">
        <ele>520.619</ele>
        <time>2020-05-24T19:39:30Z</time>
      </trkpt>
      <trkpt lat="43.320120" lon="-5.583010">
        <ele>521.458</ele>
        <time>2020-05-24T19:39:50Z</time>
      </trkpt>
      <trkpt lat="43.320100" lon="-5.582950">
        <ele>521.919</ele>
        <time>2020-05-24T19:40:10Z</time>
      </trkpt>
      <trkpt lat="43.320080" lon="-5.582820">
        <ele>523.988</ele>
        <time>2020-05-24T19:40:30Z</time>
      </trkpt>
      <trkpt lat="43.320060" lon="-5.582770">
        <ele>524.061</ele>
        <time>2020-05-24T19:40:50Z</time>
      </trkpt>
      <trkpt lat="43.320050" lon="-5.582740">
        <ele>524.424</ele>
        <time>2020-05-24T19:41:10Z</time>
      </trkpt>
      <trkpt lat="43.320040" lon="-5.582710">
        <ele>524.704</ele>
        <time>2020-05-24T19:41:30Z</time>
      </trkpt>
      <trkpt lat="43.320010" lon="-5.582680">
        <ele>524.214</ele>
        <time>2020-05-24T19:41:50Z</time>
      </trkpt>
      <trkpt lat="43.319980" lon="-5.582650">
        <ele>524.308</ele>
        <time>2020-05-24T19:42:10Z</time>
      </trkpt>
      <trkpt lat="43.319910" lon="-5.582630">
        <ele>523.516</ele>
        <time>2020-05-24T19:42:30Z</time>
      </trkpt>
      <trkpt lat="43.319830" lon="-5.582600">
        <ele>522.811</ele>
        <time>2020-05-24T19:42:50Z</time>
      </trkpt>
      <trkpt lat="43.319780" lon="-5.582570">
        <ele>522.858</ele>
        <time>2020-05-24T19:43:10Z</time>
      </trkpt>
      <trkpt lat="43.319740" lon="-5.582540">
        <ele>523.064</ele>
        <time>2020-05-24T19:43:30Z</time>
      </trkpt>
      <trkpt lat="43.319710" lon="-5.582490">
        <ele>523.933</ele>
        <time>2020-05-24T19:43:50Z</time>
      </trkpt>
      <trkpt lat="43.319680" lon="-5.582430">
        <ele>524.154</ele>
        <time>2020-05-24T19:44:10Z</time>
      </trkpt>
      <trkpt lat="43.319640" lon="-5.582320">
        <ele>525.113</ele>
        <time>2020-05-24T19:44:30Z</time>
      </trkpt>
      <trkpt lat="43.319600" lon="-5.582170">
        <ele>527.356</ele>
        <time>2020-05-24T19:44:50Z</time>
      </trkpt>
      <trkpt lat="43.319580" lon="-5.582120">
        <ele>528.261</ele>
        <time>2020-05-24T19:45:10Z</time>
      </trkpt>
      <trkpt lat="43.319570" lon="-5.582080">
        <ele>528.821</ele>
        <time>2020-05-24T19:45:30Z</time>
      </trkpt>
      <trkpt lat="43.319540" lon="-5.582060">
        <ele>529.213</ele>
        <time>2020-05-24T19:45:50Z</time>
      </trkpt>
      <trkpt lat="43.319520" lon="-5.582040">
        <ele>529.508</ele>
        <time>2020-05-24T19:46:10Z</time>
      </trkpt>
      <trkpt lat="43.319490" lon="-5.582040">
        <ele>529.610</ele>
        <time>2020-05-24T19:46:30Z</time>
      </trkpt>
      <trkpt lat="43.319470" lon="-5.582030">
        <ele>529.725</ele>
        <time>2020-05-24T19:46:50Z</time>
      </trkpt>
      <trkpt lat="43.319430" lon="-5.582040">
        <ele>529.882</ele>
        <time>2020-05-24T19:47:10Z</time>
      </trkpt>
      <trkpt lat="43.319420" lon="-5.582040">
        <ele>529.958</ele>
        <time>2020-05-24T19:47:30Z</time>
      </trkpt>
      <trkpt lat="43.319330" lon="-5.582070">
        <ele>530.677</ele>
        <time>2020-05-24T19:47:50Z</time>
      </trkpt>
      <trkpt lat="43.319250" lon="-5.582110">
        <ele>531.188</ele>
        <time>2020-05-24T19:48:10Z</time>
      </trkpt>
      <trkpt lat="43.319210" lon="-5.582120">
        <ele>531.527</ele>
        <time>2020-05-24T19:48:30Z</time>
      </trkpt>
      <trkpt lat="43.319160" lon="-5.582160">
        <ele>531.920</ele>
        <time>2020-05-24T19:48:50Z</time>
      </trkpt>
      <trkpt lat="43.319120" lon="-5.582190">
        <ele>532.695</ele>
        <time>2020-05-24T19:49:10Z</time>
      </trkpt>
      <trkpt lat="43.319100" lon="-5.582210">
        <ele>532.849</ele>
        <time>2020-05-24T19:49:30Z</time>
      </trkpt>
      <trkpt lat="43.319090" lon="-5.582230">
        <ele>532.823</ele>
        <time>2020-05-24T19:49:50Z</time>
      </trkpt>
      <trkpt lat="43.319050" lon="-5.582280">
        <ele>533.208</ele>
        <time>2020-05-24T19:50:10Z</time>
      </trkpt>
      <trkpt lat="43.319030" lon="-5.582330">
        <ele>533.313</ele>
        <time>2020-05-24T19:50:30Z</time>
      </trkpt>
      <trkpt lat="43.319000" lon="-5.582450">
        <ele>533.198</ele>
        <time>2020-05-24T19:50:50Z</time>
      </trkpt>
      <trkpt lat="43.318980" lon="-5.582580">
        <ele>532.695</ele>
        <time>2020-05-24T19:51:10Z</time>
      </trkpt>
      <trkpt lat="43.318960" lon="-5.582630">
        <ele>532.951</ele>
        <time>2020-05-24T19:51:30Z</time>
      </trkpt>
      <trkpt lat="43.318950" lon="-5.582650">
        <ele>533.140</ele>
        <time>2020-05-24T19:51:50Z</time>
      </trkpt>
      <trkpt lat="43.318930" lon="-5.582680">
        <ele>533.581</ele>
        <time>2020-05-24T19:52:10Z</time>
      </trkpt>
      <trkpt lat="43.318890" lon="-5.582720">
        <ele>534.630</ele>
        <time>2020-05-24T19:52:30Z</time>
      </trkpt>
      <trkpt lat="43.318860" lon="-5.582740">
        <ele>535.093</ele>
        <time>2020-05-24T19:52:50Z</time>
      </trkpt>
      <trkpt lat="43.318820" lon="-5.582770">
        <ele>535.381</ele>
        <time>2020-05-24T19:53:10Z</time>
      </trkpt>
      <trkpt lat="43.318770" lon="-5.582780">
        <ele>536.161</ele>
        <time>2020-05-24T19:53:30Z</time>
      </trkpt>
      <trkpt lat="43.318710" lon="-5.582780">
        <ele>537.217</ele>
        <time>2020-05-24T19:53:50Z</time>
      </trkpt>
      <trkpt lat="43.318670" lon="-5.582760">
        <ele>538.208</ele>
        <time>2020-05-24T19:54:10Z</time>
      </trkpt>
      <trkpt lat="43.318630" lon="-5.582710">
        <ele>539.862</ele>
        <time>2020-05-24T19:54:30Z</time>
      </trkpt>
      <trkpt lat="43.318570" lon="-5.582610">
        <ele>541.777</ele>
        <time>2020-05-24T19:54:50Z</time>
      </trkpt>
      <trkpt lat="43.318520" lon="-5.582500">
        <ele>543.354</ele>
        <time>2020-05-24T19:55:10Z</time>
      </trkpt>
      <trkpt lat="43.318470" lon="-5.582410">
        <ele>543.810</ele>
        <time>2020-05-24T19:55:30Z</time>
      </trkpt>
      <trkpt lat="43.318420" lon="-5.582320">
        <ele>544.469</ele>
        <time>2020-05-24T19:55:50Z</time>
      </trkpt>
      <trkpt lat="43.318400" lon="-5.582260">
        <ele>544.990</ele>
        <time>2020-05-24T19:56:10Z</time>
      </trkpt>
      <trkpt lat="43.318390" lon="-5.582180">
        <ele>545.429</ele>
        <time>2020-05-24T19:56:30Z</time>
      </trkpt>
      <trkpt lat="43.318390" lon="-5.582110">
        <ele>545.682</ele>
        <time>2020-05-24T19:56:50Z</time>
      </trkpt>
      <trkpt lat="43.318390" lon="-5.582080">
        <ele>545.786</ele>
        <time>2020-05-24T19:57:10Z</time>
      </trkpt>
      <trkpt lat="43.318390" lon="-5.581930">
        <ele>546.160</ele>
        <time>2020-05-24T19:57:30Z</time>
      </trkpt>
      <trkpt lat="43.318410" lon="-5.581790">
        <ele>545.326</ele>
        <time>2020-05-24T19:57:50Z</time>
      </trkpt>
      <trkpt lat="43.318420" lon="-5.581750">
        <ele>545.108</ele>
        <time>2020-05-24T19:58:10Z</time>
      </trkpt>
      <trkpt lat="43.318440" lon="-5.581690">
        <ele>544.962</ele>
        <time>2020-05-24T19:58:30Z</time>
      </trkpt>
      <trkpt lat="43.318460" lon="-5.581630">
        <ele>544.437</ele>
        <time>2020-05-24T19:58:50Z</time>
      </trkpt>
      <trkpt lat="43.318500" lon="-5.581550">
        <ele>543.714</ele>
        <time>2020-05-24T19:59:10Z</time>
      </trkpt>
      <trkpt lat="43.318520" lon="-5.581480">
        <ele>543.160</ele>
        <time>2020-05-24T19:59:30Z</time>
      </trkpt>
      <trkpt lat="43.318540" lon="-5.581430">
        <ele>542.979</ele>
        <time>2020-05-24T19:59:50Z</time>
      </trkpt>
      <trkpt lat="43.318540" lon="-5.581390">
        <ele>542.530</ele>
        <time>2020-05-24T20:00:10Z</time>
      </trkpt>
      <trkpt lat="43.318570" lon="-5.581200">
        <ele>541.129</ele>
        <time>2020-05-24T20:00:30Z</time>
      </trkpt>
      <trkpt lat="43.318570" lon="-5.580990">
        <ele>539.342</ele>
        <time>2020-05-24T20:00:50Z</time>
      </trkpt>
      <trkpt lat="43.318570" lon="-5.580970">
        <ele>539.216</ele>
        <time>2020-05-24T20:01:10Z</time>
      </trkpt>
      <trkpt lat="43.318580" lon="-5.580810">
        <ele>538.376</ele>
        <time>2020-05-24T20:01:30Z</time>
      </trkpt>
      <trkpt lat="43.318580" lon="-5.580700">
        <ele>537.913</ele>
        <time>2020-05-24T20:01:50Z</time>
      </trkpt>
      <trkpt lat="43.318590" lon="-5.580620">
        <ele>537.708</ele>
        <time>2020-05-24T20:02:10Z</time>
      </trkpt>
      <trkpt lat="43.318600" lon="-5.580550">
        <ele>537.695</ele>
        <time>2020-05-24T20:02:30Z</time>
      </trkpt>
      <trkpt lat="43.318620" lon="-5.580510">
        <ele>537.260</ele>
        <time>2020-05-24T20:02:50Z</time>
      </trkpt>
      <trkpt lat="43.318650" lon="-5.580450">
        <ele>536.287</ele>
        <time>2020-05-24T20:03:10Z</time>
      </trkpt>
      <trkpt lat="43.318700" lon="-5.580400">
        <ele>535.433</ele>
        <time>2020-05-24T20:03:30Z</time>
      </trkpt>
      <trkpt lat="43.318740" lon="-5.580370">
        <ele>535.062</ele>
        <time>2020-05-24T20:03:50Z</time>
      </trkpt>
      <trkpt lat="43.318760" lon="-5.580350">
        <ele>534.943</ele>
        <time>2020-05-24T20:04:10Z</time>
      </trkpt>
      <trkpt lat="43.318770" lon="-5.580350">
        <ele>534.992</ele>
        <time>2020-05-24T20:04:30Z</time>
      </trkpt>
      <trkpt lat="43.318820" lon="-5.580330">
        <ele>534.865</ele>
        <time>2020-05-24T20:04:50Z</time>
      </trkpt>
      <trkpt lat="43.318870" lon="-5.580320">
        <ele>534.884</ele>
        <time>2020-05-24T20:05:10Z</time>
      </trkpt>
      <trkpt lat="43.318930" lon="-5.580320">
        <ele>534.507</ele>
        <time>2020-05-24T20:05:30Z</time>
      </trkpt>
      <trkpt lat="43.319040" lon="-5.580320">
        <ele>533.517</ele>
        <time>2020-05-24T20:05:50Z</time>
      </trkpt>
      <trkpt lat="43.319090" lon="-5.580330">
        <ele>533.208</ele>
        <time>2020-05-24T20:06:10Z</time>
      </trkpt>
      <trkpt lat="43.319140" lon="-5.580340">
        <ele>532.972</ele>
        <time>2020-05-24T20:06:30Z</time>
      </trkpt>
      <trkpt lat="43.319220" lon="-5.580330">
        <ele>532.847</ele>
        <time>2020-05-24T20:06:50Z</time>
      </trkpt>
      <trkpt lat="43.319260" lon="-5.580300">
        <ele>532.614</ele>
        <time>2020-05-24T20:07:10Z</time>
      </trkpt>
      <trkpt lat="43.319310" lon="-5.580270">
        <ele>532.450</ele>
        <time>2020-05-24T20:07:30Z</time>
      </trkpt>
      <trkpt lat="43.319390" lon="-5.580180">
        <ele>530.969</ele>
        <time>2020-05-24T20:07:50Z</time>
      </trkpt>
      <trkpt lat="43.319460" lon="-5.580090">
        <ele>529.020</ele>
        <time>2020-05-24T20:08:10Z</time>
      </trkpt>
      <trkpt lat="43.319540" lon="-5.580000">
        <ele>527.349</ele>
        <time>2020-05-24T20:08:30Z</time>
      </trkpt>
      <trkpt lat="43.319620" lon="-5.579940">
        <ele>526.332</ele>
        <time>2020-05-24T20:08:50Z</time>
      </trkpt>
      <trkpt lat="43.319700" lon="-5.579880">
        <ele>525.747</ele>
        <time>2020-05-24T20:09:10Z</time>
      </trkpt>
      <trkpt lat="43.319710" lon="-5.579870">
        <ele>525.629</ele>
        <time>2020-05-24T20:09:30Z</time>
      </trkpt>
      <trkpt lat="43.319780" lon="-5.579790">
        <ele>525.321</ele>
        <time>2020-05-24T20:09:50Z</time>
      </trkpt>
      <trkpt lat="43.319820" lon="-5.579700">
        <ele>525.008</ele>
        <time>2020-05-24T20:10:10Z</time>
      </trkpt>
      <trkpt lat="43.319820" lon="-5.579660">
        <ele>524.868</ele>
        <time>2020-05-24T20:10:30Z</time>
      </trkpt>
      <trkpt lat="43.319820" lon="-5.579630">
        <ele>524.673</ele>
        <time>2020-05-24T20:10:50Z</time>
      </trkpt>
      <trkpt lat="43.319820" lon="-5.579600">
        <ele>524.470</ele>
        <time>2020-05-24T20:11:10Z</time>
      </trkpt>
      <trkpt lat="43.319810" lon="-5.579540">
        <ele>523.856</ele>
        <time>2020-05-24T20:11:30Z</time>
      </trkpt>
      <trkpt lat="43.319790" lon="-5.579470">
        <ele>522.685</ele>
        <time>2020-05-24T20:11:50Z</time>
      </trkpt>
      <trkpt lat="43.319790" lon="-5.579460">
        <ele>522.696</ele>
        <time>2020-05-24T20:12:10Z</time>
      </trkpt>
      <trkpt lat="43.319760" lon="-5.579350">
        <ele>521.055</ele>
        <time>2020-05-24T20:12:30Z</time>
      </trkpt>
      <trkpt lat="43.319740" lon="-5.579300">
        <ele>520.168</ele>
        <time>2020-05-24T20:12:50Z</time>
      </trkpt>
      <trkpt lat="43.319730" lon="-5.579220">
        <ele>519.538</ele>
        <time>2020-05-24T20:13:10Z</time>
      </trkpt>
      <trkpt lat="43.319720" lon="-5.579200">
        <ele>519.070</ele>
        <time>2020-05-24T20:13:30Z</time>
      </trkpt>
      <trkpt lat="43.319720" lon="-5.579180">
        <ele>519.017</ele>
        <time>2020-05-24T20:13:50Z</time>
      </trkpt>
      <trkpt lat="43.319720" lon="-5.579120">
        <ele>517.708</ele>
        <time>2020-05-24T20:14:10Z</time>
      </trkpt>
      <trkpt lat="43.319730" lon="-5.579080">
        <ele>517.157</ele>
        <time>2020-05-24T20:14:30Z</time>
      </trkpt>
      <trkpt lat="43.319730" lon="-5.579040">
        <ele>516.142</ele>
        <time>2020-05-24T20:14:50Z</time>
      </trkpt>
      <trkpt lat="43.319750" lon="-5.579010">
        <ele>515.999</ele>
        <time>2020-05-24T20:15:10Z</time>
      </trkpt>
      <trkpt lat="43.319760" lon="-5.579000">
        <ele>516.095</ele>
        <time>2020-05-24T20:15:30Z</time>
      </trkpt>
      <trkpt lat="43.319810" lon="-5.578930">
        <ele>515.784</ele>
        <time>2020-05-24T20:15:50Z</time>
      </trkpt>
      <trkpt lat="43.319890" lon="-5.578830">
        <ele>515.045</ele>
        <time>2020-05-24T20:16:10Z</time>
      </trkpt>
      <trkpt lat="43.319960" lon="-5.578760">
        <ele>514.744</ele>
        <time>2020-05-24T20:16:30Z</time>
      </trkpt>
      <trkpt lat="43.320010" lon="-5.578670">
        <ele>513.267</ele>
        <time>2020-05-24T20:16:50Z</time>
      </trkpt>
      <trkpt lat="43.320020" lon="-5.578660">
        <ele>513.193</ele>
        <time>2020-05-24T20:17:10Z</time>
      </trkpt>
      <trkpt lat="43.320060" lon="-5.578580">
        <ele>512.265</ele>
        <time>2020-05-24T20:17:30Z</time>
      </trkpt>
      <trkpt lat="43.320200" lon="-5.578240">
        <ele>509.721</ele>
        <time>2020-05-24T20:17:50Z</time>
      </trkpt>
      <trkpt lat="43.320290" lon="-5.578050">
        <ele>508.208</ele>
        <time>2020-05-24T20:18:10Z</time>
      </trkpt>
      <trkpt lat="43.320320" lon="-5.577950">
        <ele>507.113</ele>
        <time>2020-05-24T20:18:30Z</time>
      </trkpt>
      <trkpt lat="43.320350" lon="-5.577860">
        <ele>506.298</ele>
        <time>2020-05-24T20:18:50Z</time>
      </trkpt>
      <trkpt lat="43.320370" lon="-5.577810">
        <ele>505.965</ele>
        <time>2020-05-24T20:19:10Z</time>
      </trkpt>
      <trkpt lat="43.320370" lon="-5.577800">
        <ele>505.781</ele>
        <time>2020-05-24T20:19:30Z</time>
      </trkpt>
      <trkpt lat="43.320370" lon="-5.577740">
        <ele>505.050</ele>
        <time>2020-05-24T20:19:50Z</time>
      </trkpt>
      <trkpt lat="43.320390" lon="-5.577610">
        <ele>504.381</ele>
        <time>2020-05-24T20:20:10Z</time>
      </trkpt>
      <trkpt lat="43.320390" lon="-5.577550">
        <ele>503.740</ele>
        <time>2020-05-24T20:20:30Z</time>
      </trkpt>
      <trkpt lat="43.320400" lon="-5.577350">
        <ele>501.813</ele>
        <time>2020-05-24T20:20:50Z</time>
      </trkpt>
      <trkpt lat="43.320410" lon="-5.577230">
        <ele>500.873</ele>
        <time>2020-05-24T20:21:10Z</time>
      </trkpt>
      <trkpt lat="43.320450" lon="-5.577010">
        <ele>498.485</ele>
        <time>2020-05-24T20:21:30Z</time>
      </trkpt>
      <trkpt lat="43.320470" lon="-5.576870">
        <ele>497.613</ele>
        <time>2020-05-24T20:21:50Z</time>
      </trkpt>
      <trkpt lat="43.320470" lon="-5.576820">
        <ele>497.408</ele>
        <time>2020-05-24T20:22:10Z</time>
      </trkpt>
      <trkpt lat="43.320470" lon="-5.576750">
        <ele>497.231</ele>
        <time>2020-05-24T20:22:30Z</time>
      </trkpt>
      <trkpt lat="43.320470" lon="-5.576620">
        <ele>496.596</ele>
        <time>2020-05-24T20:22:50Z</time>
      </trkpt>
      <trkpt lat="43.320480" lon="-5.576480">
        <ele>495.633</ele>
        <time>2020-05-24T20:23:10Z</time>
      </trkpt>
      <trkpt lat="43.320500" lon="-5.576330">
        <ele>494.629</ele>
        <time>2020-05-24T20:23:30Z</time>
      </trkpt>
      <trkpt lat="43.320510" lon="-5.576240">
        <ele>493.788</ele>
        <time>2020-05-24T20:23:50Z</time>
      </trkpt>
      <trkpt lat="43.320550" lon="-5.576120">
        <ele>493.059</ele>
        <time>2020-05-24T20:24:10Z</time>
      </trkpt>
      <trkpt lat="43.320590" lon="-5.576010">
        <ele>491.858</ele>
        <time>2020-05-24T20:24:30Z</time>
      </trkpt>
      <trkpt lat="43.320650" lon="-5.575910">
        <ele>491.131</ele>
        <time>2020-05-24T20:24:50Z</time>
      </trkpt>
      <trkpt lat="43.320710" lon="-5.575820">
        <ele>490.476</ele>
        <time>2020-05-24T20:25:10Z</time>
      </trkpt>
      <trkpt lat="43.320780" lon="-5.575730">
        <ele>489.190</ele>
        <time>2020-05-24T20:25:30Z</time>
      </trkpt>
      <trkpt lat="43.320790" lon="-5.575720">
        <ele>489.019</ele>
        <time>2020-05-24T20:25:50Z</time>
      </trkpt>
      <trkpt lat="43.320850" lon="-5.575650">
        <ele>487.908</ele>
        <time>2020-05-24T20:26:10Z</time>
      </trkpt>
      <trkpt lat="43.320940" lon="-5.575570">
        <ele>486.251</ele>
        <time>2020-05-24T20:26:30Z</time>
      </trkpt>
      <trkpt lat="43.321020" lon="-5.575530">
        <ele>485.416</ele>
        <time>2020-05-24T20:26:50Z</time>
      </trkpt>
      <trkpt lat="43.321110" lon="-5.575500">
        <ele>485.083</ele>
        <time>2020-05-24T20:27:10Z</time>
      </trkpt>
      <trkpt lat="43.321300" lon="-5.575410">
        <ele>484.889</ele>
        <time>2020-05-24T20:27:30Z</time>
      </trkpt>
      <trkpt lat="43.321340" lon="-5.575380">
        <ele>484.388</ele>
        <time>2020-05-24T20:27:50Z</time>
      </trkpt>
      <trkpt lat="43.321370" lon="-5.575340">
        <ele>483.249</ele>
        <time>2020-05-24T20:28:10Z</time>
      </trkpt>
      <trkpt lat="43.321400" lon="-5.575310">
        <ele>482.578</ele>
        <time>2020-05-24T20:28:30Z</time>
      </trkpt>
      <trkpt lat="43.321430" lon="-5.575250">
        <ele>481.141</ele>
        <time>2020-05-24T20:28:50Z</time>
      </trkpt>
      <trkpt lat="43.321500" lon="-5.575150">
        <ele>480.185</ele>
        <time>2020-05-24T20:29:10Z</time>
      </trkpt>
      <trkpt lat="43.321550" lon="-5.575070">
        <ele>479.589</ele>
        <time>2020-05-24T20:29:30Z</time>
      </trkpt>
      <trkpt lat="43.321610" lon="-5.574960">
        <ele>478.517</ele>
        <time>2020-05-24T20:29:50Z</time>
      </trkpt>
      <trkpt lat="43.321680" lon="-5.574870">
        <ele>477.808</ele>
        <time>2020-05-24T20:30:10Z</time>
      </trkpt>
      <trkpt lat="43.321750" lon="-5.574790">
        <ele>476.482</ele>
        <time>2020-05-24T20:30:30Z</time>
      </trkpt>
      <trkpt lat="43.321800" lon="-5.574760">
        <ele>476.047</ele>
        <time>2020-05-24T20:30:50Z</time>
      </trkpt>
      <trkpt lat="43.321930" lon="-5.574690">
        <ele>475.174</ele>
        <time>2020-05-24T20:31:10Z</time>
      </trkpt>
      <trkpt lat="43.322010" lon="-5.574670">
        <ele>474.640</ele>
        <time>2020-05-24T20:31:30Z</time>
      </trkpt>
      <trkpt lat="43.322140" lon="-5.574670">
        <ele>474.439</ele>
        <time>2020-05-24T20:31:50Z</time>
      </trkpt>
      <trkpt lat="43.322150" lon="-5.574670">
        <ele>474.430</ele>
        <time>2020-05-24T20:32:10Z</time>
      </trkpt>
      <trkpt lat="43.322290" lon="-5.574680">
        <ele>472.879</ele>
        <time>2020-05-24T20:32:30Z</time>
      </trkpt>
      <trkpt lat="43.322350" lon="-5.574690">
        <ele>471.542</ele>
        <time>2020-05-24T20:32:50Z</time>
      </trkpt>
      <trkpt lat="43.322380" lon="-5.574700">
        <ele>470.841</ele>
        <time>2020-05-24T20:33:10Z</time>
      </trkpt>
      <trkpt lat="43.322390" lon="-5.574700">
        <ele>470.681</ele>
        <time>2020-05-24T20:33:30Z</time>
      </trkpt>
      <trkpt lat="43.322420" lon="-5.574690">
        <ele>469.809</ele>
        <time>2020-05-24T20:33:50Z</time>
      </trkpt>
      <trkpt lat="43.322450" lon="-5.574660">
        <ele>468.908</ele>
        <time>2020-05-24T20:34:10Z</time>
      </trkpt>
      <trkpt lat="43.322450" lon="-5.574640">
        <ele>468.838</ele>
        <time>2020-05-24T20:34:30Z</time>
      </trkpt>
      <trkpt lat="43.322460" lon="-5.574620">
        <ele>468.583</ele>
        <time>2020-05-24T20:34:50Z</time>
      </trkpt>
      <trkpt lat="43.322460" lon="-5.574600">
        <ele>468.430</ele>
        <time>2020-05-24T20:35:10Z</time>
      </trkpt>
      <trkpt lat="43.322460" lon="-5.574570">
        <ele>468.236</ele>
        <time>2020-05-24T20:35:30Z</time>
      </trkpt>
      <trkpt lat="43.322460" lon="-5.574550">
        <ele>468.175</ele>
        <time>2020-05-24T20:35:50Z</time>
      </trkpt>
      <trkpt lat="43.322460" lon="-5.574520">
        <ele>468.086</ele>
        <time>2020-05-24T20:36:10Z</time>
      </trkpt>
      <trkpt lat="43.322460" lon="-5.574490">
        <ele>467.845</ele>
        <time>2020-05-24T20:36:30Z</time>
      </trkpt>
      <trkpt lat="43.322450" lon="-5.574460">
        <ele>467.898</ele>
        <time>2020-05-24T20:36:50Z</time>
      </trkpt>
      <trkpt lat="43.322450" lon="-5.574440">
        <ele>467.799</ele>
        <time>2020-05-24T20:37:10Z</time>
      </trkpt>
      <trkpt lat="43.322440" lon="-5.574420">
        <ele>467.507</ele>
        <time>2020-05-24T20:37:30Z</time>
      </trkpt>
      <trkpt lat="43.322420" lon="-5.574400">
        <ele>467.427</ele>
        <time>2020-05-24T20:37:50Z</time>
      </trkpt>
      <trkpt lat="43.322390" lon="-5.574370">
        <ele>467.108</ele>
        <time>2020-05-24T20:38:10Z</time>
      </trkpt>
      <trkpt lat="43.322340" lon="-5.574350">
        <ele>467.153</ele>
        <time>2020-05-24T20:38:30Z</time>
      </trkpt>
      <trkpt lat="43.322300" lon="-5.574340">
        <ele>467.158</ele>
        <time>2020-05-24T20:38:50Z</time>
      </trkpt>
      <trkpt lat="43.322250" lon="-5.574340">
        <ele>467.425</ele>
        <time>2020-05-24T20:39:10Z</time>
      </trkpt>
      <trkpt lat="43.322180" lon="-5.574360">
        <ele>468.081</ele>
        <time>2020-05-24T20:39:30Z</time>
      </trkpt>
      <trkpt lat="43.322150" lon="-5.574360">
        <ele>467.880</ele>
        <time>2020-05-24T20:39:50Z</time>
      </trkpt>
      <trkpt lat="43.322100" lon="-5.574370">
        <ele>467.861</ele>
        <time>2020-05-24T20:40:10Z</time>
      </trkpt>
      <trkpt lat="43.322060" lon="-5.574370">
        <ele>467.610</ele>
        <time>2020-05-24T20:40:30Z</time>
      </trkpt>
      <trkpt lat="43.322020" lon="-5.574360">
        <ele>467.043</ele>
        <time>2020-05-24T20:40:50Z</time>
      </trkpt>
      <trkpt lat="43.322010" lon="-5.574360">
        <ele>467.058</ele>
        <time>2020-05-24T20:41:10Z</time>
      </trkpt>
      <trkpt lat="43.321980" lon="-5.574350">
        <ele>466.552</ele>
        <time>2020-05-24T20:41:30Z</time>
      </trkpt>
      <trkpt lat="43.321900" lon="-5.574280">
        <ele>464.317</ele>
        <time>2020-05-24T20:41:50Z</time>
      </trkpt>
      <trkpt lat="43.321860" lon="-5.574230">
        <ele>463.008</ele>
        <time>2020-05-24T20:42:10Z</time>
      </trkpt>
      <trkpt lat="43.321830" lon="-5.574200">
        <ele>462.339</ele>
        <time>2020-05-24T20:42:30Z</time>
      </trkpt>
      <trkpt lat="43.321820" lon="-5.574180">
        <ele>461.854</ele>
        <time>2020-05-24T20:42:50Z</time>
      </trkpt>
      <trkpt lat="43.321790" lon="-5.574170">
        <ele>461.681</ele>
        <time>2020-05-24T20:43:10Z</time>
      </trkpt>
      <trkpt lat="43.321770" lon="-5.574170">
        <ele>461.747</ele>
        <time>2020-05-24T20:43:30Z</time>
      </trkpt>
      <trkpt lat="43.321750" lon="-5.574160">
        <ele>461.536</ele>
        <time>2020-05-24T20:43:50Z</time>
      </trkpt>
      <trkpt lat="43.321700" lon="-5.574170">
        <ele>462.037</ele>
        <time>2020-05-24T20:44:10Z</time>
      </trkpt>
      <trkpt lat="43.321650" lon="-5.574180">
        <ele>461.926</ele>
        <time>2020-05-24T20:44:30Z</time>
      </trkpt>
      <trkpt lat="43.321600" lon="-5.574210">
        <ele>461.579</ele>
        <time>2020-05-24T20:44:50Z</time>
      </trkpt>
      <trkpt lat="43.321560" lon="-5.574230">
        <ele>461.053</ele>
        <time>2020-05-24T20:45:10Z</time>
      </trkpt>
      <trkpt lat="43.321530" lon="-5.574250">
        <ele>460.704</ele>
        <time>2020-05-24T20:45:30Z</time>
      </trkpt>
      <trkpt lat="43.321470" lon="-5.574280">
        <ele>459.914</ele>
        <time>2020-05-24T20:45:50Z</time>
      </trkpt>
      <trkpt lat="43.321370" lon="-5.574360">
        <ele>459.008</ele>
        <time>2020-05-24T20:46:10Z</time>
      </trkpt>
      <trkpt lat="43.321310" lon="-5.574400">
        <ele>458.269</ele>
        <time>2020-05-24T20:46:30Z</time>
      </trkpt>
      <trkpt lat="43.321210" lon="-5.574460">
        <ele>456.854</ele>
        <time>2020-05-24T20:46:50Z</time>
      </trkpt>
      <trkpt lat="43.321130" lon="-5.574520">
        <ele>455.831</ele>
        <time>2020-05-24T20:47:10Z</time>
      </trkpt>
      <trkpt lat="43.321040" lon="-5.574550">
        <ele>454.997</ele>
        <time>2020-05-24T20:47:30Z</time>
      </trkpt>
      <trkpt lat="43.320940" lon="-5.574530">
        <ele>453.126</ele>
        <time>2020-05-24T20:47:50Z</time>
      </trkpt>
      <trkpt lat="43.320840" lon="-5.574510">
        <ele>451.397</ele>
        <time>2020-05-24T20:48:10Z</time>
      </trkpt>
      <trkpt lat="43.320750" lon="-5.574490">
        <ele>450.646</ele>
        <time>2020-05-24T20:48:30Z</time>
      </trkpt>
      <trkpt lat="43.320560" lon="-5.574380">
        <ele>447.459</ele>
        <time>2020-05-24T20:48:50Z</time>
      </trkpt>
      <trkpt lat="43.320520" lon="-5.574350">
        <ele>446.524</ele>
        <time>2020-05-24T20:49:10Z</time>
      </trkpt>
      <trkpt lat="43.320480" lon="-5.574330">
        <ele>445.804</ele>
        <time>2020-05-24T20:49:30Z</time>
      </trkpt>
      <trkpt lat="43.320390" lon="-5.574270">
        <ele>444.214</ele>
        <time>2020-05-24T20:49:50Z</time>
      </trkpt>
      <trkpt lat="43.320200" lon="-5.574190">
        <ele>442.708</ele>
        <time>2020-05-24T20:50:10Z</time>
      </trkpt>
      <trkpt lat="43.319920" lon="-5.574140">
        <ele>441.486</ele>
        <time>2020-05-24T20:50:30Z</time>
      </trkpt>
      <trkpt lat="43.319820" lon="-5.574130">
        <ele>440.131</ele>
        <time>2020-05-24T20:50:50Z</time>
      </trkpt>
      <trkpt lat="43.319730" lon="-5.574140">
        <ele>439.478</ele>
        <time>2020-05-24T20:51:10Z</time>
      </trkpt>
      <trkpt lat="43.319700" lon="-5.574140">
        <ele>439.274</ele>
        <time>2020-05-24T20:51:30Z</time>
      </trkpt>
      <trkpt lat="43.319600" lon="-5.574130">
        <ele>438.653</ele>
        <time>2020-05-24T20:51:50Z</time>
      </trkpt>
      <trkpt lat="43.319570" lon="-5.574120">
        <ele>438.364</ele>
        <time>2020-05-24T20:52:10Z</time>
      </trkpt>
      <trkpt lat="43.319530" lon="-5.574100">
        <ele>437.673</ele>
        <time>2020-05-24T20:52:30Z</time>
      </trkpt>
      <trkpt lat="43.319280" lon="-5.573950">
        <ele>435.186</ele>
        <time>2020-05-24T20:52:50Z</time>
      </trkpt>
      <trkpt lat="43.319150" lon="-5.573860">
        <ele>434.538</ele>
        <time>2020-05-24T20:53:10Z</time>
      </trkpt>
      <trkpt lat="43.319110" lon="-5.573830">
        <ele>434.070</ele>
        <time>2020-05-24T20:53:30Z</time>
      </trkpt>
      <trkpt lat="43.318970" lon="-5.573760">
        <ele>432.817</ele>
        <time>2020-05-24T20:53:50Z</time>
      </trkpt>
      <trkpt lat="43.318850" lon="-5.573700">
        <ele>431.708</ele>
        <time>2020-05-24T20:54:10Z</time>
      </trkpt>
      <trkpt lat="43.318700" lon="-5.573670">
        <ele>430.457</ele>
        <time>2020-05-24T20:54:30Z</time>
      </trkpt>
      <trkpt lat="43.318580" lon="-5.573650">
        <ele>429.342</ele>
        <time>2020-05-24T20:54:50Z</time>
      </trkpt>
      <trkpt lat="43.318270" lon="-5.573620">
        <ele>426.759</ele>
        <time>2020-05-24T20:55:10Z</time>
      </trkpt>
      <trkpt lat="43.318130" lon="-5.573610">
        <ele>425.585</ele>
        <time>2020-05-24T20:55:30Z</time>
      </trkpt>
      <trkpt lat="43.318020" lon="-5.573600">
        <ele>424.374</ele>
        <time>2020-05-24T20:55:50Z</time>
      </trkpt>
      <trkpt lat="43.317960" lon="-5.573610">
        <ele>423.685</ele>
        <time>2020-05-24T20:56:10Z</time>
      </trkpt>
      <trkpt lat="43.317870" lon="-5.573630">
        <ele>422.714</ele>
        <time>2020-05-24T20:56:30Z</time>
      </trkpt>
      <trkpt lat="43.317790" lon="-5.573680">
        <ele>422.727</ele>
        <time>2020-05-24T20:56:50Z</time>
      </trkpt>
      <trkpt lat="43.317730" lon="-5.573740">
        <ele>422.355</ele>
        <time>2020-05-24T20:57:10Z</time>
      </trkpt>
      <trkpt lat="43.317620" lon="-5.573870">
        <ele>420.507</ele>
        <time>2020-05-24T20:57:30Z</time>
      </trkpt>
      <trkpt lat="43.317530" lon="-5.574020">
        <ele>418.317</ele>
        <time>2020-05-24T20:57:50Z</time>
      </trkpt>
      <trkpt lat="43.317440" lon="-5.574240">
        <ele>416.108</ele>
        <time>2020-05-24T20:58:10Z</time>
      </trkpt>
      <trkpt lat="43.317430" lon="-5.574260">
        <ele>415.929</ele>
        <time>2020-05-24T20:58:30Z</time>
      </trkpt>
      <trkpt lat="43.317380" lon="-5.574340">
        <ele>414.774</ele>
        <time>2020-05-24T20:58:50Z</time>
      </trkpt>
      <trkpt lat="43.317330" lon="-5.574450">
        <ele>414.011</ele>
        <time>2020-05-24T20:59:10Z</time>
      </trkpt>
      <trkpt lat="43.317310" lon="-5.574510">
        <ele>413.017</ele>
        <time>2020-05-24T20:59:30Z</time>
      </trkpt>
      <trkpt lat="43.317290" lon="-5.574560">
        <ele>412.076</ele>
        <time>2020-05-24T20:59:50Z</time>
      </trkpt>
      <trkpt lat="43.317280" lon="-5.574630">
        <ele>411.467</ele>
        <time>2020-05-24T21:00:10Z</time>
      </trkpt>
      <trkpt lat="43.317280" lon="-5.574670">
        <ele>411.486</ele>
        <time>2020-05-24T21:00:30Z</time>
      </trkpt>
      <trkpt lat="43.317290" lon="-5.574720">
        <ele>411.769</ele>
        <time>2020-05-24T21:00:50Z</time>
      </trkpt>
      <trkpt lat="43.317300" lon="-5.574770">
        <ele>411.067</ele>
        <time>2020-05-24T21:01:10Z</time>
      </trkpt>
      <trkpt lat="43.317330" lon="-5.574840">
        <ele>410.481</ele>
        <time>2020-05-24T21:01:30Z</time>
      </trkpt>
      <trkpt lat="43.317370" lon="-5.574950">
        <ele>409.119</ele>
        <time>2020-05-24T21:01:50Z</time>
      </trkpt>
      <trkpt lat="43.317440" lon="-5.575140">
        <ele>407.008</ele>
        <time>2020-05-24T21:02:10Z</time>
      </trkpt>
      <trkpt lat="43.317500" lon="-5.575260">
        <ele>406.410</ele>
        <time>2020-05-24T21:02:30Z</time>
      </trkpt>
      <trkpt lat="43.317540" lon="-5.575350">
        <ele>405.565</ele>
        <time>2020-05-24T21:02:50Z</time>
      </trkpt>
      <trkpt lat="43.317560" lon="-5.575380">
        <ele>405.342</ele>
        <time>2020-05-24T21:03:10Z</time>
      </trkpt>
      <trkpt lat="43.317600" lon="-5.575480">
        <ele>404.478</ele>
        <time>2020-05-24T21:03:30Z</time>
      </trkpt>
      <trkpt lat="43.317640" lon="-5.575560">
        <ele>404.157</ele>
        <time>2020-05-24T21:03:50Z</time>
      </trkpt>
      <trkpt lat="43.317640" lon="-5.575570">
        <ele>404.298</ele>
        <time>2020-05-24T21:04:10Z</time>
      </trkpt>
      <trkpt lat="43.317660" lon="-5.575610">
        <ele>405.397</ele>
        <time>2020-05-24T21:04:30Z</time>
      </trkpt>
      <trkpt lat="43.317660" lon="-5.575640">
        <ele>405.750</ele>
        <time>2020-05-24T21:04:50Z</time>
      </trkpt>
      <trkpt lat="43.317670" lon="-5.575670">
        <ele>406.486</ele>
        <time>2020-05-24T21:05:10Z</time>
      </trkpt>
      <trkpt lat="43.317660" lon="-5.575710">
        <ele>406.860</ele>
        <time>2020-05-24T21:05:30Z</time>
      </trkpt>
      <trkpt lat="43.317650" lon="-5.575740">
        <ele>406.926</ele>
        <time>2020-05-24T21:05:50Z</time>
      </trkpt>
      <trkpt lat="43.317630" lon="-5.575770">
        <ele>406.808</ele>
        <time>2020-05-24T21:06:10Z</time>
      </trkpt>
      <trkpt lat="43.317620" lon="-5.575780">
        <ele>406.762</ele>
        <time>2020-05-24T21:06:30Z</time>
      </trkpt>
      <trkpt lat="43.317600" lon="-5.575790">
        <ele>406.327</ele>
        <time>2020-05-24T21:06:50Z</time>
      </trkpt>
      <trkpt lat="43.317590" lon="-5.575800">
        <ele>406.274</ele>
        <time>2020-05-24T21:07:10Z</time>
      </trkpt>
      <trkpt lat="43.317570" lon="-5.575800">
        <ele>405.690</ele>
        <time>2020-05-24T21:07:30Z</time>
      </trkpt>
      <trkpt lat="43.317550" lon="-5.575800">
        <ele>405.069</ele>
        <time>2020-05-24T21:07:50Z</time>
      </trkpt>
      <trkpt lat="43.317530" lon="-5.575790">
        <ele>404.450</ele>
        <time>2020-05-24T21:08:10Z</time>
      </trkpt>
      <trkpt lat="43.317460" lon="-5.575740">
        <ele>402.269</ele>
        <time>2020-05-24T21:08:30Z</time>
      </trkpt>
      <trkpt lat="43.317457" lon="-5.575741">
        <ele>402.112</ele>
        <time>2020-05-24T21:08:50Z</time>
      </trkpt>
      <trkpt lat="43.317470" lon="-5.575640">
        <ele>401.222</ele>
        <time>2020-05-24T21:09:10Z</time>
      </trkpt>
      <trkpt lat="43.317470" lon="-5.575580">
        <ele>400.562</ele>
        <time>2020-05-24T21:09:30Z</time>
      </trkpt>
      <trkpt lat="43.317460" lon="-5.575530">
        <ele>400.408</ele>
        <time>2020-05-24T21:09:50Z</time>
      </trkpt>
      <trkpt lat="43.317450" lon="-5.575480">
        <ele>401.008</ele>
        <time>2020-05-24T21:10:10Z</time>
      </trkpt>
      <trkpt lat="43.317430" lon="-5.575430">
        <ele>401.386</ele>
        <time>2020-05-24T21:10:30Z</time>
      </trkpt>
      <trkpt lat="43.317410" lon="-5.575390">
        <ele>401.361</ele>
        <time>2020-05-24T21:10:50Z</time>
      </trkpt>
      <trkpt lat="43.317350" lon="-5.575310">
        <ele>400.728</ele>
        <time>2020-05-24T21:11:10Z</time>
      </trkpt>
      <trkpt lat="43.317250" lon="-5.575230">
        <ele>398.964</ele>
        <time>2020-05-24T21:11:30Z</time>
      </trkpt>
      <trkpt lat="43.317200" lon="-5.575180">
        <ele>398.683</ele>
        <time>2020-05-24T21:11:50Z</time>
      </trkpt>
      <trkpt lat="43.317120" lon="-5.575100">
        <ele>398.384</ele>
        <time>2020-05-24T21:12:10Z</time>
      </trkpt>
      <trkpt lat="43.317110" lon="-5.575090">
        <ele>398.213</ele>
        <time>2020-05-24T21:12:30Z</time>
      </trkpt>
      <trkpt lat="43.316970" lon="-5.574960">
        <ele>397.236</ele>
        <time>2020-05-24T21:12:50Z</time>
      </trkpt>
      <trkpt lat="43.316900" lon="-5.574850">
        <ele>397.068</ele>
        <time>2020-05-24T21:13:10Z</time>
      </trkpt>
      <trkpt lat="43.316850" lon="-5.574760">
        <ele>396.842</ele>
        <time>2020-05-24T21:13:30Z</time>
      </trkpt>
      <trkpt lat="43.316850" lon="-5.574750">
        <ele>396.926</ele>
        <time>2020-05-24T21:13:50Z</time>
      </trkpt>
      <trkpt lat="43.316800" lon="-5.574650">
        <ele>395.908</ele>
        <time>2020-05-24T21:14:10Z</time>
      </trkpt>
      <trkpt lat="43.316780" lon="-5.574600">
        <ele>395.390</ele>
        <time>2020-05-24T21:14:30Z</time>
      </trkpt>
      <trkpt lat="43.316770" lon="-5.574520">
        <ele>395.235</ele>
        <time>2020-05-24T21:14:50Z</time>
      </trkpt>
      <trkpt lat="43.316760" lon="-5.574480">
        <ele>395.042</ele>
        <time>2020-05-24T21:15:10Z</time>
      </trkpt>
      <trkpt lat="43.316770" lon="-5.574420">
        <ele>394.938</ele>
        <time>2020-05-24T21:15:30Z</time>
      </trkpt>
      <trkpt lat="43.316800" lon="-5.574320">
        <ele>394.167</ele>
        <time>2020-05-24T21:15:50Z</time>
      </trkpt>
      <trkpt lat="43.316850" lon="-5.574230">
        <ele>393.918</ele>
        <time>2020-05-24T21:16:10Z</time>
      </trkpt>
      <trkpt lat="43.316870" lon="-5.574170">
        <ele>393.487</ele>
        <time>2020-05-24T21:16:30Z</time>
      </trkpt>
      <trkpt lat="43.316890" lon="-5.574100">
        <ele>393.480</ele>
        <time>2020-05-24T21:16:50Z</time>
      </trkpt>
      <trkpt lat="43.316890" lon="-5.574080">
        <ele>393.329</ele>
        <time>2020-05-24T21:17:10Z</time>
      </trkpt>
      <trkpt lat="43.316900" lon="-5.573980">
        <ele>393.000</ele>
        <time>2020-05-24T21:17:30Z</time>
      </trkpt>
      <trkpt lat="43.316890" lon="-5.573850">
        <ele>392.620</ele>
        <time>2020-05-24T21:17:50Z</time>
      </trkpt>
      <trkpt lat="43.316870" lon="-5.573730">
        <ele>392.808</ele>
        <time>2020-05-24T21:18:10Z</time>
      </trkpt>
      <trkpt lat="43.316830" lon="-5.573600">
        <ele>392.196</ele>
        <time>2020-05-24T21:18:30Z</time>
      </trkpt>
      <trkpt lat="43.316800" lon="-5.573490">
        <ele>391.261</ele>
        <time>2020-05-24T21:18:50Z</time>
      </trkpt>
      <trkpt lat="43.316770" lon="-5.573370">
        <ele>390.368</ele>
        <time>2020-05-24T21:19:10Z</time>
      </trkpt>
      <trkpt lat="43.316770" lon="-5.573360">
        <ele>390.484</ele>
        <time>2020-05-24T21:19:30Z</time>
      </trkpt>
      <trkpt lat="43.316740" lon="-5.573250">
        <ele>388.743</ele>
        <time>2020-05-24T21:19:50Z</time>
      </trkpt>
      <trkpt lat="43.316740" lon="-5.573190">
        <ele>388.474</ele>
        <time>2020-05-24T21:20:10Z</time>
      </trkpt>
      <trkpt lat="43.316730" lon="-5.573130">
        <ele>387.733</ele>
        <time>2020-05-24T21:20:30Z</time>
      </trkpt>
      <trkpt lat="43.316730" lon="-5.573120">
        <ele>387.646</ele>
        <time>2020-05-24T21:20:50Z</time>
      </trkpt>
      <trkpt lat="43.316730" lon="-5.573060">
        <ele>387.344</ele>
        <time>2020-05-24T21:21:10Z</time>
      </trkpt>
      <trkpt lat="43.316740" lon="-5.572990">
        <ele>386.605</ele>
        <time>2020-05-24T21:21:30Z</time>
      </trkpt>
      <trkpt lat="43.316760" lon="-5.572940">
        <ele>386.415</ele>
        <time>2020-05-24T21:21:50Z</time>
      </trkpt>
      <trkpt lat="43.316790" lon="-5.572860">
        <ele>386.008</ele>
        <time>2020-05-24T21:22:10Z</time>
      </trkpt>
      <trkpt lat="43.316890" lon="-5.572670">
        <ele>385.648</ele>
        <time>2020-05-24T21:22:30Z</time>
      </trkpt>
      <trkpt lat="43.316930" lon="-5.572580">
        <ele>385.123</ele>
        <time>2020-05-24T21:22:50Z</time>
      </trkpt>
      <trkpt lat="43.316980" lon="-5.572490">
        <ele>384.750</ele>
        <time>2020-05-24T21:23:10Z</time>
      </trkpt>
      <trkpt lat="43.316990" lon="-5.572490">
        <ele>384.956</ele>
        <time>2020-05-24T21:23:30Z</time>
      </trkpt>
      <trkpt lat="43.317030" lon="-5.572390">
        <ele>384.445</ele>
        <time>2020-05-24T21:23:50Z</time>
      </trkpt>
      <trkpt lat="43.317060" lon="-5.572300">
        <ele>383.746</ele>
        <time>2020-05-24T21:24:10Z</time>
      </trkpt>
      <trkpt lat="43.317070" lon="-5.572240">
        <ele>383.155</ele>
        <time>2020-05-24T21:24:30Z</time>
      </trkpt>
      <trkpt lat="43.317070" lon="-5.572180">
        <ele>382.388</ele>
        <time>2020-05-24T21:24:50Z</time>
      </trkpt>
      <trkpt lat="43.317070" lon="-5.572140">
        <ele>381.853</ele>
        <time>2020-05-24T21:25:10Z</time>
      </trkpt>
      <trkpt lat="43.317060" lon="-5.572110">
        <ele>381.304</ele>
        <time>2020-05-24T21:25:30Z</time>
      </trkpt>
      <trkpt lat="43.317050" lon="-5.572100">
        <ele>381.014</ele>
        <time>2020-05-24T21:25:50Z</time>
      </trkpt>
      <trkpt lat="43.317030" lon="-5.572080">
        <ele>380.508</ele>
        <time>2020-05-24T21:26:10Z</time>
      </trkpt>
      <trkpt lat="43.317010" lon="-5.572060">
        <ele>380.169</ele>
        <time>2020-05-24T21:26:30Z</time>
      </trkpt>
      <trkpt lat="43.316990" lon="-5.572050">
        <ele>379.714</ele>
        <time>2020-05-24T21:26:50Z</time>
      </trkpt>
      <trkpt lat="43.316960" lon="-5.572050">
        <ele>379.351</ele>
        <time>2020-05-24T21:27:10Z</time>
      </trkpt>
      <trkpt lat="43.316940" lon="-5.572050">
        <ele>379.067</ele>
        <time>2020-05-24T21:27:30Z</time>
      </trkpt>
      <trkpt lat="43.316910" lon="-5.572060">
        <ele>378.516</ele>
        <time>2020-05-24T21:27:50Z</time>
      </trkpt>
      <trkpt lat="43.316870" lon="-5.572080">
        <ele>377.987</ele>
        <time>2020-05-24T21:28:10Z</time>
      </trkpt>
      <trkpt lat="43.316850" lon="-5.572090">
        <ele>377.576</ele>
        <time>2020-05-24T21:28:30Z</time>
      </trkpt>
      <trkpt lat="43.316820" lon="-5.572110">
        <ele>377.169</ele>
        <time>2020-05-24T21:28:50Z</time>
      </trkpt>
      <trkpt lat="43.316790" lon="-5.572140">
        <ele>376.892</ele>
        <time>2020-05-24T21:29:10Z</time>
      </trkpt>
      <trkpt lat="43.316750" lon="-5.572210">
        <ele>376.773</ele>
        <time>2020-05-24T21:29:30Z</time>
      </trkpt>
      <trkpt lat="43.316660" lon="-5.572370">
        <ele>376.420</ele>
        <time>2020-05-24T21:29:50Z</time>
      </trkpt>
      <trkpt lat="43.316610" lon="-5.572480">
        <ele>376.008</ele>
        <time>2020-05-24T21:30:10Z</time>
      </trkpt>
      <trkpt lat="43.316590" lon="-5.572530">
        <ele>375.863</ele>
        <time>2020-05-24T21:30:30Z</time>
      </trkpt>
      <trkpt lat="43.316530" lon="-5.572670">
        <ele>375.148</ele>
        <time>2020-05-24T21:30:50Z</time>
      </trkpt>
      <trkpt lat="43.316480" lon="-5.572810">
        <ele>374.785</ele>
        <time>2020-05-24T21:31:10Z</time>
      </trkpt>
      <trkpt lat="43.316230" lon="-5.573280">
        <ele>370.771</ele>
        <time>2020-05-24T21:31:30Z</time>
      </trkpt>
      <trkpt lat="43.316140" lon="-5.573450">
        <ele>369.620</ele>
        <time>2020-05-24T21:31:50Z</time>
      </trkpt>
      <trkpt lat="43.316080" lon="-5.573600">
        <ele>369.111</ele>
        <time>2020-05-24T21:32:10Z</time>
      </trkpt>
      <trkpt lat="43.315960" lon="-5.573950">
        <ele>368.820</ele>
        <time>2020-05-24T21:32:30Z</time>
      </trkpt>
      <trkpt lat="43.315960" lon="-5.573960">
        <ele>368.923</ele>
        <time>2020-05-24T21:32:50Z</time>
      </trkpt>
      <trkpt lat="43.315910" lon="-5.574070">
        <ele>368.324</ele>
        <time>2020-05-24T21:33:10Z</time>
      </trkpt>
      <trkpt lat="43.315860" lon="-5.574160">
        <ele>366.904</ele>
        <time>2020-05-24T21:33:30Z</time>
      </trkpt>
      <trkpt lat="43.315830" lon="-5.574190">
        <ele>366.314</ele>
        <time>2020-05-24T21:33:50Z</time>
      </trkpt>
      <trkpt lat="43.315800" lon="-5.574220">
        <ele>366.808</ele>
        <time>2020-05-24T21:34:10Z</time>
      </trkpt>
      <trkpt lat="43.315760" lon="-5.574240">
        <ele>367.316</ele>
        <time>2020-05-24T21:34:30Z</time>
      </trkpt>
      <trkpt lat="43.315730" lon="-5.574240">
        <ele>367.591</ele>
        <time>2020-05-24T21:34:50Z</time>
      </trkpt>
      <trkpt lat="43.315710" lon="-5.574240">
        <ele>367.758</ele>
        <time>2020-05-24T21:35:10Z</time>
      </trkpt>
      <trkpt lat="43.315700" lon="-5.574240">
        <ele>367.874</ele>
        <time>2020-05-24T21:35:30Z</time>
      </trkpt>
      <trkpt lat="43.315670" lon="-5.574240">
        <ele>368.063</ele>
        <time>2020-05-24T21:35:50Z</time>
      </trkpt>
      <trkpt lat="43.315650" lon="-5.574220">
        <ele>367.954</ele>
        <time>2020-05-24T21:36:10Z</time>
      </trkpt>
      <trkpt lat="43.315640" lon="-5.574210">
        <ele>367.923</ele>
        <time>2020-05-24T21:36:30Z</time>
      </trkpt>
      <trkpt lat="43.315610" lon="-5.574170">
        <ele>367.676</ele>
        <time>2020-05-24T21:36:50Z</time>
      </trkpt>
      <trkpt lat="43.315570" lon="-5.574100">
        <ele>367.233</ele>
        <time>2020-05-24T21:37:10Z</time>
      </trkpt>
      <trkpt lat="43.315570" lon="-5.574090">
        <ele>367.123</ele>
        <time>2020-05-24T21:37:30Z</time>
      </trkpt>
      <trkpt lat="43.315550" lon="-5.574050">
        <ele>367.015</ele>
        <time>2020-05-24T21:37:50Z</time>
      </trkpt>
      <trkpt lat="43.315530" lon="-5.574000">
        <ele>367.708</ele>
        <time>2020-05-24T21:38:10Z</time>
      </trkpt>
      <trkpt lat="43.315510" lon="-5.573920">
        <ele>368.177</ele>
        <time>2020-05-24T21:38:30Z</time>
      </trkpt>
      <trkpt lat="43.315500" lon="-5.573860">
        <ele>368.252</ele>
        <time>2020-05-24T21:38:50Z</time>
      </trkpt>
      <trkpt lat="43.315500" lon="-5.573670">
        <ele>366.869</ele>
        <time>2020-05-24T21:39:10Z</time>
      </trkpt>
      <trkpt lat="43.315510" lon="-5.573480">
        <ele>364.345</ele>
        <time>2020-05-24T21:39:30Z</time>
      </trkpt>
      <trkpt lat="43.315500" lon="-5.573370">
        <ele>363.654</ele>
        <time>2020-05-24T21:39:50Z</time>
      </trkpt>
      <trkpt lat="43.315490" lon="-5.573250">
        <ele>363.125</ele>
        <time>2020-05-24T21:40:10Z</time>
      </trkpt>
      <trkpt lat="43.315470" lon="-5.573120">
        <ele>363.394</ele>
        <time>2020-05-24T21:40:30Z</time>
      </trkpt>
      <trkpt lat="43.315460" lon="-5.573030">
        <ele>363.427</ele>
        <time>2020-05-24T21:40:50Z</time>
      </trkpt>
      <trkpt lat="43.315450" lon="-5.572890">
        <ele>363.323</ele>
        <time>2020-05-24T21:41:10Z</time>
      </trkpt>
      <trkpt lat="43.315450" lon="-5.572880">
        <ele>363.383</ele>
        <time>2020-05-24T21:41:30Z</time>
      </trkpt>
      <trkpt lat="43.315430" lon="-5.572720">
        <ele>362.811</ele>
        <time>2020-05-24T21:41:50Z</time>
      </trkpt>
      <trkpt lat="43.315420" lon="-5.572630">
        <ele>361.708</ele>
        <time>2020-05-24T21:42:10Z</time>
      </trkpt>
      <trkpt lat="43.315410" lon="-5.572570">
        <ele>361.016</ele>
        <time>2020-05-24T21:42:30Z</time>
      </trkpt>
      <trkpt lat="43.315360" lon="-5.572410">
        <ele>359.941</ele>
        <time>2020-05-24T21:42:50Z</time>
      </trkpt>
      <trkpt lat="43.315280" lon="-5.572180">
        <ele>358.888</ele>
        <time>2020-05-24T21:43:10Z</time>
      </trkpt>
      <trkpt lat="43.315250" lon="-5.572060">
        <ele>359.144</ele>
        <time>2020-05-24T21:43:30Z</time>
      </trkpt>
      <trkpt lat="43.315240" lon="-5.572000">
        <ele>359.053</ele>
        <time>2020-05-24T21:43:50Z</time>
      </trkpt>
      <trkpt lat="43.315240" lon="-5.571940">
        <ele>358.894</ele>
        <time>2020-05-24T21:44:10Z</time>
      </trkpt>
      <trkpt lat="43.315240" lon="-5.571930">
        <ele>358.753</ele>
        <time>2020-05-24T21:44:30Z</time>
      </trkpt>
      <trkpt lat="43.315250" lon="-5.571810">
        <ele>357.736</ele>
        <time>2020-05-24T21:44:50Z</time>
      </trkpt>
      <trkpt lat="43.315280" lon="-5.571570">
        <ele>355.277</ele>
        <time>2020-05-24T21:45:10Z</time>
      </trkpt>
      <trkpt lat="43.315290" lon="-5.571500">
        <ele>354.461</ele>
        <time>2020-05-24T21:45:30Z</time>
      </trkpt>
      <trkpt lat="43.315290" lon="-5.571450">
        <ele>354.127</ele>
        <time>2020-05-24T21:45:50Z</time>
      </trkpt>
      <trkpt lat="43.315290" lon="-5.571420">
        <ele>353.908</ele>
        <time>2020-05-24T21:46:10Z</time>
      </trkpt>
      <trkpt lat="43.315280" lon="-5.571330">
        <ele>353.791</ele>
        <time>2020-05-24T21:46:30Z</time>
      </trkpt>
      <trkpt lat="43.315270" lon="-5.571180">
        <ele>353.586</ele>
        <time>2020-05-24T21:46:50Z</time>
      </trkpt>
      <trkpt lat="43.315260" lon="-5.571040">
        <ele>353.413</ele>
        <time>2020-05-24T21:47:10Z</time>
      </trkpt>
      <trkpt lat="43.315260" lon="-5.570960">
        <ele>353.179</ele>
        <time>2020-05-24T21:47:30Z</time>
      </trkpt>
      <trkpt lat="43.315260" lon="-5.570880">
        <ele>352.828</ele>
        <time>2020-05-24T21:47:50Z</time>
      </trkpt>
      <trkpt lat="43.315270" lon="-5.570780">
        <ele>352.349</ele>
        <time>2020-05-24T21:48:10Z</time>
      </trkpt>
      <trkpt lat="43.315280" lon="-5.570670">
        <ele>351.948</ele>
        <time>2020-05-24T21:48:30Z</time>
      </trkpt>
      <trkpt lat="43.315330" lon="-5.570340">
        <ele>349.751</ele>
        <time>2020-05-24T21:48:50Z</time>
      </trkpt>
      <trkpt lat="43.315340" lon="-5.570200">
        <ele>348.938</ele>
        <time>2020-05-24T21:49:10Z</time>
      </trkpt>
      <trkpt lat="43.315350" lon="-5.570140">
        <ele>348.470</ele>
        <time>2020-05-24T21:49:30Z</time>
      </trkpt>
      <trkpt lat="43.315350" lon="-5.570080">
        <ele>348.217</ele>
        <time>2020-05-24T21:49:50Z</time>
      </trkpt>
      <trkpt lat="43.315350" lon="-5.570030">
        <ele>348.008</ele>
        <time>2020-05-24T21:50:10Z</time>
      </trkpt>
      <trkpt lat="43.315340" lon="-5.569970">
        <ele>347.717</ele>
        <time>2020-05-24T21:50:30Z</time>
      </trkpt>
      <trkpt lat="43.315330" lon="-5.569910">
        <ele>347.182</ele>
        <time>2020-05-24T21:50:50Z</time>
      </trkpt>
      <trkpt lat="43.315320" lon="-5.569870">
        <ele>346.759</ele>
        <time>2020-05-24T21:51:10Z</time>
      </trkpt>
      <trkpt lat="43.315280" lon="-5.569810">
        <ele>346.595</ele>
        <time>2020-05-24T21:51:30Z</time>
      </trkpt>
      <trkpt lat="43.315250" lon="-5.569780">
        <ele>346.324</ele>
        <time>2020-05-24T21:51:50Z</time>
      </trkpt>
      <trkpt lat="43.315240" lon="-5.569760">
        <ele>346.075</ele>
        <time>2020-05-24T21:52:10Z</time>
      </trkpt>
      <trkpt lat="43.315190" lon="-5.569690">
        <ele>345.174</ele>
        <time>2020-05-24T21:52:30Z</time>
      </trkpt>
      <trkpt lat="43.315120" lon="-5.569610">
        <ele>344.697</ele>
        <time>2020-05-24T21:52:50Z</time>
      </trkpt>
      <trkpt lat="43.315110" lon="-5.569600">
        <ele>344.562</ele>
        <time>2020-05-24T21:53:10Z</time>
      </trkpt>
      <trkpt lat="43.315030" lon="-5.569520">
        <ele>344.483</ele>
        <time>2020-05-24T21:53:30Z</time>
      </trkpt>
      <trkpt lat="43.314960" lon="-5.569440">
        <ele>344.211</ele>
        <time>2020-05-24T21:53:50Z</time>
      </trkpt>
      <trkpt lat="43.314880" lon="-5.569350">
        <ele>343.708</ele>
        <time>2020-05-24T21:54:10Z</time>
      </trkpt>
      <trkpt lat="43.314840" lon="-5.569300">
        <ele>343.470</ele>
        <time>2020-05-24T21:54:30Z</time>
      </trkpt>
      <trkpt lat="43.314820" lon="-5.569270">
        <ele>343.235</ele>
        <time>2020-05-24T21:54:50Z</time>
      </trkpt>
      <trkpt lat="43.314760" lon="-5.569160">
        <ele>342.532</ele>
        <time>2020-05-24T21:55:10Z</time>
      </trkpt>
      <trkpt lat="43.314740" lon="-5.569110">
        <ele>342.418</ele>
        <time>2020-05-24T21:55:30Z</time>
      </trkpt>
      <trkpt lat="43.314740" lon="-5.569100">
        <ele>342.347</ele>
        <time>2020-05-24T21:55:50Z</time>
      </trkpt>
      <trkpt lat="43.314720" lon="-5.569040">
        <ele>342.198</ele>
        <time>2020-05-24T21:56:10Z</time>
      </trkpt>
      <trkpt lat="43.314710" lon="-5.568980">
        <ele>341.917</ele>
        <time>2020-05-24T21:56:30Z</time>
      </trkpt>
      <trkpt lat="43.314690" lon="-5.568910">
        <ele>341.680</ele>
        <time>2020-05-24T21:56:50Z</time>
      </trkpt>
      <trkpt lat="43.314680" lon="-5.568860">
        <ele>341.518</ele>
        <time>2020-05-24T21:57:10Z</time>
      </trkpt>
      <trkpt lat="43.314540" lon="-5.568380">
        <ele>340.798</ele>
        <time>2020-05-24T21:57:30Z</time>
      </trkpt>
      <trkpt lat="43.314500" lon="-5.568300">
        <ele>340.717</ele>
        <time>2020-05-24T21:57:50Z</time>
      </trkpt>
      <trkpt lat="43.314470" lon="-5.568240">
        <ele>340.608</ele>
        <time>2020-05-24T21:58:10Z</time>
      </trkpt>
      <trkpt lat="43.314420" lon="-5.568170">
        <ele>340.885</ele>
        <time>2020-05-24T21:58:30Z</time>
      </trkpt>
      <trkpt lat="43.314120" lon="-5.567920">
        <ele>341.610</ele>
        <time>2020-05-24T21:58:50Z</time>
      </trkpt>
      <trkpt lat="43.313970" lon="-5.567800">
        <ele>340.977</ele>
        <time>2020-05-24T21:59:10Z</time>
      </trkpt>
      <trkpt lat="43.313960" lon="-5.567780">
        <ele>340.363</ele>
        <time>2020-05-24T21:59:30Z</time>
      </trkpt>
      <trkpt lat="43.313880" lon="-5.567710">
        <ele>340.622</ele>
        <time>2020-05-24T21:59:50Z</time>
      </trkpt>
      <trkpt lat="43.313830" lon="-5.567650">
        <ele>340.783</ele>
        <time>2020-05-24T22:00:10Z</time>
      </trkpt>
      <trkpt lat="43.313800" lon="-5.567600">
        <ele>340.672</ele>
        <time>2020-05-24T22:00:30Z</time>
      </trkpt>
      <trkpt lat="43.313760" lon="-5.567530">
        <ele>340.225</ele>
        <time>2020-05-24T22:00:50Z</time>
      </trkpt>
      <trkpt lat="43.313720" lon="-5.567450">
        <ele>340.074</ele>
        <time>2020-05-24T22:01:10Z</time>
      </trkpt>
      <trkpt lat="43.313690" lon="-5.567350">
        <ele>339.956</ele>
        <time>2020-05-24T22:01:30Z</time>
      </trkpt>
      <trkpt lat="43.313650" lon="-5.567220">
        <ele>339.721</ele>
        <time>2020-05-24T22:01:50Z</time>
      </trkpt>
      <trkpt lat="43.313620" lon="-5.567110">
        <ele>339.908</ele>
        <time>2020-05-24T22:02:10Z</time>
      </trkpt>
      <trkpt lat="43.313610" lon="-5.567000">
        <ele>340.081</ele>
        <time>2020-05-24T22:02:30Z</time>
      </trkpt>
      <trkpt lat="43.313610" lon="-5.566890">
        <ele>340.066</ele>
        <time>2020-05-24T22:02:50Z</time>
      </trkpt>
      <trkpt lat="43.313620" lon="-5.566770">
        <ele>339.913</ele>
        <time>2020-05-24T22:03:10Z</time>
      </trkpt>
      <trkpt lat="43.313680" lon="-5.566580">
        <ele>339.229</ele>
        <time>2020-05-24T22:03:30Z</time>
      </trkpt>
      <trkpt lat="43.313790" lon="-5.566250">
        <ele>340.838</ele>
        <time>2020-05-24T22:03:50Z</time>
      </trkpt>
      <trkpt lat="43.313810" lon="-5.566230">
        <ele>341.169</ele>
        <time>2020-05-24T22:04:10Z</time>
      </trkpt>
      <trkpt lat="43.313820" lon="-5.566220">
        <ele>341.318</ele>
        <time>2020-05-24T22:04:30Z</time>
      </trkpt>
      <trkpt lat="43.313840" lon="-5.566210">
        <ele>341.531</ele>
        <time>2020-05-24T22:04:50Z</time>
      </trkpt>
      <trkpt lat="43.313850" lon="-5.566200">
        <ele>341.654</ele>
        <time>2020-05-24T22:05:10Z</time>
      </trkpt>
      <trkpt lat="43.313870" lon="-5.566200">
        <ele>341.756</ele>
        <time>2020-05-24T22:05:30Z</time>
      </trkpt>
      <trkpt lat="43.313900" lon="-5.566190">
        <ele>341.911</ele>
        <time>2020-05-24T22:05:50Z</time>
      </trkpt>
      <trkpt lat="43.313900" lon="-5.566193">
        <ele>341.808</ele>
        <time>2020-05-24T22:06:10Z</time>
      </trkpt>
      <trkpt lat="43.313960" lon="-5.566200">
        <ele>341.949</ele>
        <time>2020-05-24T22:06:30Z</time>
      </trkpt>
      <trkpt lat="43.314000" lon="-5.566210">
        <ele>341.844</ele>
        <time>2020-05-24T22:06:50Z</time>
      </trkpt>
      <trkpt lat="43.314060" lon="-5.566240">
        <ele>341.531</ele>
        <time>2020-05-24T22:07:10Z</time>
      </trkpt>
      <trkpt lat="43.314070" lon="-5.566250">
        <ele>341.327</ele>
        <time>2020-05-24T22:07:30Z</time>
      </trkpt>
      <trkpt lat="43.314190" lon="-5.566330">
        <ele>340.586</ele>
        <time>2020-05-24T22:07:50Z</time>
      </trkpt>
      <trkpt lat="43.314430" lon="-5.566490">
        <ele>341.027</ele>
        <time>2020-05-24T22:08:10Z</time>
      </trkpt>
      <trkpt lat="43.314580" lon="-5.566600">
        <ele>340.236</ele>
        <time>2020-05-24T22:08:30Z</time>
      </trkpt>
      <trkpt lat="43.314650" lon="-5.566660">
        <ele>338.989</ele>
        <time>2020-05-24T22:08:50Z</time>
      </trkpt>
      <trkpt lat="43.314750" lon="-5.566800">
        <ele>338.256</ele>
        <time>2020-05-24T22:09:10Z</time>
      </trkpt>
      <trkpt lat="43.314950" lon="-5.567160">
        <ele>338.159</ele>
        <time>2020-05-24T22:09:30Z</time>
      </trkpt>
      <trkpt lat="43.315030" lon="-5.567270">
        <ele>337.914</ele>
        <time>2020-05-24T22:09:50Z</time>
      </trkpt>
      <trkpt lat="43.315090" lon="-5.567330">
        <ele>337.908</ele>
        <time>2020-05-24T22:10:10Z</time>
      </trkpt>
      <trkpt lat="43.315110" lon="-5.567350">
        <ele>337.899</ele>
        <time>2020-05-24T22:10:30Z</time>
      </trkpt>
      <trkpt lat="43.315150" lon="-5.567390">
        <ele>337.784</ele>
        <time>2020-05-24T22:10:50Z</time>
      </trkpt>
      <trkpt lat="43.315190" lon="-5.567430">
        <ele>337.581</ele>
        <time>2020-05-24T22:11:10Z</time>
      </trkpt>
      <trkpt lat="43.315240" lon="-5.567460">
        <ele>337.467</ele>
        <time>2020-05-24T22:11:30Z</time>
      </trkpt>
      <trkpt lat="43.315500" lon="-5.567580">
        <ele>337.696</ele>
        <time>2020-05-24T22:11:50Z</time>
      </trkpt>
      <trkpt lat="43.315600" lon="-5.567630">
        <ele>337.387</ele>
        <time>2020-05-24T22:12:10Z</time>
      </trkpt>
      <trkpt lat="43.315780" lon="-5.567670">
        <ele>337.256</ele>
        <time>2020-05-24T22:12:30Z</time>
      </trkpt>
      <trkpt lat="43.315870" lon="-5.567690">
        <ele>336.869</ele>
        <time>2020-05-24T22:12:50Z</time>
      </trkpt>
      <trkpt lat="43.315970" lon="-5.567710">
        <ele>336.028</ele>
        <time>2020-05-24T22:13:10Z</time>
      </trkpt>
      <trkpt lat="43.316060" lon="-5.567720">
        <ele>335.489</ele>
        <time>2020-05-24T22:13:30Z</time>
      </trkpt>
      <trkpt lat="43.316150" lon="-5.567730">
        <ele>335.017</ele>
        <time>2020-05-24T22:13:50Z</time>
      </trkpt>
      <trkpt lat="43.316250" lon="-5.567750">
        <ele>334.508</ele>
        <time>2020-05-24T22:14:10Z</time>
      </trkpt>
      <trkpt lat="43.316340" lon="-5.567760">
        <ele>334.366</ele>
        <time>2020-05-24T22:14:30Z</time>
      </trkpt>
      <trkpt lat="43.316490" lon="-5.567780">
        <ele>334.021</ele>
        <time>2020-05-24T22:14:50Z</time>
      </trkpt>
      <trkpt lat="43.316540" lon="-5.567790">
        <ele>333.968</ele>
        <time>2020-05-24T22:15:10Z</time>
      </trkpt>
      <trkpt lat="43.316630" lon="-5.567810">
        <ele>333.784</ele>
        <time>2020-05-24T22:15:30Z</time>
      </trkpt>
      <trkpt lat="43.316720" lon="-5.567820">
        <ele>333.413</ele>
        <time>2020-05-24T22:15:50Z</time>
      </trkpt>
      <trkpt lat="43.316820" lon="-5.567840">
        <ele>332.874</ele>
        <time>2020-05-24T22:16:10Z</time>
      </trkpt>
      <trkpt lat="43.316910" lon="-5.567870">
        <ele>332.143</ele>
        <time>2020-05-24T22:16:30Z</time>
      </trkpt>
      <trkpt lat="43.316960" lon="-5.567890">
        <ele>331.856</ele>
        <time>2020-05-24T22:16:50Z</time>
      </trkpt>
      <trkpt lat="43.317020" lon="-5.567910">
        <ele>331.653</ele>
        <time>2020-05-24T22:17:10Z</time>
      </trkpt>
      <trkpt lat="43.317070" lon="-5.567940">
        <ele>331.204</ele>
        <time>2020-05-24T22:17:30Z</time>
      </trkpt>
      <trkpt lat="43.317100" lon="-5.567950">
        <ele>331.114</ele>
        <time>2020-05-24T22:17:50Z</time>
      </trkpt>
      <trkpt lat="43.317190" lon="-5.568010">
        <ele>330.508</ele>
        <time>2020-05-24T22:18:10Z</time>
      </trkpt>
      <trkpt lat="43.317240" lon="-5.568030">
        <ele>330.389</ele>
        <time>2020-05-24T22:18:30Z</time>
      </trkpt>
      <trkpt lat="43.317360" lon="-5.568100">
        <ele>329.844</ele>
        <time>2020-05-24T22:18:50Z</time>
      </trkpt>
      <trkpt lat="43.317420" lon="-5.568130">
        <ele>329.731</ele>
        <time>2020-05-24T22:19:10Z</time>
      </trkpt>
      <trkpt lat="43.317500" lon="-5.568140">
        <ele>329.757</ele>
        <time>2020-05-24T22:19:30Z</time>
      </trkpt>
      <trkpt lat="43.317590" lon="-5.568150">
        <ele>329.426</ele>
        <time>2020-05-24T22:19:50Z</time>
      </trkpt>
      <trkpt lat="43.317690" lon="-5.568150">
        <ele>329.297</ele>
        <time>2020-05-24T22:20:10Z</time>
      </trkpt>
      <trkpt lat="43.317710" lon="-5.568150">
        <ele>329.256</ele>
        <time>2020-05-24T22:20:30Z</time>
      </trkpt>
      <trkpt lat="43.317880" lon="-5.568140">
        <ele>328.859</ele>
        <time>2020-05-24T22:20:50Z</time>
      </trkpt>
      <trkpt lat="43.317970" lon="-5.568140">
        <ele>328.665</ele>
        <time>2020-05-24T22:21:10Z</time>
      </trkpt>
      <trkpt lat="43.318160" lon="-5.568130">
        <ele>328.268</ele>
        <time>2020-05-24T22:21:30Z</time>
      </trkpt>
      <trkpt lat="43.318260" lon="-5.568120">
        <ele>328.014</ele>
        <time>2020-05-24T22:21:50Z</time>
      </trkpt>
      <trkpt lat="43.318350" lon="-5.568120">
        <ele>327.808</ele>
        <time>2020-05-24T22:22:10Z</time>
      </trkpt>
      <trkpt lat="43.318430" lon="-5.568110">
        <ele>327.720</ele>
        <time>2020-05-24T22:22:30Z</time>
      </trkpt>
      <trkpt lat="43.318480" lon="-5.568100">
        <ele>327.895</ele>
        <time>2020-05-24T22:22:50Z</time>
      </trkpt>
      <trkpt lat="43.318540" lon="-5.568080">
        <ele>327.822</ele>
        <time>2020-05-24T22:23:10Z</time>
      </trkpt>
      <trkpt lat="43.318620" lon="-5.568050">
        <ele>328.078</ele>
        <time>2020-05-24T22:23:30Z</time>
      </trkpt>
      <trkpt lat="43.319260" lon="-5.567740">
        <ele>327.077</ele>
        <time>2020-05-24T22:23:50Z</time>
      </trkpt>
      <trkpt lat="43.319530" lon="-5.567620">
        <ele>326.588</ele>
        <time>2020-05-24T22:24:10Z</time>
      </trkpt>
      <trkpt lat="43.319620" lon="-5.567580">
        <ele>326.267</ele>
        <time>2020-05-24T22:24:30Z</time>
      </trkpt>
      <trkpt lat="43.319630" lon="-5.567570">
        <ele>326.240</ele>
        <time>2020-05-24T22:24:50Z</time>
      </trkpt>
      <trkpt lat="43.319710" lon="-5.567530">
        <ele>325.975</ele>
        <time>2020-05-24T22:25:10Z</time>
      </trkpt>
      <trkpt lat="43.319910" lon="-5.567470">
        <ele>325.728</ele>
        <time>2020-05-24T22:25:30Z</time>
      </trkpt>
      <trkpt lat="43.320990" lon="-5.567030">
        <ele>322.320</ele>
        <time>2020-05-24T22:25:50Z</time>
      </trkpt>
      <trkpt lat="43.321010" lon="-5.567020">
        <ele>322.208</ele>
        <time>2020-05-24T22:26:10Z</time>
      </trkpt>
      <trkpt lat="43.321210" lon="-5.566940">
        <ele>321.661</ele>
        <time>2020-05-24T22:26:30Z</time>
      </trkpt>
      <trkpt lat="43.321310" lon="-5.566910">
        <ele>321.476</ele>
        <time>2020-05-24T22:26:50Z</time>
      </trkpt>
      <trkpt lat="43.321400" lon="-5.566860">
        <ele>321.323</ele>
        <time>2020-05-24T22:27:10Z</time>
      </trkpt>
      <trkpt lat="43.321500" lon="-5.566820">
        <ele>321.279</ele>
        <time>2020-05-24T22:27:30Z</time>
      </trkpt>
      <trkpt lat="43.321520" lon="-5.566820">
        <ele>321.238</ele>
        <time>2020-05-24T22:27:50Z</time>
      </trkpt>
      <trkpt lat="43.322050" lon="-5.566620">
        <ele>321.179</ele>
        <time>2020-05-24T22:28:10Z</time>
      </trkpt>
      <trkpt lat="43.323260" lon="-5.566150">
        <ele>318.428</ele>
        <time>2020-05-24T22:28:30Z</time>
      </trkpt>
      <trkpt lat="43.323390" lon="-5.566100">
        <ele>317.871</ele>
        <time>2020-05-24T22:28:50Z</time>
      </trkpt>
      <trkpt lat="43.323490" lon="-5.566060">
        <ele>317.492</ele>
        <time>2020-05-24T22:29:10Z</time>
      </trkpt>
      <trkpt lat="43.323670" lon="-5.566000">
        <ele>316.873</ele>
        <time>2020-05-24T22:29:30Z</time>
      </trkpt>
      <trkpt lat="43.323770" lon="-5.565980">
        <ele>316.420</ele>
        <time>2020-05-24T22:29:50Z</time>
      </trkpt>
      <trkpt lat="43.323890" lon="-5.565940">
        <ele>316.008</ele>
        <time>2020-05-24T22:30:10Z</time>
      </trkpt>
      <trkpt lat="43.324140" lon="-5.565850">
        <ele>315.953</ele>
        <time>2020-05-24T22:30:30Z</time>
      </trkpt>
      <trkpt lat="43.324320" lon="-5.565800">
        <ele>315.528</ele>
        <time>2020-05-24T22:30:50Z</time>
      </trkpt>
      <trkpt lat="43.324430" lon="-5.565780">
        <ele>315.255</ele>
        <time>2020-05-24T22:31:10Z</time>
      </trkpt>
      <trkpt lat="43.324460" lon="-5.565780">
        <ele>315.211</ele>
        <time>2020-05-24T22:31:30Z</time>
      </trkpt>
      <trkpt lat="43.324530" lon="-5.565770">
        <ele>315.240</ele>
        <time>2020-05-24T22:31:50Z</time>
      </trkpt>
      <trkpt lat="43.324580" lon="-5.565770">
        <ele>315.171</ele>
        <time>2020-05-24T22:32:10Z</time>
      </trkpt>
      <trkpt lat="43.324630" lon="-5.565790">
        <ele>315.190</ele>
        <time>2020-05-24T22:32:30Z</time>
      </trkpt>
      <trkpt lat="43.324710" lon="-5.565820">
        <ele>315.073</ele>
        <time>2020-05-24T22:32:50Z</time>
      </trkpt>
      <trkpt lat="43.324770" lon="-5.565850">
        <ele>314.938</ele>
        <time>2020-05-24T22:33:10Z</time>
      </trkpt>
      <trkpt lat="43.324810" lon="-5.565880">
        <ele>314.970</ele>
        <time>2020-05-24T22:33:30Z</time>
      </trkpt>
      <trkpt lat="43.324860" lon="-5.565920">
        <ele>314.817</ele>
        <time>2020-05-24T22:33:50Z</time>
      </trkpt>
      <trkpt lat="43.324900" lon="-5.565970">
        <ele>314.808</ele>
        <time>2020-05-24T22:34:10Z</time>
      </trkpt>
      <trkpt lat="43.325100" lon="-5.566230">
        <ele>315.437</ele>
        <time>2020-05-24T22:34:30Z</time>
      </trkpt>
      <trkpt lat="43.325220" lon="-5.566390">
        <ele>316.092</ele>
        <time>2020-05-24T22:34:50Z</time>
      </trkpt>
      <trkpt lat="43.325320" lon="-5.566490">
        <ele>316.259</ele>
        <time>2020-05-24T22:35:10Z</time>
      </trkpt>
      <trkpt lat="43.325340" lon="-5.566520">
        <ele>316.215</ele>
        <time>2020-05-24T22:35:30Z</time>
      </trkpt>
      <trkpt lat="43.325440" lon="-5.566600">
        <ele>316.284</ele>
        <time>2020-05-24T22:35:50Z</time>
      </trkpt>
      <trkpt lat="43.325530" lon="-5.566660">
        <ele>316.135</ele>
        <time>2020-05-24T22:36:10Z</time>
      </trkpt>
      <trkpt lat="43.325630" lon="-5.566710">
        <ele>316.574</ele>
        <time>2020-05-24T22:36:30Z</time>
      </trkpt>
      <trkpt lat="43.325750" lon="-5.566720">
        <ele>316.787</ele>
        <time>2020-05-24T22:36:50Z</time>
      </trkpt>
      <trkpt lat="43.325920" lon="-5.566730">
        <ele>316.776</ele>
        <time>2020-05-24T22:37:10Z</time>
      </trkpt>
      <trkpt lat="43.326090" lon="-5.566710">
        <ele>316.090</ele>
        <time>2020-05-24T22:37:30Z</time>
      </trkpt>
      <trkpt lat="43.326210" lon="-5.566680">
        <ele>315.719</ele>
        <time>2020-05-24T22:37:50Z</time>
      </trkpt>
      <trkpt lat="43.326280" lon="-5.566670">
        <ele>315.708</ele>
        <time>2020-05-24T22:38:10Z</time>
      </trkpt>
      <trkpt lat="43.326540" lon="-5.566580">
        <ele>316.011</ele>
        <time>2020-05-24T22:38:30Z</time>
      </trkpt>
      <trkpt lat="43.326720" lon="-5.566490">
        <ele>315.196</ele>
        <time>2020-05-24T22:38:50Z</time>
      </trkpt>
      <trkpt lat="43.326900" lon="-5.566410">
        <ele>313.683</ele>
        <time>2020-05-24T22:39:10Z</time>
      </trkpt>
      <trkpt lat="43.327260" lon="-5.566270">
        <ele>312.569</ele>
        <time>2020-05-24T22:39:30Z</time>
      </trkpt>
      <trkpt lat="43.327300" lon="-5.566260">
        <ele>312.498</ele>
        <time>2020-05-24T22:39:50Z</time>
      </trkpt>
      <trkpt lat="43.327470" lon="-5.566230">
        <ele>311.989</ele>
        <time>2020-05-24T22:40:10Z</time>
      </trkpt>
      <trkpt lat="43.327590" lon="-5.566240">
        <ele>311.588</ele>
        <time>2020-05-24T22:40:30Z</time>
      </trkpt>
      <trkpt lat="43.327680" lon="-5.566270">
        <ele>311.281</ele>
        <time>2020-05-24T22:40:50Z</time>
      </trkpt>
      <trkpt lat="43.327840" lon="-5.566340">
        <ele>310.775</ele>
        <time>2020-05-24T22:41:10Z</time>
      </trkpt>
      <trkpt lat="43.327950" lon="-5.566410">
        <ele>310.428</ele>
        <time>2020-05-24T22:41:30Z</time>
      </trkpt>
      <trkpt lat="43.328110" lon="-5.566490">
        <ele>309.620</ele>
        <time>2020-05-24T22:41:50Z</time>
      </trkpt>
      <trkpt lat="43.328480" lon="-5.566640">
        <ele>307.908</ele>
        <time>2020-05-24T22:42:10Z</time>
      </trkpt>
      <trkpt lat="43.328620" lon="-5.566700">
        <ele>307.741</ele>
        <time>2020-05-24T22:42:30Z</time>
      </trkpt>
      <trkpt lat="43.328670" lon="-5.566700">
        <ele>307.896</ele>
        <time>2020-05-24T22:42:50Z</time>
      </trkpt>
      <trkpt lat="43.328740" lon="-5.566700">
        <ele>307.833</ele>
        <time>2020-05-24T22:43:10Z</time>
      </trkpt>
      <trkpt lat="43.328830" lon="-5.566680">
        <ele>307.439</ele>
        <time>2020-05-24T22:43:30Z</time>
      </trkpt>
      <trkpt lat="43.328980" lon="-5.566610">
        <ele>307.278</ele>
        <time>2020-05-24T22:43:50Z</time>
      </trkpt>
      <trkpt lat="43.329140" lon="-5.566530">
        <ele>306.579</ele>
        <time>2020-05-24T22:44:10Z</time>
      </trkpt>
      <trkpt lat="43.329340" lon="-5.566440">
        <ele>305.968</ele>
        <time>2020-05-24T22:44:30Z</time>
      </trkpt>
      <trkpt lat="43.329800" lon="-5.566230">
        <ele>305.461</ele>
        <time>2020-05-24T22:44:50Z</time>
      </trkpt>
      <trkpt lat="43.330050" lon="-5.566120">
        <ele>304.168</ele>
        <time>2020-05-24T22:45:10Z</time>
      </trkpt>
      <trkpt lat="43.330190" lon="-5.566070">
        <ele>303.942</ele>
        <time>2020-05-24T22:45:30Z</time>
      </trkpt>
      <trkpt lat="43.330380" lon="-5.566040">
        <ele>303.726</ele>
        <time>2020-05-24T22:45:50Z</time>
      </trkpt>
      <trkpt lat="43.330480" lon="-5.566030">
        <ele>303.708</ele>
        <time>2020-05-24T22:46:10Z</time>
      </trkpt>
      <trkpt lat="43.330650" lon="-5.566010">
        <ele>303.410</ele>
        <time>2020-05-24T22:46:30Z</time>
      </trkpt>
      <trkpt lat="43.330830" lon="-5.565990">
        <ele>302.745</ele>
        <time>2020-05-24T22:46:50Z</time>
      </trkpt>
      <trkpt lat="43.330990" lon="-5.566010">
        <ele>302.822</ele>
        <time>2020-05-24T22:47:10Z</time>
      </trkpt>
      <trkpt lat="43.331120" lon="-5.566040">
        <ele>302.778</ele>
        <time>2020-05-24T22:47:30Z</time>
      </trkpt>
      <trkpt lat="43.331220" lon="-5.566070">
        <ele>302.517</ele>
        <time>2020-05-24T22:47:50Z</time>
      </trkpt>
      <trkpt lat="43.331730" lon="-5.566230">
        <ele>301.638</ele>
        <time>2020-05-24T22:48:10Z</time>
      </trkpt>
      <trkpt lat="43.331970" lon="-5.566310">
        <ele>301.397</ele>
        <time>2020-05-24T22:48:30Z</time>
      </trkpt>
      <trkpt lat="43.332090" lon="-5.566350">
        <ele>301.270</ele>
        <time>2020-05-24T22:48:50Z</time>
      </trkpt>
      <trkpt lat="43.332160" lon="-5.566390">
        <ele>301.219</ele>
        <time>2020-05-24T22:49:10Z</time>
      </trkpt>
      <trkpt lat="43.332190" lon="-5.566400">
        <ele>301.209</ele>
        <time>2020-05-24T22:49:30Z</time>
      </trkpt>
      <trkpt lat="43.332210" lon="-5.566420">
        <ele>301.319</ele>
        <time>2020-05-24T22:49:50Z</time>
      </trkpt>
      <trkpt lat="43.332270" lon="-5.566460">
        <ele>301.508</ele>
        <time>2020-05-24T22:50:10Z</time>
      </trkpt>
      <trkpt lat="43.332310" lon="-5.566510">
        <ele>301.715</ele>
        <time>2020-05-24T22:50:30Z</time>
      </trkpt>
      <trkpt lat="43.332360" lon="-5.566560">
        <ele>301.930</ele>
        <time>2020-05-24T22:50:50Z</time>
      </trkpt>
      <trkpt lat="43.332400" lon="-5.566610">
        <ele>302.187</ele>
        <time>2020-05-24T22:51:10Z</time>
      </trkpt>
      <trkpt lat="43.332440" lon="-5.566670">
        <ele>302.263</ele>
        <time>2020-05-24T22:51:30Z</time>
      </trkpt>
      <trkpt lat="43.332470" lon="-5.566700">
        <ele>302.262</ele>
        <time>2020-05-24T22:51:50Z</time>
      </trkpt>
      <trkpt lat="43.332560" lon="-5.566700">
        <ele>302.313</ele>
        <time>2020-05-24T22:52:10Z</time>
      </trkpt>
      <trkpt lat="43.332770" lon="-5.566750">
        <ele>303.052</ele>
        <time>2020-05-24T22:52:30Z</time>
      </trkpt>
      <trkpt lat="43.332780" lon="-5.566730">
        <ele>303.065</ele>
        <time>2020-05-24T22:52:50Z</time>
      </trkpt>
      <trkpt lat="43.332790" lon="-5.566720">
        <ele>303.013</ele>
        <time>2020-05-24T22:53:10Z</time>
      </trkpt>
      <trkpt lat="43.332790" lon="-5.566700">
        <ele>303.043</ele>
        <time>2020-05-24T22:53:30Z</time>
      </trkpt>
      <trkpt lat="43.332810" lon="-5.566690">
        <ele>302.907</ele>
        <time>2020-05-24T22:53:50Z</time>
      </trkpt>
      <trkpt lat="43.332820" lon="-5.566680">
        <ele>302.908</ele>
        <time>2020-05-24T22:54:10Z</time>
      </trkpt>
      <trkpt lat="43.332840" lon="-5.566670">
        <ele>302.845</ele>
        <time>2020-05-24T22:54:30Z</time>
      </trkpt>
      <trkpt lat="43.332850" lon="-5.566660">
        <ele>302.730</ele>
        <time>2020-05-24T22:54:50Z</time>
      </trkpt>
      <trkpt lat="43.332860" lon="-5.566660">
        <ele>302.637</ele>
        <time>2020-05-24T22:55:10Z</time>
      </trkpt>
      <trkpt lat="43.332880" lon="-5.566650">
        <ele>302.493</ele>
        <time>2020-05-24T22:55:30Z</time>
      </trkpt>
      <trkpt lat="43.332890" lon="-5.566650">
        <ele>302.482</ele>
        <time>2020-05-24T22:55:50Z</time>
      </trkpt>
      <trkpt lat="43.332910" lon="-5.566650">
        <ele>302.323</ele>
        <time>2020-05-24T22:56:10Z</time>
      </trkpt>
      <trkpt lat="43.332920" lon="-5.566650">
        <ele>302.392</ele>
        <time>2020-05-24T22:56:30Z</time>
      </trkpt>
      <trkpt lat="43.332940" lon="-5.566650">
        <ele>302.225</ele>
        <time>2020-05-24T22:56:50Z</time>
      </trkpt>
      <trkpt lat="43.332950" lon="-5.566650">
        <ele>302.287</ele>
        <time>2020-05-24T22:57:10Z</time>
      </trkpt>
      <trkpt lat="43.332970" lon="-5.566660">
        <ele>302.242</ele>
        <time>2020-05-24T22:57:30Z</time>
      </trkpt>
      <trkpt lat="43.332980" lon="-5.566660">
        <ele>302.226</ele>
        <time>2020-05-24T22:57:50Z</time>
      </trkpt>
      <trkpt lat="43.333000" lon="-5.566670">
        <ele>302.208</ele>
        <time>2020-05-24T22:58:10Z</time>
      </trkpt>
      <trkpt lat="43.333010" lon="-5.566680">
        <ele>302.232</ele>
        <time>2020-05-24T22:58:30Z</time>
      </trkpt>
      <trkpt lat="43.333020" lon="-5.566690">
        <ele>302.377</ele>
        <time>2020-05-24T22:58:50Z</time>
      </trkpt>
      <trkpt lat="43.333030" lon="-5.566710">
        <ele>302.484</ele>
        <time>2020-05-24T22:59:10Z</time>
      </trkpt>
      <trkpt lat="43.333040" lon="-5.566720">
        <ele>302.460</ele>
        <time>2020-05-24T22:59:30Z</time>
      </trkpt>
      <trkpt lat="43.333050" lon="-5.566740">
        <ele>302.539</ele>
        <time>2020-05-24T22:59:50Z</time>
      </trkpt>
      <trkpt lat="43.333070" lon="-5.566750">
        <ele>302.690</ele>
        <time>2020-05-24T23:00:10Z</time>
      </trkpt>
      <trkpt lat="43.333250" lon="-5.566730">
        <ele>302.189</ele>
        <time>2020-05-24T23:00:30Z</time>
      </trkpt>
      <trkpt lat="43.333320" lon="-5.566760">
        <ele>302.482</ele>
        <time>2020-05-24T23:00:50Z</time>
      </trkpt>
      <trkpt lat="43.333480" lon="-5.566710">
        <ele>302.491</ele>
        <time>2020-05-24T23:01:10Z</time>
      </trkpt>
      <trkpt lat="43.333510" lon="-5.566690">
        <ele>302.181</ele>
        <time>2020-05-24T23:01:30Z</time>
      </trkpt>
      <trkpt lat="43.333670" lon="-5.566630">
        <ele>301.719</ele>
        <time>2020-05-24T23:01:50Z</time>
      </trkpt>
      <trkpt lat="43.333690" lon="-5.566630">
        <ele>301.708</ele>
        <time>2020-05-24T23:02:10Z</time>
      </trkpt>
      <trkpt lat="43.333820" lon="-5.566590">
        <ele>301.443</ele>
        <time>2020-05-24T23:02:30Z</time>
      </trkpt>
      <trkpt lat="43.334060" lon="-5.566530">
        <ele>300.278</ele>
        <time>2020-05-24T23:02:50Z</time>
      </trkpt>
      <trkpt lat="43.334270" lon="-5.566490">
        <ele>300.215</ele>
        <time>2020-05-24T23:03:10Z</time>
      </trkpt>
      <trkpt lat="43.334820" lon="-5.566340">
        <ele>300.661</ele>
        <time>2020-05-24T23:03:30Z</time>
      </trkpt>
      <trkpt lat="43.335120" lon="-5.566250">
        <ele>300.260</ele>
        <time>2020-05-24T23:03:50Z</time>
      </trkpt>
      <trkpt lat="43.335380" lon="-5.566160">
        <ele>299.741</ele>
        <time>2020-05-24T23:04:10Z</time>
      </trkpt>
      <trkpt lat="43.335530" lon="-5.566120">
        <ele>299.260</ele>
        <time>2020-05-24T23:04:30Z</time>
      </trkpt>
      <trkpt lat="43.335620" lon="-5.566110">
        <ele>298.883</ele>
        <time>2020-05-24T23:04:50Z</time>
      </trkpt>
      <trkpt lat="43.335720" lon="-5.566120">
        <ele>298.626</ele>
        <time>2020-05-24T23:05:10Z</time>
      </trkpt>
      <trkpt lat="43.335800" lon="-5.566130">
        <ele>298.547</ele>
        <time>2020-05-24T23:05:30Z</time>
      </trkpt>
      <trkpt lat="43.335810" lon="-5.566130">
        <ele>298.411</ele>
        <time>2020-05-24T23:05:50Z</time>
      </trkpt>
      <trkpt lat="43.336250" lon="-5.566200">
        <ele>299.108</ele>
        <time>2020-05-24T23:06:10Z</time>
      </trkpt>
      <trkpt lat="43.336560" lon="-5.566230">
        <ele>299.066</ele>
        <time>2020-05-24T23:06:30Z</time>
      </trkpt>
      <trkpt lat="43.336700" lon="-5.566240">
        <ele>298.611</ele>
        <time>2020-05-24T23:06:50Z</time>
      </trkpt>
      <trkpt lat="43.336880" lon="-5.566270">
        <ele>297.288</ele>
        <time>2020-05-24T23:07:10Z</time>
      </trkpt>
      <trkpt lat="43.336930" lon="-5.566260">
        <ele>296.794</ele>
        <time>2020-05-24T23:07:30Z</time>
      </trkpt>
      <trkpt lat="43.337020" lon="-5.566260">
        <ele>296.273</ele>
        <time>2020-05-24T23:07:50Z</time>
      </trkpt>
      <trkpt lat="43.337080" lon="-5.566250">
        <ele>296.054</ele>
        <time>2020-05-24T23:08:10Z</time>
      </trkpt>
      <trkpt lat="43.337160" lon="-5.566230">
        <ele>295.843</ele>
        <time>2020-05-24T23:08:30Z</time>
      </trkpt>
      <trkpt lat="43.337270" lon="-5.566180">
        <ele>295.646</ele>
        <time>2020-05-24T23:08:50Z</time>
      </trkpt>
      <trkpt lat="43.337380" lon="-5.566110">
        <ele>295.474</ele>
        <time>2020-05-24T23:09:10Z</time>
      </trkpt>
      <trkpt lat="43.337480" lon="-5.566030">
        <ele>295.156</ele>
        <time>2020-05-24T23:09:30Z</time>
      </trkpt>
      <trkpt lat="43.337610" lon="-5.565910">
        <ele>295.021</ele>
        <time>2020-05-24T23:09:50Z</time>
      </trkpt>
      <trkpt lat="43.337740" lon="-5.565780">
        <ele>294.808</ele>
        <time>2020-05-24T23:10:10Z</time>
      </trkpt>
      <trkpt lat="43.337890" lon="-5.565650">
        <ele>294.771</ele>
        <time>2020-05-24T23:10:30Z</time>
      </trkpt>
      <trkpt lat="43.338020" lon="-5.565460">
        <ele>294.536</ele>
        <time>2020-05-24T23:10:50Z</time>
      </trkpt>
      <trkpt lat="43.338150" lon="-5.565220">
        <ele>294.483</ele>
        <time>2020-05-24T23:11:10Z</time>
      </trkpt>
      <trkpt lat="43.338430" lon="-5.564740">
        <ele>294.149</ele>
        <time>2020-05-24T23:11:30Z</time>
      </trkpt>
      <trkpt lat="43.338670" lon="-5.564250">
        <ele>293.828</ele>
        <time>2020-05-24T23:11:50Z</time>
      </trkpt>
      <trkpt lat="43.338850" lon="-5.563860">
        <ele>292.819</ele>
        <time>2020-05-24T23:12:10Z</time>
      </trkpt>
      <trkpt lat="43.338940" lon="-5.563680">
        <ele>292.598</ele>
        <time>2020-05-24T23:12:30Z</time>
      </trkpt>
      <trkpt lat="43.339290" lon="-5.562910">
        <ele>291.461</ele>
        <time>2020-05-24T23:12:50Z</time>
      </trkpt>
      <trkpt lat="43.339430" lon="-5.562610">
        <ele>290.421</ele>
        <time>2020-05-24T23:13:10Z</time>
      </trkpt>
      <trkpt lat="43.339470" lon="-5.562510">
        <ele>290.341</ele>
        <time>2020-05-24T23:13:30Z</time>
      </trkpt>
      <trkpt lat="43.339650" lon="-5.562130">
        <ele>289.705</ele>
        <time>2020-05-24T23:13:50Z</time>
      </trkpt>
      <trkpt lat="43.340160" lon="-5.561030">
        <ele>288.908</ele>
        <time>2020-05-24T23:14:10Z</time>
      </trkpt>
      <trkpt lat="43.340330" lon="-5.560660">
        <ele>288.856</ele>
        <time>2020-05-24T23:14:30Z</time>
      </trkpt>
      <trkpt lat="43.340360" lon="-5.560580">
        <ele>288.721</ele>
        <time>2020-05-24T23:14:50Z</time>
      </trkpt>
      <trkpt lat="43.340390" lon="-5.560500">
        <ele>288.978</ele>
        <time>2020-05-24T23:15:10Z</time>
      </trkpt>
      <trkpt lat="43.340400" lon="-5.560430">
        <ele>289.154</ele>
        <time>2020-05-24T23:15:30Z</time>
      </trkpt>
      <trkpt lat="43.340420" lon="-5.560350">
        <ele>289.443</ele>
        <time>2020-05-24T23:15:50Z</time>
      </trkpt>
      <trkpt lat="43.340410" lon="-5.560290">
        <ele>289.424</ele>
        <time>2020-05-24T23:16:10Z</time>
      </trkpt>
      <trkpt lat="43.340400" lon="-5.560260">
        <ele>289.553</ele>
        <time>2020-05-24T23:16:30Z</time>
      </trkpt>
      <trkpt lat="43.340400" lon="-5.560220">
        <ele>290.056</ele>
        <time>2020-05-24T23:16:50Z</time>
      </trkpt>
      <trkpt lat="43.340380" lon="-5.560160">
        <ele>290.315</ele>
        <time>2020-05-24T23:17:10Z</time>
      </trkpt>
      <trkpt lat="43.340360" lon="-5.560090">
        <ele>290.665</ele>
        <time>2020-05-24T23:17:30Z</time>
      </trkpt>
      <trkpt lat="43.340330" lon="-5.560020">
        <ele>290.411</ele>
        <time>2020-05-24T23:17:50Z</time>
      </trkpt>
      <trkpt lat="43.340330" lon="-5.560000">
        <ele>290.508</ele>
        <time>2020-05-24T23:18:10Z</time>
      </trkpt>
      <trkpt lat="43.340310" lon="-5.559970">
        <ele>290.045</ele>
        <time>2020-05-24T23:18:30Z</time>
      </trkpt>
      <trkpt lat="43.340290" lon="-5.559890">
        <ele>289.410</ele>
        <time>2020-05-24T23:18:50Z</time>
      </trkpt>
      <trkpt lat="43.340260" lon="-5.559770">
        <ele>288.967</ele>
        <time>2020-05-24T23:19:10Z</time>
      </trkpt>
      <trkpt lat="43.340259" lon="-5.559771">
        <ele>288.933</ele>
        <time>2020-05-24T23:19:30Z</time>
      </trkpt>
      <trkpt lat="43.340310" lon="-5.559710">
        <ele>290.192</ele>
        <time>2020-05-24T23:19:50Z</time>
      </trkpt>
      <trkpt lat="43.340350" lon="-5.559640">
        <ele>290.913</ele>
        <time>2020-05-24T23:20:10Z</time>
      </trkpt>
      <trkpt lat="43.340410" lon="-5.559550">
        <ele>291.792</ele>
        <time>2020-05-24T23:20:30Z</time>
      </trkpt>
      <trkpt lat="43.340510" lon="-5.559400">
        <ele>291.645</ele>
        <time>2020-05-24T23:20:50Z</time>
      </trkpt>
      <trkpt lat="43.340570" lon="-5.559290">
        <ele>291.356</ele>
        <time>2020-05-24T23:21:10Z</time>
      </trkpt>
      <trkpt lat="43.340620" lon="-5.559180">
        <ele>291.359</ele>
        <time>2020-05-24T23:21:30Z</time>
      </trkpt>
      <trkpt lat="43.340660" lon="-5.559060">
        <ele>291.214</ele>
        <time>2020-05-24T23:21:50Z</time>
      </trkpt>
      <trkpt lat="43.340700" lon="-5.558930">
        <ele>290.608</ele>
        <time>2020-05-24T23:22:10Z</time>
      </trkpt>
      <trkpt lat="43.340710" lon="-5.558890">
        <ele>290.439</ele>
        <time>2020-05-24T23:22:30Z</time>
      </trkpt>
      <trkpt lat="43.340730" lon="-5.558800">
        <ele>290.064</ele>
        <time>2020-05-24T23:22:50Z</time>
      </trkpt>
      <trkpt lat="43.340760" lon="-5.558630">
        <ele>289.361</ele>
        <time>2020-05-24T23:23:10Z</time>
      </trkpt>
      <trkpt lat="43.340780" lon="-5.558500">
        <ele>289.187</ele>
        <time>2020-05-24T23:23:30Z</time>
      </trkpt>
      <trkpt lat="43.340810" lon="-5.558350">
        <ele>288.816</ele>
        <time>2020-05-24T23:23:50Z</time>
      </trkpt>
      <trkpt lat="43.340820" lon="-5.558260">
        <ele>288.327</ele>
        <time>2020-05-24T23:24:10Z</time>
      </trkpt>
      <trkpt lat="43.340850" lon="-5.558180">
        <ele>288.476</ele>
        <time>2020-05-24T23:24:30Z</time>
      </trkpt>
      <trkpt lat="43.340870" lon="-5.558080">
        <ele>288.059</ele>
        <time>2020-05-24T23:24:50Z</time>
      </trkpt>
      <trkpt lat="43.340900" lon="-5.558010">
        <ele>288.272</ele>
        <time>2020-05-24T23:25:10Z</time>
      </trkpt>
      <trkpt lat="43.340940" lon="-5.557950">
        <ele>288.513</ele>
        <time>2020-05-24T23:25:30Z</time>
      </trkpt>
      <trkpt lat="43.340980" lon="-5.557860">
        <ele>288.314</ele>
        <time>2020-05-24T23:25:50Z</time>
      </trkpt>
      <trkpt lat="43.341090" lon="-5.557680">
        <ele>288.108</ele>
        <time>2020-05-24T23:26:10Z</time>
      </trkpt>
      <trkpt lat="43.341160" lon="-5.557570">
        <ele>289.231</ele>
        <time>2020-05-24T23:26:30Z</time>
      </trkpt>
      <trkpt lat="43.341220" lon="-5.557460">
        <ele>289.856</ele>
        <time>2020-05-24T23:26:50Z</time>
      </trkpt>
      <trkpt lat="43.341260" lon="-5.557360">
        <ele>290.093</ele>
        <time>2020-05-24T23:27:10Z</time>
      </trkpt>
      <trkpt lat="43.341290" lon="-5.557280">
        <ele>289.839</ele>
        <time>2020-05-24T23:27:30Z</time>
      </trkpt>
      <trkpt lat="43.341310" lon="-5.557200">
        <ele>289.478</ele>
        <time>2020-05-24T23:27:50Z</time>
      </trkpt>
      <trkpt lat="43.341360" lon="-5.557040">
        <ele>288.619</ele>
        <time>2020-05-24T23:28:10Z</time>
      </trkpt>
      <trkpt lat="43.341400" lon="-5.556870">
        <ele>288.258</ele>
        <time>2020-05-24T23:28:30Z</time>
      </trkpt>
      <trkpt lat="43.341500" lon="-5.556490">
        <ele>288.881</ele>
        <time>2020-05-24T23:28:50Z</time>
      </trkpt>
      <trkpt lat="43.341620" lon="-5.556030">
        <ele>288.817</ele>
        <time>2020-05-24T23:29:10Z</time>
      </trkpt>
      <trkpt lat="43.341750" lon="-5.555510">
        <ele>288.387</ele>
        <time>2020-05-24T23:29:30Z</time>
      </trkpt>
      <trkpt lat="43.341820" lon="-5.555220">
        <ele>287.815</ele>
        <time>2020-05-24T23:29:50Z</time>
      </trkpt>
      <trkpt lat="43.341870" lon="-5.555060">
        <ele>287.408</ele>
        <time>2020-05-24T23:30:10Z</time>
      </trkpt>
      <trkpt lat="43.341890" lon="-5.554990">
        <ele>287.145</ele>
        <time>2020-05-24T23:30:30Z</time>
      </trkpt>
      <trkpt lat="43.341920" lon="-5.554920">
        <ele>287.150</ele>
        <time>2020-05-24T23:30:50Z</time>
      </trkpt>
      <trkpt lat="43.341940" lon="-5.554870">
        <ele>287.027</ele>
        <time>2020-05-24T23:31:10Z</time>
      </trkpt>
      <trkpt lat="43.341970" lon="-5.554820">
        <ele>287.253</ele>
        <time>2020-05-24T23:31:30Z</time>
      </trkpt>
      <trkpt lat="43.342000" lon="-5.554780">
        <ele>287.332</ele>
        <time>2020-05-24T23:31:50Z</time>
      </trkpt>
      <trkpt lat="43.342030" lon="-5.554740">
        <ele>287.483</ele>
        <time>2020-05-24T23:32:10Z</time>
      </trkpt>
      <trkpt lat="43.342110" lon="-5.554660">
        <ele>286.832</ele>
        <time>2020-05-24T23:32:30Z</time>
      </trkpt>
      <trkpt lat="43.342170" lon="-5.554600">
        <ele>286.275</ele>
        <time>2020-05-24T23:32:50Z</time>
      </trkpt>
      <trkpt lat="43.342250" lon="-5.554540">
        <ele>285.729</ele>
        <time>2020-05-24T23:33:10Z</time>
      </trkpt>
      <trkpt lat="43.342370" lon="-5.554430">
        <ele>284.900</ele>
        <time>2020-05-24T23:33:30Z</time>
      </trkpt>
      <trkpt lat="43.342430" lon="-5.554370">
        <ele>284.920</ele>
        <time>2020-05-24T23:33:50Z</time>
      </trkpt>
      <trkpt lat="43.342490" lon="-5.554280">
        <ele>284.508</ele>
        <time>2020-05-24T23:34:10Z</time>
      </trkpt>
      <trkpt lat="43.342550" lon="-5.554190">
        <ele>285.036</ele>
        <time>2020-05-24T23:34:30Z</time>
      </trkpt>
      <trkpt lat="43.342610" lon="-5.554080">
        <ele>285.131</ele>
        <time>2020-05-24T23:34:50Z</time>
      </trkpt>
      <trkpt lat="43.342650" lon="-5.553990">
        <ele>284.658</ele>
        <time>2020-05-24T23:35:10Z</time>
      </trkpt>
      <trkpt lat="43.342690" lon="-5.553890">
        <ele>283.884</ele>
        <time>2020-05-24T23:35:30Z</time>
      </trkpt>
      <trkpt lat="43.342740" lon="-5.553770">
        <ele>283.543</ele>
        <time>2020-05-24T23:35:50Z</time>
      </trkpt>
      <trkpt lat="43.342760" lon="-5.553680">
        <ele>282.694</ele>
        <time>2020-05-24T23:36:10Z</time>
      </trkpt>
      <trkpt lat="43.342770" lon="-5.553660">
        <ele>282.633</ele>
        <time>2020-05-24T23:36:30Z</time>
      </trkpt>
      <trkpt lat="43.342870" lon="-5.553370">
        <ele>281.246</ele>
        <time>2020-05-24T23:36:50Z</time>
      </trkpt>
      <trkpt lat="43.342970" lon="-5.553100">
        <ele>280.481</ele>
        <time>2020-05-24T23:37:10Z</time>
      </trkpt>
      <trkpt lat="43.343050" lon="-5.552880">
        <ele>280.361</ele>
        <time>2020-05-24T23:37:30Z</time>
      </trkpt>
      <trkpt lat="43.343140" lon="-5.552640">
        <ele>280.717</ele>
        <time>2020-05-24T23:37:50Z</time>
      </trkpt>
      <trkpt lat="43.343200" lon="-5.552510">
        <ele>281.208</ele>
        <time>2020-05-24T23:38:10Z</time>
      </trkpt>
      <trkpt lat="43.343260" lon="-5.552350">
        <ele>281.322</ele>
        <time>2020-05-24T23:38:30Z</time>
      </trkpt>
      <trkpt lat="43.343320" lon="-5.552190">
        <ele>281.517</ele>
        <time>2020-05-24T23:38:50Z</time>
      </trkpt>
      <trkpt lat="43.343360" lon="-5.552050">
        <ele>281.424</ele>
        <time>2020-05-24T23:39:10Z</time>
      </trkpt>
      <trkpt lat="43.343380" lon="-5.551960">
        <ele>281.390</ele>
        <time>2020-05-24T23:39:30Z</time>
      </trkpt>
      <trkpt lat="43.343400" lon="-5.551860">
        <ele>281.059</ele>
        <time>2020-05-24T23:39:50Z</time>
      </trkpt>
      <trkpt lat="43.343430" lon="-5.551640">
        <ele>280.120</ele>
        <time>2020-05-24T23:40:10Z</time>
      </trkpt>
      <trkpt lat="43.343450" lon="-5.551460">
        <ele>280.689</ele>
        <time>2020-05-24T23:40:30Z</time>
      </trkpt>
      <trkpt lat="43.343480" lon="-5.551220">
        <ele>280.552</ele>
        <time>2020-05-24T23:40:50Z</time>
      </trkpt>
      <trkpt lat="43.343530" lon="-5.550940">
        <ele>279.638</ele>
        <time>2020-05-24T23:41:10Z</time>
      </trkpt>
      <trkpt lat="43.343590" lon="-5.550650">
        <ele>278.470</ele>
        <time>2020-05-24T23:41:30Z</time>
      </trkpt>
      <trkpt lat="43.343630" lon="-5.550480">
        <ele>278.217</ele>
        <time>2020-05-24T23:41:50Z</time>
      </trkpt>
      <trkpt lat="43.343680" lon="-5.550320">
        <ele>278.708</ele>
        <time>2020-05-24T23:42:10Z</time>
      </trkpt>
      <trkpt lat="43.343800" lon="-5.549950">
        <ele>278.497</ele>
        <time>2020-05-24T23:42:30Z</time>
      </trkpt>
      <trkpt lat="43.343830" lon="-5.549880">
        <ele>278.462</ele>
        <time>2020-05-24T23:42:50Z</time>
      </trkpt>
      <trkpt lat="43.343940" lon="-5.549540">
        <ele>278.179</ele>
        <time>2020-05-24T23:43:10Z</time>
      </trkpt>
      <trkpt lat="43.344070" lon="-5.549140">
        <ele>277.925</ele>
        <time>2020-05-24T23:43:30Z</time>
      </trkpt>
      <trkpt lat="43.344090" lon="-5.549090">
        <ele>278.084</ele>
        <time>2020-05-24T23:43:50Z</time>
      </trkpt>
      <trkpt lat="43.344260" lon="-5.548570">
        <ele>278.075</ele>
        <time>2020-05-24T23:44:10Z</time>
      </trkpt>
      <trkpt lat="43.344510" lon="-5.547820">
        <ele>278.924</ele>
        <time>2020-05-24T23:44:30Z</time>
      </trkpt>
      <trkpt lat="43.344690" lon="-5.547270">
        <ele>279.837</ele>
        <time>2020-05-24T23:44:50Z</time>
      </trkpt>
      <trkpt lat="43.344740" lon="-5.547130">
        <ele>280.421</ele>
        <time>2020-05-24T23:45:10Z</time>
      </trkpt>
      <trkpt lat="43.344820" lon="-5.546910">
        <ele>282.841</ele>
        <time>2020-05-24T23:45:30Z</time>
      </trkpt>
      <trkpt lat="43.344920" lon="-5.546610">
        <ele>281.805</ele>
        <time>2020-05-24T23:45:50Z</time>
      </trkpt>
      <trkpt lat="43.344970" lon="-5.546440">
        <ele>281.108</ele>
        <time>2020-05-24T23:46:10Z</time>
      </trkpt>
      <trkpt lat="43.345040" lon="-5.546270">
        <ele>281.596</ele>
        <time>2020-05-24T23:46:30Z</time>
      </trkpt>
      <trkpt lat="43.345050" lon="-5.546240">
        <ele>281.541</ele>
        <time>2020-05-24T23:46:50Z</time>
      </trkpt>
      <trkpt lat="43.345100" lon="-5.546120">
        <ele>281.098</ele>
        <time>2020-05-24T23:47:10Z</time>
      </trkpt>
      <trkpt lat="43.345150" lon="-5.546030">
        <ele>281.014</ele>
        <time>2020-05-24T23:47:30Z</time>
      </trkpt>
      <trkpt lat="43.345170" lon="-5.545990">
        <ele>280.993</ele>
        <time>2020-05-24T23:47:50Z</time>
      </trkpt>
      <trkpt lat="43.345240" lon="-5.545870">
        <ele>280.864</ele>
        <time>2020-05-24T23:48:10Z</time>
      </trkpt>
      <trkpt lat="43.345260" lon="-5.545830">
        <ele>280.723</ele>
        <time>2020-05-24T23:48:30Z</time>
      </trkpt>
      <trkpt lat="43.345310" lon="-5.545740">
        <ele>281.076</ele>
        <time>2020-05-24T23:48:50Z</time>
      </trkpt>
      <trkpt lat="43.345360" lon="-5.545640">
        <ele>281.287</ele>
        <time>2020-05-24T23:49:10Z</time>
      </trkpt>
      <trkpt lat="43.345410" lon="-5.545560">
        <ele>281.442</ele>
        <time>2020-05-24T23:49:30Z</time>
      </trkpt>
      <trkpt lat="43.345460" lon="-5.545440">
        <ele>281.226</ele>
        <time>2020-05-24T23:49:50Z</time>
      </trkpt>
      <trkpt lat="43.345470" lon="-5.545430">
        <ele>281.308</ele>
        <time>2020-05-24T23:50:10Z</time>
      </trkpt>
      <trkpt lat="43.345520" lon="-5.545330">
        <ele>281.662</ele>
        <time>2020-05-24T23:50:30Z</time>
      </trkpt>
      <trkpt lat="43.345580" lon="-5.545150">
        <ele>282.067</ele>
        <time>2020-05-24T23:50:50Z</time>
      </trkpt>
      <trkpt lat="43.345620" lon="-5.545010">
        <ele>282.484</ele>
        <time>2020-05-24T23:51:10Z</time>
      </trkpt>
      <trkpt lat="43.345620" lon="-5.544990">
        <ele>282.150</ele>
        <time>2020-05-24T23:51:30Z</time>
      </trkpt>
      <trkpt lat="43.345640" lon="-5.544900">
        <ele>282.319</ele>
        <time>2020-05-24T23:51:50Z</time>
      </trkpt>
      <trkpt lat="43.345670" lon="-5.544700">
        <ele>282.040</ele>
        <time>2020-05-24T23:52:10Z</time>
      </trkpt>
      <trkpt lat="43.345720" lon="-5.544330">
        <ele>280.469</ele>
        <time>2020-05-24T23:52:30Z</time>
      </trkpt>
      <trkpt lat="43.345770" lon="-5.543910">
        <ele>277.462</ele>
        <time>2020-05-24T23:52:50Z</time>
      </trkpt>
      <trkpt lat="43.345780" lon="-5.543770">
        <ele>277.094</ele>
        <time>2020-05-24T23:53:10Z</time>
      </trkpt>
      <trkpt lat="43.345800" lon="-5.543560">
        <ele>276.957</ele>
        <time>2020-05-24T23:53:30Z</time>
      </trkpt>
      <trkpt lat="43.345800" lon="-5.543530">
        <ele>276.822</ele>
        <time>2020-05-24T23:53:50Z</time>
      </trkpt>
      <trkpt lat="43.345810" lon="-5.543370">
        <ele>276.508</ele>
        <time>2020-05-24T23:54:10Z</time>
      </trkpt>
      <trkpt lat="43.345810" lon="-5.543250">
        <ele>276.983</ele>
        <time>2020-05-24T23:54:30Z</time>
      </trkpt>
      <trkpt lat="43.345800" lon="-5.543160">
        <ele>277.278</ele>
        <time>2020-05-24T23:54:50Z</time>
      </trkpt>
      <trkpt lat="43.345780" lon="-5.543030">
        <ele>277.265</ele>
        <time>2020-05-24T23:55:10Z</time>
      </trkpt>
      <trkpt lat="43.345740" lon="-5.542850">
        <ele>276.651</ele>
        <time>2020-05-24T23:55:30Z</time>
      </trkpt>
      <trkpt lat="43.345710" lon="-5.542720">
        <ele>276.380</ele>
        <time>2020-05-24T23:55:50Z</time>
      </trkpt>
      <trkpt lat="43.345680" lon="-5.542590">
        <ele>276.221</ele>
        <time>2020-05-24T23:56:10Z</time>
      </trkpt>
      <trkpt lat="43.345630" lon="-5.542430">
        <ele>275.810</ele>
        <time>2020-05-24T23:56:30Z</time>
      </trkpt>
      <trkpt lat="43.345610" lon="-5.542350">
        <ele>275.593</ele>
        <time>2020-05-24T23:56:50Z</time>
      </trkpt>
      <trkpt lat="43.345580" lon="-5.542230">
        <ele>274.849</ele>
        <time>2020-05-24T23:57:10Z</time>
      </trkpt>
      <trkpt lat="43.345570" lon="-5.542100">
        <ele>274.502</ele>
        <time>2020-05-24T23:57:30Z</time>
      </trkpt>
      <trkpt lat="43.345550" lon="-5.541900">
        <ele>274.022</ele>
        <time>2020-05-24T23:57:50Z</time>
      </trkpt>
      <trkpt lat="43.345540" lon="-5.541680">
        <ele>273.808</ele>
        <time>2020-05-24T23:58:10Z</time>
      </trkpt>
      <trkpt lat="43.345530" lon="-5.541280">
        <ele>272.358</ele>
        <time>2020-05-24T23:58:30Z</time>
      </trkpt>
      <trkpt lat="43.345510" lon="-5.540630">
        <ele>270.833</ele>
        <time>2020-05-24T23:58:50Z</time>
      </trkpt>
      <trkpt lat="43.345480" lon="-5.539950">
        <ele>270.930</ele>
        <time>2020-05-24T23:59:10Z</time>
      </trkpt>
      <trkpt lat="43.345470" lon="-5.539640">
        <ele>270.826</ele>
        <time>2020-05-24T23:59:30Z</time>
      </trkpt>
      <trkpt lat="43.345450" lon="-5.539250">
        <ele>270.235</ele>
        <time>2020-05-24T23:59:50Z</time>
      </trkpt>
      <trkpt lat="43.345440" lon="-5.539030">
        <ele>270.236</ele>
        <time>2020-05-25T00:00:10Z</time>
      </trkpt>
      <trkpt lat="43.345430" lon="-5.538710">
        <ele>270.645</ele>
        <time>2020-05-25T00:00:30Z</time>
      </trkpt>
      <trkpt lat="43.345420" lon="-5.538450">
        <ele>270.918</ele>
        <time>2020-05-25T00:00:50Z</time>
      </trkpt>
      <trkpt lat="43.345400" lon="-5.538210">
        <ele>271.227</ele>
        <time>2020-05-25T00:01:10Z</time>
      </trkpt>
      <trkpt lat="43.345380" lon="-5.538090">
        <ele>271.168</ele>
        <time>2020-05-25T00:01:30Z</time>
      </trkpt>
      <trkpt lat="43.345360" lon="-5.537990">
        <ele>271.114</ele>
        <time>2020-05-25T00:01:50Z</time>
      </trkpt>
      <trkpt lat="43.345330" lon="-5.537830">
        <ele>270.608</ele>
        <time>2020-05-25T00:02:10Z</time>
      </trkpt>
      <trkpt lat="43.345290" lon="-5.537700">
        <ele>269.836</ele>
        <time>2020-05-25T00:02:30Z</time>
      </trkpt>
      <trkpt lat="43.345270" lon="-5.537610">
        <ele>270.311</ele>
        <time>2020-05-25T00:02:50Z</time>
      </trkpt>
      <trkpt lat="43.345240" lon="-5.537520">
        <ele>271.278</ele>
        <time>2020-05-25T00:03:10Z</time>
      </trkpt>
      <trkpt lat="43.345220" lon="-5.537450">
        <ele>271.184</ele>
        <time>2020-05-25T00:03:30Z</time>
      </trkpt>
      <trkpt lat="43.345200" lon="-5.537380">
        <ele>270.833</ele>
        <time>2020-05-25T00:03:50Z</time>
      </trkpt>
      <trkpt lat="43.345180" lon="-5.537330">
        <ele>270.424</ele>
        <time>2020-05-25T00:04:10Z</time>
      </trkpt>
      <trkpt lat="43.345170" lon="-5.537260">
        <ele>270.143</ele>
        <time>2020-05-25T00:04:30Z</time>
      </trkpt>
      <trkpt lat="43.345160" lon="-5.537190">
        <ele>270.016</ele>
        <time>2020-05-25T00:04:50Z</time>
      </trkpt>
      <trkpt lat="43.345160" lon="-5.537130">
        <ele>270.137</ele>
        <time>2020-05-25T00:05:10Z</time>
      </trkpt>
      <trkpt lat="43.345150" lon="-5.536880">
        <ele>270.349</ele>
        <time>2020-05-25T00:05:30Z</time>
      </trkpt>
      <trkpt lat="43.345140" lon="-5.536720">
        <ele>270.013</ele>
        <time>2020-05-25T00:05:50Z</time>
      </trkpt>
      <trkpt lat="43.345130" lon="-5.536620">
        <ele>269.608</ele>
        <time>2020-05-25T00:06:10Z</time>
      </trkpt>
      <trkpt lat="43.345130" lon="-5.536480">
        <ele>269.417</ele>
        <time>2020-05-25T00:06:30Z</time>
      </trkpt>
      <trkpt lat="43.345120" lon="-5.536300">
        <ele>268.612</ele>
        <time>2020-05-25T00:06:50Z</time>
      </trkpt>
      <trkpt lat="43.345120" lon="-5.536200">
        <ele>268.329</ele>
        <time>2020-05-25T00:07:10Z</time>
      </trkpt>
      <trkpt lat="43.345120" lon="-5.536120">
        <ele>268.125</ele>
        <time>2020-05-25T00:07:30Z</time>
      </trkpt>
      <trkpt lat="43.345120" lon="-5.536080">
        <ele>268.034</ele>
        <time>2020-05-25T00:07:50Z</time>
      </trkpt>
      <trkpt lat="43.345130" lon="-5.536030">
        <ele>268.285</ele>
        <time>2020-05-25T00:08:10Z</time>
      </trkpt>
      <trkpt lat="43.345150" lon="-5.535980">
        <ele>268.564</ele>
        <time>2020-05-25T00:08:30Z</time>
      </trkpt>
      <trkpt lat="43.345170" lon="-5.535890">
        <ele>268.667</ele>
        <time>2020-05-25T00:08:50Z</time>
      </trkpt>
      <trkpt lat="43.345190" lon="-5.535840">
        <ele>268.864</ele>
        <time>2020-05-25T00:09:10Z</time>
      </trkpt>
      <trkpt lat="43.345220" lon="-5.535770">
        <ele>268.606</ele>
        <time>2020-05-25T00:09:30Z</time>
      </trkpt>
      <trkpt lat="43.345300" lon="-5.535640">
        <ele>268.316</ele>
        <time>2020-05-25T00:09:50Z</time>
      </trkpt>
      <trkpt lat="43.345370" lon="-5.535530">
        <ele>268.108</ele>
        <time>2020-05-25T00:10:10Z</time>
      </trkpt>
      <trkpt lat="43.345450" lon="-5.535420">
        <ele>267.990</ele>
        <time>2020-05-25T00:10:30Z</time>
      </trkpt>
      <trkpt lat="43.345500" lon="-5.535350">
        <ele>267.575</ele>
        <time>2020-05-25T00:10:50Z</time>
      </trkpt>
      <trkpt lat="43.345570" lon="-5.535280">
        <ele>267.222</ele>
        <time>2020-05-25T00:11:10Z</time>
      </trkpt>
      <trkpt lat="43.345620" lon="-5.535240">
        <ele>267.338</ele>
        <time>2020-05-25T00:11:30Z</time>
      </trkpt>
      <trkpt lat="43.345700" lon="-5.535170">
        <ele>267.187</ele>
        <time>2020-05-25T00:11:50Z</time>
      </trkpt>
      <trkpt lat="43.345850" lon="-5.535060">
        <ele>266.538</ele>
        <time>2020-05-25T00:12:10Z</time>
      </trkpt>
      <trkpt lat="43.345960" lon="-5.534980">
        <ele>266.297</ele>
        <time>2020-05-25T00:12:30Z</time>
      </trkpt>
      <trkpt lat="43.346070" lon="-5.534880">
        <ele>266.070</ele>
        <time>2020-05-25T00:12:50Z</time>
      </trkpt>
      <trkpt lat="43.346180" lon="-5.534760">
        <ele>267.463</ele>
        <time>2020-05-25T00:13:10Z</time>
      </trkpt>
      <trkpt lat="43.346220" lon="-5.534710">
        <ele>268.244</ele>
        <time>2020-05-25T00:13:30Z</time>
      </trkpt>
      <trkpt lat="43.346260" lon="-5.534630">
        <ele>268.518</ele>
        <time>2020-05-25T00:13:50Z</time>
      </trkpt>
      <trkpt lat="43.346290" lon="-5.534580">
        <ele>268.608</ele>
        <time>2020-05-25T00:14:10Z</time>
      </trkpt>
      <trkpt lat="43.346310" lon="-5.534520">
        <ele>268.030</ele>
        <time>2020-05-25T00:14:30Z</time>
      </trkpt>
      <trkpt lat="43.346350" lon="-5.534430">
        <ele>267.145</ele>
        <time>2020-05-25T00:14:50Z</time>
      </trkpt>
      <trkpt lat="43.346400" lon="-5.534300">
        <ele>266.222</ele>
        <time>2020-05-25T00:15:10Z</time>
      </trkpt>
      <trkpt lat="43.346460" lon="-5.534160">
        <ele>265.048</ele>
        <time>2020-05-25T00:15:30Z</time>
      </trkpt>
      <trkpt lat="43.346560" lon="-5.533930">
        <ele>264.257</ele>
        <time>2020-05-25T00:15:50Z</time>
      </trkpt>
      <trkpt lat="43.346590" lon="-5.533850">
        <ele>264.248</ele>
        <time>2020-05-25T00:16:10Z</time>
      </trkpt>
      <trkpt lat="43.346600" lon="-5.533780">
        <ele>264.457</ele>
        <time>2020-05-25T00:16:30Z</time>
      </trkpt>
      <trkpt lat="43.346610" lon="-5.533730">
        <ele>264.510</ele>
        <time>2020-05-25T00:16:50Z</time>
      </trkpt>
      <trkpt lat="43.346620" lon="-5.533670">
        <ele>264.661</ele>
        <time>2020-05-25T00:17:10Z</time>
      </trkpt>
      <trkpt lat="43.346630" lon="-5.533580">
        <ele>264.821</ele>
        <time>2020-05-25T00:17:30Z</time>
      </trkpt>
      <trkpt lat="43.346640" lon="-5.533470">
        <ele>265.313</ele>
        <time>2020-05-25T00:17:50Z</time>
      </trkpt>
      <trkpt lat="43.346640" lon="-5.533430">
        <ele>265.508</ele>
        <time>2020-05-25T00:18:10Z</time>
      </trkpt>
      <trkpt lat="43.346660" lon="-5.533190">
        <ele>265.980</ele>
        <time>2020-05-25T00:18:30Z</time>
      </trkpt>
      <trkpt lat="43.346660" lon="-5.532810">
        <ele>268.515</ele>
        <time>2020-05-25T00:18:50Z</time>
      </trkpt>
      <trkpt lat="43.346660" lon="-5.532550">
        <ele>269.642</ele>
        <time>2020-05-25T00:19:10Z</time>
      </trkpt>
      <trkpt lat="43.346660" lon="-5.532110">
        <ele>269.248</ele>
        <time>2020-05-25T00:19:30Z</time>
      </trkpt>
      <trkpt lat="43.346660" lon="-5.531990">
        <ele>269.697</ele>
        <time>2020-05-25T00:19:50Z</time>
      </trkpt>
      <trkpt lat="43.346660" lon="-5.531840">
        <ele>269.128</ele>
        <time>2020-05-25T00:20:10Z</time>
      </trkpt>
      <trkpt lat="43.346670" lon="-5.531690">
        <ele>268.467</ele>
        <time>2020-05-25T00:20:30Z</time>
      </trkpt>
      <trkpt lat="43.346690" lon="-5.531540">
        <ele>269.620</ele>
        <time>2020-05-25T00:20:50Z</time>
      </trkpt>
      <trkpt lat="43.346700" lon="-5.531450">
        <ele>270.226</ele>
        <time>2020-05-25T00:21:10Z</time>
      </trkpt>
      <trkpt lat="43.346720" lon="-5.531380">
        <ele>271.447</ele>
        <time>2020-05-25T00:21:30Z</time>
      </trkpt>
      <trkpt lat="43.346740" lon="-5.531310">
        <ele>271.711</ele>
        <time>2020-05-25T00:21:50Z</time>
      </trkpt>
      <trkpt lat="43.346760" lon="-5.531240">
        <ele>271.908</ele>
        <time>2020-05-25T00:22:10Z</time>
      </trkpt>
      <trkpt lat="43.346800" lon="-5.531140">
        <ele>272.356</ele>
        <time>2020-05-25T00:22:30Z</time>
      </trkpt>
      <trkpt lat="43.346810" lon="-5.531120">
        <ele>272.411</ele>
        <time>2020-05-25T00:22:50Z</time>
      </trkpt>
      <trkpt lat="43.346870" lon="-5.530990">
        <ele>272.258</ele>
        <time>2020-05-25T00:23:10Z</time>
      </trkpt>
      <trkpt lat="43.346900" lon="-5.530930">
        <ele>271.924</ele>
        <time>2020-05-25T00:23:30Z</time>
      </trkpt>
      <trkpt lat="43.346930" lon="-5.530870">
        <ele>271.553</ele>
        <time>2020-05-25T00:23:50Z</time>
      </trkpt>
      <trkpt lat="43.347090" lon="-5.530590">
        <ele>274.754</ele>
        <time>2020-05-25T00:24:10Z</time>
      </trkpt>
      <trkpt lat="43.347140" lon="-5.530460">
        <ele>274.773</ele>
        <time>2020-05-25T00:24:30Z</time>
      </trkpt>
      <trkpt lat="43.347190" lon="-5.530350">
        <ele>274.536</ele>
        <time>2020-05-25T00:24:50Z</time>
      </trkpt>
      <trkpt lat="43.347260" lon="-5.530150">
        <ele>273.382</ele>
        <time>2020-05-25T00:25:10Z</time>
      </trkpt>
      <trkpt lat="43.347330" lon="-5.529930">
        <ele>271.543</ele>
        <time>2020-05-25T00:25:30Z</time>
      </trkpt>
      <trkpt lat="43.347500" lon="-5.529380">
        <ele>271.817</ele>
        <time>2020-05-25T00:25:50Z</time>
      </trkpt>
      <trkpt lat="43.347630" lon="-5.528950">
        <ele>272.108</ele>
        <time>2020-05-25T00:26:10Z</time>
      </trkpt>
      <trkpt lat="43.347710" lon="-5.528670">
        <ele>272.272</ele>
        <time>2020-05-25T00:26:30Z</time>
      </trkpt>
      <trkpt lat="43.347770" lon="-5.528480">
        <ele>273.747</ele>
        <time>2020-05-25T00:26:50Z</time>
      </trkpt>
      <trkpt lat="43.347810" lon="-5.528280">
        <ele>274.164</ele>
        <time>2020-05-25T00:27:10Z</time>
      </trkpt>
      <trkpt lat="43.347820" lon="-5.528260">
        <ele>274.240</ele>
        <time>2020-05-25T00:27:30Z</time>
      </trkpt>
      <trkpt lat="43.347860" lon="-5.528040">
        <ele>274.799</ele>
        <time>2020-05-25T00:27:50Z</time>
      </trkpt>
      <trkpt lat="43.347880" lon="-5.527840">
        <ele>277.560</ele>
        <time>2020-05-25T00:28:10Z</time>
      </trkpt>
      <trkpt lat="43.347880" lon="-5.527680">
        <ele>279.359</ele>
        <time>2020-05-25T00:28:30Z</time>
      </trkpt>
      <trkpt lat="43.347890" lon="-5.527220">
        <ele>281.452</ele>
        <time>2020-05-25T00:28:50Z</time>
      </trkpt>
      <trkpt lat="43.347900" lon="-5.526990">
        <ele>280.646</ele>
        <time>2020-05-25T00:29:10Z</time>
      </trkpt>
      <trkpt lat="43.347900" lon="-5.526700">
        <ele>280.188</ele>
        <time>2020-05-25T00:29:30Z</time>
      </trkpt>
      <trkpt lat="43.347900" lon="-5.526370">
        <ele>281.816</ele>
        <time>2020-05-25T00:29:50Z</time>
      </trkpt>
      <trkpt lat="43.347910" lon="-5.526100">
        <ele>285.408</ele>
        <time>2020-05-25T00:30:10Z</time>
      </trkpt>
      <trkpt lat="43.347910" lon="-5.525940">
        <ele>286.818</ele>
        <time>2020-05-25T00:30:30Z</time>
      </trkpt>
      <trkpt lat="43.347910" lon="-5.525930">
        <ele>286.943</ele>
        <time>2020-05-25T00:30:50Z</time>
      </trkpt>
      <trkpt lat="43.347920" lon="-5.525730">
        <ele>287.970</ele>
        <time>2020-05-25T00:31:10Z</time>
      </trkpt>
      <trkpt lat="43.347930" lon="-5.525640">
        <ele>288.216</ele>
        <time>2020-05-25T00:31:30Z</time>
      </trkpt>
      <trkpt lat="43.347950" lon="-5.525550">
        <ele>288.825</ele>
        <time>2020-05-25T00:31:50Z</time>
      </trkpt>
      <trkpt lat="43.348010" lon="-5.525300">
        <ele>289.476</ele>
        <time>2020-05-25T00:32:10Z</time>
      </trkpt>
      <trkpt lat="43.348030" lon="-5.525210">
        <ele>289.525</ele>
        <time>2020-05-25T00:32:30Z</time>
      </trkpt>
      <trkpt lat="43.348050" lon="-5.525130">
        <ele>289.778</ele>
        <time>2020-05-25T00:32:50Z</time>
      </trkpt>
      <trkpt lat="43.348070" lon="-5.525040">
        <ele>289.969</ele>
        <time>2020-05-25T00:33:10Z</time>
      </trkpt>
      <trkpt lat="43.348100" lon="-5.524940">
        <ele>290.704</ele>
        <time>2020-05-25T00:33:30Z</time>
      </trkpt>
      <trkpt lat="43.348150" lon="-5.524810">
        <ele>292.224</ele>
        <time>2020-05-25T00:33:50Z</time>
      </trkpt>
      <trkpt lat="43.348160" lon="-5.524750">
        <ele>292.308</ele>
        <time>2020-05-25T00:34:10Z</time>
      </trkpt>
      <trkpt lat="43.348180" lon="-5.524700">
        <ele>292.760</ele>
        <time>2020-05-25T00:34:30Z</time>
      </trkpt>
      <trkpt lat="43.348240" lon="-5.524590">
        <ele>293.795</ele>
        <time>2020-05-25T00:34:50Z</time>
      </trkpt>
      <trkpt lat="43.348280" lon="-5.524520">
        <ele>293.952</ele>
        <time>2020-05-25T00:35:10Z</time>
      </trkpt>
      <trkpt lat="43.348320" lon="-5.524460">
        <ele>294.048</ele>
        <time>2020-05-25T00:35:30Z</time>
      </trkpt>
      <trkpt lat="43.348360" lon="-5.524410">
        <ele>294.677</ele>
        <time>2020-05-25T00:35:50Z</time>
      </trkpt>
      <trkpt lat="43.348390" lon="-5.524370">
        <ele>295.068</ele>
        <time>2020-05-25T00:36:10Z</time>
      </trkpt>
      <trkpt lat="43.348400" lon="-5.524360">
        <ele>295.147</ele>
        <time>2020-05-25T00:36:30Z</time>
      </trkpt>
      <trkpt lat="43.348500" lon="-5.524250">
        <ele>295.260</ele>
        <time>2020-05-25T00:36:50Z</time>
      </trkpt>
      <trkpt lat="43.348530" lon="-5.524220">
        <ele>294.937</ele>
        <time>2020-05-25T00:37:10Z</time>
      </trkpt>
      <trkpt lat="43.348600" lon="-5.524140">
        <ele>293.449</ele>
        <time>2020-05-25T00:37:30Z</time>
      </trkpt>
      <trkpt lat="43.348670" lon="-5.524070">
        <ele>293.113</ele>
        <time>2020-05-25T00:37:50Z</time>
      </trkpt>
      <trkpt lat="43.348780" lon="-5.523950">
        <ele>294.108</ele>
        <time>2020-05-25T00:38:10Z</time>
      </trkpt>
      <trkpt lat="43.348860" lon="-5.523840">
        <ele>295.587</ele>
        <time>2020-05-25T00:38:30Z</time>
      </trkpt>
      <trkpt lat="43.348940" lon="-5.523730">
        <ele>296.742</ele>
        <time>2020-05-25T00:38:50Z</time>
      </trkpt>
      <trkpt lat="43.348940" lon="-5.523720">
        <ele>296.639</ele>
        <time>2020-05-25T00:39:10Z</time>
      </trkpt>
      <trkpt lat="43.349000" lon="-5.523600">
        <ele>296.355</ele>
        <time>2020-05-25T00:39:30Z</time>
      </trkpt>
      <trkpt lat="43.349040" lon="-5.523510">
        <ele>296.554</ele>
        <time>2020-05-25T00:39:50Z</time>
      </trkpt>
      <trkpt lat="43.349060" lon="-5.523440">
        <ele>296.575</ele>
        <time>2020-05-25T00:40:10Z</time>
      </trkpt>
      <trkpt lat="43.349080" lon="-5.523360">
        <ele>296.314</ele>
        <time>2020-05-25T00:40:30Z</time>
      </trkpt>
      <trkpt lat="43.349090" lon="-5.523350">
        <ele>296.557</ele>
        <time>2020-05-25T00:40:50Z</time>
      </trkpt>
      <trkpt lat="43.349100" lon="-5.523270">
        <ele>296.384</ele>
        <time>2020-05-25T00:41:10Z</time>
      </trkpt>
      <trkpt lat="43.349120" lon="-5.523160">
        <ele>296.607</ele>
        <time>2020-05-25T00:41:30Z</time>
      </trkpt>
      <trkpt lat="43.349130" lon="-5.523090">
        <ele>296.717</ele>
        <time>2020-05-25T00:41:50Z</time>
      </trkpt>
      <trkpt lat="43.349140" lon="-5.523010">
        <ele>297.508</ele>
        <time>2020-05-25T00:42:10Z</time>
      </trkpt>
      <trkpt lat="43.349140" lon="-5.522940">
        <ele>298.332</ele>
        <time>2020-05-25T00:42:30Z</time>
      </trkpt>
      <trkpt lat="43.349140" lon="-5.522870">
        <ele>299.147</ele>
        <time>2020-05-25T00:42:50Z</time>
      </trkpt>
      <trkpt lat="43.349130" lon="-5.522770">
        <ele>299.994</ele>
        <time>2020-05-25T00:43:10Z</time>
      </trkpt>
      <trkpt lat="43.349110" lon="-5.522660">
        <ele>301.170</ele>
        <time>2020-05-25T00:43:30Z</time>
      </trkpt>
      <trkpt lat="43.349100" lon="-5.522610">
        <ele>301.789</ele>
        <time>2020-05-25T00:43:50Z</time>
      </trkpt>
      <trkpt lat="43.349080" lon="-5.522490">
        <ele>303.360</ele>
        <time>2020-05-25T00:44:10Z</time>
      </trkpt>
      <trkpt lat="43.349050" lon="-5.522370">
        <ele>304.599</ele>
        <time>2020-05-25T00:44:30Z</time>
      </trkpt>
      <trkpt lat="43.349020" lon="-5.522250">
        <ele>305.952</ele>
        <time>2020-05-25T00:44:50Z</time>
      </trkpt>
      <trkpt lat="43.349000" lon="-5.522160">
        <ele>306.741</ele>
        <time>2020-05-25T00:45:10Z</time>
      </trkpt>
      <trkpt lat="43.348970" lon="-5.522060">
        <ele>307.181</ele>
        <time>2020-05-25T00:45:30Z</time>
      </trkpt>
      <trkpt lat="43.348940" lon="-5.521950">
        <ele>307.409</ele>
        <time>2020-05-25T00:45:50Z</time>
      </trkpt>
      <trkpt lat="43.348920" lon="-5.521830">
        <ele>307.708</ele>
        <time>2020-05-25T00:46:10Z</time>
      </trkpt>
      <trkpt lat="43.348920" lon="-5.521700">
        <ele>308.748</ele>
        <time>2020-05-25T00:46:30Z</time>
      </trkpt>
      <trkpt lat="43.348930" lon="-5.521580">
        <ele>309.423</ele>
        <time>2020-05-25T00:46:50Z</time>
      </trkpt>
      <trkpt lat="43.348950" lon="-5.521480">
        <ele>310.120</ele>
        <time>2020-05-25T00:47:10Z</time>
      </trkpt>
      <trkpt lat="43.348980" lon="-5.521410">
        <ele>310.986</ele>
        <time>2020-05-25T00:47:30Z</time>
      </trkpt>
      <trkpt lat="43.349020" lon="-5.521320">
        <ele>311.485</ele>
        <time>2020-05-25T00:47:50Z</time>
      </trkpt>
      <trkpt lat="43.349080" lon="-5.521230">
        <ele>311.856</ele>
        <time>2020-05-25T00:48:10Z</time>
      </trkpt>
      <trkpt lat="43.349140" lon="-5.521150">
        <ele>312.065</ele>
        <time>2020-05-25T00:48:30Z</time>
      </trkpt>
      <trkpt lat="43.349230" lon="-5.521090">
        <ele>312.428</ele>
        <time>2020-05-25T00:48:50Z</time>
      </trkpt>
      <trkpt lat="43.349240" lon="-5.521080">
        <ele>312.384</ele>
        <time>2020-05-25T00:49:10Z</time>
      </trkpt>
      <trkpt lat="43.349360" lon="-5.521030">
        <ele>312.907</ele>
        <time>2020-05-25T00:49:30Z</time>
      </trkpt>
      <trkpt lat="43.349470" lon="-5.520990">
        <ele>313.817</ele>
        <time>2020-05-25T00:49:50Z</time>
      </trkpt>
      <trkpt lat="43.349800" lon="-5.520890">
        <ele>316.908</ele>
        <time>2020-05-25T00:50:10Z</time>
      </trkpt>
      <trkpt lat="43.349880" lon="-5.520860">
        <ele>317.272</ele>
        <time>2020-05-25T00:50:30Z</time>
      </trkpt>
      <trkpt lat="43.350060" lon="-5.520810">
        <ele>318.277</ele>
        <time>2020-05-25T00:50:50Z</time>
      </trkpt>
      <trkpt lat="43.350260" lon="-5.520750">
        <ele>319.634</ele>
        <time>2020-05-25T00:51:10Z</time>
      </trkpt>
      <trkpt lat="43.350340" lon="-5.520720">
        <ele>320.480</ele>
        <time>2020-05-25T00:51:30Z</time>
      </trkpt>
      <trkpt lat="43.350360" lon="-5.520710">
        <ele>320.669</ele>
        <time>2020-05-25T00:51:50Z</time>
      </trkpt>
      <trkpt lat="43.350570" lon="-5.520640">
        <ele>322.780</ele>
        <time>2020-05-25T00:52:10Z</time>
      </trkpt>
      <trkpt lat="43.350690" lon="-5.520600">
        <ele>323.269</ele>
        <time>2020-05-25T00:52:30Z</time>
      </trkpt>
      <trkpt lat="43.350780" lon="-5.520560">
        <ele>323.572</ele>
        <time>2020-05-25T00:52:50Z</time>
      </trkpt>
      <trkpt lat="43.350970" lon="-5.520450">
        <ele>322.969</ele>
        <time>2020-05-25T00:53:10Z</time>
      </trkpt>
      <trkpt lat="43.351070" lon="-5.520390">
        <ele>323.504</ele>
        <time>2020-05-25T00:53:30Z</time>
      </trkpt>
      <trkpt lat="43.351160" lon="-5.520340">
        <ele>324.024</ele>
        <time>2020-05-25T00:53:50Z</time>
      </trkpt>
      <trkpt lat="43.351330" lon="-5.520240">
        <ele>324.208</ele>
        <time>2020-05-25T00:54:10Z</time>
      </trkpt>
      <trkpt lat="43.351360" lon="-5.520230">
        <ele>324.470</ele>
        <time>2020-05-25T00:54:30Z</time>
      </trkpt>
      <trkpt lat="43.351390" lon="-5.520220">
        <ele>324.615</ele>
        <time>2020-05-25T00:54:50Z</time>
      </trkpt>
      <trkpt lat="43.351440" lon="-5.520200">
        <ele>324.692</ele>
        <time>2020-05-25T00:55:10Z</time>
      </trkpt>
      <trkpt lat="43.351570" lon="-5.520180">
        <ele>325.078</ele>
        <time>2020-05-25T00:55:30Z</time>
      </trkpt>
      <trkpt lat="43.351670" lon="-5.520190">
        <ele>325.387</ele>
        <time>2020-05-25T00:55:50Z</time>
      </trkpt>
      <trkpt lat="43.351740" lon="-5.520210">
        <ele>325.058</ele>
        <time>2020-05-25T00:56:10Z</time>
      </trkpt>
      <trkpt lat="43.351830" lon="-5.520250">
        <ele>324.587</ele>
        <time>2020-05-25T00:56:30Z</time>
      </trkpt>
      <trkpt lat="43.351900" lon="-5.520290">
        <ele>324.210</ele>
        <time>2020-05-25T00:56:50Z</time>
      </trkpt>
      <trkpt lat="43.351980" lon="-5.520360">
        <ele>323.559</ele>
        <time>2020-05-25T00:57:10Z</time>
      </trkpt>
      <trkpt lat="43.352040" lon="-5.520420">
        <ele>322.803</ele>
        <time>2020-05-25T00:57:30Z</time>
      </trkpt>
      <trkpt lat="43.352050" lon="-5.520420">
        <ele>322.623</ele>
        <time>2020-05-25T00:57:50Z</time>
      </trkpt>
      <trkpt lat="43.352110" lon="-5.520510">
        <ele>323.108</ele>
        <time>2020-05-25T00:58:10Z</time>
      </trkpt>
      <trkpt lat="43.352190" lon="-5.520640">
        <ele>323.679</ele>
        <time>2020-05-25T00:58:30Z</time>
      </trkpt>
      <trkpt lat="43.352280" lon="-5.520800">
        <ele>323.174</ele>
        <time>2020-05-25T00:58:50Z</time>
      </trkpt>
      <trkpt lat="43.352340" lon="-5.520910">
        <ele>322.981</ele>
        <time>2020-05-25T00:59:10Z</time>
      </trkpt>
      <trkpt lat="43.352390" lon="-5.520990">
        <ele>322.387</ele>
        <time>2020-05-25T00:59:30Z</time>
      </trkpt>
      <trkpt lat="43.352420" lon="-5.521050">
        <ele>321.846</ele>
        <time>2020-05-25T00:59:50Z</time>
      </trkpt>
      <trkpt lat="43.352450" lon="-5.521090">
        <ele>321.117</ele>
        <time>2020-05-25T01:00:10Z</time>
      </trkpt>
      <trkpt lat="43.352470" lon="-5.521120">
        <ele>320.726</ele>
        <time>2020-05-25T01:00:30Z</time>
      </trkpt>
      <trkpt lat="43.352540" lon="-5.521200">
        <ele>319.549</ele>
        <time>2020-05-25T01:00:50Z</time>
      </trkpt>
      <trkpt lat="43.352560" lon="-5.521230">
        <ele>319.366</ele>
        <time>2020-05-25T01:01:10Z</time>
      </trkpt>
      <trkpt lat="43.352600" lon="-5.521260">
        <ele>318.929</ele>
        <time>2020-05-25T01:01:30Z</time>
      </trkpt>
      <trkpt lat="43.352690" lon="-5.521320">
        <ele>318.321</ele>
        <time>2020-05-25T01:01:50Z</time>
      </trkpt>
      <trkpt lat="43.352790" lon="-5.521360">
        <ele>317.708</ele>
        <time>2020-05-25T01:02:10Z</time>
      </trkpt>
      <trkpt lat="43.352880" lon="-5.521390">
        <ele>316.950</ele>
        <time>2020-05-25T01:02:30Z</time>
      </trkpt>
      <trkpt lat="43.352900" lon="-5.521390">
        <ele>316.745</ele>
        <time>2020-05-25T01:02:50Z</time>
      </trkpt>
      <trkpt lat="43.352940" lon="-5.521400">
        <ele>316.252</ele>
        <time>2020-05-25T01:03:10Z</time>
      </trkpt>
      <trkpt lat="43.353020" lon="-5.521390">
        <ele>315.498</ele>
        <time>2020-05-25T01:03:30Z</time>
      </trkpt>
      <trkpt lat="43.353080" lon="-5.521380">
        <ele>314.787</ele>
        <time>2020-05-25T01:03:50Z</time>
      </trkpt>
      <trkpt lat="43.353120" lon="-5.521370">
        <ele>314.388</ele>
        <time>2020-05-25T01:04:10Z</time>
      </trkpt>
      <trkpt lat="43.353170" lon="-5.521350">
        <ele>313.797</ele>
        <time>2020-05-25T01:04:30Z</time>
      </trkpt>
      <trkpt lat="43.353220" lon="-5.521320">
        <ele>313.040</ele>
        <time>2020-05-25T01:04:50Z</time>
      </trkpt>
      <trkpt lat="43.353330" lon="-5.521240">
        <ele>311.459</ele>
        <time>2020-05-25T01:05:10Z</time>
      </trkpt>
      <trkpt lat="43.353390" lon="-5.521170">
        <ele>311.003</ele>
        <time>2020-05-25T01:05:30Z</time>
      </trkpt>
      <trkpt lat="43.353400" lon="-5.521170">
        <ele>311.123</ele>
        <time>2020-05-25T01:05:50Z</time>
      </trkpt>
      <trkpt lat="43.353460" lon="-5.521080">
        <ele>310.408</ele>
        <time>2020-05-25T01:06:10Z</time>
      </trkpt>
      <trkpt lat="43.353540" lon="-5.520950">
        <ele>309.399</ele>
        <time>2020-05-25T01:06:30Z</time>
      </trkpt>
      <trkpt lat="43.353600" lon="-5.520770">
        <ele>308.194</ele>
        <time>2020-05-25T01:06:50Z</time>
      </trkpt>
      <trkpt lat="43.353610" lon="-5.520740">
        <ele>308.011</ele>
        <time>2020-05-25T01:07:10Z</time>
      </trkpt>
      <trkpt lat="43.353730" lon="-5.520370">
        <ele>305.127</ele>
        <time>2020-05-25T01:07:30Z</time>
      </trkpt>
      <trkpt lat="43.353740" lon="-5.520350">
        <ele>304.926</ele>
        <time>2020-05-25T01:07:50Z</time>
      </trkpt>
      <trkpt lat="43.353840" lon="-5.520050">
        <ele>302.927</ele>
        <time>2020-05-25T01:08:10Z</time>
      </trkpt>
      <trkpt lat="43.353900" lon="-5.519840">
        <ele>301.436</ele>
        <time>2020-05-25T01:08:30Z</time>
      </trkpt>
      <trkpt lat="43.353960" lon="-5.519670">
        <ele>300.449</ele>
        <time>2020-05-25T01:08:50Z</time>
      </trkpt>
      <trkpt lat="43.353980" lon="-5.519640">
        <ele>300.284</ele>
        <time>2020-05-25T01:09:10Z</time>
      </trkpt>
      <trkpt lat="43.353990" lon="-5.519600">
        <ele>299.807</ele>
        <time>2020-05-25T01:09:30Z</time>
      </trkpt>
      <trkpt lat="43.354010" lon="-5.519560">
        <ele>299.517</ele>
        <time>2020-05-25T01:09:50Z</time>
      </trkpt>
      <trkpt lat="43.354040" lon="-5.519510">
        <ele>299.108</ele>
        <time>2020-05-25T01:10:10Z</time>
      </trkpt>
      <trkpt lat="43.354060" lon="-5.519470">
        <ele>298.692</ele>
        <time>2020-05-25T01:10:30Z</time>
      </trkpt>
      <trkpt lat="43.354090" lon="-5.519430">
        <ele>298.247</ele>
        <time>2020-05-25T01:10:50Z</time>
      </trkpt>
      <trkpt lat="43.354100" lon="-5.519420">
        <ele>298.194</ele>
        <time>2020-05-25T01:11:10Z</time>
      </trkpt>
      <trkpt lat="43.354140" lon="-5.519360">
        <ele>297.880</ele>
        <time>2020-05-25T01:11:30Z</time>
      </trkpt>
      <trkpt lat="43.354180" lon="-5.519310">
        <ele>297.779</ele>
        <time>2020-05-25T01:11:50Z</time>
      </trkpt>
      <trkpt lat="43.354210" lon="-5.519270">
        <ele>297.640</ele>
        <time>2020-05-25T01:12:10Z</time>
      </trkpt>
      <trkpt lat="43.354250" lon="-5.519230">
        <ele>297.779</ele>
        <time>2020-05-25T01:12:30Z</time>
      </trkpt>
      <trkpt lat="43.354280" lon="-5.519180">
        <ele>297.412</ele>
        <time>2020-05-25T01:12:50Z</time>
      </trkpt>
      <trkpt lat="43.354300" lon="-5.519140">
        <ele>297.229</ele>
        <time>2020-05-25T01:13:10Z</time>
      </trkpt>
      <trkpt lat="43.354320" lon="-5.519110">
        <ele>297.000</ele>
        <time>2020-05-25T01:13:30Z</time>
      </trkpt>
      <trkpt lat="43.354340" lon="-5.519080">
        <ele>296.920</ele>
        <time>2020-05-25T01:13:50Z</time>
      </trkpt>
      <trkpt lat="43.354380" lon="-5.519000">
        <ele>296.508</ele>
        <time>2020-05-25T01:14:10Z</time>
      </trkpt>
      <trkpt lat="43.354400" lon="-5.518960">
        <ele>296.386</ele>
        <time>2020-05-25T01:14:30Z</time>
      </trkpt>
      <trkpt lat="43.354410" lon="-5.518910">
        <ele>295.911</ele>
        <time>2020-05-25T01:14:50Z</time>
      </trkpt>
      <trkpt lat="43.354430" lon="-5.518850">
        <ele>295.558</ele>
        <time>2020-05-25T01:15:10Z</time>
      </trkpt>
      <trkpt lat="43.354440" lon="-5.518800">
        <ele>295.324</ele>
        <time>2020-05-25T01:15:30Z</time>
      </trkpt>
      <trkpt lat="43.354460" lon="-5.518750">
        <ele>295.123</ele>
        <time>2020-05-25T01:15:50Z</time>
      </trkpt>
      <trkpt lat="43.354460" lon="-5.518710">
        <ele>294.824</ele>
        <time>2020-05-25T01:16:10Z</time>
      </trkpt>
      <trkpt lat="43.354470" lon="-5.518660">
        <ele>294.583</ele>
        <time>2020-05-25T01:16:30Z</time>
      </trkpt>
      <trkpt lat="43.354480" lon="-5.518610">
        <ele>294.126</ele>
        <time>2020-05-25T01:16:50Z</time>
      </trkpt>
      <trkpt lat="43.354490" lon="-5.518540">
        <ele>293.718</ele>
        <time>2020-05-25T01:17:10Z</time>
      </trkpt>
      <trkpt lat="43.354520" lon="-5.518390">
        <ele>292.998</ele>
        <time>2020-05-25T01:17:30Z</time>
      </trkpt>
      <trkpt lat="43.354520" lon="-5.518350">
        <ele>292.617</ele>
        <time>2020-05-25T01:17:50Z</time>
      </trkpt>
      <trkpt lat="43.354530" lon="-5.518270">
        <ele>292.108</ele>
        <time>2020-05-25T01:18:10Z</time>
      </trkpt>
      <trkpt lat="43.354550" lon="-5.518190">
        <ele>291.815</ele>
        <time>2020-05-25T01:18:30Z</time>
      </trkpt>
      <trkpt lat="43.354560" lon="-5.518130">
        <ele>291.620</ele>
        <time>2020-05-25T01:18:50Z</time>
      </trkpt>
      <trkpt lat="43.354570" lon="-5.518060">
        <ele>291.387</ele>
        <time>2020-05-25T01:19:10Z</time>
      </trkpt>
      <trkpt lat="43.354590" lon="-5.518010">
        <ele>291.223</ele>
        <time>2020-05-25T01:19:30Z</time>
      </trkpt>
      <trkpt lat="43.354610" lon="-5.517920">
        <ele>290.772</ele>
        <time>2020-05-25T01:19:50Z</time>
      </trkpt>
      <trkpt lat="43.354630" lon="-5.517860">
        <ele>290.553</ele>
        <time>2020-05-25T01:20:10Z</time>
      </trkpt>
      <trkpt lat="43.354670" lon="-5.517740">
        <ele>289.922</ele>
        <time>2020-05-25T01:20:30Z</time>
      </trkpt>
      <trkpt lat="43.354730" lon="-5.517620">
        <ele>289.495</ele>
        <time>2020-05-25T01:20:50Z</time>
      </trkpt>
      <trkpt lat="43.354800" lon="-5.517480">
        <ele>288.719</ele>
        <time>2020-05-25T01:21:10Z</time>
      </trkpt>
      <trkpt lat="43.354890" lon="-5.517350">
        <ele>288.109</ele>
        <time>2020-05-25T01:21:30Z</time>
      </trkpt>
      <trkpt lat="43.354950" lon="-5.517250">
        <ele>287.219</ele>
        <time>2020-05-25T01:21:50Z</time>
      </trkpt>
      <trkpt lat="43.354990" lon="-5.517170">
        <ele>286.408</ele>
        <time>2020-05-25T01:22:10Z</time>
      </trkpt>
      <trkpt lat="43.355020" lon="-5.517110">
        <ele>285.915</ele>
        <time>2020-05-25T01:22:30Z</time>
      </trkpt>
      <trkpt lat="43.355040" lon="-5.517080">
        <ele>285.710</ele>
        <time>2020-05-25T01:22:50Z</time>
      </trkpt>
      <trkpt lat="43.355050" lon="-5.517060">
        <ele>285.527</ele>
        <time>2020-05-25T01:23:10Z</time>
      </trkpt>
      <trkpt lat="43.355090" lon="-5.516940">
        <ele>284.343</ele>
        <time>2020-05-25T01:23:30Z</time>
      </trkpt>
      <trkpt lat="43.355120" lon="-5.516860">
        <ele>284.032</ele>
        <time>2020-05-25T01:23:50Z</time>
      </trkpt>
      <trkpt lat="43.355120" lon="-5.516850">
        <ele>283.953</ele>
        <time>2020-05-25T01:24:10Z</time>
      </trkpt>
      <trkpt lat="43.355130" lon="-5.516790">
        <ele>283.682</ele>
        <time>2020-05-25T01:24:30Z</time>
      </trkpt>
      <trkpt lat="43.355140" lon="-5.516750">
        <ele>283.595</ele>
        <time>2020-05-25T01:24:50Z</time>
      </trkpt>
      <trkpt lat="43.355150" lon="-5.516700">
        <ele>283.352</ele>
        <time>2020-05-25T01:25:10Z</time>
      </trkpt>
      <trkpt lat="43.355150" lon="-5.516670">
        <ele>283.153</ele>
        <time>2020-05-25T01:25:30Z</time>
      </trkpt>
      <trkpt lat="43.355160" lon="-5.516620">
        <ele>283.008</ele>
        <time>2020-05-25T01:25:50Z</time>
      </trkpt>
      <trkpt lat="43.355170" lon="-5.516560">
        <ele>282.808</ele>
        <time>2020-05-25T01:26:10Z</time>
      </trkpt>
      <trkpt lat="43.355160" lon="-5.516520">
        <ele>282.629</ele>
        <time>2020-05-25T01:26:30Z</time>
      </trkpt>
      <trkpt lat="43.355160" lon="-5.516480">
        <ele>282.544</ele>
        <time>2020-05-25T01:26:50Z</time>
      </trkpt>
      <trkpt lat="43.355160" lon="-5.516450">
        <ele>282.471</ele>
        <time>2020-05-25T01:27:10Z</time>
      </trkpt>
      <trkpt lat="43.355150" lon="-5.516420">
        <ele>282.287</ele>
        <time>2020-05-25T01:27:30Z</time>
      </trkpt>
      <trkpt lat="43.355150" lon="-5.516390">
        <ele>282.166</ele>
        <time>2020-05-25T01:27:50Z</time>
      </trkpt>
      <trkpt lat="43.355140" lon="-5.516350">
        <ele>281.947</ele>
        <time>2020-05-25T01:28:10Z</time>
      </trkpt>
      <trkpt lat="43.355130" lon="-5.516320">
        <ele>281.826</ele>
        <time>2020-05-25T01:28:30Z</time>
      </trkpt>
      <trkpt lat="43.355130" lon="-5.516290">
        <ele>281.849</ele>
        <time>2020-05-25T01:28:50Z</time>
      </trkpt>
      <trkpt lat="43.355120" lon="-5.516260">
        <ele>281.791</ele>
        <time>2020-05-25T01:29:10Z</time>
      </trkpt>
      <trkpt lat="43.355110" lon="-5.516220">
        <ele>281.681</ele>
        <time>2020-05-25T01:29:30Z</time>
      </trkpt>
      <trkpt lat="43.355100" lon="-5.516180">
        <ele>281.419</ele>
        <time>2020-05-25T01:29:50Z</time>
      </trkpt>
      <trkpt lat="43.355090" lon="-5.516140">
        <ele>281.408</ele>
        <time>2020-05-25T01:30:10Z</time>
      </trkpt>
      <trkpt lat="43.355080" lon="-5.516120">
        <ele>281.333</ele>
        <time>2020-05-25T01:30:30Z</time>
      </trkpt>
      <trkpt lat="43.355060" lon="-5.516040">
        <ele>281.248</ele>
        <time>2020-05-25T01:30:50Z</time>
      </trkpt>
      <trkpt lat="43.355030" lon="-5.515940">
        <ele>281.165</ele>
        <time>2020-05-25T01:31:10Z</time>
      </trkpt>
      <trkpt lat="43.355010" lon="-5.515840">
        <ele>281.031</ele>
        <time>2020-05-25T01:31:30Z</time>
      </trkpt>
      <trkpt lat="43.354990" lon="-5.515760">
        <ele>280.940</ele>
        <time>2020-05-25T01:31:50Z</time>
      </trkpt>
      <trkpt lat="43.354980" lon="-5.515660">
        <ele>280.891</ele>
        <time>2020-05-25T01:32:10Z</time>
      </trkpt>
      <trkpt lat="43.354980" lon="-5.515630">
        <ele>280.870</ele>
        <time>2020-05-25T01:32:30Z</time>
      </trkpt>
      <trkpt lat="43.354980" lon="-5.515570">
        <ele>280.863</ele>
        <time>2020-05-25T01:32:50Z</time>
      </trkpt>
      <trkpt lat="43.354980" lon="-5.515480">
        <ele>280.229</ele>
        <time>2020-05-25T01:33:10Z</time>
      </trkpt>
      <trkpt lat="43.354990" lon="-5.515380">
        <ele>279.600</ele>
        <time>2020-05-25T01:33:30Z</time>
      </trkpt>
      <trkpt lat="43.355000" lon="-5.515370">
        <ele>279.720</ele>
        <time>2020-05-25T01:33:50Z</time>
      </trkpt>
      <trkpt lat="43.355020" lon="-5.515280">
        <ele>279.208</ele>
        <time>2020-05-25T01:34:10Z</time>
      </trkpt>
      <trkpt lat="43.355040" lon="-5.515210">
        <ele>278.986</ele>
        <time>2020-05-25T01:34:30Z</time>
      </trkpt>
      <trkpt lat="43.355060" lon="-5.515160">
        <ele>278.791</ele>
        <time>2020-05-25T01:34:50Z</time>
      </trkpt>
      <trkpt lat="43.355070" lon="-5.515130">
        <ele>278.618</ele>
        <time>2020-05-25T01:35:10Z</time>
      </trkpt>
      <trkpt lat="43.355110" lon="-5.515020">
        <ele>278.064</ele>
        <time>2020-05-25T01:35:30Z</time>
      </trkpt>
      <trkpt lat="43.355170" lon="-5.514900">
        <ele>277.483</ele>
        <time>2020-05-25T01:35:50Z</time>
      </trkpt>
      <trkpt lat="43.355240" lon="-5.514750">
        <ele>276.844</ele>
        <time>2020-05-25T01:36:10Z</time>
      </trkpt>
      <trkpt lat="43.355250" lon="-5.514730">
        <ele>276.833</ele>
        <time>2020-05-25T01:36:30Z</time>
      </trkpt>
      <trkpt lat="43.355310" lon="-5.514590">
        <ele>276.026</ele>
        <time>2020-05-25T01:36:50Z</time>
      </trkpt>
      <trkpt lat="43.355390" lon="-5.514430">
        <ele>275.014</ele>
        <time>2020-05-25T01:37:10Z</time>
      </trkpt>
      <trkpt lat="43.355450" lon="-5.514320">
        <ele>273.954</ele>
        <time>2020-05-25T01:37:30Z</time>
      </trkpt>
      <trkpt lat="43.355500" lon="-5.514220">
        <ele>273.009</ele>
        <time>2020-05-25T01:37:50Z</time>
      </trkpt>
      <trkpt lat="43.355560" lon="-5.514130">
        <ele>272.508</ele>
        <time>2020-05-25T01:38:10Z</time>
      </trkpt>
      <trkpt lat="43.355600" lon="-5.514070">
        <ele>272.125</ele>
        <time>2020-05-25T01:38:30Z</time>
      </trkpt>
      <trkpt lat="43.355660" lon="-5.514020">
        <ele>272.090</ele>
        <time>2020-05-25T01:38:50Z</time>
      </trkpt>
      <trkpt lat="43.355700" lon="-5.513970">
        <ele>271.757</ele>
        <time>2020-05-25T01:39:10Z</time>
      </trkpt>
      <trkpt lat="43.355730" lon="-5.513940">
        <ele>271.693</ele>
        <time>2020-05-25T01:39:30Z</time>
      </trkpt>
      <trkpt lat="43.355840" lon="-5.513830">
        <ele>271.232</ele>
        <time>2020-05-25T01:39:50Z</time>
      </trkpt>
      <trkpt lat="43.355980" lon="-5.513690">
        <ele>270.383</ele>
        <time>2020-05-25T01:40:10Z</time>
      </trkpt>
      <trkpt lat="43.356070" lon="-5.513600">
        <ele>269.582</ele>
        <time>2020-05-25T01:40:30Z</time>
      </trkpt>
      <trkpt lat="43.356190" lon="-5.513480">
        <ele>268.855</ele>
        <time>2020-05-25T01:40:50Z</time>
      </trkpt>
      <trkpt lat="43.356290" lon="-5.513380">
        <ele>268.118</ele>
        <time>2020-05-25T01:41:10Z</time>
      </trkpt>
      <trkpt lat="43.356400" lon="-5.513300">
        <ele>267.598</ele>
        <time>2020-05-25T01:41:30Z</time>
      </trkpt>
      <trkpt lat="43.356420" lon="-5.513290">
        <ele>267.417</ele>
        <time>2020-05-25T01:41:50Z</time>
      </trkpt>
      <trkpt lat="43.356480" lon="-5.513260">
        <ele>267.008</ele>
        <time>2020-05-25T01:42:10Z</time>
      </trkpt>
      <trkpt lat="43.356520" lon="-5.513250">
        <ele>266.925</ele>
        <time>2020-05-25T01:42:30Z</time>
      </trkpt>
      <trkpt lat="43.356560" lon="-5.513230">
        <ele>266.780</ele>
        <time>2020-05-25T01:42:50Z</time>
      </trkpt>
      <trkpt lat="43.356610" lon="-5.513220">
        <ele>266.777</ele>
        <time>2020-05-25T01:43:10Z</time>
      </trkpt>
      <trkpt lat="43.356660" lon="-5.513210">
        <ele>266.713</ele>
        <time>2020-05-25T01:43:30Z</time>
      </trkpt>
      <trkpt lat="43.356740" lon="-5.513200">
        <ele>265.972</ele>
        <time>2020-05-25T01:43:50Z</time>
      </trkpt>
      <trkpt lat="43.356790" lon="-5.513200">
        <ele>265.423</ele>
        <time>2020-05-25T01:44:10Z</time>
      </trkpt>
      <trkpt lat="43.356850" lon="-5.513200">
        <ele>264.912</ele>
        <time>2020-05-25T01:44:30Z</time>
      </trkpt>
      <trkpt lat="43.356890" lon="-5.513200">
        <ele>264.565</ele>
        <time>2020-05-25T01:44:50Z</time>
      </trkpt>
      <trkpt lat="43.356940" lon="-5.513190">
        <ele>264.057</ele>
        <time>2020-05-25T01:45:10Z</time>
      </trkpt>
      <trkpt lat="43.356990" lon="-5.513180">
        <ele>263.400</ele>
        <time>2020-05-25T01:45:30Z</time>
      </trkpt>
      <trkpt lat="43.357070" lon="-5.513150">
        <ele>262.520</ele>
        <time>2020-05-25T01:45:50Z</time>
      </trkpt>
      <trkpt lat="43.357080" lon="-5.513150">
        <ele>262.408</ele>
        <time>2020-05-25T01:46:10Z</time>
      </trkpt>
      <trkpt lat="43.357120" lon="-5.513130">
        <ele>261.979</ele>
        <time>2020-05-25T01:46:30Z</time>
      </trkpt>
      <trkpt lat="43.357150" lon="-5.513110">
        <ele>261.644</ele>
        <time>2020-05-25T01:46:50Z</time>
      </trkpt>
      <trkpt lat="43.357170" lon="-5.513090">
        <ele>261.421</ele>
        <time>2020-05-25T01:47:10Z</time>
      </trkpt>
      <trkpt lat="43.357190" lon="-5.513070">
        <ele>261.267</ele>
        <time>2020-05-25T01:47:30Z</time>
      </trkpt>
      <trkpt lat="43.357240" lon="-5.513010">
        <ele>260.936</ele>
        <time>2020-05-25T01:47:50Z</time>
      </trkpt>
      <trkpt lat="43.357270" lon="-5.512940">
        <ele>260.877</ele>
        <time>2020-05-25T01:48:10Z</time>
      </trkpt>
      <trkpt lat="43.357290" lon="-5.512890">
        <ele>260.876</ele>
        <time>2020-05-25T01:48:30Z</time>
      </trkpt>
      <trkpt lat="43.357300" lon="-5.512850">
        <ele>260.889</ele>
        <time>2020-05-25T01:48:50Z</time>
      </trkpt>
      <trkpt lat="43.357310" lon="-5.512830">
        <ele>260.872</ele>
        <time>2020-05-25T01:49:10Z</time>
      </trkpt>
      <trkpt lat="43.357320" lon="-5.512790">
        <ele>260.813</ele>
        <time>2020-05-25T01:49:30Z</time>
      </trkpt>
      <trkpt lat="43.357320" lon="-5.512740">
        <ele>260.814</ele>
        <time>2020-05-25T01:49:50Z</time>
      </trkpt>
      <trkpt lat="43.357320" lon="-5.512680">
        <ele>260.808</ele>
        <time>2020-05-25T01:50:10Z</time>
      </trkpt>
      <trkpt lat="43.357320" lon="-5.512640">
        <ele>260.851</ele>
        <time>2020-05-25T01:50:30Z</time>
      </trkpt>
      <trkpt lat="43.357320" lon="-5.512590">
        <ele>260.856</ele>
        <time>2020-05-25T01:50:50Z</time>
      </trkpt>
      <trkpt lat="43.357310" lon="-5.512490">
        <ele>260.643</ele>
        <time>2020-05-25T01:51:10Z</time>
      </trkpt>
      <trkpt lat="43.357300" lon="-5.512440">
        <ele>260.689</ele>
        <time>2020-05-25T01:51:30Z</time>
      </trkpt>
      <trkpt lat="43.357290" lon="-5.512370">
        <ele>260.698</ele>
        <time>2020-05-25T01:51:50Z</time>
      </trkpt>
      <trkpt lat="43.357280" lon="-5.512320">
        <ele>260.649</ele>
        <time>2020-05-25T01:52:10Z</time>
      </trkpt>
      <trkpt lat="43.357260" lon="-5.512240">
        <ele>260.578</ele>
        <time>2020-05-25T01:52:30Z</time>
      </trkpt>
      <trkpt lat="43.357250" lon="-5.512180">
        <ele>260.431</ele>
        <time>2020-05-25T01:52:50Z</time>
      </trkpt>
      <trkpt lat="43.357240" lon="-5.512140">
        <ele>260.266</ele>
        <time>2020-05-25T01:53:10Z</time>
      </trkpt>
      <trkpt lat="43.357230" lon="-5.512100">
        <ele>260.129</ele>
        <time>2020-05-25T01:53:30Z</time>
      </trkpt>
      <trkpt lat="43.357230" lon="-5.512050">
        <ele>260.121</ele>
        <time>2020-05-25T01:53:50Z</time>
      </trkpt>
      <trkpt lat="43.357220" lon="-5.512010">
        <ele>260.008</ele>
        <time>2020-05-25T01:54:10Z</time>
      </trkpt>
      <trkpt lat="43.357220" lon="-5.511970">
        <ele>260.030</ele>
        <time>2020-05-25T01:54:30Z</time>
      </trkpt>
      <trkpt lat="43.357210" lon="-5.511940">
        <ele>259.865</ele>
        <time>2020-05-25T01:54:50Z</time>
      </trkpt>
      <trkpt lat="43.357210" lon="-5.511900">
        <ele>259.652</ele>
        <time>2020-05-25T01:55:10Z</time>
      </trkpt>
      <trkpt lat="43.357210" lon="-5.511850">
        <ele>259.548</ele>
        <time>2020-05-25T01:55:30Z</time>
      </trkpt>
      <trkpt lat="43.357220" lon="-5.511790">
        <ele>259.417</ele>
        <time>2020-05-25T01:55:50Z</time>
      </trkpt>
      <trkpt lat="43.357220" lon="-5.511720">
        <ele>259.238</ele>
        <time>2020-05-25T01:56:10Z</time>
      </trkpt>
      <trkpt lat="43.357230" lon="-5.511660">
        <ele>259.037</ele>
        <time>2020-05-25T01:56:30Z</time>
      </trkpt>
      <trkpt lat="43.357240" lon="-5.511600">
        <ele>258.780</ele>
        <time>2020-05-25T01:56:50Z</time>
      </trkpt>
      <trkpt lat="43.357250" lon="-5.511540">
        <ele>258.569</ele>
        <time>2020-05-25T01:57:10Z</time>
      </trkpt>
      <trkpt lat="43.357270" lon="-5.511470">
        <ele>258.304</ele>
        <time>2020-05-25T01:57:30Z</time>
      </trkpt>
      <trkpt lat="43.357280" lon="-5.511410">
        <ele>258.224</ele>
        <time>2020-05-25T01:57:50Z</time>
      </trkpt>
      <trkpt lat="43.357290" lon="-5.511350">
        <ele>258.108</ele>
        <time>2020-05-25T01:58:10Z</time>
      </trkpt>
      <trkpt lat="43.357300" lon="-5.511320">
        <ele>258.250</ele>
        <time>2020-05-25T01:58:30Z</time>
      </trkpt>
      <trkpt lat="43.357320" lon="-5.511220">
        <ele>258.195</ele>
        <time>2020-05-25T01:58:50Z</time>
      </trkpt>
      <trkpt lat="43.357370" lon="-5.511110">
        <ele>258.132</ele>
        <time>2020-05-25T01:59:10Z</time>
      </trkpt>
      <trkpt lat="43.357410" lon="-5.511030">
        <ele>257.868</ele>
        <time>2020-05-25T01:59:30Z</time>
      </trkpt>
      <trkpt lat="43.357460" lon="-5.510950">
        <ele>257.677</ele>
        <time>2020-05-25T01:59:50Z</time>
      </trkpt>
      <trkpt lat="43.357530" lon="-5.510850">
        <ele>257.358</ele>
        <time>2020-05-25T02:00:10Z</time>
      </trkpt>
      <trkpt lat="43.357600" lon="-5.510780">
        <ele>257.297</ele>
        <time>2020-05-25T02:00:30Z</time>
      </trkpt>
      <trkpt lat="43.357660" lon="-5.510710">
        <ele>256.820</ele>
        <time>2020-05-25T02:00:50Z</time>
      </trkpt>
      <trkpt lat="43.357790" lon="-5.510560">
        <ele>255.173</ele>
        <time>2020-05-25T02:01:10Z</time>
      </trkpt>
      <trkpt lat="43.357910" lon="-5.510440">
        <ele>254.485</ele>
        <time>2020-05-25T02:01:30Z</time>
      </trkpt>
      <trkpt lat="43.358160" lon="-5.510210">
        <ele>252.413</ele>
        <time>2020-05-25T02:01:50Z</time>
      </trkpt>
      <trkpt lat="43.358350" lon="-5.510040">
        <ele>251.108</ele>
        <time>2020-05-25T02:02:10Z</time>
      </trkpt>
      <trkpt lat="43.358390" lon="-5.510000">
        <ele>251.081</ele>
        <time>2020-05-25T02:02:30Z</time>
      </trkpt>
      <trkpt lat="43.358630" lon="-5.509810">
        <ele>250.296</ele>
        <time>2020-05-25T02:02:50Z</time>
      </trkpt>
      <trkpt lat="43.358800" lon="-5.509660">
        <ele>249.283</ele>
        <time>2020-05-25T02:03:10Z</time>
      </trkpt>
      <trkpt lat="43.358970" lon="-5.509510">
        <ele>249.179</ele>
        <time>2020-05-25T02:03:30Z</time>
      </trkpt>
      <trkpt lat="43.359020" lon="-5.509470">
        <ele>249.078</ele>
        <time>2020-05-25T02:03:50Z</time>
      </trkpt>
      <trkpt lat="43.359040" lon="-5.509450">
        <ele>249.039</ele>
        <time>2020-05-25T02:04:10Z</time>
      </trkpt>
      <trkpt lat="43.359060" lon="-5.509430">
        <ele>248.988</ele>
        <time>2020-05-25T02:04:30Z</time>
      </trkpt>
      <trkpt lat="43.359080" lon="-5.509420">
        <ele>248.941</ele>
        <time>2020-05-25T02:04:50Z</time>
      </trkpt>
      <trkpt lat="43.359100" lon="-5.509400">
        <ele>248.833</ele>
        <time>2020-05-25T02:05:10Z</time>
      </trkpt>
      <trkpt lat="43.359120" lon="-5.509380">
        <ele>248.723</ele>
        <time>2020-05-25T02:05:30Z</time>
      </trkpt>
      <trkpt lat="43.359130" lon="-5.509370">
        <ele>248.715</ele>
        <time>2020-05-25T02:05:50Z</time>
      </trkpt>
      <trkpt lat="43.359150" lon="-5.509350">
        <ele>248.608</ele>
        <time>2020-05-25T02:06:10Z</time>
      </trkpt>
      <trkpt lat="43.359160" lon="-5.509340">
        <ele>248.667</ele>
        <time>2020-05-25T02:06:30Z</time>
      </trkpt>
      <trkpt lat="43.359170" lon="-5.509320">
        <ele>248.612</ele>
        <time>2020-05-25T02:06:50Z</time>
      </trkpt>
      <trkpt lat="43.359170" lon="-5.509310">
        <ele>248.539</ele>
        <time>2020-05-25T02:07:10Z</time>
      </trkpt>
      <trkpt lat="43.359180" lon="-5.509300">
        <ele>248.535</ele>
        <time>2020-05-25T02:07:30Z</time>
      </trkpt>
      <trkpt lat="43.359190" lon="-5.509280">
        <ele>248.414</ele>
        <time>2020-05-25T02:07:50Z</time>
      </trkpt>
      <trkpt lat="43.359200" lon="-5.509270">
        <ele>248.435</ele>
        <time>2020-05-25T02:08:10Z</time>
      </trkpt>
      <trkpt lat="43.359210" lon="-5.509230">
        <ele>248.234</ele>
        <time>2020-05-25T02:08:30Z</time>
      </trkpt>
      <trkpt lat="43.359220" lon="-5.509190">
        <ele>248.177</ele>
        <time>2020-05-25T02:08:50Z</time>
      </trkpt>
      <trkpt lat="43.359220" lon="-5.509150">
        <ele>248.024</ele>
        <time>2020-05-25T02:09:10Z</time>
      </trkpt>
      <trkpt lat="43.359220" lon="-5.509100">
        <ele>247.904</ele>
        <time>2020-05-25T02:09:30Z</time>
      </trkpt>
      <trkpt lat="43.359230" lon="-5.509070">
        <ele>247.814</ele>
        <time>2020-05-25T02:09:50Z</time>
      </trkpt>
      <trkpt lat="43.359230" lon="-5.509030">
        <ele>247.808</ele>
        <time>2020-05-25T02:10:10Z</time>
      </trkpt>
      <trkpt lat="43.359230" lon="-5.508980">
        <ele>247.736</ele>
        <time>2020-05-25T02:10:30Z</time>
      </trkpt>
      <trkpt lat="43.359230" lon="-5.508960">
        <ele>247.751</ele>
        <time>2020-05-25T02:10:50Z</time>
      </trkpt>
      <trkpt lat="43.359230" lon="-5.508840">
        <ele>247.898</ele>
        <time>2020-05-25T02:11:10Z</time>
      </trkpt>
      <trkpt lat="43.359230" lon="-5.508750">
        <ele>248.344</ele>
        <time>2020-05-25T02:11:30Z</time>
      </trkpt>
      <trkpt lat="43.359230" lon="-5.508690">
        <ele>248.653</ele>
        <time>2020-05-25T02:11:50Z</time>
      </trkpt>
      <trkpt lat="43.359240" lon="-5.508590">
        <ele>249.194</ele>
        <time>2020-05-25T02:12:10Z</time>
      </trkpt>
      <trkpt lat="43.359240" lon="-5.508510">
        <ele>249.463</ele>
        <time>2020-05-25T02:12:30Z</time>
      </trkpt>
      <trkpt lat="43.359250" lon="-5.508430">
        <ele>249.756</ele>
        <time>2020-05-25T02:12:50Z</time>
      </trkpt>
      <trkpt lat="43.359250" lon="-5.508320">
        <ele>250.116</ele>
        <time>2020-05-25T02:13:10Z</time>
      </trkpt>
      <trkpt lat="43.359253" lon="-5.508320">
        <ele>250.176</ele>
        <time>2020-05-25T02:13:30Z</time>
      </trkpt>
      <trkpt lat="43.359130" lon="-5.508270">
        <ele>250.013</ele>
        <time>2020-05-25T02:13:50Z</time>
      </trkpt>
      <trkpt lat="43.358820" lon="-5.508130">
        <ele>249.008</ele>
        <time>2020-05-25T02:14:10Z</time>
      </trkpt>
      <trkpt lat="43.358822" lon="-5.508135">
        <ele>249.035</ele>
        <time>2020-05-25T02:14:30Z</time>
      </trkpt>
      <trkpt lat="43.358740" lon="-5.508060">
        <ele>248.920</ele>
        <time>2020-05-25T02:14:50Z</time>
      </trkpt>
      <trkpt lat="43.358640" lon="-5.507970">
        <ele>248.517</ele>
        <time>2020-05-25T02:15:10Z</time>
      </trkpt>
      <trkpt lat="43.358580" lon="-5.507920">
        <ele>248.313</ele>
        <time>2020-05-25T02:15:30Z</time>
      </trkpt>
      <trkpt lat="43.358550" lon="-5.507880">
        <ele>248.242</ele>
        <time>2020-05-25T02:15:50Z</time>
      </trkpt>
      <trkpt lat="43.358520" lon="-5.507820">
        <ele>248.243</ele>
        <time>2020-05-25T02:16:10Z</time>
      </trkpt>
      <trkpt lat="43.358500" lon="-5.507780">
        <ele>248.292</ele>
        <time>2020-05-25T02:16:30Z</time>
      </trkpt>
      <trkpt lat="43.358480" lon="-5.507730">
        <ele>248.025</ele>
        <time>2020-05-25T02:16:50Z</time>
      </trkpt>
      <trkpt lat="43.358470" lon="-5.507710">
        <ele>247.968</ele>
        <time>2020-05-25T02:17:10Z</time>
      </trkpt>
      <trkpt lat="43.358460" lon="-5.507670">
        <ele>247.842</ele>
        <time>2020-05-25T02:17:30Z</time>
      </trkpt>
      <trkpt lat="43.358450" lon="-5.507600">
        <ele>247.726</ele>
        <time>2020-05-25T02:17:50Z</time>
      </trkpt>
      <trkpt lat="43.358440" lon="-5.507530">
        <ele>247.608</ele>
        <time>2020-05-25T02:18:10Z</time>
      </trkpt>
      <trkpt lat="43.358440" lon="-5.507470">
        <ele>247.560</ele>
        <time>2020-05-25T02:18:30Z</time>
      </trkpt>
      <trkpt lat="43.358440" lon="-5.507400">
        <ele>247.395</ele>
        <time>2020-05-25T02:18:50Z</time>
      </trkpt>
      <trkpt lat="43.358440" lon="-5.507330">
        <ele>247.142</ele>
        <time>2020-05-25T02:19:10Z</time>
      </trkpt>
      <trkpt lat="43.358500" lon="-5.507030">
        <ele>246.988</ele>
        <time>2020-05-25T02:19:30Z</time>
      </trkpt>
      <trkpt lat="43.358550" lon="-5.506740">
        <ele>246.417</ele>
        <time>2020-05-25T02:19:50Z</time>
      </trkpt>
      <trkpt lat="43.358570" lon="-5.506590">
        <ele>246.498</ele>
        <time>2020-05-25T02:20:10Z</time>
      </trkpt>
      <trkpt lat="43.358620" lon="-5.506310">
        <ele>246.987</ele>
        <time>2020-05-25T02:20:30Z</time>
      </trkpt>
      <trkpt lat="43.358660" lon="-5.506010">
        <ele>246.750</ele>
        <time>2020-05-25T02:20:50Z</time>
      </trkpt>
      <trkpt lat="43.358670" lon="-5.505890">
        <ele>246.855</ele>
        <time>2020-05-25T02:21:10Z</time>
      </trkpt>
      <trkpt lat="43.358720" lon="-5.504780">
        <ele>246.607</ele>
        <time>2020-05-25T02:21:30Z</time>
      </trkpt>
      <trkpt lat="43.358718" lon="-5.504784">
        <ele>246.517</ele>
        <time>2020-05-25T02:21:50Z</time>
      </trkpt>
      <trkpt lat="43.358730" lon="-5.504550">
        <ele>246.108</ele>
        <time>2020-05-25T02:22:10Z</time>
      </trkpt>
      <trkpt lat="43.358730" lon="-5.504460">
        <ele>245.889</ele>
        <time>2020-05-25T02:22:30Z</time>
      </trkpt>
      <trkpt lat="43.358740" lon="-5.504390">
        <ele>245.624</ele>
        <time>2020-05-25T02:22:50Z</time>
      </trkpt>
      <trkpt lat="43.358750" lon="-5.504330">
        <ele>245.411</ele>
        <time>2020-05-25T02:23:10Z</time>
      </trkpt>
      <trkpt lat="43.358760" lon="-5.504270">
        <ele>245.237</ele>
        <time>2020-05-25T02:23:30Z</time>
      </trkpt>
      <trkpt lat="43.358790" lon="-5.504210">
        <ele>245.266</ele>
        <time>2020-05-25T02:23:50Z</time>
      </trkpt>
      <trkpt lat="43.358810" lon="-5.504170">
        <ele>245.217</ele>
        <time>2020-05-25T02:24:10Z</time>
      </trkpt>
      <trkpt lat="43.358840" lon="-5.504100">
        <ele>244.946</ele>
        <time>2020-05-25T02:24:30Z</time>
      </trkpt>
      <trkpt lat="43.358850" lon="-5.504080">
        <ele>244.939</ele>
        <time>2020-05-25T02:24:50Z</time>
      </trkpt>
      <trkpt lat="43.358880" lon="-5.504040">
        <ele>245.024</ele>
        <time>2020-05-25T02:25:10Z</time>
      </trkpt>
      <trkpt lat="43.358930" lon="-5.503980">
        <ele>244.904</ele>
        <time>2020-05-25T02:25:30Z</time>
      </trkpt>
      <trkpt lat="43.358990" lon="-5.503920">
        <ele>244.714</ele>
        <time>2020-05-25T02:25:50Z</time>
      </trkpt>
      <trkpt lat="43.359050" lon="-5.503860">
        <ele>244.308</ele>
        <time>2020-05-25T02:26:10Z</time>
      </trkpt>
      <trkpt lat="43.359100" lon="-5.503820">
        <ele>244.216</ele>
        <time>2020-05-25T02:26:30Z</time>
      </trkpt>
      <trkpt lat="43.359210" lon="-5.503730">
        <ele>243.911</ele>
        <time>2020-05-25T02:26:50Z</time>
      </trkpt>
      <trkpt lat="43.359310" lon="-5.503650">
        <ele>243.438</ele>
        <time>2020-05-25T02:27:10Z</time>
      </trkpt>
      <trkpt lat="43.359400" lon="-5.503570">
        <ele>242.574</ele>
        <time>2020-05-25T02:27:30Z</time>
      </trkpt>
      <trkpt lat="43.359403" lon="-5.503566">
        <ele>242.593</ele>
        <time>2020-05-25T02:27:50Z</time>
      </trkpt>
      <trkpt lat="43.359420" lon="-5.503550">
        <ele>242.334</ele>
        <time>2020-05-25T02:28:10Z</time>
      </trkpt>
      <trkpt lat="43.359520" lon="-5.503470">
        <ele>242.253</ele>
        <time>2020-05-25T02:28:30Z</time>
      </trkpt>
      <trkpt lat="43.359620" lon="-5.503380">
        <ele>242.386</ele>
        <time>2020-05-25T02:28:50Z</time>
      </trkpt>
      <trkpt lat="43.359700" lon="-5.503300">
        <ele>242.372</ele>
        <time>2020-05-25T02:29:10Z</time>
      </trkpt>
      <trkpt lat="43.359740" lon="-5.503260">
        <ele>242.213</ele>
        <time>2020-05-25T02:29:30Z</time>
      </trkpt>
      <trkpt lat="43.359810" lon="-5.503190">
        <ele>242.214</ele>
        <time>2020-05-25T02:29:50Z</time>
      </trkpt>
      <trkpt lat="43.359880" lon="-5.503110">
        <ele>242.108</ele>
        <time>2020-05-25T02:30:10Z</time>
      </trkpt>
      <trkpt lat="43.359930" lon="-5.503040">
        <ele>241.831</ele>
        <time>2020-05-25T02:30:30Z</time>
      </trkpt>
      <trkpt lat="43.359950" lon="-5.503020">
        <ele>241.836</ele>
        <time>2020-05-25T02:30:50Z</time>
      </trkpt>
      <trkpt lat="43.359970" lon="-5.502990">
        <ele>241.783</ele>
        <time>2020-05-25T02:31:10Z</time>
      </trkpt>
      <trkpt lat="43.359980" lon="-5.502970">
        <ele>241.519</ele>
        <time>2020-05-25T02:31:30Z</time>
      </trkpt>
      <trkpt lat="43.360060" lon="-5.502860">
        <ele>241.628</ele>
        <time>2020-05-25T02:31:50Z</time>
      </trkpt>
      <trkpt lat="43.360090" lon="-5.502810">
        <ele>241.769</ele>
        <time>2020-05-25T02:32:10Z</time>
      </trkpt>
      <trkpt lat="43.360120" lon="-5.502760">
        <ele>241.938</ele>
        <time>2020-05-25T02:32:30Z</time>
      </trkpt>
      <trkpt lat="43.360140" lon="-5.502700">
        <ele>242.021</ele>
        <time>2020-05-25T02:32:50Z</time>
      </trkpt>
      <trkpt lat="43.360170" lon="-5.502620">
        <ele>242.157</ele>
        <time>2020-05-25T02:33:10Z</time>
      </trkpt>
      <trkpt lat="43.360190" lon="-5.502550">
        <ele>242.100</ele>
        <time>2020-05-25T02:33:30Z</time>
      </trkpt>
      <trkpt lat="43.360220" lon="-5.502440">
        <ele>242.220</ele>
        <time>2020-05-25T02:33:50Z</time>
      </trkpt>
      <trkpt lat="43.360240" lon="-5.502330">
        <ele>242.008</ele>
        <time>2020-05-25T02:34:10Z</time>
      </trkpt>
      <trkpt lat="43.360260" lon="-5.502220">
        <ele>241.779</ele>
        <time>2020-05-25T02:34:30Z</time>
      </trkpt>
      <trkpt lat="43.360270" lon="-5.502170">
        <ele>241.584</ele>
        <time>2020-05-25T02:34:50Z</time>
      </trkpt>
      <trkpt lat="43.360300" lon="-5.502020">
        <ele>241.021</ele>
        <time>2020-05-25T02:35:10Z</time>
      </trkpt>
      <trkpt lat="43.360330" lon="-5.501860">
        <ele>240.867</ele>
        <time>2020-05-25T02:35:30Z</time>
      </trkpt>
      <trkpt lat="43.360350" lon="-5.501670">
        <ele>240.626</ele>
        <time>2020-05-25T02:35:50Z</time>
      </trkpt>
      <trkpt lat="43.360370" lon="-5.501540">
        <ele>240.867</ele>
        <time>2020-05-25T02:36:10Z</time>
      </trkpt>
      <trkpt lat="43.360390" lon="-5.501380">
        <ele>241.026</ele>
        <time>2020-05-25T02:36:30Z</time>
      </trkpt>
      <trkpt lat="43.360380" lon="-5.501260">
        <ele>240.329</ele>
        <time>2020-05-25T02:36:50Z</time>
      </trkpt>
      <trkpt lat="43.360380" lon="-5.501200">
        <ele>240.142</ele>
        <time>2020-05-25T02:37:10Z</time>
      </trkpt>
      <trkpt lat="43.360380" lon="-5.501130">
        <ele>239.822</ele>
        <time>2020-05-25T02:37:30Z</time>
      </trkpt>
      <trkpt lat="43.360380" lon="-5.501030">
        <ele>239.714</ele>
        <time>2020-05-25T02:37:50Z</time>
      </trkpt>
      <trkpt lat="43.360370" lon="-5.500960">
        <ele>239.708</ele>
        <time>2020-05-25T02:38:10Z</time>
      </trkpt>
      <trkpt lat="43.360370" lon="-5.500910">
        <ele>239.738</ele>
        <time>2020-05-25T02:38:30Z</time>
      </trkpt>
      <trkpt lat="43.360360" lon="-5.500840">
        <ele>239.793</ele>
        <time>2020-05-25T02:38:50Z</time>
      </trkpt>
      <trkpt lat="43.360350" lon="-5.500750">
        <ele>239.630</ele>
        <time>2020-05-25T02:39:10Z</time>
      </trkpt>
      <trkpt lat="43.360340" lon="-5.500680">
        <ele>239.546</ele>
        <time>2020-05-25T02:39:30Z</time>
      </trkpt>
      <trkpt lat="43.360330" lon="-5.500630">
        <ele>239.525</ele>
        <time>2020-05-25T02:39:50Z</time>
      </trkpt>
      <trkpt lat="43.360320" lon="-5.500590">
        <ele>239.616</ele>
        <time>2020-05-25T02:40:10Z</time>
      </trkpt>
      <trkpt lat="43.360290" lon="-5.500470">
        <ele>240.265</ele>
        <time>2020-05-25T02:40:30Z</time>
      </trkpt>
      <trkpt lat="43.360290" lon="-5.500460">
        <ele>240.258</ele>
        <time>2020-05-25T02:40:50Z</time>
      </trkpt>
      <trkpt lat="43.360270" lon="-5.500370">
        <ele>240.831</ele>
        <time>2020-05-25T02:41:10Z</time>
      </trkpt>
      <trkpt lat="43.360240" lon="-5.500270">
        <ele>241.361</ele>
        <time>2020-05-25T02:41:30Z</time>
      </trkpt>
      <trkpt lat="43.360210" lon="-5.500170">
        <ele>241.407</ele>
        <time>2020-05-25T02:41:50Z</time>
      </trkpt>
      <trkpt lat="43.360160" lon="-5.500070">
        <ele>241.508</ele>
        <time>2020-05-25T02:42:10Z</time>
      </trkpt>
      <trkpt lat="43.360120" lon="-5.499940">
        <ele>241.447</ele>
        <time>2020-05-25T02:42:30Z</time>
      </trkpt>
      <trkpt lat="43.360060" lon="-5.499810">
        <ele>241.282</ele>
        <time>2020-05-25T02:42:50Z</time>
      </trkpt>
      <trkpt lat="43.360000" lon="-5.499700">
        <ele>241.029</ele>
        <time>2020-05-25T02:43:10Z</time>
      </trkpt>
      <trkpt lat="43.359920" lon="-5.499540">
        <ele>241.785</ele>
        <time>2020-05-25T02:43:30Z</time>
      </trkpt>
      <trkpt lat="43.359850" lon="-5.499400">
        <ele>241.894</ele>
        <time>2020-05-25T02:43:50Z</time>
      </trkpt>
      <trkpt lat="43.359770" lon="-5.499250">
        <ele>241.885</ele>
        <time>2020-05-25T02:44:10Z</time>
      </trkpt>
      <trkpt lat="43.359710" lon="-5.499130">
        <ele>242.024</ele>
        <time>2020-05-25T02:44:30Z</time>
      </trkpt>
      <trkpt lat="43.359630" lon="-5.499000">
        <ele>242.347</ele>
        <time>2020-05-25T02:44:50Z</time>
      </trkpt>
      <trkpt lat="43.359520" lon="-5.498790">
        <ele>242.772</ele>
        <time>2020-05-25T02:45:10Z</time>
      </trkpt>
      <trkpt lat="43.359390" lon="-5.498540">
        <ele>243.413</ele>
        <time>2020-05-25T02:45:30Z</time>
      </trkpt>
      <trkpt lat="43.359310" lon="-5.498400">
        <ele>243.414</ele>
        <time>2020-05-25T02:45:50Z</time>
      </trkpt>
      <trkpt lat="43.359220" lon="-5.498240">
        <ele>243.508</ele>
        <time>2020-05-25T02:46:10Z</time>
      </trkpt>
      <trkpt lat="43.359060" lon="-5.497950">
        <ele>244.451</ele>
        <time>2020-05-25T02:46:30Z</time>
      </trkpt>
      <trkpt lat="43.358790" lon="-5.497430">
        <ele>246.036</ele>
        <time>2020-05-25T02:46:50Z</time>
      </trkpt>
      <trkpt lat="43.358750" lon="-5.497370">
        <ele>246.013</ele>
        <time>2020-05-25T02:47:10Z</time>
      </trkpt>
      <trkpt lat="43.358390" lon="-5.496820">
        <ele>247.929</ele>
        <time>2020-05-25T02:47:30Z</time>
      </trkpt>
      <trkpt lat="43.358150" lon="-5.496480">
        <ele>249.168</ele>
        <time>2020-05-25T02:47:50Z</time>
      </trkpt>
      <trkpt lat="43.357870" lon="-5.496130">
        <ele>249.819</ele>
        <time>2020-05-25T02:48:10Z</time>
      </trkpt>
      <trkpt lat="43.357600" lon="-5.495730">
        <ele>249.928</ele>
        <time>2020-05-25T02:48:30Z</time>
      </trkpt>
      <trkpt lat="43.357490" lon="-5.495590">
        <ele>251.061</ele>
        <time>2020-05-25T02:48:50Z</time>
      </trkpt>
      <trkpt lat="43.357380" lon="-5.495370">
        <ele>250.777</ele>
        <time>2020-05-25T02:49:10Z</time>
      </trkpt>
      <trkpt lat="43.357300" lon="-5.495190">
        <ele>251.261</ele>
        <time>2020-05-25T02:49:30Z</time>
      </trkpt>
      <trkpt lat="43.357220" lon="-5.494980">
        <ele>252.027</ele>
        <time>2020-05-25T02:49:50Z</time>
      </trkpt>
      <trkpt lat="43.357200" lon="-5.494930">
        <ele>252.308</ele>
        <time>2020-05-25T02:50:10Z</time>
      </trkpt>
      <trkpt lat="43.357203" lon="-5.494927">
        <ele>252.271</ele>
        <time>2020-05-25T02:50:30Z</time>
      </trkpt>
      <trkpt lat="43.357184" lon="-5.494864">
        <ele>252.564</ele>
        <time>2020-05-20T18:41:32Z</time>
      </trkpt>
      <trkpt lat="43.357150" lon="-5.494760">
        <ele>253.006</ele>
        <time>2020-05-20T18:41:52Z</time>
      </trkpt>
      <trkpt lat="43.357100" lon="-5.494510">
        <ele>253.316</ele>
        <time>2020-05-20T18:42:12Z</time>
      </trkpt>
      <trkpt lat="43.357090" lon="-5.494460">
        <ele>253.408</ele>
        <time>2020-05-20T18:42:32Z</time>
      </trkpt>
      <trkpt lat="43.357060" lon="-5.494290">
        <ele>254.280</ele>
        <time>2020-05-20T18:42:52Z</time>
      </trkpt>
      <trkpt lat="43.357030" lon="-5.494000">
        <ele>255.065</ele>
        <time>2020-05-20T18:43:12Z</time>
      </trkpt>
      <trkpt lat="43.357020" lon="-5.493800">
        <ele>255.572</ele>
        <time>2020-05-20T18:43:32Z</time>
      </trkpt>
      <trkpt lat="43.357020" lon="-5.493580">
        <ele>256.258</ele>
        <time>2020-05-20T18:43:52Z</time>
      </trkpt>
      <trkpt lat="43.357030" lon="-5.493410">
        <ele>256.377</ele>
        <time>2020-05-20T18:44:12Z</time>
      </trkpt>
      <trkpt lat="43.357060" lon="-5.493030">
        <ele>257.214</ele>
        <time>2020-05-20T18:44:32Z</time>
      </trkpt>
      <trkpt lat="43.357100" lon="-5.492660">
        <ele>257.979</ele>
        <time>2020-05-20T18:44:52Z</time>
      </trkpt>
      <trkpt lat="43.357120" lon="-5.492500">
        <ele>258.423</ele>
        <time>2020-05-20T18:45:12Z</time>
      </trkpt>
      <trkpt lat="43.357150" lon="-5.492260">
        <ele>258.565</ele>
        <time>2020-05-20T18:45:32Z</time>
      </trkpt>
      <trkpt lat="43.357150" lon="-5.492250">
        <ele>258.568</ele>
        <time>2020-05-20T18:45:52Z</time>
      </trkpt>
      <trkpt lat="43.357200" lon="-5.491900">
        <ele>258.314</ele>
        <time>2020-05-20T18:46:12Z</time>
      </trkpt>
      <trkpt lat="43.357220" lon="-5.491680">
        <ele>259.008</ele>
        <time>2020-05-20T18:46:32Z</time>
      </trkpt>
      <trkpt lat="43.357220" lon="-5.491580">
        <ele>259.350</ele>
        <time>2020-05-20T18:46:52Z</time>
      </trkpt>
      <trkpt lat="43.357250" lon="-5.491010">
        <ele>260.485</ele>
        <time>2020-05-20T18:47:12Z</time>
      </trkpt>
      <trkpt lat="43.357250" lon="-5.490980">
        <ele>260.512</ele>
        <time>2020-05-20T18:47:32Z</time>
      </trkpt>
      <trkpt lat="43.357260" lon="-5.490960">
        <ele>260.688</ele>
        <time>2020-05-20T18:47:52Z</time>
      </trkpt>
      <trkpt lat="43.357260" lon="-5.490940">
        <ele>260.757</ele>
        <time>2020-05-20T18:48:12Z</time>
      </trkpt>
      <trkpt lat="43.357270" lon="-5.490930">
        <ele>260.774</ele>
        <time>2020-05-20T18:48:32Z</time>
      </trkpt>
      <trkpt lat="43.357310" lon="-5.490780">
        <ele>260.989</ele>
        <time>2020-05-20T18:48:52Z</time>
      </trkpt>
      <trkpt lat="43.357313" lon="-5.490778">
        <ele>260.933</ele>
        <time>2020-05-20T18:49:12Z</time>
      </trkpt>
      <trkpt lat="43.357310" lon="-5.490590">
        <ele>260.765</ele>
        <time>2020-05-20T18:49:32Z</time>
      </trkpt>
      <trkpt lat="43.357310" lon="-5.490500">
        <ele>260.668</ele>
        <time>2020-05-20T18:49:52Z</time>
      </trkpt>
      <trkpt lat="43.357300" lon="-5.490430">
        <ele>260.614</ele>
        <time>2020-05-20T18:50:12Z</time>
      </trkpt>
      <trkpt lat="43.357300" lon="-5.490350">
        <ele>260.508</ele>
        <time>2020-05-20T18:50:32Z</time>
      </trkpt>
      <trkpt lat="43.357290" lon="-5.490280">
        <ele>260.510</ele>
        <time>2020-05-20T18:50:52Z</time>
      </trkpt>
      <trkpt lat="43.357280" lon="-5.490180">
        <ele>260.215</ele>
        <time>2020-05-20T18:51:12Z</time>
      </trkpt>
      <trkpt lat="43.357120" lon="-5.489140">
        <ele>257.152</ele>
        <time>2020-05-20T18:51:32Z</time>
      </trkpt>
      <trkpt lat="43.357060" lon="-5.488800">
        <ele>254.928</ele>
        <time>2020-05-20T18:51:52Z</time>
      </trkpt>
      <trkpt lat="43.357020" lon="-5.488530">
        <ele>254.727</ele>
        <time>2020-05-20T18:52:12Z</time>
      </trkpt>
      <trkpt lat="43.356800" lon="-5.487270">
        <ele>254.284</ele>
        <time>2020-05-20T18:52:32Z</time>
      </trkpt>
      <trkpt lat="43.356660" lon="-5.486450">
        <ele>253.019</ele>
        <time>2020-05-20T18:52:52Z</time>
      </trkpt>
      <trkpt lat="43.356640" lon="-5.486350">
        <ele>252.953</ele>
        <time>2020-05-20T18:53:12Z</time>
      </trkpt>
      <trkpt lat="43.356620" lon="-5.486240">
        <ele>252.641</ele>
        <time>2020-05-20T18:53:32Z</time>
      </trkpt>
      <trkpt lat="43.356590" lon="-5.486140">
        <ele>252.481</ele>
        <time>2020-05-20T18:53:52Z</time>
      </trkpt>
      <trkpt lat="43.356570" lon="-5.486030">
        <ele>252.309</ele>
        <time>2020-05-20T18:54:12Z</time>
      </trkpt>
      <trkpt lat="43.356530" lon="-5.485910">
        <ele>252.508</ele>
        <time>2020-05-20T18:54:32Z</time>
      </trkpt>
      <trkpt lat="43.356510" lon="-5.485840">
        <ele>252.728</ele>
        <time>2020-05-20T18:54:52Z</time>
      </trkpt>
      <trkpt lat="43.356480" lon="-5.485740">
        <ele>252.733</ele>
        <time>2020-05-20T18:55:12Z</time>
      </trkpt>
      <trkpt lat="43.356420" lon="-5.485580">
        <ele>252.890</ele>
        <time>2020-05-20T18:55:32Z</time>
      </trkpt>
      <trkpt lat="43.356360" lon="-5.485450">
        <ele>253.166</ele>
        <time>2020-05-20T18:55:52Z</time>
      </trkpt>
      <trkpt lat="43.356300" lon="-5.485330">
        <ele>253.155</ele>
        <time>2020-05-20T18:56:12Z</time>
      </trkpt>
      <trkpt lat="43.356200" lon="-5.485150">
        <ele>251.812</ele>
        <time>2020-05-20T18:56:32Z</time>
      </trkpt>
      <trkpt lat="43.356120" lon="-5.485010">
        <ele>251.057</ele>
        <time>2020-05-20T18:56:52Z</time>
      </trkpt>
      <trkpt lat="43.355930" lon="-5.484720">
        <ele>249.671</ele>
        <time>2020-05-20T18:57:12Z</time>
      </trkpt>
      <trkpt lat="43.355550" lon="-5.484140">
        <ele>249.991</ele>
        <time>2020-05-20T18:57:32Z</time>
      </trkpt>
      <trkpt lat="43.355420" lon="-5.483970">
        <ele>250.281</ele>
        <time>2020-05-20T18:57:52Z</time>
      </trkpt>
      <trkpt lat="43.354900" lon="-5.483180">
        <ele>251.519</ele>
        <time>2020-05-20T18:58:12Z</time>
      </trkpt>
      <trkpt lat="43.354790" lon="-5.483010">
        <ele>250.808</ele>
        <time>2020-05-20T18:58:32Z</time>
      </trkpt>
      <trkpt lat="43.354600" lon="-5.482710">
        <ele>249.333</ele>
        <time>2020-05-20T18:58:52Z</time>
      </trkpt>
      <trkpt lat="43.354390" lon="-5.482380">
        <ele>245.768</ele>
        <time>2020-05-20T18:59:12Z</time>
      </trkpt>
      <trkpt lat="43.354200" lon="-5.482050">
        <ele>244.485</ele>
        <time>2020-05-20T18:59:32Z</time>
      </trkpt>
      <trkpt lat="43.354090" lon="-5.481860">
        <ele>243.381</ele>
        <time>2020-05-20T18:59:52Z</time>
      </trkpt>
      <trkpt lat="43.353990" lon="-5.481680">
        <ele>242.410</ele>
        <time>2020-05-20T19:00:12Z</time>
      </trkpt>
      <trkpt lat="43.353940" lon="-5.481560">
        <ele>242.077</ele>
        <time>2020-05-20T19:00:32Z</time>
      </trkpt>
      <trkpt lat="43.353890" lon="-5.481440">
        <ele>242.262</ele>
        <time>2020-05-20T19:00:52Z</time>
      </trkpt>
      <trkpt lat="43.353850" lon="-5.481350">
        <ele>241.936</ele>
        <time>2020-05-20T19:01:12Z</time>
      </trkpt>
      <trkpt lat="43.353810" lon="-5.481250">
        <ele>241.453</ele>
        <time>2020-05-20T19:01:32Z</time>
      </trkpt>
      <trkpt lat="43.353760" lon="-5.481120">
        <ele>241.004</ele>
        <time>2020-05-20T19:01:52Z</time>
      </trkpt>
      <trkpt lat="43.353720" lon="-5.481010">
        <ele>240.814</ele>
        <time>2020-05-20T19:02:12Z</time>
      </trkpt>
      <trkpt lat="43.353680" lon="-5.480890">
        <ele>240.908</ele>
        <time>2020-05-20T19:02:32Z</time>
      </trkpt>
      <trkpt lat="43.353640" lon="-5.480770">
        <ele>241.299</ele>
        <time>2020-05-20T19:02:52Z</time>
      </trkpt>
      <trkpt lat="43.353600" lon="-5.480630">
        <ele>241.584</ele>
        <time>2020-05-20T19:03:12Z</time>
      </trkpt>
      <trkpt lat="43.353570" lon="-5.480510">
        <ele>241.571</ele>
        <time>2020-05-20T19:03:32Z</time>
      </trkpt>
      <trkpt lat="43.353550" lon="-5.480400">
        <ele>241.267</ele>
        <time>2020-05-20T19:03:52Z</time>
      </trkpt>
      <trkpt lat="43.353510" lon="-5.480220">
        <ele>241.366</ele>
        <time>2020-05-20T19:04:12Z</time>
      </trkpt>
      <trkpt lat="43.353480" lon="-5.480060">
        <ele>241.573</ele>
        <time>2020-05-20T19:04:32Z</time>
      </trkpt>
      <trkpt lat="43.353450" lon="-5.479870">
        <ele>241.338</ele>
        <time>2020-05-20T19:04:52Z</time>
      </trkpt>
      <trkpt lat="43.353370" lon="-5.479330">
        <ele>241.832</ele>
        <time>2020-05-20T19:05:12Z</time>
      </trkpt>
      <trkpt lat="43.353290" lon="-5.478720">
        <ele>241.785</ele>
        <time>2020-05-20T19:05:32Z</time>
      </trkpt>
      <trkpt lat="43.353190" lon="-5.477750">
        <ele>241.489</ele>
        <time>2020-05-20T19:05:52Z</time>
      </trkpt>
      <trkpt lat="43.353090" lon="-5.476760">
        <ele>240.117</ele>
        <time>2020-05-20T19:06:12Z</time>
      </trkpt>
      <trkpt lat="43.353050" lon="-5.476300">
        <ele>240.108</ele>
        <time>2020-05-20T19:06:32Z</time>
      </trkpt>
      <trkpt lat="43.353040" lon="-5.476190">
        <ele>240.372</ele>
        <time>2020-05-20T19:06:52Z</time>
      </trkpt>
      <trkpt lat="43.352990" lon="-5.475590">
        <ele>240.097</ele>
        <time>2020-05-20T19:07:12Z</time>
      </trkpt>
      <trkpt lat="43.352980" lon="-5.475370">
        <ele>239.444</ele>
        <time>2020-05-20T19:07:32Z</time>
      </trkpt>
      <trkpt lat="43.352960" lon="-5.474960">
        <ele>239.330</ele>
        <time>2020-05-20T19:07:52Z</time>
      </trkpt>
      <trkpt lat="43.352950" lon="-5.474380">
        <ele>239.379</ele>
        <time>2020-05-20T19:08:12Z</time>
      </trkpt>
      <trkpt lat="43.352950" lon="-5.474020">
        <ele>239.536</ele>
        <time>2020-05-20T19:08:32Z</time>
      </trkpt>
      <trkpt lat="43.352950" lon="-5.473700">
        <ele>239.511</ele>
        <time>2020-05-20T19:08:52Z</time>
      </trkpt>
      <trkpt lat="43.352960" lon="-5.473490">
        <ele>239.565</ele>
        <time>2020-05-20T19:09:12Z</time>
      </trkpt>
      <trkpt lat="43.352980" lon="-5.473290">
        <ele>239.517</ele>
        <time>2020-05-20T19:09:32Z</time>
      </trkpt>
      <trkpt lat="43.353010" lon="-5.473070">
        <ele>239.887</ele>
        <time>2020-05-20T19:09:52Z</time>
      </trkpt>
      <trkpt lat="43.353030" lon="-5.472930">
        <ele>239.915</ele>
        <time>2020-05-20T19:10:12Z</time>
      </trkpt>
      <trkpt lat="43.353080" lon="-5.472680">
        <ele>239.408</ele>
        <time>2020-05-20T19:10:32Z</time>
      </trkpt>
      <trkpt lat="43.353160" lon="-5.472330">
        <ele>238.415</ele>
        <time>2020-05-20T19:10:52Z</time>
      </trkpt>
      <trkpt lat="43.353190" lon="-5.472200">
        <ele>238.750</ele>
        <time>2020-05-20T19:11:12Z</time>
      </trkpt>
      <trkpt lat="43.353400" lon="-5.471410">
        <ele>239.997</ele>
        <time>2020-05-20T19:11:32Z</time>
      </trkpt>
      <trkpt lat="43.353770" lon="-5.469990">
        <ele>242.653</ele>
        <time>2020-05-20T19:11:52Z</time>
      </trkpt>
      <trkpt lat="43.353860" lon="-5.469690">
        <ele>243.822</ele>
        <time>2020-05-20T19:12:12Z</time>
      </trkpt>
      <trkpt lat="43.353950" lon="-5.469380">
        <ele>243.879</ele>
        <time>2020-05-20T19:12:32Z</time>
      </trkpt>
      <trkpt lat="43.353970" lon="-5.469290">
        <ele>244.294</ele>
        <time>2020-05-20T19:12:52Z</time>
      </trkpt>
      <trkpt lat="43.354000" lon="-5.469140">
        <ele>244.658</ele>
        <time>2020-05-20T19:13:12Z</time>
      </trkpt>
      <trkpt lat="43.354040" lon="-5.468970">
        <ele>244.142</ele>
        <time>2020-05-20T19:13:32Z</time>
      </trkpt>
      <trkpt lat="43.354060" lon="-5.468820">
        <ele>243.622</ele>
        <time>2020-05-20T19:13:52Z</time>
      </trkpt>
      <trkpt lat="43.354060" lon="-5.468800">
        <ele>243.514</ele>
        <time>2020-05-20T19:14:12Z</time>
      </trkpt>
      <trkpt lat="43.354070" lon="-5.468720">
        <ele>243.108</ele>
        <time>2020-05-20T19:14:32Z</time>
      </trkpt>
      <trkpt lat="43.354080" lon="-5.468600">
        <ele>242.698</ele>
        <time>2020-05-20T19:14:52Z</time>
      </trkpt>
      <trkpt lat="43.354090" lon="-5.468490">
        <ele>242.493</ele>
        <time>2020-05-20T19:15:12Z</time>
      </trkpt>
      <trkpt lat="43.354090" lon="-5.468390">
        <ele>242.440</ele>
        <time>2020-05-20T19:15:32Z</time>
      </trkpt>
      <trkpt lat="43.354090" lon="-5.468330">
        <ele>242.456</ele>
        <time>2020-05-20T19:15:52Z</time>
      </trkpt>
      <trkpt lat="43.354080" lon="-5.468240">
        <ele>242.115</ele>
        <time>2020-05-20T19:16:12Z</time>
      </trkpt>
      <trkpt lat="43.354070" lon="-5.468100">
        <ele>241.642</ele>
        <time>2020-05-20T19:16:32Z</time>
      </trkpt>
      <trkpt lat="43.354070" lon="-5.468080">
        <ele>241.537</ele>
        <time>2020-05-20T19:16:52Z</time>
      </trkpt>
      <trkpt lat="43.354040" lon="-5.467880">
        <ele>240.961</ele>
        <time>2020-05-20T19:17:12Z</time>
      </trkpt>
      <trkpt lat="43.354030" lon="-5.467790">
        <ele>240.587</ele>
        <time>2020-05-20T19:17:32Z</time>
      </trkpt>
      <trkpt lat="43.354010" lon="-5.467700">
        <ele>239.942</ele>
        <time>2020-05-20T19:17:52Z</time>
      </trkpt>
      <trkpt lat="43.353980" lon="-5.467600">
        <ele>239.126</ele>
        <time>2020-05-20T19:18:12Z</time>
      </trkpt>
      <trkpt lat="43.353950" lon="-5.467490">
        <ele>237.908</ele>
        <time>2020-05-20T19:18:32Z</time>
      </trkpt>
      <trkpt lat="43.353910" lon="-5.467380">
        <ele>237.172</ele>
        <time>2020-05-20T19:18:52Z</time>
      </trkpt>
      <trkpt lat="43.353810" lon="-5.467160">
        <ele>235.327</ele>
        <time>2020-05-20T19:19:12Z</time>
      </trkpt>
      <trkpt lat="43.353650" lon="-5.466830">
        <ele>234.024</ele>
        <time>2020-05-20T19:19:32Z</time>
      </trkpt>
      <trkpt lat="43.353550" lon="-5.466630">
        <ele>233.730</ele>
        <time>2020-05-20T19:19:52Z</time>
      </trkpt>
      <trkpt lat="43.353480" lon="-5.466480">
        <ele>232.429</ele>
        <time>2020-05-20T19:20:12Z</time>
      </trkpt>
      <trkpt lat="43.353440" lon="-5.466390">
        <ele>232.176</ele>
        <time>2020-05-20T19:20:32Z</time>
      </trkpt>
      <trkpt lat="43.353400" lon="-5.466280">
        <ele>231.941</ele>
        <time>2020-05-20T19:20:52Z</time>
      </trkpt>
      <trkpt lat="43.353360" lon="-5.466140">
        <ele>232.275</ele>
        <time>2020-05-20T19:21:12Z</time>
      </trkpt>
      <trkpt lat="43.353310" lon="-5.466000">
        <ele>232.742</ele>
        <time>2020-05-20T19:21:32Z</time>
      </trkpt>
      <trkpt lat="43.353290" lon="-5.465890">
        <ele>232.422</ele>
        <time>2020-05-20T19:21:52Z</time>
      </trkpt>
      <trkpt lat="43.353260" lon="-5.465770">
        <ele>232.614</ele>
        <time>2020-05-20T19:22:12Z</time>
      </trkpt>
      <trkpt lat="43.353240" lon="-5.465590">
        <ele>232.208</ele>
        <time>2020-05-20T19:22:32Z</time>
      </trkpt>
      <trkpt lat="43.353220" lon="-5.465460">
        <ele>231.938</ele>
        <time>2020-05-20T19:22:52Z</time>
      </trkpt>
      <trkpt lat="43.353220" lon="-5.465330">
        <ele>231.223</ele>
        <time>2020-05-20T19:23:12Z</time>
      </trkpt>
      <trkpt lat="43.353220" lon="-5.465190">
        <ele>230.960</ele>
        <time>2020-05-20T19:23:32Z</time>
      </trkpt>
      <trkpt lat="43.353220" lon="-5.465090">
        <ele>230.986</ele>
        <time>2020-05-20T19:23:52Z</time>
      </trkpt>
      <trkpt lat="43.353240" lon="-5.464940">
        <ele>230.565</ele>
        <time>2020-05-20T19:24:12Z</time>
      </trkpt>
      <trkpt lat="43.353260" lon="-5.464780">
        <ele>230.412</ele>
        <time>2020-05-20T19:24:32Z</time>
      </trkpt>
      <trkpt lat="43.353270" lon="-5.464700">
        <ele>230.427</ele>
        <time>2020-05-20T19:24:52Z</time>
      </trkpt>
      <trkpt lat="43.353270" lon="-5.464670">
        <ele>230.421</ele>
        <time>2020-05-20T19:25:12Z</time>
      </trkpt>
      <trkpt lat="43.353290" lon="-5.464600">
        <ele>229.973</ele>
        <time>2020-05-20T19:25:32Z</time>
      </trkpt>
      <trkpt lat="43.353310" lon="-5.464500">
        <ele>229.585</ele>
        <time>2020-05-20T19:25:52Z</time>
      </trkpt>
      <trkpt lat="43.353330" lon="-5.464410">
        <ele>229.213</ele>
        <time>2020-05-20T19:26:12Z</time>
      </trkpt>
      <trkpt lat="43.353370" lon="-5.464270">
        <ele>228.108</ele>
        <time>2020-05-20T19:26:32Z</time>
      </trkpt>
      <trkpt lat="43.353410" lon="-5.464140">
        <ele>227.461</ele>
        <time>2020-05-20T19:26:52Z</time>
      </trkpt>
      <trkpt lat="43.353450" lon="-5.464010">
        <ele>227.056</ele>
        <time>2020-05-20T19:27:12Z</time>
      </trkpt>
      <trkpt lat="43.353600" lon="-5.463530">
        <ele>227.543</ele>
        <time>2020-05-20T19:27:32Z</time>
      </trkpt>
      <trkpt lat="43.353720" lon="-5.463130">
        <ele>225.769</ele>
        <time>2020-05-20T19:27:52Z</time>
      </trkpt>
      <trkpt lat="43.353810" lon="-5.462810">
        <ele>226.658</ele>
        <time>2020-05-20T19:28:12Z</time>
      </trkpt>
      <trkpt lat="43.353840" lon="-5.462650">
        <ele>226.665</ele>
        <time>2020-05-20T19:28:32Z</time>
      </trkpt>
      <trkpt lat="43.353880" lon="-5.462480">
        <ele>226.240</ele>
        <time>2020-05-20T19:28:52Z</time>
      </trkpt>
      <trkpt lat="43.353910" lon="-5.462280">
        <ele>226.444</ele>
        <time>2020-05-20T19:29:12Z</time>
      </trkpt>
      <trkpt lat="43.353930" lon="-5.462050">
        <ele>225.749</ele>
        <time>2020-05-20T19:29:32Z</time>
      </trkpt>
      <trkpt lat="43.353940" lon="-5.461880">
        <ele>225.102</ele>
        <time>2020-05-20T19:29:52Z</time>
      </trkpt>
      <trkpt lat="43.353950" lon="-5.461690">
        <ele>224.422</ele>
        <time>2020-05-20T19:30:12Z</time>
      </trkpt>
      <trkpt lat="43.353940" lon="-5.461480">
        <ele>224.308</ele>
        <time>2020-05-20T19:30:32Z</time>
      </trkpt>
      <trkpt lat="43.353930" lon="-5.461270">
        <ele>224.098</ele>
        <time>2020-05-20T19:30:52Z</time>
      </trkpt>
      <trkpt lat="43.353910" lon="-5.461080">
        <ele>223.783</ele>
        <time>2020-05-20T19:31:12Z</time>
      </trkpt>
      <trkpt lat="43.353810" lon="-5.460360">
        <ele>221.710</ele>
        <time>2020-05-20T19:31:32Z</time>
      </trkpt>
      <trkpt lat="43.353650" lon="-5.459370">
        <ele>219.946</ele>
        <time>2020-05-20T19:31:52Z</time>
      </trkpt>
      <trkpt lat="43.353610" lon="-5.459130">
        <ele>219.915</ele>
        <time>2020-05-20T19:32:12Z</time>
      </trkpt>
      <trkpt lat="43.353560" lon="-5.458770">
        <ele>220.262</ele>
        <time>2020-05-20T19:32:32Z</time>
      </trkpt>
      <trkpt lat="43.353510" lon="-5.458310">
        <ele>220.527</ele>
        <time>2020-05-20T19:32:52Z</time>
      </trkpt>
      <trkpt lat="43.353520" lon="-5.457960">
        <ele>220.411</ele>
        <time>2020-05-20T19:33:12Z</time>
      </trkpt>
      <trkpt lat="43.353570" lon="-5.457650">
        <ele>219.376</ele>
        <time>2020-05-20T19:33:32Z</time>
      </trkpt>
      <trkpt lat="43.353660" lon="-5.457340">
        <ele>218.390</ele>
        <time>2020-05-20T19:33:52Z</time>
      </trkpt>
      <trkpt lat="43.353710" lon="-5.457220">
        <ele>218.219</ele>
        <time>2020-05-20T19:34:12Z</time>
      </trkpt>
      <trkpt lat="43.353770" lon="-5.457070">
        <ele>217.908</ele>
        <time>2020-05-20T19:34:32Z</time>
      </trkpt>
      <trkpt lat="43.353870" lon="-5.456840">
        <ele>217.251</ele>
        <time>2020-05-20T19:34:52Z</time>
      </trkpt>
      <trkpt lat="43.354000" lon="-5.456650">
        <ele>216.366</ele>
        <time>2020-05-20T19:35:12Z</time>
      </trkpt>
      <trkpt lat="43.354100" lon="-5.456540">
        <ele>216.183</ele>
        <time>2020-05-20T19:35:32Z</time>
      </trkpt>
      <trkpt lat="43.354190" lon="-5.456460">
        <ele>215.749</ele>
        <time>2020-05-20T19:35:52Z</time>
      </trkpt>
      <trkpt lat="43.354290" lon="-5.456390">
        <ele>216.188</ele>
        <time>2020-05-20T19:36:12Z</time>
      </trkpt>
      <trkpt lat="43.354420" lon="-5.456310">
        <ele>215.525</ele>
        <time>2020-05-20T19:36:32Z</time>
      </trkpt>
      <trkpt lat="43.354490" lon="-5.456270">
        <ele>215.390</ele>
        <time>2020-05-20T19:36:52Z</time>
      </trkpt>
      <trkpt lat="43.354580" lon="-5.456230">
        <ele>215.494</ele>
        <time>2020-05-20T19:37:12Z</time>
      </trkpt>
      <trkpt lat="43.354680" lon="-5.456200">
        <ele>215.754</ele>
        <time>2020-05-20T19:37:32Z</time>
      </trkpt>
      <trkpt lat="43.354840" lon="-5.456160">
        <ele>216.156</ele>
        <time>2020-05-20T19:37:52Z</time>
      </trkpt>
      <trkpt lat="43.354930" lon="-5.456150">
        <ele>216.211</ele>
        <time>2020-05-20T19:38:12Z</time>
      </trkpt>
      <trkpt lat="43.355000" lon="-5.456140">
        <ele>216.408</ele>
        <time>2020-05-20T19:38:32Z</time>
      </trkpt>
      <trkpt lat="43.355110" lon="-5.456140">
        <ele>215.969</ele>
        <time>2020-05-20T19:38:52Z</time>
      </trkpt>
      <trkpt lat="43.355250" lon="-5.456130">
        <ele>215.614</ele>
        <time>2020-05-20T19:39:12Z</time>
      </trkpt>
      <trkpt lat="43.355430" lon="-5.456120">
        <ele>215.871</ele>
        <time>2020-05-20T19:39:32Z</time>
      </trkpt>
      <trkpt lat="43.355500" lon="-5.456120">
        <ele>215.857</ele>
        <time>2020-05-20T19:39:52Z</time>
      </trkpt>
      <trkpt lat="43.355570" lon="-5.456110">
        <ele>216.166</ele>
        <time>2020-05-20T19:40:12Z</time>
      </trkpt>
      <trkpt lat="43.355630" lon="-5.456100">
        <ele>216.643</ele>
        <time>2020-05-20T19:40:32Z</time>
      </trkpt>
      <trkpt lat="43.355710" lon="-5.456090">
        <ele>216.938</ele>
        <time>2020-05-20T19:40:52Z</time>
      </trkpt>
      <trkpt lat="43.355770" lon="-5.456070">
        <ele>217.372</ele>
        <time>2020-05-20T19:41:12Z</time>
      </trkpt>
      <trkpt lat="43.355840" lon="-5.456050">
        <ele>217.365</ele>
        <time>2020-05-20T19:41:32Z</time>
      </trkpt>
      <trkpt lat="43.355920" lon="-5.456020">
        <ele>215.468</ele>
        <time>2020-05-20T19:41:52Z</time>
      </trkpt>
      <trkpt lat="43.355990" lon="-5.455980">
        <ele>213.514</ele>
        <time>2020-05-20T19:42:12Z</time>
      </trkpt>
      <trkpt lat="43.356080" lon="-5.455920">
        <ele>210.608</ele>
        <time>2020-05-20T19:42:32Z</time>
      </trkpt>
      <trkpt lat="43.356150" lon="-5.455860">
        <ele>209.140</ele>
        <time>2020-05-20T19:42:52Z</time>
      </trkpt>
      <trkpt lat="43.356220" lon="-5.455800">
        <ele>208.415</ele>
        <time>2020-05-20T19:43:12Z</time>
      </trkpt>
      <trkpt lat="43.356260" lon="-5.455760">
        <ele>207.972</ele>
        <time>2020-05-20T19:43:32Z</time>
      </trkpt>
      <trkpt lat="43.356300" lon="-5.455700">
        <ele>207.298</ele>
        <time>2020-05-20T19:43:52Z</time>
      </trkpt>
      <trkpt lat="43.356330" lon="-5.455660">
        <ele>206.657</ele>
        <time>2020-05-20T19:44:12Z</time>
      </trkpt>
      <trkpt lat="43.356360" lon="-5.455610">
        <ele>205.974</ele>
        <time>2020-05-20T19:44:32Z</time>
      </trkpt>
      <trkpt lat="43.356390" lon="-5.455560">
        <ele>205.159</ele>
        <time>2020-05-20T19:44:52Z</time>
      </trkpt>
      <trkpt lat="43.356420" lon="-5.455500">
        <ele>205.133</ele>
        <time>2020-05-20T19:45:12Z</time>
      </trkpt>
      <trkpt lat="43.356450" lon="-5.455440">
        <ele>205.337</ele>
        <time>2020-05-20T19:45:32Z</time>
      </trkpt>
      <trkpt lat="43.356450" lon="-5.455430">
        <ele>205.349</ele>
        <time>2020-05-20T19:45:52Z</time>
      </trkpt>
      <trkpt lat="43.356490" lon="-5.455330">
        <ele>205.713</ele>
        <time>2020-05-20T19:46:12Z</time>
      </trkpt>
      <trkpt lat="43.356540" lon="-5.455180">
        <ele>206.808</ele>
        <time>2020-05-20T19:46:32Z</time>
      </trkpt>
      <trkpt lat="43.356590" lon="-5.455030">
        <ele>208.667</ele>
        <time>2020-05-20T19:46:52Z</time>
      </trkpt>
      <trkpt lat="43.356700" lon="-5.454640">
        <ele>212.242</ele>
        <time>2020-05-20T19:47:12Z</time>
      </trkpt>
      <trkpt lat="43.356770" lon="-5.454380">
        <ele>212.549</ele>
        <time>2020-05-20T19:47:32Z</time>
      </trkpt>
      <trkpt lat="43.356910" lon="-5.453890">
        <ele>211.475</ele>
        <time>2020-05-20T19:47:52Z</time>
      </trkpt>
      <trkpt lat="43.357010" lon="-5.453550">
        <ele>210.354</ele>
        <time>2020-05-20T19:48:12Z</time>
      </trkpt>
      <trkpt lat="43.357100" lon="-5.453260">
        <ele>209.511</ele>
        <time>2020-05-20T19:48:32Z</time>
      </trkpt>
      <trkpt lat="43.357140" lon="-5.453130">
        <ele>208.786</ele>
        <time>2020-05-20T19:48:52Z</time>
      </trkpt>
      <trkpt lat="43.357160" lon="-5.453020">
        <ele>207.650</ele>
        <time>2020-05-20T19:49:12Z</time>
      </trkpt>
      <trkpt lat="43.357230" lon="-5.452830">
        <ele>206.025</ele>
        <time>2020-05-20T19:49:32Z</time>
      </trkpt>
      <trkpt lat="43.357320" lon="-5.452630">
        <ele>206.026</ele>
        <time>2020-05-20T19:49:52Z</time>
      </trkpt>
      <trkpt lat="43.357390" lon="-5.452480">
        <ele>205.408</ele>
        <time>2020-05-20T19:50:12Z</time>
      </trkpt>
      <trkpt lat="43.357500" lon="-5.452280">
        <ele>204.808</ele>
        <time>2020-05-20T19:50:32Z</time>
      </trkpt>
      <trkpt lat="43.357730" lon="-5.451870">
        <ele>204.436</ele>
        <time>2020-05-20T19:50:52Z</time>
      </trkpt>
      <trkpt lat="43.357790" lon="-5.451770">
        <ele>204.231</ele>
        <time>2020-05-20T19:51:12Z</time>
      </trkpt>
      <trkpt lat="43.357920" lon="-5.451530">
        <ele>205.998</ele>
        <time>2020-05-20T19:51:32Z</time>
      </trkpt>
      <trkpt lat="43.357960" lon="-5.451430">
        <ele>204.994</ele>
        <time>2020-05-20T19:51:52Z</time>
      </trkpt>
      <trkpt lat="43.358000" lon="-5.451350">
        <ele>204.433</ele>
        <time>2020-05-20T19:52:12Z</time>
      </trkpt>
      <trkpt lat="43.358020" lon="-5.451300">
        <ele>204.160</ele>
        <time>2020-05-20T19:52:32Z</time>
      </trkpt>
      <trkpt lat="43.358040" lon="-5.451250">
        <ele>203.885</ele>
        <time>2020-05-20T19:52:52Z</time>
      </trkpt>
      <trkpt lat="43.358080" lon="-5.451150">
        <ele>203.779</ele>
        <time>2020-05-20T19:53:12Z</time>
      </trkpt>
      <trkpt lat="43.358110" lon="-5.451040">
        <ele>204.326</ele>
        <time>2020-05-20T19:53:32Z</time>
      </trkpt>
      <trkpt lat="43.358140" lon="-5.450880">
        <ele>204.747</ele>
        <time>2020-05-20T19:53:52Z</time>
      </trkpt>
      <trkpt lat="43.358160" lon="-5.450710">
        <ele>204.411</ele>
        <time>2020-05-20T19:54:12Z</time>
      </trkpt>
      <trkpt lat="43.358170" lon="-5.450590">
        <ele>204.108</ele>
        <time>2020-05-20T19:54:32Z</time>
      </trkpt>
      <trkpt lat="43.358170" lon="-5.450500">
        <ele>203.966</ele>
        <time>2020-05-20T19:54:52Z</time>
      </trkpt>
      <trkpt lat="43.358170" lon="-5.450440">
        <ele>203.941</ele>
        <time>2020-05-20T19:55:12Z</time>
      </trkpt>
      <trkpt lat="43.358170" lon="-5.450370">
        <ele>203.988</ele>
        <time>2020-05-20T19:55:32Z</time>
      </trkpt>
      <trkpt lat="43.358160" lon="-5.450320">
        <ele>203.684</ele>
        <time>2020-05-20T19:55:52Z</time>
      </trkpt>
      <trkpt lat="43.358160" lon="-5.450240">
        <ele>203.843</ele>
        <time>2020-05-20T19:56:12Z</time>
      </trkpt>
      <trkpt lat="43.358140" lon="-5.450160">
        <ele>203.640</ele>
        <time>2020-05-20T19:56:32Z</time>
      </trkpt>
      <trkpt lat="43.358120" lon="-5.450050">
        <ele>203.445</ele>
        <time>2020-05-20T19:56:52Z</time>
      </trkpt>
      <trkpt lat="43.358090" lon="-5.449920">
        <ele>203.429</ele>
        <time>2020-05-20T19:57:12Z</time>
      </trkpt>
      <trkpt lat="43.358020" lon="-5.449700">
        <ele>203.574</ele>
        <time>2020-05-20T19:57:32Z</time>
      </trkpt>
      <trkpt lat="43.357960" lon="-5.449570">
        <ele>203.456</ele>
        <time>2020-05-20T19:57:52Z</time>
      </trkpt>
      <trkpt lat="43.357900" lon="-5.449450">
        <ele>203.221</ele>
        <time>2020-05-20T19:58:12Z</time>
      </trkpt>
      <trkpt lat="43.357840" lon="-5.449360">
        <ele>203.708</ele>
        <time>2020-05-20T19:58:32Z</time>
      </trkpt>
      <trkpt lat="43.357800" lon="-5.449290">
        <ele>204.251</ele>
        <time>2020-05-20T19:58:52Z</time>
      </trkpt>
      <trkpt lat="43.357740" lon="-5.449220">
        <ele>204.546</ele>
        <time>2020-05-20T19:59:12Z</time>
      </trkpt>
      <trkpt lat="43.357710" lon="-5.449200">
        <ele>204.533</ele>
        <time>2020-05-20T19:59:32Z</time>
      </trkpt>
      <trkpt lat="43.357570" lon="-5.449040">
        <ele>204.719</ele>
        <time>2020-05-20T19:59:52Z</time>
      </trkpt>
      <trkpt lat="43.357350" lon="-5.448810">
        <ele>204.578</ele>
        <time>2020-05-20T20:00:12Z</time>
      </trkpt>
      <trkpt lat="43.357300" lon="-5.448720">
        <ele>204.785</ele>
        <time>2020-05-20T20:00:32Z</time>
      </trkpt>
      <trkpt lat="43.357160" lon="-5.448550">
        <ele>203.910</ele>
        <time>2020-05-20T20:00:52Z</time>
      </trkpt>
      <trkpt lat="43.357060" lon="-5.448420">
        <ele>203.844</ele>
        <time>2020-05-20T20:01:12Z</time>
      </trkpt>
      <trkpt lat="43.357000" lon="-5.448320">
        <ele>203.749</ele>
        <time>2020-05-20T20:01:32Z</time>
      </trkpt>
      <trkpt lat="43.356920" lon="-5.448170">
        <ele>203.502</ele>
        <time>2020-05-20T20:01:52Z</time>
      </trkpt>
      <trkpt lat="43.356850" lon="-5.448040">
        <ele>203.822</ele>
        <time>2020-05-20T20:02:12Z</time>
      </trkpt>
      <trkpt lat="43.356790" lon="-5.447880">
        <ele>204.608</ele>
        <time>2020-05-20T20:02:32Z</time>
      </trkpt>
      <trkpt lat="43.356730" lon="-5.447700">
        <ele>204.398</ele>
        <time>2020-05-20T20:02:52Z</time>
      </trkpt>
      <trkpt lat="43.356700" lon="-5.447570">
        <ele>203.893</ele>
        <time>2020-05-20T20:03:12Z</time>
      </trkpt>
      <trkpt lat="43.356670" lon="-5.447420">
        <ele>203.150</ele>
        <time>2020-05-20T20:03:32Z</time>
      </trkpt>
      <trkpt lat="43.356660" lon="-5.447290">
        <ele>203.036</ele>
        <time>2020-05-20T20:03:52Z</time>
      </trkpt>
      <trkpt lat="43.356650" lon="-5.447150">
        <ele>202.915</ele>
        <time>2020-05-20T20:04:12Z</time>
      </trkpt>
      <trkpt lat="43.356650" lon="-5.446970">
        <ele>202.912</ele>
        <time>2020-05-20T20:04:32Z</time>
      </trkpt>
      <trkpt lat="43.356660" lon="-5.446770">
        <ele>202.347</ele>
        <time>2020-05-20T20:04:52Z</time>
      </trkpt>
      <trkpt lat="43.356680" lon="-5.446610">
        <ele>202.211</ele>
        <time>2020-05-20T20:05:12Z</time>
      </trkpt>
      <trkpt lat="43.356710" lon="-5.446430">
        <ele>201.966</ele>
        <time>2020-05-20T20:05:32Z</time>
      </trkpt>
      <trkpt lat="43.356770" lon="-5.446190">
        <ele>200.529</ele>
        <time>2020-05-20T20:05:52Z</time>
      </trkpt>
      <trkpt lat="43.356910" lon="-5.445710">
        <ele>199.621</ele>
        <time>2020-05-20T20:06:12Z</time>
      </trkpt>
      <trkpt lat="43.357010" lon="-5.445350">
        <ele>200.308</ele>
        <time>2020-05-20T20:06:32Z</time>
      </trkpt>
      <trkpt lat="43.357040" lon="-5.445230">
        <ele>200.680</ele>
        <time>2020-05-20T20:06:52Z</time>
      </trkpt>
      <trkpt lat="43.357050" lon="-5.445160">
        <ele>200.665</ele>
        <time>2020-05-20T20:07:12Z</time>
      </trkpt>
      <trkpt lat="43.357070" lon="-5.445050">
        <ele>200.872</ele>
        <time>2020-05-20T20:07:32Z</time>
      </trkpt>
      <trkpt lat="43.357080" lon="-5.444940">
        <ele>200.868</ele>
        <time>2020-05-20T20:07:52Z</time>
      </trkpt>
      <trkpt lat="43.357090" lon="-5.444750">
        <ele>200.787</ele>
        <time>2020-05-20T20:08:12Z</time>
      </trkpt>
      <trkpt lat="43.357090" lon="-5.444590">
        <ele>200.714</ele>
        <time>2020-05-20T20:08:32Z</time>
      </trkpt>
      <trkpt lat="43.357090" lon="-5.444460">
        <ele>200.789</ele>
        <time>2020-05-20T20:08:52Z</time>
      </trkpt>
      <trkpt lat="43.357080" lon="-5.444330">
        <ele>200.813</ele>
        <time>2020-05-20T20:09:12Z</time>
      </trkpt>
      <trkpt lat="43.357070" lon="-5.444190">
        <ele>200.955</ele>
        <time>2020-05-20T20:09:32Z</time>
      </trkpt>
      <trkpt lat="43.357050" lon="-5.444080">
        <ele>200.807</ele>
        <time>2020-05-20T20:09:52Z</time>
      </trkpt>
      <trkpt lat="43.357020" lon="-5.443940">
        <ele>200.517</ele>
        <time>2020-05-20T20:10:12Z</time>
      </trkpt>
      <trkpt lat="43.356980" lon="-5.443790">
        <ele>200.308</ele>
        <time>2020-05-20T20:10:32Z</time>
      </trkpt>
      <trkpt lat="43.356910" lon="-5.443580">
        <ele>200.679</ele>
        <time>2020-05-20T20:10:52Z</time>
      </trkpt>
      <trkpt lat="43.356750" lon="-5.443150">
        <ele>201.154</ele>
        <time>2020-05-20T20:11:12Z</time>
      </trkpt>
      <trkpt lat="43.356650" lon="-5.442890">
        <ele>198.971</ele>
        <time>2020-05-20T20:11:32Z</time>
      </trkpt>
      <trkpt lat="43.356520" lon="-5.442590">
        <ele>199.637</ele>
        <time>2020-05-20T20:11:52Z</time>
      </trkpt>
      <trkpt lat="43.356480" lon="-5.442500">
        <ele>199.336</ele>
        <time>2020-05-20T20:12:12Z</time>
      </trkpt>
      <trkpt lat="43.356400" lon="-5.442320">
        <ele>197.843</ele>
        <time>2020-05-20T20:12:32Z</time>
      </trkpt>
      <trkpt lat="43.356300" lon="-5.442130">
        <ele>198.198</ele>
        <time>2020-05-20T20:12:52Z</time>
      </trkpt>
      <trkpt lat="43.356170" lon="-5.441910">
        <ele>198.292</ele>
        <time>2020-05-20T20:13:12Z</time>
      </trkpt>
      <trkpt lat="43.356050" lon="-5.441750">
        <ele>198.479</ele>
        <time>2020-05-20T20:13:32Z</time>
      </trkpt>
      <trkpt lat="43.356050" lon="-5.441740">
        <ele>198.605</ele>
        <time>2020-05-20T20:13:52Z</time>
      </trkpt>
      <trkpt lat="43.355960" lon="-5.441630">
        <ele>198.725</ele>
        <time>2020-05-20T20:14:12Z</time>
      </trkpt>
      <trkpt lat="43.355790" lon="-5.441430">
        <ele>197.708</ele>
        <time>2020-05-20T20:14:32Z</time>
      </trkpt>
      <trkpt lat="43.355600" lon="-5.441230">
        <ele>197.231</ele>
        <time>2020-05-20T20:14:52Z</time>
      </trkpt>
      <trkpt lat="43.355200" lon="-5.440820">
        <ele>195.776</ele>
        <time>2020-05-20T20:15:12Z</time>
      </trkpt>
      <trkpt lat="43.354920" lon="-5.440540">
        <ele>195.643</ele>
        <time>2020-05-20T20:15:32Z</time>
      </trkpt>
      <trkpt lat="43.354520" lon="-5.440150">
        <ele>194.759</ele>
        <time>2020-05-20T20:15:52Z</time>
      </trkpt>
      <trkpt lat="43.354370" lon="-5.440010">
        <ele>194.478</ele>
        <time>2020-05-20T20:16:12Z</time>
      </trkpt>
      <trkpt lat="43.354280" lon="-5.439910">
        <ele>194.395</ele>
        <time>2020-05-20T20:16:32Z</time>
      </trkpt>
      <trkpt lat="43.354180" lon="-5.439820">
        <ele>194.480</ele>
        <time>2020-05-20T20:16:52Z</time>
      </trkpt>
      <trkpt lat="43.354100" lon="-5.439740">
        <ele>194.234</ele>
        <time>2020-05-20T20:17:12Z</time>
      </trkpt>
      <trkpt lat="43.354040" lon="-5.439670">
        <ele>194.048</ele>
        <time>2020-05-20T20:17:32Z</time>
      </trkpt>
      <trkpt lat="43.353980" lon="-5.439580">
        <ele>194.061</ele>
        <time>2020-05-20T20:17:52Z</time>
      </trkpt>
      <trkpt lat="43.353940" lon="-5.439530">
        <ele>193.917</ele>
        <time>2020-05-20T20:18:12Z</time>
      </trkpt>
      <trkpt lat="43.353910" lon="-5.439480">
        <ele>194.008</ele>
        <time>2020-05-20T20:18:32Z</time>
      </trkpt>
      <trkpt lat="43.353860" lon="-5.439410">
        <ele>194.158</ele>
        <time>2020-05-20T20:18:52Z</time>
      </trkpt>
      <trkpt lat="43.353840" lon="-5.439360">
        <ele>194.493</ele>
        <time>2020-05-20T20:19:12Z</time>
      </trkpt>
      <trkpt lat="43.353820" lon="-5.439310">
        <ele>194.750</ele>
        <time>2020-05-20T20:19:32Z</time>
      </trkpt>
      <trkpt lat="43.353780" lon="-5.439220">
        <ele>195.286</ele>
        <time>2020-05-20T20:19:52Z</time>
      </trkpt>
      <trkpt lat="43.353750" lon="-5.439130">
        <ele>195.875</ele>
        <time>2020-05-20T20:20:12Z</time>
      </trkpt>
      <trkpt lat="43.353720" lon="-5.439040">
        <ele>195.952</ele>
        <time>2020-05-20T20:20:32Z</time>
      </trkpt>
      <trkpt lat="43.353700" lon="-5.438940">
        <ele>196.077</ele>
        <time>2020-05-20T20:20:52Z</time>
      </trkpt>
      <trkpt lat="43.353690" lon="-5.438830">
        <ele>196.251</ele>
        <time>2020-05-20T20:21:12Z</time>
      </trkpt>
      <trkpt lat="43.353670" lon="-5.438710">
        <ele>195.982</ele>
        <time>2020-05-20T20:21:32Z</time>
      </trkpt>
      <trkpt lat="43.353660" lon="-5.438620">
        <ele>195.743</ele>
        <time>2020-05-20T20:21:52Z</time>
      </trkpt>
      <trkpt lat="43.353660" lon="-5.438520">
        <ele>195.317</ele>
        <time>2020-05-20T20:22:12Z</time>
      </trkpt>
      <trkpt lat="43.353660" lon="-5.438430">
        <ele>194.908</ele>
        <time>2020-05-20T20:22:32Z</time>
      </trkpt>
      <trkpt lat="43.353660" lon="-5.438330">
        <ele>194.462</ele>
        <time>2020-05-20T20:22:52Z</time>
      </trkpt>
      <trkpt lat="43.353670" lon="-5.438250">
        <ele>194.117</ele>
        <time>2020-05-20T20:23:12Z</time>
      </trkpt>
      <trkpt lat="43.353690" lon="-5.438150">
        <ele>193.964</ele>
        <time>2020-05-20T20:23:32Z</time>
      </trkpt>
      <trkpt lat="43.353710" lon="-5.438050">
        <ele>193.430</ele>
        <time>2020-05-20T20:23:52Z</time>
      </trkpt>
      <trkpt lat="43.353730" lon="-5.437960">
        <ele>193.119</ele>
        <time>2020-05-20T20:24:12Z</time>
      </trkpt>
      <trkpt lat="43.353760" lon="-5.437870">
        <ele>192.886</ele>
        <time>2020-05-20T20:24:32Z</time>
      </trkpt>
      <trkpt lat="43.353800" lon="-5.437790">
        <ele>192.571</ele>
        <time>2020-05-20T20:24:52Z</time>
      </trkpt>
      <trkpt lat="43.353840" lon="-5.437690">
        <ele>192.485</ele>
        <time>2020-05-20T20:25:12Z</time>
      </trkpt>
      <trkpt lat="43.353880" lon="-5.437590">
        <ele>192.354</ele>
        <time>2020-05-20T20:25:32Z</time>
      </trkpt>
      <trkpt lat="43.353940" lon="-5.437490">
        <ele>191.856</ele>
        <time>2020-05-20T20:25:52Z</time>
      </trkpt>
      <trkpt lat="43.353990" lon="-5.437410">
        <ele>191.211</ele>
        <time>2020-05-20T20:26:12Z</time>
      </trkpt>
      <trkpt lat="43.354040" lon="-5.437320">
        <ele>190.908</ele>
        <time>2020-05-20T20:26:32Z</time>
      </trkpt>
      <trkpt lat="43.354100" lon="-5.437170">
        <ele>190.669</ele>
        <time>2020-05-20T20:26:52Z</time>
      </trkpt>
      <trkpt lat="43.354620" lon="-5.436310">
        <ele>189.644</ele>
        <time>2020-05-20T20:27:12Z</time>
      </trkpt>
      <trkpt lat="43.354730" lon="-5.436120">
        <ele>190.081</ele>
        <time>2020-05-20T20:27:32Z</time>
      </trkpt>
      <trkpt lat="43.354980" lon="-5.435700">
        <ele>189.077</ele>
        <time>2020-05-20T20:27:52Z</time>
      </trkpt>
      <trkpt lat="43.355120" lon="-5.435450">
        <ele>188.556</ele>
        <time>2020-05-20T20:28:12Z</time>
      </trkpt>
      <trkpt lat="43.355250" lon="-5.435240">
        <ele>188.913</ele>
        <time>2020-05-20T20:28:32Z</time>
      </trkpt>
      <trkpt lat="43.355470" lon="-5.434870">
        <ele>188.928</ele>
        <time>2020-05-20T20:28:52Z</time>
      </trkpt>
      <trkpt lat="43.355620" lon="-5.434610">
        <ele>189.122</ele>
        <time>2020-05-20T20:29:12Z</time>
      </trkpt>
      <trkpt lat="43.355810" lon="-5.434290">
        <ele>189.371</ele>
        <time>2020-05-20T20:29:32Z</time>
      </trkpt>
      <trkpt lat="43.356010" lon="-5.433990">
        <ele>189.241</ele>
        <time>2020-05-20T20:29:52Z</time>
      </trkpt>
      <trkpt lat="43.356110" lon="-5.433820">
        <ele>190.015</ele>
        <time>2020-05-20T20:30:12Z</time>
      </trkpt>
      <trkpt lat="43.356130" lon="-5.433780">
        <ele>189.908</ele>
        <time>2020-05-20T20:30:32Z</time>
      </trkpt>
      <trkpt lat="43.356170" lon="-5.433710">
        <ele>189.851</ele>
        <time>2020-05-20T20:30:52Z</time>
      </trkpt>
      <trkpt lat="43.356250" lon="-5.433560">
        <ele>190.096</ele>
        <time>2020-05-20T20:31:12Z</time>
      </trkpt>
      <trkpt lat="43.356300" lon="-5.433460">
        <ele>190.413</ele>
        <time>2020-05-20T20:31:32Z</time>
      </trkpt>
      <trkpt lat="43.356360" lon="-5.433340">
        <ele>191.589</ele>
        <time>2020-05-20T20:31:52Z</time>
      </trkpt>
      <trkpt lat="43.356380" lon="-5.433280">
        <ele>191.968</ele>
        <time>2020-05-20T20:32:12Z</time>
      </trkpt>
      <trkpt lat="43.356400" lon="-5.433200">
        <ele>191.845</ele>
        <time>2020-05-20T20:32:32Z</time>
      </trkpt>
      <trkpt lat="43.356420" lon="-5.433120">
        <ele>191.430</ele>
        <time>2020-05-20T20:32:52Z</time>
      </trkpt>
      <trkpt lat="43.356440" lon="-5.433000">
        <ele>190.764</ele>
        <time>2020-05-20T20:33:12Z</time>
      </trkpt>
      <trkpt lat="43.356450" lon="-5.432840">
        <ele>189.599</ele>
        <time>2020-05-20T20:33:32Z</time>
      </trkpt>
      <trkpt lat="43.356450" lon="-5.432740">
        <ele>188.607</ele>
        <time>2020-05-20T20:33:52Z</time>
      </trkpt>
      <trkpt lat="43.356450" lon="-5.432650">
        <ele>187.527</ele>
        <time>2020-05-20T20:34:12Z</time>
      </trkpt>
      <trkpt lat="43.356450" lon="-5.432580">
        <ele>186.608</ele>
        <time>2020-05-20T20:34:32Z</time>
      </trkpt>
      <trkpt lat="43.356440" lon="-5.432500">
        <ele>185.653</ele>
        <time>2020-05-20T20:34:52Z</time>
      </trkpt>
      <trkpt lat="43.356430" lon="-5.432430">
        <ele>185.728</ele>
        <time>2020-05-20T20:35:12Z</time>
      </trkpt>
      <trkpt lat="43.356410" lon="-5.432230">
        <ele>185.825</ele>
        <time>2020-05-20T20:35:32Z</time>
      </trkpt>
      <trkpt lat="43.356360" lon="-5.431940">
        <ele>184.081</ele>
        <time>2020-05-20T20:35:52Z</time>
      </trkpt>
      <trkpt lat="43.356350" lon="-5.431810">
        <ele>183.710</ele>
        <time>2020-05-20T20:36:12Z</time>
      </trkpt>
      <trkpt lat="43.356340" lon="-5.431720">
        <ele>183.577</ele>
        <time>2020-05-20T20:36:32Z</time>
      </trkpt>
      <trkpt lat="43.356330" lon="-5.431640">
        <ele>183.812</ele>
        <time>2020-05-20T20:36:52Z</time>
      </trkpt>
      <trkpt lat="43.356330" lon="-5.431560">
        <ele>184.886</ele>
        <time>2020-05-20T20:37:12Z</time>
      </trkpt>
      <trkpt lat="43.356330" lon="-5.431470">
        <ele>186.041</ele>
        <time>2020-05-20T20:37:32Z</time>
      </trkpt>
      <trkpt lat="43.356340" lon="-5.431380">
        <ele>187.181</ele>
        <time>2020-05-20T20:37:52Z</time>
      </trkpt>
      <trkpt lat="43.356340" lon="-5.431290">
        <ele>187.609</ele>
        <time>2020-05-20T20:38:12Z</time>
      </trkpt>
      <trkpt lat="43.356380" lon="-5.431010">
        <ele>189.408</ele>
        <time>2020-05-20T20:38:32Z</time>
      </trkpt>
      <trkpt lat="43.356440" lon="-5.430770">
        <ele>189.138</ele>
        <time>2020-05-20T20:38:52Z</time>
      </trkpt>
      <trkpt lat="43.356460" lon="-5.430640">
        <ele>188.763</ele>
        <time>2020-05-20T20:39:12Z</time>
      </trkpt>
      <trkpt lat="43.356620" lon="-5.429970">
        <ele>188.490</ele>
        <time>2020-05-20T20:39:32Z</time>
      </trkpt>
      <trkpt lat="43.356780" lon="-5.429280">
        <ele>187.626</ele>
        <time>2020-05-20T20:39:52Z</time>
      </trkpt>
      <trkpt lat="43.356840" lon="-5.429000">
        <ele>187.775</ele>
        <time>2020-05-20T20:40:12Z</time>
      </trkpt>
      <trkpt lat="43.356850" lon="-5.428990">
        <ele>187.712</ele>
        <time>2020-05-20T20:40:32Z</time>
      </trkpt>
      <trkpt lat="43.357000" lon="-5.428340">
        <ele>187.627</ele>
        <time>2020-05-20T20:40:52Z</time>
      </trkpt>
      <trkpt lat="43.357050" lon="-5.428110">
        <ele>187.561</ele>
        <time>2020-05-20T20:41:12Z</time>
      </trkpt>
      <trkpt lat="43.357110" lon="-5.427860">
        <ele>187.429</ele>
        <time>2020-05-20T20:41:32Z</time>
      </trkpt>
      <trkpt lat="43.357220" lon="-5.427400">
        <ele>187.400</ele>
        <time>2020-05-20T20:41:52Z</time>
      </trkpt>
      <trkpt lat="43.357270" lon="-5.427160">
        <ele>187.520</ele>
        <time>2020-05-20T20:42:12Z</time>
      </trkpt>
      <trkpt lat="43.357270" lon="-5.427150">
        <ele>187.508</ele>
        <time>2020-05-20T20:42:32Z</time>
      </trkpt>
      <trkpt lat="43.357330" lon="-5.426910">
        <ele>187.376</ele>
        <time>2020-05-20T20:42:52Z</time>
      </trkpt>
      <trkpt lat="43.357350" lon="-5.426820">
        <ele>187.571</ele>
        <time>2020-05-20T20:43:12Z</time>
      </trkpt>
      <trkpt lat="43.357440" lon="-5.426460">
        <ele>188.358</ele>
        <time>2020-05-20T20:43:32Z</time>
      </trkpt>
      <trkpt lat="43.357490" lon="-5.426220">
        <ele>189.324</ele>
        <time>2020-05-20T20:43:52Z</time>
      </trkpt>
      <trkpt lat="43.357620" lon="-5.425660">
        <ele>191.413</ele>
        <time>2020-05-20T20:44:12Z</time>
      </trkpt>
      <trkpt lat="43.357690" lon="-5.425310">
        <ele>192.520</ele>
        <time>2020-05-20T20:44:32Z</time>
      </trkpt>
      <trkpt lat="43.357740" lon="-5.425070">
        <ele>193.615</ele>
        <time>2020-05-20T20:44:52Z</time>
      </trkpt>
      <trkpt lat="43.357780" lon="-5.424870">
        <ele>194.489</ele>
        <time>2020-05-20T20:45:12Z</time>
      </trkpt>
      <trkpt lat="43.357830" lon="-5.424540">
        <ele>194.423</ele>
        <time>2020-05-20T20:45:32Z</time>
      </trkpt>
      <trkpt lat="43.357850" lon="-5.424350">
        <ele>194.683</ele>
        <time>2020-05-20T20:45:52Z</time>
      </trkpt>
      <trkpt lat="43.357870" lon="-5.424160">
        <ele>195.011</ele>
        <time>2020-05-20T20:46:12Z</time>
      </trkpt>
      <trkpt lat="43.357890" lon="-5.423950">
        <ele>195.608</ele>
        <time>2020-05-20T20:46:32Z</time>
      </trkpt>
      <trkpt lat="43.357890" lon="-5.423910">
        <ele>195.726</ele>
        <time>2020-05-20T20:46:52Z</time>
      </trkpt>
      <trkpt lat="43.357900" lon="-5.423780">
        <ele>196.111</ele>
        <time>2020-05-20T20:47:12Z</time>
      </trkpt>
      <trkpt lat="43.357900" lon="-5.423570">
        <ele>196.858</ele>
        <time>2020-05-20T20:47:32Z</time>
      </trkpt>
      <trkpt lat="43.357920" lon="-5.423140">
        <ele>197.324</ele>
        <time>2020-05-20T20:47:52Z</time>
      </trkpt>
      <trkpt lat="43.357970" lon="-5.421870">
        <ele>198.013</ele>
        <time>2020-05-20T20:48:12Z</time>
      </trkpt>
      <trkpt lat="43.357970" lon="-5.421840">
        <ele>198.020</ele>
        <time>2020-05-20T20:48:32Z</time>
      </trkpt>
      <trkpt lat="43.358000" lon="-5.420980">
        <ele>196.575</ele>
        <time>2020-05-20T20:48:52Z</time>
      </trkpt>
      <trkpt lat="43.358010" lon="-5.420890">
        <ele>196.029</ele>
        <time>2020-05-20T20:49:12Z</time>
      </trkpt>
      <trkpt lat="43.358020" lon="-5.420260">
        <ele>193.811</ele>
        <time>2020-05-20T20:49:32Z</time>
      </trkpt>
      <trkpt lat="43.358030" lon="-5.420010">
        <ele>194.221</ele>
        <time>2020-05-20T20:49:52Z</time>
      </trkpt>
      <trkpt lat="43.358040" lon="-5.419760">
        <ele>192.903</ele>
        <time>2020-05-20T20:50:12Z</time>
      </trkpt>
      <trkpt lat="43.358040" lon="-5.419480">
        <ele>192.608</ele>
        <time>2020-05-20T20:50:32Z</time>
      </trkpt>
      <trkpt lat="43.358040" lon="-5.419240">
        <ele>191.845</ele>
        <time>2020-05-20T20:50:52Z</time>
      </trkpt>
      <trkpt lat="43.358030" lon="-5.419100">
        <ele>191.340</ele>
        <time>2020-05-20T20:51:12Z</time>
      </trkpt>
      <trkpt lat="43.358020" lon="-5.418960">
        <ele>190.537</ele>
        <time>2020-05-20T20:51:32Z</time>
      </trkpt>
      <trkpt lat="43.357990" lon="-5.418740">
        <ele>189.593</ele>
        <time>2020-05-20T20:51:52Z</time>
      </trkpt>
      <trkpt lat="43.357920" lon="-5.418260">
        <ele>188.452</ele>
        <time>2020-05-20T20:52:12Z</time>
      </trkpt>
      <trkpt lat="43.357890" lon="-5.418050">
        <ele>187.449</ele>
        <time>2020-05-20T20:52:32Z</time>
      </trkpt>
      <trkpt lat="43.357860" lon="-5.417840">
        <ele>187.654</ele>
        <time>2020-05-20T20:52:52Z</time>
      </trkpt>
      <trkpt lat="43.357830" lon="-5.417590">
        <ele>187.038</ele>
        <time>2020-05-20T20:53:12Z</time>
      </trkpt>
      <trkpt lat="43.357830" lon="-5.417350">
        <ele>186.099</ele>
        <time>2020-05-20T20:53:32Z</time>
      </trkpt>
      <trkpt lat="43.357830" lon="-5.417200">
        <ele>185.507</ele>
        <time>2020-05-20T20:53:52Z</time>
      </trkpt>
      <trkpt lat="43.357840" lon="-5.416920">
        <ele>185.527</ele>
        <time>2020-05-20T20:54:12Z</time>
      </trkpt>
      <trkpt lat="43.357860" lon="-5.416520">
        <ele>185.808</ele>
        <time>2020-05-20T20:54:32Z</time>
      </trkpt>
      <trkpt lat="43.358060" lon="-5.414750">
        <ele>182.983</ele>
        <time>2020-05-20T20:54:52Z</time>
      </trkpt>
      <trkpt lat="43.358090" lon="-5.414510">
        <ele>182.888</ele>
        <time>2020-05-20T20:55:12Z</time>
      </trkpt>
      <trkpt lat="43.358140" lon="-5.414040">
        <ele>182.985</ele>
        <time>2020-05-20T20:55:32Z</time>
      </trkpt>
      <trkpt lat="43.358240" lon="-5.413290">
        <ele>182.171</ele>
        <time>2020-05-20T20:55:52Z</time>
      </trkpt>
      <trkpt lat="43.358480" lon="-5.411760">
        <ele>179.410</ele>
        <time>2020-05-20T20:56:12Z</time>
      </trkpt>
      <trkpt lat="43.358590" lon="-5.411030">
        <ele>177.447</ele>
        <time>2020-05-20T20:56:32Z</time>
      </trkpt>
      <trkpt lat="43.358660" lon="-5.410560">
        <ele>176.842</ele>
        <time>2020-05-20T20:56:52Z</time>
      </trkpt>
      <trkpt lat="43.358710" lon="-5.410240">
        <ele>176.856</ele>
        <time>2020-05-20T20:57:12Z</time>
      </trkpt>
      <trkpt lat="43.358730" lon="-5.410060">
        <ele>177.598</ele>
        <time>2020-05-20T20:57:32Z</time>
      </trkpt>
      <trkpt lat="43.358750" lon="-5.409880">
        <ele>177.915</ele>
        <time>2020-05-20T20:57:52Z</time>
      </trkpt>
      <trkpt lat="43.358770" lon="-5.409650">
        <ele>178.426</ele>
        <time>2020-05-20T20:58:12Z</time>
      </trkpt>
      <trkpt lat="43.358790" lon="-5.409450">
        <ele>178.508</ele>
        <time>2020-05-20T20:58:32Z</time>
      </trkpt>
      <trkpt lat="43.358800" lon="-5.409080">
        <ele>179.473</ele>
        <time>2020-05-20T20:58:52Z</time>
      </trkpt>
      <trkpt lat="43.358780" lon="-5.408660">
        <ele>181.288</ele>
        <time>2020-05-20T20:59:12Z</time>
      </trkpt>
      <trkpt lat="43.358780" lon="-5.408620">
        <ele>181.375</ele>
        <time>2020-05-20T20:59:32Z</time>
      </trkpt>
      <trkpt lat="43.358770" lon="-5.408370">
        <ele>181.711</ele>
        <time>2020-05-20T20:59:52Z</time>
      </trkpt>
      <trkpt lat="43.358770" lon="-5.408340">
        <ele>181.790</ele>
        <time>2020-05-20T21:00:12Z</time>
      </trkpt>
      <trkpt lat="43.358760" lon="-5.407990">
        <ele>182.537</ele>
        <time>2020-05-20T21:00:32Z</time>
      </trkpt>
      <trkpt lat="43.358770" lon="-5.407530">
        <ele>183.192</ele>
        <time>2020-05-20T21:00:52Z</time>
      </trkpt>
      <trkpt lat="43.358800" lon="-5.407290">
        <ele>184.256</ele>
        <time>2020-05-20T21:01:12Z</time>
      </trkpt>
      <trkpt lat="43.358830" lon="-5.407100">
        <ele>185.085</ele>
        <time>2020-05-20T21:01:32Z</time>
      </trkpt>
      <trkpt lat="43.358860" lon="-5.406960">
        <ele>185.089</ele>
        <time>2020-05-20T21:01:52Z</time>
      </trkpt>
      <trkpt lat="43.358880" lon="-5.406880">
        <ele>185.517</ele>
        <time>2020-05-20T21:02:12Z</time>
      </trkpt>
      <trkpt lat="43.358900" lon="-5.406840">
        <ele>185.508</ele>
        <time>2020-05-20T21:02:32Z</time>
      </trkpt>
      <trkpt lat="43.358950" lon="-5.406710">
        <ele>186.222</ele>
        <time>2020-05-20T21:02:52Z</time>
      </trkpt>
      <trkpt lat="43.359070" lon="-5.406460">
        <ele>187.357</ele>
        <time>2020-05-20T21:03:12Z</time>
      </trkpt>
      <trkpt lat="43.359210" lon="-5.406240">
        <ele>186.984</ele>
        <time>2020-05-20T21:03:32Z</time>
      </trkpt>
      <trkpt lat="43.359310" lon="-5.406080">
        <ele>187.310</ele>
        <time>2020-05-20T21:03:52Z</time>
      </trkpt>
      <trkpt lat="43.359440" lon="-5.405880">
        <ele>187.489</ele>
        <time>2020-05-20T21:04:12Z</time>
      </trkpt>
      <trkpt lat="43.359600" lon="-5.405620">
        <ele>188.386</ele>
        <time>2020-05-20T21:04:32Z</time>
      </trkpt>
      <trkpt lat="43.359720" lon="-5.405410">
        <ele>188.181</ele>
        <time>2020-05-20T21:04:52Z</time>
      </trkpt>
      <trkpt lat="43.359760" lon="-5.405320">
        <ele>187.485</ele>
        <time>2020-05-20T21:05:12Z</time>
      </trkpt>
      <trkpt lat="43.359800" lon="-5.405230">
        <ele>186.823</ele>
        <time>2020-05-20T21:05:32Z</time>
      </trkpt>
      <trkpt lat="43.359840" lon="-5.405140">
        <ele>186.383</ele>
        <time>2020-05-20T21:05:52Z</time>
      </trkpt>
      <trkpt lat="43.359870" lon="-5.405060">
        <ele>186.211</ele>
        <time>2020-05-20T21:06:12Z</time>
      </trkpt>
      <trkpt lat="43.359910" lon="-5.404940">
        <ele>186.208</ele>
        <time>2020-05-20T21:06:32Z</time>
      </trkpt>
      <trkpt lat="43.359950" lon="-5.404810">
        <ele>185.846</ele>
        <time>2020-05-20T21:06:52Z</time>
      </trkpt>
      <trkpt lat="43.360000" lon="-5.404600">
        <ele>185.471</ele>
        <time>2020-05-20T21:07:12Z</time>
      </trkpt>
      <trkpt lat="43.360340" lon="-5.403250">
        <ele>183.738</ele>
        <time>2020-05-20T21:07:32Z</time>
      </trkpt>
      <trkpt lat="43.360450" lon="-5.402810">
        <ele>183.214</ele>
        <time>2020-05-20T21:07:52Z</time>
      </trkpt>
      <trkpt lat="43.360520" lon="-5.402540">
        <ele>184.783</ele>
        <time>2020-05-20T21:08:12Z</time>
      </trkpt>
      <trkpt lat="43.360630" lon="-5.402070">
        <ele>185.730</ele>
        <time>2020-05-20T21:08:32Z</time>
      </trkpt>
      <trkpt lat="43.360690" lon="-5.401810">
        <ele>186.695</ele>
        <time>2020-05-20T21:08:52Z</time>
      </trkpt>
      <trkpt lat="43.360710" lon="-5.401670">
        <ele>187.559</ele>
        <time>2020-05-20T21:09:12Z</time>
      </trkpt>
      <trkpt lat="43.360740" lon="-5.401500">
        <ele>188.151</ele>
        <time>2020-05-20T21:09:32Z</time>
      </trkpt>
      <trkpt lat="43.360760" lon="-5.401300">
        <ele>189.101</ele>
        <time>2020-05-20T21:09:52Z</time>
      </trkpt>
      <trkpt lat="43.360760" lon="-5.401210">
        <ele>189.711</ele>
        <time>2020-05-20T21:10:12Z</time>
      </trkpt>
      <trkpt lat="43.360760" lon="-5.401130">
        <ele>190.208</ele>
        <time>2020-05-20T21:10:32Z</time>
      </trkpt>
      <trkpt lat="43.360760" lon="-5.401030">
        <ele>190.879</ele>
        <time>2020-05-20T21:10:52Z</time>
      </trkpt>
      <trkpt lat="43.360760" lon="-5.400930">
        <ele>191.554</ele>
        <time>2020-05-20T21:11:12Z</time>
      </trkpt>
      <trkpt lat="43.360750" lon="-5.400830">
        <ele>192.291</ele>
        <time>2020-05-20T21:11:32Z</time>
      </trkpt>
      <trkpt lat="43.360740" lon="-5.400740">
        <ele>192.327</ele>
        <time>2020-05-20T21:11:52Z</time>
      </trkpt>
      <trkpt lat="43.360720" lon="-5.400640">
        <ele>192.636</ele>
        <time>2020-05-20T21:12:12Z</time>
      </trkpt>
      <trkpt lat="43.360680" lon="-5.400430">
        <ele>193.283</ele>
        <time>2020-05-20T21:12:32Z</time>
      </trkpt>
      <trkpt lat="43.360590" lon="-5.400110">
        <ele>193.758</ele>
        <time>2020-05-20T21:12:52Z</time>
      </trkpt>
      <trkpt lat="43.360460" lon="-5.399640">
        <ele>194.532</ele>
        <time>2020-05-20T21:13:12Z</time>
      </trkpt>
      <trkpt lat="43.360390" lon="-5.399350">
        <ele>196.018</ele>
        <time>2020-05-20T21:13:32Z</time>
      </trkpt>
      <trkpt lat="43.360380" lon="-5.399270">
        <ele>196.298</ele>
        <time>2020-05-20T21:13:52Z</time>
      </trkpt>
      <trkpt lat="43.360360" lon="-5.399190">
        <ele>196.517</ele>
        <time>2020-05-20T21:14:12Z</time>
      </trkpt>
      <trkpt lat="43.360350" lon="-5.399050">
        <ele>197.008</ele>
        <time>2020-05-20T21:14:32Z</time>
      </trkpt>
      <trkpt lat="43.360340" lon="-5.398910">
        <ele>197.685</ele>
        <time>2020-05-20T21:14:52Z</time>
      </trkpt>
      <trkpt lat="43.360340" lon="-5.398840">
        <ele>197.630</ele>
        <time>2020-05-20T21:15:12Z</time>
      </trkpt>
      <trkpt lat="43.360340" lon="-5.398750">
        <ele>197.527</ele>
        <time>2020-05-20T21:15:32Z</time>
      </trkpt>
      <trkpt lat="43.360340" lon="-5.398680">
        <ele>197.413</ele>
        <time>2020-05-20T21:15:52Z</time>
      </trkpt>
      <trkpt lat="43.360340" lon="-5.398590">
        <ele>197.532</ele>
        <time>2020-05-20T21:16:12Z</time>
      </trkpt>
      <trkpt lat="43.360350" lon="-5.398460">
        <ele>198.359</ele>
        <time>2020-05-20T21:16:32Z</time>
      </trkpt>
      <trkpt lat="43.360360" lon="-5.398360">
        <ele>198.954</ele>
        <time>2020-05-20T21:16:52Z</time>
      </trkpt>
      <trkpt lat="43.360370" lon="-5.398260">
        <ele>199.668</ele>
        <time>2020-05-20T21:17:12Z</time>
      </trkpt>
      <trkpt lat="43.360520" lon="-5.397390">
        <ele>201.976</ele>
        <time>2020-05-20T21:17:32Z</time>
      </trkpt>
      <trkpt lat="43.360640" lon="-5.396730">
        <ele>201.690</ele>
        <time>2020-05-20T21:17:52Z</time>
      </trkpt>
      <trkpt lat="43.360680" lon="-5.396560">
        <ele>201.619</ele>
        <time>2020-05-20T21:18:12Z</time>
      </trkpt>
      <trkpt lat="43.360680" lon="-5.396420">
        <ele>202.108</ele>
        <time>2020-05-20T21:18:32Z</time>
      </trkpt>
      <trkpt lat="43.360810" lon="-5.395760">
        <ele>201.361</ele>
        <time>2020-05-20T21:18:52Z</time>
      </trkpt>
      <trkpt lat="43.361110" lon="-5.394110">
        <ele>199.036</ele>
        <time>2020-05-20T21:19:12Z</time>
      </trkpt>
      <trkpt lat="43.361340" lon="-5.392840">
        <ele>197.153</ele>
        <time>2020-05-20T21:19:32Z</time>
      </trkpt>
      <trkpt lat="43.361380" lon="-5.392640">
        <ele>196.129</ele>
        <time>2020-05-20T21:19:52Z</time>
      </trkpt>
      <trkpt lat="43.361480" lon="-5.392040">
        <ele>193.058</ele>
        <time>2020-05-20T21:20:12Z</time>
      </trkpt>
      <trkpt lat="43.361550" lon="-5.391550">
        <ele>189.715</ele>
        <time>2020-05-20T21:20:32Z</time>
      </trkpt>
      <trkpt lat="43.361570" lon="-5.391390">
        <ele>189.040</ele>
        <time>2020-05-20T21:20:52Z</time>
      </trkpt>
      <trkpt lat="43.361580" lon="-5.391230">
        <ele>188.974</ele>
        <time>2020-05-20T21:21:12Z</time>
      </trkpt>
      <trkpt lat="43.361590" lon="-5.390970">
        <ele>189.422</ele>
        <time>2020-05-20T21:21:32Z</time>
      </trkpt>
      <trkpt lat="43.361600" lon="-5.390770">
        <ele>189.662</ele>
        <time>2020-05-20T21:21:52Z</time>
      </trkpt>
      <trkpt lat="43.361600" lon="-5.390610">
        <ele>189.308</ele>
        <time>2020-05-20T21:22:12Z</time>
      </trkpt>
      <trkpt lat="43.361600" lon="-5.390460">
        <ele>188.708</ele>
        <time>2020-05-20T21:22:32Z</time>
      </trkpt>
      <trkpt lat="43.361600" lon="-5.390440">
        <ele>188.596</ele>
        <time>2020-05-20T21:22:52Z</time>
      </trkpt>
      <trkpt lat="43.361590" lon="-5.390370">
        <ele>188.481</ele>
        <time>2020-05-20T21:23:12Z</time>
      </trkpt>
      <trkpt lat="43.361580" lon="-5.390120">
        <ele>187.498</ele>
        <time>2020-05-20T21:23:32Z</time>
      </trkpt>
      <trkpt lat="43.361560" lon="-5.389910">
        <ele>187.164</ele>
        <time>2020-05-20T21:23:52Z</time>
      </trkpt>
      <trkpt lat="43.361550" lon="-5.389800">
        <ele>186.913</ele>
        <time>2020-05-20T21:24:12Z</time>
      </trkpt>
      <trkpt lat="43.361530" lon="-5.389670">
        <ele>186.740</ele>
        <time>2020-05-20T21:24:32Z</time>
      </trkpt>
      <trkpt lat="43.361520" lon="-5.389550">
        <ele>186.125</ele>
        <time>2020-05-20T21:24:52Z</time>
      </trkpt>
      <trkpt lat="43.361500" lon="-5.389450">
        <ele>185.619</ele>
        <time>2020-05-20T21:25:12Z</time>
      </trkpt>
      <trkpt lat="43.361490" lon="-5.389400">
        <ele>185.233</ele>
        <time>2020-05-20T21:25:32Z</time>
      </trkpt>
      <trkpt lat="43.361460" lon="-5.389240">
        <ele>183.723</ele>
        <time>2020-05-20T21:25:52Z</time>
      </trkpt>
      <trkpt lat="43.361430" lon="-5.389080">
        <ele>182.515</ele>
        <time>2020-05-20T21:26:12Z</time>
      </trkpt>
      <trkpt lat="43.361290" lon="-5.388520">
        <ele>180.108</ele>
        <time>2020-05-20T21:26:32Z</time>
      </trkpt>
      <trkpt lat="43.361220" lon="-5.388260">
        <ele>178.577</ele>
        <time>2020-05-20T21:26:52Z</time>
      </trkpt>
      <trkpt lat="43.361120" lon="-5.387910">
        <ele>178.792</ele>
        <time>2020-05-20T21:27:12Z</time>
      </trkpt>
      <trkpt lat="43.360850" lon="-5.386990">
        <ele>164.399</ele>
        <time>2020-05-20T21:27:32Z</time>
      </trkpt>
      <trkpt lat="43.360660" lon="-5.386340">
        <ele>164.965</ele>
        <time>2020-05-20T21:27:52Z</time>
      </trkpt>
      <trkpt lat="43.360600" lon="-5.386150">
        <ele>168.464</ele>
        <time>2020-05-20T21:28:12Z</time>
      </trkpt>
      <trkpt lat="43.360570" lon="-5.386060">
        <ele>169.681</ele>
        <time>2020-05-20T21:28:32Z</time>
      </trkpt>
      <trkpt lat="43.360540" lon="-5.385950">
        <ele>170.416</ele>
        <time>2020-05-20T21:28:52Z</time>
      </trkpt>
      <trkpt lat="43.360520" lon="-5.385840">
        <ele>171.210</ele>
        <time>2020-05-20T21:29:12Z</time>
      </trkpt>
      <trkpt lat="43.360370" lon="-5.385350">
        <ele>170.534</ele>
        <time>2020-05-20T21:29:32Z</time>
      </trkpt>
      <trkpt lat="43.360070" lon="-5.384330">
        <ele>167.855</ele>
        <time>2020-05-20T21:29:52Z</time>
      </trkpt>
      <trkpt lat="43.360040" lon="-5.384240">
        <ele>167.610</ele>
        <time>2020-05-20T21:30:12Z</time>
      </trkpt>
      <trkpt lat="43.359960" lon="-5.383970">
        <ele>166.108</ele>
        <time>2020-05-20T21:30:32Z</time>
      </trkpt>
      <trkpt lat="43.359920" lon="-5.383850">
        <ele>165.577</ele>
        <time>2020-05-20T21:30:52Z</time>
      </trkpt>
      <trkpt lat="43.359880" lon="-5.383740">
        <ele>165.492</ele>
        <time>2020-05-20T21:31:12Z</time>
      </trkpt>
      <trkpt lat="43.359860" lon="-5.383650">
        <ele>165.769</ele>
        <time>2020-05-20T21:31:32Z</time>
      </trkpt>
      <trkpt lat="43.359810" lon="-5.383530">
        <ele>166.255</ele>
        <time>2020-05-20T21:31:52Z</time>
      </trkpt>
      <trkpt lat="43.359780" lon="-5.383460">
        <ele>166.664</ele>
        <time>2020-05-20T21:32:12Z</time>
      </trkpt>
      <trkpt lat="43.359720" lon="-5.383370">
        <ele>166.651</ele>
        <time>2020-05-20T21:32:32Z</time>
      </trkpt>
      <trkpt lat="43.359660" lon="-5.383280">
        <ele>166.996</ele>
        <time>2020-05-20T21:32:52Z</time>
      </trkpt>
      <trkpt lat="43.359590" lon="-5.383180">
        <ele>167.430</ele>
        <time>2020-05-20T21:33:12Z</time>
      </trkpt>
      <trkpt lat="43.359520" lon="-5.383100">
        <ele>167.289</ele>
        <time>2020-05-20T21:33:32Z</time>
      </trkpt>
      <trkpt lat="43.359480" lon="-5.383070">
        <ele>166.706</ele>
        <time>2020-05-20T21:33:52Z</time>
      </trkpt>
      <trkpt lat="43.359410" lon="-5.383000">
        <ele>167.226</ele>
        <time>2020-05-20T21:34:12Z</time>
      </trkpt>
      <trkpt lat="43.359320" lon="-5.382940">
        <ele>167.108</ele>
        <time>2020-05-20T21:34:32Z</time>
      </trkpt>
      <trkpt lat="43.359210" lon="-5.382870">
        <ele>166.592</ele>
        <time>2020-05-20T21:34:52Z</time>
      </trkpt>
      <trkpt lat="43.359130" lon="-5.382830">
        <ele>166.127</ele>
        <time>2020-05-20T21:35:12Z</time>
      </trkpt>
      <trkpt lat="43.359060" lon="-5.382790">
        <ele>166.524</ele>
        <time>2020-05-20T21:35:32Z</time>
      </trkpt>
      <trkpt lat="43.358980" lon="-5.382760">
        <ele>166.740</ele>
        <time>2020-05-20T21:35:52Z</time>
      </trkpt>
      <trkpt lat="43.358870" lon="-5.382740">
        <ele>166.539</ele>
        <time>2020-05-20T21:36:12Z</time>
      </trkpt>
      <trkpt lat="43.358800" lon="-5.382730">
        <ele>166.996</ele>
        <time>2020-05-20T21:36:32Z</time>
      </trkpt>
      <trkpt lat="43.358750" lon="-5.382720">
        <ele>167.381</ele>
        <time>2020-05-20T21:36:52Z</time>
      </trkpt>
      <trkpt lat="43.358700" lon="-5.382720">
        <ele>167.335</ele>
        <time>2020-05-20T21:37:12Z</time>
      </trkpt>
      <trkpt lat="43.358660" lon="-5.382720">
        <ele>167.353</ele>
        <time>2020-05-20T21:37:32Z</time>
      </trkpt>
      <trkpt lat="43.358620" lon="-5.382720">
        <ele>167.304</ele>
        <time>2020-05-20T21:37:52Z</time>
      </trkpt>
      <trkpt lat="43.358570" lon="-5.382730">
        <ele>167.214</ele>
        <time>2020-05-20T21:38:12Z</time>
      </trkpt>
      <trkpt lat="43.358520" lon="-5.382740">
        <ele>167.208</ele>
        <time>2020-05-20T21:38:32Z</time>
      </trkpt>
      <trkpt lat="43.358430" lon="-5.382760">
        <ele>167.189</ele>
        <time>2020-05-20T21:38:52Z</time>
      </trkpt>
      <trkpt lat="43.358340" lon="-5.382780">
        <ele>166.984</ele>
        <time>2020-05-20T21:39:12Z</time>
      </trkpt>
      <trkpt lat="43.358250" lon="-5.382810">
        <ele>167.061</ele>
        <time>2020-05-20T21:39:32Z</time>
      </trkpt>
      <trkpt lat="43.358120" lon="-5.382860">
        <ele>167.217</ele>
        <time>2020-05-20T21:39:52Z</time>
      </trkpt>
      <trkpt lat="43.357760" lon="-5.383010">
        <ele>168.316</ele>
        <time>2020-05-20T21:40:12Z</time>
      </trkpt>
      <trkpt lat="43.357250" lon="-5.383220">
        <ele>167.663</ele>
        <time>2020-05-20T21:40:32Z</time>
      </trkpt>
      <trkpt lat="43.357120" lon="-5.383260">
        <ele>167.238</ele>
        <time>2020-05-20T21:40:52Z</time>
      </trkpt>
      <trkpt lat="43.357020" lon="-5.383300">
        <ele>166.222</ele>
        <time>2020-05-20T21:41:12Z</time>
      </trkpt>
      <trkpt lat="43.356950" lon="-5.383320">
        <ele>165.545</ele>
        <time>2020-05-20T21:41:32Z</time>
      </trkpt>
      <trkpt lat="43.356720" lon="-5.383380">
        <ele>164.047</ele>
        <time>2020-05-20T21:41:52Z</time>
      </trkpt>
      <trkpt lat="43.356550" lon="-5.383410">
        <ele>163.311</ele>
        <time>2020-05-20T21:42:12Z</time>
      </trkpt>
      <trkpt lat="43.356480" lon="-5.383410">
        <ele>163.308</ele>
        <time>2020-05-20T21:42:32Z</time>
      </trkpt>
      <trkpt lat="43.356460" lon="-5.383410">
        <ele>163.328</ele>
        <time>2020-05-20T21:42:52Z</time>
      </trkpt>
      <trkpt lat="43.356360" lon="-5.383410">
        <ele>163.323</ele>
        <time>2020-05-20T21:43:12Z</time>
      </trkpt>
      <trkpt lat="43.356240" lon="-5.383400">
        <ele>163.680</ele>
        <time>2020-05-20T21:43:32Z</time>
      </trkpt>
      <trkpt lat="43.356120" lon="-5.383370">
        <ele>164.226</ele>
        <time>2020-05-20T21:43:52Z</time>
      </trkpt>
      <trkpt lat="43.356000" lon="-5.383340">
        <ele>164.145</ele>
        <time>2020-05-20T21:44:12Z</time>
      </trkpt>
      <trkpt lat="43.355830" lon="-5.383270">
        <ele>164.672</ele>
        <time>2020-05-20T21:44:32Z</time>
      </trkpt>
      <trkpt lat="43.355760" lon="-5.383230">
        <ele>164.687</ele>
        <time>2020-05-20T21:44:52Z</time>
      </trkpt>
      <trkpt lat="43.355610" lon="-5.383140">
        <ele>164.341</ele>
        <time>2020-05-20T21:45:12Z</time>
      </trkpt>
      <trkpt lat="43.355490" lon="-5.383060">
        <ele>164.054</ele>
        <time>2020-05-20T21:45:32Z</time>
      </trkpt>
      <trkpt lat="43.355410" lon="-5.382980">
        <ele>164.956</ele>
        <time>2020-05-20T21:45:52Z</time>
      </trkpt>
      <trkpt lat="43.355320" lon="-5.382890">
        <ele>165.011</ele>
        <time>2020-05-20T21:46:12Z</time>
      </trkpt>
      <trkpt lat="43.355250" lon="-5.382830">
        <ele>164.608</ele>
        <time>2020-05-20T21:46:32Z</time>
      </trkpt>
      <trkpt lat="43.355190" lon="-5.382750">
        <ele>165.189</ele>
        <time>2020-05-20T21:46:52Z</time>
      </trkpt>
      <trkpt lat="43.355140" lon="-5.382680">
        <ele>165.644</ele>
        <time>2020-05-20T21:47:12Z</time>
      </trkpt>
      <trkpt lat="43.355080" lon="-5.382600">
        <ele>165.541</ele>
        <time>2020-05-20T21:47:32Z</time>
      </trkpt>
      <trkpt lat="43.355020" lon="-5.382480">
        <ele>165.217</ele>
        <time>2020-05-20T21:47:52Z</time>
      </trkpt>
      <trkpt lat="43.354960" lon="-5.382360">
        <ele>165.626</ele>
        <time>2020-05-20T21:48:12Z</time>
      </trkpt>
      <trkpt lat="43.354860" lon="-5.382110">
        <ele>167.283</ele>
        <time>2020-05-20T21:48:32Z</time>
      </trkpt>
      <trkpt lat="43.354760" lon="-5.381790">
        <ele>167.238</ele>
        <time>2020-05-20T21:48:52Z</time>
      </trkpt>
      <trkpt lat="43.354660" lon="-5.381410">
        <ele>168.412</ele>
        <time>2020-05-20T21:49:12Z</time>
      </trkpt>
      <trkpt lat="43.354570" lon="-5.381110">
        <ele>169.383</ele>
        <time>2020-05-20T21:49:32Z</time>
      </trkpt>
      <trkpt lat="43.354480" lon="-5.380810">
        <ele>167.525</ele>
        <time>2020-05-20T21:49:52Z</time>
      </trkpt>
      <trkpt lat="43.354460" lon="-5.380740">
        <ele>167.017</ele>
        <time>2020-05-20T21:50:12Z</time>
      </trkpt>
      <trkpt lat="43.354330" lon="-5.380310">
        <ele>168.608</ele>
        <time>2020-05-20T21:50:32Z</time>
      </trkpt>
      <trkpt lat="43.354260" lon="-5.380120">
        <ele>168.132</ele>
        <time>2020-05-20T21:50:52Z</time>
      </trkpt>
      <trkpt lat="43.354200" lon="-5.380000">
        <ele>166.047</ele>
        <time>2020-05-20T21:51:12Z</time>
      </trkpt>
      <trkpt lat="43.354150" lon="-5.379900">
        <ele>164.534</ele>
        <time>2020-05-20T21:51:32Z</time>
      </trkpt>
      <trkpt lat="43.354090" lon="-5.379770">
        <ele>164.440</ele>
        <time>2020-05-20T21:51:52Z</time>
      </trkpt>
      <trkpt lat="43.354050" lon="-5.379700">
        <ele>164.459</ele>
        <time>2020-05-20T21:52:12Z</time>
      </trkpt>
      <trkpt lat="43.354000" lon="-5.379610">
        <ele>164.426</ele>
        <time>2020-05-20T21:52:32Z</time>
      </trkpt>
      <trkpt lat="43.353940" lon="-5.379510">
        <ele>164.361</ele>
        <time>2020-05-20T21:52:52Z</time>
      </trkpt>
      <trkpt lat="43.353850" lon="-5.379380">
        <ele>162.955</ele>
        <time>2020-05-20T21:53:12Z</time>
      </trkpt>
      <trkpt lat="43.353650" lon="-5.379140">
        <ele>161.659</ele>
        <time>2020-05-20T21:53:32Z</time>
      </trkpt>
      <trkpt lat="43.353560" lon="-5.379030">
        <ele>161.103</ele>
        <time>2020-05-20T21:53:52Z</time>
      </trkpt>
      <trkpt lat="43.353310" lon="-5.378770">
        <ele>159.923</ele>
        <time>2020-05-20T21:54:12Z</time>
      </trkpt>
      <trkpt lat="43.353070" lon="-5.378470">
        <ele>159.208</ele>
        <time>2020-05-20T21:54:32Z</time>
      </trkpt>
      <trkpt lat="43.353040" lon="-5.378440">
        <ele>159.039</ele>
        <time>2020-05-20T21:54:52Z</time>
      </trkpt>
      <trkpt lat="43.353043" lon="-5.378442">
        <ele>159.034</ele>
        <time>2020-05-20T21:55:12Z</time>
      </trkpt>
      <trkpt lat="43.352640" lon="-5.377940">
        <ele>159.111</ele>
        <time>2020-05-20T21:55:32Z</time>
      </trkpt>
      <trkpt lat="43.352480" lon="-5.377740">
        <ele>159.827</ele>
        <time>2020-05-20T21:55:52Z</time>
      </trkpt>
      <trkpt lat="43.352310" lon="-5.377440">
        <ele>159.466</ele>
        <time>2020-05-20T21:56:12Z</time>
      </trkpt>
      <trkpt lat="43.352290" lon="-5.377390">
        <ele>159.183</ele>
        <time>2020-05-20T21:56:32Z</time>
      </trkpt>
      <trkpt lat="43.352190" lon="-5.377180">
        <ele>158.058</ele>
        <time>2020-05-20T21:56:52Z</time>
      </trkpt>
      <trkpt lat="43.352150" lon="-5.377120">
        <ele>158.062</ele>
        <time>2020-05-20T21:57:12Z</time>
      </trkpt>
      <trkpt lat="43.352100" lon="-5.376970">
        <ele>158.085</ele>
        <time>2020-05-20T21:57:32Z</time>
      </trkpt>
      <trkpt lat="43.352040" lon="-5.376790">
        <ele>158.889</ele>
        <time>2020-05-20T21:57:52Z</time>
      </trkpt>
      <trkpt lat="43.351990" lon="-5.376440">
        <ele>159.517</ele>
        <time>2020-05-20T21:58:12Z</time>
      </trkpt>
      <trkpt lat="43.351989" lon="-5.376443">
        <ele>159.408</ele>
        <time>2020-05-20T21:58:32Z</time>
      </trkpt>
      <trkpt lat="43.352030" lon="-5.375900">
        <ele>159.562</ele>
        <time>2020-05-20T21:58:52Z</time>
      </trkpt>
      <trkpt lat="43.352090" lon="-5.375720">
        <ele>160.127</ele>
        <time>2020-05-20T21:59:12Z</time>
      </trkpt>
      <trkpt lat="43.352090" lon="-5.375700">
        <ele>160.014</ele>
        <time>2020-05-20T21:59:32Z</time>
      </trkpt>
      <trkpt lat="43.352220" lon="-5.375260">
        <ele>161.730</ele>
        <time>2020-05-20T21:59:52Z</time>
      </trkpt>
      <trkpt lat="43.352330" lon="-5.374900">
        <ele>160.989</ele>
        <time>2020-05-20T22:00:12Z</time>
      </trkpt>
      <trkpt lat="43.352510" lon="-5.374070">
        <ele>158.656</ele>
        <time>2020-05-20T22:00:32Z</time>
      </trkpt>
      <trkpt lat="43.352510" lon="-5.374030">
        <ele>158.381</ele>
        <time>2020-05-20T22:00:52Z</time>
      </trkpt>
      <trkpt lat="43.352650" lon="-5.373120">
        <ele>156.485</ele>
        <time>2020-05-20T22:01:12Z</time>
      </trkpt>
      <trkpt lat="43.352680" lon="-5.372900">
        <ele>156.292</ele>
        <time>2020-05-20T22:01:32Z</time>
      </trkpt>
      <trkpt lat="43.352930" lon="-5.371550">
        <ele>158.973</ele>
        <time>2020-05-20T22:01:52Z</time>
      </trkpt>
      <trkpt lat="43.352940" lon="-5.371460">
        <ele>159.720</ele>
        <time>2020-05-20T22:02:12Z</time>
      </trkpt>
      <trkpt lat="43.352930" lon="-5.370980">
        <ele>159.508</ele>
        <time>2020-05-20T22:02:32Z</time>
      </trkpt>
      <trkpt lat="43.352910" lon="-5.370730">
        <ele>158.583</ele>
        <time>2020-05-20T22:02:52Z</time>
      </trkpt>
      <trkpt lat="43.352870" lon="-5.370420">
        <ele>157.128</ele>
        <time>2020-05-20T22:03:12Z</time>
      </trkpt>
      <trkpt lat="43.352800" lon="-5.370080">
        <ele>155.315</ele>
        <time>2020-05-20T22:03:32Z</time>
      </trkpt>
      <trkpt lat="43.352790" lon="-5.370030">
        <ele>155.391</ele>
        <time>2020-05-20T22:03:52Z</time>
      </trkpt>
      <trkpt lat="43.352740" lon="-5.369850">
        <ele>154.410</ele>
        <time>2020-05-20T22:04:12Z</time>
      </trkpt>
      <trkpt lat="43.352520" lon="-5.368990">
        <ele>151.177</ele>
        <time>2020-05-20T22:04:32Z</time>
      </trkpt>
      <trkpt lat="43.352510" lon="-5.368960">
        <ele>150.932</ele>
        <time>2020-05-20T22:04:52Z</time>
      </trkpt>
      <trkpt lat="43.352510" lon="-5.368950">
        <ele>151.026</ele>
        <time>2020-05-20T22:05:12Z</time>
      </trkpt>
      <trkpt lat="43.352430" lon="-5.368690">
        <ele>150.764</ele>
        <time>2020-05-20T22:05:32Z</time>
      </trkpt>
      <trkpt lat="43.352400" lon="-5.368570">
        <ele>150.906</ele>
        <time>2020-05-20T22:05:52Z</time>
      </trkpt>
      <trkpt lat="43.352360" lon="-5.368460">
        <ele>150.816</ele>
        <time>2020-05-20T22:06:12Z</time>
      </trkpt>
      <trkpt lat="43.352310" lon="-5.368330">
        <ele>150.208</ele>
        <time>2020-05-20T22:06:32Z</time>
      </trkpt>
      <trkpt lat="43.352190" lon="-5.368000">
        <ele>149.060</ele>
        <time>2020-05-20T22:06:52Z</time>
      </trkpt>
      <trkpt lat="43.352110" lon="-5.367810">
        <ele>148.865</ele>
        <time>2020-05-20T22:07:12Z</time>
      </trkpt>
      <trkpt lat="43.352100" lon="-5.367790">
        <ele>148.822</ele>
        <time>2020-05-20T22:07:32Z</time>
      </trkpt>
      <trkpt lat="43.352010" lon="-5.367570">
        <ele>148.118</ele>
        <time>2020-05-20T22:07:52Z</time>
      </trkpt>
      <trkpt lat="43.351830" lon="-5.367190">
        <ele>147.517</ele>
        <time>2020-05-20T22:08:12Z</time>
      </trkpt>
      <trkpt lat="43.351510" lon="-5.366590">
        <ele>147.064</ele>
        <time>2020-05-20T22:08:32Z</time>
      </trkpt>
      <trkpt lat="43.351510" lon="-5.366570">
        <ele>147.219</ele>
        <time>2020-05-20T22:08:52Z</time>
      </trkpt>
      <trkpt lat="43.351300" lon="-5.366170">
        <ele>147.813</ele>
        <time>2020-05-20T22:09:12Z</time>
      </trkpt>
      <trkpt lat="43.351210" lon="-5.366000">
        <ele>147.657</ele>
        <time>2020-05-20T22:09:32Z</time>
      </trkpt>
      <trkpt lat="43.350890" lon="-5.365460">
        <ele>147.500</ele>
        <time>2020-05-20T22:09:52Z</time>
      </trkpt>
      <trkpt lat="43.350870" lon="-5.365430">
        <ele>147.620</ele>
        <time>2020-05-20T22:10:12Z</time>
      </trkpt>
      <trkpt lat="43.350570" lon="-5.364940">
        <ele>149.308</ele>
        <time>2020-05-20T22:10:32Z</time>
      </trkpt>
      <trkpt lat="43.350540" lon="-5.364900">
        <ele>149.199</ele>
        <time>2020-05-20T22:10:52Z</time>
      </trkpt>
      <trkpt lat="43.350250" lon="-5.364460">
        <ele>150.444</ele>
        <time>2020-05-20T22:11:12Z</time>
      </trkpt>
      <trkpt lat="43.350180" lon="-5.364350">
        <ele>152.311</ele>
        <time>2020-05-20T22:11:32Z</time>
      </trkpt>
      <trkpt lat="43.350140" lon="-5.364320">
        <ele>152.297</ele>
        <time>2020-05-20T22:11:52Z</time>
      </trkpt>
      <trkpt lat="43.350100" lon="-5.364290">
        <ele>151.976</ele>
        <time>2020-05-20T22:12:12Z</time>
      </trkpt>
      <trkpt lat="43.350030" lon="-5.364280">
        <ele>150.243</ele>
        <time>2020-05-20T22:12:32Z</time>
      </trkpt>
      <trkpt lat="43.349990" lon="-5.364280">
        <ele>149.358</ele>
        <time>2020-05-20T22:12:52Z</time>
      </trkpt>
      <trkpt lat="43.349930" lon="-5.364290">
        <ele>148.472</ele>
        <time>2020-05-20T22:13:12Z</time>
      </trkpt>
      <trkpt lat="43.349860" lon="-5.364330">
        <ele>147.268</ele>
        <time>2020-05-20T22:13:32Z</time>
      </trkpt>
      <trkpt lat="43.349650" lon="-5.364570">
        <ele>145.642</ele>
        <time>2020-05-20T22:13:52Z</time>
      </trkpt>
      <trkpt lat="43.349370" lon="-5.364900">
        <ele>148.926</ele>
        <time>2020-05-20T22:14:12Z</time>
      </trkpt>
      <trkpt lat="43.349369" lon="-5.364896">
        <ele>148.908</ele>
        <time>2020-05-20T22:14:32Z</time>
      </trkpt>
      <trkpt lat="43.349650" lon="-5.365170">
        <ele>148.610</ele>
        <time>2020-05-20T22:14:52Z</time>
      </trkpt>
      <trkpt lat="43.349660" lon="-5.365180">
        <ele>148.655</ele>
        <time>2020-05-20T22:15:12Z</time>
      </trkpt>
      <trkpt lat="43.349880" lon="-5.365420">
        <ele>148.792</ele>
        <time>2020-05-20T22:15:32Z</time>
      </trkpt>
      <trkpt lat="43.350020" lon="-5.365590">
        <ele>149.298</ele>
        <time>2020-05-20T22:15:52Z</time>
      </trkpt>
      <trkpt lat="43.350170" lon="-5.365790">
        <ele>150.257</ele>
        <time>2020-05-20T22:16:12Z</time>
      </trkpt>
      <trkpt lat="43.350430" lon="-5.366130">
        <ele>152.154</ele>
        <time>2020-05-20T22:16:32Z</time>
      </trkpt>
      <trkpt lat="43.350480" lon="-5.366220">
        <ele>152.799</ele>
        <time>2020-05-20T22:16:52Z</time>
      </trkpt>
      <trkpt lat="43.350660" lon="-5.366370">
        <ele>151.273</ele>
        <time>2020-05-20T22:17:12Z</time>
      </trkpt>
      <trkpt lat="43.350700" lon="-5.366410">
        <ele>151.343</ele>
        <time>2020-05-20T22:17:32Z</time>
      </trkpt>
      <trkpt lat="43.350820" lon="-5.366550">
        <ele>151.064</ele>
        <time>2020-05-20T22:17:52Z</time>
      </trkpt>
      <trkpt lat="43.350900" lon="-5.366660">
        <ele>151.010</ele>
        <time>2020-05-20T22:18:12Z</time>
      </trkpt>
      <trkpt lat="43.350950" lon="-5.366750">
        <ele>151.708</ele>
        <time>2020-05-20T22:18:32Z</time>
      </trkpt>
      <trkpt lat="43.351010" lon="-5.366860">
        <ele>152.328</ele>
        <time>2020-05-20T22:18:52Z</time>
      </trkpt>
      <trkpt lat="43.351080" lon="-5.367000">
        <ele>151.993</ele>
        <time>2020-05-20T22:19:12Z</time>
      </trkpt>
      <trkpt lat="43.351130" lon="-5.367140">
        <ele>150.980</ele>
        <time>2020-05-20T22:19:32Z</time>
      </trkpt>
      <trkpt lat="43.351190" lon="-5.367270">
        <ele>151.026</ele>
        <time>2020-05-20T22:19:52Z</time>
      </trkpt>
      <trkpt lat="43.351210" lon="-5.367360">
        <ele>151.565</ele>
        <time>2020-05-20T22:20:12Z</time>
      </trkpt>
      <trkpt lat="43.351240" lon="-5.367460">
        <ele>151.982</ele>
        <time>2020-05-20T22:20:32Z</time>
      </trkpt>
      <trkpt lat="43.351280" lon="-5.367640">
        <ele>152.457</ele>
        <time>2020-05-20T22:20:52Z</time>
      </trkpt>
      <trkpt lat="43.351380" lon="-5.368080">
        <ele>152.221</ele>
        <time>2020-05-20T22:21:12Z</time>
      </trkpt>
      <trkpt lat="43.351470" lon="-5.368480">
        <ele>152.048</ele>
        <time>2020-05-20T22:21:32Z</time>
      </trkpt>
      <trkpt lat="43.351540" lon="-5.368810">
        <ele>152.361</ele>
        <time>2020-05-20T22:21:52Z</time>
      </trkpt>
      <trkpt lat="43.351630" lon="-5.369220">
        <ele>152.417</ele>
        <time>2020-05-20T22:22:12Z</time>
      </trkpt>
      <trkpt lat="43.351890" lon="-5.370420">
        <ele>155.208</ele>
        <time>2020-05-20T22:22:32Z</time>
      </trkpt>
      <trkpt lat="43.351900" lon="-5.370450">
        <ele>154.868</ele>
        <time>2020-05-20T22:22:52Z</time>
      </trkpt>
      <trkpt lat="43.352080" lon="-5.371250">
        <ele>155.663</ele>
        <time>2020-05-20T22:23:12Z</time>
      </trkpt>
      <trkpt lat="43.352120" lon="-5.371620">
        <ele>154.990</ele>
        <time>2020-05-20T22:23:32Z</time>
      </trkpt>
      <trkpt lat="43.352120" lon="-5.371670">
        <ele>154.826</ele>
        <time>2020-05-20T22:23:52Z</time>
      </trkpt>
      <trkpt lat="43.352110" lon="-5.371730">
        <ele>154.825</ele>
        <time>2020-05-20T22:24:12Z</time>
      </trkpt>
      <trkpt lat="43.352060" lon="-5.371880">
        <ele>155.212</ele>
        <time>2020-05-20T22:24:32Z</time>
      </trkpt>
      <trkpt lat="43.352030" lon="-5.371970">
        <ele>155.297</ele>
        <time>2020-05-20T22:24:52Z</time>
      </trkpt>
      <trkpt lat="43.351980" lon="-5.372080">
        <ele>155.071</ele>
        <time>2020-05-20T22:25:12Z</time>
      </trkpt>
      <trkpt lat="43.351940" lon="-5.372140">
        <ele>154.949</ele>
        <time>2020-05-20T22:25:32Z</time>
      </trkpt>
      <trkpt lat="43.351920" lon="-5.372160">
        <ele>155.002</ele>
        <time>2020-05-20T22:25:52Z</time>
      </trkpt>
      <trkpt lat="43.351870" lon="-5.372210">
        <ele>155.022</ele>
        <time>2020-05-20T22:26:12Z</time>
      </trkpt>
      <trkpt lat="43.351740" lon="-5.372290">
        <ele>155.208</ele>
        <time>2020-05-20T22:26:32Z</time>
      </trkpt>
      <trkpt lat="43.351650" lon="-5.372310">
        <ele>155.218</ele>
        <time>2020-05-20T22:26:52Z</time>
      </trkpt>
      <trkpt lat="43.351470" lon="-5.372340">
        <ele>152.883</ele>
        <time>2020-05-20T22:27:12Z</time>
      </trkpt>
      <trkpt lat="43.351300" lon="-5.372240">
        <ele>152.580</ele>
        <time>2020-05-20T22:27:32Z</time>
      </trkpt>
      <trkpt lat="43.351230" lon="-5.372200">
        <ele>152.526</ele>
        <time>2020-05-20T22:27:52Z</time>
      </trkpt>
      <trkpt lat="43.351190" lon="-5.372160">
        <ele>153.295</ele>
        <time>2020-05-20T22:28:12Z</time>
      </trkpt>
      <trkpt lat="43.351010" lon="-5.371930">
        <ele>155.772</ele>
        <time>2020-05-20T22:28:32Z</time>
      </trkpt>
      <trkpt lat="43.350840" lon="-5.371700">
        <ele>154.897</ele>
        <time>2020-05-20T22:28:52Z</time>
      </trkpt>
      <trkpt lat="43.350750" lon="-5.371610">
        <ele>156.171</ele>
        <time>2020-05-20T22:29:12Z</time>
      </trkpt>
      <trkpt lat="43.350690" lon="-5.371540">
        <ele>157.563</ele>
        <time>2020-05-20T22:29:32Z</time>
      </trkpt>
      <trkpt lat="43.350650" lon="-5.371510">
        <ele>157.544</ele>
        <time>2020-05-20T22:29:52Z</time>
      </trkpt>
      <trkpt lat="43.350610" lon="-5.371480">
        <ele>157.318</ele>
        <time>2020-05-20T22:30:12Z</time>
      </trkpt>
      <trkpt lat="43.350590" lon="-5.371470">
        <ele>157.008</ele>
        <time>2020-05-20T22:30:32Z</time>
      </trkpt>
      <trkpt lat="43.350570" lon="-5.371470">
        <ele>156.450</ele>
        <time>2020-05-20T22:30:52Z</time>
      </trkpt>
      <trkpt lat="43.350510" lon="-5.371470">
        <ele>156.415</ele>
        <time>2020-05-20T22:31:12Z</time>
      </trkpt>
      <trkpt lat="43.350480" lon="-5.371470">
        <ele>156.722</ele>
        <time>2020-05-20T22:31:32Z</time>
      </trkpt>
      <trkpt lat="43.350440" lon="-5.371480">
        <ele>156.888</ele>
        <time>2020-05-20T22:31:52Z</time>
      </trkpt>
      <trkpt lat="43.350430" lon="-5.371490">
        <ele>156.727</ele>
        <time>2020-05-20T22:32:12Z</time>
      </trkpt>
      <trkpt lat="43.350420" lon="-5.371490">
        <ele>156.824</ele>
        <time>2020-05-20T22:32:32Z</time>
      </trkpt>
      <trkpt lat="43.350350" lon="-5.371540">
        <ele>156.519</ele>
        <time>2020-05-20T22:32:52Z</time>
      </trkpt>
      <trkpt lat="43.350200" lon="-5.371680">
        <ele>156.223</ele>
        <time>2020-05-20T22:33:12Z</time>
      </trkpt>
      <trkpt lat="43.350150" lon="-5.371730">
        <ele>156.517</ele>
        <time>2020-05-20T22:33:32Z</time>
      </trkpt>
      <trkpt lat="43.350020" lon="-5.371840">
        <ele>157.787</ele>
        <time>2020-05-20T22:33:52Z</time>
      </trkpt>
      <trkpt lat="43.349640" lon="-5.372230">
        <ele>158.115</ele>
        <time>2020-05-20T22:34:12Z</time>
      </trkpt>
      <trkpt lat="43.349360" lon="-5.372510">
        <ele>159.208</ele>
        <time>2020-05-20T22:34:32Z</time>
      </trkpt>
      <trkpt lat="43.349110" lon="-5.372760">
        <ele>159.495</ele>
        <time>2020-05-20T22:34:52Z</time>
      </trkpt>
      <trkpt lat="43.348920" lon="-5.372900">
        <ele>159.060</ele>
        <time>2020-05-20T22:35:12Z</time>
      </trkpt>
      <trkpt lat="43.348800" lon="-5.372950">
        <ele>158.917</ele>
        <time>2020-05-20T22:35:32Z</time>
      </trkpt>
      <trkpt lat="43.348700" lon="-5.372980">
        <ele>158.773</ele>
        <time>2020-05-20T22:35:52Z</time>
      </trkpt>
      <trkpt lat="43.348690" lon="-5.372980">
        <ele>158.772</ele>
        <time>2020-05-20T22:36:12Z</time>
      </trkpt>
      <trkpt lat="43.348450" lon="-5.372940">
        <ele>158.329</ele>
        <time>2020-05-20T22:36:32Z</time>
      </trkpt>
      <trkpt lat="43.348230" lon="-5.372870">
        <ele>157.714</ele>
        <time>2020-05-20T22:36:52Z</time>
      </trkpt>
      <trkpt lat="43.347970" lon="-5.372640">
        <ele>158.618</ele>
        <time>2020-05-20T22:37:12Z</time>
      </trkpt>
      <trkpt lat="43.347820" lon="-5.372490">
        <ele>158.658</ele>
        <time>2020-05-20T22:37:32Z</time>
      </trkpt>
      <trkpt lat="43.347530" lon="-5.372260">
        <ele>157.852</ele>
        <time>2020-05-20T22:37:52Z</time>
      </trkpt>
      <trkpt lat="43.347270" lon="-5.372080">
        <ele>158.617</ele>
        <time>2020-05-20T22:38:12Z</time>
      </trkpt>
      <trkpt lat="43.347080" lon="-5.371970">
        <ele>158.908</ele>
        <time>2020-05-20T22:38:32Z</time>
      </trkpt>
      <trkpt lat="43.346970" lon="-5.371980">
        <ele>158.949</ele>
        <time>2020-05-20T22:38:52Z</time>
      </trkpt>
      <trkpt lat="43.346890" lon="-5.371990">
        <ele>159.084</ele>
        <time>2020-05-20T22:39:12Z</time>
      </trkpt>
      <trkpt lat="43.346570" lon="-5.372070">
        <ele>159.981</ele>
        <time>2020-05-20T22:39:32Z</time>
      </trkpt>
      <trkpt lat="43.345730" lon="-5.372260">
        <ele>163.847</ele>
        <time>2020-05-20T22:39:52Z</time>
      </trkpt>
      <trkpt lat="43.345700" lon="-5.372260">
        <ele>163.936</ele>
        <time>2020-05-20T22:40:12Z</time>
      </trkpt>
      <trkpt lat="43.345380" lon="-5.372330">
        <ele>164.613</ele>
        <time>2020-05-20T22:40:32Z</time>
      </trkpt>
      <trkpt lat="43.345360" lon="-5.372330">
        <ele>164.768</ele>
        <time>2020-05-20T22:40:52Z</time>
      </trkpt>
      <trkpt lat="43.345030" lon="-5.372450">
        <ele>163.552</ele>
        <time>2020-05-20T22:41:12Z</time>
      </trkpt>
      <trkpt lat="43.344880" lon="-5.372490">
        <ele>163.199</ele>
        <time>2020-05-20T22:41:32Z</time>
      </trkpt>
      <trkpt lat="43.344740" lon="-5.372540">
        <ele>162.707</ele>
        <time>2020-05-20T22:41:52Z</time>
      </trkpt>
      <trkpt lat="43.344680" lon="-5.372570">
        <ele>162.527</ele>
        <time>2020-05-20T22:42:12Z</time>
      </trkpt>
      <trkpt lat="43.344640" lon="-5.372610">
        <ele>162.308</ele>
        <time>2020-05-20T22:42:32Z</time>
      </trkpt>
      <trkpt lat="43.344560" lon="-5.372670">
        <ele>162.113</ele>
        <time>2020-05-20T22:42:52Z</time>
      </trkpt>
      <trkpt lat="43.344530" lon="-5.372710">
        <ele>162.038</ele>
        <time>2020-05-20T22:43:12Z</time>
      </trkpt>
      <trkpt lat="43.344420" lon="-5.372820">
        <ele>162.065</ele>
        <time>2020-05-20T22:43:32Z</time>
      </trkpt>
      <trkpt lat="43.343950" lon="-5.373330">
        <ele>162.831</ele>
        <time>2020-05-20T22:43:52Z</time>
      </trkpt>
      <trkpt lat="43.343900" lon="-5.373390">
        <ele>163.070</ele>
        <time>2020-05-20T22:44:12Z</time>
      </trkpt>
      <trkpt lat="43.343890" lon="-5.373390">
        <ele>163.067</ele>
        <time>2020-05-20T22:44:32Z</time>
      </trkpt>
      <trkpt lat="43.342600" lon="-5.374740">
        <ele>164.662</ele>
        <time>2020-05-20T22:44:52Z</time>
      </trkpt>
      <trkpt lat="43.342460" lon="-5.374890">
        <ele>165.246</ele>
        <time>2020-05-20T22:45:12Z</time>
      </trkpt>
      <trkpt lat="43.342320" lon="-5.375040">
        <ele>165.513</ele>
        <time>2020-05-20T22:45:32Z</time>
      </trkpt>
      <trkpt lat="43.341960" lon="-5.375420">
        <ele>166.443</ele>
        <time>2020-05-20T22:45:52Z</time>
      </trkpt>
      <trkpt lat="43.341880" lon="-5.375500">
        <ele>166.407</ele>
        <time>2020-05-20T22:46:12Z</time>
      </trkpt>
      <trkpt lat="43.341420" lon="-5.375850">
        <ele>167.708</ele>
        <time>2020-05-20T22:46:32Z</time>
      </trkpt>
      <trkpt lat="43.341260" lon="-5.375970">
        <ele>168.775</ele>
        <time>2020-05-20T22:46:52Z</time>
      </trkpt>
      <trkpt lat="43.340840" lon="-5.376290">
        <ele>169.740</ele>
        <time>2020-05-20T22:47:12Z</time>
      </trkpt>
      <trkpt lat="43.340570" lon="-5.376580">
        <ele>168.917</ele>
        <time>2020-05-20T22:47:32Z</time>
      </trkpt>
      <trkpt lat="43.340410" lon="-5.376760">
        <ele>169.273</ele>
        <time>2020-05-20T22:47:52Z</time>
      </trkpt>
      <trkpt lat="43.340340" lon="-5.376820">
        <ele>169.562</ele>
        <time>2020-05-20T22:48:12Z</time>
      </trkpt>
      <trkpt lat="43.340190" lon="-5.376880">
        <ele>169.729</ele>
        <time>2020-05-20T22:48:32Z</time>
      </trkpt>
      <trkpt lat="43.340130" lon="-5.376910">
        <ele>169.414</ele>
        <time>2020-05-20T22:48:52Z</time>
      </trkpt>
      <trkpt lat="43.339930" lon="-5.376940">
        <ele>169.388</ele>
        <time>2020-05-20T22:49:12Z</time>
      </trkpt>
      <trkpt lat="43.339890" lon="-5.376940">
        <ele>169.561</ele>
        <time>2020-05-20T22:49:32Z</time>
      </trkpt>
      <trkpt lat="43.339530" lon="-5.376970">
        <ele>169.921</ele>
        <time>2020-05-20T22:49:52Z</time>
      </trkpt>
      <trkpt lat="43.339170" lon="-5.376990">
        <ele>169.813</ele>
        <time>2020-05-20T22:50:12Z</time>
      </trkpt>
      <trkpt lat="43.338810" lon="-5.377010">
        <ele>169.808</ele>
        <time>2020-05-20T22:50:32Z</time>
      </trkpt>
      <trkpt lat="43.338630" lon="-5.377020">
        <ele>170.010</ele>
        <time>2020-05-20T22:50:52Z</time>
      </trkpt>
      <trkpt lat="43.338180" lon="-5.377050">
        <ele>171.235</ele>
        <time>2020-05-20T22:51:12Z</time>
      </trkpt>
      <trkpt lat="43.338140" lon="-5.377050">
        <ele>171.322</ele>
        <time>2020-05-20T22:51:32Z</time>
      </trkpt>
      <trkpt lat="43.337460" lon="-5.377120">
        <ele>172.038</ele>
        <time>2020-05-20T22:51:52Z</time>
      </trkpt>
      <trkpt lat="43.336380" lon="-5.377220">
        <ele>174.017</ele>
        <time>2020-05-20T22:52:12Z</time>
      </trkpt>
      <trkpt lat="43.335830" lon="-5.377270">
        <ele>174.544</ele>
        <time>2020-05-20T22:52:32Z</time>
      </trkpt>
      <trkpt lat="43.335470" lon="-5.377290">
        <ele>174.869</ele>
        <time>2020-05-20T22:52:52Z</time>
      </trkpt>
      <trkpt lat="43.335290" lon="-5.377310">
        <ele>174.753</ele>
        <time>2020-05-20T22:53:12Z</time>
      </trkpt>
      <trkpt lat="43.335070" lon="-5.377340">
        <ele>175.817</ele>
        <time>2020-05-20T22:53:32Z</time>
      </trkpt>
      <trkpt lat="43.334650" lon="-5.377410">
        <ele>177.487</ele>
        <time>2020-05-20T22:53:52Z</time>
      </trkpt>
      <trkpt lat="43.334470" lon="-5.377470">
        <ele>177.415</ele>
        <time>2020-05-20T22:54:12Z</time>
      </trkpt>
      <trkpt lat="43.334320" lon="-5.377520">
        <ele>178.008</ele>
        <time>2020-05-20T22:54:32Z</time>
      </trkpt>
      <trkpt lat="43.334150" lon="-5.377590">
        <ele>178.335</ele>
        <time>2020-05-20T22:54:52Z</time>
      </trkpt>
      <trkpt lat="43.333990" lon="-5.377660">
        <ele>179.040</ele>
        <time>2020-05-20T22:55:12Z</time>
      </trkpt>
      <trkpt lat="43.333980" lon="-5.377660">
        <ele>179.117</ele>
        <time>2020-05-20T22:55:32Z</time>
      </trkpt>
      <trkpt lat="43.333530" lon="-5.377790">
        <ele>180.973</ele>
        <time>2020-05-20T22:55:52Z</time>
      </trkpt>
      <trkpt lat="43.333340" lon="-5.377880">
        <ele>181.752</ele>
        <time>2020-05-20T22:56:12Z</time>
      </trkpt>
      <trkpt lat="43.333280" lon="-5.377910">
        <ele>182.249</ele>
        <time>2020-05-20T22:56:32Z</time>
      </trkpt>
      <trkpt lat="43.333200" lon="-5.377950">
        <ele>182.614</ele>
        <time>2020-05-20T22:56:52Z</time>
      </trkpt>
      <trkpt lat="43.332900" lon="-5.378190">
        <ele>180.658</ele>
        <time>2020-05-20T22:57:12Z</time>
      </trkpt>
      <trkpt lat="43.332660" lon="-5.378410">
        <ele>178.169</ele>
        <time>2020-05-20T22:57:32Z</time>
      </trkpt>
      <trkpt lat="43.332520" lon="-5.378560">
        <ele>178.804</ele>
        <time>2020-05-20T22:57:52Z</time>
      </trkpt>
      <trkpt lat="43.332380" lon="-5.378720">
        <ele>179.224</ele>
        <time>2020-05-20T22:58:12Z</time>
      </trkpt>
      <trkpt lat="43.332100" lon="-5.379020">
        <ele>180.008</ele>
        <time>2020-05-20T22:58:32Z</time>
      </trkpt>
      <trkpt lat="43.331520" lon="-5.379680">
        <ele>181.140</ele>
        <time>2020-05-20T22:58:52Z</time>
      </trkpt>
      <trkpt lat="43.331270" lon="-5.379970">
        <ele>181.545</ele>
        <time>2020-05-20T22:59:12Z</time>
      </trkpt>
      <trkpt lat="43.330990" lon="-5.380290">
        <ele>182.412</ele>
        <time>2020-05-20T22:59:32Z</time>
      </trkpt>
      <trkpt lat="43.330860" lon="-5.380440">
        <ele>182.868</ele>
        <time>2020-05-20T22:59:52Z</time>
      </trkpt>
      <trkpt lat="43.330450" lon="-5.380930">
        <ele>183.847</ele>
        <time>2020-05-20T23:00:12Z</time>
      </trkpt>
      <trkpt lat="43.330170" lon="-5.381250">
        <ele>184.444</ele>
        <time>2020-05-20T23:00:32Z</time>
      </trkpt>
      <trkpt lat="43.330040" lon="-5.381410">
        <ele>184.959</ele>
        <time>2020-05-20T23:00:52Z</time>
      </trkpt>
      <trkpt lat="43.329640" lon="-5.381880">
        <ele>186.043</ele>
        <time>2020-05-20T23:01:12Z</time>
      </trkpt>
      <trkpt lat="43.329630" lon="-5.381900">
        <ele>186.085</ele>
        <time>2020-05-20T23:01:32Z</time>
      </trkpt>
      <trkpt lat="43.329490" lon="-5.382060">
        <ele>185.989</ele>
        <time>2020-05-20T23:01:52Z</time>
      </trkpt>
      <trkpt lat="43.328870" lon="-5.382760">
        <ele>189.317</ele>
        <time>2020-05-20T23:02:12Z</time>
      </trkpt>
      <trkpt lat="43.328740" lon="-5.382820">
        <ele>189.708</ele>
        <time>2020-05-20T23:02:32Z</time>
      </trkpt>
      <trkpt lat="43.328650" lon="-5.382860">
        <ele>189.412</ele>
        <time>2020-05-20T23:02:52Z</time>
      </trkpt>
      <trkpt lat="43.328570" lon="-5.382870">
        <ele>189.427</ele>
        <time>2020-05-20T23:03:12Z</time>
      </trkpt>
      <trkpt lat="43.328520" lon="-5.382870">
        <ele>189.654</ele>
        <time>2020-05-20T23:03:32Z</time>
      </trkpt>
      <trkpt lat="43.328500" lon="-5.382870">
        <ele>189.630</ele>
        <time>2020-05-20T23:03:52Z</time>
      </trkpt>
      <trkpt lat="43.328230" lon="-5.382810">
        <ele>191.389</ele>
        <time>2020-05-20T23:04:12Z</time>
      </trkpt>
      <trkpt lat="43.328160" lon="-5.382800">
        <ele>191.136</ele>
        <time>2020-05-20T23:04:32Z</time>
      </trkpt>
      <trkpt lat="43.328090" lon="-5.382780">
        <ele>191.211</ele>
        <time>2020-05-20T23:04:52Z</time>
      </trkpt>
      <trkpt lat="43.327990" lon="-5.382790">
        <ele>190.725</ele>
        <time>2020-05-20T23:05:12Z</time>
      </trkpt>
      <trkpt lat="43.327830" lon="-5.382810">
        <ele>190.487</ele>
        <time>2020-05-20T23:05:32Z</time>
      </trkpt>
      <trkpt lat="43.327810" lon="-5.382820">
        <ele>190.242</ele>
        <time>2020-05-20T23:05:52Z</time>
      </trkpt>
      <trkpt lat="43.327740" lon="-5.382840">
        <ele>190.126</ele>
        <time>2020-05-20T23:06:12Z</time>
      </trkpt>
      <trkpt lat="43.327510" lon="-5.382930">
        <ele>190.308</ele>
        <time>2020-05-20T23:06:32Z</time>
      </trkpt>
      <trkpt lat="43.327460" lon="-5.382940">
        <ele>190.592</ele>
        <time>2020-05-20T23:06:52Z</time>
      </trkpt>
      <trkpt lat="43.327110" lon="-5.383070">
        <ele>189.947</ele>
        <time>2020-05-20T23:07:12Z</time>
      </trkpt>
      <trkpt lat="43.327050" lon="-5.383090">
        <ele>189.894</ele>
        <time>2020-05-20T23:07:32Z</time>
      </trkpt>
      <trkpt lat="43.326940" lon="-5.383140">
        <ele>189.460</ele>
        <time>2020-05-20T23:07:52Z</time>
      </trkpt>
      <trkpt lat="43.326770" lon="-5.383230">
        <ele>189.129</ele>
        <time>2020-05-20T23:08:12Z</time>
      </trkpt>
      <trkpt lat="43.326670" lon="-5.383280">
        <ele>189.286</ele>
        <time>2020-05-20T23:08:32Z</time>
      </trkpt>
      <trkpt lat="43.326430" lon="-5.383370">
        <ele>190.581</ele>
        <time>2020-05-20T23:08:52Z</time>
      </trkpt>
      <trkpt lat="43.326390" lon="-5.383380">
        <ele>190.735</ele>
        <time>2020-05-20T23:09:12Z</time>
      </trkpt>
      <trkpt lat="43.326250" lon="-5.383430">
        <ele>190.715</ele>
        <time>2020-05-20T23:09:32Z</time>
      </trkpt>
      <trkpt lat="43.326130" lon="-5.383480">
        <ele>190.965</ele>
        <time>2020-05-20T23:09:52Z</time>
      </trkpt>
      <trkpt lat="43.326080" lon="-5.383500">
        <ele>191.111</ele>
        <time>2020-05-20T23:10:12Z</time>
      </trkpt>
      <trkpt lat="43.325910" lon="-5.383570">
        <ele>191.608</ele>
        <time>2020-05-20T23:10:32Z</time>
      </trkpt>
      <trkpt lat="43.325890" lon="-5.383580">
        <ele>191.765</ele>
        <time>2020-05-20T23:10:52Z</time>
      </trkpt>
      <trkpt lat="43.325730" lon="-5.383630">
        <ele>192.730</ele>
        <time>2020-05-20T23:11:12Z</time>
      </trkpt>
      <trkpt lat="43.325700" lon="-5.383640">
        <ele>193.087</ele>
        <time>2020-05-20T23:11:32Z</time>
      </trkpt>
      <trkpt lat="43.325560" lon="-5.383700">
        <ele>194.083</ele>
        <time>2020-05-20T23:11:52Z</time>
      </trkpt>
      <trkpt lat="43.325510" lon="-5.383720">
        <ele>194.512</ele>
        <time>2020-05-20T23:12:12Z</time>
      </trkpt>
      <trkpt lat="43.325400" lon="-5.383810">
        <ele>195.489</ele>
        <time>2020-05-20T23:12:32Z</time>
      </trkpt>
      <trkpt lat="43.325340" lon="-5.383850">
        <ele>195.854</ele>
        <time>2020-05-20T23:12:52Z</time>
      </trkpt>
      <trkpt lat="43.325250" lon="-5.383940">
        <ele>196.438</ele>
        <time>2020-05-20T23:13:12Z</time>
      </trkpt>
      <trkpt lat="43.325160" lon="-5.384040">
        <ele>197.573</ele>
        <time>2020-05-20T23:13:32Z</time>
      </trkpt>
      <trkpt lat="43.325010" lon="-5.384220">
        <ele>198.385</ele>
        <time>2020-05-20T23:13:52Z</time>
      </trkpt>
      <trkpt lat="43.324970" lon="-5.384260">
        <ele>199.113</ele>
        <time>2020-05-20T23:14:12Z</time>
      </trkpt>
      <trkpt lat="43.324840" lon="-5.384420">
        <ele>200.508</ele>
        <time>2020-05-20T23:14:32Z</time>
      </trkpt>
      <trkpt lat="43.324740" lon="-5.384550">
        <ele>200.781</ele>
        <time>2020-05-20T23:14:52Z</time>
      </trkpt>
      <trkpt lat="43.324700" lon="-5.384580">
        <ele>201.066</ele>
        <time>2020-05-20T23:15:12Z</time>
      </trkpt>
      <trkpt lat="43.324610" lon="-5.384670">
        <ele>200.063</ele>
        <time>2020-05-20T23:15:32Z</time>
      </trkpt>
      <trkpt lat="43.324590" lon="-5.384690">
        <ele>199.629</ele>
        <time>2020-05-20T23:15:52Z</time>
      </trkpt>
      <trkpt lat="43.324570" lon="-5.384700">
        <ele>199.358</ele>
        <time>2020-05-20T23:16:12Z</time>
      </trkpt>
      <trkpt lat="43.324550" lon="-5.384710">
        <ele>199.155</ele>
        <time>2020-05-20T23:16:32Z</time>
      </trkpt>
      <trkpt lat="43.324390" lon="-5.384750">
        <ele>199.570</ele>
        <time>2020-05-20T23:16:52Z</time>
      </trkpt>
      <trkpt lat="43.324370" lon="-5.384760">
        <ele>199.664</ele>
        <time>2020-05-20T23:17:12Z</time>
      </trkpt>
      <trkpt lat="43.324240" lon="-5.384800">
        <ele>201.192</ele>
        <time>2020-05-20T23:17:32Z</time>
      </trkpt>
      <trkpt lat="43.324220" lon="-5.384820">
        <ele>200.773</ele>
        <time>2020-05-20T23:17:52Z</time>
      </trkpt>
      <trkpt lat="43.324200" lon="-5.384830">
        <ele>200.720</ele>
        <time>2020-05-20T23:18:12Z</time>
      </trkpt>
      <trkpt lat="43.324190" lon="-5.384850">
        <ele>200.008</ele>
        <time>2020-05-20T23:18:32Z</time>
      </trkpt>
      <trkpt lat="43.324160" lon="-5.384880">
        <ele>199.643</ele>
        <time>2020-05-20T23:18:52Z</time>
      </trkpt>
      <trkpt lat="43.324140" lon="-5.384920">
        <ele>199.068</ele>
        <time>2020-05-20T23:19:12Z</time>
      </trkpt>
      <trkpt lat="43.324120" lon="-5.384960">
        <ele>198.575</ele>
        <time>2020-05-20T23:19:32Z</time>
      </trkpt>
      <trkpt lat="43.324110" lon="-5.384990">
        <ele>197.761</ele>
        <time>2020-05-20T23:19:52Z</time>
      </trkpt>
      <trkpt lat="43.324090" lon="-5.385020">
        <ele>198.250</ele>
        <time>2020-05-20T23:20:12Z</time>
      </trkpt>
      <trkpt lat="43.324000" lon="-5.385240">
        <ele>198.897</ele>
        <time>2020-05-20T23:20:32Z</time>
      </trkpt>
      <trkpt lat="43.323980" lon="-5.385290">
        <ele>198.582</ele>
        <time>2020-05-20T23:20:52Z</time>
      </trkpt>
      <trkpt lat="43.323910" lon="-5.385450">
        <ele>197.846</ele>
        <time>2020-05-20T23:21:12Z</time>
      </trkpt>
      <trkpt lat="43.323750" lon="-5.385810">
        <ele>197.016</ele>
        <time>2020-05-20T23:21:32Z</time>
      </trkpt>
      <trkpt lat="43.323720" lon="-5.385880">
        <ele>196.876</ele>
        <time>2020-05-20T23:21:52Z</time>
      </trkpt>
      <trkpt lat="43.323630" lon="-5.386090">
        <ele>196.013</ele>
        <time>2020-05-20T23:22:12Z</time>
      </trkpt>
      <trkpt lat="43.323610" lon="-5.386140">
        <ele>195.808</ele>
        <time>2020-05-20T23:22:32Z</time>
      </trkpt>
      <trkpt lat="43.323540" lon="-5.386300">
        <ele>196.475</ele>
        <time>2020-05-20T23:22:52Z</time>
      </trkpt>
      <trkpt lat="43.323460" lon="-5.386520">
        <ele>196.940</ele>
        <time>2020-05-20T23:23:12Z</time>
      </trkpt>
      <trkpt lat="43.323370" lon="-5.386740">
        <ele>196.667</ele>
        <time>2020-05-20T23:23:32Z</time>
      </trkpt>
      <trkpt lat="43.323280" lon="-5.386950">
        <ele>195.993</ele>
        <time>2020-05-20T23:23:52Z</time>
      </trkpt>
      <trkpt lat="43.323280" lon="-5.386970">
        <ele>195.892</ele>
        <time>2020-05-20T23:24:12Z</time>
      </trkpt>
      <trkpt lat="43.323210" lon="-5.387180">
        <ele>195.689</ele>
        <time>2020-05-20T23:24:32Z</time>
      </trkpt>
      <trkpt lat="43.323130" lon="-5.387400">
        <ele>196.044</ele>
        <time>2020-05-20T23:24:52Z</time>
      </trkpt>
      <trkpt lat="43.323050" lon="-5.387660">
        <ele>196.528</ele>
        <time>2020-05-20T23:25:12Z</time>
      </trkpt>
      <trkpt lat="43.322990" lon="-5.387850">
        <ele>195.875</ele>
        <time>2020-05-20T23:25:32Z</time>
      </trkpt>
      <trkpt lat="43.322910" lon="-5.388080">
        <ele>195.628</ele>
        <time>2020-05-20T23:25:52Z</time>
      </trkpt>
      <trkpt lat="43.322690" lon="-5.388760">
        <ele>195.920</ele>
        <time>2020-05-20T23:26:12Z</time>
      </trkpt>
      <trkpt lat="43.322680" lon="-5.388810">
        <ele>196.108</ele>
        <time>2020-05-20T23:26:32Z</time>
      </trkpt>
      <trkpt lat="43.322620" lon="-5.388980">
        <ele>196.571</ele>
        <time>2020-05-20T23:26:52Z</time>
      </trkpt>
      <trkpt lat="43.322540" lon="-5.389210">
        <ele>196.736</ele>
        <time>2020-05-20T23:27:12Z</time>
      </trkpt>
      <trkpt lat="43.322490" lon="-5.389350">
        <ele>197.243</ele>
        <time>2020-05-20T23:27:32Z</time>
      </trkpt>
      <trkpt lat="43.322470" lon="-5.389430">
        <ele>197.659</ele>
        <time>2020-05-20T23:27:52Z</time>
      </trkpt>
      <trkpt lat="43.322410" lon="-5.389660">
        <ele>198.278</ele>
        <time>2020-05-20T23:28:12Z</time>
      </trkpt>
      <trkpt lat="43.322340" lon="-5.389890">
        <ele>198.815</ele>
        <time>2020-05-20T23:28:32Z</time>
      </trkpt>
      <trkpt lat="43.322310" lon="-5.390000">
        <ele>198.760</ele>
        <time>2020-05-20T23:28:52Z</time>
      </trkpt>
      <trkpt lat="43.322150" lon="-5.390590">
        <ele>200.474</ele>
        <time>2020-05-20T23:29:12Z</time>
      </trkpt>
      <trkpt lat="43.322100" lon="-5.390740">
        <ele>201.471</ele>
        <time>2020-05-20T23:29:32Z</time>
      </trkpt>
      <trkpt lat="43.322080" lon="-5.390810">
        <ele>201.741</ele>
        <time>2020-05-20T23:29:52Z</time>
      </trkpt>
      <trkpt lat="43.322060" lon="-5.390870">
        <ele>201.915</ele>
        <time>2020-05-20T23:30:12Z</time>
      </trkpt>
      <trkpt lat="43.321990" lon="-5.391030">
        <ele>201.608</ele>
        <time>2020-05-20T23:30:32Z</time>
      </trkpt>
      <trkpt lat="43.321920" lon="-5.391220">
        <ele>201.731</ele>
        <time>2020-05-20T23:30:52Z</time>
      </trkpt>
      <trkpt lat="43.321890" lon="-5.391310">
        <ele>202.676</ele>
        <time>2020-05-20T23:31:12Z</time>
      </trkpt>
      <trkpt lat="43.321730" lon="-5.391720">
        <ele>202.993</ele>
        <time>2020-05-20T23:31:32Z</time>
      </trkpt>
      <trkpt lat="43.321720" lon="-5.391750">
        <ele>202.899</ele>
        <time>2020-05-20T23:31:52Z</time>
      </trkpt>
      <trkpt lat="43.321640" lon="-5.391970">
        <ele>202.278</ele>
        <time>2020-05-20T23:32:12Z</time>
      </trkpt>
      <trkpt lat="43.321560" lon="-5.392160">
        <ele>203.425</ele>
        <time>2020-05-20T23:32:32Z</time>
      </trkpt>
      <trkpt lat="43.321550" lon="-5.392190">
        <ele>203.310</ele>
        <time>2020-05-20T23:32:52Z</time>
      </trkpt>
      <trkpt lat="43.321470" lon="-5.392400">
        <ele>202.994</ele>
        <time>2020-05-20T23:33:12Z</time>
      </trkpt>
      <trkpt lat="43.321440" lon="-5.392450">
        <ele>202.844</ele>
        <time>2020-05-20T23:33:32Z</time>
      </trkpt>
      <trkpt lat="43.321400" lon="-5.392550">
        <ele>202.305</ele>
        <time>2020-05-20T23:33:52Z</time>
      </trkpt>
      <trkpt lat="43.321370" lon="-5.392610">
        <ele>202.515</ele>
        <time>2020-05-20T23:34:12Z</time>
      </trkpt>
      <trkpt lat="43.321240" lon="-5.392880">
        <ele>203.308</ele>
        <time>2020-05-20T23:34:32Z</time>
      </trkpt>
      <trkpt lat="43.321170" lon="-5.393010">
        <ele>202.348</ele>
        <time>2020-05-20T23:34:52Z</time>
      </trkpt>
      <trkpt lat="43.321160" lon="-5.393020">
        <ele>202.273</ele>
        <time>2020-05-20T23:35:12Z</time>
      </trkpt>
      <trkpt lat="43.321060" lon="-5.393220">
        <ele>202.140</ele>
        <time>2020-05-20T23:35:32Z</time>
      </trkpt>
      <trkpt lat="43.321040" lon="-5.393250">
        <ele>202.356</ele>
        <time>2020-05-20T23:35:52Z</time>
      </trkpt>
      <trkpt lat="43.320960" lon="-5.393420">
        <ele>202.425</ele>
        <time>2020-05-20T23:36:12Z</time>
      </trkpt>
      <trkpt lat="43.320940" lon="-5.393460">
        <ele>202.472</ele>
        <time>2020-05-20T23:36:32Z</time>
      </trkpt>
      <trkpt lat="43.320870" lon="-5.393570">
        <ele>202.117</ele>
        <time>2020-05-20T23:36:52Z</time>
      </trkpt>
      <trkpt lat="43.320710" lon="-5.393750">
        <ele>202.881</ele>
        <time>2020-05-20T23:37:12Z</time>
      </trkpt>
      <trkpt lat="43.320700" lon="-5.393760">
        <ele>202.934</ele>
        <time>2020-05-20T23:37:32Z</time>
      </trkpt>
      <trkpt lat="43.320660" lon="-5.393800">
        <ele>203.055</ele>
        <time>2020-05-20T23:37:52Z</time>
      </trkpt>
      <trkpt lat="43.320560" lon="-5.393870">
        <ele>203.210</ele>
        <time>2020-05-20T23:38:12Z</time>
      </trkpt>
      <trkpt lat="43.320440" lon="-5.393910">
        <ele>203.508</ele>
        <time>2020-05-20T23:38:32Z</time>
      </trkpt>
      <trkpt lat="43.320260" lon="-5.394000">
        <ele>204.217</ele>
        <time>2020-05-20T23:38:52Z</time>
      </trkpt>
      <trkpt lat="43.320210" lon="-5.394010">
        <ele>204.752</ele>
        <time>2020-05-20T23:39:12Z</time>
      </trkpt>
      <trkpt lat="43.320160" lon="-5.394040">
        <ele>204.979</ele>
        <time>2020-05-20T23:39:32Z</time>
      </trkpt>
      <trkpt lat="43.320060" lon="-5.394120">
        <ele>204.115</ele>
        <time>2020-05-20T23:39:52Z</time>
      </trkpt>
      <trkpt lat="43.319990" lon="-5.394180">
        <ele>203.454</ele>
        <time>2020-05-20T23:40:12Z</time>
      </trkpt>
      <trkpt lat="43.319940" lon="-5.394230">
        <ele>204.741</ele>
        <time>2020-05-20T23:40:32Z</time>
      </trkpt>
      <trkpt lat="43.319900" lon="-5.394270">
        <ele>205.456</ele>
        <time>2020-05-20T23:40:52Z</time>
      </trkpt>
      <trkpt lat="43.319820" lon="-5.394390">
        <ele>204.970</ele>
        <time>2020-05-20T23:41:12Z</time>
      </trkpt>
      <trkpt lat="43.319720" lon="-5.394610">
        <ele>204.014</ele>
        <time>2020-05-20T23:41:32Z</time>
      </trkpt>
      <trkpt lat="43.319630" lon="-5.394820">
        <ele>204.554</ele>
        <time>2020-05-20T23:41:52Z</time>
      </trkpt>
      <trkpt lat="43.319580" lon="-5.394920">
        <ele>204.709</ele>
        <time>2020-05-20T23:42:12Z</time>
      </trkpt>
      <trkpt lat="43.319530" lon="-5.395030">
        <ele>204.708</ele>
        <time>2020-05-20T23:42:32Z</time>
      </trkpt>
      <trkpt lat="43.319440" lon="-5.395240">
        <ele>204.235</ele>
        <time>2020-05-20T23:42:52Z</time>
      </trkpt>
      <trkpt lat="43.319270" lon="-5.395600">
        <ele>205.520</ele>
        <time>2020-05-20T23:43:12Z</time>
      </trkpt>
      <trkpt lat="43.319140" lon="-5.395890">
        <ele>206.567</ele>
        <time>2020-05-20T23:43:32Z</time>
      </trkpt>
      <trkpt lat="43.319080" lon="-5.396020">
        <ele>207.643</ele>
        <time>2020-05-20T23:43:52Z</time>
      </trkpt>
      <trkpt lat="43.319040" lon="-5.396100">
        <ele>208.282</ele>
        <time>2020-05-20T23:44:12Z</time>
      </trkpt>
      <trkpt lat="43.318990" lon="-5.396230">
        <ele>208.219</ele>
        <time>2020-05-20T23:44:32Z</time>
      </trkpt>
      <trkpt lat="43.318960" lon="-5.396320">
        <ele>207.774</ele>
        <time>2020-05-20T23:44:52Z</time>
      </trkpt>
      <trkpt lat="43.318910" lon="-5.396450">
        <ele>207.038</ele>
        <time>2020-05-20T23:45:12Z</time>
      </trkpt>
      <trkpt lat="43.318860" lon="-5.396580">
        <ele>207.079</ele>
        <time>2020-05-20T23:45:32Z</time>
      </trkpt>
      <trkpt lat="43.318760" lon="-5.396750">
        <ele>208.305</ele>
        <time>2020-05-20T23:45:52Z</time>
      </trkpt>
      <trkpt lat="43.318690" lon="-5.396840">
        <ele>208.825</ele>
        <time>2020-05-20T23:46:12Z</time>
      </trkpt>
      <trkpt lat="43.318630" lon="-5.396930">
        <ele>208.108</ele>
        <time>2020-05-20T23:46:32Z</time>
      </trkpt>
      <trkpt lat="43.318440" lon="-5.397190">
        <ele>210.791</ele>
        <time>2020-05-20T23:46:52Z</time>
      </trkpt>
      <trkpt lat="43.318370" lon="-5.397280">
        <ele>210.726</ele>
        <time>2020-05-20T23:47:12Z</time>
      </trkpt>
      <trkpt lat="43.318310" lon="-5.397370">
        <ele>210.393</ele>
        <time>2020-05-20T23:47:32Z</time>
      </trkpt>
      <trkpt lat="43.318190" lon="-5.397550">
        <ele>211.579</ele>
        <time>2020-05-20T23:47:52Z</time>
      </trkpt>
      <trkpt lat="43.318080" lon="-5.397740">
        <ele>211.488</ele>
        <time>2020-05-20T23:48:12Z</time>
      </trkpt>
      <trkpt lat="43.317960" lon="-5.397930">
        <ele>214.345</ele>
        <time>2020-05-20T23:48:32Z</time>
      </trkpt>
      <trkpt lat="43.317840" lon="-5.398110">
        <ele>216.220</ele>
        <time>2020-05-20T23:48:52Z</time>
      </trkpt>
      <trkpt lat="43.317820" lon="-5.398150">
        <ele>215.554</ele>
        <time>2020-05-20T23:49:12Z</time>
      </trkpt>
      <trkpt lat="43.317720" lon="-5.398300">
        <ele>214.235</ele>
        <time>2020-05-20T23:49:32Z</time>
      </trkpt>
      <trkpt lat="43.317610" lon="-5.398490">
        <ele>215.786</ele>
        <time>2020-05-20T23:49:52Z</time>
      </trkpt>
      <trkpt lat="43.317380" lon="-5.398880">
        <ele>213.214</ele>
        <time>2020-05-20T23:50:12Z</time>
      </trkpt>
      <trkpt lat="43.317270" lon="-5.399070">
        <ele>213.008</ele>
        <time>2020-05-20T23:50:32Z</time>
      </trkpt>
      <trkpt lat="43.317150" lon="-5.399260">
        <ele>214.657</ele>
        <time>2020-05-20T23:50:52Z</time>
      </trkpt>
      <trkpt lat="43.317150" lon="-5.399270">
        <ele>214.562</ele>
        <time>2020-05-20T23:51:12Z</time>
      </trkpt>
      <trkpt lat="43.317060" lon="-5.399470">
        <ele>215.759</ele>
        <time>2020-05-20T23:51:32Z</time>
      </trkpt>
      <trkpt lat="43.317020" lon="-5.399540">
        <ele>216.595</ele>
        <time>2020-05-20T23:51:52Z</time>
      </trkpt>
      <trkpt lat="43.316970" lon="-5.399680">
        <ele>216.044</ele>
        <time>2020-05-20T23:52:12Z</time>
      </trkpt>
      <trkpt lat="43.316930" lon="-5.399820">
        <ele>214.861</ele>
        <time>2020-05-20T23:52:32Z</time>
      </trkpt>
      <trkpt lat="43.316890" lon="-5.399900">
        <ele>215.136</ele>
        <time>2020-05-20T23:52:52Z</time>
      </trkpt>
      <trkpt lat="43.316740" lon="-5.400180">
        <ele>214.860</ele>
        <time>2020-05-20T23:53:12Z</time>
      </trkpt>
      <trkpt lat="43.316680" lon="-5.400300">
        <ele>212.715</ele>
        <time>2020-05-20T23:53:32Z</time>
      </trkpt>
      <trkpt lat="43.316570" lon="-5.400500">
        <ele>213.365</ele>
        <time>2020-05-20T23:53:52Z</time>
      </trkpt>
      <trkpt lat="43.316460" lon="-5.400690">
        <ele>213.311</ele>
        <time>2020-05-20T23:54:12Z</time>
      </trkpt>
      <trkpt lat="43.316460" lon="-5.400700">
        <ele>213.208</ele>
        <time>2020-05-20T23:54:32Z</time>
      </trkpt>
      <trkpt lat="43.316350" lon="-5.400890">
        <ele>213.795</ele>
        <time>2020-05-20T23:54:52Z</time>
      </trkpt>
      <trkpt lat="43.316270" lon="-5.401030">
        <ele>214.180</ele>
        <time>2020-05-20T23:55:12Z</time>
      </trkpt>
      <trkpt lat="43.316130" lon="-5.401290">
        <ele>213.627</ele>
        <time>2020-05-20T23:55:32Z</time>
      </trkpt>
      <trkpt lat="43.316080" lon="-5.401380">
        <ele>213.413</ele>
        <time>2020-05-20T23:55:52Z</time>
      </trkpt>
      <trkpt lat="43.316010" lon="-5.401470">
        <ele>213.452</ele>
        <time>2020-05-20T23:56:12Z</time>
      </trkpt>
      <trkpt lat="43.316010" lon="-5.401480">
        <ele>213.329</ele>
        <time>2020-05-20T23:56:32Z</time>
      </trkpt>
      <trkpt lat="43.315940" lon="-5.401550">
        <ele>213.364</ele>
        <time>2020-05-20T23:56:52Z</time>
      </trkpt>
      <trkpt lat="43.315830" lon="-5.401630">
        <ele>213.438</ele>
        <time>2020-05-20T23:57:12Z</time>
      </trkpt>
      <trkpt lat="43.315560" lon="-5.401830">
        <ele>213.828</ele>
        <time>2020-05-20T23:57:32Z</time>
      </trkpt>
      <trkpt lat="43.315550" lon="-5.401840">
        <ele>213.889</ele>
        <time>2020-05-20T23:57:52Z</time>
      </trkpt>
      <trkpt lat="43.315390" lon="-5.401970">
        <ele>214.517</ele>
        <time>2020-05-20T23:58:12Z</time>
      </trkpt>
      <trkpt lat="43.315320" lon="-5.402030">
        <ele>214.408</ele>
        <time>2020-05-20T23:58:32Z</time>
      </trkpt>
      <trkpt lat="43.315240" lon="-5.402100">
        <ele>214.286</ele>
        <time>2020-05-20T23:58:52Z</time>
      </trkpt>
      <trkpt lat="43.315230" lon="-5.402110">
        <ele>214.271</ele>
        <time>2020-05-20T23:59:12Z</time>
      </trkpt>
      <trkpt lat="43.315140" lon="-5.402190">
        <ele>214.088</ele>
        <time>2020-05-20T23:59:32Z</time>
      </trkpt>
      <trkpt lat="43.315100" lon="-5.402250">
        <ele>213.864</ele>
        <time>2020-05-20T23:59:52Z</time>
      </trkpt>
      <trkpt lat="43.315040" lon="-5.402310">
        <ele>214.093</ele>
        <time>2020-05-21T00:00:12Z</time>
      </trkpt>
      <trkpt lat="43.314810" lon="-5.402590">
        <ele>214.560</ele>
        <time>2020-05-21T00:00:32Z</time>
      </trkpt>
      <trkpt lat="43.314690" lon="-5.402740">
        <ele>215.075</ele>
        <time>2020-05-21T00:00:52Z</time>
      </trkpt>
      <trkpt lat="43.314620" lon="-5.402820">
        <ele>215.639</ele>
        <time>2020-05-21T00:01:12Z</time>
      </trkpt>
      <trkpt lat="43.314420" lon="-5.403040">
        <ele>216.146</ele>
        <time>2020-05-21T00:01:32Z</time>
      </trkpt>
      <trkpt lat="43.314130" lon="-5.403420">
        <ele>216.488</ele>
        <time>2020-05-21T00:01:52Z</time>
      </trkpt>
      <trkpt lat="43.314110" lon="-5.403450">
        <ele>216.516</ele>
        <time>2020-05-21T00:02:12Z</time>
      </trkpt>
      <trkpt lat="43.314010" lon="-5.403600">
        <ele>216.808</ele>
        <time>2020-05-21T00:02:32Z</time>
      </trkpt>
      <trkpt lat="43.313960" lon="-5.403670">
        <ele>216.918</ele>
        <time>2020-05-21T00:02:52Z</time>
      </trkpt>
      <trkpt lat="43.313890" lon="-5.403790">
        <ele>216.753</ele>
        <time>2020-05-21T00:03:12Z</time>
      </trkpt>
      <trkpt lat="43.313820" lon="-5.403910">
        <ele>217.920</ele>
        <time>2020-05-21T00:03:32Z</time>
      </trkpt>
      <trkpt lat="43.313780" lon="-5.403980">
        <ele>218.526</ele>
        <time>2020-05-21T00:03:52Z</time>
      </trkpt>
      <trkpt lat="43.313580" lon="-5.404330">
        <ele>217.855</ele>
        <time>2020-05-21T00:04:12Z</time>
      </trkpt>
      <trkpt lat="43.313560" lon="-5.404370">
        <ele>217.732</ele>
        <time>2020-05-21T00:04:32Z</time>
      </trkpt>
      <trkpt lat="43.313450" lon="-5.404570">
        <ele>217.587</ele>
        <time>2020-05-21T00:04:52Z</time>
      </trkpt>
      <trkpt lat="43.313440" lon="-5.404590">
        <ele>217.531</ele>
        <time>2020-05-21T00:05:12Z</time>
      </trkpt>
      <trkpt lat="43.313310" lon="-5.404840">
        <ele>217.436</ele>
        <time>2020-05-21T00:05:32Z</time>
      </trkpt>
      <trkpt lat="43.313230" lon="-5.404960">
        <ele>218.017</ele>
        <time>2020-05-21T00:05:52Z</time>
      </trkpt>
      <trkpt lat="43.313120" lon="-5.405160">
        <ele>217.718</ele>
        <time>2020-05-21T00:06:12Z</time>
      </trkpt>
      <trkpt lat="43.313080" lon="-5.405240">
        <ele>217.208</ele>
        <time>2020-05-21T00:06:32Z</time>
      </trkpt>
      <trkpt lat="43.313010" lon="-5.405350">
        <ele>217.997</ele>
        <time>2020-05-21T00:06:52Z</time>
      </trkpt>
      <trkpt lat="43.312910" lon="-5.405540">
        <ele>218.222</ele>
        <time>2020-05-21T00:07:12Z</time>
      </trkpt>
      <trkpt lat="43.312910" lon="-5.405550">
        <ele>218.199</ele>
        <time>2020-05-21T00:07:32Z</time>
      </trkpt>
      <trkpt lat="43.312800" lon="-5.405750">
        <ele>218.365</ele>
        <time>2020-05-21T00:07:52Z</time>
      </trkpt>
      <trkpt lat="43.312610" lon="-5.406110">
        <ele>221.094</ele>
        <time>2020-05-21T00:08:12Z</time>
      </trkpt>
      <trkpt lat="43.312590" lon="-5.406150">
        <ele>221.041</ele>
        <time>2020-05-21T00:08:32Z</time>
      </trkpt>
      <trkpt lat="43.312480" lon="-5.406340">
        <ele>220.956</ele>
        <time>2020-05-21T00:08:52Z</time>
      </trkpt>
      <trkpt lat="43.312420" lon="-5.406440">
        <ele>223.040</ele>
        <time>2020-05-21T00:09:12Z</time>
      </trkpt>
      <trkpt lat="43.312280" lon="-5.406640">
        <ele>223.191</ele>
        <time>2020-05-21T00:09:32Z</time>
      </trkpt>
      <trkpt lat="43.312100" lon="-5.406860">
        <ele>223.781</ele>
        <time>2020-05-21T00:09:52Z</time>
      </trkpt>
      <trkpt lat="43.312090" lon="-5.406870">
        <ele>223.719</ele>
        <time>2020-05-21T00:10:12Z</time>
      </trkpt>
      <trkpt lat="43.311960" lon="-5.407030">
        <ele>223.508</ele>
        <time>2020-05-21T00:10:32Z</time>
      </trkpt>
      <trkpt lat="43.311900" lon="-5.407110">
        <ele>224.363</ele>
        <time>2020-05-21T00:10:52Z</time>
      </trkpt>
      <trkpt lat="43.311830" lon="-5.407200">
        <ele>224.528</ele>
        <time>2020-05-21T00:11:12Z</time>
      </trkpt>
      <trkpt lat="43.311700" lon="-5.407370">
        <ele>223.975</ele>
        <time>2020-05-21T00:11:32Z</time>
      </trkpt>
      <trkpt lat="43.311610" lon="-5.407470">
        <ele>223.011</ele>
        <time>2020-05-21T00:11:52Z</time>
      </trkpt>
      <trkpt lat="43.311290" lon="-5.407860">
        <ele>223.660</ele>
        <time>2020-05-21T00:12:12Z</time>
      </trkpt>
      <trkpt lat="43.311240" lon="-5.407930">
        <ele>223.727</ele>
        <time>2020-05-21T00:12:32Z</time>
      </trkpt>
      <trkpt lat="43.311160" lon="-5.408030">
        <ele>223.282</ele>
        <time>2020-05-21T00:12:52Z</time>
      </trkpt>
      <trkpt lat="43.310890" lon="-5.408360">
        <ele>222.976</ele>
        <time>2020-05-21T00:13:12Z</time>
      </trkpt>
      <trkpt lat="43.310870" lon="-5.408390">
        <ele>223.126</ele>
        <time>2020-05-21T00:13:32Z</time>
      </trkpt>
      <trkpt lat="43.310550" lon="-5.408800">
        <ele>225.447</ele>
        <time>2020-05-21T00:13:52Z</time>
      </trkpt>
      <trkpt lat="43.310500" lon="-5.408860">
        <ele>225.611</ele>
        <time>2020-05-21T00:14:12Z</time>
      </trkpt>
      <trkpt lat="43.310230" lon="-5.409190">
        <ele>226.208</ele>
        <time>2020-05-21T00:14:32Z</time>
      </trkpt>
      <trkpt lat="43.310140" lon="-5.409300">
        <ele>226.556</ele>
        <time>2020-05-21T00:14:52Z</time>
      </trkpt>
      <trkpt lat="43.309840" lon="-5.409690">
        <ele>227.921</ele>
        <time>2020-05-21T00:15:12Z</time>
      </trkpt>
      <trkpt lat="43.309660" lon="-5.409930">
        <ele>228.398</ele>
        <time>2020-05-21T00:15:32Z</time>
      </trkpt>
      <trkpt lat="43.309590" lon="-5.410010">
        <ele>228.374</ele>
        <time>2020-05-21T00:15:52Z</time>
      </trkpt>
      <trkpt lat="43.309440" lon="-5.410130">
        <ele>228.263</ele>
        <time>2020-05-21T00:16:12Z</time>
      </trkpt>
      <trkpt lat="43.309320" lon="-5.410220">
        <ele>228.580</ele>
        <time>2020-05-21T00:16:32Z</time>
      </trkpt>
      <trkpt lat="43.309220" lon="-5.410270">
        <ele>228.625</ele>
        <time>2020-05-21T00:16:52Z</time>
      </trkpt>
      <trkpt lat="43.309180" lon="-5.410300">
        <ele>228.559</ele>
        <time>2020-05-21T00:17:12Z</time>
      </trkpt>
      <trkpt lat="43.308810" lon="-5.410540">
        <ele>228.748</ele>
        <time>2020-05-21T00:17:32Z</time>
      </trkpt>
      <trkpt lat="43.308730" lon="-5.410580">
        <ele>229.061</ele>
        <time>2020-05-21T00:17:52Z</time>
      </trkpt>
      <trkpt lat="43.308690" lon="-5.410600">
        <ele>229.317</ele>
        <time>2020-05-21T00:18:12Z</time>
      </trkpt>
      <trkpt lat="43.308570" lon="-5.410660">
        <ele>229.808</ele>
        <time>2020-05-21T00:18:32Z</time>
      </trkpt>
      <trkpt lat="43.308420" lon="-5.410700">
        <ele>230.378</ele>
        <time>2020-05-21T00:18:52Z</time>
      </trkpt>
      <trkpt lat="43.308380" lon="-5.410710">
        <ele>230.483</ele>
        <time>2020-05-21T00:19:12Z</time>
      </trkpt>
      <trkpt lat="43.308200" lon="-5.410740">
        <ele>230.530</ele>
        <time>2020-05-21T00:19:32Z</time>
      </trkpt>
      <trkpt lat="43.307970" lon="-5.410770">
        <ele>230.536</ele>
        <time>2020-05-21T00:19:52Z</time>
      </trkpt>
      <trkpt lat="43.307790" lon="-5.410800">
        <ele>231.165</ele>
        <time>2020-05-21T00:20:12Z</time>
      </trkpt>
      <trkpt lat="43.307670" lon="-5.410840">
        <ele>232.952</ele>
        <time>2020-05-21T00:20:32Z</time>
      </trkpt>
      <trkpt lat="43.307600" lon="-5.410910">
        <ele>233.367</ele>
        <time>2020-05-21T00:20:52Z</time>
      </trkpt>
      <trkpt lat="43.307570" lon="-5.410960">
        <ele>233.171</ele>
        <time>2020-05-21T00:21:12Z</time>
      </trkpt>
      <trkpt lat="43.307520" lon="-5.411060">
        <ele>232.572</ele>
        <time>2020-05-21T00:21:32Z</time>
      </trkpt>
      <trkpt lat="43.307440" lon="-5.411260">
        <ele>234.013</ele>
        <time>2020-05-21T00:21:52Z</time>
      </trkpt>
      <trkpt lat="43.307350" lon="-5.411480">
        <ele>234.814</ele>
        <time>2020-05-21T00:22:12Z</time>
      </trkpt>
      <trkpt lat="43.307170" lon="-5.411910">
        <ele>231.408</ele>
        <time>2020-05-21T00:22:32Z</time>
      </trkpt>
      <trkpt lat="43.307080" lon="-5.412120">
        <ele>231.481</ele>
        <time>2020-05-21T00:22:52Z</time>
      </trkpt>
      <trkpt lat="43.307040" lon="-5.412240">
        <ele>231.376</ele>
        <time>2020-05-21T00:23:12Z</time>
      </trkpt>
      <trkpt lat="43.307000" lon="-5.412340">
        <ele>231.653</ele>
        <time>2020-05-21T00:23:32Z</time>
      </trkpt>
      <trkpt lat="43.306910" lon="-5.412560">
        <ele>233.199</ele>
        <time>2020-05-21T00:23:52Z</time>
      </trkpt>
      <trkpt lat="43.306900" lon="-5.412580">
        <ele>233.328</ele>
        <time>2020-05-21T00:24:12Z</time>
      </trkpt>
      <trkpt lat="43.306760" lon="-5.412890">
        <ele>235.455</ele>
        <time>2020-05-21T00:24:32Z</time>
      </trkpt>
      <trkpt lat="43.306680" lon="-5.413080">
        <ele>234.850</ele>
        <time>2020-05-21T00:24:52Z</time>
      </trkpt>
      <trkpt lat="43.306620" lon="-5.413180">
        <ele>236.214</ele>
        <time>2020-05-21T00:25:12Z</time>
      </trkpt>
      <trkpt lat="43.306550" lon="-5.413320">
        <ele>237.179</ele>
        <time>2020-05-21T00:25:32Z</time>
      </trkpt>
      <trkpt lat="43.306470" lon="-5.413440">
        <ele>237.505</ele>
        <time>2020-05-21T00:25:52Z</time>
      </trkpt>
      <trkpt lat="43.306340" lon="-5.413570">
        <ele>237.025</ele>
        <time>2020-05-21T00:26:12Z</time>
      </trkpt>
      <trkpt lat="43.306180" lon="-5.413710">
        <ele>237.708</ele>
        <time>2020-05-21T00:26:32Z</time>
      </trkpt>
      <trkpt lat="43.306070" lon="-5.413790">
        <ele>238.051</ele>
        <time>2020-05-21T00:26:52Z</time>
      </trkpt>
      <trkpt lat="43.306000" lon="-5.413840">
        <ele>238.416</ele>
        <time>2020-05-21T00:27:12Z</time>
      </trkpt>
      <trkpt lat="43.305920" lon="-5.413930">
        <ele>238.643</ele>
        <time>2020-05-21T00:27:32Z</time>
      </trkpt>
      <trkpt lat="43.305900" lon="-5.413950">
        <ele>238.869</ele>
        <time>2020-05-21T00:27:52Z</time>
      </trkpt>
      <trkpt lat="43.305780" lon="-5.414110">
        <ele>240.088</ele>
        <time>2020-05-21T00:28:12Z</time>
      </trkpt>
      <trkpt lat="43.305680" lon="-5.414270">
        <ele>241.545</ele>
        <time>2020-05-21T00:28:32Z</time>
      </trkpt>
      <trkpt lat="43.305590" lon="-5.414420">
        <ele>241.540</ele>
        <time>2020-05-21T00:28:52Z</time>
      </trkpt>
      <trkpt lat="43.305560" lon="-5.414480">
        <ele>241.254</ele>
        <time>2020-05-21T00:29:12Z</time>
      </trkpt>
      <trkpt lat="43.305500" lon="-5.414610">
        <ele>241.631</ele>
        <time>2020-05-21T00:29:32Z</time>
      </trkpt>
      <trkpt lat="43.305470" lon="-5.414700">
        <ele>241.661</ele>
        <time>2020-05-21T00:29:52Z</time>
      </trkpt>
      <trkpt lat="43.305450" lon="-5.414740">
        <ele>242.207</ele>
        <time>2020-05-21T00:30:12Z</time>
      </trkpt>
      <trkpt lat="43.305420" lon="-5.414840">
        <ele>243.208</ele>
        <time>2020-05-21T00:30:32Z</time>
      </trkpt>
      <trkpt lat="43.305400" lon="-5.414990">
        <ele>243.347</ele>
        <time>2020-05-21T00:30:52Z</time>
      </trkpt>
      <trkpt lat="43.305370" lon="-5.415170">
        <ele>244.352</ele>
        <time>2020-05-21T00:31:12Z</time>
      </trkpt>
      <trkpt lat="43.305330" lon="-5.415410">
        <ele>245.469</ele>
        <time>2020-05-21T00:31:32Z</time>
      </trkpt>
      <trkpt lat="43.305280" lon="-5.415650">
        <ele>246.245</ele>
        <time>2020-05-21T00:31:52Z</time>
      </trkpt>
      <trkpt lat="43.305160" lon="-5.416110">
        <ele>247.774</ele>
        <time>2020-05-21T00:32:12Z</time>
      </trkpt>
      <trkpt lat="43.305120" lon="-5.416270">
        <ele>247.181</ele>
        <time>2020-05-21T00:32:32Z</time>
      </trkpt>
      <trkpt lat="43.305100" lon="-5.416350">
        <ele>246.726</ele>
        <time>2020-05-21T00:32:52Z</time>
      </trkpt>
      <trkpt lat="43.305080" lon="-5.416410">
        <ele>246.230</ele>
        <time>2020-05-21T00:33:12Z</time>
      </trkpt>
      <trkpt lat="43.305030" lon="-5.416470">
        <ele>246.026</ele>
        <time>2020-05-21T00:33:32Z</time>
      </trkpt>
      <trkpt lat="43.304990" lon="-5.416500">
        <ele>245.847</ele>
        <time>2020-05-21T00:33:52Z</time>
      </trkpt>
      <trkpt lat="43.304970" lon="-5.416510">
        <ele>245.511</ele>
        <time>2020-05-21T00:34:12Z</time>
      </trkpt>
      <trkpt lat="43.304940" lon="-5.416520">
        <ele>245.108</ele>
        <time>2020-05-21T00:34:32Z</time>
      </trkpt>
      <trkpt lat="43.304850" lon="-5.416520">
        <ele>244.966</ele>
        <time>2020-05-21T00:34:52Z</time>
      </trkpt>
      <trkpt lat="43.304800" lon="-5.416510">
        <ele>245.171</ele>
        <time>2020-05-21T00:35:12Z</time>
      </trkpt>
      <trkpt lat="43.304680" lon="-5.416490">
        <ele>245.118</ele>
        <time>2020-05-21T00:35:32Z</time>
      </trkpt>
      <trkpt lat="43.304620" lon="-5.416470">
        <ele>245.244</ele>
        <time>2020-05-21T00:35:52Z</time>
      </trkpt>
      <trkpt lat="43.304480" lon="-5.416450">
        <ele>244.753</ele>
        <time>2020-05-21T00:36:12Z</time>
      </trkpt>
      <trkpt lat="43.304440" lon="-5.416450">
        <ele>244.510</ele>
        <time>2020-05-21T00:36:32Z</time>
      </trkpt>
      <trkpt lat="43.304390" lon="-5.416450">
        <ele>244.785</ele>
        <time>2020-05-21T00:36:52Z</time>
      </trkpt>
      <trkpt lat="43.304260" lon="-5.416470">
        <ele>244.689</ele>
        <time>2020-05-21T00:37:12Z</time>
      </trkpt>
      <trkpt lat="43.304160" lon="-5.416490">
        <ele>244.638</ele>
        <time>2020-05-21T00:37:32Z</time>
      </trkpt>
      <trkpt lat="43.303910" lon="-5.416580">
        <ele>246.470</ele>
        <time>2020-05-21T00:37:52Z</time>
      </trkpt>
      <trkpt lat="43.303760" lon="-5.416640">
        <ele>245.517</ele>
        <time>2020-05-21T00:38:12Z</time>
      </trkpt>
      <trkpt lat="43.303740" lon="-5.416650">
        <ele>245.308</ele>
        <time>2020-05-21T00:38:32Z</time>
      </trkpt>
      <trkpt lat="43.303560" lon="-5.416720">
        <ele>245.977</ele>
        <time>2020-05-21T00:38:52Z</time>
      </trkpt>
      <trkpt lat="43.303390" lon="-5.416780">
        <ele>246.522</ele>
        <time>2020-05-21T00:39:12Z</time>
      </trkpt>
      <trkpt lat="43.303150" lon="-5.416880">
        <ele>246.529</ele>
        <time>2020-05-21T00:39:32Z</time>
      </trkpt>
      <trkpt lat="43.303050" lon="-5.416940">
        <ele>244.455</ele>
        <time>2020-05-21T00:39:52Z</time>
      </trkpt>
      <trkpt lat="43.303020" lon="-5.416950">
        <ele>245.224</ele>
        <time>2020-05-21T00:40:12Z</time>
      </trkpt>
      <trkpt lat="43.302920" lon="-5.417060">
        <ele>246.831</ele>
        <time>2020-05-21T00:40:32Z</time>
      </trkpt>
      <trkpt lat="43.302900" lon="-5.417080">
        <ele>247.046</ele>
        <time>2020-05-21T00:40:52Z</time>
      </trkpt>
      <trkpt lat="43.302820" lon="-5.417210">
        <ele>245.710</ele>
        <time>2020-05-21T00:41:12Z</time>
      </trkpt>
      <trkpt lat="43.302800" lon="-5.417280">
        <ele>245.367</ele>
        <time>2020-05-21T00:41:32Z</time>
      </trkpt>
      <trkpt lat="43.302740" lon="-5.417410">
        <ele>246.481</ele>
        <time>2020-05-21T00:41:52Z</time>
      </trkpt>
      <trkpt lat="43.302710" lon="-5.417490">
        <ele>247.019</ele>
        <time>2020-05-21T00:42:12Z</time>
      </trkpt>
      <trkpt lat="43.302670" lon="-5.417650">
        <ele>247.708</ele>
        <time>2020-05-21T00:42:32Z</time>
      </trkpt>
      <trkpt lat="43.302650" lon="-5.417720">
        <ele>248.050</ele>
        <time>2020-05-21T00:42:52Z</time>
      </trkpt>
      <trkpt lat="43.302640" lon="-5.417810">
        <ele>247.975</ele>
        <time>2020-05-21T00:43:12Z</time>
      </trkpt>
      <trkpt lat="43.302630" lon="-5.417970">
        <ele>248.082</ele>
        <time>2020-05-21T00:43:32Z</time>
      </trkpt>
      <trkpt lat="43.302620" lon="-5.418030">
        <ele>248.248</ele>
        <time>2020-05-21T00:43:52Z</time>
      </trkpt>
      <trkpt lat="43.302620" lon="-5.418220">
        <ele>248.147</ele>
        <time>2020-05-21T00:44:12Z</time>
      </trkpt>
      <trkpt lat="43.302620" lon="-5.418290">
        <ele>248.154</ele>
        <time>2020-05-21T00:44:32Z</time>
      </trkpt>
      <trkpt lat="43.302640" lon="-5.418460">
        <ele>248.639</ele>
        <time>2020-05-21T00:44:52Z</time>
      </trkpt>
      <trkpt lat="43.302650" lon="-5.418580">
        <ele>249.373</ele>
        <time>2020-05-21T00:45:12Z</time>
      </trkpt>
      <trkpt lat="43.302680" lon="-5.418700">
        <ele>248.738</ele>
        <time>2020-05-21T00:45:32Z</time>
      </trkpt>
      <trkpt lat="43.302700" lon="-5.418870">
        <ele>248.370</ele>
        <time>2020-05-21T00:45:52Z</time>
      </trkpt>
      <trkpt lat="43.302720" lon="-5.418930">
        <ele>247.417</ele>
        <time>2020-05-21T00:46:12Z</time>
      </trkpt>
      <trkpt lat="43.302710" lon="-5.418940">
        <ele>247.808</ele>
        <time>2020-05-21T00:46:32Z</time>
      </trkpt>
      <trkpt lat="43.302710" lon="-5.418990">
        <ele>247.827</ele>
        <time>2020-05-21T00:46:52Z</time>
      </trkpt>
      <trkpt lat="43.302690" lon="-5.419110">
        <ele>248.312</ele>
        <time>2020-05-21T00:47:12Z</time>
      </trkpt>
      <trkpt lat="43.302670" lon="-5.419180">
        <ele>248.819</ele>
        <time>2020-05-21T00:47:32Z</time>
      </trkpt>
      <trkpt lat="43.302590" lon="-5.419400">
        <ele>249.865</ele>
        <time>2020-05-21T00:47:52Z</time>
      </trkpt>
      <trkpt lat="43.302580" lon="-5.419410">
        <ele>249.934</ele>
        <time>2020-05-21T00:48:12Z</time>
      </trkpt>
      <trkpt lat="43.302500" lon="-5.419610">
        <ele>249.821</ele>
        <time>2020-05-21T00:48:32Z</time>
      </trkpt>
      <trkpt lat="43.302390" lon="-5.419860">
        <ele>251.746</ele>
        <time>2020-05-21T00:48:52Z</time>
      </trkpt>
      <trkpt lat="43.302280" lon="-5.420060">
        <ele>251.920</ele>
        <time>2020-05-21T00:49:12Z</time>
      </trkpt>
      <trkpt lat="43.302190" lon="-5.420150">
        <ele>251.942</ele>
        <time>2020-05-21T00:49:32Z</time>
      </trkpt>
      <trkpt lat="43.302100" lon="-5.420210">
        <ele>252.322</ele>
        <time>2020-05-21T00:49:52Z</time>
      </trkpt>
      <trkpt lat="43.301990" lon="-5.420250">
        <ele>253.114</ele>
        <time>2020-05-21T00:50:12Z</time>
      </trkpt>
      <trkpt lat="43.301920" lon="-5.420270">
        <ele>253.608</ele>
        <time>2020-05-21T00:50:32Z</time>
      </trkpt>
      <trkpt lat="43.301810" lon="-5.420300">
        <ele>254.698</ele>
        <time>2020-05-21T00:50:52Z</time>
      </trkpt>
      <trkpt lat="43.301650" lon="-5.420350">
        <ele>256.233</ele>
        <time>2020-05-21T00:51:12Z</time>
      </trkpt>
      <trkpt lat="43.301460" lon="-5.420420">
        <ele>257.590</ele>
        <time>2020-05-21T00:51:32Z</time>
      </trkpt>
      <trkpt lat="43.301430" lon="-5.420430">
        <ele>257.716</ele>
        <time>2020-05-21T00:51:52Z</time>
      </trkpt>
      <trkpt lat="43.301290" lon="-5.420510">
        <ele>257.885</ele>
        <time>2020-05-21T00:52:12Z</time>
      </trkpt>
      <trkpt lat="43.301250" lon="-5.420540">
        <ele>257.422</ele>
        <time>2020-05-21T00:52:32Z</time>
      </trkpt>
      <trkpt lat="43.301230" lon="-5.420560">
        <ele>257.167</ele>
        <time>2020-05-21T00:52:52Z</time>
      </trkpt>
      <trkpt lat="43.301120" lon="-5.420660">
        <ele>257.281</ele>
        <time>2020-05-21T00:53:12Z</time>
      </trkpt>
      <trkpt lat="43.300980" lon="-5.420860">
        <ele>258.558</ele>
        <time>2020-05-21T00:53:32Z</time>
      </trkpt>
      <trkpt lat="43.300980" lon="-5.420870">
        <ele>258.452</ele>
        <time>2020-05-21T00:53:52Z</time>
      </trkpt>
      <trkpt lat="43.300870" lon="-5.421060">
        <ele>258.217</ele>
        <time>2020-05-21T00:54:12Z</time>
      </trkpt>
      <trkpt lat="43.300810" lon="-5.421150">
        <ele>258.208</ele>
        <time>2020-05-21T00:54:32Z</time>
      </trkpt>
      <trkpt lat="43.300600" lon="-5.421580">
        <ele>256.789</ele>
        <time>2020-05-21T00:54:52Z</time>
      </trkpt>
      <trkpt lat="43.300460" lon="-5.422030">
        <ele>254.914</ele>
        <time>2020-05-21T00:55:12Z</time>
      </trkpt>
      <trkpt lat="43.300360" lon="-5.422330">
        <ele>254.751</ele>
        <time>2020-05-21T00:55:32Z</time>
      </trkpt>
      <trkpt lat="43.300310" lon="-5.422480">
        <ele>254.047</ele>
        <time>2020-05-21T00:55:52Z</time>
      </trkpt>
      <trkpt lat="43.300280" lon="-5.422560">
        <ele>254.066</ele>
        <time>2020-05-21T00:56:12Z</time>
      </trkpt>
      <trkpt lat="43.300250" lon="-5.422620">
        <ele>254.613</ele>
        <time>2020-05-21T00:56:32Z</time>
      </trkpt>
      <trkpt lat="43.300180" lon="-5.422710">
        <ele>255.078</ele>
        <time>2020-05-21T00:56:52Z</time>
      </trkpt>
      <trkpt lat="43.300120" lon="-5.422750">
        <ele>255.032</ele>
        <time>2020-05-21T00:57:12Z</time>
      </trkpt>
      <trkpt lat="43.300020" lon="-5.422790">
        <ele>255.067</ele>
        <time>2020-05-21T00:57:32Z</time>
      </trkpt>
      <trkpt lat="43.299900" lon="-5.422790">
        <ele>255.481</ele>
        <time>2020-05-21T00:57:52Z</time>
      </trkpt>
      <trkpt lat="43.299870" lon="-5.422790">
        <ele>255.519</ele>
        <time>2020-05-21T00:58:12Z</time>
      </trkpt>
      <trkpt lat="43.299750" lon="-5.422780">
        <ele>255.908</ele>
        <time>2020-05-21T00:58:32Z</time>
      </trkpt>
      <trkpt lat="43.299690" lon="-5.422770">
        <ele>256.260</ele>
        <time>2020-05-21T00:58:52Z</time>
      </trkpt>
      <trkpt lat="43.299510" lon="-5.422730">
        <ele>257.465</ele>
        <time>2020-05-21T00:59:12Z</time>
      </trkpt>
      <trkpt lat="43.299490" lon="-5.422730">
        <ele>257.432</ele>
        <time>2020-05-21T00:59:32Z</time>
      </trkpt>
      <trkpt lat="43.299150" lon="-5.422660">
        <ele>258.168</ele>
        <time>2020-05-21T00:59:52Z</time>
      </trkpt>
      <trkpt lat="43.299030" lon="-5.422630">
        <ele>258.137</ele>
        <time>2020-05-21T01:00:12Z</time>
      </trkpt>
      <trkpt lat="43.298970" lon="-5.422620">
        <ele>258.024</ele>
        <time>2020-05-21T01:00:32Z</time>
      </trkpt>
      <trkpt lat="43.298800" lon="-5.422580">
        <ele>257.939</ele>
        <time>2020-05-21T01:00:52Z</time>
      </trkpt>
      <trkpt lat="43.298680" lon="-5.422550">
        <ele>257.863</ele>
        <time>2020-05-21T01:01:12Z</time>
      </trkpt>
      <trkpt lat="43.298440" lon="-5.422500">
        <ele>258.623</ele>
        <time>2020-05-21T01:01:32Z</time>
      </trkpt>
      <trkpt lat="43.298220" lon="-5.422450">
        <ele>260.583</ele>
        <time>2020-05-21T01:01:52Z</time>
      </trkpt>
      <trkpt lat="43.298110" lon="-5.422410">
        <ele>261.611</ele>
        <time>2020-05-21T01:02:12Z</time>
      </trkpt>
      <trkpt lat="43.298040" lon="-5.422380">
        <ele>262.108</ele>
        <time>2020-05-21T01:02:32Z</time>
      </trkpt>
      <trkpt lat="43.297920" lon="-5.422320">
        <ele>262.886</ele>
        <time>2020-05-21T01:02:52Z</time>
      </trkpt>
      <trkpt lat="43.297880" lon="-5.422300">
        <ele>263.051</ele>
        <time>2020-05-21T01:03:12Z</time>
      </trkpt>
      <trkpt lat="43.297750" lon="-5.422240">
        <ele>263.438</ele>
        <time>2020-05-21T01:03:32Z</time>
      </trkpt>
      <trkpt lat="43.297630" lon="-5.422180">
        <ele>264.924</ele>
        <time>2020-05-21T01:03:52Z</time>
      </trkpt>
      <trkpt lat="43.297560" lon="-5.422170">
        <ele>264.523</ele>
        <time>2020-05-21T01:04:12Z</time>
      </trkpt>
      <trkpt lat="43.297470" lon="-5.422170">
        <ele>264.180</ele>
        <time>2020-05-21T01:04:32Z</time>
      </trkpt>
      <trkpt lat="43.297400" lon="-5.422190">
        <ele>264.355</ele>
        <time>2020-05-21T01:04:52Z</time>
      </trkpt>
      <trkpt lat="43.297390" lon="-5.422200">
        <ele>264.079</ele>
        <time>2020-05-21T01:05:12Z</time>
      </trkpt>
      <trkpt lat="43.297270" lon="-5.422250">
        <ele>264.727</ele>
        <time>2020-05-21T01:05:32Z</time>
      </trkpt>
      <trkpt lat="43.297230" lon="-5.422280">
        <ele>264.868</ele>
        <time>2020-05-21T01:05:52Z</time>
      </trkpt>
      <trkpt lat="43.297150" lon="-5.422350">
        <ele>264.814</ele>
        <time>2020-05-21T01:06:12Z</time>
      </trkpt>
      <trkpt lat="43.297030" lon="-5.422530">
        <ele>262.208</ele>
        <time>2020-05-21T01:06:32Z</time>
      </trkpt>
      <trkpt lat="43.296840" lon="-5.422780">
        <ele>262.136</ele>
        <time>2020-05-21T01:06:52Z</time>
      </trkpt>
      <trkpt lat="43.296680" lon="-5.423000">
        <ele>263.151</ele>
        <time>2020-05-21T01:07:12Z</time>
      </trkpt>
      <trkpt lat="43.296590" lon="-5.423140">
        <ele>262.728</ele>
        <time>2020-05-21T01:07:32Z</time>
      </trkpt>
      <trkpt lat="43.296460" lon="-5.423320">
        <ele>261.844</ele>
        <time>2020-05-21T01:07:52Z</time>
      </trkpt>
      <trkpt lat="43.296390" lon="-5.423430">
        <ele>262.033</ele>
        <time>2020-05-21T01:08:12Z</time>
      </trkpt>
      <trkpt lat="43.296340" lon="-5.423500">
        <ele>263.270</ele>
        <time>2020-05-21T01:08:32Z</time>
      </trkpt>
      <trkpt lat="43.296100" lon="-5.423870">
        <ele>263.645</ele>
        <time>2020-05-21T01:08:52Z</time>
      </trkpt>
      <trkpt lat="43.296090" lon="-5.423880">
        <ele>263.839</ele>
        <time>2020-05-21T01:09:12Z</time>
      </trkpt>
      <trkpt lat="43.295980" lon="-5.424050">
        <ele>265.015</ele>
        <time>2020-05-21T01:09:32Z</time>
      </trkpt>
      <trkpt lat="43.295900" lon="-5.424160">
        <ele>264.965</ele>
        <time>2020-05-21T01:09:52Z</time>
      </trkpt>
      <trkpt lat="43.295810" lon="-5.424280">
        <ele>264.911</ele>
        <time>2020-05-21T01:10:12Z</time>
      </trkpt>
      <trkpt lat="43.295720" lon="-5.424370">
        <ele>265.008</ele>
        <time>2020-05-21T01:10:32Z</time>
      </trkpt>
      <trkpt lat="43.295690" lon="-5.424380">
        <ele>265.255</ele>
        <time>2020-05-21T01:10:52Z</time>
      </trkpt>
      <trkpt lat="43.295590" lon="-5.424440">
        <ele>264.830</ele>
        <time>2020-05-21T01:11:12Z</time>
      </trkpt>
      <trkpt lat="43.295380" lon="-5.424540">
        <ele>266.897</ele>
        <time>2020-05-21T01:11:32Z</time>
      </trkpt>
      <trkpt lat="43.295180" lon="-5.424610">
        <ele>267.923</ele>
        <time>2020-05-21T01:11:52Z</time>
      </trkpt>
      <trkpt lat="43.295090" lon="-5.424640">
        <ele>267.782</ele>
        <time>2020-05-21T01:12:12Z</time>
      </trkpt>
      <trkpt lat="43.295070" lon="-5.424640">
        <ele>267.839</ele>
        <time>2020-05-21T01:12:32Z</time>
      </trkpt>
      <trkpt lat="43.294920" lon="-5.424680">
        <ele>267.384</ele>
        <time>2020-05-21T01:12:52Z</time>
      </trkpt>
      <trkpt lat="43.294830" lon="-5.424690">
        <ele>267.668</ele>
        <time>2020-05-21T01:13:12Z</time>
      </trkpt>
      <trkpt lat="43.294790" lon="-5.424700">
        <ele>267.583</ele>
        <time>2020-05-21T01:13:32Z</time>
      </trkpt>
      <trkpt lat="43.294660" lon="-5.424680">
        <ele>269.325</ele>
        <time>2020-05-21T01:13:52Z</time>
      </trkpt>
      <trkpt lat="43.294650" lon="-5.424680">
        <ele>269.417</ele>
        <time>2020-05-21T01:14:12Z</time>
      </trkpt>
      <trkpt lat="43.294490" lon="-5.424650">
        <ele>271.908</ele>
        <time>2020-05-21T01:14:32Z</time>
      </trkpt>
      <trkpt lat="43.294470" lon="-5.424640">
        <ele>272.632</ele>
        <time>2020-05-21T01:14:52Z</time>
      </trkpt>
      <trkpt lat="43.294300" lon="-5.424580">
        <ele>274.167</ele>
        <time>2020-05-21T01:15:12Z</time>
      </trkpt>
      <trkpt lat="43.294180" lon="-5.424530">
        <ele>274.514</ele>
        <time>2020-05-21T01:15:32Z</time>
      </trkpt>
      <trkpt lat="43.294130" lon="-5.424500">
        <ele>274.730</ele>
        <time>2020-05-21T01:15:52Z</time>
      </trkpt>
      <trkpt lat="43.293960" lon="-5.424410">
        <ele>274.669</ele>
        <time>2020-05-21T01:16:12Z</time>
      </trkpt>
      <trkpt lat="43.293800" lon="-5.424320">
        <ele>277.416</ele>
        <time>2020-05-21T01:16:32Z</time>
      </trkpt>
      <trkpt lat="43.293790" lon="-5.424320">
        <ele>277.271</ele>
        <time>2020-05-21T01:16:52Z</time>
      </trkpt>
      <trkpt lat="43.293630" lon="-5.424230">
        <ele>278.915</ele>
        <time>2020-05-21T01:17:12Z</time>
      </trkpt>
      <trkpt lat="43.293620" lon="-5.424230">
        <ele>278.652</ele>
        <time>2020-05-21T01:17:32Z</time>
      </trkpt>
      <trkpt lat="43.293570" lon="-5.424220">
        <ele>279.353</ele>
        <time>2020-05-21T01:17:52Z</time>
      </trkpt>
      <trkpt lat="43.293510" lon="-5.424240">
        <ele>278.608</ele>
        <time>2020-05-21T01:18:12Z</time>
      </trkpt>
      <trkpt lat="43.293450" lon="-5.424280">
        <ele>276.908</ele>
        <time>2020-05-21T01:18:32Z</time>
      </trkpt>
      <trkpt lat="43.293390" lon="-5.424320">
        <ele>275.279</ele>
        <time>2020-05-21T01:18:52Z</time>
      </trkpt>
      <trkpt lat="43.293290" lon="-5.424390">
        <ele>273.044</ele>
        <time>2020-05-21T01:19:12Z</time>
      </trkpt>
      <trkpt lat="43.293180" lon="-5.424470">
        <ele>271.921</ele>
        <time>2020-05-21T01:19:32Z</time>
      </trkpt>
      <trkpt lat="43.293130" lon="-5.424510">
        <ele>272.187</ele>
        <time>2020-05-21T01:19:52Z</time>
      </trkpt>
      <trkpt lat="43.292980" lon="-5.424630">
        <ele>271.566</ele>
        <time>2020-05-21T01:20:12Z</time>
      </trkpt>
      <trkpt lat="43.292890" lon="-5.424700">
        <ele>270.573</ele>
        <time>2020-05-21T01:20:32Z</time>
      </trkpt>
      <trkpt lat="43.292820" lon="-5.424750">
        <ele>270.488</ele>
        <time>2020-05-21T01:20:52Z</time>
      </trkpt>
      <trkpt lat="43.292660" lon="-5.424870">
        <ele>271.232</ele>
        <time>2020-05-21T01:21:12Z</time>
      </trkpt>
      <trkpt lat="43.292590" lon="-5.424920">
        <ele>271.038</ele>
        <time>2020-05-21T01:21:32Z</time>
      </trkpt>
      <trkpt lat="43.292510" lon="-5.424960">
        <ele>270.870</ele>
        <time>2020-05-21T01:21:52Z</time>
      </trkpt>
      <trkpt lat="43.292500" lon="-5.424960">
        <ele>270.917</ele>
        <time>2020-05-21T01:22:12Z</time>
      </trkpt>
      <trkpt lat="43.292420" lon="-5.424990">
        <ele>270.508</ele>
        <time>2020-05-21T01:22:32Z</time>
      </trkpt>
      <trkpt lat="43.292320" lon="-5.424990">
        <ele>270.947</ele>
        <time>2020-05-21T01:22:52Z</time>
      </trkpt>
      <trkpt lat="43.292180" lon="-5.425000">
        <ele>271.342</ele>
        <time>2020-05-21T01:23:12Z</time>
      </trkpt>
      <trkpt lat="43.292140" lon="-5.425000">
        <ele>271.629</ele>
        <time>2020-05-21T01:23:32Z</time>
      </trkpt>
      <trkpt lat="43.291760" lon="-5.425010">
        <ele>273.065</ele>
        <time>2020-05-21T01:23:52Z</time>
      </trkpt>
      <trkpt lat="43.291470" lon="-5.425020">
        <ele>273.654</ele>
        <time>2020-05-21T01:24:12Z</time>
      </trkpt>
      <trkpt lat="43.291440" lon="-5.425020">
        <ele>273.731</ele>
        <time>2020-05-21T01:24:32Z</time>
      </trkpt>
      <trkpt lat="43.291290" lon="-5.425030">
        <ele>274.176</ele>
        <time>2020-05-21T01:24:52Z</time>
      </trkpt>
      <trkpt lat="43.291110" lon="-5.425040">
        <ele>274.760</ele>
        <time>2020-05-21T01:25:12Z</time>
      </trkpt>
      <trkpt lat="43.291100" lon="-5.425040">
        <ele>274.769</ele>
        <time>2020-05-21T01:25:32Z</time>
      </trkpt>
      <trkpt lat="43.290960" lon="-5.425050">
        <ele>275.104</ele>
        <time>2020-05-21T01:25:52Z</time>
      </trkpt>
      <trkpt lat="43.290930" lon="-5.425050">
        <ele>275.224</ele>
        <time>2020-05-21T01:26:12Z</time>
      </trkpt>
      <trkpt lat="43.290900" lon="-5.425040">
        <ele>275.408</ele>
        <time>2020-05-21T01:26:32Z</time>
      </trkpt>
      <trkpt lat="43.290840" lon="-5.425020">
        <ele>275.860</ele>
        <time>2020-05-21T01:26:52Z</time>
      </trkpt>
      <trkpt lat="43.290780" lon="-5.424980">
        <ele>276.695</ele>
        <time>2020-05-21T01:27:12Z</time>
      </trkpt>
      <trkpt lat="43.290760" lon="-5.424970">
        <ele>276.982</ele>
        <time>2020-05-21T01:27:32Z</time>
      </trkpt>
      <trkpt lat="43.290740" lon="-5.424960">
        <ele>277.298</ele>
        <time>2020-05-21T01:27:52Z</time>
      </trkpt>
      <trkpt lat="43.290720" lon="-5.424930">
        <ele>278.357</ele>
        <time>2020-05-21T01:28:12Z</time>
      </trkpt>
      <trkpt lat="43.290680" lon="-5.424870">
        <ele>280.434</ele>
        <time>2020-05-21T01:28:32Z</time>
      </trkpt>
      <trkpt lat="43.290630" lon="-5.424810">
        <ele>281.829</ele>
        <time>2020-05-21T01:28:52Z</time>
      </trkpt>
      <trkpt lat="43.290530" lon="-5.424720">
        <ele>282.443</ele>
        <time>2020-05-21T01:29:12Z</time>
      </trkpt>
      <trkpt lat="43.290470" lon="-5.424680">
        <ele>282.484</ele>
        <time>2020-05-21T01:29:32Z</time>
      </trkpt>
      <trkpt lat="43.290440" lon="-5.424660">
        <ele>282.307</ele>
        <time>2020-05-21T01:29:52Z</time>
      </trkpt>
      <trkpt lat="43.290330" lon="-5.424610">
        <ele>280.517</ele>
        <time>2020-05-21T01:30:12Z</time>
      </trkpt>
      <trkpt lat="43.290190" lon="-5.424580">
        <ele>278.308</ele>
        <time>2020-05-21T01:30:32Z</time>
      </trkpt>
      <trkpt lat="43.290120" lon="-5.424570">
        <ele>277.442</ele>
        <time>2020-05-21T01:30:52Z</time>
      </trkpt>
      <trkpt lat="43.289950" lon="-5.424560">
        <ele>275.787</ele>
        <time>2020-05-21T01:31:12Z</time>
      </trkpt>
      <trkpt lat="43.289940" lon="-5.424560">
        <ele>275.774</ele>
        <time>2020-05-21T01:31:32Z</time>
      </trkpt>
      <trkpt lat="43.289760" lon="-5.424550">
        <ele>276.270</ele>
        <time>2020-05-21T01:31:52Z</time>
      </trkpt>
      <trkpt lat="43.289590" lon="-5.424540">
        <ele>276.899</ele>
        <time>2020-05-21T01:32:12Z</time>
      </trkpt>
      <trkpt lat="43.289530" lon="-5.424530">
        <ele>277.196</ele>
        <time>2020-05-21T01:32:32Z</time>
      </trkpt>
      <trkpt lat="43.289420" lon="-5.424530">
        <ele>277.541</ele>
        <time>2020-05-21T01:32:52Z</time>
      </trkpt>
      <trkpt lat="43.289410" lon="-5.424540">
        <ele>277.595</ele>
        <time>2020-05-21T01:33:12Z</time>
      </trkpt>
      <trkpt lat="43.289350" lon="-5.424550">
        <ele>277.793</ele>
        <time>2020-05-21T01:33:32Z</time>
      </trkpt>
      <trkpt lat="43.289140" lon="-5.424640">
        <ele>278.565</ele>
        <time>2020-05-21T01:33:52Z</time>
      </trkpt>
      <trkpt lat="43.289070" lon="-5.424690">
        <ele>278.821</ele>
        <time>2020-05-21T01:34:12Z</time>
      </trkpt>
      <trkpt lat="43.288830" lon="-5.424850">
        <ele>279.608</ele>
        <time>2020-05-21T01:34:32Z</time>
      </trkpt>
      <trkpt lat="43.288740" lon="-5.424910">
        <ele>280.153</ele>
        <time>2020-05-21T01:34:52Z</time>
      </trkpt>
      <trkpt lat="43.288410" lon="-5.425100">
        <ele>282.858</ele>
        <time>2020-05-21T01:35:12Z</time>
      </trkpt>
      <trkpt lat="43.288390" lon="-5.425110">
        <ele>282.845</ele>
        <time>2020-05-21T01:35:32Z</time>
      </trkpt>
      <trkpt lat="43.288220" lon="-5.425220">
        <ele>283.081</ele>
        <time>2020-05-21T01:35:52Z</time>
      </trkpt>
      <trkpt lat="43.288140" lon="-5.425270">
        <ele>282.660</ele>
        <time>2020-05-21T01:36:12Z</time>
      </trkpt>
      <trkpt lat="43.288080" lon="-5.425280">
        <ele>282.867</ele>
        <time>2020-05-21T01:36:32Z</time>
      </trkpt>
      <trkpt lat="43.288040" lon="-5.425280">
        <ele>283.052</ele>
        <time>2020-05-21T01:36:52Z</time>
      </trkpt>
      <trkpt lat="43.287960" lon="-5.425290">
        <ele>282.916</ele>
        <time>2020-05-21T01:37:12Z</time>
      </trkpt>
      <trkpt lat="43.287900" lon="-5.425290">
        <ele>282.936</ele>
        <time>2020-05-21T01:37:32Z</time>
      </trkpt>
      <trkpt lat="43.287820" lon="-5.425290">
        <ele>282.917</ele>
        <time>2020-05-21T01:37:52Z</time>
      </trkpt>
      <trkpt lat="43.287720" lon="-5.425280">
        <ele>283.018</ele>
        <time>2020-05-21T01:38:12Z</time>
      </trkpt>
      <trkpt lat="43.287580" lon="-5.425260">
        <ele>283.508</ele>
        <time>2020-05-21T01:38:32Z</time>
      </trkpt>
      <trkpt lat="43.287540" lon="-5.425250">
        <ele>283.897</ele>
        <time>2020-05-21T01:38:52Z</time>
      </trkpt>
      <trkpt lat="43.287370" lon="-5.425210">
        <ele>284.522</ele>
        <time>2020-05-21T01:39:12Z</time>
      </trkpt>
      <trkpt lat="43.287110" lon="-5.425110">
        <ele>285.129</ele>
        <time>2020-05-21T01:39:32Z</time>
      </trkpt>
      <trkpt lat="43.286970" lon="-5.425030">
        <ele>285.025</ele>
        <time>2020-05-21T01:39:52Z</time>
      </trkpt>
      <trkpt lat="43.286720" lon="-5.424880">
        <ele>286.494</ele>
        <time>2020-05-21T01:40:12Z</time>
      </trkpt>
      <trkpt lat="43.286690" lon="-5.424860">
        <ele>286.651</ele>
        <time>2020-05-21T01:40:32Z</time>
      </trkpt>
      <trkpt lat="43.286520" lon="-5.424790">
        <ele>287.496</ele>
        <time>2020-05-21T01:40:52Z</time>
      </trkpt>
      <trkpt lat="43.286350" lon="-5.424700">
        <ele>288.660</ele>
        <time>2020-05-21T01:41:12Z</time>
      </trkpt>
      <trkpt lat="43.286320" lon="-5.424690">
        <ele>288.996</ele>
        <time>2020-05-21T01:41:32Z</time>
      </trkpt>
      <trkpt lat="43.286190" lon="-5.424620">
        <ele>290.431</ele>
        <time>2020-05-21T01:41:52Z</time>
      </trkpt>
      <trkpt lat="43.286180" lon="-5.424610">
        <ele>290.724</ele>
        <time>2020-05-21T01:42:12Z</time>
      </trkpt>
      <trkpt lat="43.286110" lon="-5.424560">
        <ele>291.708</ele>
        <time>2020-05-21T01:42:32Z</time>
      </trkpt>
      <trkpt lat="43.286050" lon="-5.424500">
        <ele>291.913</ele>
        <time>2020-05-21T01:42:52Z</time>
      </trkpt>
      <trkpt lat="43.286030" lon="-5.424470">
        <ele>292.188</ele>
        <time>2020-05-21T01:43:12Z</time>
      </trkpt>
      <trkpt lat="43.286030" lon="-5.424460">
        <ele>292.385</ele>
        <time>2020-05-21T01:43:32Z</time>
      </trkpt>
      <trkpt lat="43.286010" lon="-5.424420">
        <ele>292.811</ele>
        <time>2020-05-21T01:43:52Z</time>
      </trkpt>
      <trkpt lat="43.285940" lon="-5.424260">
        <ele>294.380</ele>
        <time>2020-05-21T01:44:12Z</time>
      </trkpt>
      <trkpt lat="43.285930" lon="-5.424250">
        <ele>294.057</ele>
        <time>2020-05-21T01:44:32Z</time>
      </trkpt>
      <trkpt lat="43.285870" lon="-5.424080">
        <ele>297.212</ele>
        <time>2020-05-21T01:44:52Z</time>
      </trkpt>
      <trkpt lat="43.285860" lon="-5.424040">
        <ele>298.936</ele>
        <time>2020-05-21T01:45:12Z</time>
      </trkpt>
      <trkpt lat="43.285830" lon="-5.423980">
        <ele>301.086</ele>
        <time>2020-05-21T01:45:32Z</time>
      </trkpt>
      <trkpt lat="43.285760" lon="-5.423900">
        <ele>301.860</ele>
        <time>2020-05-21T01:45:52Z</time>
      </trkpt>
      <trkpt lat="43.285730" lon="-5.423880">
        <ele>301.426</ele>
        <time>2020-05-21T01:46:12Z</time>
      </trkpt>
      <trkpt lat="43.285680" lon="-5.423850">
        <ele>300.808</ele>
        <time>2020-05-21T01:46:32Z</time>
      </trkpt>
      <trkpt lat="43.285590" lon="-5.423810">
        <ele>299.152</ele>
        <time>2020-05-21T01:46:52Z</time>
      </trkpt>
      <trkpt lat="43.285560" lon="-5.423810">
        <ele>297.647</ele>
        <time>2020-05-21T01:47:12Z</time>
      </trkpt>
      <trkpt lat="43.285460" lon="-5.423790">
        <ele>298.344</ele>
        <time>2020-05-21T01:47:32Z</time>
      </trkpt>
      <trkpt lat="43.285380" lon="-5.423790">
        <ele>297.920</ele>
        <time>2020-05-21T01:47:52Z</time>
      </trkpt>
      <trkpt lat="43.285360" lon="-5.423790">
        <ele>297.989</ele>
        <time>2020-05-21T01:48:12Z</time>
      </trkpt>
      <trkpt lat="43.285250" lon="-5.423800">
        <ele>296.886</ele>
        <time>2020-05-21T01:48:32Z</time>
      </trkpt>
      <trkpt lat="43.285200" lon="-5.423820">
        <ele>295.621</ele>
        <time>2020-05-21T01:48:52Z</time>
      </trkpt>
      <trkpt lat="43.285130" lon="-5.423850">
        <ele>293.835</ele>
        <time>2020-05-21T01:49:12Z</time>
      </trkpt>
      <trkpt lat="43.285040" lon="-5.423920">
        <ele>291.576</ele>
        <time>2020-05-21T01:49:32Z</time>
      </trkpt>
      <trkpt lat="43.285020" lon="-5.423930">
        <ele>291.690</ele>
        <time>2020-05-21T01:49:52Z</time>
      </trkpt>
      <trkpt lat="43.284880" lon="-5.424040">
        <ele>291.919</ele>
        <time>2020-05-21T01:50:12Z</time>
      </trkpt>
      <trkpt lat="43.284820" lon="-5.424080">
        <ele>291.908</ele>
        <time>2020-05-21T01:50:32Z</time>
      </trkpt>
      <trkpt lat="43.284720" lon="-5.424160">
        <ele>291.181</ele>
        <time>2020-05-21T01:50:52Z</time>
      </trkpt>
      <trkpt lat="43.284580" lon="-5.424290">
        <ele>291.356</ele>
        <time>2020-05-21T01:51:12Z</time>
      </trkpt>
      <trkpt lat="43.284570" lon="-5.424290">
        <ele>291.363</ele>
        <time>2020-05-21T01:51:32Z</time>
      </trkpt>
      <trkpt lat="43.284410" lon="-5.424410">
        <ele>291.479</ele>
        <time>2020-05-21T01:51:52Z</time>
      </trkpt>
      <trkpt lat="43.284290" lon="-5.424510">
        <ele>291.958</ele>
        <time>2020-05-21T01:52:12Z</time>
      </trkpt>
      <trkpt lat="43.284260" lon="-5.424530">
        <ele>291.985</ele>
        <time>2020-05-21T01:52:32Z</time>
      </trkpt>
      <trkpt lat="43.284100" lon="-5.424660">
        <ele>292.110</ele>
        <time>2020-05-21T01:52:52Z</time>
      </trkpt>
      <trkpt lat="43.284070" lon="-5.424690">
        <ele>292.174</ele>
        <time>2020-05-21T01:53:12Z</time>
      </trkpt>
      <trkpt lat="43.283830" lon="-5.424850">
        <ele>293.062</ele>
        <time>2020-05-21T01:53:32Z</time>
      </trkpt>
      <trkpt lat="43.283780" lon="-5.424870">
        <ele>292.983</ele>
        <time>2020-05-21T01:53:52Z</time>
      </trkpt>
      <trkpt lat="43.283720" lon="-5.424900">
        <ele>292.711</ele>
        <time>2020-05-21T01:54:12Z</time>
      </trkpt>
      <trkpt lat="43.283580" lon="-5.424900">
        <ele>292.608</ele>
        <time>2020-05-21T01:54:32Z</time>
      </trkpt>
      <trkpt lat="43.283350" lon="-5.424900">
        <ele>294.050</ele>
        <time>2020-05-21T01:54:52Z</time>
      </trkpt>
      <trkpt lat="43.282880" lon="-5.424830">
        <ele>295.635</ele>
        <time>2020-05-21T01:55:12Z</time>
      </trkpt>
      <trkpt lat="43.282850" lon="-5.424830">
        <ele>295.762</ele>
        <time>2020-05-21T01:55:32Z</time>
      </trkpt>
      <trkpt lat="43.282670" lon="-5.424820">
        <ele>296.638</ele>
        <time>2020-05-21T01:55:52Z</time>
      </trkpt>
      <trkpt lat="43.282560" lon="-5.424810">
        <ele>297.397</ele>
        <time>2020-05-21T01:56:12Z</time>
      </trkpt>
      <trkpt lat="43.282390" lon="-5.424760">
        <ele>297.994</ele>
        <time>2020-05-21T01:56:32Z</time>
      </trkpt>
      <trkpt lat="43.282100" lon="-5.424630">
        <ele>299.119</ele>
        <time>2020-05-21T01:56:52Z</time>
      </trkpt>
      <trkpt lat="43.282010" lon="-5.424590">
        <ele>299.563</ele>
        <time>2020-05-21T01:57:12Z</time>
      </trkpt>
      <trkpt lat="43.281710" lon="-5.424440">
        <ele>300.176</ele>
        <time>2020-05-21T01:57:32Z</time>
      </trkpt>
      <trkpt lat="43.281670" lon="-5.424420">
        <ele>300.490</ele>
        <time>2020-05-21T01:57:52Z</time>
      </trkpt>
      <trkpt lat="43.281500" lon="-5.424330">
        <ele>300.219</ele>
        <time>2020-05-21T01:58:12Z</time>
      </trkpt>
      <trkpt lat="43.281380" lon="-5.424270">
        <ele>299.908</ele>
        <time>2020-05-21T01:58:32Z</time>
      </trkpt>
      <trkpt lat="43.281330" lon="-5.424250">
        <ele>300.211</ele>
        <time>2020-05-21T01:58:52Z</time>
      </trkpt>
      <trkpt lat="43.280990" lon="-5.424100">
        <ele>301.466</ele>
        <time>2020-05-21T01:59:12Z</time>
      </trkpt>
      <trkpt lat="43.280950" lon="-5.424080">
        <ele>301.573</ele>
        <time>2020-05-21T01:59:32Z</time>
      </trkpt>
      <trkpt lat="43.280640" lon="-5.423970">
        <ele>301.879</ele>
        <time>2020-05-21T01:59:52Z</time>
      </trkpt>
      <trkpt lat="43.280630" lon="-5.423960">
        <ele>301.958</ele>
        <time>2020-05-21T02:00:12Z</time>
      </trkpt>
      <trkpt lat="43.280470" lon="-5.423890">
        <ele>301.735</ele>
        <time>2020-05-21T02:00:32Z</time>
      </trkpt>
      <trkpt lat="43.280360" lon="-5.423840">
        <ele>302.330</ele>
        <time>2020-05-21T02:00:52Z</time>
      </trkpt>
      <trkpt lat="43.280300" lon="-5.423800">
        <ele>302.744</ele>
        <time>2020-05-21T02:01:12Z</time>
      </trkpt>
      <trkpt lat="43.279990" lon="-5.423640">
        <ele>302.759</ele>
        <time>2020-05-21T02:01:32Z</time>
      </trkpt>
      <trkpt lat="43.279970" lon="-5.423630">
        <ele>302.703</ele>
        <time>2020-05-21T02:01:52Z</time>
      </trkpt>
      <trkpt lat="43.279800" lon="-5.423550">
        <ele>303.223</ele>
        <time>2020-05-21T02:02:12Z</time>
      </trkpt>
      <trkpt lat="43.279660" lon="-5.423490">
        <ele>303.908</ele>
        <time>2020-05-21T02:02:32Z</time>
      </trkpt>
      <trkpt lat="43.279630" lon="-5.423480">
        <ele>304.129</ele>
        <time>2020-05-21T02:02:52Z</time>
      </trkpt>
      <trkpt lat="43.279490" lon="-5.423410">
        <ele>304.894</ele>
        <time>2020-05-21T02:03:12Z</time>
      </trkpt>
      <trkpt lat="43.279460" lon="-5.423400">
        <ele>304.831</ele>
        <time>2020-05-21T02:03:32Z</time>
      </trkpt>
      <trkpt lat="43.279390" lon="-5.423360">
        <ele>304.927</ele>
        <time>2020-05-21T02:03:52Z</time>
      </trkpt>
      <trkpt lat="43.279320" lon="-5.423310">
        <ele>305.546</ele>
        <time>2020-05-21T02:04:12Z</time>
      </trkpt>
      <trkpt lat="43.279300" lon="-5.423290">
        <ele>305.853</ele>
        <time>2020-05-21T02:04:32Z</time>
      </trkpt>
      <trkpt lat="43.279270" lon="-5.423260">
        <ele>306.188</ele>
        <time>2020-05-21T02:04:52Z</time>
      </trkpt>
      <trkpt lat="43.279220" lon="-5.423210">
        <ele>306.182</ele>
        <time>2020-05-21T02:05:12Z</time>
      </trkpt>
      <trkpt lat="43.279170" lon="-5.423120">
        <ele>305.872</ele>
        <time>2020-05-21T02:05:32Z</time>
      </trkpt>
      <trkpt lat="43.279060" lon="-5.422920">
        <ele>308.813</ele>
        <time>2020-05-21T02:05:52Z</time>
      </trkpt>
      <trkpt lat="43.279040" lon="-5.422890">
        <ele>309.114</ele>
        <time>2020-05-21T02:06:12Z</time>
      </trkpt>
      <trkpt lat="43.278960" lon="-5.422720">
        <ele>311.808</ele>
        <time>2020-05-21T02:06:32Z</time>
      </trkpt>
      <trkpt lat="43.278920" lon="-5.422660">
        <ele>313.491</ele>
        <time>2020-05-21T02:06:52Z</time>
      </trkpt>
      <trkpt lat="43.278870" lon="-5.422620">
        <ele>314.026</ele>
        <time>2020-05-21T02:07:12Z</time>
      </trkpt>
      <trkpt lat="43.278810" lon="-5.422580">
        <ele>316.413</ele>
        <time>2020-05-21T02:07:32Z</time>
      </trkpt>
      <trkpt lat="43.278770" lon="-5.422570">
        <ele>317.179</ele>
        <time>2020-05-21T02:07:52Z</time>
      </trkpt>
      <trkpt lat="43.278740" lon="-5.422570">
        <ele>317.328</ele>
        <time>2020-05-21T02:08:12Z</time>
      </trkpt>
      <trkpt lat="43.278640" lon="-5.422590">
        <ele>316.775</ele>
        <time>2020-05-21T02:08:32Z</time>
      </trkpt>
      <trkpt lat="43.278630" lon="-5.422590">
        <ele>316.720</ele>
        <time>2020-05-21T02:08:52Z</time>
      </trkpt>
      <trkpt lat="43.278460" lon="-5.422640">
        <ele>313.974</ele>
        <time>2020-05-21T02:09:12Z</time>
      </trkpt>
      <trkpt lat="43.278330" lon="-5.422670">
        <ele>312.949</ele>
        <time>2020-05-21T02:09:32Z</time>
      </trkpt>
      <trkpt lat="43.278170" lon="-5.422600">
        <ele>315.602</ele>
        <time>2020-05-21T02:09:52Z</time>
      </trkpt>
      <trkpt lat="43.278160" lon="-5.422600">
        <ele>315.622</ele>
        <time>2020-05-21T02:10:12Z</time>
      </trkpt>
      <trkpt lat="43.278130" lon="-5.422590">
        <ele>316.008</ele>
        <time>2020-05-21T02:10:32Z</time>
      </trkpt>
      <trkpt lat="43.278090" lon="-5.422580">
        <ele>316.448</ele>
        <time>2020-05-21T02:10:52Z</time>
      </trkpt>
      <trkpt lat="43.278060" lon="-5.422570">
        <ele>316.743</ele>
        <time>2020-05-21T02:11:12Z</time>
      </trkpt>
      <trkpt lat="43.278010" lon="-5.422570">
        <ele>316.830</ele>
        <time>2020-05-21T02:11:32Z</time>
      </trkpt>
      <trkpt lat="43.277980" lon="-5.422580">
        <ele>316.666</ele>
        <time>2020-05-21T02:11:52Z</time>
      </trkpt>
      <trkpt lat="43.277950" lon="-5.422580">
        <ele>316.645</ele>
        <time>2020-05-21T02:12:12Z</time>
      </trkpt>
      <trkpt lat="43.277700" lon="-5.422650">
        <ele>315.542</ele>
        <time>2020-05-21T02:12:32Z</time>
      </trkpt>
      <trkpt lat="43.277640" lon="-5.422660">
        <ele>315.537</ele>
        <time>2020-05-21T02:12:52Z</time>
      </trkpt>
      <trkpt lat="43.277630" lon="-5.422650">
        <ele>315.891</ele>
        <time>2020-05-21T02:13:12Z</time>
      </trkpt>
      <trkpt lat="43.277570" lon="-5.422650">
        <ele>316.051</ele>
        <time>2020-05-21T02:13:32Z</time>
      </trkpt>
      <trkpt lat="43.277500" lon="-5.422630">
        <ele>316.701</ele>
        <time>2020-05-21T02:13:52Z</time>
      </trkpt>
      <trkpt lat="43.277480" lon="-5.422610">
        <ele>316.911</ele>
        <time>2020-05-21T02:14:12Z</time>
      </trkpt>
      <trkpt lat="43.277300" lon="-5.422460">
        <ele>316.808</ele>
        <time>2020-05-21T02:14:32Z</time>
      </trkpt>
      <trkpt lat="43.277150" lon="-5.422330">
        <ele>317.069</ele>
        <time>2020-05-21T02:14:52Z</time>
      </trkpt>
      <trkpt lat="43.277000" lon="-5.422200">
        <ele>317.394</ele>
        <time>2020-05-21T02:15:12Z</time>
      </trkpt>
      <trkpt lat="43.276960" lon="-5.422160">
        <ele>317.651</ele>
        <time>2020-05-21T02:15:32Z</time>
      </trkpt>
      <trkpt lat="43.276770" lon="-5.421980">
        <ele>320.837</ele>
        <time>2020-05-21T02:15:52Z</time>
      </trkpt>
      <trkpt lat="43.276670" lon="-5.421860">
        <ele>322.256</ele>
        <time>2020-05-21T02:16:12Z</time>
      </trkpt>
      <trkpt lat="43.276600" lon="-5.421770">
        <ele>322.593</ele>
        <time>2020-05-21T02:16:32Z</time>
      </trkpt>
      <trkpt lat="43.276580" lon="-5.421740">
        <ele>322.548</ele>
        <time>2020-05-21T02:16:52Z</time>
      </trkpt>
      <trkpt lat="43.276450" lon="-5.421560">
        <ele>322.452</ele>
        <time>2020-05-21T02:17:12Z</time>
      </trkpt>
      <trkpt lat="43.276440" lon="-5.421550">
        <ele>322.366</ele>
        <time>2020-05-21T02:17:32Z</time>
      </trkpt>
      <trkpt lat="43.276390" lon="-5.421470">
        <ele>322.129</ele>
        <time>2020-05-21T02:17:52Z</time>
      </trkpt>
      <trkpt lat="43.276340" lon="-5.421370">
        <ele>322.421</ele>
        <time>2020-05-21T02:18:12Z</time>
      </trkpt>
      <trkpt lat="43.276260" lon="-5.421220">
        <ele>323.708</ele>
        <time>2020-05-21T02:18:32Z</time>
      </trkpt>
      <trkpt lat="43.276240" lon="-5.421180">
        <ele>324.130</ele>
        <time>2020-05-21T02:18:52Z</time>
      </trkpt>
      <trkpt lat="43.276230" lon="-5.421180">
        <ele>324.065</ele>
        <time>2020-05-21T02:19:12Z</time>
      </trkpt>
      <trkpt lat="43.276210" lon="-5.421160">
        <ele>324.172</ele>
        <time>2020-05-21T02:19:32Z</time>
      </trkpt>
      <trkpt lat="43.276190" lon="-5.421140">
        <ele>324.348</ele>
        <time>2020-05-21T02:19:52Z</time>
      </trkpt>
      <trkpt lat="43.276150" lon="-5.421110">
        <ele>324.547</ele>
        <time>2020-05-21T02:20:12Z</time>
      </trkpt>
      <trkpt lat="43.276090" lon="-5.421090">
        <ele>325.234</ele>
        <time>2020-05-21T02:20:32Z</time>
      </trkpt>
      <trkpt lat="43.276060" lon="-5.421090">
        <ele>325.659</ele>
        <time>2020-05-21T02:20:52Z</time>
      </trkpt>
      <trkpt lat="43.276030" lon="-5.421090">
        <ele>326.093</ele>
        <time>2020-05-21T02:21:12Z</time>
      </trkpt>
      <trkpt lat="43.276000" lon="-5.421100">
        <ele>326.159</ele>
        <time>2020-05-21T02:21:32Z</time>
      </trkpt>
      <trkpt lat="43.275960" lon="-5.421120">
        <ele>326.003</ele>
        <time>2020-05-21T02:21:52Z</time>
      </trkpt>
      <trkpt lat="43.275900" lon="-5.421160">
        <ele>326.023</ele>
        <time>2020-05-21T02:22:12Z</time>
      </trkpt>
      <trkpt lat="43.275740" lon="-5.421280">
        <ele>326.708</ele>
        <time>2020-05-21T02:22:32Z</time>
      </trkpt>
      <trkpt lat="43.275730" lon="-5.421290">
        <ele>326.779</ele>
        <time>2020-05-21T02:22:52Z</time>
      </trkpt>
      <trkpt lat="43.275580" lon="-5.421400">
        <ele>326.364</ele>
        <time>2020-05-21T02:23:12Z</time>
      </trkpt>
      <trkpt lat="43.275550" lon="-5.421420">
        <ele>326.321</ele>
        <time>2020-05-21T02:23:32Z</time>
      </trkpt>
      <trkpt lat="43.275410" lon="-5.421490">
        <ele>326.227</ele>
        <time>2020-05-21T02:23:52Z</time>
      </trkpt>
      <trkpt lat="43.275320" lon="-5.421530">
        <ele>326.426</ele>
        <time>2020-05-21T02:24:12Z</time>
      </trkpt>
      <trkpt lat="43.275240" lon="-5.421570">
        <ele>326.363</ele>
        <time>2020-05-21T02:24:32Z</time>
      </trkpt>
      <trkpt lat="43.275150" lon="-5.421600">
        <ele>326.178</ele>
        <time>2020-05-21T02:24:52Z</time>
      </trkpt>
      <trkpt lat="43.275070" lon="-5.421620">
        <ele>326.062</ele>
        <time>2020-05-21T02:25:12Z</time>
      </trkpt>
      <trkpt lat="43.274970" lon="-5.421640">
        <ele>326.011</ele>
        <time>2020-05-21T02:25:32Z</time>
      </trkpt>
      <trkpt lat="43.274900" lon="-5.421640">
        <ele>326.521</ele>
        <time>2020-05-21T02:25:52Z</time>
      </trkpt>
      <trkpt lat="43.274890" lon="-5.421640">
        <ele>326.503</ele>
        <time>2020-05-21T02:26:12Z</time>
      </trkpt>
      <trkpt lat="43.274710" lon="-5.421640">
        <ele>327.708</ele>
        <time>2020-05-21T02:26:32Z</time>
      </trkpt>
      <trkpt lat="43.274530" lon="-5.421640">
        <ele>327.615</ele>
        <time>2020-05-21T02:26:52Z</time>
      </trkpt>
      <trkpt lat="43.274370" lon="-5.421640">
        <ele>327.340</ele>
        <time>2020-05-21T02:27:12Z</time>
      </trkpt>
      <trkpt lat="43.274280" lon="-5.421640">
        <ele>327.037</ele>
        <time>2020-05-21T02:27:32Z</time>
      </trkpt>
      <trkpt lat="43.274230" lon="-5.421630">
        <ele>327.173</ele>
        <time>2020-05-21T02:27:52Z</time>
      </trkpt>
      <trkpt lat="43.274180" lon="-5.421620">
        <ele>327.242</ele>
        <time>2020-05-21T02:28:12Z</time>
      </trkpt>
      <trkpt lat="43.274090" lon="-5.421490">
        <ele>328.949</ele>
        <time>2020-05-21T02:28:32Z</time>
      </trkpt>
      <trkpt lat="43.274060" lon="-5.421440">
        <ele>329.134</ele>
        <time>2020-05-21T02:28:52Z</time>
      </trkpt>
      <trkpt lat="43.274050" lon="-5.421420">
        <ele>329.218</ele>
        <time>2020-05-21T02:29:12Z</time>
      </trkpt>
      <trkpt lat="43.273970" lon="-5.421230">
        <ele>330.438</ele>
        <time>2020-05-21T02:29:32Z</time>
      </trkpt>
      <trkpt lat="43.273960" lon="-5.421210">
        <ele>330.470</ele>
        <time>2020-05-21T02:29:52Z</time>
      </trkpt>
      <trkpt lat="43.273900" lon="-5.421070">
        <ele>331.417</ele>
        <time>2020-05-21T02:30:12Z</time>
      </trkpt>
      <trkpt lat="43.273880" lon="-5.421020">
        <ele>332.108</ele>
        <time>2020-05-21T02:30:32Z</time>
      </trkpt>
      <trkpt lat="43.273790" lon="-5.420800">
        <ele>334.117</ele>
        <time>2020-05-21T02:30:52Z</time>
      </trkpt>
      <trkpt lat="43.273640" lon="-5.420360">
        <ele>337.462</ele>
        <time>2020-05-21T02:31:12Z</time>
      </trkpt>
      <trkpt lat="43.273630" lon="-5.420350">
        <ele>337.119</ele>
        <time>2020-05-21T02:31:32Z</time>
      </trkpt>
      <trkpt lat="43.273600" lon="-5.420300">
        <ele>337.095</ele>
        <time>2020-05-21T02:31:52Z</time>
      </trkpt>
      <trkpt lat="43.273540" lon="-5.420230">
        <ele>338.084</ele>
        <time>2020-05-21T02:32:12Z</time>
      </trkpt>
      <trkpt lat="43.273500" lon="-5.420190">
        <ele>338.651</ele>
        <time>2020-05-21T02:32:32Z</time>
      </trkpt>
      <trkpt lat="43.273460" lon="-5.420150">
        <ele>338.956</ele>
        <time>2020-05-21T02:32:52Z</time>
      </trkpt>
      <trkpt lat="43.273360" lon="-5.420090">
        <ele>337.380</ele>
        <time>2020-05-21T02:33:12Z</time>
      </trkpt>
      <trkpt lat="43.273340" lon="-5.420080">
        <ele>336.928</ele>
        <time>2020-05-21T02:33:32Z</time>
      </trkpt>
      <trkpt lat="43.273170" lon="-5.420000">
        <ele>335.989</ele>
        <time>2020-05-21T02:33:52Z</time>
      </trkpt>
      <trkpt lat="43.273000" lon="-5.419920">
        <ele>336.917</ele>
        <time>2020-05-21T02:34:12Z</time>
      </trkpt>
      <trkpt lat="43.272930" lon="-5.419890">
        <ele>337.408</ele>
        <time>2020-05-21T02:34:32Z</time>
      </trkpt>
      <trkpt lat="43.272830" lon="-5.419850">
        <ele>337.476</ele>
        <time>2020-05-21T02:34:52Z</time>
      </trkpt>
      <trkpt lat="43.272650" lon="-5.419790">
        <ele>337.321</ele>
        <time>2020-05-21T02:35:12Z</time>
      </trkpt>
      <trkpt lat="43.272480" lon="-5.419730">
        <ele>337.648</ele>
        <time>2020-05-21T02:35:32Z</time>
      </trkpt>
      <trkpt lat="43.272390" lon="-5.419700">
        <ele>338.394</ele>
        <time>2020-05-21T02:35:52Z</time>
      </trkpt>
      <trkpt lat="43.272300" lon="-5.419680">
        <ele>338.713</ele>
        <time>2020-05-21T02:36:12Z</time>
      </trkpt>
      <trkpt lat="43.271820" lon="-5.419550">
        <ele>342.610</ele>
        <time>2020-05-21T02:36:32Z</time>
      </trkpt>
      <trkpt lat="43.271740" lon="-5.419540">
        <ele>342.545</ele>
        <time>2020-05-21T02:36:52Z</time>
      </trkpt>
      <trkpt lat="43.271610" lon="-5.419520">
        <ele>342.589</ele>
        <time>2020-05-21T02:37:12Z</time>
      </trkpt>
      <trkpt lat="43.271590" lon="-5.419520">
        <ele>342.384</ele>
        <time>2020-05-21T02:37:32Z</time>
      </trkpt>
      <trkpt lat="43.271540" lon="-5.419510">
        <ele>342.407</ele>
        <time>2020-05-21T02:37:52Z</time>
      </trkpt>
      <trkpt lat="43.271470" lon="-5.419520">
        <ele>341.417</ele>
        <time>2020-05-21T02:38:12Z</time>
      </trkpt>
      <trkpt lat="43.271400" lon="-5.419530">
        <ele>340.408</ele>
        <time>2020-05-21T02:38:32Z</time>
      </trkpt>
      <trkpt lat="43.271290" lon="-5.419540">
        <ele>338.612</ele>
        <time>2020-05-21T02:38:52Z</time>
      </trkpt>
      <trkpt lat="43.271250" lon="-5.419540">
        <ele>338.197</ele>
        <time>2020-05-21T02:39:12Z</time>
      </trkpt>
      <trkpt lat="43.271240" lon="-5.419530">
        <ele>338.384</ele>
        <time>2020-05-21T02:39:32Z</time>
      </trkpt>
      <trkpt lat="43.271230" lon="-5.419530">
        <ele>338.110</ele>
        <time>2020-05-21T02:39:52Z</time>
      </trkpt>
      <trkpt lat="43.271220" lon="-5.419520">
        <ele>338.499</ele>
        <time>2020-05-21T02:40:12Z</time>
      </trkpt>
      <trkpt lat="43.271210" lon="-5.419500">
        <ele>338.996</ele>
        <time>2020-05-21T02:40:32Z</time>
      </trkpt>
      <trkpt lat="43.271200" lon="-5.419470">
        <ele>339.741</ele>
        <time>2020-05-21T02:40:52Z</time>
      </trkpt>
      <trkpt lat="43.271200" lon="-5.419450">
        <ele>340.435</ele>
        <time>2020-05-21T02:41:12Z</time>
      </trkpt>
      <trkpt lat="43.271190" lon="-5.419420">
        <ele>340.569</ele>
        <time>2020-05-21T02:41:32Z</time>
      </trkpt>
      <trkpt lat="43.271200" lon="-5.419390">
        <ele>340.804</ele>
        <time>2020-05-21T02:41:52Z</time>
      </trkpt>
      <trkpt lat="43.271200" lon="-5.419370">
        <ele>340.824</ele>
        <time>2020-05-21T02:42:12Z</time>
      </trkpt>
      <trkpt lat="43.271230" lon="-5.419320">
        <ele>341.808</ele>
        <time>2020-05-21T02:42:32Z</time>
      </trkpt>
      <trkpt lat="43.271330" lon="-5.419110">
        <ele>346.510</ele>
        <time>2020-05-21T02:42:52Z</time>
      </trkpt>
      <trkpt lat="43.271370" lon="-5.419020">
        <ele>347.495</ele>
        <time>2020-05-21T02:43:12Z</time>
      </trkpt>
      <trkpt lat="43.271380" lon="-5.419000">
        <ele>347.692</ele>
        <time>2020-05-21T02:43:32Z</time>
      </trkpt>
      <trkpt lat="43.271380" lon="-5.418980">
        <ele>347.448</ele>
        <time>2020-05-21T02:43:52Z</time>
      </trkpt>
      <trkpt lat="43.271380" lon="-5.418970">
        <ele>347.487</ele>
        <time>2020-05-21T02:44:12Z</time>
      </trkpt>
      <trkpt lat="43.271380" lon="-5.418950">
        <ele>347.214</ele>
        <time>2020-05-21T02:44:32Z</time>
      </trkpt>
      <trkpt lat="43.271380" lon="-5.418920">
        <ele>347.059</ele>
        <time>2020-05-21T02:44:52Z</time>
      </trkpt>
      <trkpt lat="43.271360" lon="-5.418830">
        <ele>346.833</ele>
        <time>2020-05-21T02:45:12Z</time>
      </trkpt>
      <trkpt lat="43.271260" lon="-5.418750">
        <ele>346.182</ele>
        <time>2020-05-21T02:45:32Z</time>
      </trkpt>
      <trkpt lat="43.271180" lon="-5.418700">
        <ele>346.043</ele>
        <time>2020-05-21T02:45:52Z</time>
      </trkpt>
      <trkpt lat="43.271160" lon="-5.418690">
        <ele>346.017</ele>
        <time>2020-05-21T02:46:12Z</time>
      </trkpt>
      <trkpt lat="43.271140" lon="-5.418690">
        <ele>345.808</ele>
        <time>2020-05-21T02:46:32Z</time>
      </trkpt>
      <trkpt lat="43.271130" lon="-5.418690">
        <ele>345.722</ele>
        <time>2020-05-21T02:46:52Z</time>
      </trkpt>
      <trkpt lat="43.271120" lon="-5.418700">
        <ele>345.537</ele>
        <time>2020-05-21T02:47:12Z</time>
      </trkpt>
      <trkpt lat="43.271030" lon="-5.418780">
        <ele>345.824</ele>
        <time>2020-05-21T02:47:32Z</time>
      </trkpt>
      <trkpt lat="43.271020" lon="-5.418780">
        <ele>346.190</ele>
        <time>2020-05-21T02:47:52Z</time>
      </trkpt>
      <trkpt lat="43.270880" lon="-5.418940">
        <ele>347.929</ele>
        <time>2020-05-21T02:48:12Z</time>
      </trkpt>
      <trkpt lat="43.270740" lon="-5.419100">
        <ele>348.976</ele>
        <time>2020-05-21T02:48:32Z</time>
      </trkpt>
      <trkpt lat="43.270710" lon="-5.419140">
        <ele>349.021</ele>
        <time>2020-05-21T02:48:52Z</time>
      </trkpt>
      <trkpt lat="43.270680" lon="-5.419160">
        <ele>349.425</ele>
        <time>2020-05-21T02:49:12Z</time>
      </trkpt>
      <trkpt lat="43.270660" lon="-5.419170">
        <ele>349.676</ele>
        <time>2020-05-21T02:49:32Z</time>
      </trkpt>
      <trkpt lat="43.270640" lon="-5.419170">
        <ele>350.090</ele>
        <time>2020-05-21T02:49:52Z</time>
      </trkpt>
      <trkpt lat="43.270630" lon="-5.419170">
        <ele>350.219</ele>
        <time>2020-05-21T02:50:12Z</time>
      </trkpt>
      <trkpt lat="43.270600" lon="-5.419170">
        <ele>350.908</ele>
        <time>2020-05-21T02:50:32Z</time>
      </trkpt>
      <trkpt lat="43.270580" lon="-5.419160">
        <ele>351.561</ele>
        <time>2020-05-21T02:50:52Z</time>
      </trkpt>
      <trkpt lat="43.270570" lon="-5.419160">
        <ele>351.836</ele>
        <time>2020-05-21T02:51:12Z</time>
      </trkpt>
      <trkpt lat="43.270530" lon="-5.419140">
        <ele>351.623</ele>
        <time>2020-05-21T02:51:32Z</time>
      </trkpt>
      <trkpt lat="43.270470" lon="-5.419070">
        <ele>351.029</ele>
        <time>2020-05-21T02:51:52Z</time>
      </trkpt>
      <trkpt lat="43.270440" lon="-5.419020">
        <ele>351.128</ele>
        <time>2020-05-21T02:52:12Z</time>
      </trkpt>
      <trkpt lat="43.270320" lon="-5.418830">
        <ele>352.985</ele>
        <time>2020-05-21T02:52:32Z</time>
      </trkpt>
      <trkpt lat="43.270100" lon="-5.418480">
        <ele>357.240</ele>
        <time>2020-05-21T02:52:52Z</time>
      </trkpt>
      <trkpt lat="43.270090" lon="-5.418450">
        <ele>358.024</ele>
        <time>2020-05-21T02:53:12Z</time>
      </trkpt>
      <trkpt lat="43.270070" lon="-5.418420">
        <ele>358.844</ele>
        <time>2020-05-21T02:53:32Z</time>
      </trkpt>
      <trkpt lat="43.269970" lon="-5.418280">
        <ele>364.005</ele>
        <time>2020-05-21T02:53:52Z</time>
      </trkpt>
      <trkpt lat="43.269970" lon="-5.418270">
        <ele>364.515</ele>
        <time>2020-05-21T02:54:12Z</time>
      </trkpt>
      <trkpt lat="43.269940" lon="-5.418240">
        <ele>365.408</ele>
        <time>2020-05-21T02:54:32Z</time>
      </trkpt>
      <trkpt lat="43.269910" lon="-5.418220">
        <ele>365.958</ele>
        <time>2020-05-21T02:54:52Z</time>
      </trkpt>
      <trkpt lat="43.269850" lon="-5.418200">
        <ele>365.843</ele>
        <time>2020-05-21T02:55:12Z</time>
      </trkpt>
      <trkpt lat="43.269800" lon="-5.418180">
        <ele>365.910</ele>
        <time>2020-05-21T02:55:32Z</time>
      </trkpt>
      <trkpt lat="43.269680" lon="-5.418140">
        <ele>366.156</ele>
        <time>2020-05-21T02:55:52Z</time>
      </trkpt>
      <trkpt lat="43.269630" lon="-5.418130">
        <ele>366.395</ele>
        <time>2020-05-21T02:56:12Z</time>
      </trkpt>
      <trkpt lat="43.269450" lon="-5.418100">
        <ele>366.482</ele>
        <time>2020-05-21T02:56:32Z</time>
      </trkpt>
      <trkpt lat="43.269270" lon="-5.418060">
        <ele>367.967</ele>
        <time>2020-05-21T02:56:52Z</time>
      </trkpt>
      <trkpt lat="43.269090" lon="-5.418030">
        <ele>369.111</ele>
        <time>2020-05-21T02:57:12Z</time>
      </trkpt>
      <trkpt lat="43.268910" lon="-5.417990">
        <ele>371.066</ele>
        <time>2020-05-21T02:57:32Z</time>
      </trkpt>
      <trkpt lat="43.268740" lon="-5.417960">
        <ele>371.729</ele>
        <time>2020-05-21T02:57:52Z</time>
      </trkpt>
      <trkpt lat="43.268580" lon="-5.417930">
        <ele>372.221</ele>
        <time>2020-05-21T02:58:12Z</time>
      </trkpt>
      <trkpt lat="43.268380" lon="-5.417880">
        <ele>373.308</ele>
        <time>2020-05-21T02:58:32Z</time>
      </trkpt>
      <trkpt lat="43.268320" lon="-5.417870">
        <ele>373.430</ele>
        <time>2020-05-21T02:58:52Z</time>
      </trkpt>
      <trkpt lat="43.268250" lon="-5.417840">
        <ele>373.175</ele>
        <time>2020-05-21T02:59:12Z</time>
      </trkpt>
      <trkpt lat="43.268210" lon="-5.417810">
        <ele>373.392</ele>
        <time>2020-05-21T02:59:32Z</time>
      </trkpt>
      <trkpt lat="43.268180" lon="-5.417780">
        <ele>373.638</ele>
        <time>2020-05-21T02:59:52Z</time>
      </trkpt>
      <trkpt lat="43.268140" lon="-5.417730">
        <ele>374.167</ele>
        <time>2020-05-21T03:00:12Z</time>
      </trkpt>
      <trkpt lat="43.268110" lon="-5.417660">
        <ele>375.284</ele>
        <time>2020-05-21T03:00:32Z</time>
      </trkpt>
      <trkpt lat="43.268090" lon="-5.417620">
        <ele>375.889</ele>
        <time>2020-05-21T03:00:52Z</time>
      </trkpt>
      <trkpt lat="43.267910" lon="-5.417200">
        <ele>380.683</ele>
        <time>2020-05-21T03:01:12Z</time>
      </trkpt>
      <trkpt lat="43.267800" lon="-5.417090">
        <ele>381.025</ele>
        <time>2020-05-21T03:01:32Z</time>
      </trkpt>
      <trkpt lat="43.267760" lon="-5.417060">
        <ele>381.126</ele>
        <time>2020-05-21T03:01:52Z</time>
      </trkpt>
      <trkpt lat="43.267750" lon="-5.417050">
        <ele>381.308</ele>
        <time>2020-05-21T03:02:12Z</time>
      </trkpt>
      <trkpt lat="43.267610" lon="-5.416960">
        <ele>382.908</ele>
        <time>2020-05-21T03:02:32Z</time>
      </trkpt>
      <trkpt lat="43.267600" lon="-5.416960">
        <ele>382.876</ele>
        <time>2020-05-21T03:02:52Z</time>
      </trkpt>
      <trkpt lat="43.267570" lon="-5.416940">
        <ele>383.251</ele>
        <time>2020-05-21T03:03:12Z</time>
      </trkpt>
      <trkpt lat="43.267460" lon="-5.416900">
        <ele>383.988</ele>
        <time>2020-05-21T03:03:32Z</time>
      </trkpt>
      <trkpt lat="43.267420" lon="-5.416890">
        <ele>384.264</ele>
        <time>2020-05-21T03:03:52Z</time>
      </trkpt>
      <trkpt lat="43.267210" lon="-5.416840">
        <ele>385.663</ele>
        <time>2020-05-21T03:04:12Z</time>
      </trkpt>
      <trkpt lat="43.267080" lon="-5.416770">
        <ele>386.780</ele>
        <time>2020-05-21T03:04:32Z</time>
      </trkpt>
      <trkpt lat="43.267030" lon="-5.416740">
        <ele>387.365</ele>
        <time>2020-05-21T03:04:52Z</time>
      </trkpt>
      <trkpt lat="43.266960" lon="-5.416700">
        <ele>388.089</ele>
        <time>2020-05-21T03:05:12Z</time>
      </trkpt>
      <trkpt lat="43.266920" lon="-5.416660">
        <ele>388.642</ele>
        <time>2020-05-21T03:05:32Z</time>
      </trkpt>
      <trkpt lat="43.266910" lon="-5.416660">
        <ele>388.322</ele>
        <time>2020-05-21T03:05:52Z</time>
      </trkpt>
      <trkpt lat="43.266730" lon="-5.416460">
        <ele>389.714</ele>
        <time>2020-05-21T03:06:12Z</time>
      </trkpt>
      <trkpt lat="43.266710" lon="-5.416440">
        <ele>389.708</ele>
        <time>2020-05-21T03:06:32Z</time>
      </trkpt>
      <trkpt lat="43.266640" lon="-5.416310">
        <ele>392.158</ele>
        <time>2020-05-21T03:06:52Z</time>
      </trkpt>
      <trkpt lat="43.266620" lon="-5.416270">
        <ele>392.913</ele>
        <time>2020-05-21T03:07:12Z</time>
      </trkpt>
      <trkpt lat="43.266500" lon="-5.416090">
        <ele>395.870</ele>
        <time>2020-05-21T03:07:32Z</time>
      </trkpt>
      <trkpt lat="43.266280" lon="-5.415810">
        <ele>398.136</ele>
        <time>2020-05-21T03:07:52Z</time>
      </trkpt>
      <trkpt lat="43.266250" lon="-5.415760">
        <ele>399.245</ele>
        <time>2020-05-21T03:08:12Z</time>
      </trkpt>
      <trkpt lat="43.266230" lon="-5.415750">
        <ele>399.032</ele>
        <time>2020-05-21T03:08:32Z</time>
      </trkpt>
      <trkpt lat="43.266200" lon="-5.415720">
        <ele>399.427</ele>
        <time>2020-05-21T03:08:52Z</time>
      </trkpt>
      <trkpt lat="43.266150" lon="-5.415680">
        <ele>399.841</ele>
        <time>2020-05-21T03:09:12Z</time>
      </trkpt>
      <trkpt lat="43.266090" lon="-5.415630">
        <ele>400.879</ele>
        <time>2020-05-21T03:09:32Z</time>
      </trkpt>
      <trkpt lat="43.266080" lon="-5.415630">
        <ele>400.605</ele>
        <time>2020-05-21T03:09:52Z</time>
      </trkpt>
      <trkpt lat="43.265930" lon="-5.415530">
        <ele>402.925</ele>
        <time>2020-05-21T03:10:12Z</time>
      </trkpt>
      <trkpt lat="43.265920" lon="-5.415530">
        <ele>402.808</ele>
        <time>2020-05-21T03:10:32Z</time>
      </trkpt>
      <trkpt lat="43.265850" lon="-5.415500">
        <ele>402.921</ele>
        <time>2020-05-21T03:10:52Z</time>
      </trkpt>
      <trkpt lat="43.265560" lon="-5.415420">
        <ele>406.366</ele>
        <time>2020-05-21T03:11:12Z</time>
      </trkpt>
      <trkpt lat="43.265390" lon="-5.415370">
        <ele>407.293</ele>
        <time>2020-05-21T03:11:32Z</time>
      </trkpt>
      <trkpt lat="43.265210" lon="-5.415320">
        <ele>407.899</ele>
        <time>2020-05-21T03:11:52Z</time>
      </trkpt>
      <trkpt lat="43.265040" lon="-5.415270">
        <ele>408.688</ele>
        <time>2020-05-21T03:12:12Z</time>
      </trkpt>
      <trkpt lat="43.265010" lon="-5.415260">
        <ele>408.795</ele>
        <time>2020-05-21T03:12:32Z</time>
      </trkpt>
      <trkpt lat="43.264890" lon="-5.415240">
        <ele>409.390</ele>
        <time>2020-05-21T03:12:52Z</time>
      </trkpt>
      <trkpt lat="43.264860" lon="-5.415240">
        <ele>409.264</ele>
        <time>2020-05-21T03:13:12Z</time>
      </trkpt>
      <trkpt lat="43.264810" lon="-5.415230">
        <ele>409.583</ele>
        <time>2020-05-21T03:13:32Z</time>
      </trkpt>
      <trkpt lat="43.264750" lon="-5.415230">
        <ele>409.425</ele>
        <time>2020-05-21T03:13:52Z</time>
      </trkpt>
      <trkpt lat="43.264700" lon="-5.415250">
        <ele>409.517</ele>
        <time>2020-05-21T03:14:12Z</time>
      </trkpt>
      <trkpt lat="43.264640" lon="-5.415280">
        <ele>410.608</ele>
        <time>2020-05-21T03:14:32Z</time>
      </trkpt>
      <trkpt lat="43.264570" lon="-5.415300">
        <ele>412.262</ele>
        <time>2020-05-21T03:14:52Z</time>
      </trkpt>
      <trkpt lat="43.264520" lon="-5.415320">
        <ele>413.227</ele>
        <time>2020-05-21T03:15:12Z</time>
      </trkpt>
      <trkpt lat="43.264480" lon="-5.415360">
        <ele>413.214</ele>
        <time>2020-05-21T03:15:32Z</time>
      </trkpt>
      <trkpt lat="43.264370" lon="-5.415460">
        <ele>413.750</ele>
        <time>2020-05-21T03:15:52Z</time>
      </trkpt>
      <trkpt lat="43.264320" lon="-5.415490">
        <ele>414.089</ele>
        <time>2020-05-21T03:16:12Z</time>
      </trkpt>
      <trkpt lat="43.264280" lon="-5.415520">
        <ele>413.576</ele>
        <time>2020-05-21T03:16:32Z</time>
      </trkpt>
      <trkpt lat="43.264220" lon="-5.415530">
        <ele>414.571</ele>
        <time>2020-05-21T03:16:52Z</time>
      </trkpt>
      <trkpt lat="43.264150" lon="-5.415550">
        <ele>414.545</ele>
        <time>2020-05-21T03:17:12Z</time>
      </trkpt>
      <trkpt lat="43.264050" lon="-5.415560">
        <ele>414.642</ele>
        <time>2020-05-21T03:17:32Z</time>
      </trkpt>
      <trkpt lat="43.264000" lon="-5.415570">
        <ele>414.522</ele>
        <time>2020-05-21T03:17:52Z</time>
      </trkpt>
      <trkpt lat="43.263970" lon="-5.415580">
        <ele>414.214</ele>
        <time>2020-05-21T03:18:12Z</time>
      </trkpt>
      <trkpt lat="43.263930" lon="-5.415580">
        <ele>414.508</ele>
        <time>2020-05-21T03:18:32Z</time>
      </trkpt>
      <trkpt lat="43.263830" lon="-5.415570">
        <ele>415.178</ele>
        <time>2020-05-21T03:18:52Z</time>
      </trkpt>
      <trkpt lat="43.263790" lon="-5.415560">
        <ele>415.413</ele>
        <time>2020-05-21T03:19:12Z</time>
      </trkpt>
      <trkpt lat="43.263660" lon="-5.415510">
        <ele>417.940</ele>
        <time>2020-05-21T03:19:32Z</time>
      </trkpt>
      <trkpt lat="43.263620" lon="-5.415500">
        <ele>418.386</ele>
        <time>2020-05-21T03:19:52Z</time>
      </trkpt>
      <trkpt lat="43.263600" lon="-5.415500">
        <ele>418.465</ele>
        <time>2020-05-21T03:20:12Z</time>
      </trkpt>
      <trkpt lat="43.263530" lon="-5.415490">
        <ele>420.182</ele>
        <time>2020-05-21T03:20:32Z</time>
      </trkpt>
      <trkpt lat="43.263460" lon="-5.415490">
        <ele>421.267</ele>
        <time>2020-05-21T03:20:52Z</time>
      </trkpt>
      <trkpt lat="43.263440" lon="-5.415500">
        <ele>420.951</ele>
        <time>2020-05-21T03:21:12Z</time>
      </trkpt>
      <trkpt lat="43.263370" lon="-5.415520">
        <ele>420.748</ele>
        <time>2020-05-21T03:21:32Z</time>
      </trkpt>
      <trkpt lat="43.263330" lon="-5.415540">
        <ele>420.161</ele>
        <time>2020-05-21T03:21:52Z</time>
      </trkpt>
      <trkpt lat="43.263270" lon="-5.415570">
        <ele>420.317</ele>
        <time>2020-05-21T03:22:12Z</time>
      </trkpt>
      <trkpt lat="43.263220" lon="-5.415600">
        <ele>420.708</ele>
        <time>2020-05-21T03:22:32Z</time>
      </trkpt>
      <trkpt lat="43.263100" lon="-5.415670">
        <ele>421.938</ele>
        <time>2020-05-21T03:22:52Z</time>
      </trkpt>
      <trkpt lat="43.263060" lon="-5.415690">
        <ele>422.543</ele>
        <time>2020-05-21T03:23:12Z</time>
      </trkpt>
      <trkpt lat="43.263000" lon="-5.415710">
        <ele>422.610</ele>
        <time>2020-05-21T03:23:32Z</time>
      </trkpt>
      <trkpt lat="43.262770" lon="-5.415690">
        <ele>426.446</ele>
        <time>2020-05-21T03:23:52Z</time>
      </trkpt>
      <trkpt lat="43.262750" lon="-5.415690">
        <ele>426.725</ele>
        <time>2020-05-21T03:24:12Z</time>
      </trkpt>
      <trkpt lat="43.262610" lon="-5.415680">
        <ele>429.222</ele>
        <time>2020-05-21T03:24:32Z</time>
      </trkpt>
      <trkpt lat="43.262570" lon="-5.415680">
        <ele>429.847</ele>
        <time>2020-05-21T03:24:52Z</time>
      </trkpt>
      <trkpt lat="43.262550" lon="-5.415680">
        <ele>430.121</ele>
        <time>2020-05-21T03:25:12Z</time>
      </trkpt>
      <trkpt lat="43.262480" lon="-5.415690">
        <ele>430.917</ele>
        <time>2020-05-21T03:25:32Z</time>
      </trkpt>
      <trkpt lat="43.262400" lon="-5.415700">
        <ele>432.987</ele>
        <time>2020-05-21T03:25:52Z</time>
      </trkpt>
      <trkpt lat="43.262390" lon="-5.415710">
        <ele>432.615</ele>
        <time>2020-05-21T03:26:12Z</time>
      </trkpt>
      <trkpt lat="43.262340" lon="-5.415720">
        <ele>433.508</ele>
        <time>2020-05-21T03:26:32Z</time>
      </trkpt>
      <trkpt lat="43.262300" lon="-5.415750">
        <ele>432.735</ele>
        <time>2020-05-21T03:26:52Z</time>
      </trkpt>
      <trkpt lat="43.262140" lon="-5.415900">
        <ele>430.190</ele>
        <time>2020-05-21T03:27:12Z</time>
      </trkpt>
      <trkpt lat="43.262020" lon="-5.416020">
        <ele>432.277</ele>
        <time>2020-05-21T03:27:32Z</time>
      </trkpt>
      <trkpt lat="43.261980" lon="-5.416070">
        <ele>433.083</ele>
        <time>2020-05-21T03:27:52Z</time>
      </trkpt>
      <trkpt lat="43.261970" lon="-5.416080">
        <ele>433.372</ele>
        <time>2020-05-21T03:28:12Z</time>
      </trkpt>
      <trkpt lat="43.261820" lon="-5.416200">
        <ele>436.249</ele>
        <time>2020-05-21T03:28:32Z</time>
      </trkpt>
      <trkpt lat="43.261740" lon="-5.416260">
        <ele>437.064</ele>
        <time>2020-05-21T03:28:52Z</time>
      </trkpt>
      <trkpt lat="43.261660" lon="-5.416300">
        <ele>438.338</ele>
        <time>2020-05-21T03:29:12Z</time>
      </trkpt>
      <trkpt lat="43.261640" lon="-5.416310">
        <ele>438.462</ele>
        <time>2020-05-21T03:29:32Z</time>
      </trkpt>
      <trkpt lat="43.261540" lon="-5.416360">
        <ele>438.383</ele>
        <time>2020-05-21T03:29:52Z</time>
      </trkpt>
      <trkpt lat="43.261490" lon="-5.416380">
        <ele>438.311</ele>
        <time>2020-05-21T03:30:12Z</time>
      </trkpt>
      <trkpt lat="43.261430" lon="-5.416400">
        <ele>438.908</ele>
        <time>2020-05-21T03:30:32Z</time>
      </trkpt>
      <trkpt lat="43.261320" lon="-5.416440">
        <ele>439.720</ele>
        <time>2020-05-21T03:30:52Z</time>
      </trkpt>
      <trkpt lat="43.261260" lon="-5.416460">
        <ele>439.825</ele>
        <time>2020-05-21T03:31:12Z</time>
      </trkpt>
      <trkpt lat="43.261190" lon="-5.416480">
        <ele>439.842</ele>
        <time>2020-05-21T03:31:32Z</time>
      </trkpt>
      <trkpt lat="43.261140" lon="-5.416490">
        <ele>439.938</ele>
        <time>2020-05-21T03:31:52Z</time>
      </trkpt>
      <trkpt lat="43.261130" lon="-5.416500">
        <ele>439.797</ele>
        <time>2020-05-21T03:32:12Z</time>
      </trkpt>
      <trkpt lat="43.261060" lon="-5.416500">
        <ele>439.414</ele>
        <time>2020-05-21T03:32:32Z</time>
      </trkpt>
      <trkpt lat="43.261030" lon="-5.416500">
        <ele>439.299</ele>
        <time>2020-05-21T03:32:52Z</time>
      </trkpt>
      <trkpt lat="43.260960" lon="-5.416500">
        <ele>438.713</ele>
        <time>2020-05-21T03:33:12Z</time>
      </trkpt>
      <trkpt lat="43.260870" lon="-5.416420">
        <ele>439.112</ele>
        <time>2020-05-21T03:33:32Z</time>
      </trkpt>
      <trkpt lat="43.260860" lon="-5.416400">
        <ele>439.232</ele>
        <time>2020-05-21T03:33:52Z</time>
      </trkpt>
      <trkpt lat="43.260850" lon="-5.416390">
        <ele>439.205</ele>
        <time>2020-05-21T03:34:12Z</time>
      </trkpt>
      <trkpt lat="43.260830" lon="-5.416350">
        <ele>440.108</ele>
        <time>2020-05-21T03:34:32Z</time>
      </trkpt>
      <trkpt lat="43.260810" lon="-5.416300">
        <ele>441.395</ele>
        <time>2020-05-21T03:34:52Z</time>
      </trkpt>
      <trkpt lat="43.260770" lon="-5.416200">
        <ele>443.370</ele>
        <time>2020-05-21T03:35:12Z</time>
      </trkpt>
      <trkpt lat="43.260610" lon="-5.415790">
        <ele>448.357</ele>
        <time>2020-05-21T03:35:32Z</time>
      </trkpt>
      <trkpt lat="43.260600" lon="-5.415760">
        <ele>449.283</ele>
        <time>2020-05-21T03:35:52Z</time>
      </trkpt>
      <trkpt lat="43.260490" lon="-5.415480">
        <ele>454.812</ele>
        <time>2020-05-21T03:36:12Z</time>
      </trkpt>
      <trkpt lat="43.260430" lon="-5.415350">
        <ele>454.919</ele>
        <time>2020-05-21T03:36:32Z</time>
      </trkpt>
      <trkpt lat="43.260420" lon="-5.415330">
        <ele>454.794</ele>
        <time>2020-05-21T03:36:52Z</time>
      </trkpt>
      <trkpt lat="43.260400" lon="-5.415300">
        <ele>453.938</ele>
        <time>2020-05-21T03:37:12Z</time>
      </trkpt>
      <trkpt lat="43.260330" lon="-5.415170">
        <ele>452.359</ele>
        <time>2020-05-21T03:37:32Z</time>
      </trkpt>
      <trkpt lat="43.260310" lon="-5.415140">
        <ele>451.503</ele>
        <time>2020-05-21T03:37:52Z</time>
      </trkpt>
      <trkpt lat="43.260270" lon="-5.415090">
        <ele>449.823</ele>
        <time>2020-05-21T03:38:12Z</time>
      </trkpt>
      <trkpt lat="43.260090" lon="-5.414890">
        <ele>450.008</ele>
        <time>2020-05-21T03:38:32Z</time>
      </trkpt>
      <trkpt lat="43.260060" lon="-5.414850">
        <ele>449.999</ele>
        <time>2020-05-21T03:38:52Z</time>
      </trkpt>
      <trkpt lat="43.260030" lon="-5.414780">
        <ele>450.424</ele>
        <time>2020-05-21T03:39:12Z</time>
      </trkpt>
      <trkpt lat="43.259980" lon="-5.414680">
        <ele>452.221</ele>
        <time>2020-05-21T03:39:32Z</time>
      </trkpt>
      <trkpt lat="43.259970" lon="-5.414650">
        <ele>453.797</ele>
        <time>2020-05-21T03:39:52Z</time>
      </trkpt>
      <trkpt lat="43.259940" lon="-5.414600">
        <ele>455.326</ele>
        <time>2020-05-21T03:40:12Z</time>
      </trkpt>
      <trkpt lat="43.259930" lon="-5.414590">
        <ele>455.333</ele>
        <time>2020-05-21T03:40:32Z</time>
      </trkpt>
      <trkpt lat="43.259900" lon="-5.414540">
        <ele>456.358</ele>
        <time>2020-05-21T03:40:52Z</time>
      </trkpt>
      <trkpt lat="43.259860" lon="-5.414490">
        <ele>456.032</ele>
        <time>2020-05-21T03:41:12Z</time>
      </trkpt>
      <trkpt lat="43.259830" lon="-5.414460">
        <ele>455.042</ele>
        <time>2020-05-21T03:41:32Z</time>
      </trkpt>
      <trkpt lat="43.259800" lon="-5.414440">
        <ele>453.422</ele>
        <time>2020-05-21T03:41:52Z</time>
      </trkpt>
      <trkpt lat="43.259710" lon="-5.414380">
        <ele>450.514</ele>
        <time>2020-05-21T03:42:12Z</time>
      </trkpt>
      <trkpt lat="43.259640" lon="-5.414350">
        <ele>450.508</ele>
        <time>2020-05-21T03:42:32Z</time>
      </trkpt>
      <trkpt lat="43.259520" lon="-5.414300">
        <ele>449.428</ele>
        <time>2020-05-21T03:42:52Z</time>
      </trkpt>
      <trkpt lat="43.259420" lon="-5.414260">
        <ele>447.833</ele>
        <time>2020-05-21T03:43:12Z</time>
      </trkpt>
      <trkpt lat="43.259370" lon="-5.414240">
        <ele>447.610</ele>
        <time>2020-05-21T03:43:32Z</time>
      </trkpt>
      <trkpt lat="43.259300" lon="-5.414200">
        <ele>447.436</ele>
        <time>2020-05-21T03:43:52Z</time>
      </trkpt>
      <trkpt lat="43.259290" lon="-5.414190">
        <ele>447.585</ele>
        <time>2020-05-21T03:44:12Z</time>
      </trkpt>
      <trkpt lat="43.259250" lon="-5.414170">
        <ele>447.242</ele>
        <time>2020-05-21T03:44:32Z</time>
      </trkpt>
      <trkpt lat="43.259230" lon="-5.414140">
        <ele>447.777</ele>
        <time>2020-05-21T03:44:52Z</time>
      </trkpt>
      <trkpt lat="43.259200" lon="-5.414100">
        <ele>448.331</ele>
        <time>2020-05-21T03:45:12Z</time>
      </trkpt>
      <trkpt lat="43.259160" lon="-5.414050">
        <ele>448.943</ele>
        <time>2020-05-21T03:45:32Z</time>
      </trkpt>
      <trkpt lat="43.259130" lon="-5.414010">
        <ele>449.564</ele>
        <time>2020-05-21T03:45:52Z</time>
      </trkpt>
      <trkpt lat="43.259100" lon="-5.413960">
        <ele>450.110</ele>
        <time>2020-05-21T03:46:12Z</time>
      </trkpt>
      <trkpt lat="43.259060" lon="-5.413850">
        <ele>451.208</ele>
        <time>2020-05-21T03:46:32Z</time>
      </trkpt>
      <trkpt lat="43.259030" lon="-5.413790">
        <ele>451.738</ele>
        <time>2020-05-21T03:46:52Z</time>
      </trkpt>
      <trkpt lat="43.258960" lon="-5.413640">
        <ele>451.973</ele>
        <time>2020-05-21T03:47:12Z</time>
      </trkpt>
      <trkpt lat="43.258840" lon="-5.413370">
        <ele>452.220</ele>
        <time>2020-05-21T03:47:32Z</time>
      </trkpt>
      <trkpt lat="43.258700" lon="-5.413070">
        <ele>452.076</ele>
        <time>2020-05-21T03:47:52Z</time>
      </trkpt>
      <trkpt lat="43.258670" lon="-5.413020">
        <ele>452.025</ele>
        <time>2020-05-21T03:48:12Z</time>
      </trkpt>
      <trkpt lat="43.258650" lon="-5.412990">
        <ele>452.162</ele>
        <time>2020-05-21T03:48:32Z</time>
      </trkpt>
      <trkpt lat="43.258620" lon="-5.412940">
        <ele>452.247</ele>
        <time>2020-05-21T03:48:52Z</time>
      </trkpt>
      <trkpt lat="43.258590" lon="-5.412900">
        <ele>452.741</ele>
        <time>2020-05-21T03:49:12Z</time>
      </trkpt>
      <trkpt lat="43.258540" lon="-5.412860">
        <ele>453.128</ele>
        <time>2020-05-21T03:49:32Z</time>
      </trkpt>
      <trkpt lat="43.258510" lon="-5.412840">
        <ele>453.189</ele>
        <time>2020-05-21T03:49:52Z</time>
      </trkpt>
      <trkpt lat="43.258440" lon="-5.412800">
        <ele>453.117</ele>
        <time>2020-05-21T03:50:12Z</time>
      </trkpt>
      <trkpt lat="43.258360" lon="-5.412780">
        <ele>452.308</ele>
        <time>2020-05-21T03:50:32Z</time>
      </trkpt>
      <trkpt lat="43.258190" lon="-5.412720">
        <ele>452.276</ele>
        <time>2020-05-21T03:50:52Z</time>
      </trkpt>
      <trkpt lat="43.258120" lon="-5.412690">
        <ele>452.231</ele>
        <time>2020-05-21T03:51:12Z</time>
      </trkpt>
      <trkpt lat="43.258080" lon="-5.412670">
        <ele>452.288</ele>
        <time>2020-05-21T03:51:32Z</time>
      </trkpt>
      <trkpt lat="43.258060" lon="-5.412660">
        <ele>452.244</ele>
        <time>2020-05-21T03:51:52Z</time>
      </trkpt>
      <trkpt lat="43.258040" lon="-5.412630">
        <ele>452.583</ele>
        <time>2020-05-21T03:52:12Z</time>
      </trkpt>
      <trkpt lat="43.258030" lon="-5.412620">
        <ele>452.640</ele>
        <time>2020-05-21T03:52:32Z</time>
      </trkpt>
      <trkpt lat="43.257960" lon="-5.412480">
        <ele>453.675</ele>
        <time>2020-05-21T03:52:52Z</time>
      </trkpt>
      <trkpt lat="43.257850" lon="-5.412240">
        <ele>454.649</ele>
        <time>2020-05-21T03:53:12Z</time>
      </trkpt>
      <trkpt lat="43.257830" lon="-5.412210">
        <ele>454.765</ele>
        <time>2020-05-21T03:53:32Z</time>
      </trkpt>
      <trkpt lat="43.257720" lon="-5.412010">
        <ele>457.468</ele>
        <time>2020-05-21T03:53:52Z</time>
      </trkpt>
      <trkpt lat="43.257610" lon="-5.411810">
        <ele>457.014</ele>
        <time>2020-05-21T03:54:12Z</time>
      </trkpt>
      <trkpt lat="43.257500" lon="-5.411620">
        <ele>456.708</ele>
        <time>2020-05-21T03:54:32Z</time>
      </trkpt>
      <trkpt lat="43.257390" lon="-5.411430">
        <ele>457.550</ele>
        <time>2020-05-21T03:54:52Z</time>
      </trkpt>
      <trkpt lat="43.257270" lon="-5.411240">
        <ele>460.355</ele>
        <time>2020-05-21T03:55:12Z</time>
      </trkpt>
      <trkpt lat="43.257250" lon="-5.411200">
        <ele>461.142</ele>
        <time>2020-05-21T03:55:32Z</time>
      </trkpt>
      <trkpt lat="43.257120" lon="-5.410940">
        <ele>465.118</ele>
        <time>2020-05-21T03:55:52Z</time>
      </trkpt>
      <trkpt lat="43.257080" lon="-5.410820">
        <ele>466.127</ele>
        <time>2020-05-21T03:56:12Z</time>
      </trkpt>
      <trkpt lat="43.257000" lon="-5.410600">
        <ele>465.074</ele>
        <time>2020-05-21T03:56:32Z</time>
      </trkpt>
      <trkpt lat="43.256960" lon="-5.410480">
        <ele>465.289</ele>
        <time>2020-05-21T03:56:52Z</time>
      </trkpt>
      <trkpt lat="43.256940" lon="-5.410400">
        <ele>466.313</ele>
        <time>2020-05-21T03:57:12Z</time>
      </trkpt>
      <trkpt lat="43.256920" lon="-5.410380">
        <ele>466.234</ele>
        <time>2020-05-21T03:57:32Z</time>
      </trkpt>
      <trkpt lat="43.256880" lon="-5.410270">
        <ele>467.455</ele>
        <time>2020-05-21T03:57:52Z</time>
      </trkpt>
      <trkpt lat="43.256860" lon="-5.410240">
        <ele>467.410</ele>
        <time>2020-05-21T03:58:12Z</time>
      </trkpt>
      <trkpt lat="43.256840" lon="-5.410190">
        <ele>467.708</ele>
        <time>2020-05-21T03:58:32Z</time>
      </trkpt>
      <trkpt lat="43.256830" lon="-5.410170">
        <ele>467.747</ele>
        <time>2020-05-21T03:58:52Z</time>
      </trkpt>
      <trkpt lat="43.256720" lon="-5.409970">
        <ele>466.292</ele>
        <time>2020-05-21T03:59:12Z</time>
      </trkpt>
      <trkpt lat="43.256620" lon="-5.409770">
        <ele>467.199</ele>
        <time>2020-05-21T03:59:32Z</time>
      </trkpt>
      <trkpt lat="43.256510" lon="-5.409570">
        <ele>467.785</ele>
        <time>2020-05-21T03:59:52Z</time>
      </trkpt>
      <trkpt lat="43.256400" lon="-5.409370">
        <ele>466.044</ele>
        <time>2020-05-21T04:00:12Z</time>
      </trkpt>
      <trkpt lat="43.256300" lon="-5.409170">
        <ele>466.791</ele>
        <time>2020-05-21T04:00:32Z</time>
      </trkpt>
      <trkpt lat="43.255910" lon="-5.408430">
        <ele>468.936</ele>
        <time>2020-05-21T04:00:52Z</time>
      </trkpt>
      <trkpt lat="43.255790" lon="-5.408150">
        <ele>470.420</ele>
        <time>2020-05-21T04:01:12Z</time>
      </trkpt>
      <trkpt lat="43.255690" lon="-5.407940">
        <ele>472.315</ele>
        <time>2020-05-21T04:01:32Z</time>
      </trkpt>
      <trkpt lat="43.255510" lon="-5.407520">
        <ele>474.865</ele>
        <time>2020-05-21T04:01:52Z</time>
      </trkpt>
      <trkpt lat="43.255410" lon="-5.407340">
        <ele>476.511</ele>
        <time>2020-05-21T04:02:12Z</time>
      </trkpt>
      <trkpt lat="43.255400" lon="-5.407320">
        <ele>476.608</ele>
        <time>2020-05-21T04:02:32Z</time>
      </trkpt>
      <trkpt lat="43.255210" lon="-5.406930">
        <ele>477.135</ele>
        <time>2020-05-21T04:02:52Z</time>
      </trkpt>
      <trkpt lat="43.255190" lon="-5.406900">
        <ele>477.370</ele>
        <time>2020-05-21T04:03:12Z</time>
      </trkpt>
      <trkpt lat="43.255160" lon="-5.406850">
        <ele>477.857</ele>
        <time>2020-05-21T04:03:32Z</time>
      </trkpt>
      <trkpt lat="43.255110" lon="-5.406800">
        <ele>477.873</ele>
        <time>2020-05-21T04:03:52Z</time>
      </trkpt>
      <trkpt lat="43.255080" lon="-5.406770">
        <ele>477.892</ele>
        <time>2020-05-21T04:04:12Z</time>
      </trkpt>
      <trkpt lat="43.255060" lon="-5.406760">
        <ele>477.549</ele>
        <time>2020-05-21T04:04:32Z</time>
      </trkpt>
      <trkpt lat="43.255050" lon="-5.406760">
        <ele>477.314</ele>
        <time>2020-05-21T04:04:52Z</time>
      </trkpt>
      <trkpt lat="43.255020" lon="-5.406750">
        <ele>476.918</ele>
        <time>2020-05-21T04:05:12Z</time>
      </trkpt>
      <trkpt lat="43.254960" lon="-5.406740">
        <ele>476.715</ele>
        <time>2020-05-21T04:05:32Z</time>
      </trkpt>
      <trkpt lat="43.254780" lon="-5.406730">
        <ele>477.165</ele>
        <time>2020-05-21T04:05:52Z</time>
      </trkpt>
      <trkpt lat="43.254700" lon="-5.406730">
        <ele>477.011</ele>
        <time>2020-05-21T04:06:12Z</time>
      </trkpt>
      <trkpt lat="43.254680" lon="-5.406730">
        <ele>476.908</ele>
        <time>2020-05-21T04:06:32Z</time>
      </trkpt>
      <trkpt lat="43.254630" lon="-5.406730">
        <ele>476.675</ele>
        <time>2020-05-21T04:06:52Z</time>
      </trkpt>
      <trkpt lat="43.254600" lon="-5.406720">
        <ele>476.770</ele>
        <time>2020-05-21T04:07:12Z</time>
      </trkpt>
      <trkpt lat="43.254580" lon="-5.406710">
        <ele>476.867</ele>
        <time>2020-05-21T04:07:32Z</time>
      </trkpt>
      <trkpt lat="43.254500" lon="-5.406670">
        <ele>477.343</ele>
        <time>2020-05-21T04:07:52Z</time>
      </trkpt>
      <trkpt lat="43.254380" lon="-5.406580">
        <ele>479.822</ele>
        <time>2020-05-21T04:08:12Z</time>
      </trkpt>
      <trkpt lat="43.254220" lon="-5.406430">
        <ele>481.419</ele>
        <time>2020-05-21T04:08:32Z</time>
      </trkpt>
      <trkpt lat="43.254070" lon="-5.406290">
        <ele>484.054</ele>
        <time>2020-05-21T04:08:52Z</time>
      </trkpt>
      <trkpt lat="43.253990" lon="-5.406220">
        <ele>484.418</ele>
        <time>2020-05-21T04:09:12Z</time>
      </trkpt>
      <trkpt lat="43.253920" lon="-5.406150">
        <ele>484.227</ele>
        <time>2020-05-21T04:09:32Z</time>
      </trkpt>
      <trkpt lat="43.253860" lon="-5.406100">
        <ele>484.468</ele>
        <time>2020-05-21T04:09:52Z</time>
      </trkpt>
      <trkpt lat="43.253830" lon="-5.406080">
        <ele>485.314</ele>
        <time>2020-05-21T04:10:12Z</time>
      </trkpt>
      <trkpt lat="43.253800" lon="-5.406060">
        <ele>486.108</ele>
        <time>2020-05-21T04:10:32Z</time>
      </trkpt>
      <trkpt lat="43.253760" lon="-5.406040">
        <ele>486.736</ele>
        <time>2020-05-21T04:10:52Z</time>
      </trkpt>
      <trkpt lat="43.253730" lon="-5.406040">
        <ele>486.361</ele>
        <time>2020-05-21T04:11:12Z</time>
      </trkpt>
      <trkpt lat="43.253660" lon="-5.406020">
        <ele>486.478</ele>
        <time>2020-05-21T04:11:32Z</time>
      </trkpt>
      <trkpt lat="43.253610" lon="-5.406020">
        <ele>485.624</ele>
        <time>2020-05-21T04:11:52Z</time>
      </trkpt>
      <trkpt lat="43.253560" lon="-5.406030">
        <ele>486.543</ele>
        <time>2020-05-21T04:12:12Z</time>
      </trkpt>
      <trkpt lat="43.253520" lon="-5.406040">
        <ele>487.080</ele>
        <time>2020-05-21T04:12:32Z</time>
      </trkpt>
      <trkpt lat="43.253460" lon="-5.406070">
        <ele>487.075</ele>
        <time>2020-05-21T04:12:52Z</time>
      </trkpt>
      <trkpt lat="43.253410" lon="-5.406100">
        <ele>486.799</ele>
        <time>2020-05-21T04:13:12Z</time>
      </trkpt>
      <trkpt lat="43.253370" lon="-5.406120">
        <ele>486.883</ele>
        <time>2020-05-21T04:13:32Z</time>
      </trkpt>
      <trkpt lat="43.253340" lon="-5.406140">
        <ele>486.925</ele>
        <time>2020-05-21T04:13:52Z</time>
      </trkpt>
      <trkpt lat="43.253300" lon="-5.406170">
        <ele>488.117</ele>
        <time>2020-05-21T04:14:12Z</time>
      </trkpt>
      <trkpt lat="43.253260" lon="-5.406220">
        <ele>488.508</ele>
        <time>2020-05-21T04:14:32Z</time>
      </trkpt>
      <trkpt lat="43.253240" lon="-5.406240">
        <ele>488.892</ele>
        <time>2020-05-21T04:14:52Z</time>
      </trkpt>
      <trkpt lat="43.253210" lon="-5.406270">
        <ele>489.157</ele>
        <time>2020-05-21T04:15:12Z</time>
      </trkpt>
      <trkpt lat="43.253170" lon="-5.406340">
        <ele>487.844</ele>
        <time>2020-05-21T04:15:32Z</time>
      </trkpt>
      <trkpt lat="43.253140" lon="-5.406390">
        <ele>486.670</ele>
        <time>2020-05-21T04:15:52Z</time>
      </trkpt>
      <trkpt lat="43.253140" lon="-5.406400">
        <ele>486.579</ele>
        <time>2020-05-21T04:16:12Z</time>
      </trkpt>
      <trkpt lat="43.253090" lon="-5.406510">
        <ele>487.446</ele>
        <time>2020-05-21T04:16:32Z</time>
      </trkpt>
      <trkpt lat="43.252990" lon="-5.406770">
        <ele>488.171</ele>
        <time>2020-05-21T04:16:52Z</time>
      </trkpt>
      <trkpt lat="43.252910" lon="-5.406920">
        <ele>488.955</ele>
        <time>2020-05-21T04:17:12Z</time>
      </trkpt>
      <trkpt lat="43.252890" lon="-5.406950">
        <ele>489.154</ele>
        <time>2020-05-21T04:17:32Z</time>
      </trkpt>
      <trkpt lat="43.252870" lon="-5.406970">
        <ele>489.256</ele>
        <time>2020-05-21T04:17:52Z</time>
      </trkpt>
      <trkpt lat="43.252820" lon="-5.407030">
        <ele>488.911</ele>
        <time>2020-05-21T04:18:12Z</time>
      </trkpt>
      <trkpt lat="43.252750" lon="-5.407090">
        <ele>488.508</ele>
        <time>2020-05-21T04:18:32Z</time>
      </trkpt>
      <trkpt lat="43.252700" lon="-5.407120">
        <ele>489.159</ele>
        <time>2020-05-21T04:18:52Z</time>
      </trkpt>
      <trkpt lat="43.252650" lon="-5.407140">
        <ele>490.274</ele>
        <time>2020-05-21T04:19:12Z</time>
      </trkpt>
      <trkpt lat="43.252620" lon="-5.407140">
        <ele>491.071</ele>
        <time>2020-05-21T04:19:32Z</time>
      </trkpt>
      <trkpt lat="43.252580" lon="-5.407130">
        <ele>492.447</ele>
        <time>2020-05-21T04:19:52Z</time>
      </trkpt>
      <trkpt lat="43.252560" lon="-5.407120">
        <ele>493.176</ele>
        <time>2020-05-21T04:20:12Z</time>
      </trkpt>
      <trkpt lat="43.252540" lon="-5.407110">
        <ele>493.793</ele>
        <time>2020-05-21T04:20:32Z</time>
      </trkpt>
      <trkpt lat="43.252530" lon="-5.407100">
        <ele>494.118</ele>
        <time>2020-05-21T04:20:52Z</time>
      </trkpt>
      <trkpt lat="43.252520" lon="-5.407090">
        <ele>494.492</ele>
        <time>2020-05-21T04:21:12Z</time>
      </trkpt>
      <trkpt lat="43.252520" lon="-5.407080">
        <ele>494.569</ele>
        <time>2020-05-21T04:21:32Z</time>
      </trkpt>
      <trkpt lat="43.252510" lon="-5.407070">
        <ele>494.904</ele>
        <time>2020-05-21T04:21:52Z</time>
      </trkpt>
      <trkpt lat="43.252500" lon="-5.407040">
        <ele>495.324</ele>
        <time>2020-05-21T04:22:12Z</time>
      </trkpt>
      <trkpt lat="43.252500" lon="-5.407010">
        <ele>495.508</ele>
        <time>2020-05-21T04:22:32Z</time>
      </trkpt>
      <trkpt lat="43.252500" lon="-5.406960">
        <ele>495.950</ele>
        <time>2020-05-21T04:22:52Z</time>
      </trkpt>
      <trkpt lat="43.252490" lon="-5.406880">
        <ele>495.975</ele>
        <time>2020-05-21T04:23:12Z</time>
      </trkpt>
      <trkpt lat="43.252490" lon="-5.406840">
        <ele>496.172</ele>
        <time>2020-05-21T04:23:32Z</time>
      </trkpt>
      <trkpt lat="43.252500" lon="-5.406810">
        <ele>496.528</ele>
        <time>2020-05-21T04:23:52Z</time>
      </trkpt>
      <trkpt lat="43.252510" lon="-5.406750">
        <ele>496.687</ele>
        <time>2020-05-21T04:24:12Z</time>
      </trkpt>
      <trkpt lat="43.252580" lon="-5.406410">
        <ele>496.844</ele>
        <time>2020-05-21T04:24:32Z</time>
      </trkpt>
      <trkpt lat="43.252590" lon="-5.406360">
        <ele>497.519</ele>
        <time>2020-05-21T04:24:52Z</time>
      </trkpt>
      <trkpt lat="43.252600" lon="-5.406310">
        <ele>498.413</ele>
        <time>2020-05-21T04:25:12Z</time>
      </trkpt>
      <trkpt lat="43.252600" lon="-5.406280">
        <ele>499.045</ele>
        <time>2020-05-21T04:25:32Z</time>
      </trkpt>
      <trkpt lat="43.252600" lon="-5.406250">
        <ele>499.547</ele>
        <time>2020-05-21T04:25:52Z</time>
      </trkpt>
      <trkpt lat="43.252600" lon="-5.406210">
        <ele>500.211</ele>
        <time>2020-05-21T04:26:12Z</time>
      </trkpt>
      <trkpt lat="43.252590" lon="-5.406170">
        <ele>500.608</ele>
        <time>2020-05-21T04:26:32Z</time>
      </trkpt>
      <trkpt lat="43.252570" lon="-5.406130">
        <ele>500.728</ele>
        <time>2020-05-21T04:26:52Z</time>
      </trkpt>
      <trkpt lat="43.252500" lon="-5.405930">
        <ele>503.633</ele>
        <time>2020-05-21T04:27:12Z</time>
      </trkpt>
      <trkpt lat="43.252490" lon="-5.405900">
        <ele>503.950</ele>
        <time>2020-05-21T04:27:32Z</time>
      </trkpt>
      <trkpt lat="43.252440" lon="-5.405730">
        <ele>504.516</ele>
        <time>2020-05-21T04:27:52Z</time>
      </trkpt>
      <trkpt lat="43.252430" lon="-5.405710">
        <ele>504.325</ele>
        <time>2020-05-21T04:28:12Z</time>
      </trkpt>
      <trkpt lat="43.252430" lon="-5.405680">
        <ele>504.782</ele>
        <time>2020-05-21T04:28:32Z</time>
      </trkpt>
      <trkpt lat="43.252430" lon="-5.405630">
        <ele>505.397</ele>
        <time>2020-05-21T04:28:52Z</time>
      </trkpt>
      <trkpt lat="43.252440" lon="-5.405580">
        <ele>506.461</ele>
        <time>2020-05-21T04:29:12Z</time>
      </trkpt>
      <trkpt lat="43.252540" lon="-5.405210">
        <ele>510.069</ele>
        <time>2020-05-21T04:29:32Z</time>
      </trkpt>
      <trkpt lat="43.252560" lon="-5.405110">
        <ele>511.004</ele>
        <time>2020-05-21T04:29:52Z</time>
      </trkpt>
      <trkpt lat="43.252570" lon="-5.405060">
        <ele>511.524</ele>
        <time>2020-05-21T04:30:12Z</time>
      </trkpt>
      <trkpt lat="43.252570" lon="-5.405020">
        <ele>511.508</ele>
        <time>2020-05-21T04:30:32Z</time>
      </trkpt>
      <trkpt lat="43.252570" lon="-5.404970">
        <ele>511.820</ele>
        <time>2020-05-21T04:30:52Z</time>
      </trkpt>
      <trkpt lat="43.252550" lon="-5.404770">
        <ele>512.985</ele>
        <time>2020-05-21T04:31:12Z</time>
      </trkpt>
      <trkpt lat="43.252540" lon="-5.404720">
        <ele>512.942</ele>
        <time>2020-05-21T04:31:32Z</time>
      </trkpt>
      <trkpt lat="43.252500" lon="-5.404560">
        <ele>513.918</ele>
        <time>2020-05-21T04:31:52Z</time>
      </trkpt>
      <trkpt lat="43.252490" lon="-5.404520">
        <ele>514.277</ele>
        <time>2020-05-21T04:32:12Z</time>
      </trkpt>
      <trkpt lat="43.252470" lon="-5.404460">
        <ele>514.524</ele>
        <time>2020-05-21T04:32:32Z</time>
      </trkpt>
      <trkpt lat="43.252460" lon="-5.404430">
        <ele>514.869</ele>
        <time>2020-05-21T04:32:52Z</time>
      </trkpt>
      <trkpt lat="43.252440" lon="-5.404400">
        <ele>514.753</ele>
        <time>2020-05-21T04:33:12Z</time>
      </trkpt>
      <trkpt lat="43.252420" lon="-5.404370">
        <ele>514.787</ele>
        <time>2020-05-21T04:33:32Z</time>
      </trkpt>
      <trkpt lat="43.252370" lon="-5.404300">
        <ele>514.742</ele>
        <time>2020-05-21T04:33:52Z</time>
      </trkpt>
      <trkpt lat="43.252290" lon="-5.404180">
        <ele>515.626</ele>
        <time>2020-05-21T04:34:12Z</time>
      </trkpt>
      <trkpt lat="43.252260" lon="-5.404140">
        <ele>515.408</ele>
        <time>2020-05-21T04:34:32Z</time>
      </trkpt>
      <trkpt lat="43.252240" lon="-5.404120">
        <ele>515.062</ele>
        <time>2020-05-21T04:34:52Z</time>
      </trkpt>
      <trkpt lat="43.252110" lon="-5.403950">
        <ele>514.177</ele>
        <time>2020-05-21T04:35:12Z</time>
      </trkpt>
      <trkpt lat="43.251990" lon="-5.403780">
        <ele>514.374</ele>
        <time>2020-05-21T04:35:32Z</time>
      </trkpt>
      <trkpt lat="43.251860" lon="-5.403600">
        <ele>514.620</ele>
        <time>2020-05-21T04:35:52Z</time>
      </trkpt>
      <trkpt lat="43.251790" lon="-5.403520">
        <ele>514.619</ele>
        <time>2020-05-21T04:36:12Z</time>
      </trkpt>
      <trkpt lat="43.251760" lon="-5.403460">
        <ele>515.036</ele>
        <time>2020-05-21T04:36:32Z</time>
      </trkpt>
      <trkpt lat="43.251650" lon="-5.403240">
        <ele>516.591</ele>
        <time>2020-05-21T04:36:52Z</time>
      </trkpt>
      <trkpt lat="43.251640" lon="-5.403210">
        <ele>516.625</ele>
        <time>2020-05-21T04:37:12Z</time>
      </trkpt>
      <trkpt lat="43.251540" lon="-5.403010">
        <ele>517.661</ele>
        <time>2020-05-21T04:37:32Z</time>
      </trkpt>
      <trkpt lat="43.251440" lon="-5.402800">
        <ele>522.221</ele>
        <time>2020-05-21T04:37:52Z</time>
      </trkpt>
      <trkpt lat="43.251390" lon="-5.402690">
        <ele>525.813</ele>
        <time>2020-05-21T04:38:12Z</time>
      </trkpt>
      <trkpt lat="43.251360" lon="-5.402620">
        <ele>528.208</ele>
        <time>2020-05-21T04:38:32Z</time>
      </trkpt>
      <trkpt lat="43.251230" lon="-5.402400">
        <ele>530.970</ele>
        <time>2020-05-21T04:38:52Z</time>
      </trkpt>
      <trkpt lat="43.251120" lon="-5.402210">
        <ele>531.125</ele>
        <time>2020-05-21T04:39:12Z</time>
      </trkpt>
      <trkpt lat="43.251060" lon="-5.402110">
        <ele>532.992</ele>
        <time>2020-05-21T04:39:32Z</time>
      </trkpt>
      <trkpt lat="43.250900" lon="-5.401790">
        <ele>535.388</ele>
        <time>2020-05-21T04:39:52Z</time>
      </trkpt>
      <trkpt lat="43.250800" lon="-5.401600">
        <ele>536.517</ele>
        <time>2020-05-21T04:40:12Z</time>
      </trkpt>
      <trkpt lat="43.250700" lon="-5.401420">
        <ele>538.364</ele>
        <time>2020-05-21T04:40:32Z</time>
      </trkpt>
      <trkpt lat="43.250580" lon="-5.401220">
        <ele>537.969</ele>
        <time>2020-05-21T04:40:52Z</time>
      </trkpt>
      <trkpt lat="43.250470" lon="-5.401030">
        <ele>538.583</ele>
        <time>2020-05-21T04:41:12Z</time>
      </trkpt>
      <trkpt lat="43.250470" lon="-5.401020">
        <ele>538.814</ele>
        <time>2020-05-21T04:41:32Z</time>
      </trkpt>
      <trkpt lat="43.250370" lon="-5.400820">
        <ele>539.754</ele>
        <time>2020-05-21T04:41:52Z</time>
      </trkpt>
      <trkpt lat="43.250270" lon="-5.400610">
        <ele>542.009</ele>
        <time>2020-05-21T04:42:12Z</time>
      </trkpt>
      <trkpt lat="43.250230" lon="-5.400540">
        <ele>543.108</ele>
        <time>2020-05-21T04:42:32Z</time>
      </trkpt>
      <trkpt lat="43.250170" lon="-5.400430">
        <ele>545.115</ele>
        <time>2020-05-21T04:42:52Z</time>
      </trkpt>
      <trkpt lat="43.250170" lon="-5.400410">
        <ele>545.810</ele>
        <time>2020-05-21T04:43:12Z</time>
      </trkpt>
      <trkpt lat="43.250130" lon="-5.400340">
        <ele>546.567</ele>
        <time>2020-05-21T04:43:32Z</time>
      </trkpt>
      <trkpt lat="43.250080" lon="-5.400210">
        <ele>547.173</ele>
        <time>2020-05-21T04:43:52Z</time>
      </trkpt>
      <trkpt lat="43.250060" lon="-5.400130">
        <ele>547.472</ele>
        <time>2020-05-21T04:44:12Z</time>
      </trkpt>
      <trkpt lat="43.250040" lon="-5.399950">
        <ele>548.749</ele>
        <time>2020-05-21T04:44:32Z</time>
      </trkpt>
      <trkpt lat="43.250010" lon="-5.399710">
        <ele>548.914</ele>
        <time>2020-05-21T04:44:52Z</time>
      </trkpt>
      <trkpt lat="43.250000" lon="-5.399600">
        <ele>550.658</ele>
        <time>2020-05-21T04:45:12Z</time>
      </trkpt>
      <trkpt lat="43.249990" lon="-5.399540">
        <ele>551.523</ele>
        <time>2020-05-21T04:45:32Z</time>
      </trkpt>
      <trkpt lat="43.249980" lon="-5.399490">
        <ele>552.283</ele>
        <time>2020-05-21T04:45:52Z</time>
      </trkpt>
      <trkpt lat="43.249980" lon="-5.399470">
        <ele>552.611</ele>
        <time>2020-05-21T04:46:12Z</time>
      </trkpt>
      <trkpt lat="43.249970" lon="-5.399450">
        <ele>552.608</ele>
        <time>2020-05-21T04:46:32Z</time>
      </trkpt>
      <trkpt lat="43.249950" lon="-5.399420">
        <ele>552.666</ele>
        <time>2020-05-21T04:46:52Z</time>
      </trkpt>
      <trkpt lat="43.249930" lon="-5.399380">
        <ele>553.051</ele>
        <time>2020-05-21T04:47:12Z</time>
      </trkpt>
      <trkpt lat="43.249860" lon="-5.399280">
        <ele>553.028</ele>
        <time>2020-05-21T04:47:32Z</time>
      </trkpt>
      <trkpt lat="43.249830" lon="-5.399240">
        <ele>552.894</ele>
        <time>2020-05-21T04:47:52Z</time>
      </trkpt>
      <trkpt lat="43.249730" lon="-5.399100">
        <ele>551.823</ele>
        <time>2020-05-21T04:48:12Z</time>
      </trkpt>
      <trkpt lat="43.249680" lon="-5.399030">
        <ele>552.010</ele>
        <time>2020-05-21T04:48:32Z</time>
      </trkpt>
      <trkpt lat="43.249630" lon="-5.398910">
        <ele>553.685</ele>
        <time>2020-05-21T04:48:52Z</time>
      </trkpt>
      <trkpt lat="43.249570" lon="-5.398790">
        <ele>553.729</ele>
        <time>2020-05-21T04:49:12Z</time>
      </trkpt>
      <trkpt lat="43.249540" lon="-5.398710">
        <ele>553.886</ele>
        <time>2020-05-21T04:49:32Z</time>
      </trkpt>
      <trkpt lat="43.249540" lon="-5.398700">
        <ele>553.960</ele>
        <time>2020-05-21T04:49:52Z</time>
      </trkpt>
      <trkpt lat="43.249530" lon="-5.398660">
        <ele>554.026</ele>
        <time>2020-05-21T04:50:12Z</time>
      </trkpt>
      <trkpt lat="43.249530" lon="-5.398630">
        <ele>554.308</ele>
        <time>2020-05-21T04:50:32Z</time>
      </trkpt>
      <trkpt lat="43.249510" lon="-5.398530">
        <ele>553.872</ele>
        <time>2020-05-21T04:50:52Z</time>
      </trkpt>
      <trkpt lat="43.249520" lon="-5.398460">
        <ele>554.077</ele>
        <time>2020-05-21T04:51:12Z</time>
      </trkpt>
      <trkpt lat="43.249520" lon="-5.398450">
        <ele>554.014</ele>
        <time>2020-05-21T04:51:32Z</time>
      </trkpt>
      <trkpt lat="43.249520" lon="-5.398420">
        <ele>554.080</ele>
        <time>2020-05-21T04:51:52Z</time>
      </trkpt>
      <trkpt lat="43.249540" lon="-5.398380">
        <ele>554.579</ele>
        <time>2020-05-21T04:52:12Z</time>
      </trkpt>
      <trkpt lat="43.249610" lon="-5.398240">
        <ele>555.426</ele>
        <time>2020-05-21T04:52:32Z</time>
      </trkpt>
      <trkpt lat="43.249710" lon="-5.398040">
        <ele>556.621</ele>
        <time>2020-05-21T04:52:52Z</time>
      </trkpt>
      <trkpt lat="43.249760" lon="-5.397940">
        <ele>559.285</ele>
        <time>2020-05-21T04:53:12Z</time>
      </trkpt>
      <trkpt lat="43.249780" lon="-5.397890">
        <ele>560.592</ele>
        <time>2020-05-21T04:53:32Z</time>
      </trkpt>
      <trkpt lat="43.249780" lon="-5.397870">
        <ele>560.673</ele>
        <time>2020-05-21T04:53:52Z</time>
      </trkpt>
      <trkpt lat="43.249780" lon="-5.397840">
        <ele>560.720</ele>
        <time>2020-05-21T04:54:12Z</time>
      </trkpt>
      <trkpt lat="43.249780" lon="-5.397790">
        <ele>560.908</ele>
        <time>2020-05-21T04:54:32Z</time>
      </trkpt>
      <trkpt lat="43.249750" lon="-5.397600">
        <ele>560.853</ele>
        <time>2020-05-21T04:54:52Z</time>
      </trkpt>
      <trkpt lat="43.249750" lon="-5.397580">
        <ele>561.068</ele>
        <time>2020-05-21T04:55:12Z</time>
      </trkpt>
      <trkpt lat="43.249730" lon="-5.397500">
        <ele>560.585</ele>
        <time>2020-05-21T04:55:32Z</time>
      </trkpt>
      <trkpt lat="43.249700" lon="-5.397420">
        <ele>560.851</ele>
        <time>2020-05-21T04:55:52Z</time>
      </trkpt>
      <trkpt lat="43.249630" lon="-5.397250">
        <ele>561.150</ele>
        <time>2020-05-21T04:56:12Z</time>
      </trkpt>
      <trkpt lat="43.249620" lon="-5.397220">
        <ele>561.267</ele>
        <time>2020-05-21T04:56:32Z</time>
      </trkpt>
      <trkpt lat="43.249600" lon="-5.397190">
        <ele>560.752</ele>
        <time>2020-05-21T04:56:52Z</time>
      </trkpt>
      <trkpt lat="43.249520" lon="-5.397080">
        <ele>558.736</ele>
        <time>2020-05-21T04:57:12Z</time>
      </trkpt>
      <trkpt lat="43.249470" lon="-5.397030">
        <ele>557.527</ele>
        <time>2020-05-21T04:57:32Z</time>
      </trkpt>
      <trkpt lat="43.249300" lon="-5.396830">
        <ele>559.568</ele>
        <time>2020-05-21T04:57:52Z</time>
      </trkpt>
      <trkpt lat="43.249160" lon="-5.396670">
        <ele>561.714</ele>
        <time>2020-05-21T04:58:12Z</time>
      </trkpt>
      <trkpt lat="43.248940" lon="-5.396390">
        <ele>562.508</ele>
        <time>2020-05-21T04:58:32Z</time>
      </trkpt>
      <trkpt lat="43.248760" lon="-5.396180">
        <ele>562.776</ele>
        <time>2020-05-21T04:58:52Z</time>
      </trkpt>
      <trkpt lat="43.248750" lon="-5.396160">
        <ele>563.021</ele>
        <time>2020-05-21T04:59:12Z</time>
      </trkpt>
      <trkpt lat="43.248480" lon="-5.395880">
        <ele>564.338</ele>
        <time>2020-05-21T04:59:32Z</time>
      </trkpt>
      <trkpt lat="43.248400" lon="-5.395790">
        <ele>565.444</ele>
        <time>2020-05-21T04:59:52Z</time>
      </trkpt>
      <trkpt lat="43.248350" lon="-5.395730">
        <ele>566.283</ele>
        <time>2020-05-21T05:00:12Z</time>
      </trkpt>
      <trkpt lat="43.248080" lon="-5.395360">
        <ele>570.680</ele>
        <time>2020-05-21T05:00:32Z</time>
      </trkpt>
      <trkpt lat="43.247950" lon="-5.395120">
        <ele>572.315</ele>
        <time>2020-05-21T05:00:52Z</time>
      </trkpt>
      <trkpt lat="43.247930" lon="-5.395060">
        <ele>573.099</ele>
        <time>2020-05-21T05:01:12Z</time>
      </trkpt>
      <trkpt lat="43.247910" lon="-5.395030">
        <ele>573.098</ele>
        <time>2020-05-21T05:01:32Z</time>
      </trkpt>
      <trkpt lat="43.247900" lon="-5.394990">
        <ele>573.315</ele>
        <time>2020-05-21T05:01:52Z</time>
      </trkpt>
      <trkpt lat="43.247900" lon="-5.394950">
        <ele>573.226</ele>
        <time>2020-05-21T05:02:12Z</time>
      </trkpt>
      <trkpt lat="43.247900" lon="-5.394940">
        <ele>573.208</ele>
        <time>2020-05-21T05:02:32Z</time>
      </trkpt>
      <trkpt lat="43.247900" lon="-5.394890">
        <ele>573.183</ele>
        <time>2020-05-21T05:02:52Z</time>
      </trkpt>
      <trkpt lat="43.247950" lon="-5.394490">
        <ele>575.138</ele>
        <time>2020-05-21T05:03:12Z</time>
      </trkpt>
      <trkpt lat="43.248000" lon="-5.394230">
        <ele>578.255</ele>
        <time>2020-05-21T05:03:32Z</time>
      </trkpt>
      <trkpt lat="43.248040" lon="-5.394020">
        <ele>583.951</ele>
        <time>2020-05-21T05:03:52Z</time>
      </trkpt>
      <trkpt lat="43.248040" lon="-5.393990">
        <ele>584.710</ele>
        <time>2020-05-21T05:04:12Z</time>
      </trkpt>
      <trkpt lat="43.248040" lon="-5.393980">
        <ele>584.927</ele>
        <time>2020-05-21T05:04:32Z</time>
      </trkpt>
      <trkpt lat="43.248040" lon="-5.393960">
        <ele>585.412</ele>
        <time>2020-05-21T05:04:52Z</time>
      </trkpt>
      <trkpt lat="43.248030" lon="-5.393930">
        <ele>585.666</ele>
        <time>2020-05-21T05:05:12Z</time>
      </trkpt>
      <trkpt lat="43.248030" lon="-5.393910">
        <ele>586.122</ele>
        <time>2020-05-21T05:05:32Z</time>
      </trkpt>
      <trkpt lat="43.248020" lon="-5.393900">
        <ele>585.862</ele>
        <time>2020-05-21T05:05:52Z</time>
      </trkpt>
      <trkpt lat="43.248000" lon="-5.393880">
        <ele>585.408</ele>
        <time>2020-05-21T05:06:12Z</time>
      </trkpt>
      <trkpt lat="43.247980" lon="-5.393860">
        <ele>585.108</ele>
        <time>2020-05-21T05:06:32Z</time>
      </trkpt>
      <trkpt lat="43.247950" lon="-5.393850">
        <ele>583.746</ele>
        <time>2020-05-21T05:06:52Z</time>
      </trkpt>
      <trkpt lat="43.247930" lon="-5.393850">
        <ele>582.421</ele>
        <time>2020-05-21T05:07:12Z</time>
      </trkpt>
      <trkpt lat="43.247920" lon="-5.393850">
        <ele>581.858</ele>
        <time>2020-05-21T05:07:32Z</time>
      </trkpt>
      <trkpt lat="43.247860" lon="-5.393840">
        <ele>578.364</ele>
        <time>2020-05-21T05:07:52Z</time>
      </trkpt>
      <trkpt lat="43.247780" lon="-5.393840">
        <ele>573.353</ele>
        <time>2020-05-21T05:08:12Z</time>
      </trkpt>
      <trkpt lat="43.247740" lon="-5.393840">
        <ele>573.750</ele>
        <time>2020-05-21T05:08:32Z</time>
      </trkpt>
      <trkpt lat="43.247720" lon="-5.393840">
        <ele>574.025</ele>
        <time>2020-05-21T05:08:52Z</time>
      </trkpt>
      <trkpt lat="43.247660" lon="-5.393860">
        <ele>574.859</ele>
        <time>2020-05-21T05:09:12Z</time>
      </trkpt>
      <trkpt lat="43.247500" lon="-5.393920">
        <ele>576.348</ele>
        <time>2020-05-21T05:09:32Z</time>
      </trkpt>
      <trkpt lat="43.247400" lon="-5.393980">
        <ele>578.261</ele>
        <time>2020-05-21T05:09:52Z</time>
      </trkpt>
      <trkpt lat="43.247330" lon="-5.394010">
        <ele>579.417</ele>
        <time>2020-05-21T05:10:12Z</time>
      </trkpt>
      <trkpt lat="43.247290" lon="-5.394020">
        <ele>580.308</ele>
        <time>2020-05-21T05:10:32Z</time>
      </trkpt>
      <trkpt lat="43.247220" lon="-5.394040">
        <ele>581.678</ele>
        <time>2020-05-21T05:10:52Z</time>
      </trkpt>
      <trkpt lat="43.247170" lon="-5.394040">
        <ele>581.743</ele>
        <time>2020-05-21T05:11:12Z</time>
      </trkpt>
      <trkpt lat="43.247100" lon="-5.394040">
        <ele>581.850</ele>
        <time>2020-05-21T05:11:32Z</time>
      </trkpt>
      <trkpt lat="43.247040" lon="-5.394030">
        <ele>582.316</ele>
        <time>2020-05-21T05:11:52Z</time>
      </trkpt>
      <trkpt lat="43.246880" lon="-5.393980">
        <ele>583.735</ele>
        <time>2020-05-21T05:12:12Z</time>
      </trkpt>
      <trkpt lat="43.246870" lon="-5.393980">
        <ele>583.612</ele>
        <time>2020-05-21T05:12:32Z</time>
      </trkpt>
      <trkpt lat="43.246680" lon="-5.393920">
        <ele>584.297</ele>
        <time>2020-05-21T05:12:52Z</time>
      </trkpt>
      <trkpt lat="43.246520" lon="-5.393860">
        <ele>584.481</ele>
        <time>2020-05-21T05:13:12Z</time>
      </trkpt>
      <trkpt lat="43.246510" lon="-5.393860">
        <ele>584.255</ele>
        <time>2020-05-21T05:13:32Z</time>
      </trkpt>
      <trkpt lat="43.246480" lon="-5.393850">
        <ele>584.207</ele>
        <time>2020-05-21T05:13:52Z</time>
      </trkpt>
      <trkpt lat="43.246460" lon="-5.393840">
        <ele>584.417</ele>
        <time>2020-05-21T05:14:12Z</time>
      </trkpt>
      <trkpt lat="43.246450" lon="-5.393830">
        <ele>584.608</ele>
        <time>2020-05-21T05:14:32Z</time>
      </trkpt>
      <trkpt lat="43.246430" lon="-5.393810">
        <ele>585.089</ele>
        <time>2020-05-21T05:14:52Z</time>
      </trkpt>
      <trkpt lat="43.246420" lon="-5.393790">
        <ele>585.534</ele>
        <time>2020-05-21T05:15:12Z</time>
      </trkpt>
      <trkpt lat="43.246410" lon="-5.393770">
        <ele>586.191</ele>
        <time>2020-05-21T05:15:32Z</time>
      </trkpt>
      <trkpt lat="43.246410" lon="-5.393750">
        <ele>586.797</ele>
        <time>2020-05-21T05:15:52Z</time>
      </trkpt>
      <trkpt lat="43.246410" lon="-5.393730">
        <ele>587.496</ele>
        <time>2020-05-21T05:16:12Z</time>
      </trkpt>
      <trkpt lat="43.246410" lon="-5.393700">
        <ele>588.383</ele>
        <time>2020-05-21T05:16:32Z</time>
      </trkpt>
      <trkpt lat="43.246420" lon="-5.393680">
        <ele>589.128</ele>
        <time>2020-05-21T05:16:52Z</time>
      </trkpt>
      <trkpt lat="43.246430" lon="-5.393670">
        <ele>589.582</ele>
        <time>2020-05-21T05:17:12Z</time>
      </trkpt>
      <trkpt lat="43.246430" lon="-5.393660">
        <ele>589.971</ele>
        <time>2020-05-21T05:17:32Z</time>
      </trkpt>
      <trkpt lat="43.246440" lon="-5.393660">
        <ele>590.041</ele>
        <time>2020-05-21T05:17:52Z</time>
      </trkpt>
      <trkpt lat="43.246460" lon="-5.393650">
        <ele>590.515</ele>
        <time>2020-05-21T05:18:12Z</time>
      </trkpt>
      <trkpt lat="43.246480" lon="-5.393650">
        <ele>590.708</ele>
        <time>2020-05-21T05:18:32Z</time>
      </trkpt>
      <trkpt lat="43.246520" lon="-5.393660">
        <ele>590.861</ele>
        <time>2020-05-21T05:18:52Z</time>
      </trkpt>
      <trkpt lat="43.246570" lon="-5.393660">
        <ele>591.456</ele>
        <time>2020-05-21T05:19:12Z</time>
      </trkpt>
      <trkpt lat="43.246600" lon="-5.393670">
        <ele>591.483</ele>
        <time>2020-05-21T05:19:32Z</time>
      </trkpt>
      <trkpt lat="43.246640" lon="-5.393680">
        <ele>591.599</ele>
        <time>2020-05-21T05:19:52Z</time>
      </trkpt>
      <trkpt lat="43.246730" lon="-5.393710">
        <ele>591.378</ele>
        <time>2020-05-21T05:20:12Z</time>
      </trkpt>
      <trkpt lat="43.246780" lon="-5.393720">
        <ele>591.325</ele>
        <time>2020-05-21T05:20:32Z</time>
      </trkpt>
      <trkpt lat="43.246810" lon="-5.393730">
        <ele>591.290</ele>
        <time>2020-05-21T05:20:52Z</time>
      </trkpt>
      <trkpt lat="43.246850" lon="-5.393730">
        <ele>591.594</ele>
        <time>2020-05-21T05:21:12Z</time>
      </trkpt>
      <trkpt lat="43.246860" lon="-5.393730">
        <ele>591.521</ele>
        <time>2020-05-21T05:21:32Z</time>
      </trkpt>
      <trkpt lat="43.246870" lon="-5.393720">
        <ele>591.941</ele>
        <time>2020-05-21T05:21:52Z</time>
      </trkpt>
      <trkpt lat="43.246890" lon="-5.393710">
        <ele>592.405</ele>
        <time>2020-05-21T05:22:12Z</time>
      </trkpt>
      <trkpt lat="43.246900" lon="-5.393700">
        <ele>592.808</ele>
        <time>2020-05-21T05:22:32Z</time>
      </trkpt>
      <trkpt lat="43.246910" lon="-5.393690">
        <ele>593.256</ele>
        <time>2020-05-21T05:22:52Z</time>
      </trkpt>
      <trkpt lat="43.246910" lon="-5.393670">
        <ele>593.881</ele>
        <time>2020-05-21T05:23:12Z</time>
      </trkpt>
      <trkpt lat="43.246910" lon="-5.393660">
        <ele>594.278</ele>
        <time>2020-05-21T05:23:32Z</time>
      </trkpt>
      <trkpt lat="43.246920" lon="-5.393650">
        <ele>594.624</ele>
        <time>2020-05-21T05:23:52Z</time>
      </trkpt>
      <trkpt lat="43.246920" lon="-5.393640">
        <ele>594.913</ele>
        <time>2020-05-21T05:24:12Z</time>
      </trkpt>
      <trkpt lat="43.246920" lon="-5.393630">
        <ele>595.220</ele>
        <time>2020-05-21T05:24:32Z</time>
      </trkpt>
      <trkpt lat="43.246920" lon="-5.393620">
        <ele>595.545</ele>
        <time>2020-05-21T05:24:52Z</time>
      </trkpt>
      <trkpt lat="43.246910" lon="-5.393610">
        <ele>595.899</ele>
        <time>2020-05-21T05:25:12Z</time>
      </trkpt>
      <trkpt lat="43.246900" lon="-5.393600">
        <ele>596.024</ele>
        <time>2020-05-21T05:25:32Z</time>
      </trkpt>
      <trkpt lat="43.246890" lon="-5.393580">
        <ele>596.504</ele>
        <time>2020-05-21T05:25:52Z</time>
      </trkpt>
      <trkpt lat="43.246870" lon="-5.393560">
        <ele>596.914</ele>
        <time>2020-05-21T05:26:12Z</time>
      </trkpt>
      <trkpt lat="43.246800" lon="-5.393500">
        <ele>598.008</ele>
        <time>2020-05-21T05:26:32Z</time>
      </trkpt>
      <trkpt lat="43.246660" lon="-5.393390">
        <ele>599.526</ele>
        <time>2020-05-21T05:26:52Z</time>
      </trkpt>
      <trkpt lat="43.246650" lon="-5.393380">
        <ele>599.651</ele>
        <time>2020-05-21T05:27:12Z</time>
      </trkpt>
      <trkpt lat="43.246500" lon="-5.393250">
        <ele>601.818</ele>
        <time>2020-05-21T05:27:32Z</time>
      </trkpt>
      <trkpt lat="43.246370" lon="-5.393140">
        <ele>603.344</ele>
        <time>2020-05-21T05:27:52Z</time>
      </trkpt>
      <trkpt lat="43.246340" lon="-5.393120">
        <ele>603.613</ele>
        <time>2020-05-21T05:28:12Z</time>
      </trkpt>
      <trkpt lat="43.246140" lon="-5.392960">
        <ele>606.470</ele>
        <time>2020-05-21T05:28:32Z</time>
      </trkpt>
      <trkpt lat="43.246040" lon="-5.392900">
        <ele>607.245</ele>
        <time>2020-05-21T05:28:52Z</time>
      </trkpt>
      <trkpt lat="43.246020" lon="-5.392900">
        <ele>606.949</ele>
        <time>2020-05-21T05:29:12Z</time>
      </trkpt>
      <trkpt lat="43.245930" lon="-5.392860">
        <ele>607.229</ele>
        <time>2020-05-21T05:29:32Z</time>
      </trkpt>
      <trkpt lat="43.245700" lon="-5.392780">
        <ele>608.400</ele>
        <time>2020-05-21T05:29:52Z</time>
      </trkpt>
      <trkpt lat="43.245570" lon="-5.392740">
        <ele>610.020</ele>
        <time>2020-05-21T05:30:12Z</time>
      </trkpt>
      <trkpt lat="43.245500" lon="-5.392710">
        <ele>611.408</ele>
        <time>2020-05-21T05:30:32Z</time>
      </trkpt>
      <trkpt lat="43.245480" lon="-5.392700">
        <ele>611.826</ele>
        <time>2020-05-21T05:30:52Z</time>
      </trkpt>
      <trkpt lat="43.245390" lon="-5.392680">
        <ele>612.721</ele>
        <time>2020-05-21T05:31:12Z</time>
      </trkpt>
      <trkpt lat="43.245320" lon="-5.392680">
        <ele>612.658</ele>
        <time>2020-05-21T05:31:32Z</time>
      </trkpt>
      <trkpt lat="43.245300" lon="-5.392680">
        <ele>612.634</ele>
        <time>2020-05-21T05:31:52Z</time>
      </trkpt>
      <trkpt lat="43.245210" lon="-5.392680">
        <ele>613.643</ele>
        <time>2020-05-21T05:32:12Z</time>
      </trkpt>
      <trkpt lat="43.245140" lon="-5.392700">
        <ele>613.850</ele>
        <time>2020-05-21T05:32:32Z</time>
      </trkpt>
      <trkpt lat="43.245000" lon="-5.392740">
        <ele>614.515</ele>
        <time>2020-05-21T05:32:52Z</time>
      </trkpt>
      <trkpt lat="43.244970" lon="-5.392750">
        <ele>614.819</ele>
        <time>2020-05-21T05:33:12Z</time>
      </trkpt>
      <trkpt lat="43.244900" lon="-5.392770">
        <ele>615.525</ele>
        <time>2020-05-21T05:33:32Z</time>
      </trkpt>
      <trkpt lat="43.244860" lon="-5.392790">
        <ele>615.526</ele>
        <time>2020-05-21T05:33:52Z</time>
      </trkpt>
      <trkpt lat="43.244810" lon="-5.392800">
        <ele>616.208</ele>
        <time>2020-05-21T05:34:12Z</time>
      </trkpt>
      <trkpt lat="43.244790" lon="-5.392810">
        <ele>616.308</ele>
        <time>2020-05-21T05:34:32Z</time>
      </trkpt>
      <trkpt lat="43.244770" lon="-5.392810">
        <ele>616.746</ele>
        <time>2020-05-21T05:34:52Z</time>
      </trkpt>
      <trkpt lat="43.244730" lon="-5.392810">
        <ele>617.681</ele>
        <time>2020-05-21T05:35:12Z</time>
      </trkpt>
      <trkpt lat="43.244670" lon="-5.392800">
        <ele>618.678</ele>
        <time>2020-05-21T05:35:32Z</time>
      </trkpt>
      <trkpt lat="43.244620" lon="-5.392790">
        <ele>619.364</ele>
        <time>2020-05-21T05:35:52Z</time>
      </trkpt>
      <trkpt lat="43.244610" lon="-5.392790">
        <ele>619.423</ele>
        <time>2020-05-21T05:36:12Z</time>
      </trkpt>
      <trkpt lat="43.244560" lon="-5.392790">
        <ele>619.820</ele>
        <time>2020-05-21T05:36:32Z</time>
      </trkpt>
      <trkpt lat="43.244500" lon="-5.392800">
        <ele>620.085</ele>
        <time>2020-05-21T05:36:52Z</time>
      </trkpt>
      <trkpt lat="43.244440" lon="-5.392820">
        <ele>620.179</ele>
        <time>2020-05-21T05:37:12Z</time>
      </trkpt>
      <trkpt lat="43.244400" lon="-5.392840">
        <ele>620.777</ele>
        <time>2020-05-21T05:37:32Z</time>
      </trkpt>
      <trkpt lat="43.244290" lon="-5.392910">
        <ele>622.161</ele>
        <time>2020-05-21T05:37:52Z</time>
      </trkpt>
      <trkpt lat="43.244270" lon="-5.392920">
        <ele>622.427</ele>
        <time>2020-05-21T05:38:12Z</time>
      </trkpt>
      <trkpt lat="43.244170" lon="-5.392990">
        <ele>623.608</ele>
        <time>2020-05-21T05:38:32Z</time>
      </trkpt>
      <trkpt lat="43.244140" lon="-5.393010">
        <ele>623.541</ele>
        <time>2020-05-21T05:38:52Z</time>
      </trkpt>
      <trkpt lat="43.244110" lon="-5.393030">
        <ele>623.456</ele>
        <time>2020-05-21T05:39:12Z</time>
      </trkpt>
      <trkpt lat="43.244070" lon="-5.393030">
        <ele>624.043</ele>
        <time>2020-05-21T05:39:32Z</time>
      </trkpt>
      <trkpt lat="43.244020" lon="-5.393030">
        <ele>624.749</ele>
        <time>2020-05-21T05:39:52Z</time>
      </trkpt>
      <trkpt lat="43.243970" lon="-5.393030">
        <ele>625.468</ele>
        <time>2020-05-21T05:40:12Z</time>
      </trkpt>
      <trkpt lat="43.243930" lon="-5.393020">
        <ele>626.225</ele>
        <time>2020-05-21T05:40:32Z</time>
      </trkpt>
      <trkpt lat="43.243890" lon="-5.393010">
        <ele>627.070</ele>
        <time>2020-05-21T05:40:52Z</time>
      </trkpt>
      <trkpt lat="43.243820" lon="-5.392980">
        <ele>627.394</ele>
        <time>2020-05-21T05:41:12Z</time>
      </trkpt>
      <trkpt lat="43.243770" lon="-5.392950">
        <ele>627.762</ele>
        <time>2020-05-21T05:41:32Z</time>
      </trkpt>
      <trkpt lat="43.243760" lon="-5.392940">
        <ele>627.883</ele>
        <time>2020-05-21T05:41:52Z</time>
      </trkpt>
      <trkpt lat="43.243660" lon="-5.392880">
        <ele>628.411</ele>
        <time>2020-05-21T05:42:12Z</time>
      </trkpt>
      <trkpt lat="43.243600" lon="-5.392840">
        <ele>628.908</ele>
        <time>2020-05-21T05:42:32Z</time>
      </trkpt>
      <trkpt lat="43.243540" lon="-5.392790">
        <ele>629.540</ele>
        <time>2020-05-21T05:42:52Z</time>
      </trkpt>
      <trkpt lat="43.243490" lon="-5.392760">
        <ele>629.995</ele>
        <time>2020-05-21T05:43:12Z</time>
      </trkpt>
      <trkpt lat="43.243440" lon="-5.392720">
        <ele>630.562</ele>
        <time>2020-05-21T05:43:32Z</time>
      </trkpt>
      <trkpt lat="43.243390" lon="-5.392670">
        <ele>631.278</ele>
        <time>2020-05-21T05:43:52Z</time>
      </trkpt>
      <trkpt lat="43.243380" lon="-5.392640">
        <ele>631.727</ele>
        <time>2020-05-21T05:44:12Z</time>
      </trkpt>
      <trkpt lat="43.243370" lon="-5.392620">
        <ele>632.094</ele>
        <time>2020-05-21T05:44:32Z</time>
      </trkpt>
      <trkpt lat="43.243360" lon="-5.392590">
        <ele>632.569</ele>
        <time>2020-05-21T05:44:52Z</time>
      </trkpt>
      <trkpt lat="43.243360" lon="-5.392560">
        <ele>633.133</ele>
        <time>2020-05-21T05:45:12Z</time>
      </trkpt>
      <trkpt lat="43.243360" lon="-5.392530">
        <ele>633.641</ele>
        <time>2020-05-21T05:45:32Z</time>
      </trkpt>
      <trkpt lat="43.243370" lon="-5.392500">
        <ele>634.381</ele>
        <time>2020-05-21T05:45:52Z</time>
      </trkpt>
      <trkpt lat="43.243370" lon="-5.392480">
        <ele>634.609</ele>
        <time>2020-05-21T05:46:12Z</time>
      </trkpt>
      <trkpt lat="43.243380" lon="-5.392470">
        <ele>634.808</ele>
        <time>2020-05-21T05:46:32Z</time>
      </trkpt>
      <trkpt lat="43.243400" lon="-5.392450">
        <ele>635.378</ele>
        <time>2020-05-21T05:46:52Z</time>
      </trkpt>
      <trkpt lat="43.243410" lon="-5.392440">
        <ele>635.673</ele>
        <time>2020-05-21T05:47:12Z</time>
      </trkpt>
      <trkpt lat="43.243420" lon="-5.392430">
        <ele>635.920</ele>
        <time>2020-05-21T05:47:32Z</time>
      </trkpt>
      <trkpt lat="43.243430" lon="-5.392430">
        <ele>636.096</ele>
        <time>2020-05-21T05:47:52Z</time>
      </trkpt>
      <trkpt lat="43.243450" lon="-5.392420">
        <ele>636.415</ele>
        <time>2020-05-21T05:48:12Z</time>
      </trkpt>
      <trkpt lat="43.243480" lon="-5.392410">
        <ele>636.912</ele>
        <time>2020-05-21T05:48:32Z</time>
      </trkpt>
      <trkpt lat="43.243510" lon="-5.392410">
        <ele>637.247</ele>
        <time>2020-05-21T05:48:52Z</time>
      </trkpt>
      <trkpt lat="43.243570" lon="-5.392410">
        <ele>637.891</ele>
        <time>2020-05-21T05:49:12Z</time>
      </trkpt>
      <trkpt lat="43.243630" lon="-5.392410">
        <ele>638.471</ele>
        <time>2020-05-21T05:49:32Z</time>
      </trkpt>
      <trkpt lat="43.243700" lon="-5.392400">
        <ele>639.041</ele>
        <time>2020-05-21T05:49:52Z</time>
      </trkpt>
      <trkpt lat="43.243810" lon="-5.392400">
        <ele>639.715</ele>
        <time>2020-05-21T05:50:12Z</time>
      </trkpt>
      <trkpt lat="43.244020" lon="-5.392390">
        <ele>640.108</ele>
        <time>2020-05-21T05:50:32Z</time>
      </trkpt>
      <trkpt lat="43.244170" lon="-5.392380">
        <ele>640.081</ele>
        <time>2020-05-21T05:50:52Z</time>
      </trkpt>
      <trkpt lat="43.244210" lon="-5.392370">
        <ele>640.376</ele>
        <time>2020-05-21T05:51:12Z</time>
      </trkpt>
      <trkpt lat="43.244370" lon="-5.392340">
        <ele>641.723</ele>
        <time>2020-05-21T05:51:32Z</time>
      </trkpt>
      <trkpt lat="43.244470" lon="-5.392320">
        <ele>642.359</ele>
        <time>2020-05-21T05:51:52Z</time>
      </trkpt>
      <trkpt lat="43.244520" lon="-5.392300">
        <ele>642.478</ele>
        <time>2020-05-21T05:52:12Z</time>
      </trkpt>
      <trkpt lat="43.244600" lon="-5.392270">
        <ele>642.285</ele>
        <time>2020-05-21T05:52:32Z</time>
      </trkpt>
      <trkpt lat="43.244700" lon="-5.392230">
        <ele>642.120</ele>
        <time>2020-05-21T05:52:52Z</time>
      </trkpt>
      <trkpt lat="43.244780" lon="-5.392200">
        <ele>641.864</ele>
        <time>2020-05-21T05:53:12Z</time>
      </trkpt>
      <trkpt lat="43.244850" lon="-5.392170">
        <ele>641.883</ele>
        <time>2020-05-21T05:53:32Z</time>
      </trkpt>
      <trkpt lat="43.244870" lon="-5.392160">
        <ele>641.925</ele>
        <time>2020-05-21T05:53:52Z</time>
      </trkpt>
      <trkpt lat="43.244890" lon="-5.392140">
        <ele>642.517</ele>
        <time>2020-05-21T05:54:12Z</time>
      </trkpt>
      <trkpt lat="43.244920" lon="-5.392120">
        <ele>642.908</ele>
        <time>2020-05-21T05:54:32Z</time>
      </trkpt>
      <trkpt lat="43.244940" lon="-5.392110">
        <ele>643.152</ele>
        <time>2020-05-21T05:54:52Z</time>
      </trkpt>
      <trkpt lat="43.244950" lon="-5.392100">
        <ele>643.427</ele>
        <time>2020-05-21T05:55:12Z</time>
      </trkpt>
      <trkpt lat="43.244950" lon="-5.392090">
        <ele>643.824</ele>
        <time>2020-05-21T05:55:32Z</time>
      </trkpt>
      <trkpt lat="43.244950" lon="-5.392070">
        <ele>644.740</ele>
        <time>2020-05-21T05:55:52Z</time>
      </trkpt>
      <trkpt lat="43.244960" lon="-5.392060">
        <ele>645.119</ele>
        <time>2020-05-21T05:56:12Z</time>
      </trkpt>
      <trkpt lat="43.244960" lon="-5.392040">
        <ele>646.016</ele>
        <time>2020-05-21T05:56:32Z</time>
      </trkpt>
      <trkpt lat="43.244960" lon="-5.392020">
        <ele>646.961</ele>
        <time>2020-05-21T05:56:52Z</time>
      </trkpt>
      <trkpt lat="43.244950" lon="-5.392000">
        <ele>647.965</ele>
        <time>2020-05-21T05:57:12Z</time>
      </trkpt>
      <trkpt lat="43.244950" lon="-5.391980">
        <ele>648.813</ele>
        <time>2020-05-21T05:57:32Z</time>
      </trkpt>
      <trkpt lat="43.244940" lon="-5.391970">
        <ele>649.343</ele>
        <time>2020-05-21T05:57:52Z</time>
      </trkpt>
      <trkpt lat="43.244920" lon="-5.391960">
        <ele>649.907</ele>
        <time>2020-05-21T05:58:12Z</time>
      </trkpt>
      <trkpt lat="43.244900" lon="-5.391960">
        <ele>650.108</ele>
        <time>2020-05-21T05:58:32Z</time>
      </trkpt>
      <trkpt lat="43.244880" lon="-5.391960">
        <ele>650.225</ele>
        <time>2020-05-21T05:58:52Z</time>
      </trkpt>
      <trkpt lat="43.244850" lon="-5.391960">
        <ele>650.430</ele>
        <time>2020-05-21T05:59:12Z</time>
      </trkpt>
      <trkpt lat="43.244790" lon="-5.391990">
        <ele>649.887</ele>
        <time>2020-05-21T05:59:32Z</time>
      </trkpt>
      <trkpt lat="43.244780" lon="-5.391990">
        <ele>649.813</ele>
        <time>2020-05-21T05:59:52Z</time>
      </trkpt>
      <trkpt lat="43.244690" lon="-5.392030">
        <ele>649.522</ele>
        <time>2020-05-21T06:00:12Z</time>
      </trkpt>
      <trkpt lat="43.244590" lon="-5.392080">
        <ele>649.569</ele>
        <time>2020-05-21T06:00:32Z</time>
      </trkpt>
      <trkpt lat="43.244530" lon="-5.392110">
        <ele>649.534</ele>
        <time>2020-05-21T06:00:52Z</time>
      </trkpt>
      <trkpt lat="43.244500" lon="-5.392120">
        <ele>649.758</ele>
        <time>2020-05-21T06:01:12Z</time>
      </trkpt>
      <trkpt lat="43.244480" lon="-5.392120">
        <ele>650.097</ele>
        <time>2020-05-21T06:01:32Z</time>
      </trkpt>
      <trkpt lat="43.244450" lon="-5.392120">
        <ele>650.623</ele>
        <time>2020-05-21T06:01:52Z</time>
      </trkpt>
      <trkpt lat="43.244430" lon="-5.392120">
        <ele>650.525</ele>
        <time>2020-05-21T06:02:12Z</time>
      </trkpt>
      <trkpt lat="43.244420" lon="-5.392120">
        <ele>650.408</ele>
        <time>2020-05-21T06:02:32Z</time>
      </trkpt>
      <trkpt lat="43.244390" lon="-5.392110">
        <ele>650.343</ele>
        <time>2020-05-21T06:02:52Z</time>
      </trkpt>
      <trkpt lat="43.244360" lon="-5.392090">
        <ele>650.668</ele>
        <time>2020-05-21T06:03:12Z</time>
      </trkpt>
      <trkpt lat="43.244310" lon="-5.392060">
        <ele>650.865</ele>
        <time>2020-05-21T06:03:32Z</time>
      </trkpt>
      <trkpt lat="43.244260" lon="-5.392000">
        <ele>651.931</ele>
        <time>2020-05-21T06:03:52Z</time>
      </trkpt>
      <trkpt lat="43.244210" lon="-5.391940">
        <ele>652.940</ele>
        <time>2020-05-21T06:04:12Z</time>
      </trkpt>
      <trkpt lat="43.244170" lon="-5.391880">
        <ele>654.167</ele>
        <time>2020-05-21T06:04:32Z</time>
      </trkpt>
      <trkpt lat="43.244140" lon="-5.391840">
        <ele>655.252</ele>
        <time>2020-05-21T06:04:52Z</time>
      </trkpt>
      <trkpt lat="43.244100" lon="-5.391800">
        <ele>656.266</ele>
        <time>2020-05-21T06:05:12Z</time>
      </trkpt>
      <trkpt lat="43.244080" lon="-5.391780">
        <ele>656.697</ele>
        <time>2020-05-21T06:05:32Z</time>
      </trkpt>
      <trkpt lat="43.244050" lon="-5.391760">
        <ele>657.023</ele>
        <time>2020-05-21T06:05:52Z</time>
      </trkpt>
      <trkpt lat="43.244010" lon="-5.391740">
        <ele>657.225</ele>
        <time>2020-05-21T06:06:12Z</time>
      </trkpt>
      <trkpt lat="43.243930" lon="-5.391710">
        <ele>657.308</ele>
        <time>2020-05-21T06:06:32Z</time>
      </trkpt>
      <trkpt lat="43.243860" lon="-5.391700">
        <ele>657.243</ele>
        <time>2020-05-21T06:06:52Z</time>
      </trkpt>
      <trkpt lat="43.243810" lon="-5.391690">
        <ele>657.698</ele>
        <time>2020-05-21T06:07:12Z</time>
      </trkpt>
      <trkpt lat="43.243630" lon="-5.391650">
        <ele>659.455</ele>
        <time>2020-05-21T06:07:32Z</time>
      </trkpt>
      <trkpt lat="43.243450" lon="-5.391610">
        <ele>660.721</ele>
        <time>2020-05-21T06:07:52Z</time>
      </trkpt>
      <trkpt lat="43.243410" lon="-5.391600">
        <ele>661.070</ele>
        <time>2020-05-21T06:08:12Z</time>
      </trkpt>
      <trkpt lat="43.243310" lon="-5.391560">
        <ele>662.127</ele>
        <time>2020-05-21T06:08:32Z</time>
      </trkpt>
      <trkpt lat="43.243280" lon="-5.391550">
        <ele>662.182</ele>
        <time>2020-05-21T06:08:52Z</time>
      </trkpt>
      <trkpt lat="43.243100" lon="-5.391450">
        <ele>663.866</ele>
        <time>2020-05-21T06:09:12Z</time>
      </trkpt>
      <trkpt lat="43.242960" lon="-5.391360">
        <ele>665.792</ele>
        <time>2020-05-21T06:09:32Z</time>
      </trkpt>
      <trkpt lat="43.242880" lon="-5.391300">
        <ele>667.173</ele>
        <time>2020-05-21T06:09:52Z</time>
      </trkpt>
      <trkpt lat="43.242810" lon="-5.391260">
        <ele>667.920</ele>
        <time>2020-05-21T06:10:12Z</time>
      </trkpt>
      <trkpt lat="43.242730" lon="-5.391230">
        <ele>668.308</ele>
        <time>2020-05-21T06:10:32Z</time>
      </trkpt>
      <trkpt lat="43.242660" lon="-5.391220">
        <ele>667.943</ele>
        <time>2020-05-21T06:10:52Z</time>
      </trkpt>
      <trkpt lat="43.242610" lon="-5.391200">
        <ele>668.468</ele>
        <time>2020-05-21T06:11:12Z</time>
      </trkpt>
      <trkpt lat="43.242570" lon="-5.391190">
        <ele>668.525</ele>
        <time>2020-05-21T06:11:32Z</time>
      </trkpt>
      <trkpt lat="43.242430" lon="-5.391130">
        <ele>669.271</ele>
        <time>2020-05-21T06:11:52Z</time>
      </trkpt>
      <trkpt lat="43.242320" lon="-5.391040">
        <ele>670.540</ele>
        <time>2020-05-21T06:12:12Z</time>
      </trkpt>
      <trkpt lat="43.242280" lon="-5.391000">
        <ele>671.157</ele>
        <time>2020-05-21T06:12:32Z</time>
      </trkpt>
      <trkpt lat="43.242150" lon="-5.390880">
        <ele>673.052</ele>
        <time>2020-05-21T06:12:52Z</time>
      </trkpt>
      <trkpt lat="43.242130" lon="-5.390860">
        <ele>673.656</ele>
        <time>2020-05-21T06:13:12Z</time>
      </trkpt>
      <trkpt lat="43.242080" lon="-5.390810">
        <ele>674.777</ele>
        <time>2020-05-21T06:13:32Z</time>
      </trkpt>
      <trkpt lat="43.241970" lon="-5.390760">
        <ele>674.861</ele>
        <time>2020-05-21T06:13:52Z</time>
      </trkpt>
      <trkpt lat="43.241940" lon="-5.390740">
        <ele>675.027</ele>
        <time>2020-05-21T06:14:12Z</time>
      </trkpt>
      <trkpt lat="43.241830" lon="-5.390690">
        <ele>675.208</ele>
        <time>2020-05-21T06:14:32Z</time>
      </trkpt>
      <trkpt lat="43.241740" lon="-5.390620">
        <ele>676.551</ele>
        <time>2020-05-21T06:14:52Z</time>
      </trkpt>
      <trkpt lat="43.241680" lon="-5.390560">
        <ele>678.096</ele>
        <time>2020-05-21T06:15:12Z</time>
      </trkpt>
      <trkpt lat="43.241590" lon="-5.390460">
        <ele>680.563</ele>
        <time>2020-05-21T06:15:32Z</time>
      </trkpt>
      <trkpt lat="43.241520" lon="-5.390380">
        <ele>681.889</ele>
        <time>2020-05-21T06:15:52Z</time>
      </trkpt>
      <trkpt lat="43.241490" lon="-5.390340">
        <ele>682.438</ele>
        <time>2020-05-21T06:16:12Z</time>
      </trkpt>
      <trkpt lat="43.241420" lon="-5.390260">
        <ele>683.225</ele>
        <time>2020-05-21T06:16:32Z</time>
      </trkpt>
      <trkpt lat="43.241380" lon="-5.390210">
        <ele>684.380</ele>
        <time>2020-05-21T06:16:52Z</time>
      </trkpt>
      <trkpt lat="43.241300" lon="-5.390100">
        <ele>686.944</ele>
        <time>2020-05-21T06:17:12Z</time>
      </trkpt>
      <trkpt lat="43.241130" lon="-5.389920">
        <ele>688.448</ele>
        <time>2020-05-21T06:17:32Z</time>
      </trkpt>
      <trkpt lat="43.241030" lon="-5.389780">
        <ele>689.961</ele>
        <time>2020-05-21T06:17:52Z</time>
      </trkpt>
      <trkpt lat="43.240980" lon="-5.389720">
        <ele>690.017</ele>
        <time>2020-05-21T06:18:12Z</time>
      </trkpt>
      <trkpt lat="43.240960" lon="-5.389690">
        <ele>690.208</ele>
        <time>2020-05-21T06:18:32Z</time>
      </trkpt>
      <trkpt lat="43.240890" lon="-5.389540">
        <ele>692.228</ele>
        <time>2020-05-21T06:18:52Z</time>
      </trkpt>
      <trkpt lat="43.240820" lon="-5.389340">
        <ele>694.553</ele>
        <time>2020-05-21T06:19:12Z</time>
      </trkpt>
      <trkpt lat="43.240800" lon="-5.389270">
        <ele>695.760</ele>
        <time>2020-05-21T06:19:32Z</time>
      </trkpt>
      <trkpt lat="43.240780" lon="-5.389210">
        <ele>696.766</ele>
        <time>2020-05-21T06:19:52Z</time>
      </trkpt>
      <trkpt lat="43.240760" lon="-5.389170">
        <ele>697.075</ele>
        <time>2020-05-21T06:20:12Z</time>
      </trkpt>
      <trkpt lat="43.240730" lon="-5.389120">
        <ele>697.812</ele>
        <time>2020-05-21T06:20:32Z</time>
      </trkpt>
      <trkpt lat="43.240610" lon="-5.389050">
        <ele>696.417</ele>
        <time>2020-05-21T06:20:52Z</time>
      </trkpt>
      <trkpt lat="43.240530" lon="-5.389000">
        <ele>696.281</ele>
        <time>2020-05-21T06:21:12Z</time>
      </trkpt>
      <trkpt lat="43.240450" lon="-5.388950">
        <ele>696.984</ele>
        <time>2020-05-21T06:21:32Z</time>
      </trkpt>
      <trkpt lat="43.240370" lon="-5.388890">
        <ele>697.907</ele>
        <time>2020-05-21T06:21:52Z</time>
      </trkpt>
      <trkpt lat="43.240320" lon="-5.388860">
        <ele>698.417</ele>
        <time>2020-05-21T06:22:12Z</time>
      </trkpt>
      <trkpt lat="43.240250" lon="-5.388800">
        <ele>699.708</ele>
        <time>2020-05-21T06:22:32Z</time>
      </trkpt>
      <trkpt lat="43.240070" lon="-5.388630">
        <ele>701.752</ele>
        <time>2020-05-21T06:22:52Z</time>
      </trkpt>
      <trkpt lat="43.240030" lon="-5.388590">
        <ele>702.037</ele>
        <time>2020-05-21T06:23:12Z</time>
      </trkpt>
      <trkpt lat="43.239930" lon="-5.388460">
        <ele>703.374</ele>
        <time>2020-05-21T06:23:32Z</time>
      </trkpt>
      <trkpt lat="43.239860" lon="-5.388370">
        <ele>703.770</ele>
        <time>2020-05-21T06:23:52Z</time>
      </trkpt>
      <trkpt lat="43.239810" lon="-5.388280">
        <ele>704.619</ele>
        <time>2020-05-21T06:24:12Z</time>
      </trkpt>
      <trkpt lat="43.239750" lon="-5.388180">
        <ele>705.346</ele>
        <time>2020-05-21T06:24:32Z</time>
      </trkpt>
      <trkpt lat="43.239730" lon="-5.388120">
        <ele>706.361</ele>
        <time>2020-05-21T06:24:52Z</time>
      </trkpt>
      <trkpt lat="43.239720" lon="-5.388080">
        <ele>707.195</ele>
        <time>2020-05-21T06:25:12Z</time>
      </trkpt>
      <trkpt lat="43.239710" lon="-5.388060">
        <ele>707.554</ele>
        <time>2020-05-21T06:25:32Z</time>
      </trkpt>
      <trkpt lat="43.239700" lon="-5.387990">
        <ele>708.056</ele>
        <time>2020-05-21T06:25:52Z</time>
      </trkpt>
      <trkpt lat="43.239700" lon="-5.387890">
        <ele>709.111</ele>
        <time>2020-05-21T06:26:12Z</time>
      </trkpt>
      <trkpt lat="43.239690" lon="-5.387830">
        <ele>709.408</ele>
        <time>2020-05-21T06:26:32Z</time>
      </trkpt>
      <trkpt lat="43.239690" lon="-5.387770">
        <ele>710.199</ele>
        <time>2020-05-21T06:26:52Z</time>
      </trkpt>
      <trkpt lat="43.239690" lon="-5.387710">
        <ele>710.864</ele>
        <time>2020-05-21T06:27:12Z</time>
      </trkpt>
      <trkpt lat="43.239680" lon="-5.387670">
        <ele>711.071</ele>
        <time>2020-05-21T06:27:32Z</time>
      </trkpt>
      <trkpt lat="43.239670" lon="-5.387650">
        <ele>711.067</ele>
        <time>2020-05-21T06:27:52Z</time>
      </trkpt>
      <trkpt lat="43.239660" lon="-5.387610">
        <ele>711.346</ele>
        <time>2020-05-21T06:28:12Z</time>
      </trkpt>
      <trkpt lat="43.239650" lon="-5.387600">
        <ele>711.283</ele>
        <time>2020-05-21T06:28:32Z</time>
      </trkpt>
      <trkpt lat="43.239640" lon="-5.387590">
        <ele>711.228</ele>
        <time>2020-05-21T06:28:52Z</time>
      </trkpt>
      <trkpt lat="43.239460" lon="-5.387450">
        <ele>710.952</ele>
        <time>2020-05-21T06:29:12Z</time>
      </trkpt>
      <trkpt lat="43.239430" lon="-5.387410">
        <ele>711.685</ele>
        <time>2020-05-21T06:29:32Z</time>
      </trkpt>
      <trkpt lat="43.239400" lon="-5.387380">
        <ele>711.889</ele>
        <time>2020-05-21T06:29:52Z</time>
      </trkpt>
      <trkpt lat="43.239370" lon="-5.387340">
        <ele>712.317</ele>
        <time>2020-05-21T06:30:12Z</time>
      </trkpt>
      <trkpt lat="43.239300" lon="-5.387200">
        <ele>714.608</ele>
        <time>2020-05-21T06:30:32Z</time>
      </trkpt>
      <trkpt lat="43.239240" lon="-5.387140">
        <ele>715.172</ele>
        <time>2020-05-21T06:30:52Z</time>
      </trkpt>
      <trkpt lat="43.239210" lon="-5.387100">
        <ele>715.697</ele>
        <time>2020-05-21T06:31:12Z</time>
      </trkpt>
      <trkpt lat="43.239190" lon="-5.387080">
        <ele>715.884</ele>
        <time>2020-05-21T06:31:32Z</time>
      </trkpt>
      <trkpt lat="43.239140" lon="-5.387060">
        <ele>715.690</ele>
        <time>2020-05-21T06:31:52Z</time>
      </trkpt>
      <trkpt lat="43.239070" lon="-5.387050">
        <ele>715.299</ele>
        <time>2020-05-21T06:32:12Z</time>
      </trkpt>
      <trkpt lat="43.239010" lon="-5.387030">
        <ele>715.246</ele>
        <time>2020-05-21T06:32:32Z</time>
      </trkpt>
      <trkpt lat="43.238900" lon="-5.387020">
        <ele>714.431</ele>
        <time>2020-05-21T06:32:52Z</time>
      </trkpt>
      <trkpt lat="43.238890" lon="-5.387020">
        <ele>714.345</ele>
        <time>2020-05-21T06:33:12Z</time>
      </trkpt>
      <trkpt lat="43.238870" lon="-5.387010">
        <ele>714.024</ele>
        <time>2020-05-21T06:33:32Z</time>
      </trkpt>
      <trkpt lat="43.238850" lon="-5.386990">
        <ele>714.004</ele>
        <time>2020-05-21T06:33:52Z</time>
      </trkpt>
      <trkpt lat="43.238840" lon="-5.386990">
        <ele>713.714</ele>
        <time>2020-05-21T06:34:12Z</time>
      </trkpt>
      <trkpt lat="43.238830" lon="-5.386980">
        <ele>713.708</ele>
        <time>2020-05-21T06:34:32Z</time>
      </trkpt>
      <trkpt lat="43.238830" lon="-5.386970">
        <ele>714.056</ele>
        <time>2020-05-21T06:34:52Z</time>
      </trkpt>
      <trkpt lat="43.238820" lon="-5.386960">
        <ele>714.031</ele>
        <time>2020-05-21T06:35:12Z</time>
      </trkpt>
      <trkpt lat="43.238820" lon="-5.386950">
        <ele>714.318</ele>
        <time>2020-05-21T06:35:32Z</time>
      </trkpt>
      <trkpt lat="43.238810" lon="-5.386930">
        <ele>714.354</ele>
        <time>2020-05-21T06:35:52Z</time>
      </trkpt>
      <trkpt lat="43.238810" lon="-5.386910">
        <ele>714.673</ele>
        <time>2020-05-21T06:36:12Z</time>
      </trkpt>
      <trkpt lat="43.238810" lon="-5.386890">
        <ele>714.860</ele>
        <time>2020-05-21T06:36:32Z</time>
      </trkpt>
      <trkpt lat="43.238820" lon="-5.386840">
        <ele>715.835</ele>
        <time>2020-05-21T06:36:52Z</time>
      </trkpt>
      <trkpt lat="43.238840" lon="-5.386770">
        <ele>717.799</ele>
        <time>2020-05-21T06:37:12Z</time>
      </trkpt>
      <trkpt lat="43.238850" lon="-5.386720">
        <ele>719.044</ele>
        <time>2020-05-21T06:37:32Z</time>
      </trkpt>
      <trkpt lat="43.238860" lon="-5.386660">
        <ele>720.405</ele>
        <time>2020-05-21T06:37:52Z</time>
      </trkpt>
      <trkpt lat="43.238870" lon="-5.386610">
        <ele>721.015</ele>
        <time>2020-05-21T06:38:12Z</time>
      </trkpt>
      <trkpt lat="43.238870" lon="-5.386600">
        <ele>721.008</ele>
        <time>2020-05-21T06:38:32Z</time>
      </trkpt>
      <trkpt lat="43.238880" lon="-5.386550">
        <ele>721.698</ele>
        <time>2020-05-21T06:38:52Z</time>
      </trkpt>
      <trkpt lat="43.238880" lon="-5.386520">
        <ele>721.623</ele>
        <time>2020-05-21T06:39:12Z</time>
      </trkpt>
      <trkpt lat="43.238880" lon="-5.386470">
        <ele>721.760</ele>
        <time>2020-05-21T06:39:32Z</time>
      </trkpt>
      <trkpt lat="43.238880" lon="-5.386410">
        <ele>721.746</ele>
        <time>2020-05-21T06:39:52Z</time>
      </trkpt>
      <trkpt lat="43.238860" lon="-5.386330">
        <ele>722.665</ele>
        <time>2020-05-21T06:40:12Z</time>
      </trkpt>
      <trkpt lat="43.238760" lon="-5.386160">
        <ele>723.722</ele>
        <time>2020-05-21T06:40:32Z</time>
      </trkpt>
      <trkpt lat="43.238760" lon="-5.386150">
        <ele>723.977</ele>
        <time>2020-05-21T06:40:52Z</time>
      </trkpt>
      <trkpt lat="43.238740" lon="-5.386090">
        <ele>724.641</ele>
        <time>2020-05-21T06:41:12Z</time>
      </trkpt>
      <trkpt lat="43.238720" lon="-5.386030">
        <ele>724.934</ele>
        <time>2020-05-21T06:41:32Z</time>
      </trkpt>
      <trkpt lat="43.238710" lon="-5.385920">
        <ele>726.455</ele>
        <time>2020-05-21T06:41:52Z</time>
      </trkpt>
      <trkpt lat="43.238700" lon="-5.385760">
        <ele>728.410</ele>
        <time>2020-05-21T06:42:12Z</time>
      </trkpt>
      <trkpt lat="43.238690" lon="-5.385680">
        <ele>728.908</ele>
        <time>2020-05-21T06:42:32Z</time>
      </trkpt>
      <trkpt lat="43.238690" lon="-5.385660">
        <ele>729.217</ele>
        <time>2020-05-21T06:42:52Z</time>
      </trkpt>
      <trkpt lat="43.238680" lon="-5.385620">
        <ele>729.272</ele>
        <time>2020-05-21T06:43:12Z</time>
      </trkpt>
      <trkpt lat="43.238670" lon="-5.385600">
        <ele>729.089</ele>
        <time>2020-05-21T06:43:32Z</time>
      </trkpt>
      <trkpt lat="43.238630" lon="-5.385560">
        <ele>727.885</ele>
        <time>2020-05-21T06:43:52Z</time>
      </trkpt>
      <trkpt lat="43.238620" lon="-5.385550">
        <ele>727.634</ele>
        <time>2020-05-21T06:44:12Z</time>
      </trkpt>
      <trkpt lat="43.238590" lon="-5.385540">
        <ele>727.841</ele>
        <time>2020-05-21T06:44:32Z</time>
      </trkpt>
      <trkpt lat="43.238560" lon="-5.385540">
        <ele>728.026</ele>
        <time>2020-05-21T06:44:52Z</time>
      </trkpt>
      <trkpt lat="43.238380" lon="-5.385560">
        <ele>728.550</ele>
        <time>2020-05-21T06:45:12Z</time>
      </trkpt>
      <trkpt lat="43.238290" lon="-5.385570">
        <ele>728.767</ele>
        <time>2020-05-21T06:45:32Z</time>
      </trkpt>
      <trkpt lat="43.238230" lon="-5.385580">
        <ele>728.881</ele>
        <time>2020-05-21T06:45:52Z</time>
      </trkpt>
      <trkpt lat="43.238170" lon="-5.385590">
        <ele>728.819</ele>
        <time>2020-05-21T06:46:12Z</time>
      </trkpt>
      <trkpt lat="43.238110" lon="-5.385580">
        <ele>729.608</ele>
        <time>2020-05-21T06:46:32Z</time>
      </trkpt>
      <trkpt lat="43.238050" lon="-5.385560">
        <ele>730.750</ele>
        <time>2020-05-21T06:46:52Z</time>
      </trkpt>
      <trkpt lat="43.238030" lon="-5.385550">
        <ele>730.835</ele>
        <time>2020-05-21T06:47:12Z</time>
      </trkpt>
      <trkpt lat="43.237960" lon="-5.385520">
        <ele>730.692</ele>
        <time>2020-05-21T06:47:32Z</time>
      </trkpt>
      <trkpt lat="43.237910" lon="-5.385490">
        <ele>730.888</ele>
        <time>2020-05-21T06:47:52Z</time>
      </trkpt>
      <trkpt lat="43.237870" lon="-5.385430">
        <ele>731.987</ele>
        <time>2020-05-21T06:48:12Z</time>
      </trkpt>
      <trkpt lat="43.237820" lon="-5.385370">
        <ele>733.094</ele>
        <time>2020-05-21T06:48:32Z</time>
      </trkpt>
      <trkpt lat="43.237780" lon="-5.385290">
        <ele>734.779</ele>
        <time>2020-05-21T06:48:52Z</time>
      </trkpt>
      <trkpt lat="43.237770" lon="-5.385240">
        <ele>735.093</ele>
        <time>2020-05-21T06:49:12Z</time>
      </trkpt>
      <trkpt lat="43.237760" lon="-5.385230">
        <ele>734.876</ele>
        <time>2020-05-21T06:49:32Z</time>
      </trkpt>
      <trkpt lat="43.237760" lon="-5.385170">
        <ele>735.290</ele>
        <time>2020-05-21T06:49:52Z</time>
      </trkpt>
      <trkpt lat="43.237760" lon="-5.385090">
        <ele>735.719</ele>
        <time>2020-05-21T06:50:12Z</time>
      </trkpt>
      <trkpt lat="43.237780" lon="-5.385000">
        <ele>737.008</ele>
        <time>2020-05-21T06:50:32Z</time>
      </trkpt>
      <trkpt lat="43.237900" lon="-5.384680">
        <ele>739.971</ele>
        <time>2020-05-21T06:50:52Z</time>
      </trkpt>
      <trkpt lat="43.237950" lon="-5.384560">
        <ele>741.576</ele>
        <time>2020-05-21T06:51:12Z</time>
      </trkpt>
      <trkpt lat="43.237970" lon="-5.384500">
        <ele>742.393</ele>
        <time>2020-05-21T06:51:32Z</time>
      </trkpt>
      <trkpt lat="43.237980" lon="-5.384390">
        <ele>742.779</ele>
        <time>2020-05-21T06:51:52Z</time>
      </trkpt>
      <trkpt lat="43.237980" lon="-5.384320">
        <ele>742.758</ele>
        <time>2020-05-21T06:52:12Z</time>
      </trkpt>
      <trkpt lat="43.237990" lon="-5.384280">
        <ele>743.215</ele>
        <time>2020-05-21T06:52:32Z</time>
      </trkpt>
      <trkpt lat="43.237980" lon="-5.384180">
        <ele>742.720</ele>
        <time>2020-05-21T06:52:52Z</time>
      </trkpt>
      <trkpt lat="43.237840" lon="-5.383510">
        <ele>745.574</ele>
        <time>2020-05-21T06:53:12Z</time>
      </trkpt>
      <trkpt lat="43.237820" lon="-5.383360">
        <ele>746.687</ele>
        <time>2020-05-21T06:53:32Z</time>
      </trkpt>
      <trkpt lat="43.237810" lon="-5.383300">
        <ele>746.542</ele>
        <time>2020-05-21T06:53:52Z</time>
      </trkpt>
      <trkpt lat="43.237810" lon="-5.383230">
        <ele>746.526</ele>
        <time>2020-05-21T06:54:12Z</time>
      </trkpt>
      <trkpt lat="43.237830" lon="-5.383160">
        <ele>747.308</ele>
        <time>2020-05-21T06:54:32Z</time>
      </trkpt>
      <trkpt lat="43.237840" lon="-5.383110">
        <ele>747.772</ele>
        <time>2020-05-21T06:54:52Z</time>
      </trkpt>
      <trkpt lat="43.237920" lon="-5.382910">
        <ele>749.687</ele>
        <time>2020-05-21T06:55:12Z</time>
      </trkpt>
      <trkpt lat="43.237950" lon="-5.382820">
        <ele>750.164</ele>
        <time>2020-05-21T06:55:32Z</time>
      </trkpt>
      <trkpt lat="43.237960" lon="-5.382750">
        <ele>750.630</ele>
        <time>2020-05-21T06:55:52Z</time>
      </trkpt>
      <trkpt lat="43.237970" lon="-5.382680">
        <ele>752.189</ele>
        <time>2020-05-21T06:56:12Z</time>
      </trkpt>
      <trkpt lat="43.237930" lon="-5.382430">
        <ele>754.536</ele>
        <time>2020-05-21T06:56:32Z</time>
      </trkpt>
      <trkpt lat="43.237930" lon="-5.382400">
        <ele>755.451</ele>
        <time>2020-05-21T06:56:52Z</time>
      </trkpt>
      <trkpt lat="43.237910" lon="-5.382330">
        <ele>756.315</ele>
        <time>2020-05-21T06:57:12Z</time>
      </trkpt>
      <trkpt lat="43.237890" lon="-5.382300">
        <ele>755.996</ele>
        <time>2020-05-21T06:57:32Z</time>
      </trkpt>
      <trkpt lat="43.237830" lon="-5.382240">
        <ele>753.931</ele>
        <time>2020-05-21T06:57:52Z</time>
      </trkpt>
      <trkpt lat="43.237620" lon="-5.382010">
        <ele>756.624</ele>
        <time>2020-05-21T06:58:12Z</time>
      </trkpt>
      <trkpt lat="43.237550" lon="-5.381930">
        <ele>756.608</ele>
        <time>2020-05-21T06:58:32Z</time>
      </trkpt>
      <trkpt lat="43.237460" lon="-5.381800">
        <ele>755.913</ele>
        <time>2020-05-21T06:58:52Z</time>
      </trkpt>
      <trkpt lat="43.237380" lon="-5.381580">
        <ele>757.228</ele>
        <time>2020-05-21T06:59:12Z</time>
      </trkpt>
      <trkpt lat="43.237290" lon="-5.381290">
        <ele>758.065</ele>
        <time>2020-05-21T06:59:32Z</time>
      </trkpt>
      <trkpt lat="43.237230" lon="-5.381090">
        <ele>756.971</ele>
        <time>2020-05-21T06:59:52Z</time>
      </trkpt>
      <trkpt lat="43.237230" lon="-5.381060">
        <ele>757.380</ele>
        <time>2020-05-21T07:00:12Z</time>
      </trkpt>
      <trkpt lat="43.237220" lon="-5.381010">
        <ele>757.337</ele>
        <time>2020-05-21T07:00:32Z</time>
      </trkpt>
      <trkpt lat="43.237220" lon="-5.380950">
        <ele>758.282</ele>
        <time>2020-05-21T07:00:52Z</time>
      </trkpt>
      <trkpt lat="43.237230" lon="-5.380890">
        <ele>759.646</ele>
        <time>2020-05-21T07:01:12Z</time>
      </trkpt>
      <trkpt lat="43.237250" lon="-5.380830">
        <ele>761.442</ele>
        <time>2020-05-21T07:01:32Z</time>
      </trkpt>
      <trkpt lat="43.237310" lon="-5.380740">
        <ele>761.722</ele>
        <time>2020-05-21T07:01:52Z</time>
      </trkpt>
      <trkpt lat="43.237530" lon="-5.380560">
        <ele>765.114</ele>
        <time>2020-05-21T07:02:12Z</time>
      </trkpt>
      <trkpt lat="43.237550" lon="-5.380540">
        <ele>765.408</ele>
        <time>2020-05-21T07:02:32Z</time>
      </trkpt>
      <trkpt lat="43.237600" lon="-5.380480">
        <ele>766.298</ele>
        <time>2020-05-21T07:02:52Z</time>
      </trkpt>
      <trkpt lat="43.237640" lon="-5.380370">
        <ele>766.223</ele>
        <time>2020-05-21T07:03:12Z</time>
      </trkpt>
      <trkpt lat="43.237670" lon="-5.380260">
        <ele>766.330</ele>
        <time>2020-05-21T07:03:32Z</time>
      </trkpt>
      <trkpt lat="43.237690" lon="-5.380190">
        <ele>766.986</ele>
        <time>2020-05-21T07:03:52Z</time>
      </trkpt>
      <trkpt lat="43.237720" lon="-5.380110">
        <ele>767.995</ele>
        <time>2020-05-21T07:04:12Z</time>
      </trkpt>
      <trkpt lat="43.237730" lon="-5.380070">
        <ele>768.232</ele>
        <time>2020-05-21T07:04:32Z</time>
      </trkpt>
      <trkpt lat="43.237800" lon="-5.379950">
        <ele>771.177</ele>
        <time>2020-05-21T07:04:52Z</time>
      </trkpt>
      <trkpt lat="43.237820" lon="-5.379910">
        <ele>772.181</ele>
        <time>2020-05-21T07:05:12Z</time>
      </trkpt>
      <trkpt lat="43.237840" lon="-5.379880">
        <ele>773.024</ele>
        <time>2020-05-21T07:05:32Z</time>
      </trkpt>
      <trkpt lat="43.237840" lon="-5.379840">
        <ele>773.004</ele>
        <time>2020-05-21T07:05:52Z</time>
      </trkpt>
      <trkpt lat="43.237840" lon="-5.379810">
        <ele>773.014</ele>
        <time>2020-05-21T07:06:12Z</time>
      </trkpt>
      <trkpt lat="43.237840" lon="-5.379780">
        <ele>773.008</ele>
        <time>2020-05-21T07:06:32Z</time>
      </trkpt>
      <trkpt lat="43.237830" lon="-5.379750">
        <ele>772.526</ele>
        <time>2020-05-21T07:06:52Z</time>
      </trkpt>
      <trkpt lat="43.237820" lon="-5.379730">
        <ele>772.071</ele>
        <time>2020-05-21T07:07:12Z</time>
      </trkpt>
      <trkpt lat="43.237790" lon="-5.379710">
        <ele>771.238</ele>
        <time>2020-05-21T07:07:32Z</time>
      </trkpt>
      <trkpt lat="43.237780" lon="-5.379700">
        <ele>771.244</ele>
        <time>2020-05-21T07:07:52Z</time>
      </trkpt>
      <trkpt lat="43.237700" lon="-5.379660">
        <ele>772.113</ele>
        <time>2020-05-21T07:08:12Z</time>
      </trkpt>
      <trkpt lat="43.237520" lon="-5.379610">
        <ele>771.760</ele>
        <time>2020-05-21T07:08:32Z</time>
      </trkpt>
      <trkpt lat="43.237400" lon="-5.379500">
        <ele>773.465</ele>
        <time>2020-05-21T07:08:52Z</time>
      </trkpt>
      <trkpt lat="43.237300" lon="-5.379380">
        <ele>774.539</ele>
        <time>2020-05-21T07:09:12Z</time>
      </trkpt>
      <trkpt lat="43.237210" lon="-5.379240">
        <ele>775.142</ele>
        <time>2020-05-21T07:09:32Z</time>
      </trkpt>
      <trkpt lat="43.237190" lon="-5.379190">
        <ele>775.622</ele>
        <time>2020-05-21T07:09:52Z</time>
      </trkpt>
      <trkpt lat="43.237180" lon="-5.379150">
        <ele>775.914</ele>
        <time>2020-05-21T07:10:12Z</time>
      </trkpt>
      <trkpt lat="43.237170" lon="-5.379090">
        <ele>776.108</ele>
        <time>2020-05-21T07:10:32Z</time>
      </trkpt>
      <trkpt lat="43.237170" lon="-5.379030">
        <ele>776.538</ele>
        <time>2020-05-21T07:10:52Z</time>
      </trkpt>
      <trkpt lat="43.237180" lon="-5.378950">
        <ele>777.593</ele>
        <time>2020-05-21T07:11:12Z</time>
      </trkpt>
      <trkpt lat="43.237220" lon="-5.378720">
        <ele>779.980</ele>
        <time>2020-05-21T07:11:32Z</time>
      </trkpt>
      <trkpt lat="43.237240" lon="-5.378590">
        <ele>781.256</ele>
        <time>2020-05-21T07:11:52Z</time>
      </trkpt>
      <trkpt lat="43.237240" lon="-5.378500">
        <ele>781.825</ele>
        <time>2020-05-21T07:12:12Z</time>
      </trkpt>
      <trkpt lat="43.237240" lon="-5.378470">
        <ele>782.052</ele>
        <time>2020-05-21T07:12:32Z</time>
      </trkpt>
      <trkpt lat="43.237230" lon="-5.378450">
        <ele>781.657</ele>
        <time>2020-05-21T07:12:52Z</time>
      </trkpt>
      <trkpt lat="43.237220" lon="-5.378410">
        <ele>781.431</ele>
        <time>2020-05-21T07:13:12Z</time>
      </trkpt>
      <trkpt lat="43.237120" lon="-5.378250">
        <ele>781.548</ele>
        <time>2020-05-21T07:13:32Z</time>
      </trkpt>
      <trkpt lat="43.237060" lon="-5.378170">
        <ele>781.961</ele>
        <time>2020-05-21T07:13:52Z</time>
      </trkpt>
      <trkpt lat="43.237020" lon="-5.378090">
        <ele>782.917</ele>
        <time>2020-05-21T07:14:12Z</time>
      </trkpt>
      <trkpt lat="43.236980" lon="-5.377980">
        <ele>783.908</ele>
        <time>2020-05-21T07:14:32Z</time>
      </trkpt>
      <trkpt lat="43.236950" lon="-5.377860">
        <ele>784.818</ele>
        <time>2020-05-21T07:14:52Z</time>
      </trkpt>
      <trkpt lat="43.236930" lon="-5.377780">
        <ele>785.393</ele>
        <time>2020-05-21T07:15:12Z</time>
      </trkpt>
      <trkpt lat="43.236910" lon="-5.377590">
        <ele>787.120</ele>
        <time>2020-05-21T07:15:32Z</time>
      </trkpt>
      <trkpt lat="43.236900" lon="-5.377450">
        <ele>788.266</ele>
        <time>2020-05-21T07:15:52Z</time>
      </trkpt>
      <trkpt lat="43.236940" lon="-5.377000">
        <ele>791.845</ele>
        <time>2020-05-21T07:16:12Z</time>
      </trkpt>
      <trkpt lat="43.236940" lon="-5.376900">
        <ele>791.952</ele>
        <time>2020-05-21T07:16:32Z</time>
      </trkpt>
      <trkpt lat="43.236940" lon="-5.376890">
        <ele>792.067</ele>
        <time>2020-05-21T07:16:52Z</time>
      </trkpt>
      <trkpt lat="43.236940" lon="-5.376800">
        <ele>792.341</ele>
        <time>2020-05-21T07:17:12Z</time>
      </trkpt>
      <trkpt lat="43.236930" lon="-5.376700">
        <ele>792.369</ele>
        <time>2020-05-21T07:17:32Z</time>
      </trkpt>
      <trkpt lat="43.236920" lon="-5.376640">
        <ele>792.604</ele>
        <time>2020-05-21T07:17:52Z</time>
      </trkpt>
      <trkpt lat="43.236840" lon="-5.376470">
        <ele>793.624</ele>
        <time>2020-05-21T07:18:12Z</time>
      </trkpt>
      <trkpt lat="43.236820" lon="-5.376430">
        <ele>793.908</ele>
        <time>2020-05-21T07:18:32Z</time>
      </trkpt>
      <trkpt lat="43.236730" lon="-5.376260">
        <ele>795.490</ele>
        <time>2020-05-21T07:18:52Z</time>
      </trkpt>
      <trkpt lat="43.236720" lon="-5.376230">
        <ele>795.835</ele>
        <time>2020-05-21T07:19:12Z</time>
      </trkpt>
      <trkpt lat="43.236680" lon="-5.376130">
        <ele>797.082</ele>
        <time>2020-05-21T07:19:32Z</time>
      </trkpt>
      <trkpt lat="43.236640" lon="-5.376010">
        <ele>797.498</ele>
        <time>2020-05-21T07:19:52Z</time>
      </trkpt>
      <trkpt lat="43.236620" lon="-5.375880">
        <ele>798.727</ele>
        <time>2020-05-21T07:20:12Z</time>
      </trkpt>
      <trkpt lat="43.236620" lon="-5.375810">
        <ele>799.594</ele>
        <time>2020-05-21T07:20:32Z</time>
      </trkpt>
      <trkpt lat="43.236620" lon="-5.375770">
        <ele>799.579</ele>
        <time>2020-05-21T07:20:52Z</time>
      </trkpt>
      <trkpt lat="43.236620" lon="-5.375730">
        <ele>799.543</ele>
        <time>2020-05-21T07:21:12Z</time>
      </trkpt>
      <trkpt lat="43.236630" lon="-5.375670">
        <ele>800.171</ele>
        <time>2020-05-21T07:21:32Z</time>
      </trkpt>
      <trkpt lat="43.236640" lon="-5.375610">
        <ele>800.641</ele>
        <time>2020-05-21T07:21:52Z</time>
      </trkpt>
      <trkpt lat="43.236660" lon="-5.375550">
        <ele>801.615</ele>
        <time>2020-05-21T07:22:12Z</time>
      </trkpt>
      <trkpt lat="43.236900" lon="-5.375150">
        <ele>804.708</ele>
        <time>2020-05-21T07:22:32Z</time>
      </trkpt>
      <trkpt lat="43.237010" lon="-5.374960">
        <ele>805.841</ele>
        <time>2020-05-21T07:22:52Z</time>
      </trkpt>
      <trkpt lat="43.237010" lon="-5.374950">
        <ele>805.596</ele>
        <time>2020-05-21T07:23:12Z</time>
      </trkpt>
      <trkpt lat="43.237130" lon="-5.374810">
        <ele>808.053</ele>
        <time>2020-05-21T07:23:32Z</time>
      </trkpt>
      <trkpt lat="43.237170" lon="-5.374770">
        <ele>808.859</ele>
        <time>2020-05-21T07:23:52Z</time>
      </trkpt>
      <trkpt lat="43.237200" lon="-5.374740">
        <ele>809.448</ele>
        <time>2020-05-21T07:24:12Z</time>
      </trkpt>
      <trkpt lat="43.237240" lon="-5.374720">
        <ele>810.425</ele>
        <time>2020-05-21T07:24:32Z</time>
      </trkpt>
      <trkpt lat="43.237250" lon="-5.374720">
        <ele>810.670</ele>
        <time>2020-05-21T07:24:52Z</time>
      </trkpt>
      <trkpt lat="43.237350" lon="-5.374680">
        <ele>812.064</ele>
        <time>2020-05-21T07:25:12Z</time>
      </trkpt>
      <trkpt lat="43.237400" lon="-5.374650">
        <ele>812.519</ele>
        <time>2020-05-21T07:25:32Z</time>
      </trkpt>
      <trkpt lat="43.237410" lon="-5.374640">
        <ele>812.509</ele>
        <time>2020-05-21T07:25:52Z</time>
      </trkpt>
      <trkpt lat="43.237430" lon="-5.374620">
        <ele>812.519</ele>
        <time>2020-05-21T07:26:12Z</time>
      </trkpt>
      <trkpt lat="43.237460" lon="-5.374590">
        <ele>812.508</ele>
        <time>2020-05-21T07:26:32Z</time>
      </trkpt>
      <trkpt lat="43.237470" lon="-5.374560">
        <ele>812.065</ele>
        <time>2020-05-21T07:26:52Z</time>
      </trkpt>
      <trkpt lat="43.237480" lon="-5.374520">
        <ele>811.390</ele>
        <time>2020-05-21T07:27:12Z</time>
      </trkpt>
      <trkpt lat="43.237500" lon="-5.374450">
        <ele>810.127</ele>
        <time>2020-05-21T07:27:32Z</time>
      </trkpt>
      <trkpt lat="43.237500" lon="-5.374440">
        <ele>810.083</ele>
        <time>2020-05-21T07:27:52Z</time>
      </trkpt>
      <trkpt lat="43.237540" lon="-5.374200">
        <ele>812.682</ele>
        <time>2020-05-21T07:28:12Z</time>
      </trkpt>
      <trkpt lat="43.237580" lon="-5.374040">
        <ele>814.179</ele>
        <time>2020-05-21T07:28:32Z</time>
      </trkpt>
      <trkpt lat="43.237600" lon="-5.373830">
        <ele>816.374</ele>
        <time>2020-05-21T07:28:52Z</time>
      </trkpt>
      <trkpt lat="43.237600" lon="-5.373780">
        <ele>817.258</ele>
        <time>2020-05-21T07:29:12Z</time>
      </trkpt>
      <trkpt lat="43.237570" lon="-5.373700">
        <ele>817.848</ele>
        <time>2020-05-21T07:29:32Z</time>
      </trkpt>
      <trkpt lat="43.237550" lon="-5.373660">
        <ele>818.061</ele>
        <time>2020-05-21T07:29:52Z</time>
      </trkpt>
      <trkpt lat="43.237510" lon="-5.373630">
        <ele>817.817</ele>
        <time>2020-05-21T07:30:12Z</time>
      </trkpt>
      <trkpt lat="43.237440" lon="-5.373600">
        <ele>818.208</ele>
        <time>2020-05-21T07:30:32Z</time>
      </trkpt>
      <trkpt lat="43.237430" lon="-5.373600">
        <ele>818.238</ele>
        <time>2020-05-21T07:30:52Z</time>
      </trkpt>
      <trkpt lat="43.237250" lon="-5.373560">
        <ele>819.543</ele>
        <time>2020-05-21T07:31:12Z</time>
      </trkpt>
      <trkpt lat="43.237060" lon="-5.373520">
        <ele>820.940</ele>
        <time>2020-05-21T07:31:32Z</time>
      </trkpt>
      <trkpt lat="43.236930" lon="-5.373490">
        <ele>821.626</ele>
        <time>2020-05-21T07:31:52Z</time>
      </trkpt>
      <trkpt lat="43.236900" lon="-5.373480">
        <ele>821.645</ele>
        <time>2020-05-21T07:32:12Z</time>
      </trkpt>
      <trkpt lat="43.236860" lon="-5.373470">
        <ele>821.562</ele>
        <time>2020-05-21T07:32:32Z</time>
      </trkpt>
      <trkpt lat="43.236780" lon="-5.373420">
        <ele>822.257</ele>
        <time>2020-05-21T07:32:52Z</time>
      </trkpt>
      <trkpt lat="43.236740" lon="-5.373370">
        <ele>823.231</ele>
        <time>2020-05-21T07:33:12Z</time>
      </trkpt>
      <trkpt lat="43.236720" lon="-5.373360">
        <ele>823.196</ele>
        <time>2020-05-21T07:33:32Z</time>
      </trkpt>
      <trkpt lat="43.236690" lon="-5.373300">
        <ele>823.731</ele>
        <time>2020-05-21T07:33:52Z</time>
      </trkpt>
      <trkpt lat="43.236680" lon="-5.373240">
        <ele>824.024</ele>
        <time>2020-05-21T07:34:12Z</time>
      </trkpt>
      <trkpt lat="43.236690" lon="-5.373180">
        <ele>824.708</ele>
        <time>2020-05-21T07:34:32Z</time>
      </trkpt>
      <trkpt lat="43.236700" lon="-5.373140">
        <ele>825.353</ele>
        <time>2020-05-21T07:34:52Z</time>
      </trkpt>
      <trkpt lat="43.236730" lon="-5.373070">
        <ele>826.988</ele>
        <time>2020-05-21T07:35:12Z</time>
      </trkpt>
      <trkpt lat="43.236810" lon="-5.372960">
        <ele>828.915</ele>
        <time>2020-05-21T07:35:32Z</time>
      </trkpt>
      <trkpt lat="43.236840" lon="-5.372910">
        <ele>829.471</ele>
        <time>2020-05-21T07:35:52Z</time>
      </trkpt>
      <trkpt lat="43.236870" lon="-5.372860">
        <ele>829.930</ele>
        <time>2020-05-21T07:36:12Z</time>
      </trkpt>
      <trkpt lat="43.236890" lon="-5.372810">
        <ele>829.987</ele>
        <time>2020-05-21T07:36:32Z</time>
      </trkpt>
      <trkpt lat="43.236890" lon="-5.372770">
        <ele>829.762</ele>
        <time>2020-05-21T07:36:52Z</time>
      </trkpt>
      <trkpt lat="43.236900" lon="-5.372720">
        <ele>830.666</ele>
        <time>2020-05-21T07:37:12Z</time>
      </trkpt>
      <trkpt lat="43.236890" lon="-5.372640">
        <ele>831.485</ele>
        <time>2020-05-21T07:37:32Z</time>
      </trkpt>
      <trkpt lat="43.236880" lon="-5.372600">
        <ele>831.689</ele>
        <time>2020-05-21T07:37:52Z</time>
      </trkpt>
      <trkpt lat="43.236860" lon="-5.372550">
        <ele>831.717</ele>
        <time>2020-05-21T07:38:12Z</time>
      </trkpt>
      <trkpt lat="43.236840" lon="-5.372530">
        <ele>831.308</ele>
        <time>2020-05-21T07:38:32Z</time>
      </trkpt>
      <trkpt lat="43.236710" lon="-5.372360">
        <ele>831.252</ele>
        <time>2020-05-21T07:38:52Z</time>
      </trkpt>
      <trkpt lat="43.236530" lon="-5.372100">
        <ele>832.527</ele>
        <time>2020-05-21T07:39:12Z</time>
      </trkpt>
      <trkpt lat="43.236460" lon="-5.372010">
        <ele>833.244</ele>
        <time>2020-05-21T07:39:32Z</time>
      </trkpt>
      <trkpt lat="43.236400" lon="-5.371930">
        <ele>833.710</ele>
        <time>2020-05-21T07:39:52Z</time>
      </trkpt>
      <trkpt lat="43.236350" lon="-5.371810">
        <ele>834.579</ele>
        <time>2020-05-21T07:40:12Z</time>
      </trkpt>
      <trkpt lat="43.236330" lon="-5.371720">
        <ele>835.566</ele>
        <time>2020-05-21T07:40:32Z</time>
      </trkpt>
      <trkpt lat="43.236310" lon="-5.371630">
        <ele>835.981</ele>
        <time>2020-05-21T07:40:52Z</time>
      </trkpt>
      <trkpt lat="43.236300" lon="-5.371580">
        <ele>836.075</ele>
        <time>2020-05-21T07:41:12Z</time>
      </trkpt>
      <trkpt lat="43.236290" lon="-5.371510">
        <ele>836.383</ele>
        <time>2020-05-21T07:41:32Z</time>
      </trkpt>
      <trkpt lat="43.236280" lon="-5.371410">
        <ele>836.925</ele>
        <time>2020-05-21T07:41:52Z</time>
      </trkpt>
      <trkpt lat="43.236290" lon="-5.371330">
        <ele>837.617</ele>
        <time>2020-05-21T07:42:12Z</time>
      </trkpt>
      <trkpt lat="43.236300" lon="-5.371280">
        <ele>838.008</ele>
        <time>2020-05-21T07:42:32Z</time>
      </trkpt>
      <trkpt lat="43.236320" lon="-5.371240">
        <ele>838.632</ele>
        <time>2020-05-21T07:42:52Z</time>
      </trkpt>
      <trkpt lat="43.236360" lon="-5.371180">
        <ele>839.617</ele>
        <time>2020-05-21T07:43:12Z</time>
      </trkpt>
      <trkpt lat="43.236400" lon="-5.371140">
        <ele>840.444</ele>
        <time>2020-05-21T07:43:32Z</time>
      </trkpt>
      <trkpt lat="43.236530" lon="-5.370980">
        <ele>842.440</ele>
        <time>2020-05-21T07:43:52Z</time>
      </trkpt>
      <trkpt lat="43.236580" lon="-5.370920">
        <ele>843.069</ele>
        <time>2020-05-21T07:44:12Z</time>
      </trkpt>
      <trkpt lat="43.236670" lon="-5.370820">
        <ele>844.016</ele>
        <time>2020-05-21T07:44:32Z</time>
      </trkpt>
      <trkpt lat="43.236720" lon="-5.370770">
        <ele>844.921</ele>
        <time>2020-05-21T07:44:52Z</time>
      </trkpt>
      <trkpt lat="43.236750" lon="-5.370710">
        <ele>845.255</ele>
        <time>2020-05-21T07:45:12Z</time>
      </trkpt>
      <trkpt lat="43.236780" lon="-5.370660">
        <ele>845.634</ele>
        <time>2020-05-21T07:45:32Z</time>
      </trkpt>
      <trkpt lat="43.236790" lon="-5.370630">
        <ele>845.755</ele>
        <time>2020-05-21T07:45:52Z</time>
      </trkpt>
      <trkpt lat="43.236790" lon="-5.370600">
        <ele>845.410</ele>
        <time>2020-05-21T07:46:12Z</time>
      </trkpt>
      <trkpt lat="43.236800" lon="-5.370550">
        <ele>845.408</ele>
        <time>2020-05-21T07:46:32Z</time>
      </trkpt>
      <trkpt lat="43.236800" lon="-5.370510">
        <ele>845.877</ele>
        <time>2020-05-21T07:46:52Z</time>
      </trkpt>
      <trkpt lat="43.236800" lon="-5.370480">
        <ele>846.112</ele>
        <time>2020-05-21T07:47:12Z</time>
      </trkpt>
      <trkpt lat="43.236790" lon="-5.370440">
        <ele>846.379</ele>
        <time>2020-05-21T07:47:32Z</time>
      </trkpt>
      <trkpt lat="43.236780" lon="-5.370400">
        <ele>846.555</ele>
        <time>2020-05-21T07:47:52Z</time>
      </trkpt>
      <trkpt lat="43.236780" lon="-5.370390">
        <ele>846.644</ele>
        <time>2020-05-21T07:48:12Z</time>
      </trkpt>
      <trkpt lat="43.236720" lon="-5.370240">
        <ele>846.731</ele>
        <time>2020-05-21T07:48:32Z</time>
      </trkpt>
      <trkpt lat="43.236700" lon="-5.370170">
        <ele>846.926</ele>
        <time>2020-05-21T07:48:52Z</time>
      </trkpt>
      <trkpt lat="43.236690" lon="-5.370090">
        <ele>847.450</ele>
        <time>2020-05-21T07:49:12Z</time>
      </trkpt>
      <trkpt lat="43.236690" lon="-5.370030">
        <ele>848.069</ele>
        <time>2020-05-21T07:49:32Z</time>
      </trkpt>
      <trkpt lat="43.236690" lon="-5.369980">
        <ele>848.304</ele>
        <time>2020-05-21T07:49:52Z</time>
      </trkpt>
      <trkpt lat="43.236710" lon="-5.369880">
        <ele>848.124</ele>
        <time>2020-05-21T07:50:12Z</time>
      </trkpt>
      <trkpt lat="43.236790" lon="-5.369720">
        <ele>848.308</ele>
        <time>2020-05-21T07:50:32Z</time>
      </trkpt>
      <trkpt lat="43.236800" lon="-5.369660">
        <ele>848.970</ele>
        <time>2020-05-21T07:50:52Z</time>
      </trkpt>
      <trkpt lat="43.236800" lon="-5.369590">
        <ele>849.425</ele>
        <time>2020-05-21T07:51:12Z</time>
      </trkpt>
      <trkpt lat="43.236790" lon="-5.369480">
        <ele>849.942</ele>
        <time>2020-05-21T07:51:32Z</time>
      </trkpt>
      <trkpt lat="43.236770" lon="-5.369330">
        <ele>851.878</ele>
        <time>2020-05-21T07:51:52Z</time>
      </trkpt>
      <trkpt lat="43.236740" lon="-5.369240">
        <ele>852.757</ele>
        <time>2020-05-21T07:52:12Z</time>
      </trkpt>
      <trkpt lat="43.236680" lon="-5.369070">
        <ele>854.464</ele>
        <time>2020-05-21T07:52:32Z</time>
      </trkpt>
      <trkpt lat="43.236660" lon="-5.369020">
        <ele>855.039</ele>
        <time>2020-05-21T07:52:52Z</time>
      </trkpt>
      <trkpt lat="43.236600" lon="-5.368890">
        <ele>855.613</ele>
        <time>2020-05-21T07:53:12Z</time>
      </trkpt>
      <trkpt lat="43.236450" lon="-5.368680">
        <ele>855.775</ele>
        <time>2020-05-21T07:53:32Z</time>
      </trkpt>
      <trkpt lat="43.236390" lon="-5.368620">
        <ele>855.828</ele>
        <time>2020-05-21T07:53:52Z</time>
      </trkpt>
      <trkpt lat="43.236300" lon="-5.368530">
        <ele>857.720</ele>
        <time>2020-05-21T07:54:12Z</time>
      </trkpt>
      <trkpt lat="43.236250" lon="-5.368470">
        <ele>858.808</ele>
        <time>2020-05-21T07:54:32Z</time>
      </trkpt>
      <trkpt lat="43.236210" lon="-5.368420">
        <ele>859.651</ele>
        <time>2020-05-21T07:54:52Z</time>
      </trkpt>
      <trkpt lat="43.236100" lon="-5.368280">
        <ele>860.676</ele>
        <time>2020-05-21T07:55:12Z</time>
      </trkpt>
      <trkpt lat="43.236010" lon="-5.368110">
        <ele>861.123</ele>
        <time>2020-05-21T07:55:32Z</time>
      </trkpt>
      <trkpt lat="43.235970" lon="-5.368030">
        <ele>861.669</ele>
        <time>2020-05-21T07:55:52Z</time>
      </trkpt>
      <trkpt lat="43.235850" lon="-5.367820">
        <ele>865.038</ele>
        <time>2020-05-21T07:56:12Z</time>
      </trkpt>
      <trkpt lat="43.235810" lon="-5.367790">
        <ele>865.825</ele>
        <time>2020-05-21T07:56:32Z</time>
      </trkpt>
      <trkpt lat="43.235780" lon="-5.367770">
        <ele>866.690</ele>
        <time>2020-05-21T07:56:52Z</time>
      </trkpt>
      <trkpt lat="43.235730" lon="-5.367760">
        <ele>867.154</ele>
        <time>2020-05-21T07:57:12Z</time>
      </trkpt>
      <trkpt lat="43.235700" lon="-5.367770">
        <ele>867.125</ele>
        <time>2020-05-21T07:57:32Z</time>
      </trkpt>
      <trkpt lat="43.235670" lon="-5.367800">
        <ele>866.726</ele>
        <time>2020-05-21T07:57:52Z</time>
      </trkpt>
      <trkpt lat="43.235630" lon="-5.367830">
        <ele>866.508</ele>
        <time>2020-05-21T07:58:12Z</time>
      </trkpt>
      <trkpt lat="43.235600" lon="-5.367870">
        <ele>866.108</ele>
        <time>2020-05-21T07:58:32Z</time>
      </trkpt>
      <trkpt lat="43.235580" lon="-5.367900">
        <ele>865.966</ele>
        <time>2020-05-21T07:58:52Z</time>
      </trkpt>
      <trkpt lat="43.235510" lon="-5.368030">
        <ele>866.171</ele>
        <time>2020-05-21T07:59:12Z</time>
      </trkpt>
      <trkpt lat="43.235470" lon="-5.368080">
        <ele>866.178</ele>
        <time>2020-05-21T07:59:32Z</time>
      </trkpt>
      <trkpt lat="43.235410" lon="-5.368140">
        <ele>865.934</ele>
        <time>2020-05-21T07:59:52Z</time>
      </trkpt>
      <trkpt lat="43.235370" lon="-5.368170">
        <ele>866.193</ele>
        <time>2020-05-21T08:00:12Z</time>
      </trkpt>
      <trkpt lat="43.235300" lon="-5.368190">
        <ele>867.950</ele>
        <time>2020-05-21T08:00:32Z</time>
      </trkpt>
      <trkpt lat="43.235180" lon="-5.368240">
        <ele>869.095</ele>
        <time>2020-05-21T08:00:52Z</time>
      </trkpt>
      <trkpt lat="43.235130" lon="-5.368260">
        <ele>869.589</ele>
        <time>2020-05-21T08:01:12Z</time>
      </trkpt>
      <trkpt lat="43.235110" lon="-5.368270">
        <ele>869.647</ele>
        <time>2020-05-21T08:01:32Z</time>
      </trkpt>
      <trkpt lat="43.235020" lon="-5.368280">
        <ele>871.429</ele>
        <time>2020-05-21T08:01:52Z</time>
      </trkpt>
      <trkpt lat="43.234950" lon="-5.368270">
        <ele>871.621</ele>
        <time>2020-05-21T08:02:12Z</time>
      </trkpt>
      <trkpt lat="43.234950" lon="-5.368260">
        <ele>871.908</ele>
        <time>2020-05-21T08:02:32Z</time>
      </trkpt>
      <trkpt lat="43.234900" lon="-5.368240">
        <ele>871.948</ele>
        <time>2020-05-21T08:02:52Z</time>
      </trkpt>
      <trkpt lat="43.234740" lon="-5.368080">
        <ele>875.463</ele>
        <time>2020-05-21T08:03:12Z</time>
      </trkpt>
      <trkpt lat="43.234700" lon="-5.368070">
        <ele>876.060</ele>
        <time>2020-05-21T08:03:32Z</time>
      </trkpt>
      <trkpt lat="43.234660" lon="-5.368060">
        <ele>877.216</ele>
        <time>2020-05-21T08:03:52Z</time>
      </trkpt>
      <trkpt lat="43.234640" lon="-5.368070">
        <ele>877.395</ele>
        <time>2020-05-21T08:04:12Z</time>
      </trkpt>
      <trkpt lat="43.234620" lon="-5.368090">
        <ele>877.222</ele>
        <time>2020-05-21T08:04:32Z</time>
      </trkpt>
      <trkpt lat="43.234550" lon="-5.368160">
        <ele>877.167</ele>
        <time>2020-05-21T08:04:52Z</time>
      </trkpt>
      <trkpt lat="43.234500" lon="-5.368230">
        <ele>877.021</ele>
        <time>2020-05-21T08:05:12Z</time>
      </trkpt>
      <trkpt lat="43.234270" lon="-5.368530">
        <ele>878.296</ele>
        <time>2020-05-21T08:05:32Z</time>
      </trkpt>
      <trkpt lat="43.234210" lon="-5.368590">
        <ele>878.831</ele>
        <time>2020-05-21T08:05:52Z</time>
      </trkpt>
      <trkpt lat="43.234150" lon="-5.368620">
        <ele>880.024</ele>
        <time>2020-05-21T08:06:12Z</time>
      </trkpt>
      <trkpt lat="43.234070" lon="-5.368630">
        <ele>880.808</ele>
        <time>2020-05-21T08:06:32Z</time>
      </trkpt>
      <trkpt lat="43.234060" lon="-5.368630">
        <ele>880.993</ele>
        <time>2020-05-21T08:06:52Z</time>
      </trkpt>
      <trkpt lat="43.233950" lon="-5.368630">
        <ele>882.538</ele>
        <time>2020-05-21T08:07:12Z</time>
      </trkpt>
      <trkpt lat="43.233830" lon="-5.368620">
        <ele>883.715</ele>
        <time>2020-05-21T08:07:32Z</time>
      </trkpt>
      <trkpt lat="43.233710" lon="-5.368590">
        <ele>884.871</ele>
        <time>2020-05-21T08:07:52Z</time>
      </trkpt>
      <trkpt lat="43.233560" lon="-5.368550">
        <ele>886.120</ele>
        <time>2020-05-21T08:08:12Z</time>
      </trkpt>
      <trkpt lat="43.233110" lon="-5.368310">
        <ele>888.847</ele>
        <time>2020-05-21T08:08:32Z</time>
      </trkpt>
      <trkpt lat="43.233030" lon="-5.368260">
        <ele>889.222</ele>
        <time>2020-05-21T08:08:52Z</time>
      </trkpt>
      <trkpt lat="43.232700" lon="-5.368060">
        <ele>894.096</ele>
        <time>2020-05-21T08:09:12Z</time>
      </trkpt>
      <trkpt lat="43.232550" lon="-5.367960">
        <ele>895.416</ele>
        <time>2020-05-21T08:09:32Z</time>
      </trkpt>
      <trkpt lat="43.232470" lon="-5.367930">
        <ele>896.076</ele>
        <time>2020-05-21T08:09:52Z</time>
      </trkpt>
      <trkpt lat="43.232430" lon="-5.367920">
        <ele>896.813</ele>
        <time>2020-05-21T08:10:12Z</time>
      </trkpt>
      <trkpt lat="43.232370" lon="-5.367930">
        <ele>897.308</ele>
        <time>2020-05-21T08:10:32Z</time>
      </trkpt>
      <trkpt lat="43.232360" lon="-5.367930">
        <ele>897.535</ele>
        <time>2020-05-21T08:10:52Z</time>
      </trkpt>
      <trkpt lat="43.232320" lon="-5.367950">
        <ele>897.540</ele>
        <time>2020-05-21T08:11:12Z</time>
      </trkpt>
      <trkpt lat="43.232200" lon="-5.368030">
        <ele>897.997</ele>
        <time>2020-05-21T08:11:32Z</time>
      </trkpt>
      <trkpt lat="43.232130" lon="-5.368060">
        <ele>898.533</ele>
        <time>2020-05-21T08:11:52Z</time>
      </trkpt>
      <trkpt lat="43.232050" lon="-5.368090">
        <ele>899.152</ele>
        <time>2020-05-21T08:12:12Z</time>
      </trkpt>
      <trkpt lat="43.232030" lon="-5.368100">
        <ele>899.159</ele>
        <time>2020-05-21T08:12:32Z</time>
      </trkpt>
      <trkpt lat="43.231980" lon="-5.368110">
        <ele>899.664</ele>
        <time>2020-05-21T08:12:52Z</time>
      </trkpt>
      <trkpt lat="43.231740" lon="-5.368120">
        <ele>903.478</ele>
        <time>2020-05-21T08:13:12Z</time>
      </trkpt>
      <trkpt lat="43.231490" lon="-5.368180">
        <ele>905.545</ele>
        <time>2020-05-21T08:13:32Z</time>
      </trkpt>
      <trkpt lat="43.231260" lon="-5.368240">
        <ele>907.747</ele>
        <time>2020-05-21T08:13:52Z</time>
      </trkpt>
      <trkpt lat="43.231120" lon="-5.368240">
        <ele>909.911</ele>
        <time>2020-05-21T08:14:12Z</time>
      </trkpt>
      <trkpt lat="43.231010" lon="-5.368170">
        <ele>911.708</ele>
        <time>2020-05-21T08:14:32Z</time>
      </trkpt>
      <trkpt lat="43.230930" lon="-5.368110">
        <ele>912.658</ele>
        <time>2020-05-21T08:14:52Z</time>
      </trkpt>
      <trkpt lat="43.230870" lon="-5.368040">
        <ele>913.053</ele>
        <time>2020-05-21T08:15:12Z</time>
      </trkpt>
      <trkpt lat="43.230850" lon="-5.368020">
        <ele>913.260</ele>
        <time>2020-05-21T08:15:32Z</time>
      </trkpt>
      <trkpt lat="43.230760" lon="-5.367880">
        <ele>914.316</ele>
        <time>2020-05-21T08:15:52Z</time>
      </trkpt>
      <trkpt lat="43.230750" lon="-5.367860">
        <ele>914.485</ele>
        <time>2020-05-21T08:16:12Z</time>
      </trkpt>
      <trkpt lat="43.230640" lon="-5.367660">
        <ele>914.762</ele>
        <time>2020-05-21T08:16:32Z</time>
      </trkpt>
      <trkpt lat="43.230210" lon="-5.366870">
        <ele>910.397</ele>
        <time>2020-05-21T08:16:52Z</time>
      </trkpt>
      <trkpt lat="43.230000" lon="-5.366470">
        <ele>909.561</ele>
        <time>2020-05-21T08:17:12Z</time>
      </trkpt>
      <trkpt lat="43.229940" lon="-5.366370">
        <ele>908.883</ele>
        <time>2020-05-21T08:17:32Z</time>
      </trkpt>
      <trkpt lat="43.229890" lon="-5.366270">
        <ele>908.825</ele>
        <time>2020-05-21T08:17:52Z</time>
      </trkpt>
      <trkpt lat="43.229790" lon="-5.366070">
        <ele>908.617</ele>
        <time>2020-05-21T08:18:12Z</time>
      </trkpt>
      <trkpt lat="43.229710" lon="-5.365830">
        <ele>908.508</ele>
        <time>2020-05-21T08:18:32Z</time>
      </trkpt>
      <trkpt lat="43.229690" lon="-5.365740">
        <ele>908.092</ele>
        <time>2020-05-21T08:18:52Z</time>
      </trkpt>
      <trkpt lat="43.229680" lon="-5.365660">
        <ele>907.957</ele>
        <time>2020-05-21T08:19:12Z</time>
      </trkpt>
      <trkpt lat="43.229680" lon="-5.365610">
        <ele>908.184</ele>
        <time>2020-05-21T08:19:32Z</time>
      </trkpt>
      <trkpt lat="43.229660" lon="-5.365360">
        <ele>907.450</ele>
        <time>2020-05-21T08:19:52Z</time>
      </trkpt>
      <trkpt lat="43.229650" lon="-5.365110">
        <ele>906.659</ele>
        <time>2020-05-21T08:20:12Z</time>
      </trkpt>
      <trkpt lat="43.229610" lon="-5.364920">
        <ele>905.416</ele>
        <time>2020-05-21T08:20:32Z</time>
      </trkpt>
      <trkpt lat="43.229600" lon="-5.364880">
        <ele>905.491</ele>
        <time>2020-05-21T08:20:52Z</time>
      </trkpt>
      <trkpt lat="43.229590" lon="-5.364800">
        <ele>905.955</ele>
        <time>2020-05-21T08:21:12Z</time>
      </trkpt>
      <trkpt lat="43.229530" lon="-5.364650">
        <ele>904.882</ele>
        <time>2020-05-21T08:21:32Z</time>
      </trkpt>
      <trkpt lat="43.229450" lon="-5.364430">
        <ele>904.443</ele>
        <time>2020-05-21T08:21:52Z</time>
      </trkpt>
      <trkpt lat="43.229190" lon="-5.363780">
        <ele>901.417</ele>
        <time>2020-05-21T08:22:12Z</time>
      </trkpt>
      <trkpt lat="43.229110" lon="-5.363560">
        <ele>898.308</ele>
        <time>2020-05-21T08:22:32Z</time>
      </trkpt>
      <trkpt lat="43.229020" lon="-5.363340">
        <ele>897.052</ele>
        <time>2020-05-21T08:22:52Z</time>
      </trkpt>
      <trkpt lat="43.228980" lon="-5.363240">
        <ele>896.677</ele>
        <time>2020-05-21T08:23:12Z</time>
      </trkpt>
      <trkpt lat="43.228960" lon="-5.363160">
        <ele>897.034</ele>
        <time>2020-05-21T08:23:32Z</time>
      </trkpt>
      <trkpt lat="43.228950" lon="-5.363050">
        <ele>898.330</ele>
        <time>2020-05-21T08:23:52Z</time>
      </trkpt>
      <trkpt lat="43.228930" lon="-5.362890">
        <ele>897.029</ele>
        <time>2020-05-21T08:24:12Z</time>
      </trkpt>
      <trkpt lat="43.228940" lon="-5.362870">
        <ele>897.516</ele>
        <time>2020-05-21T08:24:32Z</time>
      </trkpt>
      <trkpt lat="43.228940" lon="-5.362690">
        <ele>897.361</ele>
        <time>2020-05-21T08:24:52Z</time>
      </trkpt>
      <trkpt lat="43.228970" lon="-5.362390">
        <ele>897.535</ele>
        <time>2020-05-21T08:25:12Z</time>
      </trkpt>
      <trkpt lat="43.229030" lon="-5.362220">
        <ele>899.156</ele>
        <time>2020-05-21T08:25:32Z</time>
      </trkpt>
      <trkpt lat="43.229040" lon="-5.362160">
        <ele>899.459</ele>
        <time>2020-05-21T08:25:52Z</time>
      </trkpt>
      <trkpt lat="43.229040" lon="-5.362150">
        <ele>899.414</ele>
        <time>2020-05-21T08:26:12Z</time>
      </trkpt>
      <trkpt lat="43.229040" lon="-5.362120">
        <ele>899.408</ele>
        <time>2020-05-21T08:26:32Z</time>
      </trkpt>
      <trkpt lat="43.229040" lon="-5.362060">
        <ele>899.389</ele>
        <time>2020-05-21T08:26:52Z</time>
      </trkpt>
      <trkpt lat="43.229020" lon="-5.362000">
        <ele>898.284</ele>
        <time>2020-05-21T08:27:12Z</time>
      </trkpt>
      <trkpt lat="43.228990" lon="-5.361920">
        <ele>896.691</ele>
        <time>2020-05-21T08:27:32Z</time>
      </trkpt>
      <trkpt lat="43.228920" lon="-5.361690">
        <ele>894.587</ele>
        <time>2020-05-21T08:27:52Z</time>
      </trkpt>
      <trkpt lat="43.228860" lon="-5.361510">
        <ele>893.586</ele>
        <time>2020-05-21T08:28:12Z</time>
      </trkpt>
      <trkpt lat="43.228820" lon="-5.361390">
        <ele>892.833</ele>
        <time>2020-05-21T08:28:32Z</time>
      </trkpt>
      <trkpt lat="43.228810" lon="-5.361310">
        <ele>891.958</ele>
        <time>2020-05-21T08:28:52Z</time>
      </trkpt>
      <trkpt lat="43.228810" lon="-5.361230">
        <ele>891.622</ele>
        <time>2020-05-21T08:29:12Z</time>
      </trkpt>
      <trkpt lat="43.228820" lon="-5.361160">
        <ele>891.732</ele>
        <time>2020-05-21T08:29:32Z</time>
      </trkpt>
      <trkpt lat="43.228840" lon="-5.361100">
        <ele>892.392</ele>
        <time>2020-05-21T08:29:52Z</time>
      </trkpt>
      <trkpt lat="43.228900" lon="-5.361020">
        <ele>893.211</ele>
        <time>2020-05-21T08:30:12Z</time>
      </trkpt>
      <trkpt lat="43.229060" lon="-5.360790">
        <ele>890.808</ele>
        <time>2020-05-21T08:30:32Z</time>
      </trkpt>
      <trkpt lat="43.229090" lon="-5.360710">
        <ele>890.227</ele>
        <time>2020-05-21T08:30:52Z</time>
      </trkpt>
      <trkpt lat="43.229100" lon="-5.360650">
        <ele>889.662</ele>
        <time>2020-05-21T08:31:12Z</time>
      </trkpt>
      <trkpt lat="43.229100" lon="-5.360630">
        <ele>889.389</ele>
        <time>2020-05-21T08:31:32Z</time>
      </trkpt>
      <trkpt lat="43.229130" lon="-5.360390">
        <ele>888.835</ele>
        <time>2020-05-21T08:31:52Z</time>
      </trkpt>
      <trkpt lat="43.229130" lon="-5.360330">
        <ele>888.654</ele>
        <time>2020-05-21T08:32:12Z</time>
      </trkpt>
      <trkpt lat="43.229140" lon="-5.360140">
        <ele>889.991</ele>
        <time>2020-05-21T08:32:32Z</time>
      </trkpt>
      <trkpt lat="43.229140" lon="-5.360130">
        <ele>890.046</ele>
        <time>2020-05-21T08:32:52Z</time>
      </trkpt>
      <trkpt lat="43.229140" lon="-5.360090">
        <ele>890.220</ele>
        <time>2020-05-21T08:33:12Z</time>
      </trkpt>
      <trkpt lat="43.229130" lon="-5.360050">
        <ele>890.183</ele>
        <time>2020-05-21T08:33:32Z</time>
      </trkpt>
      <trkpt lat="43.229120" lon="-5.360010">
        <ele>889.925</ele>
        <time>2020-05-21T08:33:52Z</time>
      </trkpt>
      <trkpt lat="43.229090" lon="-5.359980">
        <ele>889.317</ele>
        <time>2020-05-21T08:34:12Z</time>
      </trkpt>
      <trkpt lat="43.229050" lon="-5.359940">
        <ele>888.708</ele>
        <time>2020-05-21T08:34:32Z</time>
      </trkpt>
      <trkpt lat="43.228890" lon="-5.359800">
        <ele>885.822</ele>
        <time>2020-05-21T08:34:52Z</time>
      </trkpt>
      <trkpt lat="43.228840" lon="-5.359720">
        <ele>886.337</ele>
        <time>2020-05-21T08:35:12Z</time>
      </trkpt>
      <trkpt lat="43.228820" lon="-5.359660">
        <ele>886.134</ele>
        <time>2020-05-21T08:35:32Z</time>
      </trkpt>
      <trkpt lat="43.228800" lon="-5.359530">
        <ele>886.410</ele>
        <time>2020-05-21T08:35:52Z</time>
      </trkpt>
      <trkpt lat="43.228790" lon="-5.359360">
        <ele>885.679</ele>
        <time>2020-05-21T08:36:12Z</time>
      </trkpt>
      <trkpt lat="43.228780" lon="-5.359230">
        <ele>883.516</ele>
        <time>2020-05-21T08:36:32Z</time>
      </trkpt>
      <trkpt lat="43.228790" lon="-5.359180">
        <ele>883.351</ele>
        <time>2020-05-21T08:36:52Z</time>
      </trkpt>
      <trkpt lat="43.228800" lon="-5.359140">
        <ele>882.515</ele>
        <time>2020-05-21T08:37:12Z</time>
      </trkpt>
      <trkpt lat="43.228810" lon="-5.359120">
        <ele>882.158</ele>
        <time>2020-05-21T08:37:32Z</time>
      </trkpt>
      <trkpt lat="43.228830" lon="-5.359100">
        <ele>882.152</ele>
        <time>2020-05-21T08:37:52Z</time>
      </trkpt>
      <trkpt lat="43.228840" lon="-5.359100">
        <ele>882.517</ele>
        <time>2020-05-21T08:38:12Z</time>
      </trkpt>
      <trkpt lat="43.228840" lon="-5.359090">
        <ele>882.108</ele>
        <time>2020-05-21T08:38:32Z</time>
      </trkpt>
      <trkpt lat="43.228860" lon="-5.359090">
        <ele>882.949</ele>
        <time>2020-05-21T08:38:52Z</time>
      </trkpt>
      <trkpt lat="43.228880" lon="-5.359090">
        <ele>883.654</ele>
        <time>2020-05-21T08:39:12Z</time>
      </trkpt>
      <trkpt lat="43.228980" lon="-5.359080">
        <ele>884.291</ele>
        <time>2020-05-21T08:39:32Z</time>
      </trkpt>
      <trkpt lat="43.229070" lon="-5.359070">
        <ele>884.527</ele>
        <time>2020-05-21T08:39:52Z</time>
      </trkpt>
      <trkpt lat="43.229200" lon="-5.359050">
        <ele>885.436</ele>
        <time>2020-05-21T08:40:12Z</time>
      </trkpt>
      <trkpt lat="43.229270" lon="-5.359020">
        <ele>886.633</ele>
        <time>2020-05-21T08:40:32Z</time>
      </trkpt>
      <trkpt lat="43.229330" lon="-5.358960">
        <ele>886.488</ele>
        <time>2020-05-21T08:40:52Z</time>
      </trkpt>
      <trkpt lat="43.229370" lon="-5.358860">
        <ele>884.772</ele>
        <time>2020-05-21T08:41:12Z</time>
      </trkpt>
      <trkpt lat="43.229410" lon="-5.358740">
        <ele>883.953</ele>
        <time>2020-05-21T08:41:32Z</time>
      </trkpt>
      <trkpt lat="43.229420" lon="-5.358700">
        <ele>883.504</ele>
        <time>2020-05-21T08:41:52Z</time>
      </trkpt>
      <trkpt lat="43.229460" lon="-5.358510">
        <ele>881.714</ele>
        <time>2020-05-21T08:42:12Z</time>
      </trkpt>
      <trkpt lat="43.229460" lon="-5.358480">
        <ele>881.108</ele>
        <time>2020-05-21T08:42:32Z</time>
      </trkpt>
      <trkpt lat="43.229540" lon="-5.358290">
        <ele>879.679</ele>
        <time>2020-05-21T08:42:52Z</time>
      </trkpt>
      <trkpt lat="43.229570" lon="-5.358190">
        <ele>878.574</ele>
        <time>2020-05-21T08:43:12Z</time>
      </trkpt>
      <trkpt lat="43.229630" lon="-5.358050">
        <ele>878.071</ele>
        <time>2020-05-21T08:43:32Z</time>
      </trkpt>
      <trkpt lat="43.229640" lon="-5.357990">
        <ele>878.157</ele>
        <time>2020-05-21T08:43:52Z</time>
      </trkpt>
      <trkpt lat="43.229650" lon="-5.357940">
        <ele>878.256</ele>
        <time>2020-05-21T08:44:12Z</time>
      </trkpt>
      <trkpt lat="43.229640" lon="-5.357890">
        <ele>877.713</ele>
        <time>2020-05-21T08:44:32Z</time>
      </trkpt>
      <trkpt lat="43.229630" lon="-5.357840">
        <ele>877.218</ele>
        <time>2020-05-21T08:44:52Z</time>
      </trkpt>
      <trkpt lat="43.229520" lon="-5.357640">
        <ele>875.372</ele>
        <time>2020-05-21T08:45:12Z</time>
      </trkpt>
      <trkpt lat="43.229410" lon="-5.357440">
        <ele>874.681</ele>
        <time>2020-05-21T08:45:32Z</time>
      </trkpt>
      <trkpt lat="43.229370" lon="-5.357380">
        <ele>873.861</ele>
        <time>2020-05-21T08:45:52Z</time>
      </trkpt>
      <trkpt lat="43.229310" lon="-5.357250">
        <ele>873.317</ele>
        <time>2020-05-21T08:46:12Z</time>
      </trkpt>
      <trkpt lat="43.229310" lon="-5.357230">
        <ele>873.608</ele>
        <time>2020-05-21T08:46:32Z</time>
      </trkpt>
      <trkpt lat="43.229270" lon="-5.357120">
        <ele>872.892</ele>
        <time>2020-05-21T08:46:52Z</time>
      </trkpt>
      <trkpt lat="43.229250" lon="-5.357040">
        <ele>872.767</ele>
        <time>2020-05-21T08:47:12Z</time>
      </trkpt>
      <trkpt lat="43.229250" lon="-5.357000">
        <ele>873.134</ele>
        <time>2020-05-21T08:47:32Z</time>
      </trkpt>
      <trkpt lat="43.229250" lon="-5.356990">
        <ele>873.240</ele>
        <time>2020-05-21T08:47:52Z</time>
      </trkpt>
      <trkpt lat="43.229260" lon="-5.356950">
        <ele>874.049</ele>
        <time>2020-05-21T08:48:12Z</time>
      </trkpt>
      <trkpt lat="43.229280" lon="-5.356900">
        <ele>874.236</ele>
        <time>2020-05-21T08:48:32Z</time>
      </trkpt>
      <trkpt lat="43.229370" lon="-5.356710">
        <ele>873.881</ele>
        <time>2020-05-21T08:48:52Z</time>
      </trkpt>
      <trkpt lat="43.229380" lon="-5.356660">
        <ele>873.145</ele>
        <time>2020-05-21T08:49:12Z</time>
      </trkpt>
      <trkpt lat="43.229390" lon="-5.356580">
        <ele>873.159</ele>
        <time>2020-05-21T08:49:32Z</time>
      </trkpt>
      <trkpt lat="43.229390" lon="-5.356560">
        <ele>873.003</ele>
        <time>2020-05-21T08:49:52Z</time>
      </trkpt>
      <trkpt lat="43.229390" lon="-5.356510">
        <ele>872.823</ele>
        <time>2020-05-21T08:50:12Z</time>
      </trkpt>
      <trkpt lat="43.229360" lon="-5.356240">
        <ele>871.708</ele>
        <time>2020-05-21T08:50:32Z</time>
      </trkpt>
      <trkpt lat="43.229330" lon="-5.356070">
        <ele>871.179</ele>
        <time>2020-05-21T08:50:52Z</time>
      </trkpt>
      <trkpt lat="43.229280" lon="-5.355920">
        <ele>870.894</ele>
        <time>2020-05-21T08:51:12Z</time>
      </trkpt>
      <trkpt lat="43.229240" lon="-5.355850">
        <ele>869.951</ele>
        <time>2020-05-21T08:51:32Z</time>
      </trkpt>
      <trkpt lat="43.229180" lon="-5.355780">
        <ele>869.137</ele>
        <time>2020-05-21T08:51:52Z</time>
      </trkpt>
      <trkpt lat="43.229100" lon="-5.355710">
        <ele>868.836</ele>
        <time>2020-05-21T08:52:12Z</time>
      </trkpt>
      <trkpt lat="43.228940" lon="-5.355600">
        <ele>867.383</ele>
        <time>2020-05-21T08:52:32Z</time>
      </trkpt>
      <trkpt lat="43.228760" lon="-5.355530">
        <ele>865.748</ele>
        <time>2020-05-21T08:52:52Z</time>
      </trkpt>
      <trkpt lat="43.228710" lon="-5.355510">
        <ele>865.592</ele>
        <time>2020-05-21T08:53:12Z</time>
      </trkpt>
      <trkpt lat="43.228520" lon="-5.355410">
        <ele>863.811</ele>
        <time>2020-05-21T08:53:32Z</time>
      </trkpt>
      <trkpt lat="43.228450" lon="-5.355340">
        <ele>863.621</ele>
        <time>2020-05-21T08:53:52Z</time>
      </trkpt>
      <trkpt lat="43.228440" lon="-5.355330">
        <ele>863.603</ele>
        <time>2020-05-21T08:54:12Z</time>
      </trkpt>
      <trkpt lat="43.228410" lon="-5.355290">
        <ele>863.708</ele>
        <time>2020-05-21T08:54:32Z</time>
      </trkpt>
      <trkpt lat="43.228360" lon="-5.355210">
        <ele>863.435</ele>
        <time>2020-05-21T08:54:52Z</time>
      </trkpt>
      <trkpt lat="43.228330" lon="-5.355140">
        <ele>863.490</ele>
        <time>2020-05-21T08:55:12Z</time>
      </trkpt>
      <trkpt lat="43.228320" lon="-5.355130">
        <ele>863.217</ele>
        <time>2020-05-21T08:55:32Z</time>
      </trkpt>
      <trkpt lat="43.228250" lon="-5.354900">
        <ele>863.663</ele>
        <time>2020-05-21T08:55:52Z</time>
      </trkpt>
      <trkpt lat="43.228230" lon="-5.354840">
        <ele>863.832</ele>
        <time>2020-05-21T08:56:12Z</time>
      </trkpt>
      <trkpt lat="43.228200" lon="-5.354790">
        <ele>863.749</ele>
        <time>2020-05-21T08:56:32Z</time>
      </trkpt>
      <trkpt lat="43.228160" lon="-5.354760">
        <ele>863.124</ele>
        <time>2020-05-21T08:56:52Z</time>
      </trkpt>
      <trkpt lat="43.228140" lon="-5.354740">
        <ele>862.818</ele>
        <time>2020-05-21T08:57:12Z</time>
      </trkpt>
      <trkpt lat="43.228120" lon="-5.354730">
        <ele>862.551</ele>
        <time>2020-05-21T08:57:32Z</time>
      </trkpt>
      <trkpt lat="43.228070" lon="-5.354720">
        <ele>861.501</ele>
        <time>2020-05-21T08:57:52Z</time>
      </trkpt>
      <trkpt lat="43.228010" lon="-5.354700">
        <ele>861.711</ele>
        <time>2020-05-21T08:58:12Z</time>
      </trkpt>
      <trkpt lat="43.227960" lon="-5.354700">
        <ele>861.508</ele>
        <time>2020-05-21T08:58:32Z</time>
      </trkpt>
      <trkpt lat="43.227900" lon="-5.354700">
        <ele>861.389</ele>
        <time>2020-05-21T08:58:52Z</time>
      </trkpt>
      <trkpt lat="43.227780" lon="-5.354730">
        <ele>859.894</ele>
        <time>2020-05-21T08:59:12Z</time>
      </trkpt>
      <trkpt lat="43.227600" lon="-5.354770">
        <ele>857.951</ele>
        <time>2020-05-21T08:59:32Z</time>
      </trkpt>
      <trkpt lat="43.227420" lon="-5.354800">
        <ele>855.687</ele>
        <time>2020-05-21T08:59:52Z</time>
      </trkpt>
      <trkpt lat="43.227400" lon="-5.354810">
        <ele>855.136</ele>
        <time>2020-05-21T09:00:12Z</time>
      </trkpt>
      <trkpt lat="43.227360" lon="-5.354800">
        <ele>854.813</ele>
        <time>2020-05-21T09:00:32Z</time>
      </trkpt>
      <trkpt lat="43.227310" lon="-5.354780">
        <ele>854.598</ele>
        <time>2020-05-21T09:00:52Z</time>
      </trkpt>
      <trkpt lat="43.227270" lon="-5.354740">
        <ele>854.642</ele>
        <time>2020-05-21T09:01:12Z</time>
      </trkpt>
      <trkpt lat="43.227260" lon="-5.354730">
        <ele>854.695</ele>
        <time>2020-05-21T09:01:32Z</time>
      </trkpt>
      <trkpt lat="43.227250" lon="-5.354700">
        <ele>854.849</ele>
        <time>2020-05-21T09:01:52Z</time>
      </trkpt>
      <trkpt lat="43.227210" lon="-5.354620">
        <ele>854.823</ele>
        <time>2020-05-21T09:02:12Z</time>
      </trkpt>
      <trkpt lat="43.227080" lon="-5.354300">
        <ele>853.208</ele>
        <time>2020-05-21T09:02:32Z</time>
      </trkpt>
      <trkpt lat="43.227040" lon="-5.354200">
        <ele>852.363</ele>
        <time>2020-05-21T09:02:52Z</time>
      </trkpt>
      <trkpt lat="43.227020" lon="-5.354130">
        <ele>851.828</ele>
        <time>2020-05-21T09:03:12Z</time>
      </trkpt>
      <trkpt lat="43.227020" lon="-5.354070">
        <ele>851.985</ele>
        <time>2020-05-21T09:03:32Z</time>
      </trkpt>
      <trkpt lat="43.227020" lon="-5.354060">
        <ele>851.991</ele>
        <time>2020-05-21T09:03:52Z</time>
      </trkpt>
      <trkpt lat="43.227010" lon="-5.353980">
        <ele>851.790</ele>
        <time>2020-05-21T09:04:12Z</time>
      </trkpt>
      <trkpt lat="43.227010" lon="-5.353900">
        <ele>851.987</ele>
        <time>2020-05-21T09:04:32Z</time>
      </trkpt>
      <trkpt lat="43.227020" lon="-5.353830">
        <ele>851.392</ele>
        <time>2020-05-21T09:04:52Z</time>
      </trkpt>
      <trkpt lat="43.227100" lon="-5.353650">
        <ele>851.086</ele>
        <time>2020-05-21T09:05:12Z</time>
      </trkpt>
      <trkpt lat="43.227110" lon="-5.353610">
        <ele>850.818</ele>
        <time>2020-05-21T09:05:32Z</time>
      </trkpt>
      <trkpt lat="43.227180" lon="-5.353380">
        <ele>850.998</ele>
        <time>2020-05-21T09:05:52Z</time>
      </trkpt>
      <trkpt lat="43.227190" lon="-5.353350">
        <ele>851.017</ele>
        <time>2020-05-21T09:06:12Z</time>
      </trkpt>
      <trkpt lat="43.227240" lon="-5.353180">
        <ele>851.708</ele>
        <time>2020-05-21T09:06:32Z</time>
      </trkpt>
      <trkpt lat="43.227240" lon="-5.353150">
        <ele>851.445</ele>
        <time>2020-05-21T09:06:52Z</time>
      </trkpt>
      <trkpt lat="43.227240" lon="-5.353070">
        <ele>850.850</ele>
        <time>2020-05-21T09:07:12Z</time>
      </trkpt>
      <trkpt lat="43.227230" lon="-5.352970">
        <ele>850.617</ele>
        <time>2020-05-21T09:07:32Z</time>
      </trkpt>
      <trkpt lat="43.227220" lon="-5.352910">
        <ele>850.593</ele>
        <time>2020-05-21T09:07:52Z</time>
      </trkpt>
      <trkpt lat="43.227210" lon="-5.352880">
        <ele>850.442</ele>
        <time>2020-05-21T09:08:12Z</time>
      </trkpt>
      <trkpt lat="43.227170" lon="-5.352790">
        <ele>849.879</ele>
        <time>2020-05-21T09:08:32Z</time>
      </trkpt>
      <trkpt lat="43.227120" lon="-5.352700">
        <ele>849.844</ele>
        <time>2020-05-21T09:08:52Z</time>
      </trkpt>
      <trkpt lat="43.227090" lon="-5.352660">
        <ele>849.658</ele>
        <time>2020-05-21T09:09:12Z</time>
      </trkpt>
      <trkpt lat="43.227040" lon="-5.352610">
        <ele>849.165</ele>
        <time>2020-05-21T09:09:32Z</time>
      </trkpt>
      <trkpt lat="43.226990" lon="-5.352590">
        <ele>848.168</ele>
        <time>2020-05-21T09:09:52Z</time>
      </trkpt>
      <trkpt lat="43.226970" lon="-5.352590">
        <ele>847.614</ele>
        <time>2020-05-21T09:10:12Z</time>
      </trkpt>
      <trkpt lat="43.226790" lon="-5.352610">
        <ele>845.708</ele>
        <time>2020-05-21T09:10:32Z</time>
      </trkpt>
      <trkpt lat="43.226700" lon="-5.352620">
        <ele>844.860</ele>
        <time>2020-05-21T09:10:52Z</time>
      </trkpt>
      <trkpt lat="43.226640" lon="-5.352620">
        <ele>843.815</ele>
        <time>2020-05-21T09:11:12Z</time>
      </trkpt>
      <trkpt lat="43.226590" lon="-5.352600">
        <ele>842.892</ele>
        <time>2020-05-21T09:11:32Z</time>
      </trkpt>
      <trkpt lat="43.226570" lon="-5.352590">
        <ele>842.538</ele>
        <time>2020-05-21T09:11:52Z</time>
      </trkpt>
      <trkpt lat="43.226550" lon="-5.352580">
        <ele>842.217</ele>
        <time>2020-05-21T09:12:12Z</time>
      </trkpt>
      <trkpt lat="43.226540" lon="-5.352560">
        <ele>842.494</ele>
        <time>2020-05-21T09:12:32Z</time>
      </trkpt>
      <trkpt lat="43.226520" lon="-5.352530">
        <ele>842.549</ele>
        <time>2020-05-21T09:12:52Z</time>
      </trkpt>
      <trkpt lat="43.226500" lon="-5.352490">
        <ele>842.643</ele>
        <time>2020-05-21T09:13:12Z</time>
      </trkpt>
      <trkpt lat="43.226500" lon="-5.352440">
        <ele>842.967</ele>
        <time>2020-05-21T09:13:32Z</time>
      </trkpt>
      <trkpt lat="43.226500" lon="-5.352190">
        <ele>844.481</ele>
        <time>2020-05-21T09:13:52Z</time>
      </trkpt>
      <trkpt lat="43.226510" lon="-5.352080">
        <ele>846.319</ele>
        <time>2020-05-21T09:14:12Z</time>
      </trkpt>
      <trkpt lat="43.226500" lon="-5.352060">
        <ele>846.108</ele>
        <time>2020-05-21T09:14:32Z</time>
      </trkpt>
      <trkpt lat="43.226500" lon="-5.352030">
        <ele>846.550</ele>
        <time>2020-05-21T09:14:52Z</time>
      </trkpt>
      <trkpt lat="43.226500" lon="-5.352020">
        <ele>846.625</ele>
        <time>2020-05-21T09:15:12Z</time>
      </trkpt>
      <trkpt lat="43.226490" lon="-5.352000">
        <ele>846.532</ele>
        <time>2020-05-21T09:15:32Z</time>
      </trkpt>
      <trkpt lat="43.226480" lon="-5.351990">
        <ele>846.388</ele>
        <time>2020-05-21T09:15:52Z</time>
      </trkpt>
      <trkpt lat="43.226470" lon="-5.351980">
        <ele>846.117</ele>
        <time>2020-05-21T09:16:12Z</time>
      </trkpt>
      <trkpt lat="43.226460" lon="-5.351970">
        <ele>845.954</ele>
        <time>2020-05-21T09:16:32Z</time>
      </trkpt>
      <trkpt lat="43.226450" lon="-5.351970">
        <ele>845.559</ele>
        <time>2020-05-21T09:16:52Z</time>
      </trkpt>
      <trkpt lat="43.226410" lon="-5.351970">
        <ele>844.293</ele>
        <time>2020-05-21T09:17:12Z</time>
      </trkpt>
      <trkpt lat="43.226370" lon="-5.351980">
        <ele>843.116</ele>
        <time>2020-05-21T09:17:32Z</time>
      </trkpt>
      <trkpt lat="43.226290" lon="-5.352020">
        <ele>841.476</ele>
        <time>2020-05-21T09:17:52Z</time>
      </trkpt>
      <trkpt lat="43.226190" lon="-5.352060">
        <ele>839.213</ele>
        <time>2020-05-21T09:18:12Z</time>
      </trkpt>
      <trkpt lat="43.226140" lon="-5.352060">
        <ele>838.608</ele>
        <time>2020-05-21T09:18:32Z</time>
      </trkpt>
      <trkpt lat="43.226120" lon="-5.352050">
        <ele>838.735</ele>
        <time>2020-05-21T09:18:52Z</time>
      </trkpt>
      <trkpt lat="43.226110" lon="-5.352050">
        <ele>838.520</ele>
        <time>2020-05-21T09:19:12Z</time>
      </trkpt>
      <trkpt lat="43.226100" lon="-5.352050">
        <ele>838.197</ele>
        <time>2020-05-21T09:19:32Z</time>
      </trkpt>
      <trkpt lat="43.226080" lon="-5.352030">
        <ele>837.773</ele>
        <time>2020-05-21T09:19:52Z</time>
      </trkpt>
      <trkpt lat="43.226070" lon="-5.352020">
        <ele>837.552</ele>
        <time>2020-05-21T09:20:12Z</time>
      </trkpt>
      <trkpt lat="43.226060" lon="-5.351990">
        <ele>837.939</ele>
        <time>2020-05-21T09:20:32Z</time>
      </trkpt>
      <trkpt lat="43.226050" lon="-5.351960">
        <ele>838.374</ele>
        <time>2020-05-21T09:20:52Z</time>
      </trkpt>
      <trkpt lat="43.226040" lon="-5.351880">
        <ele>839.078</ele>
        <time>2020-05-21T09:21:12Z</time>
      </trkpt>
      <trkpt lat="43.226040" lon="-5.351850">
        <ele>839.433</ele>
        <time>2020-05-21T09:21:32Z</time>
      </trkpt>
      <trkpt lat="43.226040" lon="-5.351790">
        <ele>840.323</ele>
        <time>2020-05-21T09:21:52Z</time>
      </trkpt>
      <trkpt lat="43.226050" lon="-5.351620">
        <ele>842.515</ele>
        <time>2020-05-21T09:22:12Z</time>
      </trkpt>
      <trkpt lat="43.226050" lon="-5.351600">
        <ele>842.608</ele>
        <time>2020-05-21T09:22:32Z</time>
      </trkpt>
      <trkpt lat="43.226030" lon="-5.351500">
        <ele>842.257</ele>
        <time>2020-05-21T09:22:52Z</time>
      </trkpt>
      <trkpt lat="43.226020" lon="-5.351430">
        <ele>842.222</ele>
        <time>2020-05-21T09:23:12Z</time>
      </trkpt>
      <trkpt lat="43.225990" lon="-5.351370">
        <ele>842.029</ele>
        <time>2020-05-21T09:23:32Z</time>
      </trkpt>
      <trkpt lat="43.225990" lon="-5.351350">
        <ele>842.445</ele>
        <time>2020-05-21T09:23:52Z</time>
      </trkpt>
      <trkpt lat="43.225970" lon="-5.351320">
        <ele>842.574</ele>
        <time>2020-05-21T09:24:12Z</time>
      </trkpt>
      <trkpt lat="43.225940" lon="-5.351280">
        <ele>842.671</ele>
        <time>2020-05-21T09:24:32Z</time>
      </trkpt>
      <trkpt lat="43.225900" lon="-5.351250">
        <ele>842.016</ele>
        <time>2020-05-21T09:24:52Z</time>
      </trkpt>
      <trkpt lat="43.225860" lon="-5.351240">
        <ele>841.080</ele>
        <time>2020-05-21T09:25:12Z</time>
      </trkpt>
      <trkpt lat="43.225850" lon="-5.351240">
        <ele>840.725</ele>
        <time>2020-05-21T09:25:32Z</time>
      </trkpt>
      <trkpt lat="43.225670" lon="-5.351210">
        <ele>838.326</ele>
        <time>2020-05-21T09:25:52Z</time>
      </trkpt>
      <trkpt lat="43.225540" lon="-5.351190">
        <ele>836.808</ele>
        <time>2020-05-21T09:26:12Z</time>
      </trkpt>
      <trkpt lat="43.225490" lon="-5.351180">
        <ele>836.608</ele>
        <time>2020-05-21T09:26:32Z</time>
      </trkpt>
      <trkpt lat="43.225310" lon="-5.351150">
        <ele>835.476</ele>
        <time>2020-05-21T09:26:52Z</time>
      </trkpt>
      <trkpt lat="43.225300" lon="-5.351150">
        <ele>835.341</ele>
        <time>2020-05-21T09:27:12Z</time>
      </trkpt>
      <trkpt lat="43.225220" lon="-5.351150">
        <ele>834.858</ele>
        <time>2020-05-21T09:27:32Z</time>
      </trkpt>
      <trkpt lat="43.225170" lon="-5.351160">
        <ele>834.494</ele>
        <time>2020-05-21T09:27:52Z</time>
      </trkpt>
      <trkpt lat="43.225100" lon="-5.351190">
        <ele>833.633</ele>
        <time>2020-05-21T09:28:12Z</time>
      </trkpt>
      <trkpt lat="43.225050" lon="-5.351220">
        <ele>832.880</ele>
        <time>2020-05-21T09:28:32Z</time>
      </trkpt>
      <trkpt lat="43.224970" lon="-5.351280">
        <ele>832.085</ele>
        <time>2020-05-21T09:28:52Z</time>
      </trkpt>
      <trkpt lat="43.224900" lon="-5.351340">
        <ele>832.469</ele>
        <time>2020-05-21T09:29:12Z</time>
      </trkpt>
      <trkpt lat="43.224850" lon="-5.351380">
        <ele>832.925</ele>
        <time>2020-05-21T09:29:32Z</time>
      </trkpt>
      <trkpt lat="43.224830" lon="-5.351410">
        <ele>832.826</ele>
        <time>2020-05-21T09:29:52Z</time>
      </trkpt>
      <trkpt lat="43.224760" lon="-5.351520">
        <ele>831.808</ele>
        <time>2020-05-21T09:30:12Z</time>
      </trkpt>
      <trkpt lat="43.224710" lon="-5.351610">
        <ele>830.708</ele>
        <time>2020-05-21T09:30:32Z</time>
      </trkpt>
      <trkpt lat="43.224660" lon="-5.351710">
        <ele>829.276</ele>
        <time>2020-05-21T09:30:52Z</time>
      </trkpt>
      <trkpt lat="43.224600" lon="-5.351790">
        <ele>828.591</ele>
        <time>2020-05-21T09:31:12Z</time>
      </trkpt>
      <trkpt lat="43.224520" lon="-5.351900">
        <ele>827.938</ele>
        <time>2020-05-21T09:31:32Z</time>
      </trkpt>
      <trkpt lat="43.224460" lon="-5.351950">
        <ele>828.444</ele>
        <time>2020-05-21T09:31:52Z</time>
      </trkpt>
      <trkpt lat="43.224420" lon="-5.351980">
        <ele>827.913</ele>
        <time>2020-05-21T09:32:12Z</time>
      </trkpt>
      <trkpt lat="43.224340" lon="-5.352000">
        <ele>827.420</ele>
        <time>2020-05-21T09:32:32Z</time>
      </trkpt>
      <trkpt lat="43.224290" lon="-5.352010">
        <ele>827.315</ele>
        <time>2020-05-21T09:32:52Z</time>
      </trkpt>
      <trkpt lat="43.224110" lon="-5.352060">
        <ele>826.239</ele>
        <time>2020-05-21T09:33:12Z</time>
      </trkpt>
      <trkpt lat="43.223990" lon="-5.352050">
        <ele>825.877</ele>
        <time>2020-05-21T09:33:32Z</time>
      </trkpt>
      <trkpt lat="43.223950" lon="-5.352020">
        <ele>825.961</ele>
        <time>2020-05-21T09:33:52Z</time>
      </trkpt>
      <trkpt lat="43.223940" lon="-5.352010">
        <ele>825.927</ele>
        <time>2020-05-21T09:34:12Z</time>
      </trkpt>
      <trkpt lat="43.223920" lon="-5.351990">
        <ele>825.908</ele>
        <time>2020-05-21T09:34:32Z</time>
      </trkpt>
      <trkpt lat="43.223900" lon="-5.351920">
        <ele>826.051</ele>
        <time>2020-05-21T09:34:52Z</time>
      </trkpt>
      <trkpt lat="43.223900" lon="-5.351820">
        <ele>825.786</ele>
        <time>2020-05-21T09:35:12Z</time>
      </trkpt>
      <trkpt lat="43.223910" lon="-5.351780">
        <ele>825.873</ele>
        <time>2020-05-21T09:35:32Z</time>
      </trkpt>
      <trkpt lat="43.223950" lon="-5.351570">
        <ele>825.279</ele>
        <time>2020-05-21T09:35:52Z</time>
      </trkpt>
      <trkpt lat="43.223950" lon="-5.351540">
        <ele>824.878</ele>
        <time>2020-05-21T09:36:12Z</time>
      </trkpt>
      <trkpt lat="43.223980" lon="-5.351290">
        <ele>822.955</ele>
        <time>2020-05-21T09:36:32Z</time>
      </trkpt>
      <trkpt lat="43.223990" lon="-5.351180">
        <ele>822.040</ele>
        <time>2020-05-21T09:36:52Z</time>
      </trkpt>
      <trkpt lat="43.223990" lon="-5.351140">
        <ele>821.564</ele>
        <time>2020-05-21T09:37:12Z</time>
      </trkpt>
      <trkpt lat="43.223990" lon="-5.351090">
        <ele>821.327</ele>
        <time>2020-05-21T09:37:32Z</time>
      </trkpt>
      <trkpt lat="43.223980" lon="-5.351050">
        <ele>821.268</ele>
        <time>2020-05-21T09:37:52Z</time>
      </trkpt>
      <trkpt lat="43.223980" lon="-5.351040">
        <ele>821.214</ele>
        <time>2020-05-21T09:38:12Z</time>
      </trkpt>
      <trkpt lat="43.223970" lon="-5.351000">
        <ele>821.208</ele>
        <time>2020-05-21T09:38:32Z</time>
      </trkpt>
      <trkpt lat="43.223950" lon="-5.350970">
        <ele>820.866</ele>
        <time>2020-05-21T09:38:52Z</time>
      </trkpt>
      <trkpt lat="43.223900" lon="-5.350910">
        <ele>820.091</ele>
        <time>2020-05-21T09:39:12Z</time>
      </trkpt>
      <trkpt lat="43.223860" lon="-5.350880">
        <ele>819.518</ele>
        <time>2020-05-21T09:39:32Z</time>
      </trkpt>
      <trkpt lat="43.223790" lon="-5.350840">
        <ele>818.964</ele>
        <time>2020-05-21T09:39:52Z</time>
      </trkpt>
      <trkpt lat="43.223530" lon="-5.350700">
        <ele>816.473</ele>
        <time>2020-05-21T09:40:12Z</time>
      </trkpt>
      <trkpt lat="43.223360" lon="-5.350610">
        <ele>813.660</ele>
        <time>2020-05-21T09:40:32Z</time>
      </trkpt>
      <trkpt lat="43.223350" lon="-5.350600">
        <ele>813.615</ele>
        <time>2020-05-21T09:40:52Z</time>
      </trkpt>
      <trkpt lat="43.223230" lon="-5.350520">
        <ele>812.029</ele>
        <time>2020-05-21T09:41:12Z</time>
      </trkpt>
      <trkpt lat="43.223200" lon="-5.350490">
        <ele>811.733</ele>
        <time>2020-05-21T09:41:32Z</time>
      </trkpt>
      <trkpt lat="43.223170" lon="-5.350460">
        <ele>811.423</ele>
        <time>2020-05-21T09:41:52Z</time>
      </trkpt>
      <trkpt lat="43.223160" lon="-5.350430">
        <ele>811.615</ele>
        <time>2020-05-21T09:42:12Z</time>
      </trkpt>
      <trkpt lat="43.223140" lon="-5.350380">
        <ele>811.808</ele>
        <time>2020-05-21T09:42:32Z</time>
      </trkpt>
      <trkpt lat="43.223120" lon="-5.350330">
        <ele>812.187</ele>
        <time>2020-05-21T09:42:52Z</time>
      </trkpt>
      <trkpt lat="43.223110" lon="-5.350280">
        <ele>812.572</ele>
        <time>2020-05-21T09:43:12Z</time>
      </trkpt>
      <trkpt lat="43.223110" lon="-5.350240">
        <ele>812.589</ele>
        <time>2020-05-21T09:43:32Z</time>
      </trkpt>
      <trkpt lat="43.223110" lon="-5.350100">
        <ele>812.315</ele>
        <time>2020-05-21T09:43:52Z</time>
      </trkpt>
      <trkpt lat="43.223110" lon="-5.349860">
        <ele>812.474</ele>
        <time>2020-05-21T09:44:12Z</time>
      </trkpt>
      <trkpt lat="43.223090" lon="-5.349790">
        <ele>811.651</ele>
        <time>2020-05-21T09:44:32Z</time>
      </trkpt>
      <trkpt lat="43.223070" lon="-5.349730">
        <ele>810.766</ele>
        <time>2020-05-21T09:44:52Z</time>
      </trkpt>
      <trkpt lat="43.223040" lon="-5.349670">
        <ele>810.460</ele>
        <time>2020-05-21T09:45:12Z</time>
      </trkpt>
      <trkpt lat="43.223000" lon="-5.349630">
        <ele>810.192</ele>
        <time>2020-05-21T09:45:32Z</time>
      </trkpt>
      <trkpt lat="43.222970" lon="-5.349620">
        <ele>809.573</ele>
        <time>2020-05-21T09:45:52Z</time>
      </trkpt>
      <trkpt lat="43.222910" lon="-5.349580">
        <ele>808.920</ele>
        <time>2020-05-21T09:46:12Z</time>
      </trkpt>
      <trkpt lat="43.222800" lon="-5.349530">
        <ele>807.608</ele>
        <time>2020-05-21T09:46:32Z</time>
      </trkpt>
      <trkpt lat="43.222740" lon="-5.349510">
        <ele>806.743</ele>
        <time>2020-05-21T09:46:52Z</time>
      </trkpt>
      <trkpt lat="43.222660" lon="-5.349460">
        <ele>806.158</ele>
        <time>2020-05-21T09:47:12Z</time>
      </trkpt>
      <trkpt lat="43.222640" lon="-5.349440">
        <ele>806.125</ele>
        <time>2020-05-21T09:47:32Z</time>
      </trkpt>
      <trkpt lat="43.222580" lon="-5.349400">
        <ele>805.551</ele>
        <time>2020-05-21T09:47:52Z</time>
      </trkpt>
      <trkpt lat="43.222470" lon="-5.349260">
        <ele>804.790</ele>
        <time>2020-05-21T09:48:12Z</time>
      </trkpt>
      <trkpt lat="43.222430" lon="-5.349200">
        <ele>804.397</ele>
        <time>2020-05-21T09:48:32Z</time>
      </trkpt>
      <trkpt lat="43.222400" lon="-5.349150">
        <ele>803.852</ele>
        <time>2020-05-21T09:48:52Z</time>
      </trkpt>
      <trkpt lat="43.222380" lon="-5.349110">
        <ele>803.286</ele>
        <time>2020-05-21T09:49:12Z</time>
      </trkpt>
      <trkpt lat="43.222370" lon="-5.349060">
        <ele>803.016</ele>
        <time>2020-05-21T09:49:32Z</time>
      </trkpt>
      <trkpt lat="43.222370" lon="-5.349010">
        <ele>803.176</ele>
        <time>2020-05-21T09:49:52Z</time>
      </trkpt>
      <trkpt lat="43.222380" lon="-5.348860">
        <ele>803.413</ele>
        <time>2020-05-21T09:50:12Z</time>
      </trkpt>
      <trkpt lat="43.222400" lon="-5.348650">
        <ele>802.108</ele>
        <time>2020-05-21T09:50:32Z</time>
      </trkpt>
      <trkpt lat="43.222400" lon="-5.348620">
        <ele>801.845</ele>
        <time>2020-05-21T09:50:52Z</time>
      </trkpt>
      <trkpt lat="43.222440" lon="-5.348370">
        <ele>800.820</ele>
        <time>2020-05-21T09:51:12Z</time>
      </trkpt>
      <trkpt lat="43.222460" lon="-5.348230">
        <ele>800.337</ele>
        <time>2020-05-21T09:51:32Z</time>
      </trkpt>
      <trkpt lat="43.222470" lon="-5.348150">
        <ele>799.913</ele>
        <time>2020-05-21T09:51:52Z</time>
      </trkpt>
      <trkpt lat="43.222460" lon="-5.348070">
        <ele>798.742</ele>
        <time>2020-05-21T09:52:12Z</time>
      </trkpt>
      <trkpt lat="43.222460" lon="-5.348010">
        <ele>798.749</ele>
        <time>2020-05-21T09:52:32Z</time>
      </trkpt>
      <trkpt lat="43.222440" lon="-5.347950">
        <ele>798.274</ele>
        <time>2020-05-21T09:52:52Z</time>
      </trkpt>
      <trkpt lat="43.222420" lon="-5.347890">
        <ele>797.768</ele>
        <time>2020-05-21T09:53:12Z</time>
      </trkpt>
      <trkpt lat="43.222340" lon="-5.347670">
        <ele>796.155</ele>
        <time>2020-05-21T09:53:32Z</time>
      </trkpt>
      <trkpt lat="43.222300" lon="-5.347550">
        <ele>795.307</ele>
        <time>2020-05-21T09:53:52Z</time>
      </trkpt>
      <trkpt lat="43.222280" lon="-5.347500">
        <ele>794.717</ele>
        <time>2020-05-21T09:54:12Z</time>
      </trkpt>
      <trkpt lat="43.222280" lon="-5.347450">
        <ele>794.608</ele>
        <time>2020-05-21T09:54:32Z</time>
      </trkpt>
      <trkpt lat="43.222280" lon="-5.347400">
        <ele>794.589</ele>
        <time>2020-05-21T09:54:52Z</time>
      </trkpt>
      <trkpt lat="43.222280" lon="-5.347350">
        <ele>794.484</ele>
        <time>2020-05-21T09:55:12Z</time>
      </trkpt>
      <trkpt lat="43.222280" lon="-5.347280">
        <ele>794.291</ele>
        <time>2020-05-21T09:55:32Z</time>
      </trkpt>
      <trkpt lat="43.222290" lon="-5.347200">
        <ele>794.137</ele>
        <time>2020-05-21T09:55:52Z</time>
      </trkpt>
      <trkpt lat="43.222350" lon="-5.346970">
        <ele>793.056</ele>
        <time>2020-05-21T09:56:12Z</time>
      </trkpt>
      <trkpt lat="43.222390" lon="-5.346820">
        <ele>793.023</ele>
        <time>2020-05-21T09:56:32Z</time>
      </trkpt>
      <trkpt lat="43.222410" lon="-5.346730">
        <ele>793.098</ele>
        <time>2020-05-21T09:56:52Z</time>
      </trkpt>
      <trkpt lat="43.222410" lon="-5.346680">
        <ele>792.512</ele>
        <time>2020-05-21T09:57:12Z</time>
      </trkpt>
      <trkpt lat="43.222410" lon="-5.346590">
        <ele>792.865</ele>
        <time>2020-05-21T09:57:32Z</time>
      </trkpt>
      <trkpt lat="43.222410" lon="-5.346520">
        <ele>793.168</ele>
        <time>2020-05-21T09:57:52Z</time>
      </trkpt>
      <trkpt lat="43.222390" lon="-5.346470">
        <ele>792.614</ele>
        <time>2020-05-21T09:58:12Z</time>
      </trkpt>
      <trkpt lat="43.222360" lon="-5.346410">
        <ele>791.808</ele>
        <time>2020-05-21T09:58:32Z</time>
      </trkpt>
      <trkpt lat="43.222330" lon="-5.346370">
        <ele>791.230</ele>
        <time>2020-05-21T09:58:52Z</time>
      </trkpt>
      <trkpt lat="43.222300" lon="-5.346340">
        <ele>790.955</ele>
        <time>2020-05-21T09:59:12Z</time>
      </trkpt>
      <trkpt lat="43.222270" lon="-5.346320">
        <ele>790.412</ele>
        <time>2020-05-21T09:59:32Z</time>
      </trkpt>
      <trkpt lat="43.222250" lon="-5.346300">
        <ele>790.378</ele>
        <time>2020-05-21T09:59:52Z</time>
      </trkpt>
      <trkpt lat="43.222190" lon="-5.346280">
        <ele>790.367</ele>
        <time>2020-05-21T10:00:12Z</time>
      </trkpt>
      <trkpt lat="43.222160" lon="-5.346280">
        <ele>790.464</ele>
        <time>2020-05-21T10:00:32Z</time>
      </trkpt>
      <trkpt lat="43.222110" lon="-5.346310">
        <ele>789.829</ele>
        <time>2020-05-21T10:00:52Z</time>
      </trkpt>
      <trkpt lat="43.222100" lon="-5.346310">
        <ele>789.893</ele>
        <time>2020-05-21T10:01:12Z</time>
      </trkpt>
      <trkpt lat="43.222070" lon="-5.346340">
        <ele>789.199</ele>
        <time>2020-05-21T10:01:32Z</time>
      </trkpt>
      <trkpt lat="43.221960" lon="-5.346450">
        <ele>786.307</ele>
        <time>2020-05-21T10:01:52Z</time>
      </trkpt>
      <trkpt lat="43.221950" lon="-5.346450">
        <ele>786.227</ele>
        <time>2020-05-21T10:02:12Z</time>
      </trkpt>
      <trkpt lat="43.221790" lon="-5.346550">
        <ele>785.308</ele>
        <time>2020-05-21T10:02:32Z</time>
      </trkpt>
      <trkpt lat="43.221730" lon="-5.346590">
        <ele>784.743</ele>
        <time>2020-05-21T10:02:52Z</time>
      </trkpt>
      <trkpt lat="43.221470" lon="-5.346740">
        <ele>782.218</ele>
        <time>2020-05-21T10:03:12Z</time>
      </trkpt>
      <trkpt lat="43.221460" lon="-5.346740">
        <ele>782.335</ele>
        <time>2020-05-21T10:03:32Z</time>
      </trkpt>
      <trkpt lat="43.221450" lon="-5.346740">
        <ele>782.461</ele>
        <time>2020-05-21T10:03:52Z</time>
      </trkpt>
      <trkpt lat="43.221420" lon="-5.346750">
        <ele>782.490</ele>
        <time>2020-05-21T10:04:12Z</time>
      </trkpt>
      <trkpt lat="43.221390" lon="-5.346750">
        <ele>782.797</ele>
        <time>2020-05-21T10:04:32Z</time>
      </trkpt>
      <trkpt lat="43.221370" lon="-5.346740">
        <ele>782.882</ele>
        <time>2020-05-21T10:04:52Z</time>
      </trkpt>
      <trkpt lat="43.221300" lon="-5.346710">
        <ele>782.666</ele>
        <time>2020-05-21T10:05:12Z</time>
      </trkpt>
      <trkpt lat="43.221200" lon="-5.346620">
        <ele>783.191</ele>
        <time>2020-05-21T10:05:32Z</time>
      </trkpt>
      <trkpt lat="43.221180" lon="-5.346610">
        <ele>782.981</ele>
        <time>2020-05-21T10:05:52Z</time>
      </trkpt>
      <trkpt lat="43.221160" lon="-5.346600">
        <ele>782.719</ele>
        <time>2020-05-21T10:06:12Z</time>
      </trkpt>
      <trkpt lat="43.221140" lon="-5.346590">
        <ele>782.408</ele>
        <time>2020-05-21T10:06:32Z</time>
      </trkpt>
      <trkpt lat="43.221100" lon="-5.346600">
        <ele>781.673</ele>
        <time>2020-05-21T10:06:52Z</time>
      </trkpt>
      <trkpt lat="43.221040" lon="-5.346640">
        <ele>781.778</ele>
        <time>2020-05-21T10:07:12Z</time>
      </trkpt>
      <trkpt lat="43.221030" lon="-5.346650">
        <ele>781.725</ele>
        <time>2020-05-21T10:07:32Z</time>
      </trkpt>
      <trkpt lat="43.221010" lon="-5.346680">
        <ele>781.651</ele>
        <time>2020-05-21T10:07:52Z</time>
      </trkpt>
      <trkpt lat="43.221000" lon="-5.346690">
        <ele>781.660</ele>
        <time>2020-05-21T10:08:12Z</time>
      </trkpt>
      <trkpt lat="43.220990" lon="-5.346720">
        <ele>781.357</ele>
        <time>2020-05-21T10:08:32Z</time>
      </trkpt>
      <trkpt lat="43.220980" lon="-5.346760">
        <ele>780.842</ele>
        <time>2020-05-21T10:08:52Z</time>
      </trkpt>
      <trkpt lat="43.220970" lon="-5.346810">
        <ele>780.226</ele>
        <time>2020-05-21T10:09:12Z</time>
      </trkpt>
      <trkpt lat="43.220950" lon="-5.346950">
        <ele>778.761</ele>
        <time>2020-05-21T10:09:32Z</time>
      </trkpt>
      <trkpt lat="43.220920" lon="-5.347030">
        <ele>777.921</ele>
        <time>2020-05-21T10:09:52Z</time>
      </trkpt>
      <trkpt lat="43.220880" lon="-5.347120">
        <ele>777.413</ele>
        <time>2020-05-21T10:10:12Z</time>
      </trkpt>
      <trkpt lat="43.220640" lon="-5.347510">
        <ele>775.708</ele>
        <time>2020-05-21T10:10:32Z</time>
      </trkpt>
      <trkpt lat="43.220550" lon="-5.347640">
        <ele>775.550</ele>
        <time>2020-05-21T10:10:52Z</time>
      </trkpt>
      <trkpt lat="43.220490" lon="-5.347710">
        <ele>774.055</ele>
        <time>2020-05-21T10:11:12Z</time>
      </trkpt>
      <trkpt lat="43.220460" lon="-5.347730">
        <ele>773.432</ele>
        <time>2020-05-21T10:11:32Z</time>
      </trkpt>
      <trkpt lat="43.220430" lon="-5.347750">
        <ele>772.828</ele>
        <time>2020-05-21T10:11:52Z</time>
      </trkpt>
      <trkpt lat="43.220380" lon="-5.347760">
        <ele>772.227</ele>
        <time>2020-05-21T10:12:12Z</time>
      </trkpt>
      <trkpt lat="43.220340" lon="-5.347750">
        <ele>772.394</ele>
        <time>2020-05-21T10:12:32Z</time>
      </trkpt>
      <trkpt lat="43.220210" lon="-5.347710">
        <ele>772.469</ele>
        <time>2020-05-21T10:12:52Z</time>
      </trkpt>
      <trkpt lat="43.220050" lon="-5.347630">
        <ele>772.073</ele>
        <time>2020-05-21T10:13:12Z</time>
      </trkpt>
      <trkpt lat="43.220040" lon="-5.347630">
        <ele>771.881</ele>
        <time>2020-05-21T10:13:32Z</time>
      </trkpt>
      <trkpt lat="43.220010" lon="-5.347620">
        <ele>771.461</ele>
        <time>2020-05-21T10:13:52Z</time>
      </trkpt>
      <trkpt lat="43.219970" lon="-5.347630">
        <ele>771.317</ele>
        <time>2020-05-21T10:14:12Z</time>
      </trkpt>
      <trkpt lat="43.219920" lon="-5.347650">
        <ele>771.408</ele>
        <time>2020-05-21T10:14:32Z</time>
      </trkpt>
      <trkpt lat="43.219880" lon="-5.347690">
        <ele>771.312</ele>
        <time>2020-05-21T10:14:52Z</time>
      </trkpt>
      <trkpt lat="43.219870" lon="-5.347700">
        <ele>771.387</ele>
        <time>2020-05-21T10:15:12Z</time>
      </trkpt>
      <trkpt lat="43.219850" lon="-5.347730">
        <ele>771.184</ele>
        <time>2020-05-21T10:15:32Z</time>
      </trkpt>
      <trkpt lat="43.219810" lon="-5.347910">
        <ele>770.050</ele>
        <time>2020-05-21T10:15:52Z</time>
      </trkpt>
      <trkpt lat="43.219790" lon="-5.348010">
        <ele>769.439</ele>
        <time>2020-05-21T10:16:12Z</time>
      </trkpt>
      <trkpt lat="43.219760" lon="-5.348110">
        <ele>768.786</ele>
        <time>2020-05-21T10:16:32Z</time>
      </trkpt>
      <trkpt lat="43.219730" lon="-5.348170">
        <ele>768.241</ele>
        <time>2020-05-21T10:16:52Z</time>
      </trkpt>
      <trkpt lat="43.219700" lon="-5.348230">
        <ele>767.715</ele>
        <time>2020-05-21T10:17:12Z</time>
      </trkpt>
      <trkpt lat="43.219630" lon="-5.348290">
        <ele>767.454</ele>
        <time>2020-05-21T10:17:32Z</time>
      </trkpt>
      <trkpt lat="43.219610" lon="-5.348290">
        <ele>767.656</ele>
        <time>2020-05-21T10:17:52Z</time>
      </trkpt>
      <trkpt lat="43.219440" lon="-5.348400">
        <ele>766.511</ele>
        <time>2020-05-21T10:18:12Z</time>
      </trkpt>
      <trkpt lat="43.219410" lon="-5.348440">
        <ele>766.408</ele>
        <time>2020-05-21T10:18:32Z</time>
      </trkpt>
      <trkpt lat="43.219390" lon="-5.348480">
        <ele>766.299</ele>
        <time>2020-05-21T10:18:52Z</time>
      </trkpt>
      <trkpt lat="43.219350" lon="-5.348600">
        <ele>765.074</ele>
        <time>2020-05-21T10:19:12Z</time>
      </trkpt>
      <trkpt lat="43.219350" lon="-5.348620">
        <ele>764.691</ele>
        <time>2020-05-21T10:19:32Z</time>
      </trkpt>
      <trkpt lat="43.219310" lon="-5.348740">
        <ele>763.397</ele>
        <time>2020-05-21T10:19:52Z</time>
      </trkpt>
      <trkpt lat="43.219280" lon="-5.348810">
        <ele>762.576</ele>
        <time>2020-05-21T10:20:12Z</time>
      </trkpt>
      <trkpt lat="43.219270" lon="-5.348820">
        <ele>762.523</ele>
        <time>2020-05-21T10:20:32Z</time>
      </trkpt>
      <trkpt lat="43.219200" lon="-5.348900">
        <ele>761.978</ele>
        <time>2020-05-21T10:20:52Z</time>
      </trkpt>
      <trkpt lat="43.219130" lon="-5.348980">
        <ele>760.322</ele>
        <time>2020-05-21T10:21:12Z</time>
      </trkpt>
      <trkpt lat="43.219070" lon="-5.349050">
        <ele>758.871</ele>
        <time>2020-05-21T10:21:32Z</time>
      </trkpt>
      <trkpt lat="43.219020" lon="-5.349090">
        <ele>758.341</ele>
        <time>2020-05-21T10:21:52Z</time>
      </trkpt>
      <trkpt lat="43.218970" lon="-5.349110">
        <ele>758.415</ele>
        <time>2020-05-21T10:22:12Z</time>
      </trkpt>
      <trkpt lat="43.218910" lon="-5.349130">
        <ele>758.808</ele>
        <time>2020-05-21T10:22:32Z</time>
      </trkpt>
      <trkpt lat="43.218840" lon="-5.349120">
        <ele>759.131</ele>
        <time>2020-05-21T10:22:52Z</time>
      </trkpt>
      <trkpt lat="43.218810" lon="-5.349110">
        <ele>759.116</ele>
        <time>2020-05-21T10:23:12Z</time>
      </trkpt>
      <trkpt lat="43.218750" lon="-5.349080">
        <ele>759.343</ele>
        <time>2020-05-21T10:23:32Z</time>
      </trkpt>
      <trkpt lat="43.218710" lon="-5.349070">
        <ele>759.259</ele>
        <time>2020-05-21T10:23:52Z</time>
      </trkpt>
      <trkpt lat="43.218690" lon="-5.349070">
        <ele>759.018</ele>
        <time>2020-05-21T10:24:12Z</time>
      </trkpt>
      <trkpt lat="43.218650" lon="-5.349080">
        <ele>758.345</ele>
        <time>2020-05-21T10:24:32Z</time>
      </trkpt>
      <trkpt lat="43.218630" lon="-5.349090">
        <ele>757.850</ele>
        <time>2020-05-21T10:24:52Z</time>
      </trkpt>
      <trkpt lat="43.218600" lon="-5.349110">
        <ele>757.864</ele>
        <time>2020-05-21T10:25:12Z</time>
      </trkpt>
      <trkpt lat="43.218580" lon="-5.349160">
        <ele>757.714</ele>
        <time>2020-05-21T10:25:32Z</time>
      </trkpt>
      <trkpt lat="43.218560" lon="-5.349210">
        <ele>757.954</ele>
        <time>2020-05-21T10:25:52Z</time>
      </trkpt>
      <trkpt lat="43.218540" lon="-5.349280">
        <ele>757.709</ele>
        <time>2020-05-21T10:26:12Z</time>
      </trkpt>
      <trkpt lat="43.218520" lon="-5.349440">
        <ele>756.008</ele>
        <time>2020-05-21T10:26:32Z</time>
      </trkpt>
      <trkpt lat="43.218510" lon="-5.349480">
        <ele>755.525</ele>
        <time>2020-05-21T10:26:52Z</time>
      </trkpt>
      <trkpt lat="43.218500" lon="-5.349530">
        <ele>754.760</ele>
        <time>2020-05-21T10:27:12Z</time>
      </trkpt>
      <trkpt lat="43.218490" lon="-5.349550">
        <ele>754.697</ele>
        <time>2020-05-21T10:27:32Z</time>
      </trkpt>
      <trkpt lat="43.218450" lon="-5.349640">
        <ele>753.973</ele>
        <time>2020-05-21T10:27:52Z</time>
      </trkpt>
      <trkpt lat="43.218400" lon="-5.349710">
        <ele>753.922</ele>
        <time>2020-05-21T10:28:12Z</time>
      </trkpt>
      <trkpt lat="43.218350" lon="-5.349760">
        <ele>754.449</ele>
        <time>2020-05-21T10:28:32Z</time>
      </trkpt>
      <trkpt lat="43.218280" lon="-5.349820">
        <ele>753.834</ele>
        <time>2020-05-21T10:28:52Z</time>
      </trkpt>
      <trkpt lat="43.218230" lon="-5.349850">
        <ele>753.358</ele>
        <time>2020-05-21T10:29:12Z</time>
      </trkpt>
      <trkpt lat="43.218210" lon="-5.349870">
        <ele>753.036</ele>
        <time>2020-05-21T10:29:32Z</time>
      </trkpt>
      <trkpt lat="43.218120" lon="-5.349910">
        <ele>752.617</ele>
        <time>2020-05-21T10:29:52Z</time>
      </trkpt>
      <trkpt lat="43.217900" lon="-5.350030">
        <ele>749.618</ele>
        <time>2020-05-21T10:30:12Z</time>
      </trkpt>
      <trkpt lat="43.217730" lon="-5.350110">
        <ele>747.908</ele>
        <time>2020-05-21T10:30:32Z</time>
      </trkpt>
      <trkpt lat="43.217590" lon="-5.350180">
        <ele>748.247</ele>
        <time>2020-05-21T10:30:52Z</time>
      </trkpt>
      <trkpt lat="43.217570" lon="-5.350210">
        <ele>747.722</ele>
        <time>2020-05-21T10:31:12Z</time>
      </trkpt>
      <trkpt lat="43.217490" lon="-5.350280">
        <ele>747.269</ele>
        <time>2020-05-21T10:31:32Z</time>
      </trkpt>
      <trkpt lat="43.217460" lon="-5.350340">
        <ele>747.135</ele>
        <time>2020-05-21T10:31:52Z</time>
      </trkpt>
      <trkpt lat="43.217430" lon="-5.350410">
        <ele>747.044</ele>
        <time>2020-05-21T10:32:12Z</time>
      </trkpt>
      <trkpt lat="43.217410" lon="-5.350510">
        <ele>746.261</ele>
        <time>2020-05-21T10:32:32Z</time>
      </trkpt>
      <trkpt lat="43.217400" lon="-5.350620">
        <ele>745.356</ele>
        <time>2020-05-21T10:32:52Z</time>
      </trkpt>
      <trkpt lat="43.217380" lon="-5.350860">
        <ele>743.950</ele>
        <time>2020-05-21T10:33:12Z</time>
      </trkpt>
      <trkpt lat="43.217370" lon="-5.350990">
        <ele>742.776</ele>
        <time>2020-05-21T10:33:32Z</time>
      </trkpt>
      <trkpt lat="43.217360" lon="-5.351030">
        <ele>742.690</ele>
        <time>2020-05-21T10:33:52Z</time>
      </trkpt>
      <trkpt lat="43.217350" lon="-5.351060">
        <ele>742.519</ele>
        <time>2020-05-21T10:34:12Z</time>
      </trkpt>
      <trkpt lat="43.217320" lon="-5.351100">
        <ele>742.708</ele>
        <time>2020-05-21T10:34:32Z</time>
      </trkpt>
      <trkpt lat="43.217280" lon="-5.351130">
        <ele>743.131</ele>
        <time>2020-05-21T10:34:52Z</time>
      </trkpt>
      <trkpt lat="43.217230" lon="-5.351150">
        <ele>743.756</ele>
        <time>2020-05-21T10:35:12Z</time>
      </trkpt>
      <trkpt lat="43.217180" lon="-5.351180">
        <ele>744.353</ele>
        <time>2020-05-21T10:35:32Z</time>
      </trkpt>
      <trkpt lat="43.217150" lon="-5.351210">
        <ele>744.569</ele>
        <time>2020-05-21T10:35:52Z</time>
      </trkpt>
      <trkpt lat="43.217130" lon="-5.351230">
        <ele>744.878</ele>
        <time>2020-05-21T10:36:12Z</time>
      </trkpt>
      <trkpt lat="43.217120" lon="-5.351270">
        <ele>744.335</ele>
        <time>2020-05-21T10:36:32Z</time>
      </trkpt>
      <trkpt lat="43.217100" lon="-5.351330">
        <ele>743.940</ele>
        <time>2020-05-21T10:36:52Z</time>
      </trkpt>
      <trkpt lat="43.217090" lon="-5.351410">
        <ele>742.984</ele>
        <time>2020-05-21T10:37:12Z</time>
      </trkpt>
      <trkpt lat="43.217090" lon="-5.351420">
        <ele>742.818</ele>
        <time>2020-05-21T10:37:32Z</time>
      </trkpt>
      <trkpt lat="43.217070" lon="-5.351660">
        <ele>740.798</ele>
        <time>2020-05-21T10:37:52Z</time>
      </trkpt>
      <trkpt lat="43.217060" lon="-5.351660">
        <ele>741.117</ele>
        <time>2020-05-21T10:38:12Z</time>
      </trkpt>
      <trkpt lat="43.217040" lon="-5.351740">
        <ele>740.608</ele>
        <time>2020-05-21T10:38:32Z</time>
      </trkpt>
      <trkpt lat="43.217000" lon="-5.351850">
        <ele>740.045</ele>
        <time>2020-05-21T10:38:52Z</time>
      </trkpt>
      <trkpt lat="43.216910" lon="-5.351980">
        <ele>740.180</ele>
        <time>2020-05-21T10:39:12Z</time>
      </trkpt>
      <trkpt lat="43.216850" lon="-5.352050">
        <ele>739.847</ele>
        <time>2020-05-21T10:39:32Z</time>
      </trkpt>
      <trkpt lat="43.216760" lon="-5.352160">
        <ele>738.843</ele>
        <time>2020-05-21T10:39:52Z</time>
      </trkpt>
      <trkpt lat="43.216680" lon="-5.352250">
        <ele>737.982</ele>
        <time>2020-05-21T10:40:12Z</time>
      </trkpt>
      <trkpt lat="43.216610" lon="-5.352290">
        <ele>737.329</ele>
        <time>2020-05-21T10:40:32Z</time>
      </trkpt>
      <trkpt lat="43.216540" lon="-5.352320">
        <ele>736.684</ele>
        <time>2020-05-21T10:40:52Z</time>
      </trkpt>
      <trkpt lat="43.216470" lon="-5.352330">
        <ele>736.598</ele>
        <time>2020-05-21T10:41:12Z</time>
      </trkpt>
      <trkpt lat="43.216350" lon="-5.352330">
        <ele>736.576</ele>
        <time>2020-05-21T10:41:32Z</time>
      </trkpt>
      <trkpt lat="43.216200" lon="-5.352330">
        <ele>735.590</ele>
        <time>2020-05-21T10:41:52Z</time>
      </trkpt>
      <trkpt lat="43.215590" lon="-5.352320">
        <ele>734.919</ele>
        <time>2020-05-21T10:42:12Z</time>
      </trkpt>
      <trkpt lat="43.215480" lon="-5.352330">
        <ele>734.308</ele>
        <time>2020-05-21T10:42:32Z</time>
      </trkpt>
      <trkpt lat="43.215370" lon="-5.352350">
        <ele>733.491</ele>
        <time>2020-05-21T10:42:52Z</time>
      </trkpt>
      <trkpt lat="43.215300" lon="-5.352370">
        <ele>732.866</ele>
        <time>2020-05-21T10:43:12Z</time>
      </trkpt>
      <trkpt lat="43.214950" lon="-5.352460">
        <ele>731.383</ele>
        <time>2020-05-21T10:43:32Z</time>
      </trkpt>
      <trkpt lat="43.214950" lon="-5.352470">
        <ele>731.219</ele>
        <time>2020-05-21T10:43:52Z</time>
      </trkpt>
      <trkpt lat="43.214870" lon="-5.352480">
        <ele>730.498</ele>
        <time>2020-05-21T10:44:12Z</time>
      </trkpt>
      <trkpt lat="43.214780" lon="-5.352470">
        <ele>729.925</ele>
        <time>2020-05-21T10:44:32Z</time>
      </trkpt>
      <trkpt lat="43.214770" lon="-5.352460">
        <ele>729.910</ele>
        <time>2020-05-21T10:44:52Z</time>
      </trkpt>
      <trkpt lat="43.214710" lon="-5.352430">
        <ele>729.864</ele>
        <time>2020-05-21T10:45:12Z</time>
      </trkpt>
      <trkpt lat="43.214660" lon="-5.352390">
        <ele>729.434</ele>
        <time>2020-05-21T10:45:32Z</time>
      </trkpt>
      <trkpt lat="43.214570" lon="-5.352290">
        <ele>728.655</ele>
        <time>2020-05-21T10:45:52Z</time>
      </trkpt>
      <trkpt lat="43.214480" lon="-5.352180">
        <ele>727.710</ele>
        <time>2020-05-21T10:46:12Z</time>
      </trkpt>
      <trkpt lat="43.214450" lon="-5.352140">
        <ele>727.608</ele>
        <time>2020-05-21T10:46:32Z</time>
      </trkpt>
      <trkpt lat="43.214370" lon="-5.351990">
        <ele>727.497</ele>
        <time>2020-05-21T10:46:52Z</time>
      </trkpt>
      <trkpt lat="43.214020" lon="-5.351420">
        <ele>724.312</ele>
        <time>2020-05-21T10:47:12Z</time>
      </trkpt>
      <trkpt lat="43.213790" lon="-5.351040">
        <ele>723.689</ele>
        <time>2020-05-21T10:47:32Z</time>
      </trkpt>
      <trkpt lat="43.213560" lon="-5.350660">
        <ele>721.815</ele>
        <time>2020-05-21T10:47:52Z</time>
      </trkpt>
      <trkpt lat="43.213450" lon="-5.350470">
        <ele>721.024</ele>
        <time>2020-05-21T10:48:12Z</time>
      </trkpt>
      <trkpt lat="43.213350" lon="-5.350320">
        <ele>719.941</ele>
        <time>2020-05-21T10:48:32Z</time>
      </trkpt>
      <trkpt lat="43.213100" lon="-5.349900">
        <ele>717.396</ele>
        <time>2020-05-21T10:48:52Z</time>
      </trkpt>
      <trkpt lat="43.212990" lon="-5.349710">
        <ele>716.830</ele>
        <time>2020-05-21T10:49:12Z</time>
      </trkpt>
      <trkpt lat="43.212630" lon="-5.349120">
        <ele>712.394</ele>
        <time>2020-05-21T10:49:32Z</time>
      </trkpt>
      <trkpt lat="43.212590" lon="-5.349050">
        <ele>712.157</ele>
        <time>2020-05-21T10:49:52Z</time>
      </trkpt>
      <trkpt lat="43.212520" lon="-5.348980">
        <ele>711.222</ele>
        <time>2020-05-21T10:50:12Z</time>
      </trkpt>
      <trkpt lat="43.212520" lon="-5.348970">
        <ele>711.408</ele>
        <time>2020-05-21T10:50:32Z</time>
      </trkpt>
      <trkpt lat="43.212470" lon="-5.348930">
        <ele>711.073</ele>
        <time>2020-05-21T10:50:52Z</time>
      </trkpt>
      <trkpt lat="43.212420" lon="-5.348910">
        <ele>710.728</ele>
        <time>2020-05-21T10:51:12Z</time>
      </trkpt>
      <trkpt lat="43.212370" lon="-5.348900">
        <ele>710.495</ele>
        <time>2020-05-21T10:51:32Z</time>
      </trkpt>
      <trkpt lat="43.212350" lon="-5.348900">
        <ele>710.121</ele>
        <time>2020-05-21T10:51:52Z</time>
      </trkpt>
      <trkpt lat="43.212320" lon="-5.348900">
        <ele>709.860</ele>
        <time>2020-05-21T10:52:12Z</time>
      </trkpt>
      <trkpt lat="43.212280" lon="-5.348910">
        <ele>709.197</ele>
        <time>2020-05-21T10:52:32Z</time>
      </trkpt>
      <trkpt lat="43.212070" lon="-5.349010">
        <ele>706.672</ele>
        <time>2020-05-21T10:52:52Z</time>
      </trkpt>
      <trkpt lat="43.212010" lon="-5.349040">
        <ele>706.236</ele>
        <time>2020-05-21T10:53:12Z</time>
      </trkpt>
      <trkpt lat="43.211780" lon="-5.349160">
        <ele>704.321</ele>
        <time>2020-05-21T10:53:32Z</time>
      </trkpt>
      <trkpt lat="43.211350" lon="-5.349380">
        <ele>700.841</ele>
        <time>2020-05-21T10:53:52Z</time>
      </trkpt>
      <trkpt lat="43.211260" lon="-5.349420">
        <ele>700.605</ele>
        <time>2020-05-21T10:54:12Z</time>
      </trkpt>
      <trkpt lat="43.211220" lon="-5.349450">
        <ele>700.608</ele>
        <time>2020-05-21T10:54:32Z</time>
      </trkpt>
      <trkpt lat="43.211190" lon="-5.349500">
        <ele>700.386</ele>
        <time>2020-05-21T10:54:52Z</time>
      </trkpt>
      <trkpt lat="43.211170" lon="-5.349570">
        <ele>700.051</ele>
        <time>2020-05-21T10:55:12Z</time>
      </trkpt>
      <trkpt lat="43.211150" lon="-5.349640">
        <ele>699.848</ele>
        <time>2020-05-21T10:55:32Z</time>
      </trkpt>
      <trkpt lat="43.211150" lon="-5.349660">
        <ele>699.664</ele>
        <time>2020-05-21T10:55:52Z</time>
      </trkpt>
      <trkpt lat="43.211140" lon="-5.349710">
        <ele>699.553</ele>
        <time>2020-05-21T10:56:12Z</time>
      </trkpt>
      <trkpt lat="43.211140" lon="-5.349820">
        <ele>698.920</ele>
        <time>2020-05-21T10:56:32Z</time>
      </trkpt>
      <trkpt lat="43.211150" lon="-5.349920">
        <ele>697.945</ele>
        <time>2020-05-21T10:56:52Z</time>
      </trkpt>
      <trkpt lat="43.211140" lon="-5.350080">
        <ele>696.639</ele>
        <time>2020-05-21T10:57:12Z</time>
      </trkpt>
      <trkpt lat="43.211130" lon="-5.350150">
        <ele>696.089</ele>
        <time>2020-05-21T10:57:32Z</time>
      </trkpt>
      <trkpt lat="43.211110" lon="-5.350230">
        <ele>695.706</ele>
        <time>2020-05-21T10:57:52Z</time>
      </trkpt>
      <trkpt lat="43.211070" lon="-5.350290">
        <ele>695.626</ele>
        <time>2020-05-21T10:58:12Z</time>
      </trkpt>
      <trkpt lat="43.211010" lon="-5.350370">
        <ele>694.508</ele>
        <time>2020-05-21T10:58:32Z</time>
      </trkpt>
      <trkpt lat="43.210910" lon="-5.350450">
        <ele>693.722</ele>
        <time>2020-05-21T10:58:52Z</time>
      </trkpt>
      <trkpt lat="43.210800" lon="-5.350520">
        <ele>692.787</ele>
        <time>2020-05-21T10:59:12Z</time>
      </trkpt>
      <trkpt lat="43.210580" lon="-5.350650">
        <ele>692.614</ele>
        <time>2020-05-21T10:59:32Z</time>
      </trkpt>
      <trkpt lat="43.210370" lon="-5.350720">
        <ele>691.770</ele>
        <time>2020-05-21T10:59:52Z</time>
      </trkpt>
      <trkpt lat="43.210100" lon="-5.350800">
        <ele>689.899</ele>
        <time>2020-05-21T11:00:12Z</time>
      </trkpt>
      <trkpt lat="43.209810" lon="-5.350890">
        <ele>688.956</ele>
        <time>2020-05-21T11:00:32Z</time>
      </trkpt>
      <trkpt lat="43.209760" lon="-5.350920">
        <ele>688.891</ele>
        <time>2020-05-21T11:00:52Z</time>
      </trkpt>
      <trkpt lat="43.209740" lon="-5.350960">
        <ele>688.595</ele>
        <time>2020-05-21T11:01:12Z</time>
      </trkpt>
      <trkpt lat="43.209700" lon="-5.351000">
        <ele>688.382</ele>
        <time>2020-05-21T11:01:32Z</time>
      </trkpt>
      <trkpt lat="43.209680" lon="-5.351020">
        <ele>688.243</ele>
        <time>2020-05-21T11:01:52Z</time>
      </trkpt>
      <trkpt lat="43.209570" lon="-5.351200">
        <ele>688.017</ele>
        <time>2020-05-21T11:02:12Z</time>
      </trkpt>
      <trkpt lat="43.209520" lon="-5.351250">
        <ele>688.308</ele>
        <time>2020-05-21T11:02:32Z</time>
      </trkpt>
      <trkpt lat="43.209480" lon="-5.351280">
        <ele>688.712</ele>
        <time>2020-05-21T11:02:52Z</time>
      </trkpt>
      <trkpt lat="43.209420" lon="-5.351300">
        <ele>688.917</ele>
        <time>2020-05-21T11:03:12Z</time>
      </trkpt>
      <trkpt lat="43.209340" lon="-5.351330">
        <ele>688.764</ele>
        <time>2020-05-21T11:03:32Z</time>
      </trkpt>
      <trkpt lat="43.209130" lon="-5.351360">
        <ele>687.770</ele>
        <time>2020-05-21T11:03:52Z</time>
      </trkpt>
      <trkpt lat="43.209060" lon="-5.351360">
        <ele>687.039</ele>
        <time>2020-05-21T11:04:12Z</time>
      </trkpt>
      <trkpt lat="43.209020" lon="-5.351340">
        <ele>686.766</ele>
        <time>2020-05-21T11:04:32Z</time>
      </trkpt>
      <trkpt lat="43.209000" lon="-5.351340">
        <ele>686.531</ele>
        <time>2020-05-21T11:04:52Z</time>
      </trkpt>
      <trkpt lat="43.208960" lon="-5.351320">
        <ele>686.225</ele>
        <time>2020-05-21T11:05:12Z</time>
      </trkpt>
      <trkpt lat="43.208910" lon="-5.351280">
        <ele>686.029</ele>
        <time>2020-05-21T11:05:32Z</time>
      </trkpt>
      <trkpt lat="43.208870" lon="-5.351230">
        <ele>685.900</ele>
        <time>2020-05-21T11:05:52Z</time>
      </trkpt>
      <trkpt lat="43.208810" lon="-5.351150">
        <ele>686.020</ele>
        <time>2020-05-21T11:06:12Z</time>
      </trkpt>
      <trkpt lat="43.208670" lon="-5.350890">
        <ele>686.608</ele>
        <time>2020-05-21T11:06:32Z</time>
      </trkpt>
      <trkpt lat="43.208650" lon="-5.350840">
        <ele>686.516</ele>
        <time>2020-05-21T11:06:52Z</time>
      </trkpt>
      <trkpt lat="43.208500" lon="-5.350520">
        <ele>684.211</ele>
        <time>2020-05-21T11:07:12Z</time>
      </trkpt>
      <trkpt lat="43.208460" lon="-5.350420">
        <ele>684.458</ele>
        <time>2020-05-21T11:07:32Z</time>
      </trkpt>
      <trkpt lat="43.208450" lon="-5.350420">
        <ele>684.124</ele>
        <time>2020-05-21T11:07:52Z</time>
      </trkpt>
      <trkpt lat="43.208400" lon="-5.350330">
        <ele>684.093</ele>
        <time>2020-05-21T11:08:12Z</time>
      </trkpt>
      <trkpt lat="43.208370" lon="-5.350290">
        <ele>683.870</ele>
        <time>2020-05-21T11:08:32Z</time>
      </trkpt>
      <trkpt lat="43.208340" lon="-5.350260">
        <ele>683.495</ele>
        <time>2020-05-21T11:08:52Z</time>
      </trkpt>
      <trkpt lat="43.208330" lon="-5.350260">
        <ele>683.249</ele>
        <time>2020-05-21T11:09:12Z</time>
      </trkpt>
      <trkpt lat="43.208310" lon="-5.350250">
        <ele>683.157</ele>
        <time>2020-05-21T11:09:32Z</time>
      </trkpt>
      <trkpt lat="43.208260" lon="-5.350240">
        <ele>682.600</ele>
        <time>2020-05-21T11:09:52Z</time>
      </trkpt>
      <trkpt lat="43.208220" lon="-5.350230">
        <ele>682.320</ele>
        <time>2020-05-21T11:10:12Z</time>
      </trkpt>
      <trkpt lat="43.208180" lon="-5.350240">
        <ele>681.608</ele>
        <time>2020-05-21T11:10:32Z</time>
      </trkpt>
      <trkpt lat="43.208150" lon="-5.350240">
        <ele>681.279</ele>
        <time>2020-05-21T11:10:52Z</time>
      </trkpt>
      <trkpt lat="43.207820" lon="-5.350260">
        <ele>676.824</ele>
        <time>2020-05-21T11:11:12Z</time>
      </trkpt>
      <trkpt lat="43.207790" lon="-5.350260">
        <ele>676.561</ele>
        <time>2020-05-21T11:11:32Z</time>
      </trkpt>
      <trkpt lat="43.207760" lon="-5.350260">
        <ele>676.057</ele>
        <time>2020-05-21T11:11:52Z</time>
      </trkpt>
      <trkpt lat="43.207710" lon="-5.350240">
        <ele>675.486</ele>
        <time>2020-05-21T11:12:12Z</time>
      </trkpt>
      <trkpt lat="43.207680" lon="-5.350200">
        <ele>675.383</ele>
        <time>2020-05-21T11:12:32Z</time>
      </trkpt>
      <trkpt lat="43.207650" lon="-5.350170">
        <ele>675.128</ele>
        <time>2020-05-21T11:12:52Z</time>
      </trkpt>
      <trkpt lat="43.207620" lon="-5.350110">
        <ele>675.272</ele>
        <time>2020-05-21T11:13:12Z</time>
      </trkpt>
      <trkpt lat="43.207530" lon="-5.349830">
        <ele>675.281</ele>
        <time>2020-05-21T11:13:32Z</time>
      </trkpt>
      <trkpt lat="43.207500" lon="-5.349760">
        <ele>674.761</ele>
        <time>2020-05-21T11:13:52Z</time>
      </trkpt>
      <trkpt lat="43.207460" lon="-5.349680">
        <ele>674.417</ele>
        <time>2020-05-21T11:14:12Z</time>
      </trkpt>
      <trkpt lat="43.207400" lon="-5.349610">
        <ele>673.708</ele>
        <time>2020-05-21T11:14:32Z</time>
      </trkpt>
      <trkpt lat="43.207350" lon="-5.349550">
        <ele>673.352</ele>
        <time>2020-05-21T11:14:52Z</time>
      </trkpt>
      <trkpt lat="43.207340" lon="-5.349550">
        <ele>673.067</ele>
        <time>2020-05-21T11:15:12Z</time>
      </trkpt>
      <trkpt lat="43.207300" lon="-5.349530">
        <ele>672.364</ele>
        <time>2020-05-21T11:15:32Z</time>
      </trkpt>
      <trkpt lat="43.207270" lon="-5.349510">
        <ele>671.960</ele>
        <time>2020-05-21T11:15:52Z</time>
      </trkpt>
      <trkpt lat="43.207200" lon="-5.349500">
        <ele>670.669</ele>
        <time>2020-05-21T11:16:12Z</time>
      </trkpt>
      <trkpt lat="43.207160" lon="-5.349500">
        <ele>670.356</ele>
        <time>2020-05-21T11:16:32Z</time>
      </trkpt>
      <trkpt lat="43.207040" lon="-5.349490">
        <ele>669.591</ele>
        <time>2020-05-21T11:16:52Z</time>
      </trkpt>
      <trkpt lat="43.206950" lon="-5.349470">
        <ele>669.385</ele>
        <time>2020-05-21T11:17:12Z</time>
      </trkpt>
      <trkpt lat="43.206910" lon="-5.349460">
        <ele>668.934</ele>
        <time>2020-05-21T11:17:32Z</time>
      </trkpt>
      <trkpt lat="43.206870" lon="-5.349450">
        <ele>668.555</ele>
        <time>2020-05-21T11:17:52Z</time>
      </trkpt>
      <trkpt lat="43.206670" lon="-5.349300">
        <ele>666.610</ele>
        <time>2020-05-21T11:18:12Z</time>
      </trkpt>
      <trkpt lat="43.206660" lon="-5.349290">
        <ele>666.508</ele>
        <time>2020-05-21T11:18:32Z</time>
      </trkpt>
      <trkpt lat="43.206410" lon="-5.348930">
        <ele>663.977</ele>
        <time>2020-05-21T11:18:52Z</time>
      </trkpt>
      <trkpt lat="43.206160" lon="-5.348580">
        <ele>662.592</ele>
        <time>2020-05-21T11:19:12Z</time>
      </trkpt>
      <trkpt lat="43.206130" lon="-5.348540">
        <ele>662.069</ele>
        <time>2020-05-21T11:19:32Z</time>
      </trkpt>
      <trkpt lat="43.206080" lon="-5.348460">
        <ele>661.225</ele>
        <time>2020-05-21T11:19:52Z</time>
      </trkpt>
      <trkpt lat="43.206050" lon="-5.348400">
        <ele>660.844</ele>
        <time>2020-05-21T11:20:12Z</time>
      </trkpt>
      <trkpt lat="43.206010" lon="-5.348300">
        <ele>660.331</ele>
        <time>2020-05-21T11:20:32Z</time>
      </trkpt>
      <trkpt lat="43.205990" lon="-5.348210">
        <ele>660.136</ele>
        <time>2020-05-21T11:20:52Z</time>
      </trkpt>
      <trkpt lat="43.205960" lon="-5.348090">
        <ele>660.020</ele>
        <time>2020-05-21T11:21:12Z</time>
      </trkpt>
      <trkpt lat="43.205950" lon="-5.347960">
        <ele>659.986</ele>
        <time>2020-05-21T11:21:32Z</time>
      </trkpt>
      <trkpt lat="43.205950" lon="-5.347840">
        <ele>659.960</ele>
        <time>2020-05-21T11:21:52Z</time>
      </trkpt>
      <trkpt lat="43.205960" lon="-5.347740">
        <ele>659.826</ele>
        <time>2020-05-21T11:22:12Z</time>
      </trkpt>
      <trkpt lat="43.205990" lon="-5.347600">
        <ele>659.008</ele>
        <time>2020-05-21T11:22:32Z</time>
      </trkpt>
      <trkpt lat="43.206040" lon="-5.347500">
        <ele>659.212</ele>
        <time>2020-05-21T11:22:52Z</time>
      </trkpt>
      <trkpt lat="43.206060" lon="-5.347460">
        <ele>659.127</ele>
        <time>2020-05-21T11:23:12Z</time>
      </trkpt>
      <trkpt lat="43.206080" lon="-5.347420">
        <ele>658.954</ele>
        <time>2020-05-21T11:23:32Z</time>
      </trkpt>
      <trkpt lat="43.206140" lon="-5.347370">
        <ele>659.150</ele>
        <time>2020-05-21T11:23:52Z</time>
      </trkpt>
      <trkpt lat="43.206240" lon="-5.347300">
        <ele>659.469</ele>
        <time>2020-05-21T11:24:12Z</time>
      </trkpt>
      <trkpt lat="43.206280" lon="-5.347280">
        <ele>659.676</ele>
        <time>2020-05-21T11:24:32Z</time>
      </trkpt>
      <trkpt lat="43.206340" lon="-5.347250">
        <ele>659.911</ele>
        <time>2020-05-21T11:24:52Z</time>
      </trkpt>
      <trkpt lat="43.206380" lon="-5.347240">
        <ele>660.335</ele>
        <time>2020-05-21T11:25:12Z</time>
      </trkpt>
      <trkpt lat="43.206550" lon="-5.347190">
        <ele>659.492</ele>
        <time>2020-05-21T11:25:32Z</time>
      </trkpt>
      <trkpt lat="43.206680" lon="-5.347160">
        <ele>659.173</ele>
        <time>2020-05-21T11:25:52Z</time>
      </trkpt>
      <trkpt lat="43.206730" lon="-5.347140">
        <ele>658.820</ele>
        <time>2020-05-21T11:26:12Z</time>
      </trkpt>
      <trkpt lat="43.206740" lon="-5.347140">
        <ele>658.908</ele>
        <time>2020-05-21T11:26:32Z</time>
      </trkpt>
      <trkpt lat="43.206800" lon="-5.347080">
        <ele>657.953</ele>
        <time>2020-05-21T11:26:52Z</time>
      </trkpt>
      <trkpt lat="43.206860" lon="-5.347010">
        <ele>656.998</ele>
        <time>2020-05-21T11:27:12Z</time>
      </trkpt>
      <trkpt lat="43.206920" lon="-5.346920">
        <ele>656.125</ele>
        <time>2020-05-21T11:27:32Z</time>
      </trkpt>
      <trkpt lat="43.206940" lon="-5.346870">
        <ele>655.661</ele>
        <time>2020-05-21T11:27:52Z</time>
      </trkpt>
      <trkpt lat="43.206960" lon="-5.346810">
        <ele>655.180</ele>
        <time>2020-05-21T11:28:12Z</time>
      </trkpt>
      <trkpt lat="43.206980" lon="-5.346730">
        <ele>654.347</ele>
        <time>2020-05-21T11:28:32Z</time>
      </trkpt>
      <trkpt lat="43.206990" lon="-5.346660">
        <ele>653.632</ele>
        <time>2020-05-21T11:28:52Z</time>
      </trkpt>
      <trkpt lat="43.207000" lon="-5.346550">
        <ele>652.666</ele>
        <time>2020-05-21T11:29:12Z</time>
      </trkpt>
      <trkpt lat="43.207010" lon="-5.346520">
        <ele>652.688</ele>
        <time>2020-05-21T11:29:32Z</time>
      </trkpt>
      <trkpt lat="43.207010" lon="-5.346370">
        <ele>650.824</ele>
        <time>2020-05-21T11:29:52Z</time>
      </trkpt>
      <trkpt lat="43.207020" lon="-5.346280">
        <ele>650.126</ele>
        <time>2020-05-21T11:30:12Z</time>
      </trkpt>
      <trkpt lat="43.207030" lon="-5.346210">
        <ele>649.708</ele>
        <time>2020-05-21T11:30:32Z</time>
      </trkpt>
      <trkpt lat="43.207050" lon="-5.346150">
        <ele>649.742</ele>
        <time>2020-05-21T11:30:52Z</time>
      </trkpt>
      <trkpt lat="43.207080" lon="-5.346080">
        <ele>649.537</ele>
        <time>2020-05-21T11:31:12Z</time>
      </trkpt>
      <trkpt lat="43.207130" lon="-5.346040">
        <ele>650.154</ele>
        <time>2020-05-21T11:31:32Z</time>
      </trkpt>
      <trkpt lat="43.207170" lon="-5.346010">
        <ele>650.680</ele>
        <time>2020-05-21T11:31:52Z</time>
      </trkpt>
      <trkpt lat="43.207240" lon="-5.345950">
        <ele>650.559</ele>
        <time>2020-05-21T11:32:12Z</time>
      </trkpt>
      <trkpt lat="43.207280" lon="-5.345930">
        <ele>650.456</ele>
        <time>2020-05-21T11:32:32Z</time>
      </trkpt>
      <trkpt lat="43.207410" lon="-5.345860">
        <ele>649.751</ele>
        <time>2020-05-21T11:32:52Z</time>
      </trkpt>
      <trkpt lat="43.207430" lon="-5.345850">
        <ele>649.685</ele>
        <time>2020-05-21T11:33:12Z</time>
      </trkpt>
      <trkpt lat="43.207510" lon="-5.345820">
        <ele>649.426</ele>
        <time>2020-05-21T11:33:32Z</time>
      </trkpt>
      <trkpt lat="43.207590" lon="-5.345810">
        <ele>648.847</ele>
        <time>2020-05-21T11:33:52Z</time>
      </trkpt>
      <trkpt lat="43.207820" lon="-5.345790">
        <ele>647.811</ele>
        <time>2020-05-21T11:34:12Z</time>
      </trkpt>
      <trkpt lat="43.207900" lon="-5.345770">
        <ele>647.708</ele>
        <time>2020-05-21T11:34:32Z</time>
      </trkpt>
      <trkpt lat="43.207940" lon="-5.345750">
        <ele>647.356</ele>
        <time>2020-05-21T11:34:52Z</time>
      </trkpt>
      <trkpt lat="43.207990" lon="-5.345740">
        <ele>647.491</ele>
        <time>2020-05-21T11:35:12Z</time>
      </trkpt>
      <trkpt lat="43.208110" lon="-5.345680">
        <ele>647.598</ele>
        <time>2020-05-21T11:35:32Z</time>
      </trkpt>
      <trkpt lat="43.208110" lon="-5.345670">
        <ele>647.254</ele>
        <time>2020-05-21T11:35:52Z</time>
      </trkpt>
      <trkpt lat="43.208190" lon="-5.345610">
        <ele>647.223</ele>
        <time>2020-05-21T11:36:12Z</time>
      </trkpt>
      <trkpt lat="43.208220" lon="-5.345560">
        <ele>646.380</ele>
        <time>2020-05-21T11:36:32Z</time>
      </trkpt>
      <trkpt lat="43.208240" lon="-5.345520">
        <ele>646.515</ele>
        <time>2020-05-21T11:36:52Z</time>
      </trkpt>
      <trkpt lat="43.208250" lon="-5.345510">
        <ele>646.719</ele>
        <time>2020-05-21T11:37:12Z</time>
      </trkpt>
      <trkpt lat="43.208260" lon="-5.345480">
        <ele>646.871</ele>
        <time>2020-05-21T11:37:32Z</time>
      </trkpt>
      <trkpt lat="43.208270" lon="-5.345440">
        <ele>646.941</ele>
        <time>2020-05-21T11:37:52Z</time>
      </trkpt>
      <trkpt lat="43.208270" lon="-5.345390">
        <ele>646.615</ele>
        <time>2020-05-21T11:38:12Z</time>
      </trkpt>
      <trkpt lat="43.208280" lon="-5.345330">
        <ele>646.508</ele>
        <time>2020-05-21T11:38:32Z</time>
      </trkpt>
      <trkpt lat="43.208270" lon="-5.345280">
        <ele>646.141</ele>
        <time>2020-05-21T11:38:52Z</time>
      </trkpt>
      <trkpt lat="43.208260" lon="-5.345230">
        <ele>647.266</ele>
        <time>2020-05-21T11:39:12Z</time>
      </trkpt>
      <trkpt lat="43.208240" lon="-5.345180">
        <ele>648.213</ele>
        <time>2020-05-21T11:39:32Z</time>
      </trkpt>
      <trkpt lat="43.208200" lon="-5.345150">
        <ele>648.769</ele>
        <time>2020-05-21T11:39:52Z</time>
      </trkpt>
      <trkpt lat="43.208170" lon="-5.345130">
        <ele>649.168</ele>
        <time>2020-05-21T11:40:12Z</time>
      </trkpt>
      <trkpt lat="43.208060" lon="-5.345090">
        <ele>649.865</ele>
        <time>2020-05-21T11:40:32Z</time>
      </trkpt>
      <trkpt lat="43.207940" lon="-5.345090">
        <ele>650.040</ele>
        <time>2020-05-21T11:40:52Z</time>
      </trkpt>
      <trkpt lat="43.207790" lon="-5.345100">
        <ele>650.134</ele>
        <time>2020-05-21T11:41:12Z</time>
      </trkpt>
      <trkpt lat="43.207600" lon="-5.345120">
        <ele>647.284</ele>
        <time>2020-05-21T11:41:32Z</time>
      </trkpt>
      <trkpt lat="43.207430" lon="-5.345090">
        <ele>646.107</ele>
        <time>2020-05-21T11:41:52Z</time>
      </trkpt>
      <trkpt lat="43.207370" lon="-5.345070">
        <ele>646.117</ele>
        <time>2020-05-21T11:42:12Z</time>
      </trkpt>
      <trkpt lat="43.207260" lon="-5.345040">
        <ele>645.808</ele>
        <time>2020-05-21T11:42:32Z</time>
      </trkpt>
      <trkpt lat="43.207080" lon="-5.344990">
        <ele>645.332</ele>
        <time>2020-05-21T11:42:52Z</time>
      </trkpt>
      <trkpt lat="43.206960" lon="-5.344960">
        <ele>644.567</ele>
        <time>2020-05-21T11:43:12Z</time>
      </trkpt>
      <trkpt lat="43.206910" lon="-5.344930">
        <ele>644.744</ele>
        <time>2020-05-21T11:43:32Z</time>
      </trkpt>
      <trkpt lat="43.206730" lon="-5.344850">
        <ele>644.440</ele>
        <time>2020-05-21T11:43:52Z</time>
      </trkpt>
      <trkpt lat="43.206580" lon="-5.344780">
        <ele>644.239</ele>
        <time>2020-05-21T11:44:12Z</time>
      </trkpt>
      <trkpt lat="43.206320" lon="-5.344670">
        <ele>643.256</ele>
        <time>2020-05-21T11:44:32Z</time>
      </trkpt>
      <trkpt lat="43.206240" lon="-5.344620">
        <ele>643.361</ele>
        <time>2020-05-21T11:44:52Z</time>
      </trkpt>
      <trkpt lat="43.205990" lon="-5.344480">
        <ele>642.255</ele>
        <time>2020-05-21T11:45:12Z</time>
      </trkpt>
      <trkpt lat="43.205910" lon="-5.344420">
        <ele>642.491</ele>
        <time>2020-05-21T11:45:32Z</time>
      </trkpt>
      <trkpt lat="43.205750" lon="-5.344320">
        <ele>641.381</ele>
        <time>2020-05-21T11:45:52Z</time>
      </trkpt>
      <trkpt lat="43.205690" lon="-5.344280">
        <ele>640.919</ele>
        <time>2020-05-21T11:46:12Z</time>
      </trkpt>
      <trkpt lat="43.205590" lon="-5.344210">
        <ele>640.508</ele>
        <time>2020-05-21T11:46:32Z</time>
      </trkpt>
      <trkpt lat="43.205430" lon="-5.344110">
        <ele>640.253</ele>
        <time>2020-05-21T11:46:52Z</time>
      </trkpt>
      <trkpt lat="43.205250" lon="-5.343990">
        <ele>639.328</ele>
        <time>2020-05-21T11:47:12Z</time>
      </trkpt>
      <trkpt lat="43.205220" lon="-5.343960">
        <ele>638.975</ele>
        <time>2020-05-21T11:47:32Z</time>
      </trkpt>
      <trkpt lat="43.205200" lon="-5.343940">
        <ele>638.661</ele>
        <time>2020-05-21T11:47:52Z</time>
      </trkpt>
      <trkpt lat="43.205190" lon="-5.343920">
        <ele>638.790</ele>
        <time>2020-05-21T11:48:12Z</time>
      </trkpt>
      <trkpt lat="43.205170" lon="-5.343890">
        <ele>638.797</ele>
        <time>2020-05-21T11:48:32Z</time>
      </trkpt>
      <trkpt lat="43.205140" lon="-5.343820">
        <ele>640.232</ele>
        <time>2020-05-21T11:48:52Z</time>
      </trkpt>
      <trkpt lat="43.205100" lon="-5.343750">
        <ele>641.096</ele>
        <time>2020-05-21T11:49:12Z</time>
      </trkpt>
      <trkpt lat="43.205070" lon="-5.343700">
        <ele>641.452</ele>
        <time>2020-05-21T11:49:32Z</time>
      </trkpt>
      <trkpt lat="43.205030" lon="-5.343690">
        <ele>639.953</ele>
        <time>2020-05-21T11:49:52Z</time>
      </trkpt>
      <trkpt lat="43.204970" lon="-5.343620">
        <ele>640.508</ele>
        <time>2020-05-21T11:50:12Z</time>
      </trkpt>
      <trkpt lat="43.204930" lon="-5.343610">
        <ele>640.608</ele>
        <time>2020-05-21T11:50:32Z</time>
      </trkpt>
      <trkpt lat="43.204910" lon="-5.343600">
        <ele>641.189</ele>
        <time>2020-05-21T11:50:52Z</time>
      </trkpt>
      <trkpt lat="43.204880" lon="-5.343600">
        <ele>640.924</ele>
        <time>2020-05-21T11:51:12Z</time>
      </trkpt>
      <trkpt lat="43.204850" lon="-5.343610">
        <ele>640.081</ele>
        <time>2020-05-21T11:51:32Z</time>
      </trkpt>
      <trkpt lat="43.204750" lon="-5.343630">
        <ele>638.577</ele>
        <time>2020-05-21T11:51:52Z</time>
      </trkpt>
      <trkpt lat="43.204690" lon="-5.343640">
        <ele>638.036</ele>
        <time>2020-05-21T11:52:12Z</time>
      </trkpt>
      <trkpt lat="43.204490" lon="-5.343700">
        <ele>636.343</ele>
        <time>2020-05-21T11:52:32Z</time>
      </trkpt>
      <trkpt lat="43.204370" lon="-5.343730">
        <ele>635.518</ele>
        <time>2020-05-21T11:52:52Z</time>
      </trkpt>
      <trkpt lat="43.204320" lon="-5.343750">
        <ele>635.062</ele>
        <time>2020-05-21T11:53:12Z</time>
      </trkpt>
      <trkpt lat="43.204250" lon="-5.343780">
        <ele>634.352</ele>
        <time>2020-05-21T11:53:32Z</time>
      </trkpt>
      <trkpt lat="43.204230" lon="-5.343800">
        <ele>633.853</ele>
        <time>2020-05-21T11:53:52Z</time>
      </trkpt>
      <trkpt lat="43.204220" lon="-5.343810">
        <ele>633.608</ele>
        <time>2020-05-21T11:54:12Z</time>
      </trkpt>
      <trkpt lat="43.204190" lon="-5.343840">
        <ele>633.008</ele>
        <time>2020-05-21T11:54:32Z</time>
      </trkpt>
      <trkpt lat="43.204140" lon="-5.343880">
        <ele>632.879</ele>
        <time>2020-05-21T11:54:52Z</time>
      </trkpt>
      <trkpt lat="43.204090" lon="-5.343940">
        <ele>632.444</ele>
        <time>2020-05-21T11:55:12Z</time>
      </trkpt>
      <trkpt lat="43.204080" lon="-5.343950">
        <ele>632.311</ele>
        <time>2020-05-21T11:55:32Z</time>
      </trkpt>
      <trkpt lat="43.204050" lon="-5.343980">
        <ele>632.297</ele>
        <time>2020-05-21T11:55:52Z</time>
      </trkpt>
      <trkpt lat="43.203920" lon="-5.344080">
        <ele>632.526</ele>
        <time>2020-05-21T11:56:12Z</time>
      </trkpt>
      <trkpt lat="43.203770" lon="-5.344170">
        <ele>631.883</ele>
        <time>2020-05-21T11:56:32Z</time>
      </trkpt>
      <trkpt lat="43.203640" lon="-5.344250">
        <ele>630.858</ele>
        <time>2020-05-21T11:56:52Z</time>
      </trkpt>
      <trkpt lat="43.203500" lon="-5.344330">
        <ele>629.032</ele>
        <time>2020-05-21T11:57:12Z</time>
      </trkpt>
      <trkpt lat="43.203430" lon="-5.344350">
        <ele>628.699</ele>
        <time>2020-05-21T11:57:32Z</time>
      </trkpt>
      <trkpt lat="43.203360" lon="-5.344360">
        <ele>628.407</ele>
        <time>2020-05-21T11:57:52Z</time>
      </trkpt>
      <trkpt lat="43.203260" lon="-5.344360">
        <ele>627.427</ele>
        <time>2020-05-21T11:58:12Z</time>
      </trkpt>
      <trkpt lat="43.203210" lon="-5.344360">
        <ele>626.708</ele>
        <time>2020-05-21T11:58:32Z</time>
      </trkpt>
      <trkpt lat="43.203170" lon="-5.344350">
        <ele>626.473</ele>
        <time>2020-05-21T11:58:52Z</time>
      </trkpt>
      <trkpt lat="43.203130" lon="-5.344330">
        <ele>626.448</ele>
        <time>2020-05-21T11:59:12Z</time>
      </trkpt>
      <trkpt lat="43.203080" lon="-5.344300">
        <ele>626.535</ele>
        <time>2020-05-21T11:59:32Z</time>
      </trkpt>
      <trkpt lat="43.203070" lon="-5.344290">
        <ele>626.721</ele>
        <time>2020-05-21T11:59:52Z</time>
      </trkpt>
      <trkpt lat="43.202930" lon="-5.344170">
        <ele>626.840</ele>
        <time>2020-05-21T12:00:12Z</time>
      </trkpt>
      <trkpt lat="43.202790" lon="-5.344040">
        <ele>625.667</ele>
        <time>2020-05-21T12:00:32Z</time>
      </trkpt>
      <trkpt lat="43.202780" lon="-5.344030">
        <ele>625.572</ele>
        <time>2020-05-21T12:00:52Z</time>
      </trkpt>
      <trkpt lat="43.202640" lon="-5.343880">
        <ele>623.796</ele>
        <time>2020-05-21T12:01:12Z</time>
      </trkpt>
      <trkpt lat="43.202630" lon="-5.343870">
        <ele>623.664</ele>
        <time>2020-05-21T12:01:32Z</time>
      </trkpt>
      <trkpt lat="43.202510" lon="-5.343710">
        <ele>623.106</ele>
        <time>2020-05-21T12:01:52Z</time>
      </trkpt>
      <trkpt lat="43.202460" lon="-5.343660">
        <ele>623.116</ele>
        <time>2020-05-21T12:02:12Z</time>
      </trkpt>
      <trkpt lat="43.202370" lon="-5.343550">
        <ele>623.208</ele>
        <time>2020-05-21T12:02:32Z</time>
      </trkpt>
      <trkpt lat="43.202370" lon="-5.343540">
        <ele>623.430</ele>
        <time>2020-05-21T12:02:52Z</time>
      </trkpt>
      <trkpt lat="43.202310" lon="-5.343460">
        <ele>623.065</ele>
        <time>2020-05-21T12:03:12Z</time>
      </trkpt>
      <trkpt lat="43.202290" lon="-5.343410">
        <ele>623.232</ele>
        <time>2020-05-21T12:03:32Z</time>
      </trkpt>
      <trkpt lat="43.202280" lon="-5.343370">
        <ele>623.438</ele>
        <time>2020-05-21T12:03:52Z</time>
      </trkpt>
      <trkpt lat="43.202280" lon="-5.343350">
        <ele>623.747</ele>
        <time>2020-05-21T12:04:12Z</time>
      </trkpt>
      <trkpt lat="43.202270" lon="-5.343320">
        <ele>623.694</ele>
        <time>2020-05-21T12:04:32Z</time>
      </trkpt>
      <trkpt lat="43.202270" lon="-5.343280">
        <ele>623.639</ele>
        <time>2020-05-21T12:04:52Z</time>
      </trkpt>
      <trkpt lat="43.202270" lon="-5.343230">
        <ele>623.743</ele>
        <time>2020-05-21T12:05:12Z</time>
      </trkpt>
      <trkpt lat="43.202280" lon="-5.343130">
        <ele>624.289</ele>
        <time>2020-05-21T12:05:32Z</time>
      </trkpt>
      <trkpt lat="43.202280" lon="-5.343100">
        <ele>624.206</ele>
        <time>2020-05-21T12:05:52Z</time>
      </trkpt>
      <trkpt lat="43.202280" lon="-5.343010">
        <ele>624.526</ele>
        <time>2020-05-21T12:06:12Z</time>
      </trkpt>
      <trkpt lat="43.202270" lon="-5.342980">
        <ele>624.308</ele>
        <time>2020-05-21T12:06:32Z</time>
      </trkpt>
      <trkpt lat="43.202270" lon="-5.342950">
        <ele>624.562</ele>
        <time>2020-05-21T12:06:52Z</time>
      </trkpt>
      <trkpt lat="43.202260" lon="-5.342920">
        <ele>624.397</ele>
        <time>2020-05-21T12:07:12Z</time>
      </trkpt>
      <trkpt lat="43.202240" lon="-5.342890">
        <ele>623.864</ele>
        <time>2020-05-21T12:07:32Z</time>
      </trkpt>
      <trkpt lat="43.202230" lon="-5.342870">
        <ele>623.640</ele>
        <time>2020-05-21T12:07:52Z</time>
      </trkpt>
      <trkpt lat="43.202210" lon="-5.342840">
        <ele>623.349</ele>
        <time>2020-05-21T12:08:12Z</time>
      </trkpt>
      <trkpt lat="43.202170" lon="-5.342790">
        <ele>623.136</ele>
        <time>2020-05-21T12:08:32Z</time>
      </trkpt>
      <trkpt lat="43.202120" lon="-5.342760">
        <ele>623.081</ele>
        <time>2020-05-21T12:08:52Z</time>
      </trkpt>
      <trkpt lat="43.202100" lon="-5.342760">
        <ele>622.725</ele>
        <time>2020-05-21T12:09:12Z</time>
      </trkpt>
      <trkpt lat="43.202060" lon="-5.342740">
        <ele>622.794</ele>
        <time>2020-05-21T12:09:32Z</time>
      </trkpt>
      <trkpt lat="43.201940" lon="-5.342720">
        <ele>621.457</ele>
        <time>2020-05-21T12:09:52Z</time>
      </trkpt>
      <trkpt lat="43.201840" lon="-5.342680">
        <ele>621.222</ele>
        <time>2020-05-21T12:10:12Z</time>
      </trkpt>
      <trkpt lat="43.201780" lon="-5.342660">
        <ele>620.908</ele>
        <time>2020-05-21T12:10:32Z</time>
      </trkpt>
      <trkpt lat="43.201740" lon="-5.342640">
        <ele>620.913</ele>
        <time>2020-05-21T12:10:52Z</time>
      </trkpt>
      <trkpt lat="43.201690" lon="-5.342600">
        <ele>621.138</ele>
        <time>2020-05-21T12:11:12Z</time>
      </trkpt>
      <trkpt lat="43.201640" lon="-5.342540">
        <ele>621.635</ele>
        <time>2020-05-21T12:11:32Z</time>
      </trkpt>
      <trkpt lat="43.201590" lon="-5.342490">
        <ele>621.561</ele>
        <time>2020-05-21T12:11:52Z</time>
      </trkpt>
      <trkpt lat="43.201510" lon="-5.342390">
        <ele>621.690</ele>
        <time>2020-05-21T12:12:12Z</time>
      </trkpt>
      <trkpt lat="43.201460" lon="-5.342320">
        <ele>621.827</ele>
        <time>2020-05-21T12:12:32Z</time>
      </trkpt>
      <trkpt lat="43.201440" lon="-5.342300">
        <ele>621.772</ele>
        <time>2020-05-21T12:12:52Z</time>
      </trkpt>
      <trkpt lat="43.201260" lon="-5.342060">
        <ele>622.046</ele>
        <time>2020-05-21T12:13:12Z</time>
      </trkpt>
      <trkpt lat="43.201150" lon="-5.341920">
        <ele>622.152</ele>
        <time>2020-05-21T12:13:32Z</time>
      </trkpt>
      <trkpt lat="43.201080" lon="-5.341820">
        <ele>622.353</ele>
        <time>2020-05-21T12:13:52Z</time>
      </trkpt>
      <trkpt lat="43.201070" lon="-5.341800">
        <ele>622.408</ele>
        <time>2020-05-21T12:14:12Z</time>
      </trkpt>
      <trkpt lat="43.201000" lon="-5.341670">
        <ele>623.008</ele>
        <time>2020-05-21T12:14:32Z</time>
      </trkpt>
      <trkpt lat="43.200970" lon="-5.341600">
        <ele>623.179</ele>
        <time>2020-05-21T12:14:52Z</time>
      </trkpt>
      <trkpt lat="43.200950" lon="-5.341550">
        <ele>623.124</ele>
        <time>2020-05-21T12:15:12Z</time>
      </trkpt>
      <trkpt lat="43.200920" lon="-5.341440">
        <ele>623.431</ele>
        <time>2020-05-21T12:15:32Z</time>
      </trkpt>
      <trkpt lat="43.200900" lon="-5.341370">
        <ele>623.547</ele>
        <time>2020-05-21T12:15:52Z</time>
      </trkpt>
      <trkpt lat="43.200890" lon="-5.341310">
        <ele>623.696</ele>
        <time>2020-05-21T12:16:12Z</time>
      </trkpt>
      <trkpt lat="43.200870" lon="-5.341260">
        <ele>623.493</ele>
        <time>2020-05-21T12:16:32Z</time>
      </trkpt>
      <trkpt lat="43.200870" lon="-5.341240">
        <ele>623.538</ele>
        <time>2020-05-21T12:16:52Z</time>
      </trkpt>
      <trkpt lat="43.200860" lon="-5.341210">
        <ele>623.382</ele>
        <time>2020-05-21T12:17:12Z</time>
      </trkpt>
      <trkpt lat="43.200850" lon="-5.341160">
        <ele>623.373</ele>
        <time>2020-05-21T12:17:32Z</time>
      </trkpt>
      <trkpt lat="43.200840" lon="-5.341120">
        <ele>623.285</ele>
        <time>2020-05-21T12:17:52Z</time>
      </trkpt>
      <trkpt lat="43.200840" lon="-5.341100">
        <ele>623.213</ele>
        <time>2020-05-21T12:18:12Z</time>
      </trkpt>
      <trkpt lat="43.200840" lon="-5.341080">
        <ele>623.108</ele>
        <time>2020-05-21T12:18:32Z</time>
      </trkpt>
      <trkpt lat="43.200840" lon="-5.341030">
        <ele>622.991</ele>
        <time>2020-05-21T12:18:52Z</time>
      </trkpt>
      <trkpt lat="43.200840" lon="-5.340990">
        <ele>622.816</ele>
        <time>2020-05-21T12:19:12Z</time>
      </trkpt>
      <trkpt lat="43.200850" lon="-5.340920">
        <ele>622.983</ele>
        <time>2020-05-21T12:19:32Z</time>
      </trkpt>
      <trkpt lat="43.200860" lon="-5.340890">
        <ele>623.129</ele>
        <time>2020-05-21T12:19:52Z</time>
      </trkpt>
      <trkpt lat="43.200900" lon="-5.340750">
        <ele>623.468</ele>
        <time>2020-05-21T12:20:12Z</time>
      </trkpt>
      <trkpt lat="43.200930" lon="-5.340670">
        <ele>623.745</ele>
        <time>2020-05-21T12:20:32Z</time>
      </trkpt>
      <trkpt lat="43.200960" lon="-5.340590">
        <ele>624.380</ele>
        <time>2020-05-21T12:20:52Z</time>
      </trkpt>
      <trkpt lat="43.201110" lon="-5.340240">
        <ele>626.374</ele>
        <time>2020-05-21T12:21:12Z</time>
      </trkpt>
      <trkpt lat="43.201130" lon="-5.340190">
        <ele>626.215</ele>
        <time>2020-05-21T12:21:32Z</time>
      </trkpt>
      <trkpt lat="43.201270" lon="-5.339920">
        <ele>625.765</ele>
        <time>2020-05-21T12:21:52Z</time>
      </trkpt>
      <trkpt lat="43.201310" lon="-5.339830">
        <ele>625.411</ele>
        <time>2020-05-21T12:22:12Z</time>
      </trkpt>
      <trkpt lat="43.201330" lon="-5.339800">
        <ele>625.508</ele>
        <time>2020-05-21T12:22:32Z</time>
      </trkpt>
      <trkpt lat="43.201410" lon="-5.339630">
        <ele>626.125</ele>
        <time>2020-05-21T12:22:52Z</time>
      </trkpt>
      <trkpt lat="43.201480" lon="-5.339400">
        <ele>627.510</ele>
        <time>2020-05-21T12:23:12Z</time>
      </trkpt>
      <trkpt lat="43.201490" lon="-5.339390">
        <ele>627.947</ele>
        <time>2020-05-21T12:23:32Z</time>
      </trkpt>
      <trkpt lat="43.201580" lon="-5.339120">
        <ele>628.213</ele>
        <time>2020-05-21T12:23:52Z</time>
      </trkpt>
      <trkpt lat="43.201640" lon="-5.338960">
        <ele>627.122</ele>
        <time>2020-05-21T12:24:12Z</time>
      </trkpt>
      <trkpt lat="43.201670" lon="-5.338900">
        <ele>626.489</ele>
        <time>2020-05-21T12:24:32Z</time>
      </trkpt>
      <trkpt lat="43.201730" lon="-5.338770">
        <ele>628.174</ele>
        <time>2020-05-21T12:24:52Z</time>
      </trkpt>
      <trkpt lat="43.201740" lon="-5.338750">
        <ele>628.478</ele>
        <time>2020-05-21T12:25:12Z</time>
      </trkpt>
      <trkpt lat="43.201770" lon="-5.338670">
        <ele>629.168</ele>
        <time>2020-05-21T12:25:32Z</time>
      </trkpt>
      <trkpt lat="43.201780" lon="-5.338640">
        <ele>629.342</ele>
        <time>2020-05-21T12:25:52Z</time>
      </trkpt>
      <trkpt lat="43.201780" lon="-5.338630">
        <ele>629.226</ele>
        <time>2020-05-21T12:26:12Z</time>
      </trkpt>
      <trkpt lat="43.201780" lon="-5.338610">
        <ele>629.108</ele>
        <time>2020-05-21T12:26:32Z</time>
      </trkpt>
      <trkpt lat="43.201780" lon="-5.338580">
        <ele>628.920</ele>
        <time>2020-05-21T12:26:52Z</time>
      </trkpt>
      <trkpt lat="43.201780" lon="-5.338560">
        <ele>628.895</ele>
        <time>2020-05-21T12:27:12Z</time>
      </trkpt>
      <trkpt lat="43.201780" lon="-5.338540">
        <ele>628.782</ele>
        <time>2020-05-21T12:27:32Z</time>
      </trkpt>
      <trkpt lat="43.201770" lon="-5.338520">
        <ele>628.328</ele>
        <time>2020-05-21T12:27:52Z</time>
      </trkpt>
      <trkpt lat="43.201770" lon="-5.338500">
        <ele>628.297</ele>
        <time>2020-05-21T12:28:12Z</time>
      </trkpt>
      <trkpt lat="43.201760" lon="-5.338490">
        <ele>627.834</ele>
        <time>2020-05-21T12:28:32Z</time>
      </trkpt>
      <trkpt lat="43.201750" lon="-5.338480">
        <ele>627.429</ele>
        <time>2020-05-21T12:28:52Z</time>
      </trkpt>
      <trkpt lat="43.201740" lon="-5.338470">
        <ele>627.063</ele>
        <time>2020-05-21T12:29:12Z</time>
      </trkpt>
      <trkpt lat="43.201720" lon="-5.338470">
        <ele>626.345</ele>
        <time>2020-05-21T12:29:32Z</time>
      </trkpt>
      <trkpt lat="43.201690" lon="-5.338460">
        <ele>625.247</ele>
        <time>2020-05-21T12:29:52Z</time>
      </trkpt>
      <trkpt lat="43.201640" lon="-5.338450">
        <ele>625.211</ele>
        <time>2020-05-21T12:30:12Z</time>
      </trkpt>
      <trkpt lat="43.201610" lon="-5.338450">
        <ele>626.108</ele>
        <time>2020-05-21T12:30:32Z</time>
      </trkpt>
      <trkpt lat="43.201580" lon="-5.338450">
        <ele>627.138</ele>
        <time>2020-05-21T12:30:52Z</time>
      </trkpt>
      <trkpt lat="43.201550" lon="-5.338460">
        <ele>627.983</ele>
        <time>2020-05-21T12:31:12Z</time>
      </trkpt>
      <trkpt lat="43.201520" lon="-5.338500">
        <ele>628.520</ele>
        <time>2020-05-21T12:31:32Z</time>
      </trkpt>
      <trkpt lat="43.201470" lon="-5.338570">
        <ele>629.096</ele>
        <time>2020-05-21T12:31:52Z</time>
      </trkpt>
      <trkpt lat="43.201470" lon="-5.338580">
        <ele>628.985</ele>
        <time>2020-05-21T12:32:12Z</time>
      </trkpt>
      <trkpt lat="43.201350" lon="-5.338750">
        <ele>628.392</ele>
        <time>2020-05-21T12:32:32Z</time>
      </trkpt>
      <trkpt lat="43.201350" lon="-5.338760">
        <ele>628.077</ele>
        <time>2020-05-21T12:32:52Z</time>
      </trkpt>
      <trkpt lat="43.201210" lon="-5.338930">
        <ele>628.541</ele>
        <time>2020-05-21T12:33:12Z</time>
      </trkpt>
      <trkpt lat="43.201200" lon="-5.338950">
        <ele>628.468</ele>
        <time>2020-05-21T12:33:32Z</time>
      </trkpt>
      <trkpt lat="43.201070" lon="-5.339080">
        <ele>627.742</ele>
        <time>2020-05-21T12:33:52Z</time>
      </trkpt>
      <trkpt lat="43.200990" lon="-5.339150">
        <ele>627.526</ele>
        <time>2020-05-21T12:34:12Z</time>
      </trkpt>
      <trkpt lat="43.200770" lon="-5.339350">
        <ele>628.108</ele>
        <time>2020-05-21T12:34:32Z</time>
      </trkpt>
      <trkpt lat="43.200670" lon="-5.339440">
        <ele>628.210</ele>
        <time>2020-05-21T12:34:52Z</time>
      </trkpt>
      <trkpt lat="43.200620" lon="-5.339480">
        <ele>628.525</ele>
        <time>2020-05-21T12:35:12Z</time>
      </trkpt>
      <trkpt lat="43.200410" lon="-5.339660">
        <ele>628.112</ele>
        <time>2020-05-21T12:35:32Z</time>
      </trkpt>
      <trkpt lat="43.200170" lon="-5.339810">
        <ele>627.758</ele>
        <time>2020-05-21T12:35:52Z</time>
      </trkpt>
      <trkpt lat="43.200140" lon="-5.339820">
        <ele>627.987</ele>
        <time>2020-05-21T12:36:12Z</time>
      </trkpt>
      <trkpt lat="43.200070" lon="-5.339860">
        <ele>628.074</ele>
        <time>2020-05-21T12:36:32Z</time>
      </trkpt>
      <trkpt lat="43.199970" lon="-5.339890">
        <ele>628.699</ele>
        <time>2020-05-21T12:36:52Z</time>
      </trkpt>
      <trkpt lat="43.199960" lon="-5.339900">
        <ele>628.533</ele>
        <time>2020-05-21T12:37:12Z</time>
      </trkpt>
      <trkpt lat="43.199890" lon="-5.339900">
        <ele>628.647</ele>
        <time>2020-05-21T12:37:32Z</time>
      </trkpt>
      <trkpt lat="43.199810" lon="-5.339880">
        <ele>628.829</ele>
        <time>2020-05-21T12:37:52Z</time>
      </trkpt>
      <trkpt lat="43.199790" lon="-5.339870">
        <ele>628.921</ele>
        <time>2020-05-21T12:38:12Z</time>
      </trkpt>
      <trkpt lat="43.199740" lon="-5.339840">
        <ele>629.208</ele>
        <time>2020-05-21T12:38:32Z</time>
      </trkpt>
      <trkpt lat="43.199660" lon="-5.339790">
        <ele>629.258</ele>
        <time>2020-05-21T12:38:52Z</time>
      </trkpt>
      <trkpt lat="43.199630" lon="-5.339770">
        <ele>629.373</ele>
        <time>2020-05-21T12:39:12Z</time>
      </trkpt>
      <trkpt lat="43.199550" lon="-5.339700">
        <ele>629.670</ele>
        <time>2020-05-21T12:39:32Z</time>
      </trkpt>
      <trkpt lat="43.199400" lon="-5.339590">
        <ele>630.096</ele>
        <time>2020-05-21T12:39:52Z</time>
      </trkpt>
      <trkpt lat="43.199300" lon="-5.339490">
        <ele>630.495</ele>
        <time>2020-05-21T12:40:12Z</time>
      </trkpt>
      <trkpt lat="43.199180" lon="-5.339350">
        <ele>630.832</ele>
        <time>2020-05-21T12:40:32Z</time>
      </trkpt>
      <trkpt lat="43.198850" lon="-5.338910">
        <ele>632.157</ele>
        <time>2020-05-21T12:40:52Z</time>
      </trkpt>
      <trkpt lat="43.198760" lon="-5.338790">
        <ele>632.271</ele>
        <time>2020-05-21T12:41:12Z</time>
      </trkpt>
      <trkpt lat="43.198280" lon="-5.338170">
        <ele>632.664</ele>
        <time>2020-05-21T12:41:32Z</time>
      </trkpt>
      <trkpt lat="43.198190" lon="-5.338020">
        <ele>632.806</ele>
        <time>2020-05-21T12:41:52Z</time>
      </trkpt>
      <trkpt lat="43.198150" lon="-5.337960">
        <ele>632.816</ele>
        <time>2020-05-21T12:42:12Z</time>
      </trkpt>
      <trkpt lat="43.198080" lon="-5.337830">
        <ele>633.008</ele>
        <time>2020-05-21T12:42:32Z</time>
      </trkpt>
      <trkpt lat="43.198070" lon="-5.337820">
        <ele>632.970</ele>
        <time>2020-05-21T12:42:52Z</time>
      </trkpt>
      <trkpt lat="43.198000" lon="-5.337690">
        <ele>632.845</ele>
        <time>2020-05-21T12:43:12Z</time>
      </trkpt>
      <trkpt lat="43.197940" lon="-5.337560">
        <ele>632.962</ele>
        <time>2020-05-21T12:43:32Z</time>
      </trkpt>
      <trkpt lat="43.197900" lon="-5.337430">
        <ele>633.528</ele>
        <time>2020-05-21T12:43:52Z</time>
      </trkpt>
      <trkpt lat="43.197840" lon="-5.337280">
        <ele>634.327</ele>
        <time>2020-05-21T12:44:12Z</time>
      </trkpt>
      <trkpt lat="43.197810" lon="-5.337180">
        <ele>634.834</ele>
        <time>2020-05-21T12:44:32Z</time>
      </trkpt>
      <trkpt lat="43.197650" lon="-5.336620">
        <ele>634.759</ele>
        <time>2020-05-21T12:44:52Z</time>
      </trkpt>
      <trkpt lat="43.197630" lon="-5.336520">
        <ele>635.033</ele>
        <time>2020-05-21T12:45:12Z</time>
      </trkpt>
      <trkpt lat="43.197590" lon="-5.336390">
        <ele>634.926</ele>
        <time>2020-05-21T12:45:32Z</time>
      </trkpt>
      <trkpt lat="43.197560" lon="-5.336300">
        <ele>634.747</ele>
        <time>2020-05-21T12:45:52Z</time>
      </trkpt>
      <trkpt lat="43.197520" lon="-5.336160">
        <ele>634.411</ele>
        <time>2020-05-21T12:46:12Z</time>
      </trkpt>
      <trkpt lat="43.197510" lon="-5.336080">
        <ele>634.508</ele>
        <time>2020-05-21T12:46:32Z</time>
      </trkpt>
      <trkpt lat="43.197510" lon="-5.336030">
        <ele>634.776</ele>
        <time>2020-05-21T12:46:52Z</time>
      </trkpt>
      <trkpt lat="43.197510" lon="-5.335940">
        <ele>635.031</ele>
        <time>2020-05-21T12:47:12Z</time>
      </trkpt>
      <trkpt lat="43.197510" lon="-5.335910">
        <ele>635.278</ele>
        <time>2020-05-21T12:47:32Z</time>
      </trkpt>
      <trkpt lat="43.197510" lon="-5.335830">
        <ele>635.584</ele>
        <time>2020-05-21T12:47:52Z</time>
      </trkpt>
      <trkpt lat="43.197520" lon="-5.335780">
        <ele>635.813</ele>
        <time>2020-05-21T12:48:12Z</time>
      </trkpt>
      <trkpt lat="43.197540" lon="-5.335670">
        <ele>636.530</ele>
        <time>2020-05-21T12:48:32Z</time>
      </trkpt>
      <trkpt lat="43.197540" lon="-5.335650">
        <ele>636.565</ele>
        <time>2020-05-21T12:48:52Z</time>
      </trkpt>
      <trkpt lat="43.197580" lon="-5.335500">
        <ele>637.879</ele>
        <time>2020-05-21T12:49:12Z</time>
      </trkpt>
      <trkpt lat="43.197650" lon="-5.335260">
        <ele>638.556</ele>
        <time>2020-05-21T12:49:32Z</time>
      </trkpt>
      <trkpt lat="43.197670" lon="-5.335210">
        <ele>639.559</ele>
        <time>2020-05-21T12:49:52Z</time>
      </trkpt>
      <trkpt lat="43.197680" lon="-5.335170">
        <ele>639.814</ele>
        <time>2020-05-21T12:50:12Z</time>
      </trkpt>
      <trkpt lat="43.197690" lon="-5.335100">
        <ele>640.108</ele>
        <time>2020-05-21T12:50:32Z</time>
      </trkpt>
      <trkpt lat="43.197710" lon="-5.335020">
        <ele>640.979</ele>
        <time>2020-05-21T12:50:52Z</time>
      </trkpt>
      <trkpt lat="43.197710" lon="-5.334970">
        <ele>641.274</ele>
        <time>2020-05-21T12:51:12Z</time>
      </trkpt>
      <trkpt lat="43.197700" lon="-5.334910">
        <ele>641.381</ele>
        <time>2020-05-21T12:51:32Z</time>
      </trkpt>
      <trkpt lat="43.197690" lon="-5.334870">
        <ele>641.287</ele>
        <time>2020-05-21T12:51:52Z</time>
      </trkpt>
      <trkpt lat="43.197660" lon="-5.334790">
        <ele>640.646</ele>
        <time>2020-05-21T12:52:12Z</time>
      </trkpt>
      <trkpt lat="43.197640" lon="-5.334740">
        <ele>640.333</ele>
        <time>2020-05-21T12:52:32Z</time>
      </trkpt>
      <trkpt lat="43.197570" lon="-5.334600">
        <ele>639.868</ele>
        <time>2020-05-21T12:52:52Z</time>
      </trkpt>
      <trkpt lat="43.197530" lon="-5.334490">
        <ele>639.912</ele>
        <time>2020-05-21T12:53:12Z</time>
      </trkpt>
      <trkpt lat="43.197520" lon="-5.334430">
        <ele>640.316</ele>
        <time>2020-05-21T12:53:32Z</time>
      </trkpt>
      <trkpt lat="43.197510" lon="-5.334360">
        <ele>640.276</ele>
        <time>2020-05-21T12:53:52Z</time>
      </trkpt>
      <trkpt lat="43.197500" lon="-5.334310">
        <ele>640.013</ele>
        <time>2020-05-21T12:54:12Z</time>
      </trkpt>
      <trkpt lat="43.197480" lon="-5.334040">
        <ele>640.708</ele>
        <time>2020-05-21T12:54:32Z</time>
      </trkpt>
      <trkpt lat="43.197470" lon="-5.333810">
        <ele>641.985</ele>
        <time>2020-05-21T12:54:52Z</time>
      </trkpt>
      <trkpt lat="43.197460" lon="-5.333740">
        <ele>641.810</ele>
        <time>2020-05-21T12:55:12Z</time>
      </trkpt>
      <trkpt lat="43.197460" lon="-5.333610">
        <ele>642.687</ele>
        <time>2020-05-21T12:55:32Z</time>
      </trkpt>
      <trkpt lat="43.197460" lon="-5.333560">
        <ele>642.923</ele>
        <time>2020-05-21T12:55:52Z</time>
      </trkpt>
      <trkpt lat="43.197450" lon="-5.333510">
        <ele>642.722</ele>
        <time>2020-05-21T12:56:12Z</time>
      </trkpt>
      <trkpt lat="43.197450" lon="-5.333430">
        <ele>643.289</ele>
        <time>2020-05-21T12:56:32Z</time>
      </trkpt>
      <trkpt lat="43.197480" lon="-5.333170">
        <ele>644.774</ele>
        <time>2020-05-21T12:56:52Z</time>
      </trkpt>
      <trkpt lat="43.197510" lon="-5.333010">
        <ele>645.658</ele>
        <time>2020-05-21T12:57:12Z</time>
      </trkpt>
      <trkpt lat="43.197520" lon="-5.332890">
        <ele>646.331</ele>
        <time>2020-05-21T12:57:32Z</time>
      </trkpt>
      <trkpt lat="43.197520" lon="-5.332830">
        <ele>646.461</ele>
        <time>2020-05-21T12:57:52Z</time>
      </trkpt>
      <trkpt lat="43.197530" lon="-5.332810">
        <ele>647.207</ele>
        <time>2020-05-21T12:58:12Z</time>
      </trkpt>
      <trkpt lat="43.197530" lon="-5.332730">
        <ele>648.008</ele>
        <time>2020-05-21T12:58:32Z</time>
      </trkpt>
      <trkpt lat="43.197520" lon="-5.332670">
        <ele>648.157</ele>
        <time>2020-05-21T12:58:52Z</time>
      </trkpt>
      <trkpt lat="43.197510" lon="-5.332610">
        <ele>648.282</ele>
        <time>2020-05-21T12:59:12Z</time>
      </trkpt>
      <trkpt lat="43.197490" lon="-5.332550">
        <ele>647.869</ele>
        <time>2020-05-21T12:59:32Z</time>
      </trkpt>
      <trkpt lat="43.197450" lon="-5.332450">
        <ele>647.555</ele>
        <time>2020-05-21T12:59:52Z</time>
      </trkpt>
      <trkpt lat="43.197420" lon="-5.332370">
        <ele>647.544</ele>
        <time>2020-05-21T13:00:12Z</time>
      </trkpt>
      <trkpt lat="43.197390" lon="-5.332320">
        <ele>646.821</ele>
        <time>2020-05-21T13:00:32Z</time>
      </trkpt>
      <trkpt lat="43.197250" lon="-5.331930">
        <ele>646.036</ele>
        <time>2020-05-21T13:00:52Z</time>
      </trkpt>
      <trkpt lat="43.197220" lon="-5.331830">
        <ele>645.980</ele>
        <time>2020-05-21T13:01:12Z</time>
      </trkpt>
      <trkpt lat="43.197180" lon="-5.331710">
        <ele>645.745</ele>
        <time>2020-05-21T13:01:32Z</time>
      </trkpt>
      <trkpt lat="43.197160" lon="-5.331660">
        <ele>645.347</ele>
        <time>2020-05-21T13:01:52Z</time>
      </trkpt>
      <trkpt lat="43.197130" lon="-5.331530">
        <ele>645.311</ele>
        <time>2020-05-21T13:02:12Z</time>
      </trkpt>
      <trkpt lat="43.197120" lon="-5.331470">
        <ele>645.508</ele>
        <time>2020-05-21T13:02:32Z</time>
      </trkpt>
      <trkpt lat="43.197120" lon="-5.331420">
        <ele>646.248</ele>
        <time>2020-05-21T13:02:52Z</time>
      </trkpt>
      <trkpt lat="43.197110" lon="-5.331250">
        <ele>646.913</ele>
        <time>2020-05-21T13:03:12Z</time>
      </trkpt>
      <trkpt lat="43.197090" lon="-5.331040">
        <ele>647.040</ele>
        <time>2020-05-21T13:03:32Z</time>
      </trkpt>
      <trkpt lat="43.197090" lon="-5.330980">
        <ele>647.466</ele>
        <time>2020-05-21T13:03:52Z</time>
      </trkpt>
      <trkpt lat="43.197070" lon="-5.330780">
        <ele>647.495</ele>
        <time>2020-05-21T13:04:12Z</time>
      </trkpt>
      <trkpt lat="43.197040" lon="-5.330610">
        <ele>646.582</ele>
        <time>2020-05-21T13:04:32Z</time>
      </trkpt>
      <trkpt lat="43.197000" lon="-5.330370">
        <ele>646.557</ele>
        <time>2020-05-21T13:04:52Z</time>
      </trkpt>
      <trkpt lat="43.196990" lon="-5.330290">
        <ele>647.071</ele>
        <time>2020-05-21T13:05:12Z</time>
      </trkpt>
      <trkpt lat="43.196990" lon="-5.330260">
        <ele>647.252</ele>
        <time>2020-05-21T13:05:32Z</time>
      </trkpt>
      <trkpt lat="43.196980" lon="-5.330190">
        <ele>647.253</ele>
        <time>2020-05-21T13:05:52Z</time>
      </trkpt>
      <trkpt lat="43.196980" lon="-5.330080">
        <ele>647.908</ele>
        <time>2020-05-21T13:06:12Z</time>
      </trkpt>
      <trkpt lat="43.196990" lon="-5.329830">
        <ele>649.308</ele>
        <time>2020-05-21T13:06:32Z</time>
      </trkpt>
      <trkpt lat="43.197000" lon="-5.329620">
        <ele>650.169</ele>
        <time>2020-05-21T13:06:52Z</time>
      </trkpt>
      <trkpt lat="43.197010" lon="-5.329380">
        <ele>651.144</ele>
        <time>2020-05-21T13:07:12Z</time>
      </trkpt>
      <trkpt lat="43.197000" lon="-5.329200">
        <ele>652.111</ele>
        <time>2020-05-21T13:07:32Z</time>
      </trkpt>
      <trkpt lat="43.197000" lon="-5.329130">
        <ele>652.567</ele>
        <time>2020-05-21T13:07:52Z</time>
      </trkpt>
      <trkpt lat="43.196980" lon="-5.329030">
        <ele>651.916</ele>
        <time>2020-05-21T13:08:12Z</time>
      </trkpt>
      <trkpt lat="43.196950" lon="-5.328950">
        <ele>651.083</ele>
        <time>2020-05-21T13:08:32Z</time>
      </trkpt>
      <trkpt lat="43.196880" lon="-5.328820">
        <ele>650.578</ele>
        <time>2020-05-21T13:08:52Z</time>
      </trkpt>
      <trkpt lat="43.196770" lon="-5.328590">
        <ele>652.562</ele>
        <time>2020-05-21T13:09:12Z</time>
      </trkpt>
      <trkpt lat="43.196710" lon="-5.328490">
        <ele>652.765</ele>
        <time>2020-05-21T13:09:32Z</time>
      </trkpt>
      <trkpt lat="43.196660" lon="-5.328360">
        <ele>653.468</ele>
        <time>2020-05-21T13:09:52Z</time>
      </trkpt>
      <trkpt lat="43.196620" lon="-5.328230">
        <ele>653.514</ele>
        <time>2020-05-21T13:10:12Z</time>
      </trkpt>
      <trkpt lat="43.196610" lon="-5.328180">
        <ele>653.708</ele>
        <time>2020-05-21T13:10:32Z</time>
      </trkpt>
      <trkpt lat="43.196590" lon="-5.328080">
        <ele>654.250</ele>
        <time>2020-05-21T13:10:52Z</time>
      </trkpt>
      <trkpt lat="43.196510" lon="-5.327540">
        <ele>655.315</ele>
        <time>2020-05-21T13:11:12Z</time>
      </trkpt>
      <trkpt lat="43.196480" lon="-5.327370">
        <ele>655.922</ele>
        <time>2020-05-21T13:11:32Z</time>
      </trkpt>
      <trkpt lat="43.196460" lon="-5.327270">
        <ele>656.318</ele>
        <time>2020-05-21T13:11:52Z</time>
      </trkpt>
      <trkpt lat="43.196430" lon="-5.327050">
        <ele>657.717</ele>
        <time>2020-05-21T13:12:12Z</time>
      </trkpt>
      <trkpt lat="43.196370" lon="-5.326820">
        <ele>657.714</ele>
        <time>2020-05-21T13:12:32Z</time>
      </trkpt>
      <trkpt lat="43.196370" lon="-5.326800">
        <ele>657.739</ele>
        <time>2020-05-21T13:12:52Z</time>
      </trkpt>
      <trkpt lat="43.196250" lon="-5.326360">
        <ele>652.483</ele>
        <time>2020-05-21T13:13:12Z</time>
      </trkpt>
      <trkpt lat="43.196240" lon="-5.326350">
        <ele>651.983</ele>
        <time>2020-05-21T13:13:32Z</time>
      </trkpt>
      <trkpt lat="43.196220" lon="-5.326260">
        <ele>652.125</ele>
        <time>2020-05-21T13:13:52Z</time>
      </trkpt>
      <trkpt lat="43.196210" lon="-5.326200">
        <ele>652.517</ele>
        <time>2020-05-21T13:14:12Z</time>
      </trkpt>
      <trkpt lat="43.196200" lon="-5.326170">
        <ele>652.508</ele>
        <time>2020-05-21T13:14:32Z</time>
      </trkpt>
      <trkpt lat="43.196200" lon="-5.326120">
        <ele>653.372</ele>
        <time>2020-05-21T13:14:52Z</time>
      </trkpt>
      <trkpt lat="43.196190" lon="-5.326070">
        <ele>653.047</ele>
        <time>2020-05-21T13:15:12Z</time>
      </trkpt>
      <trkpt lat="43.196190" lon="-5.325980">
        <ele>653.164</ele>
        <time>2020-05-21T13:15:32Z</time>
      </trkpt>
      <trkpt lat="43.196200" lon="-5.325880">
        <ele>653.790</ele>
        <time>2020-05-21T13:15:52Z</time>
      </trkpt>
      <trkpt lat="43.196200" lon="-5.325850">
        <ele>653.819</ele>
        <time>2020-05-21T13:16:12Z</time>
      </trkpt>
      <trkpt lat="43.196210" lon="-5.325630">
        <ele>653.876</ele>
        <time>2020-05-21T13:16:32Z</time>
      </trkpt>
      <trkpt lat="43.196210" lon="-5.325540">
        <ele>653.621</ele>
        <time>2020-05-21T13:16:52Z</time>
      </trkpt>
      <trkpt lat="43.196210" lon="-5.325470">
        <ele>653.745</ele>
        <time>2020-05-21T13:17:12Z</time>
      </trkpt>
      <trkpt lat="43.196210" lon="-5.325380">
        <ele>653.975</ele>
        <time>2020-05-21T13:17:32Z</time>
      </trkpt>
      <trkpt lat="43.196200" lon="-5.325350">
        <ele>653.428</ele>
        <time>2020-05-21T13:17:52Z</time>
      </trkpt>
      <trkpt lat="43.196190" lon="-5.325210">
        <ele>653.320</ele>
        <time>2020-05-21T13:18:12Z</time>
      </trkpt>
      <trkpt lat="43.196190" lon="-5.325140">
        <ele>653.608</ele>
        <time>2020-05-21T13:18:32Z</time>
      </trkpt>
      <trkpt lat="43.196180" lon="-5.325090">
        <ele>653.371</ele>
        <time>2020-05-21T13:18:52Z</time>
      </trkpt>
      <trkpt lat="43.196160" lon="-5.325020">
        <ele>652.676</ele>
        <time>2020-05-21T13:19:12Z</time>
      </trkpt>
      <trkpt lat="43.196100" lon="-5.324780">
        <ele>651.253</ele>
        <time>2020-05-21T13:19:32Z</time>
      </trkpt>
      <trkpt lat="43.196060" lon="-5.324680">
        <ele>650.589</ele>
        <time>2020-05-21T13:19:52Z</time>
      </trkpt>
      <trkpt lat="43.195990" lon="-5.324460">
        <ele>649.948</ele>
        <time>2020-05-21T13:20:12Z</time>
      </trkpt>
      <trkpt lat="43.195950" lon="-5.324300">
        <ele>650.545</ele>
        <time>2020-05-21T13:20:32Z</time>
      </trkpt>
      <trkpt lat="43.195700" lon="-5.323680">
        <ele>647.570</ele>
        <time>2020-05-21T13:20:52Z</time>
      </trkpt>
      <trkpt lat="43.195590" lon="-5.323380">
        <ele>645.794</ele>
        <time>2020-05-21T13:21:12Z</time>
      </trkpt>
      <trkpt lat="43.195520" lon="-5.323160">
        <ele>644.342</ele>
        <time>2020-05-21T13:21:32Z</time>
      </trkpt>
      <trkpt lat="43.195470" lon="-5.323030">
        <ele>643.722</ele>
        <time>2020-05-21T13:21:52Z</time>
      </trkpt>
      <trkpt lat="43.195450" lon="-5.322980">
        <ele>643.914</ele>
        <time>2020-05-21T13:22:12Z</time>
      </trkpt>
      <trkpt lat="43.195440" lon="-5.322940">
        <ele>644.108</ele>
        <time>2020-05-21T13:22:32Z</time>
      </trkpt>
      <trkpt lat="43.195380" lon="-5.322700">
        <ele>645.418</ele>
        <time>2020-05-21T13:22:52Z</time>
      </trkpt>
      <trkpt lat="43.195320" lon="-5.322530">
        <ele>645.363</ele>
        <time>2020-05-21T13:23:12Z</time>
      </trkpt>
      <trkpt lat="43.195260" lon="-5.322330">
        <ele>646.160</ele>
        <time>2020-05-21T13:23:32Z</time>
      </trkpt>
      <trkpt lat="43.195230" lon="-5.322230">
        <ele>646.646</ele>
        <time>2020-05-21T13:23:52Z</time>
      </trkpt>
      <trkpt lat="43.195200" lon="-5.322190">
        <ele>646.475</ele>
        <time>2020-05-21T13:24:12Z</time>
      </trkpt>
      <trkpt lat="43.195140" lon="-5.322140">
        <ele>646.022</ele>
        <time>2020-05-21T13:24:32Z</time>
      </trkpt>
      <trkpt lat="43.195120" lon="-5.322130">
        <ele>645.957</ele>
        <time>2020-05-21T13:24:52Z</time>
      </trkpt>
      <trkpt lat="43.195090" lon="-5.322120">
        <ele>645.681</ele>
        <time>2020-05-21T13:25:12Z</time>
      </trkpt>
      <trkpt lat="43.195040" lon="-5.322120">
        <ele>645.344</ele>
        <time>2020-05-21T13:25:32Z</time>
      </trkpt>
      <trkpt lat="43.195030" lon="-5.322120">
        <ele>645.205</ele>
        <time>2020-05-21T13:25:52Z</time>
      </trkpt>
      <trkpt lat="43.195000" lon="-5.322120">
        <ele>645.015</ele>
        <time>2020-05-21T13:26:12Z</time>
      </trkpt>
      <trkpt lat="43.194990" lon="-5.322130">
        <ele>645.408</ele>
        <time>2020-05-21T13:26:32Z</time>
      </trkpt>
      <trkpt lat="43.194980" lon="-5.322140">
        <ele>645.838</ele>
        <time>2020-05-21T13:26:52Z</time>
      </trkpt>
      <trkpt lat="43.194970" lon="-5.322150">
        <ele>646.213</ele>
        <time>2020-05-21T13:27:12Z</time>
      </trkpt>
      <trkpt lat="43.194950" lon="-5.322180">
        <ele>647.070</ele>
        <time>2020-05-21T13:27:32Z</time>
      </trkpt>
      <trkpt lat="43.194930" lon="-5.322220">
        <ele>647.846</ele>
        <time>2020-05-21T13:27:52Z</time>
      </trkpt>
      <trkpt lat="43.194920" lon="-5.322270">
        <ele>647.835</ele>
        <time>2020-05-21T13:28:12Z</time>
      </trkpt>
      <trkpt lat="43.194920" lon="-5.322280">
        <ele>647.812</ele>
        <time>2020-05-21T13:28:32Z</time>
      </trkpt>
      <trkpt lat="43.194910" lon="-5.322400">
        <ele>647.357</ele>
        <time>2020-05-21T13:28:52Z</time>
      </trkpt>
      <trkpt lat="43.194910" lon="-5.322530">
        <ele>646.961</ele>
        <time>2020-05-21T13:29:12Z</time>
      </trkpt>
      <trkpt lat="43.194920" lon="-5.322620">
        <ele>647.392</ele>
        <time>2020-05-21T13:29:32Z</time>
      </trkpt>
      <trkpt lat="43.194930" lon="-5.322770">
        <ele>648.273</ele>
        <time>2020-05-21T13:29:52Z</time>
      </trkpt>
      <trkpt lat="43.194930" lon="-5.322780">
        <ele>648.320</ele>
        <time>2020-05-21T13:30:12Z</time>
      </trkpt>
      <trkpt lat="43.194950" lon="-5.322990">
        <ele>647.808</ele>
        <time>2020-05-21T13:30:32Z</time>
      </trkpt>
      <trkpt lat="43.194960" lon="-5.323280">
        <ele>645.893</ele>
        <time>2020-05-21T13:30:52Z</time>
      </trkpt>
      <trkpt lat="43.194960" lon="-5.323340">
        <ele>645.588</ele>
        <time>2020-05-21T13:31:12Z</time>
      </trkpt>
      <trkpt lat="43.194970" lon="-5.323610">
        <ele>645.515</ele>
        <time>2020-05-21T13:31:32Z</time>
      </trkpt>
      <trkpt lat="43.194970" lon="-5.323730">
        <ele>647.041</ele>
        <time>2020-05-21T13:31:52Z</time>
      </trkpt>
      <trkpt lat="43.194970" lon="-5.323750">
        <ele>647.330</ele>
        <time>2020-05-21T13:32:12Z</time>
      </trkpt>
      <trkpt lat="43.194970" lon="-5.324000">
        <ele>649.457</ele>
        <time>2020-05-21T13:32:32Z</time>
      </trkpt>
      <trkpt lat="43.194970" lon="-5.324020">
        <ele>649.432</ele>
        <time>2020-05-21T13:32:52Z</time>
      </trkpt>
      <trkpt lat="43.194970" lon="-5.324200">
        <ele>649.626</ele>
        <time>2020-05-21T13:33:12Z</time>
      </trkpt>
      <trkpt lat="43.194970" lon="-5.324250">
        <ele>649.584</ele>
        <time>2020-05-21T13:33:32Z</time>
      </trkpt>
      <trkpt lat="43.194960" lon="-5.324370">
        <ele>649.407</ele>
        <time>2020-05-21T13:33:52Z</time>
      </trkpt>
      <trkpt lat="43.194950" lon="-5.324560">
        <ele>649.117</ele>
        <time>2020-05-21T13:34:12Z</time>
      </trkpt>
      <trkpt lat="43.194930" lon="-5.324730">
        <ele>649.208</ele>
        <time>2020-05-21T13:34:32Z</time>
      </trkpt>
      <trkpt lat="43.194920" lon="-5.324740">
        <ele>649.512</ele>
        <time>2020-05-21T13:34:52Z</time>
      </trkpt>
      <trkpt lat="43.194900" lon="-5.324820">
        <ele>649.527</ele>
        <time>2020-05-21T13:35:12Z</time>
      </trkpt>
      <trkpt lat="43.194890" lon="-5.324870">
        <ele>649.514</ele>
        <time>2020-05-21T13:35:32Z</time>
      </trkpt>
      <trkpt lat="43.194770" lon="-5.325310">
        <ele>650.470</ele>
        <time>2020-05-21T13:35:52Z</time>
      </trkpt>
      <trkpt lat="43.194740" lon="-5.325430">
        <ele>650.959</ele>
        <time>2020-05-21T13:36:12Z</time>
      </trkpt>
      <trkpt lat="43.194720" lon="-5.325520">
        <ele>651.266</ele>
        <time>2020-05-21T13:36:32Z</time>
      </trkpt>
      <trkpt lat="43.194690" lon="-5.325670">
        <ele>651.391</ele>
        <time>2020-05-21T13:36:52Z</time>
      </trkpt>
      <trkpt lat="43.194690" lon="-5.325680">
        <ele>651.395</ele>
        <time>2020-05-21T13:37:12Z</time>
      </trkpt>
      <trkpt lat="43.194670" lon="-5.325760">
        <ele>651.543</ele>
        <time>2020-05-21T13:37:32Z</time>
      </trkpt>
      <trkpt lat="43.194630" lon="-5.325900">
        <ele>652.064</ele>
        <time>2020-05-21T13:37:52Z</time>
      </trkpt>
      <trkpt lat="43.194610" lon="-5.325990">
        <ele>652.010</ele>
        <time>2020-05-21T13:38:12Z</time>
      </trkpt>
      <trkpt lat="43.194610" lon="-5.326000">
        <ele>652.008</ele>
        <time>2020-05-21T13:38:32Z</time>
      </trkpt>
      <trkpt lat="43.194540" lon="-5.326260">
        <ele>652.698</ele>
        <time>2020-05-21T13:38:52Z</time>
      </trkpt>
      <trkpt lat="43.194520" lon="-5.326370">
        <ele>652.973</ele>
        <time>2020-05-21T13:39:12Z</time>
      </trkpt>
      <trkpt lat="43.194520" lon="-5.326390">
        <ele>652.870</ele>
        <time>2020-05-21T13:39:32Z</time>
      </trkpt>
      <trkpt lat="43.194500" lon="-5.326520">
        <ele>653.176</ele>
        <time>2020-05-21T13:39:52Z</time>
      </trkpt>
      <trkpt lat="43.194490" lon="-5.326740">
        <ele>653.645</ele>
        <time>2020-05-21T13:40:12Z</time>
      </trkpt>
      <trkpt lat="43.194490" lon="-5.326860">
        <ele>654.112</ele>
        <time>2020-05-21T13:40:32Z</time>
      </trkpt>
      <trkpt lat="43.194480" lon="-5.327110">
        <ele>655.497</ele>
        <time>2020-05-21T13:40:52Z</time>
      </trkpt>
      <trkpt lat="43.194480" lon="-5.327200">
        <ele>655.571</ele>
        <time>2020-05-21T13:41:12Z</time>
      </trkpt>
      <trkpt lat="43.194480" lon="-5.327310">
        <ele>654.813</ele>
        <time>2020-05-21T13:41:32Z</time>
      </trkpt>
      <trkpt lat="43.194480" lon="-5.327360">
        <ele>654.443</ele>
        <time>2020-05-21T13:41:52Z</time>
      </trkpt>
      <trkpt lat="43.194470" lon="-5.327400">
        <ele>654.807</ele>
        <time>2020-05-21T13:42:12Z</time>
      </trkpt>
      <trkpt lat="43.194450" lon="-5.327480">
        <ele>655.708</ele>
        <time>2020-05-21T13:42:32Z</time>
      </trkpt>
      <trkpt lat="43.194430" lon="-5.327530">
        <ele>655.675</ele>
        <time>2020-05-21T13:42:52Z</time>
      </trkpt>
      <trkpt lat="43.194400" lon="-5.327570">
        <ele>655.440</ele>
        <time>2020-05-21T13:43:12Z</time>
      </trkpt>
      <trkpt lat="43.194390" lon="-5.327580">
        <ele>655.427</ele>
        <time>2020-05-21T13:43:32Z</time>
      </trkpt>
      <trkpt lat="43.194350" lon="-5.327630">
        <ele>655.253</ele>
        <time>2020-05-21T13:43:52Z</time>
      </trkpt>
      <trkpt lat="43.194180" lon="-5.327710">
        <ele>657.852</ele>
        <time>2020-05-21T13:44:12Z</time>
      </trkpt>
      <trkpt lat="43.194150" lon="-5.327720">
        <ele>658.279</ele>
        <time>2020-05-21T13:44:32Z</time>
      </trkpt>
      <trkpt lat="43.194110" lon="-5.327740">
        <ele>658.514</ele>
        <time>2020-05-21T13:44:52Z</time>
      </trkpt>
      <trkpt lat="43.194100" lon="-5.327760">
        <ele>658.248</ele>
        <time>2020-05-21T13:45:12Z</time>
      </trkpt>
      <trkpt lat="43.194090" lon="-5.327770">
        <ele>658.127</ele>
        <time>2020-05-21T13:45:32Z</time>
      </trkpt>
      <trkpt lat="43.194080" lon="-5.327780">
        <ele>658.268</ele>
        <time>2020-05-21T13:45:52Z</time>
      </trkpt>
      <trkpt lat="43.194080" lon="-5.327800">
        <ele>658.314</ele>
        <time>2020-05-21T13:46:12Z</time>
      </trkpt>
      <trkpt lat="43.194070" lon="-5.327820">
        <ele>658.608</ele>
        <time>2020-05-21T13:46:32Z</time>
      </trkpt>
      <trkpt lat="43.194070" lon="-5.327840">
        <ele>658.746</ele>
        <time>2020-05-21T13:46:52Z</time>
      </trkpt>
      <trkpt lat="43.194070" lon="-5.327860">
        <ele>658.821</ele>
        <time>2020-05-21T13:47:12Z</time>
      </trkpt>
      <trkpt lat="43.194070" lon="-5.327870">
        <ele>658.938</ele>
        <time>2020-05-21T13:47:32Z</time>
      </trkpt>
      <trkpt lat="43.194070" lon="-5.327880">
        <ele>658.994</ele>
        <time>2020-05-21T13:47:52Z</time>
      </trkpt>
      <trkpt lat="43.194070" lon="-5.327900">
        <ele>659.083</ele>
        <time>2020-05-21T13:48:12Z</time>
      </trkpt>
      <trkpt lat="43.194070" lon="-5.327920">
        <ele>659.170</ele>
        <time>2020-05-21T13:48:32Z</time>
      </trkpt>
      <trkpt lat="43.194080" lon="-5.327990">
        <ele>659.225</ele>
        <time>2020-05-21T13:48:52Z</time>
      </trkpt>
      <trkpt lat="43.194090" lon="-5.328020">
        <ele>659.029</ele>
        <time>2020-05-21T13:49:12Z</time>
      </trkpt>
      <trkpt lat="43.194100" lon="-5.328020">
        <ele>658.842</ele>
        <time>2020-05-21T13:49:32Z</time>
      </trkpt>
      <trkpt lat="43.194180" lon="-5.328190">
        <ele>658.722</ele>
        <time>2020-05-21T13:49:52Z</time>
      </trkpt>
      <trkpt lat="43.194250" lon="-5.328320">
        <ele>657.314</ele>
        <time>2020-05-21T13:50:12Z</time>
      </trkpt>
      <trkpt lat="43.194280" lon="-5.328390">
        <ele>656.708</ele>
        <time>2020-05-21T13:50:32Z</time>
      </trkpt>
      <trkpt lat="43.194290" lon="-5.328430">
        <ele>656.778</ele>
        <time>2020-05-21T13:50:52Z</time>
      </trkpt>
      <trkpt lat="43.194310" lon="-5.328490">
        <ele>656.533</ele>
        <time>2020-05-21T13:51:12Z</time>
      </trkpt>
      <trkpt lat="43.194320" lon="-5.328610">
        <ele>657.780</ele>
        <time>2020-05-21T13:51:32Z</time>
      </trkpt>
      <trkpt lat="43.194320" lon="-5.328660">
        <ele>657.936</ele>
        <time>2020-05-21T13:51:52Z</time>
      </trkpt>
      <trkpt lat="43.194320" lon="-5.328670">
        <ele>657.945</ele>
        <time>2020-05-21T13:52:12Z</time>
      </trkpt>
      <trkpt lat="43.194320" lon="-5.328730">
        <ele>658.152</ele>
        <time>2020-05-21T13:52:32Z</time>
      </trkpt>
      <trkpt lat="43.194320" lon="-5.328760">
        <ele>658.397</ele>
        <time>2020-05-21T13:52:52Z</time>
      </trkpt>
      <trkpt lat="43.194320" lon="-5.328790">
        <ele>658.491</ele>
        <time>2020-05-21T13:53:12Z</time>
      </trkpt>
      <trkpt lat="43.194310" lon="-5.328880">
        <ele>659.293</ele>
        <time>2020-05-21T13:53:32Z</time>
      </trkpt>
      <trkpt lat="43.194310" lon="-5.328920">
        <ele>659.065</ele>
        <time>2020-05-21T13:53:52Z</time>
      </trkpt>
      <trkpt lat="43.194290" lon="-5.329130">
        <ele>658.921</ele>
        <time>2020-05-21T13:54:12Z</time>
      </trkpt>
      <trkpt lat="43.194290" lon="-5.329160">
        <ele>658.708</ele>
        <time>2020-05-21T13:54:32Z</time>
      </trkpt>
      <trkpt lat="43.194280" lon="-5.329250">
        <ele>660.293</ele>
        <time>2020-05-21T13:54:52Z</time>
      </trkpt>
      <trkpt lat="43.194280" lon="-5.329270">
        <ele>660.428</ele>
        <time>2020-05-21T13:55:12Z</time>
      </trkpt>
      <trkpt lat="43.194300" lon="-5.329420">
        <ele>660.235</ele>
        <time>2020-05-21T13:55:32Z</time>
      </trkpt>
      <trkpt lat="43.194330" lon="-5.329650">
        <ele>660.791</ele>
        <time>2020-05-21T13:55:52Z</time>
      </trkpt>
      <trkpt lat="43.194340" lon="-5.329720">
        <ele>661.030</ele>
        <time>2020-05-21T13:56:12Z</time>
      </trkpt>
      <trkpt lat="43.194360" lon="-5.329890">
        <ele>661.447</ele>
        <time>2020-05-21T13:56:32Z</time>
      </trkpt>
      <trkpt lat="43.194360" lon="-5.329900">
        <ele>661.522</ele>
        <time>2020-05-21T13:56:52Z</time>
      </trkpt>
      <trkpt lat="43.194380" lon="-5.330040">
        <ele>661.716</ele>
        <time>2020-05-21T13:57:12Z</time>
      </trkpt>
      <trkpt lat="43.194380" lon="-5.330140">
        <ele>662.232</ele>
        <time>2020-05-21T13:57:32Z</time>
      </trkpt>
      <trkpt lat="43.194390" lon="-5.330170">
        <ele>662.092</ele>
        <time>2020-05-21T13:57:52Z</time>
      </trkpt>
      <trkpt lat="43.194390" lon="-5.330230">
        <ele>662.311</ele>
        <time>2020-05-21T13:58:12Z</time>
      </trkpt>
      <trkpt lat="43.194380" lon="-5.330260">
        <ele>662.808</ele>
        <time>2020-05-21T13:58:32Z</time>
      </trkpt>
      <trkpt lat="43.194380" lon="-5.330290">
        <ele>662.717</ele>
        <time>2020-05-21T13:58:52Z</time>
      </trkpt>
      <trkpt lat="43.194360" lon="-5.330330">
        <ele>662.792</ele>
        <time>2020-05-21T13:59:12Z</time>
      </trkpt>
      <trkpt lat="43.194340" lon="-5.330360">
        <ele>662.859</ele>
        <time>2020-05-21T13:59:32Z</time>
      </trkpt>
      <trkpt lat="43.194340" lon="-5.330370">
        <ele>662.795</ele>
        <time>2020-05-21T13:59:52Z</time>
      </trkpt>
      <trkpt lat="43.194300" lon="-5.330430">
        <ele>663.064</ele>
        <time>2020-05-21T14:00:12Z</time>
      </trkpt>
      <trkpt lat="43.194230" lon="-5.330520">
        <ele>663.711</ele>
        <time>2020-05-21T14:00:32Z</time>
      </trkpt>
      <trkpt lat="43.194190" lon="-5.330580">
        <ele>664.316</ele>
        <time>2020-05-21T14:00:52Z</time>
      </trkpt>
      <trkpt lat="43.194170" lon="-5.330620">
        <ele>664.930</ele>
        <time>2020-05-21T14:01:12Z</time>
      </trkpt>
      <trkpt lat="43.194160" lon="-5.330650">
        <ele>665.145</ele>
        <time>2020-05-21T14:01:32Z</time>
      </trkpt>
      <trkpt lat="43.194140" lon="-5.330720">
        <ele>665.347</ele>
        <time>2020-05-21T14:01:52Z</time>
      </trkpt>
      <trkpt lat="43.194130" lon="-5.330760">
        <ele>665.411</ele>
        <time>2020-05-21T14:02:12Z</time>
      </trkpt>
      <trkpt lat="43.194130" lon="-5.330770">
        <ele>665.408</ele>
        <time>2020-05-21T14:02:32Z</time>
      </trkpt>
      <trkpt lat="43.194130" lon="-5.330780">
        <ele>665.438</ele>
        <time>2020-05-21T14:02:52Z</time>
      </trkpt>
      <trkpt lat="43.194130" lon="-5.330810">
        <ele>665.473</ele>
        <time>2020-05-21T14:03:12Z</time>
      </trkpt>
      <trkpt lat="43.194130" lon="-5.330830">
        <ele>665.460</ele>
        <time>2020-05-21T14:03:32Z</time>
      </trkpt>
      <trkpt lat="43.194130" lon="-5.330870">
        <ele>666.086</ele>
        <time>2020-05-21T14:03:52Z</time>
      </trkpt>
      <trkpt lat="43.194130" lon="-5.330900">
        <ele>666.585</ele>
        <time>2020-05-21T14:04:12Z</time>
      </trkpt>
      <trkpt lat="43.194150" lon="-5.330970">
        <ele>667.322</ele>
        <time>2020-05-21T14:04:32Z</time>
      </trkpt>
      <trkpt lat="43.194180" lon="-5.331060">
        <ele>667.957</ele>
        <time>2020-05-21T14:04:52Z</time>
      </trkpt>
      <trkpt lat="43.194200" lon="-5.331100">
        <ele>667.971</ele>
        <time>2020-05-21T14:05:12Z</time>
      </trkpt>
      <trkpt lat="43.194210" lon="-5.331130">
        <ele>667.933</ele>
        <time>2020-05-21T14:05:32Z</time>
      </trkpt>
      <trkpt lat="43.194250" lon="-5.331260">
        <ele>668.023</ele>
        <time>2020-05-21T14:05:52Z</time>
      </trkpt>
      <trkpt lat="43.194270" lon="-5.331340">
        <ele>668.215</ele>
        <time>2020-05-21T14:06:12Z</time>
      </trkpt>
      <trkpt lat="43.194270" lon="-5.331380">
        <ele>668.608</ele>
        <time>2020-05-21T14:06:32Z</time>
      </trkpt>
      <trkpt lat="43.194280" lon="-5.331430">
        <ele>668.457</ele>
        <time>2020-05-21T14:06:52Z</time>
      </trkpt>
      <trkpt lat="43.194280" lon="-5.331440">
        <ele>668.412</ele>
        <time>2020-05-21T14:07:12Z</time>
      </trkpt>
      <trkpt lat="43.194280" lon="-5.331470">
        <ele>668.559</ele>
        <time>2020-05-21T14:07:32Z</time>
      </trkpt>
      <trkpt lat="43.194280" lon="-5.331540">
        <ele>668.675</ele>
        <time>2020-05-21T14:07:52Z</time>
      </trkpt>
      <trkpt lat="43.194280" lon="-5.331580">
        <ele>668.794</ele>
        <time>2020-05-21T14:08:12Z</time>
      </trkpt>
      <trkpt lat="43.194280" lon="-5.331590">
        <ele>668.881</ele>
        <time>2020-05-21T14:08:32Z</time>
      </trkpt>
      <trkpt lat="43.194280" lon="-5.331640">
        <ele>668.946</ele>
        <time>2020-05-21T14:08:52Z</time>
      </trkpt>
      <trkpt lat="43.194260" lon="-5.331820">
        <ele>669.580</ele>
        <time>2020-05-21T14:09:12Z</time>
      </trkpt>
      <trkpt lat="43.194260" lon="-5.331850">
        <ele>669.426</ele>
        <time>2020-05-21T14:09:32Z</time>
      </trkpt>
      <trkpt lat="43.194250" lon="-5.332070">
        <ele>669.447</ele>
        <time>2020-05-21T14:09:52Z</time>
      </trkpt>
      <trkpt lat="43.194240" lon="-5.332110">
        <ele>669.711</ele>
        <time>2020-05-21T14:10:12Z</time>
      </trkpt>
      <trkpt lat="43.194240" lon="-5.332170">
        <ele>669.508</ele>
        <time>2020-05-21T14:10:32Z</time>
      </trkpt>
      <trkpt lat="43.194220" lon="-5.332230">
        <ele>670.036</ele>
        <time>2020-05-21T14:10:52Z</time>
      </trkpt>
      <trkpt lat="43.194200" lon="-5.332270">
        <ele>670.281</ele>
        <time>2020-05-21T14:11:12Z</time>
      </trkpt>
      <trkpt lat="43.194190" lon="-5.332300">
        <ele>670.178</ele>
        <time>2020-05-21T14:11:32Z</time>
      </trkpt>
      <trkpt lat="43.194160" lon="-5.332370">
        <ele>670.064</ele>
        <time>2020-05-21T14:11:52Z</time>
      </trkpt>
      <trkpt lat="43.194100" lon="-5.332490">
        <ele>669.823</ele>
        <time>2020-05-21T14:12:12Z</time>
      </trkpt>
      <trkpt lat="43.194090" lon="-5.332500">
        <ele>669.960</ele>
        <time>2020-05-21T14:12:32Z</time>
      </trkpt>
      <trkpt lat="43.194080" lon="-5.332530">
        <ele>670.455</ele>
        <time>2020-05-21T14:12:52Z</time>
      </trkpt>
      <trkpt lat="43.194070" lon="-5.332550">
        <ele>670.739</ele>
        <time>2020-05-21T14:13:12Z</time>
      </trkpt>
      <trkpt lat="43.194070" lon="-5.332580">
        <ele>670.926</ele>
        <time>2020-05-21T14:13:32Z</time>
      </trkpt>
      <trkpt lat="43.194070" lon="-5.332600">
        <ele>671.047</ele>
        <time>2020-05-21T14:13:52Z</time>
      </trkpt>
      <trkpt lat="43.194070" lon="-5.332610">
        <ele>671.111</ele>
        <time>2020-05-21T14:14:12Z</time>
      </trkpt>
      <trkpt lat="43.194070" lon="-5.332630">
        <ele>671.208</ele>
        <time>2020-05-21T14:14:32Z</time>
      </trkpt>
      <trkpt lat="43.194070" lon="-5.332660">
        <ele>671.496</ele>
        <time>2020-05-21T14:14:52Z</time>
      </trkpt>
      <trkpt lat="43.194070" lon="-5.332690">
        <ele>671.641</ele>
        <time>2020-05-21T14:15:12Z</time>
      </trkpt>
      <trkpt lat="43.194070" lon="-5.332700">
        <ele>671.718</ele>
        <time>2020-05-21T14:15:32Z</time>
      </trkpt>
      <trkpt lat="43.194070" lon="-5.332730">
        <ele>671.844</ele>
        <time>2020-05-21T14:15:52Z</time>
      </trkpt>
      <trkpt lat="43.194080" lon="-5.332760">
        <ele>671.743</ele>
        <time>2020-05-21T14:16:12Z</time>
      </trkpt>
      <trkpt lat="43.194090" lon="-5.332820">
        <ele>672.240</ele>
        <time>2020-05-21T14:16:32Z</time>
      </trkpt>
      <trkpt lat="43.194100" lon="-5.332860">
        <ele>672.565</ele>
        <time>2020-05-21T14:16:52Z</time>
      </trkpt>
      <trkpt lat="43.194140" lon="-5.333010">
        <ele>673.469</ele>
        <time>2020-05-21T14:17:12Z</time>
      </trkpt>
      <trkpt lat="43.194160" lon="-5.333050">
        <ele>673.243</ele>
        <time>2020-05-21T14:17:32Z</time>
      </trkpt>
      <trkpt lat="43.194180" lon="-5.333120">
        <ele>673.264</ele>
        <time>2020-05-21T14:17:52Z</time>
      </trkpt>
      <trkpt lat="43.194200" lon="-5.333260">
        <ele>673.910</ele>
        <time>2020-05-21T14:18:12Z</time>
      </trkpt>
      <trkpt lat="43.194200" lon="-5.333280">
        <ele>674.108</ele>
        <time>2020-05-21T14:18:32Z</time>
      </trkpt>
      <trkpt lat="43.194220" lon="-5.333370">
        <ele>674.158</ele>
        <time>2020-05-21T14:18:52Z</time>
      </trkpt>
      <trkpt lat="43.194220" lon="-5.333510">
        <ele>675.073</ele>
        <time>2020-05-21T14:19:12Z</time>
      </trkpt>
      <trkpt lat="43.194220" lon="-5.333530">
        <ele>675.280</ele>
        <time>2020-05-21T14:19:32Z</time>
      </trkpt>
      <trkpt lat="43.194230" lon="-5.333740">
        <ele>675.056</ele>
        <time>2020-05-21T14:19:52Z</time>
      </trkpt>
      <trkpt lat="43.194230" lon="-5.333810">
        <ele>674.945</ele>
        <time>2020-05-21T14:20:12Z</time>
      </trkpt>
      <trkpt lat="43.194200" lon="-5.333920">
        <ele>675.542</ele>
        <time>2020-05-21T14:20:32Z</time>
      </trkpt>
      <trkpt lat="43.194180" lon="-5.333980">
        <ele>675.667</ele>
        <time>2020-05-21T14:20:52Z</time>
      </trkpt>
      <trkpt lat="43.194170" lon="-5.334000">
        <ele>675.721</ele>
        <time>2020-05-21T14:21:12Z</time>
      </trkpt>
      <trkpt lat="43.194160" lon="-5.334010">
        <ele>675.821</ele>
        <time>2020-05-21T14:21:32Z</time>
      </trkpt>
      <trkpt lat="43.194100" lon="-5.334090">
        <ele>676.141</ele>
        <time>2020-05-21T14:21:52Z</time>
      </trkpt>
      <trkpt lat="43.194060" lon="-5.334120">
        <ele>676.305</ele>
        <time>2020-05-21T14:22:12Z</time>
      </trkpt>
      <trkpt lat="43.194020" lon="-5.334140">
        <ele>676.608</ele>
        <time>2020-05-21T14:22:32Z</time>
      </trkpt>
      <trkpt lat="43.194000" lon="-5.334160">
        <ele>676.566</ele>
        <time>2020-05-21T14:22:52Z</time>
      </trkpt>
      <trkpt lat="43.193870" lon="-5.334170">
        <ele>678.071</ele>
        <time>2020-05-21T14:23:12Z</time>
      </trkpt>
      <trkpt lat="43.193840" lon="-5.334170">
        <ele>678.258</ele>
        <time>2020-05-21T14:23:32Z</time>
      </trkpt>
      <trkpt lat="43.193690" lon="-5.334180">
        <ele>679.094</ele>
        <time>2020-05-21T14:23:52Z</time>
      </trkpt>
      <trkpt lat="43.193660" lon="-5.334190">
        <ele>678.853</ele>
        <time>2020-05-21T14:24:12Z</time>
      </trkpt>
      <trkpt lat="43.193590" lon="-5.334210">
        <ele>679.040</ele>
        <time>2020-05-21T14:24:32Z</time>
      </trkpt>
      <trkpt lat="43.193570" lon="-5.334220">
        <ele>679.175</ele>
        <time>2020-05-21T14:24:52Z</time>
      </trkpt>
      <trkpt lat="43.193550" lon="-5.334230">
        <ele>679.329</ele>
        <time>2020-05-21T14:25:12Z</time>
      </trkpt>
      <trkpt lat="43.193500" lon="-5.334270">
        <ele>679.217</ele>
        <time>2020-05-21T14:25:32Z</time>
      </trkpt>
      <trkpt lat="43.193430" lon="-5.334320">
        <ele>679.487</ele>
        <time>2020-05-21T14:25:52Z</time>
      </trkpt>
      <trkpt lat="43.193370" lon="-5.334340">
        <ele>680.415</ele>
        <time>2020-05-21T14:26:12Z</time>
      </trkpt>
      <trkpt lat="43.193280" lon="-5.334360">
        <ele>681.208</ele>
        <time>2020-05-21T14:26:32Z</time>
      </trkpt>
      <trkpt lat="43.193150" lon="-5.334360">
        <ele>682.235</ele>
        <time>2020-05-21T14:26:52Z</time>
      </trkpt>
      <trkpt lat="43.193090" lon="-5.334360">
        <ele>682.730</ele>
        <time>2020-05-21T14:27:12Z</time>
      </trkpt>
      <trkpt lat="43.193050" lon="-5.334370">
        <ele>682.637</ele>
        <time>2020-05-21T14:27:32Z</time>
      </trkpt>
      <trkpt lat="43.193030" lon="-5.334380">
        <ele>682.553</ele>
        <time>2020-05-21T14:27:52Z</time>
      </trkpt>
      <trkpt lat="43.193000" lon="-5.334400">
        <ele>682.322</ele>
        <time>2020-05-21T14:28:12Z</time>
      </trkpt>
      <trkpt lat="43.192960" lon="-5.334430">
        <ele>682.099</ele>
        <time>2020-05-21T14:28:32Z</time>
      </trkpt>
      <trkpt lat="43.192930" lon="-5.334480">
        <ele>681.934</ele>
        <time>2020-05-21T14:28:52Z</time>
      </trkpt>
      <trkpt lat="43.192910" lon="-5.334530">
        <ele>682.248</ele>
        <time>2020-05-21T14:29:12Z</time>
      </trkpt>
      <trkpt lat="43.192910" lon="-5.334580">
        <ele>682.019</ele>
        <time>2020-05-21T14:29:32Z</time>
      </trkpt>
      <trkpt lat="43.192910" lon="-5.334620">
        <ele>681.809</ele>
        <time>2020-05-21T14:29:52Z</time>
      </trkpt>
      <trkpt lat="43.192910" lon="-5.334630">
        <ele>681.719</ele>
        <time>2020-05-21T14:30:12Z</time>
      </trkpt>
      <trkpt lat="43.192910" lon="-5.334650">
        <ele>681.608</ele>
        <time>2020-05-21T14:30:32Z</time>
      </trkpt>
      <trkpt lat="43.192910" lon="-5.334670">
        <ele>681.535</ele>
        <time>2020-05-21T14:30:52Z</time>
      </trkpt>
      <trkpt lat="43.192910" lon="-5.334700">
        <ele>681.480</ele>
        <time>2020-05-21T14:31:12Z</time>
      </trkpt>
      <trkpt lat="43.192930" lon="-5.334750">
        <ele>681.497</ele>
        <time>2020-05-21T14:31:32Z</time>
      </trkpt>
      <trkpt lat="43.192960" lon="-5.334810">
        <ele>682.283</ele>
        <time>2020-05-21T14:31:52Z</time>
      </trkpt>
      <trkpt lat="43.192980" lon="-5.334850">
        <ele>682.742</ele>
        <time>2020-05-21T14:32:12Z</time>
      </trkpt>
      <trkpt lat="43.193050" lon="-5.334950">
        <ele>682.799</ele>
        <time>2020-05-21T14:32:32Z</time>
      </trkpt>
      <trkpt lat="43.193100" lon="-5.335030">
        <ele>682.954</ele>
        <time>2020-05-21T14:32:52Z</time>
      </trkpt>
      <trkpt lat="43.193170" lon="-5.335140">
        <ele>683.888</ele>
        <time>2020-05-21T14:33:12Z</time>
      </trkpt>
      <trkpt lat="43.193220" lon="-5.335220">
        <ele>684.498</ele>
        <time>2020-05-21T14:33:32Z</time>
      </trkpt>
      <trkpt lat="43.193310" lon="-5.335350">
        <ele>684.515</ele>
        <time>2020-05-21T14:33:52Z</time>
      </trkpt>
      <trkpt lat="43.193340" lon="-5.335400">
        <ele>684.626</ele>
        <time>2020-05-21T14:34:12Z</time>
      </trkpt>
      <trkpt lat="43.193350" lon="-5.335440">
        <ele>685.308</ele>
        <time>2020-05-21T14:34:32Z</time>
      </trkpt>
      <trkpt lat="43.193430" lon="-5.335610">
        <ele>686.163</ele>
        <time>2020-05-21T14:34:52Z</time>
      </trkpt>
      <trkpt lat="43.193430" lon="-5.335620">
        <ele>686.418</ele>
        <time>2020-05-21T14:35:12Z</time>
      </trkpt>
      <trkpt lat="43.193520" lon="-5.335820">
        <ele>687.515</ele>
        <time>2020-05-21T14:35:32Z</time>
      </trkpt>
      <trkpt lat="43.193580" lon="-5.335960">
        <ele>686.841</ele>
        <time>2020-05-21T14:35:52Z</time>
      </trkpt>
      <trkpt lat="43.193610" lon="-5.336010">
        <ele>686.210</ele>
        <time>2020-05-21T14:36:12Z</time>
      </trkpt>
      <trkpt lat="43.193620" lon="-5.336040">
        <ele>686.377</ele>
        <time>2020-05-21T14:36:32Z</time>
      </trkpt>
      <trkpt lat="43.193630" lon="-5.336060">
        <ele>686.252</ele>
        <time>2020-05-21T14:36:52Z</time>
      </trkpt>
      <trkpt lat="43.193640" lon="-5.336130">
        <ele>686.656</ele>
        <time>2020-05-21T14:37:12Z</time>
      </trkpt>
      <trkpt lat="43.193640" lon="-5.336150">
        <ele>686.447</ele>
        <time>2020-05-21T14:37:32Z</time>
      </trkpt>
      <trkpt lat="43.193640" lon="-5.336180">
        <ele>686.129</ele>
        <time>2020-05-21T14:37:52Z</time>
      </trkpt>
      <trkpt lat="43.193640" lon="-5.336210">
        <ele>685.821</ele>
        <time>2020-05-21T14:38:12Z</time>
      </trkpt>
      <trkpt lat="43.193630" lon="-5.336230">
        <ele>686.008</ele>
        <time>2020-05-21T14:38:32Z</time>
      </trkpt>
      <trkpt lat="43.193620" lon="-5.336260">
        <ele>686.018</ele>
        <time>2020-05-21T14:38:52Z</time>
      </trkpt>
      <trkpt lat="43.193620" lon="-5.336270">
        <ele>685.943</ele>
        <time>2020-05-21T14:39:12Z</time>
      </trkpt>
      <trkpt lat="43.193560" lon="-5.336410">
        <ele>686.740</ele>
        <time>2020-05-21T14:39:32Z</time>
      </trkpt>
      <trkpt lat="43.193520" lon="-5.336530">
        <ele>687.836</ele>
        <time>2020-05-21T14:39:52Z</time>
      </trkpt>
      <trkpt lat="43.193520" lon="-5.336600">
        <ele>687.525</ele>
        <time>2020-05-21T14:40:12Z</time>
      </trkpt>
      <trkpt lat="43.193520" lon="-5.336630">
        <ele>687.472</ele>
        <time>2020-05-21T14:40:32Z</time>
      </trkpt>
      <trkpt lat="43.193520" lon="-5.336670">
        <ele>687.317</ele>
        <time>2020-05-21T14:40:52Z</time>
      </trkpt>
      <trkpt lat="43.193520" lon="-5.336710">
        <ele>687.731</ele>
        <time>2020-05-21T14:41:12Z</time>
      </trkpt>
      <trkpt lat="43.193530" lon="-5.336730">
        <ele>687.477</ele>
        <time>2020-05-21T14:41:32Z</time>
      </trkpt>
      <trkpt lat="43.193540" lon="-5.336760">
        <ele>687.261</ele>
        <time>2020-05-21T14:41:52Z</time>
      </trkpt>
      <trkpt lat="43.193570" lon="-5.336930">
        <ele>687.627</ele>
        <time>2020-05-21T14:42:12Z</time>
      </trkpt>
      <trkpt lat="43.193580" lon="-5.336970">
        <ele>687.308</ele>
        <time>2020-05-21T14:42:32Z</time>
      </trkpt>
      <trkpt lat="43.193580" lon="-5.337020">
        <ele>687.211</ele>
        <time>2020-05-21T14:42:52Z</time>
      </trkpt>
      <trkpt lat="43.193580" lon="-5.337060">
        <ele>687.196</ele>
        <time>2020-05-21T14:43:12Z</time>
      </trkpt>
      <trkpt lat="43.193580" lon="-5.337110">
        <ele>687.093</ele>
        <time>2020-05-21T14:43:32Z</time>
      </trkpt>
      <trkpt lat="43.193580" lon="-5.337150">
        <ele>686.969</ele>
        <time>2020-05-21T14:43:52Z</time>
      </trkpt>
      <trkpt lat="43.193570" lon="-5.337170">
        <ele>687.248</ele>
        <time>2020-05-21T14:44:12Z</time>
      </trkpt>
      <trkpt lat="43.193570" lon="-5.337200">
        <ele>687.165</ele>
        <time>2020-05-21T14:44:32Z</time>
      </trkpt>
      <trkpt lat="43.193560" lon="-5.337210">
        <ele>687.310</ele>
        <time>2020-05-21T14:44:52Z</time>
      </trkpt>
      <trkpt lat="43.193550" lon="-5.337230">
        <ele>687.464</ele>
        <time>2020-05-21T14:45:12Z</time>
      </trkpt>
      <trkpt lat="43.193520" lon="-5.337270">
        <ele>687.485</ele>
        <time>2020-05-21T14:45:32Z</time>
      </trkpt>
      <trkpt lat="43.193420" lon="-5.337380">
        <ele>688.289</ele>
        <time>2020-05-21T14:45:52Z</time>
      </trkpt>
      <trkpt lat="43.193360" lon="-5.337460">
        <ele>688.717</ele>
        <time>2020-05-21T14:46:12Z</time>
      </trkpt>
      <trkpt lat="43.193340" lon="-5.337510">
        <ele>688.708</ele>
        <time>2020-05-21T14:46:32Z</time>
      </trkpt>
      <trkpt lat="43.193340" lon="-5.337540">
        <ele>688.682</ele>
        <time>2020-05-21T14:46:52Z</time>
      </trkpt>
      <trkpt lat="43.193330" lon="-5.337570">
        <ele>688.917</ele>
        <time>2020-05-21T14:47:12Z</time>
      </trkpt>
      <trkpt lat="43.193330" lon="-5.337580">
        <ele>688.954</ele>
        <time>2020-05-21T14:47:32Z</time>
      </trkpt>
      <trkpt lat="43.193320" lon="-5.337740">
        <ele>688.960</ele>
        <time>2020-05-21T14:47:52Z</time>
      </trkpt>
      <trkpt lat="43.193320" lon="-5.337820">
        <ele>689.219</ele>
        <time>2020-05-21T14:48:12Z</time>
      </trkpt>
      <trkpt lat="43.193320" lon="-5.337880">
        <ele>689.886</ele>
        <time>2020-05-21T14:48:32Z</time>
      </trkpt>
      <trkpt lat="43.193330" lon="-5.338000">
        <ele>690.671</ele>
        <time>2020-05-21T14:48:52Z</time>
      </trkpt>
      <trkpt lat="43.193320" lon="-5.338040">
        <ele>691.585</ele>
        <time>2020-05-21T14:49:12Z</time>
      </trkpt>
      <trkpt lat="43.193320" lon="-5.338060">
        <ele>691.599</ele>
        <time>2020-05-21T14:49:32Z</time>
      </trkpt>
      <trkpt lat="43.193320" lon="-5.338070">
        <ele>691.307</ele>
        <time>2020-05-21T14:49:52Z</time>
      </trkpt>
      <trkpt lat="43.193320" lon="-5.338100">
        <ele>690.627</ele>
        <time>2020-05-21T14:50:12Z</time>
      </trkpt>
      <trkpt lat="43.193310" lon="-5.338130">
        <ele>690.408</ele>
        <time>2020-05-21T14:50:32Z</time>
      </trkpt>
      <trkpt lat="43.193280" lon="-5.338180">
        <ele>690.593</ele>
        <time>2020-05-21T14:50:52Z</time>
      </trkpt>
      <trkpt lat="43.193230" lon="-5.338230">
        <ele>691.168</ele>
        <time>2020-05-21T14:51:12Z</time>
      </trkpt>
      <trkpt lat="43.193210" lon="-5.338250">
        <ele>691.385</ele>
        <time>2020-05-21T14:51:32Z</time>
      </trkpt>
      <trkpt lat="43.193060" lon="-5.338370">
        <ele>693.111</ele>
        <time>2020-05-21T14:51:52Z</time>
      </trkpt>
      <trkpt lat="43.193050" lon="-5.338370">
        <ele>693.410</ele>
        <time>2020-05-21T14:52:12Z</time>
      </trkpt>
      <trkpt lat="43.193010" lon="-5.338430">
        <ele>693.757</ele>
        <time>2020-05-21T14:52:32Z</time>
      </trkpt>
      <trkpt lat="43.192990" lon="-5.338460">
        <ele>693.942</ele>
        <time>2020-05-21T14:52:52Z</time>
      </trkpt>
      <trkpt lat="43.192980" lon="-5.338490">
        <ele>693.866</ele>
        <time>2020-05-21T14:53:12Z</time>
      </trkpt>
      <trkpt lat="43.192970" lon="-5.338520">
        <ele>693.771</ele>
        <time>2020-05-21T14:53:32Z</time>
      </trkpt>
      <trkpt lat="43.192970" lon="-5.338550">
        <ele>693.141</ele>
        <time>2020-05-21T14:53:52Z</time>
      </trkpt>
      <trkpt lat="43.192970" lon="-5.338570">
        <ele>692.815</ele>
        <time>2020-05-21T14:54:12Z</time>
      </trkpt>
      <trkpt lat="43.192970" lon="-5.338600">
        <ele>692.208</ele>
        <time>2020-05-21T14:54:32Z</time>
      </trkpt>
      <trkpt lat="43.192970" lon="-5.338630">
        <ele>692.371</ele>
        <time>2020-05-21T14:54:52Z</time>
      </trkpt>
      <trkpt lat="43.192970" lon="-5.338650">
        <ele>692.616</ele>
        <time>2020-05-21T14:55:12Z</time>
      </trkpt>
      <trkpt lat="43.192970" lon="-5.338680">
        <ele>693.063</ele>
        <time>2020-05-21T14:55:32Z</time>
      </trkpt>
      <trkpt lat="43.192970" lon="-5.338700">
        <ele>693.369</ele>
        <time>2020-05-21T14:55:52Z</time>
      </trkpt>
      <trkpt lat="43.192980" lon="-5.338750">
        <ele>693.698</ele>
        <time>2020-05-21T14:56:12Z</time>
      </trkpt>
      <trkpt lat="43.192990" lon="-5.338800">
        <ele>694.095</ele>
        <time>2020-05-21T14:56:32Z</time>
      </trkpt>
      <trkpt lat="43.193000" lon="-5.338810">
        <ele>693.850</ele>
        <time>2020-05-21T14:56:52Z</time>
      </trkpt>
      <trkpt lat="43.193020" lon="-5.338890">
        <ele>694.354</ele>
        <time>2020-05-21T14:57:12Z</time>
      </trkpt>
      <trkpt lat="43.193050" lon="-5.338930">
        <ele>694.717</ele>
        <time>2020-05-21T14:57:32Z</time>
      </trkpt>
      <trkpt lat="43.193090" lon="-5.338990">
        <ele>695.687</ele>
        <time>2020-05-21T14:57:52Z</time>
      </trkpt>
      <trkpt lat="43.193100" lon="-5.339010">
        <ele>696.015</ele>
        <time>2020-05-21T14:58:12Z</time>
      </trkpt>
      <trkpt lat="43.193150" lon="-5.339060">
        <ele>696.608</ele>
        <time>2020-05-21T14:58:32Z</time>
      </trkpt>
      <trkpt lat="43.193230" lon="-5.339130">
        <ele>697.685</ele>
        <time>2020-05-21T14:58:52Z</time>
      </trkpt>
      <trkpt lat="43.193250" lon="-5.339150">
        <ele>698.080</ele>
        <time>2020-05-21T14:59:12Z</time>
      </trkpt>
      <trkpt lat="43.193280" lon="-5.339180">
        <ele>698.687</ele>
        <time>2020-05-21T14:59:32Z</time>
      </trkpt>
      <trkpt lat="43.193340" lon="-5.339260">
        <ele>699.483</ele>
        <time>2020-05-21T14:59:52Z</time>
      </trkpt>
      <trkpt lat="43.193370" lon="-5.339300">
        <ele>699.362</ele>
        <time>2020-05-21T15:00:12Z</time>
      </trkpt>
      <trkpt lat="43.193380" lon="-5.339310">
        <ele>699.229</ele>
        <time>2020-05-21T15:00:32Z</time>
      </trkpt>
      <trkpt lat="43.193410" lon="-5.339350">
        <ele>699.114</ele>
        <time>2020-05-21T15:00:52Z</time>
      </trkpt>
      <trkpt lat="43.193430" lon="-5.339400">
        <ele>699.818</ele>
        <time>2020-05-21T15:01:12Z</time>
      </trkpt>
      <trkpt lat="43.193480" lon="-5.339490">
        <ele>699.869</ele>
        <time>2020-05-21T15:01:32Z</time>
      </trkpt>
      <trkpt lat="43.193480" lon="-5.339520">
        <ele>700.204</ele>
        <time>2020-05-21T15:01:52Z</time>
      </trkpt>
      <trkpt lat="43.193500" lon="-5.339580">
        <ele>700.224</ele>
        <time>2020-05-21T15:02:12Z</time>
      </trkpt>
      <trkpt lat="43.193520" lon="-5.339650">
        <ele>700.308</ele>
        <time>2020-05-21T15:02:32Z</time>
      </trkpt>
      <trkpt lat="43.193520" lon="-5.339720">
        <ele>701.310</ele>
        <time>2020-05-21T15:02:52Z</time>
      </trkpt>
      <trkpt lat="43.193510" lon="-5.339760">
        <ele>701.255</ele>
        <time>2020-05-21T15:03:12Z</time>
      </trkpt>
      <trkpt lat="43.193510" lon="-5.339790">
        <ele>700.922</ele>
        <time>2020-05-21T15:03:32Z</time>
      </trkpt>
      <trkpt lat="43.193480" lon="-5.339850">
        <ele>701.148</ele>
        <time>2020-05-21T15:03:52Z</time>
      </trkpt>
      <trkpt lat="43.193430" lon="-5.339940">
        <ele>701.457</ele>
        <time>2020-05-21T15:04:12Z</time>
      </trkpt>
      <trkpt lat="43.193410" lon="-5.339960">
        <ele>701.764</ele>
        <time>2020-05-21T15:04:32Z</time>
      </trkpt>
      <trkpt lat="43.193190" lon="-5.340200">
        <ele>703.289</ele>
        <time>2020-05-21T15:04:52Z</time>
      </trkpt>
      <trkpt lat="43.193130" lon="-5.340270">
        <ele>703.343</ele>
        <time>2020-05-21T15:05:12Z</time>
      </trkpt>
      <trkpt lat="43.193030" lon="-5.340390">
        <ele>704.522</ele>
        <time>2020-05-21T15:05:32Z</time>
      </trkpt>
      <trkpt lat="43.193000" lon="-5.340430">
        <ele>705.262</ele>
        <time>2020-05-21T15:05:52Z</time>
      </trkpt>
      <trkpt lat="43.192990" lon="-5.340450">
        <ele>705.308</ele>
        <time>2020-05-21T15:06:12Z</time>
      </trkpt>
      <trkpt lat="43.192970" lon="-5.340490">
        <ele>705.408</ele>
        <time>2020-05-21T15:06:32Z</time>
      </trkpt>
      <trkpt lat="43.192970" lon="-5.340520">
        <ele>704.796</ele>
        <time>2020-05-21T15:06:52Z</time>
      </trkpt>
      <trkpt lat="43.192960" lon="-5.340550">
        <ele>704.681</ele>
        <time>2020-05-21T15:07:12Z</time>
      </trkpt>
      <trkpt lat="43.192960" lon="-5.340600">
        <ele>704.568</ele>
        <time>2020-05-21T15:07:32Z</time>
      </trkpt>
      <trkpt lat="43.192950" lon="-5.340670">
        <ele>705.044</ele>
        <time>2020-05-21T15:07:52Z</time>
      </trkpt>
      <trkpt lat="43.192950" lon="-5.340700">
        <ele>705.023</ele>
        <time>2020-05-21T15:08:12Z</time>
      </trkpt>
      <trkpt lat="43.192950" lon="-5.340860">
        <ele>704.720</ele>
        <time>2020-05-21T15:08:32Z</time>
      </trkpt>
      <trkpt lat="43.192950" lon="-5.340910">
        <ele>704.295</ele>
        <time>2020-05-21T15:08:52Z</time>
      </trkpt>
      <trkpt lat="43.192940" lon="-5.340950">
        <ele>704.549</ele>
        <time>2020-05-21T15:09:12Z</time>
      </trkpt>
      <trkpt lat="43.192940" lon="-5.341000">
        <ele>704.028</ele>
        <time>2020-05-21T15:09:32Z</time>
      </trkpt>
      <trkpt lat="43.192930" lon="-5.341050">
        <ele>704.289</ele>
        <time>2020-05-21T15:09:52Z</time>
      </trkpt>
      <trkpt lat="43.192920" lon="-5.341100">
        <ele>704.417</ele>
        <time>2020-05-21T15:10:12Z</time>
      </trkpt>
      <trkpt lat="43.192920" lon="-5.341160">
        <ele>704.708</ele>
        <time>2020-05-21T15:10:32Z</time>
      </trkpt>
      <trkpt lat="43.192920" lon="-5.341200">
        <ele>705.176</ele>
        <time>2020-05-21T15:10:52Z</time>
      </trkpt>
      <trkpt lat="43.192930" lon="-5.341310">
        <ele>705.561</ele>
        <time>2020-05-21T15:11:12Z</time>
      </trkpt>
      <trkpt lat="43.192940" lon="-5.341370">
        <ele>705.598</ele>
        <time>2020-05-21T15:11:32Z</time>
      </trkpt>
      <trkpt lat="43.192950" lon="-5.341400">
        <ele>705.374</ele>
        <time>2020-05-21T15:11:52Z</time>
      </trkpt>
      <trkpt lat="43.192970" lon="-5.341470">
        <ele>705.583</ele>
        <time>2020-05-21T15:12:12Z</time>
      </trkpt>
      <trkpt lat="43.193020" lon="-5.341620">
        <ele>706.340</ele>
        <time>2020-05-21T15:12:32Z</time>
      </trkpt>
      <trkpt lat="43.193070" lon="-5.341750">
        <ele>706.825</ele>
        <time>2020-05-21T15:12:52Z</time>
      </trkpt>
      <trkpt lat="43.193120" lon="-5.341870">
        <ele>706.559</ele>
        <time>2020-05-21T15:13:12Z</time>
      </trkpt>
      <trkpt lat="43.193170" lon="-5.342050">
        <ele>705.466</ele>
        <time>2020-05-21T15:13:32Z</time>
      </trkpt>
      <trkpt lat="43.193170" lon="-5.342070">
        <ele>705.329</ele>
        <time>2020-05-21T15:13:52Z</time>
      </trkpt>
      <trkpt lat="43.193170" lon="-5.342100">
        <ele>705.221</ele>
        <time>2020-05-21T15:14:12Z</time>
      </trkpt>
      <trkpt lat="43.193170" lon="-5.342130">
        <ele>705.208</ele>
        <time>2020-05-21T15:14:32Z</time>
      </trkpt>
      <trkpt lat="43.193170" lon="-5.342160">
        <ele>705.180</ele>
        <time>2020-05-21T15:14:52Z</time>
      </trkpt>
      <trkpt lat="43.193160" lon="-5.342190">
        <ele>705.295</ele>
        <time>2020-05-21T15:15:12Z</time>
      </trkpt>
      <trkpt lat="43.193140" lon="-5.342230">
        <ele>705.252</ele>
        <time>2020-05-21T15:15:32Z</time>
      </trkpt>
      <trkpt lat="43.193120" lon="-5.342240">
        <ele>705.278</ele>
        <time>2020-05-21T15:15:52Z</time>
      </trkpt>
      <trkpt lat="43.193100" lon="-5.342260">
        <ele>704.947</ele>
        <time>2020-05-21T15:16:12Z</time>
      </trkpt>
      <trkpt lat="43.193090" lon="-5.342270">
        <ele>704.724</ele>
        <time>2020-05-21T15:16:32Z</time>
      </trkpt>
      <trkpt lat="43.193070" lon="-5.342280">
        <ele>704.779</ele>
        <time>2020-05-21T15:16:52Z</time>
      </trkpt>
      <trkpt lat="43.193020" lon="-5.342280">
        <ele>705.133</ele>
        <time>2020-05-21T15:17:12Z</time>
      </trkpt>
      <trkpt lat="43.193000" lon="-5.342280">
        <ele>705.276</ele>
        <time>2020-05-21T15:17:32Z</time>
      </trkpt>
      <trkpt lat="43.192960" lon="-5.342280">
        <ele>705.590</ele>
        <time>2020-05-21T15:17:52Z</time>
      </trkpt>
      <trkpt lat="43.192910" lon="-5.342290">
        <ele>705.519</ele>
        <time>2020-05-21T15:18:12Z</time>
      </trkpt>
      <trkpt lat="43.192840" lon="-5.342290">
        <ele>705.908</ele>
        <time>2020-05-21T15:18:32Z</time>
      </trkpt>
      <trkpt lat="43.192780" lon="-5.342310">
        <ele>705.841</ele>
        <time>2020-05-21T15:18:52Z</time>
      </trkpt>
      <trkpt lat="43.192740" lon="-5.342340">
        <ele>706.166</ele>
        <time>2020-05-21T15:19:12Z</time>
      </trkpt>
      <trkpt lat="43.192730" lon="-5.342340">
        <ele>706.363</ele>
        <time>2020-05-21T15:19:32Z</time>
      </trkpt>
      <trkpt lat="43.192650" lon="-5.342410">
        <ele>706.669</ele>
        <time>2020-05-21T15:19:52Z</time>
      </trkpt>
      <trkpt lat="43.192590" lon="-5.342470">
        <ele>706.618</ele>
        <time>2020-05-21T15:20:12Z</time>
      </trkpt>
      <trkpt lat="43.192550" lon="-5.342500">
        <ele>706.715</ele>
        <time>2020-05-21T15:20:32Z</time>
      </trkpt>
      <trkpt lat="43.192480" lon="-5.342550">
        <ele>706.640</ele>
        <time>2020-05-21T15:20:52Z</time>
      </trkpt>
      <trkpt lat="43.192420" lon="-5.342570">
        <ele>706.724</ele>
        <time>2020-05-21T15:21:12Z</time>
      </trkpt>
      <trkpt lat="43.192300" lon="-5.342610">
        <ele>706.946</ele>
        <time>2020-05-21T15:21:32Z</time>
      </trkpt>
      <trkpt lat="43.192250" lon="-5.342610">
        <ele>707.588</ele>
        <time>2020-05-21T15:21:52Z</time>
      </trkpt>
      <trkpt lat="43.192210" lon="-5.342620">
        <ele>707.816</ele>
        <time>2020-05-21T15:22:12Z</time>
      </trkpt>
      <trkpt lat="43.192170" lon="-5.342640">
        <ele>708.108</ele>
        <time>2020-05-21T15:22:32Z</time>
      </trkpt>
      <trkpt lat="43.192130" lon="-5.342670">
        <ele>708.218</ele>
        <time>2020-05-21T15:22:52Z</time>
      </trkpt>
      <trkpt lat="43.192090" lon="-5.342710">
        <ele>708.333</ele>
        <time>2020-05-21T15:23:12Z</time>
      </trkpt>
      <trkpt lat="43.192060" lon="-5.342760">
        <ele>708.070</ele>
        <time>2020-05-21T15:23:32Z</time>
      </trkpt>
      <trkpt lat="43.192000" lon="-5.342850">
        <ele>708.566</ele>
        <time>2020-05-21T15:23:52Z</time>
      </trkpt>
      <trkpt lat="43.191980" lon="-5.342910">
        <ele>708.415</ele>
        <time>2020-05-21T15:24:12Z</time>
      </trkpt>
      <trkpt lat="43.191950" lon="-5.342970">
        <ele>708.752</ele>
        <time>2020-05-21T15:24:32Z</time>
      </trkpt>
      <trkpt lat="43.191910" lon="-5.343140">
        <ele>709.297</ele>
        <time>2020-05-21T15:24:52Z</time>
      </trkpt>
      <trkpt lat="43.191910" lon="-5.343150">
        <ele>709.121</ele>
        <time>2020-05-21T15:25:12Z</time>
      </trkpt>
      <trkpt lat="43.191890" lon="-5.343230">
        <ele>709.451</ele>
        <time>2020-05-21T15:25:32Z</time>
      </trkpt>
      <trkpt lat="43.191880" lon="-5.343330">
        <ele>709.001</ele>
        <time>2020-05-21T15:25:52Z</time>
      </trkpt>
      <trkpt lat="43.191880" lon="-5.343380">
        <ele>708.711</ele>
        <time>2020-05-21T15:26:12Z</time>
      </trkpt>
      <trkpt lat="43.191880" lon="-5.343420">
        <ele>708.508</ele>
        <time>2020-05-21T15:26:32Z</time>
      </trkpt>
      <trkpt lat="43.191890" lon="-5.343630">
        <ele>706.919</ele>
        <time>2020-05-21T15:26:52Z</time>
      </trkpt>
      <trkpt lat="43.191890" lon="-5.343670">
        <ele>706.894</ele>
        <time>2020-05-21T15:27:12Z</time>
      </trkpt>
      <trkpt lat="43.191890" lon="-5.343780">
        <ele>706.641</ele>
        <time>2020-05-21T15:27:32Z</time>
      </trkpt>
      <trkpt lat="43.191900" lon="-5.343850">
        <ele>706.057</ele>
        <time>2020-05-21T15:27:52Z</time>
      </trkpt>
      <trkpt lat="43.191890" lon="-5.343870">
        <ele>706.496</ele>
        <time>2020-05-21T15:28:12Z</time>
      </trkpt>
      <trkpt lat="43.191890" lon="-5.343900">
        <ele>706.343</ele>
        <time>2020-05-21T15:28:32Z</time>
      </trkpt>
      <trkpt lat="43.191880" lon="-5.343960">
        <ele>706.498</ele>
        <time>2020-05-21T15:28:52Z</time>
      </trkpt>
      <trkpt lat="43.191830" lon="-5.344100">
        <ele>707.242</ele>
        <time>2020-05-21T15:29:12Z</time>
      </trkpt>
      <trkpt lat="43.191820" lon="-5.344130">
        <ele>707.384</ele>
        <time>2020-05-21T15:29:32Z</time>
      </trkpt>
      <trkpt lat="43.191770" lon="-5.344280">
        <ele>707.007</ele>
        <time>2020-05-21T15:29:52Z</time>
      </trkpt>
      <trkpt lat="43.191760" lon="-5.344330">
        <ele>706.617</ele>
        <time>2020-05-21T15:30:12Z</time>
      </trkpt>
      <trkpt lat="43.191730" lon="-5.344430">
        <ele>706.208</ele>
        <time>2020-05-21T15:30:32Z</time>
      </trkpt>
      <trkpt lat="43.191680" lon="-5.344520">
        <ele>707.092</ele>
        <time>2020-05-21T15:30:52Z</time>
      </trkpt>
      <trkpt lat="43.191670" lon="-5.344540">
        <ele>707.287</ele>
        <time>2020-05-21T15:31:12Z</time>
      </trkpt>
      <trkpt lat="43.191650" lon="-5.344590">
        <ele>707.184</ele>
        <time>2020-05-21T15:31:32Z</time>
      </trkpt>
      <trkpt lat="43.191600" lon="-5.344650">
        <ele>707.170</ele>
        <time>2020-05-21T15:31:52Z</time>
      </trkpt>
      <trkpt lat="43.191560" lon="-5.344680">
        <ele>707.249</ele>
        <time>2020-05-21T15:32:12Z</time>
      </trkpt>
      <trkpt lat="43.191530" lon="-5.344690">
        <ele>707.366</ele>
        <time>2020-05-21T15:32:32Z</time>
      </trkpt>
      <trkpt lat="43.191510" lon="-5.344700">
        <ele>707.461</ele>
        <time>2020-05-21T15:32:52Z</time>
      </trkpt>
      <trkpt lat="43.191360" lon="-5.344730">
        <ele>708.025</ele>
        <time>2020-05-21T15:33:12Z</time>
      </trkpt>
      <trkpt lat="43.191280" lon="-5.344740">
        <ele>707.712</ele>
        <time>2020-05-21T15:33:32Z</time>
      </trkpt>
      <trkpt lat="43.191080" lon="-5.344750">
        <ele>706.932</ele>
        <time>2020-05-21T15:33:52Z</time>
      </trkpt>
      <trkpt lat="43.191030" lon="-5.344750">
        <ele>706.405</ele>
        <time>2020-05-21T15:34:12Z</time>
      </trkpt>
      <trkpt lat="43.190980" lon="-5.344750">
        <ele>705.808</ele>
        <time>2020-05-21T15:34:32Z</time>
      </trkpt>
      <trkpt lat="43.190880" lon="-5.344760">
        <ele>704.945</ele>
        <time>2020-05-21T15:34:52Z</time>
      </trkpt>
      <trkpt lat="43.190860" lon="-5.344770">
        <ele>704.820</ele>
        <time>2020-05-21T15:35:12Z</time>
      </trkpt>
      <trkpt lat="43.190790" lon="-5.344780">
        <ele>703.967</ele>
        <time>2020-05-21T15:35:32Z</time>
      </trkpt>
      <trkpt lat="43.190670" lon="-5.344810">
        <ele>702.293</ele>
        <time>2020-05-21T15:35:52Z</time>
      </trkpt>
      <trkpt lat="43.190590" lon="-5.344850">
        <ele>701.132</ele>
        <time>2020-05-21T15:36:12Z</time>
      </trkpt>
      <trkpt lat="43.190480" lon="-5.344940">
        <ele>698.599</ele>
        <time>2020-05-21T15:36:32Z</time>
      </trkpt>
      <trkpt lat="43.190380" lon="-5.345070">
        <ele>696.594</ele>
        <time>2020-05-21T15:36:52Z</time>
      </trkpt>
      <trkpt lat="43.190310" lon="-5.345140">
        <ele>695.378</ele>
        <time>2020-05-21T15:37:12Z</time>
      </trkpt>
      <trkpt lat="43.190250" lon="-5.345240">
        <ele>694.747</ele>
        <time>2020-05-21T15:37:32Z</time>
      </trkpt>
      <trkpt lat="43.190180" lon="-5.345330">
        <ele>693.129</ele>
        <time>2020-05-21T15:37:52Z</time>
      </trkpt>
      <trkpt lat="43.190120" lon="-5.345420">
        <ele>691.621</ele>
        <time>2020-05-21T15:38:12Z</time>
      </trkpt>
      <trkpt lat="43.190100" lon="-5.345460">
        <ele>691.108</ele>
        <time>2020-05-21T15:38:32Z</time>
      </trkpt>
      <trkpt lat="43.190100" lon="-5.345500">
        <ele>691.398</ele>
        <time>2020-05-21T15:38:52Z</time>
      </trkpt>
      <trkpt lat="43.190090" lon="-5.345530">
        <ele>691.173</ele>
        <time>2020-05-21T15:39:12Z</time>
      </trkpt>
      <trkpt lat="43.190080" lon="-5.345570">
        <ele>690.810</ele>
        <time>2020-05-21T15:39:32Z</time>
      </trkpt>
      <trkpt lat="43.190080" lon="-5.345590">
        <ele>690.876</ele>
        <time>2020-05-21T15:39:52Z</time>
      </trkpt>
      <trkpt lat="43.190080" lon="-5.345650">
        <ele>690.555</ele>
        <time>2020-05-21T15:40:12Z</time>
      </trkpt>
      <trkpt lat="43.190090" lon="-5.345690">
        <ele>690.822</ele>
        <time>2020-05-21T15:40:32Z</time>
      </trkpt>
      <trkpt lat="43.190090" lon="-5.345760">
        <ele>690.577</ele>
        <time>2020-05-21T15:40:52Z</time>
      </trkpt>
      <trkpt lat="43.190120" lon="-5.345890">
        <ele>690.851</ele>
        <time>2020-05-21T15:41:12Z</time>
      </trkpt>
      <trkpt lat="43.190140" lon="-5.345990">
        <ele>690.615</ele>
        <time>2020-05-21T15:41:32Z</time>
      </trkpt>
      <trkpt lat="43.190160" lon="-5.346130">
        <ele>690.365</ele>
        <time>2020-05-21T15:41:52Z</time>
      </trkpt>
      <trkpt lat="43.190190" lon="-5.346260">
        <ele>691.211</ele>
        <time>2020-05-21T15:42:12Z</time>
      </trkpt>
      <trkpt lat="43.190190" lon="-5.346330">
        <ele>691.008</ele>
        <time>2020-05-21T15:42:32Z</time>
      </trkpt>
      <trkpt lat="43.190190" lon="-5.346360">
        <ele>690.965</ele>
        <time>2020-05-21T15:42:52Z</time>
      </trkpt>
      <trkpt lat="43.190190" lon="-5.346370">
        <ele>690.950</ele>
        <time>2020-05-21T15:43:12Z</time>
      </trkpt>
      <trkpt lat="43.190190" lon="-5.346390">
        <ele>690.997</ele>
        <time>2020-05-21T15:43:32Z</time>
      </trkpt>
      <trkpt lat="43.190190" lon="-5.346410">
        <ele>691.083</ele>
        <time>2020-05-21T15:43:52Z</time>
      </trkpt>
      <trkpt lat="43.190190" lon="-5.346420">
        <ele>691.182</ele>
        <time>2020-05-21T15:44:12Z</time>
      </trkpt>
      <trkpt lat="43.190190" lon="-5.346450">
        <ele>691.479</ele>
        <time>2020-05-21T15:44:32Z</time>
      </trkpt>
      <trkpt lat="43.190170" lon="-5.346480">
        <ele>691.184</ele>
        <time>2020-05-21T15:44:52Z</time>
      </trkpt>
      <trkpt lat="43.190160" lon="-5.346500">
        <ele>691.018</ele>
        <time>2020-05-21T15:45:12Z</time>
      </trkpt>
      <trkpt lat="43.190140" lon="-5.346530">
        <ele>690.857</ele>
        <time>2020-05-21T15:45:32Z</time>
      </trkpt>
      <trkpt lat="43.190110" lon="-5.346550">
        <ele>690.300</ele>
        <time>2020-05-21T15:45:52Z</time>
      </trkpt>
      <trkpt lat="43.190090" lon="-5.346550">
        <ele>689.820</ele>
        <time>2020-05-21T15:46:12Z</time>
      </trkpt>
      <trkpt lat="43.190050" lon="-5.346570">
        <ele>689.108</ele>
        <time>2020-05-21T15:46:32Z</time>
      </trkpt>
      <trkpt lat="43.189910" lon="-5.346580">
        <ele>687.089</ele>
        <time>2020-05-21T15:46:52Z</time>
      </trkpt>
      <trkpt lat="43.189850" lon="-5.346590">
        <ele>686.494</ele>
        <time>2020-05-21T15:47:12Z</time>
      </trkpt>
      <trkpt lat="43.189740" lon="-5.346590">
        <ele>685.081</ele>
        <time>2020-05-21T15:47:32Z</time>
      </trkpt>
      <trkpt lat="43.189540" lon="-5.346590">
        <ele>683.577</ele>
        <time>2020-05-21T15:47:52Z</time>
      </trkpt>
      <trkpt lat="43.189500" lon="-5.346590">
        <ele>683.286</ele>
        <time>2020-05-21T15:48:12Z</time>
      </trkpt>
      <trkpt lat="43.189460" lon="-5.346570">
        <ele>682.363</ele>
        <time>2020-05-21T15:48:32Z</time>
      </trkpt>
      <trkpt lat="43.189430" lon="-5.346560">
        <ele>682.328</ele>
        <time>2020-05-21T15:48:52Z</time>
      </trkpt>
      <trkpt lat="43.189410" lon="-5.346540">
        <ele>682.272</ele>
        <time>2020-05-21T15:49:12Z</time>
      </trkpt>
      <trkpt lat="43.189390" lon="-5.346520">
        <ele>682.043</ele>
        <time>2020-05-21T15:49:32Z</time>
      </trkpt>
      <trkpt lat="43.189330" lon="-5.346480">
        <ele>682.164</ele>
        <time>2020-05-21T15:49:52Z</time>
      </trkpt>
      <trkpt lat="43.189300" lon="-5.346450">
        <ele>681.710</ele>
        <time>2020-05-21T15:50:12Z</time>
      </trkpt>
      <trkpt lat="43.189260" lon="-5.346390">
        <ele>680.408</ele>
        <time>2020-05-21T15:50:32Z</time>
      </trkpt>
      <trkpt lat="43.189240" lon="-5.346370">
        <ele>680.138</ele>
        <time>2020-05-21T15:50:52Z</time>
      </trkpt>
      <trkpt lat="43.189170" lon="-5.346270">
        <ele>678.543</ele>
        <time>2020-05-21T15:51:12Z</time>
      </trkpt>
      <trkpt lat="43.189120" lon="-5.346190">
        <ele>677.940</ele>
        <time>2020-05-21T15:51:32Z</time>
      </trkpt>
      <trkpt lat="43.189020" lon="-5.346060">
        <ele>677.226</ele>
        <time>2020-05-21T15:51:52Z</time>
      </trkpt>
      <trkpt lat="43.188990" lon="-5.346020">
        <ele>676.985</ele>
        <time>2020-05-21T15:52:12Z</time>
      </trkpt>
      <trkpt lat="43.188860" lon="-5.345850">
        <ele>675.512</ele>
        <time>2020-05-21T15:52:32Z</time>
      </trkpt>
      <trkpt lat="43.188850" lon="-5.345840">
        <ele>675.527</ele>
        <time>2020-05-21T15:52:52Z</time>
      </trkpt>
      <trkpt lat="43.188750" lon="-5.345710">
        <ele>674.111</ele>
        <time>2020-05-21T15:53:12Z</time>
      </trkpt>
      <trkpt lat="43.188650" lon="-5.345580">
        <ele>672.662</ele>
        <time>2020-05-21T15:53:32Z</time>
      </trkpt>
      <trkpt lat="43.188590" lon="-5.345520">
        <ele>672.283</ele>
        <time>2020-05-21T15:53:52Z</time>
      </trkpt>
      <trkpt lat="43.188560" lon="-5.345490">
        <ele>671.711</ele>
        <time>2020-05-21T15:54:12Z</time>
      </trkpt>
      <trkpt lat="43.188520" lon="-5.345460">
        <ele>671.408</ele>
        <time>2020-05-21T15:54:32Z</time>
      </trkpt>
      <trkpt lat="43.188450" lon="-5.345420">
        <ele>671.320</ele>
        <time>2020-05-21T15:54:52Z</time>
      </trkpt>
      <trkpt lat="43.188370" lon="-5.345370">
        <ele>670.945</ele>
        <time>2020-05-21T15:55:12Z</time>
      </trkpt>
      <trkpt lat="43.188140" lon="-5.345280">
        <ele>670.282</ele>
        <time>2020-05-21T15:55:32Z</time>
      </trkpt>
      <trkpt lat="43.188000" lon="-5.345230">
        <ele>669.068</ele>
        <time>2020-05-21T15:55:52Z</time>
      </trkpt>
      <trkpt lat="43.187970" lon="-5.345220">
        <ele>668.767</ele>
        <time>2020-05-21T15:56:12Z</time>
      </trkpt>
      <trkpt lat="43.187760" lon="-5.345140">
        <ele>666.564</ele>
        <time>2020-05-21T15:56:32Z</time>
      </trkpt>
      <trkpt lat="43.187540" lon="-5.345070">
        <ele>664.049</ele>
        <time>2020-05-21T15:56:52Z</time>
      </trkpt>
      <trkpt lat="43.187450" lon="-5.345050">
        <ele>662.923</ele>
        <time>2020-05-21T15:57:12Z</time>
      </trkpt>
      <trkpt lat="43.187440" lon="-5.345050">
        <ele>662.894</ele>
        <time>2020-05-21T15:57:32Z</time>
      </trkpt>
      <trkpt lat="43.187400" lon="-5.345040">
        <ele>662.157</ele>
        <time>2020-05-21T15:57:52Z</time>
      </trkpt>
      <trkpt lat="43.187350" lon="-5.345040">
        <ele>661.622</ele>
        <time>2020-05-21T15:58:12Z</time>
      </trkpt>
      <trkpt lat="43.187280" lon="-5.345040">
        <ele>660.908</ele>
        <time>2020-05-21T15:58:32Z</time>
      </trkpt>
      <trkpt lat="43.187270" lon="-5.345050">
        <ele>661.173</ele>
        <time>2020-05-21T15:58:52Z</time>
      </trkpt>
      <trkpt lat="43.187220" lon="-5.345060">
        <ele>660.988</ele>
        <time>2020-05-21T15:59:12Z</time>
      </trkpt>
      <trkpt lat="43.187090" lon="-5.345110">
        <ele>660.355</ele>
        <time>2020-05-21T15:59:32Z</time>
      </trkpt>
      <trkpt lat="43.186990" lon="-5.345150">
        <ele>659.691</ele>
        <time>2020-05-21T15:59:52Z</time>
      </trkpt>
      <trkpt lat="43.186810" lon="-5.345230">
        <ele>659.290</ele>
        <time>2020-05-21T16:00:12Z</time>
      </trkpt>
      <trkpt lat="43.186750" lon="-5.345240">
        <ele>658.817</ele>
        <time>2020-05-21T16:00:32Z</time>
      </trkpt>
      <trkpt lat="43.186740" lon="-5.345240">
        <ele>658.652</ele>
        <time>2020-05-21T16:00:52Z</time>
      </trkpt>
      <trkpt lat="43.186710" lon="-5.345240">
        <ele>658.376</ele>
        <time>2020-05-21T16:01:12Z</time>
      </trkpt>
      <trkpt lat="43.186690" lon="-5.345230">
        <ele>657.784</ele>
        <time>2020-05-21T16:01:32Z</time>
      </trkpt>
      <trkpt lat="43.186660" lon="-5.345220">
        <ele>657.207</ele>
        <time>2020-05-21T16:01:52Z</time>
      </trkpt>
      <trkpt lat="43.186630" lon="-5.345210">
        <ele>657.117</ele>
        <time>2020-05-21T16:02:12Z</time>
      </trkpt>
      <trkpt lat="43.186590" lon="-5.345190">
        <ele>656.808</ele>
        <time>2020-05-21T16:02:32Z</time>
      </trkpt>
      <trkpt lat="43.186570" lon="-5.345180">
        <ele>656.642</ele>
        <time>2020-05-21T16:02:52Z</time>
      </trkpt>
      <trkpt lat="43.186450" lon="-5.345100">
        <ele>655.377</ele>
        <time>2020-05-21T16:03:12Z</time>
      </trkpt>
      <trkpt lat="43.186410" lon="-5.345070">
        <ele>654.884</ele>
        <time>2020-05-21T16:03:32Z</time>
      </trkpt>
      <trkpt lat="43.186330" lon="-5.345020">
        <ele>653.540</ele>
        <time>2020-05-21T16:03:52Z</time>
      </trkpt>
      <trkpt lat="43.186280" lon="-5.345000">
        <ele>653.039</ele>
        <time>2020-05-21T16:04:12Z</time>
      </trkpt>
      <trkpt lat="43.186210" lon="-5.344970">
        <ele>652.026</ele>
        <time>2020-05-21T16:04:32Z</time>
      </trkpt>
      <trkpt lat="43.186140" lon="-5.344940">
        <ele>651.021</ele>
        <time>2020-05-21T16:04:52Z</time>
      </trkpt>
      <trkpt lat="43.186070" lon="-5.344930">
        <ele>650.295</ele>
        <time>2020-05-21T16:05:12Z</time>
      </trkpt>
      <trkpt lat="43.186020" lon="-5.344930">
        <ele>649.666</ele>
        <time>2020-05-21T16:05:32Z</time>
      </trkpt>
      <trkpt lat="43.185890" lon="-5.344940">
        <ele>648.229</ele>
        <time>2020-05-21T16:05:52Z</time>
      </trkpt>
      <trkpt lat="43.185840" lon="-5.344940">
        <ele>647.621</ele>
        <time>2020-05-21T16:06:12Z</time>
      </trkpt>
      <trkpt lat="43.185710" lon="-5.344950">
        <ele>646.508</ele>
        <time>2020-05-21T16:06:32Z</time>
      </trkpt>
      <trkpt lat="43.185550" lon="-5.344970">
        <ele>645.310</ele>
        <time>2020-05-21T16:06:52Z</time>
      </trkpt>
      <trkpt lat="43.185530" lon="-5.344970">
        <ele>645.235</ele>
        <time>2020-05-21T16:07:12Z</time>
      </trkpt>
      <trkpt lat="43.185370" lon="-5.344990">
        <ele>644.452</ele>
        <time>2020-05-21T16:07:32Z</time>
      </trkpt>
      <trkpt lat="43.185310" lon="-5.345010">
        <ele>644.378</ele>
        <time>2020-05-21T16:07:52Z</time>
      </trkpt>
      <trkpt lat="43.185250" lon="-5.345050">
        <ele>643.917</ele>
        <time>2020-05-21T16:08:12Z</time>
      </trkpt>
      <trkpt lat="43.185200" lon="-5.345090">
        <ele>643.214</ele>
        <time>2020-05-21T16:08:32Z</time>
      </trkpt>
      <trkpt lat="43.185190" lon="-5.345110">
        <ele>643.249</ele>
        <time>2020-05-21T16:08:52Z</time>
      </trkpt>
      <trkpt lat="43.185150" lon="-5.345160">
        <ele>642.913</ele>
        <time>2020-05-21T16:09:12Z</time>
      </trkpt>
      <trkpt lat="43.185060" lon="-5.345280">
        <ele>642.114</ele>
        <time>2020-05-21T16:09:32Z</time>
      </trkpt>
      <trkpt lat="43.185030" lon="-5.345330">
        <ele>641.254</ele>
        <time>2020-05-21T16:09:52Z</time>
      </trkpt>
      <trkpt lat="43.184980" lon="-5.345430">
        <ele>639.209</ele>
        <time>2020-05-21T16:10:12Z</time>
      </trkpt>
      <trkpt lat="43.184970" lon="-5.345480">
        <ele>638.508</ele>
        <time>2020-05-21T16:10:32Z</time>
      </trkpt>
      <trkpt lat="43.184970" lon="-5.345500">
        <ele>638.465</ele>
        <time>2020-05-21T16:10:52Z</time>
      </trkpt>
      <trkpt lat="43.184960" lon="-5.345520">
        <ele>637.940</ele>
        <time>2020-05-21T16:11:12Z</time>
      </trkpt>
      <trkpt lat="43.184960" lon="-5.345560">
        <ele>637.547</ele>
        <time>2020-05-21T16:11:32Z</time>
      </trkpt>
      <trkpt lat="43.184970" lon="-5.345590">
        <ele>637.453</ele>
        <time>2020-05-21T16:11:52Z</time>
      </trkpt>
      <trkpt lat="43.184970" lon="-5.345620">
        <ele>637.022</ele>
        <time>2020-05-21T16:12:12Z</time>
      </trkpt>
      <trkpt lat="43.185000" lon="-5.345720">
        <ele>636.689</ele>
        <time>2020-05-21T16:12:32Z</time>
      </trkpt>
      <trkpt lat="43.185010" lon="-5.345770">
        <ele>636.234</ele>
        <time>2020-05-21T16:12:52Z</time>
      </trkpt>
      <trkpt lat="43.185060" lon="-5.345950">
        <ele>635.648</ele>
        <time>2020-05-21T16:13:12Z</time>
      </trkpt>
      <trkpt lat="43.185150" lon="-5.346280">
        <ele>634.549</ele>
        <time>2020-05-21T16:13:32Z</time>
      </trkpt>
      <trkpt lat="43.185170" lon="-5.346420">
        <ele>633.202</ele>
        <time>2020-05-21T16:13:52Z</time>
      </trkpt>
      <trkpt lat="43.185210" lon="-5.346610">
        <ele>631.522</ele>
        <time>2020-05-21T16:14:12Z</time>
      </trkpt>
      <trkpt lat="43.185280" lon="-5.346840">
        <ele>630.608</ele>
        <time>2020-05-21T16:14:32Z</time>
      </trkpt>
      <trkpt lat="43.185350" lon="-5.347070">
        <ele>628.918</ele>
        <time>2020-05-21T16:14:52Z</time>
      </trkpt>
      <trkpt lat="43.185440" lon="-5.347340">
        <ele>625.723</ele>
        <time>2020-05-21T16:15:12Z</time>
      </trkpt>
      <trkpt lat="43.185470" lon="-5.347440">
        <ele>624.930</ele>
        <time>2020-05-21T16:15:32Z</time>
      </trkpt>
      <trkpt lat="43.185520" lon="-5.347560">
        <ele>625.566</ele>
        <time>2020-05-21T16:15:52Z</time>
      </trkpt>
      <trkpt lat="43.185600" lon="-5.347780">
        <ele>625.355</ele>
        <time>2020-05-21T16:16:12Z</time>
      </trkpt>
      <trkpt lat="43.185630" lon="-5.347850">
        <ele>625.492</ele>
        <time>2020-05-21T16:16:32Z</time>
      </trkpt>
      <trkpt lat="43.185660" lon="-5.347920">
        <ele>625.487</ele>
        <time>2020-05-21T16:16:52Z</time>
      </trkpt>
      <trkpt lat="43.185690" lon="-5.348020">
        <ele>624.971</ele>
        <time>2020-05-21T16:17:12Z</time>
      </trkpt>
      <trkpt lat="43.185700" lon="-5.348050">
        <ele>624.733</ele>
        <time>2020-05-21T16:17:32Z</time>
      </trkpt>
      <trkpt lat="43.185700" lon="-5.348090">
        <ele>624.323</ele>
        <time>2020-05-21T16:17:52Z</time>
      </trkpt>
      <trkpt lat="43.185710" lon="-5.348140">
        <ele>624.015</ele>
        <time>2020-05-21T16:18:12Z</time>
      </trkpt>
      <trkpt lat="43.185710" lon="-5.348190">
        <ele>623.508</ele>
        <time>2020-05-21T16:18:32Z</time>
      </trkpt>
      <trkpt lat="43.185710" lon="-5.348220">
        <ele>623.357</ele>
        <time>2020-05-21T16:18:52Z</time>
      </trkpt>
      <trkpt lat="43.185710" lon="-5.348230">
        <ele>623.232</ele>
        <time>2020-05-21T16:19:12Z</time>
      </trkpt>
      <trkpt lat="43.185710" lon="-5.348240">
        <ele>623.199</ele>
        <time>2020-05-21T16:19:32Z</time>
      </trkpt>
      <trkpt lat="43.185710" lon="-5.348270">
        <ele>622.895</ele>
        <time>2020-05-21T16:19:52Z</time>
      </trkpt>
      <trkpt lat="43.185690" lon="-5.348300">
        <ele>622.274</ele>
        <time>2020-05-21T16:20:12Z</time>
      </trkpt>
      <trkpt lat="43.185680" lon="-5.348340">
        <ele>621.911</ele>
        <time>2020-05-21T16:20:32Z</time>
      </trkpt>
      <trkpt lat="43.185650" lon="-5.348370">
        <ele>622.166</ele>
        <time>2020-05-21T16:20:52Z</time>
      </trkpt>
      <trkpt lat="43.185610" lon="-5.348410">
        <ele>622.360</ele>
        <time>2020-05-21T16:21:12Z</time>
      </trkpt>
      <trkpt lat="43.185540" lon="-5.348440">
        <ele>622.232</ele>
        <time>2020-05-21T16:21:32Z</time>
      </trkpt>
      <trkpt lat="43.185510" lon="-5.348440">
        <ele>622.192</ele>
        <time>2020-05-21T16:21:52Z</time>
      </trkpt>
      <trkpt lat="43.185480" lon="-5.348440">
        <ele>621.911</ele>
        <time>2020-05-21T16:22:12Z</time>
      </trkpt>
      <trkpt lat="43.185440" lon="-5.348420">
        <ele>621.308</ele>
        <time>2020-05-21T16:22:32Z</time>
      </trkpt>
      <trkpt lat="43.185400" lon="-5.348390">
        <ele>620.517</ele>
        <time>2020-05-21T16:22:52Z</time>
      </trkpt>
      <trkpt lat="43.185320" lon="-5.348330">
        <ele>619.122</ele>
        <time>2020-05-21T16:23:12Z</time>
      </trkpt>
      <trkpt lat="43.185220" lon="-5.348240">
        <ele>618.819</ele>
        <time>2020-05-21T16:23:32Z</time>
      </trkpt>
      <trkpt lat="43.185200" lon="-5.348230">
        <ele>619.065</ele>
        <time>2020-05-21T16:23:52Z</time>
      </trkpt>
      <trkpt lat="43.185070" lon="-5.348100">
        <ele>617.224</ele>
        <time>2020-05-21T16:24:12Z</time>
      </trkpt>
      <trkpt lat="43.184990" lon="-5.348030">
        <ele>615.631</ele>
        <time>2020-05-21T16:24:32Z</time>
      </trkpt>
      <trkpt lat="43.184920" lon="-5.347970">
        <ele>615.396</ele>
        <time>2020-05-21T16:24:52Z</time>
      </trkpt>
      <trkpt lat="43.184830" lon="-5.347890">
        <ele>613.960</ele>
        <time>2020-05-21T16:25:12Z</time>
      </trkpt>
      <trkpt lat="43.184760" lon="-5.347830">
        <ele>612.236</ele>
        <time>2020-05-21T16:25:32Z</time>
      </trkpt>
      <trkpt lat="43.184670" lon="-5.347750">
        <ele>610.817</ele>
        <time>2020-05-21T16:25:52Z</time>
      </trkpt>
      <trkpt lat="43.184620" lon="-5.347690">
        <ele>610.318</ele>
        <time>2020-05-21T16:26:12Z</time>
      </trkpt>
      <trkpt lat="43.184560" lon="-5.347640">
        <ele>610.108</ele>
        <time>2020-05-21T16:26:32Z</time>
      </trkpt>
      <trkpt lat="43.184470" lon="-5.347540">
        <ele>608.277</ele>
        <time>2020-05-21T16:26:52Z</time>
      </trkpt>
      <trkpt lat="43.184430" lon="-5.347490">
        <ele>607.482</ele>
        <time>2020-05-21T16:27:12Z</time>
      </trkpt>
      <trkpt lat="43.184340" lon="-5.347390">
        <ele>608.249</ele>
        <time>2020-05-21T16:27:32Z</time>
      </trkpt>
      <trkpt lat="43.184300" lon="-5.347350">
        <ele>608.375</ele>
        <time>2020-05-21T16:27:52Z</time>
      </trkpt>
      <trkpt lat="43.184200" lon="-5.347220">
        <ele>606.114</ele>
        <time>2020-05-21T16:28:12Z</time>
      </trkpt>
      <trkpt lat="43.184170" lon="-5.347180">
        <ele>605.371</ele>
        <time>2020-05-21T16:28:32Z</time>
      </trkpt>
      <trkpt lat="43.184060" lon="-5.347060">
        <ele>605.326</ele>
        <time>2020-05-21T16:28:52Z</time>
      </trkpt>
      <trkpt lat="43.183980" lon="-5.346970">
        <ele>605.190</ele>
        <time>2020-05-21T16:29:12Z</time>
      </trkpt>
      <trkpt lat="43.183930" lon="-5.346900">
        <ele>604.537</ele>
        <time>2020-05-21T16:29:32Z</time>
      </trkpt>
      <trkpt lat="43.183850" lon="-5.346800">
        <ele>603.149</ele>
        <time>2020-05-21T16:29:52Z</time>
      </trkpt>
      <trkpt lat="43.183700" lon="-5.346640">
        <ele>601.113</ele>
        <time>2020-05-21T16:30:12Z</time>
      </trkpt>
      <trkpt lat="43.183590" lon="-5.346530">
        <ele>599.808</ele>
        <time>2020-05-21T16:30:32Z</time>
      </trkpt>
      <trkpt lat="43.183510" lon="-5.346440">
        <ele>598.557</ele>
        <time>2020-05-21T16:30:52Z</time>
      </trkpt>
      <trkpt lat="43.183500" lon="-5.346430">
        <ele>598.442</ele>
        <time>2020-05-21T16:31:12Z</time>
      </trkpt>
      <trkpt lat="43.183360" lon="-5.346300">
        <ele>597.559</ele>
        <time>2020-05-21T16:31:32Z</time>
      </trkpt>
      <trkpt lat="43.183220" lon="-5.346190">
        <ele>596.755</ele>
        <time>2020-05-21T16:31:52Z</time>
      </trkpt>
      <trkpt lat="43.183190" lon="-5.346160">
        <ele>596.264</ele>
        <time>2020-05-21T16:32:12Z</time>
      </trkpt>
      <trkpt lat="43.183070" lon="-5.346040">
        <ele>594.311</ele>
        <time>2020-05-21T16:32:32Z</time>
      </trkpt>
      <trkpt lat="43.182890" lon="-5.345890">
        <ele>592.286</ele>
        <time>2020-05-21T16:32:52Z</time>
      </trkpt>
      <trkpt lat="43.182700" lon="-5.345740">
        <ele>591.420</ele>
        <time>2020-05-21T16:33:12Z</time>
      </trkpt>
      <trkpt lat="43.182580" lon="-5.345630">
        <ele>590.089</ele>
        <time>2020-05-21T16:33:32Z</time>
      </trkpt>
      <trkpt lat="43.182520" lon="-5.345590">
        <ele>589.806</ele>
        <time>2020-05-21T16:33:52Z</time>
      </trkpt>
      <trkpt lat="43.182450" lon="-5.345550">
        <ele>589.026</ele>
        <time>2020-05-21T16:34:12Z</time>
      </trkpt>
      <trkpt lat="43.182420" lon="-5.345530">
        <ele>588.408</ele>
        <time>2020-05-21T16:34:32Z</time>
      </trkpt>
      <trkpt lat="43.182360" lon="-5.345510">
        <ele>587.972</ele>
        <time>2020-05-21T16:34:52Z</time>
      </trkpt>
      <trkpt lat="43.182280" lon="-5.345490">
        <ele>587.667</ele>
        <time>2020-05-21T16:35:12Z</time>
      </trkpt>
      <trkpt lat="43.182050" lon="-5.345400">
        <ele>583.674</ele>
        <time>2020-05-21T16:35:32Z</time>
      </trkpt>
      <trkpt lat="43.181970" lon="-5.345390">
        <ele>582.890</ele>
        <time>2020-05-21T16:35:52Z</time>
      </trkpt>
      <trkpt lat="43.181930" lon="-5.345390">
        <ele>582.439</ele>
        <time>2020-05-21T16:36:12Z</time>
      </trkpt>
      <trkpt lat="43.181900" lon="-5.345390">
        <ele>582.176</ele>
        <time>2020-05-21T16:36:32Z</time>
      </trkpt>
      <trkpt lat="43.181870" lon="-5.345390">
        <ele>581.851</ele>
        <time>2020-05-21T16:36:52Z</time>
      </trkpt>
      <trkpt lat="43.181860" lon="-5.345390">
        <ele>581.625</ele>
        <time>2020-05-21T16:37:12Z</time>
      </trkpt>
      <trkpt lat="43.181850" lon="-5.345400">
        <ele>581.647</ele>
        <time>2020-05-21T16:37:32Z</time>
      </trkpt>
      <trkpt lat="43.181820" lon="-5.345410">
        <ele>581.429</ele>
        <time>2020-05-21T16:37:52Z</time>
      </trkpt>
      <trkpt lat="43.181800" lon="-5.345420">
        <ele>581.221</ele>
        <time>2020-05-21T16:38:12Z</time>
      </trkpt>
      <trkpt lat="43.181780" lon="-5.345440">
        <ele>581.108</ele>
        <time>2020-05-21T16:38:32Z</time>
      </trkpt>
      <trkpt lat="43.181750" lon="-5.345470">
        <ele>580.938</ele>
        <time>2020-05-21T16:38:52Z</time>
      </trkpt>
      <trkpt lat="43.181700" lon="-5.345560">
        <ele>580.633</ele>
        <time>2020-05-21T16:39:12Z</time>
      </trkpt>
      <trkpt lat="43.181690" lon="-5.345580">
        <ele>580.560</ele>
        <time>2020-05-21T16:39:32Z</time>
      </trkpt>
      <trkpt lat="43.181600" lon="-5.345710">
        <ele>579.016</ele>
        <time>2020-05-21T16:39:52Z</time>
      </trkpt>
      <trkpt lat="43.181604" lon="-5.345709">
        <ele>579.135</ele>
        <time>2020-05-21T16:40:12Z</time>
      </trkpt>
      <trkpt lat="43.181590" lon="-5.345650">
        <ele>578.662</ele>
        <time>2020-05-21T16:40:32Z</time>
      </trkpt>
      <trkpt lat="43.181550" lon="-5.345490">
        <ele>577.427</ele>
        <time>2020-05-21T16:40:52Z</time>
      </trkpt>
      <trkpt lat="43.181540" lon="-5.345390">
        <ele>577.251</ele>
        <time>2020-05-21T16:41:12Z</time>
      </trkpt>
      <trkpt lat="43.181540" lon="-5.345370">
        <ele>577.253</ele>
        <time>2020-05-21T16:41:32Z</time>
      </trkpt>
      <trkpt lat="43.181540" lon="-5.345300">
        <ele>577.204</ele>
        <time>2020-05-21T16:41:52Z</time>
      </trkpt>
      <trkpt lat="43.181540" lon="-5.345250">
        <ele>577.014</ele>
        <time>2020-05-21T16:42:12Z</time>
      </trkpt>
      <trkpt lat="43.181560" lon="-5.345170">
        <ele>576.808</ele>
        <time>2020-05-21T16:42:32Z</time>
      </trkpt>
      <trkpt lat="43.181590" lon="-5.345040">
        <ele>576.419</ele>
        <time>2020-05-21T16:42:52Z</time>
      </trkpt>
      <trkpt lat="43.181610" lon="-5.344980">
        <ele>576.074</ele>
        <time>2020-05-21T16:43:12Z</time>
      </trkpt>
      <trkpt lat="43.181640" lon="-5.344930">
        <ele>575.271</ele>
        <time>2020-05-21T16:43:32Z</time>
      </trkpt>
      <trkpt lat="43.181700" lon="-5.344900">
        <ele>575.077</ele>
        <time>2020-05-21T16:43:52Z</time>
      </trkpt>
      <trkpt lat="43.181750" lon="-5.344860">
        <ele>574.476</ele>
        <time>2020-05-21T16:44:12Z</time>
      </trkpt>
      <trkpt lat="43.181840" lon="-5.344790">
        <ele>573.613</ele>
        <time>2020-05-21T16:44:32Z</time>
      </trkpt>
      <trkpt lat="43.182010" lon="-5.344690">
        <ele>572.488</ele>
        <time>2020-05-21T16:44:52Z</time>
      </trkpt>
      <trkpt lat="43.182150" lon="-5.344610">
        <ele>571.372</ele>
        <time>2020-05-21T16:45:12Z</time>
      </trkpt>
      <trkpt lat="43.182200" lon="-5.344580">
        <ele>571.012</ele>
        <time>2020-05-21T16:45:32Z</time>
      </trkpt>
      <trkpt lat="43.182230" lon="-5.344570">
        <ele>570.932</ele>
        <time>2020-05-21T16:45:52Z</time>
      </trkpt>
      <trkpt lat="43.182240" lon="-5.344570">
        <ele>570.905</ele>
        <time>2020-05-21T16:46:12Z</time>
      </trkpt>
      <trkpt lat="43.182270" lon="-5.344570">
        <ele>570.808</ele>
        <time>2020-05-21T16:46:32Z</time>
      </trkpt>
      <trkpt lat="43.182280" lon="-5.344570">
        <ele>570.865</ele>
        <time>2020-05-21T16:46:52Z</time>
      </trkpt>
      <trkpt lat="43.182300" lon="-5.344580">
        <ele>570.840</ele>
        <time>2020-05-21T16:47:12Z</time>
      </trkpt>
      <trkpt lat="43.182360" lon="-5.344600">
        <ele>570.847</ele>
        <time>2020-05-21T16:47:32Z</time>
      </trkpt>
      <trkpt lat="43.182420" lon="-5.344610">
        <ele>570.893</ele>
        <time>2020-05-21T16:47:52Z</time>
      </trkpt>
      <trkpt lat="43.182450" lon="-5.344610">
        <ele>570.762</ele>
        <time>2020-05-21T16:48:12Z</time>
      </trkpt>
      <trkpt lat="43.182480" lon="-5.344600">
        <ele>570.659</ele>
        <time>2020-05-21T16:48:32Z</time>
      </trkpt>
      <trkpt lat="43.182477" lon="-5.344603">
        <ele>570.664</ele>
        <time>2020-05-21T16:48:52Z</time>
      </trkpt>
      <trkpt lat="43.182500" lon="-5.344600">
        <ele>570.618</ele>
        <time>2020-05-21T16:49:12Z</time>
      </trkpt>
      <trkpt lat="43.182510" lon="-5.344590">
        <ele>570.653</ele>
        <time>2020-05-21T16:49:32Z</time>
      </trkpt>
      <trkpt lat="43.182520" lon="-5.344580">
        <ele>570.604</ele>
        <time>2020-05-21T16:49:52Z</time>
      </trkpt>
      <trkpt lat="43.182540" lon="-5.344560">
        <ele>570.614</ele>
        <time>2020-05-21T16:50:12Z</time>
      </trkpt>
      <trkpt lat="43.182570" lon="-5.344540">
        <ele>570.808</ele>
        <time>2020-05-21T16:50:32Z</time>
      </trkpt>
      <trkpt lat="43.182580" lon="-5.344520">
        <ele>570.849</ele>
        <time>2020-05-21T16:50:52Z</time>
      </trkpt>
      <trkpt lat="43.182590" lon="-5.344510">
        <ele>570.874</ele>
        <time>2020-05-21T16:51:12Z</time>
      </trkpt>
      <trkpt lat="43.182590" lon="-5.344500">
        <ele>570.831</ele>
        <time>2020-05-21T16:51:32Z</time>
      </trkpt>
      <trkpt lat="43.182600" lon="-5.344450">
        <ele>570.797</ele>
        <time>2020-05-21T16:51:52Z</time>
      </trkpt>
      <trkpt lat="43.182603" lon="-5.344454">
        <ele>570.826</ele>
        <time>2020-05-21T16:52:12Z</time>
      </trkpt>
      <trkpt lat="43.182610" lon="-5.344410">
        <ele>570.833</ele>
        <time>2020-05-21T16:52:32Z</time>
      </trkpt>
      <trkpt lat="43.182610" lon="-5.344370">
        <ele>570.818</ele>
        <time>2020-05-21T16:52:52Z</time>
      </trkpt>
      <trkpt lat="43.182600" lon="-5.344330">
        <ele>570.832</ele>
        <time>2020-05-21T16:53:12Z</time>
      </trkpt>
      <trkpt lat="43.182600" lon="-5.344310">
        <ele>570.993</ele>
        <time>2020-05-21T16:53:32Z</time>
      </trkpt>
      <trkpt lat="43.182590" lon="-5.344280">
        <ele>570.965</ele>
        <time>2020-05-21T16:53:52Z</time>
      </trkpt>
      <trkpt lat="43.182580" lon="-5.344250">
        <ele>570.921</ele>
        <time>2020-05-21T16:54:12Z</time>
      </trkpt>
      <trkpt lat="43.182570" lon="-5.344230">
        <ele>570.908</ele>
        <time>2020-05-21T16:54:32Z</time>
      </trkpt>
      <trkpt lat="43.182530" lon="-5.344190">
        <ele>570.993</ele>
        <time>2020-05-21T16:54:52Z</time>
      </trkpt>
      <trkpt lat="43.182510" lon="-5.344170">
        <ele>571.028</ele>
        <time>2020-05-21T16:55:12Z</time>
      </trkpt>
      <trkpt lat="43.182460" lon="-5.344150">
        <ele>571.595</ele>
        <time>2020-05-21T16:55:32Z</time>
      </trkpt>
      <trkpt lat="43.182400" lon="-5.344140">
        <ele>572.041</ele>
        <time>2020-05-21T16:55:52Z</time>
      </trkpt>
      <trkpt lat="43.182330" lon="-5.344130">
        <ele>572.630</ele>
        <time>2020-05-21T16:56:12Z</time>
      </trkpt>
      <trkpt lat="43.182280" lon="-5.344130">
        <ele>572.887</ele>
        <time>2020-05-21T16:56:32Z</time>
      </trkpt>
      <trkpt lat="43.182230" lon="-5.344130">
        <ele>573.082</ele>
        <time>2020-05-21T16:56:52Z</time>
      </trkpt>
      <trkpt lat="43.182100" lon="-5.344130">
        <ele>573.436</ele>
        <time>2020-05-21T16:57:12Z</time>
      </trkpt>
      <trkpt lat="43.182030" lon="-5.344120">
        <ele>573.927</ele>
        <time>2020-05-21T16:57:32Z</time>
      </trkpt>
      <trkpt lat="43.181960" lon="-5.344110">
        <ele>574.468</ele>
        <time>2020-05-21T16:57:52Z</time>
      </trkpt>
      <trkpt lat="43.181890" lon="-5.344090">
        <ele>574.814</ele>
        <time>2020-05-21T16:58:12Z</time>
      </trkpt>
      <trkpt lat="43.181830" lon="-5.344080">
        <ele>574.808</ele>
        <time>2020-05-21T16:58:32Z</time>
      </trkpt>
      <trkpt lat="43.181780" lon="-5.344050">
        <ele>575.256</ele>
        <time>2020-05-21T16:58:52Z</time>
      </trkpt>
      <trkpt lat="43.181750" lon="-5.344030">
        <ele>575.431</ele>
        <time>2020-05-21T16:59:12Z</time>
      </trkpt>
      <trkpt lat="43.181710" lon="-5.344000">
        <ele>575.758</ele>
        <time>2020-05-21T16:59:32Z</time>
      </trkpt>
      <trkpt lat="43.181610" lon="-5.343870">
        <ele>576.524</ele>
        <time>2020-05-21T16:59:52Z</time>
      </trkpt>
      <trkpt lat="43.181540" lon="-5.343790">
        <ele>576.323</ele>
        <time>2020-05-21T17:00:12Z</time>
      </trkpt>
      <trkpt lat="43.181480" lon="-5.343710">
        <ele>576.370</ele>
        <time>2020-05-21T17:00:32Z</time>
      </trkpt>
      <trkpt lat="43.181400" lon="-5.343610">
        <ele>576.155</ele>
        <time>2020-05-21T17:00:52Z</time>
      </trkpt>
      <trkpt lat="43.181330" lon="-5.343500">
        <ele>574.819</ele>
        <time>2020-05-21T17:01:12Z</time>
      </trkpt>
      <trkpt lat="43.181300" lon="-5.343450">
        <ele>574.248</ele>
        <time>2020-05-21T17:01:32Z</time>
      </trkpt>
      <trkpt lat="43.181300" lon="-5.343420">
        <ele>574.261</ele>
        <time>2020-05-21T17:01:52Z</time>
      </trkpt>
      <trkpt lat="43.181280" lon="-5.343360">
        <ele>573.817</ele>
        <time>2020-05-21T17:02:12Z</time>
      </trkpt>
      <trkpt lat="43.181280" lon="-5.343330">
        <ele>573.908</ele>
        <time>2020-05-21T17:02:32Z</time>
      </trkpt>
      <trkpt lat="43.181280" lon="-5.343310">
        <ele>573.818</ele>
        <time>2020-05-21T17:02:52Z</time>
      </trkpt>
      <trkpt lat="43.181270" lon="-5.343300">
        <ele>573.583</ele>
        <time>2020-05-21T17:03:12Z</time>
      </trkpt>
      <trkpt lat="43.181270" lon="-5.343270">
        <ele>573.470</ele>
        <time>2020-05-21T17:03:32Z</time>
      </trkpt>
      <trkpt lat="43.181280" lon="-5.343230">
        <ele>573.636</ele>
        <time>2020-05-21T17:03:52Z</time>
      </trkpt>
      <trkpt lat="43.181280" lon="-5.343160">
        <ele>573.415</ele>
        <time>2020-05-21T17:04:12Z</time>
      </trkpt>
      <trkpt lat="43.181290" lon="-5.343100">
        <ele>573.672</ele>
        <time>2020-05-21T17:04:32Z</time>
      </trkpt>
      <trkpt lat="43.181300" lon="-5.343040">
        <ele>573.787</ele>
        <time>2020-05-21T17:04:52Z</time>
      </trkpt>
      <trkpt lat="43.181340" lon="-5.342890">
        <ele>573.741</ele>
        <time>2020-05-21T17:05:12Z</time>
      </trkpt>
      <trkpt lat="43.181360" lon="-5.342830">
        <ele>573.777</ele>
        <time>2020-05-21T17:05:32Z</time>
      </trkpt>
      <trkpt lat="43.181370" lon="-5.342760">
        <ele>573.461</ele>
        <time>2020-05-21T17:05:52Z</time>
      </trkpt>
      <trkpt lat="43.181370" lon="-5.342750">
        <ele>573.427</ele>
        <time>2020-05-21T17:06:12Z</time>
      </trkpt>
      <trkpt lat="43.181370" lon="-5.342720">
        <ele>573.208</ele>
        <time>2020-05-21T17:06:32Z</time>
      </trkpt>
      <trkpt lat="43.181370" lon="-5.342690">
        <ele>573.111</ele>
        <time>2020-05-21T17:06:52Z</time>
      </trkpt>
      <trkpt lat="43.181370" lon="-5.342680">
        <ele>573.126</ele>
        <time>2020-05-21T17:07:12Z</time>
      </trkpt>
      <trkpt lat="43.181370" lon="-5.342660">
        <ele>573.033</ele>
        <time>2020-05-21T17:07:32Z</time>
      </trkpt>
      <trkpt lat="43.181370" lon="-5.342650">
        <ele>573.089</ele>
        <time>2020-05-21T17:07:52Z</time>
      </trkpt>
      <trkpt lat="43.181366" lon="-5.342652">
        <ele>572.928</ele>
        <time>2020-05-21T17:08:12Z</time>
      </trkpt>
      <trkpt lat="43.181360" lon="-5.342640">
        <ele>572.735</ele>
        <time>2020-05-21T17:08:32Z</time>
      </trkpt>
      <trkpt lat="43.181350" lon="-5.342630">
        <ele>572.370</ele>
        <time>2020-05-21T17:08:52Z</time>
      </trkpt>
      <trkpt lat="43.181310" lon="-5.342580">
        <ele>571.054</ele>
        <time>2020-05-21T17:09:12Z</time>
      </trkpt>
      <trkpt lat="43.181280" lon="-5.342560">
        <ele>570.195</ele>
        <time>2020-05-21T17:09:32Z</time>
      </trkpt>
      <trkpt lat="43.181170" lon="-5.342520">
        <ele>566.849</ele>
        <time>2020-05-21T17:09:52Z</time>
      </trkpt>
      <trkpt lat="43.181173" lon="-5.342519">
        <ele>566.923</ele>
        <time>2020-05-21T17:10:12Z</time>
      </trkpt>
      <trkpt lat="43.181180" lon="-5.342190">
        <ele>566.508</ele>
        <time>2020-05-21T17:10:32Z</time>
      </trkpt>
      <trkpt lat="43.181200" lon="-5.341660">
        <ele>567.523</ele>
        <time>2020-05-21T17:10:52Z</time>
      </trkpt>
      <trkpt lat="43.181200" lon="-5.341490">
        <ele>568.188</ele>
        <time>2020-05-21T17:11:12Z</time>
      </trkpt>
      <trkpt lat="43.181210" lon="-5.341360">
        <ele>569.195</ele>
        <time>2020-05-21T17:11:32Z</time>
      </trkpt>
      <trkpt lat="43.181210" lon="-5.341270">
        <ele>569.661</ele>
        <time>2020-05-21T17:11:52Z</time>
      </trkpt>
      <trkpt lat="43.181210" lon="-5.341240">
        <ele>569.770</ele>
        <time>2020-05-21T17:12:12Z</time>
      </trkpt>
      <trkpt lat="43.181200" lon="-5.341190">
        <ele>569.457</ele>
        <time>2020-05-21T17:12:32Z</time>
      </trkpt>
      <trkpt lat="43.181200" lon="-5.341170">
        <ele>569.552</ele>
        <time>2020-05-21T17:12:52Z</time>
      </trkpt>
      <trkpt lat="43.181180" lon="-5.341080">
        <ele>568.986</ele>
        <time>2020-05-21T17:13:12Z</time>
      </trkpt>
      <trkpt lat="43.181130" lon="-5.340850">
        <ele>567.832</ele>
        <time>2020-05-21T17:13:32Z</time>
      </trkpt>
      <trkpt lat="43.181100" lon="-5.340700">
        <ele>567.292</ele>
        <time>2020-05-21T17:13:52Z</time>
      </trkpt>
      <trkpt lat="43.181080" lon="-5.340620">
        <ele>566.911</ele>
        <time>2020-05-21T17:14:12Z</time>
      </trkpt>
      <trkpt lat="43.181080" lon="-5.340570">
        <ele>567.108</ele>
        <time>2020-05-21T17:14:32Z</time>
      </trkpt>
      <trkpt lat="43.181080" lon="-5.340530">
        <ele>567.187</ele>
        <time>2020-05-21T17:14:52Z</time>
      </trkpt>
      <trkpt lat="43.181090" lon="-5.340460">
        <ele>567.442</ele>
        <time>2020-05-21T17:15:12Z</time>
      </trkpt>
      <trkpt lat="43.181100" lon="-5.340380">
        <ele>567.789</ele>
        <time>2020-05-21T17:15:32Z</time>
      </trkpt>
      <trkpt lat="43.181130" lon="-5.340230">
        <ele>568.935</ele>
        <time>2020-05-21T17:15:52Z</time>
      </trkpt>
      <trkpt lat="43.181150" lon="-5.340150">
        <ele>570.044</ele>
        <time>2020-05-21T17:16:12Z</time>
      </trkpt>
      <trkpt lat="43.181150" lon="-5.340130">
        <ele>570.141</ele>
        <time>2020-05-21T17:16:32Z</time>
      </trkpt>
      <trkpt lat="43.181170" lon="-5.340040">
        <ele>571.526</ele>
        <time>2020-05-21T17:16:52Z</time>
      </trkpt>
      <trkpt lat="43.181180" lon="-5.339920">
        <ele>572.180</ele>
        <time>2020-05-21T17:17:12Z</time>
      </trkpt>
      <trkpt lat="43.181180" lon="-5.339900">
        <ele>572.164</ele>
        <time>2020-05-21T17:17:32Z</time>
      </trkpt>
      <trkpt lat="43.181190" lon="-5.339780">
        <ele>572.706</ele>
        <time>2020-05-21T17:17:52Z</time>
      </trkpt>
      <trkpt lat="43.181190" lon="-5.339690">
        <ele>572.916</ele>
        <time>2020-05-21T17:18:12Z</time>
      </trkpt>
      <trkpt lat="43.181200" lon="-5.339410">
        <ele>575.608</ele>
        <time>2020-05-21T17:18:32Z</time>
      </trkpt>
      <trkpt lat="43.181190" lon="-5.339180">
        <ele>576.280</ele>
        <time>2020-05-21T17:18:52Z</time>
      </trkpt>
      <trkpt lat="43.181180" lon="-5.339160">
        <ele>575.565</ele>
        <time>2020-05-21T17:19:12Z</time>
      </trkpt>
      <trkpt lat="43.181170" lon="-5.339050">
        <ele>576.242</ele>
        <time>2020-05-21T17:19:32Z</time>
      </trkpt>
      <trkpt lat="43.181150" lon="-5.338920">
        <ele>576.128</ele>
        <time>2020-05-21T17:19:52Z</time>
      </trkpt>
      <trkpt lat="43.181140" lon="-5.338850">
        <ele>576.517</ele>
        <time>2020-05-21T17:20:12Z</time>
      </trkpt>
      <trkpt lat="43.181110" lon="-5.338690">
        <ele>577.254</ele>
        <time>2020-05-21T17:20:32Z</time>
      </trkpt>
      <trkpt lat="43.181100" lon="-5.338680">
        <ele>577.099</ele>
        <time>2020-05-21T17:20:52Z</time>
      </trkpt>
      <trkpt lat="43.181050" lon="-5.338450">
        <ele>579.633</ele>
        <time>2020-05-21T17:21:12Z</time>
      </trkpt>
      <trkpt lat="43.181020" lon="-5.338310">
        <ele>580.741</ele>
        <time>2020-05-21T17:21:32Z</time>
      </trkpt>
      <trkpt lat="43.181000" lon="-5.338250">
        <ele>580.881</ele>
        <time>2020-05-21T17:21:52Z</time>
      </trkpt>
      <trkpt lat="43.180980" lon="-5.338200">
        <ele>580.709</ele>
        <time>2020-05-21T17:22:12Z</time>
      </trkpt>
      <trkpt lat="43.180970" lon="-5.338170">
        <ele>580.708</ele>
        <time>2020-05-21T17:22:32Z</time>
      </trkpt>
      <trkpt lat="43.180940" lon="-5.338130">
        <ele>579.488</ele>
        <time>2020-05-21T17:22:52Z</time>
      </trkpt>
      <trkpt lat="43.180830" lon="-5.337950">
        <ele>577.853</ele>
        <time>2020-05-21T17:23:12Z</time>
      </trkpt>
      <trkpt lat="43.180760" lon="-5.337830">
        <ele>579.810</ele>
        <time>2020-05-21T17:23:32Z</time>
      </trkpt>
      <trkpt lat="43.180640" lon="-5.337620">
        <ele>579.516</ele>
        <time>2020-05-21T17:23:52Z</time>
      </trkpt>
      <trkpt lat="43.180540" lon="-5.337450">
        <ele>578.655</ele>
        <time>2020-05-21T17:24:12Z</time>
      </trkpt>
      <trkpt lat="43.180470" lon="-5.337340">
        <ele>579.962</ele>
        <time>2020-05-21T17:24:32Z</time>
      </trkpt>
      <trkpt lat="43.180410" lon="-5.337250">
        <ele>579.817</ele>
        <time>2020-05-21T17:24:52Z</time>
      </trkpt>
      <trkpt lat="43.180350" lon="-5.337160">
        <ele>579.881</ele>
        <time>2020-05-21T17:25:12Z</time>
      </trkpt>
      <trkpt lat="43.180300" lon="-5.337110">
        <ele>579.495</ele>
        <time>2020-05-21T17:25:32Z</time>
      </trkpt>
      <trkpt lat="43.180290" lon="-5.337100">
        <ele>579.349</ele>
        <time>2020-05-21T17:25:52Z</time>
      </trkpt>
      <trkpt lat="43.180270" lon="-5.337080">
        <ele>579.423</ele>
        <time>2020-05-21T17:26:12Z</time>
      </trkpt>
      <trkpt lat="43.180240" lon="-5.337060">
        <ele>579.108</ele>
        <time>2020-05-21T17:26:32Z</time>
      </trkpt>
      <trkpt lat="43.180170" lon="-5.337000">
        <ele>578.533</ele>
        <time>2020-05-21T17:26:52Z</time>
      </trkpt>
      <trkpt lat="43.180130" lon="-5.336970">
        <ele>577.738</ele>
        <time>2020-05-21T17:27:12Z</time>
      </trkpt>
      <trkpt lat="43.180090" lon="-5.336940">
        <ele>576.735</ele>
        <time>2020-05-21T17:27:32Z</time>
      </trkpt>
      <trkpt lat="43.180050" lon="-5.336910">
        <ele>575.911</ele>
        <time>2020-05-21T17:27:52Z</time>
      </trkpt>
      <trkpt lat="43.180010" lon="-5.336860">
        <ele>575.890</ele>
        <time>2020-05-21T17:28:12Z</time>
      </trkpt>
      <trkpt lat="43.179990" lon="-5.336830">
        <ele>576.277</ele>
        <time>2020-05-21T17:28:32Z</time>
      </trkpt>
      <trkpt lat="43.179970" lon="-5.336810">
        <ele>576.222</ele>
        <time>2020-05-21T17:28:52Z</time>
      </trkpt>
      <trkpt lat="43.179950" lon="-5.336780">
        <ele>576.566</ele>
        <time>2020-05-21T17:29:12Z</time>
      </trkpt>
      <trkpt lat="43.179870" lon="-5.336650">
        <ele>577.055</ele>
        <time>2020-05-21T17:29:32Z</time>
      </trkpt>
      <trkpt lat="43.179870" lon="-5.336640">
        <ele>577.407</ele>
        <time>2020-05-21T17:29:52Z</time>
      </trkpt>
      <trkpt lat="43.179810" lon="-5.336540">
        <ele>577.317</ele>
        <time>2020-05-21T17:30:12Z</time>
      </trkpt>
      <trkpt lat="43.179760" lon="-5.336450">
        <ele>576.908</ele>
        <time>2020-05-21T17:30:32Z</time>
      </trkpt>
      <trkpt lat="43.179690" lon="-5.336330">
        <ele>577.079</ele>
        <time>2020-05-21T17:30:52Z</time>
      </trkpt>
      <trkpt lat="43.179640" lon="-5.336260">
        <ele>577.434</ele>
        <time>2020-05-21T17:31:12Z</time>
      </trkpt>
      <trkpt lat="43.179620" lon="-5.336230">
        <ele>577.611</ele>
        <time>2020-05-21T17:31:32Z</time>
      </trkpt>
      <trkpt lat="43.179580" lon="-5.336160">
        <ele>577.917</ele>
        <time>2020-05-21T17:31:52Z</time>
      </trkpt>
      <trkpt lat="43.179530" lon="-5.336100">
        <ele>577.476</ele>
        <time>2020-05-21T17:32:12Z</time>
      </trkpt>
      <trkpt lat="43.179510" lon="-5.336090">
        <ele>576.843</ele>
        <time>2020-05-21T17:32:32Z</time>
      </trkpt>
      <trkpt lat="43.179490" lon="-5.336060">
        <ele>576.878</ele>
        <time>2020-05-21T17:32:52Z</time>
      </trkpt>
      <trkpt lat="43.179370" lon="-5.335940">
        <ele>576.352</ele>
        <time>2020-05-21T17:33:12Z</time>
      </trkpt>
      <trkpt lat="43.179240" lon="-5.335810">
        <ele>575.465</ele>
        <time>2020-05-21T17:33:32Z</time>
      </trkpt>
      <trkpt lat="43.179230" lon="-5.335790">
        <ele>575.768</ele>
        <time>2020-05-21T17:33:52Z</time>
      </trkpt>
      <trkpt lat="43.179120" lon="-5.335670">
        <ele>576.014</ele>
        <time>2020-05-21T17:34:12Z</time>
      </trkpt>
      <trkpt lat="43.179040" lon="-5.335540">
        <ele>576.808</ele>
        <time>2020-05-21T17:34:32Z</time>
      </trkpt>
      <trkpt lat="43.178990" lon="-5.335450">
        <ele>577.010</ele>
        <time>2020-05-21T17:34:52Z</time>
      </trkpt>
      <trkpt lat="43.178980" lon="-5.335440">
        <ele>576.835</ele>
        <time>2020-05-21T17:35:12Z</time>
      </trkpt>
      <trkpt lat="43.178950" lon="-5.335360">
        <ele>576.982</ele>
        <time>2020-05-21T17:35:32Z</time>
      </trkpt>
      <trkpt lat="43.178900" lon="-5.335220">
        <ele>576.918</ele>
        <time>2020-05-21T17:35:52Z</time>
      </trkpt>
      <trkpt lat="43.178880" lon="-5.335160">
        <ele>577.367</ele>
        <time>2020-05-21T17:36:12Z</time>
      </trkpt>
      <trkpt lat="43.178820" lon="-5.335000">
        <ele>579.094</ele>
        <time>2020-05-21T17:36:32Z</time>
      </trkpt>
      <trkpt lat="43.178790" lon="-5.334930">
        <ele>579.289</ele>
        <time>2020-05-21T17:36:52Z</time>
      </trkpt>
      <trkpt lat="43.178750" lon="-5.334800">
        <ele>579.983</ele>
        <time>2020-05-21T17:37:12Z</time>
      </trkpt>
      <trkpt lat="43.178740" lon="-5.334780">
        <ele>579.837</ele>
        <time>2020-05-21T17:37:32Z</time>
      </trkpt>
      <trkpt lat="43.178730" lon="-5.334750">
        <ele>579.949</ele>
        <time>2020-05-21T17:37:52Z</time>
      </trkpt>
      <trkpt lat="43.178690" lon="-5.334690">
        <ele>579.613</ele>
        <time>2020-05-21T17:38:12Z</time>
      </trkpt>
      <trkpt lat="43.178660" lon="-5.334620">
        <ele>580.408</ele>
        <time>2020-05-21T17:38:32Z</time>
      </trkpt>
      <trkpt lat="43.178630" lon="-5.334590">
        <ele>580.367</ele>
        <time>2020-05-21T17:38:52Z</time>
      </trkpt>
      <trkpt lat="43.178630" lon="-5.334580">
        <ele>580.642</ele>
        <time>2020-05-21T17:39:12Z</time>
      </trkpt>
      <trkpt lat="43.178530" lon="-5.334460">
        <ele>581.399</ele>
        <time>2020-05-21T17:39:32Z</time>
      </trkpt>
      <trkpt lat="43.178490" lon="-5.334430">
        <ele>581.085</ele>
        <time>2020-05-21T17:39:52Z</time>
      </trkpt>
      <trkpt lat="43.178350" lon="-5.334290">
        <ele>582.074</ele>
        <time>2020-05-21T17:40:12Z</time>
      </trkpt>
      <trkpt lat="43.178340" lon="-5.334280">
        <ele>582.171</ele>
        <time>2020-05-21T17:40:32Z</time>
      </trkpt>
      <trkpt lat="43.178200" lon="-5.334150">
        <ele>582.336</ele>
        <time>2020-05-21T17:40:52Z</time>
      </trkpt>
      <trkpt lat="43.178190" lon="-5.334150">
        <ele>582.090</ele>
        <time>2020-05-21T17:41:12Z</time>
      </trkpt>
      <trkpt lat="43.178040" lon="-5.334010">
        <ele>582.763</ele>
        <time>2020-05-21T17:41:32Z</time>
      </trkpt>
      <trkpt lat="43.177740" lon="-5.333740">
        <ele>581.244</ele>
        <time>2020-05-21T17:41:52Z</time>
      </trkpt>
      <trkpt lat="43.177680" lon="-5.333670">
        <ele>581.418</ele>
        <time>2020-05-21T17:42:12Z</time>
      </trkpt>
      <trkpt lat="43.177630" lon="-5.333600">
        <ele>581.408</ele>
        <time>2020-05-21T17:42:32Z</time>
      </trkpt>
      <trkpt lat="43.177510" lon="-5.333420">
        <ele>581.940</ele>
        <time>2020-05-21T17:42:52Z</time>
      </trkpt>
      <trkpt lat="43.177300" lon="-5.333120">
        <ele>581.795</ele>
        <time>2020-05-21T17:43:12Z</time>
      </trkpt>
      <trkpt lat="43.177160" lon="-5.332900">
        <ele>582.642</ele>
        <time>2020-05-21T17:43:32Z</time>
      </trkpt>
      <trkpt lat="43.177110" lon="-5.332820">
        <ele>582.788</ele>
        <time>2020-05-21T17:43:52Z</time>
      </trkpt>
      <trkpt lat="43.177070" lon="-5.332740">
        <ele>582.857</ele>
        <time>2020-05-21T17:44:12Z</time>
      </trkpt>
      <trkpt lat="43.176990" lon="-5.332600">
        <ele>582.664</ele>
        <time>2020-05-21T17:44:32Z</time>
      </trkpt>
      <trkpt lat="43.176930" lon="-5.332460">
        <ele>583.519</ele>
        <time>2020-05-21T17:44:52Z</time>
      </trkpt>
      <trkpt lat="43.176840" lon="-5.332260">
        <ele>584.083</ele>
        <time>2020-05-21T17:45:12Z</time>
      </trkpt>
      <trkpt lat="43.176780" lon="-5.332120">
        <ele>583.211</ele>
        <time>2020-05-21T17:45:32Z</time>
      </trkpt>
      <trkpt lat="43.176720" lon="-5.331900">
        <ele>583.321</ele>
        <time>2020-05-21T17:45:52Z</time>
      </trkpt>
      <trkpt lat="43.176690" lon="-5.331800">
        <ele>583.203</ele>
        <time>2020-05-21T17:46:12Z</time>
      </trkpt>
      <trkpt lat="43.176660" lon="-5.331630">
        <ele>584.208</ele>
        <time>2020-05-21T17:46:32Z</time>
      </trkpt>
      <trkpt lat="43.176620" lon="-5.331480">
        <ele>584.465</ele>
        <time>2020-05-21T17:46:52Z</time>
      </trkpt>
      <trkpt lat="43.176600" lon="-5.331410">
        <ele>584.260</ele>
        <time>2020-05-21T17:47:12Z</time>
      </trkpt>
      <trkpt lat="43.176540" lon="-5.331280">
        <ele>584.077</ele>
        <time>2020-05-21T17:47:32Z</time>
      </trkpt>
      <trkpt lat="43.176500" lon="-5.331190">
        <ele>583.743</ele>
        <time>2020-05-21T17:47:52Z</time>
      </trkpt>
      <trkpt lat="43.176460" lon="-5.331090">
        <ele>583.562</ele>
        <time>2020-05-21T17:48:12Z</time>
      </trkpt>
      <trkpt lat="43.176410" lon="-5.330970">
        <ele>584.439</ele>
        <time>2020-05-21T17:48:32Z</time>
      </trkpt>
      <trkpt lat="43.176380" lon="-5.330890">
        <ele>585.084</ele>
        <time>2020-05-21T17:48:52Z</time>
      </trkpt>
      <trkpt lat="43.176340" lon="-5.330750">
        <ele>587.548</ele>
        <time>2020-05-21T17:49:12Z</time>
      </trkpt>
      <trkpt lat="43.176280" lon="-5.330570">
        <ele>589.237</ele>
        <time>2020-05-21T17:49:32Z</time>
      </trkpt>
      <trkpt lat="43.176180" lon="-5.330250">
        <ele>591.649</ele>
        <time>2020-05-21T17:49:52Z</time>
      </trkpt>
      <trkpt lat="43.176090" lon="-5.330000">
        <ele>592.913</ele>
        <time>2020-05-21T17:50:12Z</time>
      </trkpt>
      <trkpt lat="43.176030" lon="-5.329860">
        <ele>593.908</ele>
        <time>2020-05-21T17:50:32Z</time>
      </trkpt>
      <trkpt lat="43.175970" lon="-5.329780">
        <ele>592.497</ele>
        <time>2020-05-21T17:50:52Z</time>
      </trkpt>
      <trkpt lat="43.175920" lon="-5.329690">
        <ele>591.912</ele>
        <time>2020-05-21T17:51:12Z</time>
      </trkpt>
      <trkpt lat="43.175900" lon="-5.329680">
        <ele>591.059</ele>
        <time>2020-05-21T17:51:32Z</time>
      </trkpt>
      <trkpt lat="43.175820" lon="-5.329580">
        <ele>590.245</ele>
        <time>2020-05-21T17:51:52Z</time>
      </trkpt>
      <trkpt lat="43.175760" lon="-5.329530">
        <ele>590.274</ele>
        <time>2020-05-21T17:52:12Z</time>
      </trkpt>
      <trkpt lat="43.175740" lon="-5.329500">
        <ele>590.631</ele>
        <time>2020-05-21T17:52:32Z</time>
      </trkpt>
      <trkpt lat="43.175560" lon="-5.329360">
        <ele>589.556</ele>
        <time>2020-05-21T17:52:52Z</time>
      </trkpt>
      <trkpt lat="43.175440" lon="-5.329230">
        <ele>590.070</ele>
        <time>2020-05-21T17:53:12Z</time>
      </trkpt>
      <trkpt lat="43.175370" lon="-5.329150">
        <ele>589.736</ele>
        <time>2020-05-21T17:53:32Z</time>
      </trkpt>
      <trkpt lat="43.175330" lon="-5.329090">
        <ele>590.617</ele>
        <time>2020-05-21T17:53:52Z</time>
      </trkpt>
      <trkpt lat="43.175260" lon="-5.329000">
        <ele>590.818</ele>
        <time>2020-05-21T17:54:12Z</time>
      </trkpt>
      <trkpt lat="43.175180" lon="-5.328870">
        <ele>591.108</ele>
        <time>2020-05-21T17:54:32Z</time>
      </trkpt>
      <trkpt lat="43.175110" lon="-5.328740">
        <ele>591.767</ele>
        <time>2020-05-21T17:54:52Z</time>
      </trkpt>
      <trkpt lat="43.175000" lon="-5.328510">
        <ele>591.342</ele>
        <time>2020-05-21T17:55:12Z</time>
      </trkpt>
      <trkpt lat="43.174970" lon="-5.328450">
        <ele>591.749</ele>
        <time>2020-05-21T17:55:32Z</time>
      </trkpt>
      <trkpt lat="43.174900" lon="-5.328300">
        <ele>591.935</ele>
        <time>2020-05-21T17:55:52Z</time>
      </trkpt>
      <trkpt lat="43.174840" lon="-5.328170">
        <ele>592.354</ele>
        <time>2020-05-21T17:56:12Z</time>
      </trkpt>
      <trkpt lat="43.174780" lon="-5.328020">
        <ele>593.291</ele>
        <time>2020-05-21T17:56:32Z</time>
      </trkpt>
      <trkpt lat="43.174760" lon="-5.327960">
        <ele>593.626</ele>
        <time>2020-05-21T17:56:52Z</time>
      </trkpt>
      <trkpt lat="43.174750" lon="-5.327910">
        <ele>594.360</ele>
        <time>2020-05-21T17:57:12Z</time>
      </trkpt>
      <trkpt lat="43.174720" lon="-5.327800">
        <ele>595.365</ele>
        <time>2020-05-21T17:57:32Z</time>
      </trkpt>
      <trkpt lat="43.174720" lon="-5.327760">
        <ele>596.068</ele>
        <time>2020-05-21T17:57:52Z</time>
      </trkpt>
      <trkpt lat="43.174720" lon="-5.327720">
        <ele>596.314</ele>
        <time>2020-05-21T17:58:12Z</time>
      </trkpt>
      <trkpt lat="43.174710" lon="-5.327620">
        <ele>596.408</ele>
        <time>2020-05-21T17:58:32Z</time>
      </trkpt>
      <trkpt lat="43.174700" lon="-5.327390">
        <ele>597.510</ele>
        <time>2020-05-21T17:58:52Z</time>
      </trkpt>
      <trkpt lat="43.174700" lon="-5.327380">
        <ele>597.645</ele>
        <time>2020-05-21T17:59:12Z</time>
      </trkpt>
      <trkpt lat="43.174710" lon="-5.327290">
        <ele>598.842</ele>
        <time>2020-05-21T17:59:32Z</time>
      </trkpt>
      <trkpt lat="43.174710" lon="-5.327260">
        <ele>599.188</ele>
        <time>2020-05-21T17:59:52Z</time>
      </trkpt>
      <trkpt lat="43.174710" lon="-5.327230">
        <ele>599.387</ele>
        <time>2020-05-21T18:00:12Z</time>
      </trkpt>
      <trkpt lat="43.174720" lon="-5.327220">
        <ele>599.894</ele>
        <time>2020-05-21T18:00:32Z</time>
      </trkpt>
      <trkpt lat="43.174730" lon="-5.327190">
        <ele>599.629</ele>
        <time>2020-05-21T18:00:52Z</time>
      </trkpt>
      <trkpt lat="43.174750" lon="-5.327140">
        <ele>599.473</ele>
        <time>2020-05-21T18:01:12Z</time>
      </trkpt>
      <trkpt lat="43.174750" lon="-5.327130">
        <ele>599.123</ele>
        <time>2020-05-21T18:01:32Z</time>
      </trkpt>
      <trkpt lat="43.174780" lon="-5.327080">
        <ele>599.383</ele>
        <time>2020-05-21T18:01:52Z</time>
      </trkpt>
      <trkpt lat="43.174820" lon="-5.327010">
        <ele>599.411</ele>
        <time>2020-05-21T18:02:12Z</time>
      </trkpt>
      <trkpt lat="43.174850" lon="-5.326960">
        <ele>599.408</ele>
        <time>2020-05-21T18:02:32Z</time>
      </trkpt>
      <trkpt lat="43.174910" lon="-5.326900">
        <ele>600.096</ele>
        <time>2020-05-21T18:02:52Z</time>
      </trkpt>
      <trkpt lat="43.174980" lon="-5.326820">
        <ele>599.171</ele>
        <time>2020-05-21T18:03:12Z</time>
      </trkpt>
      <trkpt lat="43.175000" lon="-5.326800">
        <ele>598.718</ele>
        <time>2020-05-21T18:03:32Z</time>
      </trkpt>
      <trkpt lat="43.175020" lon="-5.326780">
        <ele>598.624</ele>
        <time>2020-05-21T18:03:52Z</time>
      </trkpt>
      <trkpt lat="43.175070" lon="-5.326750">
        <ele>599.273</ele>
        <time>2020-05-21T18:04:12Z</time>
      </trkpt>
      <trkpt lat="43.175150" lon="-5.326720">
        <ele>600.810</ele>
        <time>2020-05-21T18:04:32Z</time>
      </trkpt>
      <trkpt lat="43.175170" lon="-5.326720">
        <ele>601.635</ele>
        <time>2020-05-21T18:04:52Z</time>
      </trkpt>
      <trkpt lat="43.175240" lon="-5.326700">
        <ele>603.099</ele>
        <time>2020-05-21T18:05:12Z</time>
      </trkpt>
      <trkpt lat="43.175300" lon="-5.326680">
        <ele>604.941</ele>
        <time>2020-05-21T18:05:32Z</time>
      </trkpt>
      <trkpt lat="43.175330" lon="-5.326670">
        <ele>606.881</ele>
        <time>2020-05-21T18:05:52Z</time>
      </trkpt>
      <trkpt lat="43.175390" lon="-5.326650">
        <ele>611.109</ele>
        <time>2020-05-21T18:06:12Z</time>
      </trkpt>
      <trkpt lat="43.175420" lon="-5.326620">
        <ele>612.608</ele>
        <time>2020-05-21T18:06:32Z</time>
      </trkpt>
      <trkpt lat="43.175440" lon="-5.326590">
        <ele>613.318</ele>
        <time>2020-05-21T18:06:52Z</time>
      </trkpt>
      <trkpt lat="43.175460" lon="-5.326560">
        <ele>613.983</ele>
        <time>2020-05-21T18:07:12Z</time>
      </trkpt>
      <trkpt lat="43.175480" lon="-5.326520">
        <ele>614.290</ele>
        <time>2020-05-21T18:07:32Z</time>
      </trkpt>
      <trkpt lat="43.175490" lon="-5.326490">
        <ele>614.086</ele>
        <time>2020-05-21T18:07:52Z</time>
      </trkpt>
      <trkpt lat="43.175500" lon="-5.326480">
        <ele>614.595</ele>
        <time>2020-05-21T18:08:12Z</time>
      </trkpt>
      <trkpt lat="43.175510" lon="-5.326430">
        <ele>613.522</ele>
        <time>2020-05-21T18:08:32Z</time>
      </trkpt>
      <trkpt lat="43.175560" lon="-5.326240">
        <ele>613.987</ele>
        <time>2020-05-21T18:08:52Z</time>
      </trkpt>
      <trkpt lat="43.175610" lon="-5.326110">
        <ele>618.031</ele>
        <time>2020-05-21T18:09:12Z</time>
      </trkpt>
      <trkpt lat="43.175630" lon="-5.326070">
        <ele>620.365</ele>
        <time>2020-05-21T18:09:32Z</time>
      </trkpt>
      <trkpt lat="43.175650" lon="-5.326050">
        <ele>622.768</ele>
        <time>2020-05-21T18:09:52Z</time>
      </trkpt>
      <trkpt lat="43.175670" lon="-5.326010">
        <ele>625.014</ele>
        <time>2020-05-21T18:10:12Z</time>
      </trkpt>
      <trkpt lat="43.175680" lon="-5.325980">
        <ele>626.008</ele>
        <time>2020-05-21T18:10:32Z</time>
      </trkpt>
      <trkpt lat="43.175680" lon="-5.325970">
        <ele>625.910</ele>
        <time>2020-05-21T18:10:52Z</time>
      </trkpt>
      <trkpt lat="43.175690" lon="-5.325940">
        <ele>626.955</ele>
        <time>2020-05-21T18:11:12Z</time>
      </trkpt>
      <trkpt lat="43.175690" lon="-5.325910">
        <ele>626.622</ele>
        <time>2020-05-21T18:11:32Z</time>
      </trkpt>
      <trkpt lat="43.175690" lon="-5.325890">
        <ele>626.438</ele>
        <time>2020-05-21T18:11:52Z</time>
      </trkpt>
      <trkpt lat="43.175680" lon="-5.325860">
        <ele>624.997</ele>
        <time>2020-05-21T18:12:12Z</time>
      </trkpt>
      <trkpt lat="43.175680" lon="-5.325850">
        <ele>624.894</ele>
        <time>2020-05-21T18:12:32Z</time>
      </trkpt>
      <trkpt lat="43.175670" lon="-5.325800">
        <ele>623.199</ele>
        <time>2020-05-21T18:12:52Z</time>
      </trkpt>
      <trkpt lat="43.175670" lon="-5.325770">
        <ele>622.943</ele>
        <time>2020-05-21T18:13:12Z</time>
      </trkpt>
      <trkpt lat="43.175660" lon="-5.325710">
        <ele>621.236</ele>
        <time>2020-05-21T18:13:32Z</time>
      </trkpt>
      <trkpt lat="43.175670" lon="-5.325670">
        <ele>622.017</ele>
        <time>2020-05-21T18:13:52Z</time>
      </trkpt>
      <trkpt lat="43.175670" lon="-5.325610">
        <ele>621.418</ele>
        <time>2020-05-21T18:14:12Z</time>
      </trkpt>
      <trkpt lat="43.175670" lon="-5.325600">
        <ele>621.308</ele>
        <time>2020-05-21T18:14:32Z</time>
      </trkpt>
      <trkpt lat="43.175670" lon="-5.325560">
        <ele>621.097</ele>
        <time>2020-05-21T18:14:52Z</time>
      </trkpt>
      <trkpt lat="43.175670" lon="-5.325540">
        <ele>620.952</ele>
        <time>2020-05-21T18:15:12Z</time>
      </trkpt>
      <trkpt lat="43.175670" lon="-5.325490">
        <ele>620.969</ele>
        <time>2020-05-21T18:15:32Z</time>
      </trkpt>
      <trkpt lat="43.175670" lon="-5.325480">
        <ele>620.915</ele>
        <time>2020-05-21T18:15:52Z</time>
      </trkpt>
      <trkpt lat="43.175680" lon="-5.325450">
        <ele>621.944</ele>
        <time>2020-05-21T18:16:12Z</time>
      </trkpt>
      <trkpt lat="43.175680" lon="-5.325420">
        <ele>621.851</ele>
        <time>2020-05-21T18:16:32Z</time>
      </trkpt>
      <trkpt lat="43.175680" lon="-5.325400">
        <ele>621.856</ele>
        <time>2020-05-21T18:16:52Z</time>
      </trkpt>
      <trkpt lat="43.175680" lon="-5.325370">
        <ele>621.810</ele>
        <time>2020-05-21T18:17:12Z</time>
      </trkpt>
      <trkpt lat="43.175670" lon="-5.325360">
        <ele>620.812</ele>
        <time>2020-05-21T18:17:32Z</time>
      </trkpt>
      <trkpt lat="43.175670" lon="-5.325300">
        <ele>620.732</ele>
        <time>2020-05-21T18:17:52Z</time>
      </trkpt>
      <trkpt lat="43.175650" lon="-5.325200">
        <ele>620.505</ele>
        <time>2020-05-21T18:18:12Z</time>
      </trkpt>
      <trkpt lat="43.175630" lon="-5.325120">
        <ele>620.308</ele>
        <time>2020-05-21T18:18:32Z</time>
      </trkpt>
      <trkpt lat="43.175600" lon="-5.325050">
        <ele>618.785</ele>
        <time>2020-05-21T18:18:52Z</time>
      </trkpt>
      <trkpt lat="43.175560" lon="-5.324980">
        <ele>616.250</ele>
        <time>2020-05-21T18:19:12Z</time>
      </trkpt>
      <trkpt lat="43.175500" lon="-5.324890">
        <ele>616.037</ele>
        <time>2020-05-21T18:19:32Z</time>
      </trkpt>
      <trkpt lat="43.175440" lon="-5.324820">
        <ele>615.343</ele>
        <time>2020-05-21T18:19:52Z</time>
      </trkpt>
      <trkpt lat="43.175380" lon="-5.324770">
        <ele>613.982</ele>
        <time>2020-05-21T18:20:12Z</time>
      </trkpt>
      <trkpt lat="43.175280" lon="-5.324700">
        <ele>611.499</ele>
        <time>2020-05-21T18:20:32Z</time>
      </trkpt>
      <trkpt lat="43.175220" lon="-5.324660">
        <ele>611.634</ele>
        <time>2020-05-21T18:20:52Z</time>
      </trkpt>
      <trkpt lat="43.175180" lon="-5.324640">
        <ele>611.318</ele>
        <time>2020-05-21T18:21:12Z</time>
      </trkpt>
      <trkpt lat="43.175130" lon="-5.324630">
        <ele>610.223</ele>
        <time>2020-05-21T18:21:32Z</time>
      </trkpt>
      <trkpt lat="43.175080" lon="-5.324610">
        <ele>609.683</ele>
        <time>2020-05-21T18:21:52Z</time>
      </trkpt>
      <trkpt lat="43.175050" lon="-5.324600">
        <ele>609.211</ele>
        <time>2020-05-21T18:22:12Z</time>
      </trkpt>
      <trkpt lat="43.175000" lon="-5.324570">
        <ele>609.308</ele>
        <time>2020-05-21T18:22:32Z</time>
      </trkpt>
      <trkpt lat="43.174940" lon="-5.324520">
        <ele>609.916</ele>
        <time>2020-05-21T18:22:52Z</time>
      </trkpt>
      <trkpt lat="43.174850" lon="-5.324440">
        <ele>609.741</ele>
        <time>2020-05-21T18:23:12Z</time>
      </trkpt>
      <trkpt lat="43.174810" lon="-5.324400">
        <ele>609.738</ele>
        <time>2020-05-21T18:23:32Z</time>
      </trkpt>
      <trkpt lat="43.174760" lon="-5.324360">
        <ele>609.264</ele>
        <time>2020-05-21T18:23:52Z</time>
      </trkpt>
      <trkpt lat="43.174730" lon="-5.324330">
        <ele>609.253</ele>
        <time>2020-05-21T18:24:12Z</time>
      </trkpt>
      <trkpt lat="43.174710" lon="-5.324290">
        <ele>610.290</ele>
        <time>2020-05-21T18:24:32Z</time>
      </trkpt>
      <trkpt lat="43.174690" lon="-5.324260">
        <ele>610.485</ele>
        <time>2020-05-21T18:24:52Z</time>
      </trkpt>
      <trkpt lat="43.174670" lon="-5.324230">
        <ele>610.289</ele>
        <time>2020-05-21T18:25:12Z</time>
      </trkpt>
      <trkpt lat="43.174660" lon="-5.324190">
        <ele>610.762</ele>
        <time>2020-05-21T18:25:32Z</time>
      </trkpt>
      <trkpt lat="43.174640" lon="-5.324120">
        <ele>611.783</ele>
        <time>2020-05-21T18:25:52Z</time>
      </trkpt>
      <trkpt lat="43.174590" lon="-5.323950">
        <ele>614.511</ele>
        <time>2020-05-21T18:26:12Z</time>
      </trkpt>
      <trkpt lat="43.174570" lon="-5.323910">
        <ele>614.308</ele>
        <time>2020-05-21T18:26:32Z</time>
      </trkpt>
      <trkpt lat="43.174510" lon="-5.323680">
        <ele>619.540</ele>
        <time>2020-05-21T18:26:52Z</time>
      </trkpt>
      <trkpt lat="43.174460" lon="-5.323530">
        <ele>620.785</ele>
        <time>2020-05-21T18:27:12Z</time>
      </trkpt>
      <trkpt lat="43.174440" lon="-5.323450">
        <ele>622.212</ele>
        <time>2020-05-21T18:27:32Z</time>
      </trkpt>
      <trkpt lat="43.174420" lon="-5.323420">
        <ele>622.268</ele>
        <time>2020-05-21T18:27:52Z</time>
      </trkpt>
      <trkpt lat="43.174410" lon="-5.323400">
        <ele>622.477</ele>
        <time>2020-05-21T18:28:12Z</time>
      </trkpt>
      <trkpt lat="43.174380" lon="-5.323370">
        <ele>621.754</ele>
        <time>2020-05-21T18:28:32Z</time>
      </trkpt>
      <trkpt lat="43.174370" lon="-5.323350">
        <ele>621.989</ele>
        <time>2020-05-21T18:28:52Z</time>
      </trkpt>
      <trkpt lat="43.174330" lon="-5.323330">
        <ele>620.083</ele>
        <time>2020-05-21T18:29:12Z</time>
      </trkpt>
      <trkpt lat="43.174230" lon="-5.323240">
        <ele>618.066</ele>
        <time>2020-05-21T18:29:32Z</time>
      </trkpt>
      <trkpt lat="43.174130" lon="-5.323150">
        <ele>617.229</ele>
        <time>2020-05-21T18:29:52Z</time>
      </trkpt>
      <trkpt lat="43.174080" lon="-5.323110">
        <ele>617.621</ele>
        <time>2020-05-21T18:30:12Z</time>
      </trkpt>
      <trkpt lat="43.174070" lon="-5.323100">
        <ele>617.708</ele>
        <time>2020-05-21T18:30:32Z</time>
      </trkpt>
      <trkpt lat="43.174040" lon="-5.323100">
        <ele>616.660</ele>
        <time>2020-05-21T18:30:52Z</time>
      </trkpt>
      <trkpt lat="43.174020" lon="-5.323100">
        <ele>615.835</ele>
        <time>2020-05-21T18:31:12Z</time>
      </trkpt>
      <trkpt lat="43.173990" lon="-5.323100">
        <ele>614.632</ele>
        <time>2020-05-21T18:31:32Z</time>
      </trkpt>
      <trkpt lat="43.173930" lon="-5.323110">
        <ele>611.828</ele>
        <time>2020-05-21T18:31:52Z</time>
      </trkpt>
      <trkpt lat="43.173850" lon="-5.323110">
        <ele>609.287</ele>
        <time>2020-05-21T18:32:12Z</time>
      </trkpt>
      <trkpt lat="43.173820" lon="-5.323110">
        <ele>608.554</ele>
        <time>2020-05-21T18:32:32Z</time>
      </trkpt>
      <trkpt lat="43.173800" lon="-5.323100">
        <ele>608.559</ele>
        <time>2020-05-21T18:32:52Z</time>
      </trkpt>
      <trkpt lat="43.173790" lon="-5.323090">
        <ele>608.783</ele>
        <time>2020-05-21T18:33:12Z</time>
      </trkpt>
      <trkpt lat="43.173760" lon="-5.323070">
        <ele>609.084</ele>
        <time>2020-05-21T18:33:32Z</time>
      </trkpt>
      <trkpt lat="43.173690" lon="-5.323010">
        <ele>610.707</ele>
        <time>2020-05-21T18:33:52Z</time>
      </trkpt>
      <trkpt lat="43.173650" lon="-5.322970">
        <ele>611.817</ele>
        <time>2020-05-21T18:34:12Z</time>
      </trkpt>
      <trkpt lat="43.173640" lon="-5.322970">
        <ele>611.508</ele>
        <time>2020-05-21T18:34:32Z</time>
      </trkpt>
      <trkpt lat="43.173560" lon="-5.322870">
        <ele>613.392</ele>
        <time>2020-05-21T18:34:52Z</time>
      </trkpt>
      <trkpt lat="43.173490" lon="-5.322760">
        <ele>615.047</ele>
        <time>2020-05-21T18:35:12Z</time>
      </trkpt>
      <trkpt lat="43.173440" lon="-5.322690">
        <ele>616.084</ele>
        <time>2020-05-21T18:35:32Z</time>
      </trkpt>
      <trkpt lat="43.173410" lon="-5.322660">
        <ele>615.960</ele>
        <time>2020-05-21T18:35:52Z</time>
      </trkpt>
      <trkpt lat="43.173390" lon="-5.322640">
        <ele>615.859</ele>
        <time>2020-05-21T18:36:12Z</time>
      </trkpt>
      <trkpt lat="43.173370" lon="-5.322630">
        <ele>615.236</ele>
        <time>2020-05-21T18:36:32Z</time>
      </trkpt>
      <trkpt lat="43.173340" lon="-5.322610">
        <ele>614.571</ele>
        <time>2020-05-21T18:36:52Z</time>
      </trkpt>
      <trkpt lat="43.173290" lon="-5.322590">
        <ele>613.685</ele>
        <time>2020-05-21T18:37:12Z</time>
      </trkpt>
      <trkpt lat="43.173230" lon="-5.322570">
        <ele>612.422</ele>
        <time>2020-05-21T18:37:32Z</time>
      </trkpt>
      <trkpt lat="43.173170" lon="-5.322540">
        <ele>611.662</ele>
        <time>2020-05-21T18:37:52Z</time>
      </trkpt>
      <trkpt lat="43.173150" lon="-5.322530">
        <ele>611.308</ele>
        <time>2020-05-21T18:38:12Z</time>
      </trkpt>
      <trkpt lat="43.173140" lon="-5.322520">
        <ele>611.408</ele>
        <time>2020-05-21T18:38:32Z</time>
      </trkpt>
      <trkpt lat="43.173120" lon="-5.322510">
        <ele>611.196</ele>
        <time>2020-05-21T18:38:52Z</time>
      </trkpt>
      <trkpt lat="43.173100" lon="-5.322490">
        <ele>611.091</ele>
        <time>2020-05-21T18:39:12Z</time>
      </trkpt>
      <trkpt lat="43.173080" lon="-5.322460">
        <ele>610.988</ele>
        <time>2020-05-21T18:39:32Z</time>
      </trkpt>
      <trkpt lat="43.173070" lon="-5.322430">
        <ele>611.154</ele>
        <time>2020-05-21T18:39:52Z</time>
      </trkpt>
      <trkpt lat="43.173050" lon="-5.322400">
        <ele>610.913</ele>
        <time>2020-05-21T18:40:12Z</time>
      </trkpt>
      <trkpt lat="43.173010" lon="-5.322300">
        <ele>611.260</ele>
        <time>2020-05-21T18:40:32Z</time>
      </trkpt>
      <trkpt lat="43.172980" lon="-5.322210">
        <ele>611.875</ele>
        <time>2020-05-21T18:40:52Z</time>
      </trkpt>
      <trkpt lat="43.172950" lon="-5.322090">
        <ele>613.219</ele>
        <time>2020-05-21T18:41:12Z</time>
      </trkpt>
      <trkpt lat="43.172920" lon="-5.322020">
        <ele>613.463</ele>
        <time>2020-05-21T18:41:32Z</time>
      </trkpt>
      <trkpt lat="43.172880" lon="-5.321910">
        <ele>614.444</ele>
        <time>2020-05-21T18:41:52Z</time>
      </trkpt>
      <trkpt lat="43.172840" lon="-5.321850">
        <ele>614.318</ele>
        <time>2020-05-21T18:42:12Z</time>
      </trkpt>
      <trkpt lat="43.172810" lon="-5.321810">
        <ele>614.108</ele>
        <time>2020-05-21T18:42:32Z</time>
      </trkpt>
      <trkpt lat="43.172790" lon="-5.321780">
        <ele>614.020</ele>
        <time>2020-05-21T18:42:52Z</time>
      </trkpt>
      <trkpt lat="43.172760" lon="-5.321760">
        <ele>613.545</ele>
        <time>2020-05-21T18:43:12Z</time>
      </trkpt>
      <trkpt lat="43.172720" lon="-5.321740">
        <ele>613.092</ele>
        <time>2020-05-21T18:43:32Z</time>
      </trkpt>
      <trkpt lat="43.172660" lon="-5.321710">
        <ele>612.278</ele>
        <time>2020-05-21T18:43:52Z</time>
      </trkpt>
      <trkpt lat="43.172410" lon="-5.321590">
        <ele>609.637</ele>
        <time>2020-05-21T18:44:12Z</time>
      </trkpt>
      <trkpt lat="43.172300" lon="-5.321540">
        <ele>608.454</ele>
        <time>2020-05-21T18:44:32Z</time>
      </trkpt>
      <trkpt lat="43.172230" lon="-5.321510">
        <ele>607.429</ele>
        <time>2020-05-21T18:44:52Z</time>
      </trkpt>
      <trkpt lat="43.172210" lon="-5.321500">
        <ele>607.383</ele>
        <time>2020-05-21T18:45:12Z</time>
      </trkpt>
      <trkpt lat="43.172160" lon="-5.321460">
        <ele>607.588</ele>
        <time>2020-05-21T18:45:32Z</time>
      </trkpt>
      <trkpt lat="43.172130" lon="-5.321440">
        <ele>607.524</ele>
        <time>2020-05-21T18:45:52Z</time>
      </trkpt>
      <trkpt lat="43.172130" lon="-5.321430">
        <ele>608.026</ele>
        <time>2020-05-21T18:46:12Z</time>
      </trkpt>
      <trkpt lat="43.172090" lon="-5.321400">
        <ele>608.208</ele>
        <time>2020-05-21T18:46:32Z</time>
      </trkpt>
      <trkpt lat="43.172010" lon="-5.321300">
        <ele>609.882</ele>
        <time>2020-05-21T18:46:52Z</time>
      </trkpt>
      <trkpt lat="43.172000" lon="-5.321280">
        <ele>610.267</ele>
        <time>2020-05-21T18:47:12Z</time>
      </trkpt>
      <trkpt lat="43.171880" lon="-5.321150">
        <ele>610.674</ele>
        <time>2020-05-21T18:47:32Z</time>
      </trkpt>
      <trkpt lat="43.171730" lon="-5.320970">
        <ele>611.790</ele>
        <time>2020-05-21T18:47:52Z</time>
      </trkpt>
      <trkpt lat="43.171610" lon="-5.320830">
        <ele>611.789</ele>
        <time>2020-05-21T18:48:12Z</time>
      </trkpt>
      <trkpt lat="43.171570" lon="-5.320770">
        <ele>612.066</ele>
        <time>2020-05-21T18:48:32Z</time>
      </trkpt>
      <trkpt lat="43.171490" lon="-5.320650">
        <ele>613.131</ele>
        <time>2020-05-21T18:48:52Z</time>
      </trkpt>
      <trkpt lat="43.171410" lon="-5.320470">
        <ele>615.755</ele>
        <time>2020-05-21T18:49:12Z</time>
      </trkpt>
      <trkpt lat="43.171370" lon="-5.320400">
        <ele>615.741</ele>
        <time>2020-05-21T18:49:32Z</time>
      </trkpt>
      <trkpt lat="43.171340" lon="-5.320340">
        <ele>616.181</ele>
        <time>2020-05-21T18:49:52Z</time>
      </trkpt>
      <trkpt lat="43.171280" lon="-5.320190">
        <ele>617.809</ele>
        <time>2020-05-21T18:50:12Z</time>
      </trkpt>
      <trkpt lat="43.171190" lon="-5.320000">
        <ele>618.808</ele>
        <time>2020-05-21T18:50:32Z</time>
      </trkpt>
      <trkpt lat="43.171030" lon="-5.319620">
        <ele>617.748</ele>
        <time>2020-05-21T18:50:52Z</time>
      </trkpt>
      <trkpt lat="43.170840" lon="-5.319200">
        <ele>618.653</ele>
        <time>2020-05-21T18:51:12Z</time>
      </trkpt>
      <trkpt lat="43.170770" lon="-5.319020">
        <ele>619.660</ele>
        <time>2020-05-21T18:51:32Z</time>
      </trkpt>
      <trkpt lat="43.170720" lon="-5.318880">
        <ele>620.686</ele>
        <time>2020-05-21T18:51:52Z</time>
      </trkpt>
      <trkpt lat="43.170680" lon="-5.318690">
        <ele>621.495</ele>
        <time>2020-05-21T18:52:12Z</time>
      </trkpt>
      <trkpt lat="43.170630" lon="-5.318450">
        <ele>622.762</ele>
        <time>2020-05-21T18:52:32Z</time>
      </trkpt>
      <trkpt lat="43.170580" lon="-5.318210">
        <ele>623.647</ele>
        <time>2020-05-21T18:52:52Z</time>
      </trkpt>
      <trkpt lat="43.170560" lon="-5.318130">
        <ele>623.411</ele>
        <time>2020-05-21T18:53:12Z</time>
      </trkpt>
      <trkpt lat="43.170530" lon="-5.317990">
        <ele>624.537</ele>
        <time>2020-05-21T18:53:32Z</time>
      </trkpt>
      <trkpt lat="43.170510" lon="-5.317930">
        <ele>625.049</ele>
        <time>2020-05-21T18:53:52Z</time>
      </trkpt>
      <trkpt lat="43.170500" lon="-5.317880">
        <ele>625.613</ele>
        <time>2020-05-21T18:54:12Z</time>
      </trkpt>
      <trkpt lat="43.170470" lon="-5.317820">
        <ele>625.808</ele>
        <time>2020-05-21T18:54:32Z</time>
      </trkpt>
      <trkpt lat="43.170410" lon="-5.317720">
        <ele>625.947</ele>
        <time>2020-05-21T18:54:52Z</time>
      </trkpt>
      <trkpt lat="43.170220" lon="-5.317470">
        <ele>624.622</ele>
        <time>2020-05-21T18:55:12Z</time>
      </trkpt>
      <trkpt lat="43.170090" lon="-5.317300">
        <ele>625.029</ele>
        <time>2020-05-21T18:55:32Z</time>
      </trkpt>
      <trkpt lat="43.170040" lon="-5.317250">
        <ele>624.685</ele>
        <time>2020-05-21T18:55:52Z</time>
      </trkpt>
      <trkpt lat="43.169900" lon="-5.317110">
        <ele>624.914</ele>
        <time>2020-05-21T18:56:12Z</time>
      </trkpt>
      <trkpt lat="43.169830" lon="-5.317040">
        <ele>625.461</ele>
        <time>2020-05-21T18:56:32Z</time>
      </trkpt>
      <trkpt lat="43.169660" lon="-5.316880">
        <ele>626.396</ele>
        <time>2020-05-21T18:56:52Z</time>
      </trkpt>
      <trkpt lat="43.169450" lon="-5.316690">
        <ele>626.760</ele>
        <time>2020-05-21T18:57:12Z</time>
      </trkpt>
      <trkpt lat="43.169270" lon="-5.316530">
        <ele>628.349</ele>
        <time>2020-05-21T18:57:32Z</time>
      </trkpt>
      <trkpt lat="43.169170" lon="-5.316440">
        <ele>629.302</ele>
        <time>2020-05-21T18:57:52Z</time>
      </trkpt>
      <trkpt lat="43.169150" lon="-5.316420">
        <ele>629.422</ele>
        <time>2020-05-21T18:58:12Z</time>
      </trkpt>
      <trkpt lat="43.168990" lon="-5.316300">
        <ele>630.108</ele>
        <time>2020-05-21T18:58:32Z</time>
      </trkpt>
      <trkpt lat="43.168970" lon="-5.316280">
        <ele>630.328</ele>
        <time>2020-05-21T18:58:52Z</time>
      </trkpt>
      <trkpt lat="43.168840" lon="-5.316170">
        <ele>630.893</ele>
        <time>2020-05-21T18:59:12Z</time>
      </trkpt>
      <trkpt lat="43.168840" lon="-5.316160">
        <ele>630.930</ele>
        <time>2020-05-21T18:59:32Z</time>
      </trkpt>
      <trkpt lat="43.168760" lon="-5.316080">
        <ele>631.616</ele>
        <time>2020-05-21T18:59:52Z</time>
      </trkpt>
      <trkpt lat="43.168720" lon="-5.316030">
        <ele>632.185</ele>
        <time>2020-05-21T19:00:12Z</time>
      </trkpt>
      <trkpt lat="43.168700" lon="-5.316010">
        <ele>632.282</ele>
        <time>2020-05-21T19:00:32Z</time>
      </trkpt>
      <trkpt lat="43.168660" lon="-5.315960">
        <ele>632.627</ele>
        <time>2020-05-21T19:00:52Z</time>
      </trkpt>
      <trkpt lat="43.168570" lon="-5.315840">
        <ele>633.621</ele>
        <time>2020-05-21T19:01:12Z</time>
      </trkpt>
      <trkpt lat="43.168500" lon="-5.315740">
        <ele>634.526</ele>
        <time>2020-05-21T19:01:32Z</time>
      </trkpt>
      <trkpt lat="43.168400" lon="-5.315620">
        <ele>635.647</ele>
        <time>2020-05-21T19:01:52Z</time>
      </trkpt>
      <trkpt lat="43.168280" lon="-5.315500">
        <ele>636.811</ele>
        <time>2020-05-21T19:02:12Z</time>
      </trkpt>
      <trkpt lat="43.168090" lon="-5.315330">
        <ele>638.508</ele>
        <time>2020-05-21T19:02:32Z</time>
      </trkpt>
      <trkpt lat="43.167840" lon="-5.315090">
        <ele>640.746</ele>
        <time>2020-05-21T19:02:52Z</time>
      </trkpt>
      <trkpt lat="43.167700" lon="-5.314960">
        <ele>641.471</ele>
        <time>2020-05-21T19:03:12Z</time>
      </trkpt>
      <trkpt lat="43.167610" lon="-5.314880">
        <ele>641.958</ele>
        <time>2020-05-21T19:03:32Z</time>
      </trkpt>
      <trkpt lat="43.167590" lon="-5.314870">
        <ele>641.994</ele>
        <time>2020-05-21T19:03:52Z</time>
      </trkpt>
      <trkpt lat="43.167480" lon="-5.314780">
        <ele>642.923</ele>
        <time>2020-05-21T19:04:12Z</time>
      </trkpt>
      <trkpt lat="43.167300" lon="-5.314650">
        <ele>644.020</ele>
        <time>2020-05-21T19:04:32Z</time>
      </trkpt>
      <trkpt lat="43.167170" lon="-5.314570">
        <ele>644.925</ele>
        <time>2020-05-21T19:04:52Z</time>
      </trkpt>
      <trkpt lat="43.166750" lon="-5.314290">
        <ele>647.559</ele>
        <time>2020-05-21T19:05:12Z</time>
      </trkpt>
      <trkpt lat="43.166510" lon="-5.314140">
        <ele>649.495</ele>
        <time>2020-05-21T19:05:32Z</time>
      </trkpt>
      <trkpt lat="43.166200" lon="-5.313960">
        <ele>651.049</ele>
        <time>2020-05-21T19:05:52Z</time>
      </trkpt>
      <trkpt lat="43.166050" lon="-5.313880">
        <ele>650.723</ele>
        <time>2020-05-21T19:06:12Z</time>
      </trkpt>
      <trkpt lat="43.165990" lon="-5.313840">
        <ele>650.408</ele>
        <time>2020-05-21T19:06:32Z</time>
      </trkpt>
      <trkpt lat="43.165980" lon="-5.313840">
        <ele>650.163</ele>
        <time>2020-05-21T19:06:52Z</time>
      </trkpt>
      <trkpt lat="43.165940" lon="-5.313770">
        <ele>651.028</ele>
        <time>2020-05-21T19:07:12Z</time>
      </trkpt>
      <trkpt lat="43.165920" lon="-5.313710">
        <ele>652.125</ele>
        <time>2020-05-21T19:07:32Z</time>
      </trkpt>
      <trkpt lat="43.165920" lon="-5.313630">
        <ele>654.351</ele>
        <time>2020-05-21T19:07:52Z</time>
      </trkpt>
      <trkpt lat="43.165920" lon="-5.313620">
        <ele>654.650</ele>
        <time>2020-05-21T19:08:12Z</time>
      </trkpt>
      <trkpt lat="43.165910" lon="-5.313530">
        <ele>654.567</ele>
        <time>2020-05-21T19:08:32Z</time>
      </trkpt>
      <trkpt lat="43.165910" lon="-5.313450">
        <ele>654.582</ele>
        <time>2020-05-21T19:08:52Z</time>
      </trkpt>
      <trkpt lat="43.165920" lon="-5.313380">
        <ele>655.056</ele>
        <time>2020-05-21T19:09:12Z</time>
      </trkpt>
      <trkpt lat="43.165920" lon="-5.313360">
        <ele>655.099</ele>
        <time>2020-05-21T19:09:32Z</time>
      </trkpt>
      <trkpt lat="43.165930" lon="-5.313290">
        <ele>654.407</ele>
        <time>2020-05-21T19:09:52Z</time>
      </trkpt>
      <trkpt lat="43.165960" lon="-5.313220">
        <ele>653.927</ele>
        <time>2020-05-21T19:10:12Z</time>
      </trkpt>
      <trkpt lat="43.165990" lon="-5.313160">
        <ele>653.608</ele>
        <time>2020-05-21T19:10:32Z</time>
      </trkpt>
      <trkpt lat="43.166010" lon="-5.313120">
        <ele>653.473</ele>
        <time>2020-05-21T19:10:52Z</time>
      </trkpt>
      <trkpt lat="43.166100" lon="-5.313010">
        <ele>654.258</ele>
        <time>2020-05-21T19:11:12Z</time>
      </trkpt>
      <trkpt lat="43.166200" lon="-5.312910">
        <ele>655.335</ele>
        <time>2020-05-21T19:11:32Z</time>
      </trkpt>
      <trkpt lat="43.166260" lon="-5.312850">
        <ele>655.711</ele>
        <time>2020-05-21T19:11:52Z</time>
      </trkpt>
      <trkpt lat="43.166300" lon="-5.312810">
        <ele>655.970</ele>
        <time>2020-05-21T19:12:12Z</time>
      </trkpt>
      <trkpt lat="43.166340" lon="-5.312720">
        <ele>655.437</ele>
        <time>2020-05-21T19:12:32Z</time>
      </trkpt>
      <trkpt lat="43.166350" lon="-5.312640">
        <ele>654.572</ele>
        <time>2020-05-21T19:12:52Z</time>
      </trkpt>
      <trkpt lat="43.166360" lon="-5.312580">
        <ele>653.826</ele>
        <time>2020-05-21T19:13:12Z</time>
      </trkpt>
      <trkpt lat="43.166360" lon="-5.312530">
        <ele>653.163</ele>
        <time>2020-05-21T19:13:32Z</time>
      </trkpt>
      <trkpt lat="43.166350" lon="-5.312490">
        <ele>652.644</ele>
        <time>2020-05-21T19:13:52Z</time>
      </trkpt>
      <trkpt lat="43.166340" lon="-5.312460">
        <ele>653.118</ele>
        <time>2020-05-21T19:14:12Z</time>
      </trkpt>
      <trkpt lat="43.166340" lon="-5.312450">
        <ele>653.408</ele>
        <time>2020-05-21T19:14:32Z</time>
      </trkpt>
      <trkpt lat="43.166340" lon="-5.312440">
        <ele>653.620</ele>
        <time>2020-05-21T19:14:52Z</time>
      </trkpt>
      <trkpt lat="43.166330" lon="-5.312440">
        <ele>653.585</ele>
        <time>2020-05-21T19:15:12Z</time>
      </trkpt>
      <trkpt lat="43.166310" lon="-5.312430">
        <ele>653.572</ele>
        <time>2020-05-21T19:15:32Z</time>
      </trkpt>
      <trkpt lat="43.166290" lon="-5.312430">
        <ele>653.348</ele>
        <time>2020-05-21T19:15:52Z</time>
      </trkpt>
      <trkpt lat="43.166240" lon="-5.312430">
        <ele>652.867</ele>
        <time>2020-05-21T19:16:12Z</time>
      </trkpt>
      <trkpt lat="43.166150" lon="-5.312470">
        <ele>650.674</ele>
        <time>2020-05-21T19:16:32Z</time>
      </trkpt>
      <trkpt lat="43.166130" lon="-5.312480">
        <ele>650.099</ele>
        <time>2020-05-21T19:16:52Z</time>
      </trkpt>
      <trkpt lat="43.166060" lon="-5.312500">
        <ele>649.263</ele>
        <time>2020-05-21T19:17:12Z</time>
      </trkpt>
      <trkpt lat="43.165960" lon="-5.312540">
        <ele>648.732</ele>
        <time>2020-05-21T19:17:32Z</time>
      </trkpt>
      <trkpt lat="43.165950" lon="-5.312540">
        <ele>648.792</ele>
        <time>2020-05-21T19:17:52Z</time>
      </trkpt>
      <trkpt lat="43.165900" lon="-5.312560">
        <ele>648.111</ele>
        <time>2020-05-21T19:18:12Z</time>
      </trkpt>
      <trkpt lat="43.165810" lon="-5.312580">
        <ele>646.808</ele>
        <time>2020-05-21T19:18:32Z</time>
      </trkpt>
      <trkpt lat="43.165710" lon="-5.312590">
        <ele>645.397</ele>
        <time>2020-05-21T19:18:52Z</time>
      </trkpt>
      <trkpt lat="43.165640" lon="-5.312580">
        <ele>644.852</ele>
        <time>2020-05-21T19:19:12Z</time>
      </trkpt>
      <trkpt lat="43.165600" lon="-5.312560">
        <ele>645.179</ele>
        <time>2020-05-21T19:19:32Z</time>
      </trkpt>
      <trkpt lat="43.165560" lon="-5.312540">
        <ele>645.575</ele>
        <time>2020-05-21T19:19:52Z</time>
      </trkpt>
      <trkpt lat="43.165320" lon="-5.312450">
        <ele>645.364</ele>
        <time>2020-05-21T19:20:12Z</time>
      </trkpt>
      <trkpt lat="43.165220" lon="-5.312420">
        <ele>644.751</ele>
        <time>2020-05-21T19:20:32Z</time>
      </trkpt>
      <trkpt lat="43.165150" lon="-5.312400">
        <ele>644.246</ele>
        <time>2020-05-21T19:20:52Z</time>
      </trkpt>
      <trkpt lat="43.165080" lon="-5.312380">
        <ele>643.710</ele>
        <time>2020-05-21T19:21:12Z</time>
      </trkpt>
      <trkpt lat="43.165050" lon="-5.312370">
        <ele>643.545</ele>
        <time>2020-05-21T19:21:32Z</time>
      </trkpt>
      <trkpt lat="43.164910" lon="-5.312290">
        <ele>642.547</ele>
        <time>2020-05-21T19:21:52Z</time>
      </trkpt>
      <trkpt lat="43.164810" lon="-5.312240">
        <ele>641.011</ele>
        <time>2020-05-21T19:22:12Z</time>
      </trkpt>
      <trkpt lat="43.164740" lon="-5.312170">
        <ele>640.508</ele>
        <time>2020-05-21T19:22:32Z</time>
      </trkpt>
      <trkpt lat="43.164670" lon="-5.312100">
        <ele>638.538</ele>
        <time>2020-05-21T19:22:52Z</time>
      </trkpt>
      <trkpt lat="43.164620" lon="-5.312040">
        <ele>637.263</ele>
        <time>2020-05-21T19:23:12Z</time>
      </trkpt>
      <trkpt lat="43.164620" lon="-5.312030">
        <ele>637.450</ele>
        <time>2020-05-21T19:23:32Z</time>
      </trkpt>
      <trkpt lat="43.164570" lon="-5.311940">
        <ele>636.946</ele>
        <time>2020-05-21T19:23:52Z</time>
      </trkpt>
      <trkpt lat="43.164550" lon="-5.311870">
        <ele>637.125</ele>
        <time>2020-05-21T19:24:12Z</time>
      </trkpt>
      <trkpt lat="43.164530" lon="-5.311810">
        <ele>637.112</ele>
        <time>2020-05-21T19:24:32Z</time>
      </trkpt>
      <trkpt lat="43.164500" lon="-5.311750">
        <ele>636.877</ele>
        <time>2020-05-21T19:24:52Z</time>
      </trkpt>
      <trkpt lat="43.164470" lon="-5.311660">
        <ele>637.141</ele>
        <time>2020-05-21T19:25:12Z</time>
      </trkpt>
      <trkpt lat="43.164440" lon="-5.311560">
        <ele>637.375</ele>
        <time>2020-05-21T19:25:32Z</time>
      </trkpt>
      <trkpt lat="43.164400" lon="-5.311480">
        <ele>636.828</ele>
        <time>2020-05-21T19:25:52Z</time>
      </trkpt>
      <trkpt lat="43.164370" lon="-5.311420">
        <ele>636.720</ele>
        <time>2020-05-21T19:26:12Z</time>
      </trkpt>
      <trkpt lat="43.164300" lon="-5.311280">
        <ele>636.608</ele>
        <time>2020-05-21T19:26:32Z</time>
      </trkpt>
      <trkpt lat="43.164280" lon="-5.311230">
        <ele>636.751</ele>
        <time>2020-05-21T19:26:52Z</time>
      </trkpt>
      <trkpt lat="43.164220" lon="-5.311150">
        <ele>636.156</ele>
        <time>2020-05-21T19:27:12Z</time>
      </trkpt>
      <trkpt lat="43.164150" lon="-5.311020">
        <ele>636.043</ele>
        <time>2020-05-21T19:27:32Z</time>
      </trkpt>
      <trkpt lat="43.164130" lon="-5.311000">
        <ele>635.789</ele>
        <time>2020-05-21T19:27:52Z</time>
      </trkpt>
      <trkpt lat="43.164070" lon="-5.310910">
        <ele>635.348</ele>
        <time>2020-05-21T19:28:12Z</time>
      </trkpt>
      <trkpt lat="43.164000" lon="-5.310820">
        <ele>634.955</ele>
        <time>2020-05-21T19:28:32Z</time>
      </trkpt>
      <trkpt lat="43.163990" lon="-5.310810">
        <ele>634.820</ele>
        <time>2020-05-21T19:28:52Z</time>
      </trkpt>
      <trkpt lat="43.163900" lon="-5.310690">
        <ele>634.574</ele>
        <time>2020-05-21T19:29:12Z</time>
      </trkpt>
      <trkpt lat="43.163850" lon="-5.310630">
        <ele>633.628</ele>
        <time>2020-05-21T19:29:32Z</time>
      </trkpt>
      <trkpt lat="43.163750" lon="-5.310480">
        <ele>632.689</ele>
        <time>2020-05-21T19:29:52Z</time>
      </trkpt>
      <trkpt lat="43.163690" lon="-5.310380">
        <ele>632.217</ele>
        <time>2020-05-21T19:30:12Z</time>
      </trkpt>
      <trkpt lat="43.163630" lon="-5.310280">
        <ele>631.808</ele>
        <time>2020-05-21T19:30:32Z</time>
      </trkpt>
      <trkpt lat="43.163400" lon="-5.309910">
        <ele>627.126</ele>
        <time>2020-05-21T19:30:52Z</time>
      </trkpt>
      <trkpt lat="43.163380" lon="-5.309870">
        <ele>627.041</ele>
        <time>2020-05-21T19:31:12Z</time>
      </trkpt>
      <trkpt lat="43.163250" lon="-5.309640">
        <ele>626.248</ele>
        <time>2020-05-21T19:31:32Z</time>
      </trkpt>
      <trkpt lat="43.163210" lon="-5.309550">
        <ele>626.574</ele>
        <time>2020-05-21T19:31:52Z</time>
      </trkpt>
      <trkpt lat="43.163180" lon="-5.309480">
        <ele>626.753</ele>
        <time>2020-05-21T19:32:12Z</time>
      </trkpt>
      <trkpt lat="43.163160" lon="-5.309410">
        <ele>627.390</ele>
        <time>2020-05-21T19:32:32Z</time>
      </trkpt>
      <trkpt lat="43.163110" lon="-5.309260">
        <ele>627.775</ele>
        <time>2020-05-21T19:32:52Z</time>
      </trkpt>
      <trkpt lat="43.163080" lon="-5.309140">
        <ele>628.289</ele>
        <time>2020-05-21T19:33:12Z</time>
      </trkpt>
      <trkpt lat="43.163060" lon="-5.309050">
        <ele>628.025</ele>
        <time>2020-05-21T19:33:32Z</time>
      </trkpt>
      <trkpt lat="43.163050" lon="-5.308980">
        <ele>628.426</ele>
        <time>2020-05-21T19:33:52Z</time>
      </trkpt>
      <trkpt lat="43.162980" lon="-5.308690">
        <ele>628.608</ele>
        <time>2020-05-21T19:34:12Z</time>
      </trkpt>
      <trkpt lat="43.162900" lon="-5.308460">
        <ele>627.608</ele>
        <time>2020-05-21T19:34:32Z</time>
      </trkpt>
      <trkpt lat="43.162890" lon="-5.308440">
        <ele>627.396</ele>
        <time>2020-05-21T19:34:52Z</time>
      </trkpt>
      <trkpt lat="43.162860" lon="-5.308350">
        <ele>626.911</ele>
        <time>2020-05-21T19:35:12Z</time>
      </trkpt>
      <trkpt lat="43.162830" lon="-5.308280">
        <ele>625.618</ele>
        <time>2020-05-21T19:35:32Z</time>
      </trkpt>
      <trkpt lat="43.162790" lon="-5.308210">
        <ele>623.644</ele>
        <time>2020-05-21T19:35:52Z</time>
      </trkpt>
      <trkpt lat="43.162750" lon="-5.308150">
        <ele>622.753</ele>
        <time>2020-05-21T19:36:12Z</time>
      </trkpt>
      <trkpt lat="43.162720" lon="-5.308070">
        <ele>622.920</ele>
        <time>2020-05-21T19:36:32Z</time>
      </trkpt>
      <trkpt lat="43.162670" lon="-5.308020">
        <ele>621.875</ele>
        <time>2020-05-21T19:36:52Z</time>
      </trkpt>
      <trkpt lat="43.162600" lon="-5.307960">
        <ele>620.529</ele>
        <time>2020-05-21T19:37:12Z</time>
      </trkpt>
      <trkpt lat="43.162580" lon="-5.307960">
        <ele>619.925</ele>
        <time>2020-05-21T19:37:32Z</time>
      </trkpt>
      <trkpt lat="43.162480" lon="-5.307920">
        <ele>618.226</ele>
        <time>2020-05-21T19:37:52Z</time>
      </trkpt>
      <trkpt lat="43.162440" lon="-5.307900">
        <ele>618.108</ele>
        <time>2020-05-21T19:38:12Z</time>
      </trkpt>
      <trkpt lat="43.162100" lon="-5.307750">
        <ele>616.908</ele>
        <time>2020-05-21T19:38:32Z</time>
      </trkpt>
      <trkpt lat="43.161780" lon="-5.307620">
        <ele>616.446</ele>
        <time>2020-05-21T19:38:52Z</time>
      </trkpt>
      <trkpt lat="43.161740" lon="-5.307620">
        <ele>616.431</ele>
        <time>2020-05-21T19:39:12Z</time>
      </trkpt>
      <trkpt lat="43.161700" lon="-5.307640">
        <ele>616.098</ele>
        <time>2020-05-21T19:39:32Z</time>
      </trkpt>
      <trkpt lat="43.161670" lon="-5.307660">
        <ele>615.794</ele>
        <time>2020-05-21T19:39:52Z</time>
      </trkpt>
      <trkpt lat="43.161630" lon="-5.307700">
        <ele>615.373</ele>
        <time>2020-05-21T19:40:12Z</time>
      </trkpt>
      <trkpt lat="43.161600" lon="-5.307750">
        <ele>615.080</ele>
        <time>2020-05-21T19:40:32Z</time>
      </trkpt>
      <trkpt lat="43.161580" lon="-5.307800">
        <ele>615.285</ele>
        <time>2020-05-21T19:40:52Z</time>
      </trkpt>
      <trkpt lat="43.161550" lon="-5.307870">
        <ele>616.849</ele>
        <time>2020-05-21T19:41:12Z</time>
      </trkpt>
      <trkpt lat="43.161530" lon="-5.307950">
        <ele>618.577</ele>
        <time>2020-05-21T19:41:32Z</time>
      </trkpt>
      <trkpt lat="43.161500" lon="-5.308050">
        <ele>621.361</ele>
        <time>2020-05-21T19:41:52Z</time>
      </trkpt>
      <trkpt lat="43.161490" lon="-5.308130">
        <ele>621.627</ele>
        <time>2020-05-21T19:42:12Z</time>
      </trkpt>
      <trkpt lat="43.161490" lon="-5.308190">
        <ele>621.508</ele>
        <time>2020-05-21T19:42:32Z</time>
      </trkpt>
      <trkpt lat="43.161490" lon="-5.308210">
        <ele>621.411</ele>
        <time>2020-05-21T19:42:52Z</time>
      </trkpt>
      <trkpt lat="43.161500" lon="-5.308320">
        <ele>621.066</ele>
        <time>2020-05-21T19:43:12Z</time>
      </trkpt>
      <trkpt lat="43.161500" lon="-5.308420">
        <ele>620.633</ele>
        <time>2020-05-21T19:43:32Z</time>
      </trkpt>
      <trkpt lat="43.161510" lon="-5.308500">
        <ele>620.149</ele>
        <time>2020-05-21T19:43:52Z</time>
      </trkpt>
      <trkpt lat="43.161510" lon="-5.308580">
        <ele>619.838</ele>
        <time>2020-05-21T19:44:12Z</time>
      </trkpt>
      <trkpt lat="43.161520" lon="-5.308680">
        <ele>619.675</ele>
        <time>2020-05-21T19:44:32Z</time>
      </trkpt>
      <trkpt lat="43.161520" lon="-5.308810">
        <ele>619.640</ele>
        <time>2020-05-21T19:44:52Z</time>
      </trkpt>
      <trkpt lat="43.161520" lon="-5.309000">
        <ele>619.814</ele>
        <time>2020-05-21T19:45:12Z</time>
      </trkpt>
      <trkpt lat="43.161520" lon="-5.309170">
        <ele>620.171</ele>
        <time>2020-05-21T19:45:32Z</time>
      </trkpt>
      <trkpt lat="43.161510" lon="-5.309270">
        <ele>620.541</ele>
        <time>2020-05-21T19:45:52Z</time>
      </trkpt>
      <trkpt lat="43.161510" lon="-5.309350">
        <ele>620.615</ele>
        <time>2020-05-21T19:46:12Z</time>
      </trkpt>
      <trkpt lat="43.161510" lon="-5.309390">
        <ele>620.708</ele>
        <time>2020-05-21T19:46:32Z</time>
      </trkpt>
      <trkpt lat="43.161510" lon="-5.309420">
        <ele>620.871</ele>
        <time>2020-05-21T19:46:52Z</time>
      </trkpt>
      <trkpt lat="43.161510" lon="-5.309430">
        <ele>620.876</ele>
        <time>2020-05-21T19:47:12Z</time>
      </trkpt>
      <trkpt lat="43.161500" lon="-5.309460">
        <ele>621.153</ele>
        <time>2020-05-21T19:47:32Z</time>
      </trkpt>
      <trkpt lat="43.161490" lon="-5.309490">
        <ele>621.629</ele>
        <time>2020-05-21T19:47:52Z</time>
      </trkpt>
      <trkpt lat="43.161480" lon="-5.309500">
        <ele>621.968</ele>
        <time>2020-05-21T19:48:12Z</time>
      </trkpt>
      <trkpt lat="43.161470" lon="-5.309510">
        <ele>622.215</ele>
        <time>2020-05-21T19:48:32Z</time>
      </trkpt>
      <trkpt lat="43.161450" lon="-5.309520">
        <ele>622.750</ele>
        <time>2020-05-21T19:48:52Z</time>
      </trkpt>
      <trkpt lat="43.161448" lon="-5.309518">
        <ele>622.814</ele>
        <time>2020-05-21T19:49:12Z</time>
      </trkpt>
      <trkpt lat="43.161420" lon="-5.309520">
        <ele>623.476</ele>
        <time>2020-05-21T19:49:32Z</time>
      </trkpt>
      <trkpt lat="43.161390" lon="-5.309520">
        <ele>624.190</ele>
        <time>2020-05-21T19:49:52Z</time>
      </trkpt>
      <trkpt lat="43.161360" lon="-5.309510">
        <ele>625.519</ele>
        <time>2020-05-21T19:50:12Z</time>
      </trkpt>
      <trkpt lat="43.161350" lon="-5.309500">
        <ele>625.908</ele>
        <time>2020-05-21T19:50:32Z</time>
      </trkpt>
      <trkpt lat="43.161330" lon="-5.309480">
        <ele>626.771</ele>
        <time>2020-05-21T19:50:52Z</time>
      </trkpt>
      <trkpt lat="43.161320" lon="-5.309460">
        <ele>626.986</ele>
        <time>2020-05-21T19:51:12Z</time>
      </trkpt>
      <trkpt lat="43.161310" lon="-5.309430">
        <ele>627.223</ele>
        <time>2020-05-21T19:51:32Z</time>
      </trkpt>
      <trkpt lat="43.161300" lon="-5.309400">
        <ele>627.549</ele>
        <time>2020-05-21T19:51:52Z</time>
      </trkpt>
      <trkpt lat="43.161300" lon="-5.309360">
        <ele>627.218</ele>
        <time>2020-05-21T19:52:12Z</time>
      </trkpt>
      <trkpt lat="43.161270" lon="-5.309210">
        <ele>627.585</ele>
        <time>2020-05-21T19:52:32Z</time>
      </trkpt>
      <trkpt lat="43.161240" lon="-5.309060">
        <ele>627.860</ele>
        <time>2020-05-21T19:52:52Z</time>
      </trkpt>
      <trkpt lat="43.161220" lon="-5.308930">
        <ele>627.974</ele>
        <time>2020-05-21T19:53:12Z</time>
      </trkpt>
      <trkpt lat="43.161210" lon="-5.308890">
        <ele>628.123</ele>
        <time>2020-05-21T19:53:32Z</time>
      </trkpt>
      <trkpt lat="43.161200" lon="-5.308830">
        <ele>628.383</ele>
        <time>2020-05-21T19:53:52Z</time>
      </trkpt>
      <trkpt lat="43.161180" lon="-5.308730">
        <ele>628.811</ele>
        <time>2020-05-21T19:54:12Z</time>
      </trkpt>
      <trkpt lat="43.161180" lon="-5.308640">
        <ele>628.608</ele>
        <time>2020-05-21T19:54:32Z</time>
      </trkpt>
      <trkpt lat="43.161180" lon="-5.308530">
        <ele>629.126</ele>
        <time>2020-05-21T19:54:52Z</time>
      </trkpt>
      <trkpt lat="43.161180" lon="-5.308440">
        <ele>629.861</ele>
        <time>2020-05-21T19:55:12Z</time>
      </trkpt>
      <trkpt lat="43.161190" lon="-5.308370">
        <ele>629.938</ele>
        <time>2020-05-21T19:55:32Z</time>
      </trkpt>
      <trkpt lat="43.161190" lon="-5.308350">
        <ele>630.074</ele>
        <time>2020-05-21T19:55:52Z</time>
      </trkpt>
      <trkpt lat="43.161200" lon="-5.308270">
        <ele>630.333</ele>
        <time>2020-05-21T19:56:12Z</time>
      </trkpt>
      <trkpt lat="43.161200" lon="-5.308220">
        <ele>630.640</ele>
        <time>2020-05-21T19:56:32Z</time>
      </trkpt>
      <trkpt lat="43.161210" lon="-5.308190">
        <ele>630.585</ele>
        <time>2020-05-21T19:56:52Z</time>
      </trkpt>
      <trkpt lat="43.161210" lon="-5.308160">
        <ele>630.799</ele>
        <time>2020-05-21T19:57:12Z</time>
      </trkpt>
      <trkpt lat="43.161200" lon="-5.308110">
        <ele>631.442</ele>
        <time>2020-05-21T19:57:32Z</time>
      </trkpt>
      <trkpt lat="43.161200" lon="-5.308060">
        <ele>631.822</ele>
        <time>2020-05-21T19:57:52Z</time>
      </trkpt>
      <trkpt lat="43.161190" lon="-5.308030">
        <ele>631.414</ele>
        <time>2020-05-21T19:58:12Z</time>
      </trkpt>
      <trkpt lat="43.161170" lon="-5.308000">
        <ele>631.108</ele>
        <time>2020-05-21T19:58:32Z</time>
      </trkpt>
      <trkpt lat="43.161160" lon="-5.307980">
        <ele>630.868</ele>
        <time>2020-05-21T19:58:52Z</time>
      </trkpt>
      <trkpt lat="43.161140" lon="-5.307960">
        <ele>630.983</ele>
        <time>2020-05-21T19:59:12Z</time>
      </trkpt>
      <trkpt lat="43.161110" lon="-5.307940">
        <ele>631.360</ele>
        <time>2020-05-21T19:59:32Z</time>
      </trkpt>
      <trkpt lat="43.161100" lon="-5.307940">
        <ele>631.556</ele>
        <time>2020-05-21T19:59:52Z</time>
      </trkpt>
      <trkpt lat="43.160630" lon="-5.307590">
        <ele>634.775</ele>
        <time>2020-05-21T20:00:12Z</time>
      </trkpt>
      <trkpt lat="43.160520" lon="-5.307500">
        <ele>636.222</ele>
        <time>2020-05-21T20:00:32Z</time>
      </trkpt>
      <trkpt lat="43.160460" lon="-5.307430">
        <ele>635.537</ele>
        <time>2020-05-21T20:00:52Z</time>
      </trkpt>
      <trkpt lat="43.160440" lon="-5.307410">
        <ele>635.661</ele>
        <time>2020-05-21T20:01:12Z</time>
      </trkpt>
      <trkpt lat="43.160420" lon="-5.307370">
        <ele>635.138</ele>
        <time>2020-05-21T20:01:32Z</time>
      </trkpt>
      <trkpt lat="43.160350" lon="-5.307260">
        <ele>635.570</ele>
        <time>2020-05-21T20:01:52Z</time>
      </trkpt>
      <trkpt lat="43.160330" lon="-5.307220">
        <ele>635.817</ele>
        <time>2020-05-21T20:02:12Z</time>
      </trkpt>
      <trkpt lat="43.160250" lon="-5.307060">
        <ele>636.508</ele>
        <time>2020-05-21T20:02:32Z</time>
      </trkpt>
      <trkpt lat="43.159980" lon="-5.306560">
        <ele>636.627</ele>
        <time>2020-05-21T20:02:52Z</time>
      </trkpt>
      <trkpt lat="43.159900" lon="-5.306410">
        <ele>636.272</ele>
        <time>2020-05-21T20:03:12Z</time>
      </trkpt>
      <trkpt lat="43.159860" lon="-5.306310">
        <ele>636.089</ele>
        <time>2020-05-21T20:03:32Z</time>
      </trkpt>
      <trkpt lat="43.159830" lon="-5.306230">
        <ele>636.025</ele>
        <time>2020-05-21T20:03:52Z</time>
      </trkpt>
      <trkpt lat="43.159820" lon="-5.306210">
        <ele>636.264</ele>
        <time>2020-05-21T20:04:12Z</time>
      </trkpt>
      <trkpt lat="43.159800" lon="-5.306170">
        <ele>636.551</ele>
        <time>2020-05-21T20:04:32Z</time>
      </trkpt>
      <trkpt lat="43.159770" lon="-5.306100">
        <ele>637.066</ele>
        <time>2020-05-21T20:04:52Z</time>
      </trkpt>
      <trkpt lat="43.159730" lon="-5.306010">
        <ele>637.480</ele>
        <time>2020-05-21T20:05:12Z</time>
      </trkpt>
      <trkpt lat="43.159730" lon="-5.306000">
        <ele>637.219</ele>
        <time>2020-05-21T20:05:32Z</time>
      </trkpt>
      <trkpt lat="43.159690" lon="-5.305930">
        <ele>637.309</ele>
        <time>2020-05-21T20:05:52Z</time>
      </trkpt>
      <trkpt lat="43.159620" lon="-5.305800">
        <ele>637.519</ele>
        <time>2020-05-21T20:06:12Z</time>
      </trkpt>
      <trkpt lat="43.159500" lon="-5.305610">
        <ele>639.408</ele>
        <time>2020-05-21T20:06:32Z</time>
      </trkpt>
      <trkpt lat="43.159390" lon="-5.305420">
        <ele>639.985</ele>
        <time>2020-05-21T20:06:52Z</time>
      </trkpt>
      <trkpt lat="43.159270" lon="-5.305230">
        <ele>640.520</ele>
        <time>2020-05-21T20:07:12Z</time>
      </trkpt>
      <trkpt lat="43.159160" lon="-5.305040">
        <ele>642.817</ele>
        <time>2020-05-21T20:07:32Z</time>
      </trkpt>
      <trkpt lat="43.159040" lon="-5.304850">
        <ele>642.153</ele>
        <time>2020-05-21T20:07:52Z</time>
      </trkpt>
      <trkpt lat="43.159040" lon="-5.304840">
        <ele>641.922</ele>
        <time>2020-05-21T20:08:12Z</time>
      </trkpt>
      <trkpt lat="43.158920" lon="-5.304670">
        <ele>642.659</ele>
        <time>2020-05-21T20:08:32Z</time>
      </trkpt>
      <trkpt lat="43.158880" lon="-5.304630">
        <ele>643.044</ele>
        <time>2020-05-21T20:08:52Z</time>
      </trkpt>
      <trkpt lat="43.158790" lon="-5.304500">
        <ele>642.158</ele>
        <time>2020-05-21T20:09:12Z</time>
      </trkpt>
      <trkpt lat="43.158680" lon="-5.304330">
        <ele>640.348</ele>
        <time>2020-05-21T20:09:32Z</time>
      </trkpt>
      <trkpt lat="43.158670" lon="-5.304320">
        <ele>640.361</ele>
        <time>2020-05-21T20:09:52Z</time>
      </trkpt>
      <trkpt lat="43.158550" lon="-5.304180">
        <ele>639.217</ele>
        <time>2020-05-21T20:10:12Z</time>
      </trkpt>
      <trkpt lat="43.158330" lon="-5.303970">
        <ele>639.608</ele>
        <time>2020-05-21T20:10:32Z</time>
      </trkpt>
      <trkpt lat="43.158240" lon="-5.303880">
        <ele>639.188</ele>
        <time>2020-05-21T20:10:52Z</time>
      </trkpt>
      <trkpt lat="43.158220" lon="-5.303860">
        <ele>639.323</ele>
        <time>2020-05-21T20:11:12Z</time>
      </trkpt>
      <trkpt lat="43.158160" lon="-5.303800">
        <ele>639.570</ele>
        <time>2020-05-21T20:11:32Z</time>
      </trkpt>
      <trkpt lat="43.158100" lon="-5.303750">
        <ele>639.716</ele>
        <time>2020-05-21T20:11:52Z</time>
      </trkpt>
      <trkpt lat="43.158010" lon="-5.303670">
        <ele>639.015</ele>
        <time>2020-05-21T20:12:12Z</time>
      </trkpt>
      <trkpt lat="43.157930" lon="-5.303600">
        <ele>638.642</ele>
        <time>2020-05-21T20:12:32Z</time>
      </trkpt>
      <trkpt lat="43.157870" lon="-5.303540">
        <ele>639.117</ele>
        <time>2020-05-21T20:12:52Z</time>
      </trkpt>
      <trkpt lat="43.157820" lon="-5.303470">
        <ele>639.111</ele>
        <time>2020-05-21T20:13:12Z</time>
      </trkpt>
      <trkpt lat="43.157800" lon="-5.303440">
        <ele>639.196</ele>
        <time>2020-05-21T20:13:32Z</time>
      </trkpt>
      <trkpt lat="43.157770" lon="-5.303400">
        <ele>639.031</ele>
        <time>2020-05-21T20:13:52Z</time>
      </trkpt>
      <trkpt lat="43.157740" lon="-5.303310">
        <ele>638.324</ele>
        <time>2020-05-21T20:14:12Z</time>
      </trkpt>
      <trkpt lat="43.157710" lon="-5.303220">
        <ele>638.408</ele>
        <time>2020-05-21T20:14:32Z</time>
      </trkpt>
      <trkpt lat="43.157620" lon="-5.303000">
        <ele>639.113</ele>
        <time>2020-05-21T20:14:52Z</time>
      </trkpt>
      <trkpt lat="43.157560" lon="-5.302840">
        <ele>639.478</ele>
        <time>2020-05-21T20:15:12Z</time>
      </trkpt>
      <trkpt lat="43.157520" lon="-5.302720">
        <ele>639.545</ele>
        <time>2020-05-21T20:15:32Z</time>
      </trkpt>
      <trkpt lat="43.157460" lon="-5.302460">
        <ele>640.921</ele>
        <time>2020-05-21T20:15:52Z</time>
      </trkpt>
      <trkpt lat="43.157440" lon="-5.302330">
        <ele>641.090</ele>
        <time>2020-05-21T20:16:12Z</time>
      </trkpt>
      <trkpt lat="43.157430" lon="-5.302230">
        <ele>640.827</ele>
        <time>2020-05-21T20:16:32Z</time>
      </trkpt>
      <trkpt lat="43.157410" lon="-5.302090">
        <ele>641.122</ele>
        <time>2020-05-21T20:16:52Z</time>
      </trkpt>
      <trkpt lat="43.157400" lon="-5.302030">
        <ele>641.316</ele>
        <time>2020-05-21T20:17:12Z</time>
      </trkpt>
      <trkpt lat="43.157380" lon="-5.301880">
        <ele>641.286</ele>
        <time>2020-05-21T20:17:32Z</time>
      </trkpt>
      <trkpt lat="43.157370" lon="-5.301770">
        <ele>640.660</ele>
        <time>2020-05-21T20:17:52Z</time>
      </trkpt>
      <trkpt lat="43.157360" lon="-5.301590">
        <ele>639.226</ele>
        <time>2020-05-21T20:18:12Z</time>
      </trkpt>
      <trkpt lat="43.157360" lon="-5.301480">
        <ele>638.008</ele>
        <time>2020-05-21T20:18:32Z</time>
      </trkpt>
      <trkpt lat="43.157350" lon="-5.301370">
        <ele>637.392</ele>
        <time>2020-05-21T20:18:52Z</time>
      </trkpt>
      <trkpt lat="43.157340" lon="-5.301250">
        <ele>636.697</ele>
        <time>2020-05-21T20:19:12Z</time>
      </trkpt>
      <trkpt lat="43.157320" lon="-5.301130">
        <ele>636.374</ele>
        <time>2020-05-21T20:19:32Z</time>
      </trkpt>
      <trkpt lat="43.157310" lon="-5.301110">
        <ele>636.590</ele>
        <time>2020-05-21T20:19:52Z</time>
      </trkpt>
      <trkpt lat="43.157290" lon="-5.301030">
        <ele>635.539</ele>
        <time>2020-05-21T20:20:12Z</time>
      </trkpt>
      <trkpt lat="43.157250" lon="-5.300940">
        <ele>634.436</ele>
        <time>2020-05-21T20:20:32Z</time>
      </trkpt>
      <trkpt lat="43.157220" lon="-5.300910">
        <ele>634.361</ele>
        <time>2020-05-21T20:20:52Z</time>
      </trkpt>
      <trkpt lat="43.157180" lon="-5.300870">
        <ele>635.475</ele>
        <time>2020-05-21T20:21:12Z</time>
      </trkpt>
      <trkpt lat="43.157100" lon="-5.300820">
        <ele>638.219</ele>
        <time>2020-05-21T20:21:32Z</time>
      </trkpt>
      <trkpt lat="43.157060" lon="-5.300780">
        <ele>638.709</ele>
        <time>2020-05-21T20:21:52Z</time>
      </trkpt>
      <trkpt lat="43.157020" lon="-5.300760">
        <ele>639.619</ele>
        <time>2020-05-21T20:22:12Z</time>
      </trkpt>
      <trkpt lat="43.156760" lon="-5.300510">
        <ele>638.808</ele>
        <time>2020-05-21T20:22:32Z</time>
      </trkpt>
      <trkpt lat="43.156750" lon="-5.300510">
        <ele>639.225</ele>
        <time>2020-05-21T20:22:52Z</time>
      </trkpt>
      <trkpt lat="43.156470" lon="-5.300160">
        <ele>639.280</ele>
        <time>2020-05-21T20:23:12Z</time>
      </trkpt>
      <trkpt lat="43.156100" lon="-5.299680">
        <ele>638.947</ele>
        <time>2020-05-21T20:23:32Z</time>
      </trkpt>
      <trkpt lat="43.156080" lon="-5.299660">
        <ele>639.343</ele>
        <time>2020-05-21T20:23:52Z</time>
      </trkpt>
      <trkpt lat="43.155990" lon="-5.299500">
        <ele>639.222</ele>
        <time>2020-05-21T20:24:12Z</time>
      </trkpt>
      <trkpt lat="43.155880" lon="-5.299350">
        <ele>639.079</ele>
        <time>2020-05-21T20:24:32Z</time>
      </trkpt>
      <trkpt lat="43.155860" lon="-5.299310">
        <ele>638.774</ele>
        <time>2020-05-21T20:24:52Z</time>
      </trkpt>
      <trkpt lat="43.155850" lon="-5.299300">
        <ele>638.788</ele>
        <time>2020-05-21T20:25:12Z</time>
      </trkpt>
      <trkpt lat="43.155830" lon="-5.299280">
        <ele>638.618</ele>
        <time>2020-05-21T20:25:32Z</time>
      </trkpt>
      <trkpt lat="43.155800" lon="-5.299250">
        <ele>638.098</ele>
        <time>2020-05-21T20:25:52Z</time>
      </trkpt>
      <trkpt lat="43.155780" lon="-5.299240">
        <ele>637.817</ele>
        <time>2020-05-21T20:26:12Z</time>
      </trkpt>
      <trkpt lat="43.155740" lon="-5.299220">
        <ele>637.408</ele>
        <time>2020-05-21T20:26:32Z</time>
      </trkpt>
      <trkpt lat="43.155730" lon="-5.299220">
        <ele>637.355</ele>
        <time>2020-05-21T20:26:52Z</time>
      </trkpt>
      <trkpt lat="43.155700" lon="-5.299230">
        <ele>637.340</ele>
        <time>2020-05-21T20:27:12Z</time>
      </trkpt>
      <trkpt lat="43.155290" lon="-5.299360">
        <ele>636.257</ele>
        <time>2020-05-21T20:27:32Z</time>
      </trkpt>
      <trkpt lat="43.155270" lon="-5.299370">
        <ele>636.223</ele>
        <time>2020-05-21T20:27:52Z</time>
      </trkpt>
      <trkpt lat="43.155210" lon="-5.299370">
        <ele>636.392</ele>
        <time>2020-05-21T20:28:12Z</time>
      </trkpt>
      <trkpt lat="43.155190" lon="-5.299370">
        <ele>636.319</ele>
        <time>2020-05-21T20:28:32Z</time>
      </trkpt>
      <trkpt lat="43.155170" lon="-5.299370">
        <ele>636.324</ele>
        <time>2020-05-21T20:28:52Z</time>
      </trkpt>
      <trkpt lat="43.155150" lon="-5.299370">
        <ele>636.328</ele>
        <time>2020-05-21T20:29:12Z</time>
      </trkpt>
      <trkpt lat="43.155140" lon="-5.299370">
        <ele>636.385</ele>
        <time>2020-05-21T20:29:32Z</time>
      </trkpt>
      <trkpt lat="43.155110" lon="-5.299350">
        <ele>636.289</ele>
        <time>2020-05-21T20:29:52Z</time>
      </trkpt>
      <trkpt lat="43.155050" lon="-5.299300">
        <ele>635.917</ele>
        <time>2020-05-21T20:30:12Z</time>
      </trkpt>
      <trkpt lat="43.154990" lon="-5.299200">
        <ele>635.208</ele>
        <time>2020-05-21T20:30:32Z</time>
      </trkpt>
      <trkpt lat="43.154950" lon="-5.299100">
        <ele>634.872</ele>
        <time>2020-05-21T20:30:52Z</time>
      </trkpt>
      <trkpt lat="43.154920" lon="-5.298980">
        <ele>634.327</ele>
        <time>2020-05-21T20:31:12Z</time>
      </trkpt>
      <trkpt lat="43.154860" lon="-5.298810">
        <ele>634.024</ele>
        <time>2020-05-21T20:31:32Z</time>
      </trkpt>
      <trkpt lat="43.154840" lon="-5.298710">
        <ele>634.170</ele>
        <time>2020-05-21T20:31:52Z</time>
      </trkpt>
      <trkpt lat="43.154830" lon="-5.298680">
        <ele>634.299</ele>
        <time>2020-05-21T20:32:12Z</time>
      </trkpt>
      <trkpt lat="43.154800" lon="-5.298560">
        <ele>634.496</ele>
        <time>2020-05-21T20:32:32Z</time>
      </trkpt>
      <trkpt lat="43.154760" lon="-5.298430">
        <ele>634.621</ele>
        <time>2020-05-21T20:32:52Z</time>
      </trkpt>
      <trkpt lat="43.154730" lon="-5.298330">
        <ele>634.995</ele>
        <time>2020-05-21T20:33:12Z</time>
      </trkpt>
      <trkpt lat="43.154700" lon="-5.298230">
        <ele>635.564</ele>
        <time>2020-05-21T20:33:32Z</time>
      </trkpt>
      <trkpt lat="43.154700" lon="-5.298220">
        <ele>635.506</ele>
        <time>2020-05-21T20:33:52Z</time>
      </trkpt>
      <trkpt lat="43.154680" lon="-5.298180">
        <ele>635.916</ele>
        <time>2020-05-21T20:34:12Z</time>
      </trkpt>
      <trkpt lat="43.154640" lon="-5.298100">
        <ele>636.808</ele>
        <time>2020-05-21T20:34:32Z</time>
      </trkpt>
      <trkpt lat="43.154610" lon="-5.298040">
        <ele>637.320</ele>
        <time>2020-05-21T20:34:52Z</time>
      </trkpt>
      <trkpt lat="43.154580" lon="-5.297980">
        <ele>637.265</ele>
        <time>2020-05-21T20:35:12Z</time>
      </trkpt>
      <trkpt lat="43.154470" lon="-5.297850">
        <ele>637.662</ele>
        <time>2020-05-21T20:35:32Z</time>
      </trkpt>
      <trkpt lat="43.154410" lon="-5.297780">
        <ele>637.918</ele>
        <time>2020-05-21T20:35:52Z</time>
      </trkpt>
      <trkpt lat="43.154330" lon="-5.297680">
        <ele>638.387</ele>
        <time>2020-05-21T20:36:12Z</time>
      </trkpt>
      <trkpt lat="43.154140" lon="-5.297460">
        <ele>639.264</ele>
        <time>2020-05-21T20:36:32Z</time>
      </trkpt>
      <trkpt lat="43.153900" lon="-5.297240">
        <ele>640.289</ele>
        <time>2020-05-21T20:36:52Z</time>
      </trkpt>
      <trkpt lat="43.153750" lon="-5.297100">
        <ele>642.173</ele>
        <time>2020-05-21T20:37:12Z</time>
      </trkpt>
      <trkpt lat="43.153510" lon="-5.296740">
        <ele>640.921</ele>
        <time>2020-05-21T20:37:32Z</time>
      </trkpt>
      <trkpt lat="43.153280" lon="-5.296390">
        <ele>640.141</ele>
        <time>2020-05-21T20:37:52Z</time>
      </trkpt>
      <trkpt lat="43.153250" lon="-5.296320">
        <ele>640.405</ele>
        <time>2020-05-21T20:38:12Z</time>
      </trkpt>
      <trkpt lat="43.153230" lon="-5.296230">
        <ele>639.908</ele>
        <time>2020-05-21T20:38:32Z</time>
      </trkpt>
      <trkpt lat="43.153200" lon="-5.296080">
        <ele>638.886</ele>
        <time>2020-05-21T20:38:52Z</time>
      </trkpt>
      <trkpt lat="43.153180" lon="-5.295940">
        <ele>638.641</ele>
        <time>2020-05-21T20:39:12Z</time>
      </trkpt>
      <trkpt lat="43.153170" lon="-5.295900">
        <ele>638.618</ele>
        <time>2020-05-21T20:39:32Z</time>
      </trkpt>
      <trkpt lat="43.153160" lon="-5.295810">
        <ele>638.444</ele>
        <time>2020-05-21T20:39:52Z</time>
      </trkpt>
      <trkpt lat="43.153130" lon="-5.295660">
        <ele>638.283</ele>
        <time>2020-05-21T20:40:12Z</time>
      </trkpt>
      <trkpt lat="43.153100" lon="-5.295500">
        <ele>638.090</ele>
        <time>2020-05-21T20:40:32Z</time>
      </trkpt>
      <trkpt lat="43.153080" lon="-5.295280">
        <ele>638.865</ele>
        <time>2020-05-21T20:40:52Z</time>
      </trkpt>
      <trkpt lat="43.153070" lon="-5.295130">
        <ele>638.459</ele>
        <time>2020-05-21T20:41:12Z</time>
      </trkpt>
      <trkpt lat="43.153060" lon="-5.294910">
        <ele>638.326</ele>
        <time>2020-05-21T20:41:32Z</time>
      </trkpt>
      <trkpt lat="43.153060" lon="-5.294660">
        <ele>639.047</ele>
        <time>2020-05-21T20:41:52Z</time>
      </trkpt>
      <trkpt lat="43.153070" lon="-5.294400">
        <ele>639.111</ele>
        <time>2020-05-21T20:42:12Z</time>
      </trkpt>
      <trkpt lat="43.153080" lon="-5.294180">
        <ele>639.908</ele>
        <time>2020-05-21T20:42:32Z</time>
      </trkpt>
      <trkpt lat="43.153090" lon="-5.293960">
        <ele>639.926</ele>
        <time>2020-05-21T20:42:52Z</time>
      </trkpt>
      <trkpt lat="43.153110" lon="-5.293820">
        <ele>640.261</ele>
        <time>2020-05-21T20:43:12Z</time>
      </trkpt>
      <trkpt lat="43.153240" lon="-5.293140">
        <ele>642.398</ele>
        <time>2020-05-21T20:43:32Z</time>
      </trkpt>
      <trkpt lat="43.153260" lon="-5.293050">
        <ele>642.344</ele>
        <time>2020-05-21T20:43:52Z</time>
      </trkpt>
      <trkpt lat="43.153270" lon="-5.292960">
        <ele>642.513</ele>
        <time>2020-05-21T20:44:12Z</time>
      </trkpt>
      <trkpt lat="43.153280" lon="-5.292850">
        <ele>642.770</ele>
        <time>2020-05-21T20:44:32Z</time>
      </trkpt>
      <trkpt lat="43.153290" lon="-5.292750">
        <ele>642.885</ele>
        <time>2020-05-21T20:44:52Z</time>
      </trkpt>
      <trkpt lat="43.153280" lon="-5.292660">
        <ele>643.099</ele>
        <time>2020-05-21T20:45:12Z</time>
      </trkpt>
      <trkpt lat="43.153270" lon="-5.292560">
        <ele>643.346</ele>
        <time>2020-05-21T20:45:32Z</time>
      </trkpt>
      <trkpt lat="43.153240" lon="-5.292360">
        <ele>644.088</ele>
        <time>2020-05-21T20:45:52Z</time>
      </trkpt>
      <trkpt lat="43.153220" lon="-5.292250">
        <ele>644.416</ele>
        <time>2020-05-21T20:46:12Z</time>
      </trkpt>
      <trkpt lat="43.153200" lon="-5.292150">
        <ele>645.108</ele>
        <time>2020-05-21T20:46:32Z</time>
      </trkpt>
      <trkpt lat="43.153170" lon="-5.292040">
        <ele>646.158</ele>
        <time>2020-05-21T20:46:52Z</time>
      </trkpt>
      <trkpt lat="43.153140" lon="-5.291860">
        <ele>646.743</ele>
        <time>2020-05-21T20:47:12Z</time>
      </trkpt>
      <trkpt lat="43.153090" lon="-5.291690">
        <ele>646.830</ele>
        <time>2020-05-21T20:47:32Z</time>
      </trkpt>
      <trkpt lat="43.153060" lon="-5.291510">
        <ele>647.086</ele>
        <time>2020-05-21T20:47:52Z</time>
      </trkpt>
      <trkpt lat="43.153040" lon="-5.291470">
        <ele>647.265</ele>
        <time>2020-05-21T20:48:12Z</time>
      </trkpt>
      <trkpt lat="43.153020" lon="-5.291400">
        <ele>647.482</ele>
        <time>2020-05-21T20:48:32Z</time>
      </trkpt>
      <trkpt lat="43.152980" lon="-5.291290">
        <ele>647.217</ele>
        <time>2020-05-21T20:48:52Z</time>
      </trkpt>
      <trkpt lat="43.152900" lon="-5.291150">
        <ele>647.431</ele>
        <time>2020-05-21T20:49:12Z</time>
      </trkpt>
      <trkpt lat="43.152820" lon="-5.291050">
        <ele>647.936</ele>
        <time>2020-05-21T20:49:32Z</time>
      </trkpt>
      <trkpt lat="43.152730" lon="-5.290990">
        <ele>648.317</ele>
        <time>2020-05-21T20:49:52Z</time>
      </trkpt>
      <trkpt lat="43.152660" lon="-5.290920">
        <ele>648.718</ele>
        <time>2020-05-21T20:50:12Z</time>
      </trkpt>
      <trkpt lat="43.152630" lon="-5.290870">
        <ele>648.808</ele>
        <time>2020-05-21T20:50:32Z</time>
      </trkpt>
      <trkpt lat="43.152590" lon="-5.290760">
        <ele>649.057</ele>
        <time>2020-05-21T20:50:52Z</time>
      </trkpt>
      <trkpt lat="43.152550" lon="-5.290660">
        <ele>649.442</ele>
        <time>2020-05-21T20:51:12Z</time>
      </trkpt>
      <trkpt lat="43.152520" lon="-5.290570">
        <ele>649.639</ele>
        <time>2020-05-21T20:51:32Z</time>
      </trkpt>
      <trkpt lat="43.152490" lon="-5.290500">
        <ele>649.775</ele>
        <time>2020-05-21T20:51:52Z</time>
      </trkpt>
      <trkpt lat="43.152460" lon="-5.290410">
        <ele>649.434</ele>
        <time>2020-05-21T20:52:12Z</time>
      </trkpt>
      <trkpt lat="43.152420" lon="-5.290280">
        <ele>649.271</ele>
        <time>2020-05-21T20:52:32Z</time>
      </trkpt>
      <trkpt lat="43.152360" lon="-5.290180">
        <ele>649.856</ele>
        <time>2020-05-21T20:52:52Z</time>
      </trkpt>
      <trkpt lat="43.152340" lon="-5.290140">
        <ele>650.140</ele>
        <time>2020-05-21T20:53:12Z</time>
      </trkpt>
      <trkpt lat="43.152320" lon="-5.290050">
        <ele>650.319</ele>
        <time>2020-05-21T20:53:32Z</time>
      </trkpt>
      <trkpt lat="43.152270" lon="-5.289850">
        <ele>650.709</ele>
        <time>2020-05-21T20:53:52Z</time>
      </trkpt>
      <trkpt lat="43.152150" lon="-5.289610">
        <ele>650.619</ele>
        <time>2020-05-21T20:54:12Z</time>
      </trkpt>
      <trkpt lat="43.151940" lon="-5.289270">
        <ele>652.408</ele>
        <time>2020-05-21T20:54:32Z</time>
      </trkpt>
      <trkpt lat="43.151920" lon="-5.289240">
        <ele>652.465</ele>
        <time>2020-05-21T20:54:52Z</time>
      </trkpt>
      <trkpt lat="43.151870" lon="-5.289130">
        <ele>652.320</ele>
        <time>2020-05-21T20:55:12Z</time>
      </trkpt>
      <trkpt lat="43.151510" lon="-5.288290">
        <ele>652.627</ele>
        <time>2020-05-21T20:55:32Z</time>
      </trkpt>
      <trkpt lat="43.151290" lon="-5.287750">
        <ele>653.093</ele>
        <time>2020-05-21T20:55:52Z</time>
      </trkpt>
      <trkpt lat="43.151200" lon="-5.287530">
        <ele>653.362</ele>
        <time>2020-05-21T20:56:12Z</time>
      </trkpt>
      <trkpt lat="43.151110" lon="-5.287320">
        <ele>654.069</ele>
        <time>2020-05-21T20:56:32Z</time>
      </trkpt>
      <trkpt lat="43.151070" lon="-5.287210">
        <ele>654.134</ele>
        <time>2020-05-21T20:56:52Z</time>
      </trkpt>
      <trkpt lat="43.150850" lon="-5.286670">
        <ele>654.958</ele>
        <time>2020-05-21T20:57:12Z</time>
      </trkpt>
      <trkpt lat="43.150760" lon="-5.286450">
        <ele>655.948</ele>
        <time>2020-05-21T20:57:32Z</time>
      </trkpt>
      <trkpt lat="43.150680" lon="-5.286240">
        <ele>657.561</ele>
        <time>2020-05-21T20:57:52Z</time>
      </trkpt>
      <trkpt lat="43.150670" lon="-5.286220">
        <ele>657.717</ele>
        <time>2020-05-21T20:58:12Z</time>
      </trkpt>
      <trkpt lat="43.150610" lon="-5.286060">
        <ele>658.908</ele>
        <time>2020-05-21T20:58:32Z</time>
      </trkpt>
      <trkpt lat="43.150590" lon="-5.286030">
        <ele>659.168</ele>
        <time>2020-05-21T20:58:52Z</time>
      </trkpt>
      <trkpt lat="43.150550" lon="-5.285960">
        <ele>659.643</ele>
        <time>2020-05-21T20:59:12Z</time>
      </trkpt>
      <trkpt lat="43.150500" lon="-5.285890">
        <ele>660.380</ele>
        <time>2020-05-21T20:59:32Z</time>
      </trkpt>
      <trkpt lat="43.150470" lon="-5.285840">
        <ele>660.666</ele>
        <time>2020-05-21T20:59:52Z</time>
      </trkpt>
      <trkpt lat="43.150460" lon="-5.285840">
        <ele>660.895</ele>
        <time>2020-05-21T21:00:12Z</time>
      </trkpt>
      <trkpt lat="43.150430" lon="-5.285770">
        <ele>660.972</ele>
        <time>2020-05-21T21:00:32Z</time>
      </trkpt>
      <trkpt lat="43.150420" lon="-5.285740">
        <ele>660.967</ele>
        <time>2020-05-21T21:00:52Z</time>
      </trkpt>
      <trkpt lat="43.150420" lon="-5.285720">
        <ele>660.851</ele>
        <time>2020-05-21T21:01:12Z</time>
      </trkpt>
      <trkpt lat="43.150410" lon="-5.285690">
        <ele>660.874</ele>
        <time>2020-05-21T21:01:32Z</time>
      </trkpt>
      <trkpt lat="43.150410" lon="-5.285650">
        <ele>660.656</ele>
        <time>2020-05-21T21:01:52Z</time>
      </trkpt>
      <trkpt lat="43.150410" lon="-5.285620">
        <ele>660.521</ele>
        <time>2020-05-21T21:02:12Z</time>
      </trkpt>
      <trkpt lat="43.150410" lon="-5.285560">
        <ele>660.108</ele>
        <time>2020-05-21T21:02:32Z</time>
      </trkpt>
      <trkpt lat="43.150400" lon="-5.285110">
        <ele>665.571</ele>
        <time>2020-05-21T21:02:52Z</time>
      </trkpt>
      <trkpt lat="43.150400" lon="-5.285070">
        <ele>665.616</ele>
        <time>2020-05-21T21:03:12Z</time>
      </trkpt>
      <trkpt lat="43.150390" lon="-5.285020">
        <ele>666.113</ele>
        <time>2020-05-21T21:03:32Z</time>
      </trkpt>
      <trkpt lat="43.150370" lon="-5.284950">
        <ele>666.739</ele>
        <time>2020-05-21T21:03:52Z</time>
      </trkpt>
      <trkpt lat="43.150330" lon="-5.284810">
        <ele>667.528</ele>
        <time>2020-05-21T21:04:12Z</time>
      </trkpt>
      <trkpt lat="43.150320" lon="-5.284790">
        <ele>667.895</ele>
        <time>2020-05-21T21:04:32Z</time>
      </trkpt>
      <trkpt lat="43.150290" lon="-5.284670">
        <ele>668.040</ele>
        <time>2020-05-21T21:04:52Z</time>
      </trkpt>
      <trkpt lat="43.150250" lon="-5.284540">
        <ele>668.274</ele>
        <time>2020-05-21T21:05:12Z</time>
      </trkpt>
      <trkpt lat="43.150200" lon="-5.284400">
        <ele>668.945</ele>
        <time>2020-05-21T21:05:32Z</time>
      </trkpt>
      <trkpt lat="43.150180" lon="-5.284340">
        <ele>669.147</ele>
        <time>2020-05-21T21:05:52Z</time>
      </trkpt>
      <trkpt lat="43.150170" lon="-5.284320">
        <ele>669.311</ele>
        <time>2020-05-21T21:06:12Z</time>
      </trkpt>
      <trkpt lat="43.150130" lon="-5.284240">
        <ele>670.208</ele>
        <time>2020-05-21T21:06:32Z</time>
      </trkpt>
      <trkpt lat="43.150080" lon="-5.284140">
        <ele>671.228</ele>
        <time>2020-05-21T21:06:52Z</time>
      </trkpt>
      <trkpt lat="43.150040" lon="-5.284060">
        <ele>671.873</ele>
        <time>2020-05-21T21:07:12Z</time>
      </trkpt>
      <trkpt lat="43.150000" lon="-5.284000">
        <ele>672.690</ele>
        <time>2020-05-21T21:07:32Z</time>
      </trkpt>
      <trkpt lat="43.149960" lon="-5.283940">
        <ele>673.126</ele>
        <time>2020-05-21T21:07:52Z</time>
      </trkpt>
      <trkpt lat="43.149950" lon="-5.283900">
        <ele>672.995</ele>
        <time>2020-05-21T21:08:12Z</time>
      </trkpt>
      <trkpt lat="43.149870" lon="-5.283760">
        <ele>674.342</ele>
        <time>2020-05-21T21:08:32Z</time>
      </trkpt>
      <trkpt lat="43.149860" lon="-5.283740">
        <ele>674.427</ele>
        <time>2020-05-21T21:08:52Z</time>
      </trkpt>
      <trkpt lat="43.149820" lon="-5.283640">
        <ele>675.111</ele>
        <time>2020-05-21T21:09:12Z</time>
      </trkpt>
      <trkpt lat="43.149770" lon="-5.283530">
        <ele>676.021</ele>
        <time>2020-05-21T21:09:32Z</time>
      </trkpt>
      <trkpt lat="43.149680" lon="-5.283310">
        <ele>677.441</ele>
        <time>2020-05-21T21:09:52Z</time>
      </trkpt>
      <trkpt lat="43.149630" lon="-5.283210">
        <ele>678.605</ele>
        <time>2020-05-21T21:10:12Z</time>
      </trkpt>
      <trkpt lat="43.149600" lon="-5.283090">
        <ele>679.008</ele>
        <time>2020-05-21T21:10:32Z</time>
      </trkpt>
      <trkpt lat="43.149570" lon="-5.283010">
        <ele>679.616</ele>
        <time>2020-05-21T21:10:52Z</time>
      </trkpt>
      <trkpt lat="43.149520" lon="-5.282870">
        <ele>680.811</ele>
        <time>2020-05-21T21:11:12Z</time>
      </trkpt>
      <trkpt lat="43.149520" lon="-5.282850">
        <ele>680.698</ele>
        <time>2020-05-21T21:11:32Z</time>
      </trkpt>
      <trkpt lat="43.149470" lon="-5.282670">
        <ele>681.424</ele>
        <time>2020-05-21T21:11:52Z</time>
      </trkpt>
      <trkpt lat="43.149460" lon="-5.282640">
        <ele>681.633</ele>
        <time>2020-05-21T21:12:12Z</time>
      </trkpt>
      <trkpt lat="43.149420" lon="-5.282540">
        <ele>682.470</ele>
        <time>2020-05-21T21:12:32Z</time>
      </trkpt>
      <trkpt lat="43.149390" lon="-5.282460">
        <ele>682.415</ele>
        <time>2020-05-21T21:12:52Z</time>
      </trkpt>
      <trkpt lat="43.149380" lon="-5.282420">
        <ele>682.059</ele>
        <time>2020-05-21T21:13:12Z</time>
      </trkpt>
      <trkpt lat="43.149360" lon="-5.282390">
        <ele>682.332</ele>
        <time>2020-05-21T21:13:32Z</time>
      </trkpt>
      <trkpt lat="43.149320" lon="-5.282300">
        <ele>682.692</ele>
        <time>2020-05-21T21:13:52Z</time>
      </trkpt>
      <trkpt lat="43.149260" lon="-5.282230">
        <ele>684.411</ele>
        <time>2020-05-21T21:14:12Z</time>
      </trkpt>
      <trkpt lat="43.149240" lon="-5.282190">
        <ele>684.008</ele>
        <time>2020-05-21T21:14:32Z</time>
      </trkpt>
      <trkpt lat="43.149180" lon="-5.282130">
        <ele>684.787</ele>
        <time>2020-05-21T21:14:52Z</time>
      </trkpt>
      <trkpt lat="43.149130" lon="-5.282070">
        <ele>684.712</ele>
        <time>2020-05-21T21:15:12Z</time>
      </trkpt>
      <trkpt lat="43.149090" lon="-5.282020">
        <ele>685.069</ele>
        <time>2020-05-21T21:15:32Z</time>
      </trkpt>
      <trkpt lat="43.149040" lon="-5.281930">
        <ele>685.595</ele>
        <time>2020-05-21T21:15:52Z</time>
      </trkpt>
      <trkpt lat="43.149020" lon="-5.281870">
        <ele>685.814</ele>
        <time>2020-05-21T21:16:12Z</time>
      </trkpt>
      <trkpt lat="43.149000" lon="-5.281820">
        <ele>686.291</ele>
        <time>2020-05-21T21:16:32Z</time>
      </trkpt>
      <trkpt lat="43.148950" lon="-5.281640">
        <ele>686.596</ele>
        <time>2020-05-21T21:16:52Z</time>
      </trkpt>
      <trkpt lat="43.148940" lon="-5.281600">
        <ele>686.490</ele>
        <time>2020-05-21T21:17:12Z</time>
      </trkpt>
      <trkpt lat="43.148900" lon="-5.281410">
        <ele>685.695</ele>
        <time>2020-05-21T21:17:32Z</time>
      </trkpt>
      <trkpt lat="43.148880" lon="-5.281350">
        <ele>685.549</ele>
        <time>2020-05-21T21:17:52Z</time>
      </trkpt>
      <trkpt lat="43.148860" lon="-5.281240">
        <ele>684.023</ele>
        <time>2020-05-21T21:18:12Z</time>
      </trkpt>
      <trkpt lat="43.148860" lon="-5.281170">
        <ele>682.608</ele>
        <time>2020-05-21T21:18:32Z</time>
      </trkpt>
      <trkpt lat="43.148850" lon="-5.281120">
        <ele>682.143</ele>
        <time>2020-05-21T21:18:52Z</time>
      </trkpt>
      <trkpt lat="43.148840" lon="-5.280930">
        <ele>682.718</ele>
        <time>2020-05-21T21:19:12Z</time>
      </trkpt>
      <trkpt lat="43.148840" lon="-5.280910">
        <ele>682.735</ele>
        <time>2020-05-21T21:19:32Z</time>
      </trkpt>
      <trkpt lat="43.148840" lon="-5.280750">
        <ele>683.191</ele>
        <time>2020-05-21T21:19:52Z</time>
      </trkpt>
      <trkpt lat="43.148860" lon="-5.280430">
        <ele>683.180</ele>
        <time>2020-05-21T21:20:12Z</time>
      </trkpt>
      <trkpt lat="43.148870" lon="-5.280190">
        <ele>682.717</ele>
        <time>2020-05-21T21:20:32Z</time>
      </trkpt>
      <trkpt lat="43.148870" lon="-5.280090">
        <ele>682.342</ele>
        <time>2020-05-21T21:20:52Z</time>
      </trkpt>
      <trkpt lat="43.148860" lon="-5.279980">
        <ele>682.456</ele>
        <time>2020-05-21T21:21:12Z</time>
      </trkpt>
      <trkpt lat="43.148860" lon="-5.279940">
        <ele>682.478</ele>
        <time>2020-05-21T21:21:32Z</time>
      </trkpt>
      <trkpt lat="43.148860" lon="-5.279910">
        <ele>682.433</ele>
        <time>2020-05-21T21:21:52Z</time>
      </trkpt>
      <trkpt lat="43.148880" lon="-5.279780">
        <ele>681.426</ele>
        <time>2020-05-21T21:22:12Z</time>
      </trkpt>
      <trkpt lat="43.148910" lon="-5.279580">
        <ele>680.408</ele>
        <time>2020-05-21T21:22:32Z</time>
      </trkpt>
      <trkpt lat="43.148910" lon="-5.279460">
        <ele>680.921</ele>
        <time>2020-05-21T21:22:52Z</time>
      </trkpt>
      <trkpt lat="43.148910" lon="-5.279240">
        <ele>681.036</ele>
        <time>2020-05-21T21:23:12Z</time>
      </trkpt>
      <trkpt lat="43.148880" lon="-5.279030">
        <ele>681.913</ele>
        <time>2020-05-21T21:23:32Z</time>
      </trkpt>
      <trkpt lat="43.148880" lon="-5.278930">
        <ele>681.599</ele>
        <time>2020-05-21T21:23:52Z</time>
      </trkpt>
      <trkpt lat="43.148870" lon="-5.278840">
        <ele>681.658</ele>
        <time>2020-05-21T21:24:12Z</time>
      </trkpt>
      <trkpt lat="43.148860" lon="-5.278750">
        <ele>681.645</ele>
        <time>2020-05-21T21:24:32Z</time>
      </trkpt>
      <trkpt lat="43.148860" lon="-5.278720">
        <ele>681.570</ele>
        <time>2020-05-21T21:24:52Z</time>
      </trkpt>
      <trkpt lat="43.148860" lon="-5.278650">
        <ele>681.344</ele>
        <time>2020-05-21T21:25:12Z</time>
      </trkpt>
      <trkpt lat="43.148860" lon="-5.278560">
        <ele>681.168</ele>
        <time>2020-05-21T21:25:32Z</time>
      </trkpt>
      <trkpt lat="43.148870" lon="-5.278470">
        <ele>680.742</ele>
        <time>2020-05-21T21:25:52Z</time>
      </trkpt>
      <trkpt lat="43.148890" lon="-5.278250">
        <ele>680.026</ele>
        <time>2020-05-21T21:26:12Z</time>
      </trkpt>
      <trkpt lat="43.148900" lon="-5.278170">
        <ele>679.608</ele>
        <time>2020-05-21T21:26:32Z</time>
      </trkpt>
      <trkpt lat="43.148900" lon="-5.278100">
        <ele>679.650</ele>
        <time>2020-05-21T21:26:52Z</time>
      </trkpt>
      <trkpt lat="43.148910" lon="-5.278030">
        <ele>679.395</ele>
        <time>2020-05-21T21:27:12Z</time>
      </trkpt>
      <trkpt lat="43.148920" lon="-5.277990">
        <ele>679.012</ele>
        <time>2020-05-21T21:27:32Z</time>
      </trkpt>
      <trkpt lat="43.148930" lon="-5.277910">
        <ele>678.938</ele>
        <time>2020-05-21T21:27:52Z</time>
      </trkpt>
      <trkpt lat="43.148950" lon="-5.277800">
        <ele>678.557</ele>
        <time>2020-05-21T21:28:12Z</time>
      </trkpt>
      <trkpt lat="43.148960" lon="-5.277730">
        <ele>678.284</ele>
        <time>2020-05-21T21:28:32Z</time>
      </trkpt>
      <trkpt lat="43.148970" lon="-5.277600">
        <ele>678.099</ele>
        <time>2020-05-21T21:28:52Z</time>
      </trkpt>
      <trkpt lat="43.149000" lon="-5.277450">
        <ele>676.923</ele>
        <time>2020-05-21T21:29:12Z</time>
      </trkpt>
      <trkpt lat="43.149020" lon="-5.277330">
        <ele>676.044</ele>
        <time>2020-05-21T21:29:32Z</time>
      </trkpt>
      <trkpt lat="43.149020" lon="-5.277270">
        <ele>675.805</ele>
        <time>2020-05-21T21:29:52Z</time>
      </trkpt>
      <trkpt lat="43.149030" lon="-5.277260">
        <ele>675.515</ele>
        <time>2020-05-21T21:30:12Z</time>
      </trkpt>
      <trkpt lat="43.149040" lon="-5.277160">
        <ele>675.208</ele>
        <time>2020-05-21T21:30:32Z</time>
      </trkpt>
      <trkpt lat="43.149060" lon="-5.277020">
        <ele>674.948</ele>
        <time>2020-05-21T21:30:52Z</time>
      </trkpt>
      <trkpt lat="43.149070" lon="-5.276880">
        <ele>674.813</ele>
        <time>2020-05-21T21:31:12Z</time>
      </trkpt>
      <trkpt lat="43.149070" lon="-5.276810">
        <ele>674.830</ele>
        <time>2020-05-21T21:31:32Z</time>
      </trkpt>
      <trkpt lat="43.149080" lon="-5.276450">
        <ele>674.356</ele>
        <time>2020-05-21T21:31:52Z</time>
      </trkpt>
      <trkpt lat="43.149080" lon="-5.276130">
        <ele>673.975</ele>
        <time>2020-05-21T21:32:12Z</time>
      </trkpt>
      <trkpt lat="43.149070" lon="-5.275860">
        <ele>675.082</ele>
        <time>2020-05-21T21:32:32Z</time>
      </trkpt>
      <trkpt lat="43.149060" lon="-5.275730">
        <ele>675.317</ele>
        <time>2020-05-21T21:32:52Z</time>
      </trkpt>
      <trkpt lat="43.149040" lon="-5.275590">
        <ele>675.711</ele>
        <time>2020-05-21T21:33:12Z</time>
      </trkpt>
      <trkpt lat="43.149040" lon="-5.275570">
        <ele>675.711</ele>
        <time>2020-05-21T21:33:32Z</time>
      </trkpt>
      <trkpt lat="43.149030" lon="-5.275480">
        <ele>676.221</ele>
        <time>2020-05-21T21:33:52Z</time>
      </trkpt>
      <trkpt lat="43.149030" lon="-5.275360">
        <ele>676.703</ele>
        <time>2020-05-21T21:34:12Z</time>
      </trkpt>
      <trkpt lat="43.149030" lon="-5.275330">
        <ele>676.808</ele>
        <time>2020-05-21T21:34:32Z</time>
      </trkpt>
      <trkpt lat="43.149030" lon="-5.275320">
        <ele>676.895</ele>
        <time>2020-05-21T21:34:52Z</time>
      </trkpt>
      <trkpt lat="43.149050" lon="-5.275260">
        <ele>677.080</ele>
        <time>2020-05-21T21:35:12Z</time>
      </trkpt>
      <trkpt lat="43.149060" lon="-5.275210">
        <ele>677.417</ele>
        <time>2020-05-21T21:35:32Z</time>
      </trkpt>
      <trkpt lat="43.149090" lon="-5.275150">
        <ele>678.243</ele>
        <time>2020-05-21T21:35:52Z</time>
      </trkpt>
      <trkpt lat="43.149120" lon="-5.275100">
        <ele>679.282</ele>
        <time>2020-05-21T21:36:12Z</time>
      </trkpt>
      <trkpt lat="43.149140" lon="-5.275060">
        <ele>680.219</ele>
        <time>2020-05-21T21:36:32Z</time>
      </trkpt>
      <trkpt lat="43.149160" lon="-5.275000">
        <ele>681.894</ele>
        <time>2020-05-21T21:36:52Z</time>
      </trkpt>
      <trkpt lat="43.149160" lon="-5.274930">
        <ele>682.838</ele>
        <time>2020-05-21T21:37:12Z</time>
      </trkpt>
      <trkpt lat="43.149150" lon="-5.274870">
        <ele>683.321</ele>
        <time>2020-05-21T21:37:32Z</time>
      </trkpt>
      <trkpt lat="43.149130" lon="-5.274800">
        <ele>683.541</ele>
        <time>2020-05-21T21:37:52Z</time>
      </trkpt>
      <trkpt lat="43.149110" lon="-5.274720">
        <ele>683.605</ele>
        <time>2020-05-21T21:38:12Z</time>
      </trkpt>
      <trkpt lat="43.149080" lon="-5.274610">
        <ele>685.008</ele>
        <time>2020-05-21T21:38:32Z</time>
      </trkpt>
      <trkpt lat="43.149050" lon="-5.274520">
        <ele>685.296</ele>
        <time>2020-05-21T21:38:52Z</time>
      </trkpt>
      <trkpt lat="43.149010" lon="-5.274350">
        <ele>685.181</ele>
        <time>2020-05-21T21:39:12Z</time>
      </trkpt>
      <trkpt lat="43.148980" lon="-5.274180">
        <ele>685.048</ele>
        <time>2020-05-21T21:39:32Z</time>
      </trkpt>
      <trkpt lat="43.148980" lon="-5.274170">
        <ele>685.244</ele>
        <time>2020-05-21T21:39:52Z</time>
      </trkpt>
      <trkpt lat="43.148950" lon="-5.274060">
        <ele>684.583</ele>
        <time>2020-05-21T21:40:12Z</time>
      </trkpt>
      <trkpt lat="43.148790" lon="-5.273440">
        <ele>685.740</ele>
        <time>2020-05-21T21:40:32Z</time>
      </trkpt>
      <trkpt lat="43.148620" lon="-5.272790">
        <ele>683.725</ele>
        <time>2020-05-21T21:40:52Z</time>
      </trkpt>
      <trkpt lat="43.148550" lon="-5.272560">
        <ele>685.459</ele>
        <time>2020-05-21T21:41:12Z</time>
      </trkpt>
      <trkpt lat="43.148530" lon="-5.272460">
        <ele>686.668</ele>
        <time>2020-05-21T21:41:32Z</time>
      </trkpt>
      <trkpt lat="43.148500" lon="-5.272320">
        <ele>688.742</ele>
        <time>2020-05-21T21:41:52Z</time>
      </trkpt>
      <trkpt lat="43.148480" lon="-5.272180">
        <ele>690.626</ele>
        <time>2020-05-21T21:42:12Z</time>
      </trkpt>
      <trkpt lat="43.148460" lon="-5.272000">
        <ele>691.808</ele>
        <time>2020-05-21T21:42:32Z</time>
      </trkpt>
      <trkpt lat="43.148430" lon="-5.271730">
        <ele>692.980</ele>
        <time>2020-05-21T21:42:52Z</time>
      </trkpt>
      <trkpt lat="43.148430" lon="-5.271620">
        <ele>694.245</ele>
        <time>2020-05-21T21:43:12Z</time>
      </trkpt>
      <trkpt lat="43.148430" lon="-5.271590">
        <ele>694.592</ele>
        <time>2020-05-21T21:43:32Z</time>
      </trkpt>
      <trkpt lat="43.148430" lon="-5.271510">
        <ele>695.448</ele>
        <time>2020-05-21T21:43:52Z</time>
      </trkpt>
      <trkpt lat="43.148430" lon="-5.271380">
        <ele>696.717</ele>
        <time>2020-05-21T21:44:12Z</time>
      </trkpt>
      <trkpt lat="43.148430" lon="-5.271350">
        <ele>696.764</ele>
        <time>2020-05-21T21:44:32Z</time>
      </trkpt>
      <trkpt lat="43.148440" lon="-5.271250">
        <ele>697.799</ele>
        <time>2020-05-21T21:44:52Z</time>
      </trkpt>
      <trkpt lat="43.148470" lon="-5.271120">
        <ele>700.393</ele>
        <time>2020-05-21T21:45:12Z</time>
      </trkpt>
      <trkpt lat="43.148490" lon="-5.271010">
        <ele>700.496</ele>
        <time>2020-05-21T21:45:32Z</time>
      </trkpt>
      <trkpt lat="43.148530" lon="-5.270940">
        <ele>702.531</ele>
        <time>2020-05-21T21:45:52Z</time>
      </trkpt>
      <trkpt lat="43.148570" lon="-5.270860">
        <ele>704.324</ele>
        <time>2020-05-21T21:46:12Z</time>
      </trkpt>
      <trkpt lat="43.148670" lon="-5.270700">
        <ele>706.408</ele>
        <time>2020-05-21T21:46:32Z</time>
      </trkpt>
      <trkpt lat="43.148790" lon="-5.270510">
        <ele>709.253</ele>
        <time>2020-05-21T21:46:52Z</time>
      </trkpt>
      <trkpt lat="43.148840" lon="-5.270430">
        <ele>709.968</ele>
        <time>2020-05-21T21:47:12Z</time>
      </trkpt>
      <trkpt lat="43.148900" lon="-5.270320">
        <ele>709.285</ele>
        <time>2020-05-21T21:47:32Z</time>
      </trkpt>
      <trkpt lat="43.148970" lon="-5.270210">
        <ele>709.341</ele>
        <time>2020-05-21T21:47:52Z</time>
      </trkpt>
      <trkpt lat="43.149040" lon="-5.270060">
        <ele>707.810</ele>
        <time>2020-05-21T21:48:12Z</time>
      </trkpt>
      <trkpt lat="43.149110" lon="-5.269920">
        <ele>707.637</ele>
        <time>2020-05-21T21:48:32Z</time>
      </trkpt>
      <trkpt lat="43.149160" lon="-5.269820">
        <ele>707.462</ele>
        <time>2020-05-21T21:48:52Z</time>
      </trkpt>
      <trkpt lat="43.149230" lon="-5.269650">
        <ele>705.156</ele>
        <time>2020-05-21T21:49:12Z</time>
      </trkpt>
      <trkpt lat="43.149280" lon="-5.269520">
        <ele>702.835</ele>
        <time>2020-05-21T21:49:32Z</time>
      </trkpt>
      <trkpt lat="43.149330" lon="-5.269390">
        <ele>701.086</ele>
        <time>2020-05-21T21:49:52Z</time>
      </trkpt>
      <trkpt lat="43.149380" lon="-5.269250">
        <ele>699.814</ele>
        <time>2020-05-21T21:50:12Z</time>
      </trkpt>
      <trkpt lat="43.149430" lon="-5.269130">
        <ele>698.708</ele>
        <time>2020-05-21T21:50:32Z</time>
      </trkpt>
      <trkpt lat="43.149540" lon="-5.268840">
        <ele>697.997</ele>
        <time>2020-05-21T21:50:52Z</time>
      </trkpt>
      <trkpt lat="43.149580" lon="-5.268700">
        <ele>697.722</ele>
        <time>2020-05-21T21:51:12Z</time>
      </trkpt>
      <trkpt lat="43.149590" lon="-5.268620">
        <ele>696.879</ele>
        <time>2020-05-21T21:51:32Z</time>
      </trkpt>
      <trkpt lat="43.149590" lon="-5.268540">
        <ele>696.365</ele>
        <time>2020-05-21T21:51:52Z</time>
      </trkpt>
      <trkpt lat="43.149590" lon="-5.268480">
        <ele>696.014</ele>
        <time>2020-05-21T21:52:12Z</time>
      </trkpt>
      <trkpt lat="43.149580" lon="-5.268410">
        <ele>695.321</ele>
        <time>2020-05-21T21:52:32Z</time>
      </trkpt>
      <trkpt lat="43.149580" lon="-5.268370">
        <ele>695.146</ele>
        <time>2020-05-21T21:52:52Z</time>
      </trkpt>
      <trkpt lat="43.149580" lon="-5.268290">
        <ele>694.820</ele>
        <time>2020-05-21T21:53:12Z</time>
      </trkpt>
      <trkpt lat="43.149580" lon="-5.268110">
        <ele>694.551</ele>
        <time>2020-05-21T21:53:32Z</time>
      </trkpt>
      <trkpt lat="43.149590" lon="-5.268030">
        <ele>694.301</ele>
        <time>2020-05-21T21:53:52Z</time>
      </trkpt>
      <trkpt lat="43.149600" lon="-5.267970">
        <ele>693.811</ele>
        <time>2020-05-21T21:54:12Z</time>
      </trkpt>
      <trkpt lat="43.149620" lon="-5.267900">
        <ele>693.208</ele>
        <time>2020-05-21T21:54:32Z</time>
      </trkpt>
      <trkpt lat="43.149640" lon="-5.267840">
        <ele>692.789</ele>
        <time>2020-05-21T21:54:52Z</time>
      </trkpt>
      <trkpt lat="43.149660" lon="-5.267810">
        <ele>692.634</ele>
        <time>2020-05-21T21:55:12Z</time>
      </trkpt>
      <trkpt lat="43.149690" lon="-5.267780">
        <ele>692.621</ele>
        <time>2020-05-21T21:55:32Z</time>
      </trkpt>
      <trkpt lat="43.149710" lon="-5.267740">
        <ele>692.447</ele>
        <time>2020-05-21T21:55:52Z</time>
      </trkpt>
      <trkpt lat="43.149740" lon="-5.267700">
        <ele>692.586</ele>
        <time>2020-05-21T21:56:12Z</time>
      </trkpt>
      <trkpt lat="43.149740" lon="-5.267690">
        <ele>692.463</ele>
        <time>2020-05-21T21:56:32Z</time>
      </trkpt>
      <trkpt lat="43.149810" lon="-5.267600">
        <ele>692.678</ele>
        <time>2020-05-21T21:56:52Z</time>
      </trkpt>
      <trkpt lat="43.149850" lon="-5.267540">
        <ele>692.422</ele>
        <time>2020-05-21T21:57:12Z</time>
      </trkpt>
      <trkpt lat="43.149900" lon="-5.267500">
        <ele>692.649</ele>
        <time>2020-05-21T21:57:32Z</time>
      </trkpt>
      <trkpt lat="43.149950" lon="-5.267460">
        <ele>692.602</ele>
        <time>2020-05-21T21:57:52Z</time>
      </trkpt>
      <trkpt lat="43.149970" lon="-5.267450">
        <ele>692.722</ele>
        <time>2020-05-21T21:58:12Z</time>
      </trkpt>
      <trkpt lat="43.150000" lon="-5.267430">
        <ele>692.708</ele>
        <time>2020-05-21T21:58:32Z</time>
      </trkpt>
      <trkpt lat="43.150030" lon="-5.267420">
        <ele>693.618</ele>
        <time>2020-05-21T21:58:52Z</time>
      </trkpt>
      <trkpt lat="43.150040" lon="-5.267410">
        <ele>693.743</ele>
        <time>2020-05-21T21:59:12Z</time>
      </trkpt>
      <trkpt lat="43.150070" lon="-5.267390">
        <ele>694.450</ele>
        <time>2020-05-21T21:59:32Z</time>
      </trkpt>
      <trkpt lat="43.150090" lon="-5.267370">
        <ele>694.756</ele>
        <time>2020-05-21T21:59:52Z</time>
      </trkpt>
      <trkpt lat="43.150110" lon="-5.267340">
        <ele>694.995</ele>
        <time>2020-05-21T22:00:12Z</time>
      </trkpt>
      <trkpt lat="43.150130" lon="-5.267300">
        <ele>694.982</ele>
        <time>2020-05-21T22:00:32Z</time>
      </trkpt>
      <trkpt lat="43.150140" lon="-5.267250">
        <ele>694.587</ele>
        <time>2020-05-21T22:00:52Z</time>
      </trkpt>
      <trkpt lat="43.150150" lon="-5.267200">
        <ele>694.531</ele>
        <time>2020-05-21T22:01:12Z</time>
      </trkpt>
      <trkpt lat="43.150170" lon="-5.267120">
        <ele>695.633</ele>
        <time>2020-05-21T22:01:32Z</time>
      </trkpt>
      <trkpt lat="43.150180" lon="-5.267070">
        <ele>696.223</ele>
        <time>2020-05-21T22:01:52Z</time>
      </trkpt>
      <trkpt lat="43.150180" lon="-5.267040">
        <ele>696.315</ele>
        <time>2020-05-21T22:02:12Z</time>
      </trkpt>
      <trkpt lat="43.150180" lon="-5.267010">
        <ele>696.508</ele>
        <time>2020-05-21T22:02:32Z</time>
      </trkpt>
      <trkpt lat="43.150170" lon="-5.266970">
        <ele>696.227</ele>
        <time>2020-05-21T22:02:52Z</time>
      </trkpt>
      <trkpt lat="43.150170" lon="-5.266930">
        <ele>697.182</ele>
        <time>2020-05-21T22:03:12Z</time>
      </trkpt>
      <trkpt lat="43.150160" lon="-5.266890">
        <ele>698.849</ele>
        <time>2020-05-21T22:03:32Z</time>
      </trkpt>
      <trkpt lat="43.150140" lon="-5.266840">
        <ele>700.185</ele>
        <time>2020-05-21T22:03:52Z</time>
      </trkpt>
      <trkpt lat="43.150110" lon="-5.266790">
        <ele>700.484</ele>
        <time>2020-05-21T22:04:12Z</time>
      </trkpt>
      <trkpt lat="43.149860" lon="-5.266420">
        <ele>701.831</ele>
        <time>2020-05-21T22:04:32Z</time>
      </trkpt>
      <trkpt lat="43.149740" lon="-5.266240">
        <ele>697.486</ele>
        <time>2020-05-21T22:04:52Z</time>
      </trkpt>
      <trkpt lat="43.149610" lon="-5.266060">
        <ele>698.170</ele>
        <time>2020-05-21T22:05:12Z</time>
      </trkpt>
      <trkpt lat="43.149370" lon="-5.265700">
        <ele>698.647</ele>
        <time>2020-05-21T22:05:32Z</time>
      </trkpt>
      <trkpt lat="43.149190" lon="-5.265280">
        <ele>700.729</ele>
        <time>2020-05-21T22:05:52Z</time>
      </trkpt>
      <trkpt lat="43.149100" lon="-5.264980">
        <ele>702.121</ele>
        <time>2020-05-21T22:06:12Z</time>
      </trkpt>
      <trkpt lat="43.149040" lon="-5.264820">
        <ele>705.308</ele>
        <time>2020-05-21T22:06:32Z</time>
      </trkpt>
      <trkpt lat="43.148920" lon="-5.264490">
        <ele>704.838</ele>
        <time>2020-05-21T22:06:52Z</time>
      </trkpt>
      <trkpt lat="43.148880" lon="-5.264380">
        <ele>703.813</ele>
        <time>2020-05-21T22:07:12Z</time>
      </trkpt>
      <trkpt lat="43.148810" lon="-5.264180">
        <ele>704.190</ele>
        <time>2020-05-21T22:07:32Z</time>
      </trkpt>
      <trkpt lat="43.148750" lon="-5.264050">
        <ele>704.376</ele>
        <time>2020-05-21T22:07:52Z</time>
      </trkpt>
      <trkpt lat="43.148700" lon="-5.263930">
        <ele>703.565</ele>
        <time>2020-05-21T22:08:12Z</time>
      </trkpt>
      <trkpt lat="43.148620" lon="-5.263750">
        <ele>701.192</ele>
        <time>2020-05-21T22:08:32Z</time>
      </trkpt>
      <trkpt lat="43.148590" lon="-5.263660">
        <ele>702.037</ele>
        <time>2020-05-21T22:08:52Z</time>
      </trkpt>
      <trkpt lat="43.148570" lon="-5.263570">
        <ele>703.111</ele>
        <time>2020-05-21T22:09:12Z</time>
      </trkpt>
      <trkpt lat="43.148550" lon="-5.263470">
        <ele>704.063</ele>
        <time>2020-05-21T22:09:32Z</time>
      </trkpt>
      <trkpt lat="43.148530" lon="-5.263320">
        <ele>705.044</ele>
        <time>2020-05-21T22:09:52Z</time>
      </trkpt>
      <trkpt lat="43.148520" lon="-5.263090">
        <ele>707.318</ele>
        <time>2020-05-21T22:10:12Z</time>
      </trkpt>
      <trkpt lat="43.148510" lon="-5.262790">
        <ele>709.008</ele>
        <time>2020-05-21T22:10:32Z</time>
      </trkpt>
      <trkpt lat="43.148510" lon="-5.262670">
        <ele>710.730</ele>
        <time>2020-05-21T22:10:52Z</time>
      </trkpt>
      <trkpt lat="43.148500" lon="-5.262580">
        <ele>711.255</ele>
        <time>2020-05-21T22:11:12Z</time>
      </trkpt>
      <trkpt lat="43.148480" lon="-5.262440">
        <ele>711.352</ele>
        <time>2020-05-21T22:11:32Z</time>
      </trkpt>
      <trkpt lat="43.148460" lon="-5.262330">
        <ele>710.748</ele>
        <time>2020-05-21T22:11:52Z</time>
      </trkpt>
      <trkpt lat="43.148420" lon="-5.262180">
        <ele>709.447</ele>
        <time>2020-05-21T22:12:12Z</time>
      </trkpt>
      <trkpt lat="43.148390" lon="-5.262080">
        <ele>709.374</ele>
        <time>2020-05-21T22:12:32Z</time>
      </trkpt>
      <trkpt lat="43.148380" lon="-5.262060">
        <ele>708.869</ele>
        <time>2020-05-21T22:12:52Z</time>
      </trkpt>
      <trkpt lat="43.148350" lon="-5.261990">
        <ele>707.623</ele>
        <time>2020-05-21T22:13:12Z</time>
      </trkpt>
      <trkpt lat="43.148310" lon="-5.261910">
        <ele>707.774</ele>
        <time>2020-05-21T22:13:32Z</time>
      </trkpt>
      <trkpt lat="43.148270" lon="-5.261830">
        <ele>709.156</ele>
        <time>2020-05-21T22:13:52Z</time>
      </trkpt>
      <trkpt lat="43.148230" lon="-5.261740">
        <ele>709.821</ele>
        <time>2020-05-21T22:14:12Z</time>
      </trkpt>
      <trkpt lat="43.148160" lon="-5.261670">
        <ele>707.108</ele>
        <time>2020-05-21T22:14:32Z</time>
      </trkpt>
      <trkpt lat="43.148060" lon="-5.261570">
        <ele>707.341</ele>
        <time>2020-05-21T22:14:52Z</time>
      </trkpt>
      <trkpt lat="43.147930" lon="-5.261460">
        <ele>708.726</ele>
        <time>2020-05-21T22:15:12Z</time>
      </trkpt>
      <trkpt lat="43.147830" lon="-5.261410">
        <ele>704.983</ele>
        <time>2020-05-21T22:15:32Z</time>
      </trkpt>
      <trkpt lat="43.147740" lon="-5.261370">
        <ele>703.119</ele>
        <time>2020-05-21T22:15:52Z</time>
      </trkpt>
      <trkpt lat="43.147630" lon="-5.261350">
        <ele>704.158</ele>
        <time>2020-05-21T22:16:12Z</time>
      </trkpt>
      <trkpt lat="43.147520" lon="-5.261350">
        <ele>703.935</ele>
        <time>2020-05-21T22:16:32Z</time>
      </trkpt>
      <trkpt lat="43.147390" lon="-5.261340">
        <ele>703.910</ele>
        <time>2020-05-21T22:16:52Z</time>
      </trkpt>
      <trkpt lat="43.147340" lon="-5.261330">
        <ele>704.064</ele>
        <time>2020-05-21T22:17:12Z</time>
      </trkpt>
      <trkpt lat="43.147290" lon="-5.261310">
        <ele>704.488</ele>
        <time>2020-05-21T22:17:32Z</time>
      </trkpt>
      <trkpt lat="43.147210" lon="-5.261270">
        <ele>705.024</ele>
        <time>2020-05-21T22:17:52Z</time>
      </trkpt>
      <trkpt lat="43.147150" lon="-5.261240">
        <ele>705.326</ele>
        <time>2020-05-21T22:18:12Z</time>
      </trkpt>
      <trkpt lat="43.147080" lon="-5.261180">
        <ele>705.608</ele>
        <time>2020-05-21T22:18:32Z</time>
      </trkpt>
      <trkpt lat="43.147040" lon="-5.261130">
        <ele>705.652</ele>
        <time>2020-05-21T22:18:52Z</time>
      </trkpt>
      <trkpt lat="43.147010" lon="-5.261100">
        <ele>705.587</ele>
        <time>2020-05-21T22:19:12Z</time>
      </trkpt>
      <trkpt lat="43.146970" lon="-5.261040">
        <ele>706.354</ele>
        <time>2020-05-21T22:19:32Z</time>
      </trkpt>
      <trkpt lat="43.146930" lon="-5.260970">
        <ele>707.570</ele>
        <time>2020-05-21T22:19:52Z</time>
      </trkpt>
      <trkpt lat="43.146900" lon="-5.260900">
        <ele>708.569</ele>
        <time>2020-05-21T22:20:12Z</time>
      </trkpt>
      <trkpt lat="43.146870" lon="-5.260840">
        <ele>708.866</ele>
        <time>2020-05-21T22:20:32Z</time>
      </trkpt>
      <trkpt lat="43.146840" lon="-5.260710">
        <ele>709.751</ele>
        <time>2020-05-21T22:20:52Z</time>
      </trkpt>
      <trkpt lat="43.146840" lon="-5.260650">
        <ele>710.595</ele>
        <time>2020-05-21T22:21:12Z</time>
      </trkpt>
      <trkpt lat="43.146830" lon="-5.260590">
        <ele>711.025</ele>
        <time>2020-05-21T22:21:32Z</time>
      </trkpt>
      <trkpt lat="43.146820" lon="-5.260380">
        <ele>709.026</ele>
        <time>2020-05-21T22:21:52Z</time>
      </trkpt>
      <trkpt lat="43.146790" lon="-5.260240">
        <ele>707.708</ele>
        <time>2020-05-21T22:22:12Z</time>
      </trkpt>
      <trkpt lat="43.146750" lon="-5.260120">
        <ele>708.708</ele>
        <time>2020-05-21T22:22:32Z</time>
      </trkpt>
      <trkpt lat="43.146710" lon="-5.260020">
        <ele>709.876</ele>
        <time>2020-05-21T22:22:52Z</time>
      </trkpt>
      <trkpt lat="43.146640" lon="-5.259810">
        <ele>712.821</ele>
        <time>2020-05-21T22:23:12Z</time>
      </trkpt>
      <trkpt lat="43.146630" lon="-5.259800">
        <ele>712.818</ele>
        <time>2020-05-21T22:23:32Z</time>
      </trkpt>
      <trkpt lat="43.146560" lon="-5.259570">
        <ele>715.614</ele>
        <time>2020-05-21T22:23:52Z</time>
      </trkpt>
      <trkpt lat="43.146490" lon="-5.259380">
        <ele>716.663</ele>
        <time>2020-05-21T22:24:12Z</time>
      </trkpt>
      <trkpt lat="43.146430" lon="-5.259200">
        <ele>716.250</ele>
        <time>2020-05-21T22:24:32Z</time>
      </trkpt>
      <trkpt lat="43.146390" lon="-5.259100">
        <ele>715.585</ele>
        <time>2020-05-21T22:24:52Z</time>
      </trkpt>
      <trkpt lat="43.146330" lon="-5.258960">
        <ele>717.099</ele>
        <time>2020-05-21T22:25:12Z</time>
      </trkpt>
      <trkpt lat="43.146280" lon="-5.258880">
        <ele>717.119</ele>
        <time>2020-05-21T22:25:32Z</time>
      </trkpt>
      <trkpt lat="43.146230" lon="-5.258790">
        <ele>718.109</ele>
        <time>2020-05-21T22:25:52Z</time>
      </trkpt>
      <trkpt lat="43.146200" lon="-5.258730">
        <ele>718.319</ele>
        <time>2020-05-21T22:26:12Z</time>
      </trkpt>
      <trkpt lat="43.146190" lon="-5.258730">
        <ele>717.908</ele>
        <time>2020-05-21T22:26:32Z</time>
      </trkpt>
      <trkpt lat="43.146150" lon="-5.258640">
        <ele>717.795</ele>
        <time>2020-05-21T22:26:52Z</time>
      </trkpt>
      <trkpt lat="43.146130" lon="-5.258560">
        <ele>717.510</ele>
        <time>2020-05-21T22:27:12Z</time>
      </trkpt>
      <trkpt lat="43.146120" lon="-5.258500">
        <ele>717.497</ele>
        <time>2020-05-21T22:27:32Z</time>
      </trkpt>
      <trkpt lat="43.146110" lon="-5.258400">
        <ele>717.523</ele>
        <time>2020-05-21T22:27:52Z</time>
      </trkpt>
      <trkpt lat="43.146100" lon="-5.258240">
        <ele>718.062</ele>
        <time>2020-05-21T22:28:12Z</time>
      </trkpt>
      <trkpt lat="43.146100" lon="-5.258140">
        <ele>718.469</ele>
        <time>2020-05-21T22:28:32Z</time>
      </trkpt>
      <trkpt lat="43.146100" lon="-5.258030">
        <ele>718.994</ele>
        <time>2020-05-21T22:28:52Z</time>
      </trkpt>
      <trkpt lat="43.146100" lon="-5.257920">
        <ele>719.678</ele>
        <time>2020-05-21T22:29:12Z</time>
      </trkpt>
      <trkpt lat="43.146090" lon="-5.257810">
        <ele>720.198</ele>
        <time>2020-05-21T22:29:32Z</time>
      </trkpt>
      <trkpt lat="43.146090" lon="-5.257770">
        <ele>720.515</ele>
        <time>2020-05-21T22:29:52Z</time>
      </trkpt>
      <trkpt lat="43.146080" lon="-5.257680">
        <ele>722.226</ele>
        <time>2020-05-21T22:30:12Z</time>
      </trkpt>
      <trkpt lat="43.146060" lon="-5.257580">
        <ele>723.508</ele>
        <time>2020-05-21T22:30:32Z</time>
      </trkpt>
      <trkpt lat="43.146030" lon="-5.257480">
        <ele>724.173</ele>
        <time>2020-05-21T22:30:52Z</time>
      </trkpt>
      <trkpt lat="43.145980" lon="-5.257340">
        <ele>724.448</ele>
        <time>2020-05-21T22:31:12Z</time>
      </trkpt>
      <trkpt lat="43.145940" lon="-5.257270">
        <ele>723.585</ele>
        <time>2020-05-21T22:31:32Z</time>
      </trkpt>
      <trkpt lat="43.145900" lon="-5.257210">
        <ele>722.781</ele>
        <time>2020-05-21T22:31:52Z</time>
      </trkpt>
      <trkpt lat="43.145840" lon="-5.257160">
        <ele>721.760</ele>
        <time>2020-05-21T22:32:12Z</time>
      </trkpt>
      <trkpt lat="43.145830" lon="-5.257150">
        <ele>721.817</ele>
        <time>2020-05-21T22:32:32Z</time>
      </trkpt>
      <trkpt lat="43.145770" lon="-5.257120">
        <ele>722.242</ele>
        <time>2020-05-21T22:32:52Z</time>
      </trkpt>
      <trkpt lat="43.145690" lon="-5.257090">
        <ele>721.986</ele>
        <time>2020-05-21T22:33:12Z</time>
      </trkpt>
      <trkpt lat="43.145570" lon="-5.257050">
        <ele>720.398</ele>
        <time>2020-05-21T22:33:32Z</time>
      </trkpt>
      <trkpt lat="43.144990" lon="-5.256710">
        <ele>722.115</ele>
        <time>2020-05-21T22:33:52Z</time>
      </trkpt>
      <trkpt lat="43.144770" lon="-5.256560">
        <ele>723.226</ele>
        <time>2020-05-21T22:34:12Z</time>
      </trkpt>
      <trkpt lat="43.144670" lon="-5.256490">
        <ele>723.108</ele>
        <time>2020-05-21T22:34:32Z</time>
      </trkpt>
      <trkpt lat="43.144630" lon="-5.256460">
        <ele>723.163</ele>
        <time>2020-05-21T22:34:52Z</time>
      </trkpt>
      <trkpt lat="43.144520" lon="-5.256370">
        <ele>723.118</ele>
        <time>2020-05-21T22:35:12Z</time>
      </trkpt>
      <trkpt lat="43.144510" lon="-5.256370">
        <ele>722.945</ele>
        <time>2020-05-21T22:35:32Z</time>
      </trkpt>
      <trkpt lat="43.144440" lon="-5.256290">
        <ele>724.161</ele>
        <time>2020-05-21T22:35:52Z</time>
      </trkpt>
      <trkpt lat="43.144350" lon="-5.256140">
        <ele>725.690</ele>
        <time>2020-05-21T22:36:12Z</time>
      </trkpt>
      <trkpt lat="43.144280" lon="-5.256000">
        <ele>725.597</ele>
        <time>2020-05-21T22:36:32Z</time>
      </trkpt>
      <trkpt lat="43.144270" lon="-5.255980">
        <ele>725.432</ele>
        <time>2020-05-21T22:36:52Z</time>
      </trkpt>
      <trkpt lat="43.144230" lon="-5.255870">
        <ele>725.186</ele>
        <time>2020-05-21T22:37:12Z</time>
      </trkpt>
      <trkpt lat="43.144190" lon="-5.255780">
        <ele>723.928</ele>
        <time>2020-05-21T22:37:32Z</time>
      </trkpt>
      <trkpt lat="43.144140" lon="-5.255590">
        <ele>724.589</ele>
        <time>2020-05-21T22:37:52Z</time>
      </trkpt>
      <trkpt lat="43.144080" lon="-5.255420">
        <ele>726.517</ele>
        <time>2020-05-21T22:38:12Z</time>
      </trkpt>
      <trkpt lat="43.143990" lon="-5.255210">
        <ele>727.308</ele>
        <time>2020-05-21T22:38:32Z</time>
      </trkpt>
      <trkpt lat="43.143950" lon="-5.255120">
        <ele>727.156</ele>
        <time>2020-05-21T22:38:52Z</time>
      </trkpt>
      <trkpt lat="43.143850" lon="-5.254920">
        <ele>726.741</ele>
        <time>2020-05-21T22:39:12Z</time>
      </trkpt>
      <trkpt lat="43.143820" lon="-5.254860">
        <ele>726.988</ele>
        <time>2020-05-21T22:39:32Z</time>
      </trkpt>
      <trkpt lat="43.143740" lon="-5.254740">
        <ele>726.364</ele>
        <time>2020-05-21T22:39:52Z</time>
      </trkpt>
      <trkpt lat="43.143660" lon="-5.254630">
        <ele>727.783</ele>
        <time>2020-05-21T22:40:12Z</time>
      </trkpt>
      <trkpt lat="43.143600" lon="-5.254570">
        <ele>728.330</ele>
        <time>2020-05-21T22:40:32Z</time>
      </trkpt>
      <trkpt lat="43.143590" lon="-5.254560">
        <ele>728.525</ele>
        <time>2020-05-21T22:40:52Z</time>
      </trkpt>
      <trkpt lat="43.143510" lon="-5.254480">
        <ele>728.969</ele>
        <time>2020-05-21T22:41:12Z</time>
      </trkpt>
      <trkpt lat="43.143450" lon="-5.254420">
        <ele>728.721</ele>
        <time>2020-05-21T22:41:32Z</time>
      </trkpt>
      <trkpt lat="43.143420" lon="-5.254390">
        <ele>728.941</ele>
        <time>2020-05-21T22:41:52Z</time>
      </trkpt>
      <trkpt lat="43.143350" lon="-5.254310">
        <ele>729.005</ele>
        <time>2020-05-21T22:42:12Z</time>
      </trkpt>
      <trkpt lat="43.143300" lon="-5.254210">
        <ele>730.408</ele>
        <time>2020-05-21T22:42:32Z</time>
      </trkpt>
      <trkpt lat="43.143260" lon="-5.254090">
        <ele>731.276</ele>
        <time>2020-05-21T22:42:52Z</time>
      </trkpt>
      <trkpt lat="43.143220" lon="-5.253960">
        <ele>731.371</ele>
        <time>2020-05-21T22:43:12Z</time>
      </trkpt>
      <trkpt lat="43.143190" lon="-5.253830">
        <ele>731.938</ele>
        <time>2020-05-21T22:43:32Z</time>
      </trkpt>
      <trkpt lat="43.143150" lon="-5.253680">
        <ele>732.914</ele>
        <time>2020-05-21T22:43:52Z</time>
      </trkpt>
      <trkpt lat="43.143110" lon="-5.253580">
        <ele>733.163</ele>
        <time>2020-05-21T22:44:12Z</time>
      </trkpt>
      <trkpt lat="43.143110" lon="-5.253570">
        <ele>733.340</ele>
        <time>2020-05-21T22:44:32Z</time>
      </trkpt>
      <trkpt lat="43.143050" lon="-5.253450">
        <ele>733.455</ele>
        <time>2020-05-21T22:44:52Z</time>
      </trkpt>
      <trkpt lat="43.143010" lon="-5.253380">
        <ele>734.169</ele>
        <time>2020-05-21T22:45:12Z</time>
      </trkpt>
      <trkpt lat="43.142990" lon="-5.253340">
        <ele>734.562</ele>
        <time>2020-05-21T22:45:32Z</time>
      </trkpt>
      <trkpt lat="43.142890" lon="-5.253210">
        <ele>735.483</ele>
        <time>2020-05-21T22:45:52Z</time>
      </trkpt>
      <trkpt lat="43.142880" lon="-5.253200">
        <ele>735.211</ele>
        <time>2020-05-21T22:46:12Z</time>
      </trkpt>
      <trkpt lat="43.142800" lon="-5.253100">
        <ele>733.608</ele>
        <time>2020-05-21T22:46:32Z</time>
      </trkpt>
      <trkpt lat="43.142720" lon="-5.252990">
        <ele>734.660</ele>
        <time>2020-05-21T22:46:52Z</time>
      </trkpt>
      <trkpt lat="43.142650" lon="-5.252920">
        <ele>735.065</ele>
        <time>2020-05-21T22:47:12Z</time>
      </trkpt>
      <trkpt lat="43.142610" lon="-5.252880">
        <ele>734.762</ele>
        <time>2020-05-21T22:47:32Z</time>
      </trkpt>
      <trkpt lat="43.142560" lon="-5.252810">
        <ele>734.248</ele>
        <time>2020-05-21T22:47:52Z</time>
      </trkpt>
      <trkpt lat="43.142480" lon="-5.252710">
        <ele>734.527</ele>
        <time>2020-05-21T22:48:12Z</time>
      </trkpt>
      <trkpt lat="43.142470" lon="-5.252690">
        <ele>735.184</ele>
        <time>2020-05-21T22:48:32Z</time>
      </trkpt>
      <trkpt lat="43.142370" lon="-5.252580">
        <ele>736.419</ele>
        <time>2020-05-21T22:48:52Z</time>
      </trkpt>
      <trkpt lat="43.142340" lon="-5.252550">
        <ele>736.263</ele>
        <time>2020-05-21T22:49:12Z</time>
      </trkpt>
      <trkpt lat="43.142270" lon="-5.252470">
        <ele>736.247</ele>
        <time>2020-05-21T22:49:32Z</time>
      </trkpt>
      <trkpt lat="43.142200" lon="-5.252420">
        <ele>736.529</ele>
        <time>2020-05-21T22:49:52Z</time>
      </trkpt>
      <trkpt lat="43.142200" lon="-5.252410">
        <ele>736.921</ele>
        <time>2020-05-21T22:50:12Z</time>
      </trkpt>
      <trkpt lat="43.142110" lon="-5.252360">
        <ele>737.308</ele>
        <time>2020-05-21T22:50:32Z</time>
      </trkpt>
      <trkpt lat="43.142020" lon="-5.252300">
        <ele>736.628</ele>
        <time>2020-05-21T22:50:52Z</time>
      </trkpt>
      <trkpt lat="43.141950" lon="-5.252260">
        <ele>734.963</ele>
        <time>2020-05-21T22:51:12Z</time>
      </trkpt>
      <trkpt lat="43.141870" lon="-5.252200">
        <ele>735.110</ele>
        <time>2020-05-21T22:51:32Z</time>
      </trkpt>
      <trkpt lat="43.141840" lon="-5.252180">
        <ele>735.666</ele>
        <time>2020-05-21T22:51:52Z</time>
      </trkpt>
      <trkpt lat="43.141700" lon="-5.252130">
        <ele>736.165</ele>
        <time>2020-05-21T22:52:12Z</time>
      </trkpt>
      <trkpt lat="43.141690" lon="-5.252120">
        <ele>736.332</ele>
        <time>2020-05-21T22:52:32Z</time>
      </trkpt>
      <trkpt lat="43.141570" lon="-5.252110">
        <ele>736.497</ele>
        <time>2020-05-21T22:52:52Z</time>
      </trkpt>
      <trkpt lat="43.141520" lon="-5.252110">
        <ele>736.361</ele>
        <time>2020-05-21T22:53:12Z</time>
      </trkpt>
      <trkpt lat="43.141490" lon="-5.252100">
        <ele>736.629</ele>
        <time>2020-05-21T22:53:32Z</time>
      </trkpt>
      <trkpt lat="43.141410" lon="-5.252080">
        <ele>737.100</ele>
        <time>2020-05-21T22:53:52Z</time>
      </trkpt>
      <trkpt lat="43.141320" lon="-5.252030">
        <ele>737.520</ele>
        <time>2020-05-21T22:54:12Z</time>
      </trkpt>
      <trkpt lat="43.141230" lon="-5.251960">
        <ele>736.808</ele>
        <time>2020-05-21T22:54:32Z</time>
      </trkpt>
      <trkpt lat="43.141190" lon="-5.251920">
        <ele>737.026</ele>
        <time>2020-05-21T22:54:52Z</time>
      </trkpt>
      <trkpt lat="43.141150" lon="-5.251870">
        <ele>737.941</ele>
        <time>2020-05-21T22:55:12Z</time>
      </trkpt>
      <trkpt lat="43.141080" lon="-5.251800">
        <ele>738.858</ele>
        <time>2020-05-21T22:55:32Z</time>
      </trkpt>
      <trkpt lat="43.141050" lon="-5.251770">
        <ele>739.424</ele>
        <time>2020-05-21T22:55:52Z</time>
      </trkpt>
      <trkpt lat="43.141000" lon="-5.251740">
        <ele>739.423</ele>
        <time>2020-05-21T22:56:12Z</time>
      </trkpt>
      <trkpt lat="43.140920" lon="-5.251670">
        <ele>739.110</ele>
        <time>2020-05-21T22:56:32Z</time>
      </trkpt>
      <trkpt lat="43.140890" lon="-5.251650">
        <ele>739.165</ele>
        <time>2020-05-21T22:56:52Z</time>
      </trkpt>
      <trkpt lat="43.140850" lon="-5.251610">
        <ele>739.589</ele>
        <time>2020-05-21T22:57:12Z</time>
      </trkpt>
      <trkpt lat="43.140760" lon="-5.251490">
        <ele>741.673</ele>
        <time>2020-05-21T22:57:32Z</time>
      </trkpt>
      <trkpt lat="43.140710" lon="-5.251370">
        <ele>743.585</ele>
        <time>2020-05-21T22:57:52Z</time>
      </trkpt>
      <trkpt lat="43.140660" lon="-5.251280">
        <ele>744.013</ele>
        <time>2020-05-21T22:58:12Z</time>
      </trkpt>
      <trkpt lat="43.140640" lon="-5.251230">
        <ele>744.208</ele>
        <time>2020-05-21T22:58:32Z</time>
      </trkpt>
      <trkpt lat="43.140570" lon="-5.251110">
        <ele>742.991</ele>
        <time>2020-05-21T22:58:52Z</time>
      </trkpt>
      <trkpt lat="43.140500" lon="-5.251000">
        <ele>744.536</ele>
        <time>2020-05-21T22:59:12Z</time>
      </trkpt>
      <trkpt lat="43.140410" lon="-5.250850">
        <ele>745.923</ele>
        <time>2020-05-21T22:59:32Z</time>
      </trkpt>
      <trkpt lat="43.140320" lon="-5.250760">
        <ele>745.899</ele>
        <time>2020-05-21T22:59:52Z</time>
      </trkpt>
      <trkpt lat="43.140300" lon="-5.250740">
        <ele>745.698</ele>
        <time>2020-05-21T23:00:12Z</time>
      </trkpt>
      <trkpt lat="43.140180" lon="-5.250600">
        <ele>746.665</ele>
        <time>2020-05-21T23:00:32Z</time>
      </trkpt>
      <trkpt lat="43.140160" lon="-5.250580">
        <ele>746.660</ele>
        <time>2020-05-21T23:00:52Z</time>
      </trkpt>
      <trkpt lat="43.140080" lon="-5.250510">
        <ele>746.584</ele>
        <time>2020-05-21T23:01:12Z</time>
      </trkpt>
      <trkpt lat="43.139990" lon="-5.250450">
        <ele>745.575</ele>
        <time>2020-05-21T23:01:32Z</time>
      </trkpt>
      <trkpt lat="43.139900" lon="-5.250370">
        <ele>746.028</ele>
        <time>2020-05-21T23:01:52Z</time>
      </trkpt>
      <trkpt lat="43.139850" lon="-5.250330">
        <ele>745.920</ele>
        <time>2020-05-21T23:02:12Z</time>
      </trkpt>
      <trkpt lat="43.139830" lon="-5.250310">
        <ele>745.808</ele>
        <time>2020-05-21T23:02:32Z</time>
      </trkpt>
      <trkpt lat="43.139730" lon="-5.250220">
        <ele>746.181</ele>
        <time>2020-05-21T23:02:52Z</time>
      </trkpt>
      <trkpt lat="43.139640" lon="-5.250120">
        <ele>746.956</ele>
        <time>2020-05-21T23:03:12Z</time>
      </trkpt>
      <trkpt lat="43.139520" lon="-5.249990">
        <ele>746.063</ele>
        <time>2020-05-21T23:03:32Z</time>
      </trkpt>
      <trkpt lat="43.139440" lon="-5.249870">
        <ele>745.829</ele>
        <time>2020-05-21T23:03:52Z</time>
      </trkpt>
      <trkpt lat="43.139440" lon="-5.249860">
        <ele>746.038</ele>
        <time>2020-05-21T23:04:12Z</time>
      </trkpt>
      <trkpt lat="43.139360" lon="-5.249760">
        <ele>746.685</ele>
        <time>2020-05-21T23:04:32Z</time>
      </trkpt>
      <trkpt lat="43.139310" lon="-5.249690">
        <ele>747.030</ele>
        <time>2020-05-21T23:04:52Z</time>
      </trkpt>
      <trkpt lat="43.139300" lon="-5.249680">
        <ele>747.134</ele>
        <time>2020-05-21T23:05:12Z</time>
      </trkpt>
      <trkpt lat="43.139250" lon="-5.249600">
        <ele>747.683</ele>
        <time>2020-05-21T23:05:32Z</time>
      </trkpt>
      <trkpt lat="43.139190" lon="-5.249530">
        <ele>746.725</ele>
        <time>2020-05-21T23:05:52Z</time>
      </trkpt>
      <trkpt lat="43.139120" lon="-5.249440">
        <ele>746.817</ele>
        <time>2020-05-21T23:06:12Z</time>
      </trkpt>
      <trkpt lat="43.139050" lon="-5.249400">
        <ele>747.708</ele>
        <time>2020-05-21T23:06:32Z</time>
      </trkpt>
      <trkpt lat="43.139030" lon="-5.249390">
        <ele>747.852</ele>
        <time>2020-05-21T23:06:52Z</time>
      </trkpt>
      <trkpt lat="43.138950" lon="-5.249360">
        <ele>747.737</ele>
        <time>2020-05-21T23:07:12Z</time>
      </trkpt>
      <trkpt lat="43.138860" lon="-5.249320">
        <ele>747.744</ele>
        <time>2020-05-21T23:07:32Z</time>
      </trkpt>
      <trkpt lat="43.138800" lon="-5.249290">
        <ele>748.180</ele>
        <time>2020-05-21T23:07:52Z</time>
      </trkpt>
      <trkpt lat="43.138720" lon="-5.249270">
        <ele>747.939</ele>
        <time>2020-05-21T23:08:12Z</time>
      </trkpt>
      <trkpt lat="43.138690" lon="-5.249240">
        <ele>747.976</ele>
        <time>2020-05-21T23:08:32Z</time>
      </trkpt>
      <trkpt lat="43.138670" lon="-5.249220">
        <ele>747.811</ele>
        <time>2020-05-21T23:08:52Z</time>
      </trkpt>
      <trkpt lat="43.138630" lon="-5.249160">
        <ele>747.735</ele>
        <time>2020-05-21T23:09:12Z</time>
      </trkpt>
      <trkpt lat="43.138580" lon="-5.249100">
        <ele>750.894</ele>
        <time>2020-05-21T23:09:32Z</time>
      </trkpt>
      <trkpt lat="43.138560" lon="-5.249070">
        <ele>752.157</ele>
        <time>2020-05-21T23:09:52Z</time>
      </trkpt>
      <trkpt lat="43.138510" lon="-5.249030">
        <ele>752.622</ele>
        <time>2020-05-21T23:10:12Z</time>
      </trkpt>
      <trkpt lat="43.138450" lon="-5.248980">
        <ele>752.208</ele>
        <time>2020-05-21T23:10:32Z</time>
      </trkpt>
      <trkpt lat="43.138400" lon="-5.248950">
        <ele>750.673</ele>
        <time>2020-05-21T23:10:52Z</time>
      </trkpt>
      <trkpt lat="43.138370" lon="-5.248940">
        <ele>749.348</ele>
        <time>2020-05-21T23:11:12Z</time>
      </trkpt>
      <trkpt lat="43.138270" lon="-5.248910">
        <ele>747.735</ele>
        <time>2020-05-21T23:11:32Z</time>
      </trkpt>
      <trkpt lat="43.138220" lon="-5.248900">
        <ele>747.961</ele>
        <time>2020-05-21T23:11:52Z</time>
      </trkpt>
      <trkpt lat="43.138170" lon="-5.248890">
        <ele>748.010</ele>
        <time>2020-05-21T23:12:12Z</time>
      </trkpt>
      <trkpt lat="43.138060" lon="-5.248880">
        <ele>748.477</ele>
        <time>2020-05-21T23:12:32Z</time>
      </trkpt>
      <trkpt lat="43.137900" lon="-5.248910">
        <ele>749.962</ele>
        <time>2020-05-21T23:12:52Z</time>
      </trkpt>
      <trkpt lat="43.137870" lon="-5.248930">
        <ele>750.096</ele>
        <time>2020-05-21T23:13:12Z</time>
      </trkpt>
      <trkpt lat="43.137730" lon="-5.248990">
        <ele>751.263</ele>
        <time>2020-05-21T23:13:32Z</time>
      </trkpt>
      <trkpt lat="43.137610" lon="-5.249020">
        <ele>753.044</ele>
        <time>2020-05-21T23:13:52Z</time>
      </trkpt>
      <trkpt lat="43.137500" lon="-5.249050">
        <ele>754.218</ele>
        <time>2020-05-21T23:14:12Z</time>
      </trkpt>
      <trkpt lat="43.137390" lon="-5.249110">
        <ele>754.208</ele>
        <time>2020-05-21T23:14:32Z</time>
      </trkpt>
      <trkpt lat="43.137350" lon="-5.249130">
        <ele>754.060</ele>
        <time>2020-05-21T23:14:52Z</time>
      </trkpt>
      <trkpt lat="43.137350" lon="-5.249140">
        <ele>753.585</ele>
        <time>2020-05-21T23:15:12Z</time>
      </trkpt>
      <trkpt lat="43.137290" lon="-5.249150">
        <ele>753.962</ele>
        <time>2020-05-21T23:15:32Z</time>
      </trkpt>
      <trkpt lat="43.137210" lon="-5.249150">
        <ele>755.018</ele>
        <time>2020-05-21T23:15:52Z</time>
      </trkpt>
      <trkpt lat="43.137170" lon="-5.249150">
        <ele>754.857</ele>
        <time>2020-05-21T23:16:12Z</time>
      </trkpt>
      <trkpt lat="43.137140" lon="-5.249140">
        <ele>755.244</ele>
        <time>2020-05-21T23:16:32Z</time>
      </trkpt>
      <trkpt lat="43.137070" lon="-5.249110">
        <ele>756.239</ele>
        <time>2020-05-21T23:16:52Z</time>
      </trkpt>
      <trkpt lat="43.137010" lon="-5.249070">
        <ele>757.643</ele>
        <time>2020-05-21T23:17:12Z</time>
      </trkpt>
      <trkpt lat="43.136980" lon="-5.249050">
        <ele>758.186</ele>
        <time>2020-05-21T23:17:32Z</time>
      </trkpt>
      <trkpt lat="43.136930" lon="-5.249020">
        <ele>758.660</ele>
        <time>2020-05-21T23:17:52Z</time>
      </trkpt>
      <trkpt lat="43.136850" lon="-5.248990">
        <ele>758.126</ele>
        <time>2020-05-21T23:18:12Z</time>
      </trkpt>
      <trkpt lat="43.136840" lon="-5.248980">
        <ele>758.208</ele>
        <time>2020-05-21T23:18:32Z</time>
      </trkpt>
      <trkpt lat="43.136780" lon="-5.248960">
        <ele>757.562</ele>
        <time>2020-05-21T23:18:52Z</time>
      </trkpt>
      <trkpt lat="43.136720" lon="-5.248930">
        <ele>756.797</ele>
        <time>2020-05-21T23:19:12Z</time>
      </trkpt>
      <trkpt lat="43.136670" lon="-5.248900">
        <ele>755.974</ele>
        <time>2020-05-21T23:19:32Z</time>
      </trkpt>
      <trkpt lat="43.136660" lon="-5.248890">
        <ele>756.020</ele>
        <time>2020-05-21T23:19:52Z</time>
      </trkpt>
      <trkpt lat="43.136620" lon="-5.248850">
        <ele>757.669</ele>
        <time>2020-05-21T23:20:12Z</time>
      </trkpt>
      <trkpt lat="43.136580" lon="-5.248800">
        <ele>758.966</ele>
        <time>2020-05-21T23:20:32Z</time>
      </trkpt>
      <trkpt lat="43.136540" lon="-5.248750">
        <ele>759.441</ele>
        <time>2020-05-21T23:20:52Z</time>
      </trkpt>
      <trkpt lat="43.136540" lon="-5.248730">
        <ele>760.055</ele>
        <time>2020-05-21T23:21:12Z</time>
      </trkpt>
      <trkpt lat="43.136510" lon="-5.248670">
        <ele>760.187</ele>
        <time>2020-05-21T23:21:32Z</time>
      </trkpt>
      <trkpt lat="43.136510" lon="-5.248600">
        <ele>761.442</ele>
        <time>2020-05-21T23:21:52Z</time>
      </trkpt>
      <trkpt lat="43.136510" lon="-5.248530">
        <ele>761.426</ele>
        <time>2020-05-21T23:22:12Z</time>
      </trkpt>
      <trkpt lat="43.136520" lon="-5.248500">
        <ele>762.008</ele>
        <time>2020-05-21T23:22:32Z</time>
      </trkpt>
      <trkpt lat="43.136520" lon="-5.248460">
        <ele>762.082</ele>
        <time>2020-05-21T23:22:52Z</time>
      </trkpt>
      <trkpt lat="43.136560" lon="-5.248340">
        <ele>764.557</ele>
        <time>2020-05-21T23:23:12Z</time>
      </trkpt>
      <trkpt lat="43.136580" lon="-5.248270">
        <ele>765.824</ele>
        <time>2020-05-21T23:23:32Z</time>
      </trkpt>
      <trkpt lat="43.136580" lon="-5.248260">
        <ele>765.920</ele>
        <time>2020-05-21T23:23:52Z</time>
      </trkpt>
      <trkpt lat="43.136590" lon="-5.248190">
        <ele>766.629</ele>
        <time>2020-05-21T23:24:12Z</time>
      </trkpt>
      <trkpt lat="43.136580" lon="-5.248140">
        <ele>766.176</ele>
        <time>2020-05-21T23:24:32Z</time>
      </trkpt>
      <trkpt lat="43.136570" lon="-5.248110">
        <ele>765.611</ele>
        <time>2020-05-21T23:24:52Z</time>
      </trkpt>
      <trkpt lat="43.136550" lon="-5.248080">
        <ele>764.665</ele>
        <time>2020-05-21T23:25:12Z</time>
      </trkpt>
      <trkpt lat="43.136530" lon="-5.248050">
        <ele>763.788</ele>
        <time>2020-05-21T23:25:32Z</time>
      </trkpt>
      <trkpt lat="43.136520" lon="-5.248040">
        <ele>763.424</ele>
        <time>2020-05-21T23:25:52Z</time>
      </trkpt>
      <trkpt lat="43.136480" lon="-5.247980">
        <ele>762.626</ele>
        <time>2020-05-21T23:26:12Z</time>
      </trkpt>
      <trkpt lat="43.136440" lon="-5.247920">
        <ele>762.008</ele>
        <time>2020-05-21T23:26:32Z</time>
      </trkpt>
      <trkpt lat="43.136400" lon="-5.247880">
        <ele>761.062</ele>
        <time>2020-05-21T23:26:52Z</time>
      </trkpt>
      <trkpt lat="43.136400" lon="-5.247870">
        <ele>761.217</ele>
        <time>2020-05-21T23:27:12Z</time>
      </trkpt>
      <trkpt lat="43.136350" lon="-5.247830">
        <ele>760.974</ele>
        <time>2020-05-21T23:27:32Z</time>
      </trkpt>
      <trkpt lat="43.136260" lon="-5.247740">
        <ele>761.120</ele>
        <time>2020-05-21T23:27:52Z</time>
      </trkpt>
      <trkpt lat="43.136130" lon="-5.247610">
        <ele>761.489</ele>
        <time>2020-05-21T23:28:12Z</time>
      </trkpt>
      <trkpt lat="43.136040" lon="-5.247560">
        <ele>761.546</ele>
        <time>2020-05-21T23:28:32Z</time>
      </trkpt>
      <trkpt lat="43.135970" lon="-5.247530">
        <ele>761.481</ele>
        <time>2020-05-21T23:28:52Z</time>
      </trkpt>
      <trkpt lat="43.135910" lon="-5.247500">
        <ele>761.175</ele>
        <time>2020-05-21T23:29:12Z</time>
      </trkpt>
      <trkpt lat="43.135830" lon="-5.247470">
        <ele>761.472</ele>
        <time>2020-05-21T23:29:32Z</time>
      </trkpt>
      <trkpt lat="43.135750" lon="-5.247430">
        <ele>762.413</ele>
        <time>2020-05-21T23:29:52Z</time>
      </trkpt>
      <trkpt lat="43.135660" lon="-5.247380">
        <ele>763.114</ele>
        <time>2020-05-21T23:30:12Z</time>
      </trkpt>
      <trkpt lat="43.135570" lon="-5.247320">
        <ele>763.208</ele>
        <time>2020-05-21T23:30:32Z</time>
      </trkpt>
      <trkpt lat="43.135480" lon="-5.247230">
        <ele>763.571</ele>
        <time>2020-05-21T23:30:52Z</time>
      </trkpt>
      <trkpt lat="43.135450" lon="-5.247190">
        <ele>764.566</ele>
        <time>2020-05-21T23:31:12Z</time>
      </trkpt>
      <trkpt lat="43.135420" lon="-5.247150">
        <ele>765.553</ele>
        <time>2020-05-21T23:31:32Z</time>
      </trkpt>
      <trkpt lat="43.135320" lon="-5.247030">
        <ele>765.599</ele>
        <time>2020-05-21T23:31:52Z</time>
      </trkpt>
      <trkpt lat="43.135290" lon="-5.246980">
        <ele>765.018</ele>
        <time>2020-05-21T23:32:12Z</time>
      </trkpt>
      <trkpt lat="43.135180" lon="-5.246880">
        <ele>765.855</ele>
        <time>2020-05-21T23:32:32Z</time>
      </trkpt>
      <trkpt lat="43.135120" lon="-5.246820">
        <ele>765.950</ele>
        <time>2020-05-21T23:32:52Z</time>
      </trkpt>
      <trkpt lat="43.135050" lon="-5.246760">
        <ele>764.934</ele>
        <time>2020-05-21T23:33:12Z</time>
      </trkpt>
      <trkpt lat="43.135030" lon="-5.246740">
        <ele>764.522</ele>
        <time>2020-05-21T23:33:32Z</time>
      </trkpt>
      <trkpt lat="43.134990" lon="-5.246700">
        <ele>763.862</ele>
        <time>2020-05-21T23:33:52Z</time>
      </trkpt>
      <trkpt lat="43.134940" lon="-5.246640">
        <ele>764.208</ele>
        <time>2020-05-21T23:34:12Z</time>
      </trkpt>
      <trkpt lat="43.134890" lon="-5.246600">
        <ele>764.508</ele>
        <time>2020-05-21T23:34:32Z</time>
      </trkpt>
      <trkpt lat="43.134880" lon="-5.246600">
        <ele>764.516</ele>
        <time>2020-05-21T23:34:52Z</time>
      </trkpt>
      <trkpt lat="43.134830" lon="-5.246570">
        <ele>764.671</ele>
        <time>2020-05-21T23:35:12Z</time>
      </trkpt>
      <trkpt lat="43.134780" lon="-5.246560">
        <ele>764.578</ele>
        <time>2020-05-21T23:35:32Z</time>
      </trkpt>
      <trkpt lat="43.134740" lon="-5.246570">
        <ele>764.464</ele>
        <time>2020-05-21T23:35:52Z</time>
      </trkpt>
      <trkpt lat="43.134720" lon="-5.246580">
        <ele>764.433</ele>
        <time>2020-05-21T23:36:12Z</time>
      </trkpt>
      <trkpt lat="43.134690" lon="-5.246590">
        <ele>765.010</ele>
        <time>2020-05-21T23:36:32Z</time>
      </trkpt>
      <trkpt lat="43.134660" lon="-5.246620">
        <ele>765.455</ele>
        <time>2020-05-21T23:36:52Z</time>
      </trkpt>
      <trkpt lat="43.134620" lon="-5.246660">
        <ele>765.929</ele>
        <time>2020-05-21T23:37:12Z</time>
      </trkpt>
      <trkpt lat="43.134560" lon="-5.246720">
        <ele>766.489</ele>
        <time>2020-05-21T23:37:32Z</time>
      </trkpt>
      <trkpt lat="43.134510" lon="-5.246780">
        <ele>766.506</ele>
        <time>2020-05-21T23:37:52Z</time>
      </trkpt>
      <trkpt lat="43.134460" lon="-5.246840">
        <ele>766.326</ele>
        <time>2020-05-21T23:38:12Z</time>
      </trkpt>
      <trkpt lat="43.134430" lon="-5.246880">
        <ele>766.108</ele>
        <time>2020-05-21T23:38:32Z</time>
      </trkpt>
      <trkpt lat="43.134410" lon="-5.246910">
        <ele>765.832</ele>
        <time>2020-05-21T23:38:52Z</time>
      </trkpt>
      <trkpt lat="43.134340" lon="-5.246950">
        <ele>765.747</ele>
        <time>2020-05-21T23:39:12Z</time>
      </trkpt>
      <trkpt lat="43.134270" lon="-5.246960">
        <ele>766.274</ele>
        <time>2020-05-21T23:39:32Z</time>
      </trkpt>
      <trkpt lat="43.134260" lon="-5.246960">
        <ele>766.220</ele>
        <time>2020-05-21T23:39:52Z</time>
      </trkpt>
      <trkpt lat="43.134220" lon="-5.246950">
        <ele>766.689</ele>
        <time>2020-05-21T23:40:12Z</time>
      </trkpt>
      <trkpt lat="43.134120" lon="-5.246900">
        <ele>768.136</ele>
        <time>2020-05-21T23:40:32Z</time>
      </trkpt>
      <trkpt lat="43.134070" lon="-5.246850">
        <ele>768.911</ele>
        <time>2020-05-21T23:40:52Z</time>
      </trkpt>
      <trkpt lat="43.134030" lon="-5.246800">
        <ele>769.435</ele>
        <time>2020-05-21T23:41:12Z</time>
      </trkpt>
      <trkpt lat="43.134000" lon="-5.246750">
        <ele>769.867</ele>
        <time>2020-05-21T23:41:32Z</time>
      </trkpt>
      <trkpt lat="43.133970" lon="-5.246700">
        <ele>769.981</ele>
        <time>2020-05-21T23:41:52Z</time>
      </trkpt>
      <trkpt lat="43.133960" lon="-5.246680">
        <ele>769.919</ele>
        <time>2020-05-21T23:42:12Z</time>
      </trkpt>
      <trkpt lat="43.133920" lon="-5.246600">
        <ele>771.408</ele>
        <time>2020-05-21T23:42:32Z</time>
      </trkpt>
      <trkpt lat="43.133880" lon="-5.246540">
        <ele>772.410</ele>
        <time>2020-05-21T23:42:52Z</time>
      </trkpt>
      <trkpt lat="43.133850" lon="-5.246510">
        <ele>773.075</ele>
        <time>2020-05-21T23:43:12Z</time>
      </trkpt>
      <trkpt lat="43.133850" lon="-5.246500">
        <ele>773.312</ele>
        <time>2020-05-21T23:43:32Z</time>
      </trkpt>
      <trkpt lat="43.133800" lon="-5.246480">
        <ele>773.078</ele>
        <time>2020-05-21T23:43:52Z</time>
      </trkpt>
      <trkpt lat="43.133750" lon="-5.246470">
        <ele>772.267</ele>
        <time>2020-05-21T23:44:12Z</time>
      </trkpt>
      <trkpt lat="43.133680" lon="-5.246470">
        <ele>770.814</ele>
        <time>2020-05-21T23:44:32Z</time>
      </trkpt>
      <trkpt lat="43.133630" lon="-5.246470">
        <ele>769.839</ele>
        <time>2020-05-21T23:44:52Z</time>
      </trkpt>
      <trkpt lat="43.133560" lon="-5.246490">
        <ele>770.063</ele>
        <time>2020-05-21T23:45:12Z</time>
      </trkpt>
      <trkpt lat="43.133500" lon="-5.246510">
        <ele>770.754</ele>
        <time>2020-05-21T23:45:32Z</time>
      </trkpt>
      <trkpt lat="43.133490" lon="-5.246510">
        <ele>770.856</ele>
        <time>2020-05-21T23:45:52Z</time>
      </trkpt>
      <trkpt lat="43.133390" lon="-5.246560">
        <ele>771.111</ele>
        <time>2020-05-21T23:46:12Z</time>
      </trkpt>
      <trkpt lat="43.133340" lon="-5.246600">
        <ele>770.608</ele>
        <time>2020-05-21T23:46:32Z</time>
      </trkpt>
      <trkpt lat="43.133330" lon="-5.246610">
        <ele>770.569</ele>
        <time>2020-05-21T23:46:52Z</time>
      </trkpt>
      <trkpt lat="43.133260" lon="-5.246660">
        <ele>771.184</ele>
        <time>2020-05-21T23:47:12Z</time>
      </trkpt>
      <trkpt lat="43.133190" lon="-5.246730">
        <ele>773.671</ele>
        <time>2020-05-21T23:47:32Z</time>
      </trkpt>
      <trkpt lat="43.133130" lon="-5.246800">
        <ele>775.117</ele>
        <time>2020-05-21T23:47:52Z</time>
      </trkpt>
      <trkpt lat="43.133070" lon="-5.246870">
        <ele>775.326</ele>
        <time>2020-05-21T23:48:12Z</time>
      </trkpt>
      <trkpt lat="43.133050" lon="-5.246900">
        <ele>775.233</ele>
        <time>2020-05-21T23:48:32Z</time>
      </trkpt>
      <trkpt lat="43.133030" lon="-5.246910">
        <ele>775.498</ele>
        <time>2020-05-21T23:48:52Z</time>
      </trkpt>
      <trkpt lat="43.132960" lon="-5.246970">
        <ele>776.172</ele>
        <time>2020-05-21T23:49:12Z</time>
      </trkpt>
      <trkpt lat="43.132900" lon="-5.247030">
        <ele>777.146</ele>
        <time>2020-05-21T23:49:32Z</time>
      </trkpt>
      <trkpt lat="43.132860" lon="-5.247070">
        <ele>776.988</ele>
        <time>2020-05-21T23:49:52Z</time>
      </trkpt>
      <trkpt lat="43.132800" lon="-5.247120">
        <ele>775.516</ele>
        <time>2020-05-21T23:50:12Z</time>
      </trkpt>
      <trkpt lat="43.132750" lon="-5.247170">
        <ele>774.708</ele>
        <time>2020-05-21T23:50:32Z</time>
      </trkpt>
      <trkpt lat="43.132670" lon="-5.247240">
        <ele>775.188</ele>
        <time>2020-05-21T23:50:52Z</time>
      </trkpt>
      <trkpt lat="43.132590" lon="-5.247290">
        <ele>776.913</ele>
        <time>2020-05-21T23:51:12Z</time>
      </trkpt>
      <trkpt lat="43.132490" lon="-5.247340">
        <ele>778.160</ele>
        <time>2020-05-21T23:51:32Z</time>
      </trkpt>
      <trkpt lat="43.132420" lon="-5.247360">
        <ele>778.916</ele>
        <time>2020-05-21T23:51:52Z</time>
      </trkpt>
      <trkpt lat="43.132250" lon="-5.247430">
        <ele>777.825</ele>
        <time>2020-05-21T23:52:12Z</time>
      </trkpt>
      <trkpt lat="43.132070" lon="-5.247490">
        <ele>777.782</ele>
        <time>2020-05-21T23:52:32Z</time>
      </trkpt>
      <trkpt lat="43.131900" lon="-5.247580">
        <ele>779.787</ele>
        <time>2020-05-21T23:52:52Z</time>
      </trkpt>
      <trkpt lat="43.131750" lon="-5.247640">
        <ele>781.851</ele>
        <time>2020-05-21T23:53:12Z</time>
      </trkpt>
      <trkpt lat="43.131700" lon="-5.247670">
        <ele>781.564</ele>
        <time>2020-05-21T23:53:32Z</time>
      </trkpt>
      <trkpt lat="43.131660" lon="-5.247680">
        <ele>781.706</ele>
        <time>2020-05-21T23:53:52Z</time>
      </trkpt>
      <trkpt lat="43.131610" lon="-5.247690">
        <ele>782.216</ele>
        <time>2020-05-21T23:54:12Z</time>
      </trkpt>
      <trkpt lat="43.131560" lon="-5.247700">
        <ele>782.708</ele>
        <time>2020-05-21T23:54:32Z</time>
      </trkpt>
      <trkpt lat="43.131400" lon="-5.247720">
        <ele>784.560</ele>
        <time>2020-05-21T23:54:52Z</time>
      </trkpt>
      <trkpt lat="43.131380" lon="-5.247720">
        <ele>784.815</ele>
        <time>2020-05-21T23:55:12Z</time>
      </trkpt>
      <trkpt lat="43.131200" lon="-5.247710">
        <ele>787.642</ele>
        <time>2020-05-21T23:55:32Z</time>
      </trkpt>
      <trkpt lat="43.131150" lon="-5.247710">
        <ele>788.268</ele>
        <time>2020-05-21T23:55:52Z</time>
      </trkpt>
      <trkpt lat="43.131100" lon="-5.247720">
        <ele>788.297</ele>
        <time>2020-05-21T23:56:12Z</time>
      </trkpt>
      <trkpt lat="43.131030" lon="-5.247720">
        <ele>789.744</ele>
        <time>2020-05-21T23:56:32Z</time>
      </trkpt>
      <trkpt lat="43.131020" lon="-5.247720">
        <ele>789.999</ele>
        <time>2020-05-21T23:56:52Z</time>
      </trkpt>
      <trkpt lat="43.130880" lon="-5.247750">
        <ele>790.963</ele>
        <time>2020-05-21T23:57:12Z</time>
      </trkpt>
      <trkpt lat="43.130840" lon="-5.247760">
        <ele>791.135</ele>
        <time>2020-05-21T23:57:32Z</time>
      </trkpt>
      <trkpt lat="43.130720" lon="-5.247800">
        <ele>791.986</ele>
        <time>2020-05-21T23:57:52Z</time>
      </trkpt>
      <trkpt lat="43.130670" lon="-5.247810">
        <ele>792.714</ele>
        <time>2020-05-21T23:58:12Z</time>
      </trkpt>
      <trkpt lat="43.130550" lon="-5.247840">
        <ele>794.408</ele>
        <time>2020-05-21T23:58:32Z</time>
      </trkpt>
      <trkpt lat="43.130520" lon="-5.247850">
        <ele>795.477</ele>
        <time>2020-05-21T23:58:52Z</time>
      </trkpt>
      <trkpt lat="43.130490" lon="-5.247870">
        <ele>795.942</ele>
        <time>2020-05-21T23:59:12Z</time>
      </trkpt>
      <trkpt lat="43.130480" lon="-5.247870">
        <ele>796.449</ele>
        <time>2020-05-21T23:59:32Z</time>
      </trkpt>
      <trkpt lat="43.130450" lon="-5.247890">
        <ele>797.055</ele>
        <time>2020-05-21T23:59:52Z</time>
      </trkpt>
      <trkpt lat="43.130340" lon="-5.247990">
        <ele>798.384</ele>
        <time>2020-05-22T00:00:12Z</time>
      </trkpt>
      <trkpt lat="43.130270" lon="-5.248050">
        <ele>799.431</ele>
        <time>2020-05-22T00:00:32Z</time>
      </trkpt>
      <trkpt lat="43.130250" lon="-5.248070">
        <ele>799.186</ele>
        <time>2020-05-22T00:00:52Z</time>
      </trkpt>
      <trkpt lat="43.130230" lon="-5.248080">
        <ele>799.270</ele>
        <time>2020-05-22T00:01:12Z</time>
      </trkpt>
      <trkpt lat="43.130210" lon="-5.248090">
        <ele>799.215</ele>
        <time>2020-05-22T00:01:32Z</time>
      </trkpt>
      <trkpt lat="43.130190" lon="-5.248100">
        <ele>799.365</ele>
        <time>2020-05-22T00:01:52Z</time>
      </trkpt>
      <trkpt lat="43.130180" lon="-5.248110">
        <ele>799.211</ele>
        <time>2020-05-22T00:02:12Z</time>
      </trkpt>
      <trkpt lat="43.130110" lon="-5.248140">
        <ele>799.808</ele>
        <time>2020-05-22T00:02:32Z</time>
      </trkpt>
      <trkpt lat="43.130050" lon="-5.248160">
        <ele>800.545</ele>
        <time>2020-05-22T00:02:52Z</time>
      </trkpt>
      <trkpt lat="43.130000" lon="-5.248160">
        <ele>801.940</ele>
        <time>2020-05-22T00:03:12Z</time>
      </trkpt>
      <trkpt lat="43.129820" lon="-5.248180">
        <ele>804.457</ele>
        <time>2020-05-22T00:03:32Z</time>
      </trkpt>
      <trkpt lat="43.129660" lon="-5.248200">
        <ele>806.433</ele>
        <time>2020-05-22T00:03:52Z</time>
      </trkpt>
      <trkpt lat="43.129640" lon="-5.248200">
        <ele>806.712</ele>
        <time>2020-05-22T00:04:12Z</time>
      </trkpt>
      <trkpt lat="43.129560" lon="-5.248200">
        <ele>808.219</ele>
        <time>2020-05-22T00:04:32Z</time>
      </trkpt>
      <trkpt lat="43.129510" lon="-5.248210">
        <ele>808.754</ele>
        <time>2020-05-22T00:04:52Z</time>
      </trkpt>
      <trkpt lat="43.129470" lon="-5.248220">
        <ele>809.098</ele>
        <time>2020-05-22T00:05:12Z</time>
      </trkpt>
      <trkpt lat="43.129420" lon="-5.248230">
        <ele>809.746</ele>
        <time>2020-05-22T00:05:32Z</time>
      </trkpt>
      <trkpt lat="43.129310" lon="-5.248270">
        <ele>810.688</ele>
        <time>2020-05-22T00:05:52Z</time>
      </trkpt>
      <trkpt lat="43.129290" lon="-5.248280">
        <ele>810.716</ele>
        <time>2020-05-22T00:06:12Z</time>
      </trkpt>
      <trkpt lat="43.129220" lon="-5.248310">
        <ele>810.908</ele>
        <time>2020-05-22T00:06:32Z</time>
      </trkpt>
      <trkpt lat="43.129160" lon="-5.248330">
        <ele>811.258</ele>
        <time>2020-05-22T00:06:52Z</time>
      </trkpt>
      <trkpt lat="43.129120" lon="-5.248340">
        <ele>811.193</ele>
        <time>2020-05-22T00:07:12Z</time>
      </trkpt>
      <trkpt lat="43.129100" lon="-5.248340">
        <ele>811.250</ele>
        <time>2020-05-22T00:07:32Z</time>
      </trkpt>
      <trkpt lat="43.129080" lon="-5.248330">
        <ele>811.856</ele>
        <time>2020-05-22T00:07:52Z</time>
      </trkpt>
      <trkpt lat="43.129060" lon="-5.248330">
        <ele>811.925</ele>
        <time>2020-05-22T00:08:12Z</time>
      </trkpt>
      <trkpt lat="43.129040" lon="-5.248320">
        <ele>812.422</ele>
        <time>2020-05-22T00:08:32Z</time>
      </trkpt>
      <trkpt lat="43.128950" lon="-5.248250">
        <ele>815.377</ele>
        <time>2020-05-22T00:08:52Z</time>
      </trkpt>
      <trkpt lat="43.128880" lon="-5.248200">
        <ele>817.071</ele>
        <time>2020-05-22T00:09:12Z</time>
      </trkpt>
      <trkpt lat="43.128860" lon="-5.248190">
        <ele>817.763</ele>
        <time>2020-05-22T00:09:32Z</time>
      </trkpt>
      <trkpt lat="43.128850" lon="-5.248180">
        <ele>818.144</ele>
        <time>2020-05-22T00:09:52Z</time>
      </trkpt>
      <trkpt lat="43.128810" lon="-5.248180">
        <ele>818.918</ele>
        <time>2020-05-22T00:10:12Z</time>
      </trkpt>
      <trkpt lat="43.128780" lon="-5.248180">
        <ele>819.508</ele>
        <time>2020-05-22T00:10:32Z</time>
      </trkpt>
      <trkpt lat="43.128770" lon="-5.248180">
        <ele>819.720</ele>
        <time>2020-05-22T00:10:52Z</time>
      </trkpt>
      <trkpt lat="43.128750" lon="-5.248190">
        <ele>819.815</ele>
        <time>2020-05-22T00:11:12Z</time>
      </trkpt>
      <trkpt lat="43.128730" lon="-5.248200">
        <ele>820.092</ele>
        <time>2020-05-22T00:11:32Z</time>
      </trkpt>
      <trkpt lat="43.128720" lon="-5.248220">
        <ele>819.978</ele>
        <time>2020-05-22T00:11:52Z</time>
      </trkpt>
      <trkpt lat="43.128660" lon="-5.248340">
        <ele>819.577</ele>
        <time>2020-05-22T00:12:12Z</time>
      </trkpt>
      <trkpt lat="43.128630" lon="-5.248390">
        <ele>819.474</ele>
        <time>2020-05-22T00:12:32Z</time>
      </trkpt>
      <trkpt lat="43.128620" lon="-5.248420">
        <ele>819.279</ele>
        <time>2020-05-22T00:12:52Z</time>
      </trkpt>
      <trkpt lat="43.128600" lon="-5.248450">
        <ele>819.443</ele>
        <time>2020-05-22T00:13:12Z</time>
      </trkpt>
      <trkpt lat="43.128550" lon="-5.248500">
        <ele>820.772</ele>
        <time>2020-05-22T00:13:32Z</time>
      </trkpt>
      <trkpt lat="43.128460" lon="-5.248600">
        <ele>822.213</ele>
        <time>2020-05-22T00:13:52Z</time>
      </trkpt>
      <trkpt lat="43.128390" lon="-5.248660">
        <ele>823.114</ele>
        <time>2020-05-22T00:14:12Z</time>
      </trkpt>
      <trkpt lat="43.128230" lon="-5.248770">
        <ele>824.808</ele>
        <time>2020-05-22T00:14:32Z</time>
      </trkpt>
      <trkpt lat="43.128200" lon="-5.248800">
        <ele>824.761</ele>
        <time>2020-05-22T00:14:52Z</time>
      </trkpt>
      <trkpt lat="43.128180" lon="-5.248810">
        <ele>825.036</ele>
        <time>2020-05-22T00:15:12Z</time>
      </trkpt>
      <trkpt lat="43.128140" lon="-5.248830">
        <ele>825.533</ele>
        <time>2020-05-22T00:15:32Z</time>
      </trkpt>
      <trkpt lat="43.128110" lon="-5.248840">
        <ele>826.169</ele>
        <time>2020-05-22T00:15:52Z</time>
      </trkpt>
      <trkpt lat="43.128000" lon="-5.248840">
        <ele>828.848</ele>
        <time>2020-05-22T00:16:12Z</time>
      </trkpt>
      <trkpt lat="43.127880" lon="-5.248840">
        <ele>830.725</ele>
        <time>2020-05-22T00:16:32Z</time>
      </trkpt>
      <trkpt lat="43.127860" lon="-5.248840">
        <ele>831.040</ele>
        <time>2020-05-22T00:16:52Z</time>
      </trkpt>
      <trkpt lat="43.127820" lon="-5.248850">
        <ele>831.264</ele>
        <time>2020-05-22T00:17:12Z</time>
      </trkpt>
      <trkpt lat="43.127770" lon="-5.248870">
        <ele>831.296</ele>
        <time>2020-05-22T00:17:32Z</time>
      </trkpt>
      <trkpt lat="43.127700" lon="-5.248900">
        <ele>832.431</ele>
        <time>2020-05-22T00:17:52Z</time>
      </trkpt>
      <trkpt lat="43.127590" lon="-5.248960">
        <ele>833.924</ele>
        <time>2020-05-22T00:18:12Z</time>
      </trkpt>
      <trkpt lat="43.127540" lon="-5.248990">
        <ele>834.308</ele>
        <time>2020-05-22T00:18:32Z</time>
      </trkpt>
      <trkpt lat="43.127520" lon="-5.249000">
        <ele>834.533</ele>
        <time>2020-05-22T00:18:52Z</time>
      </trkpt>
      <trkpt lat="43.127450" lon="-5.249030">
        <ele>836.348</ele>
        <time>2020-05-22T00:19:12Z</time>
      </trkpt>
      <trkpt lat="43.127370" lon="-5.249080">
        <ele>837.475</ele>
        <time>2020-05-22T00:19:32Z</time>
      </trkpt>
      <trkpt lat="43.127240" lon="-5.249160">
        <ele>837.841</ele>
        <time>2020-05-22T00:19:52Z</time>
      </trkpt>
      <trkpt lat="43.127110" lon="-5.249260">
        <ele>840.970</ele>
        <time>2020-05-22T00:20:12Z</time>
      </trkpt>
      <trkpt lat="43.127050" lon="-5.249310">
        <ele>841.917</ele>
        <time>2020-05-22T00:20:32Z</time>
      </trkpt>
      <trkpt lat="43.126900" lon="-5.249440">
        <ele>843.072</ele>
        <time>2020-05-22T00:20:52Z</time>
      </trkpt>
      <trkpt lat="43.126770" lon="-5.249550">
        <ele>845.326</ele>
        <time>2020-05-22T00:21:12Z</time>
      </trkpt>
      <trkpt lat="43.126690" lon="-5.249610">
        <ele>846.396</ele>
        <time>2020-05-22T00:21:32Z</time>
      </trkpt>
      <trkpt lat="43.126660" lon="-5.249620">
        <ele>846.931</ele>
        <time>2020-05-22T00:21:52Z</time>
      </trkpt>
      <trkpt lat="43.126620" lon="-5.249640">
        <ele>845.924</ele>
        <time>2020-05-22T00:22:12Z</time>
      </trkpt>
      <trkpt lat="43.126560" lon="-5.249640">
        <ele>846.208</ele>
        <time>2020-05-22T00:22:32Z</time>
      </trkpt>
      <trkpt lat="43.126500" lon="-5.249640">
        <ele>846.423</ele>
        <time>2020-05-22T00:22:52Z</time>
      </trkpt>
      <trkpt lat="43.126400" lon="-5.249630">
        <ele>847.618</ele>
        <time>2020-05-22T00:23:12Z</time>
      </trkpt>
      <trkpt lat="43.126360" lon="-5.249620">
        <ele>847.245</ele>
        <time>2020-05-22T00:23:32Z</time>
      </trkpt>
      <trkpt lat="43.126310" lon="-5.249610">
        <ele>845.811</ele>
        <time>2020-05-22T00:23:52Z</time>
      </trkpt>
      <trkpt lat="43.126280" lon="-5.249580">
        <ele>846.780</ele>
        <time>2020-05-22T00:24:12Z</time>
      </trkpt>
      <trkpt lat="43.126250" lon="-5.249570">
        <ele>846.237</ele>
        <time>2020-05-22T00:24:32Z</time>
      </trkpt>
      <trkpt lat="43.126230" lon="-5.249560">
        <ele>846.182</ele>
        <time>2020-05-22T00:24:52Z</time>
      </trkpt>
      <trkpt lat="43.126210" lon="-5.249540">
        <ele>846.636</ele>
        <time>2020-05-22T00:25:12Z</time>
      </trkpt>
      <trkpt lat="43.126130" lon="-5.249470">
        <ele>848.143</ele>
        <time>2020-05-22T00:25:32Z</time>
      </trkpt>
      <trkpt lat="43.126090" lon="-5.249410">
        <ele>849.564</ele>
        <time>2020-05-22T00:25:52Z</time>
      </trkpt>
      <trkpt lat="43.126080" lon="-5.249400">
        <ele>849.410</ele>
        <time>2020-05-22T00:26:12Z</time>
      </trkpt>
      <trkpt lat="43.126030" lon="-5.249290">
        <ele>851.708</ele>
        <time>2020-05-22T00:26:32Z</time>
      </trkpt>
      <trkpt lat="43.125990" lon="-5.249190">
        <ele>854.028</ele>
        <time>2020-05-22T00:26:52Z</time>
      </trkpt>
      <trkpt lat="43.125970" lon="-5.249130">
        <ele>855.383</ele>
        <time>2020-05-22T00:27:12Z</time>
      </trkpt>
      <trkpt lat="43.125950" lon="-5.249090">
        <ele>855.860</ele>
        <time>2020-05-22T00:27:32Z</time>
      </trkpt>
      <trkpt lat="43.125940" lon="-5.249070">
        <ele>856.066</ele>
        <time>2020-05-22T00:27:52Z</time>
      </trkpt>
      <trkpt lat="43.125920" lon="-5.249040">
        <ele>856.055</ele>
        <time>2020-05-22T00:28:12Z</time>
      </trkpt>
      <trkpt lat="43.125900" lon="-5.249020">
        <ele>855.692</ele>
        <time>2020-05-22T00:28:32Z</time>
      </trkpt>
      <trkpt lat="43.125860" lon="-5.249010">
        <ele>853.787</ele>
        <time>2020-05-22T00:28:52Z</time>
      </trkpt>
      <trkpt lat="43.125830" lon="-5.249010">
        <ele>852.371</ele>
        <time>2020-05-22T00:29:12Z</time>
      </trkpt>
      <trkpt lat="43.125780" lon="-5.249010">
        <ele>854.168</ele>
        <time>2020-05-22T00:29:32Z</time>
      </trkpt>
      <trkpt lat="43.125760" lon="-5.249020">
        <ele>854.342</ele>
        <time>2020-05-22T00:29:52Z</time>
      </trkpt>
      <trkpt lat="43.125740" lon="-5.249030">
        <ele>854.626</ele>
        <time>2020-05-22T00:30:12Z</time>
      </trkpt>
      <trkpt lat="43.125610" lon="-5.249130">
        <ele>854.208</ele>
        <time>2020-05-22T00:30:32Z</time>
      </trkpt>
      <trkpt lat="43.125550" lon="-5.249180">
        <ele>853.370</ele>
        <time>2020-05-22T00:30:52Z</time>
      </trkpt>
      <trkpt lat="43.125460" lon="-5.249240">
        <ele>852.835</ele>
        <time>2020-05-22T00:31:12Z</time>
      </trkpt>
      <trkpt lat="43.125400" lon="-5.249270">
        <ele>853.382</ele>
        <time>2020-05-22T00:31:32Z</time>
      </trkpt>
      <trkpt lat="43.125390" lon="-5.249280">
        <ele>853.168</ele>
        <time>2020-05-22T00:31:52Z</time>
      </trkpt>
      <trkpt lat="43.125250" lon="-5.249340">
        <ele>855.727</ele>
        <time>2020-05-22T00:32:12Z</time>
      </trkpt>
      <trkpt lat="43.125220" lon="-5.249360">
        <ele>855.834</ele>
        <time>2020-05-22T00:32:32Z</time>
      </trkpt>
      <trkpt lat="43.125210" lon="-5.249370">
        <ele>855.659</ele>
        <time>2020-05-22T00:32:52Z</time>
      </trkpt>
      <trkpt lat="43.125180" lon="-5.249400">
        <ele>855.153</ele>
        <time>2020-05-22T00:33:12Z</time>
      </trkpt>
      <trkpt lat="43.125080" lon="-5.249460">
        <ele>855.961</ele>
        <time>2020-05-22T00:33:32Z</time>
      </trkpt>
      <trkpt lat="43.125060" lon="-5.249480">
        <ele>856.021</ele>
        <time>2020-05-22T00:33:52Z</time>
      </trkpt>
      <trkpt lat="43.125050" lon="-5.249500">
        <ele>855.713</ele>
        <time>2020-05-22T00:34:12Z</time>
      </trkpt>
      <trkpt lat="43.124980" lon="-5.249570">
        <ele>857.408</ele>
        <time>2020-05-22T00:34:32Z</time>
      </trkpt>
      <trkpt lat="43.124950" lon="-5.249610">
        <ele>858.250</ele>
        <time>2020-05-22T00:34:52Z</time>
      </trkpt>
      <trkpt lat="43.124930" lon="-5.249640">
        <ele>858.525</ele>
        <time>2020-05-22T00:35:12Z</time>
      </trkpt>
      <trkpt lat="43.124810" lon="-5.249820">
        <ele>860.632</ele>
        <time>2020-05-22T00:35:32Z</time>
      </trkpt>
      <trkpt lat="43.124750" lon="-5.249910">
        <ele>861.938</ele>
        <time>2020-05-22T00:35:52Z</time>
      </trkpt>
      <trkpt lat="43.124690" lon="-5.250010">
        <ele>863.567</ele>
        <time>2020-05-22T00:36:12Z</time>
      </trkpt>
      <trkpt lat="43.124590" lon="-5.250210">
        <ele>865.654</ele>
        <time>2020-05-22T00:36:32Z</time>
      </trkpt>
      <trkpt lat="43.124480" lon="-5.250410">
        <ele>866.469</ele>
        <time>2020-05-22T00:36:52Z</time>
      </trkpt>
      <trkpt lat="43.124370" lon="-5.250610">
        <ele>868.023</ele>
        <time>2020-05-22T00:37:12Z</time>
      </trkpt>
      <trkpt lat="43.124360" lon="-5.250640">
        <ele>867.559</ele>
        <time>2020-05-22T00:37:32Z</time>
      </trkpt>
      <trkpt lat="43.124320" lon="-5.250700">
        <ele>867.303</ele>
        <time>2020-05-22T00:37:52Z</time>
      </trkpt>
      <trkpt lat="43.124290" lon="-5.250720">
        <ele>867.923</ele>
        <time>2020-05-22T00:38:12Z</time>
      </trkpt>
      <trkpt lat="43.124260" lon="-5.250740">
        <ele>868.308</ele>
        <time>2020-05-22T00:38:32Z</time>
      </trkpt>
      <trkpt lat="43.124230" lon="-5.250760">
        <ele>868.689</ele>
        <time>2020-05-22T00:38:52Z</time>
      </trkpt>
      <trkpt lat="43.124220" lon="-5.250760">
        <ele>869.084</ele>
        <time>2020-05-22T00:39:12Z</time>
      </trkpt>
      <trkpt lat="43.124180" lon="-5.250770">
        <ele>870.181</ele>
        <time>2020-05-22T00:39:32Z</time>
      </trkpt>
      <trkpt lat="43.124110" lon="-5.250780">
        <ele>869.517</ele>
        <time>2020-05-22T00:39:52Z</time>
      </trkpt>
      <trkpt lat="43.124050" lon="-5.250770">
        <ele>869.456</ele>
        <time>2020-05-22T00:40:12Z</time>
      </trkpt>
      <trkpt lat="43.124030" lon="-5.250770">
        <ele>869.213</ele>
        <time>2020-05-22T00:40:32Z</time>
      </trkpt>
      <trkpt lat="43.123910" lon="-5.250760">
        <ele>868.748</ele>
        <time>2020-05-22T00:40:52Z</time>
      </trkpt>
      <trkpt lat="43.123880" lon="-5.250760">
        <ele>868.772</ele>
        <time>2020-05-22T00:41:12Z</time>
      </trkpt>
      <trkpt lat="43.123700" lon="-5.250750">
        <ele>872.053</ele>
        <time>2020-05-22T00:41:32Z</time>
      </trkpt>
      <trkpt lat="43.123660" lon="-5.250750">
        <ele>872.504</ele>
        <time>2020-05-22T00:41:52Z</time>
      </trkpt>
      <trkpt lat="43.123600" lon="-5.250760">
        <ele>873.014</ele>
        <time>2020-05-22T00:42:12Z</time>
      </trkpt>
      <trkpt lat="43.123520" lon="-5.250770">
        <ele>874.908</ele>
        <time>2020-05-22T00:42:32Z</time>
      </trkpt>
      <trkpt lat="43.123450" lon="-5.250800">
        <ele>875.429</ele>
        <time>2020-05-22T00:42:52Z</time>
      </trkpt>
      <trkpt lat="43.123390" lon="-5.250850">
        <ele>874.834</ele>
        <time>2020-05-22T00:43:12Z</time>
      </trkpt>
      <trkpt lat="43.123360" lon="-5.250880">
        <ele>874.781</ele>
        <time>2020-05-22T00:43:32Z</time>
      </trkpt>
      <trkpt lat="43.123330" lon="-5.250910">
        <ele>874.767</ele>
        <time>2020-05-22T00:43:52Z</time>
      </trkpt>
      <trkpt lat="43.123090" lon="-5.251190">
        <ele>879.546</ele>
        <time>2020-05-22T00:44:12Z</time>
      </trkpt>
      <trkpt lat="43.122980" lon="-5.251290">
        <ele>880.223</ele>
        <time>2020-05-22T00:44:32Z</time>
      </trkpt>
      <trkpt lat="43.122930" lon="-5.251340">
        <ele>879.888</ele>
        <time>2020-05-22T00:44:52Z</time>
      </trkpt>
      <trkpt lat="43.122910" lon="-5.251350">
        <ele>880.172</ele>
        <time>2020-05-22T00:45:12Z</time>
      </trkpt>
      <trkpt lat="43.122870" lon="-5.251370">
        <ele>880.696</ele>
        <time>2020-05-22T00:45:32Z</time>
      </trkpt>
      <trkpt lat="43.122720" lon="-5.251420">
        <ele>882.231</ele>
        <time>2020-05-22T00:45:52Z</time>
      </trkpt>
      <trkpt lat="43.122630" lon="-5.251440">
        <ele>882.424</ele>
        <time>2020-05-22T00:46:12Z</time>
      </trkpt>
      <trkpt lat="43.122560" lon="-5.251450">
        <ele>882.808</ele>
        <time>2020-05-22T00:46:32Z</time>
      </trkpt>
      <trkpt lat="43.122490" lon="-5.251450">
        <ele>883.373</ele>
        <time>2020-05-22T00:46:52Z</time>
      </trkpt>
      <trkpt lat="43.122450" lon="-5.251440">
        <ele>882.658</ele>
        <time>2020-05-22T00:47:12Z</time>
      </trkpt>
      <trkpt lat="43.122420" lon="-5.251430">
        <ele>882.265</ele>
        <time>2020-05-22T00:47:32Z</time>
      </trkpt>
      <trkpt lat="43.122400" lon="-5.251410">
        <ele>882.461</ele>
        <time>2020-05-22T00:47:52Z</time>
      </trkpt>
      <trkpt lat="43.122370" lon="-5.251380">
        <ele>882.670</ele>
        <time>2020-05-22T00:48:12Z</time>
      </trkpt>
      <trkpt lat="43.122350" lon="-5.251320">
        <ele>884.377</ele>
        <time>2020-05-22T00:48:32Z</time>
      </trkpt>
      <trkpt lat="43.122340" lon="-5.251270">
        <ele>885.832</ele>
        <time>2020-05-22T00:48:52Z</time>
      </trkpt>
      <trkpt lat="43.122330" lon="-5.251210">
        <ele>887.616</ele>
        <time>2020-05-22T00:49:12Z</time>
      </trkpt>
      <trkpt lat="43.122300" lon="-5.251070">
        <ele>890.569</ele>
        <time>2020-05-22T00:49:32Z</time>
      </trkpt>
      <trkpt lat="43.122270" lon="-5.250870">
        <ele>893.304</ele>
        <time>2020-05-22T00:49:52Z</time>
      </trkpt>
      <trkpt lat="43.122260" lon="-5.250830">
        <ele>893.524</ele>
        <time>2020-05-22T00:50:12Z</time>
      </trkpt>
      <trkpt lat="43.122240" lon="-5.250790">
        <ele>893.408</ele>
        <time>2020-05-22T00:50:32Z</time>
      </trkpt>
      <trkpt lat="43.122230" lon="-5.250760">
        <ele>893.640</ele>
        <time>2020-05-22T00:50:52Z</time>
      </trkpt>
      <trkpt lat="43.122220" lon="-5.250750">
        <ele>893.545</ele>
        <time>2020-05-22T00:51:12Z</time>
      </trkpt>
      <trkpt lat="43.122200" lon="-5.250740">
        <ele>894.222</ele>
        <time>2020-05-22T00:51:32Z</time>
      </trkpt>
      <trkpt lat="43.122180" lon="-5.250730">
        <ele>895.058</ele>
        <time>2020-05-22T00:51:52Z</time>
      </trkpt>
      <trkpt lat="43.122140" lon="-5.250720">
        <ele>896.347</ele>
        <time>2020-05-22T00:52:12Z</time>
      </trkpt>
      <trkpt lat="43.122100" lon="-5.250730">
        <ele>897.124</ele>
        <time>2020-05-22T00:52:32Z</time>
      </trkpt>
      <trkpt lat="43.122060" lon="-5.250740">
        <ele>897.859</ele>
        <time>2020-05-22T00:52:52Z</time>
      </trkpt>
      <trkpt lat="43.122010" lon="-5.250770">
        <ele>898.223</ele>
        <time>2020-05-22T00:53:12Z</time>
      </trkpt>
      <trkpt lat="43.121990" lon="-5.250790">
        <ele>898.186</ele>
        <time>2020-05-22T00:53:32Z</time>
      </trkpt>
      <trkpt lat="43.121970" lon="-5.250810">
        <ele>898.060</ele>
        <time>2020-05-22T00:53:52Z</time>
      </trkpt>
      <trkpt lat="43.121930" lon="-5.250890">
        <ele>897.526</ele>
        <time>2020-05-22T00:54:12Z</time>
      </trkpt>
      <trkpt lat="43.121910" lon="-5.250910">
        <ele>898.708</ele>
        <time>2020-05-22T00:54:32Z</time>
      </trkpt>
      <trkpt lat="43.121810" lon="-5.251110">
        <ele>900.262</ele>
        <time>2020-05-22T00:54:52Z</time>
      </trkpt>
      <trkpt lat="43.121700" lon="-5.251300">
        <ele>899.877</ele>
        <time>2020-05-22T00:55:12Z</time>
      </trkpt>
      <trkpt lat="43.121700" lon="-5.251310">
        <ele>899.364</ele>
        <time>2020-05-22T00:55:32Z</time>
      </trkpt>
      <trkpt lat="43.121600" lon="-5.251460">
        <ele>899.280</ele>
        <time>2020-05-22T00:55:52Z</time>
      </trkpt>
      <trkpt lat="43.121440" lon="-5.251650">
        <ele>897.939</ele>
        <time>2020-05-22T00:56:12Z</time>
      </trkpt>
      <trkpt lat="43.121390" lon="-5.251700">
        <ele>898.126</ele>
        <time>2020-05-22T00:56:32Z</time>
      </trkpt>
      <trkpt lat="43.121340" lon="-5.251740">
        <ele>897.661</ele>
        <time>2020-05-22T00:56:52Z</time>
      </trkpt>
      <trkpt lat="43.121310" lon="-5.251770">
        <ele>897.125</ele>
        <time>2020-05-22T00:57:12Z</time>
      </trkpt>
      <trkpt lat="43.121290" lon="-5.251780">
        <ele>897.117</ele>
        <time>2020-05-22T00:57:32Z</time>
      </trkpt>
      <trkpt lat="43.121280" lon="-5.251780">
        <ele>897.287</ele>
        <time>2020-05-22T00:57:52Z</time>
      </trkpt>
      <trkpt lat="43.121250" lon="-5.251790">
        <ele>897.215</ele>
        <time>2020-05-22T00:58:12Z</time>
      </trkpt>
      <trkpt lat="43.121220" lon="-5.251780">
        <ele>897.708</ele>
        <time>2020-05-22T00:58:32Z</time>
      </trkpt>
      <trkpt lat="43.121190" lon="-5.251770">
        <ele>898.345</ele>
        <time>2020-05-22T00:58:52Z</time>
      </trkpt>
      <trkpt lat="43.121160" lon="-5.251750">
        <ele>899.170</ele>
        <time>2020-05-22T00:59:12Z</time>
      </trkpt>
      <trkpt lat="43.121140" lon="-5.251730">
        <ele>899.947</ele>
        <time>2020-05-22T00:59:32Z</time>
      </trkpt>
      <trkpt lat="43.121120" lon="-5.251700">
        <ele>900.983</ele>
        <time>2020-05-22T00:59:52Z</time>
      </trkpt>
      <trkpt lat="43.121080" lon="-5.251610">
        <ele>902.342</ele>
        <time>2020-05-22T01:00:12Z</time>
      </trkpt>
      <trkpt lat="43.121040" lon="-5.251490">
        <ele>904.269</ele>
        <time>2020-05-22T01:00:32Z</time>
      </trkpt>
      <trkpt lat="43.121030" lon="-5.251460">
        <ele>904.674</ele>
        <time>2020-05-22T01:00:52Z</time>
      </trkpt>
      <trkpt lat="43.120950" lon="-5.251130">
        <ele>910.518</ele>
        <time>2020-05-22T01:01:12Z</time>
      </trkpt>
      <trkpt lat="43.120940" lon="-5.251060">
        <ele>911.893</ele>
        <time>2020-05-22T01:01:32Z</time>
      </trkpt>
      <trkpt lat="43.120920" lon="-5.251020">
        <ele>911.565</ele>
        <time>2020-05-22T01:01:52Z</time>
      </trkpt>
      <trkpt lat="43.120900" lon="-5.250950">
        <ele>911.821</ele>
        <time>2020-05-22T01:02:12Z</time>
      </trkpt>
      <trkpt lat="43.120840" lon="-5.250820">
        <ele>910.908</ele>
        <time>2020-05-22T01:02:32Z</time>
      </trkpt>
      <trkpt lat="43.120830" lon="-5.250810">
        <ele>910.813</ele>
        <time>2020-05-22T01:02:52Z</time>
      </trkpt>
      <trkpt lat="43.120800" lon="-5.250770">
        <ele>912.028</ele>
        <time>2020-05-22T01:03:12Z</time>
      </trkpt>
      <trkpt lat="43.120770" lon="-5.250740">
        <ele>912.985</ele>
        <time>2020-05-22T01:03:32Z</time>
      </trkpt>
      <trkpt lat="43.120750" lon="-5.250730">
        <ele>913.161</ele>
        <time>2020-05-22T01:03:52Z</time>
      </trkpt>
      <trkpt lat="43.120730" lon="-5.250730">
        <ele>913.130</ele>
        <time>2020-05-22T01:04:12Z</time>
      </trkpt>
      <trkpt lat="43.120700" lon="-5.250730">
        <ele>913.057</ele>
        <time>2020-05-22T01:04:32Z</time>
      </trkpt>
      <trkpt lat="43.120670" lon="-5.250740">
        <ele>912.672</ele>
        <time>2020-05-22T01:04:52Z</time>
      </trkpt>
      <trkpt lat="43.120630" lon="-5.250780">
        <ele>911.466</ele>
        <time>2020-05-22T01:05:12Z</time>
      </trkpt>
      <trkpt lat="43.120590" lon="-5.250800">
        <ele>910.919</ele>
        <time>2020-05-22T01:05:32Z</time>
      </trkpt>
      <trkpt lat="43.120560" lon="-5.250850">
        <ele>909.809</ele>
        <time>2020-05-22T01:05:52Z</time>
      </trkpt>
      <trkpt lat="43.120530" lon="-5.250880">
        <ele>910.819</ele>
        <time>2020-05-22T01:06:12Z</time>
      </trkpt>
      <trkpt lat="43.120530" lon="-5.250890">
        <ele>910.708</ele>
        <time>2020-05-22T01:06:32Z</time>
      </trkpt>
      <trkpt lat="43.120510" lon="-5.250920">
        <ele>911.485</ele>
        <time>2020-05-22T01:06:52Z</time>
      </trkpt>
      <trkpt lat="43.120430" lon="-5.251090">
        <ele>913.590</ele>
        <time>2020-05-22T01:07:12Z</time>
      </trkpt>
      <trkpt lat="43.120380" lon="-5.251180">
        <ele>914.397</ele>
        <time>2020-05-22T01:07:32Z</time>
      </trkpt>
      <trkpt lat="43.120350" lon="-5.251240">
        <ele>914.313</ele>
        <time>2020-05-22T01:07:52Z</time>
      </trkpt>
      <trkpt lat="43.120310" lon="-5.251350">
        <ele>912.912</ele>
        <time>2020-05-22T01:08:12Z</time>
      </trkpt>
      <trkpt lat="43.120280" lon="-5.251450">
        <ele>911.849</ele>
        <time>2020-05-22T01:08:32Z</time>
      </trkpt>
      <trkpt lat="43.120240" lon="-5.251720">
        <ele>910.224</ele>
        <time>2020-05-22T01:08:52Z</time>
      </trkpt>
      <trkpt lat="43.120230" lon="-5.251810">
        <ele>909.468</ele>
        <time>2020-05-22T01:09:12Z</time>
      </trkpt>
      <trkpt lat="43.120220" lon="-5.251960">
        <ele>907.431</ele>
        <time>2020-05-22T01:09:32Z</time>
      </trkpt>
      <trkpt lat="43.120220" lon="-5.252000">
        <ele>906.261</ele>
        <time>2020-05-22T01:09:52Z</time>
      </trkpt>
      <trkpt lat="43.120220" lon="-5.252010">
        <ele>905.907</ele>
        <time>2020-05-22T01:10:12Z</time>
      </trkpt>
      <trkpt lat="43.120210" lon="-5.252020">
        <ele>906.608</ele>
        <time>2020-05-22T01:10:32Z</time>
      </trkpt>
      <trkpt lat="43.120210" lon="-5.252040">
        <ele>906.077</ele>
        <time>2020-05-22T01:10:52Z</time>
      </trkpt>
      <trkpt lat="43.120180" lon="-5.252090">
        <ele>907.322</ele>
        <time>2020-05-22T01:11:12Z</time>
      </trkpt>
      <trkpt lat="43.120120" lon="-5.252220">
        <ele>908.149</ele>
        <time>2020-05-22T01:11:32Z</time>
      </trkpt>
      <trkpt lat="43.120100" lon="-5.252260">
        <ele>909.245</ele>
        <time>2020-05-22T01:11:52Z</time>
      </trkpt>
      <trkpt lat="43.120080" lon="-5.252300">
        <ele>910.384</ele>
        <time>2020-05-22T01:12:12Z</time>
      </trkpt>
      <trkpt lat="43.120060" lon="-5.252360">
        <ele>911.421</ele>
        <time>2020-05-22T01:12:32Z</time>
      </trkpt>
      <trkpt lat="43.120050" lon="-5.252420">
        <ele>911.716</ele>
        <time>2020-05-22T01:12:52Z</time>
      </trkpt>
      <trkpt lat="43.120050" lon="-5.252440">
        <ele>911.410</ele>
        <time>2020-05-22T01:13:12Z</time>
      </trkpt>
      <trkpt lat="43.120050" lon="-5.252470">
        <ele>911.162</ele>
        <time>2020-05-22T01:13:32Z</time>
      </trkpt>
      <trkpt lat="43.120020" lon="-5.252660">
        <ele>908.283</ele>
        <time>2020-05-22T01:13:52Z</time>
      </trkpt>
      <trkpt lat="43.120020" lon="-5.252690">
        <ele>907.211</ele>
        <time>2020-05-22T01:14:12Z</time>
      </trkpt>
      <trkpt lat="43.120010" lon="-5.252730">
        <ele>906.708</ele>
        <time>2020-05-22T01:14:32Z</time>
      </trkpt>
      <trkpt lat="43.119980" lon="-5.252780">
        <ele>908.290</ele>
        <time>2020-05-22T01:14:52Z</time>
      </trkpt>
      <trkpt lat="43.119920" lon="-5.252890">
        <ele>910.575</ele>
        <time>2020-05-22T01:15:12Z</time>
      </trkpt>
      <trkpt lat="43.119850" lon="-5.252990">
        <ele>911.842</ele>
        <time>2020-05-22T01:15:32Z</time>
      </trkpt>
      <trkpt lat="43.119800" lon="-5.253070">
        <ele>911.158</ele>
        <time>2020-05-22T01:15:52Z</time>
      </trkpt>
      <trkpt lat="43.119720" lon="-5.253200">
        <ele>912.027</ele>
        <time>2020-05-22T01:16:12Z</time>
      </trkpt>
      <trkpt lat="43.119680" lon="-5.253260">
        <ele>912.854</ele>
        <time>2020-05-22T01:16:32Z</time>
      </trkpt>
      <trkpt lat="43.119520" lon="-5.253490">
        <ele>915.239</ele>
        <time>2020-05-22T01:16:52Z</time>
      </trkpt>
      <trkpt lat="43.119500" lon="-5.253510">
        <ele>915.353</ele>
        <time>2020-05-22T01:17:12Z</time>
      </trkpt>
      <trkpt lat="43.119470" lon="-5.253530">
        <ele>915.859</ele>
        <time>2020-05-22T01:17:32Z</time>
      </trkpt>
      <trkpt lat="43.119410" lon="-5.253550">
        <ele>916.003</ele>
        <time>2020-05-22T01:17:52Z</time>
      </trkpt>
      <trkpt lat="43.119310" lon="-5.253580">
        <ele>914.623</ele>
        <time>2020-05-22T01:18:12Z</time>
      </trkpt>
      <trkpt lat="43.119230" lon="-5.253580">
        <ele>914.608</ele>
        <time>2020-05-22T01:18:32Z</time>
      </trkpt>
      <trkpt lat="43.119070" lon="-5.253590">
        <ele>914.469</ele>
        <time>2020-05-22T01:18:52Z</time>
      </trkpt>
      <trkpt lat="43.118950" lon="-5.253580">
        <ele>915.834</ele>
        <time>2020-05-22T01:19:12Z</time>
      </trkpt>
      <trkpt lat="43.118870" lon="-5.253560">
        <ele>917.451</ele>
        <time>2020-05-22T01:19:32Z</time>
      </trkpt>
      <trkpt lat="43.118740" lon="-5.253530">
        <ele>919.097</ele>
        <time>2020-05-22T01:19:52Z</time>
      </trkpt>
      <trkpt lat="43.118720" lon="-5.253530">
        <ele>918.926</ele>
        <time>2020-05-22T01:20:12Z</time>
      </trkpt>
      <trkpt lat="43.118710" lon="-5.253520">
        <ele>919.653</ele>
        <time>2020-05-22T01:20:32Z</time>
      </trkpt>
      <trkpt lat="43.118600" lon="-5.253540">
        <ele>917.828</ele>
        <time>2020-05-22T01:20:52Z</time>
      </trkpt>
      <trkpt lat="43.118560" lon="-5.253540">
        <ele>917.372</ele>
        <time>2020-05-22T01:21:12Z</time>
      </trkpt>
      <trkpt lat="43.118510" lon="-5.253530">
        <ele>917.444</ele>
        <time>2020-05-22T01:21:32Z</time>
      </trkpt>
      <trkpt lat="43.118470" lon="-5.253530">
        <ele>916.905</ele>
        <time>2020-05-22T01:21:52Z</time>
      </trkpt>
      <trkpt lat="43.118420" lon="-5.253500">
        <ele>917.615</ele>
        <time>2020-05-22T01:22:12Z</time>
      </trkpt>
      <trkpt lat="43.118380" lon="-5.253480">
        <ele>917.608</ele>
        <time>2020-05-22T01:22:32Z</time>
      </trkpt>
      <trkpt lat="43.118360" lon="-5.253460">
        <ele>917.988</ele>
        <time>2020-05-22T01:22:52Z</time>
      </trkpt>
      <trkpt lat="43.118340" lon="-5.253430">
        <ele>918.463</ele>
        <time>2020-05-22T01:23:12Z</time>
      </trkpt>
      <trkpt lat="43.118260" lon="-5.253290">
        <ele>918.020</ele>
        <time>2020-05-22T01:23:32Z</time>
      </trkpt>
      <trkpt lat="43.118240" lon="-5.253240">
        <ele>918.976</ele>
        <time>2020-05-22T01:23:52Z</time>
      </trkpt>
      <trkpt lat="43.118170" lon="-5.253070">
        <ele>922.015</ele>
        <time>2020-05-22T01:24:12Z</time>
      </trkpt>
      <trkpt lat="43.118150" lon="-5.253030">
        <ele>922.142</ele>
        <time>2020-05-22T01:24:32Z</time>
      </trkpt>
      <trkpt lat="43.118070" lon="-5.252810">
        <ele>922.497</ele>
        <time>2020-05-22T01:24:52Z</time>
      </trkpt>
      <trkpt lat="43.118050" lon="-5.252770">
        <ele>921.931</ele>
        <time>2020-05-22T01:25:12Z</time>
      </trkpt>
      <trkpt lat="43.118030" lon="-5.252690">
        <ele>922.786</ele>
        <time>2020-05-22T01:25:32Z</time>
      </trkpt>
      <trkpt lat="43.118000" lon="-5.252590">
        <ele>923.460</ele>
        <time>2020-05-22T01:25:52Z</time>
      </trkpt>
      <trkpt lat="43.118000" lon="-5.252540">
        <ele>924.626</ele>
        <time>2020-05-22T01:26:12Z</time>
      </trkpt>
      <trkpt lat="43.117990" lon="-5.252450">
        <ele>925.508</ele>
        <time>2020-05-22T01:26:32Z</time>
      </trkpt>
      <trkpt lat="43.117980" lon="-5.252350">
        <ele>926.062</ele>
        <time>2020-05-22T01:26:52Z</time>
      </trkpt>
      <trkpt lat="43.117980" lon="-5.252340">
        <ele>926.227</ele>
        <time>2020-05-22T01:27:12Z</time>
      </trkpt>
      <trkpt lat="43.117980" lon="-5.252260">
        <ele>927.054</ele>
        <time>2020-05-22T01:27:32Z</time>
      </trkpt>
      <trkpt lat="43.117970" lon="-5.252160">
        <ele>927.970</ele>
        <time>2020-05-22T01:27:52Z</time>
      </trkpt>
      <trkpt lat="43.117950" lon="-5.252120">
        <ele>927.599</ele>
        <time>2020-05-22T01:28:12Z</time>
      </trkpt>
      <trkpt lat="43.117950" lon="-5.252090">
        <ele>928.086</ele>
        <time>2020-05-22T01:28:32Z</time>
      </trkpt>
      <trkpt lat="43.117860" lon="-5.251840">
        <ele>928.051</ele>
        <time>2020-05-22T01:28:52Z</time>
      </trkpt>
      <trkpt lat="43.117570" lon="-5.250950">
        <ele>932.265</ele>
        <time>2020-05-22T01:29:12Z</time>
      </trkpt>
      <trkpt lat="43.117500" lon="-5.250760">
        <ele>932.327</ele>
        <time>2020-05-22T01:29:32Z</time>
      </trkpt>
      <trkpt lat="43.117350" lon="-5.250350">
        <ele>934.868</ele>
        <time>2020-05-22T01:29:52Z</time>
      </trkpt>
      <trkpt lat="43.117330" lon="-5.250310">
        <ele>934.714</ele>
        <time>2020-05-22T01:30:12Z</time>
      </trkpt>
      <trkpt lat="43.117300" lon="-5.250250">
        <ele>934.908</ele>
        <time>2020-05-22T01:30:32Z</time>
      </trkpt>
      <trkpt lat="43.117260" lon="-5.250210">
        <ele>934.526</ele>
        <time>2020-05-22T01:30:52Z</time>
      </trkpt>
      <trkpt lat="43.117210" lon="-5.250140">
        <ele>934.441</ele>
        <time>2020-05-22T01:31:12Z</time>
      </trkpt>
      <trkpt lat="43.117070" lon="-5.249960">
        <ele>934.178</ele>
        <time>2020-05-22T01:31:32Z</time>
      </trkpt>
      <trkpt lat="43.116820" lon="-5.249680">
        <ele>933.444</ele>
        <time>2020-05-22T01:31:52Z</time>
      </trkpt>
      <trkpt lat="43.116770" lon="-5.249600">
        <ele>933.993</ele>
        <time>2020-05-22T01:32:12Z</time>
      </trkpt>
      <trkpt lat="43.116690" lon="-5.249470">
        <ele>934.420</ele>
        <time>2020-05-22T01:32:32Z</time>
      </trkpt>
      <trkpt lat="43.116630" lon="-5.249360">
        <ele>934.555</ele>
        <time>2020-05-22T01:32:52Z</time>
      </trkpt>
      <trkpt lat="43.116560" lon="-5.249230">
        <ele>933.949</ele>
        <time>2020-05-22T01:33:12Z</time>
      </trkpt>
      <trkpt lat="43.116540" lon="-5.249170">
        <ele>934.299</ele>
        <time>2020-05-22T01:33:32Z</time>
      </trkpt>
      <trkpt lat="43.116490" lon="-5.249050">
        <ele>933.707</ele>
        <time>2020-05-22T01:33:52Z</time>
      </trkpt>
      <trkpt lat="43.116420" lon="-5.248830">
        <ele>934.227</ele>
        <time>2020-05-22T01:34:12Z</time>
      </trkpt>
      <trkpt lat="43.116320" lon="-5.248540">
        <ele>934.408</ele>
        <time>2020-05-22T01:34:32Z</time>
      </trkpt>
      <trkpt lat="43.116310" lon="-5.248500">
        <ele>934.663</ele>
        <time>2020-05-22T01:34:52Z</time>
      </trkpt>
      <trkpt lat="43.116290" lon="-5.248460">
        <ele>934.248</ele>
        <time>2020-05-22T01:35:12Z</time>
      </trkpt>
      <trkpt lat="43.116240" lon="-5.248380">
        <ele>933.065</ele>
        <time>2020-05-22T01:35:32Z</time>
      </trkpt>
      <trkpt lat="43.116210" lon="-5.248290">
        <ele>933.221</ele>
        <time>2020-05-22T01:35:52Z</time>
      </trkpt>
      <trkpt lat="43.116170" lon="-5.248180">
        <ele>933.490</ele>
        <time>2020-05-22T01:36:12Z</time>
      </trkpt>
      <trkpt lat="43.116100" lon="-5.248000">
        <ele>933.097</ele>
        <time>2020-05-22T01:36:32Z</time>
      </trkpt>
      <trkpt lat="43.116080" lon="-5.247940">
        <ele>932.852</ele>
        <time>2020-05-22T01:36:52Z</time>
      </trkpt>
      <trkpt lat="43.116070" lon="-5.247900">
        <ele>932.766</ele>
        <time>2020-05-22T01:37:12Z</time>
      </trkpt>
      <trkpt lat="43.116070" lon="-5.247870">
        <ele>933.018</ele>
        <time>2020-05-22T01:37:32Z</time>
      </trkpt>
      <trkpt lat="43.116070" lon="-5.247840">
        <ele>933.298</ele>
        <time>2020-05-22T01:37:52Z</time>
      </trkpt>
      <trkpt lat="43.116070" lon="-5.247800">
        <ele>933.517</ele>
        <time>2020-05-22T01:38:12Z</time>
      </trkpt>
      <trkpt lat="43.116120" lon="-5.247480">
        <ele>933.508</ele>
        <time>2020-05-22T01:38:32Z</time>
      </trkpt>
      <trkpt lat="43.116130" lon="-5.247410">
        <ele>934.025</ele>
        <time>2020-05-22T01:38:52Z</time>
      </trkpt>
      <trkpt lat="43.116130" lon="-5.247380">
        <ele>934.080</ele>
        <time>2020-05-22T01:39:12Z</time>
      </trkpt>
      <trkpt lat="43.116130" lon="-5.247350">
        <ele>934.127</ele>
        <time>2020-05-22T01:39:32Z</time>
      </trkpt>
      <trkpt lat="43.116130" lon="-5.247290">
        <ele>934.163</ele>
        <time>2020-05-22T01:39:52Z</time>
      </trkpt>
      <trkpt lat="43.116130" lon="-5.247240">
        <ele>934.132</ele>
        <time>2020-05-22T01:40:12Z</time>
      </trkpt>
      <trkpt lat="43.116130" lon="-5.247230">
        <ele>934.149</ele>
        <time>2020-05-22T01:40:32Z</time>
      </trkpt>
      <trkpt lat="43.116110" lon="-5.247160">
        <ele>933.944</ele>
        <time>2020-05-22T01:40:52Z</time>
      </trkpt>
      <trkpt lat="43.116100" lon="-5.247100">
        <ele>934.488</ele>
        <time>2020-05-22T01:41:12Z</time>
      </trkpt>
      <trkpt lat="43.116090" lon="-5.247070">
        <ele>934.512</ele>
        <time>2020-05-22T01:41:32Z</time>
      </trkpt>
      <trkpt lat="43.116060" lon="-5.247020">
        <ele>934.332</ele>
        <time>2020-05-22T01:41:52Z</time>
      </trkpt>
      <trkpt lat="43.115820" lon="-5.246710">
        <ele>933.505</ele>
        <time>2020-05-22T01:42:12Z</time>
      </trkpt>
      <trkpt lat="43.115800" lon="-5.246670">
        <ele>933.508</ele>
        <time>2020-05-22T01:42:32Z</time>
      </trkpt>
      <trkpt lat="43.115780" lon="-5.246630">
        <ele>933.215</ele>
        <time>2020-05-22T01:42:52Z</time>
      </trkpt>
      <trkpt lat="43.115770" lon="-5.246600">
        <ele>933.250</ele>
        <time>2020-05-22T01:43:12Z</time>
      </trkpt>
      <trkpt lat="43.115460" lon="-5.245830">
        <ele>932.247</ele>
        <time>2020-05-22T01:43:32Z</time>
      </trkpt>
      <trkpt lat="43.115330" lon="-5.245490">
        <ele>931.653</ele>
        <time>2020-05-22T01:43:52Z</time>
      </trkpt>
      <trkpt lat="43.115290" lon="-5.245380">
        <ele>931.792</ele>
        <time>2020-05-22T01:44:12Z</time>
      </trkpt>
      <trkpt lat="43.115250" lon="-5.245250">
        <ele>932.289</ele>
        <time>2020-05-22T01:44:32Z</time>
      </trkpt>
      <trkpt lat="43.115220" lon="-5.245170">
        <ele>932.054</ele>
        <time>2020-05-22T01:44:52Z</time>
      </trkpt>
      <trkpt lat="43.115190" lon="-5.244990">
        <ele>932.998</ele>
        <time>2020-05-22T01:45:12Z</time>
      </trkpt>
      <trkpt lat="43.115180" lon="-5.244920">
        <ele>932.855</ele>
        <time>2020-05-22T01:45:32Z</time>
      </trkpt>
      <trkpt lat="43.115180" lon="-5.244910">
        <ele>932.807</ele>
        <time>2020-05-22T01:45:52Z</time>
      </trkpt>
      <trkpt lat="43.115180" lon="-5.244730">
        <ele>933.717</ele>
        <time>2020-05-22T01:46:12Z</time>
      </trkpt>
      <trkpt lat="43.115180" lon="-5.244660">
        <ele>933.608</ele>
        <time>2020-05-22T01:46:32Z</time>
      </trkpt>
      <trkpt lat="43.115180" lon="-5.244650">
        <ele>933.539</ele>
        <time>2020-05-22T01:46:52Z</time>
      </trkpt>
      <trkpt lat="43.115240" lon="-5.244180">
        <ele>936.374</ele>
        <time>2020-05-22T01:47:12Z</time>
      </trkpt>
      <trkpt lat="43.115290" lon="-5.243940">
        <ele>938.331</ele>
        <time>2020-05-22T01:47:32Z</time>
      </trkpt>
      <trkpt lat="43.115330" lon="-5.243700">
        <ele>939.667</ele>
        <time>2020-05-22T01:47:52Z</time>
      </trkpt>
      <trkpt lat="43.115370" lon="-5.243470">
        <ele>941.066</ele>
        <time>2020-05-22T01:48:12Z</time>
      </trkpt>
      <trkpt lat="43.115400" lon="-5.243220">
        <ele>942.453</ele>
        <time>2020-05-22T01:48:32Z</time>
      </trkpt>
      <trkpt lat="43.115400" lon="-5.243170">
        <ele>942.588</ele>
        <time>2020-05-22T01:48:52Z</time>
      </trkpt>
      <trkpt lat="43.115420" lon="-5.242820">
        <ele>943.832</ele>
        <time>2020-05-22T01:49:12Z</time>
      </trkpt>
      <trkpt lat="43.115460" lon="-5.242060">
        <ele>947.753</ele>
        <time>2020-05-22T01:49:32Z</time>
      </trkpt>
      <trkpt lat="43.115490" lon="-5.241500">
        <ele>950.404</ele>
        <time>2020-05-22T01:49:52Z</time>
      </trkpt>
      <trkpt lat="43.115510" lon="-5.240860">
        <ele>954.314</ele>
        <time>2020-05-22T01:50:12Z</time>
      </trkpt>
      <trkpt lat="43.115550" lon="-5.240410">
        <ele>957.308</ele>
        <time>2020-05-22T01:50:32Z</time>
      </trkpt>
      <trkpt lat="43.115560" lon="-5.240210">
        <ele>959.219</ele>
        <time>2020-05-22T01:50:52Z</time>
      </trkpt>
      <trkpt lat="43.115560" lon="-5.240130">
        <ele>960.474</ele>
        <time>2020-05-22T01:51:12Z</time>
      </trkpt>
      <trkpt lat="43.115560" lon="-5.240060">
        <ele>961.491</ele>
        <time>2020-05-22T01:51:32Z</time>
      </trkpt>
      <trkpt lat="43.115550" lon="-5.240020">
        <ele>961.487</ele>
        <time>2020-05-22T01:51:52Z</time>
      </trkpt>
      <trkpt lat="43.115520" lon="-5.239650">
        <ele>963.276</ele>
        <time>2020-05-22T01:52:12Z</time>
      </trkpt>
      <trkpt lat="43.115510" lon="-5.239570">
        <ele>962.933</ele>
        <time>2020-05-22T01:52:32Z</time>
      </trkpt>
      <trkpt lat="43.115500" lon="-5.239540">
        <ele>962.678</ele>
        <time>2020-05-22T01:52:52Z</time>
      </trkpt>
      <trkpt lat="43.115490" lon="-5.239520">
        <ele>962.342</ele>
        <time>2020-05-22T01:53:12Z</time>
      </trkpt>
      <trkpt lat="43.115470" lon="-5.239460">
        <ele>962.158</ele>
        <time>2020-05-22T01:53:32Z</time>
      </trkpt>
      <trkpt lat="43.115430" lon="-5.239420">
        <ele>962.452</ele>
        <time>2020-05-22T01:53:52Z</time>
      </trkpt>
      <trkpt lat="43.115390" lon="-5.239380">
        <ele>963.417</ele>
        <time>2020-05-22T01:54:12Z</time>
      </trkpt>
      <trkpt lat="43.115310" lon="-5.239320">
        <ele>964.508</ele>
        <time>2020-05-22T01:54:32Z</time>
      </trkpt>
      <trkpt lat="43.115260" lon="-5.239280">
        <ele>965.169</ele>
        <time>2020-05-22T01:54:52Z</time>
      </trkpt>
      <trkpt lat="43.115170" lon="-5.239230">
        <ele>964.284</ele>
        <time>2020-05-22T01:55:12Z</time>
      </trkpt>
      <trkpt lat="43.115140" lon="-5.239210">
        <ele>964.171</ele>
        <time>2020-05-22T01:55:32Z</time>
      </trkpt>
      <trkpt lat="43.115090" lon="-5.239160">
        <ele>964.617</ele>
        <time>2020-05-22T01:55:52Z</time>
      </trkpt>
      <trkpt lat="43.114840" lon="-5.238860">
        <ele>967.986</ele>
        <time>2020-05-22T01:56:12Z</time>
      </trkpt>
      <trkpt lat="43.114800" lon="-5.238800">
        <ele>968.463</ele>
        <time>2020-05-22T01:56:32Z</time>
      </trkpt>
      <trkpt lat="43.114500" lon="-5.238280">
        <ele>971.988</ele>
        <time>2020-05-22T01:56:52Z</time>
      </trkpt>
      <trkpt lat="43.114460" lon="-5.238220">
        <ele>970.892</ele>
        <time>2020-05-22T01:57:12Z</time>
      </trkpt>
      <trkpt lat="43.114340" lon="-5.238030">
        <ele>974.014</ele>
        <time>2020-05-22T01:57:32Z</time>
      </trkpt>
      <trkpt lat="43.114050" lon="-5.237560">
        <ele>977.354</ele>
        <time>2020-05-22T01:57:52Z</time>
      </trkpt>
      <trkpt lat="43.114000" lon="-5.237470">
        <ele>978.409</ele>
        <time>2020-05-22T01:58:12Z</time>
      </trkpt>
      <trkpt lat="43.113900" lon="-5.237310">
        <ele>979.008</ele>
        <time>2020-05-22T01:58:32Z</time>
      </trkpt>
      <trkpt lat="43.113880" lon="-5.237280">
        <ele>978.985</ele>
        <time>2020-05-22T01:58:52Z</time>
      </trkpt>
      <trkpt lat="43.113620" lon="-5.236750">
        <ele>982.810</ele>
        <time>2020-05-22T01:59:12Z</time>
      </trkpt>
      <trkpt lat="43.113140" lon="-5.235880">
        <ele>991.097</ele>
        <time>2020-05-22T01:59:32Z</time>
      </trkpt>
      <trkpt lat="43.113050" lon="-5.235720">
        <ele>990.443</ele>
        <time>2020-05-22T01:59:52Z</time>
      </trkpt>
      <trkpt lat="43.113020" lon="-5.235660">
        <ele>990.662</ele>
        <time>2020-05-22T02:00:12Z</time>
      </trkpt>
      <trkpt lat="43.112980" lon="-5.235560">
        <ele>991.519</ele>
        <time>2020-05-22T02:00:32Z</time>
      </trkpt>
      <trkpt lat="43.112770" lon="-5.235050">
        <ele>994.314</ele>
        <time>2020-05-22T02:00:52Z</time>
      </trkpt>
      <trkpt lat="43.112700" lon="-5.234870">
        <ele>994.598</ele>
        <time>2020-05-22T02:01:12Z</time>
      </trkpt>
      <trkpt lat="43.112640" lon="-5.234670">
        <ele>995.864</ele>
        <time>2020-05-22T02:01:32Z</time>
      </trkpt>
      <trkpt lat="43.112570" lon="-5.234450">
        <ele>996.406</ele>
        <time>2020-05-22T02:01:52Z</time>
      </trkpt>
      <trkpt lat="43.112480" lon="-5.234140">
        <ele>997.716</ele>
        <time>2020-05-22T02:02:12Z</time>
      </trkpt>
      <trkpt lat="43.112460" lon="-5.234040">
        <ele>997.708</ele>
        <time>2020-05-22T02:02:32Z</time>
      </trkpt>
      <trkpt lat="43.112460" lon="-5.233960">
        <ele>999.280</ele>
        <time>2020-05-22T02:02:52Z</time>
      </trkpt>
      <trkpt lat="43.112460" lon="-5.233900">
        <ele>1000.335</ele>
        <time>2020-05-22T02:03:12Z</time>
      </trkpt>
      <trkpt lat="43.112460" lon="-5.233870">
        <ele>1000.582</ele>
        <time>2020-05-22T02:03:32Z</time>
      </trkpt>
      <trkpt lat="43.112470" lon="-5.233510">
        <ele>1001.628</ele>
        <time>2020-05-22T02:03:52Z</time>
      </trkpt>
      <trkpt lat="43.112470" lon="-5.233310">
        <ele>1003.617</ele>
        <time>2020-05-22T02:04:12Z</time>
      </trkpt>
      <trkpt lat="43.112460" lon="-5.233150">
        <ele>1005.864</ele>
        <time>2020-05-22T02:04:32Z</time>
      </trkpt>
      <trkpt lat="43.112450" lon="-5.233040">
        <ele>1006.999</ele>
        <time>2020-05-22T02:04:52Z</time>
      </trkpt>
      <trkpt lat="43.112410" lon="-5.232700">
        <ele>1006.493</ele>
        <time>2020-05-22T02:05:12Z</time>
      </trkpt>
      <trkpt lat="43.112370" lon="-5.232430">
        <ele>1007.665</ele>
        <time>2020-05-22T02:05:32Z</time>
      </trkpt>
      <trkpt lat="43.112330" lon="-5.232190">
        <ele>1008.468</ele>
        <time>2020-05-22T02:05:52Z</time>
      </trkpt>
      <trkpt lat="43.112290" lon="-5.231920">
        <ele>1009.614</ele>
        <time>2020-05-22T02:06:12Z</time>
      </trkpt>
      <trkpt lat="43.112240" lon="-5.231650">
        <ele>1011.608</ele>
        <time>2020-05-22T02:06:32Z</time>
      </trkpt>
      <trkpt lat="43.112200" lon="-5.231470">
        <ele>1013.010</ele>
        <time>2020-05-22T02:06:52Z</time>
      </trkpt>
      <trkpt lat="43.112190" lon="-5.231410">
        <ele>1013.815</ele>
        <time>2020-05-22T02:07:12Z</time>
      </trkpt>
      <trkpt lat="43.112110" lon="-5.231020">
        <ele>1016.612</ele>
        <time>2020-05-22T02:07:32Z</time>
      </trkpt>
      <trkpt lat="43.112080" lon="-5.230910">
        <ele>1017.568</ele>
        <time>2020-05-22T02:07:52Z</time>
      </trkpt>
      <trkpt lat="43.112070" lon="-5.230860">
        <ele>1018.057</ele>
        <time>2020-05-22T02:08:12Z</time>
      </trkpt>
      <trkpt lat="43.112050" lon="-5.230800">
        <ele>1018.314</ele>
        <time>2020-05-22T02:08:32Z</time>
      </trkpt>
      <trkpt lat="43.112010" lon="-5.230740">
        <ele>1017.829</ele>
        <time>2020-05-22T02:08:52Z</time>
      </trkpt>
      <trkpt lat="43.111970" lon="-5.230670">
        <ele>1017.343</ele>
        <time>2020-05-22T02:09:12Z</time>
      </trkpt>
      <trkpt lat="43.111950" lon="-5.230620">
        <ele>1017.315</ele>
        <time>2020-05-22T02:09:32Z</time>
      </trkpt>
      <trkpt lat="43.111920" lon="-5.230570">
        <ele>1017.365</ele>
        <time>2020-05-22T02:09:52Z</time>
      </trkpt>
      <trkpt lat="43.111910" lon="-5.230520">
        <ele>1017.711</ele>
        <time>2020-05-22T02:10:12Z</time>
      </trkpt>
      <trkpt lat="43.111880" lon="-5.230430">
        <ele>1018.008</ele>
        <time>2020-05-22T02:10:32Z</time>
      </trkpt>
      <trkpt lat="43.111850" lon="-5.230320">
        <ele>1018.295</ele>
        <time>2020-05-22T02:10:52Z</time>
      </trkpt>
      <trkpt lat="43.111840" lon="-5.230220">
        <ele>1018.720</ele>
        <time>2020-05-22T02:11:12Z</time>
      </trkpt>
      <trkpt lat="43.111830" lon="-5.230120">
        <ele>1019.087</ele>
        <time>2020-05-22T02:11:32Z</time>
      </trkpt>
      <trkpt lat="43.111840" lon="-5.229980">
        <ele>1020.353</ele>
        <time>2020-05-22T02:11:52Z</time>
      </trkpt>
      <trkpt lat="43.111840" lon="-5.229840">
        <ele>1021.012</ele>
        <time>2020-05-22T02:12:12Z</time>
      </trkpt>
      <trkpt lat="43.111860" lon="-5.229610">
        <ele>1023.199</ele>
        <time>2020-05-22T02:12:32Z</time>
      </trkpt>
      <trkpt lat="43.111870" lon="-5.229410">
        <ele>1024.654</ele>
        <time>2020-05-22T02:12:52Z</time>
      </trkpt>
      <trkpt lat="43.111910" lon="-5.228650">
        <ele>1027.048</ele>
        <time>2020-05-22T02:13:12Z</time>
      </trkpt>
      <trkpt lat="43.111910" lon="-5.228280">
        <ele>1029.737</ele>
        <time>2020-05-22T02:13:32Z</time>
      </trkpt>
      <trkpt lat="43.111910" lon="-5.228190">
        <ele>1030.949</ele>
        <time>2020-05-22T02:13:52Z</time>
      </trkpt>
      <trkpt lat="43.111900" lon="-5.228150">
        <ele>1031.113</ele>
        <time>2020-05-22T02:14:12Z</time>
      </trkpt>
      <trkpt lat="43.111890" lon="-5.228130">
        <ele>1031.108</ele>
        <time>2020-05-22T02:14:32Z</time>
      </trkpt>
      <trkpt lat="43.111890" lon="-5.228120">
        <ele>1031.297</ele>
        <time>2020-05-22T02:14:52Z</time>
      </trkpt>
      <trkpt lat="43.111860" lon="-5.228030">
        <ele>1031.482</ele>
        <time>2020-05-22T02:15:12Z</time>
      </trkpt>
      <trkpt lat="43.111740" lon="-5.227690">
        <ele>1034.199</ele>
        <time>2020-05-22T02:15:32Z</time>
      </trkpt>
      <trkpt lat="43.111710" lon="-5.227600">
        <ele>1034.835</ele>
        <time>2020-05-22T02:15:52Z</time>
      </trkpt>
      <trkpt lat="43.111670" lon="-5.227460">
        <ele>1036.064</ele>
        <time>2020-05-22T02:16:12Z</time>
      </trkpt>
      <trkpt lat="43.111620" lon="-5.227310">
        <ele>1037.251</ele>
        <time>2020-05-22T02:16:32Z</time>
      </trkpt>
      <trkpt lat="43.111600" lon="-5.227230">
        <ele>1038.086</ele>
        <time>2020-05-22T02:16:52Z</time>
      </trkpt>
      <trkpt lat="43.111590" lon="-5.227190">
        <ele>1038.150</ele>
        <time>2020-05-22T02:17:12Z</time>
      </trkpt>
      <trkpt lat="43.111520" lon="-5.226990">
        <ele>1038.116</ele>
        <time>2020-05-22T02:17:32Z</time>
      </trkpt>
      <trkpt lat="43.111470" lon="-5.226880">
        <ele>1038.576</ele>
        <time>2020-05-22T02:17:52Z</time>
      </trkpt>
      <trkpt lat="43.111410" lon="-5.226700">
        <ele>1040.913</ele>
        <time>2020-05-22T02:18:12Z</time>
      </trkpt>
      <trkpt lat="43.111350" lon="-5.226590">
        <ele>1041.908</ele>
        <time>2020-05-22T02:18:32Z</time>
      </trkpt>
      <trkpt lat="43.111350" lon="-5.226580">
        <ele>1042.285</ele>
        <time>2020-05-22T02:18:52Z</time>
      </trkpt>
      <trkpt lat="43.111240" lon="-5.226390">
        <ele>1043.670</ele>
        <time>2020-05-22T02:19:12Z</time>
      </trkpt>
      <trkpt lat="43.111190" lon="-5.226290">
        <ele>1043.887</ele>
        <time>2020-05-22T02:19:32Z</time>
      </trkpt>
      <trkpt lat="43.111160" lon="-5.226240">
        <ele>1043.873</ele>
        <time>2020-05-22T02:19:52Z</time>
      </trkpt>
      <trkpt lat="43.111130" lon="-5.226190">
        <ele>1043.912</ele>
        <time>2020-05-22T02:20:12Z</time>
      </trkpt>
      <trkpt lat="43.111090" lon="-5.226150">
        <ele>1043.719</ele>
        <time>2020-05-22T02:20:32Z</time>
      </trkpt>
      <trkpt lat="43.111020" lon="-5.226080">
        <ele>1044.294</ele>
        <time>2020-05-22T02:20:52Z</time>
      </trkpt>
      <trkpt lat="43.110980" lon="-5.226050">
        <ele>1044.448</ele>
        <time>2020-05-22T02:21:12Z</time>
      </trkpt>
      <trkpt lat="43.110880" lon="-5.226000">
        <ele>1044.378</ele>
        <time>2020-05-22T02:21:32Z</time>
      </trkpt>
      <trkpt lat="43.110850" lon="-5.225970">
        <ele>1044.833</ele>
        <time>2020-05-22T02:21:52Z</time>
      </trkpt>
      <trkpt lat="43.110810" lon="-5.225930">
        <ele>1045.526</ele>
        <time>2020-05-22T02:22:12Z</time>
      </trkpt>
      <trkpt lat="43.110780" lon="-5.225880">
        <ele>1046.608</ele>
        <time>2020-05-22T02:22:32Z</time>
      </trkpt>
      <trkpt lat="43.110750" lon="-5.225830">
        <ele>1047.541</ele>
        <time>2020-05-22T02:22:52Z</time>
      </trkpt>
      <trkpt lat="43.110730" lon="-5.225770">
        <ele>1047.836</ele>
        <time>2020-05-22T02:23:12Z</time>
      </trkpt>
      <trkpt lat="43.110720" lon="-5.225750">
        <ele>1047.873</ele>
        <time>2020-05-22T02:23:32Z</time>
      </trkpt>
      <trkpt lat="43.110690" lon="-5.225670">
        <ele>1047.999</ele>
        <time>2020-05-22T02:23:52Z</time>
      </trkpt>
      <trkpt lat="43.110610" lon="-5.225320">
        <ele>1049.818</ele>
        <time>2020-05-22T02:24:12Z</time>
      </trkpt>
      <trkpt lat="43.110590" lon="-5.225250">
        <ele>1050.225</ele>
        <time>2020-05-22T02:24:32Z</time>
      </trkpt>
      <trkpt lat="43.110580" lon="-5.225210">
        <ele>1050.590</ele>
        <time>2020-05-22T02:24:52Z</time>
      </trkpt>
      <trkpt lat="43.110550" lon="-5.225150">
        <ele>1050.714</ele>
        <time>2020-05-22T02:25:12Z</time>
      </trkpt>
      <trkpt lat="43.110490" lon="-5.225050">
        <ele>1051.263</ele>
        <time>2020-05-22T02:25:32Z</time>
      </trkpt>
      <trkpt lat="43.110430" lon="-5.224970">
        <ele>1051.944</ele>
        <time>2020-05-22T02:25:52Z</time>
      </trkpt>
      <trkpt lat="43.110260" lon="-5.224800">
        <ele>1053.718</ele>
        <time>2020-05-22T02:26:12Z</time>
      </trkpt>
      <trkpt lat="43.110150" lon="-5.224680">
        <ele>1054.208</ele>
        <time>2020-05-22T02:26:32Z</time>
      </trkpt>
      <trkpt lat="43.110030" lon="-5.224510">
        <ele>1055.290</ele>
        <time>2020-05-22T02:26:52Z</time>
      </trkpt>
      <trkpt lat="43.109990" lon="-5.224420">
        <ele>1056.035</ele>
        <time>2020-05-22T02:27:12Z</time>
      </trkpt>
      <trkpt lat="43.109960" lon="-5.224320">
        <ele>1056.342</ele>
        <time>2020-05-22T02:27:32Z</time>
      </trkpt>
      <trkpt lat="43.109940" lon="-5.224270">
        <ele>1056.428</ele>
        <time>2020-05-22T02:27:52Z</time>
      </trkpt>
      <trkpt lat="43.109900" lon="-5.224140">
        <ele>1057.157</ele>
        <time>2020-05-22T02:28:12Z</time>
      </trkpt>
      <trkpt lat="43.109880" lon="-5.224040">
        <ele>1058.784</ele>
        <time>2020-05-22T02:28:32Z</time>
      </trkpt>
      <trkpt lat="43.109830" lon="-5.223810">
        <ele>1061.229</ele>
        <time>2020-05-22T02:28:52Z</time>
      </trkpt>
      <trkpt lat="43.109800" lon="-5.223690">
        <ele>1061.293</ele>
        <time>2020-05-22T02:29:12Z</time>
      </trkpt>
      <trkpt lat="43.109780" lon="-5.223570">
        <ele>1061.754</ele>
        <time>2020-05-22T02:29:32Z</time>
      </trkpt>
      <trkpt lat="43.109760" lon="-5.223490">
        <ele>1062.356</ele>
        <time>2020-05-22T02:29:52Z</time>
      </trkpt>
      <trkpt lat="43.109750" lon="-5.223360">
        <ele>1063.911</ele>
        <time>2020-05-22T02:30:12Z</time>
      </trkpt>
      <trkpt lat="43.109750" lon="-5.223230">
        <ele>1064.808</ele>
        <time>2020-05-22T02:30:32Z</time>
      </trkpt>
      <trkpt lat="43.109760" lon="-5.223100">
        <ele>1065.749</ele>
        <time>2020-05-22T02:30:52Z</time>
      </trkpt>
      <trkpt lat="43.109770" lon="-5.223080">
        <ele>1066.034</ele>
        <time>2020-05-22T02:31:12Z</time>
      </trkpt>
      <trkpt lat="43.109780" lon="-5.223030">
        <ele>1066.531</ele>
        <time>2020-05-22T02:31:32Z</time>
      </trkpt>
      <trkpt lat="43.109840" lon="-5.222860">
        <ele>1068.877</ele>
        <time>2020-05-22T02:31:52Z</time>
      </trkpt>
      <trkpt lat="43.109970" lon="-5.222490">
        <ele>1073.156</ele>
        <time>2020-05-22T02:32:12Z</time>
      </trkpt>
      <trkpt lat="43.110000" lon="-5.222440">
        <ele>1073.423</ele>
        <time>2020-05-22T02:32:32Z</time>
      </trkpt>
      <trkpt lat="43.110030" lon="-5.222370">
        <ele>1073.288</ele>
        <time>2020-05-22T02:32:52Z</time>
      </trkpt>
      <trkpt lat="43.110070" lon="-5.222320">
        <ele>1073.422</ele>
        <time>2020-05-22T02:33:12Z</time>
      </trkpt>
      <trkpt lat="43.110100" lon="-5.222290">
        <ele>1073.684</ele>
        <time>2020-05-22T02:33:32Z</time>
      </trkpt>
      <trkpt lat="43.110140" lon="-5.222250">
        <ele>1073.907</ele>
        <time>2020-05-22T02:33:52Z</time>
      </trkpt>
      <trkpt lat="43.110180" lon="-5.222220">
        <ele>1074.217</ele>
        <time>2020-05-22T02:34:12Z</time>
      </trkpt>
      <trkpt lat="43.110300" lon="-5.222150">
        <ele>1075.208</ele>
        <time>2020-05-22T02:34:32Z</time>
      </trkpt>
      <trkpt lat="43.110330" lon="-5.222130">
        <ele>1075.462</ele>
        <time>2020-05-22T02:34:52Z</time>
      </trkpt>
      <trkpt lat="43.110360" lon="-5.222110">
        <ele>1075.587</ele>
        <time>2020-05-22T02:35:12Z</time>
      </trkpt>
      <trkpt lat="43.110390" lon="-5.222080">
        <ele>1075.684</ele>
        <time>2020-05-22T02:35:32Z</time>
      </trkpt>
      <trkpt lat="43.110420" lon="-5.222050">
        <ele>1075.710</ele>
        <time>2020-05-22T02:35:52Z</time>
      </trkpt>
      <trkpt lat="43.110440" lon="-5.222010">
        <ele>1075.629</ele>
        <time>2020-05-22T02:36:12Z</time>
      </trkpt>
      <trkpt lat="43.110460" lon="-5.221940">
        <ele>1075.336</ele>
        <time>2020-05-22T02:36:32Z</time>
      </trkpt>
      <trkpt lat="43.110520" lon="-5.221780">
        <ele>1076.461</ele>
        <time>2020-05-22T02:36:52Z</time>
      </trkpt>
      <trkpt lat="43.110600" lon="-5.221560">
        <ele>1078.135</ele>
        <time>2020-05-22T02:37:12Z</time>
      </trkpt>
      <trkpt lat="43.110680" lon="-5.221340">
        <ele>1079.611</ele>
        <time>2020-05-22T02:37:32Z</time>
      </trkpt>
      <trkpt lat="43.111000" lon="-5.220460">
        <ele>1087.621</ele>
        <time>2020-05-22T02:37:52Z</time>
      </trkpt>
      <trkpt lat="43.111080" lon="-5.220260">
        <ele>1089.103</ele>
        <time>2020-05-22T02:38:12Z</time>
      </trkpt>
      <trkpt lat="43.111080" lon="-5.220240">
        <ele>1089.008</ele>
        <time>2020-05-22T02:38:32Z</time>
      </trkpt>
      <trkpt lat="43.111170" lon="-5.219900">
        <ele>1091.265</ele>
        <time>2020-05-22T02:38:52Z</time>
      </trkpt>
      <trkpt lat="43.111200" lon="-5.219650">
        <ele>1091.770</ele>
        <time>2020-05-22T02:39:12Z</time>
      </trkpt>
      <trkpt lat="43.111210" lon="-5.219530">
        <ele>1092.437</ele>
        <time>2020-05-22T02:39:32Z</time>
      </trkpt>
      <trkpt lat="43.111210" lon="-5.219370">
        <ele>1093.113</ele>
        <time>2020-05-22T02:39:52Z</time>
      </trkpt>
      <trkpt lat="43.111210" lon="-5.219150">
        <ele>1094.252</ele>
        <time>2020-05-22T02:40:12Z</time>
      </trkpt>
      <trkpt lat="43.111200" lon="-5.219040">
        <ele>1093.469</ele>
        <time>2020-05-22T02:40:32Z</time>
      </trkpt>
      <trkpt lat="43.111180" lon="-5.218950">
        <ele>1092.414</ele>
        <time>2020-05-22T02:40:52Z</time>
      </trkpt>
      <trkpt lat="43.111130" lon="-5.218810">
        <ele>1092.268</ele>
        <time>2020-05-22T02:41:12Z</time>
      </trkpt>
      <trkpt lat="43.111090" lon="-5.218740">
        <ele>1093.162</ele>
        <time>2020-05-22T02:41:32Z</time>
      </trkpt>
      <trkpt lat="43.110870" lon="-5.218520">
        <ele>1095.583</ele>
        <time>2020-05-22T02:41:52Z</time>
      </trkpt>
      <trkpt lat="43.110850" lon="-5.218500">
        <ele>1095.711</ele>
        <time>2020-05-22T02:42:12Z</time>
      </trkpt>
      <trkpt lat="43.110760" lon="-5.218430">
        <ele>1096.508</ele>
        <time>2020-05-22T02:42:32Z</time>
      </trkpt>
      <trkpt lat="43.110700" lon="-5.218390">
        <ele>1097.190</ele>
        <time>2020-05-22T02:42:52Z</time>
      </trkpt>
      <trkpt lat="43.110650" lon="-5.218360">
        <ele>1097.675</ele>
        <time>2020-05-22T02:43:12Z</time>
      </trkpt>
      <trkpt lat="43.110590" lon="-5.218370">
        <ele>1097.422</ele>
        <time>2020-05-22T02:43:32Z</time>
      </trkpt>
      <trkpt lat="43.110490" lon="-5.218400">
        <ele>1097.678</ele>
        <time>2020-05-22T02:43:52Z</time>
      </trkpt>
      <trkpt lat="43.110440" lon="-5.218430">
        <ele>1097.677</ele>
        <time>2020-05-22T02:44:12Z</time>
      </trkpt>
      <trkpt lat="43.110390" lon="-5.218490">
        <ele>1096.994</ele>
        <time>2020-05-22T02:44:32Z</time>
      </trkpt>
      <trkpt lat="43.110350" lon="-5.218530">
        <ele>1096.459</ele>
        <time>2020-05-22T02:44:52Z</time>
      </trkpt>
      <trkpt lat="43.110290" lon="-5.218550">
        <ele>1096.433</ele>
        <time>2020-05-22T02:45:12Z</time>
      </trkpt>
      <trkpt lat="43.110240" lon="-5.218570">
        <ele>1096.767</ele>
        <time>2020-05-22T02:45:32Z</time>
      </trkpt>
      <trkpt lat="43.110190" lon="-5.218580">
        <ele>1097.381</ele>
        <time>2020-05-22T02:45:52Z</time>
      </trkpt>
      <trkpt lat="43.110180" lon="-5.218580">
        <ele>1097.519</ele>
        <time>2020-05-22T02:46:12Z</time>
      </trkpt>
      <trkpt lat="43.110150" lon="-5.218580">
        <ele>1098.008</ele>
        <time>2020-05-22T02:46:32Z</time>
      </trkpt>
      <trkpt lat="43.110120" lon="-5.218580">
        <ele>1098.670</ele>
        <time>2020-05-22T02:46:52Z</time>
      </trkpt>
      <trkpt lat="43.110080" lon="-5.218590">
        <ele>1099.095</ele>
        <time>2020-05-22T02:47:12Z</time>
      </trkpt>
      <trkpt lat="43.110040" lon="-5.218590">
        <ele>1099.732</ele>
        <time>2020-05-22T02:47:32Z</time>
      </trkpt>
      <trkpt lat="43.110010" lon="-5.218600">
        <ele>1100.138</ele>
        <time>2020-05-22T02:47:52Z</time>
      </trkpt>
      <trkpt lat="43.109980" lon="-5.218620">
        <ele>1100.457</ele>
        <time>2020-05-22T02:48:12Z</time>
      </trkpt>
      <trkpt lat="43.109940" lon="-5.218660">
        <ele>1101.154</ele>
        <time>2020-05-22T02:48:32Z</time>
      </trkpt>
      <trkpt lat="43.109900" lon="-5.218710">
        <ele>1101.859</ele>
        <time>2020-05-22T02:48:52Z</time>
      </trkpt>
      <trkpt lat="43.109880" lon="-5.218760">
        <ele>1102.213</ele>
        <time>2020-05-22T02:49:12Z</time>
      </trkpt>
      <trkpt lat="43.109870" lon="-5.218780">
        <ele>1102.439</ele>
        <time>2020-05-22T02:49:32Z</time>
      </trkpt>
      <trkpt lat="43.109850" lon="-5.218860">
        <ele>1102.901</ele>
        <time>2020-05-22T02:49:52Z</time>
      </trkpt>
      <trkpt lat="43.109850" lon="-5.218930">
        <ele>1103.421</ele>
        <time>2020-05-22T02:50:12Z</time>
      </trkpt>
      <trkpt lat="43.109850" lon="-5.219020">
        <ele>1104.508</ele>
        <time>2020-05-22T02:50:32Z</time>
      </trkpt>
      <trkpt lat="43.109850" lon="-5.219120">
        <ele>1105.877</ele>
        <time>2020-05-22T02:50:52Z</time>
      </trkpt>
      <trkpt lat="43.109880" lon="-5.219260">
        <ele>1106.292</ele>
        <time>2020-05-22T02:51:12Z</time>
      </trkpt>
      <trkpt lat="43.109890" lon="-5.219460">
        <ele>1107.899</ele>
        <time>2020-05-22T02:51:32Z</time>
      </trkpt>
      <trkpt lat="43.109890" lon="-5.219610">
        <ele>1108.675</ele>
        <time>2020-05-22T02:51:52Z</time>
      </trkpt>
      <trkpt lat="43.109860" lon="-5.219760">
        <ele>1109.754</ele>
        <time>2020-05-22T02:52:12Z</time>
      </trkpt>
      <trkpt lat="43.109840" lon="-5.219830">
        <ele>1109.761</ele>
        <time>2020-05-22T02:52:32Z</time>
      </trkpt>
      <trkpt lat="43.109810" lon="-5.219920">
        <ele>1109.886</ele>
        <time>2020-05-22T02:52:52Z</time>
      </trkpt>
      <trkpt lat="43.109800" lon="-5.219950">
        <ele>1109.970</ele>
        <time>2020-05-22T02:53:12Z</time>
      </trkpt>
      <trkpt lat="43.109750" lon="-5.220050">
        <ele>1110.511</ele>
        <time>2020-05-22T02:53:32Z</time>
      </trkpt>
      <trkpt lat="43.109700" lon="-5.220170">
        <ele>1111.621</ele>
        <time>2020-05-22T02:53:52Z</time>
      </trkpt>
      <trkpt lat="43.109650" lon="-5.220300">
        <ele>1113.803</ele>
        <time>2020-05-22T02:54:12Z</time>
      </trkpt>
      <trkpt lat="43.109620" lon="-5.220410">
        <ele>1115.208</ele>
        <time>2020-05-22T02:54:32Z</time>
      </trkpt>
      <trkpt lat="43.109590" lon="-5.220510">
        <ele>1116.455</ele>
        <time>2020-05-22T02:54:52Z</time>
      </trkpt>
      <trkpt lat="43.109560" lon="-5.220640">
        <ele>1117.130</ele>
        <time>2020-05-22T02:55:12Z</time>
      </trkpt>
      <trkpt lat="43.109500" lon="-5.220840">
        <ele>1118.117</ele>
        <time>2020-05-22T02:55:32Z</time>
      </trkpt>
      <trkpt lat="43.109480" lon="-5.220880">
        <ele>1118.273</ele>
        <time>2020-05-22T02:55:52Z</time>
      </trkpt>
      <trkpt lat="43.109420" lon="-5.221060">
        <ele>1117.482</ele>
        <time>2020-05-22T02:56:12Z</time>
      </trkpt>
      <trkpt lat="43.109400" lon="-5.221110">
        <ele>1117.379</ele>
        <time>2020-05-22T02:56:32Z</time>
      </trkpt>
      <trkpt lat="43.109330" lon="-5.221280">
        <ele>1117.384</ele>
        <time>2020-05-22T02:56:52Z</time>
      </trkpt>
      <trkpt lat="43.109240" lon="-5.221430">
        <ele>1117.198</ele>
        <time>2020-05-22T02:57:12Z</time>
      </trkpt>
      <trkpt lat="43.109100" lon="-5.221660">
        <ele>1117.342</ele>
        <time>2020-05-22T02:57:32Z</time>
      </trkpt>
      <trkpt lat="43.108990" lon="-5.221850">
        <ele>1118.822</ele>
        <time>2020-05-22T02:57:52Z</time>
      </trkpt>
      <trkpt lat="43.108930" lon="-5.221960">
        <ele>1121.114</ele>
        <time>2020-05-22T02:58:12Z</time>
      </trkpt>
      <trkpt lat="43.108880" lon="-5.222050">
        <ele>1123.208</ele>
        <time>2020-05-22T02:58:32Z</time>
      </trkpt>
      <trkpt lat="43.108860" lon="-5.222070">
        <ele>1123.898</ele>
        <time>2020-05-22T02:58:52Z</time>
      </trkpt>
      <trkpt lat="43.108640" lon="-5.222390">
        <ele>1126.073</ele>
        <time>2020-05-22T02:59:12Z</time>
      </trkpt>
      <trkpt lat="43.108630" lon="-5.222400">
        <ele>1126.180</ele>
        <time>2020-05-22T02:59:32Z</time>
      </trkpt>
      <trkpt lat="43.108580" lon="-5.222460">
        <ele>1126.236</ele>
        <time>2020-05-22T02:59:52Z</time>
      </trkpt>
      <trkpt lat="43.108530" lon="-5.222510">
        <ele>1125.945</ele>
        <time>2020-05-22T03:00:12Z</time>
      </trkpt>
      <trkpt lat="43.108480" lon="-5.222530">
        <ele>1126.042</ele>
        <time>2020-05-22T03:00:32Z</time>
      </trkpt>
      <trkpt lat="43.108470" lon="-5.222530">
        <ele>1126.257</ele>
        <time>2020-05-22T03:00:52Z</time>
      </trkpt>
      <trkpt lat="43.108380" lon="-5.222550">
        <ele>1126.881</ele>
        <time>2020-05-22T03:01:12Z</time>
      </trkpt>
      <trkpt lat="43.108300" lon="-5.222550">
        <ele>1127.798</ele>
        <time>2020-05-22T03:01:32Z</time>
      </trkpt>
      <trkpt lat="43.108120" lon="-5.222560">
        <ele>1129.215</ele>
        <time>2020-05-22T03:01:52Z</time>
      </trkpt>
      <trkpt lat="43.108040" lon="-5.222560">
        <ele>1130.026</ele>
        <time>2020-05-22T03:02:12Z</time>
      </trkpt>
      <trkpt lat="43.107940" lon="-5.222550">
        <ele>1131.508</ele>
        <time>2020-05-22T03:02:32Z</time>
      </trkpt>
      <trkpt lat="43.107880" lon="-5.222540">
        <ele>1132.533</ele>
        <time>2020-05-22T03:02:52Z</time>
      </trkpt>
      <trkpt lat="43.107770" lon="-5.222530">
        <ele>1133.938</ele>
        <time>2020-05-22T03:03:12Z</time>
      </trkpt>
      <trkpt lat="43.107760" lon="-5.222530">
        <ele>1133.775</ele>
        <time>2020-05-22T03:03:32Z</time>
      </trkpt>
      <trkpt lat="43.107700" lon="-5.222510">
        <ele>1133.231</ele>
        <time>2020-05-22T03:03:52Z</time>
      </trkpt>
      <trkpt lat="43.107610" lon="-5.222460">
        <ele>1133.440</ele>
        <time>2020-05-22T03:04:12Z</time>
      </trkpt>
      <trkpt lat="43.107550" lon="-5.222390">
        <ele>1134.957</ele>
        <time>2020-05-22T03:04:32Z</time>
      </trkpt>
      <trkpt lat="43.107460" lon="-5.222300">
        <ele>1136.782</ele>
        <time>2020-05-22T03:04:52Z</time>
      </trkpt>
      <trkpt lat="43.107390" lon="-5.222240">
        <ele>1138.116</ele>
        <time>2020-05-22T03:05:12Z</time>
      </trkpt>
      <trkpt lat="43.107300" lon="-5.222210">
        <ele>1138.345</ele>
        <time>2020-05-22T03:05:32Z</time>
      </trkpt>
      <trkpt lat="43.107290" lon="-5.222200">
        <ele>1138.547</ele>
        <time>2020-05-22T03:05:52Z</time>
      </trkpt>
      <trkpt lat="43.107110" lon="-5.222140">
        <ele>1139.011</ele>
        <time>2020-05-22T03:06:12Z</time>
      </trkpt>
      <trkpt lat="43.107060" lon="-5.222110">
        <ele>1139.508</ele>
        <time>2020-05-22T03:06:32Z</time>
      </trkpt>
      <trkpt lat="43.106940" lon="-5.222070">
        <ele>1139.758</ele>
        <time>2020-05-22T03:06:52Z</time>
      </trkpt>
      <trkpt lat="43.106850" lon="-5.222020">
        <ele>1140.543</ele>
        <time>2020-05-22T03:07:12Z</time>
      </trkpt>
      <trkpt lat="43.106770" lon="-5.221980">
        <ele>1141.330</ele>
        <time>2020-05-22T03:07:32Z</time>
      </trkpt>
      <trkpt lat="43.106680" lon="-5.221950">
        <ele>1141.916</ele>
        <time>2020-05-22T03:07:52Z</time>
      </trkpt>
      <trkpt lat="43.106600" lon="-5.221930">
        <ele>1142.625</ele>
        <time>2020-05-22T03:08:12Z</time>
      </trkpt>
      <trkpt lat="43.106590" lon="-5.221920">
        <ele>1142.822</ele>
        <time>2020-05-22T03:08:32Z</time>
      </trkpt>
      <trkpt lat="43.106500" lon="-5.221920">
        <ele>1143.557</ele>
        <time>2020-05-22T03:08:52Z</time>
      </trkpt>
      <trkpt lat="43.106420" lon="-5.221920">
        <ele>1144.271</ele>
        <time>2020-05-22T03:09:12Z</time>
      </trkpt>
      <trkpt lat="43.106410" lon="-5.221920">
        <ele>1144.384</ele>
        <time>2020-05-22T03:09:32Z</time>
      </trkpt>
      <trkpt lat="43.106320" lon="-5.221950">
        <ele>1144.807</ele>
        <time>2020-05-22T03:09:52Z</time>
      </trkpt>
      <trkpt lat="43.106290" lon="-5.221950">
        <ele>1145.317</ele>
        <time>2020-05-22T03:10:12Z</time>
      </trkpt>
      <trkpt lat="43.106240" lon="-5.221960">
        <ele>1145.708</ele>
        <time>2020-05-22T03:10:32Z</time>
      </trkpt>
      <trkpt lat="43.106170" lon="-5.221970">
        <ele>1146.522</ele>
        <time>2020-05-22T03:10:52Z</time>
      </trkpt>
      <trkpt lat="43.106080" lon="-5.222000">
        <ele>1146.917</ele>
        <time>2020-05-22T03:11:12Z</time>
      </trkpt>
      <trkpt lat="43.106060" lon="-5.222010">
        <ele>1146.974</ele>
        <time>2020-05-22T03:11:32Z</time>
      </trkpt>
      <trkpt lat="43.106020" lon="-5.222030">
        <ele>1146.850</ele>
        <time>2020-05-22T03:11:52Z</time>
      </trkpt>
      <trkpt lat="43.105950" lon="-5.222030">
        <ele>1147.679</ele>
        <time>2020-05-22T03:12:12Z</time>
      </trkpt>
      <trkpt lat="43.105890" lon="-5.222030">
        <ele>1148.216</ele>
        <time>2020-05-22T03:12:32Z</time>
      </trkpt>
      <trkpt lat="43.105880" lon="-5.222030">
        <ele>1148.391</ele>
        <time>2020-05-22T03:12:52Z</time>
      </trkpt>
      <trkpt lat="43.105830" lon="-5.222020">
        <ele>1149.185</ele>
        <time>2020-05-22T03:13:12Z</time>
      </trkpt>
      <trkpt lat="43.105770" lon="-5.222000">
        <ele>1149.452</ele>
        <time>2020-05-22T03:13:32Z</time>
      </trkpt>
      <trkpt lat="43.105710" lon="-5.221980">
        <ele>1149.753</ele>
        <time>2020-05-22T03:13:52Z</time>
      </trkpt>
      <trkpt lat="43.105700" lon="-5.221980">
        <ele>1149.708</ele>
        <time>2020-05-22T03:14:12Z</time>
      </trkpt>
      <trkpt lat="43.105640" lon="-5.221950">
        <ele>1150.208</ele>
        <time>2020-05-22T03:14:32Z</time>
      </trkpt>
      <trkpt lat="43.105590" lon="-5.221910">
        <ele>1150.969</ele>
        <time>2020-05-22T03:14:52Z</time>
      </trkpt>
      <trkpt lat="43.105560" lon="-5.221860">
        <ele>1151.814</ele>
        <time>2020-05-22T03:15:12Z</time>
      </trkpt>
      <trkpt lat="43.105550" lon="-5.221840">
        <ele>1152.111</ele>
        <time>2020-05-22T03:15:32Z</time>
      </trkpt>
      <trkpt lat="43.105510" lon="-5.221750">
        <ele>1153.297</ele>
        <time>2020-05-22T03:15:52Z</time>
      </trkpt>
      <trkpt lat="43.105470" lon="-5.221700">
        <ele>1153.476</ele>
        <time>2020-05-22T03:16:12Z</time>
      </trkpt>
      <trkpt lat="43.105440" lon="-5.221670">
        <ele>1153.483</ele>
        <time>2020-05-22T03:16:32Z</time>
      </trkpt>
      <trkpt lat="43.105420" lon="-5.221650">
        <ele>1153.528</ele>
        <time>2020-05-22T03:16:52Z</time>
      </trkpt>
      <trkpt lat="43.105350" lon="-5.221600">
        <ele>1153.772</ele>
        <time>2020-05-22T03:17:12Z</time>
      </trkpt>
      <trkpt lat="43.105290" lon="-5.221600">
        <ele>1152.612</ele>
        <time>2020-05-22T03:17:32Z</time>
      </trkpt>
      <trkpt lat="43.105280" lon="-5.221590">
        <ele>1152.832</ele>
        <time>2020-05-22T03:17:52Z</time>
      </trkpt>
      <trkpt lat="43.105100" lon="-5.221580">
        <ele>1152.405</ele>
        <time>2020-05-22T03:18:12Z</time>
      </trkpt>
      <trkpt lat="43.104920" lon="-5.221570">
        <ele>1153.008</ele>
        <time>2020-05-22T03:18:32Z</time>
      </trkpt>
      <trkpt lat="43.104760" lon="-5.221560">
        <ele>1154.465</ele>
        <time>2020-05-22T03:18:52Z</time>
      </trkpt>
      <trkpt lat="43.104740" lon="-5.221560">
        <ele>1154.510</ele>
        <time>2020-05-22T03:19:12Z</time>
      </trkpt>
      <trkpt lat="43.104680" lon="-5.221570">
        <ele>1155.077</ele>
        <time>2020-05-22T03:19:32Z</time>
      </trkpt>
      <trkpt lat="43.104600" lon="-5.221590">
        <ele>1155.783</ele>
        <time>2020-05-22T03:19:52Z</time>
      </trkpt>
      <trkpt lat="43.104560" lon="-5.221610">
        <ele>1155.752</ele>
        <time>2020-05-22T03:20:12Z</time>
      </trkpt>
      <trkpt lat="43.104520" lon="-5.221630">
        <ele>1155.839</ele>
        <time>2020-05-22T03:20:32Z</time>
      </trkpt>
      <trkpt lat="43.104420" lon="-5.221670">
        <ele>1156.664</ele>
        <time>2020-05-22T03:20:52Z</time>
      </trkpt>
      <trkpt lat="43.104390" lon="-5.221670">
        <ele>1157.618</ele>
        <time>2020-05-22T03:21:12Z</time>
      </trkpt>
      <trkpt lat="43.104250" lon="-5.221710">
        <ele>1160.461</ele>
        <time>2020-05-22T03:21:32Z</time>
      </trkpt>
      <trkpt lat="43.104210" lon="-5.221710">
        <ele>1161.721</ele>
        <time>2020-05-22T03:21:52Z</time>
      </trkpt>
      <trkpt lat="43.104150" lon="-5.221730">
        <ele>1162.313</ele>
        <time>2020-05-22T03:22:12Z</time>
      </trkpt>
      <trkpt lat="43.104070" lon="-5.221730">
        <ele>1162.708</ele>
        <time>2020-05-22T03:22:32Z</time>
      </trkpt>
      <trkpt lat="43.104030" lon="-5.221720">
        <ele>1163.370</ele>
        <time>2020-05-22T03:22:52Z</time>
      </trkpt>
      <trkpt lat="43.104010" lon="-5.221720">
        <ele>1163.425</ele>
        <time>2020-05-22T03:23:12Z</time>
      </trkpt>
      <trkpt lat="43.103850" lon="-5.221710">
        <ele>1164.412</ele>
        <time>2020-05-22T03:23:32Z</time>
      </trkpt>
      <trkpt lat="43.103680" lon="-5.221680">
        <ele>1166.228</ele>
        <time>2020-05-22T03:23:52Z</time>
      </trkpt>
      <trkpt lat="43.103670" lon="-5.221670">
        <ele>1166.797</ele>
        <time>2020-05-22T03:24:12Z</time>
      </trkpt>
      <trkpt lat="43.103500" lon="-5.221620">
        <ele>1166.314</ele>
        <time>2020-05-22T03:24:32Z</time>
      </trkpt>
      <trkpt lat="43.103330" lon="-5.221540">
        <ele>1166.429</ele>
        <time>2020-05-22T03:24:52Z</time>
      </trkpt>
      <trkpt lat="43.103160" lon="-5.221470">
        <ele>1167.933</ele>
        <time>2020-05-22T03:25:12Z</time>
      </trkpt>
      <trkpt lat="43.102990" lon="-5.221390">
        <ele>1170.539</ele>
        <time>2020-05-22T03:25:32Z</time>
      </trkpt>
      <trkpt lat="43.102960" lon="-5.221370">
        <ele>1171.601</ele>
        <time>2020-05-22T03:25:52Z</time>
      </trkpt>
      <trkpt lat="43.102860" lon="-5.221350">
        <ele>1172.021</ele>
        <time>2020-05-22T03:26:12Z</time>
      </trkpt>
      <trkpt lat="43.102810" lon="-5.221340">
        <ele>1172.208</ele>
        <time>2020-05-22T03:26:32Z</time>
      </trkpt>
      <trkpt lat="43.102730" lon="-5.221330">
        <ele>1172.337</ele>
        <time>2020-05-22T03:26:52Z</time>
      </trkpt>
      <trkpt lat="43.102510" lon="-5.221300">
        <ele>1173.262</ele>
        <time>2020-05-22T03:27:12Z</time>
      </trkpt>
      <trkpt lat="43.102450" lon="-5.221290">
        <ele>1173.379</ele>
        <time>2020-05-22T03:27:32Z</time>
      </trkpt>
      <trkpt lat="43.102430" lon="-5.221290">
        <ele>1173.215</ele>
        <time>2020-05-22T03:27:52Z</time>
      </trkpt>
      <trkpt lat="43.102300" lon="-5.221240">
        <ele>1174.924</ele>
        <time>2020-05-22T03:28:12Z</time>
      </trkpt>
      <trkpt lat="43.102280" lon="-5.221230">
        <ele>1175.391</ele>
        <time>2020-05-22T03:28:32Z</time>
      </trkpt>
      <trkpt lat="43.102200" lon="-5.221210">
        <ele>1175.956</ele>
        <time>2020-05-22T03:28:52Z</time>
      </trkpt>
      <trkpt lat="43.102090" lon="-5.221180">
        <ele>1176.880</ele>
        <time>2020-05-22T03:29:12Z</time>
      </trkpt>
      <trkpt lat="43.102010" lon="-5.221150">
        <ele>1177.719</ele>
        <time>2020-05-22T03:29:32Z</time>
      </trkpt>
      <trkpt lat="43.101970" lon="-5.221140">
        <ele>1177.909</ele>
        <time>2020-05-22T03:29:52Z</time>
      </trkpt>
      <trkpt lat="43.101930" lon="-5.221140">
        <ele>1178.019</ele>
        <time>2020-05-22T03:30:12Z</time>
      </trkpt>
      <trkpt lat="43.101920" lon="-5.221150">
        <ele>1177.708</ele>
        <time>2020-05-22T03:30:32Z</time>
      </trkpt>
      <trkpt lat="43.101900" lon="-5.221150">
        <ele>1178.085</ele>
        <time>2020-05-22T03:30:52Z</time>
      </trkpt>
      <trkpt lat="43.101840" lon="-5.221160">
        <ele>1178.620</ele>
        <time>2020-05-22T03:31:12Z</time>
      </trkpt>
      <trkpt lat="43.101800" lon="-5.221170">
        <ele>1178.927</ele>
        <time>2020-05-22T03:31:32Z</time>
      </trkpt>
      <trkpt lat="43.101760" lon="-5.221170">
        <ele>1179.593</ele>
        <time>2020-05-22T03:31:52Z</time>
      </trkpt>
      <trkpt lat="43.101750" lon="-5.221170">
        <ele>1179.732</ele>
        <time>2020-05-22T03:32:12Z</time>
      </trkpt>
      <trkpt lat="43.101700" lon="-5.221170">
        <ele>1180.569</ele>
        <time>2020-05-22T03:32:32Z</time>
      </trkpt>
      <trkpt lat="43.101650" lon="-5.221160">
        <ele>1181.454</ele>
        <time>2020-05-22T03:32:52Z</time>
      </trkpt>
      <trkpt lat="43.101600" lon="-5.221150">
        <ele>1181.658</ele>
        <time>2020-05-22T03:33:12Z</time>
      </trkpt>
      <trkpt lat="43.101540" lon="-5.221120">
        <ele>1182.311</ele>
        <time>2020-05-22T03:33:32Z</time>
      </trkpt>
      <trkpt lat="43.101480" lon="-5.221070">
        <ele>1183.321</ele>
        <time>2020-05-22T03:33:52Z</time>
      </trkpt>
      <trkpt lat="43.101410" lon="-5.221020">
        <ele>1184.103</ele>
        <time>2020-05-22T03:34:12Z</time>
      </trkpt>
      <trkpt lat="43.101340" lon="-5.220970">
        <ele>1185.008</ele>
        <time>2020-05-22T03:34:32Z</time>
      </trkpt>
      <trkpt lat="43.101240" lon="-5.220950">
        <ele>1185.315</ele>
        <time>2020-05-22T03:34:52Z</time>
      </trkpt>
      <trkpt lat="43.101170" lon="-5.220940">
        <ele>1185.450</ele>
        <time>2020-05-22T03:35:12Z</time>
      </trkpt>
      <trkpt lat="43.101060" lon="-5.220930">
        <ele>1185.927</ele>
        <time>2020-05-22T03:35:32Z</time>
      </trkpt>
      <trkpt lat="43.100990" lon="-5.220920">
        <ele>1186.623</ele>
        <time>2020-05-22T03:35:52Z</time>
      </trkpt>
      <trkpt lat="43.100880" lon="-5.220890">
        <ele>1188.162</ele>
        <time>2020-05-22T03:36:12Z</time>
      </trkpt>
      <trkpt lat="43.100860" lon="-5.220890">
        <ele>1188.279</ele>
        <time>2020-05-22T03:36:32Z</time>
      </trkpt>
      <trkpt lat="43.100710" lon="-5.220830">
        <ele>1190.174</ele>
        <time>2020-05-22T03:36:52Z</time>
      </trkpt>
      <trkpt lat="43.100620" lon="-5.220800">
        <ele>1191.248</ele>
        <time>2020-05-22T03:37:12Z</time>
      </trkpt>
      <trkpt lat="43.100490" lon="-5.220750">
        <ele>1190.891</ele>
        <time>2020-05-22T03:37:32Z</time>
      </trkpt>
      <trkpt lat="43.100430" lon="-5.220700">
        <ele>1190.781</ele>
        <time>2020-05-22T03:37:52Z</time>
      </trkpt>
      <trkpt lat="43.100380" lon="-5.220640">
        <ele>1191.219</ele>
        <time>2020-05-22T03:38:12Z</time>
      </trkpt>
      <trkpt lat="43.100260" lon="-5.220460">
        <ele>1193.608</ele>
        <time>2020-05-22T03:38:32Z</time>
      </trkpt>
      <trkpt lat="43.100180" lon="-5.220330">
        <ele>1196.013</ele>
        <time>2020-05-22T03:38:52Z</time>
      </trkpt>
      <trkpt lat="43.100150" lon="-5.220270">
        <ele>1197.418</ele>
        <time>2020-05-22T03:39:12Z</time>
      </trkpt>
      <trkpt lat="43.100130" lon="-5.220240">
        <ele>1197.425</ele>
        <time>2020-05-22T03:39:32Z</time>
      </trkpt>
      <trkpt lat="43.100110" lon="-5.220170">
        <ele>1197.941</ele>
        <time>2020-05-22T03:39:52Z</time>
      </trkpt>
      <trkpt lat="43.100110" lon="-5.220100">
        <ele>1198.980</ele>
        <time>2020-05-22T03:40:12Z</time>
      </trkpt>
      <trkpt lat="43.100120" lon="-5.220040">
        <ele>1200.037</ele>
        <time>2020-05-22T03:40:32Z</time>
      </trkpt>
      <trkpt lat="43.100120" lon="-5.220030">
        <ele>1200.232</ele>
        <time>2020-05-22T03:40:52Z</time>
      </trkpt>
      <trkpt lat="43.100150" lon="-5.219960">
        <ele>1201.566</ele>
        <time>2020-05-22T03:41:12Z</time>
      </trkpt>
      <trkpt lat="43.100190" lon="-5.219910">
        <ele>1202.443</ele>
        <time>2020-05-22T03:41:32Z</time>
      </trkpt>
      <trkpt lat="43.100240" lon="-5.219880">
        <ele>1203.164</ele>
        <time>2020-05-22T03:41:52Z</time>
      </trkpt>
      <trkpt lat="43.100250" lon="-5.219880">
        <ele>1203.210</ele>
        <time>2020-05-22T03:42:12Z</time>
      </trkpt>
      <trkpt lat="43.100290" lon="-5.219870">
        <ele>1204.208</ele>
        <time>2020-05-22T03:42:32Z</time>
      </trkpt>
      <trkpt lat="43.100340" lon="-5.219870">
        <ele>1206.788</ele>
        <time>2020-05-22T03:42:52Z</time>
      </trkpt>
      <trkpt lat="43.100400" lon="-5.219910">
        <ele>1209.283</ele>
        <time>2020-05-22T03:43:12Z</time>
      </trkpt>
      <trkpt lat="43.100420" lon="-5.219930">
        <ele>1209.820</ele>
        <time>2020-05-22T03:43:32Z</time>
      </trkpt>
      <trkpt lat="43.100430" lon="-5.219950">
        <ele>1209.846</ele>
        <time>2020-05-22T03:43:52Z</time>
      </trkpt>
      <trkpt lat="43.100460" lon="-5.220000">
        <ele>1209.925</ele>
        <time>2020-05-22T03:44:12Z</time>
      </trkpt>
      <trkpt lat="43.100480" lon="-5.220090">
        <ele>1209.042</ele>
        <time>2020-05-22T03:44:32Z</time>
      </trkpt>
      <trkpt lat="43.100490" lon="-5.220190">
        <ele>1207.627</ele>
        <time>2020-05-22T03:44:52Z</time>
      </trkpt>
      <trkpt lat="43.100500" lon="-5.220270">
        <ele>1206.551</ele>
        <time>2020-05-22T03:45:12Z</time>
      </trkpt>
      <trkpt lat="43.100530" lon="-5.220350">
        <ele>1204.912</ele>
        <time>2020-05-22T03:45:32Z</time>
      </trkpt>
      <trkpt lat="43.100550" lon="-5.220370">
        <ele>1204.932</ele>
        <time>2020-05-22T03:45:52Z</time>
      </trkpt>
      <trkpt lat="43.100570" lon="-5.220420">
        <ele>1203.705</ele>
        <time>2020-05-22T03:46:12Z</time>
      </trkpt>
      <trkpt lat="43.100640" lon="-5.220470">
        <ele>1203.308</ele>
        <time>2020-05-22T03:46:32Z</time>
      </trkpt>
      <trkpt lat="43.100700" lon="-5.220500">
        <ele>1203.285</ele>
        <time>2020-05-22T03:46:52Z</time>
      </trkpt>
      <trkpt lat="43.100730" lon="-5.220510">
        <ele>1203.360</ele>
        <time>2020-05-22T03:47:12Z</time>
      </trkpt>
      <trkpt lat="43.100830" lon="-5.220520">
        <ele>1204.517</ele>
        <time>2020-05-22T03:47:32Z</time>
      </trkpt>
      <trkpt lat="43.100870" lon="-5.220510">
        <ele>1204.523</ele>
        <time>2020-05-22T03:47:52Z</time>
      </trkpt>
      <trkpt lat="43.100950" lon="-5.220490">
        <ele>1204.292</ele>
        <time>2020-05-22T03:48:12Z</time>
      </trkpt>
      <trkpt lat="43.101120" lon="-5.220460">
        <ele>1202.739</ele>
        <time>2020-05-22T03:48:32Z</time>
      </trkpt>
      <trkpt lat="43.101230" lon="-5.220430">
        <ele>1203.044</ele>
        <time>2020-05-22T03:48:52Z</time>
      </trkpt>
      <trkpt lat="43.101410" lon="-5.220390">
        <ele>1203.348</ele>
        <time>2020-05-22T03:49:12Z</time>
      </trkpt>
      <trkpt lat="43.101450" lon="-5.220380">
        <ele>1203.582</ele>
        <time>2020-05-22T03:49:32Z</time>
      </trkpt>
      <trkpt lat="43.101540" lon="-5.220350">
        <ele>1204.343</ele>
        <time>2020-05-22T03:49:52Z</time>
      </trkpt>
      <trkpt lat="43.101680" lon="-5.220330">
        <ele>1204.717</ele>
        <time>2020-05-22T03:50:12Z</time>
      </trkpt>
      <trkpt lat="43.101750" lon="-5.220320">
        <ele>1206.308</ele>
        <time>2020-05-22T03:50:32Z</time>
      </trkpt>
      <trkpt lat="43.101760" lon="-5.220320">
        <ele>1206.522</ele>
        <time>2020-05-22T03:50:52Z</time>
      </trkpt>
      <trkpt lat="43.101820" lon="-5.220340">
        <ele>1207.177</ele>
        <time>2020-05-22T03:51:12Z</time>
      </trkpt>
      <trkpt lat="43.101880" lon="-5.220370">
        <ele>1207.444</ele>
        <time>2020-05-22T03:51:32Z</time>
      </trkpt>
      <trkpt lat="43.101990" lon="-5.220430">
        <ele>1208.580</ele>
        <time>2020-05-22T03:51:52Z</time>
      </trkpt>
      <trkpt lat="43.102090" lon="-5.220500">
        <ele>1209.469</ele>
        <time>2020-05-22T03:52:12Z</time>
      </trkpt>
      <trkpt lat="43.102110" lon="-5.220510">
        <ele>1209.616</ele>
        <time>2020-05-22T03:52:32Z</time>
      </trkpt>
      <trkpt lat="43.102210" lon="-5.220570">
        <ele>1210.191</ele>
        <time>2020-05-22T03:52:52Z</time>
      </trkpt>
      <trkpt lat="43.102290" lon="-5.220610">
        <ele>1210.055</ele>
        <time>2020-05-22T03:53:12Z</time>
      </trkpt>
      <trkpt lat="43.102360" lon="-5.220620">
        <ele>1210.976</ele>
        <time>2020-05-22T03:53:32Z</time>
      </trkpt>
      <trkpt lat="43.102440" lon="-5.220620">
        <ele>1212.590</ele>
        <time>2020-05-22T03:53:52Z</time>
      </trkpt>
      <trkpt lat="43.102490" lon="-5.220620">
        <ele>1213.519</ele>
        <time>2020-05-22T03:54:12Z</time>
      </trkpt>
      <trkpt lat="43.102620" lon="-5.220610">
        <ele>1215.708</ele>
        <time>2020-05-22T03:54:32Z</time>
      </trkpt>
      <trkpt lat="43.102680" lon="-5.220610">
        <ele>1216.551</ele>
        <time>2020-05-22T03:54:52Z</time>
      </trkpt>
      <trkpt lat="43.102800" lon="-5.220600">
        <ele>1218.166</ele>
        <time>2020-05-22T03:55:12Z</time>
      </trkpt>
      <trkpt lat="43.103160" lon="-5.220560">
        <ele>1220.643</ele>
        <time>2020-05-22T03:55:32Z</time>
      </trkpt>
      <trkpt lat="43.103520" lon="-5.220510">
        <ele>1223.289</ele>
        <time>2020-05-22T03:55:52Z</time>
      </trkpt>
      <trkpt lat="43.103690" lon="-5.220490">
        <ele>1222.548</ele>
        <time>2020-05-22T03:56:12Z</time>
      </trkpt>
      <trkpt lat="43.103870" lon="-5.220470">
        <ele>1221.365</ele>
        <time>2020-05-22T03:56:32Z</time>
      </trkpt>
      <trkpt lat="43.104160" lon="-5.220440">
        <ele>1224.560</ele>
        <time>2020-05-22T03:56:52Z</time>
      </trkpt>
      <trkpt lat="43.104230" lon="-5.220420">
        <ele>1225.564</ele>
        <time>2020-05-22T03:57:12Z</time>
      </trkpt>
      <trkpt lat="43.104410" lon="-5.220380">
        <ele>1227.595</ele>
        <time>2020-05-22T03:57:32Z</time>
      </trkpt>
      <trkpt lat="43.104590" lon="-5.220340">
        <ele>1228.049</ele>
        <time>2020-05-22T03:57:52Z</time>
      </trkpt>
      <trkpt lat="43.104600" lon="-5.220340">
        <ele>1227.923</ele>
        <time>2020-05-22T03:58:12Z</time>
      </trkpt>
      <trkpt lat="43.104770" lon="-5.220300">
        <ele>1229.008</ele>
        <time>2020-05-22T03:58:32Z</time>
      </trkpt>
      <trkpt lat="43.104900" lon="-5.220250">
        <ele>1231.663</ele>
        <time>2020-05-22T03:58:52Z</time>
      </trkpt>
      <trkpt lat="43.104940" lon="-5.220240">
        <ele>1232.028</ele>
        <time>2020-05-22T03:59:12Z</time>
      </trkpt>
      <trkpt lat="43.105000" lon="-5.220230">
        <ele>1232.495</ele>
        <time>2020-05-22T03:59:32Z</time>
      </trkpt>
      <trkpt lat="43.105100" lon="-5.220180">
        <ele>1230.151</ele>
        <time>2020-05-22T03:59:52Z</time>
      </trkpt>
      <trkpt lat="43.105170" lon="-5.220150">
        <ele>1228.570</ele>
        <time>2020-05-22T04:00:12Z</time>
      </trkpt>
      <trkpt lat="43.105240" lon="-5.220070">
        <ele>1228.897</ele>
        <time>2020-05-22T04:00:32Z</time>
      </trkpt>
      <trkpt lat="43.105260" lon="-5.220040">
        <ele>1229.222</ele>
        <time>2020-05-22T04:00:52Z</time>
      </trkpt>
      <trkpt lat="43.105310" lon="-5.219980">
        <ele>1229.846</ele>
        <time>2020-05-22T04:01:12Z</time>
      </trkpt>
      <trkpt lat="43.105350" lon="-5.219900">
        <ele>1231.786</ele>
        <time>2020-05-22T04:01:32Z</time>
      </trkpt>
      <trkpt lat="43.105380" lon="-5.219860">
        <ele>1232.560</ele>
        <time>2020-05-22T04:01:52Z</time>
      </trkpt>
      <trkpt lat="43.105410" lon="-5.219830">
        <ele>1232.926</ele>
        <time>2020-05-22T04:02:12Z</time>
      </trkpt>
      <trkpt lat="43.105470" lon="-5.219780">
        <ele>1233.508</ele>
        <time>2020-05-22T04:02:32Z</time>
      </trkpt>
      <trkpt lat="43.105620" lon="-5.219680">
        <ele>1236.572</ele>
        <time>2020-05-22T04:02:52Z</time>
      </trkpt>
      <trkpt lat="43.105660" lon="-5.219660">
        <ele>1237.667</ele>
        <time>2020-05-22T04:03:12Z</time>
      </trkpt>
      <trkpt lat="43.105720" lon="-5.219630">
        <ele>1239.234</ele>
        <time>2020-05-22T04:03:32Z</time>
      </trkpt>
      <trkpt lat="43.105760" lon="-5.219610">
        <ele>1240.230</ele>
        <time>2020-05-22T04:03:52Z</time>
      </trkpt>
      <trkpt lat="43.105850" lon="-5.219610">
        <ele>1240.619</ele>
        <time>2020-05-22T04:04:12Z</time>
      </trkpt>
      <trkpt lat="43.105870" lon="-5.219610">
        <ele>1240.786</ele>
        <time>2020-05-22T04:04:32Z</time>
      </trkpt>
      <trkpt lat="43.105880" lon="-5.219610">
        <ele>1240.731</ele>
        <time>2020-05-22T04:04:52Z</time>
      </trkpt>
      <trkpt lat="43.105930" lon="-5.219610">
        <ele>1241.195</ele>
        <time>2020-05-22T04:05:12Z</time>
      </trkpt>
      <trkpt lat="43.106000" lon="-5.219610">
        <ele>1241.582</ele>
        <time>2020-05-22T04:05:32Z</time>
      </trkpt>
      <trkpt lat="43.106060" lon="-5.219610">
        <ele>1241.943</ele>
        <time>2020-05-22T04:05:52Z</time>
      </trkpt>
      <trkpt lat="43.106130" lon="-5.219600">
        <ele>1242.417</ele>
        <time>2020-05-22T04:06:12Z</time>
      </trkpt>
      <trkpt lat="43.106180" lon="-5.219580">
        <ele>1242.608</ele>
        <time>2020-05-22T04:06:32Z</time>
      </trkpt>
      <trkpt lat="43.106220" lon="-5.219560">
        <ele>1243.082</ele>
        <time>2020-05-22T04:06:52Z</time>
      </trkpt>
      <trkpt lat="43.106230" lon="-5.219560">
        <ele>1242.947</ele>
        <time>2020-05-22T04:07:12Z</time>
      </trkpt>
      <trkpt lat="43.106260" lon="-5.219530">
        <ele>1243.744</ele>
        <time>2020-05-22T04:07:32Z</time>
      </trkpt>
      <trkpt lat="43.106290" lon="-5.219500">
        <ele>1244.550</ele>
        <time>2020-05-22T04:07:52Z</time>
      </trkpt>
      <trkpt lat="43.106300" lon="-5.219460">
        <ele>1245.819</ele>
        <time>2020-05-22T04:08:12Z</time>
      </trkpt>
      <trkpt lat="43.106320" lon="-5.219420">
        <ele>1246.456</ele>
        <time>2020-05-22T04:08:32Z</time>
      </trkpt>
      <trkpt lat="43.106320" lon="-5.219380">
        <ele>1246.891</ele>
        <time>2020-05-22T04:08:52Z</time>
      </trkpt>
      <trkpt lat="43.106320" lon="-5.219360">
        <ele>1246.975</ele>
        <time>2020-05-22T04:09:12Z</time>
      </trkpt>
      <trkpt lat="43.106320" lon="-5.219330">
        <ele>1247.231</ele>
        <time>2020-05-22T04:09:32Z</time>
      </trkpt>
      <trkpt lat="43.106310" lon="-5.219290">
        <ele>1247.661</ele>
        <time>2020-05-22T04:09:52Z</time>
      </trkpt>
      <trkpt lat="43.106290" lon="-5.219250">
        <ele>1248.007</ele>
        <time>2020-05-22T04:10:12Z</time>
      </trkpt>
      <trkpt lat="43.106260" lon="-5.219220">
        <ele>1248.508</ele>
        <time>2020-05-22T04:10:32Z</time>
      </trkpt>
      <trkpt lat="43.106230" lon="-5.219200">
        <ele>1248.897</ele>
        <time>2020-05-22T04:10:52Z</time>
      </trkpt>
      <trkpt lat="43.106210" lon="-5.219200">
        <ele>1249.052</ele>
        <time>2020-05-22T04:11:12Z</time>
      </trkpt>
      <trkpt lat="43.106190" lon="-5.219200">
        <ele>1249.149</ele>
        <time>2020-05-22T04:11:32Z</time>
      </trkpt>
      <trkpt lat="43.106160" lon="-5.219210">
        <ele>1249.225</ele>
        <time>2020-05-22T04:11:52Z</time>
      </trkpt>
      <trkpt lat="43.106120" lon="-5.219220">
        <ele>1249.454</ele>
        <time>2020-05-22T04:12:12Z</time>
      </trkpt>
      <trkpt lat="43.106100" lon="-5.219240">
        <ele>1249.451</ele>
        <time>2020-05-22T04:12:32Z</time>
      </trkpt>
      <trkpt lat="43.106060" lon="-5.219260">
        <ele>1250.086</ele>
        <time>2020-05-22T04:12:52Z</time>
      </trkpt>
      <trkpt lat="43.105980" lon="-5.219330">
        <ele>1249.870</ele>
        <time>2020-05-22T04:13:12Z</time>
      </trkpt>
      <trkpt lat="43.105910" lon="-5.219350">
        <ele>1250.084</ele>
        <time>2020-05-22T04:13:32Z</time>
      </trkpt>
      <trkpt lat="43.105830" lon="-5.219380">
        <ele>1249.607</ele>
        <time>2020-05-22T04:13:52Z</time>
      </trkpt>
      <trkpt lat="43.105740" lon="-5.219370">
        <ele>1250.517</ele>
        <time>2020-05-22T04:14:12Z</time>
      </trkpt>
      <trkpt lat="43.105660" lon="-5.219380">
        <ele>1250.508</ele>
        <time>2020-05-22T04:14:32Z</time>
      </trkpt>
      <trkpt lat="43.105570" lon="-5.219400">
        <ele>1250.082</ele>
        <time>2020-05-22T04:14:52Z</time>
      </trkpt>
      <trkpt lat="43.105520" lon="-5.219420">
        <ele>1249.917</ele>
        <time>2020-05-22T04:15:12Z</time>
      </trkpt>
      <trkpt lat="43.105350" lon="-5.219500">
        <ele>1249.684</ele>
        <time>2020-05-22T04:15:32Z</time>
      </trkpt>
      <trkpt lat="43.105240" lon="-5.219550">
        <ele>1249.930</ele>
        <time>2020-05-22T04:15:52Z</time>
      </trkpt>
      <trkpt lat="43.105170" lon="-5.219580">
        <ele>1250.829</ele>
        <time>2020-05-22T04:16:12Z</time>
      </trkpt>
      <trkpt lat="43.105070" lon="-5.219630">
        <ele>1252.436</ele>
        <time>2020-05-22T04:16:32Z</time>
      </trkpt>
      <trkpt lat="43.105000" lon="-5.219650">
        <ele>1254.311</ele>
        <time>2020-05-22T04:16:52Z</time>
      </trkpt>
      <trkpt lat="43.104990" lon="-5.219660">
        <ele>1254.235</ele>
        <time>2020-05-22T04:17:12Z</time>
      </trkpt>
      <trkpt lat="43.104910" lon="-5.219680">
        <ele>1255.065</ele>
        <time>2020-05-22T04:17:32Z</time>
      </trkpt>
      <trkpt lat="43.104820" lon="-5.219690">
        <ele>1256.368</ele>
        <time>2020-05-22T04:17:52Z</time>
      </trkpt>
      <trkpt lat="43.104730" lon="-5.219700">
        <ele>1257.614</ele>
        <time>2020-05-22T04:18:12Z</time>
      </trkpt>
      <trkpt lat="43.104650" lon="-5.219710">
        <ele>1258.208</ele>
        <time>2020-05-22T04:18:32Z</time>
      </trkpt>
      <trkpt lat="43.104560" lon="-5.219700">
        <ele>1259.530</ele>
        <time>2020-05-22T04:18:52Z</time>
      </trkpt>
      <trkpt lat="43.104470" lon="-5.219690">
        <ele>1260.835</ele>
        <time>2020-05-22T04:19:12Z</time>
      </trkpt>
      <trkpt lat="43.104390" lon="-5.219680">
        <ele>1261.022</ele>
        <time>2020-05-22T04:19:32Z</time>
      </trkpt>
      <trkpt lat="43.104310" lon="-5.219660">
        <ele>1261.058</ele>
        <time>2020-05-22T04:19:52Z</time>
      </trkpt>
      <trkpt lat="43.104290" lon="-5.219660">
        <ele>1260.967</ele>
        <time>2020-05-22T04:20:12Z</time>
      </trkpt>
      <trkpt lat="43.104220" lon="-5.219640">
        <ele>1261.094</ele>
        <time>2020-05-22T04:20:32Z</time>
      </trkpt>
      <trkpt lat="43.104130" lon="-5.219600">
        <ele>1261.639</ele>
        <time>2020-05-22T04:20:52Z</time>
      </trkpt>
      <trkpt lat="43.103960" lon="-5.219480">
        <ele>1263.663</ele>
        <time>2020-05-22T04:21:12Z</time>
      </trkpt>
      <trkpt lat="43.103790" lon="-5.219370">
        <ele>1266.032</ele>
        <time>2020-05-22T04:21:32Z</time>
      </trkpt>
      <trkpt lat="43.103630" lon="-5.219270">
        <ele>1267.692</ele>
        <time>2020-05-22T04:21:52Z</time>
      </trkpt>
      <trkpt lat="43.103470" lon="-5.219160">
        <ele>1267.711</ele>
        <time>2020-05-22T04:22:12Z</time>
      </trkpt>
      <trkpt lat="43.103350" lon="-5.219070">
        <ele>1268.108</ele>
        <time>2020-05-22T04:22:32Z</time>
      </trkpt>
      <trkpt lat="43.103310" lon="-5.219050">
        <ele>1268.417</ele>
        <time>2020-05-22T04:22:52Z</time>
      </trkpt>
      <trkpt lat="43.103300" lon="-5.219050">
        <ele>1268.412</ele>
        <time>2020-05-22T04:23:12Z</time>
      </trkpt>
      <trkpt lat="43.103250" lon="-5.219020">
        <ele>1269.439</ele>
        <time>2020-05-22T04:23:32Z</time>
      </trkpt>
      <trkpt lat="43.103180" lon="-5.219010">
        <ele>1269.875</ele>
        <time>2020-05-22T04:23:52Z</time>
      </trkpt>
      <trkpt lat="43.103130" lon="-5.219010">
        <ele>1269.834</ele>
        <time>2020-05-22T04:24:12Z</time>
      </trkpt>
      <trkpt lat="43.102980" lon="-5.219020">
        <ele>1270.011</ele>
        <time>2020-05-22T04:24:32Z</time>
      </trkpt>
      <trkpt lat="43.102950" lon="-5.219020">
        <ele>1270.156</ele>
        <time>2020-05-22T04:24:52Z</time>
      </trkpt>
      <trkpt lat="43.102910" lon="-5.219020">
        <ele>1270.210</ele>
        <time>2020-05-22T04:25:12Z</time>
      </trkpt>
      <trkpt lat="43.102850" lon="-5.219020">
        <ele>1270.439</ele>
        <time>2020-05-22T04:25:32Z</time>
      </trkpt>
      <trkpt lat="43.102800" lon="-5.219010">
        <ele>1270.801</ele>
        <time>2020-05-22T04:25:52Z</time>
      </trkpt>
      <trkpt lat="43.102770" lon="-5.219000">
        <ele>1271.021</ele>
        <time>2020-05-22T04:26:12Z</time>
      </trkpt>
      <trkpt lat="43.102730" lon="-5.218980">
        <ele>1271.208</ele>
        <time>2020-05-22T04:26:32Z</time>
      </trkpt>
      <trkpt lat="43.102660" lon="-5.218950">
        <ele>1271.747</ele>
        <time>2020-05-22T04:26:52Z</time>
      </trkpt>
      <trkpt lat="43.102610" lon="-5.218900">
        <ele>1272.822</ele>
        <time>2020-05-22T04:27:12Z</time>
      </trkpt>
      <trkpt lat="43.102600" lon="-5.218890">
        <ele>1273.049</ele>
        <time>2020-05-22T04:27:32Z</time>
      </trkpt>
      <trkpt lat="43.102570" lon="-5.218830">
        <ele>1273.795</ele>
        <time>2020-05-22T04:27:52Z</time>
      </trkpt>
      <trkpt lat="43.102550" lon="-5.218780">
        <ele>1274.354</ele>
        <time>2020-05-22T04:28:12Z</time>
      </trkpt>
      <trkpt lat="43.102550" lon="-5.218740">
        <ele>1274.871</ele>
        <time>2020-05-22T04:28:32Z</time>
      </trkpt>
      <trkpt lat="43.102550" lon="-5.218700">
        <ele>1275.376</ele>
        <time>2020-05-22T04:28:52Z</time>
      </trkpt>
      <trkpt lat="43.102560" lon="-5.218680">
        <ele>1275.690</ele>
        <time>2020-05-22T04:29:12Z</time>
      </trkpt>
      <trkpt lat="43.102560" lon="-5.218670">
        <ele>1275.758</ele>
        <time>2020-05-22T04:29:32Z</time>
      </trkpt>
      <trkpt lat="43.102580" lon="-5.218620">
        <ele>1276.552</ele>
        <time>2020-05-22T04:29:52Z</time>
      </trkpt>
      <trkpt lat="43.102610" lon="-5.218580">
        <ele>1277.317</ele>
        <time>2020-05-22T04:30:12Z</time>
      </trkpt>
      <trkpt lat="43.102640" lon="-5.218550">
        <ele>1278.008</ele>
        <time>2020-05-22T04:30:32Z</time>
      </trkpt>
      <trkpt lat="43.102680" lon="-5.218540">
        <ele>1278.679</ele>
        <time>2020-05-22T04:30:52Z</time>
      </trkpt>
      <trkpt lat="43.102690" lon="-5.218530">
        <ele>1278.854</ele>
        <time>2020-05-22T04:31:12Z</time>
      </trkpt>
      <trkpt lat="43.102720" lon="-5.218530">
        <ele>1279.211</ele>
        <time>2020-05-22T04:31:32Z</time>
      </trkpt>
      <trkpt lat="43.102770" lon="-5.218530">
        <ele>1279.787</ele>
        <time>2020-05-22T04:31:52Z</time>
      </trkpt>
      <trkpt lat="43.102810" lon="-5.218550">
        <ele>1279.746</ele>
        <time>2020-05-22T04:32:12Z</time>
      </trkpt>
      <trkpt lat="43.102860" lon="-5.218580">
        <ele>1279.413</ele>
        <time>2020-05-22T04:32:32Z</time>
      </trkpt>
      <trkpt lat="43.102900" lon="-5.218590">
        <ele>1279.538</ele>
        <time>2020-05-22T04:32:52Z</time>
      </trkpt>
      <trkpt lat="43.103010" lon="-5.218620">
        <ele>1279.592</ele>
        <time>2020-05-22T04:33:12Z</time>
      </trkpt>
      <trkpt lat="43.103060" lon="-5.218630">
        <ele>1279.644</ele>
        <time>2020-05-22T04:33:32Z</time>
      </trkpt>
      <trkpt lat="43.103220" lon="-5.218650">
        <ele>1280.505</ele>
        <time>2020-05-22T04:33:52Z</time>
      </trkpt>
      <trkpt lat="43.103300" lon="-5.218670">
        <ele>1280.615</ele>
        <time>2020-05-22T04:34:12Z</time>
      </trkpt>
      <trkpt lat="43.103390" lon="-5.218700">
        <ele>1281.208</ele>
        <time>2020-05-22T04:34:32Z</time>
      </trkpt>
      <trkpt lat="43.103430" lon="-5.218710">
        <ele>1281.878</ele>
        <time>2020-05-22T04:34:52Z</time>
      </trkpt>
      <trkpt lat="43.103560" lon="-5.218780">
        <ele>1282.833</ele>
        <time>2020-05-22T04:35:12Z</time>
      </trkpt>
      <trkpt lat="43.103730" lon="-5.218860">
        <ele>1284.130</ele>
        <time>2020-05-22T04:35:32Z</time>
      </trkpt>
      <trkpt lat="43.103780" lon="-5.218880">
        <ele>1284.326</ele>
        <time>2020-05-22T04:35:52Z</time>
      </trkpt>
      <trkpt lat="43.103890" lon="-5.218920">
        <ele>1284.795</ele>
        <time>2020-05-22T04:36:12Z</time>
      </trkpt>
      <trkpt lat="43.104080" lon="-5.218960">
        <ele>1284.592</ele>
        <time>2020-05-22T04:36:32Z</time>
      </trkpt>
      <trkpt lat="43.104220" lon="-5.218970">
        <ele>1285.037</ele>
        <time>2020-05-22T04:36:52Z</time>
      </trkpt>
      <trkpt lat="43.104270" lon="-5.218970">
        <ele>1285.281</ele>
        <time>2020-05-22T04:37:12Z</time>
      </trkpt>
      <trkpt lat="43.104310" lon="-5.218960">
        <ele>1285.793</ele>
        <time>2020-05-22T04:37:32Z</time>
      </trkpt>
      <trkpt lat="43.104390" lon="-5.218940">
        <ele>1286.865</ele>
        <time>2020-05-22T04:37:52Z</time>
      </trkpt>
      <trkpt lat="43.104440" lon="-5.218910">
        <ele>1288.121</ele>
        <time>2020-05-22T04:38:12Z</time>
      </trkpt>
      <trkpt lat="43.104930" lon="-5.218610">
        <ele>1292.808</ele>
        <time>2020-05-22T04:38:32Z</time>
      </trkpt>
      <trkpt lat="43.105100" lon="-5.218510">
        <ele>1292.893</ele>
        <time>2020-05-22T04:38:52Z</time>
      </trkpt>
      <trkpt lat="43.105150" lon="-5.218480">
        <ele>1292.828</ele>
        <time>2020-05-22T04:39:12Z</time>
      </trkpt>
      <trkpt lat="43.105240" lon="-5.218410">
        <ele>1293.845</ele>
        <time>2020-05-22T04:39:32Z</time>
      </trkpt>
      <trkpt lat="43.105300" lon="-5.218350">
        <ele>1294.671</ele>
        <time>2020-05-22T04:39:52Z</time>
      </trkpt>
      <trkpt lat="43.105330" lon="-5.218300">
        <ele>1294.530</ele>
        <time>2020-05-22T04:40:12Z</time>
      </trkpt>
      <trkpt lat="43.105360" lon="-5.218250">
        <ele>1294.257</ele>
        <time>2020-05-22T04:40:32Z</time>
      </trkpt>
      <trkpt lat="43.105370" lon="-5.218210">
        <ele>1294.592</ele>
        <time>2020-05-22T04:40:52Z</time>
      </trkpt>
      <trkpt lat="43.105380" lon="-5.218210">
        <ele>1294.176</ele>
        <time>2020-05-22T04:41:12Z</time>
      </trkpt>
      <trkpt lat="43.105380" lon="-5.218170">
        <ele>1294.783</ele>
        <time>2020-05-22T04:41:32Z</time>
      </trkpt>
      <trkpt lat="43.105380" lon="-5.218130">
        <ele>1295.325</ele>
        <time>2020-05-22T04:41:52Z</time>
      </trkpt>
      <trkpt lat="43.105370" lon="-5.218090">
        <ele>1296.217</ele>
        <time>2020-05-22T04:42:12Z</time>
      </trkpt>
      <trkpt lat="43.105360" lon="-5.218050">
        <ele>1297.008</ele>
        <time>2020-05-22T04:42:32Z</time>
      </trkpt>
      <trkpt lat="43.105350" lon="-5.218030">
        <ele>1297.372</ele>
        <time>2020-05-22T04:42:52Z</time>
      </trkpt>
      <trkpt lat="43.105330" lon="-5.218000">
        <ele>1298.047</ele>
        <time>2020-05-22T04:43:12Z</time>
      </trkpt>
      <trkpt lat="43.105320" lon="-5.217990">
        <ele>1298.334</ele>
        <time>2020-05-22T04:43:32Z</time>
      </trkpt>
      <trkpt lat="43.105310" lon="-5.217990">
        <ele>1298.640</ele>
        <time>2020-05-22T04:43:52Z</time>
      </trkpt>
      <trkpt lat="43.105290" lon="-5.217990">
        <ele>1299.159</ele>
        <time>2020-05-22T04:44:12Z</time>
      </trkpt>
      <trkpt lat="43.105280" lon="-5.217980">
        <ele>1299.576</ele>
        <time>2020-05-22T04:44:32Z</time>
      </trkpt>
      <trkpt lat="43.105250" lon="-5.217990">
        <ele>1300.051</ele>
        <time>2020-05-22T04:44:52Z</time>
      </trkpt>
      <trkpt lat="43.105230" lon="-5.218000">
        <ele>1300.245</ele>
        <time>2020-05-22T04:45:12Z</time>
      </trkpt>
      <trkpt lat="43.105200" lon="-5.218020">
        <ele>1300.521</ele>
        <time>2020-05-22T04:45:32Z</time>
      </trkpt>
      <trkpt lat="43.105170" lon="-5.218040">
        <ele>1300.841</ele>
        <time>2020-05-22T04:45:52Z</time>
      </trkpt>
      <trkpt lat="43.105160" lon="-5.218060">
        <ele>1300.605</ele>
        <time>2020-05-22T04:46:12Z</time>
      </trkpt>
      <trkpt lat="43.105110" lon="-5.218120">
        <ele>1300.608</ele>
        <time>2020-05-22T04:46:32Z</time>
      </trkpt>
      <trkpt lat="43.105020" lon="-5.218230">
        <ele>1300.286</ele>
        <time>2020-05-22T04:46:52Z</time>
      </trkpt>
      <trkpt lat="43.104940" lon="-5.218320">
        <ele>1300.571</ele>
        <time>2020-05-22T04:47:12Z</time>
      </trkpt>
      <trkpt lat="43.104880" lon="-5.218370">
        <ele>1300.568</ele>
        <time>2020-05-22T04:47:32Z</time>
      </trkpt>
      <trkpt lat="43.104790" lon="-5.218420">
        <ele>1300.644</ele>
        <time>2020-05-22T04:47:52Z</time>
      </trkpt>
      <trkpt lat="43.104720" lon="-5.218450">
        <ele>1300.883</ele>
        <time>2020-05-22T04:48:12Z</time>
      </trkpt>
      <trkpt lat="43.104650" lon="-5.218460">
        <ele>1301.360</ele>
        <time>2020-05-22T04:48:32Z</time>
      </trkpt>
      <trkpt lat="43.104560" lon="-5.218470">
        <ele>1302.175</ele>
        <time>2020-05-22T04:48:52Z</time>
      </trkpt>
      <trkpt lat="43.104470" lon="-5.218470">
        <ele>1303.369</ele>
        <time>2020-05-22T04:49:12Z</time>
      </trkpt>
      <trkpt lat="43.104380" lon="-5.218450">
        <ele>1304.298</ele>
        <time>2020-05-22T04:49:32Z</time>
      </trkpt>
      <trkpt lat="43.104350" lon="-5.218440">
        <ele>1304.515</ele>
        <time>2020-05-22T04:49:52Z</time>
      </trkpt>
      <trkpt lat="43.104180" lon="-5.218360">
        <ele>1307.126</ele>
        <time>2020-05-22T04:50:12Z</time>
      </trkpt>
      <trkpt lat="43.104010" lon="-5.218290">
        <ele>1308.308</ele>
        <time>2020-05-22T04:50:32Z</time>
      </trkpt>
      <trkpt lat="43.103990" lon="-5.218280">
        <ele>1308.583</ele>
        <time>2020-05-22T04:50:52Z</time>
      </trkpt>
      <trkpt lat="43.103920" lon="-5.218250">
        <ele>1309.058</ele>
        <time>2020-05-22T04:51:12Z</time>
      </trkpt>
      <trkpt lat="43.103840" lon="-5.218220">
        <ele>1309.095</ele>
        <time>2020-05-22T04:51:32Z</time>
      </trkpt>
      <trkpt lat="43.103830" lon="-5.218220">
        <ele>1308.961</ele>
        <time>2020-05-22T04:51:52Z</time>
      </trkpt>
      <trkpt lat="43.103770" lon="-5.218200">
        <ele>1308.840</ele>
        <time>2020-05-22T04:52:12Z</time>
      </trkpt>
      <trkpt lat="43.103690" lon="-5.218190">
        <ele>1308.287</ele>
        <time>2020-05-22T04:52:32Z</time>
      </trkpt>
      <trkpt lat="43.103660" lon="-5.218190">
        <ele>1307.832</ele>
        <time>2020-05-22T04:52:52Z</time>
      </trkpt>
      <trkpt lat="43.103590" lon="-5.218180">
        <ele>1307.326</ele>
        <time>2020-05-22T04:53:12Z</time>
      </trkpt>
      <trkpt lat="43.103550" lon="-5.218170">
        <ele>1307.227</ele>
        <time>2020-05-22T04:53:32Z</time>
      </trkpt>
      <trkpt lat="43.103510" lon="-5.218160">
        <ele>1307.168</ele>
        <time>2020-05-22T04:53:52Z</time>
      </trkpt>
      <trkpt lat="43.103480" lon="-5.218140">
        <ele>1307.614</ele>
        <time>2020-05-22T04:54:12Z</time>
      </trkpt>
      <trkpt lat="43.103470" lon="-5.218130">
        <ele>1308.008</ele>
        <time>2020-05-22T04:54:32Z</time>
      </trkpt>
      <trkpt lat="43.103450" lon="-5.218110">
        <ele>1308.796</ele>
        <time>2020-05-22T04:54:52Z</time>
      </trkpt>
      <trkpt lat="43.103440" lon="-5.218080">
        <ele>1310.071</ele>
        <time>2020-05-22T04:55:12Z</time>
      </trkpt>
      <trkpt lat="43.103430" lon="-5.218040">
        <ele>1311.438</ele>
        <time>2020-05-22T04:55:32Z</time>
      </trkpt>
      <trkpt lat="43.103430" lon="-5.217990">
        <ele>1312.564</ele>
        <time>2020-05-22T04:55:52Z</time>
      </trkpt>
      <trkpt lat="43.103440" lon="-5.217950">
        <ele>1313.423</ele>
        <time>2020-05-22T04:56:12Z</time>
      </trkpt>
      <trkpt lat="43.103450" lon="-5.217930">
        <ele>1313.930</ele>
        <time>2020-05-22T04:56:32Z</time>
      </trkpt>
      <trkpt lat="43.103450" lon="-5.217910">
        <ele>1314.385</ele>
        <time>2020-05-22T04:56:52Z</time>
      </trkpt>
      <trkpt lat="43.103470" lon="-5.217880">
        <ele>1315.079</ele>
        <time>2020-05-22T04:57:12Z</time>
      </trkpt>
      <trkpt lat="43.103490" lon="-5.217860">
        <ele>1315.464</ele>
        <time>2020-05-22T04:57:32Z</time>
      </trkpt>
      <trkpt lat="43.103510" lon="-5.217850">
        <ele>1315.706</ele>
        <time>2020-05-22T04:57:52Z</time>
      </trkpt>
      <trkpt lat="43.103550" lon="-5.217840">
        <ele>1316.016</ele>
        <time>2020-05-22T04:58:12Z</time>
      </trkpt>
      <trkpt lat="43.103590" lon="-5.217840">
        <ele>1316.108</ele>
        <time>2020-05-22T04:58:32Z</time>
      </trkpt>
      <trkpt lat="43.103600" lon="-5.217840">
        <ele>1316.110</ele>
        <time>2020-05-22T04:58:52Z</time>
      </trkpt>
      <trkpt lat="43.103630" lon="-5.217840">
        <ele>1316.595</ele>
        <time>2020-05-22T04:59:12Z</time>
      </trkpt>
      <trkpt lat="43.103660" lon="-5.217860">
        <ele>1316.832</ele>
        <time>2020-05-22T04:59:32Z</time>
      </trkpt>
      <trkpt lat="43.103680" lon="-5.217870">
        <ele>1317.018</ele>
        <time>2020-05-22T04:59:52Z</time>
      </trkpt>
      <trkpt lat="43.103770" lon="-5.217930">
        <ele>1317.267</ele>
        <time>2020-05-22T05:00:12Z</time>
      </trkpt>
      <trkpt lat="43.103830" lon="-5.217970">
        <ele>1317.084</ele>
        <time>2020-05-22T05:00:32Z</time>
      </trkpt>
      <trkpt lat="43.103930" lon="-5.218030">
        <ele>1316.359</ele>
        <time>2020-05-22T05:00:52Z</time>
      </trkpt>
      <trkpt lat="43.103980" lon="-5.218060">
        <ele>1315.883</ele>
        <time>2020-05-22T05:01:12Z</time>
      </trkpt>
      <trkpt lat="43.104030" lon="-5.218070">
        <ele>1316.015</ele>
        <time>2020-05-22T05:01:32Z</time>
      </trkpt>
      <trkpt lat="43.104100" lon="-5.218090">
        <ele>1316.165</ele>
        <time>2020-05-22T05:01:52Z</time>
      </trkpt>
      <trkpt lat="43.104180" lon="-5.218090">
        <ele>1316.711</ele>
        <time>2020-05-22T05:02:12Z</time>
      </trkpt>
      <trkpt lat="43.104230" lon="-5.218090">
        <ele>1316.608</ele>
        <time>2020-05-22T05:02:32Z</time>
      </trkpt>
      <trkpt lat="43.104260" lon="-5.218080">
        <ele>1316.815</ele>
        <time>2020-05-22T05:02:52Z</time>
      </trkpt>
      <trkpt lat="43.104280" lon="-5.218070">
        <ele>1317.110</ele>
        <time>2020-05-22T05:03:12Z</time>
      </trkpt>
      <trkpt lat="43.104310" lon="-5.218060">
        <ele>1317.367</ele>
        <time>2020-05-22T05:03:32Z</time>
      </trkpt>
      <trkpt lat="43.104350" lon="-5.218030">
        <ele>1318.083</ele>
        <time>2020-05-22T05:03:52Z</time>
      </trkpt>
      <trkpt lat="43.104450" lon="-5.217970">
        <ele>1319.092</ele>
        <time>2020-05-22T05:04:12Z</time>
      </trkpt>
      <trkpt lat="43.104610" lon="-5.217870">
        <ele>1318.939</ele>
        <time>2020-05-22T05:04:32Z</time>
      </trkpt>
      <trkpt lat="43.104760" lon="-5.217790">
        <ele>1318.124</ele>
        <time>2020-05-22T05:04:52Z</time>
      </trkpt>
      <trkpt lat="43.104800" lon="-5.217740">
        <ele>1317.568</ele>
        <time>2020-05-22T05:05:12Z</time>
      </trkpt>
      <trkpt lat="43.104840" lon="-5.217680">
        <ele>1317.026</ele>
        <time>2020-05-22T05:05:32Z</time>
      </trkpt>
      <trkpt lat="43.104860" lon="-5.217610">
        <ele>1317.647</ele>
        <time>2020-05-22T05:05:52Z</time>
      </trkpt>
      <trkpt lat="43.104870" lon="-5.217570">
        <ele>1317.911</ele>
        <time>2020-05-22T05:06:12Z</time>
      </trkpt>
      <trkpt lat="43.104870" lon="-5.217560">
        <ele>1318.108</ele>
        <time>2020-05-22T05:06:32Z</time>
      </trkpt>
      <trkpt lat="43.104860" lon="-5.217500">
        <ele>1319.556</ele>
        <time>2020-05-22T05:06:52Z</time>
      </trkpt>
      <trkpt lat="43.104860" lon="-5.217460">
        <ele>1319.631</ele>
        <time>2020-05-22T05:07:12Z</time>
      </trkpt>
      <trkpt lat="43.104840" lon="-5.217440">
        <ele>1320.348</ele>
        <time>2020-05-22T05:07:32Z</time>
      </trkpt>
      <trkpt lat="43.104830" lon="-5.217410">
        <ele>1320.884</ele>
        <time>2020-05-22T05:07:52Z</time>
      </trkpt>
      <trkpt lat="43.104800" lon="-5.217400">
        <ele>1321.993</ele>
        <time>2020-05-22T05:08:12Z</time>
      </trkpt>
      <trkpt lat="43.104780" lon="-5.217390">
        <ele>1322.720</ele>
        <time>2020-05-22T05:08:32Z</time>
      </trkpt>
      <trkpt lat="43.104750" lon="-5.217390">
        <ele>1323.885</ele>
        <time>2020-05-22T05:08:52Z</time>
      </trkpt>
      <trkpt lat="43.104700" lon="-5.217410">
        <ele>1325.369</ele>
        <time>2020-05-22T05:09:12Z</time>
      </trkpt>
      <trkpt lat="43.104670" lon="-5.217420">
        <ele>1326.173</ele>
        <time>2020-05-22T05:09:32Z</time>
      </trkpt>
      <trkpt lat="43.104640" lon="-5.217450">
        <ele>1326.485</ele>
        <time>2020-05-22T05:09:52Z</time>
      </trkpt>
      <trkpt lat="43.104620" lon="-5.217490">
        <ele>1326.113</ele>
        <time>2020-05-22T05:10:12Z</time>
      </trkpt>
      <trkpt lat="43.104600" lon="-5.217520">
        <ele>1325.908</ele>
        <time>2020-05-22T05:10:32Z</time>
      </trkpt>
      <trkpt lat="43.104570" lon="-5.217560">
        <ele>1325.881</ele>
        <time>2020-05-22T05:10:52Z</time>
      </trkpt>
      <trkpt lat="43.104540" lon="-5.217620">
        <ele>1325.396</ele>
        <time>2020-05-22T05:11:12Z</time>
      </trkpt>
      <trkpt lat="43.104500" lon="-5.217680">
        <ele>1324.983</ele>
        <time>2020-05-22T05:11:32Z</time>
      </trkpt>
      <trkpt lat="43.104490" lon="-5.217680">
        <ele>1325.059</ele>
        <time>2020-05-22T05:11:52Z</time>
      </trkpt>
      <trkpt lat="43.104460" lon="-5.217710">
        <ele>1325.068</ele>
        <time>2020-05-22T05:12:12Z</time>
      </trkpt>
      <trkpt lat="43.104400" lon="-5.217740">
        <ele>1325.255</ele>
        <time>2020-05-22T05:12:32Z</time>
      </trkpt>
      <trkpt lat="43.104370" lon="-5.217750">
        <ele>1325.480</ele>
        <time>2020-05-22T05:12:52Z</time>
      </trkpt>
      <trkpt lat="43.104330" lon="-5.217760">
        <ele>1325.664</ele>
        <time>2020-05-22T05:13:12Z</time>
      </trkpt>
      <trkpt lat="43.104310" lon="-5.217760">
        <ele>1325.854</ele>
        <time>2020-05-22T05:13:32Z</time>
      </trkpt>
      <trkpt lat="43.104280" lon="-5.217770">
        <ele>1325.956</ele>
        <time>2020-05-22T05:13:52Z</time>
      </trkpt>
      <trkpt lat="43.104260" lon="-5.217770">
        <ele>1326.211</ele>
        <time>2020-05-22T05:14:12Z</time>
      </trkpt>
      <trkpt lat="43.104220" lon="-5.217770">
        <ele>1326.608</ele>
        <time>2020-05-22T05:14:32Z</time>
      </trkpt>
      <trkpt lat="43.104200" lon="-5.217770">
        <ele>1326.819</ele>
        <time>2020-05-22T05:14:52Z</time>
      </trkpt>
      <trkpt lat="43.103980" lon="-5.217680">
        <ele>1328.224</ele>
        <time>2020-05-22T05:15:12Z</time>
      </trkpt>
      <trkpt lat="43.103810" lon="-5.217610">
        <ele>1328.941</ele>
        <time>2020-05-22T05:15:32Z</time>
      </trkpt>
      <trkpt lat="43.103640" lon="-5.217540">
        <ele>1330.147</ele>
        <time>2020-05-22T05:15:52Z</time>
      </trkpt>
      <trkpt lat="43.103460" lon="-5.217470">
        <ele>1332.596</ele>
        <time>2020-05-22T05:16:12Z</time>
      </trkpt>
      <trkpt lat="43.103350" lon="-5.217420">
        <ele>1333.443</ele>
        <time>2020-05-22T05:16:32Z</time>
      </trkpt>
      <trkpt lat="43.103280" lon="-5.217370">
        <ele>1334.238</ele>
        <time>2020-05-22T05:16:52Z</time>
      </trkpt>
      <trkpt lat="43.103230" lon="-5.217320">
        <ele>1335.162</ele>
        <time>2020-05-22T05:17:12Z</time>
      </trkpt>
      <trkpt lat="43.103190" lon="-5.217280">
        <ele>1335.819</ele>
        <time>2020-05-22T05:17:32Z</time>
      </trkpt>
      <trkpt lat="43.103160" lon="-5.217230">
        <ele>1336.909</ele>
        <time>2020-05-22T05:17:52Z</time>
      </trkpt>
      <trkpt lat="43.103160" lon="-5.217220">
        <ele>1337.219</ele>
        <time>2020-05-22T05:18:12Z</time>
      </trkpt>
      <trkpt lat="43.103140" lon="-5.217170">
        <ele>1338.108</ele>
        <time>2020-05-22T05:18:32Z</time>
      </trkpt>
      <trkpt lat="43.103120" lon="-5.217100">
        <ele>1339.365</ele>
        <time>2020-05-22T05:18:52Z</time>
      </trkpt>
      <trkpt lat="43.103100" lon="-5.216990">
        <ele>1340.910</ele>
        <time>2020-05-22T05:19:12Z</time>
      </trkpt>
      <trkpt lat="43.103100" lon="-5.216970">
        <ele>1341.337</ele>
        <time>2020-05-22T05:19:32Z</time>
      </trkpt>
      <trkpt lat="43.103090" lon="-5.216930">
        <ele>1341.863</ele>
        <time>2020-05-22T05:19:52Z</time>
      </trkpt>
      <trkpt lat="43.103080" lon="-5.216890">
        <ele>1342.662</ele>
        <time>2020-05-22T05:20:12Z</time>
      </trkpt>
      <trkpt lat="43.103060" lon="-5.216840">
        <ele>1343.289</ele>
        <time>2020-05-22T05:20:32Z</time>
      </trkpt>
      <trkpt lat="43.103040" lon="-5.216810">
        <ele>1343.114</ele>
        <time>2020-05-22T05:20:52Z</time>
      </trkpt>
      <trkpt lat="43.103020" lon="-5.216780">
        <ele>1343.088</ele>
        <time>2020-05-22T05:21:12Z</time>
      </trkpt>
      <trkpt lat="43.102950" lon="-5.216700">
        <ele>1342.047</ele>
        <time>2020-05-22T05:21:32Z</time>
      </trkpt>
      <trkpt lat="43.102860" lon="-5.216610">
        <ele>1342.829</ele>
        <time>2020-05-22T05:21:52Z</time>
      </trkpt>
      <trkpt lat="43.102750" lon="-5.216540">
        <ele>1343.021</ele>
        <time>2020-05-22T05:22:12Z</time>
      </trkpt>
      <trkpt lat="43.102710" lon="-5.216530">
        <ele>1342.008</ele>
        <time>2020-05-22T05:22:32Z</time>
      </trkpt>
      <trkpt lat="43.102550" lon="-5.216440">
        <ele>1341.698</ele>
        <time>2020-05-22T05:22:52Z</time>
      </trkpt>
      <trkpt lat="43.102480" lon="-5.216410">
        <ele>1341.123</ele>
        <time>2020-05-22T05:23:12Z</time>
      </trkpt>
      <trkpt lat="43.102370" lon="-5.216380">
        <ele>1340.520</ele>
        <time>2020-05-22T05:23:32Z</time>
      </trkpt>
      <trkpt lat="43.102240" lon="-5.216350">
        <ele>1340.176</ele>
        <time>2020-05-22T05:23:52Z</time>
      </trkpt>
      <trkpt lat="43.102200" lon="-5.216340">
        <ele>1340.715</ele>
        <time>2020-05-22T05:24:12Z</time>
      </trkpt>
      <trkpt lat="43.102100" lon="-5.216320">
        <ele>1342.732</ele>
        <time>2020-05-22T05:24:32Z</time>
      </trkpt>
      <trkpt lat="43.102020" lon="-5.216310">
        <ele>1343.577</ele>
        <time>2020-05-22T05:24:52Z</time>
      </trkpt>
      <trkpt lat="43.101970" lon="-5.216310">
        <ele>1343.581</ele>
        <time>2020-05-22T05:25:12Z</time>
      </trkpt>
      <trkpt lat="43.101870" lon="-5.216310">
        <ele>1344.749</ele>
        <time>2020-05-22T05:25:32Z</time>
      </trkpt>
      <trkpt lat="43.101840" lon="-5.216310">
        <ele>1345.202</ele>
        <time>2020-05-22T05:25:52Z</time>
      </trkpt>
      <trkpt lat="43.101660" lon="-5.216310">
        <ele>1348.022</ele>
        <time>2020-05-22T05:26:12Z</time>
      </trkpt>
      <trkpt lat="43.101410" lon="-5.216320">
        <ele>1348.408</ele>
        <time>2020-05-22T05:26:32Z</time>
      </trkpt>
      <trkpt lat="43.101300" lon="-5.216320">
        <ele>1349.688</ele>
        <time>2020-05-22T05:26:52Z</time>
      </trkpt>
      <trkpt lat="43.101290" lon="-5.216320">
        <ele>1349.783</ele>
        <time>2020-05-22T05:27:12Z</time>
      </trkpt>
      <trkpt lat="43.101220" lon="-5.216330">
        <ele>1350.020</ele>
        <time>2020-05-22T05:27:32Z</time>
      </trkpt>
      <trkpt lat="43.101140" lon="-5.216350">
        <ele>1349.966</ele>
        <time>2020-05-22T05:27:52Z</time>
      </trkpt>
      <trkpt lat="43.101060" lon="-5.216380">
        <ele>1350.555</ele>
        <time>2020-05-22T05:28:12Z</time>
      </trkpt>
      <trkpt lat="43.101020" lon="-5.216400">
        <ele>1351.392</ele>
        <time>2020-05-22T05:28:32Z</time>
      </trkpt>
      <trkpt lat="43.100980" lon="-5.216420">
        <ele>1352.377</ele>
        <time>2020-05-22T05:28:52Z</time>
      </trkpt>
      <trkpt lat="43.100950" lon="-5.216430">
        <ele>1353.291</ele>
        <time>2020-05-22T05:29:12Z</time>
      </trkpt>
      <trkpt lat="43.100900" lon="-5.216460">
        <ele>1354.458</ele>
        <time>2020-05-22T05:29:32Z</time>
      </trkpt>
      <trkpt lat="43.100860" lon="-5.216470">
        <ele>1355.852</ele>
        <time>2020-05-22T05:29:52Z</time>
      </trkpt>
      <trkpt lat="43.100830" lon="-5.216480">
        <ele>1356.717</ele>
        <time>2020-05-22T05:30:12Z</time>
      </trkpt>
      <trkpt lat="43.100790" lon="-5.216480">
        <ele>1356.708</ele>
        <time>2020-05-22T05:30:32Z</time>
      </trkpt>
      <trkpt lat="43.100760" lon="-5.216470">
        <ele>1356.929</ele>
        <time>2020-05-22T05:30:52Z</time>
      </trkpt>
      <trkpt lat="43.100740" lon="-5.216460">
        <ele>1357.124</ele>
        <time>2020-05-22T05:31:12Z</time>
      </trkpt>
      <trkpt lat="43.100710" lon="-5.216450">
        <ele>1357.321</ele>
        <time>2020-05-22T05:31:32Z</time>
      </trkpt>
      <trkpt lat="43.100670" lon="-5.216420">
        <ele>1357.827</ele>
        <time>2020-05-22T05:31:52Z</time>
      </trkpt>
      <trkpt lat="43.100640" lon="-5.216390">
        <ele>1358.316</ele>
        <time>2020-05-22T05:32:12Z</time>
      </trkpt>
      <trkpt lat="43.100610" lon="-5.216350">
        <ele>1359.183</ele>
        <time>2020-05-22T05:32:32Z</time>
      </trkpt>
      <trkpt lat="43.100590" lon="-5.216300">
        <ele>1360.188</ele>
        <time>2020-05-22T05:32:52Z</time>
      </trkpt>
      <trkpt lat="43.100560" lon="-5.216130">
        <ele>1362.892</ele>
        <time>2020-05-22T05:33:12Z</time>
      </trkpt>
      <trkpt lat="43.100510" lon="-5.215890">
        <ele>1367.914</ele>
        <time>2020-05-22T05:33:32Z</time>
      </trkpt>
      <trkpt lat="43.100460" lon="-5.215650">
        <ele>1371.254</ele>
        <time>2020-05-22T05:33:52Z</time>
      </trkpt>
      <trkpt lat="43.100350" lon="-5.215100">
        <ele>1369.809</ele>
        <time>2020-05-22T05:34:12Z</time>
      </trkpt>
      <trkpt lat="43.100320" lon="-5.214980">
        <ele>1370.408</ele>
        <time>2020-05-22T05:34:32Z</time>
      </trkpt>
      <trkpt lat="43.100280" lon="-5.214880">
        <ele>1370.215</ele>
        <time>2020-05-22T05:34:52Z</time>
      </trkpt>
      <trkpt lat="43.100240" lon="-5.214810">
        <ele>1369.960</ele>
        <time>2020-05-22T05:35:12Z</time>
      </trkpt>
      <trkpt lat="43.100100" lon="-5.214540">
        <ele>1373.857</ele>
        <time>2020-05-22T05:35:32Z</time>
      </trkpt>
      <trkpt lat="43.099880" lon="-5.214150">
        <ele>1373.613</ele>
        <time>2020-05-22T05:35:52Z</time>
      </trkpt>
      <trkpt lat="43.099780" lon="-5.213950">
        <ele>1372.672</ele>
        <time>2020-05-22T05:36:12Z</time>
      </trkpt>
      <trkpt lat="43.099770" lon="-5.213930">
        <ele>1372.659</ele>
        <time>2020-05-22T05:36:32Z</time>
      </trkpt>
      <trkpt lat="43.099740" lon="-5.213890">
        <ele>1372.154</ele>
        <time>2020-05-22T05:36:52Z</time>
      </trkpt>
      <trkpt lat="43.099720" lon="-5.213860">
        <ele>1372.378</ele>
        <time>2020-05-22T05:37:12Z</time>
      </trkpt>
      <trkpt lat="43.099680" lon="-5.213850">
        <ele>1373.047</ele>
        <time>2020-05-22T05:37:32Z</time>
      </trkpt>
      <trkpt lat="43.099650" lon="-5.213840">
        <ele>1373.629</ele>
        <time>2020-05-22T05:37:52Z</time>
      </trkpt>
      <trkpt lat="43.099630" lon="-5.213830">
        <ele>1374.121</ele>
        <time>2020-05-22T05:38:12Z</time>
      </trkpt>
      <trkpt lat="43.099450" lon="-5.213820">
        <ele>1375.708</ele>
        <time>2020-05-22T05:38:32Z</time>
      </trkpt>
      <trkpt lat="43.099270" lon="-5.213800">
        <ele>1376.398</ele>
        <time>2020-05-22T05:38:52Z</time>
      </trkpt>
      <trkpt lat="43.099200" lon="-5.213800">
        <ele>1376.273</ele>
        <time>2020-05-22T05:39:12Z</time>
      </trkpt>
      <trkpt lat="43.099160" lon="-5.213800">
        <ele>1376.590</ele>
        <time>2020-05-22T05:39:32Z</time>
      </trkpt>
      <trkpt lat="43.099130" lon="-5.213820">
        <ele>1377.266</ele>
        <time>2020-05-22T05:39:52Z</time>
      </trkpt>
      <trkpt lat="43.099100" lon="-5.213850">
        <ele>1377.725</ele>
        <time>2020-05-22T05:40:12Z</time>
      </trkpt>
      <trkpt lat="43.099100" lon="-5.213860">
        <ele>1377.342</ele>
        <time>2020-05-22T05:40:32Z</time>
      </trkpt>
      <trkpt lat="43.099080" lon="-5.213890">
        <ele>1377.337</ele>
        <time>2020-05-22T05:40:52Z</time>
      </trkpt>
      <trkpt lat="43.099050" lon="-5.213950">
        <ele>1377.591</ele>
        <time>2020-05-22T05:41:12Z</time>
      </trkpt>
      <trkpt lat="43.099000" lon="-5.214060">
        <ele>1377.689</ele>
        <time>2020-05-22T05:41:32Z</time>
      </trkpt>
      <trkpt lat="43.098900" lon="-5.214270">
        <ele>1379.406</ele>
        <time>2020-05-22T05:41:52Z</time>
      </trkpt>
      <trkpt lat="43.098800" lon="-5.214470">
        <ele>1382.226</ele>
        <time>2020-05-22T05:42:12Z</time>
      </trkpt>
      <trkpt lat="43.098710" lon="-5.214680">
        <ele>1383.508</ele>
        <time>2020-05-22T05:42:32Z</time>
      </trkpt>
      <trkpt lat="43.098680" lon="-5.214740">
        <ele>1384.222</ele>
        <time>2020-05-22T05:42:52Z</time>
      </trkpt>
      <trkpt lat="43.098650" lon="-5.214790">
        <ele>1385.277</ele>
        <time>2020-05-22T05:43:12Z</time>
      </trkpt>
      <trkpt lat="43.098620" lon="-5.214840">
        <ele>1386.324</ele>
        <time>2020-05-22T05:43:32Z</time>
      </trkpt>
      <trkpt lat="43.098590" lon="-5.214890">
        <ele>1386.750</ele>
        <time>2020-05-22T05:43:52Z</time>
      </trkpt>
      <trkpt lat="43.098560" lon="-5.214930">
        <ele>1387.079</ele>
        <time>2020-05-22T05:44:12Z</time>
      </trkpt>
      <trkpt lat="43.098510" lon="-5.214970">
        <ele>1387.916</ele>
        <time>2020-05-22T05:44:32Z</time>
      </trkpt>
      <trkpt lat="43.098470" lon="-5.215000">
        <ele>1388.671</ele>
        <time>2020-05-22T05:44:52Z</time>
      </trkpt>
      <trkpt lat="43.098450" lon="-5.215020">
        <ele>1388.885</ele>
        <time>2020-05-22T05:45:12Z</time>
      </trkpt>
      <trkpt lat="43.098450" lon="-5.215030">
        <ele>1388.574</ele>
        <time>2020-05-22T05:45:32Z</time>
      </trkpt>
      <trkpt lat="43.098420" lon="-5.215070">
        <ele>1388.756</ele>
        <time>2020-05-22T05:45:52Z</time>
      </trkpt>
      <trkpt lat="43.098370" lon="-5.215160">
        <ele>1389.121</ele>
        <time>2020-05-22T05:46:12Z</time>
      </trkpt>
      <trkpt lat="43.098340" lon="-5.215220">
        <ele>1389.508</ele>
        <time>2020-05-22T05:46:32Z</time>
      </trkpt>
      <trkpt lat="43.098250" lon="-5.215400">
        <ele>1390.341</ele>
        <time>2020-05-22T05:46:52Z</time>
      </trkpt>
      <trkpt lat="43.098160" lon="-5.215530">
        <ele>1391.436</ele>
        <time>2020-05-22T05:47:12Z</time>
      </trkpt>
      <trkpt lat="43.098080" lon="-5.215640">
        <ele>1391.553</ele>
        <time>2020-05-22T05:47:32Z</time>
      </trkpt>
      <trkpt lat="43.097960" lon="-5.215750">
        <ele>1392.959</ele>
        <time>2020-05-22T05:47:52Z</time>
      </trkpt>
      <trkpt lat="43.097810" lon="-5.215840">
        <ele>1396.298</ele>
        <time>2020-05-22T05:48:12Z</time>
      </trkpt>
      <trkpt lat="43.097800" lon="-5.215840">
        <ele>1396.785</ele>
        <time>2020-05-22T05:48:32Z</time>
      </trkpt>
      <trkpt lat="43.097590" lon="-5.215960">
        <ele>1399.310</ele>
        <time>2020-05-22T05:48:52Z</time>
      </trkpt>
      <trkpt lat="43.097480" lon="-5.216020">
        <ele>1400.544</ele>
        <time>2020-05-22T05:49:12Z</time>
      </trkpt>
      <trkpt lat="43.097340" lon="-5.216080">
        <ele>1401.435</ele>
        <time>2020-05-22T05:49:32Z</time>
      </trkpt>
      <trkpt lat="43.097210" lon="-5.216170">
        <ele>1401.386</ele>
        <time>2020-05-22T05:49:52Z</time>
      </trkpt>
      <trkpt lat="43.097150" lon="-5.216230">
        <ele>1402.014</ele>
        <time>2020-05-22T05:50:12Z</time>
      </trkpt>
      <trkpt lat="43.097010" lon="-5.216380">
        <ele>1402.308</ele>
        <time>2020-05-22T05:50:32Z</time>
      </trkpt>
      <trkpt lat="43.097000" lon="-5.216380">
        <ele>1402.887</ele>
        <time>2020-05-22T05:50:52Z</time>
      </trkpt>
      <trkpt lat="43.096900" lon="-5.216480">
        <ele>1407.372</ele>
        <time>2020-05-22T05:51:12Z</time>
      </trkpt>
      <trkpt lat="43.096670" lon="-5.216720">
        <ele>1418.369</ele>
        <time>2020-05-22T05:51:32Z</time>
      </trkpt>
      <trkpt lat="43.096440" lon="-5.216960">
        <ele>1406.485</ele>
        <time>2020-05-22T05:51:52Z</time>
      </trkpt>
      <trkpt lat="43.096430" lon="-5.216970">
        <ele>1406.254</ele>
        <time>2020-05-22T05:52:12Z</time>
      </trkpt>
      <trkpt lat="43.096310" lon="-5.217090">
        <ele>1404.721</ele>
        <time>2020-05-22T05:52:32Z</time>
      </trkpt>
      <trkpt lat="43.096280" lon="-5.217110">
        <ele>1404.926</ele>
        <time>2020-05-22T05:52:52Z</time>
      </trkpt>
      <trkpt lat="43.096260" lon="-5.217120">
        <ele>1405.320</ele>
        <time>2020-05-22T05:53:12Z</time>
      </trkpt>
      <trkpt lat="43.096210" lon="-5.217140">
        <ele>1406.481</ele>
        <time>2020-05-22T05:53:32Z</time>
      </trkpt>
      <trkpt lat="43.096170" lon="-5.217160">
        <ele>1407.061</ele>
        <time>2020-05-22T05:53:52Z</time>
      </trkpt>
      <trkpt lat="43.096110" lon="-5.217170">
        <ele>1409.017</ele>
        <time>2020-05-22T05:54:12Z</time>
      </trkpt>
      <trkpt lat="43.095750" lon="-5.217210">
        <ele>1410.508</ele>
        <time>2020-05-22T05:54:32Z</time>
      </trkpt>
      <trkpt lat="43.095700" lon="-5.217220">
        <ele>1411.082</ele>
        <time>2020-05-22T05:54:52Z</time>
      </trkpt>
      <trkpt lat="43.095580" lon="-5.217250">
        <ele>1412.297</ele>
        <time>2020-05-22T05:55:12Z</time>
      </trkpt>
      <trkpt lat="43.095490" lon="-5.217270">
        <ele>1413.674</ele>
        <time>2020-05-22T05:55:32Z</time>
      </trkpt>
      <trkpt lat="43.095420" lon="-5.217300">
        <ele>1414.210</ele>
        <time>2020-05-22T05:55:52Z</time>
      </trkpt>
      <trkpt lat="43.095330" lon="-5.217350">
        <ele>1414.579</ele>
        <time>2020-05-22T05:56:12Z</time>
      </trkpt>
      <trkpt lat="43.095230" lon="-5.217400">
        <ele>1415.646</ele>
        <time>2020-05-22T05:56:32Z</time>
      </trkpt>
      <trkpt lat="43.095220" lon="-5.217410">
        <ele>1415.671</ele>
        <time>2020-05-22T05:56:52Z</time>
      </trkpt>
      <trkpt lat="43.095110" lon="-5.217480">
        <ele>1417.375</ele>
        <time>2020-05-22T05:57:12Z</time>
      </trkpt>
      <trkpt lat="43.094990" lon="-5.217590">
        <ele>1421.559</ele>
        <time>2020-05-22T05:57:32Z</time>
      </trkpt>
      <trkpt lat="43.094870" lon="-5.217680">
        <ele>1423.403</ele>
        <time>2020-05-22T05:57:52Z</time>
      </trkpt>
      <trkpt lat="43.094820" lon="-5.217720">
        <ele>1423.823</ele>
        <time>2020-05-22T05:58:12Z</time>
      </trkpt>
      <trkpt lat="43.094760" lon="-5.217750">
        <ele>1424.108</ele>
        <time>2020-05-22T05:58:32Z</time>
      </trkpt>
      <trkpt lat="43.094740" lon="-5.217770">
        <ele>1424.049</ele>
        <time>2020-05-22T05:58:52Z</time>
      </trkpt>
      <trkpt lat="43.094670" lon="-5.217800">
        <ele>1423.984</ele>
        <time>2020-05-22T05:59:12Z</time>
      </trkpt>
      <trkpt lat="43.094600" lon="-5.217810">
        <ele>1424.041</ele>
        <time>2020-05-22T05:59:32Z</time>
      </trkpt>
      <trkpt lat="43.094540" lon="-5.217810">
        <ele>1424.247</ele>
        <time>2020-05-22T05:59:52Z</time>
      </trkpt>
      <trkpt lat="43.094470" lon="-5.217790">
        <ele>1424.736</ele>
        <time>2020-05-22T06:00:12Z</time>
      </trkpt>
      <trkpt lat="43.094420" lon="-5.217750">
        <ele>1425.493</ele>
        <time>2020-05-22T06:00:32Z</time>
      </trkpt>
      <trkpt lat="43.094170" lon="-5.217580">
        <ele>1427.668</ele>
        <time>2020-05-22T06:00:52Z</time>
      </trkpt>
      <trkpt lat="43.094100" lon="-5.217520">
        <ele>1427.762</ele>
        <time>2020-05-22T06:01:12Z</time>
      </trkpt>
      <trkpt lat="43.094070" lon="-5.217490">
        <ele>1427.896</ele>
        <time>2020-05-22T06:01:32Z</time>
      </trkpt>
      <trkpt lat="43.093970" lon="-5.217390">
        <ele>1428.531</ele>
        <time>2020-05-22T06:01:52Z</time>
      </trkpt>
      <trkpt lat="43.093880" lon="-5.217270">
        <ele>1429.924</ele>
        <time>2020-05-22T06:02:12Z</time>
      </trkpt>
      <trkpt lat="43.093790" lon="-5.217150">
        <ele>1431.208</ele>
        <time>2020-05-22T06:02:32Z</time>
      </trkpt>
      <trkpt lat="43.093690" lon="-5.217040">
        <ele>1431.873</ele>
        <time>2020-05-22T06:02:52Z</time>
      </trkpt>
      <trkpt lat="43.093600" lon="-5.216940">
        <ele>1432.158</ele>
        <time>2020-05-22T06:03:12Z</time>
      </trkpt>
      <trkpt lat="43.093520" lon="-5.216870">
        <ele>1433.565</ele>
        <time>2020-05-22T06:03:32Z</time>
      </trkpt>
      <trkpt lat="43.093420" lon="-5.216810">
        <ele>1434.051</ele>
        <time>2020-05-22T06:03:52Z</time>
      </trkpt>
      <trkpt lat="43.093310" lon="-5.216740">
        <ele>1434.440</ele>
        <time>2020-05-22T06:04:12Z</time>
      </trkpt>
      <trkpt lat="43.093200" lon="-5.216700">
        <ele>1435.087</ele>
        <time>2020-05-22T06:04:32Z</time>
      </trkpt>
      <trkpt lat="43.093100" lon="-5.216670">
        <ele>1435.182</ele>
        <time>2020-05-22T06:04:52Z</time>
      </trkpt>
      <trkpt lat="43.093020" lon="-5.216660">
        <ele>1435.636</ele>
        <time>2020-05-22T06:05:12Z</time>
      </trkpt>
      <trkpt lat="43.092920" lon="-5.216660">
        <ele>1436.794</ele>
        <time>2020-05-22T06:05:32Z</time>
      </trkpt>
      <trkpt lat="43.092820" lon="-5.216670">
        <ele>1437.657</ele>
        <time>2020-05-22T06:05:52Z</time>
      </trkpt>
      <trkpt lat="43.092730" lon="-5.216690">
        <ele>1438.922</ele>
        <time>2020-05-22T06:06:12Z</time>
      </trkpt>
      <trkpt lat="43.092640" lon="-5.216720">
        <ele>1440.308</ele>
        <time>2020-05-22T06:06:32Z</time>
      </trkpt>
      <trkpt lat="43.092540" lon="-5.216760">
        <ele>1441.563</ele>
        <time>2020-05-22T06:06:52Z</time>
      </trkpt>
      <trkpt lat="43.092480" lon="-5.216790">
        <ele>1441.928</ele>
        <time>2020-05-22T06:07:12Z</time>
      </trkpt>
      <trkpt lat="43.092400" lon="-5.216830">
        <ele>1442.595</ele>
        <time>2020-05-22T06:07:32Z</time>
      </trkpt>
      <trkpt lat="43.092340" lon="-5.216850">
        <ele>1442.911</ele>
        <time>2020-05-22T06:07:52Z</time>
      </trkpt>
      <trkpt lat="43.092330" lon="-5.216850">
        <ele>1443.170</ele>
        <time>2020-05-22T06:08:12Z</time>
      </trkpt>
      <trkpt lat="43.092170" lon="-5.216860">
        <ele>1444.387</ele>
        <time>2020-05-22T06:08:32Z</time>
      </trkpt>
      <trkpt lat="43.092160" lon="-5.216850">
        <ele>1444.512</ele>
        <time>2020-05-22T06:08:52Z</time>
      </trkpt>
      <trkpt lat="43.092080" lon="-5.216840">
        <ele>1444.836</ele>
        <time>2020-05-22T06:09:12Z</time>
      </trkpt>
      <trkpt lat="43.092010" lon="-5.216810">
        <ele>1445.384</ele>
        <time>2020-05-22T06:09:32Z</time>
      </trkpt>
      <trkpt lat="43.091980" lon="-5.216790">
        <ele>1445.607</ele>
        <time>2020-05-22T06:09:52Z</time>
      </trkpt>
      <trkpt lat="43.091950" lon="-5.216770">
        <ele>1445.917</ele>
        <time>2020-05-22T06:10:12Z</time>
      </trkpt>
      <trkpt lat="43.091830" lon="-5.216660">
        <ele>1444.708</ele>
        <time>2020-05-22T06:10:32Z</time>
      </trkpt>
      <trkpt lat="43.091810" lon="-5.216640">
        <ele>1444.682</ele>
        <time>2020-05-22T06:10:52Z</time>
      </trkpt>
      <trkpt lat="43.091740" lon="-5.216600">
        <ele>1443.837</ele>
        <time>2020-05-22T06:11:12Z</time>
      </trkpt>
      <trkpt lat="43.091690" lon="-5.216560">
        <ele>1443.544</ele>
        <time>2020-05-22T06:11:32Z</time>
      </trkpt>
      <trkpt lat="43.091630" lon="-5.216530">
        <ele>1443.150</ele>
        <time>2020-05-22T06:11:52Z</time>
      </trkpt>
      <trkpt lat="43.091550" lon="-5.216500">
        <ele>1442.949</ele>
        <time>2020-05-22T06:12:12Z</time>
      </trkpt>
      <trkpt lat="43.091460" lon="-5.216480">
        <ele>1442.436</ele>
        <time>2020-05-22T06:12:32Z</time>
      </trkpt>
      <trkpt lat="43.091370" lon="-5.216470">
        <ele>1441.741</ele>
        <time>2020-05-22T06:12:52Z</time>
      </trkpt>
      <trkpt lat="43.091280" lon="-5.216470">
        <ele>1441.215</ele>
        <time>2020-05-22T06:13:12Z</time>
      </trkpt>
      <trkpt lat="43.091150" lon="-5.216480">
        <ele>1440.335</ele>
        <time>2020-05-22T06:13:32Z</time>
      </trkpt>
      <trkpt lat="43.091140" lon="-5.216490">
        <ele>1440.086</ele>
        <time>2020-05-22T06:13:52Z</time>
      </trkpt>
      <trkpt lat="43.091020" lon="-5.216500">
        <ele>1439.514</ele>
        <time>2020-05-22T06:14:12Z</time>
      </trkpt>
      <trkpt lat="43.090960" lon="-5.216510">
        <ele>1439.208</ele>
        <time>2020-05-22T06:14:32Z</time>
      </trkpt>
      <trkpt lat="43.090900" lon="-5.216520">
        <ele>1438.977</ele>
        <time>2020-05-22T06:14:52Z</time>
      </trkpt>
      <trkpt lat="43.090750" lon="-5.216530">
        <ele>1438.482</ele>
        <time>2020-05-22T06:15:12Z</time>
      </trkpt>
      <trkpt lat="43.090660" lon="-5.216530">
        <ele>1438.449</ele>
        <time>2020-05-22T06:15:32Z</time>
      </trkpt>
      <trkpt lat="43.090600" lon="-5.216520">
        <ele>1438.855</ele>
        <time>2020-05-22T06:15:52Z</time>
      </trkpt>
      <trkpt lat="43.090550" lon="-5.216510">
        <ele>1439.124</ele>
        <time>2020-05-22T06:16:12Z</time>
      </trkpt>
      <trkpt lat="43.090420" lon="-5.216480">
        <ele>1440.251</ele>
        <time>2020-05-22T06:16:32Z</time>
      </trkpt>
      <trkpt lat="43.090400" lon="-5.216480">
        <ele>1440.266</ele>
        <time>2020-05-22T06:16:52Z</time>
      </trkpt>
      <trkpt lat="43.090290" lon="-5.216440">
        <ele>1441.590</ele>
        <time>2020-05-22T06:17:12Z</time>
      </trkpt>
      <trkpt lat="43.090180" lon="-5.216380">
        <ele>1442.994</ele>
        <time>2020-05-22T06:17:32Z</time>
      </trkpt>
      <trkpt lat="43.090080" lon="-5.216330">
        <ele>1443.657</ele>
        <time>2020-05-22T06:17:52Z</time>
      </trkpt>
      <trkpt lat="43.089920" lon="-5.216230">
        <ele>1444.322</ele>
        <time>2020-05-22T06:18:12Z</time>
      </trkpt>
      <trkpt lat="43.089870" lon="-5.216200">
        <ele>1444.508</ele>
        <time>2020-05-22T06:18:32Z</time>
      </trkpt>
      <trkpt lat="43.089700" lon="-5.216090">
        <ele>1445.223</ele>
        <time>2020-05-22T06:18:52Z</time>
      </trkpt>
      <trkpt lat="43.089590" lon="-5.216020">
        <ele>1445.718</ele>
        <time>2020-05-22T06:19:12Z</time>
      </trkpt>
      <trkpt lat="43.089590" lon="-5.216010">
        <ele>1445.845</ele>
        <time>2020-05-22T06:19:32Z</time>
      </trkpt>
      <trkpt lat="43.089570" lon="-5.216010">
        <ele>1445.711</ele>
        <time>2020-05-22T06:19:52Z</time>
      </trkpt>
      <trkpt lat="43.089550" lon="-5.216000">
        <ele>1445.780</ele>
        <time>2020-05-22T06:20:12Z</time>
      </trkpt>
      <trkpt lat="43.089530" lon="-5.216000">
        <ele>1445.617</ele>
        <time>2020-05-22T06:20:32Z</time>
      </trkpt>
      <trkpt lat="43.089510" lon="-5.216010">
        <ele>1445.462</ele>
        <time>2020-05-22T06:20:52Z</time>
      </trkpt>
      <trkpt lat="43.089480" lon="-5.216010">
        <ele>1445.396</ele>
        <time>2020-05-22T06:21:12Z</time>
      </trkpt>
      <trkpt lat="43.089450" lon="-5.216020">
        <ele>1445.076</ele>
        <time>2020-05-22T06:21:32Z</time>
      </trkpt>
      <trkpt lat="43.089430" lon="-5.216030">
        <ele>1445.390</ele>
        <time>2020-05-22T06:21:52Z</time>
      </trkpt>
      <trkpt lat="43.089420" lon="-5.216040">
        <ele>1445.519</ele>
        <time>2020-05-22T06:22:12Z</time>
      </trkpt>
      <trkpt lat="43.089410" lon="-5.216050">
        <ele>1445.708</ele>
        <time>2020-05-22T06:22:32Z</time>
      </trkpt>
      <trkpt lat="43.089390" lon="-5.216080">
        <ele>1446.271</ele>
        <time>2020-05-22T06:22:52Z</time>
      </trkpt>
      <trkpt lat="43.089370" lon="-5.216120">
        <ele>1446.736</ele>
        <time>2020-05-22T06:23:12Z</time>
      </trkpt>
      <trkpt lat="43.089360" lon="-5.216180">
        <ele>1446.913</ele>
        <time>2020-05-22T06:23:32Z</time>
      </trkpt>
      <trkpt lat="43.089360" lon="-5.216270">
        <ele>1446.749</ele>
        <time>2020-05-22T06:23:52Z</time>
      </trkpt>
      <trkpt lat="43.089360" lon="-5.216370">
        <ele>1446.558</ele>
        <time>2020-05-22T06:24:12Z</time>
      </trkpt>
      <trkpt lat="43.089340" lon="-5.216470">
        <ele>1446.245</ele>
        <time>2020-05-22T06:24:32Z</time>
      </trkpt>
      <trkpt lat="43.089320" lon="-5.216540">
        <ele>1446.280</ele>
        <time>2020-05-22T06:24:52Z</time>
      </trkpt>
      <trkpt lat="43.089300" lon="-5.216600">
        <ele>1446.314</ele>
        <time>2020-05-22T06:25:12Z</time>
      </trkpt>
      <trkpt lat="43.089270" lon="-5.216660">
        <ele>1446.784</ele>
        <time>2020-05-22T06:25:32Z</time>
      </trkpt>
      <trkpt lat="43.089240" lon="-5.216720">
        <ele>1446.407</ele>
        <time>2020-05-22T06:25:52Z</time>
      </trkpt>
      <trkpt lat="43.089200" lon="-5.216770">
        <ele>1446.517</ele>
        <time>2020-05-22T06:26:12Z</time>
      </trkpt>
      <trkpt lat="43.089150" lon="-5.216810">
        <ele>1446.608</ele>
        <time>2020-05-22T06:26:32Z</time>
      </trkpt>
      <trkpt lat="43.089090" lon="-5.216830">
        <ele>1447.032</ele>
        <time>2020-05-22T06:26:52Z</time>
      </trkpt>
      <trkpt lat="43.088910" lon="-5.216850">
        <ele>1449.117</ele>
        <time>2020-05-22T06:27:12Z</time>
      </trkpt>
      <trkpt lat="43.088740" lon="-5.216870">
        <ele>1449.844</ele>
        <time>2020-05-22T06:27:32Z</time>
      </trkpt>
      <trkpt lat="43.088730" lon="-5.216870">
        <ele>1449.980</ele>
        <time>2020-05-22T06:27:52Z</time>
      </trkpt>
      <trkpt lat="43.088660" lon="-5.216860">
        <ele>1450.529</ele>
        <time>2020-05-22T06:28:12Z</time>
      </trkpt>
      <trkpt lat="43.088620" lon="-5.216850">
        <ele>1451.026</ele>
        <time>2020-05-22T06:28:32Z</time>
      </trkpt>
      <trkpt lat="43.088570" lon="-5.216840">
        <ele>1451.061</ele>
        <time>2020-05-22T06:28:52Z</time>
      </trkpt>
      <trkpt lat="43.088560" lon="-5.216820">
        <ele>1451.445</ele>
        <time>2020-05-22T06:29:12Z</time>
      </trkpt>
      <trkpt lat="43.088470" lon="-5.216770">
        <ele>1452.141</ele>
        <time>2020-05-22T06:29:32Z</time>
      </trkpt>
      <trkpt lat="43.088400" lon="-5.216720">
        <ele>1452.981</ele>
        <time>2020-05-22T06:29:52Z</time>
      </trkpt>
      <trkpt lat="43.088390" lon="-5.216720">
        <ele>1452.909</ele>
        <time>2020-05-22T06:30:12Z</time>
      </trkpt>
      <trkpt lat="43.088310" lon="-5.216680">
        <ele>1453.708</ele>
        <time>2020-05-22T06:30:32Z</time>
      </trkpt>
      <trkpt lat="43.088240" lon="-5.216650">
        <ele>1454.558</ele>
        <time>2020-05-22T06:30:52Z</time>
      </trkpt>
      <trkpt lat="43.088220" lon="-5.216650">
        <ele>1454.543</ele>
        <time>2020-05-22T06:31:12Z</time>
      </trkpt>
      <trkpt lat="43.088160" lon="-5.216640">
        <ele>1454.910</ele>
        <time>2020-05-22T06:31:32Z</time>
      </trkpt>
      <trkpt lat="43.088080" lon="-5.216620">
        <ele>1455.566</ele>
        <time>2020-05-22T06:31:52Z</time>
      </trkpt>
      <trkpt lat="43.088040" lon="-5.216600">
        <ele>1456.095</ele>
        <time>2020-05-22T06:32:12Z</time>
      </trkpt>
      <trkpt lat="43.087970" lon="-5.216580">
        <ele>1456.132</ele>
        <time>2020-05-22T06:32:32Z</time>
      </trkpt>
      <trkpt lat="43.087880" lon="-5.216530">
        <ele>1456.997</ele>
        <time>2020-05-22T06:32:52Z</time>
      </trkpt>
      <trkpt lat="43.087870" lon="-5.216520">
        <ele>1457.171</ele>
        <time>2020-05-22T06:33:12Z</time>
      </trkpt>
      <trkpt lat="43.087790" lon="-5.216470">
        <ele>1457.836</ele>
        <time>2020-05-22T06:33:32Z</time>
      </trkpt>
      <trkpt lat="43.087720" lon="-5.216410">
        <ele>1458.417</ele>
        <time>2020-05-22T06:33:52Z</time>
      </trkpt>
      <trkpt lat="43.087710" lon="-5.216400">
        <ele>1458.518</ele>
        <time>2020-05-22T06:34:12Z</time>
      </trkpt>
      <trkpt lat="43.087640" lon="-5.216330">
        <ele>1459.408</ele>
        <time>2020-05-22T06:34:32Z</time>
      </trkpt>
      <trkpt lat="43.087450" lon="-5.216080">
        <ele>1462.837</ele>
        <time>2020-05-22T06:34:52Z</time>
      </trkpt>
      <trkpt lat="43.087320" lon="-5.215910">
        <ele>1464.012</ele>
        <time>2020-05-22T06:35:12Z</time>
      </trkpt>
      <trkpt lat="43.087290" lon="-5.215870">
        <ele>1464.399</ele>
        <time>2020-05-22T06:35:32Z</time>
      </trkpt>
      <trkpt lat="43.087250" lon="-5.215820">
        <ele>1464.735</ele>
        <time>2020-05-22T06:35:52Z</time>
      </trkpt>
      <trkpt lat="43.087200" lon="-5.215800">
        <ele>1465.034</ele>
        <time>2020-05-22T06:36:12Z</time>
      </trkpt>
      <trkpt lat="43.087170" lon="-5.215790">
        <ele>1465.611</ele>
        <time>2020-05-22T06:36:32Z</time>
      </trkpt>
      <trkpt lat="43.087150" lon="-5.215790">
        <ele>1465.966</ele>
        <time>2020-05-22T06:36:52Z</time>
      </trkpt>
      <trkpt lat="43.087110" lon="-5.215810">
        <ele>1466.060</ele>
        <time>2020-05-22T06:37:12Z</time>
      </trkpt>
      <trkpt lat="43.087070" lon="-5.215830">
        <ele>1466.292</ele>
        <time>2020-05-22T06:37:32Z</time>
      </trkpt>
      <trkpt lat="43.087010" lon="-5.215900">
        <ele>1465.973</ele>
        <time>2020-05-22T06:37:52Z</time>
      </trkpt>
      <trkpt lat="43.086960" lon="-5.215970">
        <ele>1465.320</ele>
        <time>2020-05-22T06:38:12Z</time>
      </trkpt>
      <trkpt lat="43.086880" lon="-5.216070">
        <ele>1465.608</ele>
        <time>2020-05-22T06:38:32Z</time>
      </trkpt>
      <trkpt lat="43.086800" lon="-5.216180">
        <ele>1465.283</ele>
        <time>2020-05-22T06:38:52Z</time>
      </trkpt>
      <trkpt lat="43.086730" lon="-5.216240">
        <ele>1465.298</ele>
        <time>2020-05-22T06:39:12Z</time>
      </trkpt>
      <trkpt lat="43.086660" lon="-5.216300">
        <ele>1465.155</ele>
        <time>2020-05-22T06:39:32Z</time>
      </trkpt>
      <trkpt lat="43.086590" lon="-5.216340">
        <ele>1466.141</ele>
        <time>2020-05-22T06:39:52Z</time>
      </trkpt>
      <trkpt lat="43.086570" lon="-5.216350">
        <ele>1466.460</ele>
        <time>2020-05-22T06:40:12Z</time>
      </trkpt>
      <trkpt lat="43.086500" lon="-5.216390">
        <ele>1467.417</ele>
        <time>2020-05-22T06:40:32Z</time>
      </trkpt>
      <trkpt lat="43.086420" lon="-5.216430">
        <ele>1469.372</ele>
        <time>2020-05-22T06:40:52Z</time>
      </trkpt>
      <trkpt lat="43.086410" lon="-5.216440">
        <ele>1469.466</ele>
        <time>2020-05-22T06:41:12Z</time>
      </trkpt>
      <trkpt lat="43.086350" lon="-5.216500">
        <ele>1470.731</ele>
        <time>2020-05-22T06:41:32Z</time>
      </trkpt>
      <trkpt lat="43.086280" lon="-5.216580">
        <ele>1472.061</ele>
        <time>2020-05-22T06:41:52Z</time>
      </trkpt>
      <trkpt lat="43.086150" lon="-5.216740">
        <ele>1472.807</ele>
        <time>2020-05-22T06:42:12Z</time>
      </trkpt>
      <trkpt lat="43.085940" lon="-5.216990">
        <ele>1475.108</ele>
        <time>2020-05-22T06:42:32Z</time>
      </trkpt>
      <trkpt lat="43.085840" lon="-5.217150">
        <ele>1476.167</ele>
        <time>2020-05-22T06:42:52Z</time>
      </trkpt>
      <trkpt lat="43.085660" lon="-5.217430">
        <ele>1479.962</ele>
        <time>2020-05-22T06:43:12Z</time>
      </trkpt>
      <trkpt lat="43.085530" lon="-5.217650">
        <ele>1482.129</ele>
        <time>2020-05-22T06:43:32Z</time>
      </trkpt>
      <trkpt lat="43.085470" lon="-5.217760">
        <ele>1482.185</ele>
        <time>2020-05-22T06:43:52Z</time>
      </trkpt>
      <trkpt lat="43.085420" lon="-5.217820">
        <ele>1482.854</ele>
        <time>2020-05-22T06:44:12Z</time>
      </trkpt>
      <trkpt lat="43.085410" lon="-5.217830">
        <ele>1482.941</ele>
        <time>2020-05-22T06:44:32Z</time>
      </trkpt>
      <trkpt lat="43.085350" lon="-5.217900">
        <ele>1483.666</ele>
        <time>2020-05-22T06:44:52Z</time>
      </trkpt>
      <trkpt lat="43.085300" lon="-5.217940">
        <ele>1484.080</ele>
        <time>2020-05-22T06:45:12Z</time>
      </trkpt>
      <trkpt lat="43.085260" lon="-5.217960">
        <ele>1484.398</ele>
        <time>2020-05-22T06:45:32Z</time>
      </trkpt>
      <trkpt lat="43.085250" lon="-5.217960">
        <ele>1484.515</ele>
        <time>2020-05-22T06:45:52Z</time>
      </trkpt>
      <trkpt lat="43.085170" lon="-5.218000">
        <ele>1485.526</ele>
        <time>2020-05-22T06:46:12Z</time>
      </trkpt>
      <trkpt lat="43.085080" lon="-5.218020">
        <ele>1486.908</ele>
        <time>2020-05-22T06:46:32Z</time>
      </trkpt>
      <trkpt lat="43.084950" lon="-5.218050">
        <ele>1488.483</ele>
        <time>2020-05-22T06:46:52Z</time>
      </trkpt>
      <trkpt lat="43.084910" lon="-5.218050">
        <ele>1488.728</ele>
        <time>2020-05-22T06:47:12Z</time>
      </trkpt>
      <trkpt lat="43.084840" lon="-5.218060">
        <ele>1489.225</ele>
        <time>2020-05-22T06:47:32Z</time>
      </trkpt>
      <trkpt lat="43.084740" lon="-5.218060">
        <ele>1489.981</ele>
        <time>2020-05-22T06:47:52Z</time>
      </trkpt>
      <trkpt lat="43.084610" lon="-5.218020">
        <ele>1490.170</ele>
        <time>2020-05-22T06:48:12Z</time>
      </trkpt>
      <trkpt lat="43.084611" lon="-5.218017">
        <ele>1490.167</ele>
        <time>2020-05-22T06:48:32Z</time>
      </trkpt>
      <trkpt lat="43.084520" lon="-5.217990">
        <ele>1490.122</ele>
        <time>2020-05-22T06:48:52Z</time>
      </trkpt>
      <trkpt lat="43.084430" lon="-5.217940">
        <ele>1490.066</ele>
        <time>2020-05-22T06:49:12Z</time>
      </trkpt>
      <trkpt lat="43.084350" lon="-5.217880">
        <ele>1489.828</ele>
        <time>2020-05-22T06:49:32Z</time>
      </trkpt>
      <trkpt lat="43.084280" lon="-5.217810">
        <ele>1489.589</ele>
        <time>2020-05-22T06:49:52Z</time>
      </trkpt>
      <trkpt lat="43.084220" lon="-5.217740">
        <ele>1489.517</ele>
        <time>2020-05-22T06:50:12Z</time>
      </trkpt>
      <trkpt lat="43.084150" lon="-5.217640">
        <ele>1489.408</ele>
        <time>2020-05-22T06:50:32Z</time>
      </trkpt>
      <trkpt lat="43.084050" lon="-5.217520">
        <ele>1488.476</ele>
        <time>2020-05-22T06:50:52Z</time>
      </trkpt>
      <trkpt lat="43.084020" lon="-5.217470">
        <ele>1488.221</ele>
        <time>2020-05-22T06:51:12Z</time>
      </trkpt>
      <trkpt lat="43.083950" lon="-5.217340">
        <ele>1488.048</ele>
        <time>2020-05-22T06:51:32Z</time>
      </trkpt>
      <trkpt lat="43.083910" lon="-5.217250">
        <ele>1487.574</ele>
        <time>2020-05-22T06:51:52Z</time>
      </trkpt>
      <trkpt lat="43.083900" lon="-5.217180">
        <ele>1487.323</ele>
        <time>2020-05-22T06:52:12Z</time>
      </trkpt>
      <trkpt lat="43.083890" lon="-5.217110">
        <ele>1487.060</ele>
        <time>2020-05-22T06:52:32Z</time>
      </trkpt>
      <trkpt lat="43.083900" lon="-5.217030">
        <ele>1487.465</ele>
        <time>2020-05-22T06:52:52Z</time>
      </trkpt>
      <trkpt lat="43.083910" lon="-5.216980">
        <ele>1487.719</ele>
        <time>2020-05-22T06:53:12Z</time>
      </trkpt>
      <trkpt lat="43.083990" lon="-5.216840">
        <ele>1489.099</ele>
        <time>2020-05-22T06:53:32Z</time>
      </trkpt>
      <trkpt lat="43.084160" lon="-5.216510">
        <ele>1487.907</ele>
        <time>2020-05-22T06:53:52Z</time>
      </trkpt>
      <trkpt lat="43.084220" lon="-5.216390">
        <ele>1487.127</ele>
        <time>2020-05-22T06:54:12Z</time>
      </trkpt>
      <trkpt lat="43.084260" lon="-5.216320">
        <ele>1487.808</ele>
        <time>2020-05-22T06:54:32Z</time>
      </trkpt>
      <trkpt lat="43.084280" lon="-5.216260">
        <ele>1487.793</ele>
        <time>2020-05-22T06:54:52Z</time>
      </trkpt>
      <trkpt lat="43.084300" lon="-5.216190">
        <ele>1487.478</ele>
        <time>2020-05-22T06:55:12Z</time>
      </trkpt>
      <trkpt lat="43.084300" lon="-5.216130">
        <ele>1486.615</ele>
        <time>2020-05-22T06:55:32Z</time>
      </trkpt>
      <trkpt lat="43.084310" lon="-5.216030">
        <ele>1486.581</ele>
        <time>2020-05-22T06:55:52Z</time>
      </trkpt>
      <trkpt lat="43.084290" lon="-5.215890">
        <ele>1485.680</ele>
        <time>2020-05-22T06:56:12Z</time>
      </trkpt>
      <trkpt lat="43.084250" lon="-5.215730">
        <ele>1484.277</ele>
        <time>2020-05-22T06:56:32Z</time>
      </trkpt>
      <trkpt lat="43.084180" lon="-5.215500">
        <ele>1481.862</ele>
        <time>2020-05-22T06:56:52Z</time>
      </trkpt>
      <trkpt lat="43.084170" lon="-5.215470">
        <ele>1481.426</ele>
        <time>2020-05-22T06:57:12Z</time>
      </trkpt>
      <trkpt lat="43.084110" lon="-5.215380">
        <ele>1480.334</ele>
        <time>2020-05-22T06:57:32Z</time>
      </trkpt>
      <trkpt lat="43.084060" lon="-5.215340">
        <ele>1479.355</ele>
        <time>2020-05-22T06:57:52Z</time>
      </trkpt>
      <trkpt lat="43.083990" lon="-5.215310">
        <ele>1477.910</ele>
        <time>2020-05-22T06:58:12Z</time>
      </trkpt>
      <trkpt lat="43.083940" lon="-5.215290">
        <ele>1477.008</ele>
        <time>2020-05-22T06:58:32Z</time>
      </trkpt>
      <trkpt lat="43.083880" lon="-5.215280">
        <ele>1475.997</ele>
        <time>2020-05-22T06:58:52Z</time>
      </trkpt>
      <trkpt lat="43.082980" lon="-5.215150">
        <ele>1470.552</ele>
        <time>2020-05-22T06:59:12Z</time>
      </trkpt>
      <trkpt lat="43.082970" lon="-5.215150">
        <ele>1470.469</ele>
        <time>2020-05-22T06:59:32Z</time>
      </trkpt>
      <trkpt lat="43.082800" lon="-5.215140">
        <ele>1469.275</ele>
        <time>2020-05-22T06:59:52Z</time>
      </trkpt>
      <trkpt lat="43.082650" lon="-5.215150">
        <ele>1468.594</ele>
        <time>2020-05-22T07:00:12Z</time>
      </trkpt>
      <trkpt lat="43.082480" lon="-5.215170">
        <ele>1467.931</ele>
        <time>2020-05-22T07:00:32Z</time>
      </trkpt>
      <trkpt lat="43.082170" lon="-5.215200">
        <ele>1466.686</ele>
        <time>2020-05-22T07:00:52Z</time>
      </trkpt>
      <trkpt lat="43.082090" lon="-5.215210">
        <ele>1466.270</ele>
        <time>2020-05-22T07:01:12Z</time>
      </trkpt>
      <trkpt lat="43.082040" lon="-5.215210">
        <ele>1466.114</ele>
        <time>2020-05-22T07:01:32Z</time>
      </trkpt>
      <trkpt lat="43.081940" lon="-5.215210">
        <ele>1465.954</ele>
        <time>2020-05-22T07:01:52Z</time>
      </trkpt>
      <trkpt lat="43.081860" lon="-5.215190">
        <ele>1465.309</ele>
        <time>2020-05-22T07:02:12Z</time>
      </trkpt>
      <trkpt lat="43.081770" lon="-5.215160">
        <ele>1464.508</ele>
        <time>2020-05-22T07:02:32Z</time>
      </trkpt>
      <trkpt lat="43.081410" lon="-5.214930">
        <ele>1461.625</ele>
        <time>2020-05-22T07:02:52Z</time>
      </trkpt>
      <trkpt lat="43.080920" lon="-5.214620">
        <ele>1459.870</ele>
        <time>2020-05-22T07:03:12Z</time>
      </trkpt>
      <trkpt lat="43.080620" lon="-5.214430">
        <ele>1458.137</ele>
        <time>2020-05-22T07:03:32Z</time>
      </trkpt>
      <trkpt lat="43.080390" lon="-5.214280">
        <ele>1455.653</ele>
        <time>2020-05-22T07:03:52Z</time>
      </trkpt>
      <trkpt lat="43.080260" lon="-5.214210">
        <ele>1454.192</ele>
        <time>2020-05-22T07:04:12Z</time>
      </trkpt>
      <trkpt lat="43.080170" lon="-5.214160">
        <ele>1453.529</ele>
        <time>2020-05-22T07:04:32Z</time>
      </trkpt>
      <trkpt lat="43.080030" lon="-5.214100">
        <ele>1452.674</ele>
        <time>2020-05-22T07:04:52Z</time>
      </trkpt>
      <trkpt lat="43.079930" lon="-5.214080">
        <ele>1451.818</ele>
        <time>2020-05-22T07:05:12Z</time>
      </trkpt>
      <trkpt lat="43.079810" lon="-5.214060">
        <ele>1450.914</ele>
        <time>2020-05-22T07:05:32Z</time>
      </trkpt>
      <trkpt lat="43.079710" lon="-5.214030">
        <ele>1450.354</ele>
        <time>2020-05-22T07:05:52Z</time>
      </trkpt>
      <trkpt lat="43.079600" lon="-5.214030">
        <ele>1449.409</ele>
        <time>2020-05-22T07:06:12Z</time>
      </trkpt>
      <trkpt lat="43.079450" lon="-5.214030">
        <ele>1448.008</ele>
        <time>2020-05-22T07:06:32Z</time>
      </trkpt>
      <trkpt lat="43.079260" lon="-5.214060">
        <ele>1447.565</ele>
        <time>2020-05-22T07:06:52Z</time>
      </trkpt>
      <trkpt lat="43.079200" lon="-5.214070">
        <ele>1447.410</ele>
        <time>2020-05-22T07:07:12Z</time>
      </trkpt>
      <trkpt lat="43.077540" lon="-5.214440">
        <ele>1434.387</ele>
        <time>2020-05-22T07:07:32Z</time>
      </trkpt>
      <trkpt lat="43.077080" lon="-5.214570">
        <ele>1430.273</ele>
        <time>2020-05-22T07:07:52Z</time>
      </trkpt>
      <trkpt lat="43.077030" lon="-5.214580">
        <ele>1429.542</ele>
        <time>2020-05-22T07:08:12Z</time>
      </trkpt>
      <trkpt lat="43.076900" lon="-5.214600">
        <ele>1427.959</ele>
        <time>2020-05-22T07:08:32Z</time>
      </trkpt>
      <trkpt lat="43.076780" lon="-5.214600">
        <ele>1427.064</ele>
        <time>2020-05-22T07:08:52Z</time>
      </trkpt>
      <trkpt lat="43.076720" lon="-5.214600">
        <ele>1426.668</ele>
        <time>2020-05-22T07:09:12Z</time>
      </trkpt>
      <trkpt lat="43.076650" lon="-5.214590">
        <ele>1426.212</ele>
        <time>2020-05-22T07:09:32Z</time>
      </trkpt>
      <trkpt lat="43.076530" lon="-5.214560">
        <ele>1425.232</ele>
        <time>2020-05-22T07:09:52Z</time>
      </trkpt>
      <trkpt lat="43.076380" lon="-5.214480">
        <ele>1424.305</ele>
        <time>2020-05-22T07:10:12Z</time>
      </trkpt>
      <trkpt lat="43.076280" lon="-5.214400">
        <ele>1423.808</ele>
        <time>2020-05-22T07:10:32Z</time>
      </trkpt>
      <trkpt lat="43.076110" lon="-5.214240">
        <ele>1422.925</ele>
        <time>2020-05-22T07:10:52Z</time>
      </trkpt>
      <trkpt lat="43.075680" lon="-5.213700">
        <ele>1420.620</ele>
        <time>2020-05-22T07:11:12Z</time>
      </trkpt>
      <trkpt lat="43.074350" lon="-5.212040">
        <ele>1405.577</ele>
        <time>2020-05-22T07:11:32Z</time>
      </trkpt>
      <trkpt lat="43.074220" lon="-5.211880">
        <ele>1404.373</ele>
        <time>2020-05-22T07:11:52Z</time>
      </trkpt>
      <trkpt lat="43.074200" lon="-5.211860">
        <ele>1404.082</ele>
        <time>2020-05-22T07:12:12Z</time>
      </trkpt>
      <trkpt lat="43.073970" lon="-5.211510">
        <ele>1401.989</ele>
        <time>2020-05-22T07:12:32Z</time>
      </trkpt>
      <trkpt lat="43.073720" lon="-5.211160">
        <ele>1398.984</ele>
        <time>2020-05-22T07:12:52Z</time>
      </trkpt>
      <trkpt lat="43.073340" lon="-5.210640">
        <ele>1394.868</ele>
        <time>2020-05-22T07:13:12Z</time>
      </trkpt>
      <trkpt lat="43.073230" lon="-5.210490">
        <ele>1393.288</ele>
        <time>2020-05-22T07:13:32Z</time>
      </trkpt>
      <trkpt lat="43.072950" lon="-5.209950">
        <ele>1389.024</ele>
        <time>2020-05-22T07:13:52Z</time>
      </trkpt>
      <trkpt lat="43.072910" lon="-5.209850">
        <ele>1388.726</ele>
        <time>2020-05-22T07:14:12Z</time>
      </trkpt>
      <trkpt lat="43.072820" lon="-5.209630">
        <ele>1387.808</ele>
        <time>2020-05-22T07:14:32Z</time>
      </trkpt>
      <trkpt lat="43.072820" lon="-5.209610">
        <ele>1387.892</ele>
        <time>2020-05-22T07:14:52Z</time>
      </trkpt>
      <trkpt lat="43.072730" lon="-5.209310">
        <ele>1385.757</ele>
        <time>2020-05-22T07:15:12Z</time>
      </trkpt>
      <trkpt lat="43.072680" lon="-5.209030">
        <ele>1384.174</ele>
        <time>2020-05-22T07:15:32Z</time>
      </trkpt>
      <trkpt lat="43.072670" lon="-5.208930">
        <ele>1383.680</ele>
        <time>2020-05-22T07:15:52Z</time>
      </trkpt>
      <trkpt lat="43.072650" lon="-5.208690">
        <ele>1382.519</ele>
        <time>2020-05-22T07:16:12Z</time>
      </trkpt>
      <trkpt lat="43.072650" lon="-5.208660">
        <ele>1382.426</ele>
        <time>2020-05-22T07:16:32Z</time>
      </trkpt>
      <trkpt lat="43.072650" lon="-5.208360">
        <ele>1381.311</ele>
        <time>2020-05-22T07:16:52Z</time>
      </trkpt>
      <trkpt lat="43.072660" lon="-5.208080">
        <ele>1380.065</ele>
        <time>2020-05-22T07:17:12Z</time>
      </trkpt>
      <trkpt lat="43.072760" lon="-5.207470">
        <ele>1377.441</ele>
        <time>2020-05-22T07:17:32Z</time>
      </trkpt>
      <trkpt lat="43.072800" lon="-5.207230">
        <ele>1375.581</ele>
        <time>2020-05-22T07:17:52Z</time>
      </trkpt>
      <trkpt lat="43.072880" lon="-5.206750">
        <ele>1371.709</ele>
        <time>2020-05-22T07:18:12Z</time>
      </trkpt>
      <trkpt lat="43.072910" lon="-5.206610">
        <ele>1370.608</ele>
        <time>2020-05-22T07:18:32Z</time>
      </trkpt>
      <trkpt lat="43.072920" lon="-5.206510">
        <ele>1370.268</ele>
        <time>2020-05-22T07:18:52Z</time>
      </trkpt>
      <trkpt lat="43.072930" lon="-5.206400">
        <ele>1369.863</ele>
        <time>2020-05-22T07:19:12Z</time>
      </trkpt>
      <trkpt lat="43.072940" lon="-5.206240">
        <ele>1370.570</ele>
        <time>2020-05-22T07:19:32Z</time>
      </trkpt>
      <trkpt lat="43.072920" lon="-5.206070">
        <ele>1370.816</ele>
        <time>2020-05-22T07:19:52Z</time>
      </trkpt>
      <trkpt lat="43.072910" lon="-5.206020">
        <ele>1370.825</ele>
        <time>2020-05-22T07:20:12Z</time>
      </trkpt>
      <trkpt lat="43.072850" lon="-5.205850">
        <ele>1370.072</ele>
        <time>2020-05-22T07:20:32Z</time>
      </trkpt>
      <trkpt lat="43.072830" lon="-5.205800">
        <ele>1369.737</ele>
        <time>2020-05-22T07:20:52Z</time>
      </trkpt>
      <trkpt lat="43.072740" lon="-5.205590">
        <ele>1367.781</ele>
        <time>2020-05-22T07:21:12Z</time>
      </trkpt>
      <trkpt lat="43.072180" lon="-5.204250">
        <ele>1358.325</ele>
        <time>2020-05-22T07:21:32Z</time>
      </trkpt>
      <trkpt lat="43.072040" lon="-5.203930">
        <ele>1354.426</ele>
        <time>2020-05-22T07:21:52Z</time>
      </trkpt>
      <trkpt lat="43.072030" lon="-5.203880">
        <ele>1354.208</ele>
        <time>2020-05-22T07:22:12Z</time>
      </trkpt>
      <trkpt lat="43.071990" lon="-5.203750">
        <ele>1353.608</ele>
        <time>2020-05-22T07:22:32Z</time>
      </trkpt>
      <trkpt lat="43.071960" lon="-5.203650">
        <ele>1353.276</ele>
        <time>2020-05-22T07:22:52Z</time>
      </trkpt>
      <trkpt lat="43.071940" lon="-5.203550">
        <ele>1353.161</ele>
        <time>2020-05-22T07:23:12Z</time>
      </trkpt>
      <trkpt lat="43.071910" lon="-5.203360">
        <ele>1353.088</ele>
        <time>2020-05-22T07:23:32Z</time>
      </trkpt>
      <trkpt lat="43.071880" lon="-5.203210">
        <ele>1353.054</ele>
        <time>2020-05-22T07:23:52Z</time>
      </trkpt>
      <trkpt lat="43.071860" lon="-5.203130">
        <ele>1353.013</ele>
        <time>2020-05-22T07:24:12Z</time>
      </trkpt>
      <trkpt lat="43.071720" lon="-5.202730">
        <ele>1350.220</ele>
        <time>2020-05-22T07:24:32Z</time>
      </trkpt>
      <trkpt lat="43.071620" lon="-5.202440">
        <ele>1347.215</ele>
        <time>2020-05-22T07:24:52Z</time>
      </trkpt>
      <trkpt lat="43.071580" lon="-5.202360">
        <ele>1346.599</ele>
        <time>2020-05-22T07:25:12Z</time>
      </trkpt>
      <trkpt lat="43.071540" lon="-5.202300">
        <ele>1345.712</ele>
        <time>2020-05-22T07:25:32Z</time>
      </trkpt>
      <trkpt lat="43.071480" lon="-5.202220">
        <ele>1344.332</ele>
        <time>2020-05-22T07:25:52Z</time>
      </trkpt>
      <trkpt lat="43.071450" lon="-5.202170">
        <ele>1344.405</ele>
        <time>2020-05-22T07:26:12Z</time>
      </trkpt>
      <trkpt lat="43.071410" lon="-5.202090">
        <ele>1344.508</ele>
        <time>2020-05-22T07:26:32Z</time>
      </trkpt>
      <trkpt lat="43.071350" lon="-5.201970">
        <ele>1344.575</ele>
        <time>2020-05-22T07:26:52Z</time>
      </trkpt>
      <trkpt lat="43.071290" lon="-5.201850">
        <ele>1344.160</ele>
        <time>2020-05-22T07:27:12Z</time>
      </trkpt>
      <trkpt lat="43.070810" lon="-5.200610">
        <ele>1334.587</ele>
        <time>2020-05-22T07:27:32Z</time>
      </trkpt>
      <trkpt lat="43.070730" lon="-5.200400">
        <ele>1333.393</ele>
        <time>2020-05-22T07:27:52Z</time>
      </trkpt>
      <trkpt lat="43.070680" lon="-5.200270">
        <ele>1332.742</ele>
        <time>2020-05-22T07:28:12Z</time>
      </trkpt>
      <trkpt lat="43.070590" lon="-5.199990">
        <ele>1332.519</ele>
        <time>2020-05-22T07:28:32Z</time>
      </trkpt>
      <trkpt lat="43.070560" lon="-5.199850">
        <ele>1332.084</ele>
        <time>2020-05-22T07:28:52Z</time>
      </trkpt>
      <trkpt lat="43.070550" lon="-5.199710">
        <ele>1331.778</ele>
        <time>2020-05-22T07:29:12Z</time>
      </trkpt>
      <trkpt lat="43.070560" lon="-5.199630">
        <ele>1331.096</ele>
        <time>2020-05-22T07:29:32Z</time>
      </trkpt>
      <trkpt lat="43.070580" lon="-5.199510">
        <ele>1330.031</ele>
        <time>2020-05-22T07:29:52Z</time>
      </trkpt>
      <trkpt lat="43.070700" lon="-5.199080">
        <ele>1327.524</ele>
        <time>2020-05-22T07:30:12Z</time>
      </trkpt>
      <trkpt lat="43.070720" lon="-5.199010">
        <ele>1327.208</ele>
        <time>2020-05-22T07:30:32Z</time>
      </trkpt>
      <trkpt lat="43.070860" lon="-5.198590">
        <ele>1326.353</ele>
        <time>2020-05-22T07:30:52Z</time>
      </trkpt>
      <trkpt lat="43.070880" lon="-5.198570">
        <ele>1326.598</ele>
        <time>2020-05-22T07:31:12Z</time>
      </trkpt>
      <trkpt lat="43.070950" lon="-5.198420">
        <ele>1325.975</ele>
        <time>2020-05-22T07:31:32Z</time>
      </trkpt>
      <trkpt lat="43.070990" lon="-5.198360">
        <ele>1325.781</ele>
        <time>2020-05-22T07:31:52Z</time>
      </trkpt>
      <trkpt lat="43.071020" lon="-5.198320">
        <ele>1325.560</ele>
        <time>2020-05-22T07:32:12Z</time>
      </trkpt>
      <trkpt lat="43.071120" lon="-5.198220">
        <ele>1324.757</ele>
        <time>2020-05-22T07:32:32Z</time>
      </trkpt>
      <trkpt lat="43.071280" lon="-5.198070">
        <ele>1322.072</ele>
        <time>2020-05-22T07:32:52Z</time>
      </trkpt>
      <trkpt lat="43.071540" lon="-5.197820">
        <ele>1318.596</ele>
        <time>2020-05-22T07:33:12Z</time>
      </trkpt>
      <trkpt lat="43.072150" lon="-5.197160">
        <ele>1313.531</ele>
        <time>2020-05-22T07:33:32Z</time>
      </trkpt>
      <trkpt lat="43.072190" lon="-5.197110">
        <ele>1312.961</ele>
        <time>2020-05-22T07:33:52Z</time>
      </trkpt>
      <trkpt lat="43.072270" lon="-5.197010">
        <ele>1312.107</ele>
        <time>2020-05-22T07:34:12Z</time>
      </trkpt>
      <trkpt lat="43.072350" lon="-5.196880">
        <ele>1311.208</ele>
        <time>2020-05-22T07:34:32Z</time>
      </trkpt>
      <trkpt lat="43.072410" lon="-5.196700">
        <ele>1309.487</ele>
        <time>2020-05-22T07:34:52Z</time>
      </trkpt>
      <trkpt lat="43.072470" lon="-5.196530">
        <ele>1308.352</ele>
        <time>2020-05-22T07:35:12Z</time>
      </trkpt>
      <trkpt lat="43.072470" lon="-5.196490">
        <ele>1308.119</ele>
        <time>2020-05-22T07:35:32Z</time>
      </trkpt>
      <trkpt lat="43.072490" lon="-5.196410">
        <ele>1307.945</ele>
        <time>2020-05-22T07:35:52Z</time>
      </trkpt>
      <trkpt lat="43.072490" lon="-5.196250">
        <ele>1307.884</ele>
        <time>2020-05-22T07:36:12Z</time>
      </trkpt>
      <trkpt lat="43.072480" lon="-5.196010">
        <ele>1307.961</ele>
        <time>2020-05-22T07:36:32Z</time>
      </trkpt>
      <trkpt lat="43.072480" lon="-5.196000">
        <ele>1307.916</ele>
        <time>2020-05-22T07:36:52Z</time>
      </trkpt>
      <trkpt lat="43.072460" lon="-5.195830">
        <ele>1308.140</ele>
        <time>2020-05-22T07:37:12Z</time>
      </trkpt>
      <trkpt lat="43.072410" lon="-5.195680">
        <ele>1309.523</ele>
        <time>2020-05-22T07:37:32Z</time>
      </trkpt>
      <trkpt lat="43.072350" lon="-5.195560">
        <ele>1309.583</ele>
        <time>2020-05-22T07:37:52Z</time>
      </trkpt>
      <trkpt lat="43.072340" lon="-5.195550">
        <ele>1309.311</ele>
        <time>2020-05-22T07:38:12Z</time>
      </trkpt>
      <trkpt lat="43.072230" lon="-5.195380">
        <ele>1308.408</ele>
        <time>2020-05-22T07:38:32Z</time>
      </trkpt>
      <trkpt lat="43.072120" lon="-5.195210">
        <ele>1308.066</ele>
        <time>2020-05-22T07:38:52Z</time>
      </trkpt>
      <trkpt lat="43.072030" lon="-5.195060">
        <ele>1307.931</ele>
        <time>2020-05-22T07:39:12Z</time>
      </trkpt>
      <trkpt lat="43.072000" lon="-5.194980">
        <ele>1308.278</ele>
        <time>2020-05-22T07:39:32Z</time>
      </trkpt>
      <trkpt lat="43.071950" lon="-5.194850">
        <ele>1307.184</ele>
        <time>2020-05-22T07:39:52Z</time>
      </trkpt>
      <trkpt lat="43.071930" lon="-5.194760">
        <ele>1306.793</ele>
        <time>2020-05-22T07:40:12Z</time>
      </trkpt>
      <trkpt lat="43.071920" lon="-5.194700">
        <ele>1306.690</ele>
        <time>2020-05-22T07:40:32Z</time>
      </trkpt>
      <trkpt lat="43.071890" lon="-5.194560">
        <ele>1306.765</ele>
        <time>2020-05-22T07:40:52Z</time>
      </trkpt>
      <trkpt lat="43.071890" lon="-5.194520">
        <ele>1306.939</ele>
        <time>2020-05-22T07:41:12Z</time>
      </trkpt>
      <trkpt lat="43.071860" lon="-5.194320">
        <ele>1306.041</ele>
        <time>2020-05-22T07:41:32Z</time>
      </trkpt>
      <trkpt lat="43.071830" lon="-5.194150">
        <ele>1304.881</ele>
        <time>2020-05-22T07:41:52Z</time>
      </trkpt>
      <trkpt lat="43.071810" lon="-5.194040">
        <ele>1304.509</ele>
        <time>2020-05-22T07:42:12Z</time>
      </trkpt>
      <trkpt lat="43.071790" lon="-5.193940">
        <ele>1304.308</ele>
        <time>2020-05-22T07:42:32Z</time>
      </trkpt>
      <trkpt lat="43.071710" lon="-5.193620">
        <ele>1305.458</ele>
        <time>2020-05-22T07:42:52Z</time>
      </trkpt>
      <trkpt lat="43.071640" lon="-5.193430">
        <ele>1306.143</ele>
        <time>2020-05-22T07:43:12Z</time>
      </trkpt>
      <trkpt lat="43.071610" lon="-5.193360">
        <ele>1306.560</ele>
        <time>2020-05-22T07:43:32Z</time>
      </trkpt>
      <trkpt lat="43.071550" lon="-5.193210">
        <ele>1306.466</ele>
        <time>2020-05-22T07:43:52Z</time>
      </trkpt>
      <trkpt lat="43.071510" lon="-5.193150">
        <ele>1306.185</ele>
        <time>2020-05-22T07:44:12Z</time>
      </trkpt>
      <trkpt lat="43.071450" lon="-5.193060">
        <ele>1305.532</ele>
        <time>2020-05-22T07:44:32Z</time>
      </trkpt>
      <trkpt lat="43.070980" lon="-5.192330">
        <ele>1301.997</ele>
        <time>2020-05-22T07:44:52Z</time>
      </trkpt>
      <trkpt lat="43.070860" lon="-5.192090">
        <ele>1300.771</ele>
        <time>2020-05-22T07:45:12Z</time>
      </trkpt>
      <trkpt lat="43.070790" lon="-5.191910">
        <ele>1300.368</ele>
        <time>2020-05-22T07:45:32Z</time>
      </trkpt>
      <trkpt lat="43.070750" lon="-5.191790">
        <ele>1299.942</ele>
        <time>2020-05-22T07:45:52Z</time>
      </trkpt>
      <trkpt lat="43.070710" lon="-5.191650">
        <ele>1299.426</ele>
        <time>2020-05-22T07:46:12Z</time>
      </trkpt>
      <trkpt lat="43.070690" lon="-5.191560">
        <ele>1299.108</ele>
        <time>2020-05-22T07:46:32Z</time>
      </trkpt>
      <trkpt lat="43.070690" lon="-5.191520">
        <ele>1299.290</ele>
        <time>2020-05-22T07:46:52Z</time>
      </trkpt>
      <trkpt lat="43.070670" lon="-5.191420">
        <ele>1298.895</ele>
        <time>2020-05-22T07:47:12Z</time>
      </trkpt>
      <trkpt lat="43.070560" lon="-5.190590">
        <ele>1296.122</ele>
        <time>2020-05-22T07:47:32Z</time>
      </trkpt>
      <trkpt lat="43.070530" lon="-5.190350">
        <ele>1295.758</ele>
        <time>2020-05-22T07:47:52Z</time>
      </trkpt>
      <trkpt lat="43.070500" lon="-5.190110">
        <ele>1295.247</ele>
        <time>2020-05-22T07:48:12Z</time>
      </trkpt>
      <trkpt lat="43.070470" lon="-5.189860">
        <ele>1294.894</ele>
        <time>2020-05-22T07:48:32Z</time>
      </trkpt>
      <trkpt lat="43.070400" lon="-5.189330">
        <ele>1294.619</ele>
        <time>2020-05-22T07:48:52Z</time>
      </trkpt>
      <trkpt lat="43.070310" lon="-5.188400">
        <ele>1295.033</ele>
        <time>2020-05-22T07:49:12Z</time>
      </trkpt>
      <trkpt lat="43.070230" lon="-5.187670">
        <ele>1293.568</ele>
        <time>2020-05-22T07:49:32Z</time>
      </trkpt>
      <trkpt lat="43.070220" lon="-5.187520">
        <ele>1293.542</ele>
        <time>2020-05-22T07:49:52Z</time>
      </trkpt>
      <trkpt lat="43.070220" lon="-5.187270">
        <ele>1293.226</ele>
        <time>2020-05-22T07:50:12Z</time>
      </trkpt>
      <trkpt lat="43.070220" lon="-5.187180">
        <ele>1293.008</ele>
        <time>2020-05-22T07:50:32Z</time>
      </trkpt>
      <trkpt lat="43.070220" lon="-5.187050">
        <ele>1292.730</ele>
        <time>2020-05-22T07:50:52Z</time>
      </trkpt>
      <trkpt lat="43.070230" lon="-5.186830">
        <ele>1292.045</ele>
        <time>2020-05-22T07:51:12Z</time>
      </trkpt>
      <trkpt lat="43.070320" lon="-5.185920">
        <ele>1288.932</ele>
        <time>2020-05-22T07:51:32Z</time>
      </trkpt>
      <trkpt lat="43.070350" lon="-5.185730">
        <ele>1288.728</ele>
        <time>2020-05-22T07:51:52Z</time>
      </trkpt>
      <trkpt lat="43.070370" lon="-5.185560">
        <ele>1288.347</ele>
        <time>2020-05-22T07:52:12Z</time>
      </trkpt>
      <trkpt lat="43.070370" lon="-5.185470">
        <ele>1287.984</ele>
        <time>2020-05-22T07:52:32Z</time>
      </trkpt>
      <trkpt lat="43.070380" lon="-5.185440">
        <ele>1287.989</ele>
        <time>2020-05-22T07:52:52Z</time>
      </trkpt>
      <trkpt lat="43.070370" lon="-5.185320">
        <ele>1287.273</ele>
        <time>2020-05-22T07:53:12Z</time>
      </trkpt>
      <trkpt lat="43.070350" lon="-5.185190">
        <ele>1286.517</ele>
        <time>2020-05-22T07:53:32Z</time>
      </trkpt>
      <trkpt lat="43.070250" lon="-5.184760">
        <ele>1283.987</ele>
        <time>2020-05-22T07:53:52Z</time>
      </trkpt>
      <trkpt lat="43.070190" lon="-5.184530">
        <ele>1283.115</ele>
        <time>2020-05-22T07:54:12Z</time>
      </trkpt>
      <trkpt lat="43.070140" lon="-5.184290">
        <ele>1282.508</ele>
        <time>2020-05-22T07:54:32Z</time>
      </trkpt>
      <trkpt lat="43.069970" lon="-5.183590">
        <ele>1282.675</ele>
        <time>2020-05-22T07:54:52Z</time>
      </trkpt>
      <trkpt lat="43.069640" lon="-5.182180">
        <ele>1278.350</ele>
        <time>2020-05-22T07:55:12Z</time>
      </trkpt>
      <trkpt lat="43.069350" lon="-5.180940">
        <ele>1276.377</ele>
        <time>2020-05-22T07:55:32Z</time>
      </trkpt>
      <trkpt lat="43.069320" lon="-5.180820">
        <ele>1275.883</ele>
        <time>2020-05-22T07:55:52Z</time>
      </trkpt>
      <trkpt lat="43.069290" lon="-5.180670">
        <ele>1275.592</ele>
        <time>2020-05-22T07:56:12Z</time>
      </trkpt>
      <trkpt lat="43.069280" lon="-5.180530">
        <ele>1275.659</ele>
        <time>2020-05-22T07:56:32Z</time>
      </trkpt>
      <trkpt lat="43.069280" lon="-5.180520">
        <ele>1275.624</ele>
        <time>2020-05-22T07:56:52Z</time>
      </trkpt>
      <trkpt lat="43.069270" lon="-5.180380">
        <ele>1275.378</ele>
        <time>2020-05-22T07:57:12Z</time>
      </trkpt>
      <trkpt lat="43.069270" lon="-5.180290">
        <ele>1275.218</ele>
        <time>2020-05-22T07:57:32Z</time>
      </trkpt>
      <trkpt lat="43.069270" lon="-5.180170">
        <ele>1275.198</ele>
        <time>2020-05-22T07:57:52Z</time>
      </trkpt>
      <trkpt lat="43.069280" lon="-5.180040">
        <ele>1275.117</ele>
        <time>2020-05-22T07:58:12Z</time>
      </trkpt>
      <trkpt lat="43.069310" lon="-5.178810">
        <ele>1275.808</ele>
        <time>2020-05-22T07:58:32Z</time>
      </trkpt>
      <trkpt lat="43.069330" lon="-5.178070">
        <ele>1273.665</ele>
        <time>2020-05-22T07:58:52Z</time>
      </trkpt>
      <trkpt lat="43.069330" lon="-5.177830">
        <ele>1273.190</ele>
        <time>2020-05-22T07:59:12Z</time>
      </trkpt>
      <trkpt lat="43.069340" lon="-5.177330">
        <ele>1273.447</ele>
        <time>2020-05-22T07:59:32Z</time>
      </trkpt>
      <trkpt lat="43.069370" lon="-5.176100">
        <ele>1268.613</ele>
        <time>2020-05-22T07:59:52Z</time>
      </trkpt>
      <trkpt lat="43.069370" lon="-5.175860">
        <ele>1268.172</ele>
        <time>2020-05-22T08:00:12Z</time>
      </trkpt>
      <trkpt lat="43.069370" lon="-5.175840">
        <ele>1268.179</ele>
        <time>2020-05-22T08:00:32Z</time>
      </trkpt>
      <trkpt lat="43.069380" lon="-5.175610">
        <ele>1268.854</ele>
        <time>2020-05-22T08:00:52Z</time>
      </trkpt>
      <trkpt lat="43.069380" lon="-5.174890">
        <ele>1269.158</ele>
        <time>2020-05-22T08:01:12Z</time>
      </trkpt>
      <trkpt lat="43.069380" lon="-5.174560">
        <ele>1269.224</ele>
        <time>2020-05-22T08:01:32Z</time>
      </trkpt>
      <trkpt lat="43.069390" lon="-5.174380">
        <ele>1269.504</ele>
        <time>2020-05-22T08:01:52Z</time>
      </trkpt>
      <trkpt lat="43.069390" lon="-5.174290">
        <ele>1269.514</ele>
        <time>2020-05-22T08:02:12Z</time>
      </trkpt>
      <trkpt lat="43.069420" lon="-5.174060">
        <ele>1270.808</ele>
        <time>2020-05-22T08:02:32Z</time>
      </trkpt>
      <trkpt lat="43.069450" lon="-5.173800">
        <ele>1271.096</ele>
        <time>2020-05-22T08:02:52Z</time>
      </trkpt>
      <trkpt lat="43.069500" lon="-5.173510">
        <ele>1269.481</ele>
        <time>2020-05-22T08:03:12Z</time>
      </trkpt>
      <trkpt lat="43.069560" lon="-5.173190">
        <ele>1269.288</ele>
        <time>2020-05-22T08:03:32Z</time>
      </trkpt>
      <trkpt lat="43.069570" lon="-5.173180">
        <ele>1269.594</ele>
        <time>2020-05-22T08:03:52Z</time>
      </trkpt>
      <trkpt lat="43.069640" lon="-5.172830">
        <ele>1268.983</ele>
        <time>2020-05-22T08:04:12Z</time>
      </trkpt>
      <trkpt lat="43.069760" lon="-5.172490">
        <ele>1267.520</ele>
        <time>2020-05-22T08:04:32Z</time>
      </trkpt>
      <trkpt lat="43.069830" lon="-5.172260">
        <ele>1266.215</ele>
        <time>2020-05-22T08:04:52Z</time>
      </trkpt>
      <trkpt lat="43.069980" lon="-5.171810">
        <ele>1265.879</ele>
        <time>2020-05-22T08:05:12Z</time>
      </trkpt>
      <trkpt lat="43.070050" lon="-5.171590">
        <ele>1266.528</ele>
        <time>2020-05-22T08:05:32Z</time>
      </trkpt>
      <trkpt lat="43.070420" lon="-5.170470">
        <ele>1271.589</ele>
        <time>2020-05-22T08:05:52Z</time>
      </trkpt>
      <trkpt lat="43.070500" lon="-5.170240">
        <ele>1271.717</ele>
        <time>2020-05-22T08:06:12Z</time>
      </trkpt>
      <trkpt lat="43.070570" lon="-5.170020">
        <ele>1271.308</ele>
        <time>2020-05-22T08:06:32Z</time>
      </trkpt>
      <trkpt lat="43.071180" lon="-5.168170">
        <ele>1271.236</ele>
        <time>2020-05-22T08:06:52Z</time>
      </trkpt>
      <trkpt lat="43.071480" lon="-5.167380">
        <ele>1269.711</ele>
        <time>2020-05-22T08:07:12Z</time>
      </trkpt>
      <trkpt lat="43.071560" lon="-5.167120">
        <ele>1269.238</ele>
        <time>2020-05-22T08:07:32Z</time>
      </trkpt>
      <trkpt lat="43.071580" lon="-5.167080">
        <ele>1269.544</ele>
        <time>2020-05-22T08:07:52Z</time>
      </trkpt>
      <trkpt lat="43.071660" lon="-5.166760">
        <ele>1270.283</ele>
        <time>2020-05-22T08:08:12Z</time>
      </trkpt>
      <trkpt lat="43.071690" lon="-5.166570">
        <ele>1270.840</ele>
        <time>2020-05-22T08:08:32Z</time>
      </trkpt>
      <trkpt lat="43.071710" lon="-5.166390">
        <ele>1271.715</ele>
        <time>2020-05-22T08:08:52Z</time>
      </trkpt>
      <trkpt lat="43.071730" lon="-5.166170">
        <ele>1272.599</ele>
        <time>2020-05-22T08:09:12Z</time>
      </trkpt>
      <trkpt lat="43.071740" lon="-5.166080">
        <ele>1272.838</ele>
        <time>2020-05-22T08:09:32Z</time>
      </trkpt>
      <trkpt lat="43.071730" lon="-5.165930">
        <ele>1272.070</ele>
        <time>2020-05-22T08:09:52Z</time>
      </trkpt>
      <trkpt lat="43.071720" lon="-5.165840">
        <ele>1271.317</ele>
        <time>2020-05-22T08:10:12Z</time>
      </trkpt>
      <trkpt lat="43.071690" lon="-5.165770">
        <ele>1270.408</ele>
        <time>2020-05-22T08:10:32Z</time>
      </trkpt>
      <trkpt lat="43.071660" lon="-5.165700">
        <ele>1269.727</ele>
        <time>2020-05-22T08:10:52Z</time>
      </trkpt>
      <trkpt lat="43.071640" lon="-5.165660">
        <ele>1269.352</ele>
        <time>2020-05-22T08:11:12Z</time>
      </trkpt>
      <trkpt lat="43.071440" lon="-5.165310">
        <ele>1267.289</ele>
        <time>2020-05-22T08:11:32Z</time>
      </trkpt>
      <trkpt lat="43.071110" lon="-5.164720">
        <ele>1264.065</ele>
        <time>2020-05-22T08:11:52Z</time>
      </trkpt>
      <trkpt lat="43.071080" lon="-5.164670">
        <ele>1263.584</ele>
        <time>2020-05-22T08:12:12Z</time>
      </trkpt>
      <trkpt lat="43.071010" lon="-5.164540">
        <ele>1262.851</ele>
        <time>2020-05-22T08:12:32Z</time>
      </trkpt>
      <trkpt lat="43.071010" lon="-5.164520">
        <ele>1263.066</ele>
        <time>2020-05-22T08:12:52Z</time>
      </trkpt>
      <trkpt lat="43.070970" lon="-5.164430">
        <ele>1262.970</ele>
        <time>2020-05-22T08:13:12Z</time>
      </trkpt>
      <trkpt lat="43.070930" lon="-5.164320">
        <ele>1261.937</ele>
        <time>2020-05-22T08:13:32Z</time>
      </trkpt>
      <trkpt lat="43.070900" lon="-5.164180">
        <ele>1261.049</ele>
        <time>2020-05-22T08:13:52Z</time>
      </trkpt>
      <trkpt lat="43.070890" lon="-5.164070">
        <ele>1260.113</ele>
        <time>2020-05-22T08:14:12Z</time>
      </trkpt>
      <trkpt lat="43.070880" lon="-5.163970">
        <ele>1259.308</ele>
        <time>2020-05-22T08:14:32Z</time>
      </trkpt>
      <trkpt lat="43.070940" lon="-5.162770">
        <ele>1252.017</ele>
        <time>2020-05-22T08:14:52Z</time>
      </trkpt>
      <trkpt lat="43.070990" lon="-5.162410">
        <ele>1250.132</ele>
        <time>2020-05-22T08:15:12Z</time>
      </trkpt>
      <trkpt lat="43.071020" lon="-5.162260">
        <ele>1248.829</ele>
        <time>2020-05-22T08:15:32Z</time>
      </trkpt>
      <trkpt lat="43.071050" lon="-5.162110">
        <ele>1248.175</ele>
        <time>2020-05-22T08:15:52Z</time>
      </trkpt>
      <trkpt lat="43.071060" lon="-5.162080">
        <ele>1248.244</ele>
        <time>2020-05-22T08:16:12Z</time>
      </trkpt>
      <trkpt lat="43.071130" lon="-5.161930">
        <ele>1249.111</ele>
        <time>2020-05-22T08:16:32Z</time>
      </trkpt>
      <trkpt lat="43.071290" lon="-5.161670">
        <ele>1247.656</ele>
        <time>2020-05-22T08:16:52Z</time>
      </trkpt>
      <trkpt lat="43.071400" lon="-5.161550">
        <ele>1246.790</ele>
        <time>2020-05-22T08:17:12Z</time>
      </trkpt>
      <trkpt lat="43.071410" lon="-5.161540">
        <ele>1246.873</ele>
        <time>2020-05-22T08:17:32Z</time>
      </trkpt>
      <trkpt lat="43.071510" lon="-5.161420">
        <ele>1246.385</ele>
        <time>2020-05-22T08:17:52Z</time>
      </trkpt>
      <trkpt lat="43.071660" lon="-5.161270">
        <ele>1245.413</ele>
        <time>2020-05-22T08:18:12Z</time>
      </trkpt>
      <trkpt lat="43.071760" lon="-5.161140">
        <ele>1245.208</ele>
        <time>2020-05-22T08:18:32Z</time>
      </trkpt>
      <trkpt lat="43.071820" lon="-5.161020">
        <ele>1244.471</ele>
        <time>2020-05-22T08:18:52Z</time>
      </trkpt>
      <trkpt lat="43.071870" lon="-5.160930">
        <ele>1243.976</ele>
        <time>2020-05-22T08:19:12Z</time>
      </trkpt>
      <trkpt lat="43.071910" lon="-5.160810">
        <ele>1242.533</ele>
        <time>2020-05-22T08:19:32Z</time>
      </trkpt>
      <trkpt lat="43.071950" lon="-5.160710">
        <ele>1242.199</ele>
        <time>2020-05-22T08:19:52Z</time>
      </trkpt>
      <trkpt lat="43.071960" lon="-5.160630">
        <ele>1241.168</ele>
        <time>2020-05-22T08:20:12Z</time>
      </trkpt>
      <trkpt lat="43.071970" lon="-5.160580">
        <ele>1240.655</ele>
        <time>2020-05-22T08:20:32Z</time>
      </trkpt>
      <trkpt lat="43.071990" lon="-5.160480">
        <ele>1240.610</ele>
        <time>2020-05-22T08:20:52Z</time>
      </trkpt>
      <trkpt lat="43.072000" lon="-5.160390">
        <ele>1240.414</ele>
        <time>2020-05-22T08:21:12Z</time>
      </trkpt>
      <trkpt lat="43.072010" lon="-5.160320">
        <ele>1240.246</ele>
        <time>2020-05-22T08:21:32Z</time>
      </trkpt>
      <trkpt lat="43.072020" lon="-5.160190">
        <ele>1239.188</ele>
        <time>2020-05-22T08:21:52Z</time>
      </trkpt>
      <trkpt lat="43.072040" lon="-5.160060">
        <ele>1237.916</ele>
        <time>2020-05-22T08:22:12Z</time>
      </trkpt>
      <trkpt lat="43.072070" lon="-5.159940">
        <ele>1237.408</ele>
        <time>2020-05-22T08:22:32Z</time>
      </trkpt>
      <trkpt lat="43.072090" lon="-5.159820">
        <ele>1237.238</ele>
        <time>2020-05-22T08:22:52Z</time>
      </trkpt>
      <trkpt lat="43.072120" lon="-5.159690">
        <ele>1236.713</ele>
        <time>2020-05-22T08:23:12Z</time>
      </trkpt>
      <trkpt lat="43.072130" lon="-5.159670">
        <ele>1236.520</ele>
        <time>2020-05-22T08:23:32Z</time>
      </trkpt>
      <trkpt lat="43.072150" lon="-5.159580">
        <ele>1235.526</ele>
        <time>2020-05-22T08:23:52Z</time>
      </trkpt>
      <trkpt lat="43.072310" lon="-5.159160">
        <ele>1232.195</ele>
        <time>2020-05-22T08:24:12Z</time>
      </trkpt>
      <trkpt lat="43.072380" lon="-5.159020">
        <ele>1231.372</ele>
        <time>2020-05-22T08:24:32Z</time>
      </trkpt>
      <trkpt lat="43.072430" lon="-5.158920">
        <ele>1230.437</ele>
        <time>2020-05-22T08:24:52Z</time>
      </trkpt>
      <trkpt lat="43.072470" lon="-5.158810">
        <ele>1229.691</ele>
        <time>2020-05-22T08:25:12Z</time>
      </trkpt>
      <trkpt lat="43.072520" lon="-5.158680">
        <ele>1228.781</ele>
        <time>2020-05-22T08:25:32Z</time>
      </trkpt>
      <trkpt lat="43.072550" lon="-5.158590">
        <ele>1227.961</ele>
        <time>2020-05-22T08:25:52Z</time>
      </trkpt>
      <trkpt lat="43.072570" lon="-5.158540">
        <ele>1227.617</ele>
        <time>2020-05-22T08:26:12Z</time>
      </trkpt>
      <trkpt lat="43.072620" lon="-5.158360">
        <ele>1227.008</ele>
        <time>2020-05-22T08:26:32Z</time>
      </trkpt>
      <trkpt lat="43.072660" lon="-5.158220">
        <ele>1226.682</ele>
        <time>2020-05-22T08:26:52Z</time>
      </trkpt>
      <trkpt lat="43.072710" lon="-5.158040">
        <ele>1226.267</ele>
        <time>2020-05-22T08:27:12Z</time>
      </trkpt>
      <trkpt lat="43.072730" lon="-5.157900">
        <ele>1225.834</ele>
        <time>2020-05-22T08:27:32Z</time>
      </trkpt>
      <trkpt lat="43.072740" lon="-5.157880">
        <ele>1225.950</ele>
        <time>2020-05-22T08:27:52Z</time>
      </trkpt>
      <trkpt lat="43.072750" lon="-5.157700">
        <ele>1225.199</ele>
        <time>2020-05-22T08:28:12Z</time>
      </trkpt>
      <trkpt lat="43.072760" lon="-5.157650">
        <ele>1224.996</ele>
        <time>2020-05-22T08:28:32Z</time>
      </trkpt>
      <trkpt lat="43.072770" lon="-5.157540">
        <ele>1224.251</ele>
        <time>2020-05-22T08:28:52Z</time>
      </trkpt>
      <trkpt lat="43.072760" lon="-5.157410">
        <ele>1223.535</ele>
        <time>2020-05-22T08:29:12Z</time>
      </trkpt>
      <trkpt lat="43.072760" lon="-5.157270">
        <ele>1223.045</ele>
        <time>2020-05-22T08:29:32Z</time>
      </trkpt>
      <trkpt lat="43.072730" lon="-5.156960">
        <ele>1223.147</ele>
        <time>2020-05-22T08:29:52Z</time>
      </trkpt>
      <trkpt lat="43.072720" lon="-5.156920">
        <ele>1223.211</ele>
        <time>2020-05-22T08:30:12Z</time>
      </trkpt>
      <trkpt lat="43.072700" lon="-5.156770">
        <ele>1223.408</ele>
        <time>2020-05-22T08:30:32Z</time>
      </trkpt>
      <trkpt lat="43.072680" lon="-5.156570">
        <ele>1224.898</ele>
        <time>2020-05-22T08:30:52Z</time>
      </trkpt>
      <trkpt lat="43.072670" lon="-5.156390">
        <ele>1226.853</ele>
        <time>2020-05-22T08:31:12Z</time>
      </trkpt>
      <trkpt lat="43.072650" lon="-5.156190">
        <ele>1228.040</ele>
        <time>2020-05-22T08:31:32Z</time>
      </trkpt>
      <trkpt lat="43.072640" lon="-5.156030">
        <ele>1228.516</ele>
        <time>2020-05-22T08:31:52Z</time>
      </trkpt>
      <trkpt lat="43.072640" lon="-5.155940">
        <ele>1228.565</ele>
        <time>2020-05-22T08:32:12Z</time>
      </trkpt>
      <trkpt lat="43.072640" lon="-5.155910">
        <ele>1228.542</ele>
        <time>2020-05-22T08:32:32Z</time>
      </trkpt>
      <trkpt lat="43.072640" lon="-5.155780">
        <ele>1228.657</ele>
        <time>2020-05-22T08:32:52Z</time>
      </trkpt>
      <trkpt lat="43.072650" lon="-5.155700">
        <ele>1228.791</ele>
        <time>2020-05-22T08:33:12Z</time>
      </trkpt>
      <trkpt lat="43.072650" lon="-5.155580">
        <ele>1228.996</ele>
        <time>2020-05-22T08:33:32Z</time>
      </trkpt>
      <trkpt lat="43.072670" lon="-5.155410">
        <ele>1229.331</ele>
        <time>2020-05-22T08:33:52Z</time>
      </trkpt>
      <trkpt lat="43.072690" lon="-5.155210">
        <ele>1229.724</ele>
        <time>2020-05-22T08:34:12Z</time>
      </trkpt>
      <trkpt lat="43.072690" lon="-5.155200">
        <ele>1229.708</ele>
        <time>2020-05-22T08:34:32Z</time>
      </trkpt>
      <trkpt lat="43.072720" lon="-5.155030">
        <ele>1229.643</ele>
        <time>2020-05-22T08:34:52Z</time>
      </trkpt>
      <trkpt lat="43.072730" lon="-5.154970">
        <ele>1229.538</ele>
        <time>2020-05-22T08:35:12Z</time>
      </trkpt>
      <trkpt lat="43.072770" lon="-5.154770">
        <ele>1229.175</ele>
        <time>2020-05-22T08:35:32Z</time>
      </trkpt>
      <trkpt lat="43.072780" lon="-5.154730">
        <ele>1229.081</ele>
        <time>2020-05-22T08:35:52Z</time>
      </trkpt>
      <trkpt lat="43.072810" lon="-5.154510">
        <ele>1229.050</ele>
        <time>2020-05-22T08:36:12Z</time>
      </trkpt>
      <trkpt lat="43.072810" lon="-5.154490">
        <ele>1229.057</ele>
        <time>2020-05-22T08:36:32Z</time>
      </trkpt>
      <trkpt lat="43.072820" lon="-5.154290">
        <ele>1229.122</ele>
        <time>2020-05-22T08:36:52Z</time>
      </trkpt>
      <trkpt lat="43.072820" lon="-5.154240">
        <ele>1229.286</ele>
        <time>2020-05-22T08:37:12Z</time>
      </trkpt>
      <trkpt lat="43.072810" lon="-5.154020">
        <ele>1229.531</ele>
        <time>2020-05-22T08:37:32Z</time>
      </trkpt>
      <trkpt lat="43.072780" lon="-5.153500">
        <ele>1228.661</ele>
        <time>2020-05-22T08:37:52Z</time>
      </trkpt>
      <trkpt lat="43.072660" lon="-5.151540">
        <ele>1223.607</ele>
        <time>2020-05-22T08:38:12Z</time>
      </trkpt>
      <trkpt lat="43.072640" lon="-5.151240">
        <ele>1222.708</ele>
        <time>2020-05-22T08:38:32Z</time>
      </trkpt>
      <trkpt lat="43.072600" lon="-5.150710">
        <ele>1221.187</ele>
        <time>2020-05-22T08:38:52Z</time>
      </trkpt>
      <trkpt lat="43.072590" lon="-5.150560">
        <ele>1221.182</ele>
        <time>2020-05-22T08:39:12Z</time>
      </trkpt>
      <trkpt lat="43.072570" lon="-5.150430">
        <ele>1221.139</ele>
        <time>2020-05-22T08:39:32Z</time>
      </trkpt>
      <trkpt lat="43.072520" lon="-5.150160">
        <ele>1220.995</ele>
        <time>2020-05-22T08:39:52Z</time>
      </trkpt>
      <trkpt lat="43.072420" lon="-5.149940">
        <ele>1221.924</ele>
        <time>2020-05-22T08:40:12Z</time>
      </trkpt>
      <trkpt lat="43.072320" lon="-5.149800">
        <ele>1222.791</ele>
        <time>2020-05-22T08:40:32Z</time>
      </trkpt>
      <trkpt lat="43.072250" lon="-5.149730">
        <ele>1223.416</ele>
        <time>2020-05-22T08:40:52Z</time>
      </trkpt>
      <trkpt lat="43.072110" lon="-5.149580">
        <ele>1223.120</ele>
        <time>2020-05-22T08:41:12Z</time>
      </trkpt>
      <trkpt lat="43.071970" lon="-5.149430">
        <ele>1222.456</ele>
        <time>2020-05-22T08:41:32Z</time>
      </trkpt>
      <trkpt lat="43.071630" lon="-5.149070">
        <ele>1221.059</ele>
        <time>2020-05-22T08:41:52Z</time>
      </trkpt>
      <trkpt lat="43.071570" lon="-5.149010">
        <ele>1220.614</ele>
        <time>2020-05-22T08:42:12Z</time>
      </trkpt>
      <trkpt lat="43.071540" lon="-5.148990">
        <ele>1220.508</ele>
        <time>2020-05-22T08:42:32Z</time>
      </trkpt>
      <trkpt lat="43.071510" lon="-5.148970">
        <ele>1220.589</ele>
        <time>2020-05-22T08:42:52Z</time>
      </trkpt>
      <trkpt lat="43.071110" lon="-5.148750">
        <ele>1218.524</ele>
        <time>2020-05-22T08:43:12Z</time>
      </trkpt>
      <trkpt lat="43.071040" lon="-5.148700">
        <ele>1217.991</ele>
        <time>2020-05-22T08:43:32Z</time>
      </trkpt>
      <trkpt lat="43.071030" lon="-5.148690">
        <ele>1217.837</ele>
        <time>2020-05-22T08:43:52Z</time>
      </trkpt>
      <trkpt lat="43.070960" lon="-5.148640">
        <ele>1217.596</ele>
        <time>2020-05-22T08:44:12Z</time>
      </trkpt>
      <trkpt lat="43.070890" lon="-5.148560">
        <ele>1217.063</ele>
        <time>2020-05-22T08:44:32Z</time>
      </trkpt>
      <trkpt lat="43.070840" lon="-5.148480">
        <ele>1216.968</ele>
        <time>2020-05-22T08:44:52Z</time>
      </trkpt>
      <trkpt lat="43.070780" lon="-5.148340">
        <ele>1216.262</ele>
        <time>2020-05-22T08:45:12Z</time>
      </trkpt>
      <trkpt lat="43.070200" lon="-5.147010">
        <ele>1212.152</ele>
        <time>2020-05-22T08:45:32Z</time>
      </trkpt>
      <trkpt lat="43.070160" lon="-5.146880">
        <ele>1211.753</ele>
        <time>2020-05-22T08:45:52Z</time>
      </trkpt>
      <trkpt lat="43.070120" lon="-5.146750">
        <ele>1210.908</ele>
        <time>2020-05-22T08:46:12Z</time>
      </trkpt>
      <trkpt lat="43.070100" lon="-5.146640">
        <ele>1210.208</ele>
        <time>2020-05-22T08:46:32Z</time>
      </trkpt>
      <trkpt lat="43.070090" lon="-5.146530">
        <ele>1209.729</ele>
        <time>2020-05-22T08:46:52Z</time>
      </trkpt>
      <trkpt lat="43.070080" lon="-5.145410">
        <ele>1204.524</ele>
        <time>2020-05-22T08:47:12Z</time>
      </trkpt>
      <trkpt lat="43.070070" lon="-5.145160">
        <ele>1204.071</ele>
        <time>2020-05-22T08:47:32Z</time>
      </trkpt>
      <trkpt lat="43.070070" lon="-5.144460">
        <ele>1201.857</ele>
        <time>2020-05-22T08:47:52Z</time>
      </trkpt>
      <trkpt lat="43.070080" lon="-5.143930">
        <ele>1200.096</ele>
        <time>2020-05-22T08:48:12Z</time>
      </trkpt>
      <trkpt lat="43.070100" lon="-5.143440">
        <ele>1199.653</ele>
        <time>2020-05-22T08:48:32Z</time>
      </trkpt>
      <trkpt lat="43.070100" lon="-5.143190">
        <ele>1199.688</ele>
        <time>2020-05-22T08:48:52Z</time>
      </trkpt>
      <trkpt lat="43.070100" lon="-5.143180">
        <ele>1199.692</ele>
        <time>2020-05-22T08:49:12Z</time>
      </trkpt>
      <trkpt lat="43.070110" lon="-5.143010">
        <ele>1199.775</ele>
        <time>2020-05-22T08:49:32Z</time>
      </trkpt>
      <trkpt lat="43.070120" lon="-5.142950">
        <ele>1199.928</ele>
        <time>2020-05-22T08:49:52Z</time>
      </trkpt>
      <trkpt lat="43.070130" lon="-5.142590">
        <ele>1199.620</ele>
        <time>2020-05-22T08:50:12Z</time>
      </trkpt>
      <trkpt lat="43.070130" lon="-5.142550">
        <ele>1199.408</ele>
        <time>2020-05-22T08:50:32Z</time>
      </trkpt>
      <trkpt lat="43.070130" lon="-5.142510">
        <ele>1199.211</ele>
        <time>2020-05-22T08:50:52Z</time>
      </trkpt>
      <trkpt lat="43.070130" lon="-5.142490">
        <ele>1199.086</ele>
        <time>2020-05-22T08:51:12Z</time>
      </trkpt>
      <trkpt lat="43.070120" lon="-5.142460">
        <ele>1198.973</ele>
        <time>2020-05-22T08:51:32Z</time>
      </trkpt>
      <trkpt lat="43.070100" lon="-5.142390">
        <ele>1198.489</ele>
        <time>2020-05-22T08:51:52Z</time>
      </trkpt>
      <trkpt lat="43.070080" lon="-5.142350">
        <ele>1198.298</ele>
        <time>2020-05-22T08:52:12Z</time>
      </trkpt>
      <trkpt lat="43.070060" lon="-5.142320">
        <ele>1198.065</ele>
        <time>2020-05-22T08:52:32Z</time>
      </trkpt>
      <trkpt lat="43.070030" lon="-5.142300">
        <ele>1197.920</ele>
        <time>2020-05-22T08:52:52Z</time>
      </trkpt>
      <trkpt lat="43.069960" lon="-5.142250">
        <ele>1197.774</ele>
        <time>2020-05-22T08:53:12Z</time>
      </trkpt>
      <trkpt lat="43.069460" lon="-5.142020">
        <ele>1198.588</ele>
        <time>2020-05-22T08:53:32Z</time>
      </trkpt>
      <trkpt lat="43.069250" lon="-5.141930">
        <ele>1197.624</ele>
        <time>2020-05-22T08:53:52Z</time>
      </trkpt>
      <trkpt lat="43.068580" lon="-5.141870">
        <ele>1200.626</ele>
        <time>2020-05-22T08:54:12Z</time>
      </trkpt>
      <trkpt lat="43.068570" lon="-5.141870">
        <ele>1200.608</ele>
        <time>2020-05-22T08:54:32Z</time>
      </trkpt>
      <trkpt lat="43.068490" lon="-5.141860">
        <ele>1200.862</ele>
        <time>2020-05-22T08:54:52Z</time>
      </trkpt>
      <trkpt lat="43.068410" lon="-5.141840">
        <ele>1201.067</ele>
        <time>2020-05-22T08:55:12Z</time>
      </trkpt>
      <trkpt lat="43.068340" lon="-5.141810">
        <ele>1201.034</ele>
        <time>2020-05-22T08:55:32Z</time>
      </trkpt>
      <trkpt lat="43.068290" lon="-5.141780">
        <ele>1201.420</ele>
        <time>2020-05-22T08:55:52Z</time>
      </trkpt>
      <trkpt lat="43.068230" lon="-5.141750">
        <ele>1201.859</ele>
        <time>2020-05-22T08:56:12Z</time>
      </trkpt>
      <trkpt lat="43.068150" lon="-5.141700">
        <ele>1201.996</ele>
        <time>2020-05-22T08:56:32Z</time>
      </trkpt>
      <trkpt lat="43.068090" lon="-5.141650">
        <ele>1201.561</ele>
        <time>2020-05-22T08:56:52Z</time>
      </trkpt>
      <trkpt lat="43.068070" lon="-5.141640">
        <ele>1201.565</ele>
        <time>2020-05-22T08:57:12Z</time>
      </trkpt>
      <trkpt lat="43.068030" lon="-5.141590">
        <ele>1201.465</ele>
        <time>2020-05-22T08:57:32Z</time>
      </trkpt>
      <trkpt lat="43.067800" lon="-5.141310">
        <ele>1200.068</ele>
        <time>2020-05-22T08:57:52Z</time>
      </trkpt>
      <trkpt lat="43.067710" lon="-5.141180">
        <ele>1199.614</ele>
        <time>2020-05-22T08:58:12Z</time>
      </trkpt>
      <trkpt lat="43.067320" lon="-5.140590">
        <ele>1196.408</ele>
        <time>2020-05-22T08:58:32Z</time>
      </trkpt>
      <trkpt lat="43.066830" lon="-5.139700">
        <ele>1194.590</ele>
        <time>2020-05-22T08:58:52Z</time>
      </trkpt>
      <trkpt lat="43.066690" lon="-5.139390">
        <ele>1193.135</ele>
        <time>2020-05-22T08:59:12Z</time>
      </trkpt>
      <trkpt lat="43.066580" lon="-5.139120">
        <ele>1195.252</ele>
        <time>2020-05-22T08:59:32Z</time>
      </trkpt>
      <trkpt lat="43.066440" lon="-5.138730">
        <ele>1196.278</ele>
        <time>2020-05-22T08:59:52Z</time>
      </trkpt>
      <trkpt lat="43.066400" lon="-5.138650">
        <ele>1194.247</ele>
        <time>2020-05-22T09:00:12Z</time>
      </trkpt>
      <trkpt lat="43.066280" lon="-5.138300">
        <ele>1193.354</ele>
        <time>2020-05-22T09:00:32Z</time>
      </trkpt>
      <trkpt lat="43.066240" lon="-5.138050">
        <ele>1193.369</ele>
        <time>2020-05-22T09:00:52Z</time>
      </trkpt>
      <trkpt lat="43.066200" lon="-5.137790">
        <ele>1192.523</ele>
        <time>2020-05-22T09:01:12Z</time>
      </trkpt>
      <trkpt lat="43.066170" lon="-5.137640">
        <ele>1192.069</ele>
        <time>2020-05-22T09:01:32Z</time>
      </trkpt>
      <trkpt lat="43.066120" lon="-5.137480">
        <ele>1190.804</ele>
        <time>2020-05-22T09:01:52Z</time>
      </trkpt>
      <trkpt lat="43.066060" lon="-5.137330">
        <ele>1190.424</ele>
        <time>2020-05-22T09:02:12Z</time>
      </trkpt>
      <trkpt lat="43.066020" lon="-5.137270">
        <ele>1190.008</ele>
        <time>2020-05-22T09:02:32Z</time>
      </trkpt>
      <trkpt lat="43.065980" lon="-5.137210">
        <ele>1189.240</ele>
        <time>2020-05-22T09:02:52Z</time>
      </trkpt>
      <trkpt lat="43.065940" lon="-5.137180">
        <ele>1189.215</ele>
        <time>2020-05-22T09:03:12Z</time>
      </trkpt>
      <trkpt lat="43.065890" lon="-5.137170">
        <ele>1189.442</ele>
        <time>2020-05-22T09:03:32Z</time>
      </trkpt>
      <trkpt lat="43.065840" lon="-5.137170">
        <ele>1189.858</ele>
        <time>2020-05-22T09:03:52Z</time>
      </trkpt>
      <trkpt lat="43.065800" lon="-5.137170">
        <ele>1189.367</ele>
        <time>2020-05-22T09:04:12Z</time>
      </trkpt>
      <trkpt lat="43.065770" lon="-5.137180">
        <ele>1189.114</ele>
        <time>2020-05-22T09:04:32Z</time>
      </trkpt>
      <trkpt lat="43.065710" lon="-5.137210">
        <ele>1188.649</ele>
        <time>2020-05-22T09:04:52Z</time>
      </trkpt>
      <trkpt lat="43.065660" lon="-5.137240">
        <ele>1188.643</ele>
        <time>2020-05-22T09:05:12Z</time>
      </trkpt>
      <trkpt lat="43.065480" lon="-5.137340">
        <ele>1190.167</ele>
        <time>2020-05-22T09:05:32Z</time>
      </trkpt>
      <trkpt lat="43.065410" lon="-5.137360">
        <ele>1189.981</ele>
        <time>2020-05-22T09:05:52Z</time>
      </trkpt>
      <trkpt lat="43.065350" lon="-5.137390">
        <ele>1190.019</ele>
        <time>2020-05-22T09:06:12Z</time>
      </trkpt>
      <trkpt lat="43.065270" lon="-5.137400">
        <ele>1189.108</ele>
        <time>2020-05-22T09:06:32Z</time>
      </trkpt>
      <trkpt lat="43.065250" lon="-5.137410">
        <ele>1189.470</ele>
        <time>2020-05-22T09:06:52Z</time>
      </trkpt>
      <trkpt lat="43.065170" lon="-5.137410">
        <ele>1189.335</ele>
        <time>2020-05-22T09:07:12Z</time>
      </trkpt>
      <trkpt lat="43.064990" lon="-5.137380">
        <ele>1188.712</ele>
        <time>2020-05-22T09:07:32Z</time>
      </trkpt>
      <trkpt lat="43.064830" lon="-5.137360">
        <ele>1189.178</ele>
        <time>2020-05-22T09:07:52Z</time>
      </trkpt>
      <trkpt lat="43.064720" lon="-5.137380">
        <ele>1189.667</ele>
        <time>2020-05-22T09:08:12Z</time>
      </trkpt>
      <trkpt lat="43.064600" lon="-5.137390">
        <ele>1189.654</ele>
        <time>2020-05-22T09:08:32Z</time>
      </trkpt>
      <trkpt lat="43.064330" lon="-5.137490">
        <ele>1190.019</ele>
        <time>2020-05-22T09:08:52Z</time>
      </trkpt>
      <trkpt lat="43.064210" lon="-5.137550">
        <ele>1190.243</ele>
        <time>2020-05-22T09:09:12Z</time>
      </trkpt>
      <trkpt lat="43.064080" lon="-5.137620">
        <ele>1190.033</ele>
        <time>2020-05-22T09:09:32Z</time>
      </trkpt>
      <trkpt lat="43.063970" lon="-5.137660">
        <ele>1189.523</ele>
        <time>2020-05-22T09:09:52Z</time>
      </trkpt>
      <trkpt lat="43.063900" lon="-5.137680">
        <ele>1189.115</ele>
        <time>2020-05-22T09:10:12Z</time>
      </trkpt>
      <trkpt lat="43.063650" lon="-5.137760">
        <ele>1187.308</ele>
        <time>2020-05-22T09:10:32Z</time>
      </trkpt>
      <trkpt lat="43.063550" lon="-5.137790">
        <ele>1186.877</ele>
        <time>2020-05-22T09:10:52Z</time>
      </trkpt>
      <trkpt lat="43.063530" lon="-5.137800">
        <ele>1186.882</ele>
        <time>2020-05-22T09:11:12Z</time>
      </trkpt>
      <trkpt lat="43.063470" lon="-5.137820">
        <ele>1186.669</ele>
        <time>2020-05-22T09:11:32Z</time>
      </trkpt>
      <trkpt lat="43.063380" lon="-5.137880">
        <ele>1186.295</ele>
        <time>2020-05-22T09:11:52Z</time>
      </trkpt>
      <trkpt lat="43.063240" lon="-5.137970">
        <ele>1185.634</ele>
        <time>2020-05-22T09:12:12Z</time>
      </trkpt>
      <trkpt lat="43.063180" lon="-5.138010">
        <ele>1185.471</ele>
        <time>2020-05-22T09:12:32Z</time>
      </trkpt>
      <trkpt lat="43.063110" lon="-5.138030">
        <ele>1185.126</ele>
        <time>2020-05-22T09:12:52Z</time>
      </trkpt>
      <trkpt lat="43.063030" lon="-5.138050">
        <ele>1185.070</ele>
        <time>2020-05-22T09:13:12Z</time>
      </trkpt>
      <trkpt lat="43.062660" lon="-5.138120">
        <ele>1185.231</ele>
        <time>2020-05-22T09:13:32Z</time>
      </trkpt>
      <trkpt lat="43.061960" lon="-5.138280">
        <ele>1186.061</ele>
        <time>2020-05-22T09:13:52Z</time>
      </trkpt>
      <trkpt lat="43.061910" lon="-5.138290">
        <ele>1186.007</ele>
        <time>2020-05-22T09:14:12Z</time>
      </trkpt>
      <trkpt lat="43.061870" lon="-5.138300">
        <ele>1186.008</ele>
        <time>2020-05-22T09:14:32Z</time>
      </trkpt>
      <trkpt lat="43.061840" lon="-5.138300">
        <ele>1186.037</ele>
        <time>2020-05-22T09:14:52Z</time>
      </trkpt>
      <trkpt lat="43.061400" lon="-5.138340">
        <ele>1186.012</ele>
        <time>2020-05-22T09:15:12Z</time>
      </trkpt>
      <trkpt lat="43.061310" lon="-5.138340">
        <ele>1186.349</ele>
        <time>2020-05-22T09:15:32Z</time>
      </trkpt>
      <trkpt lat="43.061220" lon="-5.138310">
        <ele>1186.685</ele>
        <time>2020-05-22T09:15:52Z</time>
      </trkpt>
      <trkpt lat="43.061140" lon="-5.138280">
        <ele>1186.994</ele>
        <time>2020-05-22T09:16:12Z</time>
      </trkpt>
      <trkpt lat="43.061080" lon="-5.138250">
        <ele>1187.011</ele>
        <time>2020-05-22T09:16:32Z</time>
      </trkpt>
      <trkpt lat="43.061070" lon="-5.138240">
        <ele>1187.036</ele>
        <time>2020-05-22T09:16:52Z</time>
      </trkpt>
      <trkpt lat="43.061000" lon="-5.138200">
        <ele>1186.890</ele>
        <time>2020-05-22T09:17:12Z</time>
      </trkpt>
      <trkpt lat="43.060940" lon="-5.138150">
        <ele>1186.661</ele>
        <time>2020-05-22T09:17:32Z</time>
      </trkpt>
      <trkpt lat="43.060890" lon="-5.138100">
        <ele>1186.321</ele>
        <time>2020-05-22T09:17:52Z</time>
      </trkpt>
      <trkpt lat="43.060790" lon="-5.137950">
        <ele>1186.413</ele>
        <time>2020-05-22T09:18:12Z</time>
      </trkpt>
      <trkpt lat="43.060700" lon="-5.137760">
        <ele>1186.108</ele>
        <time>2020-05-22T09:18:32Z</time>
      </trkpt>
      <trkpt lat="43.060660" lon="-5.137660">
        <ele>1185.740</ele>
        <time>2020-05-22T09:18:52Z</time>
      </trkpt>
      <trkpt lat="43.060600" lon="-5.137490">
        <ele>1184.845</ele>
        <time>2020-05-22T09:19:12Z</time>
      </trkpt>
      <trkpt lat="43.060530" lon="-5.137320">
        <ele>1184.462</ele>
        <time>2020-05-22T09:19:32Z</time>
      </trkpt>
      <trkpt lat="43.060470" lon="-5.137180">
        <ele>1184.218</ele>
        <time>2020-05-22T09:19:52Z</time>
      </trkpt>
      <trkpt lat="43.060410" lon="-5.137040">
        <ele>1183.757</ele>
        <time>2020-05-22T09:20:12Z</time>
      </trkpt>
      <trkpt lat="43.060320" lon="-5.136850">
        <ele>1183.064</ele>
        <time>2020-05-22T09:20:32Z</time>
      </trkpt>
      <trkpt lat="43.060240" lon="-5.136730">
        <ele>1182.449</ele>
        <time>2020-05-22T09:20:52Z</time>
      </trkpt>
      <trkpt lat="43.060230" lon="-5.136700">
        <ele>1182.473</ele>
        <time>2020-05-22T09:21:12Z</time>
      </trkpt>
      <trkpt lat="43.060140" lon="-5.136560">
        <ele>1182.116</ele>
        <time>2020-05-22T09:21:32Z</time>
      </trkpt>
      <trkpt lat="43.060030" lon="-5.136420">
        <ele>1181.376</ele>
        <time>2020-05-22T09:21:52Z</time>
      </trkpt>
      <trkpt lat="43.059830" lon="-5.136200">
        <ele>1180.213</ele>
        <time>2020-05-22T09:22:12Z</time>
      </trkpt>
      <trkpt lat="43.059690" lon="-5.136050">
        <ele>1180.008</ele>
        <time>2020-05-22T09:22:32Z</time>
      </trkpt>
      <trkpt lat="43.059670" lon="-5.136020">
        <ele>1180.045</ele>
        <time>2020-05-22T09:22:52Z</time>
      </trkpt>
      <trkpt lat="43.059370" lon="-5.135850">
        <ele>1178.770</ele>
        <time>2020-05-22T09:23:12Z</time>
      </trkpt>
      <trkpt lat="43.059370" lon="-5.135840">
        <ele>1178.757</ele>
        <time>2020-05-22T09:23:32Z</time>
      </trkpt>
      <trkpt lat="43.059180" lon="-5.135640">
        <ele>1179.543</ele>
        <time>2020-05-22T09:23:52Z</time>
      </trkpt>
      <trkpt lat="43.058980" lon="-5.135330">
        <ele>1179.382</ele>
        <time>2020-05-22T09:24:12Z</time>
      </trkpt>
      <trkpt lat="43.058950" lon="-5.135270">
        <ele>1179.219</ele>
        <time>2020-05-22T09:24:32Z</time>
      </trkpt>
      <trkpt lat="43.058760" lon="-5.134940">
        <ele>1179.144</ele>
        <time>2020-05-22T09:24:52Z</time>
      </trkpt>
      <trkpt lat="43.058730" lon="-5.134890">
        <ele>1179.078</ele>
        <time>2020-05-22T09:25:12Z</time>
      </trkpt>
      <trkpt lat="43.058300" lon="-5.134320">
        <ele>1178.181</ele>
        <time>2020-05-22T09:25:32Z</time>
      </trkpt>
      <trkpt lat="43.058120" lon="-5.134080">
        <ele>1176.861</ele>
        <time>2020-05-22T09:25:52Z</time>
      </trkpt>
      <trkpt lat="43.057980" lon="-5.133910">
        <ele>1176.117</ele>
        <time>2020-05-22T09:26:12Z</time>
      </trkpt>
      <trkpt lat="43.057930" lon="-5.133840">
        <ele>1175.708</ele>
        <time>2020-05-22T09:26:32Z</time>
      </trkpt>
      <trkpt lat="43.057720" lon="-5.133510">
        <ele>1173.872</ele>
        <time>2020-05-22T09:26:52Z</time>
      </trkpt>
      <trkpt lat="43.057590" lon="-5.133240">
        <ele>1172.357</ele>
        <time>2020-05-22T09:27:12Z</time>
      </trkpt>
      <trkpt lat="43.057500" lon="-5.133100">
        <ele>1171.294</ele>
        <time>2020-05-22T09:27:32Z</time>
      </trkpt>
      <trkpt lat="43.057430" lon="-5.133020">
        <ele>1170.560</ele>
        <time>2020-05-22T09:27:52Z</time>
      </trkpt>
      <trkpt lat="43.057390" lon="-5.133010">
        <ele>1170.389</ele>
        <time>2020-05-22T09:28:12Z</time>
      </trkpt>
      <trkpt lat="43.057220" lon="-5.132920">
        <ele>1169.576</ele>
        <time>2020-05-22T09:28:32Z</time>
      </trkpt>
      <trkpt lat="43.056830" lon="-5.132710">
        <ele>1168.621</ele>
        <time>2020-05-22T09:28:52Z</time>
      </trkpt>
      <trkpt lat="43.056260" lon="-5.132520">
        <ele>1168.125</ele>
        <time>2020-05-22T09:29:12Z</time>
      </trkpt>
      <trkpt lat="43.055840" lon="-5.132380">
        <ele>1167.614</ele>
        <time>2020-05-22T09:29:32Z</time>
      </trkpt>
      <trkpt lat="43.055750" lon="-5.132340">
        <ele>1167.754</ele>
        <time>2020-05-22T09:29:52Z</time>
      </trkpt>
      <trkpt lat="43.055670" lon="-5.132310">
        <ele>1167.709</ele>
        <time>2020-05-22T09:30:12Z</time>
      </trkpt>
      <trkpt lat="43.055290" lon="-5.132180">
        <ele>1167.508</ele>
        <time>2020-05-22T09:30:32Z</time>
      </trkpt>
      <trkpt lat="43.054940" lon="-5.132000">
        <ele>1167.145</ele>
        <time>2020-05-22T09:30:52Z</time>
      </trkpt>
      <trkpt lat="43.054600" lon="-5.131740">
        <ele>1167.040</ele>
        <time>2020-05-22T09:31:12Z</time>
      </trkpt>
      <trkpt lat="43.054360" lon="-5.131520">
        <ele>1165.987</ele>
        <time>2020-05-22T09:31:32Z</time>
      </trkpt>
      <trkpt lat="43.054120" lon="-5.131310">
        <ele>1165.123</ele>
        <time>2020-05-22T09:31:52Z</time>
      </trkpt>
      <trkpt lat="43.053620" lon="-5.130940">
        <ele>1164.982</ele>
        <time>2020-05-22T09:32:12Z</time>
      </trkpt>
      <trkpt lat="43.053240" lon="-5.130760">
        <ele>1164.549</ele>
        <time>2020-05-22T09:32:32Z</time>
      </trkpt>
      <trkpt lat="43.053170" lon="-5.130730">
        <ele>1164.344</ele>
        <time>2020-05-22T09:32:52Z</time>
      </trkpt>
      <trkpt lat="43.052590" lon="-5.130540">
        <ele>1161.228</ele>
        <time>2020-05-22T09:33:12Z</time>
      </trkpt>
      <trkpt lat="43.052470" lon="-5.130510">
        <ele>1160.881</ele>
        <time>2020-05-22T09:33:32Z</time>
      </trkpt>
      <trkpt lat="43.052360" lon="-5.130480">
        <ele>1160.661</ele>
        <time>2020-05-22T09:33:52Z</time>
      </trkpt>
      <trkpt lat="43.051960" lon="-5.130350">
        <ele>1159.817</ele>
        <time>2020-05-22T09:34:12Z</time>
      </trkpt>
      <trkpt lat="43.051530" lon="-5.130200">
        <ele>1158.108</ele>
        <time>2020-05-22T09:34:32Z</time>
      </trkpt>
      <trkpt lat="43.050970" lon="-5.129980">
        <ele>1156.482</ele>
        <time>2020-05-22T09:34:52Z</time>
      </trkpt>
      <trkpt lat="43.050890" lon="-5.129950">
        <ele>1156.027</ele>
        <time>2020-05-22T09:35:12Z</time>
      </trkpt>
      <trkpt lat="43.050170" lon="-5.129580">
        <ele>1155.544</ele>
        <time>2020-05-22T09:35:32Z</time>
      </trkpt>
      <trkpt lat="43.049270" lon="-5.129170">
        <ele>1154.040</ele>
        <time>2020-05-22T09:35:52Z</time>
      </trkpt>
      <trkpt lat="43.048210" lon="-5.128660">
        <ele>1153.419</ele>
        <time>2020-05-22T09:36:12Z</time>
      </trkpt>
      <trkpt lat="43.048090" lon="-5.128590">
        <ele>1153.776</ele>
        <time>2020-05-22T09:36:32Z</time>
      </trkpt>
      <trkpt lat="43.047720" lon="-5.128410">
        <ele>1153.741</ele>
        <time>2020-05-22T09:36:52Z</time>
      </trkpt>
      <trkpt lat="43.047610" lon="-5.128330">
        <ele>1154.075</ele>
        <time>2020-05-22T09:37:12Z</time>
      </trkpt>
      <trkpt lat="43.047590" lon="-5.128300">
        <ele>1153.878</ele>
        <time>2020-05-22T09:37:32Z</time>
      </trkpt>
      <trkpt lat="43.047550" lon="-5.128250">
        <ele>1153.633</ele>
        <time>2020-05-22T09:37:52Z</time>
      </trkpt>
      <trkpt lat="43.047470" lon="-5.128140">
        <ele>1153.326</ele>
        <time>2020-05-22T09:38:12Z</time>
      </trkpt>
      <trkpt lat="43.047470" lon="-5.128130">
        <ele>1153.208</ele>
        <time>2020-05-22T09:38:32Z</time>
      </trkpt>
      <trkpt lat="43.047420" lon="-5.128080">
        <ele>1153.111</ele>
        <time>2020-05-22T09:38:52Z</time>
      </trkpt>
      <trkpt lat="43.047110" lon="-5.127580">
        <ele>1152.756</ele>
        <time>2020-05-22T09:39:12Z</time>
      </trkpt>
      <trkpt lat="43.046990" lon="-5.127400">
        <ele>1152.863</ele>
        <time>2020-05-22T09:39:32Z</time>
      </trkpt>
      <trkpt lat="43.046870" lon="-5.127210">
        <ele>1152.749</ele>
        <time>2020-05-22T09:39:52Z</time>
      </trkpt>
      <trkpt lat="43.046280" lon="-5.126290">
        <ele>1151.628</ele>
        <time>2020-05-22T09:40:12Z</time>
      </trkpt>
      <trkpt lat="43.045940" lon="-5.125770">
        <ele>1150.965</ele>
        <time>2020-05-22T09:40:32Z</time>
      </trkpt>
      <trkpt lat="43.045690" lon="-5.125350">
        <ele>1150.630</ele>
        <time>2020-05-22T09:40:52Z</time>
      </trkpt>
      <trkpt lat="43.045130" lon="-5.124400">
        <ele>1149.524</ele>
        <time>2020-05-22T09:41:12Z</time>
      </trkpt>
      <trkpt lat="43.044820" lon="-5.123890">
        <ele>1149.664</ele>
        <time>2020-05-22T09:41:32Z</time>
      </trkpt>
      <trkpt lat="43.044800" lon="-5.123810">
        <ele>1149.606</ele>
        <time>2020-05-22T09:41:52Z</time>
      </trkpt>
      <trkpt lat="43.044720" lon="-5.123590">
        <ele>1150.016</ele>
        <time>2020-05-22T09:42:12Z</time>
      </trkpt>
      <trkpt lat="43.044530" lon="-5.123070">
        <ele>1152.408</ele>
        <time>2020-05-22T09:42:32Z</time>
      </trkpt>
      <trkpt lat="43.044490" lon="-5.122920">
        <ele>1153.250</ele>
        <time>2020-05-22T09:42:52Z</time>
      </trkpt>
      <trkpt lat="43.044480" lon="-5.122890">
        <ele>1153.475</ele>
        <time>2020-05-22T09:43:12Z</time>
      </trkpt>
      <trkpt lat="43.044440" lon="-5.122690">
        <ele>1154.082</ele>
        <time>2020-05-22T09:43:32Z</time>
      </trkpt>
      <trkpt lat="43.044380" lon="-5.122390">
        <ele>1154.748</ele>
        <time>2020-05-22T09:43:52Z</time>
      </trkpt>
      <trkpt lat="43.044370" lon="-5.121540">
        <ele>1153.657</ele>
        <time>2020-05-22T09:44:12Z</time>
      </trkpt>
      <trkpt lat="43.044370" lon="-5.121290">
        <ele>1153.714</ele>
        <time>2020-05-22T09:44:32Z</time>
      </trkpt>
      <trkpt lat="43.044370" lon="-5.120800">
        <ele>1154.449</ele>
        <time>2020-05-22T09:44:52Z</time>
      </trkpt>
      <trkpt lat="43.044370" lon="-5.120550">
        <ele>1154.153</ele>
        <time>2020-05-22T09:45:12Z</time>
      </trkpt>
      <trkpt lat="43.044370" lon="-5.120310">
        <ele>1154.379</ele>
        <time>2020-05-22T09:45:32Z</time>
      </trkpt>
      <trkpt lat="43.044370" lon="-5.119860">
        <ele>1154.005</ele>
        <time>2020-05-22T09:45:52Z</time>
      </trkpt>
      <trkpt lat="43.044450" lon="-5.117920">
        <ele>1149.425</ele>
        <time>2020-05-22T09:46:12Z</time>
      </trkpt>
      <trkpt lat="43.044440" lon="-5.117600">
        <ele>1148.508</ele>
        <time>2020-05-22T09:46:32Z</time>
      </trkpt>
      <trkpt lat="43.044440" lon="-5.117370">
        <ele>1147.691</ele>
        <time>2020-05-22T09:46:52Z</time>
      </trkpt>
      <trkpt lat="43.044410" lon="-5.117110">
        <ele>1147.126</ele>
        <time>2020-05-22T09:47:12Z</time>
      </trkpt>
      <trkpt lat="43.044380" lon="-5.116870">
        <ele>1146.273</ele>
        <time>2020-05-22T09:47:32Z</time>
      </trkpt>
      <trkpt lat="43.044310" lon="-5.116650">
        <ele>1144.949</ele>
        <time>2020-05-22T09:47:52Z</time>
      </trkpt>
      <trkpt lat="43.044240" lon="-5.116420">
        <ele>1143.918</ele>
        <time>2020-05-22T09:48:12Z</time>
      </trkpt>
      <trkpt lat="43.044210" lon="-5.116330">
        <ele>1143.825</ele>
        <time>2020-05-22T09:48:32Z</time>
      </trkpt>
      <trkpt lat="43.044170" lon="-5.116190">
        <ele>1144.080</ele>
        <time>2020-05-22T09:48:52Z</time>
      </trkpt>
      <trkpt lat="43.044150" lon="-5.116120">
        <ele>1143.984</ele>
        <time>2020-05-22T09:49:12Z</time>
      </trkpt>
      <trkpt lat="43.044060" lon="-5.115820">
        <ele>1143.648</ele>
        <time>2020-05-22T09:49:32Z</time>
      </trkpt>
      <trkpt lat="43.043840" lon="-5.115050">
        <ele>1144.061</ele>
        <time>2020-05-22T09:49:52Z</time>
      </trkpt>
      <trkpt lat="43.043730" lon="-5.114670">
        <ele>1143.517</ele>
        <time>2020-05-22T09:50:12Z</time>
      </trkpt>
      <trkpt lat="43.043700" lon="-5.114590">
        <ele>1143.508</ele>
        <time>2020-05-22T09:50:32Z</time>
      </trkpt>
      <trkpt lat="43.043620" lon="-5.114320">
        <ele>1143.598</ele>
        <time>2020-05-22T09:50:52Z</time>
      </trkpt>
      <trkpt lat="43.043590" lon="-5.114210">
        <ele>1143.173</ele>
        <time>2020-05-22T09:51:12Z</time>
      </trkpt>
      <trkpt lat="43.043550" lon="-5.114060">
        <ele>1142.870</ele>
        <time>2020-05-22T09:51:32Z</time>
      </trkpt>
      <trkpt lat="43.043490" lon="-5.113860">
        <ele>1142.566</ele>
        <time>2020-05-22T09:51:52Z</time>
      </trkpt>
      <trkpt lat="43.043340" lon="-5.113380">
        <ele>1142.025</ele>
        <time>2020-05-22T09:52:12Z</time>
      </trkpt>
      <trkpt lat="43.043140" lon="-5.112690">
        <ele>1141.032</ele>
        <time>2020-05-22T09:52:32Z</time>
      </trkpt>
      <trkpt lat="43.043070" lon="-5.112470">
        <ele>1141.027</ele>
        <time>2020-05-22T09:52:52Z</time>
      </trkpt>
      <trkpt lat="43.042860" lon="-5.111780">
        <ele>1140.751</ele>
        <time>2020-05-22T09:53:12Z</time>
      </trkpt>
      <trkpt lat="43.042720" lon="-5.111330">
        <ele>1140.789</ele>
        <time>2020-05-22T09:53:32Z</time>
      </trkpt>
      <trkpt lat="43.042660" lon="-5.111130">
        <ele>1140.406</ele>
        <time>2020-05-22T09:53:52Z</time>
      </trkpt>
      <trkpt lat="43.042650" lon="-5.111080">
        <ele>1140.726</ele>
        <time>2020-05-22T09:54:12Z</time>
      </trkpt>
      <trkpt lat="43.042630" lon="-5.111020">
        <ele>1141.208</ele>
        <time>2020-05-22T09:54:32Z</time>
      </trkpt>
      <trkpt lat="43.042600" lon="-5.110960">
        <ele>1141.762</ele>
        <time>2020-05-22T09:54:52Z</time>
      </trkpt>
      <trkpt lat="43.042540" lon="-5.110920">
        <ele>1142.247</ele>
        <time>2020-05-22T09:55:12Z</time>
      </trkpt>
      <trkpt lat="43.042530" lon="-5.110910">
        <ele>1142.354</ele>
        <time>2020-05-22T09:55:32Z</time>
      </trkpt>
      <trkpt lat="43.042370" lon="-5.110860">
        <ele>1141.950</ele>
        <time>2020-05-22T09:55:52Z</time>
      </trkpt>
      <trkpt lat="43.042270" lon="-5.110830">
        <ele>1141.599</ele>
        <time>2020-05-22T09:56:12Z</time>
      </trkpt>
      <trkpt lat="43.042200" lon="-5.110790">
        <ele>1142.136</ele>
        <time>2020-05-22T09:56:32Z</time>
      </trkpt>
      <trkpt lat="43.042170" lon="-5.110770">
        <ele>1142.331</ele>
        <time>2020-05-22T09:56:52Z</time>
      </trkpt>
      <trkpt lat="43.042130" lon="-5.110730">
        <ele>1142.895</ele>
        <time>2020-05-22T09:57:12Z</time>
      </trkpt>
      <trkpt lat="43.042110" lon="-5.110710">
        <ele>1142.944</ele>
        <time>2020-05-22T09:57:32Z</time>
      </trkpt>
      <trkpt lat="43.042060" lon="-5.110640">
        <ele>1143.105</ele>
        <time>2020-05-22T09:57:52Z</time>
      </trkpt>
      <trkpt lat="43.042020" lon="-5.110570">
        <ele>1143.015</ele>
        <time>2020-05-22T09:58:12Z</time>
      </trkpt>
      <trkpt lat="43.041970" lon="-5.110430">
        <ele>1143.008</ele>
        <time>2020-05-22T09:58:32Z</time>
      </trkpt>
      <trkpt lat="43.041890" lon="-5.110210">
        <ele>1143.278</ele>
        <time>2020-05-22T09:58:52Z</time>
      </trkpt>
      <trkpt lat="43.041840" lon="-5.110080">
        <ele>1144.043</ele>
        <time>2020-05-22T09:59:12Z</time>
      </trkpt>
      <trkpt lat="43.041790" lon="-5.110000">
        <ele>1143.620</ele>
        <time>2020-05-22T09:59:32Z</time>
      </trkpt>
      <trkpt lat="43.041760" lon="-5.109960">
        <ele>1143.716</ele>
        <time>2020-05-22T09:59:52Z</time>
      </trkpt>
      <trkpt lat="43.041370" lon="-5.109410">
        <ele>1141.835</ele>
        <time>2020-05-22T10:00:12Z</time>
      </trkpt>
      <trkpt lat="43.041220" lon="-5.109230">
        <ele>1142.722</ele>
        <time>2020-05-22T10:00:32Z</time>
      </trkpt>
      <trkpt lat="43.041140" lon="-5.109150">
        <ele>1141.357</ele>
        <time>2020-05-22T10:00:52Z</time>
      </trkpt>
      <trkpt lat="43.040990" lon="-5.109010">
        <ele>1142.051</ele>
        <time>2020-05-22T10:01:12Z</time>
      </trkpt>
      <trkpt lat="43.040980" lon="-5.109000">
        <ele>1142.059</ele>
        <time>2020-05-22T10:01:32Z</time>
      </trkpt>
      <trkpt lat="43.040930" lon="-5.108920">
        <ele>1142.103</ele>
        <time>2020-05-22T10:01:52Z</time>
      </trkpt>
      <trkpt lat="43.040880" lon="-5.108860">
        <ele>1141.423</ele>
        <time>2020-05-22T10:02:12Z</time>
      </trkpt>
      <trkpt lat="43.040850" lon="-5.108790">
        <ele>1141.108</ele>
        <time>2020-05-22T10:02:32Z</time>
      </trkpt>
      <trkpt lat="43.040820" lon="-5.108730">
        <ele>1141.029</ele>
        <time>2020-05-22T10:02:52Z</time>
      </trkpt>
      <trkpt lat="43.040800" lon="-5.108660">
        <ele>1141.294</ele>
        <time>2020-05-22T10:03:12Z</time>
      </trkpt>
      <trkpt lat="43.040780" lon="-5.108600">
        <ele>1141.311</ele>
        <time>2020-05-22T10:03:32Z</time>
      </trkpt>
      <trkpt lat="43.040740" lon="-5.108130">
        <ele>1142.537</ele>
        <time>2020-05-22T10:03:52Z</time>
      </trkpt>
      <trkpt lat="43.040710" lon="-5.107890">
        <ele>1142.776</ele>
        <time>2020-05-22T10:04:12Z</time>
      </trkpt>
      <trkpt lat="43.040690" lon="-5.107640">
        <ele>1142.843</ele>
        <time>2020-05-22T10:04:32Z</time>
      </trkpt>
      <trkpt lat="43.040680" lon="-5.107400">
        <ele>1143.848</ele>
        <time>2020-05-22T10:04:52Z</time>
      </trkpt>
      <trkpt lat="43.040670" lon="-5.107350">
        <ele>1143.722</ele>
        <time>2020-05-22T10:05:12Z</time>
      </trkpt>
      <trkpt lat="43.040650" lon="-5.107150">
        <ele>1144.683</ele>
        <time>2020-05-22T10:05:32Z</time>
      </trkpt>
      <trkpt lat="43.040570" lon="-5.106870">
        <ele>1143.325</ele>
        <time>2020-05-22T10:05:52Z</time>
      </trkpt>
      <trkpt lat="43.040500" lon="-5.106710">
        <ele>1143.717</ele>
        <time>2020-05-22T10:06:12Z</time>
      </trkpt>
      <trkpt lat="43.040470" lon="-5.106630">
        <ele>1144.808</ele>
        <time>2020-05-22T10:06:32Z</time>
      </trkpt>
      <trkpt lat="43.040390" lon="-5.106510">
        <ele>1145.232</ele>
        <time>2020-05-22T10:06:52Z</time>
      </trkpt>
      <trkpt lat="43.040290" lon="-5.106350">
        <ele>1143.217</ele>
        <time>2020-05-22T10:07:12Z</time>
      </trkpt>
      <trkpt lat="43.040270" lon="-5.106330">
        <ele>1143.034</ele>
        <time>2020-05-22T10:07:32Z</time>
      </trkpt>
      <trkpt lat="43.039930" lon="-5.105960">
        <ele>1141.880</ele>
        <time>2020-05-22T10:07:52Z</time>
      </trkpt>
      <trkpt lat="43.039730" lon="-5.105700">
        <ele>1141.149</ele>
        <time>2020-05-22T10:08:12Z</time>
      </trkpt>
      <trkpt lat="43.039580" lon="-5.105510">
        <ele>1140.986</ele>
        <time>2020-05-22T10:08:32Z</time>
      </trkpt>
      <trkpt lat="43.039370" lon="-5.105140">
        <ele>1140.011</ele>
        <time>2020-05-22T10:08:52Z</time>
      </trkpt>
      <trkpt lat="43.039230" lon="-5.104640">
        <ele>1138.885</ele>
        <time>2020-05-22T10:09:12Z</time>
      </trkpt>
      <trkpt lat="43.039220" lon="-5.104590">
        <ele>1138.892</ele>
        <time>2020-05-22T10:09:32Z</time>
      </trkpt>
      <trkpt lat="43.039090" lon="-5.104130">
        <ele>1139.373</ele>
        <time>2020-05-22T10:09:52Z</time>
      </trkpt>
      <trkpt lat="43.039030" lon="-5.103910">
        <ele>1140.420</ele>
        <time>2020-05-22T10:10:12Z</time>
      </trkpt>
      <trkpt lat="43.038990" lon="-5.103710">
        <ele>1140.508</ele>
        <time>2020-05-22T10:10:32Z</time>
      </trkpt>
      <trkpt lat="43.038980" lon="-5.103590">
        <ele>1140.613</ele>
        <time>2020-05-22T10:10:52Z</time>
      </trkpt>
      <trkpt lat="43.038970" lon="-5.103540">
        <ele>1140.128</ele>
        <time>2020-05-22T10:11:12Z</time>
      </trkpt>
      <trkpt lat="43.038970" lon="-5.103420">
        <ele>1140.075</ele>
        <time>2020-05-22T10:11:32Z</time>
      </trkpt>
      <trkpt lat="43.039100" lon="-5.102450">
        <ele>1138.391</ele>
        <time>2020-05-22T10:11:52Z</time>
      </trkpt>
      <trkpt lat="43.039130" lon="-5.102210">
        <ele>1138.580</ele>
        <time>2020-05-22T10:12:12Z</time>
      </trkpt>
      <trkpt lat="43.039140" lon="-5.102080">
        <ele>1137.767</ele>
        <time>2020-05-22T10:12:32Z</time>
      </trkpt>
      <trkpt lat="43.039190" lon="-5.101470">
        <ele>1135.642</ele>
        <time>2020-05-22T10:12:52Z</time>
      </trkpt>
      <trkpt lat="43.039200" lon="-5.101340">
        <ele>1135.516</ele>
        <time>2020-05-22T10:13:12Z</time>
      </trkpt>
      <trkpt lat="43.039210" lon="-5.101010">
        <ele>1135.657</ele>
        <time>2020-05-22T10:13:32Z</time>
      </trkpt>
      <trkpt lat="43.039210" lon="-5.100980">
        <ele>1135.600</ele>
        <time>2020-05-22T10:13:52Z</time>
      </trkpt>
      <trkpt lat="43.039200" lon="-5.100880">
        <ele>1135.620</ele>
        <time>2020-05-22T10:14:12Z</time>
      </trkpt>
      <trkpt lat="43.039170" lon="-5.100770">
        <ele>1135.108</ele>
        <time>2020-05-22T10:14:32Z</time>
      </trkpt>
      <trkpt lat="43.039060" lon="-5.100270">
        <ele>1134.369</ele>
        <time>2020-05-22T10:14:52Z</time>
      </trkpt>
      <trkpt lat="43.039010" lon="-5.100040">
        <ele>1134.734</ele>
        <time>2020-05-22T10:15:12Z</time>
      </trkpt>
      <trkpt lat="43.038960" lon="-5.099800">
        <ele>1135.261</ele>
        <time>2020-05-22T10:15:32Z</time>
      </trkpt>
      <trkpt lat="43.038850" lon="-5.099330">
        <ele>1136.697</ele>
        <time>2020-05-22T10:15:52Z</time>
      </trkpt>
      <trkpt lat="43.038800" lon="-5.099100">
        <ele>1137.546</ele>
        <time>2020-05-22T10:16:12Z</time>
      </trkpt>
      <trkpt lat="43.038750" lon="-5.098860">
        <ele>1137.783</ele>
        <time>2020-05-22T10:16:32Z</time>
      </trkpt>
      <trkpt lat="43.038490" lon="-5.097680">
        <ele>1139.278</ele>
        <time>2020-05-22T10:16:52Z</time>
      </trkpt>
      <trkpt lat="43.038470" lon="-5.097570">
        <ele>1139.412</ele>
        <time>2020-05-22T10:17:12Z</time>
      </trkpt>
      <trkpt lat="43.038300" lon="-5.096730">
        <ele>1141.811</ele>
        <time>2020-05-22T10:17:32Z</time>
      </trkpt>
      <trkpt lat="43.038280" lon="-5.096610">
        <ele>1142.121</ele>
        <time>2020-05-22T10:17:52Z</time>
      </trkpt>
      <trkpt lat="43.038280" lon="-5.096530">
        <ele>1142.503</ele>
        <time>2020-05-22T10:18:12Z</time>
      </trkpt>
      <trkpt lat="43.038290" lon="-5.096410">
        <ele>1143.308</ele>
        <time>2020-05-22T10:18:32Z</time>
      </trkpt>
      <trkpt lat="43.038310" lon="-5.096270">
        <ele>1143.725</ele>
        <time>2020-05-22T10:18:52Z</time>
      </trkpt>
      <trkpt lat="43.038320" lon="-5.096240">
        <ele>1143.860</ele>
        <time>2020-05-22T10:19:12Z</time>
      </trkpt>
      <trkpt lat="43.038370" lon="-5.096050">
        <ele>1144.877</ele>
        <time>2020-05-22T10:19:32Z</time>
      </trkpt>
      <trkpt lat="43.038440" lon="-5.095890">
        <ele>1145.863</ele>
        <time>2020-05-22T10:19:52Z</time>
      </trkpt>
      <trkpt lat="43.038480" lon="-5.095820">
        <ele>1146.022</ele>
        <time>2020-05-22T10:20:12Z</time>
      </trkpt>
      <trkpt lat="43.038570" lon="-5.095680">
        <ele>1146.269</ele>
        <time>2020-05-22T10:20:32Z</time>
      </trkpt>
      <trkpt lat="43.038980" lon="-5.095500">
        <ele>1147.834</ele>
        <time>2020-05-22T10:20:52Z</time>
      </trkpt>
      <trkpt lat="43.039160" lon="-5.095420">
        <ele>1147.598</ele>
        <time>2020-05-22T10:21:12Z</time>
      </trkpt>
      <trkpt lat="43.039530" lon="-5.095250">
        <ele>1146.197</ele>
        <time>2020-05-22T10:21:32Z</time>
      </trkpt>
      <trkpt lat="43.039670" lon="-5.095190">
        <ele>1145.923</ele>
        <time>2020-05-22T10:21:52Z</time>
      </trkpt>
      <trkpt lat="43.039720" lon="-5.095160">
        <ele>1145.725</ele>
        <time>2020-05-22T10:22:12Z</time>
      </trkpt>
      <trkpt lat="43.039760" lon="-5.095130">
        <ele>1145.708</ele>
        <time>2020-05-22T10:22:32Z</time>
      </trkpt>
      <trkpt lat="43.039790" lon="-5.095100">
        <ele>1145.693</ele>
        <time>2020-05-22T10:22:52Z</time>
      </trkpt>
      <trkpt lat="43.039840" lon="-5.095070">
        <ele>1145.598</ele>
        <time>2020-05-22T10:23:12Z</time>
      </trkpt>
      <trkpt lat="43.039870" lon="-5.095030">
        <ele>1145.045</ele>
        <time>2020-05-22T10:23:32Z</time>
      </trkpt>
      <trkpt lat="43.039920" lon="-5.094970">
        <ele>1144.541</ele>
        <time>2020-05-22T10:23:52Z</time>
      </trkpt>
      <trkpt lat="43.039970" lon="-5.094900">
        <ele>1144.260</ele>
        <time>2020-05-22T10:24:12Z</time>
      </trkpt>
      <trkpt lat="43.039980" lon="-5.094880">
        <ele>1144.147</ele>
        <time>2020-05-22T10:24:32Z</time>
      </trkpt>
      <trkpt lat="43.040000" lon="-5.094830">
        <ele>1143.892</ele>
        <time>2020-05-22T10:24:52Z</time>
      </trkpt>
      <trkpt lat="43.040060" lon="-5.094660">
        <ele>1143.046</ele>
        <time>2020-05-22T10:25:12Z</time>
      </trkpt>
      <trkpt lat="43.040130" lon="-5.094160">
        <ele>1142.513</ele>
        <time>2020-05-22T10:25:32Z</time>
      </trkpt>
      <trkpt lat="43.040160" lon="-5.093360">
        <ele>1142.143</ele>
        <time>2020-05-22T10:25:52Z</time>
      </trkpt>
      <trkpt lat="43.040170" lon="-5.093200">
        <ele>1141.807</ele>
        <time>2020-05-22T10:26:12Z</time>
      </trkpt>
      <trkpt lat="43.040210" lon="-5.092970">
        <ele>1141.708</ele>
        <time>2020-05-22T10:26:32Z</time>
      </trkpt>
      <trkpt lat="43.040300" lon="-5.092670">
        <ele>1142.085</ele>
        <time>2020-05-22T10:26:52Z</time>
      </trkpt>
      <trkpt lat="43.040300" lon="-5.092410">
        <ele>1141.310</ele>
        <time>2020-05-22T10:27:12Z</time>
      </trkpt>
      <trkpt lat="43.040300" lon="-5.092200">
        <ele>1140.217</ele>
        <time>2020-05-22T10:27:32Z</time>
      </trkpt>
      <trkpt lat="43.040290" lon="-5.092030">
        <ele>1140.763</ele>
        <time>2020-05-22T10:27:52Z</time>
      </trkpt>
      <trkpt lat="43.040260" lon="-5.091710">
        <ele>1141.712</ele>
        <time>2020-05-22T10:28:12Z</time>
      </trkpt>
      <trkpt lat="43.040000" lon="-5.090520">
        <ele>1141.039</ele>
        <time>2020-05-22T10:28:32Z</time>
      </trkpt>
      <trkpt lat="43.039790" lon="-5.089680">
        <ele>1140.074</ele>
        <time>2020-05-22T10:28:52Z</time>
      </trkpt>
      <trkpt lat="43.039620" lon="-5.088980">
        <ele>1139.018</ele>
        <time>2020-05-22T10:29:12Z</time>
      </trkpt>
      <trkpt lat="43.039440" lon="-5.088280">
        <ele>1138.067</ele>
        <time>2020-05-22T10:29:32Z</time>
      </trkpt>
      <trkpt lat="43.039330" lon="-5.087810">
        <ele>1137.181</ele>
        <time>2020-05-22T10:29:52Z</time>
      </trkpt>
      <trkpt lat="43.039310" lon="-5.087770">
        <ele>1137.019</ele>
        <time>2020-05-22T10:30:12Z</time>
      </trkpt>
      <trkpt lat="43.039210" lon="-5.087350">
        <ele>1137.008</ele>
        <time>2020-05-22T10:30:32Z</time>
      </trkpt>
      <trkpt lat="43.038870" lon="-5.085950">
        <ele>1138.590</ele>
        <time>2020-05-22T10:30:52Z</time>
      </trkpt>
      <trkpt lat="43.038780" lon="-5.085580">
        <ele>1138.025</ele>
        <time>2020-05-22T10:31:12Z</time>
      </trkpt>
      <trkpt lat="43.038040" lon="-5.082690">
        <ele>1140.162</ele>
        <time>2020-05-22T10:31:32Z</time>
      </trkpt>
      <trkpt lat="43.038000" lon="-5.082500">
        <ele>1140.438</ele>
        <time>2020-05-22T10:31:52Z</time>
      </trkpt>
      <trkpt lat="43.037890" lon="-5.082170">
        <ele>1140.097</ele>
        <time>2020-05-22T10:32:12Z</time>
      </trkpt>
      <trkpt lat="43.037810" lon="-5.082000">
        <ele>1139.494</ele>
        <time>2020-05-22T10:32:32Z</time>
      </trkpt>
      <trkpt lat="43.037560" lon="-5.081680">
        <ele>1138.159</ele>
        <time>2020-05-22T10:32:52Z</time>
      </trkpt>
      <trkpt lat="43.037280" lon="-5.081320">
        <ele>1137.663</ele>
        <time>2020-05-22T10:33:12Z</time>
      </trkpt>
      <trkpt lat="43.036650" lon="-5.080610">
        <ele>1136.226</ele>
        <time>2020-05-22T10:33:32Z</time>
      </trkpt>
      <trkpt lat="43.036450" lon="-5.080440">
        <ele>1135.647</ele>
        <time>2020-05-22T10:33:52Z</time>
      </trkpt>
      <trkpt lat="43.036140" lon="-5.080160">
        <ele>1135.111</ele>
        <time>2020-05-22T10:34:12Z</time>
      </trkpt>
      <trkpt lat="43.035670" lon="-5.079720">
        <ele>1133.008</ele>
        <time>2020-05-22T10:34:32Z</time>
      </trkpt>
      <trkpt lat="43.035080" lon="-5.079170">
        <ele>1132.076</ele>
        <time>2020-05-22T10:34:52Z</time>
      </trkpt>
      <trkpt lat="43.034770" lon="-5.078880">
        <ele>1132.091</ele>
        <time>2020-05-22T10:35:12Z</time>
      </trkpt>
      <trkpt lat="43.034050" lon="-5.078160">
        <ele>1131.638</ele>
        <time>2020-05-22T10:35:32Z</time>
      </trkpt>
      <trkpt lat="43.033990" lon="-5.078100">
        <ele>1131.564</ele>
        <time>2020-05-22T10:35:52Z</time>
      </trkpt>
      <trkpt lat="43.033680" lon="-5.077850">
        <ele>1131.373</ele>
        <time>2020-05-22T10:36:12Z</time>
      </trkpt>
      <trkpt lat="43.033530" lon="-5.077770">
        <ele>1130.550</ele>
        <time>2020-05-22T10:36:32Z</time>
      </trkpt>
      <trkpt lat="43.033380" lon="-5.077650">
        <ele>1130.915</ele>
        <time>2020-05-22T10:36:52Z</time>
      </trkpt>
      <trkpt lat="43.033330" lon="-5.077570">
        <ele>1131.149</ele>
        <time>2020-05-22T10:37:12Z</time>
      </trkpt>
      <trkpt lat="43.033270" lon="-5.077470">
        <ele>1130.576</ele>
        <time>2020-05-22T10:37:32Z</time>
      </trkpt>
      <trkpt lat="43.032970" lon="-5.076930">
        <ele>1130.190</ele>
        <time>2020-05-22T10:37:52Z</time>
      </trkpt>
      <trkpt lat="43.032930" lon="-5.076860">
        <ele>1129.619</ele>
        <time>2020-05-22T10:38:12Z</time>
      </trkpt>
      <trkpt lat="43.032820" lon="-5.076690">
        <ele>1129.508</ele>
        <time>2020-05-22T10:38:32Z</time>
      </trkpt>
      <trkpt lat="43.032720" lon="-5.076580">
        <ele>1128.161</ele>
        <time>2020-05-22T10:38:52Z</time>
      </trkpt>
      <trkpt lat="43.032570" lon="-5.076450">
        <ele>1127.336</ele>
        <time>2020-05-22T10:39:12Z</time>
      </trkpt>
      <trkpt lat="43.032530" lon="-5.076420">
        <ele>1127.593</ele>
        <time>2020-05-22T10:39:32Z</time>
      </trkpt>
      <trkpt lat="43.032410" lon="-5.076320">
        <ele>1127.049</ele>
        <time>2020-05-22T10:39:52Z</time>
      </trkpt>
      <trkpt lat="43.032330" lon="-5.076240">
        <ele>1126.988</ele>
        <time>2020-05-22T10:40:12Z</time>
      </trkpt>
      <trkpt lat="43.032250" lon="-5.076110">
        <ele>1128.315</ele>
        <time>2020-05-22T10:40:32Z</time>
      </trkpt>
      <trkpt lat="43.032180" lon="-5.075980">
        <ele>1127.630</ele>
        <time>2020-05-22T10:40:52Z</time>
      </trkpt>
      <trkpt lat="43.031950" lon="-5.075570">
        <ele>1125.084</ele>
        <time>2020-05-22T10:41:12Z</time>
      </trkpt>
      <trkpt lat="43.031830" lon="-5.075360">
        <ele>1124.113</ele>
        <time>2020-05-22T10:41:32Z</time>
      </trkpt>
      <trkpt lat="43.031550" lon="-5.074860">
        <ele>1123.043</ele>
        <time>2020-05-22T10:41:52Z</time>
      </trkpt>
      <trkpt lat="43.031510" lon="-5.074800">
        <ele>1122.907</ele>
        <time>2020-05-22T10:42:12Z</time>
      </trkpt>
      <trkpt lat="43.031460" lon="-5.074730">
        <ele>1122.708</ele>
        <time>2020-05-22T10:42:32Z</time>
      </trkpt>
      <trkpt lat="43.031400" lon="-5.074660">
        <ele>1122.815</ele>
        <time>2020-05-22T10:42:52Z</time>
      </trkpt>
      <trkpt lat="43.031300" lon="-5.074560">
        <ele>1123.140</ele>
        <time>2020-05-22T10:43:12Z</time>
      </trkpt>
      <trkpt lat="43.031220" lon="-5.074510">
        <ele>1123.157</ele>
        <time>2020-05-22T10:43:32Z</time>
      </trkpt>
      <trkpt lat="43.030980" lon="-5.074360">
        <ele>1123.783</ele>
        <time>2020-05-22T10:43:52Z</time>
      </trkpt>
      <trkpt lat="43.030720" lon="-5.074220">
        <ele>1124.372</ele>
        <time>2020-05-22T10:44:12Z</time>
      </trkpt>
      <trkpt lat="43.030310" lon="-5.074010">
        <ele>1124.959</ele>
        <time>2020-05-22T10:44:32Z</time>
      </trkpt>
      <trkpt lat="43.030220" lon="-5.073950">
        <ele>1125.514</ele>
        <time>2020-05-22T10:44:52Z</time>
      </trkpt>
      <trkpt lat="43.030170" lon="-5.073920">
        <ele>1126.068</ele>
        <time>2020-05-22T10:45:12Z</time>
      </trkpt>
      <trkpt lat="43.030040" lon="-5.073830">
        <ele>1126.968</ele>
        <time>2020-05-22T10:45:32Z</time>
      </trkpt>
      <trkpt lat="43.029870" lon="-5.073710">
        <ele>1127.042</ele>
        <time>2020-05-22T10:45:52Z</time>
      </trkpt>
      <trkpt lat="43.029810" lon="-5.073660">
        <ele>1127.026</ele>
        <time>2020-05-22T10:46:12Z</time>
      </trkpt>
      <trkpt lat="43.029740" lon="-5.073570">
        <ele>1127.008</ele>
        <time>2020-05-22T10:46:32Z</time>
      </trkpt>
      <trkpt lat="43.029650" lon="-5.073410">
        <ele>1126.760</ele>
        <time>2020-05-22T10:46:52Z</time>
      </trkpt>
      <trkpt lat="43.029170" lon="-5.072370">
        <ele>1126.075</ele>
        <time>2020-05-22T10:47:12Z</time>
      </trkpt>
      <trkpt lat="43.029030" lon="-5.072070">
        <ele>1126.382</ele>
        <time>2020-05-22T10:47:32Z</time>
      </trkpt>
      <trkpt lat="43.028970" lon="-5.071990">
        <ele>1126.078</ele>
        <time>2020-05-22T10:47:52Z</time>
      </trkpt>
      <trkpt lat="43.028960" lon="-5.071970">
        <ele>1125.997</ele>
        <time>2020-05-22T10:48:12Z</time>
      </trkpt>
      <trkpt lat="43.028890" lon="-5.071880">
        <ele>1125.254</ele>
        <time>2020-05-22T10:48:32Z</time>
      </trkpt>
      <trkpt lat="43.028830" lon="-5.071790">
        <ele>1125.299</ele>
        <time>2020-05-22T10:48:52Z</time>
      </trkpt>
      <trkpt lat="43.028700" lon="-5.071620">
        <ele>1124.663</ele>
        <time>2020-05-22T10:49:12Z</time>
      </trkpt>
      <trkpt lat="43.028690" lon="-5.071600">
        <ele>1124.514</ele>
        <time>2020-05-22T10:49:32Z</time>
      </trkpt>
      <trkpt lat="43.028560" lon="-5.071460">
        <ele>1123.154</ele>
        <time>2020-05-22T10:49:52Z</time>
      </trkpt>
      <trkpt lat="43.028500" lon="-5.071370">
        <ele>1122.609</ele>
        <time>2020-05-22T10:50:12Z</time>
      </trkpt>
      <trkpt lat="43.028460" lon="-5.071250">
        <ele>1122.108</ele>
        <time>2020-05-22T10:50:32Z</time>
      </trkpt>
      <trkpt lat="43.028440" lon="-5.071140">
        <ele>1121.695</ele>
        <time>2020-05-22T10:50:52Z</time>
      </trkpt>
      <trkpt lat="43.028430" lon="-5.071050">
        <ele>1121.170</ele>
        <time>2020-05-22T10:51:12Z</time>
      </trkpt>
      <trkpt lat="43.028430" lon="-5.071020">
        <ele>1121.017</ele>
        <time>2020-05-22T10:51:32Z</time>
      </trkpt>
      <trkpt lat="43.028430" lon="-5.070980">
        <ele>1120.873</ele>
        <time>2020-05-22T10:51:52Z</time>
      </trkpt>
      <trkpt lat="43.028430" lon="-5.070900">
        <ele>1120.432</ele>
        <time>2020-05-22T10:52:12Z</time>
      </trkpt>
      <trkpt lat="43.028430" lon="-5.070850">
        <ele>1120.249</ele>
        <time>2020-05-22T10:52:32Z</time>
      </trkpt>
      <trkpt lat="43.028450" lon="-5.070790">
        <ele>1120.334</ele>
        <time>2020-05-22T10:52:52Z</time>
      </trkpt>
      <trkpt lat="43.028450" lon="-5.070780">
        <ele>1120.168</ele>
        <time>2020-05-22T10:53:12Z</time>
      </trkpt>
      <trkpt lat="43.028470" lon="-5.070730">
        <ele>1120.382</ele>
        <time>2020-05-22T10:53:32Z</time>
      </trkpt>
      <trkpt lat="43.028500" lon="-5.070670">
        <ele>1120.943</ele>
        <time>2020-05-22T10:53:52Z</time>
      </trkpt>
      <trkpt lat="43.028530" lon="-5.070600">
        <ele>1121.617</ele>
        <time>2020-05-22T10:54:12Z</time>
      </trkpt>
      <trkpt lat="43.028540" lon="-5.070570">
        <ele>1121.808</ele>
        <time>2020-05-22T10:54:32Z</time>
      </trkpt>
      <trkpt lat="43.028560" lon="-5.070510">
        <ele>1122.252</ele>
        <time>2020-05-22T10:54:52Z</time>
      </trkpt>
      <trkpt lat="43.028580" lon="-5.070420">
        <ele>1122.547</ele>
        <time>2020-05-22T10:55:12Z</time>
      </trkpt>
      <trkpt lat="43.028590" lon="-5.070330">
        <ele>1122.394</ele>
        <time>2020-05-22T10:55:32Z</time>
      </trkpt>
      <trkpt lat="43.028600" lon="-5.070240">
        <ele>1122.090</ele>
        <time>2020-05-22T10:55:52Z</time>
      </trkpt>
      <trkpt lat="43.028620" lon="-5.069840">
        <ele>1120.199</ele>
        <time>2020-05-22T10:56:12Z</time>
      </trkpt>
      <trkpt lat="43.028630" lon="-5.069660">
        <ele>1120.396</ele>
        <time>2020-05-22T10:56:32Z</time>
      </trkpt>
      <trkpt lat="43.028600" lon="-5.069350">
        <ele>1118.531</ele>
        <time>2020-05-22T10:56:52Z</time>
      </trkpt>
      <trkpt lat="43.028560" lon="-5.069110">
        <ele>1118.665</ele>
        <time>2020-05-22T10:57:12Z</time>
      </trkpt>
      <trkpt lat="43.028540" lon="-5.068970">
        <ele>1118.245</ele>
        <time>2020-05-22T10:57:32Z</time>
      </trkpt>
      <trkpt lat="43.028510" lon="-5.068730">
        <ele>1116.847</ele>
        <time>2020-05-22T10:57:52Z</time>
      </trkpt>
      <trkpt lat="43.028510" lon="-5.068630">
        <ele>1116.811</ele>
        <time>2020-05-22T10:58:12Z</time>
      </trkpt>
      <trkpt lat="43.028510" lon="-5.068610">
        <ele>1116.808</ele>
        <time>2020-05-22T10:58:32Z</time>
      </trkpt>
      <trkpt lat="43.028510" lon="-5.068380">
        <ele>1116.358</ele>
        <time>2020-05-22T10:58:52Z</time>
      </trkpt>
      <trkpt lat="43.028510" lon="-5.068340">
        <ele>1116.283</ele>
        <time>2020-05-22T10:59:12Z</time>
      </trkpt>
      <trkpt lat="43.028530" lon="-5.068140">
        <ele>1115.430</ele>
        <time>2020-05-22T10:59:32Z</time>
      </trkpt>
      <trkpt lat="43.028540" lon="-5.068030">
        <ele>1114.816</ele>
        <time>2020-05-22T10:59:52Z</time>
      </trkpt>
      <trkpt lat="43.028540" lon="-5.067890">
        <ele>1114.095</ele>
        <time>2020-05-22T11:00:12Z</time>
      </trkpt>
      <trkpt lat="43.028540" lon="-5.067810">
        <ele>1113.692</ele>
        <time>2020-05-22T11:00:32Z</time>
      </trkpt>
      <trkpt lat="43.028510" lon="-5.067650">
        <ele>1113.257</ele>
        <time>2020-05-22T11:00:52Z</time>
      </trkpt>
      <trkpt lat="43.028500" lon="-5.067580">
        <ele>1113.341</ele>
        <time>2020-05-22T11:01:12Z</time>
      </trkpt>
      <trkpt lat="43.028440" lon="-5.067170">
        <ele>1112.939</ele>
        <time>2020-05-22T11:01:32Z</time>
      </trkpt>
      <trkpt lat="43.028380" lon="-5.066820">
        <ele>1110.801</ele>
        <time>2020-05-22T11:01:52Z</time>
      </trkpt>
      <trkpt lat="43.028350" lon="-5.066620">
        <ele>1110.021</ele>
        <time>2020-05-22T11:02:12Z</time>
      </trkpt>
      <trkpt lat="43.028280" lon="-5.066140">
        <ele>1110.308</ele>
        <time>2020-05-22T11:02:32Z</time>
      </trkpt>
      <trkpt lat="43.028250" lon="-5.065940">
        <ele>1110.567</ele>
        <time>2020-05-22T11:02:52Z</time>
      </trkpt>
      <trkpt lat="43.028160" lon="-5.065280">
        <ele>1110.162</ele>
        <time>2020-05-22T11:03:12Z</time>
      </trkpt>
      <trkpt lat="43.028120" lon="-5.065180">
        <ele>1109.299</ele>
        <time>2020-05-22T11:03:32Z</time>
      </trkpt>
      <trkpt lat="43.028070" lon="-5.065030">
        <ele>1108.365</ele>
        <time>2020-05-22T11:03:52Z</time>
      </trkpt>
      <trkpt lat="43.028050" lon="-5.064950">
        <ele>1108.274</ele>
        <time>2020-05-22T11:04:12Z</time>
      </trkpt>
      <trkpt lat="43.028000" lon="-5.064810">
        <ele>1108.261</ele>
        <time>2020-05-22T11:04:32Z</time>
      </trkpt>
      <trkpt lat="43.027960" lon="-5.064710">
        <ele>1108.116</ele>
        <time>2020-05-22T11:04:52Z</time>
      </trkpt>
      <trkpt lat="43.027890" lon="-5.064620">
        <ele>1107.910</ele>
        <time>2020-05-22T11:05:12Z</time>
      </trkpt>
      <trkpt lat="43.027810" lon="-5.064560">
        <ele>1107.061</ele>
        <time>2020-05-22T11:05:32Z</time>
      </trkpt>
      <trkpt lat="43.027720" lon="-5.064490">
        <ele>1106.421</ele>
        <time>2020-05-22T11:05:52Z</time>
      </trkpt>
      <trkpt lat="43.027610" lon="-5.064420">
        <ele>1105.813</ele>
        <time>2020-05-22T11:06:12Z</time>
      </trkpt>
      <trkpt lat="43.027570" lon="-5.064380">
        <ele>1106.308</ele>
        <time>2020-05-22T11:06:32Z</time>
      </trkpt>
      <trkpt lat="43.027520" lon="-5.064330">
        <ele>1106.750</ele>
        <time>2020-05-22T11:06:52Z</time>
      </trkpt>
      <trkpt lat="43.027440" lon="-5.064240">
        <ele>1107.395</ele>
        <time>2020-05-22T11:07:12Z</time>
      </trkpt>
      <trkpt lat="43.027390" lon="-5.064170">
        <ele>1107.422</ele>
        <time>2020-05-22T11:07:32Z</time>
      </trkpt>
      <trkpt lat="43.027250" lon="-5.063980">
        <ele>1107.388</ele>
        <time>2020-05-22T11:07:52Z</time>
      </trkpt>
      <trkpt lat="43.027040" lon="-5.063610">
        <ele>1106.567</ele>
        <time>2020-05-22T11:08:12Z</time>
      </trkpt>
      <trkpt lat="43.027010" lon="-5.063550">
        <ele>1105.994</ele>
        <time>2020-05-22T11:08:32Z</time>
      </trkpt>
      <trkpt lat="43.026780" lon="-5.063080">
        <ele>1104.459</ele>
        <time>2020-05-22T11:08:52Z</time>
      </trkpt>
      <trkpt lat="43.026680" lon="-5.062850">
        <ele>1103.143</ele>
        <time>2020-05-22T11:09:12Z</time>
      </trkpt>
      <trkpt lat="43.026620" lon="-5.062640">
        <ele>1103.718</ele>
        <time>2020-05-22T11:09:32Z</time>
      </trkpt>
      <trkpt lat="43.026600" lon="-5.062540">
        <ele>1104.498</ele>
        <time>2020-05-22T11:09:52Z</time>
      </trkpt>
      <trkpt lat="43.026550" lon="-5.062230">
        <ele>1105.417</ele>
        <time>2020-05-22T11:10:12Z</time>
      </trkpt>
      <trkpt lat="43.026530" lon="-5.062060">
        <ele>1105.108</ele>
        <time>2020-05-22T11:10:32Z</time>
      </trkpt>
      <trkpt lat="43.026520" lon="-5.061900">
        <ele>1105.095</ele>
        <time>2020-05-22T11:10:52Z</time>
      </trkpt>
      <trkpt lat="43.026500" lon="-5.061600">
        <ele>1105.730</ele>
        <time>2020-05-22T11:11:12Z</time>
      </trkpt>
      <trkpt lat="43.026520" lon="-5.061290">
        <ele>1107.187</ele>
        <time>2020-05-22T11:11:32Z</time>
      </trkpt>
      <trkpt lat="43.026550" lon="-5.060970">
        <ele>1106.473</ele>
        <time>2020-05-22T11:11:52Z</time>
      </trkpt>
      <trkpt lat="43.026670" lon="-5.060310">
        <ele>1102.012</ele>
        <time>2020-05-22T11:12:12Z</time>
      </trkpt>
      <trkpt lat="43.026690" lon="-5.060140">
        <ele>1101.539</ele>
        <time>2020-05-22T11:12:32Z</time>
      </trkpt>
      <trkpt lat="43.026680" lon="-5.060120">
        <ele>1101.484</ele>
        <time>2020-05-22T11:12:52Z</time>
      </trkpt>
      <trkpt lat="43.026640" lon="-5.059930">
        <ele>1101.228</ele>
        <time>2020-05-22T11:13:12Z</time>
      </trkpt>
      <trkpt lat="43.026570" lon="-5.059730">
        <ele>1101.637</ele>
        <time>2020-05-22T11:13:32Z</time>
      </trkpt>
      <trkpt lat="43.026530" lon="-5.059650">
        <ele>1103.549</ele>
        <time>2020-05-22T11:13:52Z</time>
      </trkpt>
      <trkpt lat="43.026500" lon="-5.059580">
        <ele>1104.713</ele>
        <time>2020-05-22T11:14:12Z</time>
      </trkpt>
      <trkpt lat="43.026470" lon="-5.059520">
        <ele>1104.808</ele>
        <time>2020-05-22T11:14:32Z</time>
      </trkpt>
      <trkpt lat="43.026460" lon="-5.059460">
        <ele>1105.577</ele>
        <time>2020-05-22T11:14:52Z</time>
      </trkpt>
      <trkpt lat="43.026440" lon="-5.059370">
        <ele>1105.982</ele>
        <time>2020-05-22T11:15:12Z</time>
      </trkpt>
      <trkpt lat="43.026430" lon="-5.059300">
        <ele>1106.489</ele>
        <time>2020-05-22T11:15:32Z</time>
      </trkpt>
      <trkpt lat="43.026410" lon="-5.059100">
        <ele>1106.615</ele>
        <time>2020-05-22T11:15:52Z</time>
      </trkpt>
      <trkpt lat="43.026420" lon="-5.058900">
        <ele>1106.564</ele>
        <time>2020-05-22T11:16:12Z</time>
      </trkpt>
      <trkpt lat="43.026430" lon="-5.058720">
        <ele>1106.611</ele>
        <time>2020-05-22T11:16:32Z</time>
      </trkpt>
      <trkpt lat="43.026440" lon="-5.058580">
        <ele>1106.836</ele>
        <time>2020-05-22T11:16:52Z</time>
      </trkpt>
      <trkpt lat="43.026450" lon="-5.058470">
        <ele>1107.450</ele>
        <time>2020-05-22T11:17:12Z</time>
      </trkpt>
      <trkpt lat="43.026450" lon="-5.058350">
        <ele>1107.241</ele>
        <time>2020-05-22T11:17:32Z</time>
      </trkpt>
      <trkpt lat="43.026460" lon="-5.058230">
        <ele>1108.381</ele>
        <time>2020-05-22T11:17:52Z</time>
      </trkpt>
      <trkpt lat="43.026460" lon="-5.058120">
        <ele>1108.809</ele>
        <time>2020-05-22T11:18:12Z</time>
      </trkpt>
      <trkpt lat="43.026460" lon="-5.058020">
        <ele>1109.208</ele>
        <time>2020-05-22T11:18:32Z</time>
      </trkpt>
      <trkpt lat="43.026440" lon="-5.057920">
        <ele>1107.728</ele>
        <time>2020-05-22T11:18:52Z</time>
      </trkpt>
      <trkpt lat="43.026430" lon="-5.057830">
        <ele>1106.913</ele>
        <time>2020-05-22T11:19:12Z</time>
      </trkpt>
      <trkpt lat="43.026410" lon="-5.057760">
        <ele>1105.220</ele>
        <time>2020-05-22T11:19:32Z</time>
      </trkpt>
      <trkpt lat="43.026350" lon="-5.057570">
        <ele>1104.316</ele>
        <time>2020-05-22T11:19:52Z</time>
      </trkpt>
      <trkpt lat="43.026130" lon="-5.056970">
        <ele>1105.445</ele>
        <time>2020-05-22T11:20:12Z</time>
      </trkpt>
      <trkpt lat="43.026090" lon="-5.056870">
        <ele>1106.712</ele>
        <time>2020-05-22T11:20:32Z</time>
      </trkpt>
      <trkpt lat="43.025920" lon="-5.056510">
        <ele>1109.827</ele>
        <time>2020-05-22T11:20:52Z</time>
      </trkpt>
      <trkpt lat="43.025770" lon="-5.056100">
        <ele>1110.441</ele>
        <time>2020-05-22T11:21:12Z</time>
      </trkpt>
      <trkpt lat="43.025630" lon="-5.055650">
        <ele>1109.364</ele>
        <time>2020-05-22T11:21:32Z</time>
      </trkpt>
      <trkpt lat="43.025610" lon="-5.055600">
        <ele>1109.206</ele>
        <time>2020-05-22T11:21:52Z</time>
      </trkpt>
      <trkpt lat="43.025540" lon="-5.055340">
        <ele>1109.816</ele>
        <time>2020-05-22T11:22:12Z</time>
      </trkpt>
      <trkpt lat="43.025490" lon="-5.055110">
        <ele>1111.108</ele>
        <time>2020-05-22T11:22:32Z</time>
      </trkpt>
      <trkpt lat="43.025440" lon="-5.054800">
        <ele>1112.740</ele>
        <time>2020-05-22T11:22:52Z</time>
      </trkpt>
      <trkpt lat="43.025390" lon="-5.054540">
        <ele>1112.035</ele>
        <time>2020-05-22T11:23:12Z</time>
      </trkpt>
      <trkpt lat="43.025380" lon="-5.054460">
        <ele>1111.752</ele>
        <time>2020-05-22T11:23:32Z</time>
      </trkpt>
      <trkpt lat="43.025380" lon="-5.054400">
        <ele>1111.848</ele>
        <time>2020-05-22T11:23:52Z</time>
      </trkpt>
      <trkpt lat="43.025380" lon="-5.054250">
        <ele>1111.877</ele>
        <time>2020-05-22T11:24:12Z</time>
      </trkpt>
      <trkpt lat="43.025400" lon="-5.053990">
        <ele>1112.214</ele>
        <time>2020-05-22T11:24:32Z</time>
      </trkpt>
      <trkpt lat="43.025420" lon="-5.053520">
        <ele>1110.199</ele>
        <time>2020-05-22T11:24:52Z</time>
      </trkpt>
      <trkpt lat="43.025440" lon="-5.053140">
        <ele>1109.373</ele>
        <time>2020-05-22T11:25:12Z</time>
      </trkpt>
      <trkpt lat="43.025500" lon="-5.052740">
        <ele>1110.125</ele>
        <time>2020-05-22T11:25:32Z</time>
      </trkpt>
      <trkpt lat="43.025550" lon="-5.052440">
        <ele>1109.926</ele>
        <time>2020-05-22T11:25:52Z</time>
      </trkpt>
      <trkpt lat="43.025560" lon="-5.052370">
        <ele>1110.108</ele>
        <time>2020-05-22T11:26:12Z</time>
      </trkpt>
      <trkpt lat="43.025600" lon="-5.052070">
        <ele>1111.508</ele>
        <time>2020-05-22T11:26:32Z</time>
      </trkpt>
      <trkpt lat="43.025620" lon="-5.051680">
        <ele>1112.316</ele>
        <time>2020-05-22T11:26:52Z</time>
      </trkpt>
      <trkpt lat="43.025600" lon="-5.051320">
        <ele>1111.661</ele>
        <time>2020-05-22T11:27:12Z</time>
      </trkpt>
      <trkpt lat="43.025600" lon="-5.050940">
        <ele>1111.698</ele>
        <time>2020-05-22T11:27:32Z</time>
      </trkpt>
      <trkpt lat="43.025580" lon="-5.050700">
        <ele>1111.484</ele>
        <time>2020-05-22T11:27:52Z</time>
      </trkpt>
      <trkpt lat="43.025570" lon="-5.050660">
        <ele>1111.253</ele>
        <time>2020-05-22T11:28:12Z</time>
      </trkpt>
      <trkpt lat="43.025550" lon="-5.050490">
        <ele>1110.970</ele>
        <time>2020-05-22T11:28:32Z</time>
      </trkpt>
      <trkpt lat="43.025510" lon="-5.050330">
        <ele>1110.215</ele>
        <time>2020-05-22T11:28:52Z</time>
      </trkpt>
      <trkpt lat="43.025460" lon="-5.050020">
        <ele>1109.939</ele>
        <time>2020-05-22T11:29:12Z</time>
      </trkpt>
      <trkpt lat="43.025460" lon="-5.050000">
        <ele>1109.982</ele>
        <time>2020-05-22T11:29:32Z</time>
      </trkpt>
      <trkpt lat="43.025450" lon="-5.049710">
        <ele>1110.343</ele>
        <time>2020-05-22T11:29:52Z</time>
      </trkpt>
      <trkpt lat="43.025470" lon="-5.049410">
        <ele>1109.017</ele>
        <time>2020-05-22T11:30:12Z</time>
      </trkpt>
      <trkpt lat="43.025480" lon="-5.049260">
        <ele>1108.408</ele>
        <time>2020-05-22T11:30:32Z</time>
      </trkpt>
      <trkpt lat="43.025490" lon="-5.049080">
        <ele>1108.182</ele>
        <time>2020-05-22T11:30:52Z</time>
      </trkpt>
      <trkpt lat="43.025490" lon="-5.049010">
        <ele>1108.157</ele>
        <time>2020-05-22T11:31:12Z</time>
      </trkpt>
      <trkpt lat="43.025500" lon="-5.048770">
        <ele>1107.874</ele>
        <time>2020-05-22T11:31:32Z</time>
      </trkpt>
      <trkpt lat="43.025510" lon="-5.048640">
        <ele>1107.450</ele>
        <time>2020-05-22T11:31:52Z</time>
      </trkpt>
      <trkpt lat="43.025520" lon="-5.048410">
        <ele>1106.929</ele>
        <time>2020-05-22T11:32:12Z</time>
      </trkpt>
      <trkpt lat="43.025530" lon="-5.048080">
        <ele>1106.766</ele>
        <time>2020-05-22T11:32:32Z</time>
      </trkpt>
      <trkpt lat="43.025520" lon="-5.047790">
        <ele>1105.871</ele>
        <time>2020-05-22T11:32:52Z</time>
      </trkpt>
      <trkpt lat="43.025520" lon="-5.047780">
        <ele>1105.885</ele>
        <time>2020-05-22T11:33:12Z</time>
      </trkpt>
      <trkpt lat="43.025510" lon="-5.047500">
        <ele>1104.852</ele>
        <time>2020-05-22T11:33:32Z</time>
      </trkpt>
      <trkpt lat="43.025490" lon="-5.047330">
        <ele>1104.453</ele>
        <time>2020-05-22T11:33:52Z</time>
      </trkpt>
      <trkpt lat="43.025490" lon="-5.047300">
        <ele>1104.408</ele>
        <time>2020-05-22T11:34:12Z</time>
      </trkpt>
      <trkpt lat="43.025470" lon="-5.047230">
        <ele>1104.308</ele>
        <time>2020-05-22T11:34:32Z</time>
      </trkpt>
      <trkpt lat="43.025440" lon="-5.047130">
        <ele>1104.039</ele>
        <time>2020-05-22T11:34:52Z</time>
      </trkpt>
      <trkpt lat="43.025410" lon="-5.047050">
        <ele>1104.094</ele>
        <time>2020-05-22T11:35:12Z</time>
      </trkpt>
      <trkpt lat="43.025350" lon="-5.046920">
        <ele>1104.681</ele>
        <time>2020-05-22T11:35:32Z</time>
      </trkpt>
      <trkpt lat="43.025320" lon="-5.046870">
        <ele>1104.897</ele>
        <time>2020-05-22T11:35:52Z</time>
      </trkpt>
      <trkpt lat="43.025280" lon="-5.046800">
        <ele>1104.956</ele>
        <time>2020-05-22T11:36:12Z</time>
      </trkpt>
      <trkpt lat="43.025210" lon="-5.046670">
        <ele>1104.073</ele>
        <time>2020-05-22T11:36:32Z</time>
      </trkpt>
      <trkpt lat="43.025190" lon="-5.046650">
        <ele>1103.948</ele>
        <time>2020-05-22T11:36:52Z</time>
      </trkpt>
      <trkpt lat="43.025040" lon="-5.046450">
        <ele>1105.092</ele>
        <time>2020-05-22T11:37:12Z</time>
      </trkpt>
      <trkpt lat="43.024870" lon="-5.046250">
        <ele>1106.172</ele>
        <time>2020-05-22T11:37:32Z</time>
      </trkpt>
      <trkpt lat="43.024810" lon="-5.046180">
        <ele>1106.513</ele>
        <time>2020-05-22T11:37:52Z</time>
      </trkpt>
      <trkpt lat="43.024690" lon="-5.046020">
        <ele>1108.014</ele>
        <time>2020-05-22T11:38:12Z</time>
      </trkpt>
      <trkpt lat="43.024520" lon="-5.045840">
        <ele>1107.508</ele>
        <time>2020-05-22T11:38:32Z</time>
      </trkpt>
      <trkpt lat="43.024500" lon="-5.045820">
        <ele>1107.551</ele>
        <time>2020-05-22T11:38:52Z</time>
      </trkpt>
      <trkpt lat="43.024400" lon="-5.045680">
        <ele>1107.566</ele>
        <time>2020-05-22T11:39:12Z</time>
      </trkpt>
      <trkpt lat="43.024390" lon="-5.045670">
        <ele>1107.573</ele>
        <time>2020-05-22T11:39:32Z</time>
      </trkpt>
      <trkpt lat="43.024300" lon="-5.045530">
        <ele>1108.419</ele>
        <time>2020-05-22T11:39:52Z</time>
      </trkpt>
      <trkpt lat="43.024270" lon="-5.045490">
        <ele>1108.678</ele>
        <time>2020-05-22T11:40:12Z</time>
      </trkpt>
      <trkpt lat="43.024230" lon="-5.045420">
        <ele>1108.745</ele>
        <time>2020-05-22T11:40:32Z</time>
      </trkpt>
      <trkpt lat="43.024170" lon="-5.045270">
        <ele>1108.340</ele>
        <time>2020-05-22T11:40:52Z</time>
      </trkpt>
      <trkpt lat="43.024120" lon="-5.045140">
        <ele>1109.164</ele>
        <time>2020-05-22T11:41:12Z</time>
      </trkpt>
      <trkpt lat="43.024080" lon="-5.045040">
        <ele>1109.598</ele>
        <time>2020-05-22T11:41:32Z</time>
      </trkpt>
      <trkpt lat="43.024000" lon="-5.044810">
        <ele>1110.515</ele>
        <time>2020-05-22T11:41:52Z</time>
      </trkpt>
      <trkpt lat="43.023920" lon="-5.044590">
        <ele>1110.426</ele>
        <time>2020-05-22T11:42:12Z</time>
      </trkpt>
      <trkpt lat="43.023850" lon="-5.044410">
        <ele>1110.508</ele>
        <time>2020-05-22T11:42:32Z</time>
      </trkpt>
      <trkpt lat="43.023780" lon="-5.044260">
        <ele>1111.743</ele>
        <time>2020-05-22T11:42:52Z</time>
      </trkpt>
      <trkpt lat="43.023750" lon="-5.044200">
        <ele>1112.288</ele>
        <time>2020-05-22T11:43:12Z</time>
      </trkpt>
      <trkpt lat="43.023690" lon="-5.044120">
        <ele>1112.775</ele>
        <time>2020-05-22T11:43:32Z</time>
      </trkpt>
      <trkpt lat="43.023620" lon="-5.044040">
        <ele>1112.971</ele>
        <time>2020-05-22T11:43:52Z</time>
      </trkpt>
      <trkpt lat="43.023490" lon="-5.043920">
        <ele>1114.060</ele>
        <time>2020-05-22T11:44:12Z</time>
      </trkpt>
      <trkpt lat="43.023470" lon="-5.043900">
        <ele>1114.227</ele>
        <time>2020-05-22T11:44:32Z</time>
      </trkpt>
      <trkpt lat="43.023330" lon="-5.043810">
        <ele>1114.242</ele>
        <time>2020-05-22T11:44:52Z</time>
      </trkpt>
      <trkpt lat="43.023150" lon="-5.043670">
        <ele>1115.386</ele>
        <time>2020-05-22T11:45:12Z</time>
      </trkpt>
      <trkpt lat="43.023110" lon="-5.043630">
        <ele>1115.539</ele>
        <time>2020-05-22T11:45:32Z</time>
      </trkpt>
      <trkpt lat="43.023000" lon="-5.043510">
        <ele>1117.501</ele>
        <time>2020-05-22T11:45:52Z</time>
      </trkpt>
      <trkpt lat="43.022850" lon="-5.043310">
        <ele>1119.021</ele>
        <time>2020-05-22T11:46:12Z</time>
      </trkpt>
      <trkpt lat="43.022790" lon="-5.043150">
        <ele>1120.108</ele>
        <time>2020-05-22T11:46:32Z</time>
      </trkpt>
      <trkpt lat="43.022780" lon="-5.043140">
        <ele>1119.967</ele>
        <time>2020-05-22T11:46:52Z</time>
      </trkpt>
      <trkpt lat="43.022730" lon="-5.043010">
        <ele>1121.212</ele>
        <time>2020-05-22T11:47:12Z</time>
      </trkpt>
      <trkpt lat="43.022650" lon="-5.042760">
        <ele>1123.999</ele>
        <time>2020-05-22T11:47:32Z</time>
      </trkpt>
      <trkpt lat="43.022550" lon="-5.042560">
        <ele>1123.945</ele>
        <time>2020-05-22T11:47:52Z</time>
      </trkpt>
      <trkpt lat="43.022540" lon="-5.042540">
        <ele>1123.844</ele>
        <time>2020-05-22T11:48:12Z</time>
      </trkpt>
      <trkpt lat="43.022390" lon="-5.042290">
        <ele>1125.621</ele>
        <time>2020-05-22T11:48:32Z</time>
      </trkpt>
      <trkpt lat="43.022290" lon="-5.042150">
        <ele>1127.086</ele>
        <time>2020-05-22T11:48:52Z</time>
      </trkpt>
      <trkpt lat="43.022200" lon="-5.042050">
        <ele>1127.360</ele>
        <time>2020-05-22T11:49:12Z</time>
      </trkpt>
      <trkpt lat="43.022040" lon="-5.041890">
        <ele>1129.062</ele>
        <time>2020-05-22T11:49:32Z</time>
      </trkpt>
      <trkpt lat="43.021990" lon="-5.041840">
        <ele>1129.383</ele>
        <time>2020-05-22T11:49:52Z</time>
      </trkpt>
      <trkpt lat="43.021890" lon="-5.041750">
        <ele>1128.811</ele>
        <time>2020-05-22T11:50:12Z</time>
      </trkpt>
      <trkpt lat="43.021840" lon="-5.041700">
        <ele>1128.608</ele>
        <time>2020-05-22T11:50:32Z</time>
      </trkpt>
      <trkpt lat="43.021750" lon="-5.041590">
        <ele>1128.810</ele>
        <time>2020-05-22T11:50:52Z</time>
      </trkpt>
      <trkpt lat="43.021680" lon="-5.041470">
        <ele>1129.065</ele>
        <time>2020-05-22T11:51:12Z</time>
      </trkpt>
      <trkpt lat="43.021640" lon="-5.041350">
        <ele>1129.972</ele>
        <time>2020-05-22T11:51:32Z</time>
      </trkpt>
      <trkpt lat="43.021620" lon="-5.041220">
        <ele>1131.658</ele>
        <time>2020-05-22T11:51:52Z</time>
      </trkpt>
      <trkpt lat="43.021610" lon="-5.041070">
        <ele>1133.287</ele>
        <time>2020-05-22T11:52:12Z</time>
      </trkpt>
      <trkpt lat="43.021610" lon="-5.041030">
        <ele>1133.264</ele>
        <time>2020-05-22T11:52:32Z</time>
      </trkpt>
      <trkpt lat="43.021620" lon="-5.040850">
        <ele>1133.519</ele>
        <time>2020-05-22T11:52:52Z</time>
      </trkpt>
      <trkpt lat="43.021650" lon="-5.040670">
        <ele>1132.783</ele>
        <time>2020-05-22T11:53:12Z</time>
      </trkpt>
      <trkpt lat="43.021670" lon="-5.040590">
        <ele>1132.315</ele>
        <time>2020-05-22T11:53:32Z</time>
      </trkpt>
      <trkpt lat="43.021690" lon="-5.040510">
        <ele>1132.065</ele>
        <time>2020-05-22T11:53:52Z</time>
      </trkpt>
      <trkpt lat="43.021750" lon="-5.040360">
        <ele>1131.011</ele>
        <time>2020-05-22T11:54:12Z</time>
      </trkpt>
      <trkpt lat="43.021820" lon="-5.040230">
        <ele>1129.908</ele>
        <time>2020-05-22T11:54:32Z</time>
      </trkpt>
      <trkpt lat="43.021880" lon="-5.040130">
        <ele>1129.245</ele>
        <time>2020-05-22T11:54:52Z</time>
      </trkpt>
      <trkpt lat="43.021980" lon="-5.040010">
        <ele>1128.810</ele>
        <time>2020-05-22T11:55:12Z</time>
      </trkpt>
      <trkpt lat="43.022070" lon="-5.039890">
        <ele>1129.577</ele>
        <time>2020-05-22T11:55:32Z</time>
      </trkpt>
      <trkpt lat="43.022120" lon="-5.039820">
        <ele>1129.913</ele>
        <time>2020-05-22T11:55:52Z</time>
      </trkpt>
      <trkpt lat="43.022150" lon="-5.039760">
        <ele>1130.012</ele>
        <time>2020-05-22T11:56:12Z</time>
      </trkpt>
      <trkpt lat="43.022190" lon="-5.039650">
        <ele>1129.719</ele>
        <time>2020-05-22T11:56:32Z</time>
      </trkpt>
      <trkpt lat="43.022200" lon="-5.039610">
        <ele>1129.584</ele>
        <time>2020-05-22T11:56:52Z</time>
      </trkpt>
      <trkpt lat="43.022220" lon="-5.039540">
        <ele>1129.078</ele>
        <time>2020-05-22T11:57:12Z</time>
      </trkpt>
      <trkpt lat="43.022250" lon="-5.039380">
        <ele>1128.428</ele>
        <time>2020-05-22T11:57:32Z</time>
      </trkpt>
      <trkpt lat="43.022250" lon="-5.039360">
        <ele>1128.289</ele>
        <time>2020-05-22T11:57:52Z</time>
      </trkpt>
      <trkpt lat="43.022270" lon="-5.039190">
        <ele>1127.717</ele>
        <time>2020-05-22T11:58:12Z</time>
      </trkpt>
      <trkpt lat="43.022300" lon="-5.038960">
        <ele>1127.008</ele>
        <time>2020-05-22T11:58:32Z</time>
      </trkpt>
      <trkpt lat="43.022300" lon="-5.038890">
        <ele>1126.556</ele>
        <time>2020-05-22T11:58:52Z</time>
      </trkpt>
      <trkpt lat="43.022300" lon="-5.038710">
        <ele>1125.161</ele>
        <time>2020-05-22T11:59:12Z</time>
      </trkpt>
      <trkpt lat="43.022300" lon="-5.038640">
        <ele>1124.548</ele>
        <time>2020-05-22T11:59:32Z</time>
      </trkpt>
      <trkpt lat="43.022310" lon="-5.038460">
        <ele>1123.334</ele>
        <time>2020-05-22T11:59:52Z</time>
      </trkpt>
      <trkpt lat="43.022340" lon="-5.038220">
        <ele>1122.283</ele>
        <time>2020-05-22T12:00:12Z</time>
      </trkpt>
      <trkpt lat="43.022370" lon="-5.038040">
        <ele>1121.550</ele>
        <time>2020-05-22T12:00:32Z</time>
      </trkpt>
      <trkpt lat="43.022420" lon="-5.037880">
        <ele>1120.425</ele>
        <time>2020-05-22T12:00:52Z</time>
      </trkpt>
      <trkpt lat="43.022510" lon="-5.037680">
        <ele>1118.519</ele>
        <time>2020-05-22T12:01:12Z</time>
      </trkpt>
      <trkpt lat="43.022590" lon="-5.037500">
        <ele>1116.336</ele>
        <time>2020-05-22T12:01:32Z</time>
      </trkpt>
      <trkpt lat="43.022610" lon="-5.037440">
        <ele>1115.517</ele>
        <time>2020-05-22T12:01:52Z</time>
      </trkpt>
      <trkpt lat="43.022670" lon="-5.037280">
        <ele>1113.518</ele>
        <time>2020-05-22T12:02:12Z</time>
      </trkpt>
      <trkpt lat="43.022680" lon="-5.037260">
        <ele>1113.308</ele>
        <time>2020-05-22T12:02:32Z</time>
      </trkpt>
      <trkpt lat="43.022730" lon="-5.037070">
        <ele>1111.467</ele>
        <time>2020-05-22T12:02:52Z</time>
      </trkpt>
      <trkpt lat="43.022740" lon="-5.036890">
        <ele>1109.782</ele>
        <time>2020-05-22T12:03:12Z</time>
      </trkpt>
      <trkpt lat="43.022740" lon="-5.036800">
        <ele>1109.279</ele>
        <time>2020-05-22T12:03:32Z</time>
      </trkpt>
      <trkpt lat="43.022750" lon="-5.036700">
        <ele>1108.885</ele>
        <time>2020-05-22T12:03:52Z</time>
      </trkpt>
      <trkpt lat="43.022710" lon="-5.036560">
        <ele>1107.774</ele>
        <time>2020-05-22T12:04:12Z</time>
      </trkpt>
      <trkpt lat="43.022710" lon="-5.036530">
        <ele>1107.651</ele>
        <time>2020-05-22T12:04:32Z</time>
      </trkpt>
      <trkpt lat="43.022660" lon="-5.036370">
        <ele>1107.476</ele>
        <time>2020-05-22T12:04:52Z</time>
      </trkpt>
      <trkpt lat="43.022650" lon="-5.036340">
        <ele>1107.350</ele>
        <time>2020-05-22T12:05:12Z</time>
      </trkpt>
      <trkpt lat="43.022600" lon="-5.036250">
        <ele>1107.734</ele>
        <time>2020-05-22T12:05:32Z</time>
      </trkpt>
      <trkpt lat="43.022530" lon="-5.036150">
        <ele>1109.155</ele>
        <time>2020-05-22T12:05:52Z</time>
      </trkpt>
      <trkpt lat="43.022520" lon="-5.036140">
        <ele>1109.410</ele>
        <time>2020-05-22T12:06:12Z</time>
      </trkpt>
      <trkpt lat="43.022440" lon="-5.036070">
        <ele>1109.608</ele>
        <time>2020-05-22T12:06:32Z</time>
      </trkpt>
      <trkpt lat="43.022380" lon="-5.036020">
        <ele>1109.517</ele>
        <time>2020-05-22T12:06:52Z</time>
      </trkpt>
      <trkpt lat="43.022340" lon="-5.035990">
        <ele>1109.782</ele>
        <time>2020-05-22T12:07:12Z</time>
      </trkpt>
      <trkpt lat="43.022220" lon="-5.035930">
        <ele>1110.629</ele>
        <time>2020-05-22T12:07:32Z</time>
      </trkpt>
      <trkpt lat="43.022100" lon="-5.035900">
        <ele>1111.835</ele>
        <time>2020-05-22T12:07:52Z</time>
      </trkpt>
      <trkpt lat="43.022030" lon="-5.035900">
        <ele>1112.394</ele>
        <time>2020-05-22T12:08:12Z</time>
      </trkpt>
      <trkpt lat="43.022010" lon="-5.035900">
        <ele>1112.491</ele>
        <time>2020-05-22T12:08:32Z</time>
      </trkpt>
      <trkpt lat="43.021910" lon="-5.035910">
        <ele>1112.876</ele>
        <time>2020-05-22T12:08:52Z</time>
      </trkpt>
      <trkpt lat="43.021690" lon="-5.035970">
        <ele>1112.930</ele>
        <time>2020-05-22T12:09:12Z</time>
      </trkpt>
      <trkpt lat="43.021460" lon="-5.036030">
        <ele>1114.255</ele>
        <time>2020-05-22T12:09:32Z</time>
      </trkpt>
      <trkpt lat="43.021170" lon="-5.036070">
        <ele>1115.807</ele>
        <time>2020-05-22T12:09:52Z</time>
      </trkpt>
      <trkpt lat="43.020970" lon="-5.036080">
        <ele>1116.917</ele>
        <time>2020-05-22T12:10:12Z</time>
      </trkpt>
      <trkpt lat="43.020940" lon="-5.036080">
        <ele>1117.108</ele>
        <time>2020-05-22T12:10:32Z</time>
      </trkpt>
      <trkpt lat="43.020730" lon="-5.036070">
        <ele>1118.099</ele>
        <time>2020-05-22T12:10:52Z</time>
      </trkpt>
      <trkpt lat="43.020460" lon="-5.036040">
        <ele>1118.754</ele>
        <time>2020-05-22T12:11:12Z</time>
      </trkpt>
      <trkpt lat="43.020250" lon="-5.035990">
        <ele>1119.531</ele>
        <time>2020-05-22T12:11:32Z</time>
      </trkpt>
      <trkpt lat="43.020080" lon="-5.035930">
        <ele>1119.787</ele>
        <time>2020-05-22T12:11:52Z</time>
      </trkpt>
      <trkpt lat="43.020020" lon="-5.035920">
        <ele>1119.686</ele>
        <time>2020-05-22T12:12:12Z</time>
      </trkpt>
      <trkpt lat="43.019750" lon="-5.035800">
        <ele>1121.073</ele>
        <time>2020-05-22T12:12:32Z</time>
      </trkpt>
      <trkpt lat="43.019500" lon="-5.035690">
        <ele>1121.638</ele>
        <time>2020-05-22T12:12:52Z</time>
      </trkpt>
      <trkpt lat="43.019270" lon="-5.035550">
        <ele>1122.522</ele>
        <time>2020-05-22T12:13:12Z</time>
      </trkpt>
      <trkpt lat="43.019230" lon="-5.035520">
        <ele>1122.984</ele>
        <time>2020-05-22T12:13:32Z</time>
      </trkpt>
      <trkpt lat="43.019080" lon="-5.035380">
        <ele>1123.207</ele>
        <time>2020-05-22T12:13:52Z</time>
      </trkpt>
      <trkpt lat="43.018880" lon="-5.035150">
        <ele>1123.717</ele>
        <time>2020-05-22T12:14:12Z</time>
      </trkpt>
      <trkpt lat="43.018700" lon="-5.034950">
        <ele>1124.608</ele>
        <time>2020-05-22T12:14:32Z</time>
      </trkpt>
      <trkpt lat="43.018670" lon="-5.034910">
        <ele>1124.792</ele>
        <time>2020-05-22T12:14:52Z</time>
      </trkpt>
      <trkpt lat="43.018520" lon="-5.034720">
        <ele>1125.477</ele>
        <time>2020-05-22T12:15:12Z</time>
      </trkpt>
      <trkpt lat="43.018150" lon="-5.034320">
        <ele>1128.684</ele>
        <time>2020-05-22T12:15:32Z</time>
      </trkpt>
      <trkpt lat="43.017980" lon="-5.034120">
        <ele>1129.860</ele>
        <time>2020-05-22T12:15:52Z</time>
      </trkpt>
      <trkpt lat="43.017970" lon="-5.034110">
        <ele>1129.899</ele>
        <time>2020-05-22T12:16:12Z</time>
      </trkpt>
      <trkpt lat="43.017640" lon="-5.033820">
        <ele>1130.436</ele>
        <time>2020-05-22T12:16:32Z</time>
      </trkpt>
      <trkpt lat="43.017530" lon="-5.033710">
        <ele>1131.521</ele>
        <time>2020-05-22T12:16:52Z</time>
      </trkpt>
      <trkpt lat="43.017340" lon="-5.033520">
        <ele>1133.145</ele>
        <time>2020-05-22T12:17:12Z</time>
      </trkpt>
      <trkpt lat="43.016990" lon="-5.033270">
        <ele>1134.041</ele>
        <time>2020-05-22T12:17:32Z</time>
      </trkpt>
      <trkpt lat="43.016770" lon="-5.033170">
        <ele>1133.881</ele>
        <time>2020-05-22T12:17:52Z</time>
      </trkpt>
      <trkpt lat="43.016550" lon="-5.033040">
        <ele>1133.609</ele>
        <time>2020-05-22T12:18:12Z</time>
      </trkpt>
      <trkpt lat="43.016410" lon="-5.032940">
        <ele>1134.708</ele>
        <time>2020-05-22T12:18:32Z</time>
      </trkpt>
      <trkpt lat="43.016350" lon="-5.032890">
        <ele>1135.198</ele>
        <time>2020-05-22T12:18:52Z</time>
      </trkpt>
      <trkpt lat="43.016120" lon="-5.032730">
        <ele>1134.813</ele>
        <time>2020-05-22T12:19:12Z</time>
      </trkpt>
      <trkpt lat="43.016090" lon="-5.032710">
        <ele>1134.790</ele>
        <time>2020-05-22T12:19:32Z</time>
      </trkpt>
      <trkpt lat="43.015940" lon="-5.032550">
        <ele>1134.876</ele>
        <time>2020-05-22T12:19:52Z</time>
      </trkpt>
      <trkpt lat="43.015860" lon="-5.032450">
        <ele>1134.825</ele>
        <time>2020-05-22T12:20:12Z</time>
      </trkpt>
      <trkpt lat="43.015820" lon="-5.032360">
        <ele>1134.692</ele>
        <time>2020-05-22T12:20:32Z</time>
      </trkpt>
      <trkpt lat="43.015790" lon="-5.032200">
        <ele>1134.547</ele>
        <time>2020-05-22T12:20:52Z</time>
      </trkpt>
      <trkpt lat="43.015780" lon="-5.032140">
        <ele>1134.441</ele>
        <time>2020-05-22T12:21:12Z</time>
      </trkpt>
      <trkpt lat="43.015770" lon="-5.032030">
        <ele>1134.488</ele>
        <time>2020-05-22T12:21:32Z</time>
      </trkpt>
      <trkpt lat="43.015780" lon="-5.031900">
        <ele>1135.024</ele>
        <time>2020-05-22T12:21:52Z</time>
      </trkpt>
      <trkpt lat="43.015780" lon="-5.031860">
        <ele>1134.826</ele>
        <time>2020-05-22T12:22:12Z</time>
      </trkpt>
      <trkpt lat="43.015790" lon="-5.031680">
        <ele>1134.608</ele>
        <time>2020-05-22T12:22:32Z</time>
      </trkpt>
      <trkpt lat="43.015790" lon="-5.031650">
        <ele>1134.642</ele>
        <time>2020-05-22T12:22:52Z</time>
      </trkpt>
      <trkpt lat="43.015810" lon="-5.031550">
        <ele>1134.927</ele>
        <time>2020-05-22T12:23:12Z</time>
      </trkpt>
      <trkpt lat="43.015850" lon="-5.031440">
        <ele>1135.714</ele>
        <time>2020-05-22T12:23:32Z</time>
      </trkpt>
      <trkpt lat="43.015860" lon="-5.031430">
        <ele>1135.930</ele>
        <time>2020-05-22T12:23:52Z</time>
      </trkpt>
      <trkpt lat="43.015940" lon="-5.031270">
        <ele>1136.939</ele>
        <time>2020-05-22T12:24:12Z</time>
      </trkpt>
      <trkpt lat="43.015960" lon="-5.031230">
        <ele>1136.866</ele>
        <time>2020-05-22T12:24:32Z</time>
      </trkpt>
      <trkpt lat="43.016040" lon="-5.031110">
        <ele>1135.791</ele>
        <time>2020-05-22T12:24:52Z</time>
      </trkpt>
      <trkpt lat="43.016200" lon="-5.030950">
        <ele>1135.635</ele>
        <time>2020-05-22T12:25:12Z</time>
      </trkpt>
      <trkpt lat="43.016240" lon="-5.030920">
        <ele>1135.563</ele>
        <time>2020-05-22T12:25:32Z</time>
      </trkpt>
      <trkpt lat="43.016360" lon="-5.030840">
        <ele>1134.244</ele>
        <time>2020-05-22T12:25:52Z</time>
      </trkpt>
      <trkpt lat="43.016520" lon="-5.030760">
        <ele>1134.518</ele>
        <time>2020-05-22T12:26:12Z</time>
      </trkpt>
      <trkpt lat="43.016650" lon="-5.030670">
        <ele>1134.008</ele>
        <time>2020-05-22T12:26:32Z</time>
      </trkpt>
      <trkpt lat="43.016750" lon="-5.030590">
        <ele>1132.240</ele>
        <time>2020-05-22T12:26:52Z</time>
      </trkpt>
      <trkpt lat="43.016810" lon="-5.030520">
        <ele>1130.645</ele>
        <time>2020-05-22T12:27:12Z</time>
      </trkpt>
      <trkpt lat="43.016860" lon="-5.030460">
        <ele>1130.172</ele>
        <time>2020-05-22T12:27:32Z</time>
      </trkpt>
      <trkpt lat="43.016940" lon="-5.030350">
        <ele>1130.768</ele>
        <time>2020-05-22T12:27:52Z</time>
      </trkpt>
      <trkpt lat="43.016980" lon="-5.030260">
        <ele>1130.217</ele>
        <time>2020-05-22T12:28:12Z</time>
      </trkpt>
      <trkpt lat="43.016990" lon="-5.030230">
        <ele>1130.194</ele>
        <time>2020-05-22T12:28:32Z</time>
      </trkpt>
      <trkpt lat="43.017020" lon="-5.030070">
        <ele>1130.279</ele>
        <time>2020-05-22T12:28:52Z</time>
      </trkpt>
      <trkpt lat="43.017040" lon="-5.029940">
        <ele>1131.293</ele>
        <time>2020-05-22T12:29:12Z</time>
      </trkpt>
      <trkpt lat="43.017050" lon="-5.029780">
        <ele>1132.963</ele>
        <time>2020-05-22T12:29:32Z</time>
      </trkpt>
      <trkpt lat="43.017040" lon="-5.029590">
        <ele>1134.444</ele>
        <time>2020-05-22T12:29:52Z</time>
      </trkpt>
      <trkpt lat="43.017000" lon="-5.029440">
        <ele>1134.318</ele>
        <time>2020-05-22T12:30:12Z</time>
      </trkpt>
      <trkpt lat="43.016940" lon="-5.029270">
        <ele>1134.408</ele>
        <time>2020-05-22T12:30:32Z</time>
      </trkpt>
      <trkpt lat="43.016880" lon="-5.029130">
        <ele>1134.840</ele>
        <time>2020-05-22T12:30:52Z</time>
      </trkpt>
      <trkpt lat="43.016870" lon="-5.029100">
        <ele>1135.145</ele>
        <time>2020-05-22T12:31:12Z</time>
      </trkpt>
      <trkpt lat="43.016810" lon="-5.028970">
        <ele>1135.752</ele>
        <time>2020-05-22T12:31:32Z</time>
      </trkpt>
      <trkpt lat="43.016780" lon="-5.028890">
        <ele>1136.268</ele>
        <time>2020-05-22T12:31:52Z</time>
      </trkpt>
      <trkpt lat="43.016740" lon="-5.028810">
        <ele>1135.657</ele>
        <time>2020-05-22T12:32:12Z</time>
      </trkpt>
      <trkpt lat="43.016690" lon="-5.028680">
        <ele>1135.114</ele>
        <time>2020-05-22T12:32:32Z</time>
      </trkpt>
      <trkpt lat="43.016680" lon="-5.028620">
        <ele>1135.359</ele>
        <time>2020-05-22T12:32:52Z</time>
      </trkpt>
      <trkpt lat="43.016630" lon="-5.028440">
        <ele>1134.973</ele>
        <time>2020-05-22T12:33:12Z</time>
      </trkpt>
      <trkpt lat="43.016620" lon="-5.028390">
        <ele>1134.965</ele>
        <time>2020-05-22T12:33:32Z</time>
      </trkpt>
      <trkpt lat="43.016580" lon="-5.028210">
        <ele>1134.768</ele>
        <time>2020-05-22T12:33:52Z</time>
      </trkpt>
      <trkpt lat="43.016570" lon="-5.028150">
        <ele>1134.614</ele>
        <time>2020-05-22T12:34:12Z</time>
      </trkpt>
      <trkpt lat="43.016510" lon="-5.027830">
        <ele>1133.608</ele>
        <time>2020-05-22T12:34:32Z</time>
      </trkpt>
      <trkpt lat="43.016480" lon="-5.027640">
        <ele>1133.330</ele>
        <time>2020-05-22T12:34:52Z</time>
      </trkpt>
      <trkpt lat="43.016450" lon="-5.027480">
        <ele>1132.925</ele>
        <time>2020-05-22T12:35:12Z</time>
      </trkpt>
      <trkpt lat="43.016400" lon="-5.027320">
        <ele>1132.092</ele>
        <time>2020-05-22T12:35:32Z</time>
      </trkpt>
      <trkpt lat="43.016340" lon="-5.027210">
        <ele>1131.118</ele>
        <time>2020-05-22T12:35:52Z</time>
      </trkpt>
      <trkpt lat="43.016230" lon="-5.027050">
        <ele>1131.037</ele>
        <time>2020-05-22T12:36:12Z</time>
      </trkpt>
      <trkpt lat="43.016140" lon="-5.026960">
        <ele>1129.734</ele>
        <time>2020-05-22T12:36:32Z</time>
      </trkpt>
      <trkpt lat="43.015980" lon="-5.026810">
        <ele>1127.829</ele>
        <time>2020-05-22T12:36:52Z</time>
      </trkpt>
      <trkpt lat="43.015830" lon="-5.026680">
        <ele>1127.773</ele>
        <time>2020-05-22T12:37:12Z</time>
      </trkpt>
      <trkpt lat="43.015810" lon="-5.026670">
        <ele>1127.834</ele>
        <time>2020-05-22T12:37:32Z</time>
      </trkpt>
      <trkpt lat="43.015700" lon="-5.026580">
        <ele>1128.055</ele>
        <time>2020-05-22T12:37:52Z</time>
      </trkpt>
      <trkpt lat="43.015580" lon="-5.026490">
        <ele>1127.010</ele>
        <time>2020-05-22T12:38:12Z</time>
      </trkpt>
      <trkpt lat="43.015490" lon="-5.026420">
        <ele>1126.708</ele>
        <time>2020-05-22T12:38:32Z</time>
      </trkpt>
      <trkpt lat="43.015470" lon="-5.026400">
        <ele>1126.727</ele>
        <time>2020-05-22T12:38:52Z</time>
      </trkpt>
      <trkpt lat="43.015460" lon="-5.026370">
        <ele>1126.852</ele>
        <time>2020-05-22T12:39:12Z</time>
      </trkpt>
      <trkpt lat="43.015430" lon="-5.026300">
        <ele>1127.159</ele>
        <time>2020-05-22T12:39:32Z</time>
      </trkpt>
      <trkpt lat="43.015420" lon="-5.026240">
        <ele>1127.375</ele>
        <time>2020-05-22T12:39:52Z</time>
      </trkpt>
      <trkpt lat="43.015410" lon="-5.026190">
        <ele>1127.554</ele>
        <time>2020-05-22T12:40:12Z</time>
      </trkpt>
      <trkpt lat="43.015400" lon="-5.026140">
        <ele>1127.521</ele>
        <time>2020-05-22T12:40:32Z</time>
      </trkpt>
      <trkpt lat="43.015380" lon="-5.026100">
        <ele>1127.346</ele>
        <time>2020-05-22T12:40:52Z</time>
      </trkpt>
      <trkpt lat="43.015360" lon="-5.026060">
        <ele>1127.160</ele>
        <time>2020-05-22T12:41:12Z</time>
      </trkpt>
      <trkpt lat="43.015340" lon="-5.026020">
        <ele>1126.972</ele>
        <time>2020-05-22T12:41:32Z</time>
      </trkpt>
      <trkpt lat="43.015270" lon="-5.025940">
        <ele>1126.113</ele>
        <time>2020-05-22T12:41:52Z</time>
      </trkpt>
      <trkpt lat="43.015180" lon="-5.025860">
        <ele>1125.414</ele>
        <time>2020-05-22T12:42:12Z</time>
      </trkpt>
      <trkpt lat="43.015090" lon="-5.025760">
        <ele>1125.408</ele>
        <time>2020-05-22T12:42:32Z</time>
      </trkpt>
      <trkpt lat="43.014940" lon="-5.025660">
        <ele>1125.011</ele>
        <time>2020-05-22T12:42:52Z</time>
      </trkpt>
      <trkpt lat="43.014840" lon="-5.025610">
        <ele>1125.056</ele>
        <time>2020-05-22T12:43:12Z</time>
      </trkpt>
      <trkpt lat="43.014740" lon="-5.025590">
        <ele>1124.573</ele>
        <time>2020-05-22T12:43:32Z</time>
      </trkpt>
      <trkpt lat="43.014620" lon="-5.025580">
        <ele>1124.119</ele>
        <time>2020-05-22T12:43:52Z</time>
      </trkpt>
      <trkpt lat="43.014520" lon="-5.025570">
        <ele>1123.988</ele>
        <time>2020-05-22T12:44:12Z</time>
      </trkpt>
      <trkpt lat="43.014400" lon="-5.025530">
        <ele>1124.225</ele>
        <time>2020-05-22T12:44:32Z</time>
      </trkpt>
      <trkpt lat="43.014340" lon="-5.025500">
        <ele>1124.320</ele>
        <time>2020-05-22T12:44:52Z</time>
      </trkpt>
      <trkpt lat="43.014280" lon="-5.025470">
        <ele>1124.224</ele>
        <time>2020-05-22T12:45:12Z</time>
      </trkpt>
      <trkpt lat="43.014190" lon="-5.025410">
        <ele>1123.818</ele>
        <time>2020-05-22T12:45:32Z</time>
      </trkpt>
      <trkpt lat="43.014120" lon="-5.025330">
        <ele>1123.298</ele>
        <time>2020-05-22T12:45:52Z</time>
      </trkpt>
      <trkpt lat="43.014060" lon="-5.025240">
        <ele>1123.217</ele>
        <time>2020-05-22T12:46:12Z</time>
      </trkpt>
      <trkpt lat="43.014050" lon="-5.025220">
        <ele>1123.308</ele>
        <time>2020-05-22T12:46:32Z</time>
      </trkpt>
      <trkpt lat="43.014010" lon="-5.025150">
        <ele>1123.425</ele>
        <time>2020-05-22T12:46:52Z</time>
      </trkpt>
      <trkpt lat="43.013990" lon="-5.025060">
        <ele>1123.740</ele>
        <time>2020-05-22T12:47:12Z</time>
      </trkpt>
      <trkpt lat="43.013970" lon="-5.025000">
        <ele>1123.897</ele>
        <time>2020-05-22T12:47:32Z</time>
      </trkpt>
      <trkpt lat="43.013970" lon="-5.024970">
        <ele>1123.833</ele>
        <time>2020-05-22T12:47:52Z</time>
      </trkpt>
      <trkpt lat="43.013950" lon="-5.024830">
        <ele>1123.222</ele>
        <time>2020-05-22T12:48:12Z</time>
      </trkpt>
      <trkpt lat="43.013950" lon="-5.024760">
        <ele>1123.249</ele>
        <time>2020-05-22T12:48:32Z</time>
      </trkpt>
      <trkpt lat="43.013940" lon="-5.024650">
        <ele>1122.484</ele>
        <time>2020-05-22T12:48:52Z</time>
      </trkpt>
      <trkpt lat="43.013940" lon="-5.024510">
        <ele>1121.598</ele>
        <time>2020-05-22T12:49:12Z</time>
      </trkpt>
      <trkpt lat="43.013940" lon="-5.024490">
        <ele>1121.339</ele>
        <time>2020-05-22T12:49:32Z</time>
      </trkpt>
      <trkpt lat="43.013940" lon="-5.024330">
        <ele>1120.001</ele>
        <time>2020-05-22T12:49:52Z</time>
      </trkpt>
      <trkpt lat="43.013940" lon="-5.024190">
        <ele>1118.721</ele>
        <time>2020-05-22T12:50:12Z</time>
      </trkpt>
      <trkpt lat="43.013950" lon="-5.024050">
        <ele>1117.708</ele>
        <time>2020-05-22T12:50:32Z</time>
      </trkpt>
      <trkpt lat="43.013970" lon="-5.023920">
        <ele>1117.077</ele>
        <time>2020-05-22T12:50:52Z</time>
      </trkpt>
      <trkpt lat="43.013970" lon="-5.023780">
        <ele>1116.892</ele>
        <time>2020-05-22T12:51:12Z</time>
      </trkpt>
      <trkpt lat="43.013970" lon="-5.023760">
        <ele>1116.879</ele>
        <time>2020-05-22T12:51:32Z</time>
      </trkpt>
      <trkpt lat="43.013950" lon="-5.023620">
        <ele>1116.325</ele>
        <time>2020-05-22T12:51:52Z</time>
      </trkpt>
      <trkpt lat="43.013930" lon="-5.023540">
        <ele>1116.434</ele>
        <time>2020-05-22T12:52:12Z</time>
      </trkpt>
      <trkpt lat="43.013930" lon="-5.023520">
        <ele>1116.521</ele>
        <time>2020-05-22T12:52:32Z</time>
      </trkpt>
      <trkpt lat="43.013870" lon="-5.023420">
        <ele>1115.966</ele>
        <time>2020-05-22T12:52:52Z</time>
      </trkpt>
      <trkpt lat="43.013820" lon="-5.023350">
        <ele>1115.420</ele>
        <time>2020-05-22T12:53:12Z</time>
      </trkpt>
      <trkpt lat="43.013780" lon="-5.023310">
        <ele>1115.041</ele>
        <time>2020-05-22T12:53:32Z</time>
      </trkpt>
      <trkpt lat="43.013670" lon="-5.023200">
        <ele>1114.381</ele>
        <time>2020-05-22T12:53:52Z</time>
      </trkpt>
      <trkpt lat="43.013650" lon="-5.023180">
        <ele>1114.109</ele>
        <time>2020-05-22T12:54:12Z</time>
      </trkpt>
      <trkpt lat="43.013500" lon="-5.023050">
        <ele>1113.108</ele>
        <time>2020-05-22T12:54:32Z</time>
      </trkpt>
      <trkpt lat="43.013380" lon="-5.022950">
        <ele>1112.948</ele>
        <time>2020-05-22T12:54:52Z</time>
      </trkpt>
      <trkpt lat="43.013370" lon="-5.022940">
        <ele>1112.953</ele>
        <time>2020-05-22T12:55:12Z</time>
      </trkpt>
      <trkpt lat="43.013260" lon="-5.022830">
        <ele>1112.980</ele>
        <time>2020-05-22T12:55:32Z</time>
      </trkpt>
      <trkpt lat="43.013170" lon="-5.022740">
        <ele>1113.356</ele>
        <time>2020-05-22T12:55:52Z</time>
      </trkpt>
      <trkpt lat="43.013070" lon="-5.022610">
        <ele>1113.125</ele>
        <time>2020-05-22T12:56:12Z</time>
      </trkpt>
      <trkpt lat="43.013020" lon="-5.022510">
        <ele>1113.042</ele>
        <time>2020-05-22T12:56:32Z</time>
      </trkpt>
      <trkpt lat="43.012980" lon="-5.022430">
        <ele>1112.977</ele>
        <time>2020-05-22T12:56:52Z</time>
      </trkpt>
      <trkpt lat="43.012970" lon="-5.022400">
        <ele>1112.981</ele>
        <time>2020-05-22T12:57:12Z</time>
      </trkpt>
      <trkpt lat="43.012940" lon="-5.022260">
        <ele>1113.777</ele>
        <time>2020-05-22T12:57:32Z</time>
      </trkpt>
      <trkpt lat="43.012930" lon="-5.022200">
        <ele>1113.961</ele>
        <time>2020-05-22T12:57:52Z</time>
      </trkpt>
      <trkpt lat="43.012910" lon="-5.022070">
        <ele>1113.627</ele>
        <time>2020-05-22T12:58:12Z</time>
      </trkpt>
      <trkpt lat="43.012900" lon="-5.021710">
        <ele>1111.908</ele>
        <time>2020-05-22T12:58:32Z</time>
      </trkpt>
      <trkpt lat="43.012890" lon="-5.021470">
        <ele>1111.441</ele>
        <time>2020-05-22T12:58:52Z</time>
      </trkpt>
      <trkpt lat="43.012900" lon="-5.021370">
        <ele>1111.476</ele>
        <time>2020-05-22T12:59:12Z</time>
      </trkpt>
      <trkpt lat="43.012900" lon="-5.021330">
        <ele>1111.383</ele>
        <time>2020-05-22T12:59:32Z</time>
      </trkpt>
      <trkpt lat="43.012900" lon="-5.021300">
        <ele>1111.229</ele>
        <time>2020-05-22T12:59:52Z</time>
      </trkpt>
      <trkpt lat="43.012900" lon="-5.021280">
        <ele>1111.168</ele>
        <time>2020-05-22T13:00:12Z</time>
      </trkpt>
      <trkpt lat="43.012880" lon="-5.021190">
        <ele>1111.095</ele>
        <time>2020-05-22T13:00:32Z</time>
      </trkpt>
      <trkpt lat="43.012885" lon="-5.021191">
        <ele>1111.080</ele>
        <time>2020-05-22T13:00:52Z</time>
      </trkpt>
      <trkpt lat="43.013120" lon="-5.021230">
        <ele>1110.114</ele>
        <time>2020-05-22T13:01:12Z</time>
      </trkpt>
      <trkpt lat="43.013240" lon="-5.021240">
        <ele>1109.732</ele>
        <time>2020-05-22T13:01:32Z</time>
      </trkpt>
      <trkpt lat="43.013740" lon="-5.021320">
        <ele>1111.292</ele>
        <time>2020-05-22T13:01:52Z</time>
      </trkpt>
      <trkpt lat="43.014130" lon="-5.021380">
        <ele>1111.011</ele>
        <time>2020-05-22T13:02:12Z</time>
      </trkpt>
      <trkpt lat="43.014190" lon="-5.021380">
        <ele>1110.608</ele>
        <time>2020-05-22T13:02:32Z</time>
      </trkpt>
      <trkpt lat="43.014240" lon="-5.021380">
        <ele>1110.597</ele>
        <time>2020-05-22T13:02:52Z</time>
      </trkpt>
      <trkpt lat="43.014310" lon="-5.021370">
        <ele>1110.042</ele>
        <time>2020-05-22T13:03:12Z</time>
      </trkpt>
      <trkpt lat="43.014370" lon="-5.021350">
        <ele>1109.479</ele>
        <time>2020-05-22T13:03:32Z</time>
      </trkpt>
      <trkpt lat="43.014420" lon="-5.021340">
        <ele>1109.155</ele>
        <time>2020-05-22T13:03:52Z</time>
      </trkpt>
      <trkpt lat="43.014510" lon="-5.021300">
        <ele>1109.314</ele>
        <time>2020-05-22T13:04:12Z</time>
      </trkpt>
      <trkpt lat="43.014560" lon="-5.021270">
        <ele>1109.631</ele>
        <time>2020-05-22T13:04:32Z</time>
      </trkpt>
      <trkpt lat="43.014710" lon="-5.021200">
        <ele>1111.496</ele>
        <time>2020-05-22T13:04:52Z</time>
      </trkpt>
      <trkpt lat="43.014850" lon="-5.021110">
        <ele>1111.930</ele>
        <time>2020-05-22T13:05:12Z</time>
      </trkpt>
      <trkpt lat="43.014920" lon="-5.021060">
        <ele>1112.133</ele>
        <time>2020-05-22T13:05:32Z</time>
      </trkpt>
      <trkpt lat="43.014990" lon="-5.021010">
        <ele>1112.523</ele>
        <time>2020-05-22T13:05:52Z</time>
      </trkpt>
      <trkpt lat="43.015350" lon="-5.020790">
        <ele>1112.315</ele>
        <time>2020-05-22T13:06:12Z</time>
      </trkpt>
      <trkpt lat="43.015870" lon="-5.020460">
        <ele>1108.308</ele>
        <time>2020-05-22T13:06:32Z</time>
      </trkpt>
      <trkpt lat="43.016110" lon="-5.020330">
        <ele>1108.187</ele>
        <time>2020-05-22T13:06:52Z</time>
      </trkpt>
      <trkpt lat="43.016270" lon="-5.020250">
        <ele>1107.442</ele>
        <time>2020-05-22T13:07:12Z</time>
      </trkpt>
      <trkpt lat="43.016370" lon="-5.020230">
        <ele>1107.699</ele>
        <time>2020-05-22T13:07:32Z</time>
      </trkpt>
      <trkpt lat="43.016410" lon="-5.020220">
        <ele>1107.535</ele>
        <time>2020-05-22T13:07:52Z</time>
      </trkpt>
      <trkpt lat="43.016470" lon="-5.020220">
        <ele>1107.584</ele>
        <time>2020-05-22T13:08:12Z</time>
      </trkpt>
      <trkpt lat="43.016530" lon="-5.020220">
        <ele>1107.491</ele>
        <time>2020-05-22T13:08:32Z</time>
      </trkpt>
      <trkpt lat="43.016600" lon="-5.020220">
        <ele>1107.476</ele>
        <time>2020-05-22T13:08:52Z</time>
      </trkpt>
      <trkpt lat="43.016660" lon="-5.020230">
        <ele>1107.680</ele>
        <time>2020-05-22T13:09:12Z</time>
      </trkpt>
      <trkpt lat="43.016770" lon="-5.020260">
        <ele>1108.168</ele>
        <time>2020-05-22T13:09:32Z</time>
      </trkpt>
      <trkpt lat="43.016810" lon="-5.020260">
        <ele>1107.942</ele>
        <time>2020-05-22T13:09:52Z</time>
      </trkpt>
      <trkpt lat="43.016910" lon="-5.020290">
        <ele>1108.326</ele>
        <time>2020-05-22T13:10:12Z</time>
      </trkpt>
      <trkpt lat="43.016950" lon="-5.020290">
        <ele>1108.108</ele>
        <time>2020-05-22T13:10:32Z</time>
      </trkpt>
      <trkpt lat="43.017050" lon="-5.020300">
        <ele>1108.530</ele>
        <time>2020-05-22T13:10:52Z</time>
      </trkpt>
      <trkpt lat="43.017100" lon="-5.020300">
        <ele>1108.715</ele>
        <time>2020-05-22T13:11:12Z</time>
      </trkpt>
      <trkpt lat="43.017150" lon="-5.020290">
        <ele>1108.892</ele>
        <time>2020-05-22T13:11:32Z</time>
      </trkpt>
      <trkpt lat="43.017200" lon="-5.020280">
        <ele>1108.998</ele>
        <time>2020-05-22T13:11:52Z</time>
      </trkpt>
      <trkpt lat="43.017250" lon="-5.020270">
        <ele>1109.277</ele>
        <time>2020-05-22T13:12:12Z</time>
      </trkpt>
      <trkpt lat="43.017390" lon="-5.020220">
        <ele>1109.894</ele>
        <time>2020-05-22T13:12:32Z</time>
      </trkpt>
      <trkpt lat="43.017510" lon="-5.020180">
        <ele>1110.419</ele>
        <time>2020-05-22T13:12:52Z</time>
      </trkpt>
      <trkpt lat="43.017820" lon="-5.020060">
        <ele>1111.743</ele>
        <time>2020-05-22T13:13:12Z</time>
      </trkpt>
      <trkpt lat="43.017830" lon="-5.020060">
        <ele>1111.796</ele>
        <time>2020-05-22T13:13:32Z</time>
      </trkpt>
      <trkpt lat="43.018280" lon="-5.019920">
        <ele>1110.831</ele>
        <time>2020-05-22T13:13:52Z</time>
      </trkpt>
      <trkpt lat="43.018350" lon="-5.019910">
        <ele>1111.124</ele>
        <time>2020-05-22T13:14:12Z</time>
      </trkpt>
      <trkpt lat="43.018490" lon="-5.019880">
        <ele>1110.708</ele>
        <time>2020-05-22T13:14:32Z</time>
      </trkpt>
      <trkpt lat="43.018530" lon="-5.019880">
        <ele>1110.863</ele>
        <time>2020-05-22T13:14:52Z</time>
      </trkpt>
      <trkpt lat="43.018860" lon="-5.019850">
        <ele>1108.858</ele>
        <time>2020-05-22T13:15:12Z</time>
      </trkpt>
      <trkpt lat="43.019070" lon="-5.019840">
        <ele>1108.395</ele>
        <time>2020-05-22T13:15:32Z</time>
      </trkpt>
      <trkpt lat="43.019230" lon="-5.019840">
        <ele>1108.021</ele>
        <time>2020-05-22T13:15:52Z</time>
      </trkpt>
      <trkpt lat="43.019510" lon="-5.019840">
        <ele>1107.560</ele>
        <time>2020-05-22T13:16:12Z</time>
      </trkpt>
      <trkpt lat="43.019970" lon="-5.019830">
        <ele>1106.517</ele>
        <time>2020-05-22T13:16:32Z</time>
      </trkpt>
      <trkpt lat="43.020050" lon="-5.019830">
        <ele>1105.292</ele>
        <time>2020-05-22T13:16:52Z</time>
      </trkpt>
      <trkpt lat="43.020150" lon="-5.019830">
        <ele>1103.066</ele>
        <time>2020-05-22T13:17:12Z</time>
      </trkpt>
      <trkpt lat="43.020330" lon="-5.019830">
        <ele>1098.735</ele>
        <time>2020-05-22T13:17:32Z</time>
      </trkpt>
      <trkpt lat="43.020340" lon="-5.019830">
        <ele>1098.486</ele>
        <time>2020-05-22T13:17:52Z</time>
      </trkpt>
      <trkpt lat="43.020510" lon="-5.019830">
        <ele>1093.714</ele>
        <time>2020-05-22T13:18:12Z</time>
      </trkpt>
      <trkpt lat="43.020540" lon="-5.019830">
        <ele>1092.808</ele>
        <time>2020-05-22T13:18:32Z</time>
      </trkpt>
      <trkpt lat="43.020690" lon="-5.019830">
        <ele>1092.927</ele>
        <time>2020-05-22T13:18:52Z</time>
      </trkpt>
      <trkpt lat="43.020780" lon="-5.019830">
        <ele>1093.222</ele>
        <time>2020-05-22T13:19:12Z</time>
      </trkpt>
      <trkpt lat="43.020950" lon="-5.019830">
        <ele>1098.029</ele>
        <time>2020-05-22T13:19:32Z</time>
      </trkpt>
      <trkpt lat="43.021010" lon="-5.019830">
        <ele>1100.465</ele>
        <time>2020-05-22T13:19:52Z</time>
      </trkpt>
      <trkpt lat="43.021050" lon="-5.019830">
        <ele>1102.084</ele>
        <time>2020-05-22T13:20:12Z</time>
      </trkpt>
      <trkpt lat="43.021160" lon="-5.019820">
        <ele>1105.981</ele>
        <time>2020-05-22T13:20:32Z</time>
      </trkpt>
      <trkpt lat="43.021730" lon="-5.019870">
        <ele>1119.276</ele>
        <time>2020-05-22T13:20:52Z</time>
      </trkpt>
      <trkpt lat="43.022020" lon="-5.019850">
        <ele>1120.710</ele>
        <time>2020-05-22T13:21:12Z</time>
      </trkpt>
      <trkpt lat="43.022210" lon="-5.019770">
        <ele>1120.115</ele>
        <time>2020-05-22T13:21:32Z</time>
      </trkpt>
      <trkpt lat="43.022290" lon="-5.019730">
        <ele>1121.165</ele>
        <time>2020-05-22T13:21:52Z</time>
      </trkpt>
      <trkpt lat="43.022310" lon="-5.019720">
        <ele>1121.511</ele>
        <time>2020-05-22T13:22:12Z</time>
      </trkpt>
      <trkpt lat="43.022420" lon="-5.019660">
        <ele>1123.508</ele>
        <time>2020-05-22T13:22:32Z</time>
      </trkpt>
      <trkpt lat="43.022510" lon="-5.019590">
        <ele>1124.345</ele>
        <time>2020-05-22T13:22:52Z</time>
      </trkpt>
      <trkpt lat="43.022570" lon="-5.019530">
        <ele>1123.930</ele>
        <time>2020-05-22T13:23:12Z</time>
      </trkpt>
      <trkpt lat="43.022650" lon="-5.019500">
        <ele>1124.327</ele>
        <time>2020-05-22T13:23:32Z</time>
      </trkpt>
      <trkpt lat="43.022720" lon="-5.019470">
        <ele>1124.283</ele>
        <time>2020-05-22T13:23:52Z</time>
      </trkpt>
      <trkpt lat="43.022790" lon="-5.019460">
        <ele>1124.712</ele>
        <time>2020-05-22T13:24:12Z</time>
      </trkpt>
      <trkpt lat="43.022860" lon="-5.019440">
        <ele>1124.539</ele>
        <time>2020-05-22T13:24:32Z</time>
      </trkpt>
      <trkpt lat="43.022970" lon="-5.019430">
        <ele>1125.124</ele>
        <time>2020-05-22T13:24:52Z</time>
      </trkpt>
      <trkpt lat="43.023040" lon="-5.019430">
        <ele>1125.688</ele>
        <time>2020-05-22T13:25:12Z</time>
      </trkpt>
      <trkpt lat="43.023300" lon="-5.019400">
        <ele>1129.992</ele>
        <time>2020-05-22T13:25:32Z</time>
      </trkpt>
      <trkpt lat="43.023510" lon="-5.019370">
        <ele>1131.273</ele>
        <time>2020-05-22T13:25:52Z</time>
      </trkpt>
      <trkpt lat="43.023540" lon="-5.019360">
        <ele>1131.020</ele>
        <time>2020-05-22T13:26:12Z</time>
      </trkpt>
      <trkpt lat="43.023740" lon="-5.019340">
        <ele>1132.408</ele>
        <time>2020-05-22T13:26:32Z</time>
      </trkpt>
      <trkpt lat="43.023860" lon="-5.019310">
        <ele>1132.493</ele>
        <time>2020-05-22T13:26:52Z</time>
      </trkpt>
      <trkpt lat="43.023980" lon="-5.019290">
        <ele>1132.098</ele>
        <time>2020-05-22T13:27:12Z</time>
      </trkpt>
      <trkpt lat="43.024040" lon="-5.019280">
        <ele>1131.695</ele>
        <time>2020-05-22T13:27:32Z</time>
      </trkpt>
      <trkpt lat="43.024220" lon="-5.019250">
        <ele>1130.521</ele>
        <time>2020-05-22T13:27:52Z</time>
      </trkpt>
      <trkpt lat="43.024240" lon="-5.019250">
        <ele>1130.480</ele>
        <time>2020-05-22T13:28:12Z</time>
      </trkpt>
      <trkpt lat="43.024390" lon="-5.019230">
        <ele>1129.497</ele>
        <time>2020-05-22T13:28:32Z</time>
      </trkpt>
      <trkpt lat="43.024560" lon="-5.019240">
        <ele>1129.842</ele>
        <time>2020-05-22T13:28:52Z</time>
      </trkpt>
      <trkpt lat="43.024580" lon="-5.019240">
        <ele>1129.896</ele>
        <time>2020-05-22T13:29:12Z</time>
      </trkpt>
      <trkpt lat="43.024770" lon="-5.019260">
        <ele>1131.244</ele>
        <time>2020-05-22T13:29:32Z</time>
      </trkpt>
      <trkpt lat="43.024950" lon="-5.019230">
        <ele>1131.505</ele>
        <time>2020-05-22T13:29:52Z</time>
      </trkpt>
      <trkpt lat="43.025110" lon="-5.019180">
        <ele>1132.415</ele>
        <time>2020-05-22T13:30:12Z</time>
      </trkpt>
      <trkpt lat="43.025250" lon="-5.019120">
        <ele>1134.008</ele>
        <time>2020-05-22T13:30:32Z</time>
      </trkpt>
      <trkpt lat="43.025280" lon="-5.019100">
        <ele>1133.958</ele>
        <time>2020-05-22T13:30:52Z</time>
      </trkpt>
      <trkpt lat="43.025440" lon="-5.019020">
        <ele>1133.813</ele>
        <time>2020-05-22T13:31:12Z</time>
      </trkpt>
      <trkpt lat="43.025450" lon="-5.019010">
        <ele>1133.450</ele>
        <time>2020-05-22T13:31:32Z</time>
      </trkpt>
      <trkpt lat="43.025560" lon="-5.018960">
        <ele>1132.146</ele>
        <time>2020-05-22T13:31:52Z</time>
      </trkpt>
      <trkpt lat="43.025710" lon="-5.018910">
        <ele>1129.155</ele>
        <time>2020-05-22T13:32:12Z</time>
      </trkpt>
      <trkpt lat="43.025870" lon="-5.018900">
        <ele>1128.582</ele>
        <time>2020-05-22T13:32:32Z</time>
      </trkpt>
      <trkpt lat="43.026020" lon="-5.018930">
        <ele>1129.367</ele>
        <time>2020-05-22T13:32:52Z</time>
      </trkpt>
      <trkpt lat="43.026190" lon="-5.018970">
        <ele>1129.411</ele>
        <time>2020-05-22T13:33:12Z</time>
      </trkpt>
      <trkpt lat="43.026450" lon="-5.019020">
        <ele>1126.565</ele>
        <time>2020-05-22T13:33:32Z</time>
      </trkpt>
      <trkpt lat="43.026880" lon="-5.019040">
        <ele>1128.068</ele>
        <time>2020-05-22T13:33:52Z</time>
      </trkpt>
      <trkpt lat="43.027240" lon="-5.019020">
        <ele>1133.814</ele>
        <time>2020-05-22T13:34:12Z</time>
      </trkpt>
      <trkpt lat="43.027410" lon="-5.018980">
        <ele>1133.708</ele>
        <time>2020-05-22T13:34:32Z</time>
      </trkpt>
      <trkpt lat="43.027570" lon="-5.018940">
        <ele>1133.540</ele>
        <time>2020-05-22T13:34:52Z</time>
      </trkpt>
      <trkpt lat="43.027590" lon="-5.018930">
        <ele>1133.175</ele>
        <time>2020-05-22T13:35:12Z</time>
      </trkpt>
      <trkpt lat="43.027840" lon="-5.018840">
        <ele>1132.362</ele>
        <time>2020-05-22T13:35:32Z</time>
      </trkpt>
      <trkpt lat="43.028030" lon="-5.018750">
        <ele>1129.238</ele>
        <time>2020-05-22T13:35:52Z</time>
      </trkpt>
      <trkpt lat="43.028310" lon="-5.018620">
        <ele>1124.227</ele>
        <time>2020-05-22T13:36:12Z</time>
      </trkpt>
      <trkpt lat="43.028500" lon="-5.018470">
        <ele>1122.834</ele>
        <time>2020-05-22T13:36:32Z</time>
      </trkpt>
      <trkpt lat="43.028690" lon="-5.018270">
        <ele>1122.049</ele>
        <time>2020-05-22T13:36:52Z</time>
      </trkpt>
      <trkpt lat="43.028880" lon="-5.017990">
        <ele>1118.773</ele>
        <time>2020-05-22T13:37:12Z</time>
      </trkpt>
      <trkpt lat="43.028960" lon="-5.017870">
        <ele>1118.781</ele>
        <time>2020-05-22T13:37:32Z</time>
      </trkpt>
      <trkpt lat="43.029090" lon="-5.017700">
        <ele>1118.061</ele>
        <time>2020-05-22T13:37:52Z</time>
      </trkpt>
      <trkpt lat="43.029980" lon="-5.016480">
        <ele>1115.717</ele>
        <time>2020-05-22T13:38:12Z</time>
      </trkpt>
      <trkpt lat="43.030080" lon="-5.016350">
        <ele>1115.608</ele>
        <time>2020-05-22T13:38:32Z</time>
      </trkpt>
      <trkpt lat="43.030350" lon="-5.016020">
        <ele>1114.852</ele>
        <time>2020-05-22T13:38:52Z</time>
      </trkpt>
      <trkpt lat="43.030390" lon="-5.015990">
        <ele>1115.177</ele>
        <time>2020-05-22T13:39:12Z</time>
      </trkpt>
      <trkpt lat="43.031110" lon="-5.015390">
        <ele>1111.634</ele>
        <time>2020-05-22T13:39:32Z</time>
      </trkpt>
      <trkpt lat="43.031320" lon="-5.015240">
        <ele>1111.760</ele>
        <time>2020-05-22T13:39:52Z</time>
      </trkpt>
      <trkpt lat="43.031610" lon="-5.015020">
        <ele>1110.229</ele>
        <time>2020-05-22T13:40:12Z</time>
      </trkpt>
      <trkpt lat="43.032130" lon="-5.014740">
        <ele>1106.356</ele>
        <time>2020-05-22T13:40:32Z</time>
      </trkpt>
      <trkpt lat="43.032160" lon="-5.014720">
        <ele>1105.781</ele>
        <time>2020-05-22T13:40:52Z</time>
      </trkpt>
      <trkpt lat="43.032320" lon="-5.014670">
        <ele>1105.125</ele>
        <time>2020-05-22T13:41:12Z</time>
      </trkpt>
      <trkpt lat="43.032660" lon="-5.014550">
        <ele>1104.522</ele>
        <time>2020-05-22T13:41:32Z</time>
      </trkpt>
      <trkpt lat="43.032880" lon="-5.014470">
        <ele>1103.262</ele>
        <time>2020-05-22T13:41:52Z</time>
      </trkpt>
      <trkpt lat="43.033010" lon="-5.014440">
        <ele>1102.708</ele>
        <time>2020-05-22T13:42:12Z</time>
      </trkpt>
      <trkpt lat="43.033190" lon="-5.014380">
        <ele>1102.608</ele>
        <time>2020-05-22T13:42:32Z</time>
      </trkpt>
      <trkpt lat="43.033360" lon="-5.014340">
        <ele>1103.176</ele>
        <time>2020-05-22T13:42:52Z</time>
      </trkpt>
      <trkpt lat="43.033420" lon="-5.014320">
        <ele>1103.311</ele>
        <time>2020-05-22T13:43:12Z</time>
      </trkpt>
      <trkpt lat="43.033950" lon="-5.014090">
        <ele>1101.748</ele>
        <time>2020-05-22T13:43:32Z</time>
      </trkpt>
      <trkpt lat="43.034370" lon="-5.013820">
        <ele>1102.994</ele>
        <time>2020-05-22T13:43:52Z</time>
      </trkpt>
      <trkpt lat="43.034490" lon="-5.013740">
        <ele>1103.633</ele>
        <time>2020-05-22T13:44:12Z</time>
      </trkpt>
      <trkpt lat="43.035110" lon="-5.013320">
        <ele>1108.250</ele>
        <time>2020-05-22T13:44:32Z</time>
      </trkpt>
      <trkpt lat="43.035110" lon="-5.013310">
        <ele>1108.155</ele>
        <time>2020-05-22T13:44:52Z</time>
      </trkpt>
      <trkpt lat="43.035260" lon="-5.013210">
        <ele>1109.139</ele>
        <time>2020-05-22T13:45:12Z</time>
      </trkpt>
      <trkpt lat="43.035310" lon="-5.013170">
        <ele>1108.549</ele>
        <time>2020-05-22T13:45:32Z</time>
      </trkpt>
      <trkpt lat="43.035610" lon="-5.012950">
        <ele>1108.002</ele>
        <time>2020-05-22T13:45:52Z</time>
      </trkpt>
      <trkpt lat="43.035830" lon="-5.012790">
        <ele>1116.822</ele>
        <time>2020-05-22T13:46:12Z</time>
      </trkpt>
      <trkpt lat="43.035850" lon="-5.012780">
        <ele>1117.708</ele>
        <time>2020-05-22T13:46:32Z</time>
      </trkpt>
      <trkpt lat="43.035960" lon="-5.012680">
        <ele>1118.388</ele>
        <time>2020-05-22T13:46:52Z</time>
      </trkpt>
      <trkpt lat="43.036310" lon="-5.012380">
        <ele>1117.873</ele>
        <time>2020-05-22T13:47:12Z</time>
      </trkpt>
      <trkpt lat="43.036550" lon="-5.012180">
        <ele>1116.790</ele>
        <time>2020-05-22T13:47:32Z</time>
      </trkpt>
      <trkpt lat="43.037080" lon="-5.011880">
        <ele>1117.086</ele>
        <time>2020-05-22T13:47:52Z</time>
      </trkpt>
      <trkpt lat="43.037300" lon="-5.011800">
        <ele>1117.535</ele>
        <time>2020-05-22T13:48:12Z</time>
      </trkpt>
      <trkpt lat="43.037780" lon="-5.011590">
        <ele>1115.022</ele>
        <time>2020-05-22T13:48:32Z</time>
      </trkpt>
      <trkpt lat="43.037970" lon="-5.011510">
        <ele>1113.867</ele>
        <time>2020-05-22T13:48:52Z</time>
      </trkpt>
      <trkpt lat="43.038140" lon="-5.011430">
        <ele>1111.891</ele>
        <time>2020-05-22T13:49:12Z</time>
      </trkpt>
      <trkpt lat="43.038180" lon="-5.011420">
        <ele>1111.864</ele>
        <time>2020-05-22T13:49:32Z</time>
      </trkpt>
      <trkpt lat="43.038460" lon="-5.011350">
        <ele>1112.706</ele>
        <time>2020-05-22T13:49:52Z</time>
      </trkpt>
      <trkpt lat="43.038770" lon="-5.011310">
        <ele>1115.016</ele>
        <time>2020-05-22T13:50:12Z</time>
      </trkpt>
      <trkpt lat="43.039260" lon="-5.011300">
        <ele>1121.508</ele>
        <time>2020-05-22T13:50:32Z</time>
      </trkpt>
      <trkpt lat="43.039470" lon="-5.011290">
        <ele>1124.310</ele>
        <time>2020-05-22T13:50:52Z</time>
      </trkpt>
      <trkpt lat="43.039670" lon="-5.011280">
        <ele>1126.615</ele>
        <time>2020-05-22T13:51:12Z</time>
      </trkpt>
      <trkpt lat="43.039860" lon="-5.011230">
        <ele>1125.222</ele>
        <time>2020-05-22T13:51:32Z</time>
      </trkpt>
      <trkpt lat="43.040220" lon="-5.011100">
        <ele>1122.218</ele>
        <time>2020-05-22T13:51:52Z</time>
      </trkpt>
      <trkpt lat="43.040550" lon="-5.010920">
        <ele>1119.677</ele>
        <time>2020-05-22T13:52:12Z</time>
      </trkpt>
      <trkpt lat="43.040680" lon="-5.010840">
        <ele>1117.634</ele>
        <time>2020-05-22T13:52:32Z</time>
      </trkpt>
      <trkpt lat="43.041800" lon="-5.010120">
        <ele>1114.649</ele>
        <time>2020-05-22T13:52:52Z</time>
      </trkpt>
      <trkpt lat="43.042120" lon="-5.009850">
        <ele>1115.013</ele>
        <time>2020-05-22T13:53:12Z</time>
      </trkpt>
      <trkpt lat="43.042420" lon="-5.009550">
        <ele>1115.797</ele>
        <time>2020-05-22T13:53:32Z</time>
      </trkpt>
      <trkpt lat="43.042770" lon="-5.009080">
        <ele>1117.923</ele>
        <time>2020-05-22T13:53:52Z</time>
      </trkpt>
      <trkpt lat="43.043030" lon="-5.008650">
        <ele>1120.425</ele>
        <time>2020-05-22T13:54:12Z</time>
      </trkpt>
      <trkpt lat="43.043210" lon="-5.008360">
        <ele>1121.508</ele>
        <time>2020-05-22T13:54:32Z</time>
      </trkpt>
      <trkpt lat="43.043590" lon="-5.007730">
        <ele>1110.593</ele>
        <time>2020-05-22T13:54:52Z</time>
      </trkpt>
      <trkpt lat="43.043620" lon="-5.007680">
        <ele>1111.168</ele>
        <time>2020-05-22T13:55:12Z</time>
      </trkpt>
      <trkpt lat="43.043660" lon="-5.007630">
        <ele>1112.095</ele>
        <time>2020-05-22T13:55:32Z</time>
      </trkpt>
      <trkpt lat="43.043680" lon="-5.007600">
        <ele>1112.541</ele>
        <time>2020-05-22T13:55:52Z</time>
      </trkpt>
      <trkpt lat="43.043710" lon="-5.007580">
        <ele>1113.050</ele>
        <time>2020-05-22T13:56:12Z</time>
      </trkpt>
      <trkpt lat="43.043750" lon="-5.007560">
        <ele>1113.557</ele>
        <time>2020-05-22T13:56:32Z</time>
      </trkpt>
      <trkpt lat="43.043800" lon="-5.007550">
        <ele>1113.932</ele>
        <time>2020-05-22T13:56:52Z</time>
      </trkpt>
      <trkpt lat="43.043830" lon="-5.007560">
        <ele>1114.176</ele>
        <time>2020-05-22T13:57:12Z</time>
      </trkpt>
      <trkpt lat="43.043910" lon="-5.007590">
        <ele>1114.638</ele>
        <time>2020-05-22T13:57:32Z</time>
      </trkpt>
      <trkpt lat="43.043970" lon="-5.007640">
        <ele>1114.970</ele>
        <time>2020-05-22T13:57:52Z</time>
      </trkpt>
      <trkpt lat="43.044060" lon="-5.007730">
        <ele>1114.817</ele>
        <time>2020-05-22T13:58:12Z</time>
      </trkpt>
      <trkpt lat="43.044190" lon="-5.007890">
        <ele>1115.208</ele>
        <time>2020-05-22T13:58:32Z</time>
      </trkpt>
      <trkpt lat="43.044320" lon="-5.008030">
        <ele>1116.197</ele>
        <time>2020-05-22T13:58:52Z</time>
      </trkpt>
      <trkpt lat="43.044390" lon="-5.008120">
        <ele>1115.832</ele>
        <time>2020-05-22T13:59:12Z</time>
      </trkpt>
      <trkpt lat="43.044530" lon="-5.008280">
        <ele>1116.319</ele>
        <time>2020-05-22T13:59:32Z</time>
      </trkpt>
      <trkpt lat="43.044690" lon="-5.008470">
        <ele>1115.835</ele>
        <time>2020-05-22T13:59:52Z</time>
      </trkpt>
      <trkpt lat="43.044850" lon="-5.008580">
        <ele>1115.844</ele>
        <time>2020-05-22T14:00:12Z</time>
      </trkpt>
      <trkpt lat="43.045030" lon="-5.008670">
        <ele>1116.191</ele>
        <time>2020-05-22T14:00:32Z</time>
      </trkpt>
      <trkpt lat="43.045140" lon="-5.008720">
        <ele>1116.896</ele>
        <time>2020-05-22T14:00:52Z</time>
      </trkpt>
      <trkpt lat="43.045370" lon="-5.008810">
        <ele>1116.960</ele>
        <time>2020-05-22T14:01:12Z</time>
      </trkpt>
      <trkpt lat="43.045660" lon="-5.008870">
        <ele>1117.236</ele>
        <time>2020-05-22T14:01:32Z</time>
      </trkpt>
      <trkpt lat="43.045930" lon="-5.008920">
        <ele>1117.817</ele>
        <time>2020-05-22T14:01:52Z</time>
      </trkpt>
      <trkpt lat="43.046650" lon="-5.009030">
        <ele>1119.018</ele>
        <time>2020-05-22T14:02:12Z</time>
      </trkpt>
      <trkpt lat="43.047050" lon="-5.009080">
        <ele>1120.708</ele>
        <time>2020-05-22T14:02:32Z</time>
      </trkpt>
      <trkpt lat="43.047320" lon="-5.009190">
        <ele>1121.467</ele>
        <time>2020-05-22T14:02:52Z</time>
      </trkpt>
      <trkpt lat="43.047730" lon="-5.009420">
        <ele>1122.922</ele>
        <time>2020-05-22T14:03:12Z</time>
      </trkpt>
      <trkpt lat="43.047820" lon="-5.009490">
        <ele>1123.099</ele>
        <time>2020-05-22T14:03:32Z</time>
      </trkpt>
      <trkpt lat="43.048090" lon="-5.009710">
        <ele>1123.055</ele>
        <time>2020-05-22T14:03:52Z</time>
      </trkpt>
      <trkpt lat="43.048760" lon="-5.010200">
        <ele>1123.914</ele>
        <time>2020-05-22T14:04:12Z</time>
      </trkpt>
      <trkpt lat="43.050190" lon="-5.011260">
        <ele>1128.521</ele>
        <time>2020-05-22T14:04:32Z</time>
      </trkpt>
      <trkpt lat="43.051770" lon="-5.012430">
        <ele>1129.336</ele>
        <time>2020-05-22T14:04:52Z</time>
      </trkpt>
      <trkpt lat="43.052240" lon="-5.012780">
        <ele>1130.020</ele>
        <time>2020-05-22T14:05:12Z</time>
      </trkpt>
      <trkpt lat="43.056830" lon="-5.016180">
        <ele>1142.033</ele>
        <time>2020-05-22T14:05:32Z</time>
      </trkpt>
      <trkpt lat="43.057780" lon="-5.016890">
        <ele>1141.223</ele>
        <time>2020-05-22T14:05:52Z</time>
      </trkpt>
      <trkpt lat="43.058570" lon="-5.017480">
        <ele>1142.715</ele>
        <time>2020-05-22T14:06:12Z</time>
      </trkpt>
      <trkpt lat="43.058900" lon="-5.017720">
        <ele>1144.008</ele>
        <time>2020-05-22T14:06:32Z</time>
      </trkpt>
      <trkpt lat="43.059850" lon="-5.018430">
        <ele>1146.727</ele>
        <time>2020-05-22T14:06:52Z</time>
      </trkpt>
      <trkpt lat="43.059890" lon="-5.018470">
        <ele>1146.792</ele>
        <time>2020-05-22T14:07:12Z</time>
      </trkpt>
      <trkpt lat="43.060060" lon="-5.018600">
        <ele>1147.049</ele>
        <time>2020-05-22T14:07:32Z</time>
      </trkpt>
      <trkpt lat="43.060280" lon="-5.018740">
        <ele>1147.775</ele>
        <time>2020-05-22T14:07:52Z</time>
      </trkpt>
      <trkpt lat="43.060330" lon="-5.018760">
        <ele>1147.954</ele>
        <time>2020-05-22T14:08:12Z</time>
      </trkpt>
      <trkpt lat="43.060400" lon="-5.018790">
        <ele>1148.021</ele>
        <time>2020-05-22T14:08:32Z</time>
      </trkpt>
      <trkpt lat="43.060480" lon="-5.018830">
        <ele>1147.826</ele>
        <time>2020-05-22T14:08:52Z</time>
      </trkpt>
      <trkpt lat="43.060580" lon="-5.018860">
        <ele>1147.830</ele>
        <time>2020-05-22T14:09:12Z</time>
      </trkpt>
      <trkpt lat="43.060700" lon="-5.018880">
        <ele>1147.823</ele>
        <time>2020-05-22T14:09:32Z</time>
      </trkpt>
      <trkpt lat="43.062170" lon="-5.019060">
        <ele>1151.683</ele>
        <time>2020-05-22T14:09:52Z</time>
      </trkpt>
      <trkpt lat="43.062270" lon="-5.019060">
        <ele>1152.211</ele>
        <time>2020-05-22T14:10:12Z</time>
      </trkpt>
      <trkpt lat="43.062390" lon="-5.019090">
        <ele>1152.008</ele>
        <time>2020-05-22T14:10:32Z</time>
      </trkpt>
      <trkpt lat="43.062540" lon="-5.019140">
        <ele>1151.636</ele>
        <time>2020-05-22T14:10:52Z</time>
      </trkpt>
      <trkpt lat="43.062670" lon="-5.019190">
        <ele>1152.191</ele>
        <time>2020-05-22T14:11:12Z</time>
      </trkpt>
      <trkpt lat="43.062840" lon="-5.019260">
        <ele>1153.298</ele>
        <time>2020-05-22T14:11:32Z</time>
      </trkpt>
      <trkpt lat="43.063070" lon="-5.019390">
        <ele>1152.824</ele>
        <time>2020-05-22T14:11:52Z</time>
      </trkpt>
      <trkpt lat="43.063290" lon="-5.019510">
        <ele>1152.983</ele>
        <time>2020-05-22T14:12:12Z</time>
      </trkpt>
      <trkpt lat="43.063340" lon="-5.019540">
        <ele>1153.080</ele>
        <time>2020-05-22T14:12:32Z</time>
      </trkpt>
      <trkpt lat="43.063460" lon="-5.019590">
        <ele>1153.815</ele>
        <time>2020-05-22T14:12:52Z</time>
      </trkpt>
      <trkpt lat="43.063860" lon="-5.019770">
        <ele>1155.949</ele>
        <time>2020-05-22T14:13:12Z</time>
      </trkpt>
      <trkpt lat="43.064140" lon="-5.019900">
        <ele>1157.286</ele>
        <time>2020-05-22T14:13:32Z</time>
      </trkpt>
      <trkpt lat="43.064390" lon="-5.020010">
        <ele>1156.560</ele>
        <time>2020-05-22T14:13:52Z</time>
      </trkpt>
      <trkpt lat="43.064550" lon="-5.020090">
        <ele>1157.826</ele>
        <time>2020-05-22T14:14:12Z</time>
      </trkpt>
      <trkpt lat="43.065260" lon="-5.020460">
        <ele>1158.608</ele>
        <time>2020-05-22T14:14:32Z</time>
      </trkpt>
      <trkpt lat="43.065590" lon="-5.020600">
        <ele>1159.022</ele>
        <time>2020-05-22T14:14:52Z</time>
      </trkpt>
      <trkpt lat="43.065910" lon="-5.020730">
        <ele>1160.957</ele>
        <time>2020-05-22T14:15:12Z</time>
      </trkpt>
      <trkpt lat="43.066130" lon="-5.020800">
        <ele>1160.644</ele>
        <time>2020-05-22T14:15:32Z</time>
      </trkpt>
      <trkpt lat="43.066480" lon="-5.020900">
        <ele>1160.420</ele>
        <time>2020-05-22T14:15:52Z</time>
      </trkpt>
      <trkpt lat="43.066870" lon="-5.021010">
        <ele>1161.579</ele>
        <time>2020-05-22T14:16:12Z</time>
      </trkpt>
      <trkpt lat="43.067060" lon="-5.021040">
        <ele>1161.346</ele>
        <time>2020-05-22T14:16:32Z</time>
      </trkpt>
      <trkpt lat="43.067080" lon="-5.021040">
        <ele>1161.361</ele>
        <time>2020-05-22T14:16:52Z</time>
      </trkpt>
      <trkpt lat="43.067430" lon="-5.021090">
        <ele>1162.225</ele>
        <time>2020-05-22T14:17:12Z</time>
      </trkpt>
      <trkpt lat="43.067910" lon="-5.021030">
        <ele>1164.073</ele>
        <time>2020-05-22T14:17:32Z</time>
      </trkpt>
      <trkpt lat="43.068060" lon="-5.021020">
        <ele>1164.785</ele>
        <time>2020-05-22T14:17:52Z</time>
      </trkpt>
      <trkpt lat="43.068460" lon="-5.021020">
        <ele>1167.513</ele>
        <time>2020-05-22T14:18:12Z</time>
      </trkpt>
      <trkpt lat="43.068500" lon="-5.021030">
        <ele>1167.308</ele>
        <time>2020-05-22T14:18:32Z</time>
      </trkpt>
      <trkpt lat="43.068680" lon="-5.021030">
        <ele>1168.191</ele>
        <time>2020-05-22T14:18:52Z</time>
      </trkpt>
      <trkpt lat="43.070030" lon="-5.021090">
        <ele>1167.816</ele>
        <time>2020-05-22T14:19:12Z</time>
      </trkpt>
      <trkpt lat="43.070290" lon="-5.021090">
        <ele>1168.493</ele>
        <time>2020-05-22T14:19:32Z</time>
      </trkpt>
      <trkpt lat="43.070300" lon="-5.021090">
        <ele>1168.419</ele>
        <time>2020-05-22T14:19:52Z</time>
      </trkpt>
      <trkpt lat="43.070440" lon="-5.021080">
        <ele>1168.558</ele>
        <time>2020-05-22T14:20:12Z</time>
      </trkpt>
      <trkpt lat="43.070480" lon="-5.021080">
        <ele>1168.525</ele>
        <time>2020-05-22T14:20:32Z</time>
      </trkpt>
      <trkpt lat="43.070540" lon="-5.021070">
        <ele>1168.660</ele>
        <time>2020-05-22T14:20:52Z</time>
      </trkpt>
      <trkpt lat="43.070700" lon="-5.021030">
        <ele>1169.234</ele>
        <time>2020-05-22T14:21:12Z</time>
      </trkpt>
      <trkpt lat="43.071000" lon="-5.020940">
        <ele>1170.127</ele>
        <time>2020-05-22T14:21:32Z</time>
      </trkpt>
      <trkpt lat="43.071230" lon="-5.020840">
        <ele>1170.568</ele>
        <time>2020-05-22T14:21:52Z</time>
      </trkpt>
      <trkpt lat="43.071480" lon="-5.020720">
        <ele>1171.414</ele>
        <time>2020-05-22T14:22:12Z</time>
      </trkpt>
      <trkpt lat="43.071680" lon="-5.020590">
        <ele>1172.708</ele>
        <time>2020-05-22T14:22:32Z</time>
      </trkpt>
      <trkpt lat="43.071700" lon="-5.020570">
        <ele>1172.846</ele>
        <time>2020-05-22T14:22:52Z</time>
      </trkpt>
      <trkpt lat="43.071950" lon="-5.020370">
        <ele>1173.381</ele>
        <time>2020-05-22T14:23:12Z</time>
      </trkpt>
      <trkpt lat="43.072570" lon="-5.019770">
        <ele>1175.348</ele>
        <time>2020-05-22T14:23:32Z</time>
      </trkpt>
      <trkpt lat="43.072780" lon="-5.019580">
        <ele>1176.134</ele>
        <time>2020-05-22T14:23:52Z</time>
      </trkpt>
      <trkpt lat="43.072990" lon="-5.019400">
        <ele>1176.593</ele>
        <time>2020-05-22T14:24:12Z</time>
      </trkpt>
      <trkpt lat="43.073240" lon="-5.019200">
        <ele>1177.240</ele>
        <time>2020-05-22T14:24:32Z</time>
      </trkpt>
      <trkpt lat="43.073490" lon="-5.018990">
        <ele>1178.865</ele>
        <time>2020-05-22T14:24:52Z</time>
      </trkpt>
      <trkpt lat="43.074210" lon="-5.018400">
        <ele>1180.339</ele>
        <time>2020-05-22T14:25:12Z</time>
      </trkpt>
      <trkpt lat="43.074420" lon="-5.018270">
        <ele>1181.344</ele>
        <time>2020-05-22T14:25:32Z</time>
      </trkpt>
      <trkpt lat="43.074520" lon="-5.018210">
        <ele>1181.805</ele>
        <time>2020-05-22T14:25:52Z</time>
      </trkpt>
      <trkpt lat="43.074660" lon="-5.018150">
        <ele>1182.515</ele>
        <time>2020-05-22T14:26:12Z</time>
      </trkpt>
      <trkpt lat="43.074750" lon="-5.018120">
        <ele>1183.208</ele>
        <time>2020-05-22T14:26:32Z</time>
      </trkpt>
      <trkpt lat="43.074770" lon="-5.018120">
        <ele>1183.238</ele>
        <time>2020-05-22T14:26:52Z</time>
      </trkpt>
      <trkpt lat="43.074880" lon="-5.018100">
        <ele>1183.843</ele>
        <time>2020-05-22T14:27:12Z</time>
      </trkpt>
      <trkpt lat="43.074990" lon="-5.018090">
        <ele>1184.110</ele>
        <time>2020-05-22T14:27:32Z</time>
      </trkpt>
      <trkpt lat="43.075090" lon="-5.018090">
        <ele>1184.716</ele>
        <time>2020-05-22T14:27:52Z</time>
      </trkpt>
      <trkpt lat="43.075210" lon="-5.018120">
        <ele>1184.715</ele>
        <time>2020-05-22T14:28:12Z</time>
      </trkpt>
      <trkpt lat="43.075290" lon="-5.018140">
        <ele>1184.742</ele>
        <time>2020-05-22T14:28:32Z</time>
      </trkpt>
      <trkpt lat="43.075400" lon="-5.018160">
        <ele>1185.377</ele>
        <time>2020-05-22T14:28:52Z</time>
      </trkpt>
      <trkpt lat="43.075510" lon="-5.018200">
        <ele>1185.361</ele>
        <time>2020-05-22T14:29:12Z</time>
      </trkpt>
      <trkpt lat="43.075650" lon="-5.018260">
        <ele>1185.555</ele>
        <time>2020-05-22T14:29:32Z</time>
      </trkpt>
      <trkpt lat="43.076090" lon="-5.018700">
        <ele>1184.707</ele>
        <time>2020-05-22T14:29:52Z</time>
      </trkpt>
      <trkpt lat="43.076170" lon="-5.018780">
        <ele>1184.917</ele>
        <time>2020-05-22T14:30:12Z</time>
      </trkpt>
      <trkpt lat="43.076390" lon="-5.018970">
        <ele>1185.108</ele>
        <time>2020-05-22T14:30:32Z</time>
      </trkpt>
      <trkpt lat="43.076540" lon="-5.019100">
        <ele>1184.369</ele>
        <time>2020-05-22T14:30:52Z</time>
      </trkpt>
      <trkpt lat="43.076590" lon="-5.019150">
        <ele>1183.924</ele>
        <time>2020-05-22T14:31:12Z</time>
      </trkpt>
      <trkpt lat="43.076700" lon="-5.019220">
        <ele>1184.161</ele>
        <time>2020-05-22T14:31:32Z</time>
      </trkpt>
      <trkpt lat="43.076790" lon="-5.019290">
        <ele>1184.937</ele>
        <time>2020-05-22T14:31:52Z</time>
      </trkpt>
      <trkpt lat="43.077020" lon="-5.019430">
        <ele>1186.726</ele>
        <time>2020-05-22T14:32:12Z</time>
      </trkpt>
      <trkpt lat="43.077170" lon="-5.019510">
        <ele>1187.073</ele>
        <time>2020-05-22T14:32:32Z</time>
      </trkpt>
      <trkpt lat="43.077630" lon="-5.019760">
        <ele>1187.748</ele>
        <time>2020-05-22T14:32:52Z</time>
      </trkpt>
      <trkpt lat="43.077790" lon="-5.019840">
        <ele>1188.322</ele>
        <time>2020-05-22T14:33:12Z</time>
      </trkpt>
      <trkpt lat="43.078530" lon="-5.020130">
        <ele>1189.872</ele>
        <time>2020-05-22T14:33:32Z</time>
      </trkpt>
      <trkpt lat="43.079260" lon="-5.020310">
        <ele>1190.213</ele>
        <time>2020-05-22T14:33:52Z</time>
      </trkpt>
      <trkpt lat="43.079490" lon="-5.020400">
        <ele>1190.314</ele>
        <time>2020-05-22T14:34:12Z</time>
      </trkpt>
      <trkpt lat="43.080130" lon="-5.020650">
        <ele>1191.608</ele>
        <time>2020-05-22T14:34:32Z</time>
      </trkpt>
      <trkpt lat="43.080520" lon="-5.020810">
        <ele>1191.021</ele>
        <time>2020-05-22T14:34:52Z</time>
      </trkpt>
      <trkpt lat="43.080620" lon="-5.020830">
        <ele>1191.516</ele>
        <time>2020-05-22T14:35:12Z</time>
      </trkpt>
      <trkpt lat="43.080680" lon="-5.020840">
        <ele>1192.093</ele>
        <time>2020-05-22T14:35:32Z</time>
      </trkpt>
      <trkpt lat="43.080750" lon="-5.020850">
        <ele>1192.719</ele>
        <time>2020-05-22T14:35:52Z</time>
      </trkpt>
      <trkpt lat="43.080830" lon="-5.020840">
        <ele>1193.188</ele>
        <time>2020-05-22T14:36:12Z</time>
      </trkpt>
      <trkpt lat="43.080910" lon="-5.020820">
        <ele>1193.795</ele>
        <time>2020-05-22T14:36:32Z</time>
      </trkpt>
      <trkpt lat="43.081000" lon="-5.020770">
        <ele>1194.010</ele>
        <time>2020-05-22T14:36:52Z</time>
      </trkpt>
      <trkpt lat="43.081310" lon="-5.020530">
        <ele>1193.384</ele>
        <time>2020-05-22T14:37:12Z</time>
      </trkpt>
      <trkpt lat="43.082790" lon="-5.019450">
        <ele>1198.283</ele>
        <time>2020-05-22T14:37:32Z</time>
      </trkpt>
      <trkpt lat="43.083010" lon="-5.019360">
        <ele>1199.425</ele>
        <time>2020-05-22T14:37:52Z</time>
      </trkpt>
      <trkpt lat="43.083170" lon="-5.019300">
        <ele>1200.117</ele>
        <time>2020-05-22T14:38:12Z</time>
      </trkpt>
      <trkpt lat="43.083260" lon="-5.019270">
        <ele>1200.508</ele>
        <time>2020-05-22T14:38:32Z</time>
      </trkpt>
      <trkpt lat="43.083520" lon="-5.019190">
        <ele>1200.332</ele>
        <time>2020-05-22T14:38:52Z</time>
      </trkpt>
      <trkpt lat="43.083670" lon="-5.019170">
        <ele>1200.347</ele>
        <time>2020-05-22T14:39:12Z</time>
      </trkpt>
      <trkpt lat="43.083870" lon="-5.019170">
        <ele>1201.154</ele>
        <time>2020-05-22T14:39:32Z</time>
      </trkpt>
      <trkpt lat="43.084420" lon="-5.019230">
        <ele>1205.410</ele>
        <time>2020-05-22T14:39:52Z</time>
      </trkpt>
      <trkpt lat="43.084690" lon="-5.019230">
        <ele>1207.659</ele>
        <time>2020-05-22T14:40:12Z</time>
      </trkpt>
      <trkpt lat="43.084910" lon="-5.019220">
        <ele>1208.586</ele>
        <time>2020-05-22T14:40:32Z</time>
      </trkpt>
      <trkpt lat="43.085100" lon="-5.019180">
        <ele>1207.571</ele>
        <time>2020-05-22T14:40:52Z</time>
      </trkpt>
      <trkpt lat="43.085280" lon="-5.019140">
        <ele>1207.695</ele>
        <time>2020-05-22T14:41:12Z</time>
      </trkpt>
      <trkpt lat="43.085350" lon="-5.019110">
        <ele>1208.395</ele>
        <time>2020-05-22T14:41:32Z</time>
      </trkpt>
      <trkpt lat="43.085560" lon="-5.018980">
        <ele>1208.049</ele>
        <time>2020-05-22T14:41:52Z</time>
      </trkpt>
      <trkpt lat="43.085590" lon="-5.018960">
        <ele>1207.923</ele>
        <time>2020-05-22T14:42:12Z</time>
      </trkpt>
      <trkpt lat="43.085840" lon="-5.018700">
        <ele>1207.308</ele>
        <time>2020-05-22T14:42:32Z</time>
      </trkpt>
      <trkpt lat="43.086250" lon="-5.018190">
        <ele>1206.783</ele>
        <time>2020-05-22T14:42:52Z</time>
      </trkpt>
      <trkpt lat="43.086770" lon="-5.017520">
        <ele>1210.248</ele>
        <time>2020-05-22T14:43:12Z</time>
      </trkpt>
      <trkpt lat="43.087270" lon="-5.016900">
        <ele>1209.265</ele>
        <time>2020-05-22T14:43:32Z</time>
      </trkpt>
      <trkpt lat="43.087430" lon="-5.016710">
        <ele>1210.471</ele>
        <time>2020-05-22T14:43:52Z</time>
      </trkpt>
      <trkpt lat="43.087590" lon="-5.016580">
        <ele>1211.490</ele>
        <time>2020-05-22T14:44:12Z</time>
      </trkpt>
      <trkpt lat="43.087600" lon="-5.016580">
        <ele>1211.477</ele>
        <time>2020-05-22T14:44:32Z</time>
      </trkpt>
      <trkpt lat="43.087680" lon="-5.016530">
        <ele>1211.872</ele>
        <time>2020-05-22T14:44:52Z</time>
      </trkpt>
      <trkpt lat="43.087810" lon="-5.016470">
        <ele>1212.466</ele>
        <time>2020-05-22T14:45:12Z</time>
      </trkpt>
      <trkpt lat="43.087910" lon="-5.016440">
        <ele>1212.692</ele>
        <time>2020-05-22T14:45:32Z</time>
      </trkpt>
      <trkpt lat="43.088070" lon="-5.016410">
        <ele>1213.073</ele>
        <time>2020-05-22T14:45:52Z</time>
      </trkpt>
      <trkpt lat="43.088300" lon="-5.016430">
        <ele>1214.520</ele>
        <time>2020-05-22T14:46:12Z</time>
      </trkpt>
      <trkpt lat="43.088590" lon="-5.016470">
        <ele>1215.708</ele>
        <time>2020-05-22T14:46:32Z</time>
      </trkpt>
      <trkpt lat="43.088880" lon="-5.016540">
        <ele>1216.743</ele>
        <time>2020-05-22T14:46:52Z</time>
      </trkpt>
      <trkpt lat="43.089130" lon="-5.016630">
        <ele>1217.068</ele>
        <time>2020-05-22T14:47:12Z</time>
      </trkpt>
      <trkpt lat="43.089180" lon="-5.016650">
        <ele>1216.895</ele>
        <time>2020-05-22T14:47:32Z</time>
      </trkpt>
      <trkpt lat="43.089300" lon="-5.016720">
        <ele>1217.881</ele>
        <time>2020-05-22T14:47:52Z</time>
      </trkpt>
      <trkpt lat="43.089350" lon="-5.016750">
        <ele>1218.240</ele>
        <time>2020-05-22T14:48:12Z</time>
      </trkpt>
      <trkpt lat="43.089420" lon="-5.016800">
        <ele>1218.367</ele>
        <time>2020-05-22T14:48:32Z</time>
      </trkpt>
      <trkpt lat="43.089660" lon="-5.017020">
        <ele>1219.282</ele>
        <time>2020-05-22T14:48:52Z</time>
      </trkpt>
      <trkpt lat="43.089780" lon="-5.017180">
        <ele>1219.526</ele>
        <time>2020-05-22T14:49:12Z</time>
      </trkpt>
      <trkpt lat="43.089920" lon="-5.017340">
        <ele>1220.092</ele>
        <time>2020-05-22T14:49:32Z</time>
      </trkpt>
      <trkpt lat="43.090080" lon="-5.017540">
        <ele>1221.173</ele>
        <time>2020-05-22T14:49:52Z</time>
      </trkpt>
      <trkpt lat="43.090710" lon="-5.018350">
        <ele>1226.820</ele>
        <time>2020-05-22T14:50:12Z</time>
      </trkpt>
      <trkpt lat="43.090820" lon="-5.018500">
        <ele>1227.708</ele>
        <time>2020-05-22T14:50:32Z</time>
      </trkpt>
      <trkpt lat="43.090960" lon="-5.018690">
        <ele>1229.223</ele>
        <time>2020-05-22T14:50:52Z</time>
      </trkpt>
      <trkpt lat="43.091080" lon="-5.018830">
        <ele>1229.148</ele>
        <time>2020-05-22T14:51:12Z</time>
      </trkpt>
      <trkpt lat="43.091200" lon="-5.018930">
        <ele>1229.455</ele>
        <time>2020-05-22T14:51:32Z</time>
      </trkpt>
      <trkpt lat="43.091370" lon="-5.019030">
        <ele>1230.621</ele>
        <time>2020-05-22T14:51:52Z</time>
      </trkpt>
      <trkpt lat="43.091450" lon="-5.019070">
        <ele>1231.760</ele>
        <time>2020-05-22T14:52:12Z</time>
      </trkpt>
      <trkpt lat="43.091520" lon="-5.019110">
        <ele>1232.437</ele>
        <time>2020-05-22T14:52:32Z</time>
      </trkpt>
      <trkpt lat="43.091590" lon="-5.019170">
        <ele>1232.072</ele>
        <time>2020-05-22T14:52:52Z</time>
      </trkpt>
      <trkpt lat="43.091660" lon="-5.019250">
        <ele>1232.326</ele>
        <time>2020-05-22T14:53:12Z</time>
      </trkpt>
      <trkpt lat="43.091730" lon="-5.019320">
        <ele>1233.773</ele>
        <time>2020-05-22T14:53:32Z</time>
      </trkpt>
      <trkpt lat="43.091790" lon="-5.019390">
        <ele>1234.385</ele>
        <time>2020-05-22T14:53:52Z</time>
      </trkpt>
      <trkpt lat="43.091980" lon="-5.019670">
        <ele>1235.313</ele>
        <time>2020-05-22T14:54:12Z</time>
      </trkpt>
      <trkpt lat="43.092150" lon="-5.019890">
        <ele>1235.308</ele>
        <time>2020-05-22T14:54:32Z</time>
      </trkpt>
      <trkpt lat="43.092190" lon="-5.019940">
        <ele>1235.021</ele>
        <time>2020-05-22T14:54:52Z</time>
      </trkpt>
      <trkpt lat="43.092260" lon="-5.020010">
        <ele>1234.816</ele>
        <time>2020-05-22T14:55:12Z</time>
      </trkpt>
      <trkpt lat="43.092340" lon="-5.020070">
        <ele>1235.533</ele>
        <time>2020-05-22T14:55:32Z</time>
      </trkpt>
      <trkpt lat="43.092390" lon="-5.020110">
        <ele>1235.869</ele>
        <time>2020-05-22T14:55:52Z</time>
      </trkpt>
      <trkpt lat="43.092490" lon="-5.020160">
        <ele>1237.138</ele>
        <time>2020-05-22T14:56:12Z</time>
      </trkpt>
      <trkpt lat="43.092580" lon="-5.020190">
        <ele>1237.865</ele>
        <time>2020-05-22T14:56:32Z</time>
      </trkpt>
      <trkpt lat="43.092670" lon="-5.020220">
        <ele>1238.020</ele>
        <time>2020-05-22T14:56:52Z</time>
      </trkpt>
      <trkpt lat="43.092800" lon="-5.020240">
        <ele>1238.784</ele>
        <time>2020-05-22T14:57:12Z</time>
      </trkpt>
      <trkpt lat="43.092900" lon="-5.020260">
        <ele>1238.251</ele>
        <time>2020-05-22T14:57:32Z</time>
      </trkpt>
      <trkpt lat="43.092970" lon="-5.020260">
        <ele>1238.401</ele>
        <time>2020-05-22T14:57:52Z</time>
      </trkpt>
      <trkpt lat="43.093040" lon="-5.020250">
        <ele>1239.011</ele>
        <time>2020-05-22T14:58:12Z</time>
      </trkpt>
      <trkpt lat="43.093100" lon="-5.020240">
        <ele>1239.108</ele>
        <time>2020-05-22T14:58:32Z</time>
      </trkpt>
      <trkpt lat="43.093220" lon="-5.020200">
        <ele>1239.669</ele>
        <time>2020-05-22T14:58:52Z</time>
      </trkpt>
      <trkpt lat="43.093450" lon="-5.020080">
        <ele>1239.994</ele>
        <time>2020-05-22T14:59:12Z</time>
      </trkpt>
      <trkpt lat="43.093620" lon="-5.019990">
        <ele>1239.381</ele>
        <time>2020-05-22T14:59:32Z</time>
      </trkpt>
      <trkpt lat="43.093950" lon="-5.019810">
        <ele>1239.667</ele>
        <time>2020-05-22T14:59:52Z</time>
      </trkpt>
      <trkpt lat="43.094960" lon="-5.019270">
        <ele>1240.466</ele>
        <time>2020-05-22T15:00:12Z</time>
      </trkpt>
      <trkpt lat="43.095130" lon="-5.019180">
        <ele>1240.433</ele>
        <time>2020-05-22T15:00:32Z</time>
      </trkpt>
      <trkpt lat="43.095290" lon="-5.019090">
        <ele>1240.818</ele>
        <time>2020-05-22T15:00:52Z</time>
      </trkpt>
      <trkpt lat="43.095310" lon="-5.019080">
        <ele>1240.842</ele>
        <time>2020-05-22T15:01:12Z</time>
      </trkpt>
      <trkpt lat="43.095530" lon="-5.018900">
        <ele>1241.187</ele>
        <time>2020-05-22T15:01:32Z</time>
      </trkpt>
      <trkpt lat="43.095590" lon="-5.018820">
        <ele>1241.842</ele>
        <time>2020-05-22T15:01:52Z</time>
      </trkpt>
      <trkpt lat="43.095720" lon="-5.018650">
        <ele>1242.326</ele>
        <time>2020-05-22T15:02:12Z</time>
      </trkpt>
      <trkpt lat="43.095730" lon="-5.018640">
        <ele>1242.308</ele>
        <time>2020-05-22T15:02:32Z</time>
      </trkpt>
      <trkpt lat="43.095840" lon="-5.018470">
        <ele>1242.532</ele>
        <time>2020-05-22T15:02:52Z</time>
      </trkpt>
      <trkpt lat="43.095950" lon="-5.018310">
        <ele>1243.547</ele>
        <time>2020-05-22T15:03:12Z</time>
      </trkpt>
      <trkpt lat="43.096320" lon="-5.017730">
        <ele>1245.034</ele>
        <time>2020-05-22T15:03:32Z</time>
      </trkpt>
      <trkpt lat="43.096440" lon="-5.017540">
        <ele>1245.620</ele>
        <time>2020-05-22T15:03:52Z</time>
      </trkpt>
      <trkpt lat="43.096560" lon="-5.017360">
        <ele>1246.549</ele>
        <time>2020-05-22T15:04:12Z</time>
      </trkpt>
      <trkpt lat="43.097390" lon="-5.016060">
        <ele>1250.266</ele>
        <time>2020-05-22T15:04:32Z</time>
      </trkpt>
      <trkpt lat="43.097510" lon="-5.015880">
        <ele>1250.651</ele>
        <time>2020-05-22T15:04:52Z</time>
      </trkpt>
      <trkpt lat="43.097630" lon="-5.015690">
        <ele>1251.655</ele>
        <time>2020-05-22T15:05:12Z</time>
      </trkpt>
      <trkpt lat="43.097650" lon="-5.015660">
        <ele>1251.767</ele>
        <time>2020-05-22T15:05:32Z</time>
      </trkpt>
      <trkpt lat="43.097930" lon="-5.015210">
        <ele>1254.081</ele>
        <time>2020-05-22T15:05:52Z</time>
      </trkpt>
      <trkpt lat="43.098070" lon="-5.014920">
        <ele>1255.019</ele>
        <time>2020-05-22T15:06:12Z</time>
      </trkpt>
      <trkpt lat="43.098160" lon="-5.014760">
        <ele>1256.108</ele>
        <time>2020-05-22T15:06:32Z</time>
      </trkpt>
      <trkpt lat="43.098170" lon="-5.014720">
        <ele>1256.450</ele>
        <time>2020-05-22T15:06:52Z</time>
      </trkpt>
      <trkpt lat="43.098270" lon="-5.014510">
        <ele>1257.745</ele>
        <time>2020-05-22T15:07:12Z</time>
      </trkpt>
      <trkpt lat="43.098320" lon="-5.014410">
        <ele>1257.712</ele>
        <time>2020-05-22T15:07:32Z</time>
      </trkpt>
      <trkpt lat="43.098470" lon="-5.014120">
        <ele>1259.368</ele>
        <time>2020-05-22T15:07:52Z</time>
      </trkpt>
      <trkpt lat="43.098620" lon="-5.013850">
        <ele>1260.737</ele>
        <time>2020-05-22T15:08:12Z</time>
      </trkpt>
      <trkpt lat="43.098660" lon="-5.013800">
        <ele>1260.974</ele>
        <time>2020-05-22T15:08:32Z</time>
      </trkpt>
      <trkpt lat="43.098740" lon="-5.013710">
        <ele>1261.449</ele>
        <time>2020-05-22T15:08:52Z</time>
      </trkpt>
      <trkpt lat="43.098850" lon="-5.013630">
        <ele>1261.283</ele>
        <time>2020-05-22T15:09:12Z</time>
      </trkpt>
      <trkpt lat="43.098880" lon="-5.013610">
        <ele>1261.198</ele>
        <time>2020-05-22T15:09:32Z</time>
      </trkpt>
      <trkpt lat="43.098910" lon="-5.013590">
        <ele>1260.815</ele>
        <time>2020-05-22T15:09:52Z</time>
      </trkpt>
      <trkpt lat="43.098940" lon="-5.013570">
        <ele>1260.626</ele>
        <time>2020-05-22T15:10:12Z</time>
      </trkpt>
      <trkpt lat="43.098990" lon="-5.013560">
        <ele>1260.808</ele>
        <time>2020-05-22T15:10:32Z</time>
      </trkpt>
      <trkpt lat="43.099040" lon="-5.013560">
        <ele>1261.063</ele>
        <time>2020-05-22T15:10:52Z</time>
      </trkpt>
      <trkpt lat="43.099080" lon="-5.013560">
        <ele>1261.218</ele>
        <time>2020-05-22T15:11:12Z</time>
      </trkpt>
      <trkpt lat="43.099130" lon="-5.013570">
        <ele>1261.555</ele>
        <time>2020-05-22T15:11:32Z</time>
      </trkpt>
      <trkpt lat="43.099190" lon="-5.013600">
        <ele>1262.291</ele>
        <time>2020-05-22T15:11:52Z</time>
      </trkpt>
      <trkpt lat="43.099300" lon="-5.013640">
        <ele>1263.250</ele>
        <time>2020-05-22T15:12:12Z</time>
      </trkpt>
      <trkpt lat="43.099360" lon="-5.013670">
        <ele>1263.967</ele>
        <time>2020-05-22T15:12:32Z</time>
      </trkpt>
      <trkpt lat="43.099440" lon="-5.013740">
        <ele>1265.412</ele>
        <time>2020-05-22T15:12:52Z</time>
      </trkpt>
      <trkpt lat="43.099470" lon="-5.013770">
        <ele>1266.566</ele>
        <time>2020-05-22T15:13:12Z</time>
      </trkpt>
      <trkpt lat="43.099530" lon="-5.013830">
        <ele>1269.175</ele>
        <time>2020-05-22T15:13:32Z</time>
      </trkpt>
      <trkpt lat="43.099531" lon="-5.013835">
        <ele>1269.228</ele>
        <time>2020-05-22T15:13:52Z</time>
      </trkpt>
      <trkpt lat="43.099620" lon="-5.013460">
        <ele>1270.720</ele>
        <time>2020-05-22T15:14:12Z</time>
      </trkpt>
      <trkpt lat="43.099630" lon="-5.013380">
        <ele>1270.908</ele>
        <time>2020-05-22T15:14:32Z</time>
      </trkpt>
      <trkpt lat="43.099630" lon="-5.013360">
        <ele>1270.881</ele>
        <time>2020-05-22T15:14:52Z</time>
      </trkpt>
      <trkpt lat="43.099630" lon="-5.013220">
        <ele>1270.496</ele>
        <time>2020-05-22T15:15:12Z</time>
      </trkpt>
      <trkpt lat="43.099640" lon="-5.012860">
        <ele>1270.083</ele>
        <time>2020-05-22T15:15:32Z</time>
      </trkpt>
      <trkpt lat="43.099620" lon="-5.012580">
        <ele>1268.549</ele>
        <time>2020-05-22T15:15:52Z</time>
      </trkpt>
      <trkpt lat="43.099580" lon="-5.012240">
        <ele>1266.918</ele>
        <time>2020-05-22T15:16:12Z</time>
      </trkpt>
      <trkpt lat="43.099510" lon="-5.011960">
        <ele>1264.855</ele>
        <time>2020-05-22T15:16:32Z</time>
      </trkpt>
      <trkpt lat="43.099480" lon="-5.011810">
        <ele>1264.050</ele>
        <time>2020-05-22T15:16:52Z</time>
      </trkpt>
      <trkpt lat="43.099460" lon="-5.011760">
        <ele>1263.394</ele>
        <time>2020-05-22T15:17:12Z</time>
      </trkpt>
      <trkpt lat="43.099450" lon="-5.011710">
        <ele>1263.175</ele>
        <time>2020-05-22T15:17:32Z</time>
      </trkpt>
      <trkpt lat="43.099450" lon="-5.011670">
        <ele>1263.228</ele>
        <time>2020-05-22T15:17:52Z</time>
      </trkpt>
      <trkpt lat="43.099440" lon="-5.011610">
        <ele>1262.720</ele>
        <time>2020-05-22T15:18:12Z</time>
      </trkpt>
      <trkpt lat="43.099440" lon="-5.011500">
        <ele>1262.308</ele>
        <time>2020-05-22T15:18:32Z</time>
      </trkpt>
      <trkpt lat="43.099440" lon="-5.011430">
        <ele>1262.111</ele>
        <time>2020-05-22T15:18:52Z</time>
      </trkpt>
      <trkpt lat="43.099440" lon="-5.011420">
        <ele>1262.116</ele>
        <time>2020-05-22T15:19:12Z</time>
      </trkpt>
      <trkpt lat="43.099450" lon="-5.011350">
        <ele>1262.143</ele>
        <time>2020-05-22T15:19:32Z</time>
      </trkpt>
      <trkpt lat="43.099500" lon="-5.011190">
        <ele>1262.849</ele>
        <time>2020-05-22T15:19:52Z</time>
      </trkpt>
      <trkpt lat="43.099500" lon="-5.011160">
        <ele>1262.688</ele>
        <time>2020-05-22T15:20:12Z</time>
      </trkpt>
      <trkpt lat="43.099680" lon="-5.010700">
        <ele>1263.075</ele>
        <time>2020-05-22T15:20:32Z</time>
      </trkpt>
      <trkpt lat="43.099750" lon="-5.010540">
        <ele>1263.420</ele>
        <time>2020-05-22T15:20:52Z</time>
      </trkpt>
      <trkpt lat="43.100020" lon="-5.009870">
        <ele>1266.874</ele>
        <time>2020-05-22T15:21:12Z</time>
      </trkpt>
      <trkpt lat="43.100160" lon="-5.009430">
        <ele>1268.848</ele>
        <time>2020-05-22T15:21:32Z</time>
      </trkpt>
      <trkpt lat="43.100220" lon="-5.009210">
        <ele>1270.261</ele>
        <time>2020-05-22T15:21:52Z</time>
      </trkpt>
      <trkpt lat="43.100280" lon="-5.008980">
        <ele>1271.717</ele>
        <time>2020-05-22T15:22:12Z</time>
      </trkpt>
      <trkpt lat="43.100340" lon="-5.008750">
        <ele>1273.308</ele>
        <time>2020-05-22T15:22:32Z</time>
      </trkpt>
      <trkpt lat="43.100640" lon="-5.007590">
        <ele>1276.168</ele>
        <time>2020-05-22T15:22:52Z</time>
      </trkpt>
      <trkpt lat="43.100720" lon="-5.007240">
        <ele>1277.033</ele>
        <time>2020-05-22T15:23:12Z</time>
      </trkpt>
      <trkpt lat="43.100970" lon="-5.006490">
        <ele>1281.020</ele>
        <time>2020-05-22T15:23:32Z</time>
      </trkpt>
      <trkpt lat="43.101060" lon="-5.006220">
        <ele>1281.236</ele>
        <time>2020-05-22T15:23:52Z</time>
      </trkpt>
      <trkpt lat="43.101110" lon="-5.006130">
        <ele>1281.245</ele>
        <time>2020-05-22T15:24:12Z</time>
      </trkpt>
      <trkpt lat="43.101170" lon="-5.006050">
        <ele>1283.022</ele>
        <time>2020-05-22T15:24:32Z</time>
      </trkpt>
      <trkpt lat="43.101170" lon="-5.006040">
        <ele>1282.957</ele>
        <time>2020-05-22T15:24:52Z</time>
      </trkpt>
      <trkpt lat="43.101400" lon="-5.005760">
        <ele>1286.971</ele>
        <time>2020-05-22T15:25:12Z</time>
      </trkpt>
      <trkpt lat="43.101780" lon="-5.005140">
        <ele>1286.919</ele>
        <time>2020-05-22T15:25:32Z</time>
      </trkpt>
      <trkpt lat="43.102070" lon="-5.004660">
        <ele>1288.109</ele>
        <time>2020-05-22T15:25:52Z</time>
      </trkpt>
      <trkpt lat="43.102090" lon="-5.004600">
        <ele>1288.019</ele>
        <time>2020-05-22T15:26:12Z</time>
      </trkpt>
      <trkpt lat="43.102120" lon="-5.004560">
        <ele>1288.208</ele>
        <time>2020-05-22T15:26:32Z</time>
      </trkpt>
      <trkpt lat="43.102210" lon="-5.004360">
        <ele>1287.665</ele>
        <time>2020-05-22T15:26:52Z</time>
      </trkpt>
      <trkpt lat="43.102340" lon="-5.004010">
        <ele>1289.470</ele>
        <time>2020-05-22T15:27:12Z</time>
      </trkpt>
      <trkpt lat="43.102380" lon="-5.003910">
        <ele>1289.897</ele>
        <time>2020-05-22T15:27:32Z</time>
      </trkpt>
      <trkpt lat="43.102600" lon="-5.003430">
        <ele>1293.163</ele>
        <time>2020-05-22T15:27:52Z</time>
      </trkpt>
      <trkpt lat="43.102750" lon="-5.003140">
        <ele>1293.362</ele>
        <time>2020-05-22T15:28:12Z</time>
      </trkpt>
      <trkpt lat="43.102820" lon="-5.003030">
        <ele>1293.669</ele>
        <time>2020-05-22T15:28:32Z</time>
      </trkpt>
      <trkpt lat="43.102900" lon="-5.002920">
        <ele>1295.354</ele>
        <time>2020-05-22T15:28:52Z</time>
      </trkpt>
      <trkpt lat="43.102970" lon="-5.002820">
        <ele>1295.578</ele>
        <time>2020-05-22T15:29:12Z</time>
      </trkpt>
      <trkpt lat="43.103180" lon="-5.002550">
        <ele>1298.419</ele>
        <time>2020-05-22T15:29:32Z</time>
      </trkpt>
      <trkpt lat="43.103300" lon="-5.002420">
        <ele>1299.909</ele>
        <time>2020-05-22T15:29:52Z</time>
      </trkpt>
      <trkpt lat="43.103370" lon="-5.002360">
        <ele>1300.719</ele>
        <time>2020-05-22T15:30:12Z</time>
      </trkpt>
      <trkpt lat="43.103580" lon="-5.002200">
        <ele>1301.108</ele>
        <time>2020-05-22T15:30:32Z</time>
      </trkpt>
      <trkpt lat="43.103820" lon="-5.002050">
        <ele>1302.655</ele>
        <time>2020-05-22T15:30:52Z</time>
      </trkpt>
      <trkpt lat="43.104020" lon="-5.001850">
        <ele>1303.920</ele>
        <time>2020-05-22T15:31:12Z</time>
      </trkpt>
      <trkpt lat="43.104180" lon="-5.001620">
        <ele>1304.497</ele>
        <time>2020-05-22T15:31:32Z</time>
      </trkpt>
      <trkpt lat="43.104190" lon="-5.001610">
        <ele>1304.933</ele>
        <time>2020-05-22T15:31:52Z</time>
      </trkpt>
      <trkpt lat="43.104310" lon="-5.001360">
        <ele>1308.542</ele>
        <time>2020-05-22T15:32:12Z</time>
      </trkpt>
      <trkpt lat="43.104500" lon="-5.000800">
        <ele>1309.769</ele>
        <time>2020-05-22T15:32:32Z</time>
      </trkpt>
      <trkpt lat="43.104630" lon="-5.000540">
        <ele>1311.224</ele>
        <time>2020-05-22T15:32:52Z</time>
      </trkpt>
      <trkpt lat="43.104720" lon="-5.000330">
        <ele>1310.938</ele>
        <time>2020-05-22T15:33:12Z</time>
      </trkpt>
      <trkpt lat="43.104820" lon="-5.000090">
        <ele>1312.889</ele>
        <time>2020-05-22T15:33:32Z</time>
      </trkpt>
      <trkpt lat="43.104870" lon="-5.000000">
        <ele>1314.406</ele>
        <time>2020-05-22T15:33:52Z</time>
      </trkpt>
      <trkpt lat="43.105210" lon="-4.999310">
        <ele>1319.526</ele>
        <time>2020-05-22T15:34:12Z</time>
      </trkpt>
      <trkpt lat="43.105360" lon="-4.999070">
        <ele>1320.708</ele>
        <time>2020-05-22T15:34:32Z</time>
      </trkpt>
      <trkpt lat="43.105560" lon="-4.998820">
        <ele>1322.922</ele>
        <time>2020-05-22T15:34:52Z</time>
      </trkpt>
      <trkpt lat="43.105760" lon="-4.998560">
        <ele>1323.767</ele>
        <time>2020-05-22T15:35:12Z</time>
      </trkpt>
      <trkpt lat="43.105900" lon="-4.998350">
        <ele>1325.654</ele>
        <time>2020-05-22T15:35:32Z</time>
      </trkpt>
      <trkpt lat="43.106080" lon="-4.998110">
        <ele>1327.760</ele>
        <time>2020-05-22T15:35:52Z</time>
      </trkpt>
      <trkpt lat="43.106190" lon="-4.997750">
        <ele>1330.179</ele>
        <time>2020-05-22T15:36:12Z</time>
      </trkpt>
      <trkpt lat="43.106260" lon="-4.997430">
        <ele>1332.646</ele>
        <time>2020-05-22T15:36:32Z</time>
      </trkpt>
      <trkpt lat="43.106320" lon="-4.997140">
        <ele>1335.461</ele>
        <time>2020-05-22T15:36:52Z</time>
      </trkpt>
      <trkpt lat="43.106350" lon="-4.996830">
        <ele>1335.865</ele>
        <time>2020-05-22T15:37:12Z</time>
      </trkpt>
      <trkpt lat="43.106340" lon="-4.996640">
        <ele>1334.744</ele>
        <time>2020-05-22T15:37:32Z</time>
      </trkpt>
      <trkpt lat="43.106330" lon="-4.996510">
        <ele>1336.005</ele>
        <time>2020-05-22T15:37:52Z</time>
      </trkpt>
      <trkpt lat="43.106230" lon="-4.996160">
        <ele>1338.815</ele>
        <time>2020-05-22T15:38:12Z</time>
      </trkpt>
      <trkpt lat="43.106210" lon="-4.995900">
        <ele>1341.208</ele>
        <time>2020-05-22T15:38:32Z</time>
      </trkpt>
      <trkpt lat="43.106280" lon="-4.995640">
        <ele>1344.038</ele>
        <time>2020-05-22T15:38:52Z</time>
      </trkpt>
      <trkpt lat="43.106380" lon="-4.995360">
        <ele>1345.513</ele>
        <time>2020-05-22T15:39:12Z</time>
      </trkpt>
      <trkpt lat="43.106440" lon="-4.995280">
        <ele>1346.580</ele>
        <time>2020-05-22T15:39:32Z</time>
      </trkpt>
      <trkpt lat="43.106500" lon="-4.995200">
        <ele>1346.496</ele>
        <time>2020-05-22T15:39:52Z</time>
      </trkpt>
      <trkpt lat="43.106690" lon="-4.995070">
        <ele>1348.925</ele>
        <time>2020-05-22T15:40:12Z</time>
      </trkpt>
      <trkpt lat="43.106930" lon="-4.994840">
        <ele>1350.962</ele>
        <time>2020-05-22T15:40:32Z</time>
      </trkpt>
      <trkpt lat="43.107120" lon="-4.994660">
        <ele>1353.037</ele>
        <time>2020-05-22T15:40:52Z</time>
      </trkpt>
      <trkpt lat="43.107350" lon="-4.994500">
        <ele>1355.021</ele>
        <time>2020-05-22T15:41:12Z</time>
      </trkpt>
      <trkpt lat="43.107470" lon="-4.994420">
        <ele>1355.031</ele>
        <time>2020-05-22T15:41:32Z</time>
      </trkpt>
      <trkpt lat="43.107710" lon="-4.994360">
        <ele>1357.761</ele>
        <time>2020-05-22T15:41:52Z</time>
      </trkpt>
      <trkpt lat="43.107950" lon="-4.994410">
        <ele>1361.407</ele>
        <time>2020-05-22T15:42:12Z</time>
      </trkpt>
      <trkpt lat="43.108040" lon="-4.994420">
        <ele>1362.408</ele>
        <time>2020-05-22T15:42:32Z</time>
      </trkpt>
      <trkpt lat="43.108050" lon="-4.994430">
        <ele>1362.617</ele>
        <time>2020-05-22T15:42:52Z</time>
      </trkpt>
      <trkpt lat="43.108180" lon="-4.994450">
        <ele>1362.762</ele>
        <time>2020-05-22T15:43:12Z</time>
      </trkpt>
      <trkpt lat="43.108300" lon="-4.994500">
        <ele>1363.989</ele>
        <time>2020-05-22T15:43:32Z</time>
      </trkpt>
      <trkpt lat="43.108400" lon="-4.994530">
        <ele>1365.315</ele>
        <time>2020-05-22T15:43:52Z</time>
      </trkpt>
      <trkpt lat="43.108690" lon="-4.994600">
        <ele>1368.964</ele>
        <time>2020-05-22T15:44:12Z</time>
      </trkpt>
      <trkpt lat="43.108960" lon="-4.994690">
        <ele>1370.911</ele>
        <time>2020-05-22T15:44:32Z</time>
      </trkpt>
      <trkpt lat="43.109210" lon="-4.994770">
        <ele>1372.656</ele>
        <time>2020-05-22T15:44:52Z</time>
      </trkpt>
      <trkpt lat="43.109500" lon="-4.994960">
        <ele>1375.380</ele>
        <time>2020-05-22T15:45:12Z</time>
      </trkpt>
      <trkpt lat="43.109520" lon="-4.994970">
        <ele>1375.224</ele>
        <time>2020-05-22T15:45:32Z</time>
      </trkpt>
      <trkpt lat="43.109770" lon="-4.995170">
        <ele>1376.204</ele>
        <time>2020-05-22T15:45:52Z</time>
      </trkpt>
      <trkpt lat="43.109940" lon="-4.995370">
        <ele>1377.514</ele>
        <time>2020-05-22T15:46:12Z</time>
      </trkpt>
      <trkpt lat="43.110150" lon="-4.995640">
        <ele>1379.408</ele>
        <time>2020-05-22T15:46:32Z</time>
      </trkpt>
      <trkpt lat="43.110160" lon="-4.995650">
        <ele>1379.576</ele>
        <time>2020-05-22T15:46:52Z</time>
      </trkpt>
      <trkpt lat="43.110250" lon="-4.995750">
        <ele>1380.181</ele>
        <time>2020-05-22T15:47:12Z</time>
      </trkpt>
      <trkpt lat="43.110310" lon="-4.995840">
        <ele>1381.038</ele>
        <time>2020-05-22T15:47:32Z</time>
      </trkpt>
      <trkpt lat="43.110350" lon="-4.995890">
        <ele>1382.094</ele>
        <time>2020-05-22T15:47:52Z</time>
      </trkpt>
      <trkpt lat="43.110540" lon="-4.996110">
        <ele>1384.283</ele>
        <time>2020-05-22T15:48:12Z</time>
      </trkpt>
      <trkpt lat="43.110760" lon="-4.996280">
        <ele>1386.680</ele>
        <time>2020-05-22T15:48:32Z</time>
      </trkpt>
      <trkpt lat="43.111030" lon="-4.996360">
        <ele>1388.185</ele>
        <time>2020-05-22T15:48:52Z</time>
      </trkpt>
      <trkpt lat="43.111300" lon="-4.996410">
        <ele>1389.789</ele>
        <time>2020-05-22T15:49:12Z</time>
      </trkpt>
      <trkpt lat="43.111420" lon="-4.996460">
        <ele>1391.152</ele>
        <time>2020-05-22T15:49:32Z</time>
      </trkpt>
      <trkpt lat="43.111540" lon="-4.996500">
        <ele>1391.653</ele>
        <time>2020-05-22T15:49:52Z</time>
      </trkpt>
      <trkpt lat="43.111780" lon="-4.996580">
        <ele>1392.008</ele>
        <time>2020-05-22T15:50:12Z</time>
      </trkpt>
      <trkpt lat="43.112060" lon="-4.996680">
        <ele>1394.408</ele>
        <time>2020-05-22T15:50:32Z</time>
      </trkpt>
      <trkpt lat="43.112290" lon="-4.996630">
        <ele>1398.179</ele>
        <time>2020-05-22T15:50:52Z</time>
      </trkpt>
      <trkpt lat="43.112570" lon="-4.996430">
        <ele>1401.444</ele>
        <time>2020-05-22T15:51:12Z</time>
      </trkpt>
      <trkpt lat="43.112710" lon="-4.996330">
        <ele>1402.351</ele>
        <time>2020-05-22T15:51:32Z</time>
      </trkpt>
      <trkpt lat="43.112970" lon="-4.996170">
        <ele>1404.347</ele>
        <time>2020-05-22T15:51:52Z</time>
      </trkpt>
      <trkpt lat="43.113210" lon="-4.996020">
        <ele>1405.876</ele>
        <time>2020-05-22T15:52:12Z</time>
      </trkpt>
      <trkpt lat="43.113420" lon="-4.995880">
        <ele>1407.853</ele>
        <time>2020-05-22T15:52:32Z</time>
      </trkpt>
      <trkpt lat="43.113420" lon="-4.995870">
        <ele>1407.448</ele>
        <time>2020-05-22T15:52:52Z</time>
      </trkpt>
      <trkpt lat="43.113620" lon="-4.995720">
        <ele>1409.272</ele>
        <time>2020-05-22T15:53:12Z</time>
      </trkpt>
      <trkpt lat="43.113820" lon="-4.995520">
        <ele>1411.634</ele>
        <time>2020-05-22T15:53:32Z</time>
      </trkpt>
      <trkpt lat="43.114040" lon="-4.995260">
        <ele>1412.955</ele>
        <time>2020-05-22T15:53:52Z</time>
      </trkpt>
      <trkpt lat="43.114220" lon="-4.995030">
        <ele>1413.310</ele>
        <time>2020-05-22T15:54:12Z</time>
      </trkpt>
      <trkpt lat="43.114320" lon="-4.994870">
        <ele>1413.208</ele>
        <time>2020-05-22T15:54:32Z</time>
      </trkpt>
      <trkpt lat="43.114460" lon="-4.994620">
        <ele>1415.797</ele>
        <time>2020-05-22T15:54:52Z</time>
      </trkpt>
      <trkpt lat="43.114540" lon="-4.994450">
        <ele>1415.822</ele>
        <time>2020-05-22T15:55:12Z</time>
      </trkpt>
      <trkpt lat="43.114570" lon="-4.994350">
        <ele>1416.039</ele>
        <time>2020-05-22T15:55:32Z</time>
      </trkpt>
      <trkpt lat="43.114590" lon="-4.994300">
        <ele>1416.545</ele>
        <time>2020-05-22T15:55:52Z</time>
      </trkpt>
      <trkpt lat="43.114650" lon="-4.994120">
        <ele>1418.414</ele>
        <time>2020-05-22T15:56:12Z</time>
      </trkpt>
      <trkpt lat="43.114770" lon="-4.993690">
        <ele>1420.871</ele>
        <time>2020-05-22T15:56:32Z</time>
      </trkpt>
      <trkpt lat="43.114850" lon="-4.993390">
        <ele>1420.576</ele>
        <time>2020-05-22T15:56:52Z</time>
      </trkpt>
      <trkpt lat="43.114910" lon="-4.993210">
        <ele>1421.910</ele>
        <time>2020-05-22T15:57:12Z</time>
      </trkpt>
      <trkpt lat="43.114970" lon="-4.993020">
        <ele>1424.845</ele>
        <time>2020-05-22T15:57:32Z</time>
      </trkpt>
      <trkpt lat="43.115050" lon="-4.992690">
        <ele>1425.747</ele>
        <time>2020-05-22T15:57:52Z</time>
      </trkpt>
      <trkpt lat="43.115090" lon="-4.992590">
        <ele>1425.211</ele>
        <time>2020-05-22T15:58:12Z</time>
      </trkpt>
      <trkpt lat="43.115110" lon="-4.992530">
        <ele>1425.108</ele>
        <time>2020-05-22T15:58:32Z</time>
      </trkpt>
      <trkpt lat="43.115130" lon="-4.992490">
        <ele>1425.118</ele>
        <time>2020-05-22T15:58:52Z</time>
      </trkpt>
      <trkpt lat="43.115160" lon="-4.992420">
        <ele>1425.483</ele>
        <time>2020-05-22T15:59:12Z</time>
      </trkpt>
      <trkpt lat="43.115210" lon="-4.992310">
        <ele>1426.710</ele>
        <time>2020-05-22T15:59:32Z</time>
      </trkpt>
      <trkpt lat="43.115260" lon="-4.992220">
        <ele>1428.716</ele>
        <time>2020-05-22T15:59:52Z</time>
      </trkpt>
      <trkpt lat="43.115310" lon="-4.992120">
        <ele>1429.895</ele>
        <time>2020-05-22T16:00:12Z</time>
      </trkpt>
      <trkpt lat="43.115440" lon="-4.991930">
        <ele>1429.532</ele>
        <time>2020-05-22T16:00:32Z</time>
      </trkpt>
      <trkpt lat="43.115680" lon="-4.991580">
        <ele>1429.357</ele>
        <time>2020-05-22T16:00:52Z</time>
      </trkpt>
      <trkpt lat="43.116010" lon="-4.991080">
        <ele>1431.411</ele>
        <time>2020-05-22T16:01:12Z</time>
      </trkpt>
      <trkpt lat="43.116100" lon="-4.990930">
        <ele>1431.834</ele>
        <time>2020-05-22T16:01:32Z</time>
      </trkpt>
      <trkpt lat="43.116160" lon="-4.990840">
        <ele>1431.255</ele>
        <time>2020-05-22T16:01:52Z</time>
      </trkpt>
      <trkpt lat="43.116170" lon="-4.990820">
        <ele>1431.210</ele>
        <time>2020-05-22T16:02:12Z</time>
      </trkpt>
      <trkpt lat="43.116240" lon="-4.990660">
        <ele>1431.708</ele>
        <time>2020-05-22T16:02:32Z</time>
      </trkpt>
      <trkpt lat="43.116270" lon="-4.990560">
        <ele>1432.747</ele>
        <time>2020-05-22T16:02:52Z</time>
      </trkpt>
      <trkpt lat="43.116330" lon="-4.990370">
        <ele>1432.242</ele>
        <time>2020-05-22T16:03:12Z</time>
      </trkpt>
      <trkpt lat="43.116390" lon="-4.990040">
        <ele>1432.549</ele>
        <time>2020-05-22T16:03:32Z</time>
      </trkpt>
      <trkpt lat="43.116440" lon="-4.989720">
        <ele>1433.125</ele>
        <time>2020-05-22T16:03:52Z</time>
      </trkpt>
      <trkpt lat="43.116500" lon="-4.989450">
        <ele>1432.984</ele>
        <time>2020-05-22T16:04:12Z</time>
      </trkpt>
      <trkpt lat="43.116530" lon="-4.989320">
        <ele>1434.371</ele>
        <time>2020-05-22T16:04:32Z</time>
      </trkpt>
      <trkpt lat="43.116660" lon="-4.988950">
        <ele>1436.826</ele>
        <time>2020-05-22T16:04:52Z</time>
      </trkpt>
      <trkpt lat="43.116770" lon="-4.988660">
        <ele>1438.440</ele>
        <time>2020-05-22T16:05:12Z</time>
      </trkpt>
      <trkpt lat="43.116890" lon="-4.988380">
        <ele>1439.248</ele>
        <time>2020-05-22T16:05:32Z</time>
      </trkpt>
      <trkpt lat="43.116900" lon="-4.988350">
        <ele>1439.461</ele>
        <time>2020-05-22T16:05:52Z</time>
      </trkpt>
      <trkpt lat="43.116960" lon="-4.988230">
        <ele>1439.817</ele>
        <time>2020-05-22T16:06:12Z</time>
      </trkpt>
      <trkpt lat="43.117010" lon="-4.988150">
        <ele>1440.508</ele>
        <time>2020-05-22T16:06:32Z</time>
      </trkpt>
      <trkpt lat="43.117070" lon="-4.988080">
        <ele>1441.178</ele>
        <time>2020-05-22T16:06:52Z</time>
      </trkpt>
      <trkpt lat="43.117130" lon="-4.988040">
        <ele>1441.063</ele>
        <time>2020-05-22T16:07:12Z</time>
      </trkpt>
      <trkpt lat="43.117240" lon="-4.987960">
        <ele>1440.540</ele>
        <time>2020-05-22T16:07:32Z</time>
      </trkpt>
      <trkpt lat="43.117340" lon="-4.987910">
        <ele>1440.626</ele>
        <time>2020-05-22T16:07:52Z</time>
      </trkpt>
      <trkpt lat="43.117520" lon="-4.987850">
        <ele>1440.815</ele>
        <time>2020-05-22T16:08:12Z</time>
      </trkpt>
      <trkpt lat="43.118500" lon="-4.987500">
        <ele>1448.832</ele>
        <time>2020-05-22T16:08:32Z</time>
      </trkpt>
      <trkpt lat="43.118620" lon="-4.987460">
        <ele>1449.077</ele>
        <time>2020-05-22T16:08:52Z</time>
      </trkpt>
      <trkpt lat="43.118670" lon="-4.987420">
        <ele>1449.781</ele>
        <time>2020-05-22T16:09:12Z</time>
      </trkpt>
      <trkpt lat="43.118710" lon="-4.987400">
        <ele>1449.979</ele>
        <time>2020-05-22T16:09:32Z</time>
      </trkpt>
      <trkpt lat="43.118790" lon="-4.987340">
        <ele>1450.605</ele>
        <time>2020-05-22T16:09:52Z</time>
      </trkpt>
      <trkpt lat="43.119020" lon="-4.987150">
        <ele>1451.525</ele>
        <time>2020-05-22T16:10:12Z</time>
      </trkpt>
      <trkpt lat="43.119070" lon="-4.987100">
        <ele>1451.508</ele>
        <time>2020-05-22T16:10:32Z</time>
      </trkpt>
      <trkpt lat="43.119270" lon="-4.986950">
        <ele>1450.811</ele>
        <time>2020-05-22T16:10:52Z</time>
      </trkpt>
      <trkpt lat="43.119340" lon="-4.986910">
        <ele>1450.886</ele>
        <time>2020-05-22T16:11:12Z</time>
      </trkpt>
      <trkpt lat="43.119400" lon="-4.986880">
        <ele>1450.873</ele>
        <time>2020-05-22T16:11:32Z</time>
      </trkpt>
      <trkpt lat="43.119510" lon="-4.986850">
        <ele>1450.959</ele>
        <time>2020-05-22T16:11:52Z</time>
      </trkpt>
      <trkpt lat="43.119520" lon="-4.986840">
        <ele>1451.148</ele>
        <time>2020-05-22T16:12:12Z</time>
      </trkpt>
      <trkpt lat="43.119680" lon="-4.986790">
        <ele>1452.045</ele>
        <time>2020-05-22T16:12:32Z</time>
      </trkpt>
      <trkpt lat="43.119770" lon="-4.986770">
        <ele>1452.380</ele>
        <time>2020-05-22T16:12:52Z</time>
      </trkpt>
      <trkpt lat="43.119990" lon="-4.986700">
        <ele>1453.344</ele>
        <time>2020-05-22T16:13:12Z</time>
      </trkpt>
      <trkpt lat="43.120040" lon="-4.986690">
        <ele>1453.156</ele>
        <time>2020-05-22T16:13:32Z</time>
      </trkpt>
      <trkpt lat="43.120060" lon="-4.986680">
        <ele>1453.159</ele>
        <time>2020-05-22T16:13:52Z</time>
      </trkpt>
      <trkpt lat="43.120190" lon="-4.986610">
        <ele>1453.014</ele>
        <time>2020-05-22T16:14:12Z</time>
      </trkpt>
      <trkpt lat="43.120470" lon="-4.986420">
        <ele>1453.408</ele>
        <time>2020-05-22T16:14:32Z</time>
      </trkpt>
      <trkpt lat="43.120520" lon="-4.986370">
        <ele>1453.679</ele>
        <time>2020-05-22T16:14:52Z</time>
      </trkpt>
      <trkpt lat="43.120810" lon="-4.986160">
        <ele>1455.044</ele>
        <time>2020-05-22T16:15:12Z</time>
      </trkpt>
      <trkpt lat="43.120990" lon="-4.985990">
        <ele>1456.751</ele>
        <time>2020-05-22T16:15:32Z</time>
      </trkpt>
      <trkpt lat="43.121080" lon="-4.985900">
        <ele>1457.257</ele>
        <time>2020-05-22T16:15:52Z</time>
      </trkpt>
      <trkpt lat="43.121130" lon="-4.985840">
        <ele>1457.496</ele>
        <time>2020-05-22T16:16:12Z</time>
      </trkpt>
      <trkpt lat="43.121700" lon="-4.985240">
        <ele>1456.863</ele>
        <time>2020-05-22T16:16:32Z</time>
      </trkpt>
      <trkpt lat="43.122130" lon="-4.984790">
        <ele>1458.098</ele>
        <time>2020-05-22T16:16:52Z</time>
      </trkpt>
      <trkpt lat="43.122160" lon="-4.984760">
        <ele>1458.222</ele>
        <time>2020-05-22T16:17:12Z</time>
      </trkpt>
      <trkpt lat="43.122590" lon="-4.984290">
        <ele>1460.988</ele>
        <time>2020-05-22T16:17:32Z</time>
      </trkpt>
      <trkpt lat="43.122780" lon="-4.984060">
        <ele>1461.624</ele>
        <time>2020-05-22T16:17:52Z</time>
      </trkpt>
      <trkpt lat="43.122810" lon="-4.984000">
        <ele>1461.926</ele>
        <time>2020-05-22T16:18:12Z</time>
      </trkpt>
      <trkpt lat="43.122960" lon="-4.983800">
        <ele>1461.808</ele>
        <time>2020-05-22T16:18:32Z</time>
      </trkpt>
      <trkpt lat="43.122990" lon="-4.983760">
        <ele>1461.952</ele>
        <time>2020-05-22T16:18:52Z</time>
      </trkpt>
      <trkpt lat="43.123090" lon="-4.983650">
        <ele>1461.827</ele>
        <time>2020-05-22T16:19:12Z</time>
      </trkpt>
      <trkpt lat="43.123220" lon="-4.983560">
        <ele>1462.554</ele>
        <time>2020-05-22T16:19:32Z</time>
      </trkpt>
      <trkpt lat="43.123310" lon="-4.983500">
        <ele>1463.270</ele>
        <time>2020-05-22T16:19:52Z</time>
      </trkpt>
      <trkpt lat="43.123390" lon="-4.983470">
        <ele>1462.889</ele>
        <time>2020-05-22T16:20:12Z</time>
      </trkpt>
      <trkpt lat="43.123400" lon="-4.983470">
        <ele>1462.526</ele>
        <time>2020-05-22T16:20:32Z</time>
      </trkpt>
      <trkpt lat="43.123620" lon="-4.983380">
        <ele>1460.961</ele>
        <time>2020-05-22T16:20:52Z</time>
      </trkpt>
      <trkpt lat="43.123690" lon="-4.983340">
        <ele>1460.825</ele>
        <time>2020-05-22T16:21:12Z</time>
      </trkpt>
      <trkpt lat="43.123810" lon="-4.983240">
        <ele>1460.169</ele>
        <time>2020-05-22T16:21:32Z</time>
      </trkpt>
      <trkpt lat="43.123970" lon="-4.983060">
        <ele>1459.904</ele>
        <time>2020-05-22T16:21:52Z</time>
      </trkpt>
      <trkpt lat="43.124250" lon="-4.982710">
        <ele>1459.424</ele>
        <time>2020-05-22T16:22:12Z</time>
      </trkpt>
      <trkpt lat="43.124290" lon="-4.982660">
        <ele>1459.508</ele>
        <time>2020-05-22T16:22:32Z</time>
      </trkpt>
      <trkpt lat="43.124420" lon="-4.982490">
        <ele>1459.790</ele>
        <time>2020-05-22T16:22:52Z</time>
      </trkpt>
      <trkpt lat="43.124550" lon="-4.982320">
        <ele>1460.365</ele>
        <time>2020-05-22T16:23:12Z</time>
      </trkpt>
      <trkpt lat="43.124590" lon="-4.982270">
        <ele>1460.772</ele>
        <time>2020-05-22T16:23:32Z</time>
      </trkpt>
      <trkpt lat="43.124640" lon="-4.982180">
        <ele>1461.298</ele>
        <time>2020-05-22T16:23:52Z</time>
      </trkpt>
      <trkpt lat="43.124690" lon="-4.982100">
        <ele>1461.337</ele>
        <time>2020-05-22T16:24:12Z</time>
      </trkpt>
      <trkpt lat="43.124710" lon="-4.982030">
        <ele>1461.554</ele>
        <time>2020-05-22T16:24:32Z</time>
      </trkpt>
      <trkpt lat="43.124870" lon="-4.981470">
        <ele>1462.339</ele>
        <time>2020-05-22T16:24:52Z</time>
      </trkpt>
      <trkpt lat="43.124870" lon="-4.981460">
        <ele>1462.363</ele>
        <time>2020-05-22T16:25:12Z</time>
      </trkpt>
      <trkpt lat="43.124930" lon="-4.981220">
        <ele>1461.974</ele>
        <time>2020-05-22T16:25:32Z</time>
      </trkpt>
      <trkpt lat="43.124940" lon="-4.981190">
        <ele>1461.856</ele>
        <time>2020-05-22T16:25:52Z</time>
      </trkpt>
      <trkpt lat="43.124990" lon="-4.981060">
        <ele>1461.121</ele>
        <time>2020-05-22T16:26:12Z</time>
      </trkpt>
      <trkpt lat="43.125030" lon="-4.980980">
        <ele>1460.708</ele>
        <time>2020-05-22T16:26:32Z</time>
      </trkpt>
      <trkpt lat="43.125060" lon="-4.980920">
        <ele>1460.421</ele>
        <time>2020-05-22T16:26:52Z</time>
      </trkpt>
      <trkpt lat="43.125080" lon="-4.980880">
        <ele>1460.246</ele>
        <time>2020-05-22T16:27:12Z</time>
      </trkpt>
      <trkpt lat="43.125120" lon="-4.980840">
        <ele>1459.743</ele>
        <time>2020-05-22T16:27:32Z</time>
      </trkpt>
      <trkpt lat="43.125150" lon="-4.980810">
        <ele>1459.249</ele>
        <time>2020-05-22T16:27:52Z</time>
      </trkpt>
      <trkpt lat="43.125200" lon="-4.980770">
        <ele>1458.418</ele>
        <time>2020-05-22T16:28:12Z</time>
      </trkpt>
      <trkpt lat="43.125230" lon="-4.980750">
        <ele>1457.995</ele>
        <time>2020-05-22T16:28:32Z</time>
      </trkpt>
      <trkpt lat="43.125270" lon="-4.980730">
        <ele>1457.310</ele>
        <time>2020-05-22T16:28:52Z</time>
      </trkpt>
      <trkpt lat="43.125320" lon="-4.980720">
        <ele>1456.714</ele>
        <time>2020-05-22T16:29:12Z</time>
      </trkpt>
      <trkpt lat="43.125390" lon="-4.980720">
        <ele>1455.836</ele>
        <time>2020-05-22T16:29:32Z</time>
      </trkpt>
      <trkpt lat="43.125450" lon="-4.980720">
        <ele>1455.117</ele>
        <time>2020-05-22T16:29:52Z</time>
      </trkpt>
      <trkpt lat="43.125520" lon="-4.980740">
        <ele>1454.418</ele>
        <time>2020-05-22T16:30:12Z</time>
      </trkpt>
      <trkpt lat="43.125580" lon="-4.980760">
        <ele>1453.908</ele>
        <time>2020-05-22T16:30:32Z</time>
      </trkpt>
      <trkpt lat="43.125720" lon="-4.980820">
        <ele>1453.187</ele>
        <time>2020-05-22T16:30:52Z</time>
      </trkpt>
      <trkpt lat="43.125780" lon="-4.980850">
        <ele>1452.822</ele>
        <time>2020-05-22T16:31:12Z</time>
      </trkpt>
      <trkpt lat="43.125980" lon="-4.980900">
        <ele>1452.689</ele>
        <time>2020-05-22T16:31:32Z</time>
      </trkpt>
      <trkpt lat="43.126010" lon="-4.980900">
        <ele>1452.595</ele>
        <time>2020-05-22T16:31:52Z</time>
      </trkpt>
      <trkpt lat="43.126030" lon="-4.980890">
        <ele>1452.344</ele>
        <time>2020-05-22T16:32:12Z</time>
      </trkpt>
      <trkpt lat="43.126050" lon="-4.980880">
        <ele>1452.121</ele>
        <time>2020-05-22T16:32:32Z</time>
      </trkpt>
      <trkpt lat="43.126090" lon="-4.980840">
        <ele>1451.246</ele>
        <time>2020-05-22T16:32:52Z</time>
      </trkpt>
      <trkpt lat="43.126120" lon="-4.980800">
        <ele>1450.720</ele>
        <time>2020-05-22T16:33:12Z</time>
      </trkpt>
      <trkpt lat="43.126180" lon="-4.980690">
        <ele>1451.057</ele>
        <time>2020-05-22T16:33:32Z</time>
      </trkpt>
      <trkpt lat="43.126330" lon="-4.980320">
        <ele>1446.700</ele>
        <time>2020-05-22T16:33:52Z</time>
      </trkpt>
      <trkpt lat="43.126480" lon="-4.980060">
        <ele>1442.420</ele>
        <time>2020-05-22T16:34:12Z</time>
      </trkpt>
      <trkpt lat="43.126510" lon="-4.980010">
        <ele>1441.708</ele>
        <time>2020-05-22T16:34:32Z</time>
      </trkpt>
      <trkpt lat="43.126660" lon="-4.979800">
        <ele>1440.279</ele>
        <time>2020-05-22T16:34:52Z</time>
      </trkpt>
      <trkpt lat="43.126760" lon="-4.979660">
        <ele>1438.694</ele>
        <time>2020-05-22T16:35:12Z</time>
      </trkpt>
      <trkpt lat="43.127270" lon="-4.979080">
        <ele>1432.221</ele>
        <time>2020-05-22T16:35:32Z</time>
      </trkpt>
      <trkpt lat="43.127460" lon="-4.978860">
        <ele>1429.367</ele>
        <time>2020-05-22T16:35:52Z</time>
      </trkpt>
      <trkpt lat="43.127690" lon="-4.978640">
        <ele>1425.396</ele>
        <time>2020-05-22T16:36:12Z</time>
      </trkpt>
      <trkpt lat="43.127740" lon="-4.978620">
        <ele>1425.073</ele>
        <time>2020-05-22T16:36:32Z</time>
      </trkpt>
      <trkpt lat="43.127800" lon="-4.978600">
        <ele>1424.488</ele>
        <time>2020-05-22T16:36:52Z</time>
      </trkpt>
      <trkpt lat="43.127860" lon="-4.978590">
        <ele>1423.682</ele>
        <time>2020-05-22T16:37:12Z</time>
      </trkpt>
      <trkpt lat="43.127910" lon="-4.978600">
        <ele>1423.675</ele>
        <time>2020-05-22T16:37:32Z</time>
      </trkpt>
      <trkpt lat="43.128000" lon="-4.978610">
        <ele>1423.428</ele>
        <time>2020-05-22T16:37:52Z</time>
      </trkpt>
      <trkpt lat="43.128080" lon="-4.978630">
        <ele>1423.220</ele>
        <time>2020-05-22T16:38:12Z</time>
      </trkpt>
      <trkpt lat="43.128180" lon="-4.978660">
        <ele>1422.308</ele>
        <time>2020-05-22T16:38:32Z</time>
      </trkpt>
      <trkpt lat="43.128350" lon="-4.978750">
        <ele>1422.741</ele>
        <time>2020-05-22T16:38:52Z</time>
      </trkpt>
      <trkpt lat="43.128410" lon="-4.978770">
        <ele>1422.446</ele>
        <time>2020-05-22T16:39:12Z</time>
      </trkpt>
      <trkpt lat="43.128430" lon="-4.978780">
        <ele>1422.423</ele>
        <time>2020-05-22T16:39:32Z</time>
      </trkpt>
      <trkpt lat="43.128480" lon="-4.978790">
        <ele>1421.929</ele>
        <time>2020-05-22T16:39:52Z</time>
      </trkpt>
      <trkpt lat="43.128520" lon="-4.978800">
        <ele>1421.698</ele>
        <time>2020-05-22T16:40:12Z</time>
      </trkpt>
      <trkpt lat="43.128580" lon="-4.978790">
        <ele>1420.065</ele>
        <time>2020-05-22T16:40:32Z</time>
      </trkpt>
      <trkpt lat="43.128600" lon="-4.978780">
        <ele>1419.120</ele>
        <time>2020-05-22T16:40:52Z</time>
      </trkpt>
      <trkpt lat="43.128820" lon="-4.978650">
        <ele>1413.694</ele>
        <time>2020-05-22T16:41:12Z</time>
      </trkpt>
      <trkpt lat="43.128890" lon="-4.978630">
        <ele>1412.965</ele>
        <time>2020-05-22T16:41:32Z</time>
      </trkpt>
      <trkpt lat="43.128950" lon="-4.978630">
        <ele>1411.568</ele>
        <time>2020-05-22T16:41:52Z</time>
      </trkpt>
      <trkpt lat="43.129030" lon="-4.978660">
        <ele>1411.114</ele>
        <time>2020-05-22T16:42:12Z</time>
      </trkpt>
      <trkpt lat="43.129170" lon="-4.978770">
        <ele>1412.208</ele>
        <time>2020-05-22T16:42:32Z</time>
      </trkpt>
      <trkpt lat="43.129360" lon="-4.978880">
        <ele>1409.760</ele>
        <time>2020-05-22T16:42:52Z</time>
      </trkpt>
      <trkpt lat="43.129600" lon="-4.978960">
        <ele>1407.585</ele>
        <time>2020-05-22T16:43:12Z</time>
      </trkpt>
      <trkpt lat="43.129640" lon="-4.978970">
        <ele>1407.292</ele>
        <time>2020-05-22T16:43:32Z</time>
      </trkpt>
      <trkpt lat="43.129750" lon="-4.979010">
        <ele>1405.778</ele>
        <time>2020-05-22T16:43:52Z</time>
      </trkpt>
      <trkpt lat="43.129850" lon="-4.979070">
        <ele>1403.227</ele>
        <time>2020-05-22T16:44:12Z</time>
      </trkpt>
      <trkpt lat="43.129880" lon="-4.979100">
        <ele>1402.734</ele>
        <time>2020-05-22T16:44:32Z</time>
      </trkpt>
      <trkpt lat="43.129930" lon="-4.979180">
        <ele>1402.649</ele>
        <time>2020-05-22T16:44:52Z</time>
      </trkpt>
      <trkpt lat="43.129950" lon="-4.979230">
        <ele>1403.093</ele>
        <time>2020-05-22T16:45:12Z</time>
      </trkpt>
      <trkpt lat="43.130070" lon="-4.979600">
        <ele>1404.842</ele>
        <time>2020-05-22T16:45:32Z</time>
      </trkpt>
      <trkpt lat="43.130100" lon="-4.979700">
        <ele>1406.122</ele>
        <time>2020-05-22T16:45:52Z</time>
      </trkpt>
      <trkpt lat="43.130110" lon="-4.979740">
        <ele>1406.914</ele>
        <time>2020-05-22T16:46:12Z</time>
      </trkpt>
      <trkpt lat="43.130140" lon="-4.979760">
        <ele>1406.408</ele>
        <time>2020-05-22T16:46:32Z</time>
      </trkpt>
      <trkpt lat="43.130190" lon="-4.979790">
        <ele>1405.678</ele>
        <time>2020-05-22T16:46:52Z</time>
      </trkpt>
      <trkpt lat="43.130240" lon="-4.979800">
        <ele>1403.993</ele>
        <time>2020-05-22T16:47:12Z</time>
      </trkpt>
      <trkpt lat="43.130280" lon="-4.979800">
        <ele>1402.420</ele>
        <time>2020-05-22T16:47:32Z</time>
      </trkpt>
      <trkpt lat="43.130350" lon="-4.979780">
        <ele>1401.766</ele>
        <time>2020-05-22T16:47:52Z</time>
      </trkpt>
      <trkpt lat="43.130520" lon="-4.979730">
        <ele>1399.435</ele>
        <time>2020-05-22T16:48:12Z</time>
      </trkpt>
      <trkpt lat="43.130670" lon="-4.979670">
        <ele>1397.482</ele>
        <time>2020-05-22T16:48:32Z</time>
      </trkpt>
      <trkpt lat="43.130730" lon="-4.979650">
        <ele>1396.997</ele>
        <time>2020-05-22T16:48:52Z</time>
      </trkpt>
      <trkpt lat="43.130760" lon="-4.979630">
        <ele>1396.371</ele>
        <time>2020-05-22T16:49:12Z</time>
      </trkpt>
      <trkpt lat="43.130770" lon="-4.979610">
        <ele>1395.621</ele>
        <time>2020-05-22T16:49:32Z</time>
      </trkpt>
      <trkpt lat="43.130910" lon="-4.979350">
        <ele>1389.641</ele>
        <time>2020-05-22T16:49:52Z</time>
      </trkpt>
      <trkpt lat="43.130960" lon="-4.979280">
        <ele>1388.705</ele>
        <time>2020-05-22T16:50:12Z</time>
      </trkpt>
      <trkpt lat="43.131010" lon="-4.979210">
        <ele>1387.608</ele>
        <time>2020-05-22T16:50:32Z</time>
      </trkpt>
      <trkpt lat="43.131040" lon="-4.979190">
        <ele>1387.716</ele>
        <time>2020-05-22T16:50:52Z</time>
      </trkpt>
      <trkpt lat="43.131060" lon="-4.979170">
        <ele>1387.551</ele>
        <time>2020-05-22T16:51:12Z</time>
      </trkpt>
      <trkpt lat="43.131100" lon="-4.979160">
        <ele>1388.328</ele>
        <time>2020-05-22T16:51:32Z</time>
      </trkpt>
      <trkpt lat="43.131140" lon="-4.979150">
        <ele>1387.954</ele>
        <time>2020-05-22T16:51:52Z</time>
      </trkpt>
      <trkpt lat="43.131220" lon="-4.979150">
        <ele>1387.023</ele>
        <time>2020-05-22T16:52:12Z</time>
      </trkpt>
      <trkpt lat="43.131310" lon="-4.979170">
        <ele>1387.030</ele>
        <time>2020-05-22T16:52:32Z</time>
      </trkpt>
      <trkpt lat="43.131470" lon="-4.979200">
        <ele>1388.125</ele>
        <time>2020-05-22T16:52:52Z</time>
      </trkpt>
      <trkpt lat="43.131490" lon="-4.979190">
        <ele>1387.829</ele>
        <time>2020-05-22T16:53:12Z</time>
      </trkpt>
      <trkpt lat="43.131520" lon="-4.979170">
        <ele>1387.167</ele>
        <time>2020-05-22T16:53:32Z</time>
      </trkpt>
      <trkpt lat="43.131550" lon="-4.979150">
        <ele>1386.581</ele>
        <time>2020-05-22T16:53:52Z</time>
      </trkpt>
      <trkpt lat="43.131560" lon="-4.979130">
        <ele>1385.919</ele>
        <time>2020-05-22T16:54:12Z</time>
      </trkpt>
      <trkpt lat="43.131600" lon="-4.979040">
        <ele>1383.508</ele>
        <time>2020-05-22T16:54:32Z</time>
      </trkpt>
      <trkpt lat="43.131640" lon="-4.978930">
        <ele>1381.270</ele>
        <time>2020-05-22T16:54:52Z</time>
      </trkpt>
      <trkpt lat="43.131730" lon="-4.978570">
        <ele>1377.795</ele>
        <time>2020-05-22T16:55:12Z</time>
      </trkpt>
      <trkpt lat="43.131770" lon="-4.978420">
        <ele>1376.372</ele>
        <time>2020-05-22T16:55:32Z</time>
      </trkpt>
      <trkpt lat="43.131780" lon="-4.978400">
        <ele>1376.388</ele>
        <time>2020-05-22T16:55:52Z</time>
      </trkpt>
      <trkpt lat="43.131800" lon="-4.978320">
        <ele>1375.347</ele>
        <time>2020-05-22T16:56:12Z</time>
      </trkpt>
      <trkpt lat="43.131820" lon="-4.978260">
        <ele>1374.644</ele>
        <time>2020-05-22T16:56:32Z</time>
      </trkpt>
      <trkpt lat="43.131830" lon="-4.978220">
        <ele>1373.949</ele>
        <time>2020-05-22T16:56:52Z</time>
      </trkpt>
      <trkpt lat="43.131980" lon="-4.978040">
        <ele>1374.653</ele>
        <time>2020-05-22T16:57:12Z</time>
      </trkpt>
      <trkpt lat="43.132030" lon="-4.977960">
        <ele>1374.094</ele>
        <time>2020-05-22T16:57:32Z</time>
      </trkpt>
      <trkpt lat="43.132050" lon="-4.977920">
        <ele>1373.857</ele>
        <time>2020-05-22T16:57:52Z</time>
      </trkpt>
      <trkpt lat="43.132060" lon="-4.977890">
        <ele>1373.522</ele>
        <time>2020-05-22T16:58:12Z</time>
      </trkpt>
      <trkpt lat="43.132060" lon="-4.977860">
        <ele>1372.708</ele>
        <time>2020-05-22T16:58:32Z</time>
      </trkpt>
      <trkpt lat="43.132060" lon="-4.977810">
        <ele>1371.663</ele>
        <time>2020-05-22T16:58:52Z</time>
      </trkpt>
      <trkpt lat="43.132060" lon="-4.977770">
        <ele>1370.938</ele>
        <time>2020-05-22T16:59:12Z</time>
      </trkpt>
      <trkpt lat="43.132050" lon="-4.977690">
        <ele>1370.945</ele>
        <time>2020-05-22T16:59:32Z</time>
      </trkpt>
      <trkpt lat="43.132010" lon="-4.977510">
        <ele>1369.751</ele>
        <time>2020-05-22T16:59:52Z</time>
      </trkpt>
      <trkpt lat="43.131960" lon="-4.977290">
        <ele>1368.380</ele>
        <time>2020-05-22T17:00:12Z</time>
      </trkpt>
      <trkpt lat="43.131960" lon="-4.977250">
        <ele>1368.697</ele>
        <time>2020-05-22T17:00:32Z</time>
      </trkpt>
      <trkpt lat="43.131940" lon="-4.977140">
        <ele>1367.542</ele>
        <time>2020-05-22T17:00:52Z</time>
      </trkpt>
      <trkpt lat="43.131930" lon="-4.977030">
        <ele>1366.546</ele>
        <time>2020-05-22T17:01:12Z</time>
      </trkpt>
      <trkpt lat="43.131920" lon="-4.976940">
        <ele>1365.556</ele>
        <time>2020-05-22T17:01:32Z</time>
      </trkpt>
      <trkpt lat="43.131920" lon="-4.976840">
        <ele>1364.559</ele>
        <time>2020-05-22T17:01:52Z</time>
      </trkpt>
      <trkpt lat="43.131930" lon="-4.976750">
        <ele>1364.114</ele>
        <time>2020-05-22T17:02:12Z</time>
      </trkpt>
      <trkpt lat="43.131930" lon="-4.976730">
        <ele>1363.908</ele>
        <time>2020-05-22T17:02:32Z</time>
      </trkpt>
      <trkpt lat="43.131950" lon="-4.976610">
        <ele>1363.589</ele>
        <time>2020-05-22T17:02:52Z</time>
      </trkpt>
      <trkpt lat="43.131970" lon="-4.976530">
        <ele>1363.434</ele>
        <time>2020-05-22T17:03:12Z</time>
      </trkpt>
      <trkpt lat="43.132020" lon="-4.976260">
        <ele>1361.231</ele>
        <time>2020-05-22T17:03:32Z</time>
      </trkpt>
      <trkpt lat="43.132070" lon="-4.976100">
        <ele>1360.187</ele>
        <time>2020-05-22T17:03:52Z</time>
      </trkpt>
      <trkpt lat="43.132080" lon="-4.976040">
        <ele>1359.736</ele>
        <time>2020-05-22T17:04:12Z</time>
      </trkpt>
      <trkpt lat="43.132090" lon="-4.975970">
        <ele>1359.123</ele>
        <time>2020-05-22T17:04:32Z</time>
      </trkpt>
      <trkpt lat="43.132110" lon="-4.975860">
        <ele>1358.448</ele>
        <time>2020-05-22T17:04:52Z</time>
      </trkpt>
      <trkpt lat="43.132120" lon="-4.975760">
        <ele>1357.772</ele>
        <time>2020-05-22T17:05:12Z</time>
      </trkpt>
      <trkpt lat="43.132130" lon="-4.975620">
        <ele>1356.776</ele>
        <time>2020-05-22T17:05:32Z</time>
      </trkpt>
      <trkpt lat="43.132130" lon="-4.975420">
        <ele>1354.790</ele>
        <time>2020-05-22T17:05:52Z</time>
      </trkpt>
      <trkpt lat="43.132130" lon="-4.975280">
        <ele>1353.419</ele>
        <time>2020-05-22T17:06:12Z</time>
      </trkpt>
      <trkpt lat="43.132140" lon="-4.974820">
        <ele>1349.908</ele>
        <time>2020-05-22T17:06:32Z</time>
      </trkpt>
      <trkpt lat="43.132150" lon="-4.974560">
        <ele>1347.471</ele>
        <time>2020-05-22T17:06:52Z</time>
      </trkpt>
      <trkpt lat="43.132150" lon="-4.974310">
        <ele>1343.816</ele>
        <time>2020-05-22T17:07:12Z</time>
      </trkpt>
      <trkpt lat="43.132160" lon="-4.974080">
        <ele>1340.743</ele>
        <time>2020-05-22T17:07:32Z</time>
      </trkpt>
      <trkpt lat="43.132150" lon="-4.973950">
        <ele>1339.149</ele>
        <time>2020-05-22T17:07:52Z</time>
      </trkpt>
      <trkpt lat="43.132140" lon="-4.973830">
        <ele>1337.688</ele>
        <time>2020-05-22T17:08:12Z</time>
      </trkpt>
      <trkpt lat="43.132130" lon="-4.973790">
        <ele>1336.995</ele>
        <time>2020-05-22T17:08:32Z</time>
      </trkpt>
      <trkpt lat="43.132120" lon="-4.973700">
        <ele>1335.830</ele>
        <time>2020-05-22T17:08:52Z</time>
      </trkpt>
      <trkpt lat="43.132110" lon="-4.973650">
        <ele>1335.244</ele>
        <time>2020-05-22T17:09:12Z</time>
      </trkpt>
      <trkpt lat="43.132100" lon="-4.973580">
        <ele>1334.465</ele>
        <time>2020-05-22T17:09:32Z</time>
      </trkpt>
      <trkpt lat="43.132070" lon="-4.973460">
        <ele>1333.468</ele>
        <time>2020-05-22T17:09:52Z</time>
      </trkpt>
      <trkpt lat="43.132030" lon="-4.973270">
        <ele>1332.914</ele>
        <time>2020-05-22T17:10:12Z</time>
      </trkpt>
      <trkpt lat="43.131950" lon="-4.973000">
        <ele>1333.708</ele>
        <time>2020-05-22T17:10:32Z</time>
      </trkpt>
      <trkpt lat="43.131950" lon="-4.972990">
        <ele>1333.710</ele>
        <time>2020-05-22T17:10:52Z</time>
      </trkpt>
      <trkpt lat="43.131870" lon="-4.972720">
        <ele>1331.925</ele>
        <time>2020-05-22T17:11:12Z</time>
      </trkpt>
      <trkpt lat="43.131780" lon="-4.972510">
        <ele>1331.412</ele>
        <time>2020-05-22T17:11:32Z</time>
      </trkpt>
      <trkpt lat="43.131750" lon="-4.972450">
        <ele>1331.648</ele>
        <time>2020-05-22T17:11:52Z</time>
      </trkpt>
      <trkpt lat="43.131710" lon="-4.972350">
        <ele>1332.247</ele>
        <time>2020-05-22T17:12:12Z</time>
      </trkpt>
      <trkpt lat="43.131630" lon="-4.972210">
        <ele>1331.894</ele>
        <time>2020-05-22T17:12:32Z</time>
      </trkpt>
      <trkpt lat="43.131570" lon="-4.972030">
        <ele>1330.489</ele>
        <time>2020-05-22T17:12:52Z</time>
      </trkpt>
      <trkpt lat="43.131520" lon="-4.971850">
        <ele>1328.743</ele>
        <time>2020-05-22T17:13:12Z</time>
      </trkpt>
      <trkpt lat="43.131460" lon="-4.971630">
        <ele>1326.348</ele>
        <time>2020-05-22T17:13:32Z</time>
      </trkpt>
      <trkpt lat="43.131410" lon="-4.971450">
        <ele>1325.461</ele>
        <time>2020-05-22T17:13:52Z</time>
      </trkpt>
      <trkpt lat="43.131390" lon="-4.971390">
        <ele>1325.017</ele>
        <time>2020-05-22T17:14:12Z</time>
      </trkpt>
      <trkpt lat="43.131360" lon="-4.971280">
        <ele>1324.408</ele>
        <time>2020-05-22T17:14:32Z</time>
      </trkpt>
      <trkpt lat="43.131330" lon="-4.971220">
        <ele>1323.678</ele>
        <time>2020-05-22T17:14:52Z</time>
      </trkpt>
      <trkpt lat="43.131310" lon="-4.971160">
        <ele>1323.593</ele>
        <time>2020-05-22T17:15:12Z</time>
      </trkpt>
      <trkpt lat="43.131270" lon="-4.971100">
        <ele>1322.960</ele>
        <time>2020-05-22T17:15:32Z</time>
      </trkpt>
      <trkpt lat="43.131220" lon="-4.971050">
        <ele>1322.336</ele>
        <time>2020-05-22T17:15:52Z</time>
      </trkpt>
      <trkpt lat="43.131180" lon="-4.971020">
        <ele>1321.865</ele>
        <time>2020-05-22T17:16:12Z</time>
      </trkpt>
      <trkpt lat="43.131120" lon="-4.970990">
        <ele>1320.892</ele>
        <time>2020-05-22T17:16:32Z</time>
      </trkpt>
      <trkpt lat="43.131050" lon="-4.970980">
        <ele>1319.967</ele>
        <time>2020-05-22T17:16:52Z</time>
      </trkpt>
      <trkpt lat="43.130960" lon="-4.970960">
        <ele>1319.231</ele>
        <time>2020-05-22T17:17:12Z</time>
      </trkpt>
      <trkpt lat="43.130950" lon="-4.970960">
        <ele>1319.176</ele>
        <time>2020-05-22T17:17:32Z</time>
      </trkpt>
      <trkpt lat="43.130870" lon="-4.970930">
        <ele>1319.090</ele>
        <time>2020-05-22T17:17:52Z</time>
      </trkpt>
      <trkpt lat="43.130800" lon="-4.970920">
        <ele>1318.119</ele>
        <time>2020-05-22T17:18:12Z</time>
      </trkpt>
      <trkpt lat="43.130760" lon="-4.970900">
        <ele>1317.908</ele>
        <time>2020-05-22T17:18:32Z</time>
      </trkpt>
      <trkpt lat="43.130710" lon="-4.970860">
        <ele>1318.011</ele>
        <time>2020-05-22T17:18:52Z</time>
      </trkpt>
      <trkpt lat="43.130650" lon="-4.970820">
        <ele>1317.796</ele>
        <time>2020-05-22T17:19:12Z</time>
      </trkpt>
      <trkpt lat="43.130590" lon="-4.970750">
        <ele>1317.523</ele>
        <time>2020-05-22T17:19:32Z</time>
      </trkpt>
      <trkpt lat="43.130550" lon="-4.970690">
        <ele>1317.339</ele>
        <time>2020-05-22T17:19:52Z</time>
      </trkpt>
      <trkpt lat="43.130450" lon="-4.970470">
        <ele>1315.918</ele>
        <time>2020-05-22T17:20:12Z</time>
      </trkpt>
      <trkpt lat="43.130410" lon="-4.970360">
        <ele>1315.575</ele>
        <time>2020-05-22T17:20:32Z</time>
      </trkpt>
      <trkpt lat="43.130380" lon="-4.970290">
        <ele>1315.070</ele>
        <time>2020-05-22T17:20:52Z</time>
      </trkpt>
      <trkpt lat="43.130300" lon="-4.970150">
        <ele>1314.334</ele>
        <time>2020-05-22T17:21:12Z</time>
      </trkpt>
      <trkpt lat="43.130160" lon="-4.969950">
        <ele>1312.926</ele>
        <time>2020-05-22T17:21:32Z</time>
      </trkpt>
      <trkpt lat="43.130130" lon="-4.969920">
        <ele>1312.247</ele>
        <time>2020-05-22T17:21:52Z</time>
      </trkpt>
      <trkpt lat="43.129900" lon="-4.969590">
        <ele>1308.911</ele>
        <time>2020-05-22T17:22:12Z</time>
      </trkpt>
      <trkpt lat="43.129810" lon="-4.969440">
        <ele>1309.608</ele>
        <time>2020-05-22T17:22:32Z</time>
      </trkpt>
      <trkpt lat="43.129760" lon="-4.969360">
        <ele>1308.756</ele>
        <time>2020-05-22T17:22:52Z</time>
      </trkpt>
      <trkpt lat="43.129730" lon="-4.969270">
        <ele>1308.051</ele>
        <time>2020-05-22T17:23:12Z</time>
      </trkpt>
      <trkpt lat="43.129720" lon="-4.969260">
        <ele>1307.628</ele>
        <time>2020-05-22T17:23:32Z</time>
      </trkpt>
      <trkpt lat="43.129690" lon="-4.969150">
        <ele>1307.484</ele>
        <time>2020-05-22T17:23:52Z</time>
      </trkpt>
      <trkpt lat="43.129670" lon="-4.969040">
        <ele>1307.323</ele>
        <time>2020-05-22T17:24:12Z</time>
      </trkpt>
      <trkpt lat="43.129670" lon="-4.969030">
        <ele>1307.420</ele>
        <time>2020-05-22T17:24:32Z</time>
      </trkpt>
      <trkpt lat="43.129660" lon="-4.968900">
        <ele>1307.615</ele>
        <time>2020-05-22T17:24:52Z</time>
      </trkpt>
      <trkpt lat="43.129660" lon="-4.968640">
        <ele>1305.979</ele>
        <time>2020-05-22T17:25:12Z</time>
      </trkpt>
      <trkpt lat="43.129650" lon="-4.968470">
        <ele>1304.987</ele>
        <time>2020-05-22T17:25:32Z</time>
      </trkpt>
      <trkpt lat="43.129650" lon="-4.968360">
        <ele>1304.542</ele>
        <time>2020-05-22T17:25:52Z</time>
      </trkpt>
      <trkpt lat="43.129630" lon="-4.968290">
        <ele>1303.526</ele>
        <time>2020-05-22T17:26:12Z</time>
      </trkpt>
      <trkpt lat="43.129610" lon="-4.968240">
        <ele>1302.608</ele>
        <time>2020-05-22T17:26:32Z</time>
      </trkpt>
      <trkpt lat="43.129580" lon="-4.968180">
        <ele>1301.392</ele>
        <time>2020-05-22T17:26:52Z</time>
      </trkpt>
      <trkpt lat="43.129550" lon="-4.968150">
        <ele>1300.317</ele>
        <time>2020-05-22T17:27:12Z</time>
      </trkpt>
      <trkpt lat="43.129510" lon="-4.968140">
        <ele>1299.314</ele>
        <time>2020-05-22T17:27:32Z</time>
      </trkpt>
      <trkpt lat="43.129480" lon="-4.968130">
        <ele>1298.610</ele>
        <time>2020-05-22T17:27:52Z</time>
      </trkpt>
      <trkpt lat="43.129450" lon="-4.968140">
        <ele>1298.089</ele>
        <time>2020-05-22T17:28:12Z</time>
      </trkpt>
      <trkpt lat="43.129420" lon="-4.968160">
        <ele>1297.286</ele>
        <time>2020-05-22T17:28:32Z</time>
      </trkpt>
      <trkpt lat="43.129390" lon="-4.968200">
        <ele>1296.691</ele>
        <time>2020-05-22T17:28:52Z</time>
      </trkpt>
      <trkpt lat="43.129360" lon="-4.968250">
        <ele>1296.285</ele>
        <time>2020-05-22T17:29:12Z</time>
      </trkpt>
      <trkpt lat="43.129330" lon="-4.968300">
        <ele>1295.886</ele>
        <time>2020-05-22T17:29:32Z</time>
      </trkpt>
      <trkpt lat="43.129320" lon="-4.968390">
        <ele>1296.160</ele>
        <time>2020-05-22T17:29:52Z</time>
      </trkpt>
      <trkpt lat="43.129300" lon="-4.968470">
        <ele>1295.626</ele>
        <time>2020-05-22T17:30:12Z</time>
      </trkpt>
      <trkpt lat="43.129290" lon="-4.968540">
        <ele>1295.308</ele>
        <time>2020-05-22T17:30:32Z</time>
      </trkpt>
      <trkpt lat="43.129290" lon="-4.968600">
        <ele>1295.412</ele>
        <time>2020-05-22T17:30:52Z</time>
      </trkpt>
      <trkpt lat="43.129290" lon="-4.968610">
        <ele>1295.467</ele>
        <time>2020-05-22T17:31:12Z</time>
      </trkpt>
      <trkpt lat="43.129290" lon="-4.968730">
        <ele>1295.344</ele>
        <time>2020-05-22T17:31:32Z</time>
      </trkpt>
      <trkpt lat="43.129280" lon="-4.968930">
        <ele>1294.660</ele>
        <time>2020-05-22T17:31:52Z</time>
      </trkpt>
      <trkpt lat="43.129280" lon="-4.969060">
        <ele>1294.149</ele>
        <time>2020-05-22T17:32:12Z</time>
      </trkpt>
      <trkpt lat="43.129290" lon="-4.969140">
        <ele>1294.346</ele>
        <time>2020-05-22T17:32:32Z</time>
      </trkpt>
      <trkpt lat="43.129300" lon="-4.969210">
        <ele>1293.991</ele>
        <time>2020-05-22T17:32:52Z</time>
      </trkpt>
      <trkpt lat="43.129320" lon="-4.969300">
        <ele>1293.095</ele>
        <time>2020-05-22T17:33:12Z</time>
      </trkpt>
      <trkpt lat="43.129340" lon="-4.969370">
        <ele>1292.487</ele>
        <time>2020-05-22T17:33:32Z</time>
      </trkpt>
      <trkpt lat="43.129380" lon="-4.969450">
        <ele>1292.342</ele>
        <time>2020-05-22T17:33:52Z</time>
      </trkpt>
      <trkpt lat="43.129430" lon="-4.969540">
        <ele>1291.026</ele>
        <time>2020-05-22T17:34:12Z</time>
      </trkpt>
      <trkpt lat="43.129470" lon="-4.969610">
        <ele>1290.308</ele>
        <time>2020-05-22T17:34:32Z</time>
      </trkpt>
      <trkpt lat="43.129560" lon="-4.969770">
        <ele>1289.352</ele>
        <time>2020-05-22T17:34:52Z</time>
      </trkpt>
      <trkpt lat="43.129610" lon="-4.969880">
        <ele>1288.137</ele>
        <time>2020-05-22T17:35:12Z</time>
      </trkpt>
      <trkpt lat="43.129640" lon="-4.969930">
        <ele>1287.834</ele>
        <time>2020-05-22T17:35:32Z</time>
      </trkpt>
      <trkpt lat="43.129690" lon="-4.970050">
        <ele>1286.150</ele>
        <time>2020-05-22T17:35:52Z</time>
      </trkpt>
      <trkpt lat="43.129730" lon="-4.970130">
        <ele>1285.799</ele>
        <time>2020-05-22T17:36:12Z</time>
      </trkpt>
      <trkpt lat="43.129790" lon="-4.970270">
        <ele>1284.466</ele>
        <time>2020-05-22T17:36:32Z</time>
      </trkpt>
      <trkpt lat="43.129830" lon="-4.970390">
        <ele>1283.811</ele>
        <time>2020-05-22T17:36:52Z</time>
      </trkpt>
      <trkpt lat="43.129860" lon="-4.970470">
        <ele>1283.615</ele>
        <time>2020-05-22T17:37:12Z</time>
      </trkpt>
      <trkpt lat="43.129870" lon="-4.970530">
        <ele>1283.014</ele>
        <time>2020-05-22T17:37:32Z</time>
      </trkpt>
      <trkpt lat="43.129880" lon="-4.970580">
        <ele>1282.954</ele>
        <time>2020-05-22T17:37:52Z</time>
      </trkpt>
      <trkpt lat="43.129880" lon="-4.970590">
        <ele>1282.909</ele>
        <time>2020-05-22T17:38:12Z</time>
      </trkpt>
      <trkpt lat="43.129890" lon="-4.970660">
        <ele>1283.408</ele>
        <time>2020-05-22T17:38:32Z</time>
      </trkpt>
      <trkpt lat="43.129890" lon="-4.970760">
        <ele>1283.345</ele>
        <time>2020-05-22T17:38:52Z</time>
      </trkpt>
      <trkpt lat="43.129880" lon="-4.970870">
        <ele>1282.410</ele>
        <time>2020-05-22T17:39:12Z</time>
      </trkpt>
      <trkpt lat="43.129880" lon="-4.971040">
        <ele>1281.417</ele>
        <time>2020-05-22T17:39:32Z</time>
      </trkpt>
      <trkpt lat="43.129880" lon="-4.971120">
        <ele>1280.883</ele>
        <time>2020-05-22T17:39:52Z</time>
      </trkpt>
      <trkpt lat="43.129890" lon="-4.971190">
        <ele>1280.442</ele>
        <time>2020-05-22T17:40:12Z</time>
      </trkpt>
      <trkpt lat="43.129920" lon="-4.971270">
        <ele>1280.629</ele>
        <time>2020-05-22T17:40:32Z</time>
      </trkpt>
      <trkpt lat="43.129970" lon="-4.971410">
        <ele>1280.454</ele>
        <time>2020-05-22T17:40:52Z</time>
      </trkpt>
      <trkpt lat="43.130010" lon="-4.971520">
        <ele>1279.538</ele>
        <time>2020-05-22T17:41:12Z</time>
      </trkpt>
      <trkpt lat="43.130110" lon="-4.971720">
        <ele>1278.595</ele>
        <time>2020-05-22T17:41:32Z</time>
      </trkpt>
      <trkpt lat="43.130210" lon="-4.971910">
        <ele>1277.149</ele>
        <time>2020-05-22T17:41:52Z</time>
      </trkpt>
      <trkpt lat="43.130230" lon="-4.971930">
        <ele>1277.123</ele>
        <time>2020-05-22T17:42:12Z</time>
      </trkpt>
      <trkpt lat="43.130360" lon="-4.972200">
        <ele>1276.208</ele>
        <time>2020-05-22T17:42:32Z</time>
      </trkpt>
      <trkpt lat="43.130380" lon="-4.972230">
        <ele>1276.183</ele>
        <time>2020-05-22T17:42:52Z</time>
      </trkpt>
      <trkpt lat="43.130410" lon="-4.972290">
        <ele>1276.198</ele>
        <time>2020-05-22T17:43:12Z</time>
      </trkpt>
      <trkpt lat="43.130440" lon="-4.972390">
        <ele>1275.995</ele>
        <time>2020-05-22T17:43:32Z</time>
      </trkpt>
      <trkpt lat="43.130450" lon="-4.972470">
        <ele>1275.621</ele>
        <time>2020-05-22T17:43:52Z</time>
      </trkpt>
      <trkpt lat="43.130460" lon="-4.972570">
        <ele>1275.630</ele>
        <time>2020-05-22T17:44:12Z</time>
      </trkpt>
      <trkpt lat="43.130460" lon="-4.972650">
        <ele>1275.637</ele>
        <time>2020-05-22T17:44:32Z</time>
      </trkpt>
      <trkpt lat="43.130430" lon="-4.972760">
        <ele>1274.522</ele>
        <time>2020-05-22T17:44:52Z</time>
      </trkpt>
      <trkpt lat="43.130380" lon="-4.972940">
        <ele>1273.326</ele>
        <time>2020-05-22T17:45:12Z</time>
      </trkpt>
      <trkpt lat="43.130340" lon="-4.973070">
        <ele>1271.969</ele>
        <time>2020-05-22T17:45:32Z</time>
      </trkpt>
      <trkpt lat="43.130320" lon="-4.973170">
        <ele>1270.904</ele>
        <time>2020-05-22T17:45:52Z</time>
      </trkpt>
      <trkpt lat="43.130300" lon="-4.973290">
        <ele>1270.024</ele>
        <time>2020-05-22T17:46:12Z</time>
      </trkpt>
      <trkpt lat="43.130290" lon="-4.973390">
        <ele>1269.108</ele>
        <time>2020-05-22T17:46:32Z</time>
      </trkpt>
      <trkpt lat="43.130300" lon="-4.973530">
        <ele>1268.550</ele>
        <time>2020-05-22T17:46:52Z</time>
      </trkpt>
      <trkpt lat="43.130300" lon="-4.973640">
        <ele>1267.855</ele>
        <time>2020-05-22T17:47:12Z</time>
      </trkpt>
      <trkpt lat="43.130300" lon="-4.973850">
        <ele>1267.062</ele>
        <time>2020-05-22T17:47:32Z</time>
      </trkpt>
      <trkpt lat="43.130300" lon="-4.973960">
        <ele>1266.048</ele>
        <time>2020-05-22T17:47:52Z</time>
      </trkpt>
      <trkpt lat="43.130300" lon="-4.974020">
        <ele>1265.397</ele>
        <time>2020-05-22T17:48:12Z</time>
      </trkpt>
      <trkpt lat="43.130300" lon="-4.974140">
        <ele>1264.054</ele>
        <time>2020-05-22T17:48:32Z</time>
      </trkpt>
      <trkpt lat="43.130300" lon="-4.975070">
        <ele>1261.439</ele>
        <time>2020-05-22T17:48:52Z</time>
      </trkpt>
      <trkpt lat="43.130280" lon="-4.975240">
        <ele>1259.363</ele>
        <time>2020-05-22T17:49:12Z</time>
      </trkpt>
      <trkpt lat="43.130260" lon="-4.975330">
        <ele>1258.618</ele>
        <time>2020-05-22T17:49:32Z</time>
      </trkpt>
      <trkpt lat="43.130230" lon="-4.975430">
        <ele>1258.398</ele>
        <time>2020-05-22T17:49:52Z</time>
      </trkpt>
      <trkpt lat="43.130210" lon="-4.975470">
        <ele>1258.117</ele>
        <time>2020-05-22T17:50:12Z</time>
      </trkpt>
      <trkpt lat="43.130180" lon="-4.975500">
        <ele>1257.908</ele>
        <time>2020-05-22T17:50:32Z</time>
      </trkpt>
      <trkpt lat="43.130130" lon="-4.975560">
        <ele>1258.035</ele>
        <time>2020-05-22T17:50:52Z</time>
      </trkpt>
      <trkpt lat="43.130070" lon="-4.975610">
        <ele>1258.880</ele>
        <time>2020-05-22T17:51:12Z</time>
      </trkpt>
      <trkpt lat="43.129960" lon="-4.975640">
        <ele>1259.627</ele>
        <time>2020-05-22T17:51:32Z</time>
      </trkpt>
      <trkpt lat="43.129900" lon="-4.975650">
        <ele>1260.633</ele>
        <time>2020-05-22T17:51:52Z</time>
      </trkpt>
      <trkpt lat="43.129860" lon="-4.975650">
        <ele>1261.192</ele>
        <time>2020-05-22T17:52:12Z</time>
      </trkpt>
      <trkpt lat="43.129820" lon="-4.975640">
        <ele>1261.269</ele>
        <time>2020-05-22T17:52:32Z</time>
      </trkpt>
      <trkpt lat="43.129790" lon="-4.975620">
        <ele>1260.654</ele>
        <time>2020-05-22T17:52:52Z</time>
      </trkpt>
      <trkpt lat="43.129710" lon="-4.975570">
        <ele>1259.248</ele>
        <time>2020-05-22T17:53:12Z</time>
      </trkpt>
      <trkpt lat="43.129650" lon="-4.975520">
        <ele>1259.718</ele>
        <time>2020-05-22T17:53:32Z</time>
      </trkpt>
      <trkpt lat="43.129640" lon="-4.975500">
        <ele>1259.498</ele>
        <time>2020-05-22T17:53:52Z</time>
      </trkpt>
      <trkpt lat="43.129570" lon="-4.975420">
        <ele>1258.717</ele>
        <time>2020-05-22T17:54:12Z</time>
      </trkpt>
      <trkpt lat="43.129350" lon="-4.975150">
        <ele>1255.108</ele>
        <time>2020-05-22T17:54:32Z</time>
      </trkpt>
      <trkpt lat="43.129340" lon="-4.975140">
        <ele>1255.225</ele>
        <time>2020-05-22T17:54:52Z</time>
      </trkpt>
      <trkpt lat="43.129100" lon="-4.974830">
        <ele>1250.780</ele>
        <time>2020-05-22T17:55:12Z</time>
      </trkpt>
      <trkpt lat="43.129040" lon="-4.974750">
        <ele>1249.267</ele>
        <time>2020-05-22T17:55:32Z</time>
      </trkpt>
      <trkpt lat="43.129040" lon="-4.974740">
        <ele>1248.933</ele>
        <time>2020-05-22T17:55:52Z</time>
      </trkpt>
      <trkpt lat="43.128970" lon="-4.974680">
        <ele>1248.792</ele>
        <time>2020-05-22T17:56:12Z</time>
      </trkpt>
      <trkpt lat="43.128960" lon="-4.974670">
        <ele>1248.639</ele>
        <time>2020-05-22T17:56:32Z</time>
      </trkpt>
      <trkpt lat="43.128860" lon="-4.974570">
        <ele>1247.344</ele>
        <time>2020-05-22T17:56:52Z</time>
      </trkpt>
      <trkpt lat="43.128730" lon="-4.974460">
        <ele>1243.728</ele>
        <time>2020-05-22T17:57:12Z</time>
      </trkpt>
      <trkpt lat="43.128410" lon="-4.974230">
        <ele>1240.371</ele>
        <time>2020-05-22T17:57:32Z</time>
      </trkpt>
      <trkpt lat="43.128350" lon="-4.974180">
        <ele>1239.341</ele>
        <time>2020-05-22T17:57:52Z</time>
      </trkpt>
      <trkpt lat="43.128270" lon="-4.974120">
        <ele>1240.015</ele>
        <time>2020-05-22T17:58:12Z</time>
      </trkpt>
      <trkpt lat="43.128180" lon="-4.974040">
        <ele>1240.408</ele>
        <time>2020-05-22T17:58:32Z</time>
      </trkpt>
      <trkpt lat="43.127990" lon="-4.973860">
        <ele>1238.031</ele>
        <time>2020-05-22T17:58:52Z</time>
      </trkpt>
      <trkpt lat="43.127910" lon="-4.973820">
        <ele>1237.746</ele>
        <time>2020-05-22T17:59:12Z</time>
      </trkpt>
      <trkpt lat="43.127800" lon="-4.973760">
        <ele>1236.343</ele>
        <time>2020-05-22T17:59:32Z</time>
      </trkpt>
      <trkpt lat="43.127740" lon="-4.973720">
        <ele>1234.569</ele>
        <time>2020-05-22T17:59:52Z</time>
      </trkpt>
      <trkpt lat="43.127720" lon="-4.973710">
        <ele>1233.958</ele>
        <time>2020-05-22T18:00:12Z</time>
      </trkpt>
      <trkpt lat="43.127670" lon="-4.973680">
        <ele>1232.535</ele>
        <time>2020-05-22T18:00:32Z</time>
      </trkpt>
      <trkpt lat="43.127600" lon="-4.973640">
        <ele>1231.160</ele>
        <time>2020-05-22T18:00:52Z</time>
      </trkpt>
      <trkpt lat="43.127560" lon="-4.973610">
        <ele>1230.474</ele>
        <time>2020-05-22T18:01:12Z</time>
      </trkpt>
      <trkpt lat="43.127530" lon="-4.973600">
        <ele>1230.128</ele>
        <time>2020-05-22T18:01:32Z</time>
      </trkpt>
      <trkpt lat="43.127490" lon="-4.973540">
        <ele>1230.189</ele>
        <time>2020-05-22T18:01:52Z</time>
      </trkpt>
      <trkpt lat="43.127490" lon="-4.973530">
        <ele>1230.117</ele>
        <time>2020-05-22T18:02:12Z</time>
      </trkpt>
      <trkpt lat="43.127470" lon="-4.973490">
        <ele>1230.708</ele>
        <time>2020-05-22T18:02:32Z</time>
      </trkpt>
      <trkpt lat="43.127460" lon="-4.973420">
        <ele>1231.066</ele>
        <time>2020-05-22T18:02:52Z</time>
      </trkpt>
      <trkpt lat="43.127450" lon="-4.973360">
        <ele>1231.411</ele>
        <time>2020-05-22T18:03:12Z</time>
      </trkpt>
      <trkpt lat="43.127450" lon="-4.973300">
        <ele>1231.738</ele>
        <time>2020-05-22T18:03:32Z</time>
      </trkpt>
      <trkpt lat="43.127470" lon="-4.973210">
        <ele>1231.774</ele>
        <time>2020-05-22T18:03:52Z</time>
      </trkpt>
      <trkpt lat="43.127510" lon="-4.973090">
        <ele>1231.363</ele>
        <time>2020-05-22T18:04:12Z</time>
      </trkpt>
      <trkpt lat="43.127640" lon="-4.972790">
        <ele>1230.840</ele>
        <time>2020-05-22T18:04:32Z</time>
      </trkpt>
      <trkpt lat="43.127660" lon="-4.972760">
        <ele>1230.535</ele>
        <time>2020-05-22T18:04:52Z</time>
      </trkpt>
      <trkpt lat="43.127770" lon="-4.972530">
        <ele>1228.179</ele>
        <time>2020-05-22T18:05:12Z</time>
      </trkpt>
      <trkpt lat="43.127810" lon="-4.972440">
        <ele>1227.348</ele>
        <time>2020-05-22T18:05:32Z</time>
      </trkpt>
      <trkpt lat="43.127850" lon="-4.972370">
        <ele>1226.761</ele>
        <time>2020-05-22T18:05:52Z</time>
      </trkpt>
      <trkpt lat="43.127920" lon="-4.972220">
        <ele>1226.417</ele>
        <time>2020-05-22T18:06:12Z</time>
      </trkpt>
      <trkpt lat="43.127950" lon="-4.972130">
        <ele>1225.508</ele>
        <time>2020-05-22T18:06:32Z</time>
      </trkpt>
      <trkpt lat="43.127960" lon="-4.972110">
        <ele>1225.248</ele>
        <time>2020-05-22T18:06:52Z</time>
      </trkpt>
      <trkpt lat="43.127970" lon="-4.972050">
        <ele>1224.763</ele>
        <time>2020-05-22T18:07:12Z</time>
      </trkpt>
      <trkpt lat="43.127970" lon="-4.972010">
        <ele>1224.630</ele>
        <time>2020-05-22T18:07:32Z</time>
      </trkpt>
      <trkpt lat="43.127980" lon="-4.971960">
        <ele>1224.016</ele>
        <time>2020-05-22T18:07:52Z</time>
      </trkpt>
      <trkpt lat="43.127960" lon="-4.971870">
        <ele>1223.465</ele>
        <time>2020-05-22T18:08:12Z</time>
      </trkpt>
      <trkpt lat="43.127920" lon="-4.971770">
        <ele>1222.992</ele>
        <time>2020-05-22T18:08:32Z</time>
      </trkpt>
      <trkpt lat="43.127840" lon="-4.971610">
        <ele>1221.977</ele>
        <time>2020-05-22T18:08:52Z</time>
      </trkpt>
      <trkpt lat="43.127760" lon="-4.971500">
        <ele>1221.731</ele>
        <time>2020-05-22T18:09:12Z</time>
      </trkpt>
      <trkpt lat="43.127760" lon="-4.971490">
        <ele>1221.443</ele>
        <time>2020-05-22T18:09:32Z</time>
      </trkpt>
      <trkpt lat="43.127690" lon="-4.971400">
        <ele>1220.564</ele>
        <time>2020-05-22T18:09:52Z</time>
      </trkpt>
      <trkpt lat="43.127680" lon="-4.971390">
        <ele>1220.510</ele>
        <time>2020-05-22T18:10:12Z</time>
      </trkpt>
      <trkpt lat="43.127620" lon="-4.971280">
        <ele>1219.308</ele>
        <time>2020-05-22T18:10:32Z</time>
      </trkpt>
      <trkpt lat="43.127570" lon="-4.971190">
        <ele>1218.658</ele>
        <time>2020-05-22T18:10:52Z</time>
      </trkpt>
      <trkpt lat="43.127480" lon="-4.971010">
        <ele>1217.943</ele>
        <time>2020-05-22T18:11:12Z</time>
      </trkpt>
      <trkpt lat="43.127440" lon="-4.970940">
        <ele>1218.060</ele>
        <time>2020-05-22T18:11:32Z</time>
      </trkpt>
      <trkpt lat="43.127350" lon="-4.970730">
        <ele>1216.616</ele>
        <time>2020-05-22T18:11:52Z</time>
      </trkpt>
      <trkpt lat="43.127220" lon="-4.970410">
        <ele>1214.545</ele>
        <time>2020-05-22T18:12:12Z</time>
      </trkpt>
      <trkpt lat="43.127130" lon="-4.970200">
        <ele>1213.642</ele>
        <time>2020-05-22T18:12:32Z</time>
      </trkpt>
      <trkpt lat="43.127060" lon="-4.970030">
        <ele>1211.867</ele>
        <time>2020-05-22T18:12:52Z</time>
      </trkpt>
      <trkpt lat="43.126950" lon="-4.969830">
        <ele>1210.281</ele>
        <time>2020-05-22T18:13:12Z</time>
      </trkpt>
      <trkpt lat="43.126900" lon="-4.969760">
        <ele>1210.716</ele>
        <time>2020-05-22T18:13:32Z</time>
      </trkpt>
      <trkpt lat="43.126840" lon="-4.969680">
        <ele>1210.876</ele>
        <time>2020-05-22T18:13:52Z</time>
      </trkpt>
      <trkpt lat="43.126770" lon="-4.969570">
        <ele>1209.813</ele>
        <time>2020-05-22T18:14:12Z</time>
      </trkpt>
      <trkpt lat="43.126600" lon="-4.969290">
        <ele>1206.908</ele>
        <time>2020-05-22T18:14:32Z</time>
      </trkpt>
      <trkpt lat="43.126500" lon="-4.969110">
        <ele>1204.995</ele>
        <time>2020-05-22T18:14:52Z</time>
      </trkpt>
      <trkpt lat="43.126470" lon="-4.969010">
        <ele>1204.320</ele>
        <time>2020-05-22T18:15:12Z</time>
      </trkpt>
      <trkpt lat="43.126460" lon="-4.968890">
        <ele>1202.777</ele>
        <time>2020-05-22T18:15:32Z</time>
      </trkpt>
      <trkpt lat="43.126450" lon="-4.968790">
        <ele>1202.943</ele>
        <time>2020-05-22T18:15:52Z</time>
      </trkpt>
      <trkpt lat="43.126450" lon="-4.968680">
        <ele>1202.652</ele>
        <time>2020-05-22T18:16:12Z</time>
      </trkpt>
      <trkpt lat="43.126460" lon="-4.968540">
        <ele>1201.319</ele>
        <time>2020-05-22T18:16:32Z</time>
      </trkpt>
      <trkpt lat="43.126470" lon="-4.968410">
        <ele>1199.584</ele>
        <time>2020-05-22T18:16:52Z</time>
      </trkpt>
      <trkpt lat="43.126470" lon="-4.968270">
        <ele>1198.258</ele>
        <time>2020-05-22T18:17:12Z</time>
      </trkpt>
      <trkpt lat="43.126470" lon="-4.968190">
        <ele>1197.538</ele>
        <time>2020-05-22T18:17:32Z</time>
      </trkpt>
      <trkpt lat="43.126470" lon="-4.968080">
        <ele>1196.570</ele>
        <time>2020-05-22T18:17:52Z</time>
      </trkpt>
      <trkpt lat="43.126460" lon="-4.968000">
        <ele>1195.817</ele>
        <time>2020-05-22T18:18:12Z</time>
      </trkpt>
      <trkpt lat="43.126430" lon="-4.967930">
        <ele>1195.708</ele>
        <time>2020-05-22T18:18:32Z</time>
      </trkpt>
      <trkpt lat="43.126410" lon="-4.967880">
        <ele>1195.247</ele>
        <time>2020-05-22T18:18:52Z</time>
      </trkpt>
      <trkpt lat="43.126370" lon="-4.967830">
        <ele>1194.522</ele>
        <time>2020-05-22T18:19:12Z</time>
      </trkpt>
      <trkpt lat="43.126320" lon="-4.967810">
        <ele>1193.939</ele>
        <time>2020-05-22T18:19:32Z</time>
      </trkpt>
      <trkpt lat="43.126280" lon="-4.967790">
        <ele>1193.195</ele>
        <time>2020-05-22T18:19:52Z</time>
      </trkpt>
      <trkpt lat="43.126240" lon="-4.967780">
        <ele>1192.694</ele>
        <time>2020-05-22T18:20:12Z</time>
      </trkpt>
      <trkpt lat="43.126180" lon="-4.967780">
        <ele>1192.481</ele>
        <time>2020-05-22T18:20:32Z</time>
      </trkpt>
      <trkpt lat="43.126170" lon="-4.967780">
        <ele>1192.366</ele>
        <time>2020-05-22T18:20:52Z</time>
      </trkpt>
      <trkpt lat="43.126100" lon="-4.967810">
        <ele>1193.420</ele>
        <time>2020-05-22T18:21:12Z</time>
      </trkpt>
      <trkpt lat="43.126030" lon="-4.967850">
        <ele>1193.691</ele>
        <time>2020-05-22T18:21:32Z</time>
      </trkpt>
      <trkpt lat="43.125930" lon="-4.967920">
        <ele>1194.181</ele>
        <time>2020-05-22T18:21:52Z</time>
      </trkpt>
      <trkpt lat="43.125890" lon="-4.967950">
        <ele>1194.219</ele>
        <time>2020-05-22T18:22:12Z</time>
      </trkpt>
      <trkpt lat="43.125840" lon="-4.967970">
        <ele>1193.508</ele>
        <time>2020-05-22T18:22:32Z</time>
      </trkpt>
      <trkpt lat="43.125790" lon="-4.968000">
        <ele>1193.933</ele>
        <time>2020-05-22T18:22:52Z</time>
      </trkpt>
      <trkpt lat="43.125710" lon="-4.968030">
        <ele>1193.838</ele>
        <time>2020-05-22T18:23:12Z</time>
      </trkpt>
      <trkpt lat="43.125590" lon="-4.968060">
        <ele>1192.945</ele>
        <time>2020-05-22T18:23:32Z</time>
      </trkpt>
      <trkpt lat="43.125560" lon="-4.968070">
        <ele>1193.051</ele>
        <time>2020-05-22T18:23:52Z</time>
      </trkpt>
      <trkpt lat="43.125540" lon="-4.968070">
        <ele>1192.750</ele>
        <time>2020-05-22T18:24:12Z</time>
      </trkpt>
      <trkpt lat="43.125380" lon="-4.968110">
        <ele>1193.437</ele>
        <time>2020-05-22T18:24:32Z</time>
      </trkpt>
      <trkpt lat="43.125210" lon="-4.968140">
        <ele>1194.132</ele>
        <time>2020-05-22T18:24:52Z</time>
      </trkpt>
      <trkpt lat="43.125090" lon="-4.968150">
        <ele>1194.556</ele>
        <time>2020-05-22T18:25:12Z</time>
      </trkpt>
      <trkpt lat="43.125020" lon="-4.968140">
        <ele>1193.992</ele>
        <time>2020-05-22T18:25:32Z</time>
      </trkpt>
      <trkpt lat="43.124980" lon="-4.968120">
        <ele>1193.173</ele>
        <time>2020-05-22T18:25:52Z</time>
      </trkpt>
      <trkpt lat="43.124940" lon="-4.968090">
        <ele>1192.320</ele>
        <time>2020-05-22T18:26:12Z</time>
      </trkpt>
      <trkpt lat="43.124910" lon="-4.968020">
        <ele>1190.608</ele>
        <time>2020-05-22T18:26:32Z</time>
      </trkpt>
      <trkpt lat="43.124900" lon="-4.968000">
        <ele>1190.423</ele>
        <time>2020-05-22T18:26:52Z</time>
      </trkpt>
      <trkpt lat="43.124880" lon="-4.967950">
        <ele>1189.898</ele>
        <time>2020-05-22T18:27:12Z</time>
      </trkpt>
      <trkpt lat="43.124870" lon="-4.967870">
        <ele>1188.435</ele>
        <time>2020-05-22T18:27:32Z</time>
      </trkpt>
      <trkpt lat="43.124870" lon="-4.967810">
        <ele>1187.191</ele>
        <time>2020-05-22T18:27:52Z</time>
      </trkpt>
      <trkpt lat="43.124870" lon="-4.967780">
        <ele>1186.590</ele>
        <time>2020-05-22T18:28:12Z</time>
      </trkpt>
      <trkpt lat="43.124890" lon="-4.967700">
        <ele>1187.137</ele>
        <time>2020-05-22T18:28:32Z</time>
      </trkpt>
      <trkpt lat="43.124930" lon="-4.967580">
        <ele>1188.612</ele>
        <time>2020-05-22T18:28:52Z</time>
      </trkpt>
      <trkpt lat="43.124980" lon="-4.967450">
        <ele>1190.716</ele>
        <time>2020-05-22T18:29:12Z</time>
      </trkpt>
      <trkpt lat="43.125100" lon="-4.967250">
        <ele>1193.668</ele>
        <time>2020-05-22T18:29:32Z</time>
      </trkpt>
      <trkpt lat="43.125150" lon="-4.967160">
        <ele>1194.142</ele>
        <time>2020-05-22T18:29:52Z</time>
      </trkpt>
      <trkpt lat="43.125220" lon="-4.967050">
        <ele>1193.426</ele>
        <time>2020-05-22T18:30:12Z</time>
      </trkpt>
      <trkpt lat="43.125260" lon="-4.967000">
        <ele>1192.708</ele>
        <time>2020-05-22T18:30:32Z</time>
      </trkpt>
      <trkpt lat="43.125270" lon="-4.966990">
        <ele>1192.480</ele>
        <time>2020-05-22T18:30:52Z</time>
      </trkpt>
      <trkpt lat="43.125280" lon="-4.966980">
        <ele>1192.255</ele>
        <time>2020-05-22T18:31:12Z</time>
      </trkpt>
      <trkpt lat="43.125320" lon="-4.966930">
        <ele>1191.922</ele>
        <time>2020-05-22T18:31:32Z</time>
      </trkpt>
      <trkpt lat="43.125330" lon="-4.966920">
        <ele>1192.078</ele>
        <time>2020-05-22T18:31:52Z</time>
      </trkpt>
      <trkpt lat="43.125430" lon="-4.966820">
        <ele>1192.267</ele>
        <time>2020-05-22T18:32:12Z</time>
      </trkpt>
      <trkpt lat="43.125600" lon="-4.966670">
        <ele>1190.324</ele>
        <time>2020-05-22T18:32:32Z</time>
      </trkpt>
      <trkpt lat="43.125710" lon="-4.966580">
        <ele>1190.299</ele>
        <time>2020-05-22T18:32:52Z</time>
      </trkpt>
      <trkpt lat="43.125740" lon="-4.966550">
        <ele>1190.243</ele>
        <time>2020-05-22T18:33:12Z</time>
      </trkpt>
      <trkpt lat="43.125880" lon="-4.966460">
        <ele>1189.333</ele>
        <time>2020-05-22T18:33:32Z</time>
      </trkpt>
      <trkpt lat="43.125880" lon="-4.966450">
        <ele>1189.423</ele>
        <time>2020-05-22T18:33:52Z</time>
      </trkpt>
      <trkpt lat="43.126070" lon="-4.966350">
        <ele>1188.215</ele>
        <time>2020-05-22T18:34:12Z</time>
      </trkpt>
      <trkpt lat="43.126230" lon="-4.966260">
        <ele>1188.408</ele>
        <time>2020-05-22T18:34:32Z</time>
      </trkpt>
      <trkpt lat="43.126360" lon="-4.966180">
        <ele>1187.587</ele>
        <time>2020-05-22T18:34:52Z</time>
      </trkpt>
      <trkpt lat="43.126430" lon="-4.966130">
        <ele>1186.812</ele>
        <time>2020-05-22T18:35:12Z</time>
      </trkpt>
      <trkpt lat="43.126540" lon="-4.966050">
        <ele>1186.799</ele>
        <time>2020-05-22T18:35:32Z</time>
      </trkpt>
      <trkpt lat="43.126630" lon="-4.965980">
        <ele>1186.375</ele>
        <time>2020-05-22T18:35:52Z</time>
      </trkpt>
      <trkpt lat="43.126670" lon="-4.965940">
        <ele>1186.234</ele>
        <time>2020-05-22T18:36:12Z</time>
      </trkpt>
      <trkpt lat="43.126760" lon="-4.965860">
        <ele>1185.191</ele>
        <time>2020-05-22T18:36:32Z</time>
      </trkpt>
      <trkpt lat="43.126810" lon="-4.965810">
        <ele>1184.556</ele>
        <time>2020-05-22T18:36:52Z</time>
      </trkpt>
      <trkpt lat="43.126860" lon="-4.965740">
        <ele>1184.490</ele>
        <time>2020-05-22T18:37:12Z</time>
      </trkpt>
      <trkpt lat="43.126990" lon="-4.965540">
        <ele>1183.996</ele>
        <time>2020-05-22T18:37:32Z</time>
      </trkpt>
      <trkpt lat="43.127120" lon="-4.965350">
        <ele>1183.831</ele>
        <time>2020-05-22T18:37:52Z</time>
      </trkpt>
      <trkpt lat="43.127260" lon="-4.965120">
        <ele>1183.224</ele>
        <time>2020-05-22T18:38:12Z</time>
      </trkpt>
      <trkpt lat="43.127300" lon="-4.965060">
        <ele>1183.008</ele>
        <time>2020-05-22T18:38:32Z</time>
      </trkpt>
      <trkpt lat="43.127320" lon="-4.965040">
        <ele>1182.743</ele>
        <time>2020-05-22T18:38:52Z</time>
      </trkpt>
      <trkpt lat="43.127420" lon="-4.964900">
        <ele>1181.818</ele>
        <time>2020-05-22T18:39:12Z</time>
      </trkpt>
      <trkpt lat="43.127570" lon="-4.964600">
        <ele>1181.125</ele>
        <time>2020-05-22T18:39:32Z</time>
      </trkpt>
      <trkpt lat="43.127620" lon="-4.964420">
        <ele>1181.371</ele>
        <time>2020-05-22T18:39:52Z</time>
      </trkpt>
      <trkpt lat="43.127670" lon="-4.964270">
        <ele>1180.630</ele>
        <time>2020-05-22T18:40:12Z</time>
      </trkpt>
      <trkpt lat="43.127690" lon="-4.964090">
        <ele>1180.617</ele>
        <time>2020-05-22T18:40:32Z</time>
      </trkpt>
      <trkpt lat="43.127700" lon="-4.963960">
        <ele>1180.342</ele>
        <time>2020-05-22T18:40:52Z</time>
      </trkpt>
      <trkpt lat="43.127710" lon="-4.963810">
        <ele>1180.196</ele>
        <time>2020-05-22T18:41:12Z</time>
      </trkpt>
      <trkpt lat="43.127710" lon="-4.963740">
        <ele>1180.313</ele>
        <time>2020-05-22T18:41:32Z</time>
      </trkpt>
      <trkpt lat="43.127710" lon="-4.963650">
        <ele>1180.643</ele>
        <time>2020-05-22T18:41:52Z</time>
      </trkpt>
      <trkpt lat="43.127720" lon="-4.963550">
        <ele>1180.507</ele>
        <time>2020-05-22T18:42:12Z</time>
      </trkpt>
      <trkpt lat="43.127730" lon="-4.963430">
        <ele>1180.408</ele>
        <time>2020-05-22T18:42:32Z</time>
      </trkpt>
      <trkpt lat="43.127730" lon="-4.963370">
        <ele>1180.685</ele>
        <time>2020-05-22T18:42:52Z</time>
      </trkpt>
      <trkpt lat="43.127750" lon="-4.963280">
        <ele>1180.450</ele>
        <time>2020-05-22T18:43:12Z</time>
      </trkpt>
      <trkpt lat="43.127770" lon="-4.963190">
        <ele>1180.387</ele>
        <time>2020-05-22T18:43:32Z</time>
      </trkpt>
      <trkpt lat="43.127810" lon="-4.963090">
        <ele>1180.063</ele>
        <time>2020-05-22T18:43:52Z</time>
      </trkpt>
      <trkpt lat="43.127840" lon="-4.963040">
        <ele>1179.832</ele>
        <time>2020-05-22T18:44:12Z</time>
      </trkpt>
      <trkpt lat="43.127880" lon="-4.962960">
        <ele>1180.079</ele>
        <time>2020-05-22T18:44:32Z</time>
      </trkpt>
      <trkpt lat="43.127940" lon="-4.962880">
        <ele>1179.864</ele>
        <time>2020-05-22T18:44:52Z</time>
      </trkpt>
      <trkpt lat="43.128030" lon="-4.962760">
        <ele>1179.878</ele>
        <time>2020-05-22T18:45:12Z</time>
      </trkpt>
      <trkpt lat="43.128160" lon="-4.962640">
        <ele>1179.967</ele>
        <time>2020-05-22T18:45:32Z</time>
      </trkpt>
      <trkpt lat="43.128260" lon="-4.962550">
        <ele>1179.681</ele>
        <time>2020-05-22T18:45:52Z</time>
      </trkpt>
      <trkpt lat="43.128370" lon="-4.962450">
        <ele>1179.319</ele>
        <time>2020-05-22T18:46:12Z</time>
      </trkpt>
      <trkpt lat="43.128430" lon="-4.962400">
        <ele>1179.308</ele>
        <time>2020-05-22T18:46:32Z</time>
      </trkpt>
      <trkpt lat="43.128480" lon="-4.962370">
        <ele>1179.090</ele>
        <time>2020-05-22T18:46:52Z</time>
      </trkpt>
      <trkpt lat="43.128570" lon="-4.962350">
        <ele>1177.825</ele>
        <time>2020-05-22T18:47:12Z</time>
      </trkpt>
      <trkpt lat="43.128700" lon="-4.962340">
        <ele>1177.962</ele>
        <time>2020-05-22T18:47:32Z</time>
      </trkpt>
      <trkpt lat="43.128720" lon="-4.962340">
        <ele>1178.168</ele>
        <time>2020-05-22T18:47:52Z</time>
      </trkpt>
      <trkpt lat="43.128960" lon="-4.962340">
        <ele>1179.877</ele>
        <time>2020-05-22T18:48:12Z</time>
      </trkpt>
      <trkpt lat="43.129240" lon="-4.962350">
        <ele>1181.294</ele>
        <time>2020-05-22T18:48:32Z</time>
      </trkpt>
      <trkpt lat="43.129310" lon="-4.962340">
        <ele>1181.399</ele>
        <time>2020-05-22T18:48:52Z</time>
      </trkpt>
      <trkpt lat="43.129460" lon="-4.962330">
        <ele>1181.493</ele>
        <time>2020-05-22T18:49:12Z</time>
      </trkpt>
      <trkpt lat="43.129690" lon="-4.962290">
        <ele>1180.559</ele>
        <time>2020-05-22T18:49:32Z</time>
      </trkpt>
      <trkpt lat="43.129840" lon="-4.962250">
        <ele>1179.803</ele>
        <time>2020-05-22T18:49:52Z</time>
      </trkpt>
      <trkpt lat="43.129940" lon="-4.962220">
        <ele>1179.523</ele>
        <time>2020-05-22T18:50:12Z</time>
      </trkpt>
      <trkpt lat="43.130200" lon="-4.962110">
        <ele>1177.308</ele>
        <time>2020-05-22T18:50:32Z</time>
      </trkpt>
      <trkpt lat="43.130230" lon="-4.962090">
        <ele>1177.189</ele>
        <time>2020-05-22T18:50:52Z</time>
      </trkpt>
      <trkpt lat="43.130270" lon="-4.962080">
        <ele>1176.614</ele>
        <time>2020-05-22T18:51:12Z</time>
      </trkpt>
      <trkpt lat="43.130420" lon="-4.962000">
        <ele>1175.871</ele>
        <time>2020-05-22T18:51:32Z</time>
      </trkpt>
      <trkpt lat="43.130600" lon="-4.961910">
        <ele>1174.867</ele>
        <time>2020-05-22T18:51:52Z</time>
      </trkpt>
      <trkpt lat="43.130890" lon="-4.961710">
        <ele>1171.796</ele>
        <time>2020-05-22T18:52:12Z</time>
      </trkpt>
      <trkpt lat="43.131160" lon="-4.961520">
        <ele>1169.073</ele>
        <time>2020-05-22T18:52:32Z</time>
      </trkpt>
      <trkpt lat="43.131330" lon="-4.961390">
        <ele>1168.498</ele>
        <time>2020-05-22T18:52:52Z</time>
      </trkpt>
      <trkpt lat="43.131530" lon="-4.961270">
        <ele>1167.392</ele>
        <time>2020-05-22T18:53:12Z</time>
      </trkpt>
      <trkpt lat="43.131570" lon="-4.961250">
        <ele>1167.138</ele>
        <time>2020-05-22T18:53:32Z</time>
      </trkpt>
      <trkpt lat="43.131700" lon="-4.961190">
        <ele>1166.070</ele>
        <time>2020-05-22T18:53:52Z</time>
      </trkpt>
      <trkpt lat="43.131910" lon="-4.961060">
        <ele>1164.217</ele>
        <time>2020-05-22T18:54:12Z</time>
      </trkpt>
      <trkpt lat="43.132090" lon="-4.960940">
        <ele>1161.808</ele>
        <time>2020-05-22T18:54:32Z</time>
      </trkpt>
      <trkpt lat="43.132300" lon="-4.960810">
        <ele>1159.857</ele>
        <time>2020-05-22T18:54:52Z</time>
      </trkpt>
      <trkpt lat="43.132500" lon="-4.960680">
        <ele>1157.822</ele>
        <time>2020-05-22T18:55:12Z</time>
      </trkpt>
      <trkpt lat="43.132570" lon="-4.960630">
        <ele>1156.919</ele>
        <time>2020-05-22T18:55:32Z</time>
      </trkpt>
      <trkpt lat="43.132740" lon="-4.960510">
        <ele>1155.845</ele>
        <time>2020-05-22T18:55:52Z</time>
      </trkpt>
      <trkpt lat="43.132960" lon="-4.960320">
        <ele>1153.654</ele>
        <time>2020-05-22T18:56:12Z</time>
      </trkpt>
      <trkpt lat="43.133250" lon="-4.960080">
        <ele>1149.841</ele>
        <time>2020-05-22T18:56:32Z</time>
      </trkpt>
      <trkpt lat="43.133330" lon="-4.960020">
        <ele>1149.526</ele>
        <time>2020-05-22T18:56:52Z</time>
      </trkpt>
      <trkpt lat="43.133620" lon="-4.959790">
        <ele>1148.080</ele>
        <time>2020-05-22T18:57:12Z</time>
      </trkpt>
      <trkpt lat="43.133860" lon="-4.959600">
        <ele>1146.854</ele>
        <time>2020-05-22T18:57:32Z</time>
      </trkpt>
      <trkpt lat="43.134110" lon="-4.959380">
        <ele>1144.956</ele>
        <time>2020-05-22T18:57:52Z</time>
      </trkpt>
      <trkpt lat="43.134260" lon="-4.959270">
        <ele>1143.111</ele>
        <time>2020-05-22T18:58:12Z</time>
      </trkpt>
      <trkpt lat="43.134300" lon="-4.959230">
        <ele>1143.108</ele>
        <time>2020-05-22T18:58:32Z</time>
      </trkpt>
      <trkpt lat="43.134440" lon="-4.959130">
        <ele>1142.369</ele>
        <time>2020-05-22T18:58:52Z</time>
      </trkpt>
      <trkpt lat="43.134570" lon="-4.959050">
        <ele>1141.154</ele>
        <time>2020-05-22T18:59:12Z</time>
      </trkpt>
      <trkpt lat="43.134680" lon="-4.958990">
        <ele>1140.271</ele>
        <time>2020-05-22T18:59:32Z</time>
      </trkpt>
      <trkpt lat="43.134740" lon="-4.958950">
        <ele>1140.077</ele>
        <time>2020-05-22T18:59:52Z</time>
      </trkpt>
      <trkpt lat="43.134910" lon="-4.958830">
        <ele>1138.316</ele>
        <time>2020-05-22T19:00:12Z</time>
      </trkpt>
      <trkpt lat="43.134960" lon="-4.958790">
        <ele>1137.593</ele>
        <time>2020-05-22T19:00:32Z</time>
      </trkpt>
      <trkpt lat="43.135000" lon="-4.958760">
        <ele>1136.888</ele>
        <time>2020-05-22T19:00:52Z</time>
      </trkpt>
      <trkpt lat="43.135020" lon="-4.958730">
        <ele>1136.742</ele>
        <time>2020-05-22T19:01:12Z</time>
      </trkpt>
      <trkpt lat="43.135070" lon="-4.958670">
        <ele>1136.458</ele>
        <time>2020-05-22T19:01:32Z</time>
      </trkpt>
      <trkpt lat="43.135150" lon="-4.958540">
        <ele>1135.852</ele>
        <time>2020-05-22T19:01:52Z</time>
      </trkpt>
      <trkpt lat="43.135260" lon="-4.958370">
        <ele>1133.417</ele>
        <time>2020-05-22T19:02:12Z</time>
      </trkpt>
      <trkpt lat="43.135280" lon="-4.958340">
        <ele>1132.808</ele>
        <time>2020-05-22T19:02:32Z</time>
      </trkpt>
      <trkpt lat="43.135280" lon="-4.958320">
        <ele>1133.299</ele>
        <time>2020-05-22T19:02:52Z</time>
      </trkpt>
      <trkpt lat="43.135360" lon="-4.958200">
        <ele>1132.154</ele>
        <time>2020-05-22T19:03:12Z</time>
      </trkpt>
      <trkpt lat="43.135400" lon="-4.958140">
        <ele>1132.351</ele>
        <time>2020-05-22T19:03:32Z</time>
      </trkpt>
      <trkpt lat="43.135440" lon="-4.958090">
        <ele>1132.547</ele>
        <time>2020-05-22T19:03:52Z</time>
      </trkpt>
      <trkpt lat="43.135540" lon="-4.957980">
        <ele>1132.256</ele>
        <time>2020-05-22T19:04:12Z</time>
      </trkpt>
      <trkpt lat="43.135650" lon="-4.957860">
        <ele>1130.113</ele>
        <time>2020-05-22T19:04:32Z</time>
      </trkpt>
      <trkpt lat="43.135680" lon="-4.957820">
        <ele>1129.718</ele>
        <time>2020-05-22T19:04:52Z</time>
      </trkpt>
      <trkpt lat="43.135750" lon="-4.957730">
        <ele>1129.022</ele>
        <time>2020-05-22T19:05:12Z</time>
      </trkpt>
      <trkpt lat="43.135870" lon="-4.957590">
        <ele>1127.374</ele>
        <time>2020-05-22T19:05:32Z</time>
      </trkpt>
      <trkpt lat="43.136000" lon="-4.957420">
        <ele>1126.156</ele>
        <time>2020-05-22T19:05:52Z</time>
      </trkpt>
      <trkpt lat="43.136120" lon="-4.957290">
        <ele>1125.121</ele>
        <time>2020-05-22T19:06:12Z</time>
      </trkpt>
      <trkpt lat="43.136220" lon="-4.957170">
        <ele>1123.708</ele>
        <time>2020-05-22T19:06:32Z</time>
      </trkpt>
      <trkpt lat="43.136230" lon="-4.957150">
        <ele>1123.851</ele>
        <time>2020-05-22T19:06:52Z</time>
      </trkpt>
      <trkpt lat="43.136330" lon="-4.957030">
        <ele>1122.686</ele>
        <time>2020-05-22T19:07:12Z</time>
      </trkpt>
      <trkpt lat="43.136400" lon="-4.956930">
        <ele>1122.833</ele>
        <time>2020-05-22T19:07:32Z</time>
      </trkpt>
      <trkpt lat="43.136470" lon="-4.956830">
        <ele>1121.339</ele>
        <time>2020-05-22T19:07:52Z</time>
      </trkpt>
      <trkpt lat="43.136470" lon="-4.956820">
        <ele>1121.488</ele>
        <time>2020-05-22T19:08:12Z</time>
      </trkpt>
      <trkpt lat="43.136570" lon="-4.956620">
        <ele>1120.085</ele>
        <time>2020-05-22T19:08:32Z</time>
      </trkpt>
      <trkpt lat="43.136650" lon="-4.956470">
        <ele>1118.880</ele>
        <time>2020-05-22T19:08:52Z</time>
      </trkpt>
      <trkpt lat="43.136670" lon="-4.956410">
        <ele>1118.664</ele>
        <time>2020-05-22T19:09:12Z</time>
      </trkpt>
      <trkpt lat="43.136730" lon="-4.956290">
        <ele>1117.391</ele>
        <time>2020-05-22T19:09:32Z</time>
      </trkpt>
      <trkpt lat="43.136770" lon="-4.956200">
        <ele>1116.781</ele>
        <time>2020-05-22T19:09:52Z</time>
      </trkpt>
      <trkpt lat="43.136910" lon="-4.955890">
        <ele>1114.919</ele>
        <time>2020-05-22T19:10:12Z</time>
      </trkpt>
      <trkpt lat="43.137020" lon="-4.955650">
        <ele>1111.108</ele>
        <time>2020-05-22T19:10:32Z</time>
      </trkpt>
      <trkpt lat="43.137040" lon="-4.955600">
        <ele>1110.863</ele>
        <time>2020-05-22T19:10:52Z</time>
      </trkpt>
      <trkpt lat="43.137100" lon="-4.955470">
        <ele>1109.768</ele>
        <time>2020-05-22T19:11:12Z</time>
      </trkpt>
      <trkpt lat="43.137170" lon="-4.955280">
        <ele>1109.745</ele>
        <time>2020-05-22T19:11:32Z</time>
      </trkpt>
      <trkpt lat="43.137210" lon="-4.955130">
        <ele>1108.431</ele>
        <time>2020-05-22T19:11:52Z</time>
      </trkpt>
      <trkpt lat="43.137260" lon="-4.954970">
        <ele>1106.920</ele>
        <time>2020-05-22T19:12:12Z</time>
      </trkpt>
      <trkpt lat="43.137300" lon="-4.954760">
        <ele>1106.187</ele>
        <time>2020-05-22T19:12:32Z</time>
      </trkpt>
      <trkpt lat="43.137340" lon="-4.954570">
        <ele>1104.652</ele>
        <time>2020-05-22T19:12:52Z</time>
      </trkpt>
      <trkpt lat="43.137360" lon="-4.954410">
        <ele>1103.776</ele>
        <time>2020-05-22T19:13:12Z</time>
      </trkpt>
      <trkpt lat="43.137360" lon="-4.954260">
        <ele>1102.053</ele>
        <time>2020-05-22T19:13:32Z</time>
      </trkpt>
      <trkpt lat="43.137360" lon="-4.954180">
        <ele>1101.204</ele>
        <time>2020-05-22T19:13:52Z</time>
      </trkpt>
      <trkpt lat="43.137350" lon="-4.954090">
        <ele>1100.314</ele>
        <time>2020-05-22T19:14:12Z</time>
      </trkpt>
      <trkpt lat="43.137340" lon="-4.954030">
        <ele>1099.808</ele>
        <time>2020-05-22T19:14:32Z</time>
      </trkpt>
      <trkpt lat="43.137320" lon="-4.953950">
        <ele>1099.329</ele>
        <time>2020-05-22T19:14:52Z</time>
      </trkpt>
      <trkpt lat="43.137320" lon="-4.953940">
        <ele>1099.144</ele>
        <time>2020-05-22T19:15:12Z</time>
      </trkpt>
      <trkpt lat="43.137270" lon="-4.953740">
        <ele>1098.311</ele>
        <time>2020-05-22T19:15:32Z</time>
      </trkpt>
      <trkpt lat="43.137230" lon="-4.953650">
        <ele>1098.277</ele>
        <time>2020-05-22T19:15:52Z</time>
      </trkpt>
      <trkpt lat="43.137190" lon="-4.953570">
        <ele>1097.756</ele>
        <time>2020-05-22T19:16:12Z</time>
      </trkpt>
      <trkpt lat="43.137140" lon="-4.953510">
        <ele>1097.243</ele>
        <time>2020-05-22T19:16:32Z</time>
      </trkpt>
      <trkpt lat="43.137090" lon="-4.953470">
        <ele>1096.758</ele>
        <time>2020-05-22T19:16:52Z</time>
      </trkpt>
      <trkpt lat="43.137030" lon="-4.953450">
        <ele>1096.482</ele>
        <time>2020-05-22T19:17:12Z</time>
      </trkpt>
      <trkpt lat="43.136990" lon="-4.953440">
        <ele>1096.319</ele>
        <time>2020-05-22T19:17:32Z</time>
      </trkpt>
      <trkpt lat="43.136940" lon="-4.953450">
        <ele>1096.409</ele>
        <time>2020-05-22T19:17:52Z</time>
      </trkpt>
      <trkpt lat="43.136870" lon="-4.953460">
        <ele>1095.119</ele>
        <time>2020-05-22T19:18:12Z</time>
      </trkpt>
      <trkpt lat="43.136730" lon="-4.953530">
        <ele>1094.308</ele>
        <time>2020-05-22T19:18:32Z</time>
      </trkpt>
      <trkpt lat="43.136650" lon="-4.953560">
        <ele>1094.015</ele>
        <time>2020-05-22T19:18:52Z</time>
      </trkpt>
      <trkpt lat="43.136600" lon="-4.953580">
        <ele>1094.170</ele>
        <time>2020-05-22T19:19:12Z</time>
      </trkpt>
      <trkpt lat="43.136570" lon="-4.953590">
        <ele>1094.047</ele>
        <time>2020-05-22T19:19:32Z</time>
      </trkpt>
      <trkpt lat="43.136540" lon="-4.953600">
        <ele>1093.943</ele>
        <time>2020-05-22T19:19:52Z</time>
      </trkpt>
      <trkpt lat="43.136520" lon="-4.953600">
        <ele>1093.632</ele>
        <time>2020-05-22T19:20:12Z</time>
      </trkpt>
      <trkpt lat="43.136490" lon="-4.953600">
        <ele>1093.299</ele>
        <time>2020-05-22T19:20:32Z</time>
      </trkpt>
      <trkpt lat="43.136450" lon="-4.953590">
        <ele>1092.584</ele>
        <time>2020-05-22T19:20:52Z</time>
      </trkpt>
      <trkpt lat="43.136430" lon="-4.953580">
        <ele>1092.038</ele>
        <time>2020-05-22T19:21:12Z</time>
      </trkpt>
      <trkpt lat="43.136400" lon="-4.953550">
        <ele>1091.214</ele>
        <time>2020-05-22T19:21:32Z</time>
      </trkpt>
      <trkpt lat="43.136390" lon="-4.953530">
        <ele>1090.854</ele>
        <time>2020-05-22T19:21:52Z</time>
      </trkpt>
      <trkpt lat="43.136360" lon="-4.953490">
        <ele>1090.509</ele>
        <time>2020-05-22T19:22:12Z</time>
      </trkpt>
      <trkpt lat="43.136340" lon="-4.953420">
        <ele>1089.908</ele>
        <time>2020-05-22T19:22:32Z</time>
      </trkpt>
      <trkpt lat="43.136340" lon="-4.953410">
        <ele>1089.825</ele>
        <time>2020-05-22T19:22:52Z</time>
      </trkpt>
      <trkpt lat="43.136330" lon="-4.953350">
        <ele>1089.480</ele>
        <time>2020-05-22T19:23:12Z</time>
      </trkpt>
      <trkpt lat="43.136320" lon="-4.953270">
        <ele>1090.347</ele>
        <time>2020-05-22T19:23:32Z</time>
      </trkpt>
      <trkpt lat="43.136330" lon="-4.953180">
        <ele>1091.353</ele>
        <time>2020-05-22T19:23:52Z</time>
      </trkpt>
      <trkpt lat="43.136350" lon="-4.953090">
        <ele>1091.882</ele>
        <time>2020-05-22T19:24:12Z</time>
      </trkpt>
      <trkpt lat="43.136390" lon="-4.952980">
        <ele>1091.829</ele>
        <time>2020-05-22T19:24:32Z</time>
      </trkpt>
      <trkpt lat="43.136480" lon="-4.952810">
        <ele>1091.074</ele>
        <time>2020-05-22T19:24:52Z</time>
      </trkpt>
      <trkpt lat="43.136590" lon="-4.952660">
        <ele>1090.288</ele>
        <time>2020-05-22T19:25:12Z</time>
      </trkpt>
      <trkpt lat="43.136610" lon="-4.952630">
        <ele>1090.251</ele>
        <time>2020-05-22T19:25:32Z</time>
      </trkpt>
      <trkpt lat="43.136690" lon="-4.952530">
        <ele>1089.801</ele>
        <time>2020-05-22T19:25:52Z</time>
      </trkpt>
      <trkpt lat="43.136770" lon="-4.952410">
        <ele>1089.511</ele>
        <time>2020-05-22T19:26:12Z</time>
      </trkpt>
      <trkpt lat="43.136810" lon="-4.952360">
        <ele>1089.208</ele>
        <time>2020-05-22T19:26:32Z</time>
      </trkpt>
      <trkpt lat="43.136900" lon="-4.952230">
        <ele>1088.939</ele>
        <time>2020-05-22T19:26:52Z</time>
      </trkpt>
      <trkpt lat="43.136900" lon="-4.952220">
        <ele>1089.084</ele>
        <time>2020-05-22T19:27:12Z</time>
      </trkpt>
      <trkpt lat="43.136980" lon="-4.952090">
        <ele>1087.871</ele>
        <time>2020-05-22T19:27:32Z</time>
      </trkpt>
      <trkpt lat="43.137070" lon="-4.951940">
        <ele>1086.977</ele>
        <time>2020-05-22T19:27:52Z</time>
      </trkpt>
      <trkpt lat="43.137120" lon="-4.951850">
        <ele>1086.286</ele>
        <time>2020-05-22T19:28:12Z</time>
      </trkpt>
      <trkpt lat="43.137120" lon="-4.951840">
        <ele>1086.333</ele>
        <time>2020-05-22T19:28:32Z</time>
      </trkpt>
      <trkpt lat="43.137200" lon="-4.951720">
        <ele>1085.898</ele>
        <time>2020-05-22T19:28:52Z</time>
      </trkpt>
      <trkpt lat="43.137260" lon="-4.951580">
        <ele>1085.492</ele>
        <time>2020-05-22T19:29:12Z</time>
      </trkpt>
      <trkpt lat="43.137300" lon="-4.951490">
        <ele>1085.198</ele>
        <time>2020-05-22T19:29:32Z</time>
      </trkpt>
      <trkpt lat="43.137350" lon="-4.951300">
        <ele>1084.615</ele>
        <time>2020-05-22T19:29:52Z</time>
      </trkpt>
      <trkpt lat="43.137370" lon="-4.951200">
        <ele>1083.926</ele>
        <time>2020-05-22T19:30:12Z</time>
      </trkpt>
      <trkpt lat="43.137380" lon="-4.951170">
        <ele>1083.608</ele>
        <time>2020-05-22T19:30:32Z</time>
      </trkpt>
      <trkpt lat="43.137420" lon="-4.950950">
        <ele>1081.133</ele>
        <time>2020-05-22T19:30:52Z</time>
      </trkpt>
      <trkpt lat="43.137470" lon="-4.950670">
        <ele>1078.778</ele>
        <time>2020-05-22T19:31:12Z</time>
      </trkpt>
      <trkpt lat="43.137520" lon="-4.950390">
        <ele>1077.115</ele>
        <time>2020-05-22T19:31:32Z</time>
      </trkpt>
      <trkpt lat="43.137540" lon="-4.950300">
        <ele>1076.451</ele>
        <time>2020-05-22T19:31:52Z</time>
      </trkpt>
      <trkpt lat="43.137550" lon="-4.950240">
        <ele>1076.220</ele>
        <time>2020-05-22T19:32:12Z</time>
      </trkpt>
      <trkpt lat="43.137580" lon="-4.950060">
        <ele>1075.727</ele>
        <time>2020-05-22T19:32:32Z</time>
      </trkpt>
      <trkpt lat="43.137580" lon="-4.950000">
        <ele>1075.772</ele>
        <time>2020-05-22T19:32:52Z</time>
      </trkpt>
      <trkpt lat="43.137590" lon="-4.949940">
        <ele>1075.146</ele>
        <time>2020-05-22T19:33:12Z</time>
      </trkpt>
      <trkpt lat="43.137590" lon="-4.949860">
        <ele>1074.757</ele>
        <time>2020-05-22T19:33:32Z</time>
      </trkpt>
      <trkpt lat="43.137600" lon="-4.949740">
        <ele>1073.900</ele>
        <time>2020-05-22T19:33:52Z</time>
      </trkpt>
      <trkpt lat="43.137590" lon="-4.949630">
        <ele>1073.720</ele>
        <time>2020-05-22T19:34:12Z</time>
      </trkpt>
      <trkpt lat="43.137580" lon="-4.949520">
        <ele>1073.508</ele>
        <time>2020-05-22T19:34:32Z</time>
      </trkpt>
      <trkpt lat="43.137580" lon="-4.949510">
        <ele>1073.529</ele>
        <time>2020-05-22T19:34:52Z</time>
      </trkpt>
      <trkpt lat="43.137570" lon="-4.949400">
        <ele>1072.824</ele>
        <time>2020-05-22T19:35:12Z</time>
      </trkpt>
      <trkpt lat="43.137550" lon="-4.949310">
        <ele>1072.161</ele>
        <time>2020-05-22T19:35:32Z</time>
      </trkpt>
      <trkpt lat="43.137540" lon="-4.949270">
        <ele>1071.977</ele>
        <time>2020-05-22T19:35:52Z</time>
      </trkpt>
      <trkpt lat="43.137510" lon="-4.949150">
        <ele>1071.466</ele>
        <time>2020-05-22T19:36:12Z</time>
      </trkpt>
      <trkpt lat="43.137500" lon="-4.949100">
        <ele>1071.043</ele>
        <time>2020-05-22T19:36:32Z</time>
      </trkpt>
      <trkpt lat="43.137480" lon="-4.949060">
        <ele>1071.468</ele>
        <time>2020-05-22T19:36:52Z</time>
      </trkpt>
      <trkpt lat="43.137450" lon="-4.948970">
        <ele>1071.422</ele>
        <time>2020-05-22T19:37:12Z</time>
      </trkpt>
      <trkpt lat="43.137420" lon="-4.948920">
        <ele>1071.754</ele>
        <time>2020-05-22T19:37:32Z</time>
      </trkpt>
      <trkpt lat="43.137390" lon="-4.948860">
        <ele>1071.456</ele>
        <time>2020-05-22T19:37:52Z</time>
      </trkpt>
      <trkpt lat="43.137380" lon="-4.948840">
        <ele>1071.111</ele>
        <time>2020-05-22T19:38:12Z</time>
      </trkpt>
      <trkpt lat="43.137350" lon="-4.948810">
        <ele>1071.208</ele>
        <time>2020-05-22T19:38:32Z</time>
      </trkpt>
      <trkpt lat="43.137240" lon="-4.948670">
        <ele>1070.519</ele>
        <time>2020-05-22T19:38:52Z</time>
      </trkpt>
      <trkpt lat="43.136990" lon="-4.948400">
        <ele>1070.124</ele>
        <time>2020-05-22T19:39:12Z</time>
      </trkpt>
      <trkpt lat="43.136960" lon="-4.948360">
        <ele>1069.531</ele>
        <time>2020-05-22T19:39:32Z</time>
      </trkpt>
      <trkpt lat="43.136830" lon="-4.948200">
        <ele>1067.867</ele>
        <time>2020-05-22T19:39:52Z</time>
      </trkpt>
      <trkpt lat="43.136810" lon="-4.948180">
        <ele>1067.796</ele>
        <time>2020-05-22T19:40:12Z</time>
      </trkpt>
      <trkpt lat="43.136690" lon="-4.948050">
        <ele>1066.943</ele>
        <time>2020-05-22T19:40:32Z</time>
      </trkpt>
      <trkpt lat="43.136610" lon="-4.947960">
        <ele>1066.928</ele>
        <time>2020-05-22T19:40:52Z</time>
      </trkpt>
      <trkpt lat="43.136550" lon="-4.947890">
        <ele>1066.352</ele>
        <time>2020-05-22T19:41:12Z</time>
      </trkpt>
      <trkpt lat="43.136540" lon="-4.947880">
        <ele>1066.259</ele>
        <time>2020-05-22T19:41:32Z</time>
      </trkpt>
      <trkpt lat="43.136480" lon="-4.947810">
        <ele>1065.103</ele>
        <time>2020-05-22T19:41:52Z</time>
      </trkpt>
      <trkpt lat="43.136410" lon="-4.947730">
        <ele>1064.323</ele>
        <time>2020-05-22T19:42:12Z</time>
      </trkpt>
      <trkpt lat="43.136370" lon="-4.947690">
        <ele>1064.508</ele>
        <time>2020-05-22T19:42:32Z</time>
      </trkpt>
      <trkpt lat="43.136280" lon="-4.947590">
        <ele>1064.579</ele>
        <time>2020-05-22T19:42:52Z</time>
      </trkpt>
      <trkpt lat="43.136270" lon="-4.947570">
        <ele>1064.264</ele>
        <time>2020-05-22T19:43:12Z</time>
      </trkpt>
      <trkpt lat="43.136200" lon="-4.947480">
        <ele>1063.441</ele>
        <time>2020-05-22T19:43:32Z</time>
      </trkpt>
      <trkpt lat="43.136140" lon="-4.947400">
        <ele>1063.157</ele>
        <time>2020-05-22T19:43:52Z</time>
      </trkpt>
      <trkpt lat="43.136100" lon="-4.947300">
        <ele>1062.076</ele>
        <time>2020-05-22T19:44:12Z</time>
      </trkpt>
      <trkpt lat="43.136080" lon="-4.947220">
        <ele>1060.983</ele>
        <time>2020-05-22T19:44:32Z</time>
      </trkpt>
      <trkpt lat="43.136070" lon="-4.947180">
        <ele>1060.898</ele>
        <time>2020-05-22T19:44:52Z</time>
      </trkpt>
      <trkpt lat="43.136060" lon="-4.947150">
        <ele>1060.842</ele>
        <time>2020-05-22T19:45:12Z</time>
      </trkpt>
      <trkpt lat="43.136060" lon="-4.947080">
        <ele>1060.128</ele>
        <time>2020-05-22T19:45:32Z</time>
      </trkpt>
      <trkpt lat="43.136060" lon="-4.946990">
        <ele>1059.289</ele>
        <time>2020-05-22T19:45:52Z</time>
      </trkpt>
      <trkpt lat="43.136080" lon="-4.946940">
        <ele>1058.417</ele>
        <time>2020-05-22T19:46:12Z</time>
      </trkpt>
      <trkpt lat="43.136080" lon="-4.946900">
        <ele>1058.408</ele>
        <time>2020-05-22T19:46:32Z</time>
      </trkpt>
      <trkpt lat="43.136110" lon="-4.946820">
        <ele>1058.066</ele>
        <time>2020-05-22T19:46:52Z</time>
      </trkpt>
      <trkpt lat="43.136130" lon="-4.946760">
        <ele>1057.841</ele>
        <time>2020-05-22T19:47:12Z</time>
      </trkpt>
      <trkpt lat="43.136150" lon="-4.946710">
        <ele>1057.788</ele>
        <time>2020-05-22T19:47:32Z</time>
      </trkpt>
      <trkpt lat="43.136160" lon="-4.946680">
        <ele>1057.694</ele>
        <time>2020-05-22T19:47:52Z</time>
      </trkpt>
      <trkpt lat="43.136190" lon="-4.946630">
        <ele>1057.813</ele>
        <time>2020-05-22T19:48:12Z</time>
      </trkpt>
      <trkpt lat="43.136230" lon="-4.946580">
        <ele>1058.090</ele>
        <time>2020-05-22T19:48:32Z</time>
      </trkpt>
      <trkpt lat="43.136260" lon="-4.946540">
        <ele>1058.375</ele>
        <time>2020-05-22T19:48:52Z</time>
      </trkpt>
      <trkpt lat="43.136270" lon="-4.946540">
        <ele>1058.389</ele>
        <time>2020-05-22T19:49:12Z</time>
      </trkpt>
      <trkpt lat="43.136310" lon="-4.946520">
        <ele>1058.457</ele>
        <time>2020-05-22T19:49:32Z</time>
      </trkpt>
      <trkpt lat="43.136370" lon="-4.946500">
        <ele>1058.500</ele>
        <time>2020-05-22T19:49:52Z</time>
      </trkpt>
      <trkpt lat="43.136430" lon="-4.946500">
        <ele>1059.020</ele>
        <time>2020-05-22T19:50:12Z</time>
      </trkpt>
      <trkpt lat="43.136450" lon="-4.946500">
        <ele>1059.308</ele>
        <time>2020-05-22T19:50:32Z</time>
      </trkpt>
      <trkpt lat="43.136510" lon="-4.946510">
        <ele>1059.939</ele>
        <time>2020-05-22T19:50:52Z</time>
      </trkpt>
      <trkpt lat="43.136600" lon="-4.946560">
        <ele>1059.844</ele>
        <time>2020-05-22T19:51:12Z</time>
      </trkpt>
      <trkpt lat="43.136750" lon="-4.946630">
        <ele>1059.491</ele>
        <time>2020-05-22T19:51:32Z</time>
      </trkpt>
      <trkpt lat="43.136790" lon="-4.946650">
        <ele>1059.317</ele>
        <time>2020-05-22T19:51:52Z</time>
      </trkpt>
      <trkpt lat="43.136890" lon="-4.946710">
        <ele>1058.926</ele>
        <time>2020-05-22T19:52:12Z</time>
      </trkpt>
      <trkpt lat="43.136980" lon="-4.946750">
        <ele>1058.533</ele>
        <time>2020-05-22T19:52:32Z</time>
      </trkpt>
      <trkpt lat="43.137050" lon="-4.946770">
        <ele>1058.238</ele>
        <time>2020-05-22T19:52:52Z</time>
      </trkpt>
      <trkpt lat="43.137160" lon="-4.946800">
        <ele>1057.892</ele>
        <time>2020-05-22T19:53:12Z</time>
      </trkpt>
      <trkpt lat="43.137290" lon="-4.946810">
        <ele>1057.637</ele>
        <time>2020-05-22T19:53:32Z</time>
      </trkpt>
      <trkpt lat="43.137310" lon="-4.946810">
        <ele>1057.649</ele>
        <time>2020-05-22T19:53:52Z</time>
      </trkpt>
      <trkpt lat="43.137410" lon="-4.946800">
        <ele>1057.513</ele>
        <time>2020-05-22T19:54:12Z</time>
      </trkpt>
      <trkpt lat="43.137530" lon="-4.946780">
        <ele>1057.208</ele>
        <time>2020-05-22T19:54:32Z</time>
      </trkpt>
      <trkpt lat="43.137630" lon="-4.946750">
        <ele>1056.827</ele>
        <time>2020-05-22T19:54:52Z</time>
      </trkpt>
      <trkpt lat="43.137710" lon="-4.946710">
        <ele>1056.832</ele>
        <time>2020-05-22T19:55:12Z</time>
      </trkpt>
      <trkpt lat="43.137810" lon="-4.946650">
        <ele>1056.919</ele>
        <time>2020-05-22T19:55:32Z</time>
      </trkpt>
      <trkpt lat="43.138030" lon="-4.946460">
        <ele>1057.265</ele>
        <time>2020-05-22T19:55:52Z</time>
      </trkpt>
      <trkpt lat="43.138130" lon="-4.946350">
        <ele>1057.244</ele>
        <time>2020-05-22T19:56:12Z</time>
      </trkpt>
      <trkpt lat="43.138250" lon="-4.946210">
        <ele>1057.291</ele>
        <time>2020-05-22T19:56:32Z</time>
      </trkpt>
      <trkpt lat="43.138360" lon="-4.946080">
        <ele>1057.016</ele>
        <time>2020-05-22T19:56:52Z</time>
      </trkpt>
      <trkpt lat="43.138400" lon="-4.946040">
        <ele>1056.860</ele>
        <time>2020-05-22T19:57:12Z</time>
      </trkpt>
      <trkpt lat="43.138440" lon="-4.945990">
        <ele>1056.763</ele>
        <time>2020-05-22T19:57:32Z</time>
      </trkpt>
      <trkpt lat="43.138550" lon="-4.945860">
        <ele>1056.144</ele>
        <time>2020-05-22T19:57:52Z</time>
      </trkpt>
      <trkpt lat="43.138740" lon="-4.945650">
        <ele>1055.518</ele>
        <time>2020-05-22T19:58:12Z</time>
      </trkpt>
      <trkpt lat="43.138810" lon="-4.945560">
        <ele>1055.608</ele>
        <time>2020-05-22T19:58:32Z</time>
      </trkpt>
      <trkpt lat="43.138990" lon="-4.945360">
        <ele>1054.920</ele>
        <time>2020-05-22T19:58:52Z</time>
      </trkpt>
      <trkpt lat="43.139090" lon="-4.945240">
        <ele>1054.745</ele>
        <time>2020-05-22T19:59:12Z</time>
      </trkpt>
      <trkpt lat="43.139180" lon="-4.945130">
        <ele>1054.312</ele>
        <time>2020-05-22T19:59:32Z</time>
      </trkpt>
      <trkpt lat="43.139220" lon="-4.945070">
        <ele>1054.278</ele>
        <time>2020-05-22T19:59:52Z</time>
      </trkpt>
      <trkpt lat="43.139320" lon="-4.944930">
        <ele>1053.617</ele>
        <time>2020-05-22T20:00:12Z</time>
      </trkpt>
      <trkpt lat="43.139400" lon="-4.944790">
        <ele>1052.874</ele>
        <time>2020-05-22T20:00:32Z</time>
      </trkpt>
      <trkpt lat="43.139450" lon="-4.944700">
        <ele>1052.189</ele>
        <time>2020-05-22T20:00:52Z</time>
      </trkpt>
      <trkpt lat="43.139550" lon="-4.944520">
        <ele>1051.163</ele>
        <time>2020-05-22T20:01:12Z</time>
      </trkpt>
      <trkpt lat="43.139660" lon="-4.944300">
        <ele>1050.129</ele>
        <time>2020-05-22T20:01:32Z</time>
      </trkpt>
      <trkpt lat="43.139710" lon="-4.944210">
        <ele>1049.100</ele>
        <time>2020-05-22T20:01:52Z</time>
      </trkpt>
      <trkpt lat="43.139770" lon="-4.944100">
        <ele>1048.020</ele>
        <time>2020-05-22T20:02:12Z</time>
      </trkpt>
      <trkpt lat="43.139800" lon="-4.944030">
        <ele>1047.608</ele>
        <time>2020-05-22T20:02:32Z</time>
      </trkpt>
      <trkpt lat="43.139900" lon="-4.943820">
        <ele>1046.416</ele>
        <time>2020-05-22T20:02:52Z</time>
      </trkpt>
      <trkpt lat="43.139960" lon="-4.943680">
        <ele>1045.751</ele>
        <time>2020-05-22T20:03:12Z</time>
      </trkpt>
      <trkpt lat="43.139990" lon="-4.943610">
        <ele>1045.338</ele>
        <time>2020-05-22T20:03:32Z</time>
      </trkpt>
      <trkpt lat="43.140040" lon="-4.943480">
        <ele>1044.774</ele>
        <time>2020-05-22T20:03:52Z</time>
      </trkpt>
      <trkpt lat="43.140050" lon="-4.943470">
        <ele>1044.553</ele>
        <time>2020-05-22T20:04:12Z</time>
      </trkpt>
      <trkpt lat="43.140080" lon="-4.943370">
        <ele>1044.220</ele>
        <time>2020-05-22T20:04:32Z</time>
      </trkpt>
      <trkpt lat="43.140130" lon="-4.943180">
        <ele>1042.825</ele>
        <time>2020-05-22T20:04:52Z</time>
      </trkpt>
      <trkpt lat="43.140160" lon="-4.942990">
        <ele>1041.839</ele>
        <time>2020-05-22T20:05:12Z</time>
      </trkpt>
      <trkpt lat="43.140180" lon="-4.942840">
        <ele>1040.975</ele>
        <time>2020-05-22T20:05:32Z</time>
      </trkpt>
      <trkpt lat="43.140200" lon="-4.942660">
        <ele>1039.828</ele>
        <time>2020-05-22T20:05:52Z</time>
      </trkpt>
      <trkpt lat="43.140210" lon="-4.942510">
        <ele>1039.020</ele>
        <time>2020-05-22T20:06:12Z</time>
      </trkpt>
      <trkpt lat="43.140220" lon="-4.942410">
        <ele>1038.308</ele>
        <time>2020-05-22T20:06:32Z</time>
      </trkpt>
      <trkpt lat="43.140250" lon="-4.942140">
        <ele>1036.421</ele>
        <time>2020-05-22T20:06:52Z</time>
      </trkpt>
      <trkpt lat="43.140270" lon="-4.941900">
        <ele>1035.486</ele>
        <time>2020-05-22T20:07:12Z</time>
      </trkpt>
      <trkpt lat="43.140300" lon="-4.941710">
        <ele>1033.933</ele>
        <time>2020-05-22T20:07:32Z</time>
      </trkpt>
      <trkpt lat="43.140330" lon="-4.941500">
        <ele>1032.679</ele>
        <time>2020-05-22T20:07:52Z</time>
      </trkpt>
      <trkpt lat="43.140350" lon="-4.941270">
        <ele>1031.988</ele>
        <time>2020-05-22T20:08:12Z</time>
      </trkpt>
      <trkpt lat="43.140370" lon="-4.941110">
        <ele>1031.075</ele>
        <time>2020-05-22T20:08:32Z</time>
      </trkpt>
      <trkpt lat="43.140380" lon="-4.940970">
        <ele>1029.830</ele>
        <time>2020-05-22T20:08:52Z</time>
      </trkpt>
      <trkpt lat="43.140380" lon="-4.940850">
        <ele>1029.034</ele>
        <time>2020-05-22T20:09:12Z</time>
      </trkpt>
      <trkpt lat="43.140370" lon="-4.940740">
        <ele>1028.242</ele>
        <time>2020-05-22T20:09:32Z</time>
      </trkpt>
      <trkpt lat="43.140360" lon="-4.940660">
        <ele>1027.622</ele>
        <time>2020-05-22T20:09:52Z</time>
      </trkpt>
      <trkpt lat="43.140340" lon="-4.940560">
        <ele>1027.014</ele>
        <time>2020-05-22T20:10:12Z</time>
      </trkpt>
      <trkpt lat="43.140330" lon="-4.940550">
        <ele>1027.208</ele>
        <time>2020-05-22T20:10:32Z</time>
      </trkpt>
      <trkpt lat="43.140300" lon="-4.940420">
        <ele>1025.888</ele>
        <time>2020-05-22T20:10:52Z</time>
      </trkpt>
      <trkpt lat="43.140260" lon="-4.940300">
        <ele>1025.023</ele>
        <time>2020-05-22T20:11:12Z</time>
      </trkpt>
      <trkpt lat="43.140200" lon="-4.940120">
        <ele>1023.950</ele>
        <time>2020-05-22T20:11:32Z</time>
      </trkpt>
      <trkpt lat="43.140180" lon="-4.940040">
        <ele>1023.116</ele>
        <time>2020-05-22T20:11:52Z</time>
      </trkpt>
      <trkpt lat="43.140160" lon="-4.940000">
        <ele>1023.035</ele>
        <time>2020-05-22T20:12:12Z</time>
      </trkpt>
      <trkpt lat="43.140150" lon="-4.939940">
        <ele>1022.912</ele>
        <time>2020-05-22T20:12:32Z</time>
      </trkpt>
      <trkpt lat="43.140150" lon="-4.939890">
        <ele>1022.687</ele>
        <time>2020-05-22T20:12:52Z</time>
      </trkpt>
      <trkpt lat="43.140140" lon="-4.939860">
        <ele>1022.791</ele>
        <time>2020-05-22T20:13:12Z</time>
      </trkpt>
      <trkpt lat="43.140130" lon="-4.939800">
        <ele>1022.687</ele>
        <time>2020-05-22T20:13:32Z</time>
      </trkpt>
      <trkpt lat="43.140140" lon="-4.939780">
        <ele>1022.342</ele>
        <time>2020-05-22T20:13:52Z</time>
      </trkpt>
      <trkpt lat="43.140140" lon="-4.939760">
        <ele>1022.226</ele>
        <time>2020-05-22T20:14:12Z</time>
      </trkpt>
      <trkpt lat="43.140160" lon="-4.939720">
        <ele>1021.608</ele>
        <time>2020-05-22T20:14:32Z</time>
      </trkpt>
      <trkpt lat="43.140180" lon="-4.939650">
        <ele>1022.282</ele>
        <time>2020-05-22T20:14:52Z</time>
      </trkpt>
      <trkpt lat="43.140220" lon="-4.939580">
        <ele>1021.967</ele>
        <time>2020-05-22T20:15:12Z</time>
      </trkpt>
      <trkpt lat="43.140240" lon="-4.939520">
        <ele>1021.984</ele>
        <time>2020-05-22T20:15:32Z</time>
      </trkpt>
      <trkpt lat="43.140310" lon="-4.939420">
        <ele>1020.530</ele>
        <time>2020-05-22T20:15:52Z</time>
      </trkpt>
      <trkpt lat="43.140340" lon="-4.939360">
        <ele>1020.679</ele>
        <time>2020-05-22T20:16:12Z</time>
      </trkpt>
      <trkpt lat="43.140360" lon="-4.939310">
        <ele>1020.786</ele>
        <time>2020-05-22T20:16:32Z</time>
      </trkpt>
      <trkpt lat="43.140370" lon="-4.939300">
        <ele>1020.651</ele>
        <time>2020-05-22T20:16:52Z</time>
      </trkpt>
      <trkpt lat="43.140390" lon="-4.939250">
        <ele>1020.785</ele>
        <time>2020-05-22T20:17:12Z</time>
      </trkpt>
      <trkpt lat="43.140400" lon="-4.939210">
        <ele>1020.921</ele>
        <time>2020-05-22T20:17:32Z</time>
      </trkpt>
      <trkpt lat="43.140410" lon="-4.939180">
        <ele>1021.041</ele>
        <time>2020-05-22T20:17:52Z</time>
      </trkpt>
      <trkpt lat="43.140420" lon="-4.939120">
        <ele>1020.205</ele>
        <time>2020-05-22T20:18:12Z</time>
      </trkpt>
      <trkpt lat="43.140420" lon="-4.939030">
        <ele>1018.908</ele>
        <time>2020-05-22T20:18:32Z</time>
      </trkpt>
      <trkpt lat="43.140420" lon="-4.938970">
        <ele>1018.166</ele>
        <time>2020-05-22T20:18:52Z</time>
      </trkpt>
      <trkpt lat="43.140410" lon="-4.938900">
        <ele>1017.481</ele>
        <time>2020-05-22T20:19:12Z</time>
      </trkpt>
      <trkpt lat="43.140390" lon="-4.938840">
        <ele>1016.398</ele>
        <time>2020-05-22T20:19:32Z</time>
      </trkpt>
      <trkpt lat="43.140350" lon="-4.938780">
        <ele>1015.694</ele>
        <time>2020-05-22T20:19:52Z</time>
      </trkpt>
      <trkpt lat="43.140310" lon="-4.938710">
        <ele>1014.463</ele>
        <time>2020-05-22T20:20:12Z</time>
      </trkpt>
      <trkpt lat="43.140230" lon="-4.938620">
        <ele>1013.330</ele>
        <time>2020-05-22T20:20:32Z</time>
      </trkpt>
      <trkpt lat="43.140150" lon="-4.938560">
        <ele>1013.085</ele>
        <time>2020-05-22T20:20:52Z</time>
      </trkpt>
      <trkpt lat="43.140060" lon="-4.938480">
        <ele>1012.119</ele>
        <time>2020-05-22T20:21:12Z</time>
      </trkpt>
      <trkpt lat="43.139990" lon="-4.938420">
        <ele>1011.342</ele>
        <time>2020-05-22T20:21:32Z</time>
      </trkpt>
      <trkpt lat="43.139960" lon="-4.938390">
        <ele>1010.622</ele>
        <time>2020-05-22T20:21:52Z</time>
      </trkpt>
      <trkpt lat="43.139930" lon="-4.938350">
        <ele>1009.414</ele>
        <time>2020-05-22T20:22:12Z</time>
      </trkpt>
      <trkpt lat="43.139900" lon="-4.938320">
        <ele>1008.908</ele>
        <time>2020-05-22T20:22:32Z</time>
      </trkpt>
      <trkpt lat="43.139890" lon="-4.938280">
        <ele>1008.358</ele>
        <time>2020-05-22T20:22:52Z</time>
      </trkpt>
      <trkpt lat="43.139870" lon="-4.938240">
        <ele>1007.923</ele>
        <time>2020-05-22T20:23:12Z</time>
      </trkpt>
      <trkpt lat="43.139870" lon="-4.938190">
        <ele>1007.120</ele>
        <time>2020-05-22T20:23:32Z</time>
      </trkpt>
      <trkpt lat="43.139870" lon="-4.938150">
        <ele>1006.436</ele>
        <time>2020-05-22T20:23:52Z</time>
      </trkpt>
      <trkpt lat="43.139860" lon="-4.938090">
        <ele>1005.635</ele>
        <time>2020-05-22T20:24:12Z</time>
      </trkpt>
      <trkpt lat="43.139870" lon="-4.938030">
        <ele>1005.012</ele>
        <time>2020-05-22T20:24:32Z</time>
      </trkpt>
      <trkpt lat="43.139880" lon="-4.937970">
        <ele>1005.127</ele>
        <time>2020-05-22T20:24:52Z</time>
      </trkpt>
      <trkpt lat="43.139880" lon="-4.937950">
        <ele>1005.251</ele>
        <time>2020-05-22T20:25:12Z</time>
      </trkpt>
      <trkpt lat="43.139890" lon="-4.937910">
        <ele>1005.217</ele>
        <time>2020-05-22T20:25:32Z</time>
      </trkpt>
      <trkpt lat="43.139920" lon="-4.937850">
        <ele>1005.287</ele>
        <time>2020-05-22T20:25:52Z</time>
      </trkpt>
      <trkpt lat="43.139950" lon="-4.937790">
        <ele>1005.315</ele>
        <time>2020-05-22T20:26:12Z</time>
      </trkpt>
      <trkpt lat="43.139980" lon="-4.937750">
        <ele>1005.308</ele>
        <time>2020-05-22T20:26:32Z</time>
      </trkpt>
      <trkpt lat="43.139990" lon="-4.937740">
        <ele>1005.265</ele>
        <time>2020-05-22T20:26:52Z</time>
      </trkpt>
      <trkpt lat="43.140030" lon="-4.937700">
        <ele>1004.990</ele>
        <time>2020-05-22T20:27:12Z</time>
      </trkpt>
      <trkpt lat="43.140100" lon="-4.937640">
        <ele>1004.227</ele>
        <time>2020-05-22T20:27:32Z</time>
      </trkpt>
      <trkpt lat="43.140130" lon="-4.937620">
        <ele>1004.023</ele>
        <time>2020-05-22T20:27:52Z</time>
      </trkpt>
      <trkpt lat="43.140300" lon="-4.937520">
        <ele>1002.722</ele>
        <time>2020-05-22T20:28:12Z</time>
      </trkpt>
      <trkpt lat="43.140340" lon="-4.937500">
        <ele>1002.619</ele>
        <time>2020-05-22T20:28:32Z</time>
      </trkpt>
      <trkpt lat="43.140420" lon="-4.937450">
        <ele>1002.674</ele>
        <time>2020-05-22T20:28:52Z</time>
      </trkpt>
      <trkpt lat="43.140460" lon="-4.937430">
        <ele>1002.778</ele>
        <time>2020-05-22T20:29:12Z</time>
      </trkpt>
      <trkpt lat="43.140490" lon="-4.937410">
        <ele>1002.984</ele>
        <time>2020-05-22T20:29:32Z</time>
      </trkpt>
      <trkpt lat="43.140560" lon="-4.937380">
        <ele>1003.107</ele>
        <time>2020-05-22T20:29:52Z</time>
      </trkpt>
      <trkpt lat="43.140630" lon="-4.937350">
        <ele>1003.417</ele>
        <time>2020-05-22T20:30:12Z</time>
      </trkpt>
      <trkpt lat="43.140750" lon="-4.937320">
        <ele>1003.908</ele>
        <time>2020-05-22T20:30:32Z</time>
      </trkpt>
      <trkpt lat="43.140880" lon="-4.937300">
        <ele>1004.192</ele>
        <time>2020-05-22T20:30:52Z</time>
      </trkpt>
      <trkpt lat="43.141010" lon="-4.937280">
        <ele>1003.647</ele>
        <time>2020-05-22T20:31:12Z</time>
      </trkpt>
      <trkpt lat="43.141150" lon="-4.937250">
        <ele>1003.874</ele>
        <time>2020-05-22T20:31:32Z</time>
      </trkpt>
      <trkpt lat="43.141170" lon="-4.937250">
        <ele>1003.830</ele>
        <time>2020-05-22T20:31:52Z</time>
      </trkpt>
      <trkpt lat="43.141200" lon="-4.937250">
        <ele>1003.869</ele>
        <time>2020-05-22T20:32:12Z</time>
      </trkpt>
      <trkpt lat="43.141240" lon="-4.937250">
        <ele>1003.816</ele>
        <time>2020-05-22T20:32:32Z</time>
      </trkpt>
      <trkpt lat="43.141310" lon="-4.937250">
        <ele>1003.731</ele>
        <time>2020-05-22T20:32:52Z</time>
      </trkpt>
      <trkpt lat="43.141350" lon="-4.937260">
        <ele>1003.355</ele>
        <time>2020-05-22T20:33:12Z</time>
      </trkpt>
      <trkpt lat="43.141400" lon="-4.937270">
        <ele>1002.937</ele>
        <time>2020-05-22T20:33:32Z</time>
      </trkpt>
      <trkpt lat="43.141590" lon="-4.937320">
        <ele>1003.149</ele>
        <time>2020-05-22T20:33:52Z</time>
      </trkpt>
      <trkpt lat="43.141720" lon="-4.937360">
        <ele>1002.513</ele>
        <time>2020-05-22T20:34:12Z</time>
      </trkpt>
      <trkpt lat="43.141800" lon="-4.937380">
        <ele>1001.808</ele>
        <time>2020-05-22T20:34:32Z</time>
      </trkpt>
      <trkpt lat="43.141890" lon="-4.937390">
        <ele>1001.417</ele>
        <time>2020-05-22T20:34:52Z</time>
      </trkpt>
      <trkpt lat="43.142000" lon="-4.937380">
        <ele>1000.482</ele>
        <time>2020-05-22T20:35:12Z</time>
      </trkpt>
      <trkpt lat="43.142050" lon="-4.937360">
        <ele>999.929</ele>
        <time>2020-05-22T20:35:32Z</time>
      </trkpt>
      <trkpt lat="43.142060" lon="-4.937360">
        <ele>999.665</ele>
        <time>2020-05-22T20:35:52Z</time>
      </trkpt>
      <trkpt lat="43.142130" lon="-4.937310">
        <ele>999.414</ele>
        <time>2020-05-22T20:36:12Z</time>
      </trkpt>
      <trkpt lat="43.142200" lon="-4.937260">
        <ele>998.711</ele>
        <time>2020-05-22T20:36:32Z</time>
      </trkpt>
      <trkpt lat="43.142310" lon="-4.937140">
        <ele>997.226</ele>
        <time>2020-05-22T20:36:52Z</time>
      </trkpt>
      <trkpt lat="43.142350" lon="-4.937080">
        <ele>996.840</ele>
        <time>2020-05-22T20:37:12Z</time>
      </trkpt>
      <trkpt lat="43.142380" lon="-4.937030">
        <ele>996.546</ele>
        <time>2020-05-22T20:37:32Z</time>
      </trkpt>
      <trkpt lat="43.142480" lon="-4.936840">
        <ele>995.088</ele>
        <time>2020-05-22T20:37:52Z</time>
      </trkpt>
      <trkpt lat="43.142640" lon="-4.936490">
        <ele>992.516</ele>
        <time>2020-05-22T20:38:12Z</time>
      </trkpt>
      <trkpt lat="43.142670" lon="-4.936430">
        <ele>991.708</ele>
        <time>2020-05-22T20:38:32Z</time>
      </trkpt>
      <trkpt lat="43.142770" lon="-4.936170">
        <ele>989.838</ele>
        <time>2020-05-22T20:38:52Z</time>
      </trkpt>
      <trkpt lat="43.142940" lon="-4.935790">
        <ele>984.113</ele>
        <time>2020-05-22T20:39:12Z</time>
      </trkpt>
      <trkpt lat="43.143020" lon="-4.935610">
        <ele>984.360</ele>
        <time>2020-05-22T20:39:32Z</time>
      </trkpt>
      <trkpt lat="43.143120" lon="-4.935370">
        <ele>983.276</ele>
        <time>2020-05-22T20:39:52Z</time>
      </trkpt>
      <trkpt lat="43.143190" lon="-4.935200">
        <ele>981.795</ele>
        <time>2020-05-22T20:40:12Z</time>
      </trkpt>
      <trkpt lat="43.143250" lon="-4.935010">
        <ele>980.772</ele>
        <time>2020-05-22T20:40:32Z</time>
      </trkpt>
      <trkpt lat="43.143340" lon="-4.934780">
        <ele>978.717</ele>
        <time>2020-05-22T20:40:52Z</time>
      </trkpt>
      <trkpt lat="43.143430" lon="-4.934460">
        <ele>975.361</ele>
        <time>2020-05-22T20:41:12Z</time>
      </trkpt>
      <trkpt lat="43.143480" lon="-4.934300">
        <ele>975.031</ele>
        <time>2020-05-22T20:41:32Z</time>
      </trkpt>
      <trkpt lat="43.143520" lon="-4.934220">
        <ele>974.661</ele>
        <time>2020-05-22T20:41:52Z</time>
      </trkpt>
      <trkpt lat="43.143570" lon="-4.934110">
        <ele>974.707</ele>
        <time>2020-05-22T20:42:12Z</time>
      </trkpt>
      <trkpt lat="43.143660" lon="-4.933990">
        <ele>972.908</ele>
        <time>2020-05-22T20:42:32Z</time>
      </trkpt>
      <trkpt lat="43.143740" lon="-4.933870">
        <ele>971.937</ele>
        <time>2020-05-22T20:42:52Z</time>
      </trkpt>
      <trkpt lat="43.143780" lon="-4.933780">
        <ele>972.112</ele>
        <time>2020-05-22T20:43:12Z</time>
      </trkpt>
      <trkpt lat="43.143840" lon="-4.933670">
        <ele>970.689</ele>
        <time>2020-05-22T20:43:32Z</time>
      </trkpt>
      <trkpt lat="43.143880" lon="-4.933570">
        <ele>969.445</ele>
        <time>2020-05-22T20:43:52Z</time>
      </trkpt>
      <trkpt lat="43.143920" lon="-4.933420">
        <ele>969.364</ele>
        <time>2020-05-22T20:44:12Z</time>
      </trkpt>
      <trkpt lat="43.143970" lon="-4.933250">
        <ele>967.891</ele>
        <time>2020-05-22T20:44:32Z</time>
      </trkpt>
      <trkpt lat="43.144030" lon="-4.933080">
        <ele>965.696</ele>
        <time>2020-05-22T20:44:52Z</time>
      </trkpt>
      <trkpt lat="43.144060" lon="-4.932960">
        <ele>963.710</ele>
        <time>2020-05-22T20:45:12Z</time>
      </trkpt>
      <trkpt lat="43.144120" lon="-4.932810">
        <ele>961.788</ele>
        <time>2020-05-22T20:45:32Z</time>
      </trkpt>
      <trkpt lat="43.144140" lon="-4.932770">
        <ele>961.724</ele>
        <time>2020-05-22T20:45:52Z</time>
      </trkpt>
      <trkpt lat="43.144160" lon="-4.932730">
        <ele>962.226</ele>
        <time>2020-05-22T20:46:12Z</time>
      </trkpt>
      <trkpt lat="43.144240" lon="-4.932590">
        <ele>961.908</ele>
        <time>2020-05-22T20:46:32Z</time>
      </trkpt>
      <trkpt lat="43.144300" lon="-4.932480">
        <ele>961.912</ele>
        <time>2020-05-22T20:46:52Z</time>
      </trkpt>
      <trkpt lat="43.144400" lon="-4.932330">
        <ele>961.577</ele>
        <time>2020-05-22T20:47:12Z</time>
      </trkpt>
      <trkpt lat="43.144540" lon="-4.932140">
        <ele>960.144</ele>
        <time>2020-05-22T20:47:32Z</time>
      </trkpt>
      <trkpt lat="43.144700" lon="-4.931900">
        <ele>958.020</ele>
        <time>2020-05-22T20:47:52Z</time>
      </trkpt>
      <trkpt lat="43.144880" lon="-4.931640">
        <ele>956.329</ele>
        <time>2020-05-22T20:48:12Z</time>
      </trkpt>
      <trkpt lat="43.144970" lon="-4.931480">
        <ele>955.756</ele>
        <time>2020-05-22T20:48:32Z</time>
      </trkpt>
      <trkpt lat="43.145030" lon="-4.931380">
        <ele>955.051</ele>
        <time>2020-05-22T20:48:52Z</time>
      </trkpt>
      <trkpt lat="43.145180" lon="-4.931120">
        <ele>952.925</ele>
        <time>2020-05-22T20:49:12Z</time>
      </trkpt>
      <trkpt lat="43.145320" lon="-4.930760">
        <ele>949.571</ele>
        <time>2020-05-22T20:49:32Z</time>
      </trkpt>
      <trkpt lat="43.145360" lon="-4.930650">
        <ele>949.241</ele>
        <time>2020-05-22T20:49:52Z</time>
      </trkpt>
      <trkpt lat="43.145410" lon="-4.930550">
        <ele>948.215</ele>
        <time>2020-05-22T20:50:12Z</time>
      </trkpt>
      <trkpt lat="43.145440" lon="-4.930480">
        <ele>947.708</ele>
        <time>2020-05-22T20:50:32Z</time>
      </trkpt>
      <trkpt lat="43.145490" lon="-4.930380">
        <ele>946.751</ele>
        <time>2020-05-22T20:50:52Z</time>
      </trkpt>
      <trkpt lat="43.145510" lon="-4.930340">
        <ele>946.216</ele>
        <time>2020-05-22T20:51:12Z</time>
      </trkpt>
      <trkpt lat="43.145570" lon="-4.930230">
        <ele>945.393</ele>
        <time>2020-05-22T20:51:32Z</time>
      </trkpt>
      <trkpt lat="43.145610" lon="-4.930140">
        <ele>945.619</ele>
        <time>2020-05-22T20:51:52Z</time>
      </trkpt>
      <trkpt lat="43.145630" lon="-4.930110">
        <ele>945.658</ele>
        <time>2020-05-22T20:52:12Z</time>
      </trkpt>
      <trkpt lat="43.145680" lon="-4.930040">
        <ele>945.435</ele>
        <time>2020-05-22T20:52:32Z</time>
      </trkpt>
      <trkpt lat="43.145780" lon="-4.929930">
        <ele>945.850</ele>
        <time>2020-05-22T20:52:52Z</time>
      </trkpt>
      <trkpt lat="43.145950" lon="-4.929750">
        <ele>945.224</ele>
        <time>2020-05-22T20:53:12Z</time>
      </trkpt>
      <trkpt lat="43.146030" lon="-4.929660">
        <ele>944.643</ele>
        <time>2020-05-22T20:53:32Z</time>
      </trkpt>
      <trkpt lat="43.146230" lon="-4.929430">
        <ele>942.864</ele>
        <time>2020-05-22T20:53:52Z</time>
      </trkpt>
      <trkpt lat="43.146270" lon="-4.929380">
        <ele>942.910</ele>
        <time>2020-05-22T20:54:12Z</time>
      </trkpt>
      <trkpt lat="43.146440" lon="-4.929180">
        <ele>942.708</ele>
        <time>2020-05-22T20:54:32Z</time>
      </trkpt>
      <trkpt lat="43.146580" lon="-4.928990">
        <ele>942.538</ele>
        <time>2020-05-22T20:54:52Z</time>
      </trkpt>
      <trkpt lat="43.146700" lon="-4.928820">
        <ele>941.223</ele>
        <time>2020-05-22T20:55:12Z</time>
      </trkpt>
      <trkpt lat="43.146750" lon="-4.928750">
        <ele>941.520</ele>
        <time>2020-05-22T20:55:32Z</time>
      </trkpt>
      <trkpt lat="43.146820" lon="-4.928660">
        <ele>940.946</ele>
        <time>2020-05-22T20:55:52Z</time>
      </trkpt>
      <trkpt lat="43.146940" lon="-4.928510">
        <ele>939.725</ele>
        <time>2020-05-22T20:56:12Z</time>
      </trkpt>
      <trkpt lat="43.147000" lon="-4.928430">
        <ele>940.512</ele>
        <time>2020-05-22T20:56:32Z</time>
      </trkpt>
      <trkpt lat="43.147170" lon="-4.928220">
        <ele>940.177</ele>
        <time>2020-05-22T20:56:52Z</time>
      </trkpt>
      <trkpt lat="43.147290" lon="-4.928090">
        <ele>939.021</ele>
        <time>2020-05-22T20:57:12Z</time>
      </trkpt>
      <trkpt lat="43.147410" lon="-4.927960">
        <ele>938.921</ele>
        <time>2020-05-22T20:57:32Z</time>
      </trkpt>
      <trkpt lat="43.147430" lon="-4.927940">
        <ele>938.641</ele>
        <time>2020-05-22T20:57:52Z</time>
      </trkpt>
      <trkpt lat="43.147610" lon="-4.927740">
        <ele>937.605</ele>
        <time>2020-05-22T20:58:12Z</time>
      </trkpt>
      <trkpt lat="43.147730" lon="-4.927620">
        <ele>938.108</ele>
        <time>2020-05-22T20:58:32Z</time>
      </trkpt>
      <trkpt lat="43.147810" lon="-4.927500">
        <ele>938.276</ele>
        <time>2020-05-22T20:58:52Z</time>
      </trkpt>
      <trkpt lat="43.147840" lon="-4.927460">
        <ele>937.921</ele>
        <time>2020-05-22T20:59:12Z</time>
      </trkpt>
      <trkpt lat="43.147860" lon="-4.927410">
        <ele>937.978</ele>
        <time>2020-05-22T20:59:32Z</time>
      </trkpt>
      <trkpt lat="43.147890" lon="-4.927320">
        <ele>938.024</ele>
        <time>2020-05-22T20:59:52Z</time>
      </trkpt>
      <trkpt lat="43.147910" lon="-4.927200">
        <ele>938.283</ele>
        <time>2020-05-22T21:00:12Z</time>
      </trkpt>
      <trkpt lat="43.147920" lon="-4.927060">
        <ele>937.390</ele>
        <time>2020-05-22T21:00:32Z</time>
      </trkpt>
      <trkpt lat="43.147940" lon="-4.926850">
        <ele>935.945</ele>
        <time>2020-05-22T21:00:52Z</time>
      </trkpt>
      <trkpt lat="43.147970" lon="-4.926500">
        <ele>935.579</ele>
        <time>2020-05-22T21:01:12Z</time>
      </trkpt>
      <trkpt lat="43.148030" lon="-4.926100">
        <ele>932.728</ele>
        <time>2020-05-22T21:01:32Z</time>
      </trkpt>
      <trkpt lat="43.148070" lon="-4.925900">
        <ele>932.289</ele>
        <time>2020-05-22T21:01:52Z</time>
      </trkpt>
      <trkpt lat="43.148100" lon="-4.925790">
        <ele>933.217</ele>
        <time>2020-05-22T21:02:12Z</time>
      </trkpt>
      <trkpt lat="43.148140" lon="-4.925700">
        <ele>934.208</ele>
        <time>2020-05-22T21:02:32Z</time>
      </trkpt>
      <trkpt lat="43.148280" lon="-4.925410">
        <ele>932.476</ele>
        <time>2020-05-22T21:02:52Z</time>
      </trkpt>
      <trkpt lat="43.148360" lon="-4.925260">
        <ele>930.931</ele>
        <time>2020-05-22T21:03:12Z</time>
      </trkpt>
      <trkpt lat="43.148400" lon="-4.925170">
        <ele>931.958</ele>
        <time>2020-05-22T21:03:32Z</time>
      </trkpt>
      <trkpt lat="43.148400" lon="-4.925160">
        <ele>932.174</ele>
        <time>2020-05-22T21:03:52Z</time>
      </trkpt>
      <trkpt lat="43.148430" lon="-4.925070">
        <ele>932.823</ele>
        <time>2020-05-22T21:04:12Z</time>
      </trkpt>
      <trkpt lat="43.148450" lon="-4.924980">
        <ele>933.270</ele>
        <time>2020-05-22T21:04:32Z</time>
      </trkpt>
      <trkpt lat="43.148480" lon="-4.924800">
        <ele>932.395</ele>
        <time>2020-05-22T21:04:52Z</time>
      </trkpt>
      <trkpt lat="43.148480" lon="-4.924690">
        <ele>932.639</ele>
        <time>2020-05-22T21:05:12Z</time>
      </trkpt>
      <trkpt lat="43.148500" lon="-4.924370">
        <ele>931.037</ele>
        <time>2020-05-22T21:05:32Z</time>
      </trkpt>
      <trkpt lat="43.148520" lon="-4.923950">
        <ele>928.849</ele>
        <time>2020-05-22T21:05:52Z</time>
      </trkpt>
      <trkpt lat="43.148520" lon="-4.923930">
        <ele>928.713</ele>
        <time>2020-05-22T21:06:12Z</time>
      </trkpt>
      <trkpt lat="43.148520" lon="-4.923710">
        <ele>928.608</ele>
        <time>2020-05-22T21:06:32Z</time>
      </trkpt>
      <trkpt lat="43.148530" lon="-4.923560">
        <ele>928.667</ele>
        <time>2020-05-22T21:06:52Z</time>
      </trkpt>
      <trkpt lat="43.148540" lon="-4.923450">
        <ele>929.032</ele>
        <time>2020-05-22T21:07:12Z</time>
      </trkpt>
      <trkpt lat="43.148550" lon="-4.923360">
        <ele>929.269</ele>
        <time>2020-05-22T21:07:32Z</time>
      </trkpt>
      <trkpt lat="43.148590" lon="-4.923230">
        <ele>928.975</ele>
        <time>2020-05-22T21:07:52Z</time>
      </trkpt>
      <trkpt lat="43.148640" lon="-4.923110">
        <ele>928.414</ele>
        <time>2020-05-22T21:08:12Z</time>
      </trkpt>
      <trkpt lat="43.148680" lon="-4.923010">
        <ele>928.471</ele>
        <time>2020-05-22T21:08:32Z</time>
      </trkpt>
      <trkpt lat="43.148750" lon="-4.922850">
        <ele>928.376</ele>
        <time>2020-05-22T21:08:52Z</time>
      </trkpt>
      <trkpt lat="43.148860" lon="-4.922590">
        <ele>926.580</ele>
        <time>2020-05-22T21:09:12Z</time>
      </trkpt>
      <trkpt lat="43.148910" lon="-4.922490">
        <ele>925.737</ele>
        <time>2020-05-22T21:09:32Z</time>
      </trkpt>
      <trkpt lat="43.148960" lon="-4.922410">
        <ele>925.949</ele>
        <time>2020-05-22T21:09:52Z</time>
      </trkpt>
      <trkpt lat="43.149020" lon="-4.922330">
        <ele>925.513</ele>
        <time>2020-05-22T21:10:12Z</time>
      </trkpt>
      <trkpt lat="43.149090" lon="-4.922270">
        <ele>924.108</ele>
        <time>2020-05-22T21:10:32Z</time>
      </trkpt>
      <trkpt lat="43.149110" lon="-4.922250">
        <ele>923.747</ele>
        <time>2020-05-22T21:10:52Z</time>
      </trkpt>
      <trkpt lat="43.149180" lon="-4.922200">
        <ele>922.622</ele>
        <time>2020-05-22T21:11:12Z</time>
      </trkpt>
      <trkpt lat="43.149280" lon="-4.922150">
        <ele>922.939</ele>
        <time>2020-05-22T21:11:32Z</time>
      </trkpt>
      <trkpt lat="43.149390" lon="-4.922110">
        <ele>922.615</ele>
        <time>2020-05-22T21:11:52Z</time>
      </trkpt>
      <trkpt lat="43.149450" lon="-4.922080">
        <ele>922.554</ele>
        <time>2020-05-22T21:12:12Z</time>
      </trkpt>
      <trkpt lat="43.149800" lon="-4.921960">
        <ele>921.221</ele>
        <time>2020-05-22T21:12:32Z</time>
      </trkpt>
      <trkpt lat="43.149820" lon="-4.921960">
        <ele>921.196</ele>
        <time>2020-05-22T21:12:52Z</time>
      </trkpt>
      <trkpt lat="43.150030" lon="-4.921880">
        <ele>921.410</ele>
        <time>2020-05-22T21:13:12Z</time>
      </trkpt>
      <trkpt lat="43.150110" lon="-4.921840">
        <ele>921.125</ele>
        <time>2020-05-22T21:13:32Z</time>
      </trkpt>
      <trkpt lat="43.150160" lon="-4.921810">
        <ele>920.826</ele>
        <time>2020-05-22T21:13:52Z</time>
      </trkpt>
      <trkpt lat="43.150200" lon="-4.921770">
        <ele>920.608</ele>
        <time>2020-05-22T21:14:12Z</time>
      </trkpt>
      <trkpt lat="43.150250" lon="-4.921720">
        <ele>920.108</ele>
        <time>2020-05-22T21:14:32Z</time>
      </trkpt>
      <trkpt lat="43.150290" lon="-4.921660">
        <ele>919.926</ele>
        <time>2020-05-22T21:14:52Z</time>
      </trkpt>
      <trkpt lat="43.150320" lon="-4.921600">
        <ele>920.231</ele>
        <time>2020-05-22T21:15:12Z</time>
      </trkpt>
      <trkpt lat="43.150350" lon="-4.921530">
        <ele>920.428</ele>
        <time>2020-05-22T21:15:32Z</time>
      </trkpt>
      <trkpt lat="43.150370" lon="-4.921460">
        <ele>920.754</ele>
        <time>2020-05-22T21:15:52Z</time>
      </trkpt>
      <trkpt lat="43.150390" lon="-4.921340">
        <ele>920.993</ele>
        <time>2020-05-22T21:16:12Z</time>
      </trkpt>
      <trkpt lat="43.150400" lon="-4.921300">
        <ele>920.870</ele>
        <time>2020-05-22T21:16:32Z</time>
      </trkpt>
      <trkpt lat="43.150430" lon="-4.921060">
        <ele>920.555</ele>
        <time>2020-05-22T21:16:52Z</time>
      </trkpt>
      <trkpt lat="43.150480" lon="-4.920570">
        <ele>919.149</ele>
        <time>2020-05-22T21:17:12Z</time>
      </trkpt>
      <trkpt lat="43.150500" lon="-4.920470">
        <ele>919.239</ele>
        <time>2020-05-22T21:17:32Z</time>
      </trkpt>
      <trkpt lat="43.150510" lon="-4.920320">
        <ele>919.601</ele>
        <time>2020-05-22T21:17:52Z</time>
      </trkpt>
      <trkpt lat="43.150540" lon="-4.920040">
        <ele>921.021</ele>
        <time>2020-05-22T21:18:12Z</time>
      </trkpt>
      <trkpt lat="43.150590" lon="-4.919610">
        <ele>922.108</ele>
        <time>2020-05-22T21:18:32Z</time>
      </trkpt>
      <trkpt lat="43.150600" lon="-4.919590">
        <ele>922.197</ele>
        <time>2020-05-22T21:18:52Z</time>
      </trkpt>
      <trkpt lat="43.150630" lon="-4.919350">
        <ele>922.162</ele>
        <time>2020-05-22T21:19:12Z</time>
      </trkpt>
      <trkpt lat="43.150630" lon="-4.919280">
        <ele>922.019</ele>
        <time>2020-05-22T21:19:32Z</time>
      </trkpt>
      <trkpt lat="43.150650" lon="-4.919100">
        <ele>921.625</ele>
        <time>2020-05-22T21:19:52Z</time>
      </trkpt>
      <trkpt lat="43.150650" lon="-4.919030">
        <ele>921.574</ele>
        <time>2020-05-22T21:20:12Z</time>
      </trkpt>
      <trkpt lat="43.150670" lon="-4.918880">
        <ele>921.021</ele>
        <time>2020-05-22T21:20:32Z</time>
      </trkpt>
      <trkpt lat="43.150680" lon="-4.918800">
        <ele>920.986</ele>
        <time>2020-05-22T21:20:52Z</time>
      </trkpt>
      <trkpt lat="43.150700" lon="-4.918740">
        <ele>920.780</ele>
        <time>2020-05-22T21:21:12Z</time>
      </trkpt>
      <trkpt lat="43.150730" lon="-4.918670">
        <ele>920.476</ele>
        <time>2020-05-22T21:21:32Z</time>
      </trkpt>
      <trkpt lat="43.150810" lon="-4.918540">
        <ele>919.890</ele>
        <time>2020-05-22T21:21:52Z</time>
      </trkpt>
      <trkpt lat="43.150860" lon="-4.918480">
        <ele>919.919</ele>
        <time>2020-05-22T21:22:12Z</time>
      </trkpt>
      <trkpt lat="43.150990" lon="-4.918320">
        <ele>920.508</ele>
        <time>2020-05-22T21:22:32Z</time>
      </trkpt>
      <trkpt lat="43.151060" lon="-4.918230">
        <ele>920.641</ele>
        <time>2020-05-22T21:22:52Z</time>
      </trkpt>
      <trkpt lat="43.151140" lon="-4.918130">
        <ele>920.776</ele>
        <time>2020-05-22T21:23:12Z</time>
      </trkpt>
      <trkpt lat="43.151260" lon="-4.917950">
        <ele>921.493</ele>
        <time>2020-05-22T21:23:32Z</time>
      </trkpt>
      <trkpt lat="43.151340" lon="-4.917810">
        <ele>922.719</ele>
        <time>2020-05-22T21:23:52Z</time>
      </trkpt>
      <trkpt lat="43.151420" lon="-4.917680">
        <ele>923.458</ele>
        <time>2020-05-22T21:24:12Z</time>
      </trkpt>
      <trkpt lat="43.151470" lon="-4.917600">
        <ele>923.645</ele>
        <time>2020-05-22T21:24:32Z</time>
      </trkpt>
      <trkpt lat="43.151510" lon="-4.917560">
        <ele>923.880</ele>
        <time>2020-05-22T21:24:52Z</time>
      </trkpt>
      <trkpt lat="43.151520" lon="-4.917550">
        <ele>923.874</ele>
        <time>2020-05-22T21:25:12Z</time>
      </trkpt>
      <trkpt lat="43.151520" lon="-4.917530">
        <ele>923.976</ele>
        <time>2020-05-22T21:25:32Z</time>
      </trkpt>
      <trkpt lat="43.151530" lon="-4.917500">
        <ele>924.090</ele>
        <time>2020-05-22T21:25:52Z</time>
      </trkpt>
      <trkpt lat="43.151520" lon="-4.917480">
        <ele>924.119</ele>
        <time>2020-05-22T21:26:12Z</time>
      </trkpt>
      <trkpt lat="43.151510" lon="-4.917430">
        <ele>924.408</ele>
        <time>2020-05-22T21:26:32Z</time>
      </trkpt>
      <trkpt lat="43.151500" lon="-4.917350">
        <ele>924.931</ele>
        <time>2020-05-22T21:26:52Z</time>
      </trkpt>
      <trkpt lat="43.151480" lon="-4.917290">
        <ele>925.336</ele>
        <time>2020-05-22T21:27:12Z</time>
      </trkpt>
      <trkpt lat="43.151460" lon="-4.917230">
        <ele>925.753</ele>
        <time>2020-05-22T21:27:32Z</time>
      </trkpt>
      <trkpt lat="43.151450" lon="-4.917170">
        <ele>925.919</ele>
        <time>2020-05-22T21:27:52Z</time>
      </trkpt>
      <trkpt lat="43.151440" lon="-4.917170">
        <ele>926.058</ele>
        <time>2020-05-22T21:28:12Z</time>
      </trkpt>
      <trkpt lat="43.151430" lon="-4.917090">
        <ele>926.335</ele>
        <time>2020-05-22T21:28:32Z</time>
      </trkpt>
      <trkpt lat="43.151420" lon="-4.917030">
        <ele>926.510</ele>
        <time>2020-05-22T21:28:52Z</time>
      </trkpt>
      <trkpt lat="43.151420" lon="-4.917000">
        <ele>926.634</ele>
        <time>2020-05-22T21:29:12Z</time>
      </trkpt>
      <trkpt lat="43.151420" lon="-4.916970">
        <ele>926.778</ele>
        <time>2020-05-22T21:29:32Z</time>
      </trkpt>
      <trkpt lat="43.151430" lon="-4.916930">
        <ele>926.833</ele>
        <time>2020-05-22T21:29:52Z</time>
      </trkpt>
      <trkpt lat="43.151440" lon="-4.916890">
        <ele>926.926</ele>
        <time>2020-05-22T21:30:12Z</time>
      </trkpt>
      <trkpt lat="43.151450" lon="-4.916850">
        <ele>927.008</ele>
        <time>2020-05-22T21:30:32Z</time>
      </trkpt>
      <trkpt lat="43.151470" lon="-4.916800">
        <ele>927.111</ele>
        <time>2020-05-22T21:30:52Z</time>
      </trkpt>
      <trkpt lat="43.151490" lon="-4.916750">
        <ele>927.246</ele>
        <time>2020-05-22T21:31:12Z</time>
      </trkpt>
      <trkpt lat="43.151500" lon="-4.916710">
        <ele>927.423</ele>
        <time>2020-05-22T21:31:32Z</time>
      </trkpt>
      <trkpt lat="43.151520" lon="-4.916680">
        <ele>927.519</ele>
        <time>2020-05-22T21:31:52Z</time>
      </trkpt>
      <trkpt lat="43.151540" lon="-4.916640">
        <ele>927.648</ele>
        <time>2020-05-22T21:32:12Z</time>
      </trkpt>
      <trkpt lat="43.151570" lon="-4.916600">
        <ele>927.695</ele>
        <time>2020-05-22T21:32:32Z</time>
      </trkpt>
      <trkpt lat="43.151600" lon="-4.916570">
        <ele>927.680</ele>
        <time>2020-05-22T21:32:52Z</time>
      </trkpt>
      <trkpt lat="43.151640" lon="-4.916550">
        <ele>927.554</ele>
        <time>2020-05-22T21:33:12Z</time>
      </trkpt>
      <trkpt lat="43.151680" lon="-4.916540">
        <ele>927.491</ele>
        <time>2020-05-22T21:33:32Z</time>
      </trkpt>
      <trkpt lat="43.151850" lon="-4.916520">
        <ele>927.281</ele>
        <time>2020-05-22T21:33:52Z</time>
      </trkpt>
      <trkpt lat="43.152150" lon="-4.916490">
        <ele>926.319</ele>
        <time>2020-05-22T21:34:12Z</time>
      </trkpt>
      <trkpt lat="43.152210" lon="-4.916490">
        <ele>926.008</ele>
        <time>2020-05-22T21:34:32Z</time>
      </trkpt>
      <trkpt lat="43.152250" lon="-4.916480">
        <ele>925.963</ele>
        <time>2020-05-22T21:34:52Z</time>
      </trkpt>
      <trkpt lat="43.152290" lon="-4.916460">
        <ele>926.098</ele>
        <time>2020-05-22T21:35:12Z</time>
      </trkpt>
      <trkpt lat="43.152350" lon="-4.916430">
        <ele>926.235</ele>
        <time>2020-05-22T21:35:32Z</time>
      </trkpt>
      <trkpt lat="43.152480" lon="-4.916360">
        <ele>926.421</ele>
        <time>2020-05-22T21:35:52Z</time>
      </trkpt>
      <trkpt lat="43.152580" lon="-4.916270">
        <ele>926.780</ele>
        <time>2020-05-22T21:36:12Z</time>
      </trkpt>
      <trkpt lat="43.152700" lon="-4.916160">
        <ele>927.047</ele>
        <time>2020-05-22T21:36:32Z</time>
      </trkpt>
      <trkpt lat="43.152740" lon="-4.916120">
        <ele>927.222</ele>
        <time>2020-05-22T21:36:52Z</time>
      </trkpt>
      <trkpt lat="43.152800" lon="-4.916090">
        <ele>927.136</ele>
        <time>2020-05-22T21:37:12Z</time>
      </trkpt>
      <trkpt lat="43.152820" lon="-4.916080">
        <ele>927.012</ele>
        <time>2020-05-22T21:37:32Z</time>
      </trkpt>
      <trkpt lat="43.152819" lon="-4.916080">
        <ele>927.032</ele>
        <time>2020-05-22T21:37:52Z</time>
      </trkpt>
      <trkpt lat="43.152850" lon="-4.916060">
        <ele>927.005</ele>
        <time>2020-05-22T21:38:12Z</time>
      </trkpt>
      <trkpt lat="43.152930" lon="-4.916040">
        <ele>926.708</ele>
        <time>2020-05-22T21:38:32Z</time>
      </trkpt>
      <trkpt lat="43.153030" lon="-4.916030">
        <ele>926.165</ele>
        <time>2020-05-22T21:38:52Z</time>
      </trkpt>
      <trkpt lat="43.153150" lon="-4.916010">
        <ele>925.950</ele>
        <time>2020-05-22T21:39:12Z</time>
      </trkpt>
      <trkpt lat="43.153240" lon="-4.916000">
        <ele>925.897</ele>
        <time>2020-05-22T21:39:32Z</time>
      </trkpt>
      <trkpt lat="43.153280" lon="-4.915990">
        <ele>925.963</ele>
        <time>2020-05-22T21:39:52Z</time>
      </trkpt>
      <trkpt lat="43.153310" lon="-4.915980">
        <ele>925.942</ele>
        <time>2020-05-22T21:40:12Z</time>
      </trkpt>
      <trkpt lat="43.153370" lon="-4.915950">
        <ele>926.149</ele>
        <time>2020-05-22T21:40:32Z</time>
      </trkpt>
      <trkpt lat="43.153380" lon="-4.915950">
        <ele>926.084</ele>
        <time>2020-05-22T21:40:52Z</time>
      </trkpt>
      <trkpt lat="43.153450" lon="-4.915920">
        <ele>925.968</ele>
        <time>2020-05-22T21:41:12Z</time>
      </trkpt>
      <trkpt lat="43.153540" lon="-4.915880">
        <ele>925.894</ele>
        <time>2020-05-22T21:41:32Z</time>
      </trkpt>
      <trkpt lat="43.153550" lon="-4.915880">
        <ele>925.857</ele>
        <time>2020-05-22T21:41:52Z</time>
      </trkpt>
      <trkpt lat="43.153760" lon="-4.915850">
        <ele>923.622</ele>
        <time>2020-05-22T21:42:12Z</time>
      </trkpt>
      <trkpt lat="43.153910" lon="-4.915820">
        <ele>922.308</ele>
        <time>2020-05-22T21:42:32Z</time>
      </trkpt>
      <trkpt lat="43.153970" lon="-4.915810">
        <ele>922.223</ele>
        <time>2020-05-22T21:42:52Z</time>
      </trkpt>
      <trkpt lat="43.154030" lon="-4.915800">
        <ele>922.188</ele>
        <time>2020-05-22T21:43:12Z</time>
      </trkpt>
      <trkpt lat="43.154160" lon="-4.915780">
        <ele>921.815</ele>
        <time>2020-05-22T21:43:32Z</time>
      </trkpt>
      <trkpt lat="43.154210" lon="-4.915780">
        <ele>921.241</ele>
        <time>2020-05-22T21:43:52Z</time>
      </trkpt>
      <trkpt lat="43.154250" lon="-4.915780">
        <ele>920.770</ele>
        <time>2020-05-22T21:44:12Z</time>
      </trkpt>
      <trkpt lat="43.154280" lon="-4.915770">
        <ele>920.677</ele>
        <time>2020-05-22T21:44:32Z</time>
      </trkpt>
      <trkpt lat="43.154380" lon="-4.915750">
        <ele>919.932</ele>
        <time>2020-05-22T21:44:52Z</time>
      </trkpt>
      <trkpt lat="43.154400" lon="-4.915740">
        <ele>919.996</ele>
        <time>2020-05-22T21:45:12Z</time>
      </trkpt>
      <trkpt lat="43.154470" lon="-4.915710">
        <ele>919.846</ele>
        <time>2020-05-22T21:45:32Z</time>
      </trkpt>
      <trkpt lat="43.154580" lon="-4.915670">
        <ele>919.688</ele>
        <time>2020-05-22T21:45:52Z</time>
      </trkpt>
      <trkpt lat="43.154680" lon="-4.915610">
        <ele>919.616</ele>
        <time>2020-05-22T21:46:12Z</time>
      </trkpt>
      <trkpt lat="43.154890" lon="-4.915500">
        <ele>919.008</ele>
        <time>2020-05-22T21:46:32Z</time>
      </trkpt>
      <trkpt lat="43.154910" lon="-4.915480">
        <ele>919.248</ele>
        <time>2020-05-22T21:46:52Z</time>
      </trkpt>
      <trkpt lat="43.155140" lon="-4.915360">
        <ele>917.123</ele>
        <time>2020-05-22T21:47:12Z</time>
      </trkpt>
      <trkpt lat="43.155240" lon="-4.915280">
        <ele>915.970</ele>
        <time>2020-05-22T21:47:32Z</time>
      </trkpt>
      <trkpt lat="43.155360" lon="-4.915190">
        <ele>916.286</ele>
        <time>2020-05-22T21:47:52Z</time>
      </trkpt>
      <trkpt lat="43.155590" lon="-4.915010">
        <ele>914.585</ele>
        <time>2020-05-22T21:48:12Z</time>
      </trkpt>
      <trkpt lat="43.155780" lon="-4.914860">
        <ele>915.182</ele>
        <time>2020-05-22T21:48:32Z</time>
      </trkpt>
      <trkpt lat="43.155810" lon="-4.914830">
        <ele>915.097</ele>
        <time>2020-05-22T21:48:52Z</time>
      </trkpt>
      <trkpt lat="43.155830" lon="-4.914800">
        <ele>915.081</ele>
        <time>2020-05-22T21:49:12Z</time>
      </trkpt>
      <trkpt lat="43.155870" lon="-4.914740">
        <ele>915.257</ele>
        <time>2020-05-22T21:49:32Z</time>
      </trkpt>
      <trkpt lat="43.155920" lon="-4.914640">
        <ele>915.800</ele>
        <time>2020-05-22T21:49:52Z</time>
      </trkpt>
      <trkpt lat="43.155940" lon="-4.914600">
        <ele>915.920</ele>
        <time>2020-05-22T21:50:12Z</time>
      </trkpt>
      <trkpt lat="43.156010" lon="-4.914460">
        <ele>916.008</ele>
        <time>2020-05-22T21:50:32Z</time>
      </trkpt>
      <trkpt lat="43.156030" lon="-4.914400">
        <ele>916.419</ele>
        <time>2020-05-22T21:50:52Z</time>
      </trkpt>
      <trkpt lat="43.156070" lon="-4.914300">
        <ele>916.434</ele>
        <time>2020-05-22T21:51:12Z</time>
      </trkpt>
      <trkpt lat="43.156100" lon="-4.914170">
        <ele>916.531</ele>
        <time>2020-05-22T21:51:32Z</time>
      </trkpt>
      <trkpt lat="43.156120" lon="-4.914060">
        <ele>916.797</ele>
        <time>2020-05-22T21:51:52Z</time>
      </trkpt>
      <trkpt lat="43.156130" lon="-4.913970">
        <ele>917.246</ele>
        <time>2020-05-22T21:52:12Z</time>
      </trkpt>
      <trkpt lat="43.156130" lon="-4.913900">
        <ele>917.783</ele>
        <time>2020-05-22T21:52:32Z</time>
      </trkpt>
      <trkpt lat="43.156110" lon="-4.913820">
        <ele>917.878</ele>
        <time>2020-05-22T21:52:52Z</time>
      </trkpt>
      <trkpt lat="43.156090" lon="-4.913760">
        <ele>918.622</ele>
        <time>2020-05-22T21:53:12Z</time>
      </trkpt>
      <trkpt lat="43.156090" lon="-4.913690">
        <ele>918.436</ele>
        <time>2020-05-22T21:53:32Z</time>
      </trkpt>
      <trkpt lat="43.156090" lon="-4.913630">
        <ele>918.217</ele>
        <time>2020-05-22T21:53:52Z</time>
      </trkpt>
      <trkpt lat="43.156080" lon="-4.913480">
        <ele>918.518</ele>
        <time>2020-05-22T21:54:12Z</time>
      </trkpt>
      <trkpt lat="43.156090" lon="-4.913440">
        <ele>918.008</ele>
        <time>2020-05-22T21:54:32Z</time>
      </trkpt>
      <trkpt lat="43.156090" lon="-4.913400">
        <ele>918.037</ele>
        <time>2020-05-22T21:54:52Z</time>
      </trkpt>
      <trkpt lat="43.156100" lon="-4.913350">
        <ele>917.562</ele>
        <time>2020-05-22T21:55:12Z</time>
      </trkpt>
      <trkpt lat="43.156120" lon="-4.913320">
        <ele>917.019</ele>
        <time>2020-05-22T21:55:32Z</time>
      </trkpt>
      <trkpt lat="43.156140" lon="-4.913300">
        <ele>917.115</ele>
        <time>2020-05-22T21:55:52Z</time>
      </trkpt>
      <trkpt lat="43.156170" lon="-4.913260">
        <ele>917.644</ele>
        <time>2020-05-22T21:56:12Z</time>
      </trkpt>
      <trkpt lat="43.156200" lon="-4.913240">
        <ele>917.971</ele>
        <time>2020-05-22T21:56:32Z</time>
      </trkpt>
      <trkpt lat="43.156240" lon="-4.913240">
        <ele>918.076</ele>
        <time>2020-05-22T21:56:52Z</time>
      </trkpt>
      <trkpt lat="43.156280" lon="-4.913230">
        <ele>918.320</ele>
        <time>2020-05-22T21:57:12Z</time>
      </trkpt>
      <trkpt lat="43.156320" lon="-4.913240">
        <ele>918.294</ele>
        <time>2020-05-22T21:57:32Z</time>
      </trkpt>
      <trkpt lat="43.156420" lon="-4.913280">
        <ele>917.557</ele>
        <time>2020-05-22T21:57:52Z</time>
      </trkpt>
      <trkpt lat="43.156530" lon="-4.913340">
        <ele>916.922</ele>
        <time>2020-05-22T21:58:12Z</time>
      </trkpt>
      <trkpt lat="43.156640" lon="-4.913380">
        <ele>917.708</ele>
        <time>2020-05-22T21:58:32Z</time>
      </trkpt>
      <trkpt lat="43.156700" lon="-4.913390">
        <ele>917.753</ele>
        <time>2020-05-22T21:58:52Z</time>
      </trkpt>
      <trkpt lat="43.156740" lon="-4.913400">
        <ele>917.228</ele>
        <time>2020-05-22T21:59:12Z</time>
      </trkpt>
      <trkpt lat="43.156810" lon="-4.913400">
        <ele>916.955</ele>
        <time>2020-05-22T21:59:32Z</time>
      </trkpt>
      <trkpt lat="43.156880" lon="-4.913380">
        <ele>917.361</ele>
        <time>2020-05-22T21:59:52Z</time>
      </trkpt>
      <trkpt lat="43.156920" lon="-4.913370">
        <ele>917.650</ele>
        <time>2020-05-22T22:00:12Z</time>
      </trkpt>
      <trkpt lat="43.157030" lon="-4.913320">
        <ele>918.487</ele>
        <time>2020-05-22T22:00:32Z</time>
      </trkpt>
      <trkpt lat="43.157050" lon="-4.913310">
        <ele>918.522</ele>
        <time>2020-05-22T22:00:52Z</time>
      </trkpt>
      <trkpt lat="43.157170" lon="-4.913250">
        <ele>919.496</ele>
        <time>2020-05-22T22:01:12Z</time>
      </trkpt>
      <trkpt lat="43.157380" lon="-4.913090">
        <ele>921.193</ele>
        <time>2020-05-22T22:01:32Z</time>
      </trkpt>
      <trkpt lat="43.157410" lon="-4.913070">
        <ele>921.065</ele>
        <time>2020-05-22T22:01:52Z</time>
      </trkpt>
      <trkpt lat="43.157530" lon="-4.912960">
        <ele>921.721</ele>
        <time>2020-05-22T22:02:12Z</time>
      </trkpt>
      <trkpt lat="43.157590" lon="-4.912910">
        <ele>922.008</ele>
        <time>2020-05-22T22:02:32Z</time>
      </trkpt>
      <trkpt lat="43.157690" lon="-4.912840">
        <ele>922.043</ele>
        <time>2020-05-22T22:02:52Z</time>
      </trkpt>
      <trkpt lat="43.157850" lon="-4.912720">
        <ele>921.768</ele>
        <time>2020-05-22T22:03:12Z</time>
      </trkpt>
      <trkpt lat="43.157930" lon="-4.912650">
        <ele>921.795</ele>
        <time>2020-05-22T22:03:32Z</time>
      </trkpt>
      <trkpt lat="43.158000" lon="-4.912570">
        <ele>922.371</ele>
        <time>2020-05-22T22:03:52Z</time>
      </trkpt>
      <trkpt lat="43.158060" lon="-4.912470">
        <ele>923.620</ele>
        <time>2020-05-22T22:04:12Z</time>
      </trkpt>
      <trkpt lat="43.158110" lon="-4.912390">
        <ele>923.947</ele>
        <time>2020-05-22T22:04:32Z</time>
      </trkpt>
      <trkpt lat="43.158140" lon="-4.912330">
        <ele>924.442</ele>
        <time>2020-05-22T22:04:52Z</time>
      </trkpt>
      <trkpt lat="43.158220" lon="-4.912170">
        <ele>924.936</ele>
        <time>2020-05-22T22:05:12Z</time>
      </trkpt>
      <trkpt lat="43.158270" lon="-4.912030">
        <ele>925.665</ele>
        <time>2020-05-22T22:05:32Z</time>
      </trkpt>
      <trkpt lat="43.158300" lon="-4.911980">
        <ele>925.568</ele>
        <time>2020-05-22T22:05:52Z</time>
      </trkpt>
      <trkpt lat="43.158320" lon="-4.911960">
        <ele>925.214</ele>
        <time>2020-05-22T22:06:12Z</time>
      </trkpt>
      <trkpt lat="43.158360" lon="-4.911890">
        <ele>926.208</ele>
        <time>2020-05-22T22:06:32Z</time>
      </trkpt>
      <trkpt lat="43.158420" lon="-4.911840">
        <ele>926.890</ele>
        <time>2020-05-22T22:06:52Z</time>
      </trkpt>
      <trkpt lat="43.158440" lon="-4.911820">
        <ele>927.045</ele>
        <time>2020-05-22T22:07:12Z</time>
      </trkpt>
      <trkpt lat="43.158470" lon="-4.911800">
        <ele>927.222</ele>
        <time>2020-05-22T22:07:32Z</time>
      </trkpt>
      <trkpt lat="43.158530" lon="-4.911770">
        <ele>927.288</ele>
        <time>2020-05-22T22:07:52Z</time>
      </trkpt>
      <trkpt lat="43.158590" lon="-4.911750">
        <ele>926.917</ele>
        <time>2020-05-22T22:08:12Z</time>
      </trkpt>
      <trkpt lat="43.158610" lon="-4.911740">
        <ele>926.934</ele>
        <time>2020-05-22T22:08:32Z</time>
      </trkpt>
      <trkpt lat="43.158760" lon="-4.911700">
        <ele>929.089</ele>
        <time>2020-05-22T22:08:52Z</time>
      </trkpt>
      <trkpt lat="43.158910" lon="-4.911660">
        <ele>931.093</ele>
        <time>2020-05-22T22:09:12Z</time>
      </trkpt>
      <trkpt lat="43.158960" lon="-4.911650">
        <ele>930.869</ele>
        <time>2020-05-22T22:09:32Z</time>
      </trkpt>
      <trkpt lat="43.159040" lon="-4.911620">
        <ele>931.104</ele>
        <time>2020-05-22T22:09:52Z</time>
      </trkpt>
      <trkpt lat="43.159110" lon="-4.911580">
        <ele>932.024</ele>
        <time>2020-05-22T22:10:12Z</time>
      </trkpt>
      <trkpt lat="43.159130" lon="-4.911560">
        <ele>932.608</ele>
        <time>2020-05-22T22:10:32Z</time>
      </trkpt>
      <trkpt lat="43.159240" lon="-4.911480">
        <ele>934.230</ele>
        <time>2020-05-22T22:10:52Z</time>
      </trkpt>
      <trkpt lat="43.159400" lon="-4.911360">
        <ele>935.275</ele>
        <time>2020-05-22T22:11:12Z</time>
      </trkpt>
      <trkpt lat="43.159450" lon="-4.911330">
        <ele>935.722</ele>
        <time>2020-05-22T22:11:32Z</time>
      </trkpt>
      <trkpt lat="43.159460" lon="-4.911330">
        <ele>935.788</ele>
        <time>2020-05-22T22:11:52Z</time>
      </trkpt>
      <trkpt lat="43.159530" lon="-4.911300">
        <ele>936.847</ele>
        <time>2020-05-22T22:12:12Z</time>
      </trkpt>
      <trkpt lat="43.159620" lon="-4.911290">
        <ele>936.714</ele>
        <time>2020-05-22T22:12:32Z</time>
      </trkpt>
      <trkpt lat="43.159640" lon="-4.911290">
        <ele>936.659</ele>
        <time>2020-05-22T22:12:52Z</time>
      </trkpt>
      <trkpt lat="43.159690" lon="-4.911290">
        <ele>936.443</ele>
        <time>2020-05-22T22:13:12Z</time>
      </trkpt>
      <trkpt lat="43.159760" lon="-4.911320">
        <ele>935.427</ele>
        <time>2020-05-22T22:13:32Z</time>
      </trkpt>
      <trkpt lat="43.159800" lon="-4.911340">
        <ele>935.068</ele>
        <time>2020-05-22T22:13:52Z</time>
      </trkpt>
      <trkpt lat="43.159860" lon="-4.911380">
        <ele>934.214</ele>
        <time>2020-05-22T22:14:12Z</time>
      </trkpt>
      <trkpt lat="43.159950" lon="-4.911470">
        <ele>933.108</ele>
        <time>2020-05-22T22:14:32Z</time>
      </trkpt>
      <trkpt lat="43.159980" lon="-4.911500">
        <ele>932.866</ele>
        <time>2020-05-22T22:14:52Z</time>
      </trkpt>
      <trkpt lat="43.160130" lon="-4.911640">
        <ele>931.821</ele>
        <time>2020-05-22T22:15:12Z</time>
      </trkpt>
      <trkpt lat="43.160250" lon="-4.911740">
        <ele>932.438</ele>
        <time>2020-05-22T22:15:32Z</time>
      </trkpt>
      <trkpt lat="43.160540" lon="-4.911980">
        <ele>932.814</ele>
        <time>2020-05-22T22:15:52Z</time>
      </trkpt>
      <trkpt lat="43.160560" lon="-4.911990">
        <ele>932.983</ele>
        <time>2020-05-22T22:16:12Z</time>
      </trkpt>
      <trkpt lat="43.160660" lon="-4.912060">
        <ele>933.530</ele>
        <time>2020-05-22T22:16:32Z</time>
      </trkpt>
      <trkpt lat="43.160720" lon="-4.912090">
        <ele>933.685</ele>
        <time>2020-05-22T22:16:52Z</time>
      </trkpt>
      <trkpt lat="43.160790" lon="-4.912120">
        <ele>933.639</ele>
        <time>2020-05-22T22:17:12Z</time>
      </trkpt>
      <trkpt lat="43.160860" lon="-4.912140">
        <ele>933.673</ele>
        <time>2020-05-22T22:17:32Z</time>
      </trkpt>
      <trkpt lat="43.160940" lon="-4.912150">
        <ele>933.885</ele>
        <time>2020-05-22T22:17:52Z</time>
      </trkpt>
      <trkpt lat="43.161020" lon="-4.912150">
        <ele>934.113</ele>
        <time>2020-05-22T22:18:12Z</time>
      </trkpt>
      <trkpt lat="43.161100" lon="-4.912140">
        <ele>934.708</ele>
        <time>2020-05-22T22:18:32Z</time>
      </trkpt>
      <trkpt lat="43.161160" lon="-4.912110">
        <ele>935.331</ele>
        <time>2020-05-22T22:18:52Z</time>
      </trkpt>
      <trkpt lat="43.161250" lon="-4.912070">
        <ele>935.736</ele>
        <time>2020-05-22T22:19:12Z</time>
      </trkpt>
      <trkpt lat="43.161250" lon="-4.912060">
        <ele>935.843</ele>
        <time>2020-05-22T22:19:32Z</time>
      </trkpt>
      <trkpt lat="43.161330" lon="-4.912000">
        <ele>936.139</ele>
        <time>2020-05-22T22:19:52Z</time>
      </trkpt>
      <trkpt lat="43.161430" lon="-4.911910">
        <ele>936.328</ele>
        <time>2020-05-22T22:20:12Z</time>
      </trkpt>
      <trkpt lat="43.161530" lon="-4.911800">
        <ele>936.535</ele>
        <time>2020-05-22T22:20:32Z</time>
      </trkpt>
      <trkpt lat="43.161540" lon="-4.911780">
        <ele>936.590</ele>
        <time>2020-05-22T22:20:52Z</time>
      </trkpt>
      <trkpt lat="43.161670" lon="-4.911610">
        <ele>935.494</ele>
        <time>2020-05-22T22:21:12Z</time>
      </trkpt>
      <trkpt lat="43.161700" lon="-4.911570">
        <ele>935.486</ele>
        <time>2020-05-22T22:21:32Z</time>
      </trkpt>
      <trkpt lat="43.161890" lon="-4.911350">
        <ele>931.260</ele>
        <time>2020-05-22T22:21:52Z</time>
      </trkpt>
      <trkpt lat="43.161940" lon="-4.911290">
        <ele>929.426</ele>
        <time>2020-05-22T22:22:12Z</time>
      </trkpt>
      <trkpt lat="43.161970" lon="-4.911260">
        <ele>928.608</ele>
        <time>2020-05-22T22:22:32Z</time>
      </trkpt>
      <trkpt lat="43.162010" lon="-4.911230">
        <ele>927.642</ele>
        <time>2020-05-22T22:22:52Z</time>
      </trkpt>
      <trkpt lat="43.162050" lon="-4.911200">
        <ele>926.687</ele>
        <time>2020-05-22T22:23:12Z</time>
      </trkpt>
      <trkpt lat="43.162100" lon="-4.911180">
        <ele>925.674</ele>
        <time>2020-05-22T22:23:32Z</time>
      </trkpt>
      <trkpt lat="43.162200" lon="-4.911150">
        <ele>923.640</ele>
        <time>2020-05-22T22:23:52Z</time>
      </trkpt>
      <trkpt lat="43.162250" lon="-4.911130">
        <ele>922.789</ele>
        <time>2020-05-22T22:24:12Z</time>
      </trkpt>
      <trkpt lat="43.162280" lon="-4.911120">
        <ele>922.266</ele>
        <time>2020-05-22T22:24:32Z</time>
      </trkpt>
      <trkpt lat="43.162310" lon="-4.911100">
        <ele>921.731</ele>
        <time>2020-05-22T22:24:52Z</time>
      </trkpt>
      <trkpt lat="43.162550" lon="-4.910900">
        <ele>919.065</ele>
        <time>2020-05-22T22:25:12Z</time>
      </trkpt>
      <trkpt lat="43.162740" lon="-4.910730">
        <ele>916.015</ele>
        <time>2020-05-22T22:25:32Z</time>
      </trkpt>
      <trkpt lat="43.162760" lon="-4.910700">
        <ele>915.865</ele>
        <time>2020-05-22T22:25:52Z</time>
      </trkpt>
      <trkpt lat="43.162840" lon="-4.910610">
        <ele>913.511</ele>
        <time>2020-05-22T22:26:12Z</time>
      </trkpt>
      <trkpt lat="43.162870" lon="-4.910560">
        <ele>912.408</ele>
        <time>2020-05-22T22:26:32Z</time>
      </trkpt>
      <trkpt lat="43.162880" lon="-4.910540">
        <ele>912.085</ele>
        <time>2020-05-22T22:26:52Z</time>
      </trkpt>
      <trkpt lat="43.162910" lon="-4.910480">
        <ele>910.960</ele>
        <time>2020-05-22T22:27:12Z</time>
      </trkpt>
      <trkpt lat="43.162960" lon="-4.910350">
        <ele>909.057</ele>
        <time>2020-05-22T22:27:32Z</time>
      </trkpt>
      <trkpt lat="43.162970" lon="-4.910330">
        <ele>908.643</ele>
        <time>2020-05-22T22:27:52Z</time>
      </trkpt>
      <trkpt lat="43.163030" lon="-4.910190">
        <ele>906.442</ele>
        <time>2020-05-22T22:28:12Z</time>
      </trkpt>
      <trkpt lat="43.163050" lon="-4.910130">
        <ele>905.869</ele>
        <time>2020-05-22T22:28:32Z</time>
      </trkpt>
      <trkpt lat="43.163070" lon="-4.910070">
        <ele>905.284</ele>
        <time>2020-05-22T22:28:52Z</time>
      </trkpt>
      <trkpt lat="43.163100" lon="-4.909970">
        <ele>904.418</ele>
        <time>2020-05-22T22:29:12Z</time>
      </trkpt>
      <trkpt lat="43.163110" lon="-4.909920">
        <ele>904.281</ele>
        <time>2020-05-22T22:29:32Z</time>
      </trkpt>
      <trkpt lat="43.163130" lon="-4.909880">
        <ele>903.661</ele>
        <time>2020-05-22T22:29:52Z</time>
      </trkpt>
      <trkpt lat="43.163170" lon="-4.909840">
        <ele>902.417</ele>
        <time>2020-05-22T22:30:12Z</time>
      </trkpt>
      <trkpt lat="43.163260" lon="-4.909760">
        <ele>899.908</ele>
        <time>2020-05-22T22:30:32Z</time>
      </trkpt>
      <trkpt lat="43.163310" lon="-4.909720">
        <ele>898.782</ele>
        <time>2020-05-22T22:30:52Z</time>
      </trkpt>
      <trkpt lat="43.163340" lon="-4.909680">
        <ele>897.957</ele>
        <time>2020-05-22T22:31:12Z</time>
      </trkpt>
      <trkpt lat="43.163370" lon="-4.909650">
        <ele>897.064</ele>
        <time>2020-05-22T22:31:32Z</time>
      </trkpt>
      <trkpt lat="43.163390" lon="-4.909600">
        <ele>896.590</ele>
        <time>2020-05-22T22:31:52Z</time>
      </trkpt>
      <trkpt lat="43.163410" lon="-4.909560">
        <ele>896.029</ele>
        <time>2020-05-22T22:32:12Z</time>
      </trkpt>
      <trkpt lat="43.163470" lon="-4.909440">
        <ele>894.666</ele>
        <time>2020-05-22T22:32:32Z</time>
      </trkpt>
      <trkpt lat="43.163510" lon="-4.909340">
        <ele>893.171</ele>
        <time>2020-05-22T22:32:52Z</time>
      </trkpt>
      <trkpt lat="43.163530" lon="-4.909280">
        <ele>892.585</ele>
        <time>2020-05-22T22:33:12Z</time>
      </trkpt>
      <trkpt lat="43.163560" lon="-4.909230">
        <ele>891.595</ele>
        <time>2020-05-22T22:33:32Z</time>
      </trkpt>
      <trkpt lat="43.163580" lon="-4.909200">
        <ele>890.949</ele>
        <time>2020-05-22T22:33:52Z</time>
      </trkpt>
      <trkpt lat="43.163590" lon="-4.909190">
        <ele>890.623</ele>
        <time>2020-05-22T22:34:12Z</time>
      </trkpt>
      <trkpt lat="43.163600" lon="-4.909190">
        <ele>890.308</ele>
        <time>2020-05-22T22:34:32Z</time>
      </trkpt>
      <trkpt lat="43.163650" lon="-4.909180">
        <ele>889.733</ele>
        <time>2020-05-22T22:34:52Z</time>
      </trkpt>
      <trkpt lat="43.163760" lon="-4.909140">
        <ele>888.798</ele>
        <time>2020-05-22T22:35:12Z</time>
      </trkpt>
      <trkpt lat="43.163770" lon="-4.909140">
        <ele>888.655</ele>
        <time>2020-05-22T22:35:32Z</time>
      </trkpt>
      <trkpt lat="43.163810" lon="-4.909120">
        <ele>888.131</ele>
        <time>2020-05-22T22:35:52Z</time>
      </trkpt>
      <trkpt lat="43.163840" lon="-4.909090">
        <ele>887.410</ele>
        <time>2020-05-22T22:36:12Z</time>
      </trkpt>
      <trkpt lat="43.163860" lon="-4.909060">
        <ele>886.867</ele>
        <time>2020-05-22T22:36:32Z</time>
      </trkpt>
      <trkpt lat="43.163880" lon="-4.909020">
        <ele>886.052</ele>
        <time>2020-05-22T22:36:52Z</time>
      </trkpt>
      <trkpt lat="43.163910" lon="-4.908960">
        <ele>884.516</ele>
        <time>2020-05-22T22:37:12Z</time>
      </trkpt>
      <trkpt lat="43.163930" lon="-4.908890">
        <ele>883.017</ele>
        <time>2020-05-22T22:37:32Z</time>
      </trkpt>
      <trkpt lat="43.163940" lon="-4.908840">
        <ele>882.587</ele>
        <time>2020-05-22T22:37:52Z</time>
      </trkpt>
      <trkpt lat="43.163960" lon="-4.908750">
        <ele>881.515</ele>
        <time>2020-05-22T22:38:12Z</time>
      </trkpt>
      <trkpt lat="43.163960" lon="-4.908740">
        <ele>881.408</ele>
        <time>2020-05-22T22:38:32Z</time>
      </trkpt>
      <trkpt lat="43.163960" lon="-4.908670">
        <ele>881.065</ele>
        <time>2020-05-22T22:38:52Z</time>
      </trkpt>
      <trkpt lat="43.163970" lon="-4.908610">
        <ele>880.440</ele>
        <time>2020-05-22T22:39:12Z</time>
      </trkpt>
      <trkpt lat="43.163980" lon="-4.908550">
        <ele>880.287</ele>
        <time>2020-05-22T22:39:32Z</time>
      </trkpt>
      <trkpt lat="43.163990" lon="-4.908510">
        <ele>880.093</ele>
        <time>2020-05-22T22:39:52Z</time>
      </trkpt>
      <trkpt lat="43.164000" lon="-4.908480">
        <ele>879.852</ele>
        <time>2020-05-22T22:40:12Z</time>
      </trkpt>
      <trkpt lat="43.164020" lon="-4.908410">
        <ele>879.429</ele>
        <time>2020-05-22T22:40:32Z</time>
      </trkpt>
      <trkpt lat="43.164060" lon="-4.908310">
        <ele>878.894</ele>
        <time>2020-05-22T22:40:52Z</time>
      </trkpt>
      <trkpt lat="43.164070" lon="-4.908290">
        <ele>878.718</ele>
        <time>2020-05-22T22:41:12Z</time>
      </trkpt>
      <trkpt lat="43.164150" lon="-4.908070">
        <ele>878.396</ele>
        <time>2020-05-22T22:41:32Z</time>
      </trkpt>
      <trkpt lat="43.164240" lon="-4.907860">
        <ele>876.631</ele>
        <time>2020-05-22T22:41:52Z</time>
      </trkpt>
      <trkpt lat="43.164260" lon="-4.907810">
        <ele>876.124</ele>
        <time>2020-05-22T22:42:12Z</time>
      </trkpt>
      <trkpt lat="43.164380" lon="-4.907540">
        <ele>875.008</ele>
        <time>2020-05-22T22:42:32Z</time>
      </trkpt>
      <trkpt lat="43.164530" lon="-4.907230">
        <ele>873.883</ele>
        <time>2020-05-22T22:42:52Z</time>
      </trkpt>
      <trkpt lat="43.164670" lon="-4.906920">
        <ele>872.968</ele>
        <time>2020-05-22T22:43:12Z</time>
      </trkpt>
      <trkpt lat="43.164780" lon="-4.906670">
        <ele>871.345</ele>
        <time>2020-05-22T22:43:32Z</time>
      </trkpt>
      <trkpt lat="43.164800" lon="-4.906580">
        <ele>870.821</ele>
        <time>2020-05-22T22:43:52Z</time>
      </trkpt>
      <trkpt lat="43.164820" lon="-4.906470">
        <ele>870.160</ele>
        <time>2020-05-22T22:44:12Z</time>
      </trkpt>
      <trkpt lat="43.164840" lon="-4.906360">
        <ele>869.537</ele>
        <time>2020-05-22T22:44:32Z</time>
      </trkpt>
      <trkpt lat="43.164840" lon="-4.906350">
        <ele>869.692</ele>
        <time>2020-05-22T22:44:52Z</time>
      </trkpt>
      <trkpt lat="43.164860" lon="-4.906270">
        <ele>869.686</ele>
        <time>2020-05-22T22:45:12Z</time>
      </trkpt>
      <trkpt lat="43.164890" lon="-4.906210">
        <ele>869.498</ele>
        <time>2020-05-22T22:45:32Z</time>
      </trkpt>
      <trkpt lat="43.164920" lon="-4.906150">
        <ele>869.615</ele>
        <time>2020-05-22T22:45:52Z</time>
      </trkpt>
      <trkpt lat="43.164930" lon="-4.906140">
        <ele>869.626</ele>
        <time>2020-05-22T22:46:12Z</time>
      </trkpt>
      <trkpt lat="43.164960" lon="-4.906080">
        <ele>870.108</ele>
        <time>2020-05-22T22:46:32Z</time>
      </trkpt>
      <trkpt lat="43.165040" lon="-4.905980">
        <ele>870.663</ele>
        <time>2020-05-22T22:46:52Z</time>
      </trkpt>
      <trkpt lat="43.165050" lon="-4.905960">
        <ele>870.858</ele>
        <time>2020-05-22T22:47:12Z</time>
      </trkpt>
      <trkpt lat="43.165080" lon="-4.905920">
        <ele>871.025</ele>
        <time>2020-05-22T22:47:32Z</time>
      </trkpt>
      <trkpt lat="43.165110" lon="-4.905870">
        <ele>871.441</ele>
        <time>2020-05-22T22:47:52Z</time>
      </trkpt>
      <trkpt lat="43.165150" lon="-4.905780">
        <ele>871.850</ele>
        <time>2020-05-22T22:48:12Z</time>
      </trkpt>
      <trkpt lat="43.165180" lon="-4.905680">
        <ele>872.137</ele>
        <time>2020-05-22T22:48:32Z</time>
      </trkpt>
      <trkpt lat="43.165210" lon="-4.905610">
        <ele>872.082</ele>
        <time>2020-05-22T22:48:52Z</time>
      </trkpt>
      <trkpt lat="43.165250" lon="-4.905550">
        <ele>871.716</ele>
        <time>2020-05-22T22:49:12Z</time>
      </trkpt>
      <trkpt lat="43.165270" lon="-4.905520">
        <ele>871.739</ele>
        <time>2020-05-22T22:49:32Z</time>
      </trkpt>
      <trkpt lat="43.165370" lon="-4.905370">
        <ele>871.901</ele>
        <time>2020-05-22T22:49:52Z</time>
      </trkpt>
      <trkpt lat="43.165500" lon="-4.905200">
        <ele>871.421</ele>
        <time>2020-05-22T22:50:12Z</time>
      </trkpt>
      <trkpt lat="43.165500" lon="-4.905180">
        <ele>871.708</ele>
        <time>2020-05-22T22:50:32Z</time>
      </trkpt>
      <trkpt lat="43.165590" lon="-4.905050">
        <ele>871.227</ele>
        <time>2020-05-22T22:50:52Z</time>
      </trkpt>
      <trkpt lat="43.165610" lon="-4.905010">
        <ele>871.122</ele>
        <time>2020-05-22T22:51:12Z</time>
      </trkpt>
      <trkpt lat="43.165670" lon="-4.904900">
        <ele>871.249</ele>
        <time>2020-05-22T22:51:32Z</time>
      </trkpt>
      <trkpt lat="43.165720" lon="-4.904810">
        <ele>871.065</ele>
        <time>2020-05-22T22:51:52Z</time>
      </trkpt>
      <trkpt lat="43.165900" lon="-4.904540">
        <ele>870.964</ele>
        <time>2020-05-22T22:52:12Z</time>
      </trkpt>
      <trkpt lat="43.166050" lon="-4.904320">
        <ele>870.941</ele>
        <time>2020-05-22T22:52:32Z</time>
      </trkpt>
      <trkpt lat="43.166090" lon="-4.904280">
        <ele>870.396</ele>
        <time>2020-05-22T22:52:52Z</time>
      </trkpt>
      <trkpt lat="43.166093" lon="-4.904276">
        <ele>870.390</ele>
        <time>2020-05-22T22:53:12Z</time>
      </trkpt>
      <trkpt lat="43.166140" lon="-4.904250">
        <ele>869.726</ele>
        <time>2020-05-22T22:53:32Z</time>
      </trkpt>
      <trkpt lat="43.166200" lon="-4.904240">
        <ele>868.947</ele>
        <time>2020-05-22T22:53:52Z</time>
      </trkpt>
      <trkpt lat="43.166240" lon="-4.904230">
        <ele>868.511</ele>
        <time>2020-05-22T22:54:12Z</time>
      </trkpt>
      <trkpt lat="43.166270" lon="-4.904220">
        <ele>868.108</ele>
        <time>2020-05-22T22:54:32Z</time>
      </trkpt>
      <trkpt lat="43.166310" lon="-4.904220">
        <ele>867.696</ele>
        <time>2020-05-22T22:54:52Z</time>
      </trkpt>
      <trkpt lat="43.166360" lon="-4.904200">
        <ele>867.111</ele>
        <time>2020-05-22T22:55:12Z</time>
      </trkpt>
      <trkpt lat="43.166400" lon="-4.904170">
        <ele>866.698</ele>
        <time>2020-05-22T22:55:32Z</time>
      </trkpt>
      <trkpt lat="43.166480" lon="-4.904100">
        <ele>864.714</ele>
        <time>2020-05-22T22:55:52Z</time>
      </trkpt>
      <trkpt lat="43.166550" lon="-4.904020">
        <ele>863.723</ele>
        <time>2020-05-22T22:56:12Z</time>
      </trkpt>
      <trkpt lat="43.166590" lon="-4.903980">
        <ele>863.280</ele>
        <time>2020-05-22T22:56:32Z</time>
      </trkpt>
      <trkpt lat="43.166660" lon="-4.903900">
        <ele>862.965</ele>
        <time>2020-05-22T22:56:52Z</time>
      </trkpt>
      <trkpt lat="43.166720" lon="-4.903860">
        <ele>862.859</ele>
        <time>2020-05-22T22:57:12Z</time>
      </trkpt>
      <trkpt lat="43.166750" lon="-4.903840">
        <ele>862.785</ele>
        <time>2020-05-22T22:57:32Z</time>
      </trkpt>
      <trkpt lat="43.166790" lon="-4.903820">
        <ele>862.689</ele>
        <time>2020-05-22T22:57:52Z</time>
      </trkpt>
      <trkpt lat="43.166840" lon="-4.903820">
        <ele>861.917</ele>
        <time>2020-05-22T22:58:12Z</time>
      </trkpt>
      <trkpt lat="43.166870" lon="-4.903820">
        <ele>861.508</ele>
        <time>2020-05-22T22:58:32Z</time>
      </trkpt>
      <trkpt lat="43.166890" lon="-4.903820">
        <ele>861.212</ele>
        <time>2020-05-22T22:58:52Z</time>
      </trkpt>
      <trkpt lat="43.166980" lon="-4.903850">
        <ele>859.667</ele>
        <time>2020-05-22T22:59:12Z</time>
      </trkpt>
      <trkpt lat="43.167030" lon="-4.903860">
        <ele>859.154</ele>
        <time>2020-05-22T22:59:32Z</time>
      </trkpt>
      <trkpt lat="43.167040" lon="-4.903860">
        <ele>859.060</ele>
        <time>2020-05-22T22:59:52Z</time>
      </trkpt>
      <trkpt lat="43.167220" lon="-4.903870">
        <ele>857.659</ele>
        <time>2020-05-22T23:00:12Z</time>
      </trkpt>
      <trkpt lat="43.167450" lon="-4.903880">
        <ele>854.026</ele>
        <time>2020-05-22T23:00:32Z</time>
      </trkpt>
      <trkpt lat="43.167660" lon="-4.903890">
        <ele>851.251</ele>
        <time>2020-05-22T23:00:52Z</time>
      </trkpt>
      <trkpt lat="43.167760" lon="-4.903900">
        <ele>849.945</ele>
        <time>2020-05-22T23:01:12Z</time>
      </trkpt>
      <trkpt lat="43.167810" lon="-4.903910">
        <ele>849.481</ele>
        <time>2020-05-22T23:01:32Z</time>
      </trkpt>
      <trkpt lat="43.167850" lon="-4.903920">
        <ele>849.161</ele>
        <time>2020-05-22T23:01:52Z</time>
      </trkpt>
      <trkpt lat="43.167880" lon="-4.903930">
        <ele>848.917</ele>
        <time>2020-05-22T23:02:12Z</time>
      </trkpt>
      <trkpt lat="43.167900" lon="-4.903940">
        <ele>848.608</ele>
        <time>2020-05-22T23:02:32Z</time>
      </trkpt>
      <trkpt lat="43.167930" lon="-4.903970">
        <ele>848.092</ele>
        <time>2020-05-22T23:02:52Z</time>
      </trkpt>
      <trkpt lat="43.167940" lon="-4.903980">
        <ele>847.877</ele>
        <time>2020-05-22T23:03:12Z</time>
      </trkpt>
      <trkpt lat="43.168000" lon="-4.904040">
        <ele>846.834</ele>
        <time>2020-05-22T23:03:32Z</time>
      </trkpt>
      <trkpt lat="43.168050" lon="-4.904100">
        <ele>846.030</ele>
        <time>2020-05-22T23:03:52Z</time>
      </trkpt>
      <trkpt lat="43.168090" lon="-4.904130">
        <ele>845.389</ele>
        <time>2020-05-22T23:04:12Z</time>
      </trkpt>
      <trkpt lat="43.168140" lon="-4.904140">
        <ele>844.786</ele>
        <time>2020-05-22T23:04:32Z</time>
      </trkpt>
      <trkpt lat="43.168200" lon="-4.904140">
        <ele>844.371</ele>
        <time>2020-05-22T23:04:52Z</time>
      </trkpt>
      <trkpt lat="43.168240" lon="-4.904130">
        <ele>844.125</ele>
        <time>2020-05-22T23:05:12Z</time>
      </trkpt>
      <trkpt lat="43.168260" lon="-4.904120">
        <ele>844.199</ele>
        <time>2020-05-22T23:05:32Z</time>
      </trkpt>
      <trkpt lat="43.168320" lon="-4.904080">
        <ele>844.007</ele>
        <time>2020-05-22T23:05:52Z</time>
      </trkpt>
      <trkpt lat="43.168400" lon="-4.904010">
        <ele>843.427</ele>
        <time>2020-05-22T23:06:12Z</time>
      </trkpt>
      <trkpt lat="43.168470" lon="-4.903970">
        <ele>842.508</ele>
        <time>2020-05-22T23:06:32Z</time>
      </trkpt>
      <trkpt lat="43.168520" lon="-4.903950">
        <ele>841.833</ele>
        <time>2020-05-22T23:06:52Z</time>
      </trkpt>
      <trkpt lat="43.168560" lon="-4.903950">
        <ele>841.178</ele>
        <time>2020-05-22T23:07:12Z</time>
      </trkpt>
      <trkpt lat="43.168590" lon="-4.903960">
        <ele>840.485</ele>
        <time>2020-05-22T23:07:32Z</time>
      </trkpt>
      <trkpt lat="43.168600" lon="-4.903960">
        <ele>840.221</ele>
        <time>2020-05-22T23:07:52Z</time>
      </trkpt>
      <trkpt lat="43.168640" lon="-4.903990">
        <ele>839.280</ele>
        <time>2020-05-22T23:08:12Z</time>
      </trkpt>
      <trkpt lat="43.168700" lon="-4.904050">
        <ele>837.767</ele>
        <time>2020-05-22T23:08:32Z</time>
      </trkpt>
      <trkpt lat="43.168740" lon="-4.904110">
        <ele>836.472</ele>
        <time>2020-05-22T23:08:52Z</time>
      </trkpt>
      <trkpt lat="43.168760" lon="-4.904160">
        <ele>835.526</ele>
        <time>2020-05-22T23:09:12Z</time>
      </trkpt>
      <trkpt lat="43.168760" lon="-4.904220">
        <ele>834.769</ele>
        <time>2020-05-22T23:09:32Z</time>
      </trkpt>
      <trkpt lat="43.168760" lon="-4.904260">
        <ele>834.204</ele>
        <time>2020-05-22T23:09:52Z</time>
      </trkpt>
      <trkpt lat="43.168740" lon="-4.904340">
        <ele>833.424</ele>
        <time>2020-05-22T23:10:12Z</time>
      </trkpt>
      <trkpt lat="43.168740" lon="-4.904360">
        <ele>833.108</ele>
        <time>2020-05-22T23:10:32Z</time>
      </trkpt>
      <trkpt lat="43.168710" lon="-4.904460">
        <ele>832.090</ele>
        <time>2020-05-22T23:10:52Z</time>
      </trkpt>
      <trkpt lat="43.168670" lon="-4.904550">
        <ele>831.055</ele>
        <time>2020-05-22T23:11:12Z</time>
      </trkpt>
      <trkpt lat="43.168660" lon="-4.904560">
        <ele>830.922</ele>
        <time>2020-05-22T23:11:32Z</time>
      </trkpt>
      <trkpt lat="43.168600" lon="-4.904730">
        <ele>828.938</ele>
        <time>2020-05-22T23:11:52Z</time>
      </trkpt>
      <trkpt lat="43.168580" lon="-4.904780">
        <ele>828.027</ele>
        <time>2020-05-22T23:12:12Z</time>
      </trkpt>
      <trkpt lat="43.168583" lon="-4.904783">
        <ele>828.064</ele>
        <time>2020-05-22T23:12:32Z</time>
      </trkpt>
      <trkpt lat="43.168730" lon="-4.904830">
        <ele>825.849</ele>
        <time>2020-05-22T23:12:52Z</time>
      </trkpt>
      <trkpt lat="43.168760" lon="-4.904830">
        <ele>825.583</ele>
        <time>2020-05-22T23:13:12Z</time>
      </trkpt>
      <trkpt lat="43.168780" lon="-4.904830">
        <ele>825.259</ele>
        <time>2020-05-22T23:13:32Z</time>
      </trkpt>
      <trkpt lat="43.168890" lon="-4.904840">
        <ele>823.903</ele>
        <time>2020-05-22T23:13:52Z</time>
      </trkpt>
      <trkpt lat="43.168940" lon="-4.904830">
        <ele>823.323</ele>
        <time>2020-05-22T23:14:12Z</time>
      </trkpt>
      <trkpt lat="43.169060" lon="-4.904800">
        <ele>822.208</ele>
        <time>2020-05-22T23:14:32Z</time>
      </trkpt>
      <trkpt lat="43.169120" lon="-4.904790">
        <ele>821.769</ele>
        <time>2020-05-22T23:14:52Z</time>
      </trkpt>
      <trkpt lat="43.169130" lon="-4.904780">
        <ele>821.844</ele>
        <time>2020-05-22T23:15:12Z</time>
      </trkpt>
      <trkpt lat="43.169210" lon="-4.904740">
        <ele>821.521</ele>
        <time>2020-05-22T23:15:32Z</time>
      </trkpt>
      <trkpt lat="43.169280" lon="-4.904700">
        <ele>820.837</ele>
        <time>2020-05-22T23:15:52Z</time>
      </trkpt>
      <trkpt lat="43.169340" lon="-4.904680">
        <ele>820.056</ele>
        <time>2020-05-22T23:16:12Z</time>
      </trkpt>
      <trkpt lat="43.169450" lon="-4.904600">
        <ele>820.273</ele>
        <time>2020-05-22T23:16:32Z</time>
      </trkpt>
      <trkpt lat="43.169460" lon="-4.904590">
        <ele>820.378</ele>
        <time>2020-05-22T23:16:52Z</time>
      </trkpt>
      <trkpt lat="43.169530" lon="-4.904520">
        <ele>820.272</ele>
        <time>2020-05-22T23:17:12Z</time>
      </trkpt>
      <trkpt lat="43.169570" lon="-4.904450">
        <ele>820.468</ele>
        <time>2020-05-22T23:17:32Z</time>
      </trkpt>
      <trkpt lat="43.169580" lon="-4.904430">
        <ele>820.442</ele>
        <time>2020-05-22T23:17:52Z</time>
      </trkpt>
      <trkpt lat="43.169610" lon="-4.904360">
        <ele>820.026</ele>
        <time>2020-05-22T23:18:12Z</time>
      </trkpt>
      <trkpt lat="43.169630" lon="-4.904330">
        <ele>819.508</ele>
        <time>2020-05-22T23:18:32Z</time>
      </trkpt>
      <trkpt lat="43.169640" lon="-4.904320">
        <ele>819.220</ele>
        <time>2020-05-22T23:18:52Z</time>
      </trkpt>
      <trkpt lat="43.169670" lon="-4.904320">
        <ele>817.865</ele>
        <time>2020-05-22T23:19:12Z</time>
      </trkpt>
      <trkpt lat="43.169700" lon="-4.904330">
        <ele>816.362</ele>
        <time>2020-05-22T23:19:32Z</time>
      </trkpt>
      <trkpt lat="43.169710" lon="-4.904340">
        <ele>815.738</ele>
        <time>2020-05-22T23:19:52Z</time>
      </trkpt>
      <trkpt lat="43.169720" lon="-4.904350">
        <ele>815.177</ele>
        <time>2020-05-22T23:20:12Z</time>
      </trkpt>
      <trkpt lat="43.169750" lon="-4.904390">
        <ele>814.014</ele>
        <time>2020-05-22T23:20:32Z</time>
      </trkpt>
      <trkpt lat="43.169830" lon="-4.904520">
        <ele>812.449</ele>
        <time>2020-05-22T23:20:52Z</time>
      </trkpt>
      <trkpt lat="43.169860" lon="-4.904570">
        <ele>812.653</ele>
        <time>2020-05-22T23:21:12Z</time>
      </trkpt>
      <trkpt lat="43.169890" lon="-4.904620">
        <ele>813.384</ele>
        <time>2020-05-22T23:21:32Z</time>
      </trkpt>
      <trkpt lat="43.169910" lon="-4.904640">
        <ele>813.707</ele>
        <time>2020-05-22T23:21:52Z</time>
      </trkpt>
      <trkpt lat="43.169940" lon="-4.904650">
        <ele>814.217</ele>
        <time>2020-05-22T23:22:12Z</time>
      </trkpt>
      <trkpt lat="43.169970" lon="-4.904650">
        <ele>814.608</ele>
        <time>2020-05-22T23:22:32Z</time>
      </trkpt>
      <trkpt lat="43.170000" lon="-4.904650">
        <ele>814.982</ele>
        <time>2020-05-22T23:22:52Z</time>
      </trkpt>
      <trkpt lat="43.170040" lon="-4.904640">
        <ele>816.437</ele>
        <time>2020-05-22T23:23:12Z</time>
      </trkpt>
      <trkpt lat="43.170140" lon="-4.904590">
        <ele>818.664</ele>
        <time>2020-05-22T23:23:32Z</time>
      </trkpt>
      <trkpt lat="43.170140" lon="-4.904580">
        <ele>818.230</ele>
        <time>2020-05-22T23:23:52Z</time>
      </trkpt>
      <trkpt lat="43.170280" lon="-4.904480">
        <ele>818.059</ele>
        <time>2020-05-22T23:24:12Z</time>
      </trkpt>
      <trkpt lat="43.170300" lon="-4.904460">
        <ele>818.036</ele>
        <time>2020-05-22T23:24:32Z</time>
      </trkpt>
      <trkpt lat="43.170360" lon="-4.904380">
        <ele>818.561</ele>
        <time>2020-05-22T23:24:52Z</time>
      </trkpt>
      <trkpt lat="43.170430" lon="-4.904300">
        <ele>820.195</ele>
        <time>2020-05-22T23:25:12Z</time>
      </trkpt>
      <trkpt lat="43.170500" lon="-4.904210">
        <ele>821.888</ele>
        <time>2020-05-22T23:25:32Z</time>
      </trkpt>
      <trkpt lat="43.170530" lon="-4.904150">
        <ele>821.724</ele>
        <time>2020-05-22T23:25:52Z</time>
      </trkpt>
      <trkpt lat="43.170550" lon="-4.904120">
        <ele>821.726</ele>
        <time>2020-05-22T23:26:12Z</time>
      </trkpt>
      <trkpt lat="43.170560" lon="-4.904090">
        <ele>820.808</ele>
        <time>2020-05-22T23:26:32Z</time>
      </trkpt>
      <trkpt lat="43.170610" lon="-4.904030">
        <ele>819.572</ele>
        <time>2020-05-22T23:26:52Z</time>
      </trkpt>
      <trkpt lat="43.170660" lon="-4.903990">
        <ele>819.417</ele>
        <time>2020-05-22T23:27:12Z</time>
      </trkpt>
      <trkpt lat="43.170690" lon="-4.903970">
        <ele>819.774</ele>
        <time>2020-05-22T23:27:32Z</time>
      </trkpt>
      <trkpt lat="43.170760" lon="-4.903960">
        <ele>821.750</ele>
        <time>2020-05-22T23:27:52Z</time>
      </trkpt>
      <trkpt lat="43.170763" lon="-4.903956">
        <ele>821.749</ele>
        <time>2020-05-22T23:28:12Z</time>
      </trkpt>
      <trkpt lat="43.170790" lon="-4.903860">
        <ele>820.066</ele>
        <time>2020-05-22T23:28:32Z</time>
      </trkpt>
      <trkpt lat="43.170850" lon="-4.903710">
        <ele>815.441</ele>
        <time>2020-05-22T23:28:52Z</time>
      </trkpt>
      <trkpt lat="43.170870" lon="-4.903650">
        <ele>813.325</ele>
        <time>2020-05-22T23:29:12Z</time>
      </trkpt>
      <trkpt lat="43.170930" lon="-4.903500">
        <ele>808.621</ele>
        <time>2020-05-22T23:29:32Z</time>
      </trkpt>
      <trkpt lat="43.171020" lon="-4.903280">
        <ele>806.141</ele>
        <time>2020-05-22T23:29:52Z</time>
      </trkpt>
      <trkpt lat="43.171080" lon="-4.903140">
        <ele>807.205</ele>
        <time>2020-05-22T23:30:12Z</time>
      </trkpt>
      <trkpt lat="43.171110" lon="-4.903070">
        <ele>808.208</ele>
        <time>2020-05-22T23:30:32Z</time>
      </trkpt>
      <trkpt lat="43.171180" lon="-4.902900">
        <ele>803.296</ele>
        <time>2020-05-22T23:30:52Z</time>
      </trkpt>
      <trkpt lat="43.171200" lon="-4.902860">
        <ele>802.521</ele>
        <time>2020-05-22T23:31:12Z</time>
      </trkpt>
      <trkpt lat="43.171280" lon="-4.902680">
        <ele>800.638</ele>
        <time>2020-05-22T23:31:32Z</time>
      </trkpt>
      <trkpt lat="43.171290" lon="-4.902650">
        <ele>800.344</ele>
        <time>2020-05-22T23:31:52Z</time>
      </trkpt>
      <trkpt lat="43.171340" lon="-4.902560">
        <ele>800.673</ele>
        <time>2020-05-22T23:32:12Z</time>
      </trkpt>
      <trkpt lat="43.171380" lon="-4.902510">
        <ele>801.720</ele>
        <time>2020-05-22T23:32:32Z</time>
      </trkpt>
      <trkpt lat="43.171420" lon="-4.902480">
        <ele>800.575</ele>
        <time>2020-05-22T23:32:52Z</time>
      </trkpt>
      <trkpt lat="43.171450" lon="-4.902470">
        <ele>799.539</ele>
        <time>2020-05-22T23:33:12Z</time>
      </trkpt>
      <trkpt lat="43.171490" lon="-4.902460">
        <ele>798.335</ele>
        <time>2020-05-22T23:33:32Z</time>
      </trkpt>
      <trkpt lat="43.171530" lon="-4.902460">
        <ele>797.786</ele>
        <time>2020-05-22T23:33:52Z</time>
      </trkpt>
      <trkpt lat="43.171570" lon="-4.902470">
        <ele>797.714</ele>
        <time>2020-05-22T23:34:12Z</time>
      </trkpt>
      <trkpt lat="43.171600" lon="-4.902500">
        <ele>799.008</ele>
        <time>2020-05-22T23:34:32Z</time>
      </trkpt>
      <trkpt lat="43.171630" lon="-4.902540">
        <ele>799.017</ele>
        <time>2020-05-22T23:34:52Z</time>
      </trkpt>
      <trkpt lat="43.171660" lon="-4.902590">
        <ele>799.152</ele>
        <time>2020-05-22T23:35:12Z</time>
      </trkpt>
      <trkpt lat="43.171670" lon="-4.902640">
        <ele>799.499</ele>
        <time>2020-05-22T23:35:32Z</time>
      </trkpt>
      <trkpt lat="43.171670" lon="-4.902700">
        <ele>800.035</ele>
        <time>2020-05-22T23:35:52Z</time>
      </trkpt>
      <trkpt lat="43.171670" lon="-4.902710">
        <ele>800.144</ele>
        <time>2020-05-22T23:36:12Z</time>
      </trkpt>
      <trkpt lat="43.171610" lon="-4.902920">
        <ele>799.281</ele>
        <time>2020-05-22T23:36:32Z</time>
      </trkpt>
      <trkpt lat="43.171530" lon="-4.903150">
        <ele>797.256</ele>
        <time>2020-05-22T23:36:52Z</time>
      </trkpt>
      <trkpt lat="43.171530" lon="-4.903160">
        <ele>797.040</ele>
        <time>2020-05-22T23:37:12Z</time>
      </trkpt>
      <trkpt lat="43.171500" lon="-4.903290">
        <ele>795.931</ele>
        <time>2020-05-22T23:37:32Z</time>
      </trkpt>
      <trkpt lat="43.171490" lon="-4.903390">
        <ele>796.361</ele>
        <time>2020-05-22T23:37:52Z</time>
      </trkpt>
      <trkpt lat="43.171490" lon="-4.903400">
        <ele>796.407</ele>
        <time>2020-05-22T23:38:12Z</time>
      </trkpt>
      <trkpt lat="43.171500" lon="-4.903450">
        <ele>796.508</ele>
        <time>2020-05-22T23:38:32Z</time>
      </trkpt>
      <trkpt lat="43.171500" lon="-4.903520">
        <ele>797.217</ele>
        <time>2020-05-22T23:38:52Z</time>
      </trkpt>
      <trkpt lat="43.171550" lon="-4.903620">
        <ele>795.252</ele>
        <time>2020-05-22T23:39:12Z</time>
      </trkpt>
      <trkpt lat="43.171560" lon="-4.903640">
        <ele>794.869</ele>
        <time>2020-05-22T23:39:32Z</time>
      </trkpt>
      <trkpt lat="43.171600" lon="-4.903700">
        <ele>793.065</ele>
        <time>2020-05-22T23:39:52Z</time>
      </trkpt>
      <trkpt lat="43.171660" lon="-4.903820">
        <ele>790.624</ele>
        <time>2020-05-22T23:40:12Z</time>
      </trkpt>
      <trkpt lat="43.171700" lon="-4.903890">
        <ele>789.941</ele>
        <time>2020-05-22T23:40:32Z</time>
      </trkpt>
      <trkpt lat="43.171770" lon="-4.903970">
        <ele>789.916</ele>
        <time>2020-05-22T23:40:52Z</time>
      </trkpt>
      <trkpt lat="43.171790" lon="-4.903980">
        <ele>789.650</ele>
        <time>2020-05-22T23:41:12Z</time>
      </trkpt>
      <trkpt lat="43.171830" lon="-4.904000">
        <ele>789.099</ele>
        <time>2020-05-22T23:41:32Z</time>
      </trkpt>
      <trkpt lat="43.171870" lon="-4.904020">
        <ele>788.407</ele>
        <time>2020-05-22T23:41:52Z</time>
      </trkpt>
      <trkpt lat="43.171920" lon="-4.904020">
        <ele>787.027</ele>
        <time>2020-05-22T23:42:12Z</time>
      </trkpt>
      <trkpt lat="43.171950" lon="-4.904010">
        <ele>786.008</ele>
        <time>2020-05-22T23:42:32Z</time>
      </trkpt>
      <trkpt lat="43.171970" lon="-4.904000">
        <ele>785.953</ele>
        <time>2020-05-22T23:42:52Z</time>
      </trkpt>
      <trkpt lat="43.172000" lon="-4.903970">
        <ele>785.138</ele>
        <time>2020-05-22T23:43:12Z</time>
      </trkpt>
      <trkpt lat="43.172200" lon="-4.903840">
        <ele>781.165</ele>
        <time>2020-05-22T23:43:32Z</time>
      </trkpt>
      <trkpt lat="43.172290" lon="-4.903790">
        <ele>779.811</ele>
        <time>2020-05-22T23:43:52Z</time>
      </trkpt>
      <trkpt lat="43.172420" lon="-4.903700">
        <ele>776.980</ele>
        <time>2020-05-22T23:44:12Z</time>
      </trkpt>
      <trkpt lat="43.172460" lon="-4.903690">
        <ele>776.737</ele>
        <time>2020-05-22T23:44:32Z</time>
      </trkpt>
      <trkpt lat="43.172570" lon="-4.903640">
        <ele>774.012</ele>
        <time>2020-05-22T23:44:52Z</time>
      </trkpt>
      <trkpt lat="43.172630" lon="-4.903630">
        <ele>773.146</ele>
        <time>2020-05-22T23:45:12Z</time>
      </trkpt>
      <trkpt lat="43.172770" lon="-4.903610">
        <ele>771.092</ele>
        <time>2020-05-22T23:45:32Z</time>
      </trkpt>
      <trkpt lat="43.172950" lon="-4.903590">
        <ele>770.473</ele>
        <time>2020-05-22T23:45:52Z</time>
      </trkpt>
      <trkpt lat="43.173000" lon="-4.903580">
        <ele>770.020</ele>
        <time>2020-05-22T23:46:12Z</time>
      </trkpt>
      <trkpt lat="43.173080" lon="-4.903520">
        <ele>766.708</ele>
        <time>2020-05-22T23:46:32Z</time>
      </trkpt>
      <trkpt lat="43.173360" lon="-4.903370">
        <ele>760.743</ele>
        <time>2020-05-22T23:46:52Z</time>
      </trkpt>
      <trkpt lat="43.173480" lon="-4.903280">
        <ele>758.378</ele>
        <time>2020-05-22T23:47:12Z</time>
      </trkpt>
      <trkpt lat="43.173500" lon="-4.903270">
        <ele>758.375</ele>
        <time>2020-05-22T23:47:32Z</time>
      </trkpt>
      <trkpt lat="43.173560" lon="-4.903200">
        <ele>756.641</ele>
        <time>2020-05-22T23:47:52Z</time>
      </trkpt>
      <trkpt lat="43.173720" lon="-4.903000">
        <ele>752.510</ele>
        <time>2020-05-22T23:48:12Z</time>
      </trkpt>
      <trkpt lat="43.173850" lon="-4.902840">
        <ele>750.617</ele>
        <time>2020-05-22T23:48:32Z</time>
      </trkpt>
      <trkpt lat="43.173880" lon="-4.902790">
        <ele>750.092</ele>
        <time>2020-05-22T23:48:52Z</time>
      </trkpt>
      <trkpt lat="43.173880" lon="-4.902780">
        <ele>749.736</ele>
        <time>2020-05-22T23:49:12Z</time>
      </trkpt>
      <trkpt lat="43.173900" lon="-4.902760">
        <ele>749.388</ele>
        <time>2020-05-22T23:49:32Z</time>
      </trkpt>
      <trkpt lat="43.173920" lon="-4.902750">
        <ele>748.424</ele>
        <time>2020-05-22T23:49:52Z</time>
      </trkpt>
      <trkpt lat="43.173940" lon="-4.902750">
        <ele>747.726</ele>
        <time>2020-05-22T23:50:12Z</time>
      </trkpt>
      <trkpt lat="43.173960" lon="-4.902740">
        <ele>746.808</ele>
        <time>2020-05-22T23:50:32Z</time>
      </trkpt>
      <trkpt lat="43.173980" lon="-4.902750">
        <ele>746.462</ele>
        <time>2020-05-22T23:50:52Z</time>
      </trkpt>
      <trkpt lat="43.174000" lon="-4.902760">
        <ele>746.037</ele>
        <time>2020-05-22T23:51:12Z</time>
      </trkpt>
      <trkpt lat="43.174020" lon="-4.902770">
        <ele>745.694</ele>
        <time>2020-05-22T23:51:32Z</time>
      </trkpt>
      <trkpt lat="43.174040" lon="-4.902790">
        <ele>745.590</ele>
        <time>2020-05-22T23:51:52Z</time>
      </trkpt>
      <trkpt lat="43.174060" lon="-4.902810">
        <ele>745.459</ele>
        <time>2020-05-22T23:52:12Z</time>
      </trkpt>
      <trkpt lat="43.174090" lon="-4.902850">
        <ele>745.456</ele>
        <time>2020-05-22T23:52:32Z</time>
      </trkpt>
      <trkpt lat="43.174110" lon="-4.902890">
        <ele>745.821</ele>
        <time>2020-05-22T23:52:52Z</time>
      </trkpt>
      <trkpt lat="43.174150" lon="-4.902980">
        <ele>746.785</ele>
        <time>2020-05-22T23:53:12Z</time>
      </trkpt>
      <trkpt lat="43.174160" lon="-4.902990">
        <ele>746.648</ele>
        <time>2020-05-22T23:53:32Z</time>
      </trkpt>
      <trkpt lat="43.174250" lon="-4.903190">
        <ele>745.861</ele>
        <time>2020-05-22T23:53:52Z</time>
      </trkpt>
      <trkpt lat="43.174270" lon="-4.903230">
        <ele>745.517</ele>
        <time>2020-05-22T23:54:12Z</time>
      </trkpt>
      <trkpt lat="43.174360" lon="-4.903390">
        <ele>744.708</ele>
        <time>2020-05-22T23:54:32Z</time>
      </trkpt>
      <trkpt lat="43.174390" lon="-4.903440">
        <ele>744.658</ele>
        <time>2020-05-22T23:54:52Z</time>
      </trkpt>
      <trkpt lat="43.174490" lon="-4.903610">
        <ele>745.373</ele>
        <time>2020-05-22T23:55:12Z</time>
      </trkpt>
      <trkpt lat="43.174550" lon="-4.903660">
        <ele>745.140</ele>
        <time>2020-05-22T23:55:32Z</time>
      </trkpt>
      <trkpt lat="43.174590" lon="-4.903690">
        <ele>744.916</ele>
        <time>2020-05-22T23:55:52Z</time>
      </trkpt>
      <trkpt lat="43.174620" lon="-4.903700">
        <ele>744.325</ele>
        <time>2020-05-22T23:56:12Z</time>
      </trkpt>
      <trkpt lat="43.174630" lon="-4.903710">
        <ele>744.492</ele>
        <time>2020-05-22T23:56:32Z</time>
      </trkpt>
      <trkpt lat="43.174680" lon="-4.903710">
        <ele>742.727</ele>
        <time>2020-05-22T23:56:52Z</time>
      </trkpt>
      <trkpt lat="43.174740" lon="-4.903700">
        <ele>740.721</ele>
        <time>2020-05-22T23:57:12Z</time>
      </trkpt>
      <trkpt lat="43.174800" lon="-4.903680">
        <ele>739.664</ele>
        <time>2020-05-22T23:57:32Z</time>
      </trkpt>
      <trkpt lat="43.174860" lon="-4.903660">
        <ele>738.406</ele>
        <time>2020-05-22T23:57:52Z</time>
      </trkpt>
      <trkpt lat="43.174980" lon="-4.903630">
        <ele>736.816</ele>
        <time>2020-05-22T23:58:12Z</time>
      </trkpt>
      <trkpt lat="43.175000" lon="-4.903620">
        <ele>736.308</ele>
        <time>2020-05-22T23:58:32Z</time>
      </trkpt>
      <trkpt lat="43.175160" lon="-4.903600">
        <ele>734.490</ele>
        <time>2020-05-22T23:58:52Z</time>
      </trkpt>
      <trkpt lat="43.175200" lon="-4.903590">
        <ele>733.795</ele>
        <time>2020-05-22T23:59:12Z</time>
      </trkpt>
      <trkpt lat="43.175290" lon="-4.903580">
        <ele>732.482</ele>
        <time>2020-05-22T23:59:32Z</time>
      </trkpt>
      <trkpt lat="43.175350" lon="-4.903590">
        <ele>731.538</ele>
        <time>2020-05-22T23:59:52Z</time>
      </trkpt>
      <trkpt lat="43.175420" lon="-4.903620">
        <ele>731.327</ele>
        <time>2020-05-23T00:00:12Z</time>
      </trkpt>
      <trkpt lat="43.175490" lon="-4.903650">
        <ele>731.154</ele>
        <time>2020-05-23T00:00:32Z</time>
      </trkpt>
      <trkpt lat="43.175510" lon="-4.903650">
        <ele>730.799</ele>
        <time>2020-05-23T00:00:52Z</time>
      </trkpt>
      <trkpt lat="43.175600" lon="-4.903650">
        <ele>729.453</ele>
        <time>2020-05-23T00:01:12Z</time>
      </trkpt>
      <trkpt lat="43.175680" lon="-4.903630">
        <ele>728.017</ele>
        <time>2020-05-23T00:01:32Z</time>
      </trkpt>
      <trkpt lat="43.175690" lon="-4.903630">
        <ele>727.987</ele>
        <time>2020-05-23T00:01:52Z</time>
      </trkpt>
      <trkpt lat="43.175740" lon="-4.903610">
        <ele>726.615</ele>
        <time>2020-05-23T00:02:12Z</time>
      </trkpt>
      <trkpt lat="43.175790" lon="-4.903590">
        <ele>725.308</ele>
        <time>2020-05-23T00:02:32Z</time>
      </trkpt>
      <trkpt lat="43.175890" lon="-4.903560">
        <ele>723.125</ele>
        <time>2020-05-23T00:02:52Z</time>
      </trkpt>
      <trkpt lat="43.175980" lon="-4.903550">
        <ele>722.020</ele>
        <time>2020-05-23T00:03:12Z</time>
      </trkpt>
      <trkpt lat="43.176040" lon="-4.903550">
        <ele>721.657</ele>
        <time>2020-05-23T00:03:32Z</time>
      </trkpt>
      <trkpt lat="43.176060" lon="-4.903540">
        <ele>721.133</ele>
        <time>2020-05-23T00:03:52Z</time>
      </trkpt>
      <trkpt lat="43.176220" lon="-4.903540">
        <ele>719.072</ele>
        <time>2020-05-23T00:04:12Z</time>
      </trkpt>
      <trkpt lat="43.176290" lon="-4.903540">
        <ele>718.099</ele>
        <time>2020-05-23T00:04:32Z</time>
      </trkpt>
      <trkpt lat="43.176380" lon="-4.903520">
        <ele>715.914</ele>
        <time>2020-05-23T00:04:52Z</time>
      </trkpt>
      <trkpt lat="43.176470" lon="-4.903480">
        <ele>714.458</ele>
        <time>2020-05-23T00:05:12Z</time>
      </trkpt>
      <trkpt lat="43.176550" lon="-4.903430">
        <ele>712.733</ele>
        <time>2020-05-23T00:05:32Z</time>
      </trkpt>
      <trkpt lat="43.176560" lon="-4.903420">
        <ele>712.323</ele>
        <time>2020-05-23T00:05:52Z</time>
      </trkpt>
      <trkpt lat="43.176670" lon="-4.903340">
        <ele>709.315</ele>
        <time>2020-05-23T00:06:12Z</time>
      </trkpt>
      <trkpt lat="43.176720" lon="-4.903300">
        <ele>707.908</ele>
        <time>2020-05-23T00:06:32Z</time>
      </trkpt>
      <trkpt lat="43.176760" lon="-4.903270">
        <ele>706.987</ele>
        <time>2020-05-23T00:06:52Z</time>
      </trkpt>
      <trkpt lat="43.176890" lon="-4.903200">
        <ele>704.892</ele>
        <time>2020-05-23T00:07:12Z</time>
      </trkpt>
      <trkpt lat="43.177040" lon="-4.903130">
        <ele>702.069</ele>
        <time>2020-05-23T00:07:32Z</time>
      </trkpt>
      <trkpt lat="43.177060" lon="-4.903130">
        <ele>702.075</ele>
        <time>2020-05-23T00:07:52Z</time>
      </trkpt>
      <trkpt lat="43.177110" lon="-4.903110">
        <ele>701.194</ele>
        <time>2020-05-23T00:08:12Z</time>
      </trkpt>
      <trkpt lat="43.177170" lon="-4.903090">
        <ele>700.321</ele>
        <time>2020-05-23T00:08:32Z</time>
      </trkpt>
      <trkpt lat="43.177230" lon="-4.903090">
        <ele>700.276</ele>
        <time>2020-05-23T00:08:52Z</time>
      </trkpt>
      <trkpt lat="43.177240" lon="-4.903090">
        <ele>700.080</ele>
        <time>2020-05-23T00:09:12Z</time>
      </trkpt>
      <trkpt lat="43.177330" lon="-4.903080">
        <ele>698.724</ele>
        <time>2020-05-23T00:09:32Z</time>
      </trkpt>
      <trkpt lat="43.177410" lon="-4.903070">
        <ele>697.504</ele>
        <time>2020-05-23T00:09:52Z</time>
      </trkpt>
      <trkpt lat="43.177480" lon="-4.903080">
        <ele>697.014</ele>
        <time>2020-05-23T00:10:12Z</time>
      </trkpt>
      <trkpt lat="43.177540" lon="-4.903090">
        <ele>695.708</ele>
        <time>2020-05-23T00:10:32Z</time>
      </trkpt>
      <trkpt lat="43.177590" lon="-4.903110">
        <ele>694.696</ele>
        <time>2020-05-23T00:10:52Z</time>
      </trkpt>
      <trkpt lat="43.177640" lon="-4.903120">
        <ele>693.221</ele>
        <time>2020-05-23T00:11:12Z</time>
      </trkpt>
      <trkpt lat="43.177720" lon="-4.903170">
        <ele>692.198</ele>
        <time>2020-05-23T00:11:32Z</time>
      </trkpt>
      <trkpt lat="43.177810" lon="-4.903230">
        <ele>691.154</ele>
        <time>2020-05-23T00:11:52Z</time>
      </trkpt>
      <trkpt lat="43.177890" lon="-4.903300">
        <ele>690.753</ele>
        <time>2020-05-23T00:12:12Z</time>
      </trkpt>
      <trkpt lat="43.177890" lon="-4.903310">
        <ele>691.160</ele>
        <time>2020-05-23T00:12:32Z</time>
      </trkpt>
      <trkpt lat="43.177980" lon="-4.903380">
        <ele>690.315</ele>
        <time>2020-05-23T00:12:52Z</time>
      </trkpt>
      <trkpt lat="43.178050" lon="-4.903420">
        <ele>689.039</ele>
        <time>2020-05-23T00:13:12Z</time>
      </trkpt>
      <trkpt lat="43.178070" lon="-4.903420">
        <ele>688.415</ele>
        <time>2020-05-23T00:13:32Z</time>
      </trkpt>
      <trkpt lat="43.178220" lon="-4.903500">
        <ele>686.565</ele>
        <time>2020-05-23T00:13:52Z</time>
      </trkpt>
      <trkpt lat="43.178380" lon="-4.903570">
        <ele>683.711</ele>
        <time>2020-05-23T00:14:12Z</time>
      </trkpt>
      <trkpt lat="43.178390" lon="-4.903570">
        <ele>683.408</ele>
        <time>2020-05-23T00:14:32Z</time>
      </trkpt>
      <trkpt lat="43.178460" lon="-4.903600">
        <ele>682.525</ele>
        <time>2020-05-23T00:14:52Z</time>
      </trkpt>
      <trkpt lat="43.178530" lon="-4.903630">
        <ele>681.550</ele>
        <time>2020-05-23T00:15:12Z</time>
      </trkpt>
      <trkpt lat="43.178560" lon="-4.903650">
        <ele>681.167</ele>
        <time>2020-05-23T00:15:32Z</time>
      </trkpt>
      <trkpt lat="43.178580" lon="-4.903660">
        <ele>680.893</ele>
        <time>2020-05-23T00:15:52Z</time>
      </trkpt>
      <trkpt lat="43.178600" lon="-4.903690">
        <ele>680.852</ele>
        <time>2020-05-23T00:16:12Z</time>
      </trkpt>
      <trkpt lat="43.178660" lon="-4.903760">
        <ele>679.629</ele>
        <time>2020-05-23T00:16:32Z</time>
      </trkpt>
      <trkpt lat="43.178700" lon="-4.903820">
        <ele>679.034</ele>
        <time>2020-05-23T00:16:52Z</time>
      </trkpt>
      <trkpt lat="43.178720" lon="-4.903850">
        <ele>678.748</ele>
        <time>2020-05-23T00:17:12Z</time>
      </trkpt>
      <trkpt lat="43.178760" lon="-4.903960">
        <ele>679.377</ele>
        <time>2020-05-23T00:17:32Z</time>
      </trkpt>
      <trkpt lat="43.178800" lon="-4.904020">
        <ele>679.261</ele>
        <time>2020-05-23T00:17:52Z</time>
      </trkpt>
      <trkpt lat="43.178820" lon="-4.904050">
        <ele>679.227</ele>
        <time>2020-05-23T00:18:12Z</time>
      </trkpt>
      <trkpt lat="43.178850" lon="-4.904070">
        <ele>678.608</ele>
        <time>2020-05-23T00:18:32Z</time>
      </trkpt>
      <trkpt lat="43.178880" lon="-4.904080">
        <ele>677.821</ele>
        <time>2020-05-23T00:18:52Z</time>
      </trkpt>
      <trkpt lat="43.178930" lon="-4.904080">
        <ele>676.846</ele>
        <time>2020-05-23T00:19:12Z</time>
      </trkpt>
      <trkpt lat="43.178970" lon="-4.904080">
        <ele>676.033</ele>
        <time>2020-05-23T00:19:32Z</time>
      </trkpt>
      <trkpt lat="43.179060" lon="-4.904070">
        <ele>674.219</ele>
        <time>2020-05-23T00:19:52Z</time>
      </trkpt>
      <trkpt lat="43.179150" lon="-4.904080">
        <ele>672.798</ele>
        <time>2020-05-23T00:20:12Z</time>
      </trkpt>
      <trkpt lat="43.179290" lon="-4.904090">
        <ele>671.035</ele>
        <time>2020-05-23T00:20:32Z</time>
      </trkpt>
      <trkpt lat="43.179480" lon="-4.904120">
        <ele>669.440</ele>
        <time>2020-05-23T00:20:52Z</time>
      </trkpt>
      <trkpt lat="43.179500" lon="-4.904130">
        <ele>669.424</ele>
        <time>2020-05-23T00:21:12Z</time>
      </trkpt>
      <trkpt lat="43.179570" lon="-4.904140">
        <ele>668.925</ele>
        <time>2020-05-23T00:21:32Z</time>
      </trkpt>
      <trkpt lat="43.179660" lon="-4.904150">
        <ele>668.226</ele>
        <time>2020-05-23T00:21:52Z</time>
      </trkpt>
      <trkpt lat="43.179820" lon="-4.904160">
        <ele>667.108</ele>
        <time>2020-05-23T00:22:12Z</time>
      </trkpt>
      <trkpt lat="43.179860" lon="-4.904160">
        <ele>666.808</ele>
        <time>2020-05-23T00:22:32Z</time>
      </trkpt>
      <trkpt lat="43.179910" lon="-4.904150">
        <ele>666.036</ele>
        <time>2020-05-23T00:22:52Z</time>
      </trkpt>
      <trkpt lat="43.180030" lon="-4.904100">
        <ele>663.521</ele>
        <time>2020-05-23T00:23:12Z</time>
      </trkpt>
      <trkpt lat="43.180040" lon="-4.904100">
        <ele>663.658</ele>
        <time>2020-05-23T00:23:32Z</time>
      </trkpt>
      <trkpt lat="43.180220" lon="-4.904030">
        <ele>661.414</ele>
        <time>2020-05-23T00:23:52Z</time>
      </trkpt>
      <trkpt lat="43.180340" lon="-4.903980">
        <ele>660.873</ele>
        <time>2020-05-23T00:24:12Z</time>
      </trkpt>
      <trkpt lat="43.180390" lon="-4.903940">
        <ele>660.020</ele>
        <time>2020-05-23T00:24:32Z</time>
      </trkpt>
      <trkpt lat="43.180450" lon="-4.903870">
        <ele>658.025</ele>
        <time>2020-05-23T00:24:52Z</time>
      </trkpt>
      <trkpt lat="43.180520" lon="-4.903800">
        <ele>657.069</ele>
        <time>2020-05-23T00:25:12Z</time>
      </trkpt>
      <trkpt lat="43.180600" lon="-4.903710">
        <ele>655.924</ele>
        <time>2020-05-23T00:25:32Z</time>
      </trkpt>
      <trkpt lat="43.180650" lon="-4.903640">
        <ele>654.604</ele>
        <time>2020-05-23T00:25:52Z</time>
      </trkpt>
      <trkpt lat="43.180690" lon="-4.903590">
        <ele>653.614</ele>
        <time>2020-05-23T00:26:12Z</time>
      </trkpt>
      <trkpt lat="43.180790" lon="-4.903500">
        <ele>652.608</ele>
        <time>2020-05-23T00:26:32Z</time>
      </trkpt>
      <trkpt lat="43.180800" lon="-4.903490">
        <ele>652.546</ele>
        <time>2020-05-23T00:26:52Z</time>
      </trkpt>
      <trkpt lat="43.180860" lon="-4.903440">
        <ele>651.561</ele>
        <time>2020-05-23T00:27:12Z</time>
      </trkpt>
      <trkpt lat="43.180940" lon="-4.903380">
        <ele>649.518</ele>
        <time>2020-05-23T00:27:32Z</time>
      </trkpt>
      <trkpt lat="43.180960" lon="-4.903370">
        <ele>649.184</ele>
        <time>2020-05-23T00:27:52Z</time>
      </trkpt>
      <trkpt lat="43.181040" lon="-4.903320">
        <ele>647.593</ele>
        <time>2020-05-23T00:28:12Z</time>
      </trkpt>
      <trkpt lat="43.181120" lon="-4.903270">
        <ele>646.910</ele>
        <time>2020-05-23T00:28:32Z</time>
      </trkpt>
      <trkpt lat="43.181160" lon="-4.903250">
        <ele>646.855</ele>
        <time>2020-05-23T00:28:52Z</time>
      </trkpt>
      <trkpt lat="43.181290" lon="-4.903210">
        <ele>646.879</ele>
        <time>2020-05-23T00:29:12Z</time>
      </trkpt>
      <trkpt lat="43.181300" lon="-4.903210">
        <ele>646.892</ele>
        <time>2020-05-23T00:29:32Z</time>
      </trkpt>
      <trkpt lat="43.181470" lon="-4.903200">
        <ele>647.673</ele>
        <time>2020-05-23T00:29:52Z</time>
      </trkpt>
      <trkpt lat="43.181620" lon="-4.903180">
        <ele>647.820</ele>
        <time>2020-05-23T00:30:12Z</time>
      </trkpt>
      <trkpt lat="43.181650" lon="-4.903170">
        <ele>647.608</ele>
        <time>2020-05-23T00:30:32Z</time>
      </trkpt>
      <trkpt lat="43.181730" lon="-4.903150">
        <ele>647.193</ele>
        <time>2020-05-23T00:30:52Z</time>
      </trkpt>
      <trkpt lat="43.181850" lon="-4.903130">
        <ele>646.638</ele>
        <time>2020-05-23T00:31:12Z</time>
      </trkpt>
      <trkpt lat="43.181930" lon="-4.903110">
        <ele>646.065</ele>
        <time>2020-05-23T00:31:32Z</time>
      </trkpt>
      <trkpt lat="43.181970" lon="-4.903100">
        <ele>645.591</ele>
        <time>2020-05-23T00:31:52Z</time>
      </trkpt>
      <trkpt lat="43.182050" lon="-4.903120">
        <ele>645.910</ele>
        <time>2020-05-23T00:32:12Z</time>
      </trkpt>
      <trkpt lat="43.182110" lon="-4.903130">
        <ele>646.147</ele>
        <time>2020-05-23T00:32:32Z</time>
      </trkpt>
      <trkpt lat="43.182150" lon="-4.903140">
        <ele>646.392</ele>
        <time>2020-05-23T00:32:52Z</time>
      </trkpt>
      <trkpt lat="43.182280" lon="-4.903200">
        <ele>647.416</ele>
        <time>2020-05-23T00:33:12Z</time>
      </trkpt>
      <trkpt lat="43.182440" lon="-4.903250">
        <ele>646.524</ele>
        <time>2020-05-23T00:33:32Z</time>
      </trkpt>
      <trkpt lat="43.182460" lon="-4.903260">
        <ele>646.504</ele>
        <time>2020-05-23T00:33:52Z</time>
      </trkpt>
      <trkpt lat="43.182640" lon="-4.903320">
        <ele>644.714</ele>
        <time>2020-05-23T00:34:12Z</time>
      </trkpt>
      <trkpt lat="43.182760" lon="-4.903360">
        <ele>643.408</ele>
        <time>2020-05-23T00:34:32Z</time>
      </trkpt>
      <trkpt lat="43.182810" lon="-4.903390">
        <ele>643.386</ele>
        <time>2020-05-23T00:34:52Z</time>
      </trkpt>
      <trkpt lat="43.182830" lon="-4.903410">
        <ele>643.451</ele>
        <time>2020-05-23T00:35:12Z</time>
      </trkpt>
      <trkpt lat="43.182920" lon="-4.903490">
        <ele>642.878</ele>
        <time>2020-05-23T00:35:32Z</time>
      </trkpt>
      <trkpt lat="43.182950" lon="-4.903530">
        <ele>642.564</ele>
        <time>2020-05-23T00:35:52Z</time>
      </trkpt>
      <trkpt lat="43.183010" lon="-4.903590">
        <ele>640.993</ele>
        <time>2020-05-23T00:36:12Z</time>
      </trkpt>
      <trkpt lat="43.183080" lon="-4.903660">
        <ele>639.990</ele>
        <time>2020-05-23T00:36:32Z</time>
      </trkpt>
      <trkpt lat="43.183100" lon="-4.903670">
        <ele>639.945</ele>
        <time>2020-05-23T00:36:52Z</time>
      </trkpt>
      <trkpt lat="43.183140" lon="-4.903690">
        <ele>640.059</ele>
        <time>2020-05-23T00:37:12Z</time>
      </trkpt>
      <trkpt lat="43.183190" lon="-4.903720">
        <ele>640.213</ele>
        <time>2020-05-23T00:37:32Z</time>
      </trkpt>
      <trkpt lat="43.183270" lon="-4.903730">
        <ele>639.743</ele>
        <time>2020-05-23T00:37:52Z</time>
      </trkpt>
      <trkpt lat="43.183280" lon="-4.903730">
        <ele>639.607</ele>
        <time>2020-05-23T00:38:12Z</time>
      </trkpt>
      <trkpt lat="43.183410" lon="-4.903750">
        <ele>638.808</ele>
        <time>2020-05-23T00:38:32Z</time>
      </trkpt>
      <trkpt lat="43.183450" lon="-4.903770">
        <ele>638.915</ele>
        <time>2020-05-23T00:38:52Z</time>
      </trkpt>
      <trkpt lat="43.183590" lon="-4.903820">
        <ele>639.150</ele>
        <time>2020-05-23T00:39:12Z</time>
      </trkpt>
      <trkpt lat="43.183620" lon="-4.903840">
        <ele>639.457</ele>
        <time>2020-05-23T00:39:32Z</time>
      </trkpt>
      <trkpt lat="43.183780" lon="-4.903920">
        <ele>638.223</ele>
        <time>2020-05-23T00:39:52Z</time>
      </trkpt>
      <trkpt lat="43.183950" lon="-4.904030">
        <ele>637.262</ele>
        <time>2020-05-23T00:40:12Z</time>
      </trkpt>
      <trkpt lat="43.183960" lon="-4.904030">
        <ele>636.879</ele>
        <time>2020-05-23T00:40:32Z</time>
      </trkpt>
      <trkpt lat="43.184080" lon="-4.904110">
        <ele>635.434</ele>
        <time>2020-05-23T00:40:52Z</time>
      </trkpt>
      <trkpt lat="43.184110" lon="-4.904150">
        <ele>636.158</ele>
        <time>2020-05-23T00:41:12Z</time>
      </trkpt>
      <trkpt lat="43.184170" lon="-4.904210">
        <ele>636.946</ele>
        <time>2020-05-23T00:41:32Z</time>
      </trkpt>
      <trkpt lat="43.184240" lon="-4.904290">
        <ele>638.888</ele>
        <time>2020-05-23T00:41:52Z</time>
      </trkpt>
      <trkpt lat="43.184250" lon="-4.904300">
        <ele>639.016</ele>
        <time>2020-05-23T00:42:12Z</time>
      </trkpt>
      <trkpt lat="43.184290" lon="-4.904320">
        <ele>638.808</ele>
        <time>2020-05-23T00:42:32Z</time>
      </trkpt>
      <trkpt lat="43.184340" lon="-4.904330">
        <ele>637.978</ele>
        <time>2020-05-23T00:42:52Z</time>
      </trkpt>
      <trkpt lat="43.184420" lon="-4.904330">
        <ele>635.713</ele>
        <time>2020-05-23T00:43:12Z</time>
      </trkpt>
      <trkpt lat="43.184430" lon="-4.904320">
        <ele>635.040</ele>
        <time>2020-05-23T00:43:32Z</time>
      </trkpt>
      <trkpt lat="43.184490" lon="-4.904310">
        <ele>633.216</ele>
        <time>2020-05-23T00:43:52Z</time>
      </trkpt>
      <trkpt lat="43.184570" lon="-4.904300">
        <ele>631.045</ele>
        <time>2020-05-23T00:44:12Z</time>
      </trkpt>
      <trkpt lat="43.184610" lon="-4.904300">
        <ele>630.292</ele>
        <time>2020-05-23T00:44:32Z</time>
      </trkpt>
      <trkpt lat="43.184640" lon="-4.904300">
        <ele>629.557</ele>
        <time>2020-05-23T00:44:52Z</time>
      </trkpt>
      <trkpt lat="43.184710" lon="-4.904320">
        <ele>628.981</ele>
        <time>2020-05-23T00:45:12Z</time>
      </trkpt>
      <trkpt lat="43.184780" lon="-4.904370">
        <ele>628.865</ele>
        <time>2020-05-23T00:45:32Z</time>
      </trkpt>
      <trkpt lat="43.184850" lon="-4.904430">
        <ele>628.868</ele>
        <time>2020-05-23T00:45:52Z</time>
      </trkpt>
      <trkpt lat="43.184920" lon="-4.904470">
        <ele>628.614</ele>
        <time>2020-05-23T00:46:12Z</time>
      </trkpt>
      <trkpt lat="43.185030" lon="-4.904520">
        <ele>628.508</ele>
        <time>2020-05-23T00:46:32Z</time>
      </trkpt>
      <trkpt lat="43.185110" lon="-4.904540">
        <ele>628.170</ele>
        <time>2020-05-23T00:46:52Z</time>
      </trkpt>
      <trkpt lat="43.185150" lon="-4.904550">
        <ele>627.935</ele>
        <time>2020-05-23T00:47:12Z</time>
      </trkpt>
      <trkpt lat="43.185290" lon="-4.904550">
        <ele>625.022</ele>
        <time>2020-05-23T00:47:32Z</time>
      </trkpt>
      <trkpt lat="43.185330" lon="-4.904560">
        <ele>625.568</ele>
        <time>2020-05-23T00:47:52Z</time>
      </trkpt>
      <trkpt lat="43.185470" lon="-4.904530">
        <ele>623.517</ele>
        <time>2020-05-23T00:48:12Z</time>
      </trkpt>
      <trkpt lat="43.185510" lon="-4.904530">
        <ele>623.484</ele>
        <time>2020-05-23T00:48:32Z</time>
      </trkpt>
      <trkpt lat="43.185670" lon="-4.904460">
        <ele>620.639</ele>
        <time>2020-05-23T00:48:52Z</time>
      </trkpt>
      <trkpt lat="43.185810" lon="-4.904370">
        <ele>617.943</ele>
        <time>2020-05-23T00:49:12Z</time>
      </trkpt>
      <trkpt lat="43.185860" lon="-4.904340">
        <ele>616.935</ele>
        <time>2020-05-23T00:49:32Z</time>
      </trkpt>
      <trkpt lat="43.185960" lon="-4.904300">
        <ele>615.086</ele>
        <time>2020-05-23T00:49:52Z</time>
      </trkpt>
      <trkpt lat="43.185980" lon="-4.904290">
        <ele>614.514</ele>
        <time>2020-05-23T00:50:12Z</time>
      </trkpt>
      <trkpt lat="43.186000" lon="-4.904280">
        <ele>614.008</ele>
        <time>2020-05-23T00:50:32Z</time>
      </trkpt>
      <trkpt lat="43.186030" lon="-4.904280">
        <ele>613.927</ele>
        <time>2020-05-23T00:50:52Z</time>
      </trkpt>
      <trkpt lat="43.186090" lon="-4.904290">
        <ele>614.352</ele>
        <time>2020-05-23T00:51:12Z</time>
      </trkpt>
      <trkpt lat="43.186140" lon="-4.904310">
        <ele>614.429</ele>
        <time>2020-05-23T00:51:32Z</time>
      </trkpt>
      <trkpt lat="43.186150" lon="-4.904320">
        <ele>614.685</ele>
        <time>2020-05-23T00:51:52Z</time>
      </trkpt>
      <trkpt lat="43.186220" lon="-4.904360">
        <ele>614.334</ele>
        <time>2020-05-23T00:52:12Z</time>
      </trkpt>
      <trkpt lat="43.186290" lon="-4.904400">
        <ele>613.741</ele>
        <time>2020-05-23T00:52:32Z</time>
      </trkpt>
      <trkpt lat="43.186380" lon="-4.904450">
        <ele>612.666</ele>
        <time>2020-05-23T00:52:52Z</time>
      </trkpt>
      <trkpt lat="43.186480" lon="-4.904510">
        <ele>611.740</ele>
        <time>2020-05-23T00:53:12Z</time>
      </trkpt>
      <trkpt lat="43.186610" lon="-4.904590">
        <ele>610.325</ele>
        <time>2020-05-23T00:53:32Z</time>
      </trkpt>
      <trkpt lat="43.186640" lon="-4.904610">
        <ele>609.926</ele>
        <time>2020-05-23T00:53:52Z</time>
      </trkpt>
      <trkpt lat="43.186730" lon="-4.904670">
        <ele>608.108</ele>
        <time>2020-05-23T00:54:12Z</time>
      </trkpt>
      <trkpt lat="43.186800" lon="-4.904740">
        <ele>607.008</ele>
        <time>2020-05-23T00:54:32Z</time>
      </trkpt>
      <trkpt lat="43.186870" lon="-4.904800">
        <ele>605.896</ele>
        <time>2020-05-23T00:54:52Z</time>
      </trkpt>
      <trkpt lat="43.186950" lon="-4.904860">
        <ele>604.331</ele>
        <time>2020-05-23T00:55:12Z</time>
      </trkpt>
      <trkpt lat="43.187110" lon="-4.904990">
        <ele>602.548</ele>
        <time>2020-05-23T00:55:32Z</time>
      </trkpt>
      <trkpt lat="43.187120" lon="-4.905000">
        <ele>602.484</ele>
        <time>2020-05-23T00:55:52Z</time>
      </trkpt>
      <trkpt lat="43.187260" lon="-4.905130">
        <ele>601.123</ele>
        <time>2020-05-23T00:56:12Z</time>
      </trkpt>
      <trkpt lat="43.187290" lon="-4.905150">
        <ele>600.850</ele>
        <time>2020-05-23T00:56:32Z</time>
      </trkpt>
      <trkpt lat="43.187390" lon="-4.905290">
        <ele>601.245</ele>
        <time>2020-05-23T00:56:52Z</time>
      </trkpt>
      <trkpt lat="43.187420" lon="-4.905320">
        <ele>600.889</ele>
        <time>2020-05-23T00:57:12Z</time>
      </trkpt>
      <trkpt lat="43.187530" lon="-4.905480">
        <ele>599.722</ele>
        <time>2020-05-23T00:57:32Z</time>
      </trkpt>
      <trkpt lat="43.187620" lon="-4.905620">
        <ele>600.162</ele>
        <time>2020-05-23T00:57:52Z</time>
      </trkpt>
      <trkpt lat="43.187780" lon="-4.905800">
        <ele>599.108</ele>
        <time>2020-05-23T00:58:12Z</time>
      </trkpt>
      <trkpt lat="43.187920" lon="-4.905950">
        <ele>599.208</ele>
        <time>2020-05-23T00:58:32Z</time>
      </trkpt>
      <trkpt lat="43.187990" lon="-4.906030">
        <ele>599.926</ele>
        <time>2020-05-23T00:58:52Z</time>
      </trkpt>
      <trkpt lat="43.188060" lon="-4.906120">
        <ele>601.141</ele>
        <time>2020-05-23T00:59:12Z</time>
      </trkpt>
      <trkpt lat="43.188100" lon="-4.906180">
        <ele>601.388</ele>
        <time>2020-05-23T00:59:32Z</time>
      </trkpt>
      <trkpt lat="43.188190" lon="-4.906290">
        <ele>601.894</ele>
        <time>2020-05-23T00:59:52Z</time>
      </trkpt>
      <trkpt lat="43.188190" lon="-4.906300">
        <ele>602.123</ele>
        <time>2020-05-23T01:00:12Z</time>
      </trkpt>
      <trkpt lat="43.188230" lon="-4.906350">
        <ele>602.670</ele>
        <time>2020-05-23T01:00:32Z</time>
      </trkpt>
      <trkpt lat="43.188320" lon="-4.906460">
        <ele>604.255</ele>
        <time>2020-05-23T01:00:52Z</time>
      </trkpt>
      <trkpt lat="43.188340" lon="-4.906490">
        <ele>604.849</ele>
        <time>2020-05-23T01:01:12Z</time>
      </trkpt>
      <trkpt lat="43.188460" lon="-4.906600">
        <ele>605.483</ele>
        <time>2020-05-23T01:01:32Z</time>
      </trkpt>
      <trkpt lat="43.188620" lon="-4.906750">
        <ele>606.725</ele>
        <time>2020-05-23T01:01:52Z</time>
      </trkpt>
      <trkpt lat="43.188910" lon="-4.907020">
        <ele>609.417</ele>
        <time>2020-05-23T01:02:12Z</time>
      </trkpt>
      <trkpt lat="43.188980" lon="-4.907090">
        <ele>609.708</ele>
        <time>2020-05-23T01:02:32Z</time>
      </trkpt>
      <trkpt lat="43.189060" lon="-4.907160">
        <ele>610.142</ele>
        <time>2020-05-23T01:02:52Z</time>
      </trkpt>
      <trkpt lat="43.189120" lon="-4.907210">
        <ele>610.547</ele>
        <time>2020-05-23T01:03:12Z</time>
      </trkpt>
      <trkpt lat="43.189180" lon="-4.907240">
        <ele>610.584</ele>
        <time>2020-05-23T01:03:32Z</time>
      </trkpt>
      <trkpt lat="43.189220" lon="-4.907250">
        <ele>611.180</ele>
        <time>2020-05-23T01:03:52Z</time>
      </trkpt>
      <trkpt lat="43.189240" lon="-4.907260">
        <ele>611.429</ele>
        <time>2020-05-23T01:04:12Z</time>
      </trkpt>
      <trkpt lat="43.189300" lon="-4.907260">
        <ele>611.826</ele>
        <time>2020-05-23T01:04:32Z</time>
      </trkpt>
      <trkpt lat="43.189400" lon="-4.907240">
        <ele>612.151</ele>
        <time>2020-05-23T01:04:52Z</time>
      </trkpt>
      <trkpt lat="43.189410" lon="-4.907240">
        <ele>612.165</ele>
        <time>2020-05-23T01:05:12Z</time>
      </trkpt>
      <trkpt lat="43.189570" lon="-4.907160">
        <ele>612.242</ele>
        <time>2020-05-23T01:05:32Z</time>
      </trkpt>
      <trkpt lat="43.189650" lon="-4.907130">
        <ele>612.222</ele>
        <time>2020-05-23T01:05:52Z</time>
      </trkpt>
      <trkpt lat="43.189740" lon="-4.907110">
        <ele>612.314</ele>
        <time>2020-05-23T01:06:12Z</time>
      </trkpt>
      <trkpt lat="43.189810" lon="-4.907100">
        <ele>611.508</ele>
        <time>2020-05-23T01:06:32Z</time>
      </trkpt>
      <trkpt lat="43.189920" lon="-4.907090">
        <ele>610.668</ele>
        <time>2020-05-23T01:06:52Z</time>
      </trkpt>
      <trkpt lat="43.190010" lon="-4.907100">
        <ele>610.573</ele>
        <time>2020-05-23T01:07:12Z</time>
      </trkpt>
      <trkpt lat="43.190090" lon="-4.907120">
        <ele>608.650</ele>
        <time>2020-05-23T01:07:32Z</time>
      </trkpt>
      <trkpt lat="43.190100" lon="-4.907130">
        <ele>608.876</ele>
        <time>2020-05-23T01:07:52Z</time>
      </trkpt>
      <trkpt lat="43.190230" lon="-4.907200">
        <ele>608.275</ele>
        <time>2020-05-23T01:08:12Z</time>
      </trkpt>
      <trkpt lat="43.190430" lon="-4.907340">
        <ele>605.772</ele>
        <time>2020-05-23T01:08:32Z</time>
      </trkpt>
      <trkpt lat="43.190510" lon="-4.907390">
        <ele>604.557</ele>
        <time>2020-05-23T01:08:52Z</time>
      </trkpt>
      <trkpt lat="43.190590" lon="-4.907450">
        <ele>604.261</ele>
        <time>2020-05-23T01:09:12Z</time>
      </trkpt>
      <trkpt lat="43.190680" lon="-4.907510">
        <ele>603.112</ele>
        <time>2020-05-23T01:09:32Z</time>
      </trkpt>
      <trkpt lat="43.190750" lon="-4.907560">
        <ele>601.332</ele>
        <time>2020-05-23T01:09:52Z</time>
      </trkpt>
      <trkpt lat="43.190790" lon="-4.907630">
        <ele>601.805</ele>
        <time>2020-05-23T01:10:12Z</time>
      </trkpt>
      <trkpt lat="43.190840" lon="-4.907730">
        <ele>602.908</ele>
        <time>2020-05-23T01:10:32Z</time>
      </trkpt>
      <trkpt lat="43.190850" lon="-4.907760">
        <ele>603.565</ele>
        <time>2020-05-23T01:10:52Z</time>
      </trkpt>
      <trkpt lat="43.190930" lon="-4.907980">
        <ele>599.990</ele>
        <time>2020-05-23T01:11:12Z</time>
      </trkpt>
      <trkpt lat="43.191090" lon="-4.908430">
        <ele>591.197</ele>
        <time>2020-05-23T01:11:32Z</time>
      </trkpt>
      <trkpt lat="43.191150" lon="-4.908600">
        <ele>588.923</ele>
        <time>2020-05-23T01:11:52Z</time>
      </trkpt>
      <trkpt lat="43.191170" lon="-4.908650">
        <ele>588.422</ele>
        <time>2020-05-23T01:12:12Z</time>
      </trkpt>
      <trkpt lat="43.191200" lon="-4.908700">
        <ele>587.819</ele>
        <time>2020-05-23T01:12:32Z</time>
      </trkpt>
      <trkpt lat="43.191270" lon="-4.908850">
        <ele>586.394</ele>
        <time>2020-05-23T01:12:52Z</time>
      </trkpt>
      <trkpt lat="43.191320" lon="-4.908940">
        <ele>585.048</ele>
        <time>2020-05-23T01:13:12Z</time>
      </trkpt>
      <trkpt lat="43.191420" lon="-4.909180">
        <ele>582.379</ele>
        <time>2020-05-23T01:13:32Z</time>
      </trkpt>
      <trkpt lat="43.191470" lon="-4.909260">
        <ele>581.105</ele>
        <time>2020-05-23T01:13:52Z</time>
      </trkpt>
      <trkpt lat="43.191540" lon="-4.909380">
        <ele>579.825</ele>
        <time>2020-05-23T01:14:12Z</time>
      </trkpt>
      <trkpt lat="43.191600" lon="-4.909430">
        <ele>578.908</ele>
        <time>2020-05-23T01:14:32Z</time>
      </trkpt>
      <trkpt lat="43.191630" lon="-4.909460">
        <ele>578.671</ele>
        <time>2020-05-23T01:14:52Z</time>
      </trkpt>
      <trkpt lat="43.191660" lon="-4.909470">
        <ele>578.256</ele>
        <time>2020-05-23T01:15:12Z</time>
      </trkpt>
      <trkpt lat="43.191690" lon="-4.909470">
        <ele>577.363</ele>
        <time>2020-05-23T01:15:32Z</time>
      </trkpt>
      <trkpt lat="43.191720" lon="-4.909470">
        <ele>576.349</ele>
        <time>2020-05-23T01:15:52Z</time>
      </trkpt>
      <trkpt lat="43.191750" lon="-4.909460">
        <ele>575.328</ele>
        <time>2020-05-23T01:16:12Z</time>
      </trkpt>
      <trkpt lat="43.191770" lon="-4.909450">
        <ele>574.735</ele>
        <time>2020-05-23T01:16:32Z</time>
      </trkpt>
      <trkpt lat="43.191780" lon="-4.909450">
        <ele>574.340</ele>
        <time>2020-05-23T01:16:52Z</time>
      </trkpt>
      <trkpt lat="43.191810" lon="-4.909430">
        <ele>573.444</ele>
        <time>2020-05-23T01:17:12Z</time>
      </trkpt>
      <trkpt lat="43.191830" lon="-4.909400">
        <ele>572.986</ele>
        <time>2020-05-23T01:17:32Z</time>
      </trkpt>
      <trkpt lat="43.191840" lon="-4.909360">
        <ele>572.860</ele>
        <time>2020-05-23T01:17:52Z</time>
      </trkpt>
      <trkpt lat="43.191880" lon="-4.909280">
        <ele>572.326</ele>
        <time>2020-05-23T01:18:12Z</time>
      </trkpt>
      <trkpt lat="43.191890" lon="-4.909270">
        <ele>572.208</ele>
        <time>2020-05-23T01:18:32Z</time>
      </trkpt>
      <trkpt lat="43.191920" lon="-4.909180">
        <ele>572.372</ele>
        <time>2020-05-23T01:18:52Z</time>
      </trkpt>
      <trkpt lat="43.191940" lon="-4.909130">
        <ele>572.387</ele>
        <time>2020-05-23T01:19:12Z</time>
      </trkpt>
      <trkpt lat="43.191970" lon="-4.909070">
        <ele>572.134</ele>
        <time>2020-05-23T01:19:32Z</time>
      </trkpt>
      <trkpt lat="43.191980" lon="-4.909060">
        <ele>572.010</ele>
        <time>2020-05-23T01:19:52Z</time>
      </trkpt>
      <trkpt lat="43.192030" lon="-4.909010">
        <ele>571.319</ele>
        <time>2020-05-23T01:20:12Z</time>
      </trkpt>
      <trkpt lat="43.192130" lon="-4.908940">
        <ele>569.686</ele>
        <time>2020-05-23T01:20:32Z</time>
      </trkpt>
      <trkpt lat="43.192170" lon="-4.908910">
        <ele>569.031</ele>
        <time>2020-05-23T01:20:52Z</time>
      </trkpt>
      <trkpt lat="43.192300" lon="-4.908840">
        <ele>567.345</ele>
        <time>2020-05-23T01:21:12Z</time>
      </trkpt>
      <trkpt lat="43.192420" lon="-4.908780">
        <ele>566.571</ele>
        <time>2020-05-23T01:21:32Z</time>
      </trkpt>
      <trkpt lat="43.192470" lon="-4.908750">
        <ele>566.241</ele>
        <time>2020-05-23T01:21:52Z</time>
      </trkpt>
      <trkpt lat="43.192680" lon="-4.908620">
        <ele>564.815</ele>
        <time>2020-05-23T01:22:12Z</time>
      </trkpt>
      <trkpt lat="43.192750" lon="-4.908590">
        <ele>564.308</ele>
        <time>2020-05-23T01:22:32Z</time>
      </trkpt>
      <trkpt lat="43.192800" lon="-4.908570">
        <ele>564.371</ele>
        <time>2020-05-23T01:22:52Z</time>
      </trkpt>
      <trkpt lat="43.192810" lon="-4.908560">
        <ele>564.436</ele>
        <time>2020-05-23T01:23:12Z</time>
      </trkpt>
      <trkpt lat="43.192870" lon="-4.908550">
        <ele>564.823</ele>
        <time>2020-05-23T01:23:32Z</time>
      </trkpt>
      <trkpt lat="43.192930" lon="-4.908540">
        <ele>565.199</ele>
        <time>2020-05-23T01:23:52Z</time>
      </trkpt>
      <trkpt lat="43.192970" lon="-4.908570">
        <ele>565.618</ele>
        <time>2020-05-23T01:24:12Z</time>
      </trkpt>
      <trkpt lat="43.193040" lon="-4.908580">
        <ele>566.345</ele>
        <time>2020-05-23T01:24:32Z</time>
      </trkpt>
      <trkpt lat="43.193070" lon="-4.908580">
        <ele>567.180</ele>
        <time>2020-05-23T01:24:52Z</time>
      </trkpt>
      <trkpt lat="43.193120" lon="-4.908580">
        <ele>569.434</ele>
        <time>2020-05-23T01:25:12Z</time>
      </trkpt>
      <trkpt lat="43.193150" lon="-4.908570">
        <ele>570.568</ele>
        <time>2020-05-23T01:25:32Z</time>
      </trkpt>
      <trkpt lat="43.193180" lon="-4.908560">
        <ele>571.442</ele>
        <time>2020-05-23T01:25:52Z</time>
      </trkpt>
      <trkpt lat="43.193230" lon="-4.908520">
        <ele>571.926</ele>
        <time>2020-05-23T01:26:12Z</time>
      </trkpt>
      <trkpt lat="43.193290" lon="-4.908450">
        <ele>570.508</ele>
        <time>2020-05-23T01:26:32Z</time>
      </trkpt>
      <trkpt lat="43.193410" lon="-4.908310">
        <ele>569.290</ele>
        <time>2020-05-23T01:26:52Z</time>
      </trkpt>
      <trkpt lat="43.193440" lon="-4.908270">
        <ele>569.875</ele>
        <time>2020-05-23T01:27:12Z</time>
      </trkpt>
      <trkpt lat="43.193490" lon="-4.908210">
        <ele>570.312</ele>
        <time>2020-05-23T01:27:32Z</time>
      </trkpt>
      <trkpt lat="43.193530" lon="-4.908120">
        <ele>568.248</ele>
        <time>2020-05-23T01:27:52Z</time>
      </trkpt>
      <trkpt lat="43.193550" lon="-4.908080">
        <ele>567.067</ele>
        <time>2020-05-23T01:28:12Z</time>
      </trkpt>
      <trkpt lat="43.193580" lon="-4.908000">
        <ele>565.554</ele>
        <time>2020-05-23T01:28:32Z</time>
      </trkpt>
      <trkpt lat="43.193640" lon="-4.907870">
        <ele>565.129</ele>
        <time>2020-05-23T01:28:52Z</time>
      </trkpt>
      <trkpt lat="43.193650" lon="-4.907840">
        <ele>564.993</ele>
        <time>2020-05-23T01:29:12Z</time>
      </trkpt>
      <trkpt lat="43.193740" lon="-4.907660">
        <ele>563.891</ele>
        <time>2020-05-23T01:29:32Z</time>
      </trkpt>
      <trkpt lat="43.193770" lon="-4.907610">
        <ele>563.281</ele>
        <time>2020-05-23T01:29:52Z</time>
      </trkpt>
      <trkpt lat="43.193830" lon="-4.907510">
        <ele>561.519</ele>
        <time>2020-05-23T01:30:12Z</time>
      </trkpt>
      <trkpt lat="43.193890" lon="-4.907440">
        <ele>560.908</ele>
        <time>2020-05-23T01:30:32Z</time>
      </trkpt>
      <trkpt lat="43.193930" lon="-4.907400">
        <ele>560.243</ele>
        <time>2020-05-23T01:30:52Z</time>
      </trkpt>
      <trkpt lat="43.194000" lon="-4.907370">
        <ele>559.718</ele>
        <time>2020-05-23T01:31:12Z</time>
      </trkpt>
      <trkpt lat="43.194060" lon="-4.907360">
        <ele>559.525</ele>
        <time>2020-05-23T01:31:32Z</time>
      </trkpt>
      <trkpt lat="43.194150" lon="-4.907350">
        <ele>559.331</ele>
        <time>2020-05-23T01:31:52Z</time>
      </trkpt>
      <trkpt lat="43.194190" lon="-4.907360">
        <ele>559.370</ele>
        <time>2020-05-23T01:32:12Z</time>
      </trkpt>
      <trkpt lat="43.194230" lon="-4.907360">
        <ele>558.937</ele>
        <time>2020-05-23T01:32:32Z</time>
      </trkpt>
      <trkpt lat="43.194310" lon="-4.907390">
        <ele>558.782</ele>
        <time>2020-05-23T01:32:52Z</time>
      </trkpt>
      <trkpt lat="43.194360" lon="-4.907420">
        <ele>558.756</ele>
        <time>2020-05-23T01:33:12Z</time>
      </trkpt>
      <trkpt lat="43.194520" lon="-4.907500">
        <ele>558.244</ele>
        <time>2020-05-23T01:33:32Z</time>
      </trkpt>
      <trkpt lat="43.194530" lon="-4.907510">
        <ele>558.505</ele>
        <time>2020-05-23T01:33:52Z</time>
      </trkpt>
      <trkpt lat="43.194590" lon="-4.907540">
        <ele>559.015</ele>
        <time>2020-05-23T01:34:12Z</time>
      </trkpt>
      <trkpt lat="43.194670" lon="-4.907560">
        <ele>559.108</ele>
        <time>2020-05-23T01:34:32Z</time>
      </trkpt>
      <trkpt lat="43.194800" lon="-4.907570">
        <ele>560.168</ele>
        <time>2020-05-23T01:34:52Z</time>
      </trkpt>
      <trkpt lat="43.194920" lon="-4.907570">
        <ele>561.943</ele>
        <time>2020-05-23T01:35:12Z</time>
      </trkpt>
      <trkpt lat="43.195060" lon="-4.907540">
        <ele>561.910</ele>
        <time>2020-05-23T01:35:32Z</time>
      </trkpt>
      <trkpt lat="43.195090" lon="-4.907540">
        <ele>562.246</ele>
        <time>2020-05-23T01:35:52Z</time>
      </trkpt>
      <trkpt lat="43.195240" lon="-4.907490">
        <ele>561.355</ele>
        <time>2020-05-23T01:36:12Z</time>
      </trkpt>
      <trkpt lat="43.195290" lon="-4.907470">
        <ele>561.292</ele>
        <time>2020-05-23T01:36:32Z</time>
      </trkpt>
      <trkpt lat="43.195370" lon="-4.907450">
        <ele>561.217</ele>
        <time>2020-05-23T01:36:52Z</time>
      </trkpt>
      <trkpt lat="43.195420" lon="-4.907450">
        <ele>561.621</ele>
        <time>2020-05-23T01:37:12Z</time>
      </trkpt>
      <trkpt lat="43.195460" lon="-4.907440">
        <ele>561.671</ele>
        <time>2020-05-23T01:37:32Z</time>
      </trkpt>
      <trkpt lat="43.195550" lon="-4.907440">
        <ele>562.241</ele>
        <time>2020-05-23T01:37:52Z</time>
      </trkpt>
      <trkpt lat="43.195590" lon="-4.907420">
        <ele>562.315</ele>
        <time>2020-05-23T01:38:12Z</time>
      </trkpt>
      <trkpt lat="43.195630" lon="-4.907390">
        <ele>562.108</ele>
        <time>2020-05-23T01:38:32Z</time>
      </trkpt>
      <trkpt lat="43.195670" lon="-4.907360">
        <ele>561.861</ele>
        <time>2020-05-23T01:38:52Z</time>
      </trkpt>
      <trkpt lat="43.195750" lon="-4.907300">
        <ele>560.996</ele>
        <time>2020-05-23T01:39:12Z</time>
      </trkpt>
      <trkpt lat="43.195780" lon="-4.907280">
        <ele>560.663</ele>
        <time>2020-05-23T01:39:32Z</time>
      </trkpt>
      <trkpt lat="43.195880" lon="-4.907220">
        <ele>559.349</ele>
        <time>2020-05-23T01:39:52Z</time>
      </trkpt>
      <trkpt lat="43.195920" lon="-4.907210">
        <ele>559.348</ele>
        <time>2020-05-23T01:40:12Z</time>
      </trkpt>
      <trkpt lat="43.195970" lon="-4.907190">
        <ele>559.095</ele>
        <time>2020-05-23T01:40:32Z</time>
      </trkpt>
      <trkpt lat="43.196080" lon="-4.907150">
        <ele>558.310</ele>
        <time>2020-05-23T01:40:52Z</time>
      </trkpt>
      <trkpt lat="43.196090" lon="-4.907140">
        <ele>558.014</ele>
        <time>2020-05-23T01:41:12Z</time>
      </trkpt>
      <trkpt lat="43.196150" lon="-4.907120">
        <ele>557.362</ele>
        <time>2020-05-23T01:41:32Z</time>
      </trkpt>
      <trkpt lat="43.196230" lon="-4.907090">
        <ele>556.183</ele>
        <time>2020-05-23T01:41:52Z</time>
      </trkpt>
      <trkpt lat="43.196270" lon="-4.907090">
        <ele>556.011</ele>
        <time>2020-05-23T01:42:12Z</time>
      </trkpt>
      <trkpt lat="43.196350" lon="-4.907100">
        <ele>556.308</ele>
        <time>2020-05-23T01:42:32Z</time>
      </trkpt>
      <trkpt lat="43.196440" lon="-4.907120">
        <ele>556.320</ele>
        <time>2020-05-23T01:42:52Z</time>
      </trkpt>
      <trkpt lat="43.196460" lon="-4.907120">
        <ele>555.995</ele>
        <time>2020-05-23T01:43:12Z</time>
      </trkpt>
      <trkpt lat="43.196580" lon="-4.907180">
        <ele>555.752</ele>
        <time>2020-05-23T01:43:32Z</time>
      </trkpt>
      <trkpt lat="43.196610" lon="-4.907200">
        <ele>555.788</ele>
        <time>2020-05-23T01:43:52Z</time>
      </trkpt>
      <trkpt lat="43.196660" lon="-4.907220">
        <ele>555.167</ele>
        <time>2020-05-23T01:44:12Z</time>
      </trkpt>
      <trkpt lat="43.196730" lon="-4.907250">
        <ele>557.574</ele>
        <time>2020-05-23T01:44:32Z</time>
      </trkpt>
      <trkpt lat="43.196790" lon="-4.907260">
        <ele>558.729</ele>
        <time>2020-05-23T01:44:52Z</time>
      </trkpt>
      <trkpt lat="43.196800" lon="-4.907260">
        <ele>558.853</ele>
        <time>2020-05-23T01:45:12Z</time>
      </trkpt>
      <trkpt lat="43.196890" lon="-4.907250">
        <ele>558.874</ele>
        <time>2020-05-23T01:45:32Z</time>
      </trkpt>
      <trkpt lat="43.196970" lon="-4.907230">
        <ele>558.156</ele>
        <time>2020-05-23T01:45:52Z</time>
      </trkpt>
      <trkpt lat="43.196990" lon="-4.907220">
        <ele>557.721</ele>
        <time>2020-05-23T01:46:12Z</time>
      </trkpt>
      <trkpt lat="43.197100" lon="-4.907180">
        <ele>558.008</ele>
        <time>2020-05-23T01:46:32Z</time>
      </trkpt>
      <trkpt lat="43.197140" lon="-4.907160">
        <ele>557.991</ele>
        <time>2020-05-23T01:46:52Z</time>
      </trkpt>
      <trkpt lat="43.197240" lon="-4.907100">
        <ele>557.116</ele>
        <time>2020-05-23T01:47:12Z</time>
      </trkpt>
      <trkpt lat="43.197310" lon="-4.907080">
        <ele>557.723</ele>
        <time>2020-05-23T01:47:32Z</time>
      </trkpt>
      <trkpt lat="43.197480" lon="-4.907030">
        <ele>558.229</ele>
        <time>2020-05-23T01:47:52Z</time>
      </trkpt>
      <trkpt lat="43.197510" lon="-4.907020">
        <ele>557.928</ele>
        <time>2020-05-23T01:48:12Z</time>
      </trkpt>
      <trkpt lat="43.197660" lon="-4.906980">
        <ele>555.915</ele>
        <time>2020-05-23T01:48:32Z</time>
      </trkpt>
      <trkpt lat="43.197710" lon="-4.906960">
        <ele>554.860</ele>
        <time>2020-05-23T01:48:52Z</time>
      </trkpt>
      <trkpt lat="43.197800" lon="-4.906950">
        <ele>555.144</ele>
        <time>2020-05-23T01:49:12Z</time>
      </trkpt>
      <trkpt lat="43.197840" lon="-4.906960">
        <ele>557.078</ele>
        <time>2020-05-23T01:49:32Z</time>
      </trkpt>
      <trkpt lat="43.197850" lon="-4.906960">
        <ele>557.433</ele>
        <time>2020-05-23T01:49:52Z</time>
      </trkpt>
      <trkpt lat="43.197880" lon="-4.906960">
        <ele>558.426</ele>
        <time>2020-05-23T01:50:12Z</time>
      </trkpt>
      <trkpt lat="43.197920" lon="-4.906950">
        <ele>559.008</ele>
        <time>2020-05-23T01:50:32Z</time>
      </trkpt>
      <trkpt lat="43.197960" lon="-4.906920">
        <ele>558.511</ele>
        <time>2020-05-23T01:50:52Z</time>
      </trkpt>
      <trkpt lat="43.198100" lon="-4.906840">
        <ele>557.486</ele>
        <time>2020-05-23T01:51:12Z</time>
      </trkpt>
      <trkpt lat="43.198170" lon="-4.906790">
        <ele>555.643</ele>
        <time>2020-05-23T01:51:32Z</time>
      </trkpt>
      <trkpt lat="43.198280" lon="-4.906730">
        <ele>553.939</ele>
        <time>2020-05-23T01:51:52Z</time>
      </trkpt>
      <trkpt lat="43.198340" lon="-4.906710">
        <ele>553.668</ele>
        <time>2020-05-23T01:52:12Z</time>
      </trkpt>
      <trkpt lat="43.198390" lon="-4.906690">
        <ele>552.365</ele>
        <time>2020-05-23T01:52:32Z</time>
      </trkpt>
      <trkpt lat="43.198520" lon="-4.906670">
        <ele>550.680</ele>
        <time>2020-05-23T01:52:52Z</time>
      </trkpt>
      <trkpt lat="43.198660" lon="-4.906680">
        <ele>552.064</ele>
        <time>2020-05-23T01:53:12Z</time>
      </trkpt>
      <trkpt lat="43.198700" lon="-4.906680">
        <ele>552.849</ele>
        <time>2020-05-23T01:53:32Z</time>
      </trkpt>
      <trkpt lat="43.198780" lon="-4.906680">
        <ele>554.302</ele>
        <time>2020-05-23T01:53:52Z</time>
      </trkpt>
      <trkpt lat="43.198880" lon="-4.906660">
        <ele>554.422</ele>
        <time>2020-05-23T01:54:12Z</time>
      </trkpt>
      <trkpt lat="43.198910" lon="-4.906650">
        <ele>554.908</ele>
        <time>2020-05-23T01:54:32Z</time>
      </trkpt>
      <trkpt lat="43.199050" lon="-4.906600">
        <ele>557.398</ele>
        <time>2020-05-23T01:54:52Z</time>
      </trkpt>
      <trkpt lat="43.199060" lon="-4.906600">
        <ele>557.873</ele>
        <time>2020-05-23T01:55:12Z</time>
      </trkpt>
      <trkpt lat="43.199170" lon="-4.906550">
        <ele>556.820</ele>
        <time>2020-05-23T01:55:32Z</time>
      </trkpt>
      <trkpt lat="43.199220" lon="-4.906530">
        <ele>557.146</ele>
        <time>2020-05-23T01:55:52Z</time>
      </trkpt>
      <trkpt lat="43.199400" lon="-4.906480">
        <ele>557.925</ele>
        <time>2020-05-23T01:56:12Z</time>
      </trkpt>
      <trkpt lat="43.199430" lon="-4.906470">
        <ele>557.342</ele>
        <time>2020-05-23T01:56:32Z</time>
      </trkpt>
      <trkpt lat="43.199570" lon="-4.906400">
        <ele>551.417</ele>
        <time>2020-05-23T01:56:52Z</time>
      </trkpt>
      <trkpt lat="43.199740" lon="-4.906310">
        <ele>551.961</ele>
        <time>2020-05-23T01:57:12Z</time>
      </trkpt>
      <trkpt lat="43.199760" lon="-4.906300">
        <ele>551.259</ele>
        <time>2020-05-23T01:57:32Z</time>
      </trkpt>
      <trkpt lat="43.199890" lon="-4.906240">
        <ele>548.103</ele>
        <time>2020-05-23T01:57:52Z</time>
      </trkpt>
      <trkpt lat="43.199910" lon="-4.906240">
        <ele>548.423</ele>
        <time>2020-05-23T01:58:12Z</time>
      </trkpt>
      <trkpt lat="43.199970" lon="-4.906210">
        <ele>547.308</ele>
        <time>2020-05-23T01:58:32Z</time>
      </trkpt>
      <trkpt lat="43.200070" lon="-4.906130">
        <ele>547.779</ele>
        <time>2020-05-23T01:58:52Z</time>
      </trkpt>
      <trkpt lat="43.200150" lon="-4.906040">
        <ele>550.554</ele>
        <time>2020-05-23T01:59:12Z</time>
      </trkpt>
      <trkpt lat="43.200210" lon="-4.905970">
        <ele>553.141</ele>
        <time>2020-05-23T01:59:32Z</time>
      </trkpt>
      <trkpt lat="43.200260" lon="-4.905910">
        <ele>555.317</ele>
        <time>2020-05-23T01:59:52Z</time>
      </trkpt>
      <trkpt lat="43.200340" lon="-4.905800">
        <ele>559.276</ele>
        <time>2020-05-23T02:00:12Z</time>
      </trkpt>
      <trkpt lat="43.200370" lon="-4.905770">
        <ele>559.573</ele>
        <time>2020-05-23T02:00:32Z</time>
      </trkpt>
      <trkpt lat="43.200480" lon="-4.905650">
        <ele>557.018</ele>
        <time>2020-05-23T02:00:52Z</time>
      </trkpt>
      <trkpt lat="43.200490" lon="-4.905640">
        <ele>556.782</ele>
        <time>2020-05-23T02:01:12Z</time>
      </trkpt>
      <trkpt lat="43.200570" lon="-4.905570">
        <ele>553.746</ele>
        <time>2020-05-23T02:01:32Z</time>
      </trkpt>
      <trkpt lat="43.200630" lon="-4.905510">
        <ele>551.988</ele>
        <time>2020-05-23T02:01:52Z</time>
      </trkpt>
      <trkpt lat="43.200700" lon="-4.905430">
        <ele>550.216</ele>
        <time>2020-05-23T02:02:12Z</time>
      </trkpt>
      <trkpt lat="43.200760" lon="-4.905340">
        <ele>547.308</ele>
        <time>2020-05-23T02:02:32Z</time>
      </trkpt>
      <trkpt lat="43.200780" lon="-4.905310">
        <ele>546.388</ele>
        <time>2020-05-23T02:02:52Z</time>
      </trkpt>
      <trkpt lat="43.200870" lon="-4.905150">
        <ele>543.793</ele>
        <time>2020-05-23T02:03:12Z</time>
      </trkpt>
      <trkpt lat="43.200880" lon="-4.905140">
        <ele>543.940</ele>
        <time>2020-05-23T02:03:32Z</time>
      </trkpt>
      <trkpt lat="43.200980" lon="-4.904980">
        <ele>543.556</ele>
        <time>2020-05-23T02:03:52Z</time>
      </trkpt>
      <trkpt lat="43.200990" lon="-4.904970">
        <ele>543.685</ele>
        <time>2020-05-23T02:04:12Z</time>
      </trkpt>
      <trkpt lat="43.201130" lon="-4.904810">
        <ele>541.352</ele>
        <time>2020-05-23T02:04:32Z</time>
      </trkpt>
      <trkpt lat="43.201270" lon="-4.904660">
        <ele>546.327</ele>
        <time>2020-05-23T02:04:52Z</time>
      </trkpt>
      <trkpt lat="43.201300" lon="-4.904630">
        <ele>546.571</ele>
        <time>2020-05-23T02:05:12Z</time>
      </trkpt>
      <trkpt lat="43.201420" lon="-4.904510">
        <ele>545.759</ele>
        <time>2020-05-23T02:05:32Z</time>
      </trkpt>
      <trkpt lat="43.201540" lon="-4.904330">
        <ele>548.003</ele>
        <time>2020-05-23T02:05:52Z</time>
      </trkpt>
      <trkpt lat="43.201560" lon="-4.904310">
        <ele>548.123</ele>
        <time>2020-05-23T02:06:12Z</time>
      </trkpt>
      <trkpt lat="43.201660" lon="-4.904150">
        <ele>533.108</ele>
        <time>2020-05-23T02:06:32Z</time>
      </trkpt>
      <trkpt lat="43.201670" lon="-4.904140">
        <ele>533.729</ele>
        <time>2020-05-23T02:06:52Z</time>
      </trkpt>
      <trkpt lat="43.201770" lon="-4.904030">
        <ele>542.184</ele>
        <time>2020-05-23T02:07:12Z</time>
      </trkpt>
      <trkpt lat="43.201800" lon="-4.904000">
        <ele>542.231</ele>
        <time>2020-05-23T02:07:32Z</time>
      </trkpt>
      <trkpt lat="43.201910" lon="-4.903880">
        <ele>532.447</ele>
        <time>2020-05-23T02:07:52Z</time>
      </trkpt>
      <trkpt lat="43.201950" lon="-4.903850">
        <ele>533.456</ele>
        <time>2020-05-23T02:08:12Z</time>
      </trkpt>
      <trkpt lat="43.202020" lon="-4.903780">
        <ele>539.423</ele>
        <time>2020-05-23T02:08:32Z</time>
      </trkpt>
      <trkpt lat="43.202100" lon="-4.903730">
        <ele>543.898</ele>
        <time>2020-05-23T02:08:52Z</time>
      </trkpt>
      <trkpt lat="43.202130" lon="-4.903710">
        <ele>544.232</ele>
        <time>2020-05-23T02:09:12Z</time>
      </trkpt>
      <trkpt lat="43.202230" lon="-4.903650">
        <ele>542.675</ele>
        <time>2020-05-23T02:09:32Z</time>
      </trkpt>
      <trkpt lat="43.202270" lon="-4.903630">
        <ele>541.128</ele>
        <time>2020-05-23T02:09:52Z</time>
      </trkpt>
      <trkpt lat="43.202400" lon="-4.903580">
        <ele>539.520</ele>
        <time>2020-05-23T02:10:12Z</time>
      </trkpt>
      <trkpt lat="43.202440" lon="-4.903570">
        <ele>540.008</ele>
        <time>2020-05-23T02:10:32Z</time>
      </trkpt>
      <trkpt lat="43.202570" lon="-4.903530">
        <ele>540.981</ele>
        <time>2020-05-23T02:10:52Z</time>
      </trkpt>
      <trkpt lat="43.202620" lon="-4.903530">
        <ele>542.926</ele>
        <time>2020-05-23T02:11:12Z</time>
      </trkpt>
      <trkpt lat="43.202800" lon="-4.903530">
        <ele>550.623</ele>
        <time>2020-05-23T02:11:32Z</time>
      </trkpt>
      <trkpt lat="43.202840" lon="-4.903530">
        <ele>553.379</ele>
        <time>2020-05-23T02:11:52Z</time>
      </trkpt>
      <trkpt lat="43.203080" lon="-4.903480">
        <ele>557.368</ele>
        <time>2020-05-23T02:12:12Z</time>
      </trkpt>
      <trkpt lat="43.203160" lon="-4.903470">
        <ele>559.285</ele>
        <time>2020-05-23T02:12:32Z</time>
      </trkpt>
      <trkpt lat="43.203310" lon="-4.903450">
        <ele>561.230</ele>
        <time>2020-05-23T02:12:52Z</time>
      </trkpt>
      <trkpt lat="43.203340" lon="-4.903450">
        <ele>562.454</ele>
        <time>2020-05-23T02:13:12Z</time>
      </trkpt>
      <trkpt lat="43.203420" lon="-4.903430">
        <ele>556.531</ele>
        <time>2020-05-23T02:13:32Z</time>
      </trkpt>
      <trkpt lat="43.203470" lon="-4.903420">
        <ele>554.061</ele>
        <time>2020-05-23T02:13:52Z</time>
      </trkpt>
      <trkpt lat="43.203510" lon="-4.903390">
        <ele>546.407</ele>
        <time>2020-05-23T02:14:12Z</time>
      </trkpt>
      <trkpt lat="43.203520" lon="-4.903380">
        <ele>544.008</ele>
        <time>2020-05-23T02:14:32Z</time>
      </trkpt>
      <trkpt lat="43.203560" lon="-4.903340">
        <ele>534.837</ele>
        <time>2020-05-23T02:14:52Z</time>
      </trkpt>
      <trkpt lat="43.203580" lon="-4.903260">
        <ele>528.722</ele>
        <time>2020-05-23T02:15:12Z</time>
      </trkpt>
      <trkpt lat="43.203590" lon="-4.903180">
        <ele>523.169</ele>
        <time>2020-05-23T02:15:32Z</time>
      </trkpt>
      <trkpt lat="43.203620" lon="-4.903120">
        <ele>518.975</ele>
        <time>2020-05-23T02:15:52Z</time>
      </trkpt>
      <trkpt lat="43.203640" lon="-4.903090">
        <ele>516.674</ele>
        <time>2020-05-23T02:16:12Z</time>
      </trkpt>
      <trkpt lat="43.203670" lon="-4.903070">
        <ele>514.931</ele>
        <time>2020-05-23T02:16:32Z</time>
      </trkpt>
      <trkpt lat="43.203730" lon="-4.903040">
        <ele>514.036</ele>
        <time>2020-05-23T02:16:52Z</time>
      </trkpt>
      <trkpt lat="43.203740" lon="-4.903030">
        <ele>514.280</ele>
        <time>2020-05-23T02:17:12Z</time>
      </trkpt>
      <trkpt lat="43.203800" lon="-4.903010">
        <ele>514.331</ele>
        <time>2020-05-23T02:17:32Z</time>
      </trkpt>
      <trkpt lat="43.203910" lon="-4.902990">
        <ele>514.961</ele>
        <time>2020-05-23T02:17:52Z</time>
      </trkpt>
      <trkpt lat="43.203920" lon="-4.902990">
        <ele>515.407</ele>
        <time>2020-05-23T02:18:12Z</time>
      </trkpt>
      <trkpt lat="43.204000" lon="-4.902950">
        <ele>518.408</ele>
        <time>2020-05-23T02:18:32Z</time>
      </trkpt>
      <trkpt lat="43.204070" lon="-4.902880">
        <ele>518.227</ele>
        <time>2020-05-23T02:18:52Z</time>
      </trkpt>
      <trkpt lat="43.204090" lon="-4.902870">
        <ele>518.152</ele>
        <time>2020-05-23T02:19:12Z</time>
      </trkpt>
      <trkpt lat="43.204150" lon="-4.902770">
        <ele>514.359</ele>
        <time>2020-05-23T02:19:32Z</time>
      </trkpt>
      <trkpt lat="43.204190" lon="-4.902710">
        <ele>522.785</ele>
        <time>2020-05-23T02:19:52Z</time>
      </trkpt>
      <trkpt lat="43.204220" lon="-4.902660">
        <ele>528.214</ele>
        <time>2020-05-23T02:20:12Z</time>
      </trkpt>
      <trkpt lat="43.204270" lon="-4.902600">
        <ele>531.131</ele>
        <time>2020-05-23T02:20:32Z</time>
      </trkpt>
      <trkpt lat="43.204330" lon="-4.902560">
        <ele>528.176</ele>
        <time>2020-05-23T02:20:52Z</time>
      </trkpt>
      <trkpt lat="43.204340" lon="-4.902550">
        <ele>527.460</ele>
        <time>2020-05-23T02:21:12Z</time>
      </trkpt>
      <trkpt lat="43.204400" lon="-4.902540">
        <ele>521.243</ele>
        <time>2020-05-23T02:21:32Z</time>
      </trkpt>
      <trkpt lat="43.204510" lon="-4.902540">
        <ele>515.364</ele>
        <time>2020-05-23T02:21:52Z</time>
      </trkpt>
      <trkpt lat="43.204690" lon="-4.902530">
        <ele>511.010</ele>
        <time>2020-05-23T02:22:12Z</time>
      </trkpt>
      <trkpt lat="43.204850" lon="-4.902530">
        <ele>512.608</ele>
        <time>2020-05-23T02:22:32Z</time>
      </trkpt>
      <trkpt lat="43.204870" lon="-4.902530">
        <ele>513.028</ele>
        <time>2020-05-23T02:22:52Z</time>
      </trkpt>
      <trkpt lat="43.204980" lon="-4.902540">
        <ele>515.043</ele>
        <time>2020-05-23T02:23:12Z</time>
      </trkpt>
      <trkpt lat="43.205030" lon="-4.902550">
        <ele>516.640</ele>
        <time>2020-05-23T02:23:32Z</time>
      </trkpt>
      <trkpt lat="43.205050" lon="-4.902560">
        <ele>517.396</ele>
        <time>2020-05-23T02:23:52Z</time>
      </trkpt>
      <trkpt lat="43.205080" lon="-4.902580">
        <ele>518.115</ele>
        <time>2020-05-23T02:24:12Z</time>
      </trkpt>
      <trkpt lat="43.205170" lon="-4.902630">
        <ele>518.872</ele>
        <time>2020-05-23T02:24:32Z</time>
      </trkpt>
      <trkpt lat="43.205210" lon="-4.902650">
        <ele>518.417</ele>
        <time>2020-05-23T02:24:52Z</time>
      </trkpt>
      <trkpt lat="43.205250" lon="-4.902670">
        <ele>517.681</ele>
        <time>2020-05-23T02:25:12Z</time>
      </trkpt>
      <trkpt lat="43.205360" lon="-4.902700">
        <ele>515.268</ele>
        <time>2020-05-23T02:25:32Z</time>
      </trkpt>
      <trkpt lat="43.205390" lon="-4.902710">
        <ele>514.442</ele>
        <time>2020-05-23T02:25:52Z</time>
      </trkpt>
      <trkpt lat="43.205430" lon="-4.902730">
        <ele>512.826</ele>
        <time>2020-05-23T02:26:12Z</time>
      </trkpt>
      <trkpt lat="43.205480" lon="-4.902730">
        <ele>512.608</ele>
        <time>2020-05-23T02:26:32Z</time>
      </trkpt>
      <trkpt lat="43.205550" lon="-4.902720">
        <ele>513.020</ele>
        <time>2020-05-23T02:26:52Z</time>
      </trkpt>
      <trkpt lat="43.205560" lon="-4.902710">
        <ele>513.655</ele>
        <time>2020-05-23T02:27:12Z</time>
      </trkpt>
      <trkpt lat="43.205640" lon="-4.902680">
        <ele>514.072</ele>
        <time>2020-05-23T02:27:32Z</time>
      </trkpt>
      <trkpt lat="43.205730" lon="-4.902640">
        <ele>514.798</ele>
        <time>2020-05-23T02:27:52Z</time>
      </trkpt>
      <trkpt lat="43.205740" lon="-4.902640">
        <ele>514.577</ele>
        <time>2020-05-23T02:28:12Z</time>
      </trkpt>
      <trkpt lat="43.205810" lon="-4.902620">
        <ele>514.094</ele>
        <time>2020-05-23T02:28:32Z</time>
      </trkpt>
      <trkpt lat="43.205910" lon="-4.902620">
        <ele>513.649</ele>
        <time>2020-05-23T02:28:52Z</time>
      </trkpt>
      <trkpt lat="43.206070" lon="-4.902620">
        <ele>513.723</ele>
        <time>2020-05-23T02:29:12Z</time>
      </trkpt>
      <trkpt lat="43.206090" lon="-4.902620">
        <ele>513.788</ele>
        <time>2020-05-23T02:29:32Z</time>
      </trkpt>
      <trkpt lat="43.206260" lon="-4.902620">
        <ele>514.424</ele>
        <time>2020-05-23T02:29:52Z</time>
      </trkpt>
      <trkpt lat="43.206270" lon="-4.902630">
        <ele>514.126</ele>
        <time>2020-05-23T02:30:12Z</time>
      </trkpt>
      <trkpt lat="43.206420" lon="-4.902670">
        <ele>514.308</ele>
        <time>2020-05-23T02:30:32Z</time>
      </trkpt>
      <trkpt lat="43.206500" lon="-4.902720">
        <ele>514.822</ele>
        <time>2020-05-23T02:30:52Z</time>
      </trkpt>
      <trkpt lat="43.206600" lon="-4.902820">
        <ele>514.567</ele>
        <time>2020-05-23T02:31:12Z</time>
      </trkpt>
      <trkpt lat="43.206720" lon="-4.902980">
        <ele>513.344</ele>
        <time>2020-05-23T02:31:32Z</time>
      </trkpt>
      <trkpt lat="43.206730" lon="-4.902990">
        <ele>513.280</ele>
        <time>2020-05-23T02:31:52Z</time>
      </trkpt>
      <trkpt lat="43.206800" lon="-4.903120">
        <ele>511.279</ele>
        <time>2020-05-23T02:32:12Z</time>
      </trkpt>
      <trkpt lat="43.206850" lon="-4.903170">
        <ele>510.956</ele>
        <time>2020-05-23T02:32:32Z</time>
      </trkpt>
      <trkpt lat="43.206950" lon="-4.903270">
        <ele>511.191</ele>
        <time>2020-05-23T02:32:52Z</time>
      </trkpt>
      <trkpt lat="43.207060" lon="-4.903360">
        <ele>509.575</ele>
        <time>2020-05-23T02:33:12Z</time>
      </trkpt>
      <trkpt lat="43.207160" lon="-4.903430">
        <ele>508.244</ele>
        <time>2020-05-23T02:33:32Z</time>
      </trkpt>
      <trkpt lat="43.207270" lon="-4.903460">
        <ele>506.705</ele>
        <time>2020-05-23T02:33:52Z</time>
      </trkpt>
      <trkpt lat="43.207330" lon="-4.903470">
        <ele>505.015</ele>
        <time>2020-05-23T02:34:12Z</time>
      </trkpt>
      <trkpt lat="43.207340" lon="-4.903470">
        <ele>504.808</ele>
        <time>2020-05-23T02:34:32Z</time>
      </trkpt>
      <trkpt lat="43.207440" lon="-4.903470">
        <ele>502.598</ele>
        <time>2020-05-23T02:34:52Z</time>
      </trkpt>
      <trkpt lat="43.207510" lon="-4.903460">
        <ele>501.143</ele>
        <time>2020-05-23T02:35:12Z</time>
      </trkpt>
      <trkpt lat="43.207550" lon="-4.903450">
        <ele>500.070</ele>
        <time>2020-05-23T02:35:32Z</time>
      </trkpt>
      <trkpt lat="43.207640" lon="-4.903410">
        <ele>498.176</ele>
        <time>2020-05-23T02:35:52Z</time>
      </trkpt>
      <trkpt lat="43.207680" lon="-4.903380">
        <ele>497.965</ele>
        <time>2020-05-23T02:36:12Z</time>
      </trkpt>
      <trkpt lat="43.207750" lon="-4.903320">
        <ele>497.452</ele>
        <time>2020-05-23T02:36:32Z</time>
      </trkpt>
      <trkpt lat="43.207810" lon="-4.903280">
        <ele>496.277</ele>
        <time>2020-05-23T02:36:52Z</time>
      </trkpt>
      <trkpt lat="43.207840" lon="-4.903260">
        <ele>495.851</ele>
        <time>2020-05-23T02:37:12Z</time>
      </trkpt>
      <trkpt lat="43.207890" lon="-4.903230">
        <ele>495.641</ele>
        <time>2020-05-23T02:37:32Z</time>
      </trkpt>
      <trkpt lat="43.207970" lon="-4.903190">
        <ele>496.081</ele>
        <time>2020-05-23T02:37:52Z</time>
      </trkpt>
      <trkpt lat="43.208010" lon="-4.903170">
        <ele>496.609</ele>
        <time>2020-05-23T02:38:12Z</time>
      </trkpt>
      <trkpt lat="43.208030" lon="-4.903160">
        <ele>497.108</ele>
        <time>2020-05-23T02:38:32Z</time>
      </trkpt>
      <trkpt lat="43.208090" lon="-4.903160">
        <ele>497.318</ele>
        <time>2020-05-23T02:38:52Z</time>
      </trkpt>
      <trkpt lat="43.208150" lon="-4.903190">
        <ele>495.663</ele>
        <time>2020-05-23T02:39:12Z</time>
      </trkpt>
      <trkpt lat="43.208170" lon="-4.903220">
        <ele>493.090</ele>
        <time>2020-05-23T02:39:32Z</time>
      </trkpt>
      <trkpt lat="43.208230" lon="-4.903270">
        <ele>488.346</ele>
        <time>2020-05-23T02:39:52Z</time>
      </trkpt>
      <trkpt lat="43.208320" lon="-4.903350">
        <ele>482.375</ele>
        <time>2020-05-23T02:40:12Z</time>
      </trkpt>
      <trkpt lat="43.208370" lon="-4.903380">
        <ele>483.512</ele>
        <time>2020-05-23T02:40:32Z</time>
      </trkpt>
      <trkpt lat="43.208400" lon="-4.903380">
        <ele>482.587</ele>
        <time>2020-05-23T02:40:52Z</time>
      </trkpt>
      <trkpt lat="43.208440" lon="-4.903380">
        <ele>481.211</ele>
        <time>2020-05-23T02:41:12Z</time>
      </trkpt>
      <trkpt lat="43.208490" lon="-4.903350">
        <ele>477.666</ele>
        <time>2020-05-23T02:41:32Z</time>
      </trkpt>
      <trkpt lat="43.208500" lon="-4.903350">
        <ele>477.329</ele>
        <time>2020-05-23T02:41:52Z</time>
      </trkpt>
      <trkpt lat="43.208550" lon="-4.903310">
        <ele>477.721</ele>
        <time>2020-05-23T02:42:12Z</time>
      </trkpt>
      <trkpt lat="43.208600" lon="-4.903280">
        <ele>480.208</ele>
        <time>2020-05-23T02:42:32Z</time>
      </trkpt>
      <trkpt lat="43.208660" lon="-4.903270">
        <ele>481.780</ele>
        <time>2020-05-23T02:42:52Z</time>
      </trkpt>
      <trkpt lat="43.208820" lon="-4.903270">
        <ele>483.475</ele>
        <time>2020-05-23T02:43:12Z</time>
      </trkpt>
      <trkpt lat="43.208840" lon="-4.903270">
        <ele>483.642</ele>
        <time>2020-05-23T02:43:32Z</time>
      </trkpt>
      <trkpt lat="43.209000" lon="-4.903290">
        <ele>485.768</ele>
        <time>2020-05-23T02:43:52Z</time>
      </trkpt>
      <trkpt lat="43.209020" lon="-4.903290">
        <ele>486.647</ele>
        <time>2020-05-23T02:44:12Z</time>
      </trkpt>
      <trkpt lat="43.209140" lon="-4.903330">
        <ele>487.024</ele>
        <time>2020-05-23T02:44:32Z</time>
      </trkpt>
      <trkpt lat="43.209200" lon="-4.903360">
        <ele>487.249</ele>
        <time>2020-05-23T02:44:52Z</time>
      </trkpt>
      <trkpt lat="43.209320" lon="-4.903420">
        <ele>485.643</ele>
        <time>2020-05-23T02:45:12Z</time>
      </trkpt>
      <trkpt lat="43.209360" lon="-4.903440">
        <ele>484.758</ele>
        <time>2020-05-23T02:45:32Z</time>
      </trkpt>
      <trkpt lat="43.209460" lon="-4.903480">
        <ele>482.252</ele>
        <time>2020-05-23T02:45:52Z</time>
      </trkpt>
      <trkpt lat="43.209540" lon="-4.903520">
        <ele>478.617</ele>
        <time>2020-05-23T02:46:12Z</time>
      </trkpt>
      <trkpt lat="43.209630" lon="-4.903560">
        <ele>476.108</ele>
        <time>2020-05-23T02:46:32Z</time>
      </trkpt>
      <trkpt lat="43.209700" lon="-4.903580">
        <ele>475.869</ele>
        <time>2020-05-23T02:46:52Z</time>
      </trkpt>
      <trkpt lat="43.209710" lon="-4.903580">
        <ele>476.014</ele>
        <time>2020-05-23T02:47:12Z</time>
      </trkpt>
      <trkpt lat="43.209760" lon="-4.903590">
        <ele>474.081</ele>
        <time>2020-05-23T02:47:32Z</time>
      </trkpt>
      <trkpt lat="43.209830" lon="-4.903580">
        <ele>472.037</ele>
        <time>2020-05-23T02:47:52Z</time>
      </trkpt>
      <trkpt lat="43.209890" lon="-4.903560">
        <ele>471.116</ele>
        <time>2020-05-23T02:48:12Z</time>
      </trkpt>
      <trkpt lat="43.209910" lon="-4.903550">
        <ele>471.193</ele>
        <time>2020-05-23T02:48:32Z</time>
      </trkpt>
      <trkpt lat="43.209960" lon="-4.903530">
        <ele>470.798</ele>
        <time>2020-05-23T02:48:52Z</time>
      </trkpt>
      <trkpt lat="43.210010" lon="-4.903480">
        <ele>472.742</ele>
        <time>2020-05-23T02:49:12Z</time>
      </trkpt>
      <trkpt lat="43.210050" lon="-4.903460">
        <ele>473.123</ele>
        <time>2020-05-23T02:49:32Z</time>
      </trkpt>
      <trkpt lat="43.210070" lon="-4.903440">
        <ele>473.883</ele>
        <time>2020-05-23T02:49:52Z</time>
      </trkpt>
      <trkpt lat="43.210160" lon="-4.903400">
        <ele>472.811</ele>
        <time>2020-05-23T02:50:12Z</time>
      </trkpt>
      <trkpt lat="43.210220" lon="-4.903390">
        <ele>470.908</ele>
        <time>2020-05-23T02:50:32Z</time>
      </trkpt>
      <trkpt lat="43.210240" lon="-4.903390">
        <ele>470.126</ele>
        <time>2020-05-23T02:50:52Z</time>
      </trkpt>
      <trkpt lat="43.210320" lon="-4.903370">
        <ele>467.781</ele>
        <time>2020-05-23T02:51:12Z</time>
      </trkpt>
      <trkpt lat="43.210400" lon="-4.903350">
        <ele>465.128</ele>
        <time>2020-05-23T02:51:32Z</time>
      </trkpt>
      <trkpt lat="43.210440" lon="-4.903320">
        <ele>463.944</ele>
        <time>2020-05-23T02:51:52Z</time>
      </trkpt>
      <trkpt lat="43.210480" lon="-4.903280">
        <ele>463.523</ele>
        <time>2020-05-23T02:52:12Z</time>
      </trkpt>
      <trkpt lat="43.210520" lon="-4.903200">
        <ele>464.240</ele>
        <time>2020-05-23T02:52:32Z</time>
      </trkpt>
      <trkpt lat="43.210530" lon="-4.903190">
        <ele>464.195</ele>
        <time>2020-05-23T02:52:52Z</time>
      </trkpt>
      <trkpt lat="43.210560" lon="-4.903150">
        <ele>464.459</ele>
        <time>2020-05-23T02:53:12Z</time>
      </trkpt>
      <trkpt lat="43.210590" lon="-4.903120">
        <ele>465.886</ele>
        <time>2020-05-23T02:53:32Z</time>
      </trkpt>
      <trkpt lat="43.210620" lon="-4.903110">
        <ele>466.860</ele>
        <time>2020-05-23T02:53:52Z</time>
      </trkpt>
      <trkpt lat="43.210650" lon="-4.903100">
        <ele>467.826</ele>
        <time>2020-05-23T02:54:12Z</time>
      </trkpt>
      <trkpt lat="43.210710" lon="-4.903120">
        <ele>468.308</ele>
        <time>2020-05-23T02:54:32Z</time>
      </trkpt>
      <trkpt lat="43.210840" lon="-4.903190">
        <ele>467.382</ele>
        <time>2020-05-23T02:54:52Z</time>
      </trkpt>
      <trkpt lat="43.210960" lon="-4.903250">
        <ele>465.287</ele>
        <time>2020-05-23T02:55:12Z</time>
      </trkpt>
      <trkpt lat="43.211030" lon="-4.903290">
        <ele>464.044</ele>
        <time>2020-05-23T02:55:32Z</time>
      </trkpt>
      <trkpt lat="43.211050" lon="-4.903300">
        <ele>463.730</ele>
        <time>2020-05-23T02:55:52Z</time>
      </trkpt>
      <trkpt lat="43.211060" lon="-4.903310">
        <ele>463.469</ele>
        <time>2020-05-23T02:56:12Z</time>
      </trkpt>
      <trkpt lat="43.211200" lon="-4.903380">
        <ele>461.466</ele>
        <time>2020-05-23T02:56:32Z</time>
      </trkpt>
      <trkpt lat="43.211195" lon="-4.903377">
        <ele>461.561</ele>
        <time>2020-05-23T02:56:52Z</time>
      </trkpt>
      <trkpt lat="43.211200" lon="-4.903450">
        <ele>460.535</ele>
        <time>2020-05-23T02:57:12Z</time>
      </trkpt>
      <trkpt lat="43.211230" lon="-4.903510">
        <ele>459.444</ele>
        <time>2020-05-23T02:57:32Z</time>
      </trkpt>
      <trkpt lat="43.211240" lon="-4.903540">
        <ele>459.005</ele>
        <time>2020-05-23T02:57:52Z</time>
      </trkpt>
      <trkpt lat="43.211260" lon="-4.903630">
        <ele>459.015</ele>
        <time>2020-05-23T02:58:12Z</time>
      </trkpt>
      <trkpt lat="43.211280" lon="-4.903670">
        <ele>461.308</ele>
        <time>2020-05-23T02:58:32Z</time>
      </trkpt>
      <trkpt lat="43.211300" lon="-4.903700">
        <ele>462.968</ele>
        <time>2020-05-23T02:58:52Z</time>
      </trkpt>
      <trkpt lat="43.211320" lon="-4.903710">
        <ele>463.313</ele>
        <time>2020-05-23T02:59:12Z</time>
      </trkpt>
      <trkpt lat="43.211330" lon="-4.903710">
        <ele>463.250</ele>
        <time>2020-05-23T02:59:32Z</time>
      </trkpt>
      <trkpt lat="43.211360" lon="-4.903730">
        <ele>464.156</ele>
        <time>2020-05-23T02:59:52Z</time>
      </trkpt>
      <trkpt lat="43.211400" lon="-4.903740">
        <ele>464.375</ele>
        <time>2020-05-23T03:00:12Z</time>
      </trkpt>
      <trkpt lat="43.211490" lon="-4.903730">
        <ele>462.482</ele>
        <time>2020-05-23T03:00:32Z</time>
      </trkpt>
      <trkpt lat="43.211500" lon="-4.903730">
        <ele>462.367</ele>
        <time>2020-05-23T03:00:52Z</time>
      </trkpt>
      <trkpt lat="43.211540" lon="-4.903740">
        <ele>462.321</ele>
        <time>2020-05-23T03:01:12Z</time>
      </trkpt>
      <trkpt lat="43.211610" lon="-4.903780">
        <ele>463.445</ele>
        <time>2020-05-23T03:01:32Z</time>
      </trkpt>
      <trkpt lat="43.211700" lon="-4.903840">
        <ele>464.847</ele>
        <time>2020-05-23T03:01:52Z</time>
      </trkpt>
      <trkpt lat="43.211920" lon="-4.904000">
        <ele>464.911</ele>
        <time>2020-05-23T03:02:12Z</time>
      </trkpt>
      <trkpt lat="43.211990" lon="-4.904030">
        <ele>464.308</ele>
        <time>2020-05-23T03:02:32Z</time>
      </trkpt>
      <trkpt lat="43.212030" lon="-4.904040">
        <ele>464.048</ele>
        <time>2020-05-23T03:02:52Z</time>
      </trkpt>
      <trkpt lat="43.212180" lon="-4.904120">
        <ele>463.653</ele>
        <time>2020-05-23T03:03:12Z</time>
      </trkpt>
      <trkpt lat="43.212200" lon="-4.904140">
        <ele>463.730</ele>
        <time>2020-05-23T03:03:32Z</time>
      </trkpt>
      <trkpt lat="43.212300" lon="-4.904200">
        <ele>463.696</ele>
        <time>2020-05-23T03:03:52Z</time>
      </trkpt>
      <trkpt lat="43.212360" lon="-4.904250">
        <ele>463.635</ele>
        <time>2020-05-23T03:04:12Z</time>
      </trkpt>
      <trkpt lat="43.212410" lon="-4.904310">
        <ele>463.752</ele>
        <time>2020-05-23T03:04:32Z</time>
      </trkpt>
      <trkpt lat="43.212470" lon="-4.904380">
        <ele>463.797</ele>
        <time>2020-05-23T03:04:52Z</time>
      </trkpt>
      <trkpt lat="43.212490" lon="-4.904420">
        <ele>463.911</ele>
        <time>2020-05-23T03:05:12Z</time>
      </trkpt>
      <trkpt lat="43.212530" lon="-4.904480">
        <ele>463.657</ele>
        <time>2020-05-23T03:05:32Z</time>
      </trkpt>
      <trkpt lat="43.212560" lon="-4.904560">
        <ele>463.500</ele>
        <time>2020-05-23T03:05:52Z</time>
      </trkpt>
      <trkpt lat="43.212620" lon="-4.904640">
        <ele>462.820</ele>
        <time>2020-05-23T03:06:12Z</time>
      </trkpt>
      <trkpt lat="43.212700" lon="-4.904700">
        <ele>461.508</ele>
        <time>2020-05-23T03:06:32Z</time>
      </trkpt>
      <trkpt lat="43.212770" lon="-4.904760">
        <ele>460.459</ele>
        <time>2020-05-23T03:06:52Z</time>
      </trkpt>
      <trkpt lat="43.212910" lon="-4.904890">
        <ele>459.364</ele>
        <time>2020-05-23T03:07:12Z</time>
      </trkpt>
      <trkpt lat="43.212990" lon="-4.904990">
        <ele>458.921</ele>
        <time>2020-05-23T03:07:32Z</time>
      </trkpt>
      <trkpt lat="43.213020" lon="-4.905020">
        <ele>458.617</ele>
        <time>2020-05-23T03:07:52Z</time>
      </trkpt>
      <trkpt lat="43.213110" lon="-4.905170">
        <ele>458.396</ele>
        <time>2020-05-23T03:08:12Z</time>
      </trkpt>
      <trkpt lat="43.213120" lon="-4.905170">
        <ele>458.393</ele>
        <time>2020-05-23T03:08:32Z</time>
      </trkpt>
      <trkpt lat="43.213180" lon="-4.905260">
        <ele>458.558</ele>
        <time>2020-05-23T03:08:52Z</time>
      </trkpt>
      <trkpt lat="43.213260" lon="-4.905320">
        <ele>458.522</ele>
        <time>2020-05-23T03:09:12Z</time>
      </trkpt>
      <trkpt lat="43.213256" lon="-4.905318">
        <ele>458.516</ele>
        <time>2020-05-23T03:09:32Z</time>
      </trkpt>
      <trkpt lat="43.213280" lon="-4.905070">
        <ele>456.876</ele>
        <time>2020-05-23T03:09:52Z</time>
      </trkpt>
      <trkpt lat="43.213290" lon="-4.904950">
        <ele>456.013</ele>
        <time>2020-05-23T03:10:12Z</time>
      </trkpt>
      <trkpt lat="43.213310" lon="-4.904720">
        <ele>454.208</ele>
        <time>2020-05-23T03:10:32Z</time>
      </trkpt>
      <trkpt lat="43.213330" lon="-4.904600">
        <ele>453.175</ele>
        <time>2020-05-23T03:10:52Z</time>
      </trkpt>
      <trkpt lat="43.213350" lon="-4.904420">
        <ele>452.060</ele>
        <time>2020-05-23T03:11:12Z</time>
      </trkpt>
      <trkpt lat="43.213370" lon="-4.904340">
        <ele>451.857</ele>
        <time>2020-05-23T03:11:32Z</time>
      </trkpt>
      <trkpt lat="43.213390" lon="-4.904290">
        <ele>451.633</ele>
        <time>2020-05-23T03:11:52Z</time>
      </trkpt>
      <trkpt lat="43.213430" lon="-4.904220">
        <ele>451.352</ele>
        <time>2020-05-23T03:12:12Z</time>
      </trkpt>
      <trkpt lat="43.213470" lon="-4.904160">
        <ele>451.079</ele>
        <time>2020-05-23T03:12:32Z</time>
      </trkpt>
      <trkpt lat="43.213520" lon="-4.904080">
        <ele>450.774</ele>
        <time>2020-05-23T03:12:52Z</time>
      </trkpt>
      <trkpt lat="43.213550" lon="-4.904020">
        <ele>450.558</ele>
        <time>2020-05-23T03:13:12Z</time>
      </trkpt>
      <trkpt lat="43.213560" lon="-4.903970">
        <ele>450.315</ele>
        <time>2020-05-23T03:13:32Z</time>
      </trkpt>
      <trkpt lat="43.213570" lon="-4.903890">
        <ele>450.065</ele>
        <time>2020-05-23T03:13:52Z</time>
      </trkpt>
      <trkpt lat="43.213560" lon="-4.903700">
        <ele>449.311</ele>
        <time>2020-05-23T03:14:12Z</time>
      </trkpt>
      <trkpt lat="43.213540" lon="-4.903580">
        <ele>448.908</ele>
        <time>2020-05-23T03:14:32Z</time>
      </trkpt>
      <trkpt lat="43.213520" lon="-4.903500">
        <ele>448.665</ele>
        <time>2020-05-23T03:14:52Z</time>
      </trkpt>
      <trkpt lat="43.213520" lon="-4.903460">
        <ele>448.510</ele>
        <time>2020-05-23T03:15:12Z</time>
      </trkpt>
      <trkpt lat="43.213510" lon="-4.903400">
        <ele>448.217</ele>
        <time>2020-05-23T03:15:32Z</time>
      </trkpt>
      <trkpt lat="43.213520" lon="-4.903270">
        <ele>447.773</ele>
        <time>2020-05-23T03:15:52Z</time>
      </trkpt>
      <trkpt lat="43.213550" lon="-4.903130">
        <ele>447.122</ele>
        <time>2020-05-23T03:16:12Z</time>
      </trkpt>
      <trkpt lat="43.213610" lon="-4.902960">
        <ele>446.389</ele>
        <time>2020-05-23T03:16:32Z</time>
      </trkpt>
      <trkpt lat="43.213620" lon="-4.902930">
        <ele>446.114</ele>
        <time>2020-05-23T03:16:52Z</time>
      </trkpt>
      <trkpt lat="43.213680" lon="-4.902800">
        <ele>445.648</ele>
        <time>2020-05-23T03:17:12Z</time>
      </trkpt>
      <trkpt lat="43.213700" lon="-4.902750">
        <ele>445.563</ele>
        <time>2020-05-23T03:17:32Z</time>
      </trkpt>
      <trkpt lat="43.213710" lon="-4.902720">
        <ele>445.544</ele>
        <time>2020-05-23T03:17:52Z</time>
      </trkpt>
      <trkpt lat="43.213740" lon="-4.902650">
        <ele>445.518</ele>
        <time>2020-05-23T03:18:12Z</time>
      </trkpt>
      <trkpt lat="43.213770" lon="-4.902610">
        <ele>445.508</ele>
        <time>2020-05-23T03:18:32Z</time>
      </trkpt>
      <trkpt lat="43.213800" lon="-4.902580">
        <ele>445.670</ele>
        <time>2020-05-23T03:18:52Z</time>
      </trkpt>
      <trkpt lat="43.213810" lon="-4.902560">
        <ele>445.685</ele>
        <time>2020-05-23T03:19:12Z</time>
      </trkpt>
      <trkpt lat="43.213840" lon="-4.902520">
        <ele>445.792</ele>
        <time>2020-05-23T03:19:32Z</time>
      </trkpt>
      <trkpt lat="43.213920" lon="-4.902390">
        <ele>445.698</ele>
        <time>2020-05-23T03:19:52Z</time>
      </trkpt>
      <trkpt lat="43.213930" lon="-4.902380">
        <ele>445.827</ele>
        <time>2020-05-23T03:20:12Z</time>
      </trkpt>
      <trkpt lat="43.213960" lon="-4.902340">
        <ele>446.254</ele>
        <time>2020-05-23T03:20:32Z</time>
      </trkpt>
      <trkpt lat="43.214010" lon="-4.902280">
        <ele>447.069</ele>
        <time>2020-05-23T03:20:52Z</time>
      </trkpt>
      <trkpt lat="43.214070" lon="-4.902230">
        <ele>448.353</ele>
        <time>2020-05-23T03:21:12Z</time>
      </trkpt>
      <trkpt lat="43.214100" lon="-4.902200">
        <ele>448.747</ele>
        <time>2020-05-23T03:21:32Z</time>
      </trkpt>
      <trkpt lat="43.214230" lon="-4.902110">
        <ele>451.429</ele>
        <time>2020-05-23T03:21:52Z</time>
      </trkpt>
      <trkpt lat="43.214310" lon="-4.902040">
        <ele>453.021</ele>
        <time>2020-05-23T03:22:12Z</time>
      </trkpt>
      <trkpt lat="43.214380" lon="-4.901970">
        <ele>453.408</ele>
        <time>2020-05-23T03:22:32Z</time>
      </trkpt>
      <trkpt lat="43.214390" lon="-4.901960">
        <ele>453.578</ele>
        <time>2020-05-23T03:22:52Z</time>
      </trkpt>
      <trkpt lat="43.214460" lon="-4.901910">
        <ele>454.213</ele>
        <time>2020-05-23T03:23:12Z</time>
      </trkpt>
      <trkpt lat="43.214540" lon="-4.901870">
        <ele>456.020</ele>
        <time>2020-05-23T03:23:32Z</time>
      </trkpt>
      <trkpt lat="43.214600" lon="-4.901850">
        <ele>457.626</ele>
        <time>2020-05-23T03:23:52Z</time>
      </trkpt>
      <trkpt lat="43.214710" lon="-4.901800">
        <ele>459.755</ele>
        <time>2020-05-23T03:24:12Z</time>
      </trkpt>
      <trkpt lat="43.214740" lon="-4.901790">
        <ele>459.812</ele>
        <time>2020-05-23T03:24:32Z</time>
      </trkpt>
      <trkpt lat="43.214790" lon="-4.901760">
        <ele>458.537</ele>
        <time>2020-05-23T03:24:52Z</time>
      </trkpt>
      <trkpt lat="43.214860" lon="-4.901710">
        <ele>456.621</ele>
        <time>2020-05-23T03:25:12Z</time>
      </trkpt>
      <trkpt lat="43.214870" lon="-4.901690">
        <ele>455.731</ele>
        <time>2020-05-23T03:25:32Z</time>
      </trkpt>
      <trkpt lat="43.215000" lon="-4.901570">
        <ele>452.961</ele>
        <time>2020-05-23T03:25:52Z</time>
      </trkpt>
      <trkpt lat="43.215080" lon="-4.901470">
        <ele>449.507</ele>
        <time>2020-05-23T03:26:12Z</time>
      </trkpt>
      <trkpt lat="43.215083" lon="-4.901470">
        <ele>449.508</ele>
        <time>2020-05-23T03:26:32Z</time>
      </trkpt>
      <trkpt lat="43.215023" lon="-4.901471">
        <ele>449.696</ele>
        <time>2020-05-20T18:43:44Z</time>
      </trkpt>
      <trkpt lat="43.215152" lon="-4.901294">
        <ele>444.431</ele>
        <time>2020-05-20T18:44:04Z</time>
      </trkpt>
      <trkpt lat="43.215291" lon="-4.901246">
        <ele>443.424</ele>
        <time>2020-05-20T18:44:24Z</time>
      </trkpt>
      <trkpt lat="43.215371" lon="-4.901217">
        <ele>442.708</ele>
        <time>2020-05-20T18:44:44Z</time>
      </trkpt>
      <trkpt lat="43.215396" lon="-4.901166">
        <ele>441.613</ele>
        <time>2020-05-20T18:45:04Z</time>
      </trkpt>
      <trkpt lat="43.215326" lon="-4.900844">
        <ele>442.478</ele>
        <time>2020-05-20T18:45:24Z</time>
      </trkpt>
      <trkpt lat="43.215545" lon="-4.900742">
        <ele>443.134</ele>
        <time>2020-05-20T18:45:44Z</time>
      </trkpt>
      <trkpt lat="43.215691" lon="-4.900643">
        <ele>446.027</ele>
        <time>2020-05-20T18:46:04Z</time>
      </trkpt>
      <trkpt lat="43.215832" lon="-4.900635">
        <ele>446.116</ele>
        <time>2020-05-20T18:46:24Z</time>
      </trkpt>
      <trkpt lat="43.215973" lon="-4.900710">
        <ele>444.435</ele>
        <time>2020-05-20T18:46:44Z</time>
      </trkpt>
      <trkpt lat="43.216158" lon="-4.900710">
        <ele>445.159</ele>
        <time>2020-05-20T18:47:04Z</time>
      </trkpt>
      <trkpt lat="43.216254" lon="-4.900680">
        <ele>445.837</ele>
        <time>2020-05-20T18:47:24Z</time>
      </trkpt>
      <trkpt lat="43.216340" lon="-4.900715">
        <ele>443.962</ele>
        <time>2020-05-20T18:47:44Z</time>
      </trkpt>
      <trkpt lat="43.216549" lon="-4.900616">
        <ele>445.283</ele>
        <time>2020-05-20T18:48:04Z</time>
      </trkpt>
      <trkpt lat="43.216794" lon="-4.900586">
        <ele>443.411</ele>
        <time>2020-05-20T18:48:24Z</time>
      </trkpt>
      <trkpt lat="43.217058" lon="-4.900533">
        <ele>442.108</ele>
        <time>2020-05-20T18:48:44Z</time>
      </trkpt>
      <trkpt lat="43.217208" lon="-4.900425">
        <ele>444.040</ele>
        <time>2020-05-20T18:49:04Z</time>
      </trkpt>
      <trkpt lat="43.217384" lon="-4.900289">
        <ele>449.535</ele>
        <time>2020-05-20T18:49:24Z</time>
      </trkpt>
      <trkpt lat="43.217480" lon="-4.900251">
        <ele>456.511</ele>
        <time>2020-05-20T18:49:44Z</time>
      </trkpt>
      <trkpt lat="43.217613" lon="-4.900407">
        <ele>453.034</ele>
        <time>2020-05-20T18:50:04Z</time>
      </trkpt>
      <trkpt lat="43.217775" lon="-4.900385">
        <ele>469.863</ele>
        <time>2020-05-20T18:50:24Z</time>
      </trkpt>
      <trkpt lat="43.217853" lon="-4.900581">
        <ele>454.092</ele>
        <time>2020-05-20T18:50:44Z</time>
      </trkpt>
      <trkpt lat="43.217963" lon="-4.900549">
        <ele>456.676</ele>
        <time>2020-05-20T18:51:04Z</time>
      </trkpt>
      <trkpt lat="43.218113" lon="-4.900618">
        <ele>486.084</ele>
        <time>2020-05-20T18:51:24Z</time>
      </trkpt>
      <trkpt lat="43.218258" lon="-4.900530">
        <ele>481.987</ele>
        <time>2020-05-20T18:51:44Z</time>
      </trkpt>
      <trkpt lat="43.218428" lon="-4.900436">
        <ele>474.342</ele>
        <time>2020-05-20T18:52:04Z</time>
      </trkpt>
      <trkpt lat="43.218555" lon="-4.900248">
        <ele>464.926</ele>
        <time>2020-05-20T18:52:24Z</time>
      </trkpt>
      <trkpt lat="43.218653" lon="-4.900058">
        <ele>459.108</ele>
        <time>2020-05-20T18:52:44Z</time>
      </trkpt>
      <trkpt lat="43.218778" lon="-4.899854">
        <ele>470.092</ele>
        <time>2020-05-20T18:53:04Z</time>
      </trkpt>
      <trkpt lat="43.218946" lon="-4.899382">
        <ele>452.917</ele>
        <time>2020-05-20T18:53:24Z</time>
      </trkpt>
      <trkpt lat="43.219063" lon="-4.899167">
        <ele>451.923</ele>
        <time>2020-05-20T18:53:44Z</time>
      </trkpt>
      <trkpt lat="43.219298" lon="-4.898867">
        <ele>439.976</ele>
        <time>2020-05-20T18:54:04Z</time>
      </trkpt>
      <trkpt lat="43.219356" lon="-4.898749">
        <ele>441.135</ele>
        <time>2020-05-20T18:54:24Z</time>
      </trkpt>
      <trkpt lat="43.219452" lon="-4.898623">
        <ele>441.464</ele>
        <time>2020-05-20T18:54:44Z</time>
      </trkpt>
      <trkpt lat="43.219513" lon="-4.898406">
        <ele>448.828</ele>
        <time>2020-05-20T18:55:04Z</time>
      </trkpt>
      <trkpt lat="43.219548" lon="-4.898196">
        <ele>452.296</ele>
        <time>2020-05-20T18:55:24Z</time>
      </trkpt>
      <trkpt lat="43.219579" lon="-4.897998">
        <ele>453.794</ele>
        <time>2020-05-20T18:55:44Z</time>
      </trkpt>
      <trkpt lat="43.219571" lon="-4.897944">
        <ele>450.857</ele>
        <time>2020-05-20T18:56:04Z</time>
      </trkpt>
      <trkpt lat="43.219665" lon="-4.897735">
        <ele>458.222</ele>
        <time>2020-05-20T18:56:24Z</time>
      </trkpt>
      <trkpt lat="43.220040" lon="-4.897156">
        <ele>444.008</ele>
        <time>2020-05-20T18:56:44Z</time>
      </trkpt>
      <trkpt lat="43.220322" lon="-4.896898">
        <ele>444.243</ele>
        <time>2020-05-20T18:57:04Z</time>
      </trkpt>
      <trkpt lat="43.220775" lon="-4.896684">
        <ele>439.128</ele>
        <time>2020-05-20T18:57:24Z</time>
      </trkpt>
      <trkpt lat="43.221276" lon="-4.896523">
        <ele>429.314</ele>
        <time>2020-05-20T18:57:44Z</time>
      </trkpt>
      <trkpt lat="43.221870" lon="-4.896609">
        <ele>442.877</ele>
        <time>2020-05-20T18:58:04Z</time>
      </trkpt>
      <trkpt lat="43.222073" lon="-4.896469">
        <ele>428.716</ele>
        <time>2020-05-20T18:58:24Z</time>
      </trkpt>
      <trkpt lat="43.222316" lon="-4.896609">
        <ele>438.585</ele>
        <time>2020-05-20T18:58:44Z</time>
      </trkpt>
      <trkpt lat="43.222527" lon="-4.896614">
        <ele>436.489</ele>
        <time>2020-05-20T18:59:04Z</time>
      </trkpt>
      <trkpt lat="43.222640" lon="-4.896453">
        <ele>426.037</ele>
        <time>2020-05-20T18:59:24Z</time>
      </trkpt>
      <trkpt lat="43.222785" lon="-4.896550">
        <ele>434.166</ele>
        <time>2020-05-20T18:59:44Z</time>
      </trkpt>
      <trkpt lat="43.223179" lon="-4.896523">
        <ele>435.029</ele>
        <time>2020-05-20T19:00:04Z</time>
      </trkpt>
      <trkpt lat="43.223375" lon="-4.896555">
        <ele>434.521</ele>
        <time>2020-05-20T19:00:24Z</time>
      </trkpt>
      <trkpt lat="43.223586" lon="-4.896845">
        <ele>439.008</ele>
        <time>2020-05-20T19:00:44Z</time>
      </trkpt>
      <trkpt lat="43.223754" lon="-4.896930">
        <ele>442.920</ele>
        <time>2020-05-20T19:01:04Z</time>
      </trkpt>
      <trkpt lat="43.223981" lon="-4.896871">
        <ele>445.525</ele>
        <time>2020-05-20T19:01:24Z</time>
      </trkpt>
      <trkpt lat="43.224219" lon="-4.896866">
        <ele>462.621</ele>
        <time>2020-05-20T19:01:44Z</time>
      </trkpt>
      <trkpt lat="43.224505" lon="-4.896871">
        <ele>447.924</ele>
        <time>2020-05-20T19:02:04Z</time>
      </trkpt>
      <trkpt lat="43.224684" lon="-4.896748">
        <ele>428.513</ele>
        <time>2020-05-20T19:02:24Z</time>
      </trkpt>
      <trkpt lat="43.224751" lon="-4.896652">
        <ele>413.572</ele>
        <time>2020-05-20T19:02:44Z</time>
      </trkpt>
      <trkpt lat="43.224770" lon="-4.896512">
        <ele>426.196</ele>
        <time>2020-05-20T19:03:04Z</time>
      </trkpt>
      <trkpt lat="43.224833" lon="-4.896330">
        <ele>447.054</ele>
        <time>2020-05-20T19:03:24Z</time>
      </trkpt>
      <trkpt lat="43.224911" lon="-4.896174">
        <ele>469.845</ele>
        <time>2020-05-20T19:03:44Z</time>
      </trkpt>
      <trkpt lat="43.225083" lon="-4.896045">
        <ele>481.547</ele>
        <time>2020-05-20T19:04:04Z</time>
      </trkpt>
      <trkpt lat="43.225357" lon="-4.895890">
        <ele>498.311</ele>
        <time>2020-05-20T19:04:24Z</time>
      </trkpt>
      <trkpt lat="43.225401" lon="-4.895949">
        <ele>483.781</ele>
        <time>2020-05-19T21:58:00Z</time>
      </trkpt>
      <trkpt lat="43.225460" lon="-4.895860">
        <ele>490.661</ele>
        <time>2020-05-19T21:58:20Z</time>
      </trkpt>
      <trkpt lat="43.225460" lon="-4.895850">
        <ele>492.117</ele>
        <time>2020-05-19T21:58:40Z</time>
      </trkpt>
      <trkpt lat="43.225500" lon="-4.895800">
        <ele>496.108</ele>
        <time>2020-05-19T21:59:00Z</time>
      </trkpt>
      <trkpt lat="43.225600" lon="-4.895730">
        <ele>496.992</ele>
        <time>2020-05-19T21:59:20Z</time>
      </trkpt>
      <trkpt lat="43.225620" lon="-4.895730">
        <ele>494.227</ele>
        <time>2020-05-19T21:59:40Z</time>
      </trkpt>
      <trkpt lat="43.225730" lon="-4.895730">
        <ele>478.993</ele>
        <time>2020-05-19T22:00:00Z</time>
      </trkpt>
      <trkpt lat="43.225790" lon="-4.895740">
        <ele>468.026</ele>
        <time>2020-05-19T22:00:20Z</time>
      </trkpt>
      <trkpt lat="43.225800" lon="-4.895740">
        <ele>466.656</ele>
        <time>2020-05-19T22:00:40Z</time>
      </trkpt>
      <trkpt lat="43.225810" lon="-4.895730">
        <ele>467.926</ele>
        <time>2020-05-19T22:01:00Z</time>
      </trkpt>
      <trkpt lat="43.225840" lon="-4.895720">
        <ele>466.746</ele>
        <time>2020-05-19T22:01:20Z</time>
      </trkpt>
      <trkpt lat="43.225870" lon="-4.895710">
        <ele>466.215</ele>
        <time>2020-05-19T22:01:40Z</time>
      </trkpt>
      <trkpt lat="43.225910" lon="-4.895680">
        <ele>470.017</ele>
        <time>2020-05-19T22:02:00Z</time>
      </trkpt>
      <trkpt lat="43.225960" lon="-4.895640">
        <ele>475.487</ele>
        <time>2020-05-19T22:02:20Z</time>
      </trkpt>
      <trkpt lat="43.225970" lon="-4.895640">
        <ele>474.315</ele>
        <time>2020-05-19T22:02:40Z</time>
      </trkpt>
      <trkpt lat="43.226010" lon="-4.895630">
        <ele>472.508</ele>
        <time>2020-05-19T22:03:00Z</time>
      </trkpt>
      <trkpt lat="43.226050" lon="-4.895630">
        <ele>468.055</ele>
        <time>2020-05-19T22:03:20Z</time>
      </trkpt>
      <trkpt lat="43.226070" lon="-4.895630">
        <ele>465.860</ele>
        <time>2020-05-19T22:03:40Z</time>
      </trkpt>
      <trkpt lat="43.226090" lon="-4.895630">
        <ele>463.596</ele>
        <time>2020-05-19T22:04:00Z</time>
      </trkpt>
      <trkpt lat="43.226140" lon="-4.895630">
        <ele>458.839</ele>
        <time>2020-05-19T22:04:20Z</time>
      </trkpt>
      <trkpt lat="43.226170" lon="-4.895630">
        <ele>456.339</ele>
        <time>2020-05-19T22:04:40Z</time>
      </trkpt>
      <trkpt lat="43.226240" lon="-4.895620">
        <ele>452.299</ele>
        <time>2020-05-19T22:05:00Z</time>
      </trkpt>
      <trkpt lat="43.226290" lon="-4.895600">
        <ele>450.079</ele>
        <time>2020-05-19T22:05:20Z</time>
      </trkpt>
      <trkpt lat="43.226360" lon="-4.895540">
        <ele>446.878</ele>
        <time>2020-05-19T22:05:40Z</time>
      </trkpt>
      <trkpt lat="43.226470" lon="-4.895450">
        <ele>446.147</ele>
        <time>2020-05-19T22:06:00Z</time>
      </trkpt>
      <trkpt lat="43.226500" lon="-4.895410">
        <ele>446.329</ele>
        <time>2020-05-19T22:06:20Z</time>
      </trkpt>
      <trkpt lat="43.226540" lon="-4.895360">
        <ele>445.021</ele>
        <time>2020-05-19T22:06:40Z</time>
      </trkpt>
      <trkpt lat="43.226620" lon="-4.895290">
        <ele>436.808</ele>
        <time>2020-05-19T22:07:00Z</time>
      </trkpt>
      <trkpt lat="43.226680" lon="-4.895220">
        <ele>434.768</ele>
        <time>2020-05-19T22:07:20Z</time>
      </trkpt>
      <trkpt lat="43.226740" lon="-4.895150">
        <ele>436.993</ele>
        <time>2020-05-19T22:07:40Z</time>
      </trkpt>
      <trkpt lat="43.226830" lon="-4.895050">
        <ele>434.569</ele>
        <time>2020-05-19T22:08:00Z</time>
      </trkpt>
      <trkpt lat="43.226920" lon="-4.894960">
        <ele>429.382</ele>
        <time>2020-05-19T22:08:20Z</time>
      </trkpt>
      <trkpt lat="43.227020" lon="-4.894900">
        <ele>430.382</ele>
        <time>2020-05-19T22:08:40Z</time>
      </trkpt>
      <trkpt lat="43.227050" lon="-4.894870">
        <ele>430.712</ele>
        <time>2020-05-19T22:09:00Z</time>
      </trkpt>
      <trkpt lat="43.227100" lon="-4.894830">
        <ele>428.922</ele>
        <time>2020-05-19T22:09:20Z</time>
      </trkpt>
      <trkpt lat="43.227150" lon="-4.894770">
        <ele>424.651</ele>
        <time>2020-05-19T22:09:40Z</time>
      </trkpt>
      <trkpt lat="43.227190" lon="-4.894720">
        <ele>418.937</ele>
        <time>2020-05-19T22:10:00Z</time>
      </trkpt>
      <trkpt lat="43.227310" lon="-4.894910">
        <ele>429.449</ele>
        <time>2020-05-19T22:10:20Z</time>
      </trkpt>
      <trkpt lat="43.227330" lon="-4.894920">
        <ele>430.813</ele>
        <time>2020-05-19T22:10:40Z</time>
      </trkpt>
      <trkpt lat="43.227350" lon="-4.894950">
        <ele>433.408</ele>
        <time>2020-05-19T22:11:00Z</time>
      </trkpt>
      <trkpt lat="43.227370" lon="-4.895010">
        <ele>438.297</ele>
        <time>2020-05-19T22:11:20Z</time>
      </trkpt>
      <trkpt lat="43.227390" lon="-4.895050">
        <ele>442.572</ele>
        <time>2020-05-19T22:11:40Z</time>
      </trkpt>
      <trkpt lat="43.227420" lon="-4.895060">
        <ele>444.398</ele>
        <time>2020-05-19T22:12:00Z</time>
      </trkpt>
      <trkpt lat="43.227440" lon="-4.895060">
        <ele>444.851</ele>
        <time>2020-05-19T22:12:20Z</time>
      </trkpt>
      <trkpt lat="43.227460" lon="-4.895040">
        <ele>443.811</ele>
        <time>2020-05-19T22:12:40Z</time>
      </trkpt>
      <trkpt lat="43.227470" lon="-4.895010">
        <ele>441.731</ele>
        <time>2020-05-19T22:13:00Z</time>
      </trkpt>
      <trkpt lat="43.227500" lon="-4.894900">
        <ele>435.221</ele>
        <time>2020-05-19T22:13:20Z</time>
      </trkpt>
      <trkpt lat="43.227510" lon="-4.894850">
        <ele>431.860</ele>
        <time>2020-05-19T22:13:40Z</time>
      </trkpt>
      <trkpt lat="43.227520" lon="-4.894830">
        <ele>430.428</ele>
        <time>2020-05-19T22:14:00Z</time>
      </trkpt>
      <trkpt lat="43.227540" lon="-4.894820">
        <ele>429.789</ele>
        <time>2020-05-19T22:14:20Z</time>
      </trkpt>
      <trkpt lat="43.227550" lon="-4.894820">
        <ele>429.717</ele>
        <time>2020-05-19T22:14:40Z</time>
      </trkpt>
      <trkpt lat="43.227580" lon="-4.894820">
        <ele>429.708</ele>
        <time>2020-05-19T22:15:00Z</time>
      </trkpt>
      <trkpt lat="43.227600" lon="-4.894830">
        <ele>430.426</ele>
        <time>2020-05-19T22:15:20Z</time>
      </trkpt>
      <trkpt lat="43.227610" lon="-4.894850">
        <ele>431.961</ele>
        <time>2020-05-19T22:15:40Z</time>
      </trkpt>
      <trkpt lat="43.227630" lon="-4.894880">
        <ele>434.177</ele>
        <time>2020-05-19T22:16:00Z</time>
      </trkpt>
      <trkpt lat="43.227680" lon="-4.894960">
        <ele>440.330</ele>
        <time>2020-05-19T22:16:20Z</time>
      </trkpt>
      <trkpt lat="43.227760" lon="-4.895110">
        <ele>451.470</ele>
        <time>2020-05-19T22:16:40Z</time>
      </trkpt>
      <trkpt lat="43.227790" lon="-4.895170">
        <ele>455.060</ele>
        <time>2020-05-19T22:17:00Z</time>
      </trkpt>
      <trkpt lat="43.227840" lon="-4.895220">
        <ele>455.740</ele>
        <time>2020-05-19T22:17:20Z</time>
      </trkpt>
      <trkpt lat="43.227900" lon="-4.895250">
        <ele>454.569</ele>
        <time>2020-05-19T22:17:40Z</time>
      </trkpt>
      <trkpt lat="43.228080" lon="-4.895290">
        <ele>448.914</ele>
        <time>2020-05-19T22:18:00Z</time>
      </trkpt>
      <trkpt lat="43.228100" lon="-4.895290">
        <ele>448.754</ele>
        <time>2020-05-19T22:18:20Z</time>
      </trkpt>
      <trkpt lat="43.228150" lon="-4.895290">
        <ele>448.309</ele>
        <time>2020-05-19T22:18:40Z</time>
      </trkpt>
      <trkpt lat="43.228200" lon="-4.895290">
        <ele>447.908</ele>
        <time>2020-05-19T22:19:00Z</time>
      </trkpt>
      <trkpt lat="43.228240" lon="-4.895280">
        <ele>446.845</ele>
        <time>2020-05-19T22:19:20Z</time>
      </trkpt>
      <trkpt lat="43.228260" lon="-4.895270">
        <ele>446.150</ele>
        <time>2020-05-19T22:19:40Z</time>
      </trkpt>
      <trkpt lat="43.228280" lon="-4.895260">
        <ele>445.416</ele>
        <time>2020-05-19T22:20:00Z</time>
      </trkpt>
      <trkpt lat="43.228310" lon="-4.895220">
        <ele>443.069</ele>
        <time>2020-05-19T22:20:20Z</time>
      </trkpt>
      <trkpt lat="43.228360" lon="-4.895150">
        <ele>440.349</ele>
        <time>2020-05-19T22:20:40Z</time>
      </trkpt>
      <trkpt lat="43.228430" lon="-4.895040">
        <ele>438.499</ele>
        <time>2020-05-19T22:21:00Z</time>
      </trkpt>
      <trkpt lat="43.228490" lon="-4.894960">
        <ele>437.929</ele>
        <time>2020-05-19T22:21:20Z</time>
      </trkpt>
      <trkpt lat="43.228520" lon="-4.894930">
        <ele>438.038</ele>
        <time>2020-05-19T22:21:40Z</time>
      </trkpt>
      <trkpt lat="43.228530" lon="-4.894930">
        <ele>438.573</ele>
        <time>2020-05-19T22:22:00Z</time>
      </trkpt>
      <trkpt lat="43.228600" lon="-4.894880">
        <ele>439.585</ele>
        <time>2020-05-19T22:22:20Z</time>
      </trkpt>
      <trkpt lat="43.228650" lon="-4.894820">
        <ele>439.013</ele>
        <time>2020-05-19T22:22:40Z</time>
      </trkpt>
      <trkpt lat="43.228660" lon="-4.894790">
        <ele>437.908</ele>
        <time>2020-05-19T22:23:00Z</time>
      </trkpt>
      <trkpt lat="43.228680" lon="-4.894760">
        <ele>437.581</ele>
        <time>2020-05-19T22:23:20Z</time>
      </trkpt>
      <trkpt lat="43.228700" lon="-4.894720">
        <ele>436.616</ele>
        <time>2020-05-19T22:23:40Z</time>
      </trkpt>
      <trkpt lat="43.228720" lon="-4.894660">
        <ele>434.822</ele>
        <time>2020-05-19T22:24:00Z</time>
      </trkpt>
      <trkpt lat="43.228730" lon="-4.894590">
        <ele>431.915</ele>
        <time>2020-05-19T22:24:20Z</time>
      </trkpt>
      <trkpt lat="43.228730" lon="-4.894570">
        <ele>430.925</ele>
        <time>2020-05-19T22:24:40Z</time>
      </trkpt>
      <trkpt lat="43.228740" lon="-4.894530">
        <ele>429.615</ele>
        <time>2020-05-19T22:25:00Z</time>
      </trkpt>
      <trkpt lat="43.228770" lon="-4.894490">
        <ele>429.815</ele>
        <time>2020-05-19T22:25:20Z</time>
      </trkpt>
      <trkpt lat="43.228810" lon="-4.894460">
        <ele>431.574</ele>
        <time>2020-05-19T22:25:40Z</time>
      </trkpt>
      <trkpt lat="43.228860" lon="-4.894430">
        <ele>433.884</ele>
        <time>2020-05-19T22:26:00Z</time>
      </trkpt>
      <trkpt lat="43.228870" lon="-4.894410">
        <ele>433.407</ele>
        <time>2020-05-19T22:26:20Z</time>
      </trkpt>
      <trkpt lat="43.228890" lon="-4.894380">
        <ele>433.117</ele>
        <time>2020-05-19T22:26:40Z</time>
      </trkpt>
      <trkpt lat="43.228910" lon="-4.894360">
        <ele>431.808</ele>
        <time>2020-05-19T22:27:00Z</time>
      </trkpt>
      <trkpt lat="43.228940" lon="-4.894350">
        <ele>431.212</ele>
        <time>2020-05-19T22:27:20Z</time>
      </trkpt>
      <trkpt lat="43.228970" lon="-4.894360">
        <ele>431.877</ele>
        <time>2020-05-19T22:27:40Z</time>
      </trkpt>
      <trkpt lat="43.228990" lon="-4.894370">
        <ele>432.443</ele>
        <time>2020-05-19T22:28:00Z</time>
      </trkpt>
      <trkpt lat="43.229020" lon="-4.894390">
        <ele>433.516</ele>
        <time>2020-05-19T22:28:20Z</time>
      </trkpt>
      <trkpt lat="43.229020" lon="-4.894400">
        <ele>434.076</ele>
        <time>2020-05-19T22:28:40Z</time>
      </trkpt>
      <trkpt lat="43.229050" lon="-4.894410">
        <ele>434.526</ele>
        <time>2020-05-19T22:29:00Z</time>
      </trkpt>
      <trkpt lat="43.229180" lon="-4.894440">
        <ele>436.066</ele>
        <time>2020-05-19T22:29:20Z</time>
      </trkpt>
      <trkpt lat="43.229380" lon="-4.894460">
        <ele>439.935</ele>
        <time>2020-05-19T22:29:40Z</time>
      </trkpt>
      <trkpt lat="43.229530" lon="-4.894480">
        <ele>441.963</ele>
        <time>2020-05-19T22:30:00Z</time>
      </trkpt>
      <trkpt lat="43.229740" lon="-4.894490">
        <ele>442.544</ele>
        <time>2020-05-19T22:30:20Z</time>
      </trkpt>
      <trkpt lat="43.229870" lon="-4.894500">
        <ele>443.518</ele>
        <time>2020-05-19T22:30:40Z</time>
      </trkpt>
      <trkpt lat="43.229920" lon="-4.894510">
        <ele>444.308</ele>
        <time>2020-05-19T22:31:00Z</time>
      </trkpt>
      <trkpt lat="43.230020" lon="-4.894560">
        <ele>447.420</ele>
        <time>2020-05-19T22:31:20Z</time>
      </trkpt>
      <trkpt lat="43.230170" lon="-4.894640">
        <ele>452.885</ele>
        <time>2020-05-19T22:31:40Z</time>
      </trkpt>
      <trkpt lat="43.230250" lon="-4.894670">
        <ele>455.051</ele>
        <time>2020-05-19T22:32:00Z</time>
      </trkpt>
      <trkpt lat="43.230260" lon="-4.894680">
        <ele>455.674</ele>
        <time>2020-05-19T22:32:20Z</time>
      </trkpt>
      <trkpt lat="43.230300" lon="-4.894710">
        <ele>461.694</ele>
        <time>2020-05-19T22:32:40Z</time>
      </trkpt>
      <trkpt lat="43.230350" lon="-4.894740">
        <ele>473.664</ele>
        <time>2020-05-19T22:33:00Z</time>
      </trkpt>
      <trkpt lat="43.230400" lon="-4.894750">
        <ele>484.844</ele>
        <time>2020-05-19T22:33:20Z</time>
      </trkpt>
      <trkpt lat="43.230420" lon="-4.894740">
        <ele>487.893</ele>
        <time>2020-05-19T22:33:40Z</time>
      </trkpt>
      <trkpt lat="43.230450" lon="-4.894740">
        <ele>493.842</ele>
        <time>2020-05-19T22:34:00Z</time>
      </trkpt>
      <trkpt lat="43.230520" lon="-4.894690">
        <ele>500.822</ele>
        <time>2020-05-19T22:34:20Z</time>
      </trkpt>
      <trkpt lat="43.230570" lon="-4.894610">
        <ele>500.214</ele>
        <time>2020-05-19T22:34:40Z</time>
      </trkpt>
      <trkpt lat="43.230650" lon="-4.894500">
        <ele>511.508</ele>
        <time>2020-05-19T22:35:00Z</time>
      </trkpt>
      <trkpt lat="43.230670" lon="-4.894410">
        <ele>504.198</ele>
        <time>2020-05-19T22:35:20Z</time>
      </trkpt>
      <trkpt lat="43.230720" lon="-4.894270">
        <ele>483.933</ele>
        <time>2020-05-19T22:35:40Z</time>
      </trkpt>
      <trkpt lat="43.230750" lon="-4.894170">
        <ele>463.229</ele>
        <time>2020-05-19T22:36:00Z</time>
      </trkpt>
      <trkpt lat="43.230770" lon="-4.894070">
        <ele>449.212</ele>
        <time>2020-05-19T22:36:20Z</time>
      </trkpt>
      <trkpt lat="43.230780" lon="-4.894020">
        <ele>441.672</ele>
        <time>2020-05-19T22:36:40Z</time>
      </trkpt>
      <trkpt lat="43.230830" lon="-4.894010">
        <ele>444.582</ele>
        <time>2020-05-19T22:37:00Z</time>
      </trkpt>
      <trkpt lat="43.230830" lon="-4.894000">
        <ele>442.552</ele>
        <time>2020-05-19T22:37:20Z</time>
      </trkpt>
      <trkpt lat="43.230870" lon="-4.894000">
        <ele>447.081</ele>
        <time>2020-05-19T22:37:40Z</time>
      </trkpt>
      <trkpt lat="43.230900" lon="-4.893970">
        <ele>443.749</ele>
        <time>2020-05-19T22:38:00Z</time>
      </trkpt>
      <trkpt lat="43.230930" lon="-4.893940">
        <ele>439.702</ele>
        <time>2020-05-19T22:38:20Z</time>
      </trkpt>
      <trkpt lat="43.230950" lon="-4.893910">
        <ele>434.422</ele>
        <time>2020-05-19T22:38:40Z</time>
      </trkpt>
      <trkpt lat="43.230950" lon="-4.893880">
        <ele>428.808</ele>
        <time>2020-05-19T22:39:00Z</time>
      </trkpt>
      <trkpt lat="43.230960" lon="-4.893850">
        <ele>428.188</ele>
        <time>2020-05-19T22:39:20Z</time>
      </trkpt>
      <trkpt lat="43.230930" lon="-4.893720">
        <ele>419.073</ele>
        <time>2020-05-19T22:39:40Z</time>
      </trkpt>
      <trkpt lat="43.230920" lon="-4.893710">
        <ele>417.679</ele>
        <time>2020-05-19T22:40:00Z</time>
      </trkpt>
      <trkpt lat="43.230890" lon="-4.893560">
        <ele>408.082</ele>
        <time>2020-05-19T22:40:20Z</time>
      </trkpt>
      <trkpt lat="43.230880" lon="-4.893520">
        <ele>405.722</ele>
        <time>2020-05-19T22:40:40Z</time>
      </trkpt>
      <trkpt lat="43.230870" lon="-4.893490">
        <ele>403.612</ele>
        <time>2020-05-19T22:41:00Z</time>
      </trkpt>
      <trkpt lat="43.230870" lon="-4.893480">
        <ele>403.232</ele>
        <time>2020-05-19T22:41:20Z</time>
      </trkpt>
      <trkpt lat="43.230870" lon="-4.893470">
        <ele>402.941</ele>
        <time>2020-05-19T22:41:40Z</time>
      </trkpt>
      <trkpt lat="43.230870" lon="-4.893460">
        <ele>402.694</ele>
        <time>2020-05-19T22:42:00Z</time>
      </trkpt>
      <trkpt lat="43.230880" lon="-4.893420">
        <ele>402.657</ele>
        <time>2020-05-19T22:42:20Z</time>
      </trkpt>
      <trkpt lat="43.230900" lon="-4.893370">
        <ele>403.822</ele>
        <time>2020-05-19T22:42:40Z</time>
      </trkpt>
      <trkpt lat="43.230950" lon="-4.893290">
        <ele>409.308</ele>
        <time>2020-05-19T22:43:00Z</time>
      </trkpt>
      <trkpt lat="43.230950" lon="-4.893270">
        <ele>408.923</ele>
        <time>2020-05-19T22:43:20Z</time>
      </trkpt>
      <trkpt lat="43.230990" lon="-4.893190">
        <ele>413.458</ele>
        <time>2020-05-19T22:43:40Z</time>
      </trkpt>
      <trkpt lat="43.231020" lon="-4.893120">
        <ele>416.734</ele>
        <time>2020-05-19T22:44:00Z</time>
      </trkpt>
      <trkpt lat="43.231040" lon="-4.893070">
        <ele>419.047</ele>
        <time>2020-05-19T22:44:20Z</time>
      </trkpt>
      <trkpt lat="43.231060" lon="-4.893040">
        <ele>420.957</ele>
        <time>2020-05-19T22:44:40Z</time>
      </trkpt>
      <trkpt lat="43.231070" lon="-4.893020">
        <ele>421.147</ele>
        <time>2020-05-19T22:45:00Z</time>
      </trkpt>
      <trkpt lat="43.231070" lon="-4.892990">
        <ele>419.197</ele>
        <time>2020-05-19T22:45:20Z</time>
      </trkpt>
      <trkpt lat="43.231080" lon="-4.892970">
        <ele>419.366</ele>
        <time>2020-05-19T22:45:40Z</time>
      </trkpt>
      <trkpt lat="43.231090" lon="-4.892960">
        <ele>420.217</ele>
        <time>2020-05-19T22:46:00Z</time>
      </trkpt>
      <trkpt lat="43.231090" lon="-4.892940">
        <ele>418.887</ele>
        <time>2020-05-19T22:46:20Z</time>
      </trkpt>
      <trkpt lat="43.231100" lon="-4.892930">
        <ele>419.715</ele>
        <time>2020-05-19T22:46:40Z</time>
      </trkpt>
      <trkpt lat="43.231110" lon="-4.892930">
        <ele>421.208</ele>
        <time>2020-05-19T22:47:00Z</time>
      </trkpt>
      <trkpt lat="43.231130" lon="-4.892930">
        <ele>423.585</ele>
        <time>2020-05-19T22:47:20Z</time>
      </trkpt>
      <trkpt lat="43.231140" lon="-4.892910">
        <ele>423.360</ele>
        <time>2020-05-19T22:47:40Z</time>
      </trkpt>
      <trkpt lat="43.231160" lon="-4.892890">
        <ele>424.316</ele>
        <time>2020-05-19T22:48:00Z</time>
      </trkpt>
      <trkpt lat="43.231170" lon="-4.892890">
        <ele>425.559</ele>
        <time>2020-05-19T22:48:20Z</time>
      </trkpt>
      <trkpt lat="43.231180" lon="-4.892880">
        <ele>426.079</ele>
        <time>2020-05-19T22:48:40Z</time>
      </trkpt>
      <trkpt lat="43.231190" lon="-4.892870">
        <ele>426.669</ele>
        <time>2020-05-19T22:49:00Z</time>
      </trkpt>
      <trkpt lat="43.231210" lon="-4.892870">
        <ele>428.949</ele>
        <time>2020-05-19T22:49:20Z</time>
      </trkpt>
      <trkpt lat="43.231220" lon="-4.892860">
        <ele>429.588</ele>
        <time>2020-05-19T22:49:40Z</time>
      </trkpt>
      <trkpt lat="43.231230" lon="-4.892860">
        <ele>430.759</ele>
        <time>2020-05-19T22:50:00Z</time>
      </trkpt>
      <trkpt lat="43.231240" lon="-4.892850">
        <ele>431.303</ele>
        <time>2020-05-19T22:50:20Z</time>
      </trkpt>
      <trkpt lat="43.231250" lon="-4.892830">
        <ele>431.423</ele>
        <time>2020-05-19T22:50:40Z</time>
      </trkpt>
      <trkpt lat="43.231260" lon="-4.892810">
        <ele>431.508</ele>
        <time>2020-05-19T22:51:00Z</time>
      </trkpt>
      <trkpt lat="43.231270" lon="-4.892790">
        <ele>431.799</ele>
        <time>2020-05-19T22:51:20Z</time>
      </trkpt>
      <trkpt lat="43.231280" lon="-4.892770">
        <ele>431.564</ele>
        <time>2020-05-19T22:51:40Z</time>
      </trkpt>
      <trkpt lat="43.231300" lon="-4.892740">
        <ele>430.820</ele>
        <time>2020-05-19T22:52:00Z</time>
      </trkpt>
      <trkpt lat="43.231300" lon="-4.892730">
        <ele>429.753</ele>
        <time>2020-05-19T22:52:20Z</time>
      </trkpt>
      <trkpt lat="43.231320" lon="-4.892700">
        <ele>429.043</ele>
        <time>2020-05-19T22:52:40Z</time>
      </trkpt>
      <trkpt lat="43.231330" lon="-4.892670">
        <ele>427.043</ele>
        <time>2020-05-19T22:53:00Z</time>
      </trkpt>
      <trkpt lat="43.231340" lon="-4.892650">
        <ele>426.143</ele>
        <time>2020-05-19T22:53:20Z</time>
      </trkpt>
      <trkpt lat="43.231350" lon="-4.892640">
        <ele>426.322</ele>
        <time>2020-05-19T22:53:40Z</time>
      </trkpt>
      <trkpt lat="43.231360" lon="-4.892620">
        <ele>425.491</ele>
        <time>2020-05-19T22:54:00Z</time>
      </trkpt>
      <trkpt lat="43.231380" lon="-4.892610">
        <ele>426.881</ele>
        <time>2020-05-19T22:54:20Z</time>
      </trkpt>
      <trkpt lat="43.231390" lon="-4.892600">
        <ele>427.019</ele>
        <time>2020-05-19T22:54:40Z</time>
      </trkpt>
      <trkpt lat="43.231400" lon="-4.892590">
        <ele>427.808</ele>
        <time>2020-05-19T22:55:00Z</time>
      </trkpt>
      <trkpt lat="43.231420" lon="-4.892580">
        <ele>430.663</ele>
        <time>2020-05-19T22:55:20Z</time>
      </trkpt>
      <trkpt lat="43.231430" lon="-4.892580">
        <ele>432.538</ele>
        <time>2020-05-19T22:55:40Z</time>
      </trkpt>
      <trkpt lat="43.231440" lon="-4.892580">
        <ele>434.474</ele>
        <time>2020-05-19T22:56:00Z</time>
      </trkpt>
      <trkpt lat="43.231450" lon="-4.892590">
        <ele>437.217</ele>
        <time>2020-05-19T22:56:20Z</time>
      </trkpt>
      <trkpt lat="43.231480" lon="-4.892580">
        <ele>442.197</ele>
        <time>2020-05-19T22:56:40Z</time>
      </trkpt>
      <trkpt lat="43.231510" lon="-4.892580">
        <ele>447.857</ele>
        <time>2020-05-19T22:57:00Z</time>
      </trkpt>
      <trkpt lat="43.231530" lon="-4.892580">
        <ele>451.737</ele>
        <time>2020-05-19T22:57:20Z</time>
      </trkpt>
      <trkpt lat="43.231550" lon="-4.892570">
        <ele>455.096</ele>
        <time>2020-05-19T22:57:40Z</time>
      </trkpt>
      <trkpt lat="43.231570" lon="-4.892560">
        <ele>458.447</ele>
        <time>2020-05-19T22:58:00Z</time>
      </trkpt>
      <trkpt lat="43.231590" lon="-4.892540">
        <ele>461.729</ele>
        <time>2020-05-19T22:58:20Z</time>
      </trkpt>
      <trkpt lat="43.231590" lon="-4.892530">
        <ele>461.321</ele>
        <time>2020-05-19T22:58:40Z</time>
      </trkpt>
      <trkpt lat="43.231600" lon="-4.892530">
        <ele>463.408</ele>
        <time>2020-05-19T22:59:00Z</time>
      </trkpt>
      <trkpt lat="43.231600" lon="-4.892510">
        <ele>462.788</ele>
        <time>2020-05-19T22:59:20Z</time>
      </trkpt>
      <trkpt lat="43.231610" lon="-4.892490">
        <ele>463.473</ele>
        <time>2020-05-19T22:59:40Z</time>
      </trkpt>
      <trkpt lat="43.231610" lon="-4.892470">
        <ele>461.279</ele>
        <time>2020-05-19T23:00:00Z</time>
      </trkpt>
      <trkpt lat="43.231620" lon="-4.892450">
        <ele>461.172</ele>
        <time>2020-05-19T23:00:20Z</time>
      </trkpt>
      <trkpt lat="43.231630" lon="-4.892430">
        <ele>461.282</ele>
        <time>2020-05-19T23:00:40Z</time>
      </trkpt>
      <trkpt lat="43.231630" lon="-4.892400">
        <ele>457.812</ele>
        <time>2020-05-19T23:01:00Z</time>
      </trkpt>
      <trkpt lat="43.231620" lon="-4.892380">
        <ele>453.362</ele>
        <time>2020-05-19T23:01:20Z</time>
      </trkpt>
      <trkpt lat="43.231620" lon="-4.892340">
        <ele>448.881</ele>
        <time>2020-05-19T23:01:40Z</time>
      </trkpt>
      <trkpt lat="43.231610" lon="-4.892310">
        <ele>443.116</ele>
        <time>2020-05-19T23:02:00Z</time>
      </trkpt>
      <trkpt lat="43.231610" lon="-4.892290">
        <ele>440.876</ele>
        <time>2020-05-19T23:02:20Z</time>
      </trkpt>
      <trkpt lat="43.231610" lon="-4.892280">
        <ele>439.713</ele>
        <time>2020-05-19T23:02:40Z</time>
      </trkpt>
      <trkpt lat="43.231610" lon="-4.892250">
        <ele>436.308</ele>
        <time>2020-05-19T23:03:00Z</time>
      </trkpt>
      <trkpt lat="43.231610" lon="-4.892200">
        <ele>433.185</ele>
        <time>2020-05-19T23:03:20Z</time>
      </trkpt>
      <trkpt lat="43.231610" lon="-4.892160">
        <ele>433.160</ele>
        <time>2020-05-19T23:03:40Z</time>
      </trkpt>
      <trkpt lat="43.231610" lon="-4.892140">
        <ele>433.196</ele>
        <time>2020-05-19T23:04:00Z</time>
      </trkpt>
      <trkpt lat="43.231610" lon="-4.892110">
        <ele>433.129</ele>
        <time>2020-05-19T23:04:20Z</time>
      </trkpt>
      <trkpt lat="43.231610" lon="-4.892080">
        <ele>433.119</ele>
        <time>2020-05-19T23:04:40Z</time>
      </trkpt>
      <trkpt lat="43.231610" lon="-4.892060">
        <ele>433.069</ele>
        <time>2020-05-19T23:05:00Z</time>
      </trkpt>
      <trkpt lat="43.231610" lon="-4.892050">
        <ele>433.019</ele>
        <time>2020-05-19T23:05:20Z</time>
      </trkpt>
      <trkpt lat="43.231610" lon="-4.892030">
        <ele>433.038</ele>
        <time>2020-05-19T23:05:40Z</time>
      </trkpt>
      <trkpt lat="43.231600" lon="-4.892000">
        <ele>432.445</ele>
        <time>2020-05-19T23:06:00Z</time>
      </trkpt>
      <trkpt lat="43.231600" lon="-4.891980">
        <ele>432.547</ele>
        <time>2020-05-19T23:06:20Z</time>
      </trkpt>
      <trkpt lat="43.231600" lon="-4.891940">
        <ele>432.811</ele>
        <time>2020-05-19T23:06:40Z</time>
      </trkpt>
      <trkpt lat="43.231600" lon="-4.891920">
        <ele>432.708</ele>
        <time>2020-05-19T23:07:00Z</time>
      </trkpt>
      <trkpt lat="43.231610" lon="-4.891880">
        <ele>432.598</ele>
        <time>2020-05-19T23:07:20Z</time>
      </trkpt>
      <trkpt lat="43.231610" lon="-4.891870">
        <ele>432.573</ele>
        <time>2020-05-19T23:07:40Z</time>
      </trkpt>
      <trkpt lat="43.231620" lon="-4.891840">
        <ele>432.339</ele>
        <time>2020-05-19T23:08:00Z</time>
      </trkpt>
      <trkpt lat="43.231620" lon="-4.891820">
        <ele>432.182</ele>
        <time>2020-05-19T23:08:20Z</time>
      </trkpt>
      <trkpt lat="43.231630" lon="-4.891810">
        <ele>432.042</ele>
        <time>2020-05-19T23:08:40Z</time>
      </trkpt>
      <trkpt lat="43.231640" lon="-4.891780">
        <ele>431.762</ele>
        <time>2020-05-19T23:09:00Z</time>
      </trkpt>
      <trkpt lat="43.231650" lon="-4.891760">
        <ele>431.492</ele>
        <time>2020-05-19T23:09:20Z</time>
      </trkpt>
      <trkpt lat="43.231660" lon="-4.891740">
        <ele>431.111</ele>
        <time>2020-05-19T23:09:40Z</time>
      </trkpt>
      <trkpt lat="43.231670" lon="-4.891730">
        <ele>431.263</ele>
        <time>2020-05-19T23:10:00Z</time>
      </trkpt>
      <trkpt lat="43.231680" lon="-4.891720">
        <ele>431.744</ele>
        <time>2020-05-19T23:10:20Z</time>
      </trkpt>
      <trkpt lat="43.231690" lon="-4.891700">
        <ele>432.118</ele>
        <time>2020-05-19T23:10:40Z</time>
      </trkpt>
      <trkpt lat="43.231700" lon="-4.891690">
        <ele>432.708</ele>
        <time>2020-05-19T23:11:00Z</time>
      </trkpt>
      <trkpt lat="43.231710" lon="-4.891670">
        <ele>433.060</ele>
        <time>2020-05-19T23:11:20Z</time>
      </trkpt>
      <trkpt lat="43.231720" lon="-4.891660">
        <ele>433.635</ele>
        <time>2020-05-19T23:11:40Z</time>
      </trkpt>
      <trkpt lat="43.231720" lon="-4.891640">
        <ele>433.481</ele>
        <time>2020-05-19T23:12:00Z</time>
      </trkpt>
      <trkpt lat="43.231720" lon="-4.891630">
        <ele>433.384</ele>
        <time>2020-05-19T23:12:20Z</time>
      </trkpt>
      <trkpt lat="43.231720" lon="-4.891620">
        <ele>433.294</ele>
        <time>2020-05-19T23:12:40Z</time>
      </trkpt>
      <trkpt lat="43.231720" lon="-4.891610">
        <ele>433.154</ele>
        <time>2020-05-19T23:13:00Z</time>
      </trkpt>
      <trkpt lat="43.231710" lon="-4.891590">
        <ele>432.214</ele>
        <time>2020-05-19T23:13:20Z</time>
      </trkpt>
      <trkpt lat="43.231700" lon="-4.891560">
        <ele>431.243</ele>
        <time>2020-05-19T23:13:40Z</time>
      </trkpt>
      <trkpt lat="43.231690" lon="-4.891530">
        <ele>430.264</ele>
        <time>2020-05-19T23:14:00Z</time>
      </trkpt>
      <trkpt lat="43.231690" lon="-4.891480">
        <ele>429.606</ele>
        <time>2020-05-19T23:14:20Z</time>
      </trkpt>
      <trkpt lat="43.231680" lon="-4.891450">
        <ele>428.616</ele>
        <time>2020-05-19T23:14:40Z</time>
      </trkpt>
      <trkpt lat="43.231680" lon="-4.891430">
        <ele>428.408</ele>
        <time>2020-05-19T23:15:00Z</time>
      </trkpt>
      <trkpt lat="43.231690" lon="-4.891390">
        <ele>428.730</ele>
        <time>2020-05-19T23:15:20Z</time>
      </trkpt>
      <trkpt lat="43.231700" lon="-4.891370">
        <ele>429.285</ele>
        <time>2020-05-19T23:15:40Z</time>
      </trkpt>
      <trkpt lat="43.231710" lon="-4.891300">
        <ele>429.161</ele>
        <time>2020-05-19T23:16:00Z</time>
      </trkpt>
      <trkpt lat="43.231740" lon="-4.891210">
        <ele>429.634</ele>
        <time>2020-05-19T23:16:20Z</time>
      </trkpt>
      <trkpt lat="43.231760" lon="-4.891160">
        <ele>429.984</ele>
        <time>2020-05-19T23:16:40Z</time>
      </trkpt>
      <trkpt lat="43.231760" lon="-4.891140">
        <ele>429.554</ele>
        <time>2020-05-19T23:17:00Z</time>
      </trkpt>
      <trkpt lat="43.231770" lon="-4.891130">
        <ele>429.834</ele>
        <time>2020-05-19T23:17:20Z</time>
      </trkpt>
      <trkpt lat="43.231790" lon="-4.891100">
        <ele>430.263</ele>
        <time>2020-05-19T23:17:40Z</time>
      </trkpt>
      <trkpt lat="43.231810" lon="-4.891070">
        <ele>430.569</ele>
        <time>2020-05-19T23:18:00Z</time>
      </trkpt>
      <trkpt lat="43.231830" lon="-4.891050">
        <ele>430.904</ele>
        <time>2020-05-19T23:18:20Z</time>
      </trkpt>
      <trkpt lat="43.231840" lon="-4.891040">
        <ele>431.024</ele>
        <time>2020-05-19T23:18:40Z</time>
      </trkpt>
      <trkpt lat="43.231850" lon="-4.891030">
        <ele>431.108</ele>
        <time>2020-05-19T23:19:00Z</time>
      </trkpt>
      <trkpt lat="43.231870" lon="-4.891020">
        <ele>431.580</ele>
        <time>2020-05-19T23:19:20Z</time>
      </trkpt>
      <trkpt lat="43.231890" lon="-4.891020">
        <ele>432.175</ele>
        <time>2020-05-19T23:19:40Z</time>
      </trkpt>
      <trkpt lat="43.231910" lon="-4.891020">
        <ele>432.711</ele>
        <time>2020-05-19T23:20:00Z</time>
      </trkpt>
      <trkpt lat="43.231930" lon="-4.891010">
        <ele>432.944</ele>
        <time>2020-05-19T23:20:20Z</time>
      </trkpt>
      <trkpt lat="43.231950" lon="-4.891020">
        <ele>433.964</ele>
        <time>2020-05-19T23:20:40Z</time>
      </trkpt>
      <trkpt lat="43.231970" lon="-4.891020">
        <ele>434.674</ele>
        <time>2020-05-19T23:21:00Z</time>
      </trkpt>
      <trkpt lat="43.231990" lon="-4.891030">
        <ele>435.794</ele>
        <time>2020-05-19T23:21:20Z</time>
      </trkpt>
      <trkpt lat="43.232000" lon="-4.891030">
        <ele>436.113</ele>
        <time>2020-05-19T23:21:40Z</time>
      </trkpt>
      <trkpt lat="43.232020" lon="-4.891040">
        <ele>437.231</ele>
        <time>2020-05-19T23:22:00Z</time>
      </trkpt>
      <trkpt lat="43.232030" lon="-4.891040">
        <ele>437.661</ele>
        <time>2020-05-19T23:22:20Z</time>
      </trkpt>
      <trkpt lat="43.232050" lon="-4.891050">
        <ele>438.807</ele>
        <time>2020-05-19T23:22:40Z</time>
      </trkpt>
      <trkpt lat="43.232060" lon="-4.891060">
        <ele>439.608</ele>
        <time>2020-05-19T23:23:00Z</time>
      </trkpt>
      <trkpt lat="43.232070" lon="-4.891060">
        <ele>440.087</ele>
        <time>2020-05-19T23:23:20Z</time>
      </trkpt>
      <trkpt lat="43.232080" lon="-4.891060">
        <ele>440.432</ele>
        <time>2020-05-19T23:23:40Z</time>
      </trkpt>
      <trkpt lat="43.232090" lon="-4.891060">
        <ele>440.878</ele>
        <time>2020-05-19T23:24:00Z</time>
      </trkpt>
      <trkpt lat="43.232110" lon="-4.891050">
        <ele>441.021</ele>
        <time>2020-05-19T23:24:20Z</time>
      </trkpt>
      <trkpt lat="43.232120" lon="-4.891030">
        <ele>440.471</ele>
        <time>2020-05-19T23:24:40Z</time>
      </trkpt>
      <trkpt lat="43.232140" lon="-4.891000">
        <ele>439.551</ele>
        <time>2020-05-19T23:25:00Z</time>
      </trkpt>
      <trkpt lat="43.232160" lon="-4.890960">
        <ele>437.951</ele>
        <time>2020-05-19T23:25:20Z</time>
      </trkpt>
      <trkpt lat="43.232180" lon="-4.890930">
        <ele>436.830</ele>
        <time>2020-05-19T23:25:40Z</time>
      </trkpt>
      <trkpt lat="43.232200" lon="-4.890890">
        <ele>435.064</ele>
        <time>2020-05-19T23:26:00Z</time>
      </trkpt>
      <trkpt lat="43.232240" lon="-4.890850">
        <ele>435.306</ele>
        <time>2020-05-19T23:26:20Z</time>
      </trkpt>
      <trkpt lat="43.232260" lon="-4.890840">
        <ele>437.316</ele>
        <time>2020-05-19T23:26:40Z</time>
      </trkpt>
      <trkpt lat="43.232280" lon="-4.890820">
        <ele>438.508</ele>
        <time>2020-05-19T23:27:00Z</time>
      </trkpt>
      <trkpt lat="43.232310" lon="-4.890810">
        <ele>441.730</ele>
        <time>2020-05-19T23:27:20Z</time>
      </trkpt>
      <trkpt lat="43.232330" lon="-4.890800">
        <ele>443.495</ele>
        <time>2020-05-19T23:27:40Z</time>
      </trkpt>
      <trkpt lat="43.232340" lon="-4.890790">
        <ele>443.911</ele>
        <time>2020-05-19T23:28:00Z</time>
      </trkpt>
      <trkpt lat="43.232360" lon="-4.890770">
        <ele>444.834</ele>
        <time>2020-05-19T23:28:20Z</time>
      </trkpt>
      <trkpt lat="43.232370" lon="-4.890770">
        <ele>446.154</ele>
        <time>2020-05-19T23:28:40Z</time>
      </trkpt>
      <trkpt lat="43.232390" lon="-4.890750">
        <ele>446.944</ele>
        <time>2020-05-19T23:29:00Z</time>
      </trkpt>
      <trkpt lat="43.232410" lon="-4.890730">
        <ele>447.624</ele>
        <time>2020-05-19T23:29:20Z</time>
      </trkpt>
      <trkpt lat="43.232420" lon="-4.890720">
        <ele>448.023</ele>
        <time>2020-05-19T23:29:40Z</time>
      </trkpt>
      <trkpt lat="43.232430" lon="-4.890700">
        <ele>447.493</ele>
        <time>2020-05-19T23:30:00Z</time>
      </trkpt>
      <trkpt lat="43.232450" lon="-4.890670">
        <ele>447.165</ele>
        <time>2020-05-19T23:30:20Z</time>
      </trkpt>
      <trkpt lat="43.232470" lon="-4.890640">
        <ele>446.621</ele>
        <time>2020-05-19T23:30:40Z</time>
      </trkpt>
      <trkpt lat="43.232480" lon="-4.890610">
        <ele>445.008</ele>
        <time>2020-05-19T23:31:00Z</time>
      </trkpt>
      <trkpt lat="43.232490" lon="-4.890600">
        <ele>445.193</ele>
        <time>2020-05-19T23:31:20Z</time>
      </trkpt>
      <trkpt lat="43.232500" lon="-4.890570">
        <ele>443.468</ele>
        <time>2020-05-19T23:31:40Z</time>
      </trkpt>
      <trkpt lat="43.232510" lon="-4.890560">
        <ele>443.554</ele>
        <time>2020-05-19T23:32:00Z</time>
      </trkpt>
      <trkpt lat="43.232520" lon="-4.890530">
        <ele>442.567</ele>
        <time>2020-05-19T23:32:20Z</time>
      </trkpt>
      <trkpt lat="43.232520" lon="-4.890510">
        <ele>441.317</ele>
        <time>2020-05-19T23:32:40Z</time>
      </trkpt>
      <trkpt lat="43.232520" lon="-4.890480">
        <ele>439.557</ele>
        <time>2020-05-19T23:33:00Z</time>
      </trkpt>
      <trkpt lat="43.232520" lon="-4.890440">
        <ele>437.097</ele>
        <time>2020-05-19T23:33:20Z</time>
      </trkpt>
      <trkpt lat="43.232520" lon="-4.890420">
        <ele>435.826</ele>
        <time>2020-05-19T23:33:40Z</time>
      </trkpt>
      <trkpt lat="43.232520" lon="-4.890390">
        <ele>434.076</ele>
        <time>2020-05-19T23:34:00Z</time>
      </trkpt>
      <trkpt lat="43.232530" lon="-4.890360">
        <ele>432.990</ele>
        <time>2020-05-19T23:34:20Z</time>
      </trkpt>
      <trkpt lat="43.232540" lon="-4.890340">
        <ele>432.319</ele>
        <time>2020-05-19T23:34:40Z</time>
      </trkpt>
      <trkpt lat="43.232550" lon="-4.890320">
        <ele>431.708</ele>
        <time>2020-05-19T23:35:00Z</time>
      </trkpt>
      <trkpt lat="43.232560" lon="-4.890290">
        <ele>430.341</ele>
        <time>2020-05-19T23:35:20Z</time>
      </trkpt>
      <trkpt lat="43.232570" lon="-4.890280">
        <ele>430.286</ele>
        <time>2020-05-19T23:35:40Z</time>
      </trkpt>
      <trkpt lat="43.232590" lon="-4.890270">
        <ele>430.662</ele>
        <time>2020-05-19T23:36:00Z</time>
      </trkpt>
      <trkpt lat="43.232600" lon="-4.890250">
        <ele>429.745</ele>
        <time>2020-05-19T23:36:20Z</time>
      </trkpt>
      <trkpt lat="43.232610" lon="-4.890250">
        <ele>430.315</ele>
        <time>2020-05-19T23:36:40Z</time>
      </trkpt>
      <trkpt lat="43.232620" lon="-4.890230">
        <ele>429.455</ele>
        <time>2020-05-19T23:37:00Z</time>
      </trkpt>
      <trkpt lat="43.232630" lon="-4.890220">
        <ele>429.235</ele>
        <time>2020-05-19T23:37:20Z</time>
      </trkpt>
      <trkpt lat="43.232640" lon="-4.890210">
        <ele>428.974</ele>
        <time>2020-05-19T23:37:40Z</time>
      </trkpt>
      <trkpt lat="43.232660" lon="-4.890200">
        <ele>429.237</ele>
        <time>2020-05-19T23:38:00Z</time>
      </trkpt>
      <trkpt lat="43.232680" lon="-4.890190">
        <ele>429.549</ele>
        <time>2020-05-19T23:38:20Z</time>
      </trkpt>
      <trkpt lat="43.232720" lon="-4.890200">
        <ele>432.313</ele>
        <time>2020-05-19T23:38:40Z</time>
      </trkpt>
      <trkpt lat="43.232740" lon="-4.890200">
        <ele>433.308</ele>
        <time>2020-05-19T23:39:00Z</time>
      </trkpt>
      <trkpt lat="43.232770" lon="-4.890200">
        <ele>434.917</ele>
        <time>2020-05-19T23:39:20Z</time>
      </trkpt>
      <trkpt lat="43.232800" lon="-4.890200">
        <ele>434.462</ele>
        <time>2020-05-19T23:39:40Z</time>
      </trkpt>
      <trkpt lat="43.232820" lon="-4.890200">
        <ele>433.688</ele>
        <time>2020-05-19T23:40:00Z</time>
      </trkpt>
      <trkpt lat="43.232830" lon="-4.890200">
        <ele>433.261</ele>
        <time>2020-05-19T23:40:20Z</time>
      </trkpt>
      <trkpt lat="43.232840" lon="-4.890200">
        <ele>432.831</ele>
        <time>2020-05-19T23:40:40Z</time>
      </trkpt>
      <trkpt lat="43.232860" lon="-4.890210">
        <ele>432.761</ele>
        <time>2020-05-19T23:41:00Z</time>
      </trkpt>
      <trkpt lat="43.232870" lon="-4.890220">
        <ele>433.131</ele>
        <time>2020-05-19T23:41:20Z</time>
      </trkpt>
      <trkpt lat="43.232900" lon="-4.890230">
        <ele>432.530</ele>
        <time>2020-05-19T23:41:40Z</time>
      </trkpt>
      <trkpt lat="43.232920" lon="-4.890240">
        <ele>432.393</ele>
        <time>2020-05-19T23:42:00Z</time>
      </trkpt>
      <trkpt lat="43.232940" lon="-4.890260">
        <ele>432.765</ele>
        <time>2020-05-19T23:42:20Z</time>
      </trkpt>
      <trkpt lat="43.232970" lon="-4.890280">
        <ele>432.521</ele>
        <time>2020-05-19T23:42:40Z</time>
      </trkpt>
      <trkpt lat="43.232990" lon="-4.890300">
        <ele>433.308</ele>
        <time>2020-05-19T23:43:00Z</time>
      </trkpt>
      <trkpt lat="43.232990" lon="-4.890310">
        <ele>434.133</ele>
        <time>2020-05-19T23:43:20Z</time>
      </trkpt>
      <trkpt lat="43.233010" lon="-4.890330">
        <ele>434.838</ele>
        <time>2020-05-19T23:43:40Z</time>
      </trkpt>
      <trkpt lat="43.233030" lon="-4.890350">
        <ele>435.444</ele>
        <time>2020-05-19T23:44:00Z</time>
      </trkpt>
      <trkpt lat="43.233050" lon="-4.890380">
        <ele>436.867</ele>
        <time>2020-05-19T23:44:20Z</time>
      </trkpt>
      <trkpt lat="43.233060" lon="-4.890400">
        <ele>437.917</ele>
        <time>2020-05-19T23:44:40Z</time>
      </trkpt>
      <trkpt lat="43.233090" lon="-4.890440">
        <ele>439.687</ele>
        <time>2020-05-19T23:45:00Z</time>
      </trkpt>
      <trkpt lat="43.233100" lon="-4.890470">
        <ele>441.477</ele>
        <time>2020-05-19T23:45:20Z</time>
      </trkpt>
      <trkpt lat="43.233120" lon="-4.890490">
        <ele>441.636</ele>
        <time>2020-05-19T23:45:40Z</time>
      </trkpt>
      <trkpt lat="43.233140" lon="-4.890510">
        <ele>441.823</ele>
        <time>2020-05-19T23:46:00Z</time>
      </trkpt>
      <trkpt lat="43.233160" lon="-4.890530">
        <ele>441.883</ele>
        <time>2020-05-19T23:46:20Z</time>
      </trkpt>
      <trkpt lat="43.233180" lon="-4.890550">
        <ele>441.711</ele>
        <time>2020-05-19T23:46:40Z</time>
      </trkpt>
      <trkpt lat="43.233200" lon="-4.890570">
        <ele>441.508</ele>
        <time>2020-05-19T23:47:00Z</time>
      </trkpt>
      <trkpt lat="43.233210" lon="-4.890590">
        <ele>442.216</ele>
        <time>2020-05-19T23:47:20Z</time>
      </trkpt>
      <trkpt lat="43.233230" lon="-4.890600">
        <ele>441.611</ele>
        <time>2020-05-19T23:47:40Z</time>
      </trkpt>
      <trkpt lat="43.233230" lon="-4.890610">
        <ele>442.317</ele>
        <time>2020-05-19T23:48:00Z</time>
      </trkpt>
      <trkpt lat="43.233240" lon="-4.890620">
        <ele>442.450</ele>
        <time>2020-05-19T23:48:20Z</time>
      </trkpt>
      <trkpt lat="43.233250" lon="-4.890630">
        <ele>442.580</ele>
        <time>2020-05-19T23:48:40Z</time>
      </trkpt>
      <trkpt lat="43.233260" lon="-4.890630">
        <ele>441.960</ele>
        <time>2020-05-19T23:49:00Z</time>
      </trkpt>
      <trkpt lat="43.233270" lon="-4.890640">
        <ele>442.070</ele>
        <time>2020-05-19T23:49:20Z</time>
      </trkpt>
      <trkpt lat="43.233280" lon="-4.890640">
        <ele>441.499</ele>
        <time>2020-05-19T23:49:40Z</time>
      </trkpt>
      <trkpt lat="43.233290" lon="-4.890640">
        <ele>440.833</ele>
        <time>2020-05-19T23:50:00Z</time>
      </trkpt>
      <trkpt lat="43.233300" lon="-4.890640">
        <ele>440.323</ele>
        <time>2020-05-19T23:50:20Z</time>
      </trkpt>
      <trkpt lat="43.233320" lon="-4.890640">
        <ele>439.115</ele>
        <time>2020-05-19T23:50:40Z</time>
      </trkpt>
      <trkpt lat="43.233340" lon="-4.890630">
        <ele>436.708</ele>
        <time>2020-05-19T23:51:00Z</time>
      </trkpt>
      <trkpt lat="43.233360" lon="-4.890630">
        <ele>434.667</ele>
        <time>2020-05-19T23:51:20Z</time>
      </trkpt>
      <trkpt lat="43.233380" lon="-4.890630">
        <ele>432.522</ele>
        <time>2020-05-19T23:51:40Z</time>
      </trkpt>
      <trkpt lat="43.233410" lon="-4.890620">
        <ele>428.688</ele>
        <time>2020-05-19T23:52:00Z</time>
      </trkpt>
      <trkpt lat="43.233430" lon="-4.890620">
        <ele>426.581</ele>
        <time>2020-05-19T23:52:20Z</time>
      </trkpt>
      <trkpt lat="43.233440" lon="-4.890630">
        <ele>426.161</ele>
        <time>2020-05-19T23:52:40Z</time>
      </trkpt>
      <trkpt lat="43.233460" lon="-4.890640">
        <ele>424.681</ele>
        <time>2020-05-19T23:53:00Z</time>
      </trkpt>
      <trkpt lat="43.233470" lon="-4.890650">
        <ele>424.251</ele>
        <time>2020-05-19T23:53:20Z</time>
      </trkpt>
      <trkpt lat="43.233490" lon="-4.890680">
        <ele>423.850</ele>
        <time>2020-05-19T23:53:40Z</time>
      </trkpt>
      <trkpt lat="43.233500" lon="-4.890700">
        <ele>423.824</ele>
        <time>2020-05-19T23:54:00Z</time>
      </trkpt>
      <trkpt lat="43.233510" lon="-4.890720">
        <ele>423.804</ele>
        <time>2020-05-19T23:54:20Z</time>
      </trkpt>
      <trkpt lat="43.233520" lon="-4.890750">
        <ele>424.214</ele>
        <time>2020-05-19T23:54:40Z</time>
      </trkpt>
      <trkpt lat="43.233540" lon="-4.890780">
        <ele>423.208</ele>
        <time>2020-05-19T23:55:00Z</time>
      </trkpt>
      <trkpt lat="43.233560" lon="-4.890800">
        <ele>421.636</ele>
        <time>2020-05-19T23:55:20Z</time>
      </trkpt>
      <trkpt lat="43.233570" lon="-4.890820">
        <ele>421.271</ele>
        <time>2020-05-19T23:55:40Z</time>
      </trkpt>
      <trkpt lat="43.233590" lon="-4.890850">
        <ele>420.467</ele>
        <time>2020-05-19T23:56:00Z</time>
      </trkpt>
      <trkpt lat="43.233610" lon="-4.890880">
        <ele>420.270</ele>
        <time>2020-05-19T23:56:20Z</time>
      </trkpt>
      <trkpt lat="43.233620" lon="-4.890930">
        <ele>424.530</ele>
        <time>2020-05-19T23:56:40Z</time>
      </trkpt>
      <trkpt lat="43.233620" lon="-4.890970">
        <ele>427.930</ele>
        <time>2020-05-19T23:57:00Z</time>
      </trkpt>
      <trkpt lat="43.233630" lon="-4.891010">
        <ele>431.430</ele>
        <time>2020-05-19T23:57:20Z</time>
      </trkpt>
      <trkpt lat="43.233630" lon="-4.891020">
        <ele>432.249</ele>
        <time>2020-05-19T23:57:40Z</time>
      </trkpt>
      <trkpt lat="43.233630" lon="-4.891060">
        <ele>435.521</ele>
        <time>2020-05-19T23:58:00Z</time>
      </trkpt>
      <trkpt lat="43.233640" lon="-4.891100">
        <ele>438.841</ele>
        <time>2020-05-19T23:58:20Z</time>
      </trkpt>
      <trkpt lat="43.233640" lon="-4.891140">
        <ele>442.605</ele>
        <time>2020-05-19T23:58:40Z</time>
      </trkpt>
      <trkpt lat="43.233650" lon="-4.891190">
        <ele>447.308</ele>
        <time>2020-05-19T23:59:00Z</time>
      </trkpt>
      <trkpt lat="43.233650" lon="-4.891240">
        <ele>452.136</ele>
        <time>2020-05-19T23:59:20Z</time>
      </trkpt>
      <trkpt lat="43.233650" lon="-4.891260">
        <ele>454.151</ele>
        <time>2020-05-19T23:59:40Z</time>
      </trkpt>
      <trkpt lat="43.233650" lon="-4.891300">
        <ele>458.087</ele>
        <time>2020-05-20T00:00:00Z</time>
      </trkpt>
      <trkpt lat="43.233650" lon="-4.891340">
        <ele>461.980</ele>
        <time>2020-05-20T00:00:20Z</time>
      </trkpt>
      <trkpt lat="43.233650" lon="-4.891400">
        <ele>467.930</ele>
        <time>2020-05-20T00:00:40Z</time>
      </trkpt>
      <trkpt lat="43.233650" lon="-4.891450">
        <ele>473.440</ele>
        <time>2020-05-20T00:01:00Z</time>
      </trkpt>
      <trkpt lat="43.233660" lon="-4.891500">
        <ele>478.020</ele>
        <time>2020-05-20T00:01:20Z</time>
      </trkpt>
      <trkpt lat="43.233660" lon="-4.891510">
        <ele>479.199</ele>
        <time>2020-05-20T00:01:40Z</time>
      </trkpt>
      <trkpt lat="43.233670" lon="-4.891550">
        <ele>482.363</ele>
        <time>2020-05-20T00:02:00Z</time>
      </trkpt>
      <trkpt lat="43.233680" lon="-4.891600">
        <ele>486.344</ele>
        <time>2020-05-20T00:02:20Z</time>
      </trkpt>
      <trkpt lat="43.233680" lon="-4.891650">
        <ele>491.418</ele>
        <time>2020-05-20T00:02:40Z</time>
      </trkpt>
      <trkpt lat="43.233690" lon="-4.891680">
        <ele>492.808</ele>
        <time>2020-05-20T00:03:00Z</time>
      </trkpt>
      <trkpt lat="43.233700" lon="-4.891710">
        <ele>494.190</ele>
        <time>2020-05-20T00:03:20Z</time>
      </trkpt>
      <trkpt lat="43.233710" lon="-4.891720">
        <ele>493.755</ele>
        <time>2020-05-20T00:03:40Z</time>
      </trkpt>
      <trkpt lat="43.233720" lon="-4.891720">
        <ele>492.331</ele>
        <time>2020-05-20T00:04:00Z</time>
      </trkpt>
      <trkpt lat="43.233730" lon="-4.891720">
        <ele>490.974</ele>
        <time>2020-05-20T00:04:20Z</time>
      </trkpt>
      <trkpt lat="43.233740" lon="-4.891720">
        <ele>489.534</ele>
        <time>2020-05-20T00:04:40Z</time>
      </trkpt>
      <trkpt lat="43.233760" lon="-4.891700">
        <ele>484.854</ele>
        <time>2020-05-20T00:05:00Z</time>
      </trkpt>
      <trkpt lat="43.233780" lon="-4.891660">
        <ele>478.264</ele>
        <time>2020-05-20T00:05:20Z</time>
      </trkpt>
      <trkpt lat="43.233790" lon="-4.891630">
        <ele>474.763</ele>
        <time>2020-05-20T00:05:40Z</time>
      </trkpt>
      <trkpt lat="43.233800" lon="-4.891580">
        <ele>470.197</ele>
        <time>2020-05-20T00:06:00Z</time>
      </trkpt>
      <trkpt lat="43.233810" lon="-4.891540">
        <ele>466.423</ele>
        <time>2020-05-20T00:06:20Z</time>
      </trkpt>
      <trkpt lat="43.233810" lon="-4.891520">
        <ele>465.125</ele>
        <time>2020-05-20T00:06:40Z</time>
      </trkpt>
      <trkpt lat="43.233820" lon="-4.891480">
        <ele>461.708</ele>
        <time>2020-05-20T00:07:00Z</time>
      </trkpt>
      <trkpt lat="43.233830" lon="-4.891440">
        <ele>458.563</ele>
        <time>2020-05-20T00:07:20Z</time>
      </trkpt>
      <trkpt lat="43.233830" lon="-4.891410">
        <ele>456.858</ele>
        <time>2020-05-20T00:07:40Z</time>
      </trkpt>
      <trkpt lat="43.233840" lon="-4.891380">
        <ele>454.414</ele>
        <time>2020-05-20T00:08:00Z</time>
      </trkpt>
      <trkpt lat="43.233860" lon="-4.891360">
        <ele>452.147</ele>
        <time>2020-05-20T00:08:20Z</time>
      </trkpt>
      <trkpt lat="43.233870" lon="-4.891330">
        <ele>449.817</ele>
        <time>2020-05-20T00:08:40Z</time>
      </trkpt>
      <trkpt lat="43.233880" lon="-4.891310">
        <ele>448.247</ele>
        <time>2020-05-20T00:09:00Z</time>
      </trkpt>
      <trkpt lat="43.233890" lon="-4.891300">
        <ele>447.397</ele>
        <time>2020-05-20T00:09:20Z</time>
      </trkpt>
      <trkpt lat="43.233910" lon="-4.891270">
        <ele>447.596</ele>
        <time>2020-05-20T00:09:40Z</time>
      </trkpt>
      <trkpt lat="43.233920" lon="-4.891240">
        <ele>446.957</ele>
        <time>2020-05-20T00:10:00Z</time>
      </trkpt>
      <trkpt lat="43.233930" lon="-4.891220">
        <ele>446.800</ele>
        <time>2020-05-20T00:10:20Z</time>
      </trkpt>
      <trkpt lat="43.233940" lon="-4.891190">
        <ele>446.220</ele>
        <time>2020-05-20T00:10:40Z</time>
      </trkpt>
      <trkpt lat="43.233950" lon="-4.891160">
        <ele>445.608</ele>
        <time>2020-05-20T00:11:00Z</time>
      </trkpt>
      <trkpt lat="43.233960" lon="-4.891130">
        <ele>445.189</ele>
        <time>2020-05-20T00:11:20Z</time>
      </trkpt>
      <trkpt lat="43.233970" lon="-4.891090">
        <ele>444.234</ele>
        <time>2020-05-20T00:11:40Z</time>
      </trkpt>
      <trkpt lat="43.233980" lon="-4.891050">
        <ele>443.270</ele>
        <time>2020-05-20T00:12:00Z</time>
      </trkpt>
      <trkpt lat="43.233990" lon="-4.891000">
        <ele>441.693</ele>
        <time>2020-05-20T00:12:20Z</time>
      </trkpt>
      <trkpt lat="43.234000" lon="-4.890920">
        <ele>438.473</ele>
        <time>2020-05-20T00:12:40Z</time>
      </trkpt>
      <trkpt lat="43.234010" lon="-4.890850">
        <ele>435.653</ele>
        <time>2020-05-20T00:13:00Z</time>
      </trkpt>
      <trkpt lat="43.234010" lon="-4.890840">
        <ele>435.153</ele>
        <time>2020-05-20T00:13:20Z</time>
      </trkpt>
      <trkpt lat="43.234010" lon="-4.890830">
        <ele>434.652</ele>
        <time>2020-05-20T00:13:40Z</time>
      </trkpt>
      <trkpt lat="43.234020" lon="-4.890820">
        <ele>434.921</ele>
        <time>2020-05-20T00:14:00Z</time>
      </trkpt>
      <trkpt lat="43.234020" lon="-4.890810">
        <ele>434.641</ele>
        <time>2020-05-20T00:14:20Z</time>
      </trkpt>
      <trkpt lat="43.234020" lon="-4.890790">
        <ele>433.805</ele>
        <time>2020-05-20T00:14:40Z</time>
      </trkpt>
      <trkpt lat="43.234030" lon="-4.890780">
        <ele>434.108</ele>
        <time>2020-05-20T00:15:00Z</time>
      </trkpt>
      <trkpt lat="43.234040" lon="-4.890770">
        <ele>434.526</ele>
        <time>2020-05-20T00:15:20Z</time>
      </trkpt>
      <trkpt lat="43.234050" lon="-4.890770">
        <ele>435.211</ele>
        <time>2020-05-20T00:15:40Z</time>
      </trkpt>
      <trkpt lat="43.234060" lon="-4.890760">
        <ele>435.637</ele>
        <time>2020-05-20T00:16:00Z</time>
      </trkpt>
      <trkpt lat="43.234070" lon="-4.890760">
        <ele>436.310</ele>
        <time>2020-05-20T00:16:20Z</time>
      </trkpt>
      <trkpt lat="43.234080" lon="-4.890760">
        <ele>437.070</ele>
        <time>2020-05-20T00:16:40Z</time>
      </trkpt>
      <trkpt lat="43.234090" lon="-4.890760">
        <ele>437.810</ele>
        <time>2020-05-20T00:17:00Z</time>
      </trkpt>
      <trkpt lat="43.234100" lon="-4.890760">
        <ele>438.550</ele>
        <time>2020-05-20T00:17:20Z</time>
      </trkpt>
      <trkpt lat="43.234110" lon="-4.890760">
        <ele>439.259</ele>
        <time>2020-05-20T00:17:40Z</time>
      </trkpt>
      <trkpt lat="43.234120" lon="-4.890750">
        <ele>439.684</ele>
        <time>2020-05-20T00:18:00Z</time>
      </trkpt>
      <trkpt lat="43.234130" lon="-4.890750">
        <ele>440.307</ele>
        <time>2020-05-20T00:18:20Z</time>
      </trkpt>
      <trkpt lat="43.234140" lon="-4.890740">
        <ele>440.717</ele>
        <time>2020-05-20T00:18:40Z</time>
      </trkpt>
      <trkpt lat="43.234150" lon="-4.890730">
        <ele>441.108</ele>
        <time>2020-05-20T00:19:00Z</time>
      </trkpt>
      <trkpt lat="43.234170" lon="-4.890720">
        <ele>442.042</ele>
        <time>2020-05-20T00:19:20Z</time>
      </trkpt>
      <trkpt lat="43.234200" lon="-4.890710">
        <ele>442.087</ele>
        <time>2020-05-20T00:19:40Z</time>
      </trkpt>
      <trkpt lat="43.234220" lon="-4.890690">
        <ele>441.573</ele>
        <time>2020-05-20T00:20:00Z</time>
      </trkpt>
      <trkpt lat="43.234240" lon="-4.890660">
        <ele>440.656</ele>
        <time>2020-05-20T00:20:20Z</time>
      </trkpt>
      <trkpt lat="43.234280" lon="-4.890630">
        <ele>439.846</ele>
        <time>2020-05-20T00:20:40Z</time>
      </trkpt>
      <trkpt lat="43.234310" lon="-4.890600">
        <ele>438.946</ele>
        <time>2020-05-20T00:21:00Z</time>
      </trkpt>
      <trkpt lat="43.234320" lon="-4.890590">
        <ele>438.516</ele>
        <time>2020-05-20T00:21:20Z</time>
      </trkpt>
      <trkpt lat="43.234340" lon="-4.890590">
        <ele>438.775</ele>
        <time>2020-05-20T00:21:40Z</time>
      </trkpt>
      <trkpt lat="43.234350" lon="-4.890580">
        <ele>438.418</ele>
        <time>2020-05-20T00:22:00Z</time>
      </trkpt>
      <trkpt lat="43.234360" lon="-4.890580">
        <ele>438.598</ele>
        <time>2020-05-20T00:22:20Z</time>
      </trkpt>
      <trkpt lat="43.234370" lon="-4.890570">
        <ele>438.117</ele>
        <time>2020-05-20T00:22:40Z</time>
      </trkpt>
      <trkpt lat="43.234380" lon="-4.890570">
        <ele>438.208</ele>
        <time>2020-05-20T00:23:00Z</time>
      </trkpt>
      <trkpt lat="43.234390" lon="-4.890570">
        <ele>438.365</ele>
        <time>2020-05-20T00:23:20Z</time>
      </trkpt>
      <trkpt lat="43.234400" lon="-4.890580">
        <ele>438.820</ele>
        <time>2020-05-20T00:23:40Z</time>
      </trkpt>
      <trkpt lat="43.234420" lon="-4.890580">
        <ele>438.936</ele>
        <time>2020-05-20T00:24:00Z</time>
      </trkpt>
      <trkpt lat="43.234430" lon="-4.890590">
        <ele>439.529</ele>
        <time>2020-05-20T00:24:20Z</time>
      </trkpt>
      <trkpt lat="43.234460" lon="-4.890600">
        <ele>439.459</ele>
        <time>2020-05-20T00:24:40Z</time>
      </trkpt>
      <trkpt lat="43.234480" lon="-4.890610">
        <ele>439.139</ele>
        <time>2020-05-20T00:25:00Z</time>
      </trkpt>
      <trkpt lat="43.234500" lon="-4.890630">
        <ele>439.339</ele>
        <time>2020-05-20T00:25:20Z</time>
      </trkpt>
      <trkpt lat="43.234550" lon="-4.890650">
        <ele>438.538</ele>
        <time>2020-05-20T00:25:40Z</time>
      </trkpt>
      <trkpt lat="43.234580" lon="-4.890670">
        <ele>438.642</ele>
        <time>2020-05-20T00:26:00Z</time>
      </trkpt>
      <trkpt lat="43.234610" lon="-4.890680">
        <ele>438.222</ele>
        <time>2020-05-20T00:26:20Z</time>
      </trkpt>
      <trkpt lat="43.234630" lon="-4.890690">
        <ele>438.214</ele>
        <time>2020-05-20T00:26:40Z</time>
      </trkpt>
      <trkpt lat="43.234650" lon="-4.890700">
        <ele>438.208</ele>
        <time>2020-05-20T00:27:00Z</time>
      </trkpt>
      <trkpt lat="43.234660" lon="-4.890710">
        <ele>438.668</ele>
        <time>2020-05-20T00:27:20Z</time>
      </trkpt>
      <trkpt lat="43.234690" lon="-4.890720">
        <ele>438.413</ele>
        <time>2020-05-20T00:27:40Z</time>
      </trkpt>
      <trkpt lat="43.234720" lon="-4.890720">
        <ele>437.559</ele>
        <time>2020-05-20T00:28:00Z</time>
      </trkpt>
      <trkpt lat="43.234740" lon="-4.890710">
        <ele>436.542</ele>
        <time>2020-05-20T00:28:20Z</time>
      </trkpt>
      <trkpt lat="43.234770" lon="-4.890710">
        <ele>436.232</ele>
        <time>2020-05-20T00:28:40Z</time>
      </trkpt>
      <trkpt lat="43.234810" lon="-4.890710">
        <ele>435.942</ele>
        <time>2020-05-20T00:29:00Z</time>
      </trkpt>
      <trkpt lat="43.234820" lon="-4.890720">
        <ele>436.562</ele>
        <time>2020-05-20T00:29:20Z</time>
      </trkpt>
      <trkpt lat="43.234840" lon="-4.890720">
        <ele>436.311</ele>
        <time>2020-05-20T00:29:40Z</time>
      </trkpt>
      <trkpt lat="43.234870" lon="-4.890730">
        <ele>436.899</ele>
        <time>2020-05-20T00:30:00Z</time>
      </trkpt>
      <trkpt lat="43.234890" lon="-4.890740">
        <ele>437.307</ele>
        <time>2020-05-20T00:30:20Z</time>
      </trkpt>
      <trkpt lat="43.234900" lon="-4.890760">
        <ele>438.727</ele>
        <time>2020-05-20T00:30:40Z</time>
      </trkpt>
      <trkpt lat="43.234920" lon="-4.890780">
        <ele>440.008</ele>
        <time>2020-05-20T00:31:00Z</time>
      </trkpt>
      <trkpt lat="43.234940" lon="-4.890800">
        <ele>441.283</ele>
        <time>2020-05-20T00:31:20Z</time>
      </trkpt>
      <trkpt lat="43.234970" lon="-4.890820">
        <ele>442.428</ele>
        <time>2020-05-20T00:31:40Z</time>
      </trkpt>
      <trkpt lat="43.234980" lon="-4.890830">
        <ele>443.094</ele>
        <time>2020-05-20T00:32:00Z</time>
      </trkpt>
      <trkpt lat="43.234990" lon="-4.890830">
        <ele>442.957</ele>
        <time>2020-05-20T00:32:20Z</time>
      </trkpt>
      <trkpt lat="43.235010" lon="-4.890850">
        <ele>444.797</ele>
        <time>2020-05-20T00:32:40Z</time>
      </trkpt>
      <trkpt lat="43.235030" lon="-4.890860">
        <ele>444.917</ele>
        <time>2020-05-20T00:33:00Z</time>
      </trkpt>
      <trkpt lat="43.235050" lon="-4.890880">
        <ele>446.557</ele>
        <time>2020-05-20T00:33:20Z</time>
      </trkpt>
      <trkpt lat="43.235080" lon="-4.890880">
        <ele>444.896</ele>
        <time>2020-05-20T00:33:40Z</time>
      </trkpt>
      <trkpt lat="43.235110" lon="-4.890880">
        <ele>443.076</ele>
        <time>2020-05-20T00:34:00Z</time>
      </trkpt>
      <trkpt lat="43.235140" lon="-4.890880">
        <ele>441.390</ele>
        <time>2020-05-20T00:34:20Z</time>
      </trkpt>
      <trkpt lat="43.235150" lon="-4.890890">
        <ele>442.119</ele>
        <time>2020-05-20T00:34:40Z</time>
      </trkpt>
      <trkpt lat="43.235170" lon="-4.890890">
        <ele>441.008</ele>
        <time>2020-05-20T00:35:00Z</time>
      </trkpt>
      <trkpt lat="43.235190" lon="-4.890900">
        <ele>441.251</ele>
        <time>2020-05-20T00:35:20Z</time>
      </trkpt>
      <trkpt lat="43.235220" lon="-4.890900">
        <ele>439.456</ele>
        <time>2020-05-20T00:35:40Z</time>
      </trkpt>
      <trkpt lat="43.235260" lon="-4.890910">
        <ele>438.532</ele>
        <time>2020-05-20T00:36:00Z</time>
      </trkpt>
      <trkpt lat="43.235280" lon="-4.890920">
        <ele>438.845</ele>
        <time>2020-05-20T00:36:20Z</time>
      </trkpt>
      <trkpt lat="43.235320" lon="-4.890930">
        <ele>438.645</ele>
        <time>2020-05-20T00:36:40Z</time>
      </trkpt>
      <trkpt lat="43.235330" lon="-4.890940">
        <ele>439.595</ele>
        <time>2020-05-20T00:37:00Z</time>
      </trkpt>
      <trkpt lat="43.235340" lon="-4.890950">
        <ele>440.395</ele>
        <time>2020-05-20T00:37:20Z</time>
      </trkpt>
      <trkpt lat="43.235360" lon="-4.890960">
        <ele>440.714</ele>
        <time>2020-05-20T00:37:40Z</time>
      </trkpt>
      <trkpt lat="43.235390" lon="-4.890970">
        <ele>440.533</ele>
        <time>2020-05-20T00:38:00Z</time>
      </trkpt>
      <trkpt lat="43.235430" lon="-4.890980">
        <ele>439.723</ele>
        <time>2020-05-20T00:38:20Z</time>
      </trkpt>
      <trkpt lat="43.235470" lon="-4.890990">
        <ele>438.815</ele>
        <time>2020-05-20T00:38:40Z</time>
      </trkpt>
      <trkpt lat="43.235500" lon="-4.890990">
        <ele>437.308</ele>
        <time>2020-05-20T00:39:00Z</time>
      </trkpt>
      <trkpt lat="43.235510" lon="-4.891000">
        <ele>437.897</ele>
        <time>2020-05-20T00:39:20Z</time>
      </trkpt>
      <trkpt lat="43.235550" lon="-4.891000">
        <ele>435.782</ele>
        <time>2020-05-20T00:39:40Z</time>
      </trkpt>
      <trkpt lat="43.235600" lon="-4.891020">
        <ele>435.018</ele>
        <time>2020-05-20T00:40:00Z</time>
      </trkpt>
      <trkpt lat="43.235630" lon="-4.891030">
        <ele>434.431</ele>
        <time>2020-05-20T00:40:20Z</time>
      </trkpt>
      <trkpt lat="43.235670" lon="-4.891070">
        <ele>435.231</ele>
        <time>2020-05-20T00:40:40Z</time>
      </trkpt>
      <trkpt lat="43.235720" lon="-4.891130">
        <ele>436.391</ele>
        <time>2020-05-20T00:41:00Z</time>
      </trkpt>
      <trkpt lat="43.235760" lon="-4.891190">
        <ele>437.881</ele>
        <time>2020-05-20T00:41:20Z</time>
      </trkpt>
      <trkpt lat="43.235790" lon="-4.891240">
        <ele>439.040</ele>
        <time>2020-05-20T00:41:40Z</time>
      </trkpt>
      <trkpt lat="43.235840" lon="-4.891320">
        <ele>440.271</ele>
        <time>2020-05-20T00:42:00Z</time>
      </trkpt>
      <trkpt lat="43.235880" lon="-4.891400">
        <ele>440.941</ele>
        <time>2020-05-20T00:42:20Z</time>
      </trkpt>
      <trkpt lat="43.235900" lon="-4.891450">
        <ele>441.015</ele>
        <time>2020-05-20T00:42:40Z</time>
      </trkpt>
      <trkpt lat="43.235920" lon="-4.891490">
        <ele>440.408</ele>
        <time>2020-05-20T00:43:00Z</time>
      </trkpt>
      <trkpt lat="43.235970" lon="-4.891610">
        <ele>438.961</ele>
        <time>2020-05-20T00:43:20Z</time>
      </trkpt>
      <trkpt lat="43.235990" lon="-4.891660">
        <ele>438.176</ele>
        <time>2020-05-20T00:43:40Z</time>
      </trkpt>
      <trkpt lat="43.236000" lon="-4.891700">
        <ele>437.862</ele>
        <time>2020-05-20T00:44:00Z</time>
      </trkpt>
      <trkpt lat="43.236040" lon="-4.891790">
        <ele>435.485</ele>
        <time>2020-05-20T00:44:20Z</time>
      </trkpt>
      <trkpt lat="43.236080" lon="-4.891870">
        <ele>433.175</ele>
        <time>2020-05-20T00:44:40Z</time>
      </trkpt>
      <trkpt lat="43.236090" lon="-4.891910">
        <ele>433.285</ele>
        <time>2020-05-20T00:45:00Z</time>
      </trkpt>
      <trkpt lat="43.236120" lon="-4.891970">
        <ele>435.035</ele>
        <time>2020-05-20T00:45:20Z</time>
      </trkpt>
      <trkpt lat="43.236140" lon="-4.892020">
        <ele>441.234</ele>
        <time>2020-05-20T00:45:40Z</time>
      </trkpt>
      <trkpt lat="43.236160" lon="-4.892080">
        <ele>447.077</ele>
        <time>2020-05-20T00:46:00Z</time>
      </trkpt>
      <trkpt lat="43.236170" lon="-4.892090">
        <ele>449.361</ele>
        <time>2020-05-20T00:46:20Z</time>
      </trkpt>
      <trkpt lat="43.236190" lon="-4.892130">
        <ele>454.027</ele>
        <time>2020-05-20T00:46:40Z</time>
      </trkpt>
      <trkpt lat="43.236220" lon="-4.892190">
        <ele>460.208</ele>
        <time>2020-05-20T00:47:00Z</time>
      </trkpt>
      <trkpt lat="43.236240" lon="-4.892250">
        <ele>464.291</ele>
        <time>2020-05-20T00:47:20Z</time>
      </trkpt>
      <trkpt lat="43.236260" lon="-4.892300">
        <ele>468.066</ele>
        <time>2020-05-20T00:47:40Z</time>
      </trkpt>
      <trkpt lat="43.236280" lon="-4.892340">
        <ele>471.372</ele>
        <time>2020-05-20T00:48:00Z</time>
      </trkpt>
      <trkpt lat="43.236300" lon="-4.892390">
        <ele>474.225</ele>
        <time>2020-05-20T00:48:20Z</time>
      </trkpt>
      <trkpt lat="43.236310" lon="-4.892440">
        <ele>475.385</ele>
        <time>2020-05-20T00:48:40Z</time>
      </trkpt>
      <trkpt lat="43.236330" lon="-4.892480">
        <ele>477.285</ele>
        <time>2020-05-20T00:49:00Z</time>
      </trkpt>
      <trkpt lat="43.236340" lon="-4.892520">
        <ele>478.825</ele>
        <time>2020-05-20T00:49:20Z</time>
      </trkpt>
      <trkpt lat="43.236340" lon="-4.892530">
        <ele>479.184</ele>
        <time>2020-05-20T00:49:40Z</time>
      </trkpt>
      <trkpt lat="43.236350" lon="-4.892560">
        <ele>481.114</ele>
        <time>2020-05-20T00:50:00Z</time>
      </trkpt>
      <trkpt lat="43.236360" lon="-4.892590">
        <ele>483.054</ele>
        <time>2020-05-20T00:50:20Z</time>
      </trkpt>
      <trkpt lat="43.236360" lon="-4.892620">
        <ele>483.909</ele>
        <time>2020-05-20T00:50:40Z</time>
      </trkpt>
      <trkpt lat="43.236380" lon="-4.892660">
        <ele>486.908</ele>
        <time>2020-05-20T00:51:00Z</time>
      </trkpt>
      <trkpt lat="43.236400" lon="-4.892690">
        <ele>492.165</ele>
        <time>2020-05-20T00:51:20Z</time>
      </trkpt>
      <trkpt lat="43.236430" lon="-4.892700">
        <ele>502.290</ele>
        <time>2020-05-20T00:51:40Z</time>
      </trkpt>
      <trkpt lat="43.236450" lon="-4.892720">
        <ele>509.016</ele>
        <time>2020-05-20T00:52:00Z</time>
      </trkpt>
      <trkpt lat="43.236480" lon="-4.892720">
        <ele>518.689</ele>
        <time>2020-05-20T00:52:20Z</time>
      </trkpt>
      <trkpt lat="43.236490" lon="-4.892730">
        <ele>521.919</ele>
        <time>2020-05-20T00:52:40Z</time>
      </trkpt>
      <trkpt lat="43.236520" lon="-4.892740">
        <ele>531.449</ele>
        <time>2020-05-20T00:53:00Z</time>
      </trkpt>
      <trkpt lat="43.236550" lon="-4.892740">
        <ele>540.959</ele>
        <time>2020-05-20T00:53:20Z</time>
      </trkpt>
      <trkpt lat="43.236590" lon="-4.892740">
        <ele>553.598</ele>
        <time>2020-05-20T00:53:40Z</time>
      </trkpt>
      <trkpt lat="43.236610" lon="-4.892750">
        <ele>559.526</ele>
        <time>2020-05-20T00:54:00Z</time>
      </trkpt>
      <trkpt lat="43.236640" lon="-4.892750">
        <ele>568.947</ele>
        <time>2020-05-20T00:54:20Z</time>
      </trkpt>
      <trkpt lat="43.236660" lon="-4.892740">
        <ele>575.711</ele>
        <time>2020-05-20T00:54:40Z</time>
      </trkpt>
      <trkpt lat="43.236680" lon="-4.892740">
        <ele>581.708</ele>
        <time>2020-05-20T00:55:00Z</time>
      </trkpt>
      <trkpt lat="43.236690" lon="-4.892740">
        <ele>584.666</ele>
        <time>2020-05-20T00:55:20Z</time>
      </trkpt>
      <trkpt lat="43.236700" lon="-4.892730">
        <ele>587.991</ele>
        <time>2020-05-20T00:55:40Z</time>
      </trkpt>
      <trkpt lat="43.236710" lon="-4.892720">
        <ele>591.247</ele>
        <time>2020-05-20T00:56:00Z</time>
      </trkpt>
      <trkpt lat="43.236720" lon="-4.892700">
        <ele>594.710</ele>
        <time>2020-05-20T00:56:20Z</time>
      </trkpt>
      <trkpt lat="43.236740" lon="-4.892660">
        <ele>601.350</ele>
        <time>2020-05-20T00:56:40Z</time>
      </trkpt>
      <trkpt lat="43.236750" lon="-4.892640">
        <ele>604.420</ele>
        <time>2020-05-20T00:57:00Z</time>
      </trkpt>
      <trkpt lat="43.236760" lon="-4.892630">
        <ele>607.240</ele>
        <time>2020-05-20T00:57:20Z</time>
      </trkpt>
      <trkpt lat="43.236760" lon="-4.892620">
        <ele>607.479</ele>
        <time>2020-05-20T00:57:40Z</time>
      </trkpt>
      <trkpt lat="43.236770" lon="-4.892610">
        <ele>610.171</ele>
        <time>2020-05-20T00:58:00Z</time>
      </trkpt>
      <trkpt lat="43.236780" lon="-4.892600">
        <ele>612.741</ele>
        <time>2020-05-20T00:58:20Z</time>
      </trkpt>
      <trkpt lat="43.236780" lon="-4.892580">
        <ele>613.015</ele>
        <time>2020-05-20T00:58:40Z</time>
      </trkpt>
      <trkpt lat="43.236780" lon="-4.892570">
        <ele>613.108</ele>
        <time>2020-05-20T00:59:00Z</time>
      </trkpt>
      <trkpt lat="43.236780" lon="-4.892560">
        <ele>613.251</ele>
        <time>2020-05-20T00:59:20Z</time>
      </trkpt>
      <trkpt lat="43.236780" lon="-4.892550">
        <ele>613.316</ele>
        <time>2020-05-20T00:59:40Z</time>
      </trkpt>
      <trkpt lat="43.236780" lon="-4.892530">
        <ele>613.522</ele>
        <time>2020-05-20T01:00:00Z</time>
      </trkpt>
      <trkpt lat="43.236770" lon="-4.892500">
        <ele>611.755</ele>
        <time>2020-05-20T01:00:20Z</time>
      </trkpt>
      <trkpt lat="43.236750" lon="-4.892400">
        <ele>606.915</ele>
        <time>2020-05-20T01:00:40Z</time>
      </trkpt>
      <trkpt lat="43.236740" lon="-4.892390">
        <ele>604.875</ele>
        <time>2020-05-20T01:01:00Z</time>
      </trkpt>
      <trkpt lat="43.236710" lon="-4.892290">
        <ele>599.165</ele>
        <time>2020-05-20T01:01:20Z</time>
      </trkpt>
      <trkpt lat="43.236660" lon="-4.892190">
        <ele>588.914</ele>
        <time>2020-05-20T01:01:40Z</time>
      </trkpt>
      <trkpt lat="43.236630" lon="-4.892120">
        <ele>577.312</ele>
        <time>2020-05-20T01:02:00Z</time>
      </trkpt>
      <trkpt lat="43.236580" lon="-4.891970">
        <ele>560.132</ele>
        <time>2020-05-20T01:02:20Z</time>
      </trkpt>
      <trkpt lat="43.236530" lon="-4.891840">
        <ele>541.305</ele>
        <time>2020-05-20T01:02:40Z</time>
      </trkpt>
      <trkpt lat="43.236500" lon="-4.891740">
        <ele>530.808</ele>
        <time>2020-05-20T01:03:00Z</time>
      </trkpt>
      <trkpt lat="43.236450" lon="-4.891580">
        <ele>511.135</ele>
        <time>2020-05-20T01:03:20Z</time>
      </trkpt>
      <trkpt lat="43.236440" lon="-4.891510">
        <ele>502.960</ele>
        <time>2020-05-20T01:03:40Z</time>
      </trkpt>
      <trkpt lat="43.236380" lon="-4.891200">
        <ele>455.596</ele>
        <time>2020-05-20T01:04:00Z</time>
      </trkpt>
      <trkpt lat="43.236360" lon="-4.891100">
        <ele>441.949</ele>
        <time>2020-05-20T01:04:20Z</time>
      </trkpt>
      <trkpt lat="43.236350" lon="-4.891040">
        <ele>436.789</ele>
        <time>2020-05-20T01:04:40Z</time>
      </trkpt>
      <trkpt lat="43.236340" lon="-4.891000">
        <ele>433.169</ele>
        <time>2020-05-20T01:05:00Z</time>
      </trkpt>
      <trkpt lat="43.236350" lon="-4.890960">
        <ele>431.389</ele>
        <time>2020-05-20T01:05:20Z</time>
      </trkpt>
      <trkpt lat="43.236350" lon="-4.890930">
        <ele>429.378</ele>
        <time>2020-05-20T01:05:40Z</time>
      </trkpt>
      <trkpt lat="43.236370" lon="-4.890900">
        <ele>428.714</ele>
        <time>2020-05-20T01:06:00Z</time>
      </trkpt>
      <trkpt lat="43.236390" lon="-4.890890">
        <ele>429.454</ele>
        <time>2020-05-20T01:06:20Z</time>
      </trkpt>
      <trkpt lat="43.236400" lon="-4.890870">
        <ele>428.409</ele>
        <time>2020-05-20T01:06:40Z</time>
      </trkpt>
      <trkpt lat="43.236420" lon="-4.890860">
        <ele>428.708</ele>
        <time>2020-05-20T01:07:00Z</time>
      </trkpt>
      <trkpt lat="43.236430" lon="-4.890860">
        <ele>429.395</ele>
        <time>2020-05-20T01:07:20Z</time>
      </trkpt>
      <trkpt lat="43.236440" lon="-4.890860">
        <ele>429.870</ele>
        <time>2020-05-20T01:07:40Z</time>
      </trkpt>
      <trkpt lat="43.236450" lon="-4.890850">
        <ele>429.346</ele>
        <time>2020-05-20T01:08:00Z</time>
      </trkpt>
      <trkpt lat="43.236470" lon="-4.890850">
        <ele>430.319</ele>
        <time>2020-05-20T01:08:20Z</time>
      </trkpt>
      <trkpt lat="43.236480" lon="-4.890860">
        <ele>432.029</ele>
        <time>2020-05-20T01:08:40Z</time>
      </trkpt>
      <trkpt lat="43.236500" lon="-4.890860">
        <ele>433.159</ele>
        <time>2020-05-20T01:09:00Z</time>
      </trkpt>
      <trkpt lat="43.236510" lon="-4.890870">
        <ele>434.999</ele>
        <time>2020-05-20T01:09:20Z</time>
      </trkpt>
      <trkpt lat="43.236520" lon="-4.890880">
        <ele>436.898</ele>
        <time>2020-05-20T01:09:40Z</time>
      </trkpt>
      <trkpt lat="43.236540" lon="-4.890890">
        <ele>439.598</ele>
        <time>2020-05-20T01:10:00Z</time>
      </trkpt>
      <trkpt lat="43.236570" lon="-4.890880">
        <ele>440.015</ele>
        <time>2020-05-20T01:10:20Z</time>
      </trkpt>
      <trkpt lat="43.236590" lon="-4.890880">
        <ele>441.226</ele>
        <time>2020-05-20T01:10:40Z</time>
      </trkpt>
      <trkpt lat="43.236610" lon="-4.890870">
        <ele>440.808</ele>
        <time>2020-05-20T01:11:00Z</time>
      </trkpt>
      <trkpt lat="43.236630" lon="-4.890860">
        <ele>440.273</ele>
        <time>2020-05-20T01:11:20Z</time>
      </trkpt>
      <trkpt lat="43.236650" lon="-4.890840">
        <ele>437.568</ele>
        <time>2020-05-20T01:11:40Z</time>
      </trkpt>
      <trkpt lat="43.236680" lon="-4.890820">
        <ele>436.944</ele>
        <time>2020-05-20T01:12:00Z</time>
      </trkpt>
      <trkpt lat="43.236690" lon="-4.890810">
        <ele>436.917</ele>
        <time>2020-05-20T01:12:20Z</time>
      </trkpt>
      <trkpt lat="43.236710" lon="-4.890790">
        <ele>436.787</ele>
        <time>2020-05-20T01:12:40Z</time>
      </trkpt>
      <trkpt lat="43.236730" lon="-4.890780">
        <ele>437.117</ele>
        <time>2020-05-20T01:13:00Z</time>
      </trkpt>
      <trkpt lat="43.236760" lon="-4.890770">
        <ele>438.057</ele>
        <time>2020-05-20T01:13:20Z</time>
      </trkpt>
      <trkpt lat="43.236770" lon="-4.890770">
        <ele>438.646</ele>
        <time>2020-05-20T01:13:40Z</time>
      </trkpt>
      <trkpt lat="43.236800" lon="-4.890760">
        <ele>439.448</ele>
        <time>2020-05-20T01:14:00Z</time>
      </trkpt>
      <trkpt lat="43.236830" lon="-4.890740">
        <ele>439.561</ele>
        <time>2020-05-20T01:14:20Z</time>
      </trkpt>
      <trkpt lat="43.236850" lon="-4.890710">
        <ele>438.317</ele>
        <time>2020-05-20T01:14:40Z</time>
      </trkpt>
      <trkpt lat="43.236890" lon="-4.890660">
        <ele>436.208</ele>
        <time>2020-05-20T01:15:00Z</time>
      </trkpt>
      <trkpt lat="43.236920" lon="-4.890640">
        <ele>436.038</ele>
        <time>2020-05-20T01:15:20Z</time>
      </trkpt>
      <trkpt lat="43.236930" lon="-4.890630">
        <ele>435.633</ele>
        <time>2020-05-20T01:15:40Z</time>
      </trkpt>
      <trkpt lat="43.236970" lon="-4.890600">
        <ele>434.599</ele>
        <time>2020-05-20T01:16:00Z</time>
      </trkpt>
      <trkpt lat="43.237000" lon="-4.890580">
        <ele>433.642</ele>
        <time>2020-05-20T01:16:20Z</time>
      </trkpt>
      <trkpt lat="43.237040" lon="-4.890550">
        <ele>432.152</ele>
        <time>2020-05-20T01:16:40Z</time>
      </trkpt>
      <trkpt lat="43.237070" lon="-4.890540">
        <ele>432.992</ele>
        <time>2020-05-20T01:17:00Z</time>
      </trkpt>
      <trkpt lat="43.237080" lon="-4.890540">
        <ele>433.142</ele>
        <time>2020-05-20T01:17:20Z</time>
      </trkpt>
      <trkpt lat="43.237090" lon="-4.890530">
        <ele>433.431</ele>
        <time>2020-05-20T01:17:40Z</time>
      </trkpt>
      <trkpt lat="43.237140" lon="-4.890530">
        <ele>434.548</ele>
        <time>2020-05-20T01:18:00Z</time>
      </trkpt>
      <trkpt lat="43.237190" lon="-4.890530">
        <ele>435.561</ele>
        <time>2020-05-20T01:18:20Z</time>
      </trkpt>
      <trkpt lat="43.237220" lon="-4.890530">
        <ele>436.117</ele>
        <time>2020-05-20T01:18:40Z</time>
      </trkpt>
      <trkpt lat="43.237250" lon="-4.890530">
        <ele>435.808</ele>
        <time>2020-05-20T01:19:00Z</time>
      </trkpt>
      <trkpt lat="43.237260" lon="-4.890530">
        <ele>435.798</ele>
        <time>2020-05-20T01:19:20Z</time>
      </trkpt>
      <trkpt lat="43.237280" lon="-4.890540">
        <ele>435.333</ele>
        <time>2020-05-20T01:19:40Z</time>
      </trkpt>
      <trkpt lat="43.237320" lon="-4.890550">
        <ele>434.639</ele>
        <time>2020-05-20T01:20:00Z</time>
      </trkpt>
      <trkpt lat="43.237360" lon="-4.890540">
        <ele>434.212</ele>
        <time>2020-05-20T01:20:20Z</time>
      </trkpt>
      <trkpt lat="43.237390" lon="-4.890550">
        <ele>433.652</ele>
        <time>2020-05-20T01:20:40Z</time>
      </trkpt>
      <trkpt lat="43.237420" lon="-4.890550">
        <ele>433.262</ele>
        <time>2020-05-20T01:21:00Z</time>
      </trkpt>
      <trkpt lat="43.237440" lon="-4.890560">
        <ele>433.862</ele>
        <time>2020-05-20T01:21:20Z</time>
      </trkpt>
      <trkpt lat="43.237480" lon="-4.890570">
        <ele>435.521</ele>
        <time>2020-05-20T01:21:40Z</time>
      </trkpt>
      <trkpt lat="43.237530" lon="-4.890580">
        <ele>437.521</ele>
        <time>2020-05-20T01:22:00Z</time>
      </trkpt>
      <trkpt lat="43.237560" lon="-4.890600">
        <ele>441.941</ele>
        <time>2020-05-20T01:22:20Z</time>
      </trkpt>
      <trkpt lat="43.237610" lon="-4.890620">
        <ele>446.405</ele>
        <time>2020-05-20T01:22:40Z</time>
      </trkpt>
      <trkpt lat="43.237640" lon="-4.890650">
        <ele>453.408</ele>
        <time>2020-05-20T01:23:00Z</time>
      </trkpt>
      <trkpt lat="43.237670" lon="-4.890660">
        <ele>455.846</ele>
        <time>2020-05-20T01:23:20Z</time>
      </trkpt>
      <trkpt lat="43.237700" lon="-4.890690">
        <ele>462.931</ele>
        <time>2020-05-20T01:23:40Z</time>
      </trkpt>
      <trkpt lat="43.237720" lon="-4.890700">
        <ele>465.317</ele>
        <time>2020-05-20T01:24:00Z</time>
      </trkpt>
      <trkpt lat="43.237760" lon="-4.890720">
        <ele>470.280</ele>
        <time>2020-05-20T01:24:20Z</time>
      </trkpt>
      <trkpt lat="43.237810" lon="-4.890740">
        <ele>472.970</ele>
        <time>2020-05-20T01:24:40Z</time>
      </trkpt>
      <trkpt lat="43.237840" lon="-4.890750">
        <ele>473.290</ele>
        <time>2020-05-20T01:25:00Z</time>
      </trkpt>
      <trkpt lat="43.237870" lon="-4.890760">
        <ele>473.430</ele>
        <time>2020-05-20T01:25:20Z</time>
      </trkpt>
      <trkpt lat="43.237910" lon="-4.890780">
        <ele>475.059</ele>
        <time>2020-05-20T01:25:40Z</time>
      </trkpt>
      <trkpt lat="43.237950" lon="-4.890790">
        <ele>474.233</ele>
        <time>2020-05-20T01:26:00Z</time>
      </trkpt>
      <trkpt lat="43.237980" lon="-4.890790">
        <ele>471.923</ele>
        <time>2020-05-20T01:26:20Z</time>
      </trkpt>
      <trkpt lat="43.238010" lon="-4.890800">
        <ele>471.715</ele>
        <time>2020-05-20T01:26:40Z</time>
      </trkpt>
      <trkpt lat="43.238040" lon="-4.890810">
        <ele>471.408</ele>
        <time>2020-05-20T01:27:00Z</time>
      </trkpt>
      <trkpt lat="43.238080" lon="-4.890820">
        <ele>468.967</ele>
        <time>2020-05-20T01:27:20Z</time>
      </trkpt>
      <trkpt lat="43.238120" lon="-4.890820">
        <ele>463.332</ele>
        <time>2020-05-20T01:27:40Z</time>
      </trkpt>
      <trkpt lat="43.238150" lon="-4.890840">
        <ele>463.428</ele>
        <time>2020-05-20T01:28:00Z</time>
      </trkpt>
      <trkpt lat="43.238190" lon="-4.890850">
        <ele>460.541</ele>
        <time>2020-05-20T01:28:20Z</time>
      </trkpt>
      <trkpt lat="43.238250" lon="-4.890860">
        <ele>454.441</ele>
        <time>2020-05-20T01:28:40Z</time>
      </trkpt>
      <trkpt lat="43.238300" lon="-4.890880">
        <ele>452.241</ele>
        <time>2020-05-20T01:29:00Z</time>
      </trkpt>
      <trkpt lat="43.238320" lon="-4.890890">
        <ele>451.891</ele>
        <time>2020-05-20T01:29:20Z</time>
      </trkpt>
      <trkpt lat="43.238360" lon="-4.890900">
        <ele>452.460</ele>
        <time>2020-05-20T01:29:40Z</time>
      </trkpt>
      <trkpt lat="43.238390" lon="-4.890920">
        <ele>457.796</ele>
        <time>2020-05-20T01:30:00Z</time>
      </trkpt>
      <trkpt lat="43.238420" lon="-4.890930">
        <ele>460.331</ele>
        <time>2020-05-20T01:30:20Z</time>
      </trkpt>
      <trkpt lat="43.238450" lon="-4.890960">
        <ele>467.924</ele>
        <time>2020-05-20T01:30:40Z</time>
      </trkpt>
      <trkpt lat="43.238470" lon="-4.890980">
        <ele>472.908</ele>
        <time>2020-05-20T01:31:00Z</time>
      </trkpt>
      <trkpt lat="43.238490" lon="-4.891000">
        <ele>477.933</ele>
        <time>2020-05-20T01:31:20Z</time>
      </trkpt>
      <trkpt lat="43.238530" lon="-4.891030">
        <ele>485.168</ele>
        <time>2020-05-20T01:31:40Z</time>
      </trkpt>
      <trkpt lat="43.238560" lon="-4.891070">
        <ele>494.624</ele>
        <time>2020-05-20T01:32:00Z</time>
      </trkpt>
      <trkpt lat="43.238600" lon="-4.891100">
        <ele>501.527</ele>
        <time>2020-05-20T01:32:20Z</time>
      </trkpt>
      <trkpt lat="43.238630" lon="-4.891130">
        <ele>509.847</ele>
        <time>2020-05-20T01:32:40Z</time>
      </trkpt>
      <trkpt lat="43.238660" lon="-4.891150">
        <ele>515.887</ele>
        <time>2020-05-20T01:33:00Z</time>
      </trkpt>
      <trkpt lat="43.238700" lon="-4.891180">
        <ele>525.677</ele>
        <time>2020-05-20T01:33:20Z</time>
      </trkpt>
      <trkpt lat="43.238760" lon="-4.891200">
        <ele>531.526</ele>
        <time>2020-05-20T01:33:40Z</time>
      </trkpt>
      <trkpt lat="43.238780" lon="-4.891210">
        <ele>535.019</ele>
        <time>2020-05-20T01:34:00Z</time>
      </trkpt>
      <trkpt lat="43.238810" lon="-4.891220">
        <ele>538.409</ele>
        <time>2020-05-20T01:34:20Z</time>
      </trkpt>
      <trkpt lat="43.238860" lon="-4.891250">
        <ele>550.519</ele>
        <time>2020-05-20T01:34:40Z</time>
      </trkpt>
      <trkpt lat="43.238920" lon="-4.891290">
        <ele>566.108</ele>
        <time>2020-05-20T01:35:00Z</time>
      </trkpt>
      <trkpt lat="43.238940" lon="-4.891310">
        <ele>574.125</ele>
        <time>2020-05-20T01:35:20Z</time>
      </trkpt>
      <trkpt lat="43.238960" lon="-4.891330">
        <ele>582.380</ele>
        <time>2020-05-20T01:35:40Z</time>
      </trkpt>
      <trkpt lat="43.239000" lon="-4.891390">
        <ele>609.086</ele>
        <time>2020-05-20T01:36:00Z</time>
      </trkpt>
      <trkpt lat="43.239040" lon="-4.891440">
        <ele>616.049</ele>
        <time>2020-05-20T01:36:20Z</time>
      </trkpt>
      <trkpt lat="43.239080" lon="-4.891480">
        <ele>621.459</ele>
        <time>2020-05-20T01:36:40Z</time>
      </trkpt>
      <trkpt lat="43.239100" lon="-4.891500">
        <ele>624.159</ele>
        <time>2020-05-20T01:37:00Z</time>
      </trkpt>
      <trkpt lat="43.239150" lon="-4.891550">
        <ele>631.229</ele>
        <time>2020-05-20T01:37:20Z</time>
      </trkpt>
      <trkpt lat="43.239210" lon="-4.891600">
        <ele>637.868</ele>
        <time>2020-05-20T01:37:40Z</time>
      </trkpt>
      <trkpt lat="43.239220" lon="-4.891610">
        <ele>639.131</ele>
        <time>2020-05-20T01:38:00Z</time>
      </trkpt>
      <trkpt lat="43.239260" lon="-4.891650">
        <ele>644.661</ele>
        <time>2020-05-20T01:38:20Z</time>
      </trkpt>
      <trkpt lat="43.239320" lon="-4.891700">
        <ele>647.707</ele>
        <time>2020-05-20T01:38:40Z</time>
      </trkpt>
      <trkpt lat="43.239370" lon="-4.891730">
        <ele>648.408</ele>
        <time>2020-05-20T01:39:00Z</time>
      </trkpt>
      <trkpt lat="43.239380" lon="-4.891730">
        <ele>648.047</ele>
        <time>2020-05-20T01:39:20Z</time>
      </trkpt>
      <trkpt lat="43.239410" lon="-4.891740">
        <ele>647.982</ele>
        <time>2020-05-20T01:39:40Z</time>
      </trkpt>
      <trkpt lat="43.239460" lon="-4.891710">
        <ele>641.238</ele>
        <time>2020-05-20T01:40:00Z</time>
      </trkpt>
      <trkpt lat="43.239540" lon="-4.891680">
        <ele>626.021</ele>
        <time>2020-05-20T01:40:20Z</time>
      </trkpt>
      <trkpt lat="43.239550" lon="-4.891670">
        <ele>623.471</ele>
        <time>2020-05-20T01:40:40Z</time>
      </trkpt>
      <trkpt lat="43.239600" lon="-4.891660">
        <ele>614.651</ele>
        <time>2020-05-20T01:41:00Z</time>
      </trkpt>
      <trkpt lat="43.239660" lon="-4.891630">
        <ele>602.371</ele>
        <time>2020-05-20T01:41:20Z</time>
      </trkpt>
      <trkpt lat="43.239720" lon="-4.891590">
        <ele>590.190</ele>
        <time>2020-05-20T01:41:40Z</time>
      </trkpt>
      <trkpt lat="43.239760" lon="-4.891560">
        <ele>582.675</ele>
        <time>2020-05-20T01:42:00Z</time>
      </trkpt>
      <trkpt lat="43.239820" lon="-4.891520">
        <ele>571.428</ele>
        <time>2020-05-20T01:42:20Z</time>
      </trkpt>
      <trkpt lat="43.239880" lon="-4.891470">
        <ele>558.320</ele>
        <time>2020-05-20T01:42:40Z</time>
      </trkpt>
      <trkpt lat="43.239890" lon="-4.891470">
        <ele>557.008</ele>
        <time>2020-05-20T01:43:00Z</time>
      </trkpt>
      <trkpt lat="43.239940" lon="-4.891430">
        <ele>545.571</ele>
        <time>2020-05-20T01:43:20Z</time>
      </trkpt>
      <trkpt lat="43.239980" lon="-4.891400">
        <ele>536.326</ele>
        <time>2020-05-20T01:43:40Z</time>
      </trkpt>
      <trkpt lat="43.240020" lon="-4.891350">
        <ele>526.192</ele>
        <time>2020-05-20T01:44:00Z</time>
      </trkpt>
      <trkpt lat="43.240040" lon="-4.891310">
        <ele>520.185</ele>
        <time>2020-05-20T01:44:20Z</time>
      </trkpt>
      <trkpt lat="43.240060" lon="-4.891240">
        <ele>510.615</ele>
        <time>2020-05-20T01:44:40Z</time>
      </trkpt>
      <trkpt lat="43.240120" lon="-4.891120">
        <ele>493.035</ele>
        <time>2020-05-20T01:45:00Z</time>
      </trkpt>
      <trkpt lat="43.240140" lon="-4.891050">
        <ele>482.235</ele>
        <time>2020-05-20T01:45:20Z</time>
      </trkpt>
      <trkpt lat="43.240180" lon="-4.890980">
        <ele>471.624</ele>
        <time>2020-05-20T01:45:40Z</time>
      </trkpt>
      <trkpt lat="43.240220" lon="-4.890920">
        <ele>463.892</ele>
        <time>2020-05-20T01:46:00Z</time>
      </trkpt>
      <trkpt lat="43.240250" lon="-4.890870">
        <ele>458.373</ele>
        <time>2020-05-20T01:46:20Z</time>
      </trkpt>
      <trkpt lat="43.240340" lon="-4.890780">
        <ele>451.920</ele>
        <time>2020-05-20T01:46:40Z</time>
      </trkpt>
      <trkpt lat="43.240360" lon="-4.890760">
        <ele>450.908</ele>
        <time>2020-05-20T01:47:00Z</time>
      </trkpt>
      <trkpt lat="43.240410" lon="-4.890710">
        <ele>448.843</ele>
        <time>2020-05-20T01:47:20Z</time>
      </trkpt>
      <trkpt lat="43.240430" lon="-4.890690">
        <ele>448.278</ele>
        <time>2020-05-20T01:47:40Z</time>
      </trkpt>
      <trkpt lat="43.240450" lon="-4.890680">
        <ele>448.264</ele>
        <time>2020-05-20T01:48:00Z</time>
      </trkpt>
      <trkpt lat="43.240470" lon="-4.890670">
        <ele>448.377</ele>
        <time>2020-05-20T01:48:20Z</time>
      </trkpt>
      <trkpt lat="43.240480" lon="-4.890670">
        <ele>448.787</ele>
        <time>2020-05-20T01:48:40Z</time>
      </trkpt>
      <trkpt lat="43.240490" lon="-4.890670">
        <ele>449.037</ele>
        <time>2020-05-20T01:49:00Z</time>
      </trkpt>
      <trkpt lat="43.240510" lon="-4.890660">
        <ele>449.237</ele>
        <time>2020-05-20T01:49:20Z</time>
      </trkpt>
      <trkpt lat="43.240520" lon="-4.890660">
        <ele>449.616</ele>
        <time>2020-05-20T01:49:40Z</time>
      </trkpt>
      <trkpt lat="43.240530" lon="-4.890660">
        <ele>449.978</ele>
        <time>2020-05-20T01:50:00Z</time>
      </trkpt>
      <trkpt lat="43.240550" lon="-4.890660">
        <ele>450.733</ele>
        <time>2020-05-20T01:50:20Z</time>
      </trkpt>
      <trkpt lat="43.240560" lon="-4.890660">
        <ele>451.226</ele>
        <time>2020-05-20T01:50:40Z</time>
      </trkpt>
      <trkpt lat="43.240570" lon="-4.890660">
        <ele>452.108</ele>
        <time>2020-05-20T01:51:00Z</time>
      </trkpt>
      <trkpt lat="43.240600" lon="-4.890660">
        <ele>454.531</ele>
        <time>2020-05-20T01:51:20Z</time>
      </trkpt>
      <trkpt lat="43.240620" lon="-4.890650">
        <ele>455.636</ele>
        <time>2020-05-20T01:51:40Z</time>
      </trkpt>
      <trkpt lat="43.240640" lon="-4.890650">
        <ele>457.252</ele>
        <time>2020-05-20T01:52:00Z</time>
      </trkpt>
      <trkpt lat="43.240660" lon="-4.890650">
        <ele>458.845</ele>
        <time>2020-05-20T01:52:20Z</time>
      </trkpt>
      <trkpt lat="43.240670" lon="-4.890640">
        <ele>459.185</ele>
        <time>2020-05-20T01:52:40Z</time>
      </trkpt>
      <trkpt lat="43.240680" lon="-4.890640">
        <ele>459.915</ele>
        <time>2020-05-20T01:53:00Z</time>
      </trkpt>
      <trkpt lat="43.240690" lon="-4.890630">
        <ele>460.125</ele>
        <time>2020-05-20T01:53:20Z</time>
      </trkpt>
      <trkpt lat="43.240700" lon="-4.890620">
        <ele>460.344</ele>
        <time>2020-05-20T01:53:40Z</time>
      </trkpt>
      <trkpt lat="43.240710" lon="-4.890600">
        <ele>459.827</ele>
        <time>2020-05-20T01:54:00Z</time>
      </trkpt>
      <trkpt lat="43.240720" lon="-4.890580">
        <ele>459.368</ele>
        <time>2020-05-20T01:54:20Z</time>
      </trkpt>
      <trkpt lat="43.240730" lon="-4.890560">
        <ele>458.814</ele>
        <time>2020-05-20T01:54:40Z</time>
      </trkpt>
      <trkpt lat="43.240750" lon="-4.890520">
        <ele>457.108</ele>
        <time>2020-05-20T01:55:00Z</time>
      </trkpt>
      <trkpt lat="43.240760" lon="-4.890490">
        <ele>455.426</ele>
        <time>2020-05-20T01:55:20Z</time>
      </trkpt>
      <trkpt lat="43.240780" lon="-4.890470">
        <ele>455.231</ele>
        <time>2020-05-20T01:55:40Z</time>
      </trkpt>
      <trkpt lat="43.240820" lon="-4.890420">
        <ele>453.987</ele>
        <time>2020-05-20T01:56:00Z</time>
      </trkpt>
      <trkpt lat="43.240870" lon="-4.890360">
        <ele>450.570</ele>
        <time>2020-05-20T01:56:20Z</time>
      </trkpt>
      <trkpt lat="43.240910" lon="-4.890310">
        <ele>447.040</ele>
        <time>2020-05-20T01:56:40Z</time>
      </trkpt>
      <trkpt lat="43.240940" lon="-4.890270">
        <ele>444.210</ele>
        <time>2020-05-20T01:57:00Z</time>
      </trkpt>
      <trkpt lat="43.240980" lon="-4.890230">
        <ele>441.580</ele>
        <time>2020-05-20T01:57:20Z</time>
      </trkpt>
      <trkpt lat="43.241030" lon="-4.890190">
        <ele>439.389</ele>
        <time>2020-05-20T01:57:40Z</time>
      </trkpt>
      <trkpt lat="43.241090" lon="-4.890150">
        <ele>437.711</ele>
        <time>2020-05-20T01:58:00Z</time>
      </trkpt>
      <trkpt lat="43.241100" lon="-4.890150">
        <ele>438.021</ele>
        <time>2020-05-20T01:58:20Z</time>
      </trkpt>
      <trkpt lat="43.241150" lon="-4.890120">
        <ele>436.703</ele>
        <time>2020-05-20T01:58:40Z</time>
      </trkpt>
      <trkpt lat="43.241230" lon="-4.890070">
        <ele>434.508</ele>
        <time>2020-05-20T01:59:00Z</time>
      </trkpt>
      <trkpt lat="43.241300" lon="-4.890030">
        <ele>433.155</ele>
        <time>2020-05-20T01:59:20Z</time>
      </trkpt>
      <trkpt lat="43.241350" lon="-4.890010">
        <ele>432.880</ele>
        <time>2020-05-20T01:59:40Z</time>
      </trkpt>
      <trkpt lat="43.241420" lon="-4.889980">
        <ele>432.456</ele>
        <time>2020-05-20T02:00:00Z</time>
      </trkpt>
      <trkpt lat="43.241430" lon="-4.889980">
        <ele>432.689</ele>
        <time>2020-05-20T02:00:20Z</time>
      </trkpt>
      <trkpt lat="43.241550" lon="-4.889940">
        <ele>432.369</ele>
        <time>2020-05-20T02:00:40Z</time>
      </trkpt>
      <trkpt lat="43.241600" lon="-4.889930">
        <ele>432.559</ele>
        <time>2020-05-20T02:01:00Z</time>
      </trkpt>
      <trkpt lat="43.241650" lon="-4.889920">
        <ele>432.759</ele>
        <time>2020-05-20T02:01:20Z</time>
      </trkpt>
      <trkpt lat="43.241710" lon="-4.889900">
        <ele>431.028</ele>
        <time>2020-05-20T02:01:40Z</time>
      </trkpt>
      <trkpt lat="43.241740" lon="-4.889890">
        <ele>429.872</ele>
        <time>2020-05-20T02:02:00Z</time>
      </trkpt>
      <trkpt lat="43.241760" lon="-4.889890">
        <ele>429.613</ele>
        <time>2020-05-20T02:02:20Z</time>
      </trkpt>
      <trkpt lat="43.241770" lon="-4.889890">
        <ele>429.514</ele>
        <time>2020-05-20T02:02:40Z</time>
      </trkpt>
      <trkpt lat="43.241780" lon="-4.889890">
        <ele>429.408</ele>
        <time>2020-05-20T02:03:00Z</time>
      </trkpt>
      <trkpt lat="43.241790" lon="-4.889890">
        <ele>429.391</ele>
        <time>2020-05-20T02:03:20Z</time>
      </trkpt>
      <trkpt lat="43.241800" lon="-4.889890">
        <ele>429.256</ele>
        <time>2020-05-20T02:03:40Z</time>
      </trkpt>
      <trkpt lat="43.241810" lon="-4.889900">
        <ele>429.972</ele>
        <time>2020-05-20T02:04:00Z</time>
      </trkpt>
      <trkpt lat="43.241830" lon="-4.889910">
        <ele>430.465</ele>
        <time>2020-05-20T02:04:20Z</time>
      </trkpt>
      <trkpt lat="43.241850" lon="-4.889920">
        <ele>431.175</ele>
        <time>2020-05-20T02:04:40Z</time>
      </trkpt>
      <trkpt lat="43.241870" lon="-4.889930">
        <ele>431.765</ele>
        <time>2020-05-20T02:05:00Z</time>
      </trkpt>
      <trkpt lat="43.241910" lon="-4.889940">
        <ele>432.145</ele>
        <time>2020-05-20T02:05:20Z</time>
      </trkpt>
      <trkpt lat="43.241940" lon="-4.889960">
        <ele>433.614</ele>
        <time>2020-05-20T02:05:40Z</time>
      </trkpt>
      <trkpt lat="43.241950" lon="-4.889960">
        <ele>433.461</ele>
        <time>2020-05-20T02:06:00Z</time>
      </trkpt>
      <trkpt lat="43.241970" lon="-4.889960">
        <ele>432.821</ele>
        <time>2020-05-20T02:06:20Z</time>
      </trkpt>
      <trkpt lat="43.242010" lon="-4.889970">
        <ele>432.513</ele>
        <time>2020-05-20T02:06:40Z</time>
      </trkpt>
      <trkpt lat="43.242040" lon="-4.889980">
        <ele>432.408</ele>
        <time>2020-05-20T02:07:00Z</time>
      </trkpt>
      <trkpt lat="43.242060" lon="-4.889980">
        <ele>431.860</ele>
        <time>2020-05-20T02:07:20Z</time>
      </trkpt>
      <trkpt lat="43.242070" lon="-4.889980">
        <ele>431.585</ele>
        <time>2020-05-20T02:07:40Z</time>
      </trkpt>
      <trkpt lat="43.242090" lon="-4.889990">
        <ele>431.641</ele>
        <time>2020-05-20T02:08:00Z</time>
      </trkpt>
      <trkpt lat="43.242100" lon="-4.889990">
        <ele>431.394</ele>
        <time>2020-05-20T02:08:20Z</time>
      </trkpt>
      <trkpt lat="43.242110" lon="-4.889990">
        <ele>431.024</ele>
        <time>2020-05-20T02:08:40Z</time>
      </trkpt>
      <trkpt lat="43.242120" lon="-4.890000">
        <ele>431.344</ele>
        <time>2020-05-20T02:09:00Z</time>
      </trkpt>
      <trkpt lat="43.242130" lon="-4.890000">
        <ele>431.074</ele>
        <time>2020-05-20T02:09:20Z</time>
      </trkpt>
      <trkpt lat="43.242140" lon="-4.890000">
        <ele>430.733</ele>
        <time>2020-05-20T02:09:40Z</time>
      </trkpt>
      <trkpt lat="43.242150" lon="-4.890010">
        <ele>430.823</ele>
        <time>2020-05-20T02:10:00Z</time>
      </trkpt>
      <trkpt lat="43.242210" lon="-4.890060">
        <ele>431.183</ele>
        <time>2020-05-20T02:10:20Z</time>
      </trkpt>
      <trkpt lat="43.242260" lon="-4.890100">
        <ele>433.211</ele>
        <time>2020-05-20T02:10:40Z</time>
      </trkpt>
      <trkpt lat="43.242290" lon="-4.890120">
        <ele>434.508</ele>
        <time>2020-05-20T02:11:00Z</time>
      </trkpt>
      <trkpt lat="43.242300" lon="-4.890130">
        <ele>435.126</ele>
        <time>2020-05-20T02:11:20Z</time>
      </trkpt>
      <trkpt lat="43.242320" lon="-4.890140">
        <ele>435.821</ele>
        <time>2020-05-20T02:11:40Z</time>
      </trkpt>
      <trkpt lat="43.242330" lon="-4.890150">
        <ele>436.317</ele>
        <time>2020-05-20T02:12:00Z</time>
      </trkpt>
      <trkpt lat="43.242350" lon="-4.890160">
        <ele>436.930</ele>
        <time>2020-05-20T02:12:20Z</time>
      </trkpt>
      <trkpt lat="43.242360" lon="-4.890160">
        <ele>437.130</ele>
        <time>2020-05-20T02:12:40Z</time>
      </trkpt>
      <trkpt lat="43.242370" lon="-4.890160">
        <ele>437.240</ele>
        <time>2020-05-20T02:13:00Z</time>
      </trkpt>
      <trkpt lat="43.242380" lon="-4.890160">
        <ele>437.490</ele>
        <time>2020-05-20T02:13:20Z</time>
      </trkpt>
      <trkpt lat="43.242390" lon="-4.890160">
        <ele>437.669</ele>
        <time>2020-05-20T02:13:40Z</time>
      </trkpt>
      <trkpt lat="43.242400" lon="-4.890150">
        <ele>437.514</ele>
        <time>2020-05-20T02:14:00Z</time>
      </trkpt>
      <trkpt lat="43.242410" lon="-4.890150">
        <ele>437.654</ele>
        <time>2020-05-20T02:14:20Z</time>
      </trkpt>
      <trkpt lat="43.242410" lon="-4.890140">
        <ele>437.409</ele>
        <time>2020-05-20T02:14:40Z</time>
      </trkpt>
      <trkpt lat="43.242430" lon="-4.890110">
        <ele>437.108</ele>
        <time>2020-05-20T02:15:00Z</time>
      </trkpt>
      <trkpt lat="43.242440" lon="-4.890080">
        <ele>436.795</ele>
        <time>2020-05-20T02:15:20Z</time>
      </trkpt>
      <trkpt lat="43.242450" lon="-4.890020">
        <ele>435.850</ele>
        <time>2020-05-20T02:15:40Z</time>
      </trkpt>
      <trkpt lat="43.242460" lon="-4.889940">
        <ele>434.146</ele>
        <time>2020-05-20T02:16:00Z</time>
      </trkpt>
      <trkpt lat="43.242470" lon="-4.889860">
        <ele>432.549</ele>
        <time>2020-05-20T02:16:20Z</time>
      </trkpt>
      <trkpt lat="43.242490" lon="-4.889780">
        <ele>431.789</ele>
        <time>2020-05-20T02:16:40Z</time>
      </trkpt>
      <trkpt lat="43.242520" lon="-4.889700">
        <ele>431.269</ele>
        <time>2020-05-20T02:17:00Z</time>
      </trkpt>
      <trkpt lat="43.242550" lon="-4.889610">
        <ele>430.589</ele>
        <time>2020-05-20T02:17:20Z</time>
      </trkpt>
      <trkpt lat="43.242590" lon="-4.889510">
        <ele>429.818</ele>
        <time>2020-05-20T02:17:40Z</time>
      </trkpt>
      <trkpt lat="43.242600" lon="-4.889480">
        <ele>429.661</ele>
        <time>2020-05-20T02:18:00Z</time>
      </trkpt>
      <trkpt lat="43.242620" lon="-4.889460">
        <ele>429.821</ele>
        <time>2020-05-20T02:18:20Z</time>
      </trkpt>
      <trkpt lat="43.242630" lon="-4.889450">
        <ele>429.913</ele>
        <time>2020-05-20T02:18:40Z</time>
      </trkpt>
      <trkpt lat="43.242650" lon="-4.889430">
        <ele>429.708</ele>
        <time>2020-05-20T02:19:00Z</time>
      </trkpt>
      <trkpt lat="43.242680" lon="-4.889420">
        <ele>430.270</ele>
        <time>2020-05-20T02:19:20Z</time>
      </trkpt>
      <trkpt lat="43.242700" lon="-4.889410">
        <ele>430.355</ele>
        <time>2020-05-20T02:19:40Z</time>
      </trkpt>
      <trkpt lat="43.242720" lon="-4.889410">
        <ele>430.931</ele>
        <time>2020-05-20T02:20:00Z</time>
      </trkpt>
      <trkpt lat="43.242740" lon="-4.889410">
        <ele>431.534</ele>
        <time>2020-05-20T02:20:20Z</time>
      </trkpt>
      <trkpt lat="43.242760" lon="-4.889410">
        <ele>432.024</ele>
        <time>2020-05-20T02:20:40Z</time>
      </trkpt>
      <trkpt lat="43.242770" lon="-4.889410">
        <ele>432.314</ele>
        <time>2020-05-20T02:21:00Z</time>
      </trkpt>
      <trkpt lat="43.242790" lon="-4.889410">
        <ele>431.974</ele>
        <time>2020-05-20T02:21:20Z</time>
      </trkpt>
      <trkpt lat="43.242800" lon="-4.889420">
        <ele>431.923</ele>
        <time>2020-05-20T02:21:40Z</time>
      </trkpt>
      <trkpt lat="43.242820" lon="-4.889430">
        <ele>431.487</ele>
        <time>2020-05-20T02:22:00Z</time>
      </trkpt>
      <trkpt lat="43.242830" lon="-4.889430">
        <ele>430.942</ele>
        <time>2020-05-20T02:22:20Z</time>
      </trkpt>
      <trkpt lat="43.242850" lon="-4.889440">
        <ele>430.426</ele>
        <time>2020-05-20T02:22:40Z</time>
      </trkpt>
      <trkpt lat="43.242860" lon="-4.889460">
        <ele>430.608</ele>
        <time>2020-05-20T02:23:00Z</time>
      </trkpt>
      <trkpt lat="43.242890" lon="-4.889480">
        <ele>429.942</ele>
        <time>2020-05-20T02:23:20Z</time>
      </trkpt>
      <trkpt lat="43.242910" lon="-4.889500">
        <ele>429.737</ele>
        <time>2020-05-20T02:23:40Z</time>
      </trkpt>
      <trkpt lat="43.242950" lon="-4.889530">
        <ele>429.193</ele>
        <time>2020-05-20T02:24:00Z</time>
      </trkpt>
      <trkpt lat="43.242970" lon="-4.889570">
        <ele>429.926</ele>
        <time>2020-05-20T02:24:20Z</time>
      </trkpt>
      <trkpt lat="43.242990" lon="-4.889590">
        <ele>430.096</ele>
        <time>2020-05-20T02:24:40Z</time>
      </trkpt>
      <trkpt lat="43.243030" lon="-4.889630">
        <ele>430.466</ele>
        <time>2020-05-20T02:25:00Z</time>
      </trkpt>
      <trkpt lat="43.243060" lon="-4.889670">
        <ele>431.556</ele>
        <time>2020-05-20T02:25:20Z</time>
      </trkpt>
      <trkpt lat="43.243110" lon="-4.889700">
        <ele>432.235</ele>
        <time>2020-05-20T02:25:40Z</time>
      </trkpt>
      <trkpt lat="43.243120" lon="-4.889710">
        <ele>432.559</ele>
        <time>2020-05-20T02:26:00Z</time>
      </trkpt>
      <trkpt lat="43.243140" lon="-4.889730">
        <ele>433.203</ele>
        <time>2020-05-20T02:26:20Z</time>
      </trkpt>
      <trkpt lat="43.243190" lon="-4.889760">
        <ele>434.023</ele>
        <time>2020-05-20T02:26:40Z</time>
      </trkpt>
      <trkpt lat="43.243240" lon="-4.889790">
        <ele>434.908</ele>
        <time>2020-05-20T02:27:00Z</time>
      </trkpt>
      <trkpt lat="43.243290" lon="-4.889810">
        <ele>435.379</ele>
        <time>2020-05-20T02:27:20Z</time>
      </trkpt>
      <trkpt lat="43.243300" lon="-4.889810">
        <ele>435.244</ele>
        <time>2020-05-20T02:27:40Z</time>
      </trkpt>
      <trkpt lat="43.243350" lon="-4.889840">
        <ele>436.560</ele>
        <time>2020-05-20T02:28:00Z</time>
      </trkpt>
      <trkpt lat="43.243400" lon="-4.889850">
        <ele>437.543</ele>
        <time>2020-05-20T02:28:20Z</time>
      </trkpt>
      <trkpt lat="43.243450" lon="-4.889870">
        <ele>439.043</ele>
        <time>2020-05-20T02:28:40Z</time>
      </trkpt>
      <trkpt lat="43.243460" lon="-4.889870">
        <ele>439.173</ele>
        <time>2020-05-20T02:29:00Z</time>
      </trkpt>
      <trkpt lat="43.243500" lon="-4.889880">
        <ele>439.993</ele>
        <time>2020-05-20T02:29:20Z</time>
      </trkpt>
      <trkpt lat="43.243540" lon="-4.889890">
        <ele>440.762</ele>
        <time>2020-05-20T02:29:40Z</time>
      </trkpt>
      <trkpt lat="43.243590" lon="-4.889890">
        <ele>441.185</ele>
        <time>2020-05-20T02:30:00Z</time>
      </trkpt>
      <trkpt lat="43.243640" lon="-4.889900">
        <ele>442.489</ele>
        <time>2020-05-20T02:30:20Z</time>
      </trkpt>
      <trkpt lat="43.243690" lon="-4.889900">
        <ele>443.717</ele>
        <time>2020-05-20T02:30:40Z</time>
      </trkpt>
      <trkpt lat="43.243740" lon="-4.889910">
        <ele>445.408</ele>
        <time>2020-05-20T02:31:00Z</time>
      </trkpt>
      <trkpt lat="43.243790" lon="-4.889910">
        <ele>446.662</ele>
        <time>2020-05-20T02:31:20Z</time>
      </trkpt>
      <trkpt lat="43.243820" lon="-4.889910">
        <ele>447.467</ele>
        <time>2020-05-20T02:31:40Z</time>
      </trkpt>
      <trkpt lat="43.243830" lon="-4.889910">
        <ele>447.683</ele>
        <time>2020-05-20T02:32:00Z</time>
      </trkpt>
      <trkpt lat="43.243870" lon="-4.889910">
        <ele>448.666</ele>
        <time>2020-05-20T02:32:20Z</time>
      </trkpt>
      <trkpt lat="43.243930" lon="-4.889900">
        <ele>452.786</ele>
        <time>2020-05-20T02:32:40Z</time>
      </trkpt>
      <trkpt lat="43.243990" lon="-4.889890">
        <ele>458.286</ele>
        <time>2020-05-20T02:33:00Z</time>
      </trkpt>
      <trkpt lat="43.244000" lon="-4.889890">
        <ele>459.256</ele>
        <time>2020-05-20T02:33:20Z</time>
      </trkpt>
      <trkpt lat="43.244100" lon="-4.889890">
        <ele>469.095</ele>
        <time>2020-05-20T02:33:40Z</time>
      </trkpt>
      <trkpt lat="43.244180" lon="-4.889890">
        <ele>479.891</ele>
        <time>2020-05-20T02:34:00Z</time>
      </trkpt>
      <trkpt lat="43.244200" lon="-4.889880">
        <ele>486.081</ele>
        <time>2020-05-20T02:34:20Z</time>
      </trkpt>
      <trkpt lat="43.244290" lon="-4.889890">
        <ele>514.419</ele>
        <time>2020-05-20T02:34:40Z</time>
      </trkpt>
      <trkpt lat="43.244360" lon="-4.889900">
        <ele>536.608</ele>
        <time>2020-05-20T02:35:00Z</time>
      </trkpt>
      <trkpt lat="43.244460" lon="-4.889910">
        <ele>567.183</ele>
        <time>2020-05-20T02:35:20Z</time>
      </trkpt>
      <trkpt lat="43.244530" lon="-4.889910">
        <ele>583.778</ele>
        <time>2020-05-20T02:35:40Z</time>
      </trkpt>
      <trkpt lat="43.244560" lon="-4.889910">
        <ele>590.834</ele>
        <time>2020-05-20T02:36:00Z</time>
      </trkpt>
      <trkpt lat="43.244610" lon="-4.889920">
        <ele>603.267</ele>
        <time>2020-05-20T02:36:20Z</time>
      </trkpt>
      <trkpt lat="43.244660" lon="-4.889930">
        <ele>615.947</ele>
        <time>2020-05-20T02:36:40Z</time>
      </trkpt>
      <trkpt lat="43.244710" lon="-4.889940">
        <ele>628.847</ele>
        <time>2020-05-20T02:37:00Z</time>
      </trkpt>
      <trkpt lat="43.244740" lon="-4.889950">
        <ele>632.567</ele>
        <time>2020-05-20T02:37:20Z</time>
      </trkpt>
      <trkpt lat="43.244780" lon="-4.889960">
        <ele>633.056</ele>
        <time>2020-05-20T02:37:40Z</time>
      </trkpt>
      <trkpt lat="43.244810" lon="-4.889980">
        <ele>634.491</ele>
        <time>2020-05-20T02:38:00Z</time>
      </trkpt>
      <trkpt lat="43.244840" lon="-4.890000">
        <ele>635.781</ele>
        <time>2020-05-20T02:38:20Z</time>
      </trkpt>
      <trkpt lat="43.244880" lon="-4.890020">
        <ele>636.919</ele>
        <time>2020-05-20T02:38:40Z</time>
      </trkpt>
      <trkpt lat="43.244890" lon="-4.890030">
        <ele>637.608</ele>
        <time>2020-05-20T02:39:00Z</time>
      </trkpt>
      <trkpt lat="43.244920" lon="-4.890040">
        <ele>638.033</ele>
        <time>2020-05-20T02:39:20Z</time>
      </trkpt>
      <trkpt lat="43.244980" lon="-4.890070">
        <ele>639.898</ele>
        <time>2020-05-20T02:39:40Z</time>
      </trkpt>
      <trkpt lat="43.245020" lon="-4.890090">
        <ele>643.234</ele>
        <time>2020-05-20T02:40:00Z</time>
      </trkpt>
      <trkpt lat="43.245050" lon="-4.890100">
        <ele>647.237</ele>
        <time>2020-05-20T02:40:20Z</time>
      </trkpt>
      <trkpt lat="43.245080" lon="-4.890120">
        <ele>652.247</ele>
        <time>2020-05-20T02:40:40Z</time>
      </trkpt>
      <trkpt lat="43.245150" lon="-4.890160">
        <ele>663.847</ele>
        <time>2020-05-20T02:41:00Z</time>
      </trkpt>
      <trkpt lat="43.245220" lon="-4.890200">
        <ele>676.147</ele>
        <time>2020-05-20T02:41:20Z</time>
      </trkpt>
      <trkpt lat="43.245230" lon="-4.890200">
        <ele>677.366</ele>
        <time>2020-05-20T02:41:40Z</time>
      </trkpt>
      <trkpt lat="43.245300" lon="-4.890250">
        <ele>690.657</ele>
        <time>2020-05-20T02:42:00Z</time>
      </trkpt>
      <trkpt lat="43.245320" lon="-4.890250">
        <ele>692.200</ele>
        <time>2020-05-20T02:42:20Z</time>
      </trkpt>
      <trkpt lat="43.245350" lon="-4.890240">
        <ele>693.320</ele>
        <time>2020-05-20T02:42:40Z</time>
      </trkpt>
      <trkpt lat="43.245360" lon="-4.890230">
        <ele>692.908</ele>
        <time>2020-05-20T02:43:00Z</time>
      </trkpt>
      <trkpt lat="43.245370" lon="-4.890220">
        <ele>692.469</ele>
        <time>2020-05-20T02:43:20Z</time>
      </trkpt>
      <trkpt lat="43.245380" lon="-4.890210">
        <ele>691.914</ele>
        <time>2020-05-20T02:43:40Z</time>
      </trkpt>
      <trkpt lat="43.245390" lon="-4.890190">
        <ele>690.240</ele>
        <time>2020-05-20T02:44:00Z</time>
      </trkpt>
      <trkpt lat="43.245430" lon="-4.890120">
        <ele>683.933</ele>
        <time>2020-05-20T02:44:20Z</time>
      </trkpt>
      <trkpt lat="43.245450" lon="-4.890060">
        <ele>677.363</ele>
        <time>2020-05-20T02:44:40Z</time>
      </trkpt>
      <trkpt lat="43.245470" lon="-4.890000">
        <ele>670.493</ele>
        <time>2020-05-20T02:45:00Z</time>
      </trkpt>
      <trkpt lat="43.245490" lon="-4.889940">
        <ele>665.673</ele>
        <time>2020-05-20T02:45:20Z</time>
      </trkpt>
      <trkpt lat="43.245510" lon="-4.889830">
        <ele>656.842</ele>
        <time>2020-05-20T02:45:40Z</time>
      </trkpt>
      <trkpt lat="43.245510" lon="-4.889760">
        <ele>650.328</ele>
        <time>2020-05-20T02:46:00Z</time>
      </trkpt>
      <trkpt lat="43.245510" lon="-4.889740">
        <ele>648.489</ele>
        <time>2020-05-20T02:46:20Z</time>
      </trkpt>
      <trkpt lat="43.245500" lon="-4.889620">
        <ele>635.817</ele>
        <time>2020-05-20T02:46:40Z</time>
      </trkpt>
      <trkpt lat="43.245480" lon="-4.889510">
        <ele>622.308</ele>
        <time>2020-05-20T02:47:00Z</time>
      </trkpt>
      <trkpt lat="43.245480" lon="-4.889490">
        <ele>620.366</ele>
        <time>2020-05-20T02:47:20Z</time>
      </trkpt>
      <trkpt lat="43.245440" lon="-4.889300">
        <ele>600.081</ele>
        <time>2020-05-20T02:47:40Z</time>
      </trkpt>
      <trkpt lat="43.245430" lon="-4.889280">
        <ele>596.947</ele>
        <time>2020-05-20T02:48:00Z</time>
      </trkpt>
      <trkpt lat="43.245400" lon="-4.889120">
        <ele>579.940</ele>
        <time>2020-05-20T02:48:20Z</time>
      </trkpt>
      <trkpt lat="43.245380" lon="-4.889040">
        <ele>569.790</ele>
        <time>2020-05-20T02:48:40Z</time>
      </trkpt>
      <trkpt lat="43.245330" lon="-4.888800">
        <ele>545.340</ele>
        <time>2020-05-20T02:49:00Z</time>
      </trkpt>
      <trkpt lat="43.245310" lon="-4.888730">
        <ele>539.810</ele>
        <time>2020-05-20T02:49:20Z</time>
      </trkpt>
      <trkpt lat="43.245300" lon="-4.888460">
        <ele>529.969</ele>
        <time>2020-05-20T02:49:40Z</time>
      </trkpt>
      <trkpt lat="43.245300" lon="-4.888320">
        <ele>524.968</ele>
        <time>2020-05-20T02:50:00Z</time>
      </trkpt>
      <trkpt lat="43.245300" lon="-4.888170">
        <ele>508.342</ele>
        <time>2020-05-20T02:50:20Z</time>
      </trkpt>
      <trkpt lat="43.245300" lon="-4.888090">
        <ele>499.426</ele>
        <time>2020-05-20T02:50:40Z</time>
      </trkpt>
      <trkpt lat="43.245300" lon="-4.887990">
        <ele>490.208</ele>
        <time>2020-05-20T02:51:00Z</time>
      </trkpt>
      <trkpt lat="43.245320" lon="-4.887940">
        <ele>487.770</ele>
        <time>2020-05-20T02:51:20Z</time>
      </trkpt>
      <trkpt lat="43.245330" lon="-4.887890">
        <ele>484.485</ele>
        <time>2020-05-20T02:51:40Z</time>
      </trkpt>
      <trkpt lat="43.245350" lon="-4.887830">
        <ele>481.291</ele>
        <time>2020-05-20T02:52:00Z</time>
      </trkpt>
      <trkpt lat="43.245360" lon="-4.887780">
        <ele>478.034</ele>
        <time>2020-05-20T02:52:20Z</time>
      </trkpt>
      <trkpt lat="43.245370" lon="-4.887700">
        <ele>473.864</ele>
        <time>2020-05-20T02:52:40Z</time>
      </trkpt>
      <trkpt lat="43.245370" lon="-4.887670">
        <ele>471.984</ele>
        <time>2020-05-20T02:53:00Z</time>
      </trkpt>
      <trkpt lat="43.245370" lon="-4.887630">
        <ele>469.464</ele>
        <time>2020-05-20T02:53:20Z</time>
      </trkpt>
      <trkpt lat="43.245360" lon="-4.887590">
        <ele>465.923</ele>
        <time>2020-05-20T02:53:40Z</time>
      </trkpt>
      <trkpt lat="43.245360" lon="-4.887580">
        <ele>465.385</ele>
        <time>2020-05-20T02:54:00Z</time>
      </trkpt>
      <trkpt lat="43.245340" lon="-4.887520">
        <ele>459.389</ele>
        <time>2020-05-20T02:54:20Z</time>
      </trkpt>
      <trkpt lat="43.245340" lon="-4.887450">
        <ele>452.317</ele>
        <time>2020-05-20T02:54:40Z</time>
      </trkpt>
      <trkpt lat="43.245340" lon="-4.887370">
        <ele>443.208</ele>
        <time>2020-05-20T02:55:00Z</time>
      </trkpt>
      <trkpt lat="43.245340" lon="-4.887350">
        <ele>440.952</ele>
        <time>2020-05-20T02:55:20Z</time>
      </trkpt>
      <trkpt lat="43.245350" lon="-4.887330">
        <ele>439.837</ele>
        <time>2020-05-20T02:55:40Z</time>
      </trkpt>
      <trkpt lat="43.245370" lon="-4.887260">
        <ele>434.283</ele>
        <time>2020-05-20T02:56:00Z</time>
      </trkpt>
      <trkpt lat="43.245400" lon="-4.887210">
        <ele>432.346</ele>
        <time>2020-05-20T02:56:20Z</time>
      </trkpt>
      <trkpt lat="43.245430" lon="-4.887170">
        <ele>431.726</ele>
        <time>2020-05-20T02:56:40Z</time>
      </trkpt>
      <trkpt lat="43.245440" lon="-4.887150">
        <ele>430.846</ele>
        <time>2020-05-20T02:57:00Z</time>
      </trkpt>
      <trkpt lat="43.245460" lon="-4.887120">
        <ele>430.016</ele>
        <time>2020-05-20T02:57:20Z</time>
      </trkpt>
      <trkpt lat="43.245490" lon="-4.887080">
        <ele>429.235</ele>
        <time>2020-05-20T02:57:40Z</time>
      </trkpt>
      <trkpt lat="43.245510" lon="-4.887020">
        <ele>425.188</ele>
        <time>2020-05-20T02:58:00Z</time>
      </trkpt>
      <trkpt lat="43.245520" lon="-4.886980">
        <ele>422.024</ele>
        <time>2020-05-20T02:58:20Z</time>
      </trkpt>
      <trkpt lat="43.245530" lon="-4.886950">
        <ele>419.826</ele>
        <time>2020-05-20T02:58:40Z</time>
      </trkpt>
      <trkpt lat="43.245540" lon="-4.886940">
        <ele>419.808</ele>
        <time>2020-05-20T02:59:00Z</time>
      </trkpt>
      <trkpt lat="43.245550" lon="-4.886930">
        <ele>419.732</ele>
        <time>2020-05-20T02:59:20Z</time>
      </trkpt>
      <trkpt lat="43.245560" lon="-4.886900">
        <ele>416.977</ele>
        <time>2020-05-20T02:59:40Z</time>
      </trkpt>
      <trkpt lat="43.245580" lon="-4.886880">
        <ele>414.723</ele>
        <time>2020-05-20T03:00:00Z</time>
      </trkpt>
      <trkpt lat="43.245600" lon="-4.886870">
        <ele>413.826</ele>
        <time>2020-05-20T03:00:20Z</time>
      </trkpt>
      <trkpt lat="43.245610" lon="-4.886870">
        <ele>413.846</ele>
        <time>2020-05-20T03:00:40Z</time>
      </trkpt>
      <trkpt lat="43.245620" lon="-4.886860">
        <ele>412.866</ele>
        <time>2020-05-20T03:01:00Z</time>
      </trkpt>
      <trkpt lat="43.245640" lon="-4.886860">
        <ele>412.946</ele>
        <time>2020-05-20T03:01:20Z</time>
      </trkpt>
      <trkpt lat="43.245650" lon="-4.886860">
        <ele>413.075</ele>
        <time>2020-05-20T03:01:40Z</time>
      </trkpt>
      <trkpt lat="43.245660" lon="-4.886860">
        <ele>413.144</ele>
        <time>2020-05-20T03:02:00Z</time>
      </trkpt>
      <trkpt lat="43.245670" lon="-4.886860">
        <ele>413.205</ele>
        <time>2020-05-20T03:02:20Z</time>
      </trkpt>
      <trkpt lat="43.245680" lon="-4.886860">
        <ele>413.315</ele>
        <time>2020-05-20T03:02:40Z</time>
      </trkpt>
      <trkpt lat="43.245690" lon="-4.886860">
        <ele>413.308</ele>
        <time>2020-05-20T03:03:00Z</time>
      </trkpt>
      <trkpt lat="43.245700" lon="-4.886860">
        <ele>413.458</ele>
        <time>2020-05-20T03:03:20Z</time>
      </trkpt>
      <trkpt lat="43.245710" lon="-4.886870">
        <ele>414.693</ele>
        <time>2020-05-20T03:03:40Z</time>
      </trkpt>
      <trkpt lat="43.245720" lon="-4.886870">
        <ele>414.769</ele>
        <time>2020-05-20T03:04:00Z</time>
      </trkpt>
      <trkpt lat="43.245730" lon="-4.886870">
        <ele>414.782</ele>
        <time>2020-05-20T03:04:20Z</time>
      </trkpt>
      <trkpt lat="43.245740" lon="-4.886880">
        <ele>415.952</ele>
        <time>2020-05-20T03:04:40Z</time>
      </trkpt>
      <trkpt lat="43.245750" lon="-4.886880">
        <ele>415.982</ele>
        <time>2020-05-20T03:05:00Z</time>
      </trkpt>
      <trkpt lat="43.245760" lon="-4.886890">
        <ele>417.032</ele>
        <time>2020-05-20T03:05:20Z</time>
      </trkpt>
      <trkpt lat="43.245770" lon="-4.886900">
        <ele>418.191</ele>
        <time>2020-05-20T03:05:40Z</time>
      </trkpt>
      <trkpt lat="43.245790" lon="-4.886920">
        <ele>420.359</ele>
        <time>2020-05-20T03:06:00Z</time>
      </trkpt>
      <trkpt lat="43.245820" lon="-4.886950">
        <ele>423.403</ele>
        <time>2020-05-20T03:06:20Z</time>
      </trkpt>
      <trkpt lat="43.245850" lon="-4.886990">
        <ele>427.823</ele>
        <time>2020-05-20T03:06:40Z</time>
      </trkpt>
      <trkpt lat="43.245870" lon="-4.887000">
        <ele>429.608</ele>
        <time>2020-05-20T03:07:00Z</time>
      </trkpt>
      <trkpt lat="43.245920" lon="-4.887050">
        <ele>435.459</ele>
        <time>2020-05-20T03:07:20Z</time>
      </trkpt>
      <trkpt lat="43.245950" lon="-4.887080">
        <ele>438.424</ele>
        <time>2020-05-20T03:07:40Z</time>
      </trkpt>
      <trkpt lat="43.245980" lon="-4.887100">
        <ele>440.490</ele>
        <time>2020-05-20T03:08:00Z</time>
      </trkpt>
      <trkpt lat="43.246000" lon="-4.887110">
        <ele>441.493</ele>
        <time>2020-05-20T03:08:20Z</time>
      </trkpt>
      <trkpt lat="43.246010" lon="-4.887120">
        <ele>442.113</ele>
        <time>2020-05-20T03:08:40Z</time>
      </trkpt>
      <trkpt lat="43.246030" lon="-4.887130">
        <ele>443.083</ele>
        <time>2020-05-20T03:09:00Z</time>
      </trkpt>
      <trkpt lat="43.246040" lon="-4.887130">
        <ele>443.283</ele>
        <time>2020-05-20T03:09:20Z</time>
      </trkpt>
      <trkpt lat="43.246050" lon="-4.887130">
        <ele>443.432</ele>
        <time>2020-05-20T03:09:40Z</time>
      </trkpt>
      <trkpt lat="43.246050" lon="-4.887140">
        <ele>443.874</ele>
        <time>2020-05-20T03:10:00Z</time>
      </trkpt>
      <trkpt lat="43.246060" lon="-4.887140">
        <ele>444.056</ele>
        <time>2020-05-20T03:10:20Z</time>
      </trkpt>
      <trkpt lat="43.246070" lon="-4.887140">
        <ele>444.221</ele>
        <time>2020-05-20T03:10:40Z</time>
      </trkpt>
      <trkpt lat="43.246080" lon="-4.887140">
        <ele>444.408</ele>
        <time>2020-05-20T03:11:00Z</time>
      </trkpt>
      <trkpt lat="43.246090" lon="-4.887140">
        <ele>444.591</ele>
        <time>2020-05-20T03:11:20Z</time>
      </trkpt>
      <trkpt lat="43.246100" lon="-4.887130">
        <ele>444.426</ele>
        <time>2020-05-20T03:11:40Z</time>
      </trkpt>
      <trkpt lat="43.246110" lon="-4.887120">
        <ele>444.432</ele>
        <time>2020-05-20T03:12:00Z</time>
      </trkpt>
      <trkpt lat="43.246110" lon="-4.887110">
        <ele>444.125</ele>
        <time>2020-05-20T03:12:20Z</time>
      </trkpt>
      <trkpt lat="43.246120" lon="-4.887100">
        <ele>444.545</ele>
        <time>2020-05-20T03:12:40Z</time>
      </trkpt>
      <trkpt lat="43.246130" lon="-4.887090">
        <ele>444.845</ele>
        <time>2020-05-20T03:13:00Z</time>
      </trkpt>
      <trkpt lat="43.246130" lon="-4.887080">
        <ele>444.545</ele>
        <time>2020-05-20T03:13:20Z</time>
      </trkpt>
      <trkpt lat="43.246140" lon="-4.887070">
        <ele>444.844</ele>
        <time>2020-05-20T03:13:40Z</time>
      </trkpt>
      <trkpt lat="43.246140" lon="-4.887050">
        <ele>444.279</ele>
        <time>2020-05-20T03:14:00Z</time>
      </trkpt>
      <trkpt lat="43.246140" lon="-4.887040">
        <ele>443.905</ele>
        <time>2020-05-20T03:14:20Z</time>
      </trkpt>
      <trkpt lat="43.246140" lon="-4.887020">
        <ele>443.325</ele>
        <time>2020-05-20T03:14:40Z</time>
      </trkpt>
      <trkpt lat="43.246140" lon="-4.887000">
        <ele>442.708</ele>
        <time>2020-05-20T03:15:00Z</time>
      </trkpt>
      <trkpt lat="43.246140" lon="-4.886980">
        <ele>442.181</ele>
        <time>2020-05-20T03:15:20Z</time>
      </trkpt>
      <trkpt lat="43.246140" lon="-4.886950">
        <ele>441.256</ele>
        <time>2020-05-20T03:15:40Z</time>
      </trkpt>
      <trkpt lat="43.246150" lon="-4.886930">
        <ele>440.172</ele>
        <time>2020-05-20T03:16:00Z</time>
      </trkpt>
      <trkpt lat="43.246160" lon="-4.886910">
        <ele>438.725</ele>
        <time>2020-05-20T03:16:20Z</time>
      </trkpt>
      <trkpt lat="43.246170" lon="-4.886890">
        <ele>437.335</ele>
        <time>2020-05-20T03:16:40Z</time>
      </trkpt>
      <trkpt lat="43.246190" lon="-4.886880">
        <ele>437.175</ele>
        <time>2020-05-20T03:17:00Z</time>
      </trkpt>
      <trkpt lat="43.246200" lon="-4.886860">
        <ele>435.735</ele>
        <time>2020-05-20T03:17:20Z</time>
      </trkpt>
      <trkpt lat="43.246220" lon="-4.886860">
        <ele>436.424</ele>
        <time>2020-05-20T03:17:40Z</time>
      </trkpt>
      <trkpt lat="43.246230" lon="-4.886850">
        <ele>435.825</ele>
        <time>2020-05-20T03:18:00Z</time>
      </trkpt>
      <trkpt lat="43.246250" lon="-4.886840">
        <ele>435.626</ele>
        <time>2020-05-20T03:18:20Z</time>
      </trkpt>
      <trkpt lat="43.246260" lon="-4.886830">
        <ele>435.008</ele>
        <time>2020-05-20T03:18:40Z</time>
      </trkpt>
      <trkpt lat="43.246270" lon="-4.886830">
        <ele>435.408</ele>
        <time>2020-05-20T03:19:00Z</time>
      </trkpt>
      <trkpt lat="43.246290" lon="-4.886830">
        <ele>436.056</ele>
        <time>2020-05-20T03:19:20Z</time>
      </trkpt>
      <trkpt lat="43.246310" lon="-4.886820">
        <ele>435.821</ele>
        <time>2020-05-20T03:19:40Z</time>
      </trkpt>
      <trkpt lat="43.246330" lon="-4.886830">
        <ele>437.347</ele>
        <time>2020-05-20T03:20:00Z</time>
      </trkpt>
      <trkpt lat="43.246340" lon="-4.886830">
        <ele>437.770</ele>
        <time>2020-05-20T03:20:20Z</time>
      </trkpt>
      <trkpt lat="43.246380" lon="-4.886830">
        <ele>439.060</ele>
        <time>2020-05-20T03:20:40Z</time>
      </trkpt>
      <trkpt lat="43.246400" lon="-4.886840">
        <ele>440.470</ele>
        <time>2020-05-20T03:21:00Z</time>
      </trkpt>
      <trkpt lat="43.246420" lon="-4.886840">
        <ele>440.750</ele>
        <time>2020-05-20T03:21:20Z</time>
      </trkpt>
      <trkpt lat="43.246450" lon="-4.886850">
        <ele>442.019</ele>
        <time>2020-05-20T03:21:40Z</time>
      </trkpt>
      <trkpt lat="43.246500" lon="-4.886850">
        <ele>442.864</ele>
        <time>2020-05-20T03:22:00Z</time>
      </trkpt>
      <trkpt lat="43.246540" lon="-4.886860">
        <ele>444.206</ele>
        <time>2020-05-20T03:22:20Z</time>
      </trkpt>
      <trkpt lat="43.246570" lon="-4.886860">
        <ele>444.616</ele>
        <time>2020-05-20T03:22:40Z</time>
      </trkpt>
      <trkpt lat="43.246580" lon="-4.886860">
        <ele>444.808</ele>
        <time>2020-05-20T03:23:00Z</time>
      </trkpt>
      <trkpt lat="43.246620" lon="-4.886870">
        <ele>446.220</ele>
        <time>2020-05-20T03:23:20Z</time>
      </trkpt>
      <trkpt lat="43.246650" lon="-4.886870">
        <ele>446.635</ele>
        <time>2020-05-20T03:23:40Z</time>
      </trkpt>
      <trkpt lat="43.246690" lon="-4.886880">
        <ele>448.251</ele>
        <time>2020-05-20T03:24:00Z</time>
      </trkpt>
      <trkpt lat="43.246730" lon="-4.886890">
        <ele>449.814</ele>
        <time>2020-05-20T03:24:20Z</time>
      </trkpt>
      <trkpt lat="43.246760" lon="-4.886900">
        <ele>451.084</ele>
        <time>2020-05-20T03:24:40Z</time>
      </trkpt>
      <trkpt lat="43.246770" lon="-4.886900">
        <ele>451.224</ele>
        <time>2020-05-20T03:25:00Z</time>
      </trkpt>
      <trkpt lat="43.246810" lon="-4.886900">
        <ele>451.964</ele>
        <time>2020-05-20T03:25:20Z</time>
      </trkpt>
      <trkpt lat="43.246850" lon="-4.886900">
        <ele>452.783</ele>
        <time>2020-05-20T03:25:40Z</time>
      </trkpt>
      <trkpt lat="43.246910" lon="-4.886900">
        <ele>453.815</ele>
        <time>2020-05-20T03:26:00Z</time>
      </trkpt>
      <trkpt lat="43.246940" lon="-4.886910">
        <ele>454.765</ele>
        <time>2020-05-20T03:26:20Z</time>
      </trkpt>
      <trkpt lat="43.246960" lon="-4.886910">
        <ele>456.811</ele>
        <time>2020-05-20T03:26:40Z</time>
      </trkpt>
      <trkpt lat="43.247010" lon="-4.886910">
        <ele>463.208</ele>
        <time>2020-05-20T03:27:00Z</time>
      </trkpt>
      <trkpt lat="43.247050" lon="-4.886910">
        <ele>468.375</ele>
        <time>2020-05-20T03:27:20Z</time>
      </trkpt>
      <trkpt lat="43.247070" lon="-4.886910">
        <ele>470.980</ele>
        <time>2020-05-20T03:27:40Z</time>
      </trkpt>
      <trkpt lat="43.247080" lon="-4.886910">
        <ele>472.116</ele>
        <time>2020-05-20T03:28:00Z</time>
      </trkpt>
      <trkpt lat="43.247090" lon="-4.886900">
        <ele>473.339</ele>
        <time>2020-05-20T03:28:20Z</time>
      </trkpt>
      <trkpt lat="43.247100" lon="-4.886900">
        <ele>474.699</ele>
        <time>2020-05-20T03:28:40Z</time>
      </trkpt>
      <trkpt lat="43.247100" lon="-4.886890">
        <ele>474.599</ele>
        <time>2020-05-20T03:29:00Z</time>
      </trkpt>
      <trkpt lat="43.247110" lon="-4.886880">
        <ele>475.779</ele>
        <time>2020-05-20T03:29:20Z</time>
      </trkpt>
      <trkpt lat="43.247110" lon="-4.886870">
        <ele>475.768</ele>
        <time>2020-05-20T03:29:40Z</time>
      </trkpt>
      <trkpt lat="43.247120" lon="-4.886860">
        <ele>476.921</ele>
        <time>2020-05-20T03:30:00Z</time>
      </trkpt>
      <trkpt lat="43.247120" lon="-4.886850">
        <ele>476.941</ele>
        <time>2020-05-20T03:30:20Z</time>
      </trkpt>
      <trkpt lat="43.247130" lon="-4.886840">
        <ele>478.205</ele>
        <time>2020-05-20T03:30:40Z</time>
      </trkpt>
      <trkpt lat="43.247130" lon="-4.886810">
        <ele>478.108</ele>
        <time>2020-05-20T03:31:00Z</time>
      </trkpt>
      <trkpt lat="43.247140" lon="-4.886790">
        <ele>479.536</ele>
        <time>2020-05-20T03:31:20Z</time>
      </trkpt>
      <trkpt lat="43.247140" lon="-4.886770">
        <ele>479.471</ele>
        <time>2020-05-20T03:31:40Z</time>
      </trkpt>
      <trkpt lat="43.247150" lon="-4.886740">
        <ele>480.967</ele>
        <time>2020-05-20T03:32:00Z</time>
      </trkpt>
      <trkpt lat="43.247170" lon="-4.886720">
        <ele>484.130</ele>
        <time>2020-05-20T03:32:20Z</time>
      </trkpt>
      <trkpt lat="43.247190" lon="-4.886690">
        <ele>487.450</ele>
        <time>2020-05-20T03:32:40Z</time>
      </trkpt>
      <trkpt lat="43.247220" lon="-4.886660">
        <ele>492.320</ele>
        <time>2020-05-20T03:33:00Z</time>
      </trkpt>
      <trkpt lat="43.247250" lon="-4.886640">
        <ele>495.330</ele>
        <time>2020-05-20T03:33:20Z</time>
      </trkpt>
      <trkpt lat="43.247280" lon="-4.886620">
        <ele>498.069</ele>
        <time>2020-05-20T03:33:40Z</time>
      </trkpt>
      <trkpt lat="43.247320" lon="-4.886610">
        <ele>502.488</ele>
        <time>2020-05-20T03:34:00Z</time>
      </trkpt>
      <trkpt lat="43.247340" lon="-4.886600">
        <ele>504.124</ele>
        <time>2020-05-20T03:34:20Z</time>
      </trkpt>
      <trkpt lat="43.247370" lon="-4.886590">
        <ele>507.026</ele>
        <time>2020-05-20T03:34:40Z</time>
      </trkpt>
      <trkpt lat="43.247380" lon="-4.886590">
        <ele>508.208</ele>
        <time>2020-05-20T03:35:00Z</time>
      </trkpt>
      <trkpt lat="43.247400" lon="-4.886590">
        <ele>510.672</ele>
        <time>2020-05-20T03:35:20Z</time>
      </trkpt>
      <trkpt lat="43.247450" lon="-4.886590">
        <ele>516.897</ele>
        <time>2020-05-20T03:35:40Z</time>
      </trkpt>
      <trkpt lat="43.247480" lon="-4.886590">
        <ele>520.453</ele>
        <time>2020-05-20T03:36:00Z</time>
      </trkpt>
      <trkpt lat="43.247510" lon="-4.886590">
        <ele>524.486</ele>
        <time>2020-05-20T03:36:20Z</time>
      </trkpt>
      <trkpt lat="43.247540" lon="-4.886590">
        <ele>528.996</ele>
        <time>2020-05-20T03:36:40Z</time>
      </trkpt>
      <trkpt lat="43.247550" lon="-4.886590">
        <ele>530.436</ele>
        <time>2020-05-20T03:37:00Z</time>
      </trkpt>
      <trkpt lat="43.247560" lon="-4.886590">
        <ele>531.916</ele>
        <time>2020-05-20T03:37:20Z</time>
      </trkpt>
      <trkpt lat="43.247580" lon="-4.886590">
        <ele>534.955</ele>
        <time>2020-05-20T03:37:40Z</time>
      </trkpt>
      <trkpt lat="43.247600" lon="-4.886590">
        <ele>537.935</ele>
        <time>2020-05-20T03:38:00Z</time>
      </trkpt>
      <trkpt lat="43.247630" lon="-4.886600">
        <ele>543.886</ele>
        <time>2020-05-20T03:38:20Z</time>
      </trkpt>
      <trkpt lat="43.247650" lon="-4.886600">
        <ele>546.814</ele>
        <time>2020-05-20T03:38:40Z</time>
      </trkpt>
      <trkpt lat="43.247660" lon="-4.886590">
        <ele>546.808</ele>
        <time>2020-05-20T03:39:00Z</time>
      </trkpt>
      <trkpt lat="43.247670" lon="-4.886590">
        <ele>548.317</ele>
        <time>2020-05-20T03:39:20Z</time>
      </trkpt>
      <trkpt lat="43.247670" lon="-4.886580">
        <ele>546.822</ele>
        <time>2020-05-20T03:39:40Z</time>
      </trkpt>
      <trkpt lat="43.247670" lon="-4.886570">
        <ele>545.338</ele>
        <time>2020-05-20T03:40:00Z</time>
      </trkpt>
      <trkpt lat="43.247670" lon="-4.886560">
        <ele>543.761</ele>
        <time>2020-05-20T03:40:20Z</time>
      </trkpt>
      <trkpt lat="43.247670" lon="-4.886540">
        <ele>540.611</ele>
        <time>2020-05-20T03:40:40Z</time>
      </trkpt>
      <trkpt lat="43.247670" lon="-4.886500">
        <ele>534.531</ele>
        <time>2020-05-20T03:41:00Z</time>
      </trkpt>
      <trkpt lat="43.247660" lon="-4.886440">
        <ele>524.041</ele>
        <time>2020-05-20T03:41:20Z</time>
      </trkpt>
      <trkpt lat="43.247640" lon="-4.886380">
        <ele>513.490</ele>
        <time>2020-05-20T03:41:40Z</time>
      </trkpt>
      <trkpt lat="43.247640" lon="-4.886330">
        <ele>509.343</ele>
        <time>2020-05-20T03:42:00Z</time>
      </trkpt>
      <trkpt lat="43.247630" lon="-4.886300">
        <ele>505.564</ele>
        <time>2020-05-20T03:42:20Z</time>
      </trkpt>
      <trkpt lat="43.247630" lon="-4.886270">
        <ele>503.010</ele>
        <time>2020-05-20T03:42:40Z</time>
      </trkpt>
      <trkpt lat="43.247630" lon="-4.886260">
        <ele>502.108</ele>
        <time>2020-05-20T03:43:00Z</time>
      </trkpt>
      <trkpt lat="43.247630" lon="-4.886250">
        <ele>501.358</ele>
        <time>2020-05-20T03:43:20Z</time>
      </trkpt>
      <trkpt lat="43.247630" lon="-4.886230">
        <ele>499.683</ele>
        <time>2020-05-20T03:43:40Z</time>
      </trkpt>
      <trkpt lat="43.247640" lon="-4.886210">
        <ele>499.399</ele>
        <time>2020-05-20T03:44:00Z</time>
      </trkpt>
      <trkpt lat="43.247650" lon="-4.886180">
        <ele>498.462</ele>
        <time>2020-05-20T03:44:20Z</time>
      </trkpt>
      <trkpt lat="43.247670" lon="-4.886150">
        <ele>499.172</ele>
        <time>2020-05-20T03:44:40Z</time>
      </trkpt>
      <trkpt lat="43.247680" lon="-4.886110">
        <ele>497.752</ele>
        <time>2020-05-20T03:45:00Z</time>
      </trkpt>
      <trkpt lat="43.247700" lon="-4.886050">
        <ele>495.292</ele>
        <time>2020-05-20T03:45:20Z</time>
      </trkpt>
      <trkpt lat="43.247700" lon="-4.886040">
        <ele>494.371</ele>
        <time>2020-05-20T03:45:40Z</time>
      </trkpt>
      <trkpt lat="43.247720" lon="-4.885990">
        <ele>492.315</ele>
        <time>2020-05-20T03:46:00Z</time>
      </trkpt>
      <trkpt lat="43.247740" lon="-4.885930">
        <ele>488.965</ele>
        <time>2020-05-20T03:46:20Z</time>
      </trkpt>
      <trkpt lat="43.247750" lon="-4.885910">
        <ele>488.011</ele>
        <time>2020-05-20T03:46:40Z</time>
      </trkpt>
      <trkpt lat="43.247760" lon="-4.885880">
        <ele>486.108</ele>
        <time>2020-05-20T03:47:00Z</time>
      </trkpt>
      <trkpt lat="43.247770" lon="-4.885860">
        <ele>485.115</ele>
        <time>2020-05-20T03:47:20Z</time>
      </trkpt>
      <trkpt lat="43.247780" lon="-4.885840">
        <ele>484.440</ele>
        <time>2020-05-20T03:47:40Z</time>
      </trkpt>
      <trkpt lat="43.247790" lon="-4.885820">
        <ele>485.546</ele>
        <time>2020-05-20T03:48:00Z</time>
      </trkpt>
      <trkpt lat="43.247800" lon="-4.885820">
        <ele>488.469</ele>
        <time>2020-05-20T03:48:20Z</time>
      </trkpt>
      <trkpt lat="43.247810" lon="-4.885800">
        <ele>489.619</ele>
        <time>2020-05-20T03:48:40Z</time>
      </trkpt>
      <trkpt lat="43.247810" lon="-4.885780">
        <ele>488.079</ele>
        <time>2020-05-20T03:49:00Z</time>
      </trkpt>
      <trkpt lat="43.247820" lon="-4.885750">
        <ele>488.259</ele>
        <time>2020-05-20T03:49:20Z</time>
      </trkpt>
      <trkpt lat="43.247830" lon="-4.885740">
        <ele>490.068</ele>
        <time>2020-05-20T03:49:40Z</time>
      </trkpt>
      <trkpt lat="43.247830" lon="-4.885720">
        <ele>488.357</ele>
        <time>2020-05-20T03:50:00Z</time>
      </trkpt>
      <trkpt lat="43.247840" lon="-4.885690">
        <ele>488.200</ele>
        <time>2020-05-20T03:50:20Z</time>
      </trkpt>
      <trkpt lat="43.247840" lon="-4.885660">
        <ele>485.520</ele>
        <time>2020-05-20T03:50:40Z</time>
      </trkpt>
      <trkpt lat="43.247840" lon="-4.885620">
        <ele>481.908</ele>
        <time>2020-05-20T03:51:00Z</time>
      </trkpt>
      <trkpt lat="43.247850" lon="-4.885590">
        <ele>481.569</ele>
        <time>2020-05-20T03:51:20Z</time>
      </trkpt>
      <trkpt lat="43.247850" lon="-4.885540">
        <ele>477.854</ele>
        <time>2020-05-20T03:51:40Z</time>
      </trkpt>
      <trkpt lat="43.247860" lon="-4.885420">
        <ele>475.970</ele>
        <time>2020-05-20T03:52:00Z</time>
      </trkpt>
      <trkpt lat="43.247860" lon="-4.885340">
        <ele>473.143</ele>
        <time>2020-05-20T03:52:20Z</time>
      </trkpt>
      <trkpt lat="43.247860" lon="-4.885250">
        <ele>472.043</ele>
        <time>2020-05-20T03:52:40Z</time>
      </trkpt>
      <trkpt lat="43.247850" lon="-4.885110">
        <ele>475.833</ele>
        <time>2020-05-20T03:53:00Z</time>
      </trkpt>
      <trkpt lat="43.247850" lon="-4.885100">
        <ele>476.243</ele>
        <time>2020-05-20T03:53:20Z</time>
      </trkpt>
      <trkpt lat="43.247850" lon="-4.884970">
        <ele>477.752</ele>
        <time>2020-05-20T03:53:40Z</time>
      </trkpt>
      <trkpt lat="43.247850" lon="-4.884850">
        <ele>468.291</ele>
        <time>2020-05-20T03:54:00Z</time>
      </trkpt>
      <trkpt lat="43.247850" lon="-4.884820">
        <ele>465.981</ele>
        <time>2020-05-20T03:54:20Z</time>
      </trkpt>
      <trkpt lat="43.247840" lon="-4.884700">
        <ele>455.019</ele>
        <time>2020-05-20T03:54:40Z</time>
      </trkpt>
      <trkpt lat="43.247840" lon="-4.884620">
        <ele>449.308</ele>
        <time>2020-05-20T03:55:00Z</time>
      </trkpt>
      <trkpt lat="43.247840" lon="-4.884610">
        <ele>448.523</ele>
        <time>2020-05-20T03:55:20Z</time>
      </trkpt>
      <trkpt lat="43.247840" lon="-4.884550">
        <ele>444.228</ele>
        <time>2020-05-20T03:55:40Z</time>
      </trkpt>
      <trkpt lat="43.247840" lon="-4.884510">
        <ele>441.324</ele>
        <time>2020-05-20T03:56:00Z</time>
      </trkpt>
      <trkpt lat="43.247850" lon="-4.884420">
        <ele>436.767</ele>
        <time>2020-05-20T03:56:20Z</time>
      </trkpt>
      <trkpt lat="43.247850" lon="-4.884360">
        <ele>433.987</ele>
        <time>2020-05-20T03:56:40Z</time>
      </trkpt>
      <trkpt lat="43.247860" lon="-4.884320">
        <ele>433.237</ele>
        <time>2020-05-20T03:57:00Z</time>
      </trkpt>
      <trkpt lat="43.247870" lon="-4.884220">
        <ele>429.597</ele>
        <time>2020-05-20T03:57:20Z</time>
      </trkpt>
      <trkpt lat="43.247890" lon="-4.884150">
        <ele>428.236</ele>
        <time>2020-05-20T03:57:40Z</time>
      </trkpt>
      <trkpt lat="43.247900" lon="-4.884100">
        <ele>426.462</ele>
        <time>2020-05-20T03:58:00Z</time>
      </trkpt>
      <trkpt lat="43.247900" lon="-4.884060">
        <ele>424.183</ele>
        <time>2020-05-20T03:58:20Z</time>
      </trkpt>
      <trkpt lat="43.247910" lon="-4.884030">
        <ele>423.511</ele>
        <time>2020-05-20T03:58:40Z</time>
      </trkpt>
      <trkpt lat="43.247920" lon="-4.884000">
        <ele>422.708</ele>
        <time>2020-05-20T03:59:00Z</time>
      </trkpt>
      <trkpt lat="43.247920" lon="-4.883950">
        <ele>419.830</ele>
        <time>2020-05-20T03:59:20Z</time>
      </trkpt>
      <trkpt lat="43.247930" lon="-4.883910">
        <ele>418.555</ele>
        <time>2020-05-20T03:59:40Z</time>
      </trkpt>
      <trkpt lat="43.247930" lon="-4.883880">
        <ele>416.981</ele>
        <time>2020-05-20T04:00:00Z</time>
      </trkpt>
      <trkpt lat="43.247930" lon="-4.883870">
        <ele>416.444</ele>
        <time>2020-05-20T04:00:20Z</time>
      </trkpt>
      <trkpt lat="43.247930" lon="-4.883820">
        <ele>414.344</ele>
        <time>2020-05-20T04:00:40Z</time>
      </trkpt>
      <trkpt lat="43.247940" lon="-4.883790">
        <ele>414.074</ele>
        <time>2020-05-20T04:01:00Z</time>
      </trkpt>
      <trkpt lat="43.247940" lon="-4.883740">
        <ele>411.974</ele>
        <time>2020-05-20T04:01:20Z</time>
      </trkpt>
      <trkpt lat="43.247950" lon="-4.883710">
        <ele>411.833</ele>
        <time>2020-05-20T04:01:40Z</time>
      </trkpt>
      <trkpt lat="43.247950" lon="-4.883680">
        <ele>410.586</ele>
        <time>2020-05-20T04:02:00Z</time>
      </trkpt>
      <trkpt lat="43.247940" lon="-4.883650">
        <ele>408.160</ele>
        <time>2020-05-20T04:02:20Z</time>
      </trkpt>
      <trkpt lat="43.247940" lon="-4.883630">
        <ele>407.226</ele>
        <time>2020-05-20T04:02:40Z</time>
      </trkpt>
      <trkpt lat="43.247940" lon="-4.883600">
        <ele>405.608</ele>
        <time>2020-05-20T04:03:00Z</time>
      </trkpt>
      <trkpt lat="43.247940" lon="-4.883570">
        <ele>403.432</ele>
        <time>2020-05-20T04:03:20Z</time>
      </trkpt>
      <trkpt lat="43.247930" lon="-4.883550">
        <ele>400.517</ele>
        <time>2020-05-20T04:03:40Z</time>
      </trkpt>
      <trkpt lat="43.247930" lon="-4.883530">
        <ele>399.093</ele>
        <time>2020-05-20T04:04:00Z</time>
      </trkpt>
      <trkpt lat="43.247920" lon="-4.883510">
        <ele>396.016</ele>
        <time>2020-05-20T04:04:20Z</time>
      </trkpt>
      <trkpt lat="43.247920" lon="-4.883490">
        <ele>394.416</ele>
        <time>2020-05-20T04:04:40Z</time>
      </trkpt>
      <trkpt lat="43.247920" lon="-4.883470">
        <ele>392.836</ele>
        <time>2020-05-20T04:05:00Z</time>
      </trkpt>
      <trkpt lat="43.247910" lon="-4.883440">
        <ele>388.956</ele>
        <time>2020-05-20T04:05:20Z</time>
      </trkpt>
      <trkpt lat="43.247910" lon="-4.883420">
        <ele>387.325</ele>
        <time>2020-05-20T04:05:40Z</time>
      </trkpt>
      <trkpt lat="43.247910" lon="-4.883410">
        <ele>386.527</ele>
        <time>2020-05-20T04:06:00Z</time>
      </trkpt>
      <trkpt lat="43.247910" lon="-4.883400">
        <ele>385.768</ele>
        <time>2020-05-20T04:06:20Z</time>
      </trkpt>
      <trkpt lat="43.247910" lon="-4.883390">
        <ele>384.914</ele>
        <time>2020-05-20T04:06:40Z</time>
      </trkpt>
      <trkpt lat="43.247920" lon="-4.883380">
        <ele>385.808</ele>
        <time>2020-05-20T04:07:00Z</time>
      </trkpt>
      <trkpt lat="43.247920" lon="-4.883370">
        <ele>385.056</ele>
        <time>2020-05-20T04:07:20Z</time>
      </trkpt>
      <trkpt lat="43.247930" lon="-4.883370">
        <ele>386.741</ele>
        <time>2020-05-20T04:07:40Z</time>
      </trkpt>
      <trkpt lat="43.247940" lon="-4.883370">
        <ele>388.417</ele>
        <time>2020-05-20T04:08:00Z</time>
      </trkpt>
      <trkpt lat="43.247960" lon="-4.883360">
        <ele>391.070</ele>
        <time>2020-05-20T04:08:20Z</time>
      </trkpt>
      <trkpt lat="43.247970" lon="-4.883360">
        <ele>392.840</ele>
        <time>2020-05-20T04:08:40Z</time>
      </trkpt>
      <trkpt lat="43.247990" lon="-4.883360">
        <ele>396.260</ele>
        <time>2020-05-20T04:09:00Z</time>
      </trkpt>
      <trkpt lat="43.248010" lon="-4.883360">
        <ele>399.670</ele>
        <time>2020-05-20T04:09:20Z</time>
      </trkpt>
      <trkpt lat="43.248020" lon="-4.883360">
        <ele>401.349</ele>
        <time>2020-05-20T04:09:40Z</time>
      </trkpt>
      <trkpt lat="43.248040" lon="-4.883360">
        <ele>404.895</ele>
        <time>2020-05-20T04:10:00Z</time>
      </trkpt>
      <trkpt lat="43.248060" lon="-4.883360">
        <ele>407.749</ele>
        <time>2020-05-20T04:10:20Z</time>
      </trkpt>
      <trkpt lat="43.248080" lon="-4.883350">
        <ele>408.123</ele>
        <time>2020-05-20T04:10:40Z</time>
      </trkpt>
      <trkpt lat="43.248090" lon="-4.883340">
        <ele>408.008</ele>
        <time>2020-05-20T04:11:00Z</time>
      </trkpt>
      <trkpt lat="43.248110" lon="-4.883330">
        <ele>408.363</ele>
        <time>2020-05-20T04:11:20Z</time>
      </trkpt>
      <trkpt lat="43.248130" lon="-4.883320">
        <ele>408.668</ele>
        <time>2020-05-20T04:11:40Z</time>
      </trkpt>
      <trkpt lat="43.248150" lon="-4.883310">
        <ele>409.034</ele>
        <time>2020-05-20T04:12:00Z</time>
      </trkpt>
      <trkpt lat="43.248170" lon="-4.883290">
        <ele>408.767</ele>
        <time>2020-05-20T04:12:20Z</time>
      </trkpt>
      <trkpt lat="43.248190" lon="-4.883280">
        <ele>409.137</ele>
        <time>2020-05-20T04:12:40Z</time>
      </trkpt>
      <trkpt lat="43.248230" lon="-4.883250">
        <ele>409.467</ele>
        <time>2020-05-20T04:13:00Z</time>
      </trkpt>
      <trkpt lat="43.248260" lon="-4.883230">
        <ele>409.927</ele>
        <time>2020-05-20T04:13:20Z</time>
      </trkpt>
      <trkpt lat="43.248280" lon="-4.883210">
        <ele>409.976</ele>
        <time>2020-05-20T04:13:40Z</time>
      </trkpt>
      <trkpt lat="43.248290" lon="-4.883200">
        <ele>409.929</ele>
        <time>2020-05-20T04:14:00Z</time>
      </trkpt>
      <trkpt lat="43.248300" lon="-4.883190">
        <ele>409.900</ele>
        <time>2020-05-20T04:14:20Z</time>
      </trkpt>
      <trkpt lat="43.248320" lon="-4.883170">
        <ele>410.020</ele>
        <time>2020-05-20T04:14:40Z</time>
      </trkpt>
      <trkpt lat="43.248330" lon="-4.883160">
        <ele>410.108</ele>
        <time>2020-05-20T04:15:00Z</time>
      </trkpt>
      <trkpt lat="43.248330" lon="-4.883140">
        <ele>409.186</ele>
        <time>2020-05-20T04:15:20Z</time>
      </trkpt>
      <trkpt lat="43.248340" lon="-4.883130">
        <ele>408.941</ele>
        <time>2020-05-20T04:15:40Z</time>
      </trkpt>
      <trkpt lat="43.248340" lon="-4.883110">
        <ele>407.957</ele>
        <time>2020-05-20T04:16:00Z</time>
      </trkpt>
      <trkpt lat="43.248350" lon="-4.883100">
        <ele>407.710</ele>
        <time>2020-05-20T04:16:20Z</time>
      </trkpt>
      <trkpt lat="43.248350" lon="-4.883080">
        <ele>406.670</ele>
        <time>2020-05-20T04:16:40Z</time>
      </trkpt>
      <trkpt lat="43.248350" lon="-4.883070">
        <ele>406.140</ele>
        <time>2020-05-20T04:17:00Z</time>
      </trkpt>
      <trkpt lat="43.248350" lon="-4.883060">
        <ele>405.620</ele>
        <time>2020-05-20T04:17:20Z</time>
      </trkpt>
      <trkpt lat="43.248350" lon="-4.883050">
        <ele>405.199</ele>
        <time>2020-05-20T04:17:40Z</time>
      </trkpt>
      <trkpt lat="43.248350" lon="-4.883040">
        <ele>404.697</ele>
        <time>2020-05-20T04:18:00Z</time>
      </trkpt>
      <trkpt lat="43.248360" lon="-4.883030">
        <ele>404.223</ele>
        <time>2020-05-20T04:18:20Z</time>
      </trkpt>
      <trkpt lat="43.248360" lon="-4.883020">
        <ele>403.725</ele>
        <time>2020-05-20T04:18:40Z</time>
      </trkpt>
      <trkpt lat="43.248380" lon="-4.883010">
        <ele>403.508</ele>
        <time>2020-05-20T04:19:00Z</time>
      </trkpt>
      <trkpt lat="43.248400" lon="-4.882990">
        <ele>402.893</ele>
        <time>2020-05-20T04:19:20Z</time>
      </trkpt>
      <trkpt lat="43.248420" lon="-4.882980">
        <ele>402.698</ele>
        <time>2020-05-20T04:19:40Z</time>
      </trkpt>
      <trkpt lat="43.248440" lon="-4.882960">
        <ele>401.724</ele>
        <time>2020-05-20T04:20:00Z</time>
      </trkpt>
      <trkpt lat="43.248450" lon="-4.882950">
        <ele>401.237</ele>
        <time>2020-05-20T04:20:20Z</time>
      </trkpt>
      <trkpt lat="43.248470" lon="-4.882940">
        <ele>400.967</ele>
        <time>2020-05-20T04:20:40Z</time>
      </trkpt>
      <trkpt lat="43.248500" lon="-4.882940">
        <ele>401.347</ele>
        <time>2020-05-20T04:21:00Z</time>
      </trkpt>
      <trkpt lat="43.248510" lon="-4.882950">
        <ele>402.067</ele>
        <time>2020-05-20T04:21:20Z</time>
      </trkpt>
      <trkpt lat="43.248530" lon="-4.882950">
        <ele>402.396</ele>
        <time>2020-05-20T04:21:40Z</time>
      </trkpt>
      <trkpt lat="43.248540" lon="-4.882960">
        <ele>403.118</ele>
        <time>2020-05-20T04:22:00Z</time>
      </trkpt>
      <trkpt lat="43.248550" lon="-4.882960">
        <ele>403.398</ele>
        <time>2020-05-20T04:22:20Z</time>
      </trkpt>
      <trkpt lat="43.248560" lon="-4.882970">
        <ele>404.117</ele>
        <time>2020-05-20T04:22:40Z</time>
      </trkpt>
      <trkpt lat="43.248580" lon="-4.882990">
        <ele>405.808</ele>
        <time>2020-05-20T04:23:00Z</time>
      </trkpt>
      <trkpt lat="43.248590" lon="-4.883010">
        <ele>407.375</ele>
        <time>2020-05-20T04:23:20Z</time>
      </trkpt>
      <trkpt lat="43.248600" lon="-4.883020">
        <ele>408.290</ele>
        <time>2020-05-20T04:23:40Z</time>
      </trkpt>
      <trkpt lat="43.248610" lon="-4.883040">
        <ele>409.946</ele>
        <time>2020-05-20T04:24:00Z</time>
      </trkpt>
      <trkpt lat="43.248640" lon="-4.883070">
        <ele>410.669</ele>
        <time>2020-05-20T04:24:20Z</time>
      </trkpt>
      <trkpt lat="43.248670" lon="-4.883100">
        <ele>411.299</ele>
        <time>2020-05-20T04:24:40Z</time>
      </trkpt>
      <trkpt lat="43.248690" lon="-4.883130">
        <ele>412.379</ele>
        <time>2020-05-20T04:25:00Z</time>
      </trkpt>
      <trkpt lat="43.248710" lon="-4.883150">
        <ele>412.589</ele>
        <time>2020-05-20T04:25:20Z</time>
      </trkpt>
      <trkpt lat="43.248730" lon="-4.883170">
        <ele>412.838</ele>
        <time>2020-05-20T04:25:40Z</time>
      </trkpt>
      <trkpt lat="43.248750" lon="-4.883180">
        <ele>412.226</ele>
        <time>2020-05-20T04:26:00Z</time>
      </trkpt>
      <trkpt lat="43.248760" lon="-4.883180">
        <ele>411.647</ele>
        <time>2020-05-20T04:26:20Z</time>
      </trkpt>
      <trkpt lat="43.248770" lon="-4.883190">
        <ele>411.711</ele>
        <time>2020-05-20T04:26:40Z</time>
      </trkpt>
      <trkpt lat="43.248780" lon="-4.883190">
        <ele>411.108</ele>
        <time>2020-05-20T04:27:00Z</time>
      </trkpt>
      <trkpt lat="43.248800" lon="-4.883190">
        <ele>409.866</ele>
        <time>2020-05-20T04:27:20Z</time>
      </trkpt>
      <trkpt lat="43.248810" lon="-4.883200">
        <ele>409.851</ele>
        <time>2020-05-20T04:27:40Z</time>
      </trkpt>
      <trkpt lat="43.248830" lon="-4.883210">
        <ele>409.237</ele>
        <time>2020-05-20T04:28:00Z</time>
      </trkpt>
      <trkpt lat="43.248840" lon="-4.883220">
        <ele>409.230</ele>
        <time>2020-05-20T04:28:20Z</time>
      </trkpt>
      <trkpt lat="43.248860" lon="-4.883230">
        <ele>408.650</ele>
        <time>2020-05-20T04:28:40Z</time>
      </trkpt>
      <trkpt lat="43.248870" lon="-4.883250">
        <ele>409.210</ele>
        <time>2020-05-20T04:29:00Z</time>
      </trkpt>
      <trkpt lat="43.248890" lon="-4.883270">
        <ele>409.160</ele>
        <time>2020-05-20T04:29:20Z</time>
      </trkpt>
      <trkpt lat="43.248900" lon="-4.883290">
        <ele>410.229</ele>
        <time>2020-05-20T04:29:40Z</time>
      </trkpt>
      <trkpt lat="43.248920" lon="-4.883310">
        <ele>411.257</ele>
        <time>2020-05-20T04:30:00Z</time>
      </trkpt>
      <trkpt lat="43.248940" lon="-4.883340">
        <ele>412.800</ele>
        <time>2020-05-20T04:30:20Z</time>
      </trkpt>
      <trkpt lat="43.248950" lon="-4.883350">
        <ele>413.320</ele>
        <time>2020-05-20T04:30:40Z</time>
      </trkpt>
      <trkpt lat="43.248980" lon="-4.883370">
        <ele>414.208</ele>
        <time>2020-05-20T04:31:00Z</time>
      </trkpt>
      <trkpt lat="43.248980" lon="-4.883380">
        <ele>414.819</ele>
        <time>2020-05-20T04:31:20Z</time>
      </trkpt>
      <trkpt lat="43.249000" lon="-4.883390">
        <ele>415.074</ele>
        <time>2020-05-20T04:31:40Z</time>
      </trkpt>
      <trkpt lat="43.249020" lon="-4.883410">
        <ele>415.870</ele>
        <time>2020-05-20T04:32:00Z</time>
      </trkpt>
      <trkpt lat="43.249040" lon="-4.883420">
        <ele>415.813</ele>
        <time>2020-05-20T04:32:20Z</time>
      </trkpt>
      <trkpt lat="43.249060" lon="-4.883440">
        <ele>416.353</ele>
        <time>2020-05-20T04:32:40Z</time>
      </trkpt>
      <trkpt lat="43.249070" lon="-4.883450">
        <ele>416.523</ele>
        <time>2020-05-20T04:33:00Z</time>
      </trkpt>
      <trkpt lat="43.249090" lon="-4.883460">
        <ele>416.363</ele>
        <time>2020-05-20T04:33:20Z</time>
      </trkpt>
      <trkpt lat="43.249110" lon="-4.883470">
        <ele>416.032</ele>
        <time>2020-05-20T04:33:40Z</time>
      </trkpt>
      <trkpt lat="43.249130" lon="-4.883480">
        <ele>415.764</ele>
        <time>2020-05-20T04:34:00Z</time>
      </trkpt>
      <trkpt lat="43.249140" lon="-4.883480">
        <ele>415.306</ele>
        <time>2020-05-20T04:34:20Z</time>
      </trkpt>
      <trkpt lat="43.249160" lon="-4.883490">
        <ele>414.916</ele>
        <time>2020-05-20T04:34:40Z</time>
      </trkpt>
      <trkpt lat="43.249170" lon="-4.883490">
        <ele>414.808</ele>
        <time>2020-05-20T04:35:00Z</time>
      </trkpt>
      <trkpt lat="43.249190" lon="-4.883490">
        <ele>416.050</ele>
        <time>2020-05-20T04:35:20Z</time>
      </trkpt>
      <trkpt lat="43.249210" lon="-4.883490">
        <ele>417.225</ele>
        <time>2020-05-20T04:35:40Z</time>
      </trkpt>
      <trkpt lat="43.249230" lon="-4.883490">
        <ele>418.381</ele>
        <time>2020-05-20T04:36:00Z</time>
      </trkpt>
      <trkpt lat="43.249250" lon="-4.883490">
        <ele>419.564</ele>
        <time>2020-05-20T04:36:20Z</time>
      </trkpt>
      <trkpt lat="43.249260" lon="-4.883480">
        <ele>419.844</ele>
        <time>2020-05-20T04:36:40Z</time>
      </trkpt>
      <trkpt lat="43.249280" lon="-4.883470">
        <ele>420.744</ele>
        <time>2020-05-20T04:37:00Z</time>
      </trkpt>
      <trkpt lat="43.249290" lon="-4.883460">
        <ele>421.084</ele>
        <time>2020-05-20T04:37:20Z</time>
      </trkpt>
      <trkpt lat="43.249310" lon="-4.883440">
        <ele>421.773</ele>
        <time>2020-05-20T04:37:40Z</time>
      </trkpt>
      <trkpt lat="43.249320" lon="-4.883430">
        <ele>422.022</ele>
        <time>2020-05-20T04:38:00Z</time>
      </trkpt>
      <trkpt lat="43.249360" lon="-4.883380">
        <ele>423.362</ele>
        <time>2020-05-20T04:38:20Z</time>
      </trkpt>
      <trkpt lat="43.249380" lon="-4.883350">
        <ele>424.008</ele>
        <time>2020-05-20T04:38:40Z</time>
      </trkpt>
      <trkpt lat="43.249400" lon="-4.883320">
        <ele>424.908</ele>
        <time>2020-05-20T04:39:00Z</time>
      </trkpt>
      <trkpt lat="43.249420" lon="-4.883290">
        <ele>426.136</ele>
        <time>2020-05-20T04:39:20Z</time>
      </trkpt>
      <trkpt lat="43.249440" lon="-4.883270">
        <ele>427.491</ele>
        <time>2020-05-20T04:39:40Z</time>
      </trkpt>
      <trkpt lat="43.249460" lon="-4.883250">
        <ele>429.127</ele>
        <time>2020-05-20T04:40:00Z</time>
      </trkpt>
      <trkpt lat="43.249490" lon="-4.883240">
        <ele>431.870</ele>
        <time>2020-05-20T04:40:20Z</time>
      </trkpt>
      <trkpt lat="43.249510" lon="-4.883220">
        <ele>433.420</ele>
        <time>2020-05-20T04:40:40Z</time>
      </trkpt>
      <trkpt lat="43.249520" lon="-4.883210">
        <ele>434.330</ele>
        <time>2020-05-20T04:41:00Z</time>
      </trkpt>
      <trkpt lat="43.249530" lon="-4.883200">
        <ele>435.130</ele>
        <time>2020-05-20T04:41:20Z</time>
      </trkpt>
      <trkpt lat="43.249550" lon="-4.883190">
        <ele>436.859</ele>
        <time>2020-05-20T04:41:40Z</time>
      </trkpt>
      <trkpt lat="43.249560" lon="-4.883170">
        <ele>437.526</ele>
        <time>2020-05-20T04:42:00Z</time>
      </trkpt>
      <trkpt lat="43.249570" lon="-4.883150">
        <ele>438.247</ele>
        <time>2020-05-20T04:42:20Z</time>
      </trkpt>
      <trkpt lat="43.249580" lon="-4.883140">
        <ele>439.011</ele>
        <time>2020-05-20T04:42:40Z</time>
      </trkpt>
      <trkpt lat="43.249580" lon="-4.883120">
        <ele>438.808</ele>
        <time>2020-05-20T04:43:00Z</time>
      </trkpt>
      <trkpt lat="43.249590" lon="-4.883090">
        <ele>439.466</ele>
        <time>2020-05-20T04:43:20Z</time>
      </trkpt>
      <trkpt lat="43.249590" lon="-4.883060">
        <ele>439.141</ele>
        <time>2020-05-20T04:43:40Z</time>
      </trkpt>
      <trkpt lat="43.249590" lon="-4.883030">
        <ele>438.597</ele>
        <time>2020-05-20T04:44:00Z</time>
      </trkpt>
      <trkpt lat="43.249600" lon="-4.882990">
        <ele>438.620</ele>
        <time>2020-05-20T04:44:20Z</time>
      </trkpt>
      <trkpt lat="43.249600" lon="-4.882940">
        <ele>437.620</ele>
        <time>2020-05-20T04:44:40Z</time>
      </trkpt>
      <trkpt lat="43.249610" lon="-4.882900">
        <ele>437.990</ele>
        <time>2020-05-20T04:45:00Z</time>
      </trkpt>
      <trkpt lat="43.249630" lon="-4.882890">
        <ele>439.840</ele>
        <time>2020-05-20T04:45:20Z</time>
      </trkpt>
      <trkpt lat="43.249660" lon="-4.882890">
        <ele>442.979</ele>
        <time>2020-05-20T04:45:40Z</time>
      </trkpt>
      <trkpt lat="43.249680" lon="-4.882880">
        <ele>444.935</ele>
        <time>2020-05-20T04:46:00Z</time>
      </trkpt>
      <trkpt lat="43.249700" lon="-4.882890">
        <ele>447.186</ele>
        <time>2020-05-20T04:46:20Z</time>
      </trkpt>
      <trkpt lat="43.249730" lon="-4.882890">
        <ele>450.714</ele>
        <time>2020-05-20T04:46:40Z</time>
      </trkpt>
      <trkpt lat="43.249750" lon="-4.882890">
        <ele>453.908</ele>
        <time>2020-05-20T04:47:00Z</time>
      </trkpt>
      <trkpt lat="43.249780" lon="-4.882880">
        <ele>458.787</ele>
        <time>2020-05-20T04:47:20Z</time>
      </trkpt>
      <trkpt lat="43.249790" lon="-4.882880">
        <ele>460.312</ele>
        <time>2020-05-20T04:47:40Z</time>
      </trkpt>
      <trkpt lat="43.249800" lon="-4.882870">
        <ele>461.768</ele>
        <time>2020-05-20T04:48:00Z</time>
      </trkpt>
      <trkpt lat="43.249820" lon="-4.882860">
        <ele>464.841</ele>
        <time>2020-05-20T04:48:20Z</time>
      </trkpt>
      <trkpt lat="43.249830" lon="-4.882840">
        <ele>466.071</ele>
        <time>2020-05-20T04:48:40Z</time>
      </trkpt>
      <trkpt lat="43.249840" lon="-4.882820">
        <ele>467.241</ele>
        <time>2020-05-20T04:49:00Z</time>
      </trkpt>
      <trkpt lat="43.249850" lon="-4.882800">
        <ele>468.351</ele>
        <time>2020-05-20T04:49:20Z</time>
      </trkpt>
      <trkpt lat="43.249860" lon="-4.882760">
        <ele>469.580</ele>
        <time>2020-05-20T04:49:40Z</time>
      </trkpt>
      <trkpt lat="43.249870" lon="-4.882740">
        <ele>471.225</ele>
        <time>2020-05-20T04:50:00Z</time>
      </trkpt>
      <trkpt lat="43.249870" lon="-4.882720">
        <ele>471.426</ele>
        <time>2020-05-20T04:50:20Z</time>
      </trkpt>
      <trkpt lat="43.249880" lon="-4.882700">
        <ele>473.208</ele>
        <time>2020-05-20T04:50:40Z</time>
      </trkpt>
      <trkpt lat="43.249880" lon="-4.882680">
        <ele>473.408</ele>
        <time>2020-05-20T04:51:00Z</time>
      </trkpt>
      <trkpt lat="43.249880" lon="-4.882660">
        <ele>473.616</ele>
        <time>2020-05-20T04:51:20Z</time>
      </trkpt>
      <trkpt lat="43.249880" lon="-4.882630">
        <ele>474.081</ele>
        <time>2020-05-20T04:51:40Z</time>
      </trkpt>
      <trkpt lat="43.249870" lon="-4.882570">
        <ele>473.177</ele>
        <time>2020-05-20T04:52:00Z</time>
      </trkpt>
      <trkpt lat="43.249860" lon="-4.882500">
        <ele>472.330</ele>
        <time>2020-05-20T04:52:20Z</time>
      </trkpt>
      <trkpt lat="43.249840" lon="-4.882430">
        <ele>464.860</ele>
        <time>2020-05-20T04:52:40Z</time>
      </trkpt>
      <trkpt lat="43.249830" lon="-4.882420">
        <ele>462.610</ele>
        <time>2020-05-20T04:53:00Z</time>
      </trkpt>
      <trkpt lat="43.249820" lon="-4.882360">
        <ele>457.240</ele>
        <time>2020-05-20T04:53:20Z</time>
      </trkpt>
      <trkpt lat="43.249780" lon="-4.882260">
        <ele>444.649</ele>
        <time>2020-05-20T04:53:40Z</time>
      </trkpt>
      <trkpt lat="43.249750" lon="-4.882170">
        <ele>434.246</ele>
        <time>2020-05-20T04:54:00Z</time>
      </trkpt>
      <trkpt lat="43.249720" lon="-4.882060">
        <ele>423.488</ele>
        <time>2020-05-20T04:54:20Z</time>
      </trkpt>
      <trkpt lat="43.249700" lon="-4.881960">
        <ele>415.716</ele>
        <time>2020-05-20T04:54:40Z</time>
      </trkpt>
      <trkpt lat="43.249710" lon="-4.881900">
        <ele>415.408</ele>
        <time>2020-05-20T04:55:00Z</time>
      </trkpt>
      <trkpt lat="43.249720" lon="-4.881840">
        <ele>415.718</ele>
        <time>2020-05-20T04:55:20Z</time>
      </trkpt>
      <trkpt lat="43.249720" lon="-4.881770">
        <ele>414.973</ele>
        <time>2020-05-20T04:55:40Z</time>
      </trkpt>
      <trkpt lat="43.249720" lon="-4.881720">
        <ele>414.439</ele>
        <time>2020-05-20T04:56:00Z</time>
      </trkpt>
      <trkpt lat="43.249720" lon="-4.881710">
        <ele>414.352</ele>
        <time>2020-05-20T04:56:20Z</time>
      </trkpt>
      <trkpt lat="43.249720" lon="-4.881670">
        <ele>413.982</ele>
        <time>2020-05-20T04:56:40Z</time>
      </trkpt>
      <trkpt lat="43.249720" lon="-4.881620">
        <ele>412.082</ele>
        <time>2020-05-20T04:57:00Z</time>
      </trkpt>
      <trkpt lat="43.249730" lon="-4.881590">
        <ele>411.412</ele>
        <time>2020-05-20T04:57:20Z</time>
      </trkpt>
      <trkpt lat="43.249730" lon="-4.881550">
        <ele>409.851</ele>
        <time>2020-05-20T04:57:40Z</time>
      </trkpt>
      <trkpt lat="43.249740" lon="-4.881530">
        <ele>409.618</ele>
        <time>2020-05-20T04:58:00Z</time>
      </trkpt>
      <trkpt lat="43.249750" lon="-4.881520">
        <ele>409.798</ele>
        <time>2020-05-20T04:58:20Z</time>
      </trkpt>
      <trkpt lat="43.249760" lon="-4.881500">
        <ele>409.317</ele>
        <time>2020-05-20T04:58:40Z</time>
      </trkpt>
      <trkpt lat="43.249770" lon="-4.881490">
        <ele>409.408</ele>
        <time>2020-05-20T04:59:00Z</time>
      </trkpt>
      <trkpt lat="43.249790" lon="-4.881490">
        <ele>410.495</ele>
        <time>2020-05-20T04:59:20Z</time>
      </trkpt>
      <trkpt lat="43.249810" lon="-4.881480">
        <ele>410.970</ele>
        <time>2020-05-20T04:59:40Z</time>
      </trkpt>
      <trkpt lat="43.249820" lon="-4.881480">
        <ele>411.456</ele>
        <time>2020-05-20T05:00:00Z</time>
      </trkpt>
      <trkpt lat="43.249830" lon="-4.881480">
        <ele>411.929</ele>
        <time>2020-05-20T05:00:20Z</time>
      </trkpt>
      <trkpt lat="43.249840" lon="-4.881490">
        <ele>412.969</ele>
        <time>2020-05-20T05:00:40Z</time>
      </trkpt>
      <trkpt lat="43.249850" lon="-4.881490">
        <ele>413.469</ele>
        <time>2020-05-20T05:01:00Z</time>
      </trkpt>
      <trkpt lat="43.249870" lon="-4.881500">
        <ele>415.089</ele>
        <time>2020-05-20T05:01:20Z</time>
      </trkpt>
      <trkpt lat="43.249880" lon="-4.881510">
        <ele>416.098</ele>
        <time>2020-05-20T05:01:40Z</time>
      </trkpt>
      <trkpt lat="43.249900" lon="-4.881520">
        <ele>417.639</ele>
        <time>2020-05-20T05:02:00Z</time>
      </trkpt>
      <trkpt lat="43.249910" lon="-4.881530">
        <ele>418.801</ele>
        <time>2020-05-20T05:02:20Z</time>
      </trkpt>
      <trkpt lat="43.249940" lon="-4.881540">
        <ele>421.021</ele>
        <time>2020-05-20T05:02:40Z</time>
      </trkpt>
      <trkpt lat="43.249940" lon="-4.881550">
        <ele>421.608</ele>
        <time>2020-05-20T05:03:00Z</time>
      </trkpt>
      <trkpt lat="43.249950" lon="-4.881560">
        <ele>422.847</ele>
        <time>2020-05-20T05:03:20Z</time>
      </trkpt>
      <trkpt lat="43.249970" lon="-4.881580">
        <ele>425.342</ele>
        <time>2020-05-20T05:03:40Z</time>
      </trkpt>
      <trkpt lat="43.249990" lon="-4.881610">
        <ele>428.578</ele>
        <time>2020-05-20T05:04:00Z</time>
      </trkpt>
      <trkpt lat="43.250010" lon="-4.881630">
        <ele>432.161</ele>
        <time>2020-05-20T05:04:20Z</time>
      </trkpt>
      <trkpt lat="43.250040" lon="-4.881650">
        <ele>438.361</ele>
        <time>2020-05-20T05:04:40Z</time>
      </trkpt>
      <trkpt lat="43.250060" lon="-4.881670">
        <ele>442.961</ele>
        <time>2020-05-20T05:05:00Z</time>
      </trkpt>
      <trkpt lat="43.250080" lon="-4.881690">
        <ele>447.591</ele>
        <time>2020-05-20T05:05:20Z</time>
      </trkpt>
      <trkpt lat="43.250090" lon="-4.881690">
        <ele>449.150</ele>
        <time>2020-05-20T05:05:40Z</time>
      </trkpt>
      <trkpt lat="43.250100" lon="-4.881700">
        <ele>451.357</ele>
        <time>2020-05-20T05:06:00Z</time>
      </trkpt>
      <trkpt lat="43.250120" lon="-4.881710">
        <ele>455.100</ele>
        <time>2020-05-20T05:06:20Z</time>
      </trkpt>
      <trkpt lat="43.250140" lon="-4.881720">
        <ele>458.920</ele>
        <time>2020-05-20T05:06:40Z</time>
      </trkpt>
      <trkpt lat="43.250150" lon="-4.881730">
        <ele>461.108</ele>
        <time>2020-05-20T05:07:00Z</time>
      </trkpt>
      <trkpt lat="43.250180" lon="-4.881740">
        <ele>466.519</ele>
        <time>2020-05-20T05:07:20Z</time>
      </trkpt>
      <trkpt lat="43.250210" lon="-4.881750">
        <ele>471.894</ele>
        <time>2020-05-20T05:07:40Z</time>
      </trkpt>
      <trkpt lat="43.250250" lon="-4.881760">
        <ele>478.770</ele>
        <time>2020-05-20T05:08:00Z</time>
      </trkpt>
      <trkpt lat="43.250300" lon="-4.881770">
        <ele>491.423</ele>
        <time>2020-05-20T05:08:20Z</time>
      </trkpt>
      <trkpt lat="43.250350" lon="-4.881780">
        <ele>509.543</ele>
        <time>2020-05-20T05:08:40Z</time>
      </trkpt>
      <trkpt lat="43.250400" lon="-4.881780">
        <ele>527.113</ele>
        <time>2020-05-20T05:09:00Z</time>
      </trkpt>
      <trkpt lat="43.250440" lon="-4.881790">
        <ele>541.673</ele>
        <time>2020-05-20T05:09:20Z</time>
      </trkpt>
      <trkpt lat="43.250490" lon="-4.881800">
        <ele>559.722</ele>
        <time>2020-05-20T05:09:40Z</time>
      </trkpt>
      <trkpt lat="43.250530" lon="-4.881800">
        <ele>573.757</ele>
        <time>2020-05-20T05:10:00Z</time>
      </trkpt>
      <trkpt lat="43.250550" lon="-4.881810">
        <ele>581.300</ele>
        <time>2020-05-20T05:10:20Z</time>
      </trkpt>
      <trkpt lat="43.250560" lon="-4.881810">
        <ele>583.820</ele>
        <time>2020-05-20T05:10:40Z</time>
      </trkpt>
      <trkpt lat="43.250580" lon="-4.881810">
        <ele>586.208</ele>
        <time>2020-05-20T05:11:00Z</time>
      </trkpt>
      <trkpt lat="43.250590" lon="-4.881810">
        <ele>587.459</ele>
        <time>2020-05-20T05:11:20Z</time>
      </trkpt>
      <trkpt lat="43.250600" lon="-4.881810">
        <ele>588.774</ele>
        <time>2020-05-20T05:11:40Z</time>
      </trkpt>
      <trkpt lat="43.250610" lon="-4.881810">
        <ele>589.920</ele>
        <time>2020-05-20T05:12:00Z</time>
      </trkpt>
      <trkpt lat="43.250620" lon="-4.881810">
        <ele>591.123</ele>
        <time>2020-05-20T05:12:20Z</time>
      </trkpt>
      <trkpt lat="43.250630" lon="-4.881810">
        <ele>592.333</ele>
        <time>2020-05-20T05:12:40Z</time>
      </trkpt>
      <trkpt lat="43.250640" lon="-4.881800">
        <ele>593.093</ele>
        <time>2020-05-20T05:13:00Z</time>
      </trkpt>
      <trkpt lat="43.250650" lon="-4.881790">
        <ele>593.723</ele>
        <time>2020-05-20T05:13:20Z</time>
      </trkpt>
      <trkpt lat="43.250650" lon="-4.881780">
        <ele>593.292</ele>
        <time>2020-05-20T05:13:40Z</time>
      </trkpt>
      <trkpt lat="43.250660" lon="-4.881760">
        <ele>593.424</ele>
        <time>2020-05-20T05:14:00Z</time>
      </trkpt>
      <trkpt lat="43.250670" lon="-4.881750">
        <ele>594.004</ele>
        <time>2020-05-20T05:14:20Z</time>
      </trkpt>
      <trkpt lat="43.250670" lon="-4.881740">
        <ele>593.514</ele>
        <time>2020-05-20T05:14:40Z</time>
      </trkpt>
      <trkpt lat="43.250670" lon="-4.881720">
        <ele>592.408</ele>
        <time>2020-05-20T05:15:00Z</time>
      </trkpt>
      <trkpt lat="43.250680" lon="-4.881710">
        <ele>593.116</ele>
        <time>2020-05-20T05:15:20Z</time>
      </trkpt>
      <trkpt lat="43.250680" lon="-4.881690">
        <ele>592.041</ele>
        <time>2020-05-20T05:15:40Z</time>
      </trkpt>
      <trkpt lat="43.250680" lon="-4.881670">
        <ele>591.057</ele>
        <time>2020-05-20T05:16:00Z</time>
      </trkpt>
      <trkpt lat="43.250680" lon="-4.881650">
        <ele>589.780</ele>
        <time>2020-05-20T05:16:20Z</time>
      </trkpt>
      <trkpt lat="43.250670" lon="-4.881620">
        <ele>586.410</ele>
        <time>2020-05-20T05:16:40Z</time>
      </trkpt>
      <trkpt lat="43.250660" lon="-4.881610">
        <ele>584.530</ele>
        <time>2020-05-20T05:17:00Z</time>
      </trkpt>
      <trkpt lat="43.250660" lon="-4.881600">
        <ele>583.880</ele>
        <time>2020-05-20T05:17:20Z</time>
      </trkpt>
      <trkpt lat="43.250640" lon="-4.881570">
        <ele>579.399</ele>
        <time>2020-05-20T05:17:40Z</time>
      </trkpt>
      <trkpt lat="43.250620" lon="-4.881540">
        <ele>574.652</ele>
        <time>2020-05-20T05:18:00Z</time>
      </trkpt>
      <trkpt lat="43.250590" lon="-4.881510">
        <ele>568.653</ele>
        <time>2020-05-20T05:18:20Z</time>
      </trkpt>
      <trkpt lat="43.250560" lon="-4.881470">
        <ele>561.708</ele>
        <time>2020-05-20T05:18:40Z</time>
      </trkpt>
      <trkpt lat="43.250540" lon="-4.881430">
        <ele>552.708</ele>
        <time>2020-05-20T05:19:00Z</time>
      </trkpt>
      <trkpt lat="43.250410" lon="-4.881260">
        <ele>498.339</ele>
        <time>2020-05-20T05:19:20Z</time>
      </trkpt>
      <trkpt lat="43.250410" lon="-4.881250">
        <ele>497.874</ele>
        <time>2020-05-20T05:19:40Z</time>
      </trkpt>
      <trkpt lat="43.250280" lon="-4.881100">
        <ele>451.030</ele>
        <time>2020-05-20T05:20:00Z</time>
      </trkpt>
      <trkpt lat="43.250140" lon="-4.880930">
        <ele>435.383</ele>
        <time>2020-05-20T05:20:20Z</time>
      </trkpt>
      <trkpt lat="43.250130" lon="-4.880910">
        <ele>434.893</ele>
        <time>2020-05-20T05:20:40Z</time>
      </trkpt>
      <trkpt lat="43.250000" lon="-4.880740">
        <ele>425.713</ele>
        <time>2020-05-20T05:21:00Z</time>
      </trkpt>
      <trkpt lat="43.249880" lon="-4.880590">
        <ele>409.843</ele>
        <time>2020-05-20T05:21:20Z</time>
      </trkpt>
      <trkpt lat="43.249860" lon="-4.880570">
        <ele>406.872</ele>
        <time>2020-05-20T05:21:40Z</time>
      </trkpt>
      <trkpt lat="43.249750" lon="-4.880430">
        <ele>401.032</ele>
        <time>2020-05-20T05:22:00Z</time>
      </trkpt>
      <trkpt lat="43.249750" lon="-4.880420">
        <ele>402.192</ele>
        <time>2020-05-20T05:22:20Z</time>
      </trkpt>
      <trkpt lat="43.249670" lon="-4.880280">
        <ele>404.111</ele>
        <time>2020-05-20T05:22:40Z</time>
      </trkpt>
      <trkpt lat="43.249640" lon="-4.880230">
        <ele>403.508</ele>
        <time>2020-05-20T05:23:00Z</time>
      </trkpt>
      <trkpt lat="43.249600" lon="-4.880160">
        <ele>403.597</ele>
        <time>2020-05-20T05:23:20Z</time>
      </trkpt>
      <trkpt lat="43.249550" lon="-4.880030">
        <ele>409.412</ele>
        <time>2020-05-20T05:23:40Z</time>
      </trkpt>
      <trkpt lat="43.249540" lon="-4.880020">
        <ele>408.878</ele>
        <time>2020-05-20T05:24:00Z</time>
      </trkpt>
      <trkpt lat="43.249490" lon="-4.879890">
        <ele>411.221</ele>
        <time>2020-05-20T05:24:20Z</time>
      </trkpt>
      <trkpt lat="43.249460" lon="-4.879800">
        <ele>413.811</ele>
        <time>2020-05-20T05:24:40Z</time>
      </trkpt>
      <trkpt lat="43.249460" lon="-4.879770">
        <ele>416.361</ele>
        <time>2020-05-20T05:25:00Z</time>
      </trkpt>
      <trkpt lat="43.249450" lon="-4.879630">
        <ele>421.771</ele>
        <time>2020-05-20T05:25:20Z</time>
      </trkpt>
      <trkpt lat="43.249470" lon="-4.879560">
        <ele>426.340</ele>
        <time>2020-05-20T05:25:40Z</time>
      </trkpt>
      <trkpt lat="43.249480" lon="-4.879520">
        <ele>428.577</ele>
        <time>2020-05-20T05:26:00Z</time>
      </trkpt>
      <trkpt lat="43.249510" lon="-4.879440">
        <ele>432.961</ele>
        <time>2020-05-20T05:26:20Z</time>
      </trkpt>
      <trkpt lat="43.249540" lon="-4.879340">
        <ele>429.827</ele>
        <time>2020-05-20T05:26:40Z</time>
      </trkpt>
      <trkpt lat="43.249550" lon="-4.879330">
        <ele>430.208</ele>
        <time>2020-05-20T05:27:00Z</time>
      </trkpt>
      <trkpt lat="43.249590" lon="-4.879230">
        <ele>428.881</ele>
        <time>2020-05-20T05:27:20Z</time>
      </trkpt>
      <trkpt lat="43.249620" lon="-4.879160">
        <ele>428.216</ele>
        <time>2020-05-20T05:27:40Z</time>
      </trkpt>
      <trkpt lat="43.249660" lon="-4.879040">
        <ele>428.992</ele>
        <time>2020-05-20T05:28:00Z</time>
      </trkpt>
      <trkpt lat="43.249670" lon="-4.878930">
        <ele>427.675</ele>
        <time>2020-05-20T05:28:20Z</time>
      </trkpt>
      <trkpt lat="43.249670" lon="-4.878880">
        <ele>426.565</ele>
        <time>2020-05-20T05:28:40Z</time>
      </trkpt>
      <trkpt lat="43.249680" lon="-4.878630">
        <ele>432.255</ele>
        <time>2020-05-20T05:29:00Z</time>
      </trkpt>
      <trkpt lat="43.249690" lon="-4.878390">
        <ele>431.555</ele>
        <time>2020-05-20T05:29:20Z</time>
      </trkpt>
      <trkpt lat="43.249700" lon="-4.878190">
        <ele>420.774</ele>
        <time>2020-05-20T05:29:40Z</time>
      </trkpt>
      <trkpt lat="43.249700" lon="-4.878140">
        <ele>416.684</ele>
        <time>2020-05-20T05:30:00Z</time>
      </trkpt>
      <trkpt lat="43.249680" lon="-4.877660">
        <ele>388.407</ele>
        <time>2020-05-20T05:30:20Z</time>
      </trkpt>
      <trkpt lat="43.249690" lon="-4.877650">
        <ele>389.117</ele>
        <time>2020-05-20T05:30:40Z</time>
      </trkpt>
      <trkpt lat="43.249700" lon="-4.877400">
        <ele>385.708</ele>
        <time>2020-05-20T05:31:00Z</time>
      </trkpt>
      <trkpt lat="43.249740" lon="-4.876910">
        <ele>396.992</ele>
        <time>2020-05-20T05:31:20Z</time>
      </trkpt>
      <trkpt lat="43.249750" lon="-4.876780">
        <ele>392.797</ele>
        <time>2020-05-20T05:31:40Z</time>
      </trkpt>
      <trkpt lat="43.249760" lon="-4.876660">
        <ele>389.853</ele>
        <time>2020-05-20T05:32:00Z</time>
      </trkpt>
      <trkpt lat="43.249770" lon="-4.876420">
        <ele>390.396</ele>
        <time>2020-05-20T05:32:20Z</time>
      </trkpt>
      <trkpt lat="43.249770" lon="-4.876250">
        <ele>391.396</ele>
        <time>2020-05-20T05:32:40Z</time>
      </trkpt>
      <trkpt lat="43.249780" lon="-4.876170">
        <ele>394.636</ele>
        <time>2020-05-20T05:33:00Z</time>
      </trkpt>
      <trkpt lat="43.249800" lon="-4.875930">
        <ele>404.456</ele>
        <time>2020-05-20T05:33:20Z</time>
      </trkpt>
      <trkpt lat="43.249800" lon="-4.875850">
        <ele>406.215</ele>
        <time>2020-05-20T05:33:40Z</time>
      </trkpt>
      <trkpt lat="43.249760" lon="-4.875550">
        <ele>400.648</ele>
        <time>2020-05-20T05:34:00Z</time>
      </trkpt>
      <trkpt lat="43.249760" lon="-4.875440">
        <ele>404.861</ele>
        <time>2020-05-20T05:34:20Z</time>
      </trkpt>
      <trkpt lat="43.249750" lon="-4.875190">
        <ele>410.117</ele>
        <time>2020-05-20T05:34:40Z</time>
      </trkpt>
      <trkpt lat="43.249750" lon="-4.875150">
        <ele>410.708</ele>
        <time>2020-05-20T05:35:00Z</time>
      </trkpt>
      <trkpt lat="43.249780" lon="-4.874950">
        <ele>417.258</ele>
        <time>2020-05-20T05:35:20Z</time>
      </trkpt>
      <trkpt lat="43.249790" lon="-4.874880">
        <ele>417.313</ele>
        <time>2020-05-20T05:35:40Z</time>
      </trkpt>
      <trkpt lat="43.249810" lon="-4.874700">
        <ele>415.549</ele>
        <time>2020-05-20T05:36:00Z</time>
      </trkpt>
      <trkpt lat="43.249820" lon="-4.874580">
        <ele>409.322</ele>
        <time>2020-05-20T05:36:20Z</time>
      </trkpt>
      <trkpt lat="43.249830" lon="-4.874530">
        <ele>408.082</ele>
        <time>2020-05-20T05:36:40Z</time>
      </trkpt>
      <trkpt lat="43.249830" lon="-4.874470">
        <ele>403.932</ele>
        <time>2020-05-20T05:37:00Z</time>
      </trkpt>
      <trkpt lat="43.249830" lon="-4.874460">
        <ele>403.252</ele>
        <time>2020-05-20T05:37:20Z</time>
      </trkpt>
      <trkpt lat="43.249830" lon="-4.874380">
        <ele>398.781</ele>
        <time>2020-05-20T05:37:40Z</time>
      </trkpt>
      <trkpt lat="43.249800" lon="-4.874290">
        <ele>388.932</ele>
        <time>2020-05-20T05:38:00Z</time>
      </trkpt>
      <trkpt lat="43.249790" lon="-4.874220">
        <ele>384.192</ele>
        <time>2020-05-20T05:38:20Z</time>
      </trkpt>
      <trkpt lat="43.249780" lon="-4.874150">
        <ele>379.411</ele>
        <time>2020-05-20T05:38:40Z</time>
      </trkpt>
      <trkpt lat="43.249780" lon="-4.874120">
        <ele>377.708</ele>
        <time>2020-05-20T05:39:00Z</time>
      </trkpt>
      <trkpt lat="43.249780" lon="-4.874110">
        <ele>377.227</ele>
        <time>2020-05-20T05:39:20Z</time>
      </trkpt>
      <trkpt lat="43.249790" lon="-4.874090">
        <ele>377.232</ele>
        <time>2020-05-20T05:39:40Z</time>
      </trkpt>
      <trkpt lat="43.249820" lon="-4.874080">
        <ele>380.118</ele>
        <time>2020-05-20T05:40:00Z</time>
      </trkpt>
      <trkpt lat="43.249840" lon="-4.874070">
        <ele>381.661</ele>
        <time>2020-05-20T05:40:20Z</time>
      </trkpt>
      <trkpt lat="43.249870" lon="-4.874060">
        <ele>384.131</ele>
        <time>2020-05-20T05:40:40Z</time>
      </trkpt>
      <trkpt lat="43.249890" lon="-4.874060">
        <ele>386.381</ele>
        <time>2020-05-20T05:41:00Z</time>
      </trkpt>
      <trkpt lat="43.249920" lon="-4.874060">
        <ele>389.531</ele>
        <time>2020-05-20T05:41:20Z</time>
      </trkpt>
      <trkpt lat="43.249950" lon="-4.874050">
        <ele>391.660</ele>
        <time>2020-05-20T05:41:40Z</time>
      </trkpt>
      <trkpt lat="43.249970" lon="-4.874050">
        <ele>393.796</ele>
        <time>2020-05-20T05:42:00Z</time>
      </trkpt>
      <trkpt lat="43.250000" lon="-4.874050">
        <ele>396.931</ele>
        <time>2020-05-20T05:42:20Z</time>
      </trkpt>
      <trkpt lat="43.250020" lon="-4.874060">
        <ele>399.024</ele>
        <time>2020-05-20T05:42:40Z</time>
      </trkpt>
      <trkpt lat="43.250040" lon="-4.874070">
        <ele>401.108</ele>
        <time>2020-05-20T05:43:00Z</time>
      </trkpt>
      <trkpt lat="43.250050" lon="-4.874070">
        <ele>401.533</ele>
        <time>2020-05-20T05:43:20Z</time>
      </trkpt>
      <trkpt lat="43.250070" lon="-4.874080">
        <ele>403.758</ele>
        <time>2020-05-20T05:43:40Z</time>
      </trkpt>
      <trkpt lat="43.250100" lon="-4.874100">
        <ele>407.674</ele>
        <time>2020-05-20T05:44:00Z</time>
      </trkpt>
      <trkpt lat="43.250130" lon="-4.874120">
        <ele>411.617</ele>
        <time>2020-05-20T05:44:20Z</time>
      </trkpt>
      <trkpt lat="43.250150" lon="-4.874130">
        <ele>413.917</ele>
        <time>2020-05-20T05:44:40Z</time>
      </trkpt>
      <trkpt lat="43.250190" lon="-4.874150">
        <ele>418.517</ele>
        <time>2020-05-20T05:45:00Z</time>
      </trkpt>
      <trkpt lat="43.250210" lon="-4.874160">
        <ele>420.967</ele>
        <time>2020-05-20T05:45:20Z</time>
      </trkpt>
      <trkpt lat="43.250220" lon="-4.874170">
        <ele>422.666</ele>
        <time>2020-05-20T05:45:40Z</time>
      </trkpt>
      <trkpt lat="43.250250" lon="-4.874180">
        <ele>424.944</ele>
        <time>2020-05-20T05:46:00Z</time>
      </trkpt>
      <trkpt lat="43.250280" lon="-4.874180">
        <ele>426.205</ele>
        <time>2020-05-20T05:46:20Z</time>
      </trkpt>
      <trkpt lat="43.250330" lon="-4.874170">
        <ele>424.715</ele>
        <time>2020-05-20T05:46:40Z</time>
      </trkpt>
      <trkpt lat="43.250350" lon="-4.874160">
        <ele>423.308</ele>
        <time>2020-05-20T05:47:00Z</time>
      </trkpt>
      <trkpt lat="43.250390" lon="-4.874150">
        <ele>421.528</ele>
        <time>2020-05-20T05:47:20Z</time>
      </trkpt>
      <trkpt lat="43.250400" lon="-4.874160">
        <ele>422.873</ele>
        <time>2020-05-20T05:47:40Z</time>
      </trkpt>
      <trkpt lat="43.250430" lon="-4.874160">
        <ele>422.589</ele>
        <time>2020-05-20T05:48:00Z</time>
      </trkpt>
      <trkpt lat="43.250470" lon="-4.874190">
        <ele>425.172</ele>
        <time>2020-05-20T05:48:20Z</time>
      </trkpt>
      <trkpt lat="43.250540" lon="-4.874240">
        <ele>429.092</ele>
        <time>2020-05-20T05:48:40Z</time>
      </trkpt>
      <trkpt lat="43.250600" lon="-4.874290">
        <ele>431.992</ele>
        <time>2020-05-20T05:49:00Z</time>
      </trkpt>
      <trkpt lat="43.250640" lon="-4.874340">
        <ele>434.762</ele>
        <time>2020-05-20T05:49:20Z</time>
      </trkpt>
      <trkpt lat="43.250700" lon="-4.874380">
        <ele>435.311</ele>
        <time>2020-05-20T05:49:40Z</time>
      </trkpt>
      <trkpt lat="43.250700" lon="-4.874390">
        <ele>436.061</ele>
        <time>2020-05-20T05:50:00Z</time>
      </trkpt>
      <trkpt lat="43.250760" lon="-4.874440">
        <ele>436.621</ele>
        <time>2020-05-20T05:50:20Z</time>
      </trkpt>
      <trkpt lat="43.250830" lon="-4.874500">
        <ele>436.413</ele>
        <time>2020-05-20T05:50:40Z</time>
      </trkpt>
      <trkpt lat="43.250860" lon="-4.874520">
        <ele>438.108</ele>
        <time>2020-05-20T05:51:00Z</time>
      </trkpt>
      <trkpt lat="43.250880" lon="-4.874540">
        <ele>439.750</ele>
        <time>2020-05-20T05:51:20Z</time>
      </trkpt>
      <trkpt lat="43.250910" lon="-4.874560">
        <ele>441.575</ele>
        <time>2020-05-20T05:51:40Z</time>
      </trkpt>
      <trkpt lat="43.250930" lon="-4.874580">
        <ele>442.971</ele>
        <time>2020-05-20T05:52:00Z</time>
      </trkpt>
      <trkpt lat="43.250950" lon="-4.874590">
        <ele>443.874</ele>
        <time>2020-05-20T05:52:20Z</time>
      </trkpt>
      <trkpt lat="43.250970" lon="-4.874600">
        <ele>444.754</ele>
        <time>2020-05-20T05:52:40Z</time>
      </trkpt>
      <trkpt lat="43.250980" lon="-4.874600">
        <ele>444.964</ele>
        <time>2020-05-20T05:53:00Z</time>
      </trkpt>
      <trkpt lat="43.251000" lon="-4.874600">
        <ele>445.314</ele>
        <time>2020-05-20T05:53:20Z</time>
      </trkpt>
      <trkpt lat="43.251010" lon="-4.874600">
        <ele>445.513</ele>
        <time>2020-05-20T05:53:40Z</time>
      </trkpt>
      <trkpt lat="43.251020" lon="-4.874600">
        <ele>445.837</ele>
        <time>2020-05-20T05:54:00Z</time>
      </trkpt>
      <trkpt lat="43.251030" lon="-4.874600">
        <ele>446.049</ele>
        <time>2020-05-20T05:54:20Z</time>
      </trkpt>
      <trkpt lat="43.251040" lon="-4.874600">
        <ele>446.213</ele>
        <time>2020-05-20T05:54:40Z</time>
      </trkpt>
      <trkpt lat="43.251060" lon="-4.874600">
        <ele>446.608</ele>
        <time>2020-05-20T05:55:00Z</time>
      </trkpt>
      <trkpt lat="43.251070" lon="-4.874590">
        <ele>446.477</ele>
        <time>2020-05-20T05:55:20Z</time>
      </trkpt>
      <trkpt lat="43.251090" lon="-4.874590">
        <ele>446.872</ele>
        <time>2020-05-20T05:55:40Z</time>
      </trkpt>
      <trkpt lat="43.251100" lon="-4.874590">
        <ele>447.098</ele>
        <time>2020-05-20T05:56:00Z</time>
      </trkpt>
      <trkpt lat="43.251110" lon="-4.874580">
        <ele>446.921</ele>
        <time>2020-05-20T05:56:20Z</time>
      </trkpt>
      <trkpt lat="43.251130" lon="-4.874580">
        <ele>449.761</ele>
        <time>2020-05-20T05:56:40Z</time>
      </trkpt>
      <trkpt lat="43.251140" lon="-4.874570">
        <ele>450.861</ele>
        <time>2020-05-20T05:57:00Z</time>
      </trkpt>
      <trkpt lat="43.251150" lon="-4.874570">
        <ele>452.321</ele>
        <time>2020-05-20T05:57:20Z</time>
      </trkpt>
      <trkpt lat="43.251170" lon="-4.874570">
        <ele>455.310</ele>
        <time>2020-05-20T05:57:40Z</time>
      </trkpt>
      <trkpt lat="43.251190" lon="-4.874570">
        <ele>458.336</ele>
        <time>2020-05-20T05:58:00Z</time>
      </trkpt>
      <trkpt lat="43.251220" lon="-4.874570">
        <ele>462.817</ele>
        <time>2020-05-20T05:58:20Z</time>
      </trkpt>
      <trkpt lat="43.251250" lon="-4.874580">
        <ele>467.318</ele>
        <time>2020-05-20T05:58:40Z</time>
      </trkpt>
      <trkpt lat="43.251270" lon="-4.874580">
        <ele>470.208</ele>
        <time>2020-05-20T05:59:00Z</time>
      </trkpt>
      <trkpt lat="43.251290" lon="-4.874580">
        <ele>473.127</ele>
        <time>2020-05-20T05:59:20Z</time>
      </trkpt>
      <trkpt lat="43.251300" lon="-4.874580">
        <ele>474.662</ele>
        <time>2020-05-20T05:59:40Z</time>
      </trkpt>
      <trkpt lat="43.251310" lon="-4.874580">
        <ele>476.148</ele>
        <time>2020-05-20T06:00:00Z</time>
      </trkpt>
      <trkpt lat="43.251320" lon="-4.874580">
        <ele>477.561</ele>
        <time>2020-05-20T06:00:20Z</time>
      </trkpt>
      <trkpt lat="43.251330" lon="-4.874570">
        <ele>479.251</ele>
        <time>2020-05-20T06:00:40Z</time>
      </trkpt>
      <trkpt lat="43.251340" lon="-4.874560">
        <ele>481.091</ele>
        <time>2020-05-20T06:01:00Z</time>
      </trkpt>
      <trkpt lat="43.251340" lon="-4.874550">
        <ele>481.241</ele>
        <time>2020-05-20T06:01:20Z</time>
      </trkpt>
      <trkpt lat="43.251340" lon="-4.874520">
        <ele>482.080</ele>
        <time>2020-05-20T06:01:40Z</time>
      </trkpt>
      <trkpt lat="43.251350" lon="-4.874520">
        <ele>483.791</ele>
        <time>2020-05-20T06:02:00Z</time>
      </trkpt>
      <trkpt lat="43.251350" lon="-4.874490">
        <ele>484.581</ele>
        <time>2020-05-20T06:02:20Z</time>
      </trkpt>
      <trkpt lat="43.251350" lon="-4.874470">
        <ele>485.119</ele>
        <time>2020-05-20T06:02:40Z</time>
      </trkpt>
      <trkpt lat="43.251350" lon="-4.874440">
        <ele>485.808</ele>
        <time>2020-05-20T06:03:00Z</time>
      </trkpt>
      <trkpt lat="43.251350" lon="-4.874420">
        <ele>485.793</ele>
        <time>2020-05-20T06:03:20Z</time>
      </trkpt>
      <trkpt lat="43.251350" lon="-4.874390">
        <ele>485.498</ele>
        <time>2020-05-20T06:03:40Z</time>
      </trkpt>
      <trkpt lat="43.251350" lon="-4.874370">
        <ele>485.234</ele>
        <time>2020-05-20T06:04:00Z</time>
      </trkpt>
      <trkpt lat="43.251330" lon="-4.874330">
        <ele>481.237</ele>
        <time>2020-05-20T06:04:20Z</time>
      </trkpt>
      <trkpt lat="43.251310" lon="-4.874290">
        <ele>477.127</ele>
        <time>2020-05-20T06:04:40Z</time>
      </trkpt>
      <trkpt lat="43.251300" lon="-4.874290">
        <ele>475.267</ele>
        <time>2020-05-20T06:05:00Z</time>
      </trkpt>
      <trkpt lat="43.251280" lon="-4.874240">
        <ele>471.047</ele>
        <time>2020-05-20T06:05:20Z</time>
      </trkpt>
      <trkpt lat="43.251240" lon="-4.874210">
        <ele>463.196</ele>
        <time>2020-05-20T06:05:40Z</time>
      </trkpt>
      <trkpt lat="43.251200" lon="-4.874170">
        <ele>455.065</ele>
        <time>2020-05-20T06:06:00Z</time>
      </trkpt>
      <trkpt lat="43.251180" lon="-4.874120">
        <ele>452.168</ele>
        <time>2020-05-20T06:06:20Z</time>
      </trkpt>
      <trkpt lat="43.251160" lon="-4.874020">
        <ele>450.914</ele>
        <time>2020-05-20T06:06:40Z</time>
      </trkpt>
      <trkpt lat="43.251130" lon="-4.873870">
        <ele>450.008</ele>
        <time>2020-05-20T06:07:00Z</time>
      </trkpt>
      <trkpt lat="43.251100" lon="-4.873760">
        <ele>447.490</ele>
        <time>2020-05-20T06:07:20Z</time>
      </trkpt>
      <trkpt lat="43.251060" lon="-4.873660">
        <ele>440.055</ele>
        <time>2020-05-20T06:07:40Z</time>
      </trkpt>
      <trkpt lat="43.251060" lon="-4.873650">
        <ele>440.151</ele>
        <time>2020-05-20T06:08:00Z</time>
      </trkpt>
      <trkpt lat="43.251000" lon="-4.873510">
        <ele>425.344</ele>
        <time>2020-05-20T06:08:20Z</time>
      </trkpt>
      <trkpt lat="43.250980" lon="-4.873440">
        <ele>420.494</ele>
        <time>2020-05-20T06:08:40Z</time>
      </trkpt>
      <trkpt lat="43.250940" lon="-4.873340">
        <ele>411.684</ele>
        <time>2020-05-20T06:09:00Z</time>
      </trkpt>
      <trkpt lat="43.250930" lon="-4.873290">
        <ele>409.814</ele>
        <time>2020-05-20T06:09:20Z</time>
      </trkpt>
      <trkpt lat="43.250920" lon="-4.873240">
        <ele>408.593</ele>
        <time>2020-05-20T06:09:40Z</time>
      </trkpt>
      <trkpt lat="43.250920" lon="-4.873210">
        <ele>408.929</ele>
        <time>2020-05-20T06:10:00Z</time>
      </trkpt>
      <trkpt lat="43.250920" lon="-4.873200">
        <ele>409.000</ele>
        <time>2020-05-20T06:10:20Z</time>
      </trkpt>
      <trkpt lat="43.250910" lon="-4.873180">
        <ele>408.120</ele>
        <time>2020-05-20T06:10:40Z</time>
      </trkpt>
      <trkpt lat="43.250910" lon="-4.873160">
        <ele>408.408</ele>
        <time>2020-05-20T06:11:00Z</time>
      </trkpt>
      <trkpt lat="43.250910" lon="-4.873140">
        <ele>408.866</ele>
        <time>2020-05-20T06:11:20Z</time>
      </trkpt>
      <trkpt lat="43.250920" lon="-4.873130">
        <ele>409.921</ele>
        <time>2020-05-20T06:11:40Z</time>
      </trkpt>
      <trkpt lat="43.250930" lon="-4.873110">
        <ele>410.937</ele>
        <time>2020-05-20T06:12:00Z</time>
      </trkpt>
      <trkpt lat="43.250950" lon="-4.873110">
        <ele>412.460</ele>
        <time>2020-05-20T06:12:20Z</time>
      </trkpt>
      <trkpt lat="43.250960" lon="-4.873110">
        <ele>413.120</ele>
        <time>2020-05-20T06:12:40Z</time>
      </trkpt>
      <trkpt lat="43.250980" lon="-4.873120">
        <ele>414.930</ele>
        <time>2020-05-20T06:13:00Z</time>
      </trkpt>
      <trkpt lat="43.250990" lon="-4.873120">
        <ele>415.740</ele>
        <time>2020-05-20T06:13:20Z</time>
      </trkpt>
      <trkpt lat="43.251000" lon="-4.873120">
        <ele>416.699</ele>
        <time>2020-05-20T06:13:40Z</time>
      </trkpt>
      <trkpt lat="43.251020" lon="-4.873130">
        <ele>418.731</ele>
        <time>2020-05-20T06:14:00Z</time>
      </trkpt>
      <trkpt lat="43.251030" lon="-4.873140">
        <ele>420.161</ele>
        <time>2020-05-20T06:14:20Z</time>
      </trkpt>
      <trkpt lat="43.251040" lon="-4.873140">
        <ele>421.107</ele>
        <time>2020-05-20T06:14:40Z</time>
      </trkpt>
      <trkpt lat="43.251050" lon="-4.873150">
        <ele>422.708</ele>
        <time>2020-05-20T06:15:00Z</time>
      </trkpt>
      <trkpt lat="43.251070" lon="-4.873170">
        <ele>426.377</ele>
        <time>2020-05-20T06:15:20Z</time>
      </trkpt>
      <trkpt lat="43.251090" lon="-4.873180">
        <ele>429.562</ele>
        <time>2020-05-20T06:15:40Z</time>
      </trkpt>
      <trkpt lat="43.251110" lon="-4.873200">
        <ele>433.968</ele>
        <time>2020-05-20T06:16:00Z</time>
      </trkpt>
      <trkpt lat="43.251130" lon="-4.873220">
        <ele>436.071</ele>
        <time>2020-05-20T06:16:20Z</time>
      </trkpt>
      <trkpt lat="43.251160" lon="-4.873240">
        <ele>437.791</ele>
        <time>2020-05-20T06:16:40Z</time>
      </trkpt>
      <trkpt lat="43.251180" lon="-4.873260">
        <ele>439.511</ele>
        <time>2020-05-20T06:17:00Z</time>
      </trkpt>
      <trkpt lat="43.251190" lon="-4.873270">
        <ele>440.481</ele>
        <time>2020-05-20T06:17:20Z</time>
      </trkpt>
      <trkpt lat="43.251200" lon="-4.873280">
        <ele>441.260</ele>
        <time>2020-05-20T06:17:40Z</time>
      </trkpt>
      <trkpt lat="43.251220" lon="-4.873290">
        <ele>441.935</ele>
        <time>2020-05-20T06:18:00Z</time>
      </trkpt>
      <trkpt lat="43.251230" lon="-4.873300">
        <ele>442.786</ele>
        <time>2020-05-20T06:18:20Z</time>
      </trkpt>
      <trkpt lat="43.251250" lon="-4.873310">
        <ele>443.314</ele>
        <time>2020-05-20T06:18:40Z</time>
      </trkpt>
      <trkpt lat="43.251270" lon="-4.873320">
        <ele>443.908</ele>
        <time>2020-05-20T06:19:00Z</time>
      </trkpt>
      <trkpt lat="43.251290" lon="-4.873330">
        <ele>444.567</ele>
        <time>2020-05-20T06:19:20Z</time>
      </trkpt>
      <trkpt lat="43.251300" lon="-4.873340">
        <ele>445.162</ele>
        <time>2020-05-20T06:19:40Z</time>
      </trkpt>
      <trkpt lat="43.251310" lon="-4.873340">
        <ele>444.918</ele>
        <time>2020-05-20T06:20:00Z</time>
      </trkpt>
      <trkpt lat="43.251330" lon="-4.873340">
        <ele>444.631</ele>
        <time>2020-05-20T06:20:20Z</time>
      </trkpt>
      <trkpt lat="43.251340" lon="-4.873330">
        <ele>443.681</ele>
        <time>2020-05-20T06:20:40Z</time>
      </trkpt>
      <trkpt lat="43.251350" lon="-4.873330">
        <ele>443.471</ele>
        <time>2020-05-20T06:21:00Z</time>
      </trkpt>
      <trkpt lat="43.251370" lon="-4.873330">
        <ele>443.181</ele>
        <time>2020-05-20T06:21:20Z</time>
      </trkpt>
      <trkpt lat="43.251380" lon="-4.873320">
        <ele>442.060</ele>
        <time>2020-05-20T06:21:40Z</time>
      </trkpt>
      <trkpt lat="43.251400" lon="-4.873320">
        <ele>442.379</ele>
        <time>2020-05-20T06:22:00Z</time>
      </trkpt>
      <trkpt lat="43.251420" lon="-4.873310">
        <ele>442.205</ele>
        <time>2020-05-20T06:22:20Z</time>
      </trkpt>
      <trkpt lat="43.251430" lon="-4.873310">
        <ele>442.625</ele>
        <time>2020-05-20T06:22:40Z</time>
      </trkpt>
      <trkpt lat="43.251450" lon="-4.873310">
        <ele>443.308</ele>
        <time>2020-05-20T06:23:00Z</time>
      </trkpt>
      <trkpt lat="43.251460" lon="-4.873310">
        <ele>443.771</ele>
        <time>2020-05-20T06:23:20Z</time>
      </trkpt>
      <trkpt lat="43.251470" lon="-4.873310">
        <ele>444.066</ele>
        <time>2020-05-20T06:23:40Z</time>
      </trkpt>
      <trkpt lat="43.251490" lon="-4.873310">
        <ele>444.842</ele>
        <time>2020-05-20T06:24:00Z</time>
      </trkpt>
      <trkpt lat="43.251510" lon="-4.873320">
        <ele>446.365</ele>
        <time>2020-05-20T06:24:20Z</time>
      </trkpt>
      <trkpt lat="43.251520" lon="-4.873330">
        <ele>447.585</ele>
        <time>2020-05-20T06:24:40Z</time>
      </trkpt>
      <trkpt lat="43.251530" lon="-4.873330">
        <ele>447.895</ele>
        <time>2020-05-20T06:25:00Z</time>
      </trkpt>
      <trkpt lat="43.251540" lon="-4.873340">
        <ele>449.145</ele>
        <time>2020-05-20T06:25:20Z</time>
      </trkpt>
      <trkpt lat="43.251550" lon="-4.873350">
        <ele>450.414</ele>
        <time>2020-05-20T06:25:40Z</time>
      </trkpt>
      <trkpt lat="43.251560" lon="-4.873360">
        <ele>451.728</ele>
        <time>2020-05-20T06:26:00Z</time>
      </trkpt>
      <trkpt lat="43.251570" lon="-4.873380">
        <ele>454.089</ele>
        <time>2020-05-20T06:26:20Z</time>
      </trkpt>
      <trkpt lat="43.251580" lon="-4.873390">
        <ele>455.317</ele>
        <time>2020-05-20T06:26:40Z</time>
      </trkpt>
      <trkpt lat="43.251590" lon="-4.873400">
        <ele>456.608</ele>
        <time>2020-05-20T06:27:00Z</time>
      </trkpt>
      <trkpt lat="43.251600" lon="-4.873410">
        <ele>457.916</ele>
        <time>2020-05-20T06:27:20Z</time>
      </trkpt>
      <trkpt lat="43.251620" lon="-4.873420">
        <ele>459.551</ele>
        <time>2020-05-20T06:27:40Z</time>
      </trkpt>
      <trkpt lat="43.251630" lon="-4.873430">
        <ele>460.817</ele>
        <time>2020-05-20T06:28:00Z</time>
      </trkpt>
      <trkpt lat="43.251650" lon="-4.873440">
        <ele>462.460</ele>
        <time>2020-05-20T06:28:20Z</time>
      </trkpt>
      <trkpt lat="43.251660" lon="-4.873440">
        <ele>462.810</ele>
        <time>2020-05-20T06:28:40Z</time>
      </trkpt>
      <trkpt lat="43.251670" lon="-4.873440">
        <ele>463.140</ele>
        <time>2020-05-20T06:29:00Z</time>
      </trkpt>
      <trkpt lat="43.251690" lon="-4.873440">
        <ele>463.680</ele>
        <time>2020-05-20T06:29:20Z</time>
      </trkpt>
      <trkpt lat="43.251710" lon="-4.873440">
        <ele>464.139</ele>
        <time>2020-05-20T06:29:40Z</time>
      </trkpt>
      <trkpt lat="43.251720" lon="-4.873440">
        <ele>464.438</ele>
        <time>2020-05-20T06:30:00Z</time>
      </trkpt>
      <trkpt lat="43.251740" lon="-4.873440">
        <ele>465.070</ele>
        <time>2020-05-20T06:30:20Z</time>
      </trkpt>
      <trkpt lat="43.251750" lon="-4.873430">
        <ele>464.317</ele>
        <time>2020-05-20T06:30:40Z</time>
      </trkpt>
      <trkpt lat="43.251760" lon="-4.873430">
        <ele>464.608</ele>
        <time>2020-05-20T06:31:00Z</time>
      </trkpt>
      <trkpt lat="43.251770" lon="-4.873420">
        <ele>464.017</ele>
        <time>2020-05-20T06:31:20Z</time>
      </trkpt>
      <trkpt lat="43.251790" lon="-4.873410">
        <ele>463.772</ele>
        <time>2020-05-20T06:31:40Z</time>
      </trkpt>
      <trkpt lat="43.251800" lon="-4.873400">
        <ele>463.188</ele>
        <time>2020-05-20T06:32:00Z</time>
      </trkpt>
      <trkpt lat="43.251810" lon="-4.873390">
        <ele>462.551</ele>
        <time>2020-05-20T06:32:20Z</time>
      </trkpt>
      <trkpt lat="43.251810" lon="-4.873370">
        <ele>460.841</ele>
        <time>2020-05-20T06:32:40Z</time>
      </trkpt>
      <trkpt lat="43.251820" lon="-4.873350">
        <ele>459.481</ele>
        <time>2020-05-20T06:33:00Z</time>
      </trkpt>
      <trkpt lat="43.251820" lon="-4.873330">
        <ele>457.711</ele>
        <time>2020-05-20T06:33:20Z</time>
      </trkpt>
      <trkpt lat="43.251830" lon="-4.873320">
        <ele>457.490</ele>
        <time>2020-05-20T06:33:40Z</time>
      </trkpt>
      <trkpt lat="43.251830" lon="-4.873290">
        <ele>455.525</ele>
        <time>2020-05-20T06:34:00Z</time>
      </trkpt>
      <trkpt lat="43.251830" lon="-4.873270">
        <ele>454.226</ele>
        <time>2020-05-20T06:34:20Z</time>
      </trkpt>
      <trkpt lat="43.251830" lon="-4.873250">
        <ele>452.908</ele>
        <time>2020-05-20T06:34:40Z</time>
      </trkpt>
      <trkpt lat="43.251830" lon="-4.873240">
        <ele>452.208</ele>
        <time>2020-05-20T06:35:00Z</time>
      </trkpt>
      <trkpt lat="43.251830" lon="-4.873210">
        <ele>450.366</ele>
        <time>2020-05-20T06:35:20Z</time>
      </trkpt>
      <trkpt lat="43.251830" lon="-4.873190">
        <ele>449.071</ele>
        <time>2020-05-20T06:35:40Z</time>
      </trkpt>
      <trkpt lat="43.251820" lon="-4.873160">
        <ele>446.657</ele>
        <time>2020-05-20T06:36:00Z</time>
      </trkpt>
      <trkpt lat="43.251820" lon="-4.873150">
        <ele>445.930</ele>
        <time>2020-05-20T06:36:20Z</time>
      </trkpt>
      <trkpt lat="43.251820" lon="-4.873130">
        <ele>444.630</ele>
        <time>2020-05-20T06:36:40Z</time>
      </trkpt>
      <trkpt lat="43.251810" lon="-4.873110">
        <ele>442.840</ele>
        <time>2020-05-20T06:37:00Z</time>
      </trkpt>
      <trkpt lat="43.251810" lon="-4.873100">
        <ele>442.250</ele>
        <time>2020-05-20T06:37:20Z</time>
      </trkpt>
      <trkpt lat="43.251800" lon="-4.873080">
        <ele>440.419</ele>
        <time>2020-05-20T06:37:40Z</time>
      </trkpt>
      <trkpt lat="43.251790" lon="-4.873070">
        <ele>439.218</ele>
        <time>2020-05-20T06:38:00Z</time>
      </trkpt>
      <trkpt lat="43.251780" lon="-4.873060">
        <ele>438.098</ele>
        <time>2020-05-20T06:38:20Z</time>
      </trkpt>
      <trkpt lat="43.251770" lon="-4.873050">
        <ele>437.517</ele>
        <time>2020-05-20T06:38:40Z</time>
      </trkpt>
      <trkpt lat="43.251760" lon="-4.873050">
        <ele>437.008</ele>
        <time>2020-05-20T06:39:00Z</time>
      </trkpt>
      <trkpt lat="43.251740" lon="-4.873050">
        <ele>436.045</ele>
        <time>2020-05-20T06:39:20Z</time>
      </trkpt>
      <trkpt lat="43.251730" lon="-4.873050">
        <ele>435.680</ele>
        <time>2020-05-20T06:39:40Z</time>
      </trkpt>
      <trkpt lat="43.251710" lon="-4.873050">
        <ele>434.686</ele>
        <time>2020-05-20T06:40:00Z</time>
      </trkpt>
      <trkpt lat="43.251700" lon="-4.873060">
        <ele>434.049</ele>
        <time>2020-05-20T06:40:20Z</time>
      </trkpt>
      <trkpt lat="43.251680" lon="-4.873060">
        <ele>433.059</ele>
        <time>2020-05-20T06:40:40Z</time>
      </trkpt>
      <trkpt lat="43.251670" lon="-4.873060">
        <ele>432.559</ele>
        <time>2020-05-20T06:41:00Z</time>
      </trkpt>
      <trkpt lat="43.251650" lon="-4.873070">
        <ele>432.489</ele>
        <time>2020-05-20T06:41:20Z</time>
      </trkpt>
      <trkpt lat="43.251640" lon="-4.873070">
        <ele>431.988</ele>
        <time>2020-05-20T06:41:40Z</time>
      </trkpt>
      <trkpt lat="43.251630" lon="-4.873070">
        <ele>431.593</ele>
        <time>2020-05-20T06:42:00Z</time>
      </trkpt>
      <trkpt lat="43.251620" lon="-4.873070">
        <ele>431.165</ele>
        <time>2020-05-20T06:42:20Z</time>
      </trkpt>
      <trkpt lat="43.251600" lon="-4.873070">
        <ele>430.221</ele>
        <time>2020-05-20T06:42:40Z</time>
      </trkpt>
      <trkpt lat="43.251590" lon="-4.873060">
        <ele>429.008</ele>
        <time>2020-05-20T06:43:00Z</time>
      </trkpt>
      <trkpt lat="43.251580" lon="-4.873060">
        <ele>428.633</ele>
        <time>2020-05-20T06:43:20Z</time>
      </trkpt>
      <trkpt lat="43.251570" lon="-4.873050">
        <ele>428.218</ele>
        <time>2020-05-20T06:43:40Z</time>
      </trkpt>
      <trkpt lat="43.251560" lon="-4.873040">
        <ele>428.494</ele>
        <time>2020-05-20T06:44:00Z</time>
      </trkpt>
      <trkpt lat="43.251550" lon="-4.873030">
        <ele>428.557</ele>
        <time>2020-05-20T06:44:20Z</time>
      </trkpt>
      <trkpt lat="43.251540" lon="-4.873020">
        <ele>428.787</ele>
        <time>2020-05-20T06:44:40Z</time>
      </trkpt>
      <trkpt lat="43.251520" lon="-4.873000">
        <ele>428.937</ele>
        <time>2020-05-20T06:45:00Z</time>
      </trkpt>
      <trkpt lat="43.251510" lon="-4.872990">
        <ele>429.047</ele>
        <time>2020-05-20T06:45:20Z</time>
      </trkpt>
      <trkpt lat="43.251500" lon="-4.872970">
        <ele>429.616</ele>
        <time>2020-05-20T06:45:40Z</time>
      </trkpt>
      <trkpt lat="43.251490" lon="-4.872950">
        <ele>430.224</ele>
        <time>2020-05-20T06:46:00Z</time>
      </trkpt>
      <trkpt lat="43.251490" lon="-4.872940">
        <ele>430.704</ele>
        <time>2020-05-20T06:46:20Z</time>
      </trkpt>
      <trkpt lat="43.251480" lon="-4.872930">
        <ele>430.714</ele>
        <time>2020-05-20T06:46:40Z</time>
      </trkpt>
      <trkpt lat="43.251480" lon="-4.872900">
        <ele>432.308</ele>
        <time>2020-05-20T06:47:00Z</time>
      </trkpt>
      <trkpt lat="43.251470" lon="-4.872870">
        <ele>433.386</ele>
        <time>2020-05-20T06:47:20Z</time>
      </trkpt>
      <trkpt lat="43.251460" lon="-4.872830">
        <ele>434.771</ele>
        <time>2020-05-20T06:47:40Z</time>
      </trkpt>
      <trkpt lat="43.251440" lon="-4.872780">
        <ele>435.897</ele>
        <time>2020-05-20T06:48:00Z</time>
      </trkpt>
      <trkpt lat="43.251440" lon="-4.872750">
        <ele>436.350</ele>
        <time>2020-05-20T06:48:20Z</time>
      </trkpt>
      <trkpt lat="43.251430" lon="-4.872710">
        <ele>436.160</ele>
        <time>2020-05-20T06:48:40Z</time>
      </trkpt>
      <trkpt lat="43.251420" lon="-4.872670">
        <ele>435.910</ele>
        <time>2020-05-20T06:49:00Z</time>
      </trkpt>
      <trkpt lat="43.251410" lon="-4.872650">
        <ele>435.560</ele>
        <time>2020-05-20T06:49:20Z</time>
      </trkpt>
      <trkpt lat="43.251400" lon="-4.872610">
        <ele>435.349</ele>
        <time>2020-05-20T06:49:40Z</time>
      </trkpt>
      <trkpt lat="43.251390" lon="-4.872560">
        <ele>435.242</ele>
        <time>2020-05-20T06:50:00Z</time>
      </trkpt>
      <trkpt lat="43.251370" lon="-4.872520">
        <ele>433.922</ele>
        <time>2020-05-20T06:50:20Z</time>
      </trkpt>
      <trkpt lat="43.251360" lon="-4.872480">
        <ele>433.714</ele>
        <time>2020-05-20T06:50:40Z</time>
      </trkpt>
      <trkpt lat="43.251340" lon="-4.872440">
        <ele>432.708</ele>
        <time>2020-05-20T06:51:00Z</time>
      </trkpt>
      <trkpt lat="43.251320" lon="-4.872400">
        <ele>431.718</ele>
        <time>2020-05-20T06:51:20Z</time>
      </trkpt>
      <trkpt lat="43.251310" lon="-4.872350">
        <ele>431.923</ele>
        <time>2020-05-20T06:51:40Z</time>
      </trkpt>
      <trkpt lat="43.251290" lon="-4.872320">
        <ele>430.649</ele>
        <time>2020-05-20T06:52:00Z</time>
      </trkpt>
      <trkpt lat="43.251280" lon="-4.872280">
        <ele>430.682</ele>
        <time>2020-05-20T06:52:20Z</time>
      </trkpt>
      <trkpt lat="43.251270" lon="-4.872260">
        <ele>430.162</ele>
        <time>2020-05-20T06:52:40Z</time>
      </trkpt>
      <trkpt lat="43.251260" lon="-4.872240">
        <ele>429.632</ele>
        <time>2020-05-20T06:53:00Z</time>
      </trkpt>
      <trkpt lat="43.251250" lon="-4.872210">
        <ele>429.272</ele>
        <time>2020-05-20T06:53:20Z</time>
      </trkpt>
      <trkpt lat="43.251240" lon="-4.872170">
        <ele>428.791</ele>
        <time>2020-05-20T06:53:40Z</time>
      </trkpt>
      <trkpt lat="43.251230" lon="-4.872140">
        <ele>428.057</ele>
        <time>2020-05-20T06:54:00Z</time>
      </trkpt>
      <trkpt lat="43.251210" lon="-4.872120">
        <ele>426.000</ele>
        <time>2020-05-20T06:54:20Z</time>
      </trkpt>
      <trkpt lat="43.251200" lon="-4.872100">
        <ele>425.020</ele>
        <time>2020-05-20T06:54:40Z</time>
      </trkpt>
      <trkpt lat="43.251180" lon="-4.872080">
        <ele>422.708</ele>
        <time>2020-05-20T06:55:00Z</time>
      </trkpt>
      <trkpt lat="43.251170" lon="-4.872070">
        <ele>421.599</ele>
        <time>2020-05-20T06:55:20Z</time>
      </trkpt>
      <trkpt lat="43.251160" lon="-4.872060">
        <ele>420.324</ele>
        <time>2020-05-20T06:55:40Z</time>
      </trkpt>
      <trkpt lat="43.251150" lon="-4.872040">
        <ele>419.010</ele>
        <time>2020-05-20T06:56:00Z</time>
      </trkpt>
      <trkpt lat="43.251120" lon="-4.872020">
        <ele>415.053</ele>
        <time>2020-05-20T06:56:20Z</time>
      </trkpt>
      <trkpt lat="43.251110" lon="-4.872000">
        <ele>413.583</ele>
        <time>2020-05-20T06:56:40Z</time>
      </trkpt>
      <trkpt lat="43.251090" lon="-4.871980">
        <ele>411.213</ele>
        <time>2020-05-20T06:57:00Z</time>
      </trkpt>
      <trkpt lat="43.251080" lon="-4.871950">
        <ele>409.733</ele>
        <time>2020-05-20T06:57:20Z</time>
      </trkpt>
      <trkpt lat="43.251070" lon="-4.871910">
        <ele>407.872</ele>
        <time>2020-05-20T06:57:40Z</time>
      </trkpt>
      <trkpt lat="43.251060" lon="-4.871880">
        <ele>405.847</ele>
        <time>2020-05-20T06:58:00Z</time>
      </trkpt>
      <trkpt lat="43.251050" lon="-4.871850">
        <ele>403.829</ele>
        <time>2020-05-20T06:58:20Z</time>
      </trkpt>
      <trkpt lat="43.251060" lon="-4.871810">
        <ele>404.021</ele>
        <time>2020-05-20T06:58:40Z</time>
      </trkpt>
      <trkpt lat="43.251080" lon="-4.871760">
        <ele>405.708</ele>
        <time>2020-05-20T06:59:00Z</time>
      </trkpt>
      <trkpt lat="43.251100" lon="-4.871700">
        <ele>407.768</ele>
        <time>2020-05-20T06:59:20Z</time>
      </trkpt>
      <trkpt lat="43.251110" lon="-4.871650">
        <ele>409.283</ele>
        <time>2020-05-20T06:59:40Z</time>
      </trkpt>
      <trkpt lat="43.251140" lon="-4.871550">
        <ele>416.649</ele>
        <time>2020-05-20T07:00:00Z</time>
      </trkpt>
      <trkpt lat="43.251190" lon="-4.871430">
        <ele>426.242</ele>
        <time>2020-05-20T07:00:20Z</time>
      </trkpt>
      <trkpt lat="43.251270" lon="-4.871220">
        <ele>432.122</ele>
        <time>2020-05-20T07:00:40Z</time>
      </trkpt>
      <trkpt lat="43.251280" lon="-4.871210">
        <ele>433.032</ele>
        <time>2020-05-20T07:01:00Z</time>
      </trkpt>
      <trkpt lat="43.251350" lon="-4.871070">
        <ele>436.852</ele>
        <time>2020-05-20T07:01:20Z</time>
      </trkpt>
      <trkpt lat="43.251380" lon="-4.871010">
        <ele>438.041</ele>
        <time>2020-05-20T07:01:40Z</time>
      </trkpt>
      <trkpt lat="43.251390" lon="-4.871000">
        <ele>438.792</ele>
        <time>2020-05-20T07:02:00Z</time>
      </trkpt>
      <trkpt lat="43.251420" lon="-4.870950">
        <ele>439.473</ele>
        <time>2020-05-20T07:02:20Z</time>
      </trkpt>
      <trkpt lat="43.251440" lon="-4.870910">
        <ele>439.520</ele>
        <time>2020-05-20T07:02:40Z</time>
      </trkpt>
      <trkpt lat="43.251460" lon="-4.870890">
        <ele>440.308</ele>
        <time>2020-05-20T07:03:00Z</time>
      </trkpt>
      <trkpt lat="43.251480" lon="-4.870860">
        <ele>440.793</ele>
        <time>2020-05-20T07:03:20Z</time>
      </trkpt>
      <trkpt lat="43.251490" lon="-4.870840">
        <ele>440.788</ele>
        <time>2020-05-20T07:03:40Z</time>
      </trkpt>
      <trkpt lat="43.251500" lon="-4.870830">
        <ele>441.164</ele>
        <time>2020-05-20T07:04:00Z</time>
      </trkpt>
      <trkpt lat="43.251510" lon="-4.870810">
        <ele>441.057</ele>
        <time>2020-05-20T07:04:20Z</time>
      </trkpt>
      <trkpt lat="43.251520" lon="-4.870800">
        <ele>441.447</ele>
        <time>2020-05-20T07:04:40Z</time>
      </trkpt>
      <trkpt lat="43.251540" lon="-4.870770">
        <ele>441.637</ele>
        <time>2020-05-20T07:05:00Z</time>
      </trkpt>
      <trkpt lat="43.251550" lon="-4.870750">
        <ele>441.597</ele>
        <time>2020-05-20T07:05:20Z</time>
      </trkpt>
      <trkpt lat="43.251560" lon="-4.870710">
        <ele>440.516</ele>
        <time>2020-05-20T07:05:40Z</time>
      </trkpt>
      <trkpt lat="43.251570" lon="-4.870700">
        <ele>440.839</ele>
        <time>2020-05-20T07:06:00Z</time>
      </trkpt>
      <trkpt lat="43.251580" lon="-4.870680">
        <ele>440.601</ele>
        <time>2020-05-20T07:06:20Z</time>
      </trkpt>
      <trkpt lat="43.251590" lon="-4.870650">
        <ele>440.021</ele>
        <time>2020-05-20T07:06:40Z</time>
      </trkpt>
      <trkpt lat="43.251600" lon="-4.870620">
        <ele>439.308</ele>
        <time>2020-05-20T07:07:00Z</time>
      </trkpt>
      <trkpt lat="43.251610" lon="-4.870580">
        <ele>438.127</ele>
        <time>2020-05-20T07:07:20Z</time>
      </trkpt>
      <trkpt lat="43.251620" lon="-4.870560">
        <ele>437.992</ele>
        <time>2020-05-20T07:07:40Z</time>
      </trkpt>
      <trkpt lat="43.251630" lon="-4.870530">
        <ele>437.348</ele>
        <time>2020-05-20T07:08:00Z</time>
      </trkpt>
      <trkpt lat="43.251640" lon="-4.870500">
        <ele>436.891</ele>
        <time>2020-05-20T07:08:20Z</time>
      </trkpt>
      <trkpt lat="43.251660" lon="-4.870470">
        <ele>436.921</ele>
        <time>2020-05-20T07:08:40Z</time>
      </trkpt>
      <trkpt lat="43.251670" lon="-4.870450">
        <ele>436.631</ele>
        <time>2020-05-20T07:09:00Z</time>
      </trkpt>
      <trkpt lat="43.251680" lon="-4.870430">
        <ele>436.161</ele>
        <time>2020-05-20T07:09:20Z</time>
      </trkpt>
      <trkpt lat="43.251690" lon="-4.870420">
        <ele>436.060</ele>
        <time>2020-05-20T07:09:40Z</time>
      </trkpt>
      <trkpt lat="43.251700" lon="-4.870410">
        <ele>435.943</ele>
        <time>2020-05-20T07:10:00Z</time>
      </trkpt>
      <trkpt lat="43.251710" lon="-4.870400">
        <ele>435.864</ele>
        <time>2020-05-20T07:10:20Z</time>
      </trkpt>
      <trkpt lat="43.251720" lon="-4.870380">
        <ele>435.310</ele>
        <time>2020-05-20T07:10:40Z</time>
      </trkpt>
      <trkpt lat="43.251730" lon="-4.870370">
        <ele>435.208</ele>
        <time>2020-05-20T07:11:00Z</time>
      </trkpt>
      <trkpt lat="43.251750" lon="-4.870370">
        <ele>435.928</ele>
        <time>2020-05-20T07:11:20Z</time>
      </trkpt>
      <trkpt lat="43.251760" lon="-4.870360">
        <ele>435.833</ele>
        <time>2020-05-20T07:11:40Z</time>
      </trkpt>
      <trkpt lat="43.251770" lon="-4.870350">
        <ele>435.719</ele>
        <time>2020-05-20T07:12:00Z</time>
      </trkpt>
      <trkpt lat="43.251790" lon="-4.870350">
        <ele>436.342</ele>
        <time>2020-05-20T07:12:20Z</time>
      </trkpt>
      <trkpt lat="43.251800" lon="-4.870340">
        <ele>436.212</ele>
        <time>2020-05-20T07:12:40Z</time>
      </trkpt>
      <trkpt lat="43.251810" lon="-4.870330">
        <ele>436.152</ele>
        <time>2020-05-20T07:13:00Z</time>
      </trkpt>
      <trkpt lat="43.251820" lon="-4.870330">
        <ele>436.462</ele>
        <time>2020-05-20T07:13:20Z</time>
      </trkpt>
      <trkpt lat="43.251840" lon="-4.870330">
        <ele>437.171</ele>
        <time>2020-05-20T07:13:40Z</time>
      </trkpt>
      <trkpt lat="43.251850" lon="-4.870330">
        <ele>437.415</ele>
        <time>2020-05-20T07:14:00Z</time>
      </trkpt>
      <trkpt lat="43.251860" lon="-4.870320">
        <ele>437.365</ele>
        <time>2020-05-20T07:14:20Z</time>
      </trkpt>
      <trkpt lat="43.251870" lon="-4.870320">
        <ele>437.611</ele>
        <time>2020-05-20T07:14:40Z</time>
      </trkpt>
      <trkpt lat="43.251880" lon="-4.870330">
        <ele>438.508</ele>
        <time>2020-05-20T07:15:00Z</time>
      </trkpt>
      <trkpt lat="43.251900" lon="-4.870320">
        <ele>438.615</ele>
        <time>2020-05-20T07:15:20Z</time>
      </trkpt>
      <trkpt lat="43.251910" lon="-4.870320">
        <ele>439.060</ele>
        <time>2020-05-20T07:15:40Z</time>
      </trkpt>
      <trkpt lat="43.251930" lon="-4.870320">
        <ele>439.696</ele>
        <time>2020-05-20T07:16:00Z</time>
      </trkpt>
      <trkpt lat="43.251940" lon="-4.870310">
        <ele>439.599</ele>
        <time>2020-05-20T07:16:20Z</time>
      </trkpt>
      <trkpt lat="43.251960" lon="-4.870300">
        <ele>439.629</ele>
        <time>2020-05-20T07:16:40Z</time>
      </trkpt>
      <trkpt lat="43.251970" lon="-4.870300">
        <ele>439.989</ele>
        <time>2020-05-20T07:17:00Z</time>
      </trkpt>
      <trkpt lat="43.251990" lon="-4.870290">
        <ele>439.919</ele>
        <time>2020-05-20T07:17:20Z</time>
      </trkpt>
      <trkpt lat="43.252000" lon="-4.870280">
        <ele>439.778</ele>
        <time>2020-05-20T07:17:40Z</time>
      </trkpt>
      <trkpt lat="43.252020" lon="-4.870270">
        <ele>439.777</ele>
        <time>2020-05-20T07:18:00Z</time>
      </trkpt>
      <trkpt lat="43.252030" lon="-4.870260">
        <ele>439.361</ele>
        <time>2020-05-20T07:18:20Z</time>
      </trkpt>
      <trkpt lat="43.252050" lon="-4.870250">
        <ele>439.127</ele>
        <time>2020-05-20T07:18:40Z</time>
      </trkpt>
      <trkpt lat="43.252060" lon="-4.870240">
        <ele>438.708</ele>
        <time>2020-05-20T07:19:00Z</time>
      </trkpt>
      <trkpt lat="43.252080" lon="-4.870230">
        <ele>438.641</ele>
        <time>2020-05-20T07:19:20Z</time>
      </trkpt>
      <trkpt lat="43.252090" lon="-4.870220">
        <ele>438.166</ele>
        <time>2020-05-20T07:19:40Z</time>
      </trkpt>
      <trkpt lat="43.252110" lon="-4.870210">
        <ele>437.992</ele>
        <time>2020-05-20T07:20:00Z</time>
      </trkpt>
      <trkpt lat="43.252120" lon="-4.870200">
        <ele>437.455</ele>
        <time>2020-05-20T07:20:20Z</time>
      </trkpt>
      <trkpt lat="43.252130" lon="-4.870200">
        <ele>437.675</ele>
        <time>2020-05-20T07:20:40Z</time>
      </trkpt>
      <trkpt lat="43.252150" lon="-4.870190">
        <ele>437.415</ele>
        <time>2020-05-20T07:21:00Z</time>
      </trkpt>
      <trkpt lat="43.252160" lon="-4.870190">
        <ele>437.695</ele>
        <time>2020-05-20T07:21:20Z</time>
      </trkpt>
      <trkpt lat="43.252180" lon="-4.870180">
        <ele>437.364</ele>
        <time>2020-05-20T07:21:40Z</time>
      </trkpt>
      <trkpt lat="43.252190" lon="-4.870170">
        <ele>436.887</ele>
        <time>2020-05-20T07:22:00Z</time>
      </trkpt>
      <trkpt lat="43.252200" lon="-4.870170">
        <ele>437.042</ele>
        <time>2020-05-20T07:22:20Z</time>
      </trkpt>
      <trkpt lat="43.252210" lon="-4.870160">
        <ele>436.426</ele>
        <time>2020-05-20T07:22:40Z</time>
      </trkpt>
      <trkpt lat="43.252220" lon="-4.870150">
        <ele>435.808</ele>
        <time>2020-05-20T07:23:00Z</time>
      </trkpt>
      <trkpt lat="43.252230" lon="-4.870140">
        <ele>434.972</ele>
        <time>2020-05-20T07:23:20Z</time>
      </trkpt>
      <trkpt lat="43.252240" lon="-4.870140">
        <ele>434.757</ele>
        <time>2020-05-20T07:23:40Z</time>
      </trkpt>
      <trkpt lat="43.252250" lon="-4.870130">
        <ele>433.783</ele>
        <time>2020-05-20T07:24:00Z</time>
      </trkpt>
      <trkpt lat="43.252260" lon="-4.870130">
        <ele>433.556</ele>
        <time>2020-05-20T07:24:20Z</time>
      </trkpt>
      <trkpt lat="43.252270" lon="-4.870130">
        <ele>433.296</ele>
        <time>2020-05-20T07:24:40Z</time>
      </trkpt>
      <trkpt lat="43.252280" lon="-4.870130">
        <ele>433.016</ele>
        <time>2020-05-20T07:25:00Z</time>
      </trkpt>
      <trkpt lat="43.252290" lon="-4.870130">
        <ele>432.826</ele>
        <time>2020-05-20T07:25:20Z</time>
      </trkpt>
      <trkpt lat="43.252300" lon="-4.870130">
        <ele>432.615</ele>
        <time>2020-05-20T07:25:40Z</time>
      </trkpt>
      <trkpt lat="43.252320" lon="-4.870130">
        <ele>432.131</ele>
        <time>2020-05-20T07:26:00Z</time>
      </trkpt>
      <trkpt lat="43.252330" lon="-4.870130">
        <ele>431.961</ele>
        <time>2020-05-20T07:26:20Z</time>
      </trkpt>
      <trkpt lat="43.252340" lon="-4.870130">
        <ele>431.707</ele>
        <time>2020-05-20T07:26:40Z</time>
      </trkpt>
      <trkpt lat="43.252350" lon="-4.870130">
        <ele>431.508</ele>
        <time>2020-05-20T07:27:00Z</time>
      </trkpt>
      <trkpt lat="43.252360" lon="-4.870140">
        <ele>431.847</ele>
        <time>2020-05-20T07:27:20Z</time>
      </trkpt>
      <trkpt lat="43.252370" lon="-4.870140">
        <ele>431.642</ele>
        <time>2020-05-20T07:27:40Z</time>
      </trkpt>
      <trkpt lat="43.252370" lon="-4.870150">
        <ele>432.218</ele>
        <time>2020-05-20T07:28:00Z</time>
      </trkpt>
      <trkpt lat="43.252380" lon="-4.870150">
        <ele>431.971</ele>
        <time>2020-05-20T07:28:20Z</time>
      </trkpt>
      <trkpt lat="43.252400" lon="-4.870160">
        <ele>432.061</ele>
        <time>2020-05-20T07:28:40Z</time>
      </trkpt>
      <trkpt lat="43.252410" lon="-4.870170">
        <ele>432.291</ele>
        <time>2020-05-20T07:29:00Z</time>
      </trkpt>
      <trkpt lat="43.252430" lon="-4.870180">
        <ele>432.251</ele>
        <time>2020-05-20T07:29:20Z</time>
      </trkpt>
      <trkpt lat="43.252440" lon="-4.870190">
        <ele>432.470</ele>
        <time>2020-05-20T07:29:40Z</time>
      </trkpt>
      <trkpt lat="43.252450" lon="-4.870200">
        <ele>432.545</ele>
        <time>2020-05-20T07:30:00Z</time>
      </trkpt>
      <trkpt lat="43.252470" lon="-4.870210">
        <ele>432.347</ele>
        <time>2020-05-20T07:30:20Z</time>
      </trkpt>
      <trkpt lat="43.252480" lon="-4.870220">
        <ele>432.411</ele>
        <time>2020-05-20T07:30:40Z</time>
      </trkpt>
      <trkpt lat="43.252490" lon="-4.870230">
        <ele>432.508</ele>
        <time>2020-05-20T07:31:00Z</time>
      </trkpt>
      <trkpt lat="43.252500" lon="-4.870240">
        <ele>432.588</ele>
        <time>2020-05-20T07:31:20Z</time>
      </trkpt>
      <trkpt lat="43.252510" lon="-4.870250">
        <ele>434.573</ele>
        <time>2020-05-20T07:31:40Z</time>
      </trkpt>
      <trkpt lat="43.252520" lon="-4.870270">
        <ele>436.889</ele>
        <time>2020-05-20T07:32:00Z</time>
      </trkpt>
      <trkpt lat="43.252520" lon="-4.870280">
        <ele>437.382</ele>
        <time>2020-05-20T07:32:20Z</time>
      </trkpt>
      <trkpt lat="43.252530" lon="-4.870300">
        <ele>440.432</ele>
        <time>2020-05-20T07:32:40Z</time>
      </trkpt>
      <trkpt lat="43.252550" lon="-4.870320">
        <ele>444.862</ele>
        <time>2020-05-20T07:33:00Z</time>
      </trkpt>
      <trkpt lat="43.252550" lon="-4.870330">
        <ele>445.512</ele>
        <time>2020-05-20T07:33:20Z</time>
      </trkpt>
      <trkpt lat="43.252560" lon="-4.870340">
        <ele>447.531</ele>
        <time>2020-05-20T07:33:40Z</time>
      </trkpt>
      <trkpt lat="43.252570" lon="-4.870360">
        <ele>450.144</ele>
        <time>2020-05-20T07:34:00Z</time>
      </trkpt>
      <trkpt lat="43.252580" lon="-4.870380">
        <ele>452.605</ele>
        <time>2020-05-20T07:34:20Z</time>
      </trkpt>
      <trkpt lat="43.252580" lon="-4.870390">
        <ele>453.215</ele>
        <time>2020-05-20T07:34:40Z</time>
      </trkpt>
      <trkpt lat="43.252590" lon="-4.870410">
        <ele>455.508</ele>
        <time>2020-05-20T07:35:00Z</time>
      </trkpt>
      <trkpt lat="43.252600" lon="-4.870420">
        <ele>457.168</ele>
        <time>2020-05-20T07:35:20Z</time>
      </trkpt>
      <trkpt lat="43.252610" lon="-4.870440">
        <ele>459.233</ele>
        <time>2020-05-20T07:35:40Z</time>
      </trkpt>
      <trkpt lat="43.252620" lon="-4.870460">
        <ele>461.079</ele>
        <time>2020-05-20T07:36:00Z</time>
      </trkpt>
      <trkpt lat="43.252630" lon="-4.870470">
        <ele>462.482</ele>
        <time>2020-05-20T07:36:20Z</time>
      </trkpt>
      <trkpt lat="43.252640" lon="-4.870490">
        <ele>464.092</ele>
        <time>2020-05-20T07:36:40Z</time>
      </trkpt>
      <trkpt lat="43.252650" lon="-4.870500">
        <ele>465.172</ele>
        <time>2020-05-20T07:37:00Z</time>
      </trkpt>
      <trkpt lat="43.252660" lon="-4.870500">
        <ele>465.932</ele>
        <time>2020-05-20T07:37:20Z</time>
      </trkpt>
      <trkpt lat="43.252670" lon="-4.870510">
        <ele>466.941</ele>
        <time>2020-05-20T07:37:40Z</time>
      </trkpt>
      <trkpt lat="43.252680" lon="-4.870510">
        <ele>467.669</ele>
        <time>2020-05-20T07:38:00Z</time>
      </trkpt>
      <trkpt lat="43.252690" lon="-4.870520">
        <ele>468.504</ele>
        <time>2020-05-20T07:38:20Z</time>
      </trkpt>
      <trkpt lat="43.252700" lon="-4.870520">
        <ele>469.224</ele>
        <time>2020-05-20T07:38:40Z</time>
      </trkpt>
      <trkpt lat="43.252720" lon="-4.870520">
        <ele>470.508</ele>
        <time>2020-05-20T07:39:00Z</time>
      </trkpt>
      <trkpt lat="43.252730" lon="-4.870520">
        <ele>471.270</ele>
        <time>2020-05-20T07:39:20Z</time>
      </trkpt>
      <trkpt lat="43.252740" lon="-4.870520">
        <ele>471.955</ele>
        <time>2020-05-20T07:39:40Z</time>
      </trkpt>
      <trkpt lat="43.252750" lon="-4.870520">
        <ele>472.551</ele>
        <time>2020-05-20T07:40:00Z</time>
      </trkpt>
      <trkpt lat="43.252760" lon="-4.870510">
        <ele>473.264</ele>
        <time>2020-05-20T07:40:20Z</time>
      </trkpt>
      <trkpt lat="43.252780" lon="-4.870510">
        <ele>474.854</ele>
        <time>2020-05-20T07:40:40Z</time>
      </trkpt>
      <trkpt lat="43.252790" lon="-4.870490">
        <ele>476.434</ele>
        <time>2020-05-20T07:41:00Z</time>
      </trkpt>
      <trkpt lat="43.252800" lon="-4.870480">
        <ele>477.914</ele>
        <time>2020-05-20T07:41:20Z</time>
      </trkpt>
      <trkpt lat="43.252810" lon="-4.870470">
        <ele>479.443</ele>
        <time>2020-05-20T07:41:40Z</time>
      </trkpt>
      <trkpt lat="43.252820" lon="-4.870450">
        <ele>481.041</ele>
        <time>2020-05-20T07:42:00Z</time>
      </trkpt>
      <trkpt lat="43.252830" lon="-4.870430">
        <ele>482.581</ele>
        <time>2020-05-20T07:42:20Z</time>
      </trkpt>
      <trkpt lat="43.252830" lon="-4.870400">
        <ele>482.809</ele>
        <time>2020-05-20T07:42:40Z</time>
      </trkpt>
      <trkpt lat="43.252840" lon="-4.870380">
        <ele>484.308</ele>
        <time>2020-05-20T07:43:00Z</time>
      </trkpt>
      <trkpt lat="43.252840" lon="-4.870350">
        <ele>484.598</ele>
        <time>2020-05-20T07:43:20Z</time>
      </trkpt>
      <trkpt lat="43.252830" lon="-4.870320">
        <ele>483.463</ele>
        <time>2020-05-20T07:43:40Z</time>
      </trkpt>
      <trkpt lat="43.252830" lon="-4.870300">
        <ele>483.619</ele>
        <time>2020-05-20T07:44:00Z</time>
      </trkpt>
      <trkpt lat="43.252830" lon="-4.870270">
        <ele>483.982</ele>
        <time>2020-05-20T07:44:20Z</time>
      </trkpt>
      <trkpt lat="43.252830" lon="-4.870260">
        <ele>484.062</ele>
        <time>2020-05-20T07:44:40Z</time>
      </trkpt>
      <trkpt lat="43.252820" lon="-4.870230">
        <ele>483.292</ele>
        <time>2020-05-20T07:45:00Z</time>
      </trkpt>
      <trkpt lat="43.252810" lon="-4.870190">
        <ele>482.672</ele>
        <time>2020-05-20T07:45:20Z</time>
      </trkpt>
      <trkpt lat="43.252800" lon="-4.870150">
        <ele>482.271</ele>
        <time>2020-05-20T07:45:40Z</time>
      </trkpt>
      <trkpt lat="43.252800" lon="-4.870110">
        <ele>482.928</ele>
        <time>2020-05-20T07:46:00Z</time>
      </trkpt>
      <trkpt lat="43.252780" lon="-4.870080">
        <ele>481.589</ele>
        <time>2020-05-20T07:46:20Z</time>
      </trkpt>
      <trkpt lat="43.252770" lon="-4.870050">
        <ele>480.317</ele>
        <time>2020-05-20T07:46:40Z</time>
      </trkpt>
      <trkpt lat="43.252760" lon="-4.870040">
        <ele>478.508</ele>
        <time>2020-05-20T07:47:00Z</time>
      </trkpt>
      <trkpt lat="43.252750" lon="-4.870000">
        <ele>477.036</ele>
        <time>2020-05-20T07:47:20Z</time>
      </trkpt>
      <trkpt lat="43.252740" lon="-4.869970">
        <ele>474.041</ele>
        <time>2020-05-20T07:47:40Z</time>
      </trkpt>
      <trkpt lat="43.252710" lon="-4.869920">
        <ele>466.387</ele>
        <time>2020-05-20T07:48:00Z</time>
      </trkpt>
      <trkpt lat="43.252700" lon="-4.869880">
        <ele>463.390</ele>
        <time>2020-05-20T07:48:20Z</time>
      </trkpt>
      <trkpt lat="43.252680" lon="-4.869850">
        <ele>458.530</ele>
        <time>2020-05-20T07:48:40Z</time>
      </trkpt>
      <trkpt lat="43.252660" lon="-4.869820">
        <ele>453.910</ele>
        <time>2020-05-20T07:49:00Z</time>
      </trkpt>
      <trkpt lat="43.252650" lon="-4.869790">
        <ele>451.420</ele>
        <time>2020-05-20T07:49:20Z</time>
      </trkpt>
      <trkpt lat="43.252640" lon="-4.869770">
        <ele>449.159</ele>
        <time>2020-05-20T07:49:40Z</time>
      </trkpt>
      <trkpt lat="43.252630" lon="-4.869720">
        <ele>446.312</ele>
        <time>2020-05-20T07:50:00Z</time>
      </trkpt>
      <trkpt lat="43.252610" lon="-4.869670">
        <ele>442.232</ele>
        <time>2020-05-20T07:50:20Z</time>
      </trkpt>
      <trkpt lat="43.252600" lon="-4.869610">
        <ele>440.305</ele>
        <time>2020-05-20T07:50:40Z</time>
      </trkpt>
      <trkpt lat="43.252600" lon="-4.869600">
        <ele>440.308</ele>
        <time>2020-05-20T07:51:00Z</time>
      </trkpt>
      <trkpt lat="43.252580" lon="-4.869530">
        <ele>437.545</ele>
        <time>2020-05-20T07:51:20Z</time>
      </trkpt>
      <trkpt lat="43.252580" lon="-4.869480">
        <ele>437.740</ele>
        <time>2020-05-20T07:51:40Z</time>
      </trkpt>
      <trkpt lat="43.252580" lon="-4.869450">
        <ele>437.836</ele>
        <time>2020-05-20T07:52:00Z</time>
      </trkpt>
      <trkpt lat="43.252580" lon="-4.869410">
        <ele>436.889</ele>
        <time>2020-05-20T07:52:20Z</time>
      </trkpt>
      <trkpt lat="43.252590" lon="-4.869390">
        <ele>437.189</ele>
        <time>2020-05-20T07:52:40Z</time>
      </trkpt>
      <trkpt lat="43.252590" lon="-4.869370">
        <ele>436.519</ele>
        <time>2020-05-20T07:53:00Z</time>
      </trkpt>
      <trkpt lat="43.252590" lon="-4.869360">
        <ele>436.129</ele>
        <time>2020-05-20T07:53:20Z</time>
      </trkpt>
      <trkpt lat="43.252600" lon="-4.869330">
        <ele>436.098</ele>
        <time>2020-05-20T07:53:40Z</time>
      </trkpt>
      <trkpt lat="43.252600" lon="-4.869300">
        <ele>435.155</ele>
        <time>2020-05-20T07:54:00Z</time>
      </trkpt>
      <trkpt lat="43.252600" lon="-4.869280">
        <ele>434.407</ele>
        <time>2020-05-20T07:54:20Z</time>
      </trkpt>
      <trkpt lat="43.252600" lon="-4.869270">
        <ele>434.117</ele>
        <time>2020-05-20T07:54:40Z</time>
      </trkpt>
      <trkpt lat="43.252600" lon="-4.869260">
        <ele>433.808</ele>
        <time>2020-05-20T07:55:00Z</time>
      </trkpt>
      <trkpt lat="43.252610" lon="-4.869250">
        <ele>434.179</ele>
        <time>2020-05-20T07:55:20Z</time>
      </trkpt>
      <trkpt lat="43.252620" lon="-4.869250">
        <ele>434.884</ele>
        <time>2020-05-20T07:55:40Z</time>
      </trkpt>
      <trkpt lat="43.252630" lon="-4.869250">
        <ele>435.590</ele>
        <time>2020-05-20T07:56:00Z</time>
      </trkpt>
      <trkpt lat="43.252660" lon="-4.869240">
        <ele>437.263</ele>
        <time>2020-05-20T07:56:20Z</time>
      </trkpt>
      <trkpt lat="43.252700" lon="-4.869240">
        <ele>439.953</ele>
        <time>2020-05-20T07:56:40Z</time>
      </trkpt>
      <trkpt lat="43.252760" lon="-4.869250">
        <ele>444.693</ele>
        <time>2020-05-20T07:57:00Z</time>
      </trkpt>
      <trkpt lat="43.252830" lon="-4.869250">
        <ele>451.663</ele>
        <time>2020-05-20T07:57:20Z</time>
      </trkpt>
      <trkpt lat="43.252880" lon="-4.869250">
        <ele>457.192</ele>
        <time>2020-05-20T07:57:40Z</time>
      </trkpt>
      <trkpt lat="43.252920" lon="-4.869250">
        <ele>461.671</ele>
        <time>2020-05-20T07:58:00Z</time>
      </trkpt>
      <trkpt lat="43.252950" lon="-4.869240">
        <ele>464.441</ele>
        <time>2020-05-20T07:58:20Z</time>
      </trkpt>
      <trkpt lat="43.252970" lon="-4.869230">
        <ele>466.215</ele>
        <time>2020-05-20T07:58:40Z</time>
      </trkpt>
      <trkpt lat="43.252990" lon="-4.869220">
        <ele>467.908</ele>
        <time>2020-05-20T07:59:00Z</time>
      </trkpt>
      <trkpt lat="43.253020" lon="-4.869210">
        <ele>470.971</ele>
        <time>2020-05-20T07:59:20Z</time>
      </trkpt>
      <trkpt lat="43.253050" lon="-4.869200">
        <ele>473.886</ele>
        <time>2020-05-20T07:59:40Z</time>
      </trkpt>
      <trkpt lat="43.253080" lon="-4.869200">
        <ele>476.342</ele>
        <time>2020-05-20T08:00:00Z</time>
      </trkpt>
      <trkpt lat="43.253110" lon="-4.869190">
        <ele>478.175</ele>
        <time>2020-05-20T08:00:20Z</time>
      </trkpt>
      <trkpt lat="43.253130" lon="-4.869190">
        <ele>479.665</ele>
        <time>2020-05-20T08:00:40Z</time>
      </trkpt>
      <trkpt lat="43.253160" lon="-4.869190">
        <ele>481.985</ele>
        <time>2020-05-20T08:01:00Z</time>
      </trkpt>
      <trkpt lat="43.253170" lon="-4.869190">
        <ele>482.665</ele>
        <time>2020-05-20T08:01:20Z</time>
      </trkpt>
      <trkpt lat="43.253200" lon="-4.869170">
        <ele>484.194</ele>
        <time>2020-05-20T08:01:40Z</time>
      </trkpt>
      <trkpt lat="43.253220" lon="-4.869160">
        <ele>485.185</ele>
        <time>2020-05-20T08:02:00Z</time>
      </trkpt>
      <trkpt lat="43.253230" lon="-4.869160">
        <ele>485.989</ele>
        <time>2020-05-20T08:02:20Z</time>
      </trkpt>
      <trkpt lat="43.253240" lon="-4.869150">
        <ele>486.317</ele>
        <time>2020-05-20T08:02:40Z</time>
      </trkpt>
      <trkpt lat="43.253250" lon="-4.869140">
        <ele>486.608</ele>
        <time>2020-05-20T08:03:00Z</time>
      </trkpt>
      <trkpt lat="43.253270" lon="-4.869130">
        <ele>487.842</ele>
        <time>2020-05-20T08:03:20Z</time>
      </trkpt>
      <trkpt lat="43.253280" lon="-4.869120">
        <ele>488.237</ele>
        <time>2020-05-20T08:03:40Z</time>
      </trkpt>
      <trkpt lat="43.253290" lon="-4.869100">
        <ele>488.313</ele>
        <time>2020-05-20T08:04:00Z</time>
      </trkpt>
      <trkpt lat="43.253300" lon="-4.869080">
        <ele>488.416</ele>
        <time>2020-05-20T08:04:20Z</time>
      </trkpt>
      <trkpt lat="43.253300" lon="-4.869060">
        <ele>487.756</ele>
        <time>2020-05-20T08:04:40Z</time>
      </trkpt>
      <trkpt lat="43.253300" lon="-4.869030">
        <ele>486.626</ele>
        <time>2020-05-20T08:05:00Z</time>
      </trkpt>
      <trkpt lat="43.253300" lon="-4.869020">
        <ele>486.356</ele>
        <time>2020-05-20T08:05:20Z</time>
      </trkpt>
      <trkpt lat="43.253300" lon="-4.868990">
        <ele>485.235</ele>
        <time>2020-05-20T08:05:40Z</time>
      </trkpt>
      <trkpt lat="43.253300" lon="-4.868970">
        <ele>484.592</ele>
        <time>2020-05-20T08:06:00Z</time>
      </trkpt>
      <trkpt lat="43.253300" lon="-4.868960">
        <ele>484.273</ele>
        <time>2020-05-20T08:06:20Z</time>
      </trkpt>
      <trkpt lat="43.253290" lon="-4.868950">
        <ele>482.920</ele>
        <time>2020-05-20T08:06:40Z</time>
      </trkpt>
      <trkpt lat="43.253290" lon="-4.868930">
        <ele>482.108</ele>
        <time>2020-05-20T08:07:00Z</time>
      </trkpt>
      <trkpt lat="43.253280" lon="-4.868900">
        <ele>480.063</ele>
        <time>2020-05-20T08:07:20Z</time>
      </trkpt>
      <trkpt lat="43.253270" lon="-4.868880">
        <ele>478.468</ele>
        <time>2020-05-20T08:07:40Z</time>
      </trkpt>
      <trkpt lat="43.253250" lon="-4.868860">
        <ele>475.934</ele>
        <time>2020-05-20T08:08:00Z</time>
      </trkpt>
      <trkpt lat="43.253240" lon="-4.868830">
        <ele>474.267</ele>
        <time>2020-05-20T08:08:20Z</time>
      </trkpt>
      <trkpt lat="43.253210" lon="-4.868800">
        <ele>470.537</ele>
        <time>2020-05-20T08:08:40Z</time>
      </trkpt>
      <trkpt lat="43.253200" lon="-4.868790">
        <ele>469.277</ele>
        <time>2020-05-20T08:09:00Z</time>
      </trkpt>
      <trkpt lat="43.253180" lon="-4.868770">
        <ele>466.827</ele>
        <time>2020-05-20T08:09:20Z</time>
      </trkpt>
      <trkpt lat="43.253170" lon="-4.868750">
        <ele>465.386</ele>
        <time>2020-05-20T08:09:40Z</time>
      </trkpt>
      <trkpt lat="43.253150" lon="-4.868730">
        <ele>462.938</ele>
        <time>2020-05-20T08:10:00Z</time>
      </trkpt>
      <trkpt lat="43.253150" lon="-4.868710">
        <ele>462.470</ele>
        <time>2020-05-20T08:10:20Z</time>
      </trkpt>
      <trkpt lat="43.253150" lon="-4.868690">
        <ele>462.017</ele>
        <time>2020-05-20T08:10:40Z</time>
      </trkpt>
      <trkpt lat="43.253140" lon="-4.868670">
        <ele>460.508</ele>
        <time>2020-05-20T08:11:00Z</time>
      </trkpt>
      <trkpt lat="43.253140" lon="-4.868650">
        <ele>460.137</ele>
        <time>2020-05-20T08:11:20Z</time>
      </trkpt>
      <trkpt lat="43.253150" lon="-4.868620">
        <ele>460.482</ele>
        <time>2020-05-20T08:11:40Z</time>
      </trkpt>
      <trkpt lat="43.253150" lon="-4.868600">
        <ele>459.838</ele>
        <time>2020-05-20T08:12:00Z</time>
      </trkpt>
      <trkpt lat="43.253150" lon="-4.868590">
        <ele>459.531</ele>
        <time>2020-05-20T08:12:20Z</time>
      </trkpt>
      <trkpt lat="43.253160" lon="-4.868570">
        <ele>459.951</ele>
        <time>2020-05-20T08:12:40Z</time>
      </trkpt>
      <trkpt lat="43.253170" lon="-4.868550">
        <ele>460.361</ele>
        <time>2020-05-20T08:13:00Z</time>
      </trkpt>
      <trkpt lat="43.253180" lon="-4.868530">
        <ele>460.721</ele>
        <time>2020-05-20T08:13:20Z</time>
      </trkpt>
      <trkpt lat="43.253180" lon="-4.868510">
        <ele>460.130</ele>
        <time>2020-05-20T08:13:40Z</time>
      </trkpt>
      <trkpt lat="43.253190" lon="-4.868500">
        <ele>460.979</ele>
        <time>2020-05-20T08:14:00Z</time>
      </trkpt>
      <trkpt lat="43.253190" lon="-4.868480">
        <ele>460.305</ele>
        <time>2020-05-20T08:14:20Z</time>
      </trkpt>
      <trkpt lat="43.253190" lon="-4.868470">
        <ele>460.025</ele>
        <time>2020-05-20T08:14:40Z</time>
      </trkpt>
      <trkpt lat="43.253190" lon="-4.868460">
        <ele>459.708</ele>
        <time>2020-05-20T08:15:00Z</time>
      </trkpt>
      <trkpt lat="43.253190" lon="-4.868450">
        <ele>459.491</ele>
        <time>2020-05-20T08:15:20Z</time>
      </trkpt>
      <trkpt lat="43.253190" lon="-4.868440">
        <ele>459.196</ele>
        <time>2020-05-20T08:15:40Z</time>
      </trkpt>
      <trkpt lat="43.253180" lon="-4.868420">
        <ele>457.562</ele>
        <time>2020-05-20T08:16:00Z</time>
      </trkpt>
      <trkpt lat="43.253180" lon="-4.868400">
        <ele>456.935</ele>
        <time>2020-05-20T08:16:20Z</time>
      </trkpt>
      <trkpt lat="43.253170" lon="-4.868380">
        <ele>455.385</ele>
        <time>2020-05-20T08:16:40Z</time>
      </trkpt>
      <trkpt lat="43.253160" lon="-4.868350">
        <ele>453.495</ele>
        <time>2020-05-20T08:17:00Z</time>
      </trkpt>
      <trkpt lat="43.253150" lon="-4.868330">
        <ele>451.885</ele>
        <time>2020-05-20T08:17:20Z</time>
      </trkpt>
      <trkpt lat="43.253150" lon="-4.868320">
        <ele>451.844</ele>
        <time>2020-05-20T08:17:40Z</time>
      </trkpt>
      <trkpt lat="43.253130" lon="-4.868290">
        <ele>449.619</ele>
        <time>2020-05-20T08:18:00Z</time>
      </trkpt>
      <trkpt lat="43.253110" lon="-4.868250">
        <ele>447.409</ele>
        <time>2020-05-20T08:18:20Z</time>
      </trkpt>
      <trkpt lat="43.253100" lon="-4.868220">
        <ele>446.419</ele>
        <time>2020-05-20T08:18:40Z</time>
      </trkpt>
      <trkpt lat="43.253090" lon="-4.868210">
        <ele>445.408</ele>
        <time>2020-05-20T08:19:00Z</time>
      </trkpt>
      <trkpt lat="43.253090" lon="-4.868180">
        <ele>445.395</ele>
        <time>2020-05-20T08:19:20Z</time>
      </trkpt>
      <trkpt lat="43.253090" lon="-4.868160">
        <ele>445.330</ele>
        <time>2020-05-20T08:19:40Z</time>
      </trkpt>
      <trkpt lat="43.253090" lon="-4.868140">
        <ele>445.326</ele>
        <time>2020-05-20T08:20:00Z</time>
      </trkpt>
      <trkpt lat="43.253090" lon="-4.868130">
        <ele>445.289</ele>
        <time>2020-05-20T08:20:20Z</time>
      </trkpt>
      <trkpt lat="43.253090" lon="-4.868110">
        <ele>445.229</ele>
        <time>2020-05-20T08:20:40Z</time>
      </trkpt>
      <trkpt lat="43.253100" lon="-4.868100">
        <ele>446.189</ele>
        <time>2020-05-20T08:21:00Z</time>
      </trkpt>
      <trkpt lat="43.253100" lon="-4.868090">
        <ele>446.129</ele>
        <time>2020-05-20T08:21:20Z</time>
      </trkpt>
      <trkpt lat="43.253110" lon="-4.868070">
        <ele>446.958</ele>
        <time>2020-05-20T08:21:40Z</time>
      </trkpt>
      <trkpt lat="43.253120" lon="-4.868050">
        <ele>447.784</ele>
        <time>2020-05-20T08:22:00Z</time>
      </trkpt>
      <trkpt lat="43.253140" lon="-4.868030">
        <ele>448.907</ele>
        <time>2020-05-20T08:22:20Z</time>
      </trkpt>
      <trkpt lat="43.253150" lon="-4.868000">
        <ele>449.017</ele>
        <time>2020-05-20T08:22:40Z</time>
      </trkpt>
      <trkpt lat="43.253170" lon="-4.867980">
        <ele>450.308</ele>
        <time>2020-05-20T08:23:00Z</time>
      </trkpt>
      <trkpt lat="43.253200" lon="-4.867960">
        <ele>452.472</ele>
        <time>2020-05-20T08:23:20Z</time>
      </trkpt>
      <trkpt lat="43.253230" lon="-4.867940">
        <ele>454.537</ele>
        <time>2020-05-20T08:23:40Z</time>
      </trkpt>
      <trkpt lat="43.253260" lon="-4.867910">
        <ele>456.333</ele>
        <time>2020-05-20T08:24:00Z</time>
      </trkpt>
      <trkpt lat="43.253330" lon="-4.867870">
        <ele>461.456</ele>
        <time>2020-05-20T08:24:20Z</time>
      </trkpt>
      <trkpt lat="43.253390" lon="-4.867850">
        <ele>465.936</ele>
        <time>2020-05-20T08:24:40Z</time>
      </trkpt>
      <trkpt lat="43.253420" lon="-4.867840">
        <ele>468.036</ele>
        <time>2020-05-20T08:25:00Z</time>
      </trkpt>
      <trkpt lat="43.253510" lon="-4.867790">
        <ele>473.066</ele>
        <time>2020-05-20T08:25:20Z</time>
      </trkpt>
      <trkpt lat="43.253580" lon="-4.867740">
        <ele>476.675</ele>
        <time>2020-05-20T08:25:40Z</time>
      </trkpt>
      <trkpt lat="43.253640" lon="-4.867720">
        <ele>480.877</ele>
        <time>2020-05-20T08:26:00Z</time>
      </trkpt>
      <trkpt lat="43.253660" lon="-4.867700">
        <ele>481.661</ele>
        <time>2020-05-20T08:26:20Z</time>
      </trkpt>
      <trkpt lat="43.253680" lon="-4.867690">
        <ele>482.727</ele>
        <time>2020-05-20T08:26:40Z</time>
      </trkpt>
      <trkpt lat="43.253700" lon="-4.867680">
        <ele>483.608</ele>
        <time>2020-05-20T08:27:00Z</time>
      </trkpt>
      <trkpt lat="43.253710" lon="-4.867670">
        <ele>483.881</ele>
        <time>2020-05-20T08:27:20Z</time>
      </trkpt>
      <trkpt lat="43.253720" lon="-4.867650">
        <ele>483.516</ele>
        <time>2020-05-20T08:27:40Z</time>
      </trkpt>
      <trkpt lat="43.253730" lon="-4.867630">
        <ele>483.152</ele>
        <time>2020-05-20T08:28:00Z</time>
      </trkpt>
      <trkpt lat="43.253740" lon="-4.867610">
        <ele>482.685</ele>
        <time>2020-05-20T08:28:20Z</time>
      </trkpt>
      <trkpt lat="43.253750" lon="-4.867590">
        <ele>482.065</ele>
        <time>2020-05-20T08:28:40Z</time>
      </trkpt>
      <trkpt lat="43.253760" lon="-4.867570">
        <ele>481.315</ele>
        <time>2020-05-20T08:29:00Z</time>
      </trkpt>
      <trkpt lat="43.253760" lon="-4.867550">
        <ele>480.265</ele>
        <time>2020-05-20T08:29:20Z</time>
      </trkpt>
      <trkpt lat="43.253770" lon="-4.867530">
        <ele>479.474</ele>
        <time>2020-05-20T08:29:40Z</time>
      </trkpt>
      <trkpt lat="43.253770" lon="-4.867510">
        <ele>478.233</ele>
        <time>2020-05-20T08:30:00Z</time>
      </trkpt>
      <trkpt lat="43.253770" lon="-4.867490">
        <ele>476.923</ele>
        <time>2020-05-20T08:30:20Z</time>
      </trkpt>
      <trkpt lat="43.253770" lon="-4.867470">
        <ele>475.515</ele>
        <time>2020-05-20T08:30:40Z</time>
      </trkpt>
      <trkpt lat="43.253760" lon="-4.867440">
        <ele>473.208</ele>
        <time>2020-05-20T08:31:00Z</time>
      </trkpt>
      <trkpt lat="43.253760" lon="-4.867420">
        <ele>471.917</ele>
        <time>2020-05-20T08:31:20Z</time>
      </trkpt>
      <trkpt lat="43.253760" lon="-4.867400">
        <ele>470.552</ele>
        <time>2020-05-20T08:31:40Z</time>
      </trkpt>
      <trkpt lat="43.253750" lon="-4.867350">
        <ele>467.378</ele>
        <time>2020-05-20T08:32:00Z</time>
      </trkpt>
      <trkpt lat="43.253740" lon="-4.867310">
        <ele>464.981</ele>
        <time>2020-05-20T08:32:20Z</time>
      </trkpt>
      <trkpt lat="43.253740" lon="-4.867290">
        <ele>463.791</ele>
        <time>2020-05-20T08:32:40Z</time>
      </trkpt>
      <trkpt lat="43.253740" lon="-4.867280">
        <ele>463.151</ele>
        <time>2020-05-20T08:33:00Z</time>
      </trkpt>
      <trkpt lat="43.253750" lon="-4.867270">
        <ele>462.131</ele>
        <time>2020-05-20T08:33:20Z</time>
      </trkpt>
      <trkpt lat="43.253750" lon="-4.867260">
        <ele>461.420</ele>
        <time>2020-05-20T08:33:40Z</time>
      </trkpt>
      <trkpt lat="43.253760" lon="-4.867250">
        <ele>460.427</ele>
        <time>2020-05-20T08:34:00Z</time>
      </trkpt>
      <trkpt lat="43.253780" lon="-4.867250">
        <ele>459.568</ele>
        <time>2020-05-20T08:34:20Z</time>
      </trkpt>
      <trkpt lat="43.253800" lon="-4.867240">
        <ele>457.914</ele>
        <time>2020-05-20T08:34:40Z</time>
      </trkpt>
      <trkpt lat="43.253810" lon="-4.867240">
        <ele>457.408</ele>
        <time>2020-05-20T08:35:00Z</time>
      </trkpt>
      <trkpt lat="43.253830" lon="-4.867230">
        <ele>455.646</ele>
        <time>2020-05-20T08:35:20Z</time>
      </trkpt>
      <trkpt lat="43.253850" lon="-4.867230">
        <ele>454.791</ele>
        <time>2020-05-20T08:35:40Z</time>
      </trkpt>
      <trkpt lat="43.253890" lon="-4.867250">
        <ele>455.217</ele>
        <time>2020-05-20T08:36:00Z</time>
      </trkpt>
      <trkpt lat="43.253970" lon="-4.867290">
        <ele>480.070</ele>
        <time>2020-05-20T08:36:20Z</time>
      </trkpt>
      <trkpt lat="43.253980" lon="-4.867290">
        <ele>482.510</ele>
        <time>2020-05-20T08:36:40Z</time>
      </trkpt>
      <trkpt lat="43.254070" lon="-4.867330">
        <ele>509.310</ele>
        <time>2020-05-20T08:37:00Z</time>
      </trkpt>
      <trkpt lat="43.254120" lon="-4.867350">
        <ele>523.850</ele>
        <time>2020-05-20T08:37:20Z</time>
      </trkpt>
      <trkpt lat="43.254150" lon="-4.867370">
        <ele>533.029</ele>
        <time>2020-05-20T08:37:40Z</time>
      </trkpt>
      <trkpt lat="43.254210" lon="-4.867410">
        <ele>545.761</ele>
        <time>2020-05-20T08:38:00Z</time>
      </trkpt>
      <trkpt lat="43.254290" lon="-4.867460">
        <ele>558.921</ele>
        <time>2020-05-20T08:38:20Z</time>
      </trkpt>
      <trkpt lat="43.254380" lon="-4.867510">
        <ele>572.013</ele>
        <time>2020-05-20T08:38:40Z</time>
      </trkpt>
      <trkpt lat="43.254440" lon="-4.867560">
        <ele>580.008</ele>
        <time>2020-05-20T08:39:00Z</time>
      </trkpt>
      <trkpt lat="43.254470" lon="-4.867590">
        <ele>588.590</ele>
        <time>2020-05-20T08:39:20Z</time>
      </trkpt>
      <trkpt lat="43.254510" lon="-4.867630">
        <ele>602.065</ele>
        <time>2020-05-20T08:39:40Z</time>
      </trkpt>
      <trkpt lat="43.254560" lon="-4.867680">
        <ele>620.811</ele>
        <time>2020-05-20T08:40:00Z</time>
      </trkpt>
      <trkpt lat="43.254620" lon="-4.867720">
        <ele>644.494</ele>
        <time>2020-05-20T08:40:20Z</time>
      </trkpt>
      <trkpt lat="43.254620" lon="-4.867730">
        <ele>645.584</ele>
        <time>2020-05-20T08:40:40Z</time>
      </trkpt>
      <trkpt lat="43.254640" lon="-4.867740">
        <ele>653.534</ele>
        <time>2020-05-20T08:41:00Z</time>
      </trkpt>
      <trkpt lat="43.254660" lon="-4.867740">
        <ele>660.564</ele>
        <time>2020-05-20T08:41:20Z</time>
      </trkpt>
      <trkpt lat="43.254680" lon="-4.867750">
        <ele>668.873</ele>
        <time>2020-05-20T08:41:40Z</time>
      </trkpt>
      <trkpt lat="43.254700" lon="-4.867750">
        <ele>675.944</ele>
        <time>2020-05-20T08:42:00Z</time>
      </trkpt>
      <trkpt lat="43.254720" lon="-4.867750">
        <ele>683.005</ele>
        <time>2020-05-20T08:42:20Z</time>
      </trkpt>
      <trkpt lat="43.254740" lon="-4.867740">
        <ele>686.615</ele>
        <time>2020-05-20T08:42:40Z</time>
      </trkpt>
      <trkpt lat="43.254750" lon="-4.867740">
        <ele>689.008</ele>
        <time>2020-05-20T08:43:00Z</time>
      </trkpt>
      <trkpt lat="43.254760" lon="-4.867730">
        <ele>690.058</ele>
        <time>2020-05-20T08:43:20Z</time>
      </trkpt>
      <trkpt lat="43.254780" lon="-4.867710">
        <ele>692.233</ele>
        <time>2020-05-20T08:43:40Z</time>
      </trkpt>
      <trkpt lat="43.254780" lon="-4.867700">
        <ele>690.949</ele>
        <time>2020-05-20T08:44:00Z</time>
      </trkpt>
      <trkpt lat="43.254800" lon="-4.867680">
        <ele>693.452</ele>
        <time>2020-05-20T08:44:20Z</time>
      </trkpt>
      <trkpt lat="43.254810" lon="-4.867650">
        <ele>692.272</ele>
        <time>2020-05-20T08:44:40Z</time>
      </trkpt>
      <trkpt lat="43.254820" lon="-4.867610">
        <ele>690.092</ele>
        <time>2020-05-20T08:45:00Z</time>
      </trkpt>
      <trkpt lat="43.254830" lon="-4.867570">
        <ele>688.142</ele>
        <time>2020-05-20T08:45:20Z</time>
      </trkpt>
      <trkpt lat="43.254840" lon="-4.867550">
        <ele>688.711</ele>
        <time>2020-05-20T08:45:40Z</time>
      </trkpt>
      <trkpt lat="43.254840" lon="-4.867510">
        <ele>684.089</ele>
        <time>2020-05-20T08:46:00Z</time>
      </trkpt>
      <trkpt lat="43.254840" lon="-4.867470">
        <ele>681.206</ele>
        <time>2020-05-20T08:46:20Z</time>
      </trkpt>
      <trkpt lat="43.254840" lon="-4.867430">
        <ele>678.926</ele>
        <time>2020-05-20T08:46:40Z</time>
      </trkpt>
      <trkpt lat="43.254830" lon="-4.867390">
        <ele>673.108</ele>
        <time>2020-05-20T08:47:00Z</time>
      </trkpt>
      <trkpt lat="43.254820" lon="-4.867340">
        <ele>666.562</ele>
        <time>2020-05-20T08:47:20Z</time>
      </trkpt>
      <trkpt lat="43.254810" lon="-4.867300">
        <ele>660.247</ele>
        <time>2020-05-20T08:47:40Z</time>
      </trkpt>
      <trkpt lat="43.254790" lon="-4.867260">
        <ele>649.843</ele>
        <time>2020-05-20T08:48:00Z</time>
      </trkpt>
      <trkpt lat="43.254780" lon="-4.867230">
        <ele>643.766</ele>
        <time>2020-05-20T08:48:20Z</time>
      </trkpt>
      <trkpt lat="43.254780" lon="-4.867220">
        <ele>643.076</ele>
        <time>2020-05-20T08:48:40Z</time>
      </trkpt>
      <trkpt lat="43.254760" lon="-4.867160">
        <ele>633.236</ele>
        <time>2020-05-20T08:49:00Z</time>
      </trkpt>
      <trkpt lat="43.254710" lon="-4.867010">
        <ele>610.536</ele>
        <time>2020-05-20T08:49:20Z</time>
      </trkpt>
      <trkpt lat="43.254700" lon="-4.866970">
        <ele>606.425</ele>
        <time>2020-05-20T08:49:40Z</time>
      </trkpt>
      <trkpt lat="43.254650" lon="-4.866790">
        <ele>562.374</ele>
        <time>2020-05-20T08:50:00Z</time>
      </trkpt>
      <trkpt lat="43.254590" lon="-4.866590">
        <ele>513.056</ele>
        <time>2020-05-20T08:50:20Z</time>
      </trkpt>
      <trkpt lat="43.254580" lon="-4.866550">
        <ele>505.921</ele>
        <time>2020-05-20T08:50:40Z</time>
      </trkpt>
      <trkpt lat="43.254570" lon="-4.866510">
        <ele>499.408</ele>
        <time>2020-05-20T08:51:00Z</time>
      </trkpt>
      <trkpt lat="43.254570" lon="-4.866490">
        <ele>497.111</ele>
        <time>2020-05-20T08:51:20Z</time>
      </trkpt>
      <trkpt lat="43.254570" lon="-4.866470">
        <ele>494.846</ele>
        <time>2020-05-20T08:51:40Z</time>
      </trkpt>
      <trkpt lat="43.254570" lon="-4.866460">
        <ele>493.732</ele>
        <time>2020-05-20T08:52:00Z</time>
      </trkpt>
      <trkpt lat="43.254570" lon="-4.866450">
        <ele>492.685</ele>
        <time>2020-05-20T08:52:20Z</time>
      </trkpt>
      <trkpt lat="43.254580" lon="-4.866430">
        <ele>491.335</ele>
        <time>2020-05-20T08:52:40Z</time>
      </trkpt>
      <trkpt lat="43.254590" lon="-4.866420">
        <ele>491.015</ele>
        <time>2020-05-20T08:53:00Z</time>
      </trkpt>
      <trkpt lat="43.254600" lon="-4.866410">
        <ele>490.525</ele>
        <time>2020-05-20T08:53:20Z</time>
      </trkpt>
      <trkpt lat="43.254610" lon="-4.866400">
        <ele>489.974</ele>
        <time>2020-05-20T08:53:40Z</time>
      </trkpt>
      <trkpt lat="43.254620" lon="-4.866390">
        <ele>489.244</ele>
        <time>2020-05-20T08:54:00Z</time>
      </trkpt>
      <trkpt lat="43.254620" lon="-4.866370">
        <ele>487.905</ele>
        <time>2020-05-20T08:54:20Z</time>
      </trkpt>
      <trkpt lat="43.254630" lon="-4.866350">
        <ele>487.415</ele>
        <time>2020-05-20T08:54:40Z</time>
      </trkpt>
      <trkpt lat="43.254630" lon="-4.866340">
        <ele>486.808</ele>
        <time>2020-05-20T08:55:00Z</time>
      </trkpt>
      <trkpt lat="43.254630" lon="-4.866330">
        <ele>486.298</ele>
        <time>2020-05-20T08:55:20Z</time>
      </trkpt>
      <trkpt lat="43.254650" lon="-4.866310">
        <ele>486.683</ele>
        <time>2020-05-20T08:55:40Z</time>
      </trkpt>
      <trkpt lat="43.254670" lon="-4.866290">
        <ele>487.129</ele>
        <time>2020-05-20T08:56:00Z</time>
      </trkpt>
      <trkpt lat="43.254680" lon="-4.866280">
        <ele>487.492</ele>
        <time>2020-05-20T08:56:20Z</time>
      </trkpt>
      <trkpt lat="43.254700" lon="-4.866270">
        <ele>488.662</ele>
        <time>2020-05-20T08:56:40Z</time>
      </trkpt>
      <trkpt lat="43.254720" lon="-4.866260">
        <ele>489.882</ele>
        <time>2020-05-20T08:57:00Z</time>
      </trkpt>
      <trkpt lat="43.254730" lon="-4.866250">
        <ele>490.452</ele>
        <time>2020-05-20T08:57:20Z</time>
      </trkpt>
      <trkpt lat="43.254750" lon="-4.866230">
        <ele>491.751</ele>
        <time>2020-05-20T08:57:40Z</time>
      </trkpt>
      <trkpt lat="43.254770" lon="-4.866230">
        <ele>494.072</ele>
        <time>2020-05-20T08:58:00Z</time>
      </trkpt>
      <trkpt lat="43.254780" lon="-4.866220">
        <ele>494.613</ele>
        <time>2020-05-20T08:58:20Z</time>
      </trkpt>
      <trkpt lat="43.254790" lon="-4.866220">
        <ele>495.714</ele>
        <time>2020-05-20T08:58:40Z</time>
      </trkpt>
      <trkpt lat="43.254800" lon="-4.866220">
        <ele>496.908</ele>
        <time>2020-05-20T08:59:00Z</time>
      </trkpt>
      <trkpt lat="43.254820" lon="-4.866220">
        <ele>499.171</ele>
        <time>2020-05-20T08:59:20Z</time>
      </trkpt>
      <trkpt lat="43.254830" lon="-4.866220">
        <ele>500.396</ele>
        <time>2020-05-20T08:59:40Z</time>
      </trkpt>
      <trkpt lat="43.254850" lon="-4.866220">
        <ele>502.592</ele>
        <time>2020-05-20T09:00:00Z</time>
      </trkpt>
      <trkpt lat="43.254860" lon="-4.866230">
        <ele>504.275</ele>
        <time>2020-05-20T09:00:20Z</time>
      </trkpt>
      <trkpt lat="43.254880" lon="-4.866240">
        <ele>507.125</ele>
        <time>2020-05-20T09:00:40Z</time>
      </trkpt>
      <trkpt lat="43.254890" lon="-4.866250">
        <ele>508.835</ele>
        <time>2020-05-20T09:01:00Z</time>
      </trkpt>
      <trkpt lat="43.254910" lon="-4.866260">
        <ele>511.745</ele>
        <time>2020-05-20T09:01:20Z</time>
      </trkpt>
      <trkpt lat="43.254930" lon="-4.866270">
        <ele>514.744</ele>
        <time>2020-05-20T09:01:40Z</time>
      </trkpt>
      <trkpt lat="43.254950" lon="-4.866300">
        <ele>519.021</ele>
        <time>2020-05-20T09:02:00Z</time>
      </trkpt>
      <trkpt lat="43.254970" lon="-4.866310">
        <ele>522.041</ele>
        <time>2020-05-20T09:02:20Z</time>
      </trkpt>
      <trkpt lat="43.254990" lon="-4.866340">
        <ele>526.405</ele>
        <time>2020-05-20T09:02:40Z</time>
      </trkpt>
      <trkpt lat="43.255020" lon="-4.866360">
        <ele>538.308</ele>
        <time>2020-05-20T09:03:00Z</time>
      </trkpt>
      <trkpt lat="43.255050" lon="-4.866390">
        <ele>555.246</ele>
        <time>2020-05-20T09:03:20Z</time>
      </trkpt>
      <trkpt lat="43.255080" lon="-4.866400">
        <ele>573.051</ele>
        <time>2020-05-20T09:03:40Z</time>
      </trkpt>
      <trkpt lat="43.255100" lon="-4.866410">
        <ele>586.037</ele>
        <time>2020-05-20T09:04:00Z</time>
      </trkpt>
      <trkpt lat="43.255110" lon="-4.866410">
        <ele>590.730</ele>
        <time>2020-05-20T09:04:20Z</time>
      </trkpt>
      <trkpt lat="43.255120" lon="-4.866420">
        <ele>598.870</ele>
        <time>2020-05-20T09:04:40Z</time>
      </trkpt>
      <trkpt lat="43.255150" lon="-4.866430">
        <ele>616.150</ele>
        <time>2020-05-20T09:05:00Z</time>
      </trkpt>
      <trkpt lat="43.255160" lon="-4.866430">
        <ele>620.760</ele>
        <time>2020-05-20T09:05:20Z</time>
      </trkpt>
      <trkpt lat="43.255180" lon="-4.866430">
        <ele>630.029</ele>
        <time>2020-05-20T09:05:40Z</time>
      </trkpt>
      <trkpt lat="43.255190" lon="-4.866430">
        <ele>634.617</ele>
        <time>2020-05-20T09:06:00Z</time>
      </trkpt>
      <trkpt lat="43.255200" lon="-4.866430">
        <ele>639.287</ele>
        <time>2020-05-20T09:06:20Z</time>
      </trkpt>
      <trkpt lat="43.255210" lon="-4.866430">
        <ele>643.815</ele>
        <time>2020-05-20T09:06:40Z</time>
      </trkpt>
      <trkpt lat="43.255220" lon="-4.866430">
        <ele>648.508</ele>
        <time>2020-05-20T09:07:00Z</time>
      </trkpt>
      <trkpt lat="43.255230" lon="-4.866420">
        <ele>650.045</ele>
        <time>2020-05-20T09:07:20Z</time>
      </trkpt>
      <trkpt lat="43.255240" lon="-4.866420">
        <ele>654.610</ele>
        <time>2020-05-20T09:07:40Z</time>
      </trkpt>
      <trkpt lat="43.255250" lon="-4.866410">
        <ele>656.296</ele>
        <time>2020-05-20T09:08:00Z</time>
      </trkpt>
      <trkpt lat="43.255260" lon="-4.866400">
        <ele>657.939</ele>
        <time>2020-05-20T09:08:20Z</time>
      </trkpt>
      <trkpt lat="43.255270" lon="-4.866390">
        <ele>659.629</ele>
        <time>2020-05-20T09:08:40Z</time>
      </trkpt>
      <trkpt lat="43.255270" lon="-4.866380">
        <ele>657.919</ele>
        <time>2020-05-20T09:09:00Z</time>
      </trkpt>
      <trkpt lat="43.255270" lon="-4.866370">
        <ele>656.279</ele>
        <time>2020-05-20T09:09:20Z</time>
      </trkpt>
      <trkpt lat="43.255270" lon="-4.866350">
        <ele>653.088</ele>
        <time>2020-05-20T09:09:40Z</time>
      </trkpt>
      <trkpt lat="43.255270" lon="-4.866320">
        <ele>648.178</ele>
        <time>2020-05-20T09:10:00Z</time>
      </trkpt>
      <trkpt lat="43.255270" lon="-4.866300">
        <ele>644.833</ele>
        <time>2020-05-20T09:10:20Z</time>
      </trkpt>
      <trkpt lat="43.255270" lon="-4.866280">
        <ele>641.626</ele>
        <time>2020-05-20T09:10:40Z</time>
      </trkpt>
      <trkpt lat="43.255270" lon="-4.866250">
        <ele>636.708</ele>
        <time>2020-05-20T09:11:00Z</time>
      </trkpt>
      <trkpt lat="43.255270" lon="-4.866210">
        <ele>630.281</ele>
        <time>2020-05-20T09:11:20Z</time>
      </trkpt>
      <trkpt lat="43.255270" lon="-4.866170">
        <ele>623.766</ele>
        <time>2020-05-20T09:11:40Z</time>
      </trkpt>
      <trkpt lat="43.255260" lon="-4.866130">
        <ele>613.352</ele>
        <time>2020-05-20T09:12:00Z</time>
      </trkpt>
      <trkpt lat="43.255260" lon="-4.866100">
        <ele>612.155</ele>
        <time>2020-05-20T09:12:20Z</time>
      </trkpt>
      <trkpt lat="43.255260" lon="-4.866070">
        <ele>616.965</ele>
        <time>2020-05-20T09:12:40Z</time>
      </trkpt>
      <trkpt lat="43.255250" lon="-4.866040">
        <ele>617.655</ele>
        <time>2020-05-20T09:13:00Z</time>
      </trkpt>
      <trkpt lat="43.255230" lon="-4.866010">
        <ele>613.555</ele>
        <time>2020-05-20T09:13:20Z</time>
      </trkpt>
      <trkpt lat="43.255180" lon="-4.865950">
        <ele>598.554</ele>
        <time>2020-05-20T09:13:40Z</time>
      </trkpt>
      <trkpt lat="43.255170" lon="-4.865940">
        <ele>594.838</ele>
        <time>2020-05-20T09:14:00Z</time>
      </trkpt>
      <trkpt lat="43.255100" lon="-4.865860">
        <ele>566.670</ele>
        <time>2020-05-20T09:14:20Z</time>
      </trkpt>
      <trkpt lat="43.255030" lon="-4.865780">
        <ele>538.617</ele>
        <time>2020-05-20T09:14:40Z</time>
      </trkpt>
      <trkpt lat="43.254970" lon="-4.865700">
        <ele>530.008</ele>
        <time>2020-05-20T09:15:00Z</time>
      </trkpt>
      <trkpt lat="43.254890" lon="-4.865630">
        <ele>522.917</ele>
        <time>2020-05-20T09:15:20Z</time>
      </trkpt>
      <trkpt lat="43.254870" lon="-4.865610">
        <ele>520.312</ele>
        <time>2020-05-20T09:15:40Z</time>
      </trkpt>
      <trkpt lat="43.254720" lon="-4.865490">
        <ele>487.538</ele>
        <time>2020-05-20T09:16:00Z</time>
      </trkpt>
      <trkpt lat="43.254640" lon="-4.865440">
        <ele>472.061</ele>
        <time>2020-05-20T09:16:20Z</time>
      </trkpt>
      <trkpt lat="43.254570" lon="-4.865400">
        <ele>458.211</ele>
        <time>2020-05-20T09:16:40Z</time>
      </trkpt>
      <trkpt lat="43.254470" lon="-4.865350">
        <ele>438.031</ele>
        <time>2020-05-20T09:17:00Z</time>
      </trkpt>
      <trkpt lat="43.254410" lon="-4.865300">
        <ele>428.541</ele>
        <time>2020-05-20T09:17:20Z</time>
      </trkpt>
      <trkpt lat="43.254340" lon="-4.865250">
        <ele>423.530</ele>
        <time>2020-05-20T09:17:40Z</time>
      </trkpt>
      <trkpt lat="43.254270" lon="-4.865210">
        <ele>419.923</ele>
        <time>2020-05-20T09:18:00Z</time>
      </trkpt>
      <trkpt lat="43.254250" lon="-4.865190">
        <ele>419.983</ele>
        <time>2020-05-20T09:18:20Z</time>
      </trkpt>
      <trkpt lat="43.254200" lon="-4.865160">
        <ele>416.711</ele>
        <time>2020-05-20T09:18:40Z</time>
      </trkpt>
      <trkpt lat="43.254170" lon="-4.865130">
        <ele>416.208</ele>
        <time>2020-05-20T09:19:00Z</time>
      </trkpt>
      <trkpt lat="43.254140" lon="-4.865100">
        <ele>416.656</ele>
        <time>2020-05-20T09:19:20Z</time>
      </trkpt>
      <trkpt lat="43.254090" lon="-4.865060">
        <ele>415.581</ele>
        <time>2020-05-20T09:19:40Z</time>
      </trkpt>
      <trkpt lat="43.254040" lon="-4.865030">
        <ele>412.577</ele>
        <time>2020-05-20T09:20:00Z</time>
      </trkpt>
      <trkpt lat="43.254000" lon="-4.864990">
        <ele>412.430</ele>
        <time>2020-05-20T09:20:20Z</time>
      </trkpt>
      <trkpt lat="43.253960" lon="-4.864960">
        <ele>413.270</ele>
        <time>2020-05-20T09:20:40Z</time>
      </trkpt>
      <trkpt lat="43.253940" lon="-4.864930">
        <ele>416.370</ele>
        <time>2020-05-20T09:21:00Z</time>
      </trkpt>
      <trkpt lat="43.253920" lon="-4.864900">
        <ele>419.040</ele>
        <time>2020-05-20T09:21:20Z</time>
      </trkpt>
      <trkpt lat="43.253900" lon="-4.864870">
        <ele>421.369</ele>
        <time>2020-05-20T09:21:40Z</time>
      </trkpt>
      <trkpt lat="43.253890" lon="-4.864840">
        <ele>425.222</ele>
        <time>2020-05-20T09:22:00Z</time>
      </trkpt>
      <trkpt lat="43.253870" lon="-4.864810">
        <ele>428.462</ele>
        <time>2020-05-20T09:22:20Z</time>
      </trkpt>
      <trkpt lat="43.253860" lon="-4.864790">
        <ele>430.808</ele>
        <time>2020-05-20T09:22:40Z</time>
      </trkpt>
      <trkpt lat="43.253850" lon="-4.864770">
        <ele>433.108</ele>
        <time>2020-05-20T09:23:00Z</time>
      </trkpt>
      <trkpt lat="43.253830" lon="-4.864760">
        <ele>432.356</ele>
        <time>2020-05-20T09:23:20Z</time>
      </trkpt>
      <trkpt lat="43.253830" lon="-4.864740">
        <ele>435.781</ele>
        <time>2020-05-20T09:23:40Z</time>
      </trkpt>
      <trkpt lat="43.253820" lon="-4.864730">
        <ele>436.087</ele>
        <time>2020-05-20T09:24:00Z</time>
      </trkpt>
      <trkpt lat="43.253800" lon="-4.864700">
        <ele>435.220</ele>
        <time>2020-05-20T09:24:20Z</time>
      </trkpt>
      <trkpt lat="43.253780" lon="-4.864670">
        <ele>433.350</ele>
        <time>2020-05-20T09:24:40Z</time>
      </trkpt>
      <trkpt lat="43.253760" lon="-4.864640">
        <ele>431.360</ele>
        <time>2020-05-20T09:25:00Z</time>
      </trkpt>
      <trkpt lat="43.253740" lon="-4.864610">
        <ele>429.310</ele>
        <time>2020-05-20T09:25:20Z</time>
      </trkpt>
      <trkpt lat="43.253720" lon="-4.864590">
        <ele>426.919</ele>
        <time>2020-05-20T09:25:40Z</time>
      </trkpt>
      <trkpt lat="43.253710" lon="-4.864570">
        <ele>426.085</ele>
        <time>2020-05-20T09:26:00Z</time>
      </trkpt>
      <trkpt lat="43.253710" lon="-4.864560">
        <ele>426.289</ele>
        <time>2020-05-20T09:26:20Z</time>
      </trkpt>
      <trkpt lat="43.253710" lon="-4.864550">
        <ele>426.517</ele>
        <time>2020-05-20T09:26:40Z</time>
      </trkpt>
      <trkpt lat="43.253700" lon="-4.864540">
        <ele>425.308</ele>
        <time>2020-05-20T09:27:00Z</time>
      </trkpt>
      <trkpt lat="43.253700" lon="-4.864520">
        <ele>425.862</ele>
        <time>2020-05-20T09:27:20Z</time>
      </trkpt>
      <trkpt lat="43.253700" lon="-4.864500">
        <ele>426.397</ele>
        <time>2020-05-20T09:27:40Z</time>
      </trkpt>
      <trkpt lat="43.253700" lon="-4.864480">
        <ele>426.843</ele>
        <time>2020-05-20T09:28:00Z</time>
      </trkpt>
      <trkpt lat="43.253700" lon="-4.864460">
        <ele>427.456</ele>
        <time>2020-05-20T09:28:20Z</time>
      </trkpt>
      <trkpt lat="43.253700" lon="-4.864440">
        <ele>427.646</ele>
        <time>2020-05-20T09:28:40Z</time>
      </trkpt>
      <trkpt lat="43.253710" lon="-4.864420">
        <ele>428.216</ele>
        <time>2020-05-20T09:29:00Z</time>
      </trkpt>
      <trkpt lat="43.253710" lon="-4.864400">
        <ele>427.236</ele>
        <time>2020-05-20T09:29:20Z</time>
      </trkpt>
      <trkpt lat="43.253730" lon="-4.864370">
        <ele>428.735</ele>
        <time>2020-05-20T09:29:40Z</time>
      </trkpt>
      <trkpt lat="43.253750" lon="-4.864330">
        <ele>429.555</ele>
        <time>2020-05-20T09:30:00Z</time>
      </trkpt>
      <trkpt lat="43.253760" lon="-4.864310">
        <ele>429.807</ele>
        <time>2020-05-20T09:30:20Z</time>
      </trkpt>
      <trkpt lat="43.253790" lon="-4.864260">
        <ele>431.017</ele>
        <time>2020-05-20T09:30:40Z</time>
      </trkpt>
      <trkpt lat="43.253820" lon="-4.864200">
        <ele>431.108</ele>
        <time>2020-05-20T09:31:00Z</time>
      </trkpt>
      <trkpt lat="43.253840" lon="-4.864170">
        <ele>431.649</ele>
        <time>2020-05-20T09:31:20Z</time>
      </trkpt>
      <trkpt lat="43.253840" lon="-4.864150">
        <ele>430.994</ele>
        <time>2020-05-20T09:31:40Z</time>
      </trkpt>
      <trkpt lat="43.253850" lon="-4.864140">
        <ele>431.850</ele>
        <time>2020-05-20T09:32:00Z</time>
      </trkpt>
      <trkpt lat="43.253860" lon="-4.864140">
        <ele>432.923</ele>
        <time>2020-05-20T09:32:20Z</time>
      </trkpt>
      <trkpt lat="43.253870" lon="-4.864130">
        <ele>433.773</ele>
        <time>2020-05-20T09:32:40Z</time>
      </trkpt>
      <trkpt lat="43.253880" lon="-4.864130">
        <ele>434.853</ele>
        <time>2020-05-20T09:33:00Z</time>
      </trkpt>
      <trkpt lat="43.253890" lon="-4.864120">
        <ele>435.723</ele>
        <time>2020-05-20T09:33:20Z</time>
      </trkpt>
      <trkpt lat="43.253900" lon="-4.864110">
        <ele>437.012</ele>
        <time>2020-05-20T09:33:40Z</time>
      </trkpt>
      <trkpt lat="43.253920" lon="-4.864100">
        <ele>440.061</ele>
        <time>2020-05-20T09:34:00Z</time>
      </trkpt>
      <trkpt lat="43.253930" lon="-4.864090">
        <ele>441.221</ele>
        <time>2020-05-20T09:34:20Z</time>
      </trkpt>
      <trkpt lat="43.253950" lon="-4.864070">
        <ele>443.613</ele>
        <time>2020-05-20T09:34:40Z</time>
      </trkpt>
      <trkpt lat="43.253960" lon="-4.864050">
        <ele>444.208</ele>
        <time>2020-05-20T09:35:00Z</time>
      </trkpt>
      <trkpt lat="43.253970" lon="-4.864040">
        <ele>445.280</ele>
        <time>2020-05-20T09:35:20Z</time>
      </trkpt>
      <trkpt lat="43.253980" lon="-4.864030">
        <ele>446.275</ele>
        <time>2020-05-20T09:35:40Z</time>
      </trkpt>
      <trkpt lat="43.253980" lon="-4.864020">
        <ele>445.741</ele>
        <time>2020-05-20T09:36:00Z</time>
      </trkpt>
      <trkpt lat="43.253990" lon="-4.864000">
        <ele>446.194</ele>
        <time>2020-05-20T09:36:20Z</time>
      </trkpt>
      <trkpt lat="43.253990" lon="-4.863980">
        <ele>445.034</ele>
        <time>2020-05-20T09:36:40Z</time>
      </trkpt>
      <trkpt lat="43.253990" lon="-4.863970">
        <ele>444.414</ele>
        <time>2020-05-20T09:37:00Z</time>
      </trkpt>
      <trkpt lat="43.253990" lon="-4.863950">
        <ele>443.434</ele>
        <time>2020-05-20T09:37:20Z</time>
      </trkpt>
      <trkpt lat="43.253990" lon="-4.863940">
        <ele>442.853</ele>
        <time>2020-05-20T09:37:40Z</time>
      </trkpt>
      <trkpt lat="43.253990" lon="-4.863920">
        <ele>441.732</ele>
        <time>2020-05-20T09:38:00Z</time>
      </trkpt>
      <trkpt lat="43.253990" lon="-4.863910">
        <ele>441.292</ele>
        <time>2020-05-20T09:38:20Z</time>
      </trkpt>
      <trkpt lat="43.253990" lon="-4.863870">
        <ele>440.011</ele>
        <time>2020-05-20T09:38:40Z</time>
      </trkpt>
      <trkpt lat="43.253980" lon="-4.863840">
        <ele>438.808</ele>
        <time>2020-05-20T09:39:00Z</time>
      </trkpt>
      <trkpt lat="43.253980" lon="-4.863810">
        <ele>438.827</ele>
        <time>2020-05-20T09:39:20Z</time>
      </trkpt>
      <trkpt lat="43.253980" lon="-4.863790">
        <ele>438.892</ele>
        <time>2020-05-20T09:39:40Z</time>
      </trkpt>
      <trkpt lat="43.253970" lon="-4.863760">
        <ele>437.978</ele>
        <time>2020-05-20T09:40:00Z</time>
      </trkpt>
      <trkpt lat="43.253970" lon="-4.863740">
        <ele>437.921</ele>
        <time>2020-05-20T09:40:20Z</time>
      </trkpt>
      <trkpt lat="43.253970" lon="-4.863710">
        <ele>438.011</ele>
        <time>2020-05-20T09:40:40Z</time>
      </trkpt>
      <trkpt lat="43.253960" lon="-4.863670">
        <ele>437.291</ele>
        <time>2020-05-20T09:41:00Z</time>
      </trkpt>
      <trkpt lat="43.253960" lon="-4.863630">
        <ele>437.391</ele>
        <time>2020-05-20T09:41:20Z</time>
      </trkpt>
      <trkpt lat="43.253950" lon="-4.863580">
        <ele>436.880</ele>
        <time>2020-05-20T09:41:40Z</time>
      </trkpt>
      <trkpt lat="43.253950" lon="-4.863540">
        <ele>437.095</ele>
        <time>2020-05-20T09:42:00Z</time>
      </trkpt>
      <trkpt lat="43.253950" lon="-4.863510">
        <ele>437.249</ele>
        <time>2020-05-20T09:42:20Z</time>
      </trkpt>
      <trkpt lat="43.253950" lon="-4.863490">
        <ele>437.323</ele>
        <time>2020-05-20T09:42:40Z</time>
      </trkpt>
      <trkpt lat="43.253940" lon="-4.863470">
        <ele>436.708</ele>
        <time>2020-05-20T09:43:00Z</time>
      </trkpt>
      <trkpt lat="43.253930" lon="-4.863430">
        <ele>436.213</ele>
        <time>2020-05-20T09:43:20Z</time>
      </trkpt>
      <trkpt lat="43.253920" lon="-4.863400">
        <ele>435.718</ele>
        <time>2020-05-20T09:43:40Z</time>
      </trkpt>
      <trkpt lat="43.253910" lon="-4.863380">
        <ele>435.114</ele>
        <time>2020-05-20T09:44:00Z</time>
      </trkpt>
      <trkpt lat="43.253900" lon="-4.863350">
        <ele>434.667</ele>
        <time>2020-05-20T09:44:20Z</time>
      </trkpt>
      <trkpt lat="43.253880" lon="-4.863310">
        <ele>434.067</ele>
        <time>2020-05-20T09:44:40Z</time>
      </trkpt>
      <trkpt lat="43.253860" lon="-4.863280">
        <ele>433.567</ele>
        <time>2020-05-20T09:45:00Z</time>
      </trkpt>
      <trkpt lat="43.253850" lon="-4.863260">
        <ele>433.427</ele>
        <time>2020-05-20T09:45:20Z</time>
      </trkpt>
      <trkpt lat="43.253820" lon="-4.863200">
        <ele>433.396</ele>
        <time>2020-05-20T09:45:40Z</time>
      </trkpt>
      <trkpt lat="43.253780" lon="-4.863150">
        <ele>432.339</ele>
        <time>2020-05-20T09:46:00Z</time>
      </trkpt>
      <trkpt lat="43.253750" lon="-4.863090">
        <ele>432.401</ele>
        <time>2020-05-20T09:46:20Z</time>
      </trkpt>
      <trkpt lat="43.253740" lon="-4.863080">
        <ele>432.221</ele>
        <time>2020-05-20T09:46:40Z</time>
      </trkpt>
      <trkpt lat="43.253700" lon="-4.863020">
        <ele>432.008</ele>
        <time>2020-05-20T09:47:00Z</time>
      </trkpt>
      <trkpt lat="43.253670" lon="-4.862960">
        <ele>432.377</ele>
        <time>2020-05-20T09:47:20Z</time>
      </trkpt>
      <trkpt lat="43.253630" lon="-4.862910">
        <ele>431.812</ele>
        <time>2020-05-20T09:47:40Z</time>
      </trkpt>
      <trkpt lat="43.253630" lon="-4.862900">
        <ele>432.168</ele>
        <time>2020-05-20T09:48:00Z</time>
      </trkpt>
      <trkpt lat="43.253580" lon="-4.862830">
        <ele>432.681</ele>
        <time>2020-05-20T09:48:20Z</time>
      </trkpt>
      <trkpt lat="43.253560" lon="-4.862810">
        <ele>432.961</ele>
        <time>2020-05-20T09:48:40Z</time>
      </trkpt>
      <trkpt lat="43.253540" lon="-4.862780">
        <ele>433.631</ele>
        <time>2020-05-20T09:49:00Z</time>
      </trkpt>
      <trkpt lat="43.253530" lon="-4.862760">
        <ele>434.481</ele>
        <time>2020-05-20T09:49:20Z</time>
      </trkpt>
      <trkpt lat="43.253510" lon="-4.862750">
        <ele>434.610</ele>
        <time>2020-05-20T09:49:40Z</time>
      </trkpt>
      <trkpt lat="43.253500" lon="-4.862740">
        <ele>434.919</ele>
        <time>2020-05-20T09:50:00Z</time>
      </trkpt>
      <trkpt lat="43.253490" lon="-4.862730">
        <ele>435.209</ele>
        <time>2020-05-20T09:50:20Z</time>
      </trkpt>
      <trkpt lat="43.253470" lon="-4.862720">
        <ele>435.419</ele>
        <time>2020-05-20T09:50:40Z</time>
      </trkpt>
      <trkpt lat="43.253450" lon="-4.862710">
        <ele>435.508</ele>
        <time>2020-05-20T09:51:00Z</time>
      </trkpt>
      <trkpt lat="43.253420" lon="-4.862700">
        <ele>435.535</ele>
        <time>2020-05-20T09:51:20Z</time>
      </trkpt>
      <trkpt lat="43.253400" lon="-4.862690">
        <ele>435.640</ele>
        <time>2020-05-20T09:51:40Z</time>
      </trkpt>
      <trkpt lat="43.253370" lon="-4.862670">
        <ele>436.136</ele>
        <time>2020-05-20T09:52:00Z</time>
      </trkpt>
      <trkpt lat="43.253340" lon="-4.862650">
        <ele>436.659</ele>
        <time>2020-05-20T09:52:20Z</time>
      </trkpt>
      <trkpt lat="43.253330" lon="-4.862640">
        <ele>437.039</ele>
        <time>2020-05-20T09:52:40Z</time>
      </trkpt>
      <trkpt lat="43.253310" lon="-4.862620">
        <ele>438.359</ele>
        <time>2020-05-20T09:53:00Z</time>
      </trkpt>
      <trkpt lat="43.253280" lon="-4.862610">
        <ele>439.329</ele>
        <time>2020-05-20T09:53:20Z</time>
      </trkpt>
      <trkpt lat="43.253260" lon="-4.862590">
        <ele>440.688</ele>
        <time>2020-05-20T09:53:40Z</time>
      </trkpt>
      <trkpt lat="43.253220" lon="-4.862580">
        <ele>441.725</ele>
        <time>2020-05-20T09:54:00Z</time>
      </trkpt>
      <trkpt lat="43.253200" lon="-4.862570">
        <ele>442.426</ele>
        <time>2020-05-20T09:54:20Z</time>
      </trkpt>
      <trkpt lat="43.253180" lon="-4.862570">
        <ele>442.708</ele>
        <time>2020-05-20T09:54:40Z</time>
      </trkpt>
      <trkpt lat="43.253150" lon="-4.862560">
        <ele>443.508</ele>
        <time>2020-05-20T09:55:00Z</time>
      </trkpt>
      <trkpt lat="43.253130" lon="-4.862560">
        <ele>443.876</ele>
        <time>2020-05-20T09:55:20Z</time>
      </trkpt>
      <trkpt lat="43.253120" lon="-4.862560">
        <ele>443.991</ele>
        <time>2020-05-20T09:55:40Z</time>
      </trkpt>
      <trkpt lat="43.253120" lon="-4.862550">
        <ele>444.357</ele>
        <time>2020-05-20T09:56:00Z</time>
      </trkpt>
      <trkpt lat="43.253110" lon="-4.862550">
        <ele>444.580</ele>
        <time>2020-05-20T09:56:20Z</time>
      </trkpt>
      <trkpt lat="43.253110" lon="-4.862540">
        <ele>444.980</ele>
        <time>2020-05-20T09:56:40Z</time>
      </trkpt>
      <trkpt lat="43.253110" lon="-4.862530">
        <ele>445.260</ele>
        <time>2020-05-20T09:57:00Z</time>
      </trkpt>
      <trkpt lat="43.253120" lon="-4.862530">
        <ele>445.140</ele>
        <time>2020-05-20T09:57:20Z</time>
      </trkpt>
      <trkpt lat="43.253130" lon="-4.862520">
        <ele>445.499</ele>
        <time>2020-05-20T09:57:40Z</time>
      </trkpt>
      <trkpt lat="43.253140" lon="-4.862520">
        <ele>445.375</ele>
        <time>2020-05-20T09:58:00Z</time>
      </trkpt>
      <trkpt lat="43.253160" lon="-4.862520">
        <ele>445.028</ele>
        <time>2020-05-20T09:58:20Z</time>
      </trkpt>
      <trkpt lat="43.253190" lon="-4.862510">
        <ele>445.120</ele>
        <time>2020-05-20T09:58:40Z</time>
      </trkpt>
      <trkpt lat="43.253220" lon="-4.862500">
        <ele>445.208</ele>
        <time>2020-05-20T09:59:00Z</time>
      </trkpt>
      <trkpt lat="43.253240" lon="-4.862500">
        <ele>445.051</ele>
        <time>2020-05-20T09:59:20Z</time>
      </trkpt>
      <trkpt lat="43.253270" lon="-4.862500">
        <ele>444.736</ele>
        <time>2020-05-20T09:59:40Z</time>
      </trkpt>
      <trkpt lat="43.253290" lon="-4.862500">
        <ele>444.512</ele>
        <time>2020-05-20T10:00:00Z</time>
      </trkpt>
      <trkpt lat="43.253290" lon="-4.862490">
        <ele>445.015</ele>
        <time>2020-05-20T10:00:20Z</time>
      </trkpt>
      <trkpt lat="43.253300" lon="-4.862490">
        <ele>444.915</ele>
        <time>2020-05-20T10:00:40Z</time>
      </trkpt>
      <trkpt lat="43.253310" lon="-4.862490">
        <ele>444.865</ele>
        <time>2020-05-20T10:01:00Z</time>
      </trkpt>
      <trkpt lat="43.253310" lon="-4.862480">
        <ele>445.315</ele>
        <time>2020-05-20T10:01:20Z</time>
      </trkpt>
      <trkpt lat="43.253300" lon="-4.862480">
        <ele>445.494</ele>
        <time>2020-05-20T10:01:40Z</time>
      </trkpt>
      <trkpt lat="43.253300" lon="-4.862470">
        <ele>445.935</ele>
        <time>2020-05-20T10:02:00Z</time>
      </trkpt>
      <trkpt lat="43.253290" lon="-4.862470">
        <ele>446.086</ele>
        <time>2020-05-20T10:02:20Z</time>
      </trkpt>
      <trkpt lat="43.253270" lon="-4.862460">
        <ele>446.714</ele>
        <time>2020-05-20T10:02:40Z</time>
      </trkpt>
      <trkpt lat="43.253240" lon="-4.862440">
        <ele>447.908</ele>
        <time>2020-05-20T10:03:00Z</time>
      </trkpt>
      <trkpt lat="43.253230" lon="-4.862430">
        <ele>448.457</ele>
        <time>2020-05-20T10:03:20Z</time>
      </trkpt>
      <trkpt lat="43.253200" lon="-4.862410">
        <ele>449.562</ele>
        <time>2020-05-20T10:03:40Z</time>
      </trkpt>
      <trkpt lat="43.253160" lon="-4.862390">
        <ele>450.648</ele>
        <time>2020-05-20T10:04:00Z</time>
      </trkpt>
      <trkpt lat="43.253090" lon="-4.862360">
        <ele>452.051</ele>
        <time>2020-05-20T10:04:20Z</time>
      </trkpt>
      <trkpt lat="43.253020" lon="-4.862340">
        <ele>442.291</ele>
        <time>2020-05-20T10:04:40Z</time>
      </trkpt>
      <trkpt lat="43.252960" lon="-4.862340">
        <ele>424.441</ele>
        <time>2020-05-20T10:05:00Z</time>
      </trkpt>
      <trkpt lat="43.252910" lon="-4.862330">
        <ele>410.211</ele>
        <time>2020-05-20T10:05:20Z</time>
      </trkpt>
      <trkpt lat="43.252880" lon="-4.862320">
        <ele>402.130</ele>
        <time>2020-05-20T10:05:40Z</time>
      </trkpt>
      <trkpt lat="43.252860" lon="-4.862310">
        <ele>397.046</ele>
        <time>2020-05-20T10:06:00Z</time>
      </trkpt>
      <trkpt lat="43.252830" lon="-4.862290">
        <ele>389.988</ele>
        <time>2020-05-20T10:06:20Z</time>
      </trkpt>
      <trkpt lat="43.252800" lon="-4.862280">
        <ele>382.116</ele>
        <time>2020-05-20T10:06:40Z</time>
      </trkpt>
      <trkpt lat="43.252780" lon="-4.862270">
        <ele>377.308</ele>
        <time>2020-05-20T10:07:00Z</time>
      </trkpt>
      <trkpt lat="43.252760" lon="-4.862260">
        <ele>370.758</ele>
        <time>2020-05-20T10:07:20Z</time>
      </trkpt>
      <trkpt lat="43.252750" lon="-4.862260">
        <ele>366.883</ele>
        <time>2020-05-20T10:07:40Z</time>
      </trkpt>
      <trkpt lat="43.252740" lon="-4.862250">
        <ele>363.719</ele>
        <time>2020-05-20T10:08:00Z</time>
      </trkpt>
      <trkpt lat="43.252740" lon="-4.862240">
        <ele>364.512</ele>
        <time>2020-05-20T10:08:20Z</time>
      </trkpt>
      <trkpt lat="43.252740" lon="-4.862230">
        <ele>365.362</ele>
        <time>2020-05-20T10:08:40Z</time>
      </trkpt>
      <trkpt lat="43.252740" lon="-4.862220">
        <ele>365.932</ele>
        <time>2020-05-20T10:09:00Z</time>
      </trkpt>
      <trkpt lat="43.252740" lon="-4.862210">
        <ele>366.272</ele>
        <time>2020-05-20T10:09:20Z</time>
      </trkpt>
      <trkpt lat="43.252740" lon="-4.862200">
        <ele>366.491</ele>
        <time>2020-05-20T10:09:40Z</time>
      </trkpt>
      <trkpt lat="43.252750" lon="-4.862190">
        <ele>370.549</ele>
        <time>2020-05-20T10:10:00Z</time>
      </trkpt>
      <trkpt lat="43.252750" lon="-4.862180">
        <ele>370.702</ele>
        <time>2020-05-20T10:10:20Z</time>
      </trkpt>
      <trkpt lat="43.252760" lon="-4.862170">
        <ele>374.822</ele>
        <time>2020-05-20T10:10:40Z</time>
      </trkpt>
      <trkpt lat="43.252760" lon="-4.862150">
        <ele>375.108</ele>
        <time>2020-05-20T10:11:00Z</time>
      </trkpt>
      <trkpt lat="43.252760" lon="-4.862140">
        <ele>375.338</ele>
        <time>2020-05-20T10:11:20Z</time>
      </trkpt>
      <trkpt lat="43.252760" lon="-4.862120">
        <ele>375.793</ele>
        <time>2020-05-20T10:11:40Z</time>
      </trkpt>
      <trkpt lat="43.252750" lon="-4.862090">
        <ele>372.419</ele>
        <time>2020-05-20T10:12:00Z</time>
      </trkpt>
      <trkpt lat="43.252740" lon="-4.862070">
        <ele>369.092</ele>
        <time>2020-05-20T10:12:20Z</time>
      </trkpt>
      <trkpt lat="43.252730" lon="-4.862050">
        <ele>365.712</ele>
        <time>2020-05-20T10:12:40Z</time>
      </trkpt>
      <trkpt lat="43.252730" lon="-4.862030">
        <ele>366.152</ele>
        <time>2020-05-20T10:13:00Z</time>
      </trkpt>
      <trkpt lat="43.252730" lon="-4.862010">
        <ele>366.552</ele>
        <time>2020-05-20T10:13:20Z</time>
      </trkpt>
      <trkpt lat="43.252730" lon="-4.861990">
        <ele>367.081</ele>
        <time>2020-05-20T10:13:40Z</time>
      </trkpt>
      <trkpt lat="43.252730" lon="-4.861980">
        <ele>367.253</ele>
        <time>2020-05-20T10:14:00Z</time>
      </trkpt>
      <trkpt lat="43.252730" lon="-4.861960">
        <ele>367.604</ele>
        <time>2020-05-20T10:14:20Z</time>
      </trkpt>
      <trkpt lat="43.252720" lon="-4.861930">
        <ele>364.614</ele>
        <time>2020-05-20T10:14:40Z</time>
      </trkpt>
      <trkpt lat="43.252720" lon="-4.861910">
        <ele>364.808</ele>
        <time>2020-05-20T10:15:00Z</time>
      </trkpt>
      <trkpt lat="43.252710" lon="-4.861870">
        <ele>361.829</ele>
        <time>2020-05-20T10:15:20Z</time>
      </trkpt>
      <trkpt lat="43.252710" lon="-4.861840">
        <ele>362.144</ele>
        <time>2020-05-20T10:15:40Z</time>
      </trkpt>
      <trkpt lat="43.252710" lon="-4.861820">
        <ele>362.430</ele>
        <time>2020-05-20T10:16:00Z</time>
      </trkpt>
      <trkpt lat="43.252710" lon="-4.861790">
        <ele>362.723</ele>
        <time>2020-05-20T10:16:20Z</time>
      </trkpt>
      <trkpt lat="43.252710" lon="-4.861770">
        <ele>363.073</ele>
        <time>2020-05-20T10:16:40Z</time>
      </trkpt>
      <trkpt lat="43.252700" lon="-4.861750">
        <ele>360.053</ele>
        <time>2020-05-20T10:17:00Z</time>
      </trkpt>
      <trkpt lat="43.252700" lon="-4.861740">
        <ele>360.263</ele>
        <time>2020-05-20T10:17:20Z</time>
      </trkpt>
      <trkpt lat="43.252690" lon="-4.861730">
        <ele>357.162</ele>
        <time>2020-05-20T10:17:40Z</time>
      </trkpt>
      <trkpt lat="43.252690" lon="-4.861720">
        <ele>357.332</ele>
        <time>2020-05-20T10:18:00Z</time>
      </trkpt>
      <trkpt lat="43.252680" lon="-4.861700">
        <ele>354.592</ele>
        <time>2020-05-20T10:18:20Z</time>
      </trkpt>
      <trkpt lat="43.252670" lon="-4.861680">
        <ele>351.811</ele>
        <time>2020-05-20T10:18:40Z</time>
      </trkpt>
      <trkpt lat="43.252670" lon="-4.861670">
        <ele>352.008</ele>
        <time>2020-05-20T10:19:00Z</time>
      </trkpt>
      <trkpt lat="43.252660" lon="-4.861660">
        <ele>349.457</ele>
        <time>2020-05-20T10:19:20Z</time>
      </trkpt>
      <trkpt lat="43.252650" lon="-4.861650">
        <ele>347.042</ele>
        <time>2020-05-20T10:19:40Z</time>
      </trkpt>
      <trkpt lat="43.252640" lon="-4.861630">
        <ele>345.228</ele>
        <time>2020-05-20T10:20:00Z</time>
      </trkpt>
      <trkpt lat="43.252640" lon="-4.861620">
        <ele>345.911</ele>
        <time>2020-05-20T10:20:20Z</time>
      </trkpt>
      <trkpt lat="43.252630" lon="-4.861600">
        <ele>344.081</ele>
        <time>2020-05-20T10:20:40Z</time>
      </trkpt>
      <trkpt lat="43.252630" lon="-4.861590">
        <ele>344.671</ele>
        <time>2020-05-20T10:21:00Z</time>
      </trkpt>
      <trkpt lat="43.252630" lon="-4.861570">
        <ele>345.811</ele>
        <time>2020-05-20T10:21:20Z</time>
      </trkpt>
      <trkpt lat="43.252630" lon="-4.861560">
        <ele>346.580</ele>
        <time>2020-05-20T10:21:40Z</time>
      </trkpt>
      <trkpt lat="43.252630" lon="-4.861550">
        <ele>347.158</ele>
        <time>2020-05-20T10:22:00Z</time>
      </trkpt>
      <trkpt lat="43.252630" lon="-4.861540">
        <ele>347.752</ele>
        <time>2020-05-20T10:22:20Z</time>
      </trkpt>
      <trkpt lat="43.252640" lon="-4.861530">
        <ele>351.717</ele>
        <time>2020-05-20T10:22:40Z</time>
      </trkpt>
      <trkpt lat="43.252640" lon="-4.861520">
        <ele>352.408</ele>
        <time>2020-05-20T10:23:00Z</time>
      </trkpt>
      <trkpt lat="43.252650" lon="-4.861520">
        <ele>355.819</ele>
        <time>2020-05-20T10:23:20Z</time>
      </trkpt>
      <trkpt lat="43.252660" lon="-4.861500">
        <ele>360.694</ele>
        <time>2020-05-20T10:23:40Z</time>
      </trkpt>
      <trkpt lat="43.252690" lon="-4.861460">
        <ele>374.040</ele>
        <time>2020-05-20T10:24:00Z</time>
      </trkpt>
      <trkpt lat="43.252710" lon="-4.861410">
        <ele>385.113</ele>
        <time>2020-05-20T10:24:20Z</time>
      </trkpt>
      <trkpt lat="43.252750" lon="-4.861330">
        <ele>407.573</ele>
        <time>2020-05-20T10:24:40Z</time>
      </trkpt>
      <trkpt lat="43.252780" lon="-4.861280">
        <ele>423.373</ele>
        <time>2020-05-20T10:25:00Z</time>
      </trkpt>
      <trkpt lat="43.252810" lon="-4.861220">
        <ele>433.763</ele>
        <time>2020-05-20T10:25:20Z</time>
      </trkpt>
      <trkpt lat="43.252850" lon="-4.861170">
        <ele>443.262</ele>
        <time>2020-05-20T10:25:40Z</time>
      </trkpt>
      <trkpt lat="43.252870" lon="-4.861130">
        <ele>448.467</ele>
        <time>2020-05-20T10:26:00Z</time>
      </trkpt>
      <trkpt lat="43.252880" lon="-4.861110">
        <ele>450.781</ele>
        <time>2020-05-20T10:26:20Z</time>
      </trkpt>
      <trkpt lat="43.252890" lon="-4.861090">
        <ele>452.219</ele>
        <time>2020-05-20T10:26:40Z</time>
      </trkpt>
      <trkpt lat="43.252890" lon="-4.861060">
        <ele>452.808</ele>
        <time>2020-05-20T10:27:00Z</time>
      </trkpt>
      <trkpt lat="43.252900" lon="-4.861040">
        <ele>454.230</ele>
        <time>2020-05-20T10:27:20Z</time>
      </trkpt>
      <trkpt lat="43.252910" lon="-4.861010">
        <ele>455.735</ele>
        <time>2020-05-20T10:27:40Z</time>
      </trkpt>
      <trkpt lat="43.252920" lon="-4.860990">
        <ele>457.051</ele>
        <time>2020-05-20T10:28:00Z</time>
      </trkpt>
      <trkpt lat="43.252920" lon="-4.860960">
        <ele>457.564</ele>
        <time>2020-05-20T10:28:20Z</time>
      </trkpt>
      <trkpt lat="43.252930" lon="-4.860930">
        <ele>458.994</ele>
        <time>2020-05-20T10:28:40Z</time>
      </trkpt>
      <trkpt lat="43.252930" lon="-4.860910">
        <ele>459.214</ele>
        <time>2020-05-20T10:29:00Z</time>
      </trkpt>
      <trkpt lat="43.252930" lon="-4.860900">
        <ele>459.414</ele>
        <time>2020-05-20T10:29:20Z</time>
      </trkpt>
      <trkpt lat="43.252950" lon="-4.860840">
        <ele>461.983</ele>
        <time>2020-05-20T10:29:40Z</time>
      </trkpt>
      <trkpt lat="43.252960" lon="-4.860780">
        <ele>462.755</ele>
        <time>2020-05-20T10:30:00Z</time>
      </trkpt>
      <trkpt lat="43.252960" lon="-4.860750">
        <ele>462.707</ele>
        <time>2020-05-20T10:30:20Z</time>
      </trkpt>
      <trkpt lat="43.252970" lon="-4.860720">
        <ele>463.317</ele>
        <time>2020-05-20T10:30:40Z</time>
      </trkpt>
      <trkpt lat="43.252980" lon="-4.860700">
        <ele>464.008</ele>
        <time>2020-05-20T10:31:00Z</time>
      </trkpt>
      <trkpt lat="43.252990" lon="-4.860670">
        <ele>464.639</ele>
        <time>2020-05-20T10:31:20Z</time>
      </trkpt>
      <trkpt lat="43.253000" lon="-4.860650">
        <ele>465.184</ele>
        <time>2020-05-20T10:31:40Z</time>
      </trkpt>
      <trkpt lat="43.253010" lon="-4.860620">
        <ele>465.630</ele>
        <time>2020-05-20T10:32:00Z</time>
      </trkpt>
      <trkpt lat="43.253030" lon="-4.860600">
        <ele>466.893</ele>
        <time>2020-05-20T10:32:20Z</time>
      </trkpt>
      <trkpt lat="43.253050" lon="-4.860550">
        <ele>467.723</ele>
        <time>2020-05-20T10:32:40Z</time>
      </trkpt>
      <trkpt lat="43.253070" lon="-4.860510">
        <ele>469.633</ele>
        <time>2020-05-20T10:33:00Z</time>
      </trkpt>
      <trkpt lat="43.253080" lon="-4.860490">
        <ele>470.583</ele>
        <time>2020-05-20T10:33:20Z</time>
      </trkpt>
      <trkpt lat="43.253090" lon="-4.860470">
        <ele>471.442</ele>
        <time>2020-05-20T10:33:40Z</time>
      </trkpt>
      <trkpt lat="43.253090" lon="-4.860460">
        <ele>471.513</ele>
        <time>2020-05-20T10:34:00Z</time>
      </trkpt>
      <trkpt lat="43.253090" lon="-4.860440">
        <ele>471.643</ele>
        <time>2020-05-20T10:34:20Z</time>
      </trkpt>
      <trkpt lat="43.253100" lon="-4.860410">
        <ele>472.607</ele>
        <time>2020-05-20T10:34:40Z</time>
      </trkpt>
      <trkpt lat="43.253100" lon="-4.860380">
        <ele>472.908</ele>
        <time>2020-05-20T10:35:00Z</time>
      </trkpt>
      <trkpt lat="43.253100" lon="-4.860350">
        <ele>473.135</ele>
        <time>2020-05-20T10:35:20Z</time>
      </trkpt>
      <trkpt lat="43.253100" lon="-4.860320">
        <ele>473.450</ele>
        <time>2020-05-20T10:35:40Z</time>
      </trkpt>
      <trkpt lat="43.253110" lon="-4.860280">
        <ele>474.316</ele>
        <time>2020-05-20T10:36:00Z</time>
      </trkpt>
      <trkpt lat="43.253110" lon="-4.860240">
        <ele>475.459</ele>
        <time>2020-05-20T10:36:20Z</time>
      </trkpt>
      <trkpt lat="43.253110" lon="-4.860220">
        <ele>476.079</ele>
        <time>2020-05-20T10:36:40Z</time>
      </trkpt>
      <trkpt lat="43.253110" lon="-4.860210">
        <ele>476.259</ele>
        <time>2020-05-20T10:37:00Z</time>
      </trkpt>
      <trkpt lat="43.253110" lon="-4.860190">
        <ele>476.889</ele>
        <time>2020-05-20T10:37:20Z</time>
      </trkpt>
      <trkpt lat="43.253110" lon="-4.860170">
        <ele>477.448</ele>
        <time>2020-05-20T10:37:40Z</time>
      </trkpt>
      <trkpt lat="43.253110" lon="-4.860160">
        <ele>477.653</ele>
        <time>2020-05-20T10:38:00Z</time>
      </trkpt>
      <trkpt lat="43.253110" lon="-4.860140">
        <ele>478.204</ele>
        <time>2020-05-20T10:38:20Z</time>
      </trkpt>
      <trkpt lat="43.253100" lon="-4.860130">
        <ele>478.014</ele>
        <time>2020-05-20T10:38:40Z</time>
      </trkpt>
      <trkpt lat="43.253100" lon="-4.860120">
        <ele>478.308</ele>
        <time>2020-05-20T10:39:00Z</time>
      </trkpt>
      <trkpt lat="43.253090" lon="-4.860100">
        <ele>478.479</ele>
        <time>2020-05-20T10:39:20Z</time>
      </trkpt>
      <trkpt lat="43.253090" lon="-4.860090">
        <ele>478.724</ele>
        <time>2020-05-20T10:39:40Z</time>
      </trkpt>
      <trkpt lat="43.253080" lon="-4.860070">
        <ele>478.820</ele>
        <time>2020-05-20T10:40:00Z</time>
      </trkpt>
      <trkpt lat="43.253070" lon="-4.860050">
        <ele>479.073</ele>
        <time>2020-05-20T10:40:20Z</time>
      </trkpt>
      <trkpt lat="43.253050" lon="-4.860020">
        <ele>479.293</ele>
        <time>2020-05-20T10:40:40Z</time>
      </trkpt>
      <trkpt lat="43.253040" lon="-4.860010">
        <ele>479.363</ele>
        <time>2020-05-20T10:41:00Z</time>
      </trkpt>
      <trkpt lat="43.253000" lon="-4.859960">
        <ele>480.513</ele>
        <time>2020-05-20T10:41:20Z</time>
      </trkpt>
      <trkpt lat="43.252960" lon="-4.859910">
        <ele>481.652</ele>
        <time>2020-05-20T10:41:40Z</time>
      </trkpt>
      <trkpt lat="43.252920" lon="-4.859870">
        <ele>482.267</ele>
        <time>2020-05-20T10:42:00Z</time>
      </trkpt>
      <trkpt lat="43.252900" lon="-4.859850">
        <ele>482.581</ele>
        <time>2020-05-20T10:42:20Z</time>
      </trkpt>
      <trkpt lat="43.252890" lon="-4.859830">
        <ele>483.019</ele>
        <time>2020-05-20T10:42:40Z</time>
      </trkpt>
      <trkpt lat="43.252860" lon="-4.859790">
        <ele>483.808</ele>
        <time>2020-05-20T10:43:00Z</time>
      </trkpt>
      <trkpt lat="43.252840" lon="-4.859760">
        <ele>484.460</ele>
        <time>2020-05-20T10:43:20Z</time>
      </trkpt>
      <trkpt lat="43.252810" lon="-4.859730">
        <ele>484.625</ele>
        <time>2020-05-20T10:43:40Z</time>
      </trkpt>
      <trkpt lat="43.252770" lon="-4.859700">
        <ele>484.281</ele>
        <time>2020-05-20T10:44:00Z</time>
      </trkpt>
      <trkpt lat="43.252770" lon="-4.859690">
        <ele>484.674</ele>
        <time>2020-05-20T10:44:20Z</time>
      </trkpt>
      <trkpt lat="43.252730" lon="-4.859650">
        <ele>483.684</ele>
        <time>2020-05-20T10:44:40Z</time>
      </trkpt>
      <trkpt lat="43.252670" lon="-4.859580">
        <ele>483.614</ele>
        <time>2020-05-20T10:45:00Z</time>
      </trkpt>
      <trkpt lat="43.252610" lon="-4.859510">
        <ele>485.044</ele>
        <time>2020-05-20T10:45:20Z</time>
      </trkpt>
      <trkpt lat="43.252560" lon="-4.859450">
        <ele>487.333</ele>
        <time>2020-05-20T10:45:40Z</time>
      </trkpt>
      <trkpt lat="43.252530" lon="-4.859410">
        <ele>488.131</ele>
        <time>2020-05-20T10:46:00Z</time>
      </trkpt>
      <trkpt lat="43.252500" lon="-4.859370">
        <ele>488.761</ele>
        <time>2020-05-20T10:46:20Z</time>
      </trkpt>
      <trkpt lat="43.252490" lon="-4.859340">
        <ele>485.307</ele>
        <time>2020-05-20T10:46:40Z</time>
      </trkpt>
      <trkpt lat="43.252480" lon="-4.859330">
        <ele>481.208</ele>
        <time>2020-05-20T10:47:00Z</time>
      </trkpt>
      <trkpt lat="43.252470" lon="-4.859310">
        <ele>477.547</ele>
        <time>2020-05-20T10:47:20Z</time>
      </trkpt>
      <trkpt lat="43.252460" lon="-4.859290">
        <ele>473.852</ele>
        <time>2020-05-20T10:47:40Z</time>
      </trkpt>
      <trkpt lat="43.252440" lon="-4.859280">
        <ele>465.288</ele>
        <time>2020-05-20T10:48:00Z</time>
      </trkpt>
      <trkpt lat="43.252430" lon="-4.859260">
        <ele>461.561</ele>
        <time>2020-05-20T10:48:20Z</time>
      </trkpt>
      <trkpt lat="43.252420" lon="-4.859250">
        <ele>457.441</ele>
        <time>2020-05-20T10:48:40Z</time>
      </trkpt>
      <trkpt lat="43.252400" lon="-4.859240">
        <ele>448.821</ele>
        <time>2020-05-20T10:49:00Z</time>
      </trkpt>
      <trkpt lat="43.252390" lon="-4.859230">
        <ele>444.761</ele>
        <time>2020-05-20T10:49:20Z</time>
      </trkpt>
      <trkpt lat="43.252370" lon="-4.859210">
        <ele>436.510</ele>
        <time>2020-05-20T10:49:40Z</time>
      </trkpt>
      <trkpt lat="43.252360" lon="-4.859200">
        <ele>432.494</ele>
        <time>2020-05-20T10:50:00Z</time>
      </trkpt>
      <trkpt lat="43.252340" lon="-4.859180">
        <ele>424.157</ele>
        <time>2020-05-20T10:50:20Z</time>
      </trkpt>
      <trkpt lat="43.252320" lon="-4.859160">
        <ele>416.222</ele>
        <time>2020-05-20T10:50:40Z</time>
      </trkpt>
      <trkpt lat="43.252310" lon="-4.859140">
        <ele>413.408</ele>
        <time>2020-05-20T10:51:00Z</time>
      </trkpt>
      <trkpt lat="43.252280" lon="-4.859100">
        <ele>404.043</ele>
        <time>2020-05-20T10:51:20Z</time>
      </trkpt>
      <trkpt lat="43.252260" lon="-4.859060">
        <ele>399.528</ele>
        <time>2020-05-20T10:51:40Z</time>
      </trkpt>
      <trkpt lat="43.252240" lon="-4.859030">
        <ele>394.434</ele>
        <time>2020-05-20T10:52:00Z</time>
      </trkpt>
      <trkpt lat="43.252230" lon="-4.859020">
        <ele>391.557</ele>
        <time>2020-05-20T10:52:20Z</time>
      </trkpt>
      <trkpt lat="43.252220" lon="-4.859000">
        <ele>389.767</ele>
        <time>2020-05-20T10:52:40Z</time>
      </trkpt>
      <trkpt lat="43.252210" lon="-4.858970">
        <ele>389.117</ele>
        <time>2020-05-20T10:53:00Z</time>
      </trkpt>
      <trkpt lat="43.252190" lon="-4.858940">
        <ele>384.147</ele>
        <time>2020-05-20T10:53:20Z</time>
      </trkpt>
      <trkpt lat="43.252180" lon="-4.858910">
        <ele>383.086</ele>
        <time>2020-05-20T10:53:40Z</time>
      </trkpt>
      <trkpt lat="43.252170" lon="-4.858870">
        <ele>382.172</ele>
        <time>2020-05-20T10:54:00Z</time>
      </trkpt>
      <trkpt lat="43.252160" lon="-4.858840">
        <ele>379.913</ele>
        <time>2020-05-20T10:54:20Z</time>
      </trkpt>
      <trkpt lat="43.252150" lon="-4.858810">
        <ele>377.514</ele>
        <time>2020-05-20T10:54:40Z</time>
      </trkpt>
      <trkpt lat="43.252140" lon="-4.858780">
        <ele>375.108</ele>
        <time>2020-05-20T10:55:00Z</time>
      </trkpt>
      <trkpt lat="43.252130" lon="-4.858760">
        <ele>371.961</ele>
        <time>2020-05-20T10:55:20Z</time>
      </trkpt>
      <trkpt lat="43.252130" lon="-4.858740">
        <ele>373.176</ele>
        <time>2020-05-20T10:55:40Z</time>
      </trkpt>
      <trkpt lat="43.252120" lon="-4.858720">
        <ele>369.852</ele>
        <time>2020-05-20T10:56:00Z</time>
      </trkpt>
      <trkpt lat="43.252120" lon="-4.858690">
        <ele>371.635</ele>
        <time>2020-05-20T10:56:20Z</time>
      </trkpt>
      <trkpt lat="43.252120" lon="-4.858660">
        <ele>373.515</ele>
        <time>2020-05-20T10:56:40Z</time>
      </trkpt>
      <trkpt lat="43.252120" lon="-4.858640">
        <ele>374.715</ele>
        <time>2020-05-20T10:57:00Z</time>
      </trkpt>
      <trkpt lat="43.252120" lon="-4.858610">
        <ele>376.615</ele>
        <time>2020-05-20T10:57:20Z</time>
      </trkpt>
      <trkpt lat="43.252120" lon="-4.858580">
        <ele>380.254</ele>
        <time>2020-05-20T10:57:40Z</time>
      </trkpt>
      <trkpt lat="43.252120" lon="-4.858570">
        <ele>381.456</ele>
        <time>2020-05-20T10:58:00Z</time>
      </trkpt>
      <trkpt lat="43.252120" lon="-4.858510">
        <ele>388.859</ele>
        <time>2020-05-20T10:58:20Z</time>
      </trkpt>
      <trkpt lat="43.252120" lon="-4.858480">
        <ele>392.414</ele>
        <time>2020-05-20T10:58:40Z</time>
      </trkpt>
      <trkpt lat="43.252110" lon="-4.858440">
        <ele>392.508</ele>
        <time>2020-05-20T10:59:00Z</time>
      </trkpt>
      <trkpt lat="43.252110" lon="-4.858400">
        <ele>397.489</ele>
        <time>2020-05-20T10:59:20Z</time>
      </trkpt>
      <trkpt lat="43.252110" lon="-4.858370">
        <ele>401.044</ele>
        <time>2020-05-20T10:59:40Z</time>
      </trkpt>
      <trkpt lat="43.252100" lon="-4.858350">
        <ele>398.630</ele>
        <time>2020-05-20T11:00:00Z</time>
      </trkpt>
      <trkpt lat="43.252100" lon="-4.858330">
        <ele>401.063</ele>
        <time>2020-05-20T11:00:20Z</time>
      </trkpt>
      <trkpt lat="43.252100" lon="-4.858310">
        <ele>403.553</ele>
        <time>2020-05-20T11:00:40Z</time>
      </trkpt>
      <trkpt lat="43.252090" lon="-4.858280">
        <ele>402.413</ele>
        <time>2020-05-20T11:01:00Z</time>
      </trkpt>
      <trkpt lat="43.252090" lon="-4.858250">
        <ele>406.273</ele>
        <time>2020-05-20T11:01:20Z</time>
      </trkpt>
      <trkpt lat="43.252090" lon="-4.858230">
        <ele>408.752</ele>
        <time>2020-05-20T11:01:40Z</time>
      </trkpt>
      <trkpt lat="43.252090" lon="-4.858200">
        <ele>412.556</ele>
        <time>2020-05-20T11:02:00Z</time>
      </trkpt>
      <trkpt lat="43.252100" lon="-4.858190">
        <ele>418.159</ele>
        <time>2020-05-20T11:02:20Z</time>
      </trkpt>
      <trkpt lat="43.252110" lon="-4.858170">
        <ele>424.914</ele>
        <time>2020-05-20T11:02:40Z</time>
      </trkpt>
      <trkpt lat="43.252130" lon="-4.858160">
        <ele>434.708</ele>
        <time>2020-05-20T11:03:00Z</time>
      </trkpt>
      <trkpt lat="43.252150" lon="-4.858150">
        <ele>444.439</ele>
        <time>2020-05-20T11:03:20Z</time>
      </trkpt>
      <trkpt lat="43.252160" lon="-4.858140">
        <ele>449.724</ele>
        <time>2020-05-20T11:03:40Z</time>
      </trkpt>
      <trkpt lat="43.252170" lon="-4.858140">
        <ele>453.920</ele>
        <time>2020-05-20T11:04:00Z</time>
      </trkpt>
      <trkpt lat="43.252180" lon="-4.858130">
        <ele>459.113</ele>
        <time>2020-05-20T11:04:20Z</time>
      </trkpt>
      <trkpt lat="43.252190" lon="-4.858120">
        <ele>464.293</ele>
        <time>2020-05-20T11:04:40Z</time>
      </trkpt>
      <trkpt lat="43.252210" lon="-4.858120">
        <ele>472.683</ele>
        <time>2020-05-20T11:05:00Z</time>
      </trkpt>
      <trkpt lat="43.252220" lon="-4.858120">
        <ele>476.753</ele>
        <time>2020-05-20T11:05:20Z</time>
      </trkpt>
      <trkpt lat="43.252230" lon="-4.858120">
        <ele>478.612</ele>
        <time>2020-05-20T11:05:40Z</time>
      </trkpt>
      <trkpt lat="43.252240" lon="-4.858110">
        <ele>480.532</ele>
        <time>2020-05-20T11:06:00Z</time>
      </trkpt>
      <trkpt lat="43.252250" lon="-4.858110">
        <ele>481.692</ele>
        <time>2020-05-20T11:06:20Z</time>
      </trkpt>
      <trkpt lat="43.252260" lon="-4.858110">
        <ele>482.811</ele>
        <time>2020-05-20T11:06:40Z</time>
      </trkpt>
      <trkpt lat="43.252270" lon="-4.858110">
        <ele>483.908</ele>
        <time>2020-05-20T11:07:00Z</time>
      </trkpt>
      <trkpt lat="43.252280" lon="-4.858100">
        <ele>485.727</ele>
        <time>2020-05-20T11:07:20Z</time>
      </trkpt>
      <trkpt lat="43.252290" lon="-4.858090">
        <ele>487.422</ele>
        <time>2020-05-20T11:07:40Z</time>
      </trkpt>
      <trkpt lat="43.252300" lon="-4.858090">
        <ele>488.538</ele>
        <time>2020-05-20T11:08:00Z</time>
      </trkpt>
      <trkpt lat="43.252310" lon="-4.858070">
        <ele>490.721</ele>
        <time>2020-05-20T11:08:20Z</time>
      </trkpt>
      <trkpt lat="43.252320" lon="-4.858050">
        <ele>492.861</ele>
        <time>2020-05-20T11:08:40Z</time>
      </trkpt>
      <trkpt lat="43.252320" lon="-4.858040">
        <ele>493.351</ele>
        <time>2020-05-20T11:09:00Z</time>
      </trkpt>
      <trkpt lat="43.252330" lon="-4.858030">
        <ele>494.791</ele>
        <time>2020-05-20T11:09:20Z</time>
      </trkpt>
      <trkpt lat="43.252330" lon="-4.858010">
        <ele>495.680</ele>
        <time>2020-05-20T11:09:40Z</time>
      </trkpt>
      <trkpt lat="43.252340" lon="-4.857980">
        <ele>497.869</ele>
        <time>2020-05-20T11:10:00Z</time>
      </trkpt>
      <trkpt lat="43.252350" lon="-4.857960">
        <ele>499.604</ele>
        <time>2020-05-20T11:10:20Z</time>
      </trkpt>
      <trkpt lat="43.252350" lon="-4.857920">
        <ele>501.324</ele>
        <time>2020-05-20T11:10:40Z</time>
      </trkpt>
      <trkpt lat="43.252350" lon="-4.857880">
        <ele>503.008</ele>
        <time>2020-05-20T11:11:00Z</time>
      </trkpt>
      <trkpt lat="43.252350" lon="-4.857820">
        <ele>505.630</ele>
        <time>2020-05-20T11:11:20Z</time>
      </trkpt>
      <trkpt lat="43.252350" lon="-4.857800">
        <ele>506.565</ele>
        <time>2020-05-20T11:11:40Z</time>
      </trkpt>
      <trkpt lat="43.252350" lon="-4.857750">
        <ele>508.581</ele>
        <time>2020-05-20T11:12:00Z</time>
      </trkpt>
      <trkpt lat="43.252340" lon="-4.857680">
        <ele>510.884</ele>
        <time>2020-05-20T11:12:20Z</time>
      </trkpt>
      <trkpt lat="43.252330" lon="-4.857630">
        <ele>512.354</ele>
        <time>2020-05-20T11:12:40Z</time>
      </trkpt>
      <trkpt lat="43.252330" lon="-4.857590">
        <ele>513.954</ele>
        <time>2020-05-20T11:13:00Z</time>
      </trkpt>
      <trkpt lat="43.252320" lon="-4.857560">
        <ele>514.644</ele>
        <time>2020-05-20T11:13:20Z</time>
      </trkpt>
      <trkpt lat="43.252320" lon="-4.857540">
        <ele>515.353</ele>
        <time>2020-05-20T11:13:40Z</time>
      </trkpt>
      <trkpt lat="43.252310" lon="-4.857520">
        <ele>515.659</ele>
        <time>2020-05-20T11:14:00Z</time>
      </trkpt>
      <trkpt lat="43.252300" lon="-4.857490">
        <ele>516.303</ele>
        <time>2020-05-20T11:14:20Z</time>
      </trkpt>
      <trkpt lat="43.252300" lon="-4.857470">
        <ele>516.923</ele>
        <time>2020-05-20T11:14:40Z</time>
      </trkpt>
      <trkpt lat="43.252280" lon="-4.857450">
        <ele>516.608</ele>
        <time>2020-05-20T11:15:00Z</time>
      </trkpt>
      <trkpt lat="43.252270" lon="-4.857410">
        <ele>517.529</ele>
        <time>2020-05-20T11:15:20Z</time>
      </trkpt>
      <trkpt lat="43.252230" lon="-4.857350">
        <ele>517.854</ele>
        <time>2020-05-20T11:15:40Z</time>
      </trkpt>
      <trkpt lat="43.252220" lon="-4.857340">
        <ele>517.330</ele>
        <time>2020-05-20T11:16:00Z</time>
      </trkpt>
      <trkpt lat="43.252160" lon="-4.857250">
        <ele>509.863</ele>
        <time>2020-05-20T11:16:20Z</time>
      </trkpt>
      <trkpt lat="43.252120" lon="-4.857170">
        <ele>506.033</ele>
        <time>2020-05-20T11:16:40Z</time>
      </trkpt>
      <trkpt lat="43.252110" lon="-4.857170">
        <ele>504.373</ele>
        <time>2020-05-20T11:17:00Z</time>
      </trkpt>
      <trkpt lat="43.252050" lon="-4.857070">
        <ele>497.323</ele>
        <time>2020-05-20T11:17:20Z</time>
      </trkpt>
      <trkpt lat="43.251980" lon="-4.856970">
        <ele>489.032</ele>
        <time>2020-05-20T11:17:40Z</time>
      </trkpt>
      <trkpt lat="43.251910" lon="-4.856860">
        <ele>465.227</ele>
        <time>2020-05-20T11:18:00Z</time>
      </trkpt>
      <trkpt lat="43.251870" lon="-4.856800">
        <ele>442.968</ele>
        <time>2020-05-20T11:18:20Z</time>
      </trkpt>
      <trkpt lat="43.251850" lon="-4.856760">
        <ele>431.814</ele>
        <time>2020-05-20T11:18:40Z</time>
      </trkpt>
      <trkpt lat="43.251830" lon="-4.856730">
        <ele>420.608</ele>
        <time>2020-05-20T11:19:00Z</time>
      </trkpt>
      <trkpt lat="43.251820" lon="-4.856700">
        <ele>415.196</ele>
        <time>2020-05-20T11:19:20Z</time>
      </trkpt>
      <trkpt lat="43.251810" lon="-4.856660">
        <ele>409.841</ele>
        <time>2020-05-20T11:19:40Z</time>
      </trkpt>
      <trkpt lat="43.251800" lon="-4.856630">
        <ele>405.167</ele>
        <time>2020-05-20T11:20:00Z</time>
      </trkpt>
      <trkpt lat="43.251800" lon="-4.856610">
        <ele>405.840</ele>
        <time>2020-05-20T11:20:20Z</time>
      </trkpt>
      <trkpt lat="43.251800" lon="-4.856580">
        <ele>406.930</ele>
        <time>2020-05-20T11:20:40Z</time>
      </trkpt>
      <trkpt lat="43.251810" lon="-4.856580">
        <ele>412.710</ele>
        <time>2020-05-20T11:21:00Z</time>
      </trkpt>
      <trkpt lat="43.251810" lon="-4.856570">
        <ele>413.130</ele>
        <time>2020-05-20T11:21:20Z</time>
      </trkpt>
      <trkpt lat="43.251820" lon="-4.856550">
        <ele>419.659</ele>
        <time>2020-05-20T11:21:40Z</time>
      </trkpt>
      <trkpt lat="43.251830" lon="-4.856530">
        <ele>426.267</ele>
        <time>2020-05-20T11:22:00Z</time>
      </trkpt>
      <trkpt lat="43.251840" lon="-4.856490">
        <ele>433.581</ele>
        <time>2020-05-20T11:22:20Z</time>
      </trkpt>
      <trkpt lat="43.251860" lon="-4.856450">
        <ele>446.819</ele>
        <time>2020-05-20T11:22:40Z</time>
      </trkpt>
      <trkpt lat="43.251860" lon="-4.856420">
        <ele>447.908</ele>
        <time>2020-05-20T11:23:00Z</time>
      </trkpt>
      <trkpt lat="43.251880" lon="-4.856390">
        <ele>460.950</ele>
        <time>2020-05-20T11:23:20Z</time>
      </trkpt>
      <trkpt lat="43.251890" lon="-4.856360">
        <ele>466.855</ele>
        <time>2020-05-20T11:23:40Z</time>
      </trkpt>
      <trkpt lat="43.251890" lon="-4.856350">
        <ele>466.891</ele>
        <time>2020-05-20T11:24:00Z</time>
      </trkpt>
      <trkpt lat="43.251910" lon="-4.856300">
        <ele>478.354</ele>
        <time>2020-05-20T11:24:20Z</time>
      </trkpt>
      <trkpt lat="43.251930" lon="-4.856240">
        <ele>489.684</ele>
        <time>2020-05-20T11:24:40Z</time>
      </trkpt>
      <trkpt lat="43.251940" lon="-4.856190">
        <ele>495.034</ele>
        <time>2020-05-20T11:25:00Z</time>
      </trkpt>
      <trkpt lat="43.251950" lon="-4.856150">
        <ele>498.014</ele>
        <time>2020-05-20T11:25:20Z</time>
      </trkpt>
      <trkpt lat="43.251950" lon="-4.856130">
        <ele>497.933</ele>
        <time>2020-05-20T11:25:40Z</time>
      </trkpt>
      <trkpt lat="43.251950" lon="-4.856120">
        <ele>497.897</ele>
        <time>2020-05-20T11:26:00Z</time>
      </trkpt>
      <trkpt lat="43.251960" lon="-4.856090">
        <ele>500.223</ele>
        <time>2020-05-20T11:26:20Z</time>
      </trkpt>
      <trkpt lat="43.251960" lon="-4.856050">
        <ele>502.225</ele>
        <time>2020-05-20T11:26:40Z</time>
      </trkpt>
      <trkpt lat="43.251960" lon="-4.856020">
        <ele>503.708</ele>
        <time>2020-05-20T11:27:00Z</time>
      </trkpt>
      <trkpt lat="43.251960" lon="-4.855990">
        <ele>505.373</ele>
        <time>2020-05-20T11:27:20Z</time>
      </trkpt>
      <trkpt lat="43.251960" lon="-4.855950">
        <ele>507.378</ele>
        <time>2020-05-20T11:27:40Z</time>
      </trkpt>
      <trkpt lat="43.251960" lon="-4.855910">
        <ele>509.494</ele>
        <time>2020-05-20T11:28:00Z</time>
      </trkpt>
      <trkpt lat="43.251950" lon="-4.855890">
        <ele>509.517</ele>
        <time>2020-05-20T11:28:20Z</time>
      </trkpt>
      <trkpt lat="43.251950" lon="-4.855880">
        <ele>510.087</ele>
        <time>2020-05-20T11:28:40Z</time>
      </trkpt>
      <trkpt lat="43.251940" lon="-4.855830">
        <ele>509.237</ele>
        <time>2020-05-20T11:29:00Z</time>
      </trkpt>
      <trkpt lat="43.251930" lon="-4.855770">
        <ele>501.147</ele>
        <time>2020-05-20T11:29:20Z</time>
      </trkpt>
      <trkpt lat="43.251920" lon="-4.855730">
        <ele>493.776</ele>
        <time>2020-05-20T11:29:40Z</time>
      </trkpt>
      <trkpt lat="43.251910" lon="-4.855680">
        <ele>486.074</ele>
        <time>2020-05-20T11:30:00Z</time>
      </trkpt>
      <trkpt lat="43.251900" lon="-4.855660">
        <ele>479.456</ele>
        <time>2020-05-20T11:30:20Z</time>
      </trkpt>
      <trkpt lat="43.251900" lon="-4.855650">
        <ele>479.121</ele>
        <time>2020-05-20T11:30:40Z</time>
      </trkpt>
      <trkpt lat="43.251910" lon="-4.855620">
        <ele>483.908</ele>
        <time>2020-05-20T11:31:00Z</time>
      </trkpt>
      <trkpt lat="43.251920" lon="-4.855580">
        <ele>488.481</ele>
        <time>2020-05-20T11:31:20Z</time>
      </trkpt>
      <trkpt lat="43.251940" lon="-4.855510">
        <ele>493.886</ele>
        <time>2020-05-20T11:31:40Z</time>
      </trkpt>
      <trkpt lat="43.251960" lon="-4.855450">
        <ele>491.362</ele>
        <time>2020-05-20T11:32:00Z</time>
      </trkpt>
      <trkpt lat="43.251970" lon="-4.855420">
        <ele>489.375</ele>
        <time>2020-05-20T11:32:20Z</time>
      </trkpt>
      <trkpt lat="43.251980" lon="-4.855380">
        <ele>486.435</ele>
        <time>2020-05-20T11:32:40Z</time>
      </trkpt>
      <trkpt lat="43.252040" lon="-4.855250">
        <ele>484.245</ele>
        <time>2020-05-20T11:33:00Z</time>
      </trkpt>
      <trkpt lat="43.252090" lon="-4.855120">
        <ele>483.395</ele>
        <time>2020-05-20T11:33:20Z</time>
      </trkpt>
      <trkpt lat="43.252140" lon="-4.855000">
        <ele>489.174</ele>
        <time>2020-05-20T11:33:40Z</time>
      </trkpt>
      <trkpt lat="43.252180" lon="-4.854910">
        <ele>498.054</ele>
        <time>2020-05-20T11:34:00Z</time>
      </trkpt>
      <trkpt lat="43.252210" lon="-4.854850">
        <ele>506.556</ele>
        <time>2020-05-20T11:34:20Z</time>
      </trkpt>
      <trkpt lat="43.252230" lon="-4.854820">
        <ele>510.611</ele>
        <time>2020-05-20T11:34:40Z</time>
      </trkpt>
      <trkpt lat="43.252250" lon="-4.854790">
        <ele>510.908</ele>
        <time>2020-05-20T11:35:00Z</time>
      </trkpt>
      <trkpt lat="43.252250" lon="-4.854780">
        <ele>510.619</ele>
        <time>2020-05-20T11:35:20Z</time>
      </trkpt>
      <trkpt lat="43.252260" lon="-4.854750">
        <ele>510.264</ele>
        <time>2020-05-20T11:35:40Z</time>
      </trkpt>
      <trkpt lat="43.252280" lon="-4.854700">
        <ele>509.930</ele>
        <time>2020-05-20T11:36:00Z</time>
      </trkpt>
      <trkpt lat="43.252290" lon="-4.854660">
        <ele>509.483</ele>
        <time>2020-05-20T11:36:20Z</time>
      </trkpt>
      <trkpt lat="43.252310" lon="-4.854570">
        <ele>508.283</ele>
        <time>2020-05-20T11:36:40Z</time>
      </trkpt>
      <trkpt lat="43.252310" lon="-4.854560">
        <ele>507.943</ele>
        <time>2020-05-20T11:37:00Z</time>
      </trkpt>
      <trkpt lat="43.252320" lon="-4.854490">
        <ele>506.643</ele>
        <time>2020-05-20T11:37:20Z</time>
      </trkpt>
      <trkpt lat="43.252330" lon="-4.854430">
        <ele>505.832</ele>
        <time>2020-05-20T11:37:40Z</time>
      </trkpt>
      <trkpt lat="43.252330" lon="-4.854360">
        <ele>505.089</ele>
        <time>2020-05-20T11:38:00Z</time>
      </trkpt>
      <trkpt lat="43.252330" lon="-4.854320">
        <ele>504.506</ele>
        <time>2020-05-20T11:38:20Z</time>
      </trkpt>
      <trkpt lat="43.252330" lon="-4.854310">
        <ele>504.326</ele>
        <time>2020-05-20T11:38:40Z</time>
      </trkpt>
      <trkpt lat="43.252340" lon="-4.854260">
        <ele>504.408</ele>
        <time>2020-05-20T11:39:00Z</time>
      </trkpt>
      <trkpt lat="43.252340" lon="-4.854230">
        <ele>504.042</ele>
        <time>2020-05-20T11:39:20Z</time>
      </trkpt>
      <trkpt lat="43.252330" lon="-4.854210">
        <ele>503.157</ele>
        <time>2020-05-20T11:39:40Z</time>
      </trkpt>
      <trkpt lat="43.252330" lon="-4.854170">
        <ele>502.683</ele>
        <time>2020-05-20T11:40:00Z</time>
      </trkpt>
      <trkpt lat="43.252320" lon="-4.854150">
        <ele>502.146</ele>
        <time>2020-05-20T11:40:20Z</time>
      </trkpt>
      <trkpt lat="43.252310" lon="-4.854120">
        <ele>501.636</ele>
        <time>2020-05-20T11:40:40Z</time>
      </trkpt>
      <trkpt lat="43.252300" lon="-4.854090">
        <ele>501.176</ele>
        <time>2020-05-20T11:41:00Z</time>
      </trkpt>
      <trkpt lat="43.252300" lon="-4.854080">
        <ele>501.216</ele>
        <time>2020-05-20T11:41:20Z</time>
      </trkpt>
      <trkpt lat="43.252280" lon="-4.854040">
        <ele>500.155</ele>
        <time>2020-05-20T11:41:40Z</time>
      </trkpt>
      <trkpt lat="43.252260" lon="-4.853990">
        <ele>499.046</ele>
        <time>2020-05-20T11:42:00Z</time>
      </trkpt>
      <trkpt lat="43.252230" lon="-4.853910">
        <ele>497.488</ele>
        <time>2020-05-20T11:42:20Z</time>
      </trkpt>
      <trkpt lat="43.252200" lon="-4.853870">
        <ele>492.616</ele>
        <time>2020-05-20T11:42:40Z</time>
      </trkpt>
      <trkpt lat="43.252190" lon="-4.853830">
        <ele>491.408</ele>
        <time>2020-05-20T11:43:00Z</time>
      </trkpt>
      <trkpt lat="43.252160" lon="-4.853770">
        <ele>487.158</ele>
        <time>2020-05-20T11:43:20Z</time>
      </trkpt>
      <trkpt lat="43.252120" lon="-4.853700">
        <ele>482.493</ele>
        <time>2020-05-20T11:43:40Z</time>
      </trkpt>
      <trkpt lat="43.252090" lon="-4.853650">
        <ele>479.799</ele>
        <time>2020-05-20T11:44:00Z</time>
      </trkpt>
      <trkpt lat="43.252070" lon="-4.853600">
        <ele>478.922</ele>
        <time>2020-05-20T11:44:20Z</time>
      </trkpt>
      <trkpt lat="43.252050" lon="-4.853550">
        <ele>477.692</ele>
        <time>2020-05-20T11:44:40Z</time>
      </trkpt>
      <trkpt lat="43.252040" lon="-4.853500">
        <ele>477.952</ele>
        <time>2020-05-20T11:45:00Z</time>
      </trkpt>
      <trkpt lat="43.252030" lon="-4.853450">
        <ele>478.412</ele>
        <time>2020-05-20T11:45:20Z</time>
      </trkpt>
      <trkpt lat="43.252010" lon="-4.853400">
        <ele>477.811</ele>
        <time>2020-05-20T11:45:40Z</time>
      </trkpt>
      <trkpt lat="43.252000" lon="-4.853360">
        <ele>478.121</ele>
        <time>2020-05-20T11:46:00Z</time>
      </trkpt>
      <trkpt lat="43.251990" lon="-4.853310">
        <ele>478.641</ele>
        <time>2020-05-20T11:46:20Z</time>
      </trkpt>
      <trkpt lat="43.251980" lon="-4.853270">
        <ele>478.505</ele>
        <time>2020-05-20T11:46:40Z</time>
      </trkpt>
      <trkpt lat="43.251970" lon="-4.853240">
        <ele>478.208</ele>
        <time>2020-05-20T11:47:00Z</time>
      </trkpt>
      <trkpt lat="43.251960" lon="-4.853200">
        <ele>478.386</ele>
        <time>2020-05-20T11:47:20Z</time>
      </trkpt>
      <trkpt lat="43.251950" lon="-4.853160">
        <ele>478.571</ele>
        <time>2020-05-20T11:47:40Z</time>
      </trkpt>
      <trkpt lat="43.251930" lon="-4.853110">
        <ele>474.327</ele>
        <time>2020-05-20T11:48:00Z</time>
      </trkpt>
      <trkpt lat="43.251920" lon="-4.853060">
        <ele>472.440</ele>
        <time>2020-05-20T11:48:20Z</time>
      </trkpt>
      <trkpt lat="43.251910" lon="-4.853030">
        <ele>470.210</ele>
        <time>2020-05-20T11:48:40Z</time>
      </trkpt>
      <trkpt lat="43.251900" lon="-4.852980">
        <ele>469.560</ele>
        <time>2020-05-20T11:49:00Z</time>
      </trkpt>
      <trkpt lat="43.251890" lon="-4.852950">
        <ele>468.460</ele>
        <time>2020-05-20T11:49:20Z</time>
      </trkpt>
      <trkpt lat="43.251870" lon="-4.852910">
        <ele>466.099</ele>
        <time>2020-05-20T11:49:40Z</time>
      </trkpt>
      <trkpt lat="43.251860" lon="-4.852870">
        <ele>466.914</ele>
        <time>2020-05-20T11:50:00Z</time>
      </trkpt>
      <trkpt lat="43.251840" lon="-4.852850">
        <ele>464.754</ele>
        <time>2020-05-20T11:50:20Z</time>
      </trkpt>
      <trkpt lat="43.251830" lon="-4.852820">
        <ele>466.009</ele>
        <time>2020-05-20T11:50:40Z</time>
      </trkpt>
      <trkpt lat="43.251810" lon="-4.852790">
        <ele>466.208</ele>
        <time>2020-05-20T11:51:00Z</time>
      </trkpt>
      <trkpt lat="43.251800" lon="-4.852780">
        <ele>466.015</ele>
        <time>2020-05-20T11:51:20Z</time>
      </trkpt>
      <trkpt lat="43.251790" lon="-4.852760">
        <ele>465.660</ele>
        <time>2020-05-20T11:51:40Z</time>
      </trkpt>
      <trkpt lat="43.251770" lon="-4.852720">
        <ele>465.166</ele>
        <time>2020-05-20T11:52:00Z</time>
      </trkpt>
      <trkpt lat="43.251750" lon="-4.852690">
        <ele>464.629</ele>
        <time>2020-05-20T11:52:20Z</time>
      </trkpt>
      <trkpt lat="43.251720" lon="-4.852660">
        <ele>463.559</ele>
        <time>2020-05-20T11:52:40Z</time>
      </trkpt>
      <trkpt lat="43.251700" lon="-4.852650">
        <ele>462.569</ele>
        <time>2020-05-20T11:53:00Z</time>
      </trkpt>
      <trkpt lat="43.251680" lon="-4.852610">
        <ele>464.169</ele>
        <time>2020-05-20T11:53:20Z</time>
      </trkpt>
      <trkpt lat="43.251670" lon="-4.852600">
        <ele>464.248</ele>
        <time>2020-05-20T11:53:40Z</time>
      </trkpt>
      <trkpt lat="43.251660" lon="-4.852590">
        <ele>462.841</ele>
        <time>2020-05-20T11:54:00Z</time>
      </trkpt>
      <trkpt lat="43.251650" lon="-4.852570">
        <ele>461.681</ele>
        <time>2020-05-20T11:54:20Z</time>
      </trkpt>
      <trkpt lat="43.251640" lon="-4.852550">
        <ele>460.509</ele>
        <time>2020-05-20T11:54:40Z</time>
      </trkpt>
      <trkpt lat="43.251630" lon="-4.852530">
        <ele>459.508</ele>
        <time>2020-05-20T11:55:00Z</time>
      </trkpt>
      <trkpt lat="43.251620" lon="-4.852510">
        <ele>458.778</ele>
        <time>2020-05-20T11:55:20Z</time>
      </trkpt>
      <trkpt lat="43.251610" lon="-4.852480">
        <ele>457.073</ele>
        <time>2020-05-20T11:55:40Z</time>
      </trkpt>
      <trkpt lat="43.251610" lon="-4.852470">
        <ele>457.179</ele>
        <time>2020-05-20T11:56:00Z</time>
      </trkpt>
      <trkpt lat="43.251610" lon="-4.852450">
        <ele>457.322</ele>
        <time>2020-05-20T11:56:20Z</time>
      </trkpt>
      <trkpt lat="43.251600" lon="-4.852430">
        <ele>454.882</ele>
        <time>2020-05-20T11:56:40Z</time>
      </trkpt>
      <trkpt lat="43.251600" lon="-4.852410">
        <ele>455.172</ele>
        <time>2020-05-20T11:57:00Z</time>
      </trkpt>
      <trkpt lat="43.251610" lon="-4.852390">
        <ele>457.782</ele>
        <time>2020-05-20T11:57:20Z</time>
      </trkpt>
      <trkpt lat="43.251610" lon="-4.852380">
        <ele>457.861</ele>
        <time>2020-05-20T11:57:40Z</time>
      </trkpt>
      <trkpt lat="43.251620" lon="-4.852360">
        <ele>460.315</ele>
        <time>2020-05-20T11:58:00Z</time>
      </trkpt>
      <trkpt lat="43.251630" lon="-4.852350">
        <ele>462.665</ele>
        <time>2020-05-20T11:58:20Z</time>
      </trkpt>
      <trkpt lat="43.251640" lon="-4.852340">
        <ele>464.811</ele>
        <time>2020-05-20T11:58:40Z</time>
      </trkpt>
      <trkpt lat="43.251650" lon="-4.852330">
        <ele>466.908</ele>
        <time>2020-05-20T11:59:00Z</time>
      </trkpt>
      <trkpt lat="43.251670" lon="-4.852320">
        <ele>470.545</ele>
        <time>2020-05-20T11:59:20Z</time>
      </trkpt>
      <trkpt lat="43.251680" lon="-4.852310">
        <ele>470.540</ele>
        <time>2020-05-20T11:59:40Z</time>
      </trkpt>
      <trkpt lat="43.251700" lon="-4.852300">
        <ele>470.886</ele>
        <time>2020-05-20T12:00:00Z</time>
      </trkpt>
      <trkpt lat="43.251720" lon="-4.852300">
        <ele>471.299</ele>
        <time>2020-05-20T12:00:20Z</time>
      </trkpt>
      <trkpt lat="43.251740" lon="-4.852290">
        <ele>471.499</ele>
        <time>2020-05-20T12:00:40Z</time>
      </trkpt>
      <trkpt lat="43.251760" lon="-4.852280">
        <ele>471.529</ele>
        <time>2020-05-20T12:01:00Z</time>
      </trkpt>
      <trkpt lat="43.251780" lon="-4.852270">
        <ele>471.739</ele>
        <time>2020-05-20T12:01:20Z</time>
      </trkpt>
      <trkpt lat="43.251800" lon="-4.852250">
        <ele>471.668</ele>
        <time>2020-05-20T12:01:40Z</time>
      </trkpt>
      <trkpt lat="43.251840" lon="-4.852220">
        <ele>471.494</ele>
        <time>2020-05-20T12:02:00Z</time>
      </trkpt>
      <trkpt lat="43.251890" lon="-4.852190">
        <ele>470.957</ele>
        <time>2020-05-20T12:02:20Z</time>
      </trkpt>
      <trkpt lat="43.251920" lon="-4.852170">
        <ele>470.522</ele>
        <time>2020-05-20T12:02:40Z</time>
      </trkpt>
      <trkpt lat="43.251950" lon="-4.852160">
        <ele>470.608</ele>
        <time>2020-05-20T12:03:00Z</time>
      </trkpt>
      <trkpt lat="43.251990" lon="-4.852130">
        <ele>469.723</ele>
        <time>2020-05-20T12:03:20Z</time>
      </trkpt>
      <trkpt lat="43.252020" lon="-4.852120">
        <ele>469.658</ele>
        <time>2020-05-20T12:03:40Z</time>
      </trkpt>
      <trkpt lat="43.252040" lon="-4.852110">
        <ele>469.374</ele>
        <time>2020-05-20T12:04:00Z</time>
      </trkpt>
      <trkpt lat="43.252050" lon="-4.852110">
        <ele>469.427</ele>
        <time>2020-05-20T12:04:20Z</time>
      </trkpt>
      <trkpt lat="43.252070" lon="-4.852110">
        <ele>469.557</ele>
        <time>2020-05-20T12:04:40Z</time>
      </trkpt>
      <trkpt lat="43.252090" lon="-4.852110">
        <ele>469.797</ele>
        <time>2020-05-20T12:05:00Z</time>
      </trkpt>
      <trkpt lat="43.252100" lon="-4.852110">
        <ele>469.837</ele>
        <time>2020-05-20T12:05:20Z</time>
      </trkpt>
      <trkpt lat="43.252110" lon="-4.852110">
        <ele>469.956</ele>
        <time>2020-05-20T12:05:40Z</time>
      </trkpt>
      <trkpt lat="43.252120" lon="-4.852110">
        <ele>469.933</ele>
        <time>2020-05-20T12:06:00Z</time>
      </trkpt>
      <trkpt lat="43.252140" lon="-4.852120">
        <ele>470.523</ele>
        <time>2020-05-20T12:06:20Z</time>
      </trkpt>
      <trkpt lat="43.252150" lon="-4.852120">
        <ele>470.615</ele>
        <time>2020-05-20T12:06:40Z</time>
      </trkpt>
      <trkpt lat="43.252170" lon="-4.852120">
        <ele>470.808</ele>
        <time>2020-05-20T12:07:00Z</time>
      </trkpt>
      <trkpt lat="43.252190" lon="-4.852130">
        <ele>471.417</ele>
        <time>2020-05-20T12:07:20Z</time>
      </trkpt>
      <trkpt lat="43.252200" lon="-4.852130">
        <ele>471.512</ele>
        <time>2020-05-20T12:07:40Z</time>
      </trkpt>
      <trkpt lat="43.252220" lon="-4.852140">
        <ele>472.178</ele>
        <time>2020-05-20T12:08:00Z</time>
      </trkpt>
      <trkpt lat="43.252240" lon="-4.852140">
        <ele>472.791</ele>
        <time>2020-05-20T12:08:20Z</time>
      </trkpt>
      <trkpt lat="43.252260" lon="-4.852140">
        <ele>473.381</ele>
        <time>2020-05-20T12:08:40Z</time>
      </trkpt>
      <trkpt lat="43.252270" lon="-4.852140">
        <ele>473.651</ele>
        <time>2020-05-20T12:09:00Z</time>
      </trkpt>
      <trkpt lat="43.252280" lon="-4.852140">
        <ele>473.911</ele>
        <time>2020-05-20T12:09:20Z</time>
      </trkpt>
      <trkpt lat="43.252300" lon="-4.852140">
        <ele>474.560</ele>
        <time>2020-05-20T12:09:40Z</time>
      </trkpt>
      <trkpt lat="43.252320" lon="-4.852140">
        <ele>475.199</ele>
        <time>2020-05-20T12:10:00Z</time>
      </trkpt>
      <trkpt lat="43.252330" lon="-4.852130">
        <ele>474.907</ele>
        <time>2020-05-20T12:10:20Z</time>
      </trkpt>
      <trkpt lat="43.252350" lon="-4.852130">
        <ele>475.527</ele>
        <time>2020-05-20T12:10:40Z</time>
      </trkpt>
      <trkpt lat="43.252360" lon="-4.852120">
        <ele>475.408</ele>
        <time>2020-05-20T12:11:00Z</time>
      </trkpt>
      <trkpt lat="43.252380" lon="-4.852120">
        <ele>476.083</ele>
        <time>2020-05-20T12:11:20Z</time>
      </trkpt>
      <trkpt lat="43.252400" lon="-4.852110">
        <ele>476.158</ele>
        <time>2020-05-20T12:11:40Z</time>
      </trkpt>
      <trkpt lat="43.252420" lon="-4.852090">
        <ele>475.834</ele>
        <time>2020-05-20T12:12:00Z</time>
      </trkpt>
      <trkpt lat="43.252440" lon="-4.852080">
        <ele>476.067</ele>
        <time>2020-05-20T12:12:20Z</time>
      </trkpt>
      <trkpt lat="43.252440" lon="-4.852070">
        <ele>475.657</ele>
        <time>2020-05-20T12:12:40Z</time>
      </trkpt>
      <trkpt lat="43.252470" lon="-4.852040">
        <ele>475.267</ele>
        <time>2020-05-20T12:13:00Z</time>
      </trkpt>
      <trkpt lat="43.252490" lon="-4.852010">
        <ele>474.587</ele>
        <time>2020-05-20T12:13:20Z</time>
      </trkpt>
      <trkpt lat="43.252520" lon="-4.851970">
        <ele>474.066</ele>
        <time>2020-05-20T12:13:40Z</time>
      </trkpt>
      <trkpt lat="43.252550" lon="-4.851940">
        <ele>474.276</ele>
        <time>2020-05-20T12:14:00Z</time>
      </trkpt>
      <trkpt lat="43.252580" lon="-4.851900">
        <ele>474.090</ele>
        <time>2020-05-20T12:14:20Z</time>
      </trkpt>
      <trkpt lat="43.252600" lon="-4.851860">
        <ele>473.319</ele>
        <time>2020-05-20T12:14:40Z</time>
      </trkpt>
      <trkpt lat="43.252650" lon="-4.851790">
        <ele>472.908</ele>
        <time>2020-05-20T12:15:00Z</time>
      </trkpt>
      <trkpt lat="43.252680" lon="-4.851730">
        <ele>471.981</ele>
        <time>2020-05-20T12:15:20Z</time>
      </trkpt>
      <trkpt lat="43.252690" lon="-4.851710">
        <ele>471.666</ele>
        <time>2020-05-20T12:15:40Z</time>
      </trkpt>
      <trkpt lat="43.252720" lon="-4.851660">
        <ele>471.182</ele>
        <time>2020-05-20T12:16:00Z</time>
      </trkpt>
      <trkpt lat="43.252760" lon="-4.851560">
        <ele>469.375</ele>
        <time>2020-05-20T12:16:20Z</time>
      </trkpt>
      <trkpt lat="43.252790" lon="-4.851510">
        <ele>469.075</ele>
        <time>2020-05-20T12:16:40Z</time>
      </trkpt>
      <trkpt lat="43.252810" lon="-4.851460">
        <ele>468.355</ele>
        <time>2020-05-20T12:17:00Z</time>
      </trkpt>
      <trkpt lat="43.252850" lon="-4.851400">
        <ele>468.375</ele>
        <time>2020-05-20T12:17:20Z</time>
      </trkpt>
      <trkpt lat="43.252880" lon="-4.851330">
        <ele>467.394</ele>
        <time>2020-05-20T12:17:40Z</time>
      </trkpt>
      <trkpt lat="43.252890" lon="-4.851310">
        <ele>467.126</ele>
        <time>2020-05-20T12:18:00Z</time>
      </trkpt>
      <trkpt lat="43.252910" lon="-4.851270">
        <ele>466.647</ele>
        <time>2020-05-20T12:18:20Z</time>
      </trkpt>
      <trkpt lat="43.252950" lon="-4.851210">
        <ele>466.611</ele>
        <time>2020-05-20T12:18:40Z</time>
      </trkpt>
      <trkpt lat="43.252970" lon="-4.851150">
        <ele>465.508</ele>
        <time>2020-05-20T12:19:00Z</time>
      </trkpt>
      <trkpt lat="43.252980" lon="-4.851120">
        <ele>465.016</ele>
        <time>2020-05-20T12:19:20Z</time>
      </trkpt>
      <trkpt lat="43.252990" lon="-4.851100">
        <ele>464.911</ele>
        <time>2020-05-20T12:19:40Z</time>
      </trkpt>
      <trkpt lat="43.252990" lon="-4.851080">
        <ele>464.447</ele>
        <time>2020-05-20T12:20:00Z</time>
      </trkpt>
      <trkpt lat="43.253000" lon="-4.851060">
        <ele>464.450</ele>
        <time>2020-05-20T12:20:20Z</time>
      </trkpt>
      <trkpt lat="43.253010" lon="-4.851040">
        <ele>464.560</ele>
        <time>2020-05-20T12:20:40Z</time>
      </trkpt>
      <trkpt lat="43.253010" lon="-4.851020">
        <ele>463.970</ele>
        <time>2020-05-20T12:21:00Z</time>
      </trkpt>
      <trkpt lat="43.253020" lon="-4.851000">
        <ele>464.050</ele>
        <time>2020-05-20T12:21:20Z</time>
      </trkpt>
      <trkpt lat="43.253020" lon="-4.850980">
        <ele>463.589</ele>
        <time>2020-05-20T12:21:40Z</time>
      </trkpt>
      <trkpt lat="43.253020" lon="-4.850960">
        <ele>462.946</ele>
        <time>2020-05-20T12:22:00Z</time>
      </trkpt>
      <trkpt lat="43.253020" lon="-4.850940">
        <ele>462.488</ele>
        <time>2020-05-20T12:22:20Z</time>
      </trkpt>
      <trkpt lat="43.253020" lon="-4.850910">
        <ele>461.616</ele>
        <time>2020-05-20T12:22:40Z</time>
      </trkpt>
      <trkpt lat="43.253020" lon="-4.850870">
        <ele>460.508</ele>
        <time>2020-05-20T12:23:00Z</time>
      </trkpt>
      <trkpt lat="43.253020" lon="-4.850860">
        <ele>460.368</ele>
        <time>2020-05-20T12:23:20Z</time>
      </trkpt>
      <trkpt lat="43.253020" lon="-4.850830">
        <ele>459.563</ele>
        <time>2020-05-20T12:23:40Z</time>
      </trkpt>
      <trkpt lat="43.253020" lon="-4.850800">
        <ele>458.739</ele>
        <time>2020-05-20T12:24:00Z</time>
      </trkpt>
      <trkpt lat="43.253020" lon="-4.850730">
        <ele>456.882</ele>
        <time>2020-05-20T12:24:20Z</time>
      </trkpt>
      <trkpt lat="43.253020" lon="-4.850660">
        <ele>455.082</ele>
        <time>2020-05-20T12:24:40Z</time>
      </trkpt>
      <trkpt lat="43.253020" lon="-4.850630">
        <ele>454.292</ele>
        <time>2020-05-20T12:25:00Z</time>
      </trkpt>
      <trkpt lat="43.253020" lon="-4.850600">
        <ele>453.462</ele>
        <time>2020-05-20T12:25:20Z</time>
      </trkpt>
      <trkpt lat="43.253020" lon="-4.850560">
        <ele>452.361</ele>
        <time>2020-05-20T12:25:40Z</time>
      </trkpt>
      <trkpt lat="43.253010" lon="-4.850530">
        <ele>450.729</ele>
        <time>2020-05-20T12:26:00Z</time>
      </trkpt>
      <trkpt lat="43.253010" lon="-4.850520">
        <ele>450.300</ele>
        <time>2020-05-20T12:26:20Z</time>
      </trkpt>
      <trkpt lat="43.253010" lon="-4.850500">
        <ele>449.520</ele>
        <time>2020-05-20T12:26:40Z</time>
      </trkpt>
      <trkpt lat="43.253010" lon="-4.850480">
        <ele>448.708</ele>
        <time>2020-05-20T12:27:00Z</time>
      </trkpt>
      <trkpt lat="43.253010" lon="-4.850470">
        <ele>448.326</ele>
        <time>2020-05-20T12:27:20Z</time>
      </trkpt>
      <trkpt lat="43.253010" lon="-4.850460">
        <ele>447.981</ele>
        <time>2020-05-20T12:27:40Z</time>
      </trkpt>
      <trkpt lat="43.253020" lon="-4.850450">
        <ele>447.927</ele>
        <time>2020-05-20T12:28:00Z</time>
      </trkpt>
      <trkpt lat="43.253030" lon="-4.850440">
        <ele>447.810</ele>
        <time>2020-05-20T12:28:20Z</time>
      </trkpt>
      <trkpt lat="43.253040" lon="-4.850440">
        <ele>448.180</ele>
        <time>2020-05-20T12:28:40Z</time>
      </trkpt>
      <trkpt lat="43.253050" lon="-4.850430">
        <ele>448.040</ele>
        <time>2020-05-20T12:29:00Z</time>
      </trkpt>
      <trkpt lat="43.253060" lon="-4.850430">
        <ele>448.360</ele>
        <time>2020-05-20T12:29:20Z</time>
      </trkpt>
      <trkpt lat="43.253070" lon="-4.850430">
        <ele>448.619</ele>
        <time>2020-05-20T12:29:40Z</time>
      </trkpt>
      <trkpt lat="43.253070" lon="-4.850420">
        <ele>448.131</ele>
        <time>2020-05-20T12:30:00Z</time>
      </trkpt>
      <trkpt lat="43.253060" lon="-4.850420">
        <ele>447.861</ele>
        <time>2020-05-20T12:30:20Z</time>
      </trkpt>
      <trkpt lat="43.253060" lon="-4.850410">
        <ele>447.307</ele>
        <time>2020-05-20T12:30:40Z</time>
      </trkpt>
      <trkpt lat="43.253050" lon="-4.850410">
        <ele>447.008</ele>
        <time>2020-05-20T12:31:00Z</time>
      </trkpt>
      <trkpt lat="43.253040" lon="-4.850400">
        <ele>446.387</ele>
        <time>2020-05-20T12:31:20Z</time>
      </trkpt>
      <trkpt lat="43.253030" lon="-4.850400">
        <ele>446.192</ele>
        <time>2020-05-20T12:31:40Z</time>
      </trkpt>
      <trkpt lat="43.253010" lon="-4.850390">
        <ele>445.138</ele>
        <time>2020-05-20T12:32:00Z</time>
      </trkpt>
      <trkpt lat="43.253000" lon="-4.850380">
        <ele>444.551</ele>
        <time>2020-05-20T12:32:20Z</time>
      </trkpt>
      <trkpt lat="43.253000" lon="-4.850370">
        <ele>444.111</ele>
        <time>2020-05-20T12:32:40Z</time>
      </trkpt>
      <trkpt lat="43.253010" lon="-4.850360">
        <ele>443.971</ele>
        <time>2020-05-20T12:33:00Z</time>
      </trkpt>
      <trkpt lat="43.253020" lon="-4.850360">
        <ele>444.161</ele>
        <time>2020-05-20T12:33:20Z</time>
      </trkpt>
      <trkpt lat="43.253050" lon="-4.850360">
        <ele>444.780</ele>
        <time>2020-05-20T12:33:40Z</time>
      </trkpt>
      <trkpt lat="43.253080" lon="-4.850350">
        <ele>445.168</ele>
        <time>2020-05-20T12:34:00Z</time>
      </trkpt>
      <trkpt lat="43.253090" lon="-4.850350">
        <ele>445.442</ele>
        <time>2020-05-20T12:34:20Z</time>
      </trkpt>
      <trkpt lat="43.253100" lon="-4.850350">
        <ele>445.726</ele>
        <time>2020-05-20T12:34:40Z</time>
      </trkpt>
      <trkpt lat="43.253110" lon="-4.850340">
        <ele>445.508</ele>
        <time>2020-05-20T12:35:00Z</time>
      </trkpt>
      <trkpt lat="43.253100" lon="-4.850340">
        <ele>445.280</ele>
        <time>2020-05-20T12:35:20Z</time>
      </trkpt>
      <trkpt lat="43.253100" lon="-4.850330">
        <ele>444.855</ele>
        <time>2020-05-20T12:35:40Z</time>
      </trkpt>
      <trkpt lat="43.253090" lon="-4.850330">
        <ele>444.511</ele>
        <time>2020-05-20T12:36:00Z</time>
      </trkpt>
      <trkpt lat="43.253080" lon="-4.850320">
        <ele>443.734</ele>
        <time>2020-05-20T12:36:20Z</time>
      </trkpt>
      <trkpt lat="43.253070" lon="-4.850310">
        <ele>442.944</ele>
        <time>2020-05-20T12:36:40Z</time>
      </trkpt>
      <trkpt lat="43.253070" lon="-4.850300">
        <ele>442.534</ele>
        <time>2020-05-20T12:37:00Z</time>
      </trkpt>
      <trkpt lat="43.253060" lon="-4.850290">
        <ele>441.774</ele>
        <time>2020-05-20T12:37:20Z</time>
      </trkpt>
      <trkpt lat="43.253060" lon="-4.850280">
        <ele>441.293</ele>
        <time>2020-05-20T12:37:40Z</time>
      </trkpt>
      <trkpt lat="43.253050" lon="-4.850270">
        <ele>440.635</ele>
        <time>2020-05-20T12:38:00Z</time>
      </trkpt>
      <trkpt lat="43.253050" lon="-4.850260">
        <ele>440.186</ele>
        <time>2020-05-20T12:38:20Z</time>
      </trkpt>
      <trkpt lat="43.253050" lon="-4.850250">
        <ele>439.714</ele>
        <time>2020-05-20T12:38:40Z</time>
      </trkpt>
      <trkpt lat="43.253050" lon="-4.850240">
        <ele>439.208</ele>
        <time>2020-05-20T12:39:00Z</time>
      </trkpt>
      <trkpt lat="43.253050" lon="-4.850230">
        <ele>438.727</ele>
        <time>2020-05-20T12:39:20Z</time>
      </trkpt>
      <trkpt lat="43.253050" lon="-4.850220">
        <ele>438.382</ele>
        <time>2020-05-20T12:39:40Z</time>
      </trkpt>
      <trkpt lat="43.253050" lon="-4.850210">
        <ele>437.828</ele>
        <time>2020-05-20T12:40:00Z</time>
      </trkpt>
      <trkpt lat="43.253050" lon="-4.850200">
        <ele>437.331</ele>
        <time>2020-05-20T12:40:20Z</time>
      </trkpt>
      <trkpt lat="43.253060" lon="-4.850200">
        <ele>437.531</ele>
        <time>2020-05-20T12:40:40Z</time>
      </trkpt>
      <trkpt lat="43.253060" lon="-4.850190">
        <ele>437.021</ele>
        <time>2020-05-20T12:41:00Z</time>
      </trkpt>
      <trkpt lat="43.253070" lon="-4.850190">
        <ele>437.321</ele>
        <time>2020-05-20T12:41:20Z</time>
      </trkpt>
      <trkpt lat="43.253080" lon="-4.850190">
        <ele>437.690</ele>
        <time>2020-05-20T12:41:40Z</time>
      </trkpt>
      <trkpt lat="43.253090" lon="-4.850190">
        <ele>437.957</ele>
        <time>2020-05-20T12:42:00Z</time>
      </trkpt>
      <trkpt lat="43.253100" lon="-4.850190">
        <ele>438.200</ele>
        <time>2020-05-20T12:42:20Z</time>
      </trkpt>
      <trkpt lat="43.253120" lon="-4.850200">
        <ele>439.220</ele>
        <time>2020-05-20T12:42:40Z</time>
      </trkpt>
      <trkpt lat="43.253140" lon="-4.850200">
        <ele>439.808</ele>
        <time>2020-05-20T12:43:00Z</time>
      </trkpt>
      <trkpt lat="43.253160" lon="-4.850210">
        <ele>440.879</ele>
        <time>2020-05-20T12:43:20Z</time>
      </trkpt>
      <trkpt lat="43.253170" lon="-4.850210">
        <ele>441.134</ele>
        <time>2020-05-20T12:43:40Z</time>
      </trkpt>
      <trkpt lat="43.253180" lon="-4.850200">
        <ele>440.920</ele>
        <time>2020-05-20T12:44:00Z</time>
      </trkpt>
      <trkpt lat="43.253190" lon="-4.850190">
        <ele>440.873</ele>
        <time>2020-05-20T12:44:20Z</time>
      </trkpt>
      <trkpt lat="43.253210" lon="-4.850180">
        <ele>440.963</ele>
        <time>2020-05-20T12:44:40Z</time>
      </trkpt>
      <trkpt lat="43.253240" lon="-4.850160">
        <ele>440.873</ele>
        <time>2020-05-20T12:45:00Z</time>
      </trkpt>
      <trkpt lat="43.253260" lon="-4.850140">
        <ele>440.423</ele>
        <time>2020-05-20T12:45:20Z</time>
      </trkpt>
      <trkpt lat="43.253270" lon="-4.850130">
        <ele>440.322</ele>
        <time>2020-05-20T12:45:40Z</time>
      </trkpt>
      <trkpt lat="43.253310" lon="-4.850110">
        <ele>440.596</ele>
        <time>2020-05-20T12:46:00Z</time>
      </trkpt>
      <trkpt lat="43.253330" lon="-4.850100">
        <ele>440.631</ele>
        <time>2020-05-20T12:46:20Z</time>
      </trkpt>
      <trkpt lat="43.253350" lon="-4.850080">
        <ele>440.524</ele>
        <time>2020-05-20T12:46:40Z</time>
      </trkpt>
      <trkpt lat="43.253370" lon="-4.850060">
        <ele>440.408</ele>
        <time>2020-05-20T12:47:00Z</time>
      </trkpt>
      <trkpt lat="43.253400" lon="-4.850040">
        <ele>440.893</ele>
        <time>2020-05-20T12:47:20Z</time>
      </trkpt>
      <trkpt lat="43.253410" lon="-4.850020">
        <ele>440.298</ele>
        <time>2020-05-20T12:47:40Z</time>
      </trkpt>
      <trkpt lat="43.253430" lon="-4.850000">
        <ele>440.254</ele>
        <time>2020-05-20T12:48:00Z</time>
      </trkpt>
      <trkpt lat="43.253450" lon="-4.849980">
        <ele>440.427</ele>
        <time>2020-05-20T12:48:20Z</time>
      </trkpt>
      <trkpt lat="43.253460" lon="-4.849960">
        <ele>440.237</ele>
        <time>2020-05-20T12:48:40Z</time>
      </trkpt>
      <trkpt lat="43.253470" lon="-4.849940">
        <ele>440.167</ele>
        <time>2020-05-20T12:49:00Z</time>
      </trkpt>
      <trkpt lat="43.253490" lon="-4.849920">
        <ele>440.317</ele>
        <time>2020-05-20T12:49:20Z</time>
      </trkpt>
      <trkpt lat="43.253500" lon="-4.849890">
        <ele>439.936</ele>
        <time>2020-05-20T12:49:40Z</time>
      </trkpt>
      <trkpt lat="43.253520" lon="-4.849870">
        <ele>440.276</ele>
        <time>2020-05-20T12:50:00Z</time>
      </trkpt>
      <trkpt lat="43.253530" lon="-4.849840">
        <ele>439.790</ele>
        <time>2020-05-20T12:50:20Z</time>
      </trkpt>
      <trkpt lat="43.253530" lon="-4.849830">
        <ele>439.419</ele>
        <time>2020-05-20T12:50:40Z</time>
      </trkpt>
      <trkpt lat="43.253550" lon="-4.849800">
        <ele>439.408</ele>
        <time>2020-05-20T12:51:00Z</time>
      </trkpt>
      <trkpt lat="43.253560" lon="-4.849780">
        <ele>439.331</ele>
        <time>2020-05-20T12:51:20Z</time>
      </trkpt>
      <trkpt lat="43.253570" lon="-4.849740">
        <ele>438.696</ele>
        <time>2020-05-20T12:51:40Z</time>
      </trkpt>
      <trkpt lat="43.253580" lon="-4.849720">
        <ele>438.682</ele>
        <time>2020-05-20T12:52:00Z</time>
      </trkpt>
      <trkpt lat="43.253580" lon="-4.849690">
        <ele>438.635</ele>
        <time>2020-05-20T12:52:20Z</time>
      </trkpt>
      <trkpt lat="43.253590" lon="-4.849660">
        <ele>439.355</ele>
        <time>2020-05-20T12:52:40Z</time>
      </trkpt>
      <trkpt lat="43.253600" lon="-4.849630">
        <ele>440.095</ele>
        <time>2020-05-20T12:53:00Z</time>
      </trkpt>
      <trkpt lat="43.253610" lon="-4.849610">
        <ele>440.765</ele>
        <time>2020-05-20T12:53:20Z</time>
      </trkpt>
      <trkpt lat="43.253610" lon="-4.849590">
        <ele>440.924</ele>
        <time>2020-05-20T12:53:40Z</time>
      </trkpt>
      <trkpt lat="43.253620" lon="-4.849570">
        <ele>442.148</ele>
        <time>2020-05-20T12:54:00Z</time>
      </trkpt>
      <trkpt lat="43.253620" lon="-4.849550">
        <ele>442.261</ele>
        <time>2020-05-20T12:54:20Z</time>
      </trkpt>
      <trkpt lat="43.253610" lon="-4.849540">
        <ele>441.217</ele>
        <time>2020-05-20T12:54:40Z</time>
      </trkpt>
      <trkpt lat="43.253610" lon="-4.849510">
        <ele>441.408</ele>
        <time>2020-05-20T12:55:00Z</time>
      </trkpt>
      <trkpt lat="43.253600" lon="-4.849480">
        <ele>440.938</ele>
        <time>2020-05-20T12:55:20Z</time>
      </trkpt>
      <trkpt lat="43.253600" lon="-4.849460">
        <ele>441.043</ele>
        <time>2020-05-20T12:55:40Z</time>
      </trkpt>
      <trkpt lat="43.253590" lon="-4.849430">
        <ele>440.079</ele>
        <time>2020-05-20T12:56:00Z</time>
      </trkpt>
      <trkpt lat="43.253590" lon="-4.849410">
        <ele>439.882</ele>
        <time>2020-05-20T12:56:20Z</time>
      </trkpt>
      <trkpt lat="43.253580" lon="-4.849370">
        <ele>438.442</ele>
        <time>2020-05-20T12:56:40Z</time>
      </trkpt>
      <trkpt lat="43.253580" lon="-4.849360">
        <ele>438.282</ele>
        <time>2020-05-20T12:57:00Z</time>
      </trkpt>
      <trkpt lat="43.253580" lon="-4.849340">
        <ele>437.982</ele>
        <time>2020-05-20T12:57:20Z</time>
      </trkpt>
      <trkpt lat="43.253590" lon="-4.849320">
        <ele>438.551</ele>
        <time>2020-05-20T12:57:40Z</time>
      </trkpt>
      <trkpt lat="43.253590" lon="-4.849300">
        <ele>438.289</ele>
        <time>2020-05-20T12:58:00Z</time>
      </trkpt>
      <trkpt lat="43.253610" lon="-4.849260">
        <ele>439.306</ele>
        <time>2020-05-20T12:58:20Z</time>
      </trkpt>
      <trkpt lat="43.253630" lon="-4.849210">
        <ele>440.426</ele>
        <time>2020-05-20T12:58:40Z</time>
      </trkpt>
      <trkpt lat="43.253650" lon="-4.849180">
        <ele>441.708</ele>
        <time>2020-05-20T12:59:00Z</time>
      </trkpt>
      <trkpt lat="43.253660" lon="-4.849160">
        <ele>442.212</ele>
        <time>2020-05-20T12:59:20Z</time>
      </trkpt>
      <trkpt lat="43.253670" lon="-4.849150">
        <ele>442.917</ele>
        <time>2020-05-20T12:59:40Z</time>
      </trkpt>
      <trkpt lat="43.253690" lon="-4.849120">
        <ele>443.973</ele>
        <time>2020-05-20T13:00:00Z</time>
      </trkpt>
      <trkpt lat="43.253700" lon="-4.849090">
        <ele>444.056</ele>
        <time>2020-05-20T13:00:20Z</time>
      </trkpt>
      <trkpt lat="43.253710" lon="-4.849070">
        <ele>444.386</ele>
        <time>2020-05-20T13:00:40Z</time>
      </trkpt>
      <trkpt lat="43.253710" lon="-4.849060">
        <ele>444.066</ele>
        <time>2020-05-20T13:01:00Z</time>
      </trkpt>
      <trkpt lat="43.253710" lon="-4.849050">
        <ele>443.846</ele>
        <time>2020-05-20T13:01:20Z</time>
      </trkpt>
      <trkpt lat="43.253700" lon="-4.849020">
        <ele>442.215</ele>
        <time>2020-05-20T13:01:40Z</time>
      </trkpt>
      <trkpt lat="43.253700" lon="-4.848990">
        <ele>441.412</ele>
        <time>2020-05-20T13:02:00Z</time>
      </trkpt>
      <trkpt lat="43.253680" lon="-4.848950">
        <ele>438.732</ele>
        <time>2020-05-20T13:02:20Z</time>
      </trkpt>
      <trkpt lat="43.253650" lon="-4.848890">
        <ele>435.005</ele>
        <time>2020-05-20T13:02:40Z</time>
      </trkpt>
      <trkpt lat="43.253640" lon="-4.848850">
        <ele>434.908</ele>
        <time>2020-05-20T13:03:00Z</time>
      </trkpt>
      <trkpt lat="43.253630" lon="-4.848830">
        <ele>434.525</ele>
        <time>2020-05-20T13:03:20Z</time>
      </trkpt>
      <trkpt lat="43.253610" lon="-4.848790">
        <ele>433.740</ele>
        <time>2020-05-20T13:03:40Z</time>
      </trkpt>
      <trkpt lat="43.253600" lon="-4.848750">
        <ele>433.636</ele>
        <time>2020-05-20T13:04:00Z</time>
      </trkpt>
      <trkpt lat="43.253600" lon="-4.848740">
        <ele>433.749</ele>
        <time>2020-05-20T13:04:20Z</time>
      </trkpt>
      <trkpt lat="43.253600" lon="-4.848730">
        <ele>433.939</ele>
        <time>2020-05-20T13:04:40Z</time>
      </trkpt>
      <trkpt lat="43.253600" lon="-4.848720">
        <ele>434.179</ele>
        <time>2020-05-20T13:05:00Z</time>
      </trkpt>
      <trkpt lat="43.253600" lon="-4.848710">
        <ele>434.389</ele>
        <time>2020-05-20T13:05:20Z</time>
      </trkpt>
      <trkpt lat="43.253600" lon="-4.848700">
        <ele>434.538</ele>
        <time>2020-05-20T13:05:40Z</time>
      </trkpt>
      <trkpt lat="43.253610" lon="-4.848690">
        <ele>435.594</ele>
        <time>2020-05-20T13:06:00Z</time>
      </trkpt>
      <trkpt lat="43.253620" lon="-4.848670">
        <ele>436.757</ele>
        <time>2020-05-20T13:06:20Z</time>
      </trkpt>
      <trkpt lat="43.253630" lon="-4.848650">
        <ele>437.922</ele>
        <time>2020-05-20T13:06:40Z</time>
      </trkpt>
      <trkpt lat="43.253630" lon="-4.848620">
        <ele>438.508</ele>
        <time>2020-05-20T13:07:00Z</time>
      </trkpt>
      <trkpt lat="43.253640" lon="-4.848580">
        <ele>439.653</ele>
        <time>2020-05-20T13:07:20Z</time>
      </trkpt>
      <trkpt lat="43.253630" lon="-4.848560">
        <ele>438.768</ele>
        <time>2020-05-20T13:07:40Z</time>
      </trkpt>
      <trkpt lat="43.253630" lon="-4.848530">
        <ele>438.794</ele>
        <time>2020-05-20T13:08:00Z</time>
      </trkpt>
      <trkpt lat="43.253630" lon="-4.848490">
        <ele>438.767</ele>
        <time>2020-05-20T13:08:20Z</time>
      </trkpt>
      <trkpt lat="43.253630" lon="-4.848460">
        <ele>438.897</ele>
        <time>2020-05-20T13:08:40Z</time>
      </trkpt>
      <trkpt lat="43.253620" lon="-4.848420">
        <ele>437.547</ele>
        <time>2020-05-20T13:09:00Z</time>
      </trkpt>
      <trkpt lat="43.253620" lon="-4.848400">
        <ele>437.417</ele>
        <time>2020-05-20T13:09:20Z</time>
      </trkpt>
      <trkpt lat="43.253630" lon="-4.848380">
        <ele>438.866</ele>
        <time>2020-05-20T13:09:40Z</time>
      </trkpt>
      <trkpt lat="43.253640" lon="-4.848370">
        <ele>440.382</ele>
        <time>2020-05-20T13:10:00Z</time>
      </trkpt>
      <trkpt lat="43.253650" lon="-4.848350">
        <ele>441.843</ele>
        <time>2020-05-20T13:10:20Z</time>
      </trkpt>
      <trkpt lat="43.253670" lon="-4.848330">
        <ele>444.817</ele>
        <time>2020-05-20T13:10:40Z</time>
      </trkpt>
      <trkpt lat="43.253680" lon="-4.848310">
        <ele>446.008</ele>
        <time>2020-05-20T13:11:00Z</time>
      </trkpt>
      <trkpt lat="43.253680" lon="-4.848290">
        <ele>445.612</ele>
        <time>2020-05-20T13:11:20Z</time>
      </trkpt>
      <trkpt lat="43.253690" lon="-4.848280">
        <ele>447.017</ele>
        <time>2020-05-20T13:11:40Z</time>
      </trkpt>
      <trkpt lat="43.253690" lon="-4.848260">
        <ele>446.643</ele>
        <time>2020-05-20T13:12:00Z</time>
      </trkpt>
      <trkpt lat="43.253690" lon="-4.848230">
        <ele>446.176</ele>
        <time>2020-05-20T13:12:20Z</time>
      </trkpt>
      <trkpt lat="43.253690" lon="-4.848200">
        <ele>445.646</ele>
        <time>2020-05-20T13:12:40Z</time>
      </trkpt>
      <trkpt lat="43.253680" lon="-4.848160">
        <ele>443.196</ele>
        <time>2020-05-20T13:13:00Z</time>
      </trkpt>
      <trkpt lat="43.253670" lon="-4.848140">
        <ele>441.036</ele>
        <time>2020-05-20T13:13:20Z</time>
      </trkpt>
      <trkpt lat="43.253660" lon="-4.848110">
        <ele>438.545</ele>
        <time>2020-05-20T13:13:40Z</time>
      </trkpt>
      <trkpt lat="43.253650" lon="-4.848080">
        <ele>436.011</ele>
        <time>2020-05-20T13:14:00Z</time>
      </trkpt>
      <trkpt lat="43.253640" lon="-4.848050">
        <ele>433.421</ele>
        <time>2020-05-20T13:14:20Z</time>
      </trkpt>
      <trkpt lat="43.253630" lon="-4.848010">
        <ele>430.803</ele>
        <time>2020-05-20T13:14:40Z</time>
      </trkpt>
      <trkpt lat="43.253630" lon="-4.847970">
        <ele>430.108</ele>
        <time>2020-05-20T13:15:00Z</time>
      </trkpt>
      <trkpt lat="43.253620" lon="-4.847940">
        <ele>427.695</ele>
        <time>2020-05-20T13:15:20Z</time>
      </trkpt>
      <trkpt lat="43.253620" lon="-4.847910">
        <ele>427.160</ele>
        <time>2020-05-20T13:15:40Z</time>
      </trkpt>
      <trkpt lat="43.253620" lon="-4.847880">
        <ele>426.696</ele>
        <time>2020-05-20T13:16:00Z</time>
      </trkpt>
      <trkpt lat="43.253620" lon="-4.847860">
        <ele>426.289</ele>
        <time>2020-05-20T13:16:20Z</time>
      </trkpt>
      <trkpt lat="43.253620" lon="-4.847840">
        <ele>425.829</ele>
        <time>2020-05-20T13:16:40Z</time>
      </trkpt>
      <trkpt lat="43.253620" lon="-4.847830">
        <ele>425.729</ele>
        <time>2020-05-20T13:17:00Z</time>
      </trkpt>
      <trkpt lat="43.253620" lon="-4.847820">
        <ele>425.529</ele>
        <time>2020-05-20T13:17:20Z</time>
      </trkpt>
      <trkpt lat="43.253640" lon="-4.847810">
        <ele>429.228</ele>
        <time>2020-05-20T13:17:40Z</time>
      </trkpt>
      <trkpt lat="43.253650" lon="-4.847800">
        <ele>430.969</ele>
        <time>2020-05-20T13:18:00Z</time>
      </trkpt>
      <trkpt lat="43.253660" lon="-4.847790">
        <ele>432.704</ele>
        <time>2020-05-20T13:18:20Z</time>
      </trkpt>
      <trkpt lat="43.253670" lon="-4.847780">
        <ele>434.524</ele>
        <time>2020-05-20T13:18:40Z</time>
      </trkpt>
      <trkpt lat="43.253680" lon="-4.847770">
        <ele>436.208</ele>
        <time>2020-05-20T13:19:00Z</time>
      </trkpt>
      <trkpt lat="43.253690" lon="-4.847760">
        <ele>437.990</ele>
        <time>2020-05-20T13:19:20Z</time>
      </trkpt>
      <trkpt lat="43.253710" lon="-4.847740">
        <ele>441.545</ele>
        <time>2020-05-20T13:19:40Z</time>
      </trkpt>
      <trkpt lat="43.253710" lon="-4.847730">
        <ele>441.351</ele>
        <time>2020-05-20T13:20:00Z</time>
      </trkpt>
      <trkpt lat="43.253720" lon="-4.847720">
        <ele>443.194</ele>
        <time>2020-05-20T13:20:20Z</time>
      </trkpt>
      <trkpt lat="43.253730" lon="-4.847710">
        <ele>445.094</ele>
        <time>2020-05-20T13:20:40Z</time>
      </trkpt>
      <trkpt lat="43.253730" lon="-4.847690">
        <ele>444.764</ele>
        <time>2020-05-20T13:21:00Z</time>
      </trkpt>
      <trkpt lat="43.253740" lon="-4.847680">
        <ele>446.724</ele>
        <time>2020-05-20T13:21:20Z</time>
      </trkpt>
      <trkpt lat="43.253740" lon="-4.847660">
        <ele>446.423</ele>
        <time>2020-05-20T13:21:40Z</time>
      </trkpt>
      <trkpt lat="43.253740" lon="-4.847640">
        <ele>446.187</ele>
        <time>2020-05-20T13:22:00Z</time>
      </trkpt>
      <trkpt lat="43.253740" lon="-4.847630">
        <ele>445.942</ele>
        <time>2020-05-20T13:22:20Z</time>
      </trkpt>
      <trkpt lat="43.253740" lon="-4.847610">
        <ele>445.726</ele>
        <time>2020-05-20T13:22:40Z</time>
      </trkpt>
      <trkpt lat="43.253740" lon="-4.847590">
        <ele>445.408</ele>
        <time>2020-05-20T13:23:00Z</time>
      </trkpt>
      <trkpt lat="43.253740" lon="-4.847560">
        <ele>444.912</ele>
        <time>2020-05-20T13:23:20Z</time>
      </trkpt>
      <trkpt lat="43.253730" lon="-4.847530">
        <ele>442.297</ele>
        <time>2020-05-20T13:23:40Z</time>
      </trkpt>
      <trkpt lat="43.253730" lon="-4.847510">
        <ele>441.863</ele>
        <time>2020-05-20T13:24:00Z</time>
      </trkpt>
      <trkpt lat="43.253720" lon="-4.847480">
        <ele>439.996</ele>
        <time>2020-05-20T13:24:20Z</time>
      </trkpt>
      <trkpt lat="43.253710" lon="-4.847450">
        <ele>438.486</ele>
        <time>2020-05-20T13:24:40Z</time>
      </trkpt>
      <trkpt lat="43.253700" lon="-4.847430">
        <ele>436.556</ele>
        <time>2020-05-20T13:25:00Z</time>
      </trkpt>
      <trkpt lat="43.253700" lon="-4.847410">
        <ele>437.186</ele>
        <time>2020-05-20T13:25:20Z</time>
      </trkpt>
      <trkpt lat="43.253700" lon="-4.847390">
        <ele>437.725</ele>
        <time>2020-05-20T13:25:40Z</time>
      </trkpt>
      <trkpt lat="43.253700" lon="-4.847350">
        <ele>438.975</ele>
        <time>2020-05-20T13:26:00Z</time>
      </trkpt>
      <trkpt lat="43.253700" lon="-4.847340">
        <ele>439.228</ele>
        <time>2020-05-20T13:26:20Z</time>
      </trkpt>
      <trkpt lat="43.253700" lon="-4.847330">
        <ele>439.520</ele>
        <time>2020-05-20T13:26:40Z</time>
      </trkpt>
      <trkpt lat="43.253700" lon="-4.847310">
        <ele>440.108</ele>
        <time>2020-05-20T13:27:00Z</time>
      </trkpt>
      <trkpt lat="43.253690" lon="-4.847270">
        <ele>438.921</ele>
        <time>2020-05-20T13:27:20Z</time>
      </trkpt>
      <trkpt lat="43.253680" lon="-4.847240">
        <ele>437.326</ele>
        <time>2020-05-20T13:27:40Z</time>
      </trkpt>
      <trkpt lat="43.253670" lon="-4.847210">
        <ele>435.722</ele>
        <time>2020-05-20T13:28:00Z</time>
      </trkpt>
      <trkpt lat="43.253650" lon="-4.847170">
        <ele>431.775</ele>
        <time>2020-05-20T13:28:20Z</time>
      </trkpt>
      <trkpt lat="43.253640" lon="-4.847150">
        <ele>429.715</ele>
        <time>2020-05-20T13:28:40Z</time>
      </trkpt>
      <trkpt lat="43.253640" lon="-4.847130">
        <ele>430.225</ele>
        <time>2020-05-20T13:29:00Z</time>
      </trkpt>
      <trkpt lat="43.253630" lon="-4.847100">
        <ele>428.585</ele>
        <time>2020-05-20T13:29:20Z</time>
      </trkpt>
      <trkpt lat="43.253630" lon="-4.847080">
        <ele>429.054</ele>
        <time>2020-05-20T13:29:40Z</time>
      </trkpt>
      <trkpt lat="43.253630" lon="-4.847060">
        <ele>429.436</ele>
        <time>2020-05-20T13:30:00Z</time>
      </trkpt>
      <trkpt lat="43.253630" lon="-4.847040">
        <ele>429.917</ele>
        <time>2020-05-20T13:30:20Z</time>
      </trkpt>
      <trkpt lat="43.253640" lon="-4.847010">
        <ele>432.918</ele>
        <time>2020-05-20T13:30:40Z</time>
      </trkpt>
      <trkpt lat="43.253640" lon="-4.846990">
        <ele>433.308</ele>
        <time>2020-05-20T13:31:00Z</time>
      </trkpt>
      <trkpt lat="43.253650" lon="-4.846970">
        <ele>436.097</ele>
        <time>2020-05-20T13:31:20Z</time>
      </trkpt>
      <trkpt lat="43.253650" lon="-4.846940">
        <ele>436.462</ele>
        <time>2020-05-20T13:31:40Z</time>
      </trkpt>
      <trkpt lat="43.253650" lon="-4.846930">
        <ele>436.268</ele>
        <time>2020-05-20T13:32:00Z</time>
      </trkpt>
      <trkpt lat="43.253660" lon="-4.846910">
        <ele>438.071</ele>
        <time>2020-05-20T13:32:20Z</time>
      </trkpt>
      <trkpt lat="43.253660" lon="-4.846880">
        <ele>437.331</ele>
        <time>2020-05-20T13:32:40Z</time>
      </trkpt>
      <trkpt lat="43.253650" lon="-4.846850">
        <ele>434.651</ele>
        <time>2020-05-20T13:33:00Z</time>
      </trkpt>
      <trkpt lat="43.253650" lon="-4.846820">
        <ele>433.961</ele>
        <time>2020-05-20T13:33:20Z</time>
      </trkpt>
      <trkpt lat="43.253640" lon="-4.846800">
        <ele>431.680</ele>
        <time>2020-05-20T13:33:40Z</time>
      </trkpt>
      <trkpt lat="43.253640" lon="-4.846770">
        <ele>431.023</ele>
        <time>2020-05-20T13:34:00Z</time>
      </trkpt>
      <trkpt lat="43.253640" lon="-4.846740">
        <ele>430.483</ele>
        <time>2020-05-20T13:34:20Z</time>
      </trkpt>
      <trkpt lat="43.253640" lon="-4.846710">
        <ele>429.811</ele>
        <time>2020-05-20T13:34:40Z</time>
      </trkpt>
      <trkpt lat="43.253630" lon="-4.846680">
        <ele>427.508</ele>
        <time>2020-05-20T13:35:00Z</time>
      </trkpt>
      <trkpt lat="43.253620" lon="-4.846650">
        <ele>425.016</ele>
        <time>2020-05-20T13:35:20Z</time>
      </trkpt>
      <trkpt lat="43.253620" lon="-4.846630">
        <ele>424.431</ele>
        <time>2020-05-20T13:35:40Z</time>
      </trkpt>
      <trkpt lat="43.253620" lon="-4.846610">
        <ele>423.897</ele>
        <time>2020-05-20T13:36:00Z</time>
      </trkpt>
      <trkpt lat="43.253620" lon="-4.846590">
        <ele>423.240</ele>
        <time>2020-05-20T13:36:20Z</time>
      </trkpt>
      <trkpt lat="43.253610" lon="-4.846570">
        <ele>421.170</ele>
        <time>2020-05-20T13:36:40Z</time>
      </trkpt>
      <trkpt lat="43.253600" lon="-4.846540">
        <ele>419.160</ele>
        <time>2020-05-20T13:37:00Z</time>
      </trkpt>
      <trkpt lat="43.253600" lon="-4.846530">
        <ele>418.830</ele>
        <time>2020-05-20T13:37:20Z</time>
      </trkpt>
      <trkpt lat="43.253590" lon="-4.846510">
        <ele>417.269</ele>
        <time>2020-05-20T13:37:40Z</time>
      </trkpt>
      <trkpt lat="43.253580" lon="-4.846480">
        <ele>415.369</ele>
        <time>2020-05-20T13:38:00Z</time>
      </trkpt>
      <trkpt lat="43.253570" lon="-4.846470">
        <ele>414.104</ele>
        <time>2020-05-20T13:38:20Z</time>
      </trkpt>
      <trkpt lat="43.253560" lon="-4.846450">
        <ele>412.624</ele>
        <time>2020-05-20T13:38:40Z</time>
      </trkpt>
      <trkpt lat="43.253550" lon="-4.846420">
        <ele>410.908</ele>
        <time>2020-05-20T13:39:00Z</time>
      </trkpt>
      <trkpt lat="43.253550" lon="-4.846390">
        <ele>410.340</ele>
        <time>2020-05-20T13:39:20Z</time>
      </trkpt>
      <trkpt lat="43.253540" lon="-4.846360">
        <ele>409.185</ele>
        <time>2020-05-20T13:39:40Z</time>
      </trkpt>
      <trkpt lat="43.253540" lon="-4.846330">
        <ele>408.941</ele>
        <time>2020-05-20T13:40:00Z</time>
      </trkpt>
      <trkpt lat="43.253530" lon="-4.846300">
        <ele>407.754</ele>
        <time>2020-05-20T13:40:20Z</time>
      </trkpt>
      <trkpt lat="43.253530" lon="-4.846270">
        <ele>407.544</ele>
        <time>2020-05-20T13:40:40Z</time>
      </trkpt>
      <trkpt lat="43.253530" lon="-4.846230">
        <ele>407.214</ele>
        <time>2020-05-20T13:41:00Z</time>
      </trkpt>
      <trkpt lat="43.253540" lon="-4.846200">
        <ele>407.874</ele>
        <time>2020-05-20T13:41:20Z</time>
      </trkpt>
      <trkpt lat="43.253540" lon="-4.846180">
        <ele>407.743</ele>
        <time>2020-05-20T13:41:40Z</time>
      </trkpt>
      <trkpt lat="43.253540" lon="-4.846150">
        <ele>407.471</ele>
        <time>2020-05-20T13:42:00Z</time>
      </trkpt>
      <trkpt lat="43.253540" lon="-4.846140">
        <ele>407.341</ele>
        <time>2020-05-20T13:42:20Z</time>
      </trkpt>
      <trkpt lat="43.253530" lon="-4.846100">
        <ele>406.315</ele>
        <time>2020-05-20T13:42:40Z</time>
      </trkpt>
      <trkpt lat="43.253520" lon="-4.846080">
        <ele>405.508</ele>
        <time>2020-05-20T13:43:00Z</time>
      </trkpt>
      <trkpt lat="43.253520" lon="-4.846050">
        <ele>405.641</ele>
        <time>2020-05-20T13:43:20Z</time>
      </trkpt>
      <trkpt lat="43.253510" lon="-4.846030">
        <ele>404.896</ele>
        <time>2020-05-20T13:43:40Z</time>
      </trkpt>
      <trkpt lat="43.253500" lon="-4.846000">
        <ele>404.192</ele>
        <time>2020-05-20T13:44:00Z</time>
      </trkpt>
      <trkpt lat="43.253490" lon="-4.845990">
        <ele>403.485</ele>
        <time>2020-05-20T13:44:20Z</time>
      </trkpt>
      <trkpt lat="43.253480" lon="-4.845960">
        <ele>402.715</ele>
        <time>2020-05-20T13:44:40Z</time>
      </trkpt>
      <trkpt lat="43.253470" lon="-4.845940">
        <ele>401.965</ele>
        <time>2020-05-20T13:45:00Z</time>
      </trkpt>
      <trkpt lat="43.253460" lon="-4.845920">
        <ele>401.225</ele>
        <time>2020-05-20T13:45:20Z</time>
      </trkpt>
      <trkpt lat="43.253440" lon="-4.845900">
        <ele>399.874</ele>
        <time>2020-05-20T13:45:40Z</time>
      </trkpt>
      <trkpt lat="43.253420" lon="-4.845880">
        <ele>398.359</ele>
        <time>2020-05-20T13:46:00Z</time>
      </trkpt>
      <trkpt lat="43.253400" lon="-4.845860">
        <ele>396.903</ele>
        <time>2020-05-20T13:46:20Z</time>
      </trkpt>
      <trkpt lat="43.253390" lon="-4.845830">
        <ele>396.423</ele>
        <time>2020-05-20T13:46:40Z</time>
      </trkpt>
      <trkpt lat="43.253370" lon="-4.845800">
        <ele>395.708</ele>
        <time>2020-05-20T13:47:00Z</time>
      </trkpt>
      <trkpt lat="43.253350" lon="-4.845780">
        <ele>394.669</ele>
        <time>2020-05-20T13:47:20Z</time>
      </trkpt>
      <trkpt lat="43.253330" lon="-4.845750">
        <ele>393.834</ele>
        <time>2020-05-20T13:47:40Z</time>
      </trkpt>
      <trkpt lat="43.253310" lon="-4.845710">
        <ele>393.390</ele>
        <time>2020-05-20T13:48:00Z</time>
      </trkpt>
      <trkpt lat="43.253290" lon="-4.845680">
        <ele>392.523</ele>
        <time>2020-05-20T13:48:20Z</time>
      </trkpt>
      <trkpt lat="43.253280" lon="-4.845660">
        <ele>392.263</ele>
        <time>2020-05-20T13:48:40Z</time>
      </trkpt>
      <trkpt lat="43.253280" lon="-4.845640">
        <ele>392.753</ele>
        <time>2020-05-20T13:49:00Z</time>
      </trkpt>
      <trkpt lat="43.253270" lon="-4.845620">
        <ele>392.483</ele>
        <time>2020-05-20T13:49:20Z</time>
      </trkpt>
      <trkpt lat="43.253260" lon="-4.845610">
        <ele>391.942</ele>
        <time>2020-05-20T13:49:40Z</time>
      </trkpt>
      <trkpt lat="43.253260" lon="-4.845600">
        <ele>392.115</ele>
        <time>2020-05-20T13:50:00Z</time>
      </trkpt>
      <trkpt lat="43.253250" lon="-4.845590">
        <ele>391.665</ele>
        <time>2020-05-20T13:50:20Z</time>
      </trkpt>
      <trkpt lat="43.253240" lon="-4.845570">
        <ele>391.311</ele>
        <time>2020-05-20T13:50:40Z</time>
      </trkpt>
      <trkpt lat="43.253220" lon="-4.845560">
        <ele>389.908</ele>
        <time>2020-05-20T13:51:00Z</time>
      </trkpt>
      <trkpt lat="43.253210" lon="-4.845540">
        <ele>389.215</ele>
        <time>2020-05-20T13:51:20Z</time>
      </trkpt>
      <trkpt lat="43.253190" lon="-4.845520">
        <ele>387.660</ele>
        <time>2020-05-20T13:51:40Z</time>
      </trkpt>
      <trkpt lat="43.253180" lon="-4.845510">
        <ele>386.876</ele>
        <time>2020-05-20T13:52:00Z</time>
      </trkpt>
      <trkpt lat="43.253150" lon="-4.845490">
        <ele>384.319</ele>
        <time>2020-05-20T13:52:20Z</time>
      </trkpt>
      <trkpt lat="43.253120" lon="-4.845460">
        <ele>381.729</ele>
        <time>2020-05-20T13:52:40Z</time>
      </trkpt>
      <trkpt lat="43.253110" lon="-4.845450">
        <ele>380.939</ele>
        <time>2020-05-20T13:53:00Z</time>
      </trkpt>
      <trkpt lat="43.253100" lon="-4.845430">
        <ele>379.999</ele>
        <time>2020-05-20T13:53:20Z</time>
      </trkpt>
      <trkpt lat="43.253090" lon="-4.845420">
        <ele>379.038</ele>
        <time>2020-05-20T13:53:40Z</time>
      </trkpt>
      <trkpt lat="43.253080" lon="-4.845410">
        <ele>378.131</ele>
        <time>2020-05-20T13:54:00Z</time>
      </trkpt>
      <trkpt lat="43.253080" lon="-4.845400">
        <ele>378.061</ele>
        <time>2020-05-20T13:54:20Z</time>
      </trkpt>
      <trkpt lat="43.253080" lon="-4.845390">
        <ele>378.007</ele>
        <time>2020-05-20T13:54:40Z</time>
      </trkpt>
      <trkpt lat="43.253080" lon="-4.845380">
        <ele>377.908</ele>
        <time>2020-05-20T13:55:00Z</time>
      </trkpt>
      <trkpt lat="43.253080" lon="-4.845370">
        <ele>377.817</ele>
        <time>2020-05-20T13:55:20Z</time>
      </trkpt>
      <trkpt lat="43.253080" lon="-4.845360">
        <ele>377.812</ele>
        <time>2020-05-20T13:55:40Z</time>
      </trkpt>
      <trkpt lat="43.253080" lon="-4.845350">
        <ele>377.738</ele>
        <time>2020-05-20T13:56:00Z</time>
      </trkpt>
      <trkpt lat="43.253080" lon="-4.845340">
        <ele>377.711</ele>
        <time>2020-05-20T13:56:20Z</time>
      </trkpt>
      <trkpt lat="43.253090" lon="-4.845340">
        <ele>378.691</ele>
        <time>2020-05-20T13:56:40Z</time>
      </trkpt>
      <trkpt lat="43.253100" lon="-4.845340">
        <ele>379.551</ele>
        <time>2020-05-20T13:57:00Z</time>
      </trkpt>
      <trkpt lat="43.253110" lon="-4.845340">
        <ele>380.411</ele>
        <time>2020-05-20T13:57:20Z</time>
      </trkpt>
      <trkpt lat="43.253120" lon="-4.845330">
        <ele>381.220</ele>
        <time>2020-05-20T13:57:40Z</time>
      </trkpt>
      <trkpt lat="43.253130" lon="-4.845330">
        <ele>382.123</ele>
        <time>2020-05-20T13:58:00Z</time>
      </trkpt>
      <trkpt lat="43.253140" lon="-4.845320">
        <ele>383.083</ele>
        <time>2020-05-20T13:58:20Z</time>
      </trkpt>
      <trkpt lat="43.253150" lon="-4.845310">
        <ele>383.911</ele>
        <time>2020-05-20T13:58:40Z</time>
      </trkpt>
      <trkpt lat="43.253160" lon="-4.845300">
        <ele>384.808</ele>
        <time>2020-05-20T13:59:00Z</time>
      </trkpt>
      <trkpt lat="43.253160" lon="-4.845280">
        <ele>384.816</ele>
        <time>2020-05-20T13:59:20Z</time>
      </trkpt>
      <trkpt lat="43.253180" lon="-4.845270">
        <ele>386.431</ele>
        <time>2020-05-20T13:59:40Z</time>
      </trkpt>
      <trkpt lat="43.253190" lon="-4.845270">
        <ele>387.487</ele>
        <time>2020-05-20T14:00:00Z</time>
      </trkpt>
      <trkpt lat="43.253200" lon="-4.845260">
        <ele>388.110</ele>
        <time>2020-05-20T14:00:20Z</time>
      </trkpt>
      <trkpt lat="43.253210" lon="-4.845260">
        <ele>389.050</ele>
        <time>2020-05-20T14:00:40Z</time>
      </trkpt>
      <trkpt lat="43.253230" lon="-4.845250">
        <ele>390.780</ele>
        <time>2020-05-20T14:01:00Z</time>
      </trkpt>
      <trkpt lat="43.253240" lon="-4.845250">
        <ele>391.750</ele>
        <time>2020-05-20T14:01:20Z</time>
      </trkpt>
      <trkpt lat="43.253250" lon="-4.845240">
        <ele>392.489</ele>
        <time>2020-05-20T14:01:40Z</time>
      </trkpt>
      <trkpt lat="43.253260" lon="-4.845240">
        <ele>393.422</ele>
        <time>2020-05-20T14:02:00Z</time>
      </trkpt>
      <trkpt lat="43.253280" lon="-4.845240">
        <ele>395.462</ele>
        <time>2020-05-20T14:02:20Z</time>
      </trkpt>
      <trkpt lat="43.253290" lon="-4.845230">
        <ele>396.208</ele>
        <time>2020-05-20T14:02:40Z</time>
      </trkpt>
      <trkpt lat="43.253300" lon="-4.845220">
        <ele>397.008</ele>
        <time>2020-05-20T14:03:00Z</time>
      </trkpt>
      <trkpt lat="43.253300" lon="-4.845210">
        <ele>396.986</ele>
        <time>2020-05-20T14:03:20Z</time>
      </trkpt>
      <trkpt lat="43.253300" lon="-4.845200">
        <ele>396.751</ele>
        <time>2020-05-20T14:03:40Z</time>
      </trkpt>
      <trkpt lat="43.253300" lon="-4.845190">
        <ele>396.697</ele>
        <time>2020-05-20T14:04:00Z</time>
      </trkpt>
      <trkpt lat="43.253300" lon="-4.845170">
        <ele>396.380</ele>
        <time>2020-05-20T14:04:20Z</time>
      </trkpt>
      <trkpt lat="43.253290" lon="-4.845150">
        <ele>394.940</ele>
        <time>2020-05-20T14:04:40Z</time>
      </trkpt>
      <trkpt lat="43.253290" lon="-4.845130">
        <ele>394.630</ele>
        <time>2020-05-20T14:05:00Z</time>
      </trkpt>
      <trkpt lat="43.253290" lon="-4.845110">
        <ele>394.350</ele>
        <time>2020-05-20T14:05:20Z</time>
      </trkpt>
      <trkpt lat="43.253290" lon="-4.845080">
        <ele>393.899</ele>
        <time>2020-05-20T14:05:40Z</time>
      </trkpt>
      <trkpt lat="43.253290" lon="-4.845060">
        <ele>393.541</ele>
        <time>2020-05-20T14:06:00Z</time>
      </trkpt>
      <trkpt lat="43.253290" lon="-4.845040">
        <ele>393.281</ele>
        <time>2020-05-20T14:06:20Z</time>
      </trkpt>
      <trkpt lat="43.253280" lon="-4.845030">
        <ele>391.809</ele>
        <time>2020-05-20T14:06:40Z</time>
      </trkpt>
      <trkpt lat="43.253270" lon="-4.845020">
        <ele>390.408</ele>
        <time>2020-05-20T14:07:00Z</time>
      </trkpt>
      <trkpt lat="43.253260" lon="-4.845000">
        <ele>388.868</ele>
        <time>2020-05-20T14:07:20Z</time>
      </trkpt>
      <trkpt lat="43.253250" lon="-4.844990">
        <ele>387.463</ele>
        <time>2020-05-20T14:07:40Z</time>
      </trkpt>
      <trkpt lat="43.253240" lon="-4.844980">
        <ele>386.019</ele>
        <time>2020-05-20T14:08:00Z</time>
      </trkpt>
      <trkpt lat="43.253240" lon="-4.844970">
        <ele>386.032</ele>
        <time>2020-05-20T14:08:20Z</time>
      </trkpt>
      <trkpt lat="43.253230" lon="-4.844970">
        <ele>384.732</ele>
        <time>2020-05-20T14:08:40Z</time>
      </trkpt>
      <trkpt lat="43.253210" lon="-4.844960">
        <ele>382.262</ele>
        <time>2020-05-20T14:09:00Z</time>
      </trkpt>
      <trkpt lat="43.253200" lon="-4.844950">
        <ele>380.982</ele>
        <time>2020-05-20T14:09:20Z</time>
      </trkpt>
      <trkpt lat="43.253180" lon="-4.844940">
        <ele>378.441</ele>
        <time>2020-05-20T14:09:40Z</time>
      </trkpt>
      <trkpt lat="43.253160" lon="-4.844930">
        <ele>376.068</ele>
        <time>2020-05-20T14:10:00Z</time>
      </trkpt>
      <trkpt lat="43.253150" lon="-4.844920">
        <ele>374.842</ele>
        <time>2020-05-20T14:10:20Z</time>
      </trkpt>
      <trkpt lat="43.253130" lon="-4.844920">
        <ele>372.426</ele>
        <time>2020-05-20T14:10:40Z</time>
      </trkpt>
      <trkpt lat="43.253120" lon="-4.844910">
        <ele>371.208</ele>
        <time>2020-05-20T14:11:00Z</time>
      </trkpt>
      <trkpt lat="43.253100" lon="-4.844900">
        <ele>368.990</ele>
        <time>2020-05-20T14:11:20Z</time>
      </trkpt>
      <trkpt lat="43.253090" lon="-4.844900">
        <ele>367.795</ele>
        <time>2020-05-20T14:11:40Z</time>
      </trkpt>
      <trkpt lat="43.253080" lon="-4.844890">
        <ele>366.621</ele>
        <time>2020-05-20T14:12:00Z</time>
      </trkpt>
      <trkpt lat="43.253080" lon="-4.844880">
        <ele>366.724</ele>
        <time>2020-05-20T14:12:20Z</time>
      </trkpt>
      <trkpt lat="43.253080" lon="-4.844860">
        <ele>366.864</ele>
        <time>2020-05-20T14:12:40Z</time>
      </trkpt>
      <trkpt lat="43.253080" lon="-4.844830">
        <ele>366.934</ele>
        <time>2020-05-20T14:13:00Z</time>
      </trkpt>
      <trkpt lat="43.253080" lon="-4.844820">
        <ele>367.034</ele>
        <time>2020-05-20T14:13:20Z</time>
      </trkpt>
      <trkpt lat="43.253080" lon="-4.844800">
        <ele>367.163</ele>
        <time>2020-05-20T14:13:40Z</time>
      </trkpt>
      <trkpt lat="43.253080" lon="-4.844780">
        <ele>367.269</ele>
        <time>2020-05-20T14:14:00Z</time>
      </trkpt>
      <trkpt lat="43.253080" lon="-4.844770">
        <ele>367.204</ele>
        <time>2020-05-20T14:14:20Z</time>
      </trkpt>
      <trkpt lat="43.253080" lon="-4.844760">
        <ele>367.324</ele>
        <time>2020-05-20T14:14:40Z</time>
      </trkpt>
      <trkpt lat="43.253090" lon="-4.844750">
        <ele>368.408</ele>
        <time>2020-05-20T14:15:00Z</time>
      </trkpt>
      <trkpt lat="43.253100" lon="-4.844750">
        <ele>369.410</ele>
        <time>2020-05-20T14:15:20Z</time>
      </trkpt>
      <trkpt lat="43.253120" lon="-4.844740">
        <ele>371.575</ele>
        <time>2020-05-20T14:15:40Z</time>
      </trkpt>
      <trkpt lat="43.253130" lon="-4.844730">
        <ele>372.531</ele>
        <time>2020-05-20T14:16:00Z</time>
      </trkpt>
      <trkpt lat="43.253140" lon="-4.844720">
        <ele>373.464</ele>
        <time>2020-05-20T14:16:20Z</time>
      </trkpt>
      <trkpt lat="43.253150" lon="-4.844710">
        <ele>374.244</ele>
        <time>2020-05-20T14:16:40Z</time>
      </trkpt>
      <trkpt lat="43.253160" lon="-4.844700">
        <ele>374.914</ele>
        <time>2020-05-20T14:17:00Z</time>
      </trkpt>
      <trkpt lat="43.253160" lon="-4.844690">
        <ele>374.674</ele>
        <time>2020-05-20T14:17:20Z</time>
      </trkpt>
      <trkpt lat="43.253170" lon="-4.844670">
        <ele>375.043</ele>
        <time>2020-05-20T14:17:40Z</time>
      </trkpt>
      <trkpt lat="43.253170" lon="-4.844660">
        <ele>374.774</ele>
        <time>2020-05-20T14:18:00Z</time>
      </trkpt>
      <trkpt lat="43.253180" lon="-4.844640">
        <ele>375.256</ele>
        <time>2020-05-20T14:18:20Z</time>
      </trkpt>
      <trkpt lat="43.253180" lon="-4.844630">
        <ele>374.921</ele>
        <time>2020-05-20T14:18:40Z</time>
      </trkpt>
      <trkpt lat="43.253180" lon="-4.844610">
        <ele>374.308</ele>
        <time>2020-05-20T14:19:00Z</time>
      </trkpt>
      <trkpt lat="43.253190" lon="-4.844600">
        <ele>375.051</ele>
        <time>2020-05-20T14:19:20Z</time>
      </trkpt>
      <trkpt lat="43.253190" lon="-4.844580">
        <ele>374.546</ele>
        <time>2020-05-20T14:19:40Z</time>
      </trkpt>
      <trkpt lat="43.253190" lon="-4.844570">
        <ele>374.212</ele>
        <time>2020-05-20T14:20:00Z</time>
      </trkpt>
      <trkpt lat="43.253190" lon="-4.844550">
        <ele>373.635</ele>
        <time>2020-05-20T14:20:20Z</time>
      </trkpt>
      <trkpt lat="43.253190" lon="-4.844530">
        <ele>373.075</ele>
        <time>2020-05-20T14:20:40Z</time>
      </trkpt>
      <trkpt lat="43.253180" lon="-4.844520">
        <ele>371.775</ele>
        <time>2020-05-20T14:21:00Z</time>
      </trkpt>
      <trkpt lat="43.253180" lon="-4.844500">
        <ele>371.195</ele>
        <time>2020-05-20T14:21:20Z</time>
      </trkpt>
      <trkpt lat="43.253180" lon="-4.844490">
        <ele>370.924</ele>
        <time>2020-05-20T14:21:40Z</time>
      </trkpt>
      <trkpt lat="43.253180" lon="-4.844470">
        <ele>370.367</ele>
        <time>2020-05-20T14:22:00Z</time>
      </trkpt>
      <trkpt lat="43.253180" lon="-4.844460">
        <ele>370.081</ele>
        <time>2020-05-20T14:22:20Z</time>
      </trkpt>
      <trkpt lat="43.253180" lon="-4.844450">
        <ele>369.719</ele>
        <time>2020-05-20T14:22:40Z</time>
      </trkpt>
      <trkpt lat="43.253190" lon="-4.844440">
        <ele>370.508</ele>
        <time>2020-05-20T14:23:00Z</time>
      </trkpt>
      <trkpt lat="43.253190" lon="-4.844430">
        <ele>370.330</ele>
        <time>2020-05-20T14:23:20Z</time>
      </trkpt>
      <trkpt lat="43.253190" lon="-4.844420">
        <ele>370.175</ele>
        <time>2020-05-20T14:23:40Z</time>
      </trkpt>
      <trkpt lat="43.253200" lon="-4.844400">
        <ele>370.871</ele>
        <time>2020-05-20T14:24:00Z</time>
      </trkpt>
      <trkpt lat="43.253200" lon="-4.844390">
        <ele>370.674</ele>
        <time>2020-05-20T14:24:20Z</time>
      </trkpt>
      <trkpt lat="43.253200" lon="-4.844370">
        <ele>370.214</ele>
        <time>2020-05-20T14:24:40Z</time>
      </trkpt>
      <trkpt lat="43.253190" lon="-4.844370">
        <ele>369.224</ele>
        <time>2020-05-20T14:25:00Z</time>
      </trkpt>
      <trkpt lat="43.253180" lon="-4.844370">
        <ele>368.144</ele>
        <time>2020-05-20T14:25:20Z</time>
      </trkpt>
      <trkpt lat="43.253170" lon="-4.844370">
        <ele>367.133</ele>
        <time>2020-05-20T14:25:40Z</time>
      </trkpt>
      <trkpt lat="43.253160" lon="-4.844380">
        <ele>366.393</ele>
        <time>2020-05-20T14:26:00Z</time>
      </trkpt>
      <trkpt lat="43.253160" lon="-4.844390">
        <ele>366.565</ele>
        <time>2020-05-20T14:26:20Z</time>
      </trkpt>
      <trkpt lat="43.253150" lon="-4.844400">
        <ele>365.621</ele>
        <time>2020-05-20T14:26:40Z</time>
      </trkpt>
      <trkpt lat="43.253140" lon="-4.844410">
        <ele>364.808</ele>
        <time>2020-05-20T14:27:00Z</time>
      </trkpt>
      <trkpt lat="43.253140" lon="-4.844420">
        <ele>365.063</ele>
        <time>2020-05-20T14:27:20Z</time>
      </trkpt>
      <trkpt lat="43.253140" lon="-4.844430">
        <ele>365.258</ele>
        <time>2020-05-20T14:27:40Z</time>
      </trkpt>
      <trkpt lat="43.253140" lon="-4.844440">
        <ele>365.474</ele>
        <time>2020-05-20T14:28:00Z</time>
      </trkpt>
      <trkpt lat="43.253130" lon="-4.844440">
        <ele>364.467</ele>
        <time>2020-05-20T14:28:20Z</time>
      </trkpt>
      <trkpt lat="43.253130" lon="-4.844450">
        <ele>364.797</ele>
        <time>2020-05-20T14:28:40Z</time>
      </trkpt>
      <trkpt lat="43.253120" lon="-4.844450">
        <ele>363.747</ele>
        <time>2020-05-20T14:29:00Z</time>
      </trkpt>
      <trkpt lat="43.253110" lon="-4.844440">
        <ele>362.427</ele>
        <time>2020-05-20T14:29:20Z</time>
      </trkpt>
      <trkpt lat="43.253100" lon="-4.844420">
        <ele>360.926</ele>
        <time>2020-05-20T14:29:40Z</time>
      </trkpt>
      <trkpt lat="43.253100" lon="-4.844410">
        <ele>360.729</ele>
        <time>2020-05-20T14:30:00Z</time>
      </trkpt>
      <trkpt lat="43.253100" lon="-4.844400">
        <ele>360.500</ele>
        <time>2020-05-20T14:30:20Z</time>
      </trkpt>
      <trkpt lat="43.253090" lon="-4.844380">
        <ele>359.020</ele>
        <time>2020-05-20T14:30:40Z</time>
      </trkpt>
      <trkpt lat="43.253090" lon="-4.844360">
        <ele>358.508</ele>
        <time>2020-05-20T14:31:00Z</time>
      </trkpt>
      <trkpt lat="43.253090" lon="-4.844350">
        <ele>358.326</ele>
        <time>2020-05-20T14:31:20Z</time>
      </trkpt>
      <trkpt lat="43.253090" lon="-4.844340">
        <ele>358.041</ele>
        <time>2020-05-20T14:31:40Z</time>
      </trkpt>
      <trkpt lat="43.253080" lon="-4.844320">
        <ele>356.587</ele>
        <time>2020-05-20T14:32:00Z</time>
      </trkpt>
      <trkpt lat="43.253080" lon="-4.844310">
        <ele>356.230</ele>
        <time>2020-05-20T14:32:20Z</time>
      </trkpt>
      <trkpt lat="43.253080" lon="-4.844300">
        <ele>356.020</ele>
        <time>2020-05-20T14:32:40Z</time>
      </trkpt>
      <trkpt lat="43.253090" lon="-4.844290">
        <ele>356.980</ele>
        <time>2020-05-20T14:33:00Z</time>
      </trkpt>
      <trkpt lat="43.253100" lon="-4.844280">
        <ele>357.740</ele>
        <time>2020-05-20T14:33:20Z</time>
      </trkpt>
      <trkpt lat="43.253110" lon="-4.844280">
        <ele>358.839</ele>
        <time>2020-05-20T14:33:40Z</time>
      </trkpt>
      <trkpt lat="43.253130" lon="-4.844270">
        <ele>360.895</ele>
        <time>2020-05-20T14:34:00Z</time>
      </trkpt>
      <trkpt lat="43.253150" lon="-4.844270">
        <ele>363.049</ele>
        <time>2020-05-20T14:34:20Z</time>
      </trkpt>
      <trkpt lat="43.253170" lon="-4.844260">
        <ele>365.023</ele>
        <time>2020-05-20T14:34:40Z</time>
      </trkpt>
      <trkpt lat="43.253190" lon="-4.844260">
        <ele>367.208</ele>
        <time>2020-05-20T14:35:00Z</time>
      </trkpt>
      <trkpt lat="43.253210" lon="-4.844250">
        <ele>369.263</ele>
        <time>2020-05-20T14:35:20Z</time>
      </trkpt>
      <trkpt lat="43.253230" lon="-4.844240">
        <ele>371.378</ele>
        <time>2020-05-20T14:35:40Z</time>
      </trkpt>
      <trkpt lat="43.253250" lon="-4.844220">
        <ele>373.244</ele>
        <time>2020-05-20T14:36:00Z</time>
      </trkpt>
      <trkpt lat="43.253260" lon="-4.844210">
        <ele>374.297</ele>
        <time>2020-05-20T14:36:20Z</time>
      </trkpt>
      <trkpt lat="43.253280" lon="-4.844190">
        <ele>376.227</ele>
        <time>2020-05-20T14:36:40Z</time>
      </trkpt>
      <trkpt lat="43.253300" lon="-4.844180">
        <ele>378.377</ele>
        <time>2020-05-20T14:37:00Z</time>
      </trkpt>
      <trkpt lat="43.253310" lon="-4.844170">
        <ele>379.417</ele>
        <time>2020-05-20T14:37:20Z</time>
      </trkpt>
      <trkpt lat="43.253320" lon="-4.844160">
        <ele>379.876</ele>
        <time>2020-05-20T14:37:40Z</time>
      </trkpt>
      <trkpt lat="43.253330" lon="-4.844160">
        <ele>380.986</ele>
        <time>2020-05-20T14:38:00Z</time>
      </trkpt>
      <trkpt lat="43.253340" lon="-4.844150">
        <ele>380.860</ele>
        <time>2020-05-20T14:38:20Z</time>
      </trkpt>
      <trkpt lat="43.253360" lon="-4.844150">
        <ele>382.526</ele>
        <time>2020-05-20T14:38:40Z</time>
      </trkpt>
      <trkpt lat="43.253380" lon="-4.844140">
        <ele>383.108</ele>
        <time>2020-05-20T14:39:00Z</time>
      </trkpt>
      <trkpt lat="43.253400" lon="-4.844130">
        <ele>383.852</ele>
        <time>2020-05-20T14:39:20Z</time>
      </trkpt>
      <trkpt lat="43.253420" lon="-4.844130">
        <ele>385.657</ele>
        <time>2020-05-20T14:39:40Z</time>
      </trkpt>
      <trkpt lat="43.253430" lon="-4.844120">
        <ele>385.523</ele>
        <time>2020-05-20T14:40:00Z</time>
      </trkpt>
      <trkpt lat="43.253450" lon="-4.844110">
        <ele>386.396</ele>
        <time>2020-05-20T14:40:20Z</time>
      </trkpt>
      <trkpt lat="43.253460" lon="-4.844110">
        <ele>387.276</ele>
        <time>2020-05-20T14:40:40Z</time>
      </trkpt>
      <trkpt lat="43.253470" lon="-4.844100">
        <ele>387.216</ele>
        <time>2020-05-20T14:41:00Z</time>
      </trkpt>
      <trkpt lat="43.253480" lon="-4.844090">
        <ele>387.286</ele>
        <time>2020-05-20T14:41:20Z</time>
      </trkpt>
      <trkpt lat="43.253480" lon="-4.844080">
        <ele>386.395</ele>
        <time>2020-05-20T14:41:40Z</time>
      </trkpt>
      <trkpt lat="43.253490" lon="-4.844070">
        <ele>386.343</ele>
        <time>2020-05-20T14:42:00Z</time>
      </trkpt>
      <trkpt lat="43.253490" lon="-4.844050">
        <ele>384.564</ele>
        <time>2020-05-20T14:42:20Z</time>
      </trkpt>
      <trkpt lat="43.253510" lon="-4.844030">
        <ele>384.710</ele>
        <time>2020-05-20T14:42:40Z</time>
      </trkpt>
      <trkpt lat="43.253510" lon="-4.844010">
        <ele>382.908</ele>
        <time>2020-05-20T14:43:00Z</time>
      </trkpt>
      <trkpt lat="43.253520" lon="-4.843990">
        <ele>382.258</ele>
        <time>2020-05-20T14:43:20Z</time>
      </trkpt>
      <trkpt lat="43.253540" lon="-4.843960">
        <ele>381.893</ele>
        <time>2020-05-20T14:43:40Z</time>
      </trkpt>
      <trkpt lat="43.253550" lon="-4.843930">
        <ele>380.459</ele>
        <time>2020-05-20T14:44:00Z</time>
      </trkpt>
      <trkpt lat="43.253560" lon="-4.843910">
        <ele>379.862</ele>
        <time>2020-05-20T14:44:20Z</time>
      </trkpt>
      <trkpt lat="43.253570" lon="-4.843900">
        <ele>380.232</ele>
        <time>2020-05-20T14:44:40Z</time>
      </trkpt>
      <trkpt lat="43.253570" lon="-4.843890">
        <ele>379.462</ele>
        <time>2020-05-20T14:45:00Z</time>
      </trkpt>
      <trkpt lat="43.253580" lon="-4.843880">
        <ele>379.942</ele>
        <time>2020-05-20T14:45:20Z</time>
      </trkpt>
      <trkpt lat="43.253580" lon="-4.843870">
        <ele>379.241</ele>
        <time>2020-05-20T14:45:40Z</time>
      </trkpt>
      <trkpt lat="43.253580" lon="-4.843860">
        <ele>378.643</ele>
        <time>2020-05-20T14:46:00Z</time>
      </trkpt>
      <trkpt lat="43.253590" lon="-4.843850">
        <ele>379.164</ele>
        <time>2020-05-20T14:46:20Z</time>
      </trkpt>
      <trkpt lat="43.253600" lon="-4.843840">
        <ele>379.610</ele>
        <time>2020-05-20T14:46:40Z</time>
      </trkpt>
      <trkpt lat="43.253610" lon="-4.843830">
        <ele>380.108</ele>
        <time>2020-05-20T14:47:00Z</time>
      </trkpt>
      <trkpt lat="43.253620" lon="-4.843830">
        <ele>381.528</ele>
        <time>2020-05-20T14:47:20Z</time>
      </trkpt>
      <trkpt lat="43.253630" lon="-4.843820">
        <ele>382.463</ele>
        <time>2020-05-20T14:47:40Z</time>
      </trkpt>
      <trkpt lat="43.253640" lon="-4.843800">
        <ele>382.659</ele>
        <time>2020-05-20T14:48:00Z</time>
      </trkpt>
      <trkpt lat="43.253650" lon="-4.843800">
        <ele>384.122</ele>
        <time>2020-05-20T14:48:20Z</time>
      </trkpt>
      <trkpt lat="43.253660" lon="-4.843780">
        <ele>384.212</ele>
        <time>2020-05-20T14:48:40Z</time>
      </trkpt>
      <trkpt lat="43.253660" lon="-4.843770">
        <ele>383.562</ele>
        <time>2020-05-20T14:49:00Z</time>
      </trkpt>
      <trkpt lat="43.253670" lon="-4.843750">
        <ele>383.682</ele>
        <time>2020-05-20T14:49:20Z</time>
      </trkpt>
      <trkpt lat="43.253670" lon="-4.843740">
        <ele>382.951</ele>
        <time>2020-05-20T14:49:40Z</time>
      </trkpt>
      <trkpt lat="43.253680" lon="-4.843730">
        <ele>383.624</ele>
        <time>2020-05-20T14:50:00Z</time>
      </trkpt>
      <trkpt lat="43.253690" lon="-4.843710">
        <ele>383.604</ele>
        <time>2020-05-20T14:50:20Z</time>
      </trkpt>
      <trkpt lat="43.253690" lon="-4.843700">
        <ele>382.914</ele>
        <time>2020-05-20T14:50:40Z</time>
      </trkpt>
      <trkpt lat="43.253690" lon="-4.843690">
        <ele>382.208</ele>
        <time>2020-05-20T14:51:00Z</time>
      </trkpt>
      <trkpt lat="43.253700" lon="-4.843670">
        <ele>382.136</ele>
        <time>2020-05-20T14:51:20Z</time>
      </trkpt>
      <trkpt lat="43.253700" lon="-4.843660">
        <ele>381.431</ele>
        <time>2020-05-20T14:51:40Z</time>
      </trkpt>
      <trkpt lat="43.253710" lon="-4.843640">
        <ele>381.397</ele>
        <time>2020-05-20T14:52:00Z</time>
      </trkpt>
      <trkpt lat="43.253710" lon="-4.843630">
        <ele>380.640</ele>
        <time>2020-05-20T14:52:20Z</time>
      </trkpt>
      <trkpt lat="43.253720" lon="-4.843610">
        <ele>380.460</ele>
        <time>2020-05-20T14:52:40Z</time>
      </trkpt>
      <trkpt lat="43.253720" lon="-4.843600">
        <ele>380.020</ele>
        <time>2020-05-20T14:53:00Z</time>
      </trkpt>
      <trkpt lat="43.253720" lon="-4.843580">
        <ele>379.050</ele>
        <time>2020-05-20T14:53:20Z</time>
      </trkpt>
      <trkpt lat="43.253710" lon="-4.843570">
        <ele>377.289</ele>
        <time>2020-05-20T14:53:40Z</time>
      </trkpt>
      <trkpt lat="43.253710" lon="-4.843550">
        <ele>376.285</ele>
        <time>2020-05-20T14:54:00Z</time>
      </trkpt>
      <trkpt lat="43.253710" lon="-4.843530">
        <ele>375.389</ele>
        <time>2020-05-20T14:54:20Z</time>
      </trkpt>
      <trkpt lat="43.253700" lon="-4.843520">
        <ele>373.517</ele>
        <time>2020-05-20T14:54:40Z</time>
      </trkpt>
      <trkpt lat="43.253700" lon="-4.843500">
        <ele>372.508</ele>
        <time>2020-05-20T14:55:00Z</time>
      </trkpt>
      <trkpt lat="43.253700" lon="-4.843480">
        <ele>371.622</ele>
        <time>2020-05-20T14:55:20Z</time>
      </trkpt>
      <trkpt lat="43.253700" lon="-4.843460">
        <ele>370.617</ele>
        <time>2020-05-20T14:55:40Z</time>
      </trkpt>
      <trkpt lat="43.253700" lon="-4.843440">
        <ele>369.713</ele>
        <time>2020-05-20T14:56:00Z</time>
      </trkpt>
      <trkpt lat="43.253700" lon="-4.843420">
        <ele>368.796</ele>
        <time>2020-05-20T14:56:20Z</time>
      </trkpt>
      <trkpt lat="43.253710" lon="-4.843400">
        <ele>369.046</ele>
        <time>2020-05-20T14:56:40Z</time>
      </trkpt>
      <trkpt lat="43.253710" lon="-4.843390">
        <ele>368.586</ele>
        <time>2020-05-20T14:57:00Z</time>
      </trkpt>
      <trkpt lat="43.253720" lon="-4.843370">
        <ele>368.736</ele>
        <time>2020-05-20T14:57:20Z</time>
      </trkpt>
      <trkpt lat="43.253720" lon="-4.843360">
        <ele>368.265</ele>
        <time>2020-05-20T14:57:40Z</time>
      </trkpt>
      <trkpt lat="43.253720" lon="-4.843340">
        <ele>367.393</ele>
        <time>2020-05-20T14:58:00Z</time>
      </trkpt>
      <trkpt lat="43.253730" lon="-4.843320">
        <ele>368.165</ele>
        <time>2020-05-20T14:58:20Z</time>
      </trkpt>
      <trkpt lat="43.253730" lon="-4.843310">
        <ele>368.121</ele>
        <time>2020-05-20T14:58:40Z</time>
      </trkpt>
      <trkpt lat="43.253730" lon="-4.843290">
        <ele>368.208</ele>
        <time>2020-05-20T14:59:00Z</time>
      </trkpt>
      <trkpt lat="43.253730" lon="-4.843280">
        <ele>368.233</ele>
        <time>2020-05-20T14:59:20Z</time>
      </trkpt>
      <trkpt lat="43.253730" lon="-4.843260">
        <ele>368.238</ele>
        <time>2020-05-20T14:59:40Z</time>
      </trkpt>
      <trkpt lat="43.253730" lon="-4.843240">
        <ele>368.244</ele>
        <time>2020-05-20T15:00:00Z</time>
      </trkpt>
      <trkpt lat="43.253730" lon="-4.843230">
        <ele>368.287</ele>
        <time>2020-05-20T15:00:20Z</time>
      </trkpt>
      <trkpt lat="43.253720" lon="-4.843210">
        <ele>367.137</ele>
        <time>2020-05-20T15:00:40Z</time>
      </trkpt>
      <trkpt lat="43.253720" lon="-4.843190">
        <ele>367.217</ele>
        <time>2020-05-20T15:01:00Z</time>
      </trkpt>
      <trkpt lat="43.253710" lon="-4.843170">
        <ele>366.127</ele>
        <time>2020-05-20T15:01:20Z</time>
      </trkpt>
      <trkpt lat="43.253710" lon="-4.843150">
        <ele>366.126</ele>
        <time>2020-05-20T15:01:40Z</time>
      </trkpt>
      <trkpt lat="43.253710" lon="-4.843140">
        <ele>366.135</ele>
        <time>2020-05-20T15:02:00Z</time>
      </trkpt>
      <trkpt lat="43.253700" lon="-4.843120">
        <ele>365.186</ele>
        <time>2020-05-20T15:02:20Z</time>
      </trkpt>
      <trkpt lat="43.253690" lon="-4.843100">
        <ele>364.114</ele>
        <time>2020-05-20T15:02:40Z</time>
      </trkpt>
      <trkpt lat="43.253690" lon="-4.843080">
        <ele>364.208</ele>
        <time>2020-05-20T15:03:00Z</time>
      </trkpt>
      <trkpt lat="43.253680" lon="-4.843060">
        <ele>363.277</ele>
        <time>2020-05-20T15:03:20Z</time>
      </trkpt>
      <trkpt lat="43.253670" lon="-4.843040">
        <ele>362.462</ele>
        <time>2020-05-20T15:03:40Z</time>
      </trkpt>
      <trkpt lat="43.253670" lon="-4.843020">
        <ele>362.898</ele>
        <time>2020-05-20T15:04:00Z</time>
      </trkpt>
      <trkpt lat="43.253660" lon="-4.843010">
        <ele>362.031</ele>
        <time>2020-05-20T15:04:20Z</time>
      </trkpt>
      <trkpt lat="43.253660" lon="-4.842990">
        <ele>362.451</ele>
        <time>2020-05-20T15:04:40Z</time>
      </trkpt>
      <trkpt lat="43.253650" lon="-4.842980">
        <ele>361.691</ele>
        <time>2020-05-20T15:05:00Z</time>
      </trkpt>
      <trkpt lat="43.253650" lon="-4.842960">
        <ele>362.081</ele>
        <time>2020-05-20T15:05:20Z</time>
      </trkpt>
      <trkpt lat="43.253640" lon="-4.842940">
        <ele>361.420</ele>
        <time>2020-05-20T15:05:40Z</time>
      </trkpt>
      <trkpt lat="43.253640" lon="-4.842930">
        <ele>361.669</ele>
        <time>2020-05-20T15:06:00Z</time>
      </trkpt>
      <trkpt lat="43.253640" lon="-4.842910">
        <ele>362.004</ele>
        <time>2020-05-20T15:06:20Z</time>
      </trkpt>
      <trkpt lat="43.253630" lon="-4.842900">
        <ele>361.224</ele>
        <time>2020-05-20T15:06:40Z</time>
      </trkpt>
      <trkpt lat="43.253630" lon="-4.842890">
        <ele>361.408</ele>
        <time>2020-05-20T15:07:00Z</time>
      </trkpt>
      <trkpt lat="43.253620" lon="-4.842880">
        <ele>360.790</ele>
        <time>2020-05-20T15:07:20Z</time>
      </trkpt>
      <trkpt lat="43.253620" lon="-4.842860">
        <ele>361.185</ele>
        <time>2020-05-20T15:07:40Z</time>
      </trkpt>
      <trkpt lat="43.253610" lon="-4.842850">
        <ele>360.331</ele>
        <time>2020-05-20T15:08:00Z</time>
      </trkpt>
      <trkpt lat="43.253600" lon="-4.842840">
        <ele>359.214</ele>
        <time>2020-05-20T15:08:20Z</time>
      </trkpt>
      <trkpt lat="43.253600" lon="-4.842830">
        <ele>359.424</ele>
        <time>2020-05-20T15:08:40Z</time>
      </trkpt>
      <trkpt lat="43.253590" lon="-4.842820">
        <ele>358.314</ele>
        <time>2020-05-20T15:09:00Z</time>
      </trkpt>
      <trkpt lat="43.253580" lon="-4.842810">
        <ele>357.244</ele>
        <time>2020-05-20T15:09:20Z</time>
      </trkpt>
      <trkpt lat="43.253570" lon="-4.842800">
        <ele>356.153</ele>
        <time>2020-05-20T15:09:40Z</time>
      </trkpt>
      <trkpt lat="43.253560" lon="-4.842790">
        <ele>355.071</ele>
        <time>2020-05-20T15:10:00Z</time>
      </trkpt>
      <trkpt lat="43.253560" lon="-4.842780">
        <ele>355.241</ele>
        <time>2020-05-20T15:10:20Z</time>
      </trkpt>
      <trkpt lat="43.253550" lon="-4.842770">
        <ele>353.815</ele>
        <time>2020-05-20T15:10:40Z</time>
      </trkpt>
      <trkpt lat="43.253550" lon="-4.842760">
        <ele>353.708</ele>
        <time>2020-05-20T15:11:00Z</time>
      </trkpt>
      <trkpt lat="43.253550" lon="-4.842740">
        <ele>353.551</ele>
        <time>2020-05-20T15:11:20Z</time>
      </trkpt>
      <trkpt lat="43.253550" lon="-4.842710">
        <ele>353.346</ele>
        <time>2020-05-20T15:11:40Z</time>
      </trkpt>
      <trkpt lat="43.253540" lon="-4.842690">
        <ele>351.862</ele>
        <time>2020-05-20T15:12:00Z</time>
      </trkpt>
      <trkpt lat="43.253540" lon="-4.842660">
        <ele>351.685</ele>
        <time>2020-05-20T15:12:20Z</time>
      </trkpt>
      <trkpt lat="43.253540" lon="-4.842640">
        <ele>351.435</ele>
        <time>2020-05-20T15:12:40Z</time>
      </trkpt>
      <trkpt lat="43.253540" lon="-4.842610">
        <ele>351.245</ele>
        <time>2020-05-20T15:13:00Z</time>
      </trkpt>
      <trkpt lat="43.253540" lon="-4.842590">
        <ele>351.085</ele>
        <time>2020-05-20T15:13:20Z</time>
      </trkpt>
      <trkpt lat="43.253540" lon="-4.842570">
        <ele>350.984</ele>
        <time>2020-05-20T15:13:40Z</time>
      </trkpt>
      <trkpt lat="43.253540" lon="-4.842550">
        <ele>350.741</ele>
        <time>2020-05-20T15:14:00Z</time>
      </trkpt>
      <trkpt lat="43.253540" lon="-4.842530">
        <ele>350.681</ele>
        <time>2020-05-20T15:14:20Z</time>
      </trkpt>
      <trkpt lat="43.253550" lon="-4.842510">
        <ele>351.509</ele>
        <time>2020-05-20T15:14:40Z</time>
      </trkpt>
      <trkpt lat="43.253550" lon="-4.842500">
        <ele>351.408</ele>
        <time>2020-05-20T15:15:00Z</time>
      </trkpt>
      <trkpt lat="43.253560" lon="-4.842490">
        <ele>352.178</ele>
        <time>2020-05-20T15:15:20Z</time>
      </trkpt>
      <trkpt lat="43.253560" lon="-4.842480">
        <ele>351.673</ele>
        <time>2020-05-20T15:15:40Z</time>
      </trkpt>
      <trkpt lat="43.253570" lon="-4.842470">
        <ele>352.349</ele>
        <time>2020-05-20T15:16:00Z</time>
      </trkpt>
      <trkpt lat="43.253580" lon="-4.842460">
        <ele>352.972</ele>
        <time>2020-05-20T15:16:20Z</time>
      </trkpt>
      <trkpt lat="43.253590" lon="-4.842460">
        <ele>353.922</ele>
        <time>2020-05-20T15:16:40Z</time>
      </trkpt>
      <trkpt lat="43.253600" lon="-4.842450">
        <ele>354.552</ele>
        <time>2020-05-20T15:17:00Z</time>
      </trkpt>
      <trkpt lat="43.253610" lon="-4.842440">
        <ele>355.172</ele>
        <time>2020-05-20T15:17:20Z</time>
      </trkpt>
      <trkpt lat="43.253620" lon="-4.842440">
        <ele>356.081</ele>
        <time>2020-05-20T15:17:40Z</time>
      </trkpt>
      <trkpt lat="43.253620" lon="-4.842420">
        <ele>355.082</ele>
        <time>2020-05-20T15:18:00Z</time>
      </trkpt>
      <trkpt lat="43.253630" lon="-4.842410">
        <ele>355.443</ele>
        <time>2020-05-20T15:18:20Z</time>
      </trkpt>
      <trkpt lat="43.253640" lon="-4.842390">
        <ele>355.317</ele>
        <time>2020-05-20T15:18:40Z</time>
      </trkpt>
      <trkpt lat="43.253650" lon="-4.842370">
        <ele>355.308</ele>
        <time>2020-05-20T15:19:00Z</time>
      </trkpt>
      <trkpt lat="43.253670" lon="-4.842340">
        <ele>355.622</ele>
        <time>2020-05-20T15:19:20Z</time>
      </trkpt>
      <trkpt lat="43.253690" lon="-4.842320">
        <ele>356.417</ele>
        <time>2020-05-20T15:19:40Z</time>
      </trkpt>
      <trkpt lat="43.253700" lon="-4.842310">
        <ele>356.813</ele>
        <time>2020-05-20T15:20:00Z</time>
      </trkpt>
      <trkpt lat="43.253700" lon="-4.842300">
        <ele>356.346</ele>
        <time>2020-05-20T15:20:20Z</time>
      </trkpt>
      <trkpt lat="43.253710" lon="-4.842290">
        <ele>356.796</ele>
        <time>2020-05-20T15:20:40Z</time>
      </trkpt>
      <trkpt lat="43.253710" lon="-4.842280">
        <ele>356.286</ele>
        <time>2020-05-20T15:21:00Z</time>
      </trkpt>
      <trkpt lat="43.253720" lon="-4.842260">
        <ele>356.276</ele>
        <time>2020-05-20T15:21:20Z</time>
      </trkpt>
      <trkpt lat="43.253720" lon="-4.842250">
        <ele>355.715</ele>
        <time>2020-05-20T15:21:40Z</time>
      </trkpt>
      <trkpt lat="43.253720" lon="-4.842240">
        <ele>355.286</ele>
        <time>2020-05-20T15:22:00Z</time>
      </trkpt>
      <trkpt lat="43.253720" lon="-4.842220">
        <ele>354.360</ele>
        <time>2020-05-20T15:22:20Z</time>
      </trkpt>
      <trkpt lat="43.253720" lon="-4.842210">
        <ele>354.026</ele>
        <time>2020-05-20T15:22:40Z</time>
      </trkpt>
      <trkpt lat="43.253720" lon="-4.842200">
        <ele>353.608</ele>
        <time>2020-05-20T15:23:00Z</time>
      </trkpt>
      <trkpt lat="43.253720" lon="-4.842180">
        <ele>352.942</ele>
        <time>2020-05-20T15:23:20Z</time>
      </trkpt>
      <trkpt lat="43.253720" lon="-4.842160">
        <ele>352.127</ele>
        <time>2020-05-20T15:23:40Z</time>
      </trkpt>
      <trkpt lat="43.253720" lon="-4.842150">
        <ele>351.893</ele>
        <time>2020-05-20T15:24:00Z</time>
      </trkpt>
      <trkpt lat="43.253730" lon="-4.842140">
        <ele>352.396</ele>
        <time>2020-05-20T15:24:20Z</time>
      </trkpt>
      <trkpt lat="43.253730" lon="-4.842120">
        <ele>351.596</ele>
        <time>2020-05-20T15:24:40Z</time>
      </trkpt>
      <trkpt lat="43.253730" lon="-4.842110">
        <ele>351.296</ele>
        <time>2020-05-20T15:25:00Z</time>
      </trkpt>
      <trkpt lat="43.253730" lon="-4.842090">
        <ele>350.496</ele>
        <time>2020-05-20T15:25:20Z</time>
      </trkpt>
      <trkpt lat="43.253740" lon="-4.842070">
        <ele>350.615</ele>
        <time>2020-05-20T15:25:40Z</time>
      </trkpt>
      <trkpt lat="43.253740" lon="-4.842060">
        <ele>350.345</ele>
        <time>2020-05-20T15:26:00Z</time>
      </trkpt>
      <trkpt lat="43.253740" lon="-4.842040">
        <ele>349.547</ele>
        <time>2020-05-20T15:26:20Z</time>
      </trkpt>
      <trkpt lat="43.253740" lon="-4.842030">
        <ele>349.211</ele>
        <time>2020-05-20T15:26:40Z</time>
      </trkpt>
      <trkpt lat="43.253740" lon="-4.842010">
        <ele>348.408</ele>
        <time>2020-05-20T15:27:00Z</time>
      </trkpt>
      <trkpt lat="43.253740" lon="-4.842000">
        <ele>348.128</ele>
        <time>2020-05-20T15:27:20Z</time>
      </trkpt>
      <trkpt lat="43.253740" lon="-4.841990">
        <ele>347.713</ele>
        <time>2020-05-20T15:27:40Z</time>
      </trkpt>
      <trkpt lat="43.253740" lon="-4.841970">
        <ele>347.019</ele>
        <time>2020-05-20T15:28:00Z</time>
      </trkpt>
      <trkpt lat="43.253740" lon="-4.841960">
        <ele>346.672</ele>
        <time>2020-05-20T15:28:20Z</time>
      </trkpt>
      <trkpt lat="43.253740" lon="-4.841950">
        <ele>346.342</ele>
        <time>2020-05-20T15:28:40Z</time>
      </trkpt>
      <trkpt lat="43.253740" lon="-4.841940">
        <ele>346.012</ele>
        <time>2020-05-20T15:29:00Z</time>
      </trkpt>
      <trkpt lat="43.253740" lon="-4.841930">
        <ele>345.982</ele>
        <time>2020-05-20T15:29:20Z</time>
      </trkpt>
      <trkpt lat="43.253730" lon="-4.841920">
        <ele>344.821</ele>
        <time>2020-05-20T15:29:40Z</time>
      </trkpt>
      <trkpt lat="43.253730" lon="-4.841910">
        <ele>344.744</ele>
        <time>2020-05-20T15:30:00Z</time>
      </trkpt>
      <trkpt lat="43.253730" lon="-4.841900">
        <ele>344.605</ele>
        <time>2020-05-20T15:30:20Z</time>
      </trkpt>
      <trkpt lat="43.253720" lon="-4.841890">
        <ele>343.515</ele>
        <time>2020-05-20T15:30:40Z</time>
      </trkpt>
      <trkpt lat="43.253720" lon="-4.841880">
        <ele>343.408</ele>
        <time>2020-05-20T15:31:00Z</time>
      </trkpt>
      <trkpt lat="43.253710" lon="-4.841860">
        <ele>342.278</ele>
        <time>2020-05-20T15:31:20Z</time>
      </trkpt>
      <trkpt lat="43.253710" lon="-4.841850">
        <ele>342.163</ele>
        <time>2020-05-20T15:31:40Z</time>
      </trkpt>
      <trkpt lat="43.253700" lon="-4.841840">
        <ele>341.169</ele>
        <time>2020-05-20T15:32:00Z</time>
      </trkpt>
      <trkpt lat="43.253690" lon="-4.841820">
        <ele>339.962</ele>
        <time>2020-05-20T15:32:20Z</time>
      </trkpt>
      <trkpt lat="43.253680" lon="-4.841810">
        <ele>338.932</ele>
        <time>2020-05-20T15:32:40Z</time>
      </trkpt>
      <trkpt lat="43.253680" lon="-4.841800">
        <ele>338.872</ele>
        <time>2020-05-20T15:33:00Z</time>
      </trkpt>
      <trkpt lat="43.253680" lon="-4.841790">
        <ele>338.652</ele>
        <time>2020-05-20T15:33:20Z</time>
      </trkpt>
      <trkpt lat="43.253670" lon="-4.841770">
        <ele>337.581</ele>
        <time>2020-05-20T15:33:40Z</time>
      </trkpt>
      <trkpt lat="43.253670" lon="-4.841760">
        <ele>337.432</ele>
        <time>2020-05-20T15:34:00Z</time>
      </trkpt>
      <trkpt lat="43.253670" lon="-4.841750">
        <ele>337.392</ele>
        <time>2020-05-20T15:34:20Z</time>
      </trkpt>
      <trkpt lat="43.253670" lon="-4.841740">
        <ele>337.111</ele>
        <time>2020-05-20T15:34:40Z</time>
      </trkpt>
      <trkpt lat="43.253670" lon="-4.841720">
        <ele>336.908</ele>
        <time>2020-05-20T15:35:00Z</time>
      </trkpt>
      <trkpt lat="43.253670" lon="-4.841710">
        <ele>336.897</ele>
        <time>2020-05-20T15:35:20Z</time>
      </trkpt>
      <trkpt lat="43.253660" lon="-4.841700">
        <ele>335.832</ele>
        <time>2020-05-20T15:35:40Z</time>
      </trkpt>
      <trkpt lat="43.253660" lon="-4.841690">
        <ele>335.788</ele>
        <time>2020-05-20T15:36:00Z</time>
      </trkpt>
      <trkpt lat="43.253650" lon="-4.841680">
        <ele>334.721</ele>
        <time>2020-05-20T15:36:20Z</time>
      </trkpt>
      <trkpt lat="43.253640" lon="-4.841660">
        <ele>333.681</ele>
        <time>2020-05-20T15:36:40Z</time>
      </trkpt>
      <trkpt lat="43.253640" lon="-4.841650">
        <ele>333.791</ele>
        <time>2020-05-20T15:37:00Z</time>
      </trkpt>
      <trkpt lat="43.253630" lon="-4.841640">
        <ele>332.921</ele>
        <time>2020-05-20T15:37:20Z</time>
      </trkpt>
      <trkpt lat="43.253620" lon="-4.841620">
        <ele>332.170</ele>
        <time>2020-05-20T15:37:40Z</time>
      </trkpt>
      <trkpt lat="43.253620" lon="-4.841600">
        <ele>332.278</ele>
        <time>2020-05-20T15:38:00Z</time>
      </trkpt>
      <trkpt lat="43.253610" lon="-4.841580">
        <ele>331.533</ele>
        <time>2020-05-20T15:38:20Z</time>
      </trkpt>
      <trkpt lat="43.253610" lon="-4.841570">
        <ele>331.626</ele>
        <time>2020-05-20T15:38:40Z</time>
      </trkpt>
      <trkpt lat="43.253610" lon="-4.841550">
        <ele>331.708</ele>
        <time>2020-05-20T15:39:00Z</time>
      </trkpt>
      <trkpt lat="43.253600" lon="-4.841530">
        <ele>331.091</ele>
        <time>2020-05-20T15:39:20Z</time>
      </trkpt>
      <trkpt lat="43.253600" lon="-4.841510">
        <ele>331.136</ele>
        <time>2020-05-20T15:39:40Z</time>
      </trkpt>
      <trkpt lat="43.253600" lon="-4.841490">
        <ele>331.322</ele>
        <time>2020-05-20T15:40:00Z</time>
      </trkpt>
      <trkpt lat="43.253600" lon="-4.841480">
        <ele>331.385</ele>
        <time>2020-05-20T15:40:20Z</time>
      </trkpt>
      <trkpt lat="43.253610" lon="-4.841460">
        <ele>332.455</ele>
        <time>2020-05-20T15:40:40Z</time>
      </trkpt>
      <trkpt lat="43.253610" lon="-4.841440">
        <ele>332.555</ele>
        <time>2020-05-20T15:41:00Z</time>
      </trkpt>
      <trkpt lat="43.253620" lon="-4.841430">
        <ele>333.335</ele>
        <time>2020-05-20T15:41:20Z</time>
      </trkpt>
      <trkpt lat="43.253630" lon="-4.841410">
        <ele>334.284</ele>
        <time>2020-05-20T15:41:40Z</time>
      </trkpt>
      <trkpt lat="43.253640" lon="-4.841390">
        <ele>335.018</ele>
        <time>2020-05-20T15:42:00Z</time>
      </trkpt>
      <trkpt lat="43.253640" lon="-4.841380">
        <ele>334.898</ele>
        <time>2020-05-20T15:42:20Z</time>
      </trkpt>
      <trkpt lat="43.253650" lon="-4.841360">
        <ele>335.117</ele>
        <time>2020-05-20T15:42:40Z</time>
      </trkpt>
      <trkpt lat="43.253660" lon="-4.841340">
        <ele>335.408</ele>
        <time>2020-05-20T15:43:00Z</time>
      </trkpt>
      <trkpt lat="43.253670" lon="-4.841320">
        <ele>335.735</ele>
        <time>2020-05-20T15:43:20Z</time>
      </trkpt>
      <trkpt lat="43.253670" lon="-4.841310">
        <ele>335.560</ele>
        <time>2020-05-20T15:43:40Z</time>
      </trkpt>
      <trkpt lat="43.253680" lon="-4.841300">
        <ele>336.056</ele>
        <time>2020-05-20T15:44:00Z</time>
      </trkpt>
      <trkpt lat="43.253680" lon="-4.841290">
        <ele>335.889</ele>
        <time>2020-05-20T15:44:20Z</time>
      </trkpt>
      <trkpt lat="43.253680" lon="-4.841270">
        <ele>335.519</ele>
        <time>2020-05-20T15:44:40Z</time>
      </trkpt>
      <trkpt lat="43.253680" lon="-4.841260">
        <ele>335.399</ele>
        <time>2020-05-20T15:45:00Z</time>
      </trkpt>
      <trkpt lat="43.253680" lon="-4.841250">
        <ele>335.119</ele>
        <time>2020-05-20T15:45:20Z</time>
      </trkpt>
      <trkpt lat="43.253680" lon="-4.841240">
        <ele>334.958</ele>
        <time>2020-05-20T15:45:40Z</time>
      </trkpt>
      <trkpt lat="43.253680" lon="-4.841230">
        <ele>334.715</ele>
        <time>2020-05-20T15:46:00Z</time>
      </trkpt>
      <trkpt lat="43.253680" lon="-4.841210">
        <ele>334.365</ele>
        <time>2020-05-20T15:46:20Z</time>
      </trkpt>
      <trkpt lat="43.253670" lon="-4.841200">
        <ele>333.411</ele>
        <time>2020-05-20T15:46:40Z</time>
      </trkpt>
      <trkpt lat="43.253660" lon="-4.841190">
        <ele>332.408</ele>
        <time>2020-05-20T15:47:00Z</time>
      </trkpt>
      <trkpt lat="43.253660" lon="-4.841180">
        <ele>332.265</ele>
        <time>2020-05-20T15:47:20Z</time>
      </trkpt>
      <trkpt lat="43.253650" lon="-4.841170">
        <ele>331.360</ele>
        <time>2020-05-20T15:47:40Z</time>
      </trkpt>
      <trkpt lat="43.253640" lon="-4.841160">
        <ele>330.346</ele>
        <time>2020-05-20T15:48:00Z</time>
      </trkpt>
      <trkpt lat="43.253640" lon="-4.841150">
        <ele>330.189</ele>
        <time>2020-05-20T15:48:20Z</time>
      </trkpt>
      <trkpt lat="43.253630" lon="-4.841130">
        <ele>328.969</ele>
        <time>2020-05-20T15:48:40Z</time>
      </trkpt>
      <trkpt lat="43.253620" lon="-4.841120">
        <ele>327.989</ele>
        <time>2020-05-20T15:49:00Z</time>
      </trkpt>
      <trkpt lat="43.253610" lon="-4.841110">
        <ele>326.999</ele>
        <time>2020-05-20T15:49:20Z</time>
      </trkpt>
      <trkpt lat="43.253600" lon="-4.841100">
        <ele>326.118</ele>
        <time>2020-05-20T15:49:40Z</time>
      </trkpt>
      <trkpt lat="43.253590" lon="-4.841090">
        <ele>325.323</ele>
        <time>2020-05-20T15:50:00Z</time>
      </trkpt>
      <trkpt lat="43.253590" lon="-4.841080">
        <ele>325.383</ele>
        <time>2020-05-20T15:50:20Z</time>
      </trkpt>
      <trkpt lat="43.253580" lon="-4.841070">
        <ele>324.511</ele>
        <time>2020-05-20T15:50:40Z</time>
      </trkpt>
      <trkpt lat="43.253580" lon="-4.841050">
        <ele>324.708</ele>
        <time>2020-05-20T15:51:00Z</time>
      </trkpt>
      <trkpt lat="43.253580" lon="-4.841040">
        <ele>324.856</ele>
        <time>2020-05-20T15:51:20Z</time>
      </trkpt>
      <trkpt lat="43.253580" lon="-4.841020">
        <ele>324.921</ele>
        <time>2020-05-20T15:51:40Z</time>
      </trkpt>
      <trkpt lat="43.253580" lon="-4.841010">
        <ele>325.087</ele>
        <time>2020-05-20T15:52:00Z</time>
      </trkpt>
      <trkpt lat="43.253570" lon="-4.840990">
        <ele>324.390</ele>
        <time>2020-05-20T15:52:20Z</time>
      </trkpt>
      <trkpt lat="43.253570" lon="-4.840980">
        <ele>324.450</ele>
        <time>2020-05-20T15:52:40Z</time>
      </trkpt>
      <trkpt lat="43.253560" lon="-4.840960">
        <ele>323.730</ele>
        <time>2020-05-20T15:53:00Z</time>
      </trkpt>
      <trkpt lat="43.253560" lon="-4.840940">
        <ele>323.990</ele>
        <time>2020-05-20T15:53:20Z</time>
      </trkpt>
      <trkpt lat="43.253550" lon="-4.840930">
        <ele>323.159</ele>
        <time>2020-05-20T15:53:40Z</time>
      </trkpt>
      <trkpt lat="43.253550" lon="-4.840920">
        <ele>323.257</ele>
        <time>2020-05-20T15:54:00Z</time>
      </trkpt>
      <trkpt lat="43.253540" lon="-4.840900">
        <ele>322.500</ele>
        <time>2020-05-20T15:54:20Z</time>
      </trkpt>
      <trkpt lat="43.253530" lon="-4.840890">
        <ele>321.820</ele>
        <time>2020-05-20T15:54:40Z</time>
      </trkpt>
      <trkpt lat="43.253520" lon="-4.840870">
        <ele>321.108</ele>
        <time>2020-05-20T15:55:00Z</time>
      </trkpt>
      <trkpt lat="43.253520" lon="-4.840850">
        <ele>321.369</ele>
        <time>2020-05-20T15:55:20Z</time>
      </trkpt>
      <trkpt lat="43.253510" lon="-4.840840">
        <ele>320.644</ele>
        <time>2020-05-20T15:55:40Z</time>
      </trkpt>
      <trkpt lat="43.253500" lon="-4.840830">
        <ele>319.890</ele>
        <time>2020-05-20T15:56:00Z</time>
      </trkpt>
      <trkpt lat="43.253490" lon="-4.840810">
        <ele>319.223</ele>
        <time>2020-05-20T15:56:20Z</time>
      </trkpt>
      <trkpt lat="43.253480" lon="-4.840800">
        <ele>318.453</ele>
        <time>2020-05-20T15:56:40Z</time>
      </trkpt>
      <trkpt lat="43.253470" lon="-4.840790">
        <ele>317.733</ele>
        <time>2020-05-20T15:57:00Z</time>
      </trkpt>
      <trkpt lat="43.253460" lon="-4.840780">
        <ele>317.053</ele>
        <time>2020-05-20T15:57:20Z</time>
      </trkpt>
      <trkpt lat="43.253450" lon="-4.840770">
        <ele>316.362</ele>
        <time>2020-05-20T15:57:40Z</time>
      </trkpt>
      <trkpt lat="43.253440" lon="-4.840760">
        <ele>315.646</ele>
        <time>2020-05-20T15:58:00Z</time>
      </trkpt>
      <trkpt lat="43.253420" lon="-4.840750">
        <ele>314.288</ele>
        <time>2020-05-20T15:58:20Z</time>
      </trkpt>
      <trkpt lat="43.253410" lon="-4.840730">
        <ele>313.716</ele>
        <time>2020-05-20T15:58:40Z</time>
      </trkpt>
      <trkpt lat="43.253390" lon="-4.840720">
        <ele>312.308</ele>
        <time>2020-05-20T15:59:00Z</time>
      </trkpt>
      <trkpt lat="43.253370" lon="-4.840700">
        <ele>311.118</ele>
        <time>2020-05-20T15:59:20Z</time>
      </trkpt>
      <trkpt lat="43.253360" lon="-4.840690">
        <ele>310.583</ele>
        <time>2020-05-20T15:59:40Z</time>
      </trkpt>
      <trkpt lat="43.253350" lon="-4.840690">
        <ele>309.819</ele>
        <time>2020-05-20T16:00:00Z</time>
      </trkpt>
      <trkpt lat="43.253340" lon="-4.840680">
        <ele>309.242</ele>
        <time>2020-05-20T16:00:20Z</time>
      </trkpt>
      <trkpt lat="43.253330" lon="-4.840670">
        <ele>308.892</ele>
        <time>2020-05-20T16:00:40Z</time>
      </trkpt>
      <trkpt lat="43.253330" lon="-4.840660">
        <ele>309.082</ele>
        <time>2020-05-20T16:01:00Z</time>
      </trkpt>
      <trkpt lat="43.253320" lon="-4.840640">
        <ele>308.882</ele>
        <time>2020-05-20T16:01:20Z</time>
      </trkpt>
      <trkpt lat="43.253320" lon="-4.840630">
        <ele>309.091</ele>
        <time>2020-05-20T16:01:40Z</time>
      </trkpt>
      <trkpt lat="43.253320" lon="-4.840610">
        <ele>309.414</ele>
        <time>2020-05-20T16:02:00Z</time>
      </trkpt>
      <trkpt lat="43.253320" lon="-4.840590">
        <ele>309.754</ele>
        <time>2020-05-20T16:02:20Z</time>
      </trkpt>
      <trkpt lat="43.253320" lon="-4.840570">
        <ele>310.109</ele>
        <time>2020-05-20T16:02:40Z</time>
      </trkpt>
      <trkpt lat="43.253320" lon="-4.840550">
        <ele>310.208</ele>
        <time>2020-05-20T16:03:00Z</time>
      </trkpt>
      <trkpt lat="43.253320" lon="-4.840530">
        <ele>309.755</ele>
        <time>2020-05-20T16:03:20Z</time>
      </trkpt>
      <trkpt lat="43.253320" lon="-4.840510">
        <ele>309.230</ele>
        <time>2020-05-20T16:03:40Z</time>
      </trkpt>
      <trkpt lat="43.253330" lon="-4.840490">
        <ele>309.246</ele>
        <time>2020-05-20T16:04:00Z</time>
      </trkpt>
      <trkpt lat="43.253330" lon="-4.840480">
        <ele>308.929</ele>
        <time>2020-05-20T16:04:20Z</time>
      </trkpt>
      <trkpt lat="43.253330" lon="-4.840470">
        <ele>308.739</ele>
        <time>2020-05-20T16:04:40Z</time>
      </trkpt>
      <trkpt lat="43.253330" lon="-4.840460">
        <ele>308.479</ele>
        <time>2020-05-20T16:05:00Z</time>
      </trkpt>
      <trkpt lat="43.253330" lon="-4.840450">
        <ele>308.269</ele>
        <time>2020-05-20T16:05:20Z</time>
      </trkpt>
      <trkpt lat="43.253330" lon="-4.840430">
        <ele>307.728</ele>
        <time>2020-05-20T16:05:40Z</time>
      </trkpt>
      <trkpt lat="43.253340" lon="-4.840420">
        <ele>308.028</ele>
        <time>2020-05-20T16:06:00Z</time>
      </trkpt>
      <trkpt lat="43.253340" lon="-4.840410">
        <ele>307.889</ele>
        <time>2020-05-20T16:06:20Z</time>
      </trkpt>
      <trkpt lat="43.253340" lon="-4.840400">
        <ele>307.517</ele>
        <time>2020-05-20T16:06:40Z</time>
      </trkpt>
      <trkpt lat="43.253350" lon="-4.840380">
        <ele>307.708</ele>
        <time>2020-05-20T16:07:00Z</time>
      </trkpt>
      <trkpt lat="43.253350" lon="-4.840370">
        <ele>307.496</ele>
        <time>2020-05-20T16:07:20Z</time>
      </trkpt>
      <trkpt lat="43.253360" lon="-4.840370">
        <ele>308.191</ele>
        <time>2020-05-20T16:07:40Z</time>
      </trkpt>
      <trkpt lat="43.253360" lon="-4.840360">
        <ele>307.947</ele>
        <time>2020-05-20T16:08:00Z</time>
      </trkpt>
      <trkpt lat="43.253370" lon="-4.840350">
        <ele>308.360</ele>
        <time>2020-05-20T16:08:20Z</time>
      </trkpt>
      <trkpt lat="43.253380" lon="-4.840350">
        <ele>309.010</ele>
        <time>2020-05-20T16:08:40Z</time>
      </trkpt>
      <trkpt lat="43.253390" lon="-4.840340">
        <ele>309.480</ele>
        <time>2020-05-20T16:09:00Z</time>
      </trkpt>
      <trkpt lat="43.253400" lon="-4.840340">
        <ele>310.180</ele>
        <time>2020-05-20T16:09:20Z</time>
      </trkpt>
      <trkpt lat="43.253410" lon="-4.840340">
        <ele>310.899</ele>
        <time>2020-05-20T16:09:40Z</time>
      </trkpt>
      <trkpt lat="43.253420" lon="-4.840330">
        <ele>311.215</ele>
        <time>2020-05-20T16:10:00Z</time>
      </trkpt>
      <trkpt lat="43.253430" lon="-4.840330">
        <ele>311.965</ele>
        <time>2020-05-20T16:10:20Z</time>
      </trkpt>
      <trkpt lat="43.253440" lon="-4.840330">
        <ele>312.511</ele>
        <time>2020-05-20T16:10:40Z</time>
      </trkpt>
      <trkpt lat="43.253450" lon="-4.840330">
        <ele>313.208</ele>
        <time>2020-05-20T16:11:00Z</time>
      </trkpt>
      <trkpt lat="43.253460" lon="-4.840320">
        <ele>313.745</ele>
        <time>2020-05-20T16:11:20Z</time>
      </trkpt>
      <trkpt lat="43.253480" lon="-4.840320">
        <ele>315.080</ele>
        <time>2020-05-20T16:11:40Z</time>
      </trkpt>
      <trkpt lat="43.253490" lon="-4.840310">
        <ele>315.536</ele>
        <time>2020-05-20T16:12:00Z</time>
      </trkpt>
      <trkpt lat="43.253500" lon="-4.840300">
        <ele>315.959</ele>
        <time>2020-05-20T16:12:20Z</time>
      </trkpt>
      <trkpt lat="43.253510" lon="-4.840280">
        <ele>316.159</ele>
        <time>2020-05-20T16:12:40Z</time>
      </trkpt>
      <trkpt lat="43.253510" lon="-4.840260">
        <ele>315.539</ele>
        <time>2020-05-20T16:13:00Z</time>
      </trkpt>
      <trkpt lat="43.253520" lon="-4.840240">
        <ele>315.589</ele>
        <time>2020-05-20T16:13:20Z</time>
      </trkpt>
      <trkpt lat="43.253530" lon="-4.840220">
        <ele>315.658</ele>
        <time>2020-05-20T16:13:40Z</time>
      </trkpt>
      <trkpt lat="43.253540" lon="-4.840210">
        <ele>316.065</ele>
        <time>2020-05-20T16:14:00Z</time>
      </trkpt>
      <trkpt lat="43.253550" lon="-4.840190">
        <ele>316.168</ele>
        <time>2020-05-20T16:14:20Z</time>
      </trkpt>
      <trkpt lat="43.253570" lon="-4.840170">
        <ele>316.914</ele>
        <time>2020-05-20T16:14:40Z</time>
      </trkpt>
      <trkpt lat="43.253570" lon="-4.840160">
        <ele>316.608</ele>
        <time>2020-05-20T16:15:00Z</time>
      </trkpt>
      <trkpt lat="43.253580" lon="-4.840150">
        <ele>317.090</ele>
        <time>2020-05-20T16:15:20Z</time>
      </trkpt>
      <trkpt lat="43.253600" lon="-4.840130">
        <ele>317.955</ele>
        <time>2020-05-20T16:15:40Z</time>
      </trkpt>
      <trkpt lat="43.253610" lon="-4.840110">
        <ele>318.121</ele>
        <time>2020-05-20T16:16:00Z</time>
      </trkpt>
      <trkpt lat="43.253620" lon="-4.840090">
        <ele>318.984</ele>
        <time>2020-05-20T16:16:20Z</time>
      </trkpt>
      <trkpt lat="43.253630" lon="-4.840070">
        <ele>319.814</ele>
        <time>2020-05-20T16:16:40Z</time>
      </trkpt>
      <trkpt lat="43.253640" lon="-4.840050">
        <ele>320.784</ele>
        <time>2020-05-20T16:17:00Z</time>
      </trkpt>
      <trkpt lat="43.253650" lon="-4.840030">
        <ele>321.624</ele>
        <time>2020-05-20T16:17:20Z</time>
      </trkpt>
      <trkpt lat="43.253660" lon="-4.840020">
        <ele>322.813</ele>
        <time>2020-05-20T16:17:40Z</time>
      </trkpt>
      <trkpt lat="43.253670" lon="-4.840000">
        <ele>323.729</ele>
        <time>2020-05-20T16:18:00Z</time>
      </trkpt>
      <trkpt lat="43.253670" lon="-4.839990">
        <ele>323.600</ele>
        <time>2020-05-20T16:18:20Z</time>
      </trkpt>
      <trkpt lat="43.253670" lon="-4.839980">
        <ele>323.520</ele>
        <time>2020-05-20T16:18:40Z</time>
      </trkpt>
      <trkpt lat="43.253680" lon="-4.839970">
        <ele>324.908</ele>
        <time>2020-05-20T16:19:00Z</time>
      </trkpt>
      <trkpt lat="43.253680" lon="-4.839960">
        <ele>324.826</ele>
        <time>2020-05-20T16:19:20Z</time>
      </trkpt>
      <trkpt lat="43.253680" lon="-4.839950">
        <ele>324.861</ele>
        <time>2020-05-20T16:19:40Z</time>
      </trkpt>
      <trkpt lat="43.253680" lon="-4.839940">
        <ele>324.777</ele>
        <time>2020-05-20T16:20:00Z</time>
      </trkpt>
      <trkpt lat="43.253680" lon="-4.839920">
        <ele>324.590</ele>
        <time>2020-05-20T16:20:20Z</time>
      </trkpt>
      <trkpt lat="43.253680" lon="-4.839900">
        <ele>324.420</ele>
        <time>2020-05-20T16:20:40Z</time>
      </trkpt>
      <trkpt lat="43.253680" lon="-4.839890">
        <ele>324.320</ele>
        <time>2020-05-20T16:21:00Z</time>
      </trkpt>
      <trkpt lat="43.253680" lon="-4.839870">
        <ele>324.180</ele>
        <time>2020-05-20T16:21:20Z</time>
      </trkpt>
      <trkpt lat="43.253670" lon="-4.839850">
        <ele>322.669</ele>
        <time>2020-05-20T16:21:40Z</time>
      </trkpt>
      <trkpt lat="43.253670" lon="-4.839840">
        <ele>322.558</ele>
        <time>2020-05-20T16:22:00Z</time>
      </trkpt>
      <trkpt lat="43.253660" lon="-4.839820">
        <ele>321.052</ele>
        <time>2020-05-20T16:22:20Z</time>
      </trkpt>
      <trkpt lat="43.253660" lon="-4.839810">
        <ele>320.917</ele>
        <time>2020-05-20T16:22:40Z</time>
      </trkpt>
      <trkpt lat="43.253650" lon="-4.839800">
        <ele>319.508</ele>
        <time>2020-05-20T16:23:00Z</time>
      </trkpt>
      <trkpt lat="43.253650" lon="-4.839780">
        <ele>319.449</ele>
        <time>2020-05-20T16:23:20Z</time>
      </trkpt>
      <trkpt lat="43.253640" lon="-4.839760">
        <ele>318.054</ele>
        <time>2020-05-20T16:23:40Z</time>
      </trkpt>
      <trkpt lat="43.253630" lon="-4.839750">
        <ele>316.680</ele>
        <time>2020-05-20T16:24:00Z</time>
      </trkpt>
      <trkpt lat="43.253630" lon="-4.839730">
        <ele>316.543</ele>
        <time>2020-05-20T16:24:20Z</time>
      </trkpt>
      <trkpt lat="43.253620" lon="-4.839730">
        <ele>315.243</ele>
        <time>2020-05-20T16:24:40Z</time>
      </trkpt>
      <trkpt lat="43.253620" lon="-4.839700">
        <ele>315.883</ele>
        <time>2020-05-20T16:25:00Z</time>
      </trkpt>
      <trkpt lat="43.253610" lon="-4.839690">
        <ele>314.833</ele>
        <time>2020-05-20T16:25:20Z</time>
      </trkpt>
      <trkpt lat="43.253600" lon="-4.839670">
        <ele>314.472</ele>
        <time>2020-05-20T16:25:40Z</time>
      </trkpt>
      <trkpt lat="43.253590" lon="-4.839650">
        <ele>313.985</ele>
        <time>2020-05-20T16:26:00Z</time>
      </trkpt>
      <trkpt lat="43.253580" lon="-4.839630">
        <ele>313.489</ele>
        <time>2020-05-20T16:26:20Z</time>
      </trkpt>
      <trkpt lat="43.253560" lon="-4.839610">
        <ele>311.817</ele>
        <time>2020-05-20T16:26:40Z</time>
      </trkpt>
      <trkpt lat="43.253550" lon="-4.839590">
        <ele>311.208</ele>
        <time>2020-05-20T16:27:00Z</time>
      </trkpt>
      <trkpt lat="43.253530" lon="-4.839560">
        <ele>309.852</ele>
        <time>2020-05-20T16:27:20Z</time>
      </trkpt>
      <trkpt lat="43.253510" lon="-4.839530">
        <ele>308.347</ele>
        <time>2020-05-20T16:27:40Z</time>
      </trkpt>
      <trkpt lat="43.253500" lon="-4.839520">
        <ele>307.573</ele>
        <time>2020-05-20T16:28:00Z</time>
      </trkpt>
      <trkpt lat="43.253480" lon="-4.839480">
        <ele>306.116</ele>
        <time>2020-05-20T16:28:20Z</time>
      </trkpt>
      <trkpt lat="43.253470" lon="-4.839440">
        <ele>305.856</ele>
        <time>2020-05-20T16:28:40Z</time>
      </trkpt>
      <trkpt lat="43.253450" lon="-4.839400">
        <ele>303.756</ele>
        <time>2020-05-20T16:29:00Z</time>
      </trkpt>
      <trkpt lat="43.253440" lon="-4.839350">
        <ele>302.816</ele>
        <time>2020-05-20T16:29:20Z</time>
      </trkpt>
      <trkpt lat="43.253430" lon="-4.839320">
        <ele>301.975</ele>
        <time>2020-05-20T16:29:40Z</time>
      </trkpt>
      <trkpt lat="43.253430" lon="-4.839300">
        <ele>302.023</ele>
        <time>2020-05-20T16:30:00Z</time>
      </trkpt>
      <trkpt lat="43.253420" lon="-4.839250">
        <ele>301.283</ele>
        <time>2020-05-20T16:30:20Z</time>
      </trkpt>
      <trkpt lat="43.253420" lon="-4.839200">
        <ele>301.511</ele>
        <time>2020-05-20T16:30:40Z</time>
      </trkpt>
      <trkpt lat="43.253420" lon="-4.839130">
        <ele>300.208</ele>
        <time>2020-05-20T16:31:00Z</time>
      </trkpt>
      <trkpt lat="43.253420" lon="-4.839100">
        <ele>298.976</ele>
        <time>2020-05-20T16:31:20Z</time>
      </trkpt>
      <trkpt lat="43.253420" lon="-4.839080">
        <ele>298.171</ele>
        <time>2020-05-20T16:31:40Z</time>
      </trkpt>
      <trkpt lat="43.253420" lon="-4.839060">
        <ele>297.227</ele>
        <time>2020-05-20T16:32:00Z</time>
      </trkpt>
      <trkpt lat="43.253420" lon="-4.839040">
        <ele>296.430</ele>
        <time>2020-05-20T16:32:20Z</time>
      </trkpt>
      <trkpt lat="43.253430" lon="-4.839010">
        <ele>295.950</ele>
        <time>2020-05-20T16:32:40Z</time>
      </trkpt>
      <trkpt lat="43.253440" lon="-4.838990">
        <ele>295.720</ele>
        <time>2020-05-20T16:33:00Z</time>
      </trkpt>
      <trkpt lat="43.253450" lon="-4.838970">
        <ele>295.540</ele>
        <time>2020-05-20T16:33:20Z</time>
      </trkpt>
      <trkpt lat="43.253460" lon="-4.838950">
        <ele>295.369</ele>
        <time>2020-05-20T16:33:40Z</time>
      </trkpt>
      <trkpt lat="43.253470" lon="-4.838940">
        <ele>295.497</ele>
        <time>2020-05-20T16:34:00Z</time>
      </trkpt>
      <trkpt lat="43.253500" lon="-4.838940">
        <ele>297.423</ele>
        <time>2020-05-20T16:34:20Z</time>
      </trkpt>
      <trkpt lat="43.253520" lon="-4.838940">
        <ele>298.725</ele>
        <time>2020-05-20T16:34:40Z</time>
      </trkpt>
      <trkpt lat="43.253530" lon="-4.838940">
        <ele>299.408</ele>
        <time>2020-05-20T16:35:00Z</time>
      </trkpt>
      <trkpt lat="43.253570" lon="-4.838940">
        <ele>302.093</ele>
        <time>2020-05-20T16:35:20Z</time>
      </trkpt>
      <trkpt lat="43.253620" lon="-4.838950">
        <ele>305.778</ele>
        <time>2020-05-20T16:35:40Z</time>
      </trkpt>
      <trkpt lat="43.253660" lon="-4.838950">
        <ele>307.294</ele>
        <time>2020-05-20T16:36:00Z</time>
      </trkpt>
      <trkpt lat="43.253710" lon="-4.838960">
        <ele>309.947</ele>
        <time>2020-05-20T16:36:20Z</time>
      </trkpt>
      <trkpt lat="43.253760" lon="-4.838960">
        <ele>311.857</ele>
        <time>2020-05-20T16:36:40Z</time>
      </trkpt>
      <trkpt lat="43.253830" lon="-4.838950">
        <ele>313.627</ele>
        <time>2020-05-20T16:37:00Z</time>
      </trkpt>
      <trkpt lat="43.253850" lon="-4.838940">
        <ele>313.677</ele>
        <time>2020-05-20T16:37:20Z</time>
      </trkpt>
      <trkpt lat="43.253870" lon="-4.838920">
        <ele>312.876</ele>
        <time>2020-05-20T16:37:40Z</time>
      </trkpt>
      <trkpt lat="43.253890" lon="-4.838910">
        <ele>312.798</ele>
        <time>2020-05-20T16:38:00Z</time>
      </trkpt>
      <trkpt lat="43.253910" lon="-4.838900">
        <ele>313.315</ele>
        <time>2020-05-20T16:38:20Z</time>
      </trkpt>
      <trkpt lat="43.253920" lon="-4.838890">
        <ele>313.226</ele>
        <time>2020-05-20T16:38:40Z</time>
      </trkpt>
      <trkpt lat="43.253940" lon="-4.838880">
        <ele>313.808</ele>
        <time>2020-05-20T16:39:00Z</time>
      </trkpt>
      <trkpt lat="43.253960" lon="-4.838870">
        <ele>314.583</ele>
        <time>2020-05-20T16:39:20Z</time>
      </trkpt>
      <trkpt lat="43.253970" lon="-4.838860">
        <ele>314.548</ele>
        <time>2020-05-20T16:39:40Z</time>
      </trkpt>
      <trkpt lat="43.253980" lon="-4.838860">
        <ele>315.284</ele>
        <time>2020-05-20T16:40:00Z</time>
      </trkpt>
      <trkpt lat="43.253980" lon="-4.838850">
        <ele>314.597</ele>
        <time>2020-05-20T16:40:20Z</time>
      </trkpt>
      <trkpt lat="43.253990" lon="-4.838840">
        <ele>314.577</ele>
        <time>2020-05-20T16:40:40Z</time>
      </trkpt>
      <trkpt lat="43.254000" lon="-4.838820">
        <ele>313.817</ele>
        <time>2020-05-20T16:41:00Z</time>
      </trkpt>
      <trkpt lat="43.254000" lon="-4.838810">
        <ele>313.137</ele>
        <time>2020-05-20T16:41:20Z</time>
      </trkpt>
      <trkpt lat="43.254010" lon="-4.838790">
        <ele>312.426</ele>
        <time>2020-05-20T16:41:40Z</time>
      </trkpt>
      <trkpt lat="43.254020" lon="-4.838770">
        <ele>311.832</ele>
        <time>2020-05-20T16:42:00Z</time>
      </trkpt>
      <trkpt lat="43.254020" lon="-4.838760">
        <ele>311.192</ele>
        <time>2020-05-20T16:42:20Z</time>
      </trkpt>
      <trkpt lat="43.254030" lon="-4.838740">
        <ele>310.511</ele>
        <time>2020-05-20T16:42:40Z</time>
      </trkpt>
      <trkpt lat="43.254040" lon="-4.838730">
        <ele>310.608</ele>
        <time>2020-05-20T16:43:00Z</time>
      </trkpt>
      <trkpt lat="43.254050" lon="-4.838730">
        <ele>311.327</ele>
        <time>2020-05-20T16:43:20Z</time>
      </trkpt>
      <trkpt lat="43.254050" lon="-4.838720">
        <ele>310.712</ele>
        <time>2020-05-20T16:43:40Z</time>
      </trkpt>
      <trkpt lat="43.254060" lon="-4.838710">
        <ele>310.878</ele>
        <time>2020-05-20T16:44:00Z</time>
      </trkpt>
      <trkpt lat="43.254080" lon="-4.838710">
        <ele>312.351</ele>
        <time>2020-05-20T16:44:20Z</time>
      </trkpt>
      <trkpt lat="43.254090" lon="-4.838700">
        <ele>312.431</ele>
        <time>2020-05-20T16:44:40Z</time>
      </trkpt>
      <trkpt lat="43.254100" lon="-4.838700">
        <ele>313.221</ele>
        <time>2020-05-20T16:45:00Z</time>
      </trkpt>
      <trkpt lat="43.254110" lon="-4.838690">
        <ele>313.461</ele>
        <time>2020-05-20T16:45:20Z</time>
      </trkpt>
      <trkpt lat="43.254120" lon="-4.838690">
        <ele>314.270</ele>
        <time>2020-05-20T16:45:40Z</time>
      </trkpt>
      <trkpt lat="43.254120" lon="-4.838670">
        <ele>312.943</ele>
        <time>2020-05-20T16:46:00Z</time>
      </trkpt>
      <trkpt lat="43.254130" lon="-4.838660">
        <ele>313.064</ele>
        <time>2020-05-20T16:46:20Z</time>
      </trkpt>
      <trkpt lat="43.254130" lon="-4.838650">
        <ele>312.410</ele>
        <time>2020-05-20T16:46:40Z</time>
      </trkpt>
      <trkpt lat="43.254130" lon="-4.838640">
        <ele>311.808</ele>
        <time>2020-05-20T16:47:00Z</time>
      </trkpt>
      <trkpt lat="43.254130" lon="-4.838630">
        <ele>311.228</ele>
        <time>2020-05-20T16:47:20Z</time>
      </trkpt>
      <trkpt lat="43.254130" lon="-4.838620">
        <ele>310.563</ele>
        <time>2020-05-20T16:47:40Z</time>
      </trkpt>
      <trkpt lat="43.254130" lon="-4.838610">
        <ele>309.919</ele>
        <time>2020-05-20T16:48:00Z</time>
      </trkpt>
      <trkpt lat="43.254130" lon="-4.838600">
        <ele>309.572</ele>
        <time>2020-05-20T16:48:20Z</time>
      </trkpt>
      <trkpt lat="43.254130" lon="-4.838590">
        <ele>309.192</ele>
        <time>2020-05-20T16:48:40Z</time>
      </trkpt>
      <trkpt lat="43.254130" lon="-4.838560">
        <ele>308.052</ele>
        <time>2020-05-20T16:49:00Z</time>
      </trkpt>
      <trkpt lat="43.254130" lon="-4.838540">
        <ele>307.212</ele>
        <time>2020-05-20T16:49:20Z</time>
      </trkpt>
      <trkpt lat="43.254120" lon="-4.838520">
        <ele>305.621</ele>
        <time>2020-05-20T16:49:40Z</time>
      </trkpt>
      <trkpt lat="43.254120" lon="-4.838500">
        <ele>304.947</ele>
        <time>2020-05-20T16:50:00Z</time>
      </trkpt>
      <trkpt lat="43.254120" lon="-4.838480">
        <ele>304.129</ele>
        <time>2020-05-20T16:50:20Z</time>
      </trkpt>
      <trkpt lat="43.254120" lon="-4.838460">
        <ele>303.321</ele>
        <time>2020-05-20T16:50:40Z</time>
      </trkpt>
      <trkpt lat="43.254120" lon="-4.838450">
        <ele>303.008</ele>
        <time>2020-05-20T16:51:00Z</time>
      </trkpt>
      <trkpt lat="43.254120" lon="-4.838430">
        <ele>302.258</ele>
        <time>2020-05-20T16:51:20Z</time>
      </trkpt>
      <trkpt lat="43.254120" lon="-4.838410">
        <ele>301.433</ele>
        <time>2020-05-20T16:51:40Z</time>
      </trkpt>
      <trkpt lat="43.254130" lon="-4.838400">
        <ele>301.829</ele>
        <time>2020-05-20T16:52:00Z</time>
      </trkpt>
      <trkpt lat="43.254140" lon="-4.838390">
        <ele>302.212</ele>
        <time>2020-05-20T16:52:20Z</time>
      </trkpt>
      <trkpt lat="43.254140" lon="-4.838370">
        <ele>301.492</ele>
        <time>2020-05-20T16:52:40Z</time>
      </trkpt>
      <trkpt lat="43.254140" lon="-4.838360">
        <ele>301.032</ele>
        <time>2020-05-20T16:53:00Z</time>
      </trkpt>
      <trkpt lat="43.254140" lon="-4.838350">
        <ele>300.642</ele>
        <time>2020-05-20T16:53:20Z</time>
      </trkpt>
      <trkpt lat="43.254140" lon="-4.838330">
        <ele>299.961</ele>
        <time>2020-05-20T16:53:40Z</time>
      </trkpt>
      <trkpt lat="43.254150" lon="-4.838310">
        <ele>299.965</ele>
        <time>2020-05-20T16:54:00Z</time>
      </trkpt>
      <trkpt lat="43.254150" lon="-4.838290">
        <ele>299.268</ele>
        <time>2020-05-20T16:54:20Z</time>
      </trkpt>
      <trkpt lat="43.254150" lon="-4.838280">
        <ele>298.814</ele>
        <time>2020-05-20T16:54:40Z</time>
      </trkpt>
      <trkpt lat="43.254140" lon="-4.838260">
        <ele>297.408</ele>
        <time>2020-05-20T16:55:00Z</time>
      </trkpt>
      <trkpt lat="43.254140" lon="-4.838240">
        <ele>296.720</ele>
        <time>2020-05-20T16:55:20Z</time>
      </trkpt>
      <trkpt lat="43.254140" lon="-4.838230">
        <ele>296.355</ele>
        <time>2020-05-20T16:55:40Z</time>
      </trkpt>
      <trkpt lat="43.254140" lon="-4.838210">
        <ele>295.651</ele>
        <time>2020-05-20T16:56:00Z</time>
      </trkpt>
      <trkpt lat="43.254140" lon="-4.838200">
        <ele>295.344</ele>
        <time>2020-05-20T16:56:20Z</time>
      </trkpt>
      <trkpt lat="43.254150" lon="-4.838190">
        <ele>295.614</ele>
        <time>2020-05-20T16:56:40Z</time>
      </trkpt>
      <trkpt lat="43.254150" lon="-4.838170">
        <ele>294.964</ele>
        <time>2020-05-20T16:57:00Z</time>
      </trkpt>
      <trkpt lat="43.254150" lon="-4.838160">
        <ele>294.644</ele>
        <time>2020-05-20T16:57:20Z</time>
      </trkpt>
      <trkpt lat="43.254150" lon="-4.838150">
        <ele>294.253</ele>
        <time>2020-05-20T16:57:40Z</time>
      </trkpt>
      <trkpt lat="43.254160" lon="-4.838130">
        <ele>294.241</ele>
        <time>2020-05-20T16:58:00Z</time>
      </trkpt>
      <trkpt lat="43.254160" lon="-4.838120">
        <ele>293.981</ele>
        <time>2020-05-20T16:58:20Z</time>
      </trkpt>
      <trkpt lat="43.254160" lon="-4.838110">
        <ele>293.509</ele>
        <time>2020-05-20T16:58:40Z</time>
      </trkpt>
      <trkpt lat="43.254160" lon="-4.838100">
        <ele>293.108</ele>
        <time>2020-05-20T16:59:00Z</time>
      </trkpt>
      <trkpt lat="43.254160" lon="-4.838080">
        <ele>292.448</ele>
        <time>2020-05-20T16:59:20Z</time>
      </trkpt>
      <trkpt lat="43.254170" lon="-4.838080">
        <ele>293.183</ele>
        <time>2020-05-20T16:59:40Z</time>
      </trkpt>
      <trkpt lat="43.254170" lon="-4.838070">
        <ele>292.819</ele>
        <time>2020-05-20T17:00:00Z</time>
      </trkpt>
      <trkpt lat="43.254180" lon="-4.838060">
        <ele>293.122</ele>
        <time>2020-05-20T17:00:20Z</time>
      </trkpt>
      <trkpt lat="43.254180" lon="-4.838050">
        <ele>292.782</ele>
        <time>2020-05-20T17:00:40Z</time>
      </trkpt>
      <trkpt lat="43.254180" lon="-4.838030">
        <ele>291.842</ele>
        <time>2020-05-20T17:01:00Z</time>
      </trkpt>
      <trkpt lat="43.254180" lon="-4.838020">
        <ele>291.412</ele>
        <time>2020-05-20T17:01:20Z</time>
      </trkpt>
      <trkpt lat="43.254190" lon="-4.838020">
        <ele>292.111</ele>
        <time>2020-05-20T17:01:40Z</time>
      </trkpt>
      <trkpt lat="43.254190" lon="-4.838010">
        <ele>291.737</ele>
        <time>2020-05-20T17:02:00Z</time>
      </trkpt>
      <trkpt lat="43.254190" lon="-4.837990">
        <ele>290.849</ele>
        <time>2020-05-20T17:02:20Z</time>
      </trkpt>
      <trkpt lat="43.254190" lon="-4.837980">
        <ele>290.413</ele>
        <time>2020-05-20T17:02:40Z</time>
      </trkpt>
      <trkpt lat="43.254190" lon="-4.837970">
        <ele>289.908</ele>
        <time>2020-05-20T17:03:00Z</time>
      </trkpt>
      <trkpt lat="43.254190" lon="-4.837950">
        <ele>289.157</ele>
        <time>2020-05-20T17:03:20Z</time>
      </trkpt>
      <trkpt lat="43.254200" lon="-4.837940">
        <ele>289.362</ele>
        <time>2020-05-20T17:03:40Z</time>
      </trkpt>
      <trkpt lat="43.254200" lon="-4.837930">
        <ele>288.968</ele>
        <time>2020-05-20T17:04:00Z</time>
      </trkpt>
      <trkpt lat="43.254200" lon="-4.837920">
        <ele>288.451</ele>
        <time>2020-05-20T17:04:20Z</time>
      </trkpt>
      <trkpt lat="43.254210" lon="-4.837900">
        <ele>288.241</ele>
        <time>2020-05-20T17:04:40Z</time>
      </trkpt>
      <trkpt lat="43.254210" lon="-4.837890">
        <ele>287.841</ele>
        <time>2020-05-20T17:05:00Z</time>
      </trkpt>
      <trkpt lat="43.254220" lon="-4.837880">
        <ele>288.051</ele>
        <time>2020-05-20T17:05:20Z</time>
      </trkpt>
      <trkpt lat="43.254220" lon="-4.837870">
        <ele>287.690</ele>
        <time>2020-05-20T17:05:40Z</time>
      </trkpt>
      <trkpt lat="43.254230" lon="-4.837860">
        <ele>287.866</ele>
        <time>2020-05-20T17:06:00Z</time>
      </trkpt>
      <trkpt lat="43.254230" lon="-4.837850">
        <ele>287.329</ele>
        <time>2020-05-20T17:06:20Z</time>
      </trkpt>
      <trkpt lat="43.254240" lon="-4.837840">
        <ele>287.621</ele>
        <time>2020-05-20T17:06:40Z</time>
      </trkpt>
      <trkpt lat="43.254240" lon="-4.837820">
        <ele>286.708</ele>
        <time>2020-05-20T17:07:00Z</time>
      </trkpt>
      <trkpt lat="43.254240" lon="-4.837810">
        <ele>286.270</ele>
        <time>2020-05-20T17:07:20Z</time>
      </trkpt>
      <trkpt lat="43.254250" lon="-4.837790">
        <ele>286.095</ele>
        <time>2020-05-20T17:07:40Z</time>
      </trkpt>
      <trkpt lat="43.254250" lon="-4.837780">
        <ele>285.541</ele>
        <time>2020-05-20T17:08:00Z</time>
      </trkpt>
      <trkpt lat="43.254250" lon="-4.837770">
        <ele>285.074</ele>
        <time>2020-05-20T17:08:20Z</time>
      </trkpt>
      <trkpt lat="43.254260" lon="-4.837760">
        <ele>285.214</ele>
        <time>2020-05-20T17:08:40Z</time>
      </trkpt>
      <trkpt lat="43.254260" lon="-4.837750">
        <ele>284.764</ele>
        <time>2020-05-20T17:09:00Z</time>
      </trkpt>
      <trkpt lat="43.254260" lon="-4.837740">
        <ele>284.244</ele>
        <time>2020-05-20T17:09:20Z</time>
      </trkpt>
      <trkpt lat="43.254260" lon="-4.837730">
        <ele>283.773</ele>
        <time>2020-05-20T17:09:40Z</time>
      </trkpt>
      <trkpt lat="43.254250" lon="-4.837730">
        <ele>283.199</ele>
        <time>2020-05-20T17:10:00Z</time>
      </trkpt>
      <trkpt lat="43.254250" lon="-4.837720">
        <ele>282.607</ele>
        <time>2020-05-20T17:10:20Z</time>
      </trkpt>
      <trkpt lat="43.254240" lon="-4.837720">
        <ele>281.927</ele>
        <time>2020-05-20T17:10:40Z</time>
      </trkpt>
      <trkpt lat="43.254230" lon="-4.837720">
        <ele>281.308</ele>
        <time>2020-05-20T17:11:00Z</time>
      </trkpt>
      <trkpt lat="43.254220" lon="-4.837720">
        <ele>280.723</ele>
        <time>2020-05-20T17:11:20Z</time>
      </trkpt>
      <trkpt lat="43.254210" lon="-4.837720">
        <ele>280.098</ele>
        <time>2020-05-20T17:11:40Z</time>
      </trkpt>
      <trkpt lat="43.254210" lon="-4.837730">
        <ele>280.564</ele>
        <time>2020-05-20T17:12:00Z</time>
      </trkpt>
      <trkpt lat="43.254200" lon="-4.837730">
        <ele>279.967</ele>
        <time>2020-05-20T17:12:20Z</time>
      </trkpt>
      <trkpt lat="43.254200" lon="-4.837740">
        <ele>280.417</ele>
        <time>2020-05-20T17:12:40Z</time>
      </trkpt>
      <trkpt lat="43.254190" lon="-4.837740">
        <ele>279.727</ele>
        <time>2020-05-20T17:13:00Z</time>
      </trkpt>
      <trkpt lat="43.254190" lon="-4.837750">
        <ele>280.287</ele>
        <time>2020-05-20T17:13:20Z</time>
      </trkpt>
      <trkpt lat="43.254180" lon="-4.837760">
        <ele>280.066</ele>
        <time>2020-05-20T17:13:40Z</time>
      </trkpt>
      <trkpt lat="43.254170" lon="-4.837770">
        <ele>279.913</ele>
        <time>2020-05-20T17:14:00Z</time>
      </trkpt>
      <trkpt lat="43.254170" lon="-4.837780">
        <ele>280.343</ele>
        <time>2020-05-20T17:14:20Z</time>
      </trkpt>
      <trkpt lat="43.254160" lon="-4.837790">
        <ele>280.107</ele>
        <time>2020-05-20T17:14:40Z</time>
      </trkpt>
      <trkpt lat="43.254150" lon="-4.837800">
        <ele>279.908</ele>
        <time>2020-05-20T17:15:00Z</time>
      </trkpt>
      <trkpt lat="43.254140" lon="-4.837810">
        <ele>279.745</ele>
        <time>2020-05-20T17:15:20Z</time>
      </trkpt>
      <trkpt lat="43.254130" lon="-4.837820">
        <ele>279.590</ele>
        <time>2020-05-20T17:15:40Z</time>
      </trkpt>
      <trkpt lat="43.254120" lon="-4.837820">
        <ele>278.976</ele>
        <time>2020-05-20T17:16:00Z</time>
      </trkpt>
      <trkpt lat="43.254110" lon="-4.837830">
        <ele>278.769</ele>
        <time>2020-05-20T17:16:20Z</time>
      </trkpt>
      <trkpt lat="43.254100" lon="-4.837830">
        <ele>278.129</ele>
        <time>2020-05-20T17:16:40Z</time>
      </trkpt>
      <trkpt lat="43.254090" lon="-4.837840">
        <ele>277.999</ele>
        <time>2020-05-20T17:17:00Z</time>
      </trkpt>
      <trkpt lat="43.254070" lon="-4.837850">
        <ele>277.079</ele>
        <time>2020-05-20T17:17:20Z</time>
      </trkpt>
      <trkpt lat="43.254070" lon="-4.837860">
        <ele>277.448</ele>
        <time>2020-05-20T17:17:40Z</time>
      </trkpt>
      <trkpt lat="43.254060" lon="-4.837870">
        <ele>277.212</ele>
        <time>2020-05-20T17:18:00Z</time>
      </trkpt>
      <trkpt lat="43.254050" lon="-4.837870">
        <ele>276.632</ele>
        <time>2020-05-20T17:18:20Z</time>
      </trkpt>
      <trkpt lat="43.254040" lon="-4.837880">
        <ele>276.305</ele>
        <time>2020-05-20T17:18:40Z</time>
      </trkpt>
      <trkpt lat="43.254030" lon="-4.837890">
        <ele>276.108</ele>
        <time>2020-05-20T17:19:00Z</time>
      </trkpt>
      <trkpt lat="43.254020" lon="-4.837910">
        <ele>276.295</ele>
        <time>2020-05-20T17:19:20Z</time>
      </trkpt>
      <trkpt lat="43.254020" lon="-4.837920">
        <ele>276.640</ele>
        <time>2020-05-20T17:19:40Z</time>
      </trkpt>
      <trkpt lat="43.254010" lon="-4.837930">
        <ele>276.486</ele>
        <time>2020-05-20T17:20:00Z</time>
      </trkpt>
      <trkpt lat="43.254000" lon="-4.837950">
        <ele>276.519</ele>
        <time>2020-05-20T17:20:20Z</time>
      </trkpt>
      <trkpt lat="43.253990" lon="-4.837960">
        <ele>276.229</ele>
        <time>2020-05-20T17:20:40Z</time>
      </trkpt>
      <trkpt lat="43.253980" lon="-4.837980">
        <ele>276.379</ele>
        <time>2020-05-20T17:21:00Z</time>
      </trkpt>
      <trkpt lat="43.253980" lon="-4.837990">
        <ele>276.759</ele>
        <time>2020-05-20T17:21:20Z</time>
      </trkpt>
      <trkpt lat="43.253960" lon="-4.838010">
        <ele>276.158</ele>
        <time>2020-05-20T17:21:40Z</time>
      </trkpt>
      <trkpt lat="43.253950" lon="-4.838010">
        <ele>275.562</ele>
        <time>2020-05-20T17:22:00Z</time>
      </trkpt>
      <trkpt lat="43.253920" lon="-4.838020">
        <ele>273.883</ele>
        <time>2020-05-20T17:22:20Z</time>
      </trkpt>
      <trkpt lat="43.253923" lon="-4.838020">
        <ele>274.011</ele>
        <time>2020-05-20T17:22:40Z</time>
      </trkpt>
      <trkpt lat="43.253920" lon="-4.837950">
        <ele>271.208</ele>
        <time>2020-05-20T17:23:00Z</time>
      </trkpt>
      <trkpt lat="43.253920" lon="-4.837900">
        <ele>269.490</ele>
        <time>2020-05-20T17:23:20Z</time>
      </trkpt>
      <trkpt lat="43.253920" lon="-4.837870">
        <ele>268.365</ele>
        <time>2020-05-20T17:23:40Z</time>
      </trkpt>
      <trkpt lat="43.253920" lon="-4.837850">
        <ele>267.671</ele>
        <time>2020-05-20T17:24:00Z</time>
      </trkpt>
      <trkpt lat="43.253920" lon="-4.837830">
        <ele>266.884</ele>
        <time>2020-05-20T17:24:20Z</time>
      </trkpt>
      <trkpt lat="43.253930" lon="-4.837810">
        <ele>266.734</ele>
        <time>2020-05-20T17:24:40Z</time>
      </trkpt>
      <trkpt lat="43.253930" lon="-4.837790">
        <ele>266.014</ele>
        <time>2020-05-20T17:25:00Z</time>
      </trkpt>
      <trkpt lat="43.253940" lon="-4.837780">
        <ele>266.294</ele>
        <time>2020-05-20T17:25:20Z</time>
      </trkpt>
      <trkpt lat="43.253940" lon="-4.837770">
        <ele>265.913</ele>
        <time>2020-05-20T17:25:40Z</time>
      </trkpt>
      <trkpt lat="43.253950" lon="-4.837730">
        <ele>265.239</ele>
        <time>2020-05-20T17:26:00Z</time>
      </trkpt>
      <trkpt lat="43.253970" lon="-4.837690">
        <ele>265.001</ele>
        <time>2020-05-20T17:26:20Z</time>
      </trkpt>
      <trkpt lat="43.254000" lon="-4.837650">
        <ele>265.221</ele>
        <time>2020-05-20T17:26:40Z</time>
      </trkpt>
      <trkpt lat="43.254030" lon="-4.837610">
        <ele>265.308</ele>
        <time>2020-05-20T17:27:00Z</time>
      </trkpt>
      <trkpt lat="43.254050" lon="-4.837590">
        <ele>265.527</ele>
        <time>2020-05-20T17:27:20Z</time>
      </trkpt>
      <trkpt lat="43.254060" lon="-4.837570">
        <ele>265.212</ele>
        <time>2020-05-20T17:27:40Z</time>
      </trkpt>
      <trkpt lat="43.254090" lon="-4.837550">
        <ele>265.858</ele>
        <time>2020-05-20T17:28:00Z</time>
      </trkpt>
      <trkpt lat="43.254150" lon="-4.837490">
        <ele>265.881</ele>
        <time>2020-05-20T17:28:20Z</time>
      </trkpt>
      <trkpt lat="43.254200" lon="-4.837450">
        <ele>266.411</ele>
        <time>2020-05-20T17:28:40Z</time>
      </trkpt>
      <trkpt lat="43.254240" lon="-4.837400">
        <ele>266.321</ele>
        <time>2020-05-20T17:29:00Z</time>
      </trkpt>
      <trkpt lat="43.254440" lon="-4.837200">
        <ele>268.561</ele>
        <time>2020-05-20T17:29:20Z</time>
      </trkpt>
      <trkpt lat="43.254490" lon="-4.837150">
        <ele>268.650</ele>
        <time>2020-05-20T17:29:40Z</time>
      </trkpt>
      <trkpt lat="43.254550" lon="-4.837090">
        <ele>268.957</ele>
        <time>2020-05-20T17:30:00Z</time>
      </trkpt>
      <trkpt lat="43.254590" lon="-4.837050">
        <ele>269.200</ele>
        <time>2020-05-20T17:30:20Z</time>
      </trkpt>
      <trkpt lat="43.254760" lon="-4.836870">
        <ele>268.020</ele>
        <time>2020-05-20T17:30:40Z</time>
      </trkpt>
      <trkpt lat="43.254840" lon="-4.836830">
        <ele>268.808</ele>
        <time>2020-05-20T17:31:00Z</time>
      </trkpt>
      <trkpt lat="43.254950" lon="-4.836800">
        <ele>271.639</ele>
        <time>2020-05-20T17:31:20Z</time>
      </trkpt>
      <trkpt lat="43.255010" lon="-4.836770">
        <ele>271.994</ele>
        <time>2020-05-20T17:31:40Z</time>
      </trkpt>
      <trkpt lat="43.255030" lon="-4.836760">
        <ele>272.170</ele>
        <time>2020-05-20T17:32:00Z</time>
      </trkpt>
      <trkpt lat="43.255090" lon="-4.836730">
        <ele>273.153</ele>
        <time>2020-05-20T17:32:20Z</time>
      </trkpt>
      <trkpt lat="43.255140" lon="-4.836690">
        <ele>273.393</ele>
        <time>2020-05-20T17:32:40Z</time>
      </trkpt>
      <trkpt lat="43.255180" lon="-4.836640">
        <ele>272.523</ele>
        <time>2020-05-20T17:33:00Z</time>
      </trkpt>
      <trkpt lat="43.255190" lon="-4.836630">
        <ele>272.443</ele>
        <time>2020-05-20T17:33:20Z</time>
      </trkpt>
      <trkpt lat="43.255270" lon="-4.836520">
        <ele>269.522</ele>
        <time>2020-05-20T17:33:40Z</time>
      </trkpt>
      <trkpt lat="43.255350" lon="-4.836420">
        <ele>263.967</ele>
        <time>2020-05-20T17:34:00Z</time>
      </trkpt>
      <trkpt lat="43.255400" lon="-4.836370">
        <ele>262.081</ele>
        <time>2020-05-20T17:34:20Z</time>
      </trkpt>
      <trkpt lat="43.255450" lon="-4.836320">
        <ele>260.719</ele>
        <time>2020-05-20T17:34:40Z</time>
      </trkpt>
      <trkpt lat="43.255460" lon="-4.836320">
        <ele>261.008</ele>
        <time>2020-05-20T17:35:00Z</time>
      </trkpt>
      <trkpt lat="43.255530" lon="-4.836270">
        <ele>260.620</ele>
        <time>2020-05-20T17:35:20Z</time>
      </trkpt>
      <trkpt lat="43.255620" lon="-4.836220">
        <ele>264.955</ele>
        <time>2020-05-20T17:35:40Z</time>
      </trkpt>
      <trkpt lat="43.255680" lon="-4.836180">
        <ele>269.161</ele>
        <time>2020-05-20T17:36:00Z</time>
      </trkpt>
      <trkpt lat="43.255740" lon="-4.836150">
        <ele>274.114</ele>
        <time>2020-05-20T17:36:20Z</time>
      </trkpt>
      <trkpt lat="43.255780" lon="-4.836120">
        <ele>277.624</ele>
        <time>2020-05-20T17:36:40Z</time>
      </trkpt>
      <trkpt lat="43.255840" lon="-4.836080">
        <ele>283.024</ele>
        <time>2020-05-20T17:37:00Z</time>
      </trkpt>
      <trkpt lat="43.255890" lon="-4.836030">
        <ele>283.434</ele>
        <time>2020-05-20T17:37:20Z</time>
      </trkpt>
      <trkpt lat="43.255930" lon="-4.835990">
        <ele>283.053</ele>
        <time>2020-05-20T17:37:40Z</time>
      </trkpt>
      <trkpt lat="43.256060" lon="-4.835860">
        <ele>276.873</ele>
        <time>2020-05-20T17:38:00Z</time>
      </trkpt>
      <trkpt lat="43.256080" lon="-4.835840">
        <ele>275.285</ele>
        <time>2020-05-20T17:38:20Z</time>
      </trkpt>
      <trkpt lat="43.256180" lon="-4.835760">
        <ele>267.813</ele>
        <time>2020-05-20T17:38:40Z</time>
      </trkpt>
      <trkpt lat="43.256230" lon="-4.835720">
        <ele>265.208</ele>
        <time>2020-05-20T17:39:00Z</time>
      </trkpt>
      <trkpt lat="43.256250" lon="-4.835700">
        <ele>264.181</ele>
        <time>2020-05-20T17:39:20Z</time>
      </trkpt>
      <trkpt lat="43.256270" lon="-4.835670">
        <ele>262.536</ele>
        <time>2020-05-20T17:39:40Z</time>
      </trkpt>
      <trkpt lat="43.256300" lon="-4.835620">
        <ele>260.362</ele>
        <time>2020-05-20T17:40:00Z</time>
      </trkpt>
      <trkpt lat="43.256310" lon="-4.835580">
        <ele>258.555</ele>
        <time>2020-05-20T17:40:20Z</time>
      </trkpt>
      <trkpt lat="43.256310" lon="-4.835550">
        <ele>257.135</ele>
        <time>2020-05-20T17:40:40Z</time>
      </trkpt>
      <trkpt lat="43.256320" lon="-4.835510">
        <ele>257.595</ele>
        <time>2020-05-20T17:41:00Z</time>
      </trkpt>
      <trkpt lat="43.256320" lon="-4.835500">
        <ele>257.585</ele>
        <time>2020-05-20T17:41:20Z</time>
      </trkpt>
      <trkpt lat="43.256340" lon="-4.835370">
        <ele>258.744</ele>
        <time>2020-05-20T17:41:40Z</time>
      </trkpt>
      <trkpt lat="43.256350" lon="-4.835280">
        <ele>259.864</ele>
        <time>2020-05-20T17:42:00Z</time>
      </trkpt>
      <trkpt lat="43.256350" lon="-4.835270">
        <ele>259.506</ele>
        <time>2020-05-20T17:42:20Z</time>
      </trkpt>
      <trkpt lat="43.256360" lon="-4.835190">
        <ele>257.916</ele>
        <time>2020-05-20T17:42:40Z</time>
      </trkpt>
      <trkpt lat="43.256370" lon="-4.835120">
        <ele>256.508</ele>
        <time>2020-05-20T17:43:00Z</time>
      </trkpt>
      <trkpt lat="43.256390" lon="-4.835050">
        <ele>255.710</ele>
        <time>2020-05-20T17:43:20Z</time>
      </trkpt>
      <trkpt lat="43.256400" lon="-4.835030">
        <ele>256.255</ele>
        <time>2020-05-20T17:43:40Z</time>
      </trkpt>
      <trkpt lat="43.256410" lon="-4.835000">
        <ele>256.331</ele>
        <time>2020-05-20T17:44:00Z</time>
      </trkpt>
      <trkpt lat="43.256440" lon="-4.834940">
        <ele>256.974</ele>
        <time>2020-05-20T17:44:20Z</time>
      </trkpt>
      <trkpt lat="43.256470" lon="-4.834870">
        <ele>256.994</ele>
        <time>2020-05-20T17:44:40Z</time>
      </trkpt>
      <trkpt lat="43.256510" lon="-4.834820">
        <ele>258.514</ele>
        <time>2020-05-20T17:45:00Z</time>
      </trkpt>
      <trkpt lat="43.256550" lon="-4.834770">
        <ele>259.984</ele>
        <time>2020-05-20T17:45:20Z</time>
      </trkpt>
      <trkpt lat="43.256610" lon="-4.834690">
        <ele>261.623</ele>
        <time>2020-05-20T17:45:40Z</time>
      </trkpt>
      <trkpt lat="43.256630" lon="-4.834660">
        <ele>262.273</ele>
        <time>2020-05-20T17:46:00Z</time>
      </trkpt>
      <trkpt lat="43.256640" lon="-4.834640">
        <ele>262.385</ele>
        <time>2020-05-20T17:46:20Z</time>
      </trkpt>
      <trkpt lat="43.256660" lon="-4.834590">
        <ele>262.113</ele>
        <time>2020-05-20T17:46:40Z</time>
      </trkpt>
      <trkpt lat="43.256670" lon="-4.834540">
        <ele>261.108</ele>
        <time>2020-05-20T17:47:00Z</time>
      </trkpt>
      <trkpt lat="43.256690" lon="-4.834510">
        <ele>261.531</ele>
        <time>2020-05-20T17:47:20Z</time>
      </trkpt>
      <trkpt lat="43.256690" lon="-4.834480">
        <ele>260.386</ele>
        <time>2020-05-20T17:47:40Z</time>
      </trkpt>
      <trkpt lat="43.256700" lon="-4.834430">
        <ele>259.212</ele>
        <time>2020-05-20T17:48:00Z</time>
      </trkpt>
      <trkpt lat="43.256700" lon="-4.834420">
        <ele>258.875</ele>
        <time>2020-05-20T17:48:20Z</time>
      </trkpt>
      <trkpt lat="43.256700" lon="-4.834370">
        <ele>256.845</ele>
        <time>2020-05-20T17:48:40Z</time>
      </trkpt>
      <trkpt lat="43.256700" lon="-4.834270">
        <ele>252.985</ele>
        <time>2020-05-20T17:49:00Z</time>
      </trkpt>
      <trkpt lat="43.256690" lon="-4.834160">
        <ele>247.925</ele>
        <time>2020-05-20T17:49:20Z</time>
      </trkpt>
      <trkpt lat="43.256680" lon="-4.834080">
        <ele>246.244</ele>
        <time>2020-05-20T17:49:40Z</time>
      </trkpt>
      <trkpt lat="43.256670" lon="-4.833950">
        <ele>243.993</ele>
        <time>2020-05-20T17:50:00Z</time>
      </trkpt>
      <trkpt lat="43.256670" lon="-4.833940">
        <ele>243.865</ele>
        <time>2020-05-20T17:50:20Z</time>
      </trkpt>
      <trkpt lat="43.256660" lon="-4.833870">
        <ele>242.121</ele>
        <time>2020-05-20T17:50:40Z</time>
      </trkpt>
      <trkpt lat="43.256650" lon="-4.833780">
        <ele>239.808</ele>
        <time>2020-05-20T17:51:00Z</time>
      </trkpt>
      <trkpt lat="43.256650" lon="-4.833700">
        <ele>238.623</ele>
        <time>2020-05-20T17:51:20Z</time>
      </trkpt>
      <trkpt lat="43.256640" lon="-4.833640">
        <ele>236.898</ele>
        <time>2020-05-20T17:51:40Z</time>
      </trkpt>
      <trkpt lat="43.256640" lon="-4.833570">
        <ele>235.314</ele>
        <time>2020-05-20T17:52:00Z</time>
      </trkpt>
      <trkpt lat="43.256640" lon="-4.833540">
        <ele>234.547</ele>
        <time>2020-05-20T17:52:20Z</time>
      </trkpt>
      <trkpt lat="43.256640" lon="-4.833500">
        <ele>233.537</ele>
        <time>2020-05-20T17:52:40Z</time>
      </trkpt>
      <trkpt lat="43.256640" lon="-4.833470">
        <ele>232.797</ele>
        <time>2020-05-20T17:53:00Z</time>
      </trkpt>
      <trkpt lat="43.256650" lon="-4.833450">
        <ele>233.057</ele>
        <time>2020-05-20T17:53:20Z</time>
      </trkpt>
      <trkpt lat="43.256650" lon="-4.833440">
        <ele>232.786</ele>
        <time>2020-05-20T17:53:40Z</time>
      </trkpt>
      <trkpt lat="43.256660" lon="-4.833420">
        <ele>233.017</ele>
        <time>2020-05-20T17:54:00Z</time>
      </trkpt>
      <trkpt lat="43.256680" lon="-4.833390">
        <ele>233.487</ele>
        <time>2020-05-20T17:54:20Z</time>
      </trkpt>
      <trkpt lat="43.256710" lon="-4.833340">
        <ele>233.515</ele>
        <time>2020-05-20T17:54:40Z</time>
      </trkpt>
      <trkpt lat="43.256760" lon="-4.833280">
        <ele>233.408</ele>
        <time>2020-05-20T17:55:00Z</time>
      </trkpt>
      <trkpt lat="43.256800" lon="-4.833250">
        <ele>234.065</ele>
        <time>2020-05-20T17:55:20Z</time>
      </trkpt>
      <trkpt lat="43.256840" lon="-4.833220">
        <ele>234.610</ele>
        <time>2020-05-20T17:55:40Z</time>
      </trkpt>
      <trkpt lat="43.256920" lon="-4.833150">
        <ele>235.456</ele>
        <time>2020-05-20T17:56:00Z</time>
      </trkpt>
      <trkpt lat="43.256930" lon="-4.833150">
        <ele>236.069</ele>
        <time>2020-05-20T17:56:20Z</time>
      </trkpt>
      <trkpt lat="43.256980" lon="-4.833100">
        <ele>234.919</ele>
        <time>2020-05-20T17:56:40Z</time>
      </trkpt>
      <trkpt lat="43.257070" lon="-4.833010">
        <ele>232.859</ele>
        <time>2020-05-20T17:57:00Z</time>
      </trkpt>
      <trkpt lat="43.257074" lon="-4.833011">
        <ele>232.989</ele>
        <time>2020-05-20T17:57:20Z</time>
      </trkpt>
      <trkpt lat="43.257130" lon="-4.832840">
        <ele>228.498</ele>
        <time>2020-05-20T17:57:40Z</time>
      </trkpt>
      <trkpt lat="43.257150" lon="-4.832790">
        <ele>227.171</ele>
        <time>2020-05-20T17:58:00Z</time>
      </trkpt>
      <trkpt lat="43.257190" lon="-4.832680">
        <ele>225.841</ele>
        <time>2020-05-20T17:58:20Z</time>
      </trkpt>
      <trkpt lat="43.257230" lon="-4.832570">
        <ele>225.215</ele>
        <time>2020-05-20T17:58:40Z</time>
      </trkpt>
      <trkpt lat="43.257270" lon="-4.832460">
        <ele>224.108</ele>
        <time>2020-05-20T17:59:00Z</time>
      </trkpt>
      <trkpt lat="43.257330" lon="-4.832360">
        <ele>222.991</ele>
        <time>2020-05-20T17:59:20Z</time>
      </trkpt>
      <trkpt lat="43.257390" lon="-4.832240">
        <ele>221.316</ele>
        <time>2020-05-20T17:59:40Z</time>
      </trkpt>
      <trkpt lat="43.257430" lon="-4.832160">
        <ele>220.722</ele>
        <time>2020-05-20T18:00:00Z</time>
      </trkpt>
      <trkpt lat="43.257450" lon="-4.832110">
        <ele>220.335</ele>
        <time>2020-05-20T18:00:20Z</time>
      </trkpt>
      <trkpt lat="43.257540" lon="-4.831960">
        <ele>220.435</ele>
        <time>2020-05-20T18:00:40Z</time>
      </trkpt>
      <trkpt lat="43.257550" lon="-4.831960">
        <ele>220.755</ele>
        <time>2020-05-20T18:01:00Z</time>
      </trkpt>
      <trkpt lat="43.257670" lon="-4.831780">
        <ele>219.315</ele>
        <time>2020-05-20T18:01:20Z</time>
      </trkpt>
      <trkpt lat="43.257710" lon="-4.831720">
        <ele>219.024</ele>
        <time>2020-05-20T18:01:40Z</time>
      </trkpt>
      <trkpt lat="43.257780" lon="-4.831600">
        <ele>218.493</ele>
        <time>2020-05-20T18:02:00Z</time>
      </trkpt>
      <trkpt lat="43.257800" lon="-4.831560">
        <ele>218.165</ele>
        <time>2020-05-20T18:02:20Z</time>
      </trkpt>
      <trkpt lat="43.257900" lon="-4.831410">
        <ele>218.321</ele>
        <time>2020-05-20T18:02:40Z</time>
      </trkpt>
      <trkpt lat="43.257920" lon="-4.831380">
        <ele>218.308</ele>
        <time>2020-05-20T18:03:00Z</time>
      </trkpt>
      <trkpt lat="43.257970" lon="-4.831300">
        <ele>217.583</ele>
        <time>2020-05-20T18:03:20Z</time>
      </trkpt>
      <trkpt lat="43.258030" lon="-4.831230">
        <ele>216.968</ele>
        <time>2020-05-20T18:03:40Z</time>
      </trkpt>
      <trkpt lat="43.258050" lon="-4.831210">
        <ele>216.784</ele>
        <time>2020-05-20T18:04:00Z</time>
      </trkpt>
      <trkpt lat="43.258150" lon="-4.831100">
        <ele>217.727</ele>
        <time>2020-05-20T18:04:20Z</time>
      </trkpt>
      <trkpt lat="43.258170" lon="-4.831080">
        <ele>217.977</ele>
        <time>2020-05-20T18:04:40Z</time>
      </trkpt>
      <trkpt lat="43.258220" lon="-4.831030">
        <ele>218.037</ele>
        <time>2020-05-20T18:05:00Z</time>
      </trkpt>
      <trkpt lat="43.258290" lon="-4.830960">
        <ele>217.287</ele>
        <time>2020-05-20T18:05:20Z</time>
      </trkpt>
      <trkpt lat="43.258380" lon="-4.830860">
        <ele>214.896</ele>
        <time>2020-05-20T18:05:40Z</time>
      </trkpt>
      <trkpt lat="43.258440" lon="-4.830780">
        <ele>214.454</ele>
        <time>2020-05-20T18:06:00Z</time>
      </trkpt>
      <trkpt lat="43.258470" lon="-4.830740">
        <ele>214.256</ele>
        <time>2020-05-20T18:06:20Z</time>
      </trkpt>
      <trkpt lat="43.258530" lon="-4.830670">
        <ele>213.511</ele>
        <time>2020-05-20T18:06:40Z</time>
      </trkpt>
      <trkpt lat="43.258550" lon="-4.830640">
        <ele>212.808</ele>
        <time>2020-05-20T18:07:00Z</time>
      </trkpt>
      <trkpt lat="43.258610" lon="-4.830580">
        <ele>211.229</ele>
        <time>2020-05-20T18:07:20Z</time>
      </trkpt>
      <trkpt lat="43.258630" lon="-4.830560">
        <ele>211.024</ele>
        <time>2020-05-20T18:07:40Z</time>
      </trkpt>
      <trkpt lat="43.258650" lon="-4.830550">
        <ele>211.580</ele>
        <time>2020-05-20T18:08:00Z</time>
      </trkpt>
      <trkpt lat="43.258670" lon="-4.830530">
        <ele>212.353</ele>
        <time>2020-05-20T18:08:20Z</time>
      </trkpt>
      <trkpt lat="43.258680" lon="-4.830530">
        <ele>212.893</ele>
        <time>2020-05-20T18:08:40Z</time>
      </trkpt>
      <trkpt lat="43.258690" lon="-4.830520">
        <ele>213.283</ele>
        <time>2020-05-20T18:09:00Z</time>
      </trkpt>
      <trkpt lat="43.258710" lon="-4.830510">
        <ele>214.253</ele>
        <time>2020-05-20T18:09:20Z</time>
      </trkpt>
      <trkpt lat="43.258720" lon="-4.830510">
        <ele>214.792</ele>
        <time>2020-05-20T18:09:40Z</time>
      </trkpt>
      <trkpt lat="43.258730" lon="-4.830510">
        <ele>215.261</ele>
        <time>2020-05-20T18:10:00Z</time>
      </trkpt>
      <trkpt lat="43.258740" lon="-4.830510">
        <ele>215.721</ele>
        <time>2020-05-20T18:10:20Z</time>
      </trkpt>
      <trkpt lat="43.258760" lon="-4.830520">
        <ele>216.513</ele>
        <time>2020-05-20T18:10:40Z</time>
      </trkpt>
      <trkpt lat="43.258770" lon="-4.830530">
        <ele>216.808</ele>
        <time>2020-05-20T18:11:00Z</time>
      </trkpt>
      <trkpt lat="43.258780" lon="-4.830530">
        <ele>217.290</ele>
        <time>2020-05-20T18:11:20Z</time>
      </trkpt>
      <trkpt lat="43.258800" lon="-4.830540">
        <ele>217.885</ele>
        <time>2020-05-20T18:11:40Z</time>
      </trkpt>
      <trkpt lat="43.258850" lon="-4.830580">
        <ele>220.171</ele>
        <time>2020-05-20T18:12:00Z</time>
      </trkpt>
      <trkpt lat="43.258880" lon="-4.830600">
        <ele>221.694</ele>
        <time>2020-05-20T18:12:20Z</time>
      </trkpt>
      <trkpt lat="43.259010" lon="-4.830680">
        <ele>217.974</ele>
        <time>2020-05-20T18:12:40Z</time>
      </trkpt>
      <trkpt lat="43.259040" lon="-4.830710">
        <ele>216.994</ele>
        <time>2020-05-20T18:13:00Z</time>
      </trkpt>
      <trkpt lat="43.259170" lon="-4.830790">
        <ele>211.514</ele>
        <time>2020-05-20T18:13:20Z</time>
      </trkpt>
      <trkpt lat="43.259180" lon="-4.830790">
        <ele>211.463</ele>
        <time>2020-05-20T18:13:40Z</time>
      </trkpt>
      <trkpt lat="43.259270" lon="-4.830840">
        <ele>210.562</ele>
        <time>2020-05-20T18:14:00Z</time>
      </trkpt>
      <trkpt lat="43.259340" lon="-4.830870">
        <ele>210.783</ele>
        <time>2020-05-20T18:14:20Z</time>
      </trkpt>
      <trkpt lat="43.259400" lon="-4.830900">
        <ele>210.711</ele>
        <time>2020-05-20T18:14:40Z</time>
      </trkpt>
      <trkpt lat="43.259480" lon="-4.830920">
        <ele>209.808</ele>
        <time>2020-05-20T18:15:00Z</time>
      </trkpt>
      <trkpt lat="43.259500" lon="-4.830930">
        <ele>209.870</ele>
        <time>2020-05-20T18:15:20Z</time>
      </trkpt>
      <trkpt lat="43.259510" lon="-4.830930">
        <ele>209.695</ele>
        <time>2020-05-20T18:15:40Z</time>
      </trkpt>
      <trkpt lat="43.259540" lon="-4.830930">
        <ele>209.111</ele>
        <time>2020-05-20T18:16:00Z</time>
      </trkpt>
      <trkpt lat="43.259560" lon="-4.830940">
        <ele>209.024</ele>
        <time>2020-05-20T18:16:20Z</time>
      </trkpt>
      <trkpt lat="43.259590" lon="-4.830940">
        <ele>208.494</ele>
        <time>2020-05-20T18:16:40Z</time>
      </trkpt>
      <trkpt lat="43.259630" lon="-4.830940">
        <ele>207.674</ele>
        <time>2020-05-20T18:17:00Z</time>
      </trkpt>
      <trkpt lat="43.259660" lon="-4.830920">
        <ele>206.754</ele>
        <time>2020-05-20T18:17:20Z</time>
      </trkpt>
      <trkpt lat="43.259680" lon="-4.830910">
        <ele>206.293</ele>
        <time>2020-05-20T18:17:40Z</time>
      </trkpt>
      <trkpt lat="43.259690" lon="-4.830910">
        <ele>206.154</ele>
        <time>2020-05-20T18:18:00Z</time>
      </trkpt>
      <trkpt lat="43.259710" lon="-4.830900">
        <ele>205.756</ele>
        <time>2020-05-20T18:18:20Z</time>
      </trkpt>
      <trkpt lat="43.259800" lon="-4.830820">
        <ele>205.711</ele>
        <time>2020-05-20T18:18:40Z</time>
      </trkpt>
      <trkpt lat="43.259840" lon="-4.830780">
        <ele>207.908</ele>
        <time>2020-05-20T18:19:00Z</time>
      </trkpt>
      <trkpt lat="43.259880" lon="-4.830760">
        <ele>209.159</ele>
        <time>2020-05-20T18:19:20Z</time>
      </trkpt>
      <trkpt lat="43.259920" lon="-4.830720">
        <ele>211.664</ele>
        <time>2020-05-20T18:19:40Z</time>
      </trkpt>
      <trkpt lat="43.259960" lon="-4.830700">
        <ele>213.050</ele>
        <time>2020-05-20T18:20:00Z</time>
      </trkpt>
      <trkpt lat="43.259990" lon="-4.830690">
        <ele>213.733</ele>
        <time>2020-05-20T18:20:20Z</time>
      </trkpt>
      <trkpt lat="43.260030" lon="-4.830690">
        <ele>214.563</ele>
        <time>2020-05-20T18:20:40Z</time>
      </trkpt>
      <trkpt lat="43.260070" lon="-4.830700">
        <ele>214.983</ele>
        <time>2020-05-20T18:21:00Z</time>
      </trkpt>
      <trkpt lat="43.260130" lon="-4.830720">
        <ele>215.113</ele>
        <time>2020-05-20T18:21:20Z</time>
      </trkpt>
      <trkpt lat="43.260170" lon="-4.830770">
        <ele>212.882</ele>
        <time>2020-05-20T18:21:40Z</time>
      </trkpt>
      <trkpt lat="43.260190" lon="-4.830780">
        <ele>212.646</ele>
        <time>2020-05-20T18:22:00Z</time>
      </trkpt>
      <trkpt lat="43.260270" lon="-4.830860">
        <ele>210.388</ele>
        <time>2020-05-20T18:22:20Z</time>
      </trkpt>
      <trkpt lat="43.260320" lon="-4.830920">
        <ele>209.716</ele>
        <time>2020-05-20T18:22:40Z</time>
      </trkpt>
      <trkpt lat="43.260360" lon="-4.830970">
        <ele>208.808</ele>
        <time>2020-05-20T18:23:00Z</time>
      </trkpt>
      <trkpt lat="43.260460" lon="-4.831040">
        <ele>207.468</ele>
        <time>2020-05-20T18:23:20Z</time>
      </trkpt>
      <trkpt lat="43.260470" lon="-4.831050">
        <ele>207.163</ele>
        <time>2020-05-20T18:23:40Z</time>
      </trkpt>
      <trkpt lat="43.260540" lon="-4.831080">
        <ele>206.279</ele>
        <time>2020-05-20T18:24:00Z</time>
      </trkpt>
      <trkpt lat="43.260610" lon="-4.831110">
        <ele>204.742</ele>
        <time>2020-05-20T18:24:20Z</time>
      </trkpt>
      <trkpt lat="43.260640" lon="-4.831120">
        <ele>204.412</ele>
        <time>2020-05-20T18:24:40Z</time>
      </trkpt>
      <trkpt lat="43.260660" lon="-4.831130">
        <ele>204.292</ele>
        <time>2020-05-20T18:25:00Z</time>
      </trkpt>
      <trkpt lat="43.260720" lon="-4.831130">
        <ele>203.872</ele>
        <time>2020-05-20T18:25:20Z</time>
      </trkpt>
      <trkpt lat="43.260810" lon="-4.831120">
        <ele>203.291</ele>
        <time>2020-05-20T18:25:40Z</time>
      </trkpt>
      <trkpt lat="43.260820" lon="-4.831120">
        <ele>203.182</ele>
        <time>2020-05-20T18:26:00Z</time>
      </trkpt>
      <trkpt lat="43.260980" lon="-4.831070">
        <ele>203.843</ele>
        <time>2020-05-20T18:26:20Z</time>
      </trkpt>
      <trkpt lat="43.260990" lon="-4.831060">
        <ele>204.017</ele>
        <time>2020-05-20T18:26:40Z</time>
      </trkpt>
      <trkpt lat="43.261160" lon="-4.830980">
        <ele>205.108</ele>
        <time>2020-05-20T18:27:00Z</time>
      </trkpt>
      <trkpt lat="43.261340" lon="-4.830920">
        <ele>204.872</ele>
        <time>2020-05-20T18:27:20Z</time>
      </trkpt>
      <trkpt lat="43.261380" lon="-4.830900">
        <ele>204.647</ele>
        <time>2020-05-20T18:27:40Z</time>
      </trkpt>
      <trkpt lat="43.261520" lon="-4.830890">
        <ele>204.333</ele>
        <time>2020-05-20T18:28:00Z</time>
      </trkpt>
      <trkpt lat="43.261630" lon="-4.830880">
        <ele>204.116</ele>
        <time>2020-05-20T18:28:20Z</time>
      </trkpt>
      <trkpt lat="43.261700" lon="-4.830890">
        <ele>204.176</ele>
        <time>2020-05-20T18:28:40Z</time>
      </trkpt>
      <trkpt lat="43.261870" lon="-4.830900">
        <ele>204.736</ele>
        <time>2020-05-20T18:29:00Z</time>
      </trkpt>
      <trkpt lat="43.261970" lon="-4.830900">
        <ele>205.226</ele>
        <time>2020-05-20T18:29:20Z</time>
      </trkpt>
      <trkpt lat="43.262050" lon="-4.830910">
        <ele>205.935</ele>
        <time>2020-05-20T18:29:40Z</time>
      </trkpt>
      <trkpt lat="43.262230" lon="-4.830930">
        <ele>207.398</ele>
        <time>2020-05-20T18:30:00Z</time>
      </trkpt>
      <trkpt lat="43.262350" lon="-4.830940">
        <ele>207.315</ele>
        <time>2020-05-20T18:30:20Z</time>
      </trkpt>
      <trkpt lat="43.262410" lon="-4.830950">
        <ele>207.326</ele>
        <time>2020-05-20T18:30:40Z</time>
      </trkpt>
      <trkpt lat="43.262590" lon="-4.830970">
        <ele>208.008</ele>
        <time>2020-05-20T18:31:00Z</time>
      </trkpt>
      <trkpt lat="43.262790" lon="-4.831080">
        <ele>206.083</ele>
        <time>2020-05-20T18:31:20Z</time>
      </trkpt>
      <trkpt lat="43.262830" lon="-4.831100">
        <ele>207.138</ele>
        <time>2020-05-20T18:31:40Z</time>
      </trkpt>
      <trkpt lat="43.262910" lon="-4.831160">
        <ele>209.784</ele>
        <time>2020-05-20T18:32:00Z</time>
      </trkpt>
      <trkpt lat="43.262950" lon="-4.831200">
        <ele>210.217</ele>
        <time>2020-05-20T18:32:20Z</time>
      </trkpt>
      <trkpt lat="43.263090" lon="-4.831340">
        <ele>207.927</ele>
        <time>2020-05-20T18:32:40Z</time>
      </trkpt>
      <trkpt lat="43.263090" lon="-4.831350">
        <ele>207.417</ele>
        <time>2020-05-20T18:33:00Z</time>
      </trkpt>
      <trkpt lat="43.263240" lon="-4.831500">
        <ele>207.927</ele>
        <time>2020-05-20T18:33:20Z</time>
      </trkpt>
      <trkpt lat="43.263370" lon="-4.831640">
        <ele>209.896</ele>
        <time>2020-05-20T18:33:40Z</time>
      </trkpt>
      <trkpt lat="43.263380" lon="-4.831650">
        <ele>209.796</ele>
        <time>2020-05-20T18:34:00Z</time>
      </trkpt>
      <trkpt lat="43.263460" lon="-4.831730">
        <ele>213.331</ele>
        <time>2020-05-20T18:34:20Z</time>
      </trkpt>
      <trkpt lat="43.263500" lon="-4.831760">
        <ele>215.224</ele>
        <time>2020-05-20T18:34:40Z</time>
      </trkpt>
      <trkpt lat="43.263530" lon="-4.831780">
        <ele>216.608</ele>
        <time>2020-05-20T18:35:00Z</time>
      </trkpt>
      <trkpt lat="43.263540" lon="-4.831780">
        <ele>216.663</ele>
        <time>2020-05-20T18:35:20Z</time>
      </trkpt>
      <trkpt lat="43.263610" lon="-4.831800">
        <ele>218.188</ele>
        <time>2020-05-20T18:35:40Z</time>
      </trkpt>
      <trkpt lat="43.263710" lon="-4.831810">
        <ele>216.134</ele>
        <time>2020-05-20T18:36:00Z</time>
      </trkpt>
      <trkpt lat="43.263740" lon="-4.831810">
        <ele>215.337</ele>
        <time>2020-05-20T18:36:20Z</time>
      </trkpt>
      <trkpt lat="43.263800" lon="-4.831810">
        <ele>213.657</ele>
        <time>2020-05-20T18:36:40Z</time>
      </trkpt>
      <trkpt lat="43.263850" lon="-4.831820">
        <ele>212.767</ele>
        <time>2020-05-20T18:37:00Z</time>
      </trkpt>
      <trkpt lat="43.263890" lon="-4.831840">
        <ele>212.597</ele>
        <time>2020-05-20T18:37:20Z</time>
      </trkpt>
      <trkpt lat="43.263920" lon="-4.831850">
        <ele>211.946</ele>
        <time>2020-05-20T18:37:40Z</time>
      </trkpt>
      <trkpt lat="43.264000" lon="-4.831890">
        <ele>209.674</ele>
        <time>2020-05-20T18:38:00Z</time>
      </trkpt>
      <trkpt lat="43.264060" lon="-4.831910">
        <ele>206.756</ele>
        <time>2020-05-20T18:38:20Z</time>
      </trkpt>
      <trkpt lat="43.264130" lon="-4.831930">
        <ele>202.621</ele>
        <time>2020-05-20T18:38:40Z</time>
      </trkpt>
      <trkpt lat="43.264190" lon="-4.831940">
        <ele>199.708</ele>
        <time>2020-05-20T18:39:00Z</time>
      </trkpt>
      <trkpt lat="43.264230" lon="-4.831950">
        <ele>199.061</ele>
        <time>2020-05-20T18:39:20Z</time>
      </trkpt>
      <trkpt lat="43.264230" lon="-4.831960">
        <ele>199.776</ele>
        <time>2020-05-20T18:39:40Z</time>
      </trkpt>
      <trkpt lat="43.264280" lon="-4.831980">
        <ele>200.442</ele>
        <time>2020-05-20T18:40:00Z</time>
      </trkpt>
      <trkpt lat="43.264350" lon="-4.832020">
        <ele>203.175</ele>
        <time>2020-05-20T18:40:20Z</time>
      </trkpt>
      <trkpt lat="43.264400" lon="-4.832040">
        <ele>204.875</ele>
        <time>2020-05-20T18:40:40Z</time>
      </trkpt>
      <trkpt lat="43.264440" lon="-4.832060">
        <ele>206.945</ele>
        <time>2020-05-20T18:41:00Z</time>
      </trkpt>
      <trkpt lat="43.264500" lon="-4.832080">
        <ele>206.315</ele>
        <time>2020-05-20T18:41:20Z</time>
      </trkpt>
      <trkpt lat="43.264560" lon="-4.832070">
        <ele>202.474</ele>
        <time>2020-05-20T18:41:40Z</time>
      </trkpt>
      <trkpt lat="43.264580" lon="-4.832060">
        <ele>200.838</ele>
        <time>2020-05-20T18:42:00Z</time>
      </trkpt>
      <trkpt lat="43.264620" lon="-4.832040">
        <ele>197.870</ele>
        <time>2020-05-20T18:42:20Z</time>
      </trkpt>
      <trkpt lat="43.264700" lon="-4.832000">
        <ele>193.217</ele>
        <time>2020-05-20T18:42:40Z</time>
      </trkpt>
      <trkpt lat="43.264750" lon="-4.831980">
        <ele>192.308</ele>
        <time>2020-05-20T18:43:00Z</time>
      </trkpt>
      <trkpt lat="43.264810" lon="-4.831950">
        <ele>192.467</ele>
        <time>2020-05-20T18:43:20Z</time>
      </trkpt>
      <trkpt lat="43.264870" lon="-4.831950">
        <ele>193.252</ele>
        <time>2020-05-20T18:43:40Z</time>
      </trkpt>
      <trkpt lat="43.264920" lon="-4.831950">
        <ele>193.958</ele>
        <time>2020-05-20T18:44:00Z</time>
      </trkpt>
      <trkpt lat="43.264930" lon="-4.831950">
        <ele>194.091</ele>
        <time>2020-05-20T18:44:20Z</time>
      </trkpt>
      <trkpt lat="43.265030" lon="-4.831990">
        <ele>194.961</ele>
        <time>2020-05-20T18:44:40Z</time>
      </trkpt>
      <trkpt lat="43.265100" lon="-4.832010">
        <ele>195.381</ele>
        <time>2020-05-20T18:45:00Z</time>
      </trkpt>
      <trkpt lat="43.265110" lon="-4.832020">
        <ele>195.261</ele>
        <time>2020-05-20T18:45:20Z</time>
      </trkpt>
      <trkpt lat="43.265260" lon="-4.832100">
        <ele>194.680</ele>
        <time>2020-05-20T18:45:40Z</time>
      </trkpt>
      <trkpt lat="43.265400" lon="-4.832170">
        <ele>191.851</ele>
        <time>2020-05-20T18:46:00Z</time>
      </trkpt>
      <trkpt lat="43.265430" lon="-4.832190">
        <ele>190.801</ele>
        <time>2020-05-20T18:46:20Z</time>
      </trkpt>
      <trkpt lat="43.265510" lon="-4.832240">
        <ele>189.811</ele>
        <time>2020-05-20T18:46:40Z</time>
      </trkpt>
      <trkpt lat="43.265640" lon="-4.832280">
        <ele>191.108</ele>
        <time>2020-05-20T18:47:00Z</time>
      </trkpt>
      <trkpt lat="43.265770" lon="-4.832310">
        <ele>192.359</ele>
        <time>2020-05-20T18:47:20Z</time>
      </trkpt>
      <trkpt lat="43.265780" lon="-4.832320">
        <ele>192.854</ele>
        <time>2020-05-20T18:47:40Z</time>
      </trkpt>
      <trkpt lat="43.265880" lon="-4.832330">
        <ele>193.110</ele>
        <time>2020-05-20T18:48:00Z</time>
      </trkpt>
      <trkpt lat="43.265960" lon="-4.832340">
        <ele>193.743</ele>
        <time>2020-05-20T18:48:20Z</time>
      </trkpt>
      <trkpt lat="43.265990" lon="-4.832340">
        <ele>193.873</ele>
        <time>2020-05-20T18:48:40Z</time>
      </trkpt>
      <trkpt lat="43.266090" lon="-4.832350">
        <ele>194.493</ele>
        <time>2020-05-20T18:49:00Z</time>
      </trkpt>
      <trkpt lat="43.266140" lon="-4.832340">
        <ele>194.293</ele>
        <time>2020-05-20T18:49:20Z</time>
      </trkpt>
      <trkpt lat="43.266170" lon="-4.832340">
        <ele>194.452</ele>
        <time>2020-05-20T18:49:40Z</time>
      </trkpt>
      <trkpt lat="43.266250" lon="-4.832340">
        <ele>195.147</ele>
        <time>2020-05-20T18:50:00Z</time>
      </trkpt>
      <trkpt lat="43.266320" lon="-4.832310">
        <ele>193.929</ele>
        <time>2020-05-20T18:50:20Z</time>
      </trkpt>
      <trkpt lat="43.266370" lon="-4.832260">
        <ele>191.221</ele>
        <time>2020-05-20T18:50:40Z</time>
      </trkpt>
      <trkpt lat="43.266460" lon="-4.832170">
        <ele>189.908</ele>
        <time>2020-05-20T18:51:00Z</time>
      </trkpt>
      <trkpt lat="43.266520" lon="-4.832110">
        <ele>190.078</ele>
        <time>2020-05-20T18:51:20Z</time>
      </trkpt>
      <trkpt lat="43.266610" lon="-4.832040">
        <ele>189.073</ele>
        <time>2020-05-20T18:51:40Z</time>
      </trkpt>
      <trkpt lat="43.266710" lon="-4.831960">
        <ele>187.169</ele>
        <time>2020-05-20T18:52:00Z</time>
      </trkpt>
      <trkpt lat="43.266770" lon="-4.831920">
        <ele>187.912</ele>
        <time>2020-05-20T18:52:20Z</time>
      </trkpt>
      <trkpt lat="43.266850" lon="-4.831870">
        <ele>189.732</ele>
        <time>2020-05-20T18:52:40Z</time>
      </trkpt>
      <trkpt lat="43.266930" lon="-4.831820">
        <ele>190.782</ele>
        <time>2020-05-20T18:53:00Z</time>
      </trkpt>
      <trkpt lat="43.266940" lon="-4.831810">
        <ele>190.982</ele>
        <time>2020-05-20T18:53:20Z</time>
      </trkpt>
      <trkpt lat="43.267000" lon="-4.831770">
        <ele>191.831</ele>
        <time>2020-05-20T18:53:40Z</time>
      </trkpt>
      <trkpt lat="43.267040" lon="-4.831740">
        <ele>192.546</ele>
        <time>2020-05-20T18:54:00Z</time>
      </trkpt>
      <trkpt lat="43.267090" lon="-4.831710">
        <ele>193.088</ele>
        <time>2020-05-20T18:54:20Z</time>
      </trkpt>
      <trkpt lat="43.267160" lon="-4.831680">
        <ele>193.316</ele>
        <time>2020-05-20T18:54:40Z</time>
      </trkpt>
      <trkpt lat="43.267230" lon="-4.831660">
        <ele>193.508</ele>
        <time>2020-05-20T18:55:00Z</time>
      </trkpt>
      <trkpt lat="43.267270" lon="-4.831660">
        <ele>193.818</ele>
        <time>2020-05-20T18:55:20Z</time>
      </trkpt>
      <trkpt lat="43.267320" lon="-4.831650">
        <ele>195.073</ele>
        <time>2020-05-20T18:55:40Z</time>
      </trkpt>
      <trkpt lat="43.267420" lon="-4.831660">
        <ele>195.079</ele>
        <time>2020-05-20T18:56:00Z</time>
      </trkpt>
      <trkpt lat="43.267450" lon="-4.831660">
        <ele>195.272</ele>
        <time>2020-05-20T18:56:20Z</time>
      </trkpt>
      <trkpt lat="43.267490" lon="-4.831660">
        <ele>195.542</ele>
        <time>2020-05-20T18:56:40Z</time>
      </trkpt>
      <trkpt lat="43.267570" lon="-4.831670">
        <ele>194.152</ele>
        <time>2020-05-20T18:57:00Z</time>
      </trkpt>
      <trkpt lat="43.267630" lon="-4.831680">
        <ele>193.232</ele>
        <time>2020-05-20T18:57:20Z</time>
      </trkpt>
      <trkpt lat="43.267670" lon="-4.831680">
        <ele>192.741</ele>
        <time>2020-05-20T18:57:40Z</time>
      </trkpt>
      <trkpt lat="43.267810" lon="-4.831700">
        <ele>190.846</ele>
        <time>2020-05-20T18:58:00Z</time>
      </trkpt>
      <trkpt lat="43.267860" lon="-4.831710">
        <ele>190.188</ele>
        <time>2020-05-20T18:58:20Z</time>
      </trkpt>
      <trkpt lat="43.267990" lon="-4.831720">
        <ele>189.116</ele>
        <time>2020-05-20T18:58:40Z</time>
      </trkpt>
      <trkpt lat="43.268020" lon="-4.831720">
        <ele>188.908</ele>
        <time>2020-05-20T18:59:00Z</time>
      </trkpt>
      <trkpt lat="43.268070" lon="-4.831720">
        <ele>188.428</ele>
        <time>2020-05-20T18:59:20Z</time>
      </trkpt>
      <trkpt lat="43.268100" lon="-4.831730">
        <ele>188.193</ele>
        <time>2020-05-20T18:59:40Z</time>
      </trkpt>
      <trkpt lat="43.268130" lon="-4.831730">
        <ele>187.719</ele>
        <time>2020-05-20T19:00:00Z</time>
      </trkpt>
      <trkpt lat="43.268160" lon="-4.831730">
        <ele>187.452</ele>
        <time>2020-05-20T19:00:20Z</time>
      </trkpt>
      <trkpt lat="43.268170" lon="-4.831730">
        <ele>187.392</ele>
        <time>2020-05-20T19:00:40Z</time>
      </trkpt>
      <trkpt lat="43.268190" lon="-4.831730">
        <ele>187.162</ele>
        <time>2020-05-20T19:01:00Z</time>
      </trkpt>
      <trkpt lat="43.268220" lon="-4.831730">
        <ele>186.722</ele>
        <time>2020-05-20T19:01:20Z</time>
      </trkpt>
      <trkpt lat="43.268240" lon="-4.831730">
        <ele>186.581</ele>
        <time>2020-05-20T19:01:40Z</time>
      </trkpt>
      <trkpt lat="43.268260" lon="-4.831720">
        <ele>186.072</ele>
        <time>2020-05-20T19:02:00Z</time>
      </trkpt>
      <trkpt lat="43.268280" lon="-4.831710">
        <ele>185.513</ele>
        <time>2020-05-20T19:02:20Z</time>
      </trkpt>
      <trkpt lat="43.268300" lon="-4.831680">
        <ele>184.214</ele>
        <time>2020-05-20T19:02:40Z</time>
      </trkpt>
      <trkpt lat="43.268320" lon="-4.831650">
        <ele>183.708</ele>
        <time>2020-05-20T19:03:00Z</time>
      </trkpt>
      <trkpt lat="43.268330" lon="-4.831640">
        <ele>183.851</ele>
        <time>2020-05-20T19:03:20Z</time>
      </trkpt>
      <trkpt lat="43.268360" lon="-4.831590">
        <ele>185.066</ele>
        <time>2020-05-20T19:03:40Z</time>
      </trkpt>
      <trkpt lat="43.268420" lon="-4.831500">
        <ele>186.482</ele>
        <time>2020-05-20T19:04:00Z</time>
      </trkpt>
      <trkpt lat="43.268440" lon="-4.831460">
        <ele>186.665</ele>
        <time>2020-05-20T19:04:20Z</time>
      </trkpt>
      <trkpt lat="43.268480" lon="-4.831410">
        <ele>186.245</ele>
        <time>2020-05-20T19:04:40Z</time>
      </trkpt>
      <trkpt lat="43.268560" lon="-4.831340">
        <ele>186.555</ele>
        <time>2020-05-20T19:05:00Z</time>
      </trkpt>
      <trkpt lat="43.268590" lon="-4.831320">
        <ele>186.625</ele>
        <time>2020-05-20T19:05:20Z</time>
      </trkpt>
      <trkpt lat="43.268640" lon="-4.831280">
        <ele>187.494</ele>
        <time>2020-05-20T19:05:40Z</time>
      </trkpt>
      <trkpt lat="43.268730" lon="-4.831230">
        <ele>188.259</ele>
        <time>2020-05-20T19:06:00Z</time>
      </trkpt>
      <trkpt lat="43.268750" lon="-4.831220">
        <ele>188.303</ele>
        <time>2020-05-20T19:06:20Z</time>
      </trkpt>
      <trkpt lat="43.268840" lon="-4.831180">
        <ele>188.123</ele>
        <time>2020-05-20T19:06:40Z</time>
      </trkpt>
      <trkpt lat="43.268920" lon="-4.831150">
        <ele>187.608</ele>
        <time>2020-05-20T19:07:00Z</time>
      </trkpt>
      <trkpt lat="43.268930" lon="-4.831150">
        <ele>187.419</ele>
        <time>2020-05-20T19:07:20Z</time>
      </trkpt>
      <trkpt lat="43.269040" lon="-4.831110">
        <ele>186.454</ele>
        <time>2020-05-20T19:07:40Z</time>
      </trkpt>
      <trkpt lat="43.269100" lon="-4.831100">
        <ele>186.080</ele>
        <time>2020-05-20T19:08:00Z</time>
      </trkpt>
      <trkpt lat="43.269160" lon="-4.831080">
        <ele>186.253</ele>
        <time>2020-05-20T19:08:20Z</time>
      </trkpt>
      <trkpt lat="43.269280" lon="-4.831080">
        <ele>185.553</ele>
        <time>2020-05-20T19:08:40Z</time>
      </trkpt>
      <trkpt lat="43.269330" lon="-4.831080">
        <ele>185.323</ele>
        <time>2020-05-20T19:09:00Z</time>
      </trkpt>
      <trkpt lat="43.269460" lon="-4.831080">
        <ele>184.873</ele>
        <time>2020-05-20T19:09:20Z</time>
      </trkpt>
      <trkpt lat="43.269490" lon="-4.831080">
        <ele>184.892</ele>
        <time>2020-05-20T19:09:40Z</time>
      </trkpt>
      <trkpt lat="43.269640" lon="-4.831080">
        <ele>184.777</ele>
        <time>2020-05-20T19:10:00Z</time>
      </trkpt>
      <trkpt lat="43.269680" lon="-4.831080">
        <ele>184.761</ele>
        <time>2020-05-20T19:10:20Z</time>
      </trkpt>
      <trkpt lat="43.269800" lon="-4.831080">
        <ele>185.227</ele>
        <time>2020-05-20T19:10:40Z</time>
      </trkpt>
      <trkpt lat="43.269820" lon="-4.831080">
        <ele>185.308</ele>
        <time>2020-05-20T19:11:00Z</time>
      </trkpt>
      <trkpt lat="43.269930" lon="-4.831080">
        <ele>186.031</ele>
        <time>2020-05-20T19:11:20Z</time>
      </trkpt>
      <trkpt lat="43.269980" lon="-4.831090">
        <ele>185.626</ele>
        <time>2020-05-20T19:11:40Z</time>
      </trkpt>
      <trkpt lat="43.270000" lon="-4.831090">
        <ele>185.792</ele>
        <time>2020-05-20T19:12:00Z</time>
      </trkpt>
      <trkpt lat="43.270030" lon="-4.831100">
        <ele>185.825</ele>
        <time>2020-05-20T19:12:20Z</time>
      </trkpt>
      <trkpt lat="43.270080" lon="-4.831110">
        <ele>186.485</ele>
        <time>2020-05-20T19:12:40Z</time>
      </trkpt>
      <trkpt lat="43.270130" lon="-4.831130">
        <ele>187.355</ele>
        <time>2020-05-20T19:13:00Z</time>
      </trkpt>
      <trkpt lat="43.270170" lon="-4.831160">
        <ele>187.585</ele>
        <time>2020-05-20T19:13:20Z</time>
      </trkpt>
      <trkpt lat="43.270210" lon="-4.831180">
        <ele>187.844</ele>
        <time>2020-05-20T19:13:40Z</time>
      </trkpt>
      <trkpt lat="43.270320" lon="-4.831290">
        <ele>187.936</ele>
        <time>2020-05-20T19:14:00Z</time>
      </trkpt>
      <trkpt lat="43.270460" lon="-4.831440">
        <ele>189.617</ele>
        <time>2020-05-20T19:14:20Z</time>
      </trkpt>
      <trkpt lat="43.270480" lon="-4.831460">
        <ele>189.618</ele>
        <time>2020-05-20T19:14:40Z</time>
      </trkpt>
      <trkpt lat="43.270610" lon="-4.831580">
        <ele>188.208</ele>
        <time>2020-05-20T19:15:00Z</time>
      </trkpt>
      <trkpt lat="43.270630" lon="-4.831590">
        <ele>188.647</ele>
        <time>2020-05-20T19:15:20Z</time>
      </trkpt>
      <trkpt lat="43.270790" lon="-4.831750">
        <ele>186.122</ele>
        <time>2020-05-20T19:15:40Z</time>
      </trkpt>
      <trkpt lat="43.270910" lon="-4.831860">
        <ele>187.448</ele>
        <time>2020-05-20T19:16:00Z</time>
      </trkpt>
      <trkpt lat="43.270940" lon="-4.831880">
        <ele>187.971</ele>
        <time>2020-05-20T19:16:20Z</time>
      </trkpt>
      <trkpt lat="43.271060" lon="-4.831990">
        <ele>187.211</ele>
        <time>2020-05-20T19:16:40Z</time>
      </trkpt>
      <trkpt lat="43.271130" lon="-4.832040">
        <ele>187.941</ele>
        <time>2020-05-20T19:17:00Z</time>
      </trkpt>
      <trkpt lat="43.271190" lon="-4.832090">
        <ele>189.421</ele>
        <time>2020-05-20T19:17:20Z</time>
      </trkpt>
      <trkpt lat="43.271220" lon="-4.832110">
        <ele>189.950</ele>
        <time>2020-05-20T19:17:40Z</time>
      </trkpt>
      <trkpt lat="43.271250" lon="-4.832130">
        <ele>190.038</ele>
        <time>2020-05-20T19:18:00Z</time>
      </trkpt>
      <trkpt lat="43.271360" lon="-4.832190">
        <ele>188.870</ele>
        <time>2020-05-20T19:18:20Z</time>
      </trkpt>
      <trkpt lat="43.271390" lon="-4.832200">
        <ele>188.617</ele>
        <time>2020-05-20T19:18:40Z</time>
      </trkpt>
      <trkpt lat="43.271470" lon="-4.832230">
        <ele>187.008</ele>
        <time>2020-05-20T19:19:00Z</time>
      </trkpt>
      <trkpt lat="43.271560" lon="-4.832270">
        <ele>186.887</ele>
        <time>2020-05-20T19:19:20Z</time>
      </trkpt>
      <trkpt lat="43.271570" lon="-4.832270">
        <ele>186.962</ele>
        <time>2020-05-20T19:19:40Z</time>
      </trkpt>
      <trkpt lat="43.271700" lon="-4.832330">
        <ele>185.648</ele>
        <time>2020-05-20T19:20:00Z</time>
      </trkpt>
      <trkpt lat="43.271820" lon="-4.832380">
        <ele>184.671</ele>
        <time>2020-05-20T19:20:20Z</time>
      </trkpt>
      <trkpt lat="43.271900" lon="-4.832410">
        <ele>184.141</ele>
        <time>2020-05-20T19:20:40Z</time>
      </trkpt>
      <trkpt lat="43.272080" lon="-4.832480">
        <ele>183.231</ele>
        <time>2020-05-20T19:21:00Z</time>
      </trkpt>
      <trkpt lat="43.272140" lon="-4.832510">
        <ele>182.291</ele>
        <time>2020-05-20T19:21:20Z</time>
      </trkpt>
      <trkpt lat="43.272370" lon="-4.832600">
        <ele>183.230</ele>
        <time>2020-05-20T19:21:40Z</time>
      </trkpt>
      <trkpt lat="43.272680" lon="-4.832730">
        <ele>183.577</ele>
        <time>2020-05-20T19:22:00Z</time>
      </trkpt>
      <trkpt lat="43.272770" lon="-4.832760">
        <ele>183.861</ele>
        <time>2020-05-20T19:22:20Z</time>
      </trkpt>
      <trkpt lat="43.272940" lon="-4.832820">
        <ele>185.127</ele>
        <time>2020-05-20T19:22:40Z</time>
      </trkpt>
      <trkpt lat="43.272980" lon="-4.832840">
        <ele>185.108</ele>
        <time>2020-05-20T19:23:00Z</time>
      </trkpt>
      <trkpt lat="43.273080" lon="-4.832870">
        <ele>185.841</ele>
        <time>2020-05-20T19:23:20Z</time>
      </trkpt>
      <trkpt lat="43.273110" lon="-4.832890">
        <ele>185.746</ele>
        <time>2020-05-20T19:23:40Z</time>
      </trkpt>
      <trkpt lat="43.273280" lon="-4.832950">
        <ele>186.552</ele>
        <time>2020-05-20T19:24:00Z</time>
      </trkpt>
      <trkpt lat="43.273400" lon="-4.832980">
        <ele>186.765</ele>
        <time>2020-05-20T19:24:20Z</time>
      </trkpt>
      <trkpt lat="43.273460" lon="-4.832990">
        <ele>186.735</ele>
        <time>2020-05-20T19:24:40Z</time>
      </trkpt>
      <trkpt lat="43.273570" lon="-4.833010">
        <ele>186.755</ele>
        <time>2020-05-20T19:25:00Z</time>
      </trkpt>
      <trkpt lat="43.273640" lon="-4.833010">
        <ele>187.275</ele>
        <time>2020-05-20T19:25:20Z</time>
      </trkpt>
      <trkpt lat="43.273740" lon="-4.833010">
        <ele>188.134</ele>
        <time>2020-05-20T19:25:40Z</time>
      </trkpt>
      <trkpt lat="43.273820" lon="-4.833010">
        <ele>188.774</ele>
        <time>2020-05-20T19:26:00Z</time>
      </trkpt>
      <trkpt lat="43.273890" lon="-4.833010">
        <ele>189.356</ele>
        <time>2020-05-20T19:26:20Z</time>
      </trkpt>
      <trkpt lat="43.273960" lon="-4.833000">
        <ele>190.521</ele>
        <time>2020-05-20T19:26:40Z</time>
      </trkpt>
      <trkpt lat="43.273990" lon="-4.833000">
        <ele>190.808</ele>
        <time>2020-05-20T19:27:00Z</time>
      </trkpt>
      <trkpt lat="43.274000" lon="-4.833000">
        <ele>191.091</ele>
        <time>2020-05-20T19:27:20Z</time>
      </trkpt>
      <trkpt lat="43.274010" lon="-4.833000">
        <ele>191.176</ele>
        <time>2020-05-20T19:27:40Z</time>
      </trkpt>
      <trkpt lat="43.274030" lon="-4.833000">
        <ele>191.322</ele>
        <time>2020-05-20T19:28:00Z</time>
      </trkpt>
      <trkpt lat="43.274050" lon="-4.833010">
        <ele>191.315</ele>
        <time>2020-05-20T19:28:20Z</time>
      </trkpt>
      <trkpt lat="43.274080" lon="-4.833030">
        <ele>191.345</ele>
        <time>2020-05-20T19:28:40Z</time>
      </trkpt>
      <trkpt lat="43.274140" lon="-4.833070">
        <ele>191.285</ele>
        <time>2020-05-20T19:29:00Z</time>
      </trkpt>
      <trkpt lat="43.274140" lon="-4.833080">
        <ele>190.985</ele>
        <time>2020-05-20T19:29:20Z</time>
      </trkpt>
      <trkpt lat="43.274210" lon="-4.833130">
        <ele>190.794</ele>
        <time>2020-05-20T19:29:40Z</time>
      </trkpt>
      <trkpt lat="43.274270" lon="-4.833180">
        <ele>190.416</ele>
        <time>2020-05-20T19:30:00Z</time>
      </trkpt>
      <trkpt lat="43.274300" lon="-4.833200">
        <ele>190.576</ele>
        <time>2020-05-20T19:30:20Z</time>
      </trkpt>
      <trkpt lat="43.274400" lon="-4.833270">
        <ele>190.713</ele>
        <time>2020-05-20T19:30:40Z</time>
      </trkpt>
      <trkpt lat="43.274460" lon="-4.833310">
        <ele>190.808</ele>
        <time>2020-05-20T19:31:00Z</time>
      </trkpt>
      <trkpt lat="43.274600" lon="-4.833390">
        <ele>189.925</ele>
        <time>2020-05-20T19:31:20Z</time>
      </trkpt>
      <trkpt lat="43.274630" lon="-4.833410">
        <ele>189.880</ele>
        <time>2020-05-20T19:31:40Z</time>
      </trkpt>
      <trkpt lat="43.274790" lon="-4.833510">
        <ele>189.846</ele>
        <time>2020-05-20T19:32:00Z</time>
      </trkpt>
      <trkpt lat="43.274810" lon="-4.833520">
        <ele>189.899</ele>
        <time>2020-05-20T19:32:20Z</time>
      </trkpt>
      <trkpt lat="43.274930" lon="-4.833600">
        <ele>189.589</ele>
        <time>2020-05-20T19:32:40Z</time>
      </trkpt>
      <trkpt lat="43.274950" lon="-4.833610">
        <ele>189.539</ele>
        <time>2020-05-20T19:33:00Z</time>
      </trkpt>
      <trkpt lat="43.275000" lon="-4.833640">
        <ele>189.469</ele>
        <time>2020-05-20T19:33:20Z</time>
      </trkpt>
      <trkpt lat="43.275090" lon="-4.833710">
        <ele>188.298</ele>
        <time>2020-05-20T19:33:40Z</time>
      </trkpt>
      <trkpt lat="43.275110" lon="-4.833720">
        <ele>188.179</ele>
        <time>2020-05-20T19:34:00Z</time>
      </trkpt>
      <trkpt lat="43.275160" lon="-4.833760">
        <ele>187.705</ele>
        <time>2020-05-20T19:34:20Z</time>
      </trkpt>
      <trkpt lat="43.275260" lon="-4.833860">
        <ele>187.125</ele>
        <time>2020-05-20T19:34:40Z</time>
      </trkpt>
      <trkpt lat="43.275270" lon="-4.833870">
        <ele>187.108</ele>
        <time>2020-05-20T19:35:00Z</time>
      </trkpt>
      <trkpt lat="43.275320" lon="-4.833930">
        <ele>187.121</ele>
        <time>2020-05-20T19:35:20Z</time>
      </trkpt>
      <trkpt lat="43.275360" lon="-4.833980">
        <ele>187.046</ele>
        <time>2020-05-20T19:35:40Z</time>
      </trkpt>
      <trkpt lat="43.275390" lon="-4.834030">
        <ele>186.842</ele>
        <time>2020-05-20T19:36:00Z</time>
      </trkpt>
      <trkpt lat="43.275460" lon="-4.834120">
        <ele>186.245</ele>
        <time>2020-05-20T19:36:20Z</time>
      </trkpt>
      <trkpt lat="43.275530" lon="-4.834190">
        <ele>185.225</ele>
        <time>2020-05-20T19:36:40Z</time>
      </trkpt>
      <trkpt lat="43.275530" lon="-4.834200">
        <ele>184.995</ele>
        <time>2020-05-20T19:37:00Z</time>
      </trkpt>
      <trkpt lat="43.275580" lon="-4.834240">
        <ele>183.735</ele>
        <time>2020-05-20T19:37:20Z</time>
      </trkpt>
      <trkpt lat="43.275670" lon="-4.834290">
        <ele>181.624</ele>
        <time>2020-05-20T19:37:40Z</time>
      </trkpt>
      <trkpt lat="43.275690" lon="-4.834300">
        <ele>181.272</ele>
        <time>2020-05-20T19:38:00Z</time>
      </trkpt>
      <trkpt lat="43.275720" lon="-4.834310">
        <ele>180.713</ele>
        <time>2020-05-20T19:38:20Z</time>
      </trkpt>
      <trkpt lat="43.275760" lon="-4.834320">
        <ele>180.114</ele>
        <time>2020-05-20T19:38:40Z</time>
      </trkpt>
      <trkpt lat="43.275840" lon="-4.834320">
        <ele>179.508</ele>
        <time>2020-05-20T19:39:00Z</time>
      </trkpt>
      <trkpt lat="43.275870" lon="-4.834320">
        <ele>179.211</ele>
        <time>2020-05-20T19:39:20Z</time>
      </trkpt>
      <trkpt lat="43.275950" lon="-4.834310">
        <ele>178.846</ele>
        <time>2020-05-20T19:39:40Z</time>
      </trkpt>
      <trkpt lat="43.276050" lon="-4.834290">
        <ele>178.542</ele>
        <time>2020-05-20T19:40:00Z</time>
      </trkpt>
      <trkpt lat="43.276090" lon="-4.834280">
        <ele>178.535</ele>
        <time>2020-05-20T19:40:20Z</time>
      </trkpt>
      <trkpt lat="43.276170" lon="-4.834270">
        <ele>177.255</ele>
        <time>2020-05-20T19:40:40Z</time>
      </trkpt>
      <trkpt lat="43.276220" lon="-4.834260">
        <ele>176.275</ele>
        <time>2020-05-20T19:41:00Z</time>
      </trkpt>
      <trkpt lat="43.276270" lon="-4.834250">
        <ele>175.215</ele>
        <time>2020-05-20T19:41:20Z</time>
      </trkpt>
      <trkpt lat="43.276340" lon="-4.834220">
        <ele>174.234</ele>
        <time>2020-05-20T19:41:40Z</time>
      </trkpt>
      <trkpt lat="43.276380" lon="-4.834190">
        <ele>173.758</ele>
        <time>2020-05-20T19:42:00Z</time>
      </trkpt>
      <trkpt lat="43.276400" lon="-4.834190">
        <ele>173.352</ele>
        <time>2020-05-20T19:42:20Z</time>
      </trkpt>
      <trkpt lat="43.276440" lon="-4.834160">
        <ele>173.217</ele>
        <time>2020-05-20T19:42:40Z</time>
      </trkpt>
      <trkpt lat="43.276520" lon="-4.834070">
        <ele>175.208</ele>
        <time>2020-05-20T19:43:00Z</time>
      </trkpt>
      <trkpt lat="43.276540" lon="-4.834040">
        <ele>175.839</ele>
        <time>2020-05-20T19:43:20Z</time>
      </trkpt>
      <trkpt lat="43.276570" lon="-4.834010">
        <ele>176.074</ele>
        <time>2020-05-20T19:43:40Z</time>
      </trkpt>
      <trkpt lat="43.276690" lon="-4.833910">
        <ele>174.980</ele>
        <time>2020-05-20T19:44:00Z</time>
      </trkpt>
      <trkpt lat="43.276710" lon="-4.833900">
        <ele>174.673</ele>
        <time>2020-05-20T19:44:20Z</time>
      </trkpt>
      <trkpt lat="43.276800" lon="-4.833840">
        <ele>175.443</ele>
        <time>2020-05-20T19:44:40Z</time>
      </trkpt>
      <trkpt lat="43.276840" lon="-4.833820">
        <ele>175.313</ele>
        <time>2020-05-20T19:45:00Z</time>
      </trkpt>
      <trkpt lat="43.276860" lon="-4.833810">
        <ele>175.343</ele>
        <time>2020-05-20T19:45:20Z</time>
      </trkpt>
      <trkpt lat="43.276880" lon="-4.833800">
        <ele>175.252</ele>
        <time>2020-05-20T19:45:40Z</time>
      </trkpt>
      <trkpt lat="43.276920" lon="-4.833780">
        <ele>174.921</ele>
        <time>2020-05-20T19:46:00Z</time>
      </trkpt>
      <trkpt lat="43.276970" lon="-4.833770">
        <ele>174.741</ele>
        <time>2020-05-20T19:46:20Z</time>
      </trkpt>
      <trkpt lat="43.277020" lon="-4.833760">
        <ele>175.405</ele>
        <time>2020-05-20T19:46:40Z</time>
      </trkpt>
      <trkpt lat="43.277030" lon="-4.833750">
        <ele>176.008</ele>
        <time>2020-05-20T19:47:00Z</time>
      </trkpt>
      <trkpt lat="43.277050" lon="-4.833750">
        <ele>176.186</ele>
        <time>2020-05-20T19:47:20Z</time>
      </trkpt>
      <trkpt lat="43.277100" lon="-4.833750">
        <ele>176.361</ele>
        <time>2020-05-20T19:47:40Z</time>
      </trkpt>
      <trkpt lat="43.277140" lon="-4.833750">
        <ele>176.627</ele>
        <time>2020-05-20T19:48:00Z</time>
      </trkpt>
      <trkpt lat="43.277170" lon="-4.833750">
        <ele>176.770</ele>
        <time>2020-05-20T19:48:20Z</time>
      </trkpt>
      <trkpt lat="43.277200" lon="-4.833760">
        <ele>176.470</ele>
        <time>2020-05-20T19:48:40Z</time>
      </trkpt>
      <trkpt lat="43.277210" lon="-4.833770">
        <ele>176.190</ele>
        <time>2020-05-20T19:49:00Z</time>
      </trkpt>
      <trkpt lat="43.277250" lon="-4.833780">
        <ele>176.430</ele>
        <time>2020-05-20T19:49:20Z</time>
      </trkpt>
      <trkpt lat="43.277300" lon="-4.833810">
        <ele>176.349</ele>
        <time>2020-05-20T19:49:40Z</time>
      </trkpt>
      <trkpt lat="43.277380" lon="-4.833850">
        <ele>176.338</ele>
        <time>2020-05-20T19:50:00Z</time>
      </trkpt>
      <trkpt lat="43.277480" lon="-4.833920">
        <ele>175.570</ele>
        <time>2020-05-20T19:50:20Z</time>
      </trkpt>
      <trkpt lat="43.277540" lon="-4.833960">
        <ele>175.917</ele>
        <time>2020-05-20T19:50:40Z</time>
      </trkpt>
      <trkpt lat="43.277700" lon="-4.834070">
        <ele>176.308</ele>
        <time>2020-05-20T19:51:00Z</time>
      </trkpt>
      <trkpt lat="43.277730" lon="-4.834080">
        <ele>176.697</ele>
        <time>2020-05-20T19:51:20Z</time>
      </trkpt>
      <trkpt lat="43.277850" lon="-4.834160">
        <ele>176.312</ele>
        <time>2020-05-20T19:51:40Z</time>
      </trkpt>
      <trkpt lat="43.277870" lon="-4.834170">
        <ele>176.548</ele>
        <time>2020-05-20T19:52:00Z</time>
      </trkpt>
      <trkpt lat="43.278030" lon="-4.834280">
        <ele>176.861</ele>
        <time>2020-05-20T19:52:20Z</time>
      </trkpt>
      <trkpt lat="43.278030" lon="-4.834290">
        <ele>176.331</ele>
        <time>2020-05-20T19:52:40Z</time>
      </trkpt>
      <trkpt lat="43.278190" lon="-4.834390">
        <ele>175.771</ele>
        <time>2020-05-20T19:53:00Z</time>
      </trkpt>
      <trkpt lat="43.278210" lon="-4.834410">
        <ele>174.961</ele>
        <time>2020-05-20T19:53:20Z</time>
      </trkpt>
      <trkpt lat="43.278290" lon="-4.834460">
        <ele>174.230</ele>
        <time>2020-05-20T19:53:40Z</time>
      </trkpt>
      <trkpt lat="43.278350" lon="-4.834500">
        <ele>173.912</ele>
        <time>2020-05-20T19:54:00Z</time>
      </trkpt>
      <trkpt lat="43.278420" lon="-4.834550">
        <ele>172.432</ele>
        <time>2020-05-20T19:54:20Z</time>
      </trkpt>
      <trkpt lat="43.278470" lon="-4.834580">
        <ele>171.405</ele>
        <time>2020-05-20T19:54:40Z</time>
      </trkpt>
      <trkpt lat="43.278490" lon="-4.834590">
        <ele>171.008</ele>
        <time>2020-05-20T19:55:00Z</time>
      </trkpt>
      <trkpt lat="43.278520" lon="-4.834590">
        <ele>171.265</ele>
        <time>2020-05-20T19:55:20Z</time>
      </trkpt>
      <trkpt lat="43.278520" lon="-4.834600">
        <ele>170.750</ele>
        <time>2020-05-20T19:55:40Z</time>
      </trkpt>
      <trkpt lat="43.278560" lon="-4.834600">
        <ele>170.916</ele>
        <time>2020-05-20T19:56:00Z</time>
      </trkpt>
      <trkpt lat="43.278590" lon="-4.834610">
        <ele>170.689</ele>
        <time>2020-05-20T19:56:20Z</time>
      </trkpt>
      <trkpt lat="43.278650" lon="-4.834610">
        <ele>170.379</ele>
        <time>2020-05-20T19:56:40Z</time>
      </trkpt>
      <trkpt lat="43.278690" lon="-4.834610">
        <ele>170.019</ele>
        <time>2020-05-20T19:57:00Z</time>
      </trkpt>
      <trkpt lat="43.278710" lon="-4.834610">
        <ele>169.969</ele>
        <time>2020-05-20T19:57:20Z</time>
      </trkpt>
      <trkpt lat="43.278780" lon="-4.834600">
        <ele>169.798</ele>
        <time>2020-05-20T19:57:40Z</time>
      </trkpt>
      <trkpt lat="43.278870" lon="-4.834590">
        <ele>169.455</ele>
        <time>2020-05-20T19:58:00Z</time>
      </trkpt>
      <trkpt lat="43.278890" lon="-4.834580">
        <ele>169.607</ele>
        <time>2020-05-20T19:58:20Z</time>
      </trkpt>
      <trkpt lat="43.278950" lon="-4.834570">
        <ele>169.717</ele>
        <time>2020-05-20T19:58:40Z</time>
      </trkpt>
      <trkpt lat="43.279050" lon="-4.834550">
        <ele>169.708</ele>
        <time>2020-05-20T19:59:00Z</time>
      </trkpt>
      <trkpt lat="43.279110" lon="-4.834530">
        <ele>170.089</ele>
        <time>2020-05-20T19:59:20Z</time>
      </trkpt>
      <trkpt lat="43.279230" lon="-4.834510">
        <ele>169.664</ele>
        <time>2020-05-20T19:59:40Z</time>
      </trkpt>
      <trkpt lat="43.279410" lon="-4.834470">
        <ele>168.920</ele>
        <time>2020-05-20T20:00:00Z</time>
      </trkpt>
      <trkpt lat="43.279690" lon="-4.834410">
        <ele>169.513</ele>
        <time>2020-05-20T20:00:20Z</time>
      </trkpt>
      <trkpt lat="43.279910" lon="-4.834360">
        <ele>170.593</ele>
        <time>2020-05-20T20:00:40Z</time>
      </trkpt>
      <trkpt lat="43.279940" lon="-4.834360">
        <ele>170.323</ele>
        <time>2020-05-20T20:01:00Z</time>
      </trkpt>
      <trkpt lat="43.280120" lon="-4.834340">
        <ele>170.593</ele>
        <time>2020-05-20T20:01:20Z</time>
      </trkpt>
      <trkpt lat="43.280300" lon="-4.834320">
        <ele>170.882</ele>
        <time>2020-05-20T20:01:40Z</time>
      </trkpt>
      <trkpt lat="43.280380" lon="-4.834320">
        <ele>170.621</ele>
        <time>2020-05-20T20:02:00Z</time>
      </trkpt>
      <trkpt lat="43.280480" lon="-4.834300">
        <ele>171.041</ele>
        <time>2020-05-20T20:02:20Z</time>
      </trkpt>
      <trkpt lat="43.280660" lon="-4.834290">
        <ele>170.405</ele>
        <time>2020-05-20T20:02:40Z</time>
      </trkpt>
      <trkpt lat="43.280730" lon="-4.834280">
        <ele>170.308</ele>
        <time>2020-05-20T20:03:00Z</time>
      </trkpt>
      <trkpt lat="43.280840" lon="-4.834260">
        <ele>170.246</ele>
        <time>2020-05-20T20:03:20Z</time>
      </trkpt>
      <trkpt lat="43.281010" lon="-4.834240">
        <ele>168.621</ele>
        <time>2020-05-20T20:03:40Z</time>
      </trkpt>
      <trkpt lat="43.281160" lon="-4.834200">
        <ele>167.827</ele>
        <time>2020-05-20T20:04:00Z</time>
      </trkpt>
      <trkpt lat="43.281240" lon="-4.834180">
        <ele>167.870</ele>
        <time>2020-05-20T20:04:20Z</time>
      </trkpt>
      <trkpt lat="43.281370" lon="-4.834160">
        <ele>167.650</ele>
        <time>2020-05-20T20:04:40Z</time>
      </trkpt>
      <trkpt lat="43.281660" lon="-4.834120">
        <ele>168.690</ele>
        <time>2020-05-20T20:05:00Z</time>
      </trkpt>
      <trkpt lat="43.281730" lon="-4.834100">
        <ele>168.910</ele>
        <time>2020-05-20T20:05:20Z</time>
      </trkpt>
      <trkpt lat="43.281850" lon="-4.834080">
        <ele>168.529</ele>
        <time>2020-05-20T20:05:40Z</time>
      </trkpt>
      <trkpt lat="43.281910" lon="-4.834060">
        <ele>168.857</ele>
        <time>2020-05-20T20:06:00Z</time>
      </trkpt>
      <trkpt lat="43.281940" lon="-4.834050">
        <ele>168.900</ele>
        <time>2020-05-20T20:06:20Z</time>
      </trkpt>
      <trkpt lat="43.282060" lon="-4.834030">
        <ele>169.920</ele>
        <time>2020-05-20T20:06:40Z</time>
      </trkpt>
      <trkpt lat="43.282200" lon="-4.834030">
        <ele>169.908</ele>
        <time>2020-05-20T20:07:00Z</time>
      </trkpt>
      <trkpt lat="43.282410" lon="-4.834020">
        <ele>169.429</ele>
        <time>2020-05-20T20:07:20Z</time>
      </trkpt>
      <trkpt lat="43.282440" lon="-4.834020">
        <ele>169.294</ele>
        <time>2020-05-20T20:07:40Z</time>
      </trkpt>
      <trkpt lat="43.282690" lon="-4.834010">
        <ele>168.710</ele>
        <time>2020-05-20T20:08:00Z</time>
      </trkpt>
      <trkpt lat="43.282800" lon="-4.834000">
        <ele>168.613</ele>
        <time>2020-05-20T20:08:20Z</time>
      </trkpt>
      <trkpt lat="43.282900" lon="-4.833990">
        <ele>167.953</ele>
        <time>2020-05-20T20:08:40Z</time>
      </trkpt>
      <trkpt lat="43.282980" lon="-4.833980">
        <ele>167.613</ele>
        <time>2020-05-20T20:09:00Z</time>
      </trkpt>
      <trkpt lat="43.283010" lon="-4.833980">
        <ele>167.273</ele>
        <time>2020-05-20T20:09:20Z</time>
      </trkpt>
      <trkpt lat="43.283150" lon="-4.833960">
        <ele>166.592</ele>
        <time>2020-05-20T20:09:40Z</time>
      </trkpt>
      <trkpt lat="43.283340" lon="-4.833910">
        <ele>166.144</ele>
        <time>2020-05-20T20:10:00Z</time>
      </trkpt>
      <trkpt lat="43.283380" lon="-4.833890">
        <ele>166.505</ele>
        <time>2020-05-20T20:10:20Z</time>
      </trkpt>
      <trkpt lat="43.283510" lon="-4.833840">
        <ele>169.015</ele>
        <time>2020-05-20T20:10:40Z</time>
      </trkpt>
      <trkpt lat="43.283540" lon="-4.833830">
        <ele>169.308</ele>
        <time>2020-05-20T20:11:00Z</time>
      </trkpt>
      <trkpt lat="43.283650" lon="-4.833810">
        <ele>169.748</ele>
        <time>2020-05-20T20:11:20Z</time>
      </trkpt>
      <trkpt lat="43.283690" lon="-4.833810">
        <ele>169.823</ele>
        <time>2020-05-20T20:11:40Z</time>
      </trkpt>
      <trkpt lat="43.283750" lon="-4.833810">
        <ele>169.959</ele>
        <time>2020-05-20T20:12:00Z</time>
      </trkpt>
      <trkpt lat="43.283820" lon="-4.833810">
        <ele>170.042</ele>
        <time>2020-05-20T20:12:20Z</time>
      </trkpt>
      <trkpt lat="43.283870" lon="-4.833810">
        <ele>170.132</ele>
        <time>2020-05-20T20:12:40Z</time>
      </trkpt>
      <trkpt lat="43.283920" lon="-4.833810">
        <ele>170.212</ele>
        <time>2020-05-20T20:13:00Z</time>
      </trkpt>
      <trkpt lat="43.283950" lon="-4.833820">
        <ele>169.412</ele>
        <time>2020-05-20T20:13:20Z</time>
      </trkpt>
      <trkpt lat="43.284020" lon="-4.833830">
        <ele>168.741</ele>
        <time>2020-05-20T20:13:40Z</time>
      </trkpt>
      <trkpt lat="43.284050" lon="-4.833840">
        <ele>167.883</ele>
        <time>2020-05-20T20:14:00Z</time>
      </trkpt>
      <trkpt lat="43.284100" lon="-4.833850">
        <ele>166.925</ele>
        <time>2020-05-20T20:14:20Z</time>
      </trkpt>
      <trkpt lat="43.284170" lon="-4.833850">
        <ele>167.017</ele>
        <time>2020-05-20T20:14:40Z</time>
      </trkpt>
      <trkpt lat="43.284220" lon="-4.833840">
        <ele>167.408</ele>
        <time>2020-05-20T20:15:00Z</time>
      </trkpt>
      <trkpt lat="43.284230" lon="-4.833840">
        <ele>167.312</ele>
        <time>2020-05-20T20:15:20Z</time>
      </trkpt>
      <trkpt lat="43.284260" lon="-4.833830">
        <ele>167.867</ele>
        <time>2020-05-20T20:15:40Z</time>
      </trkpt>
      <trkpt lat="43.284290" lon="-4.833820">
        <ele>168.313</ele>
        <time>2020-05-20T20:16:00Z</time>
      </trkpt>
      <trkpt lat="43.284390" lon="-4.833780">
        <ele>169.986</ele>
        <time>2020-05-20T20:16:20Z</time>
      </trkpt>
      <trkpt lat="43.284400" lon="-4.833780">
        <ele>169.796</ele>
        <time>2020-05-20T20:16:40Z</time>
      </trkpt>
      <trkpt lat="43.284540" lon="-4.833740">
        <ele>171.036</ele>
        <time>2020-05-20T20:17:00Z</time>
      </trkpt>
      <trkpt lat="43.284580" lon="-4.833730">
        <ele>171.386</ele>
        <time>2020-05-20T20:17:20Z</time>
      </trkpt>
      <trkpt lat="43.284730" lon="-4.833700">
        <ele>171.765</ele>
        <time>2020-05-20T20:17:40Z</time>
      </trkpt>
      <trkpt lat="43.284750" lon="-4.833690">
        <ele>171.712</ele>
        <time>2020-05-20T20:18:00Z</time>
      </trkpt>
      <trkpt lat="43.284870" lon="-4.833670">
        <ele>169.732</ele>
        <time>2020-05-20T20:18:20Z</time>
      </trkpt>
      <trkpt lat="43.284930" lon="-4.833650">
        <ele>169.105</ele>
        <time>2020-05-20T20:18:40Z</time>
      </trkpt>
      <trkpt lat="43.284960" lon="-4.833640">
        <ele>168.808</ele>
        <time>2020-05-20T20:19:00Z</time>
      </trkpt>
      <trkpt lat="43.285000" lon="-4.833620">
        <ele>168.685</ele>
        <time>2020-05-20T20:19:20Z</time>
      </trkpt>
      <trkpt lat="43.285060" lon="-4.833600">
        <ele>168.490</ele>
        <time>2020-05-20T20:19:40Z</time>
      </trkpt>
      <trkpt lat="43.285100" lon="-4.833570">
        <ele>169.466</ele>
        <time>2020-05-20T20:20:00Z</time>
      </trkpt>
      <trkpt lat="43.285110" lon="-4.833570">
        <ele>169.219</ele>
        <time>2020-05-20T20:20:20Z</time>
      </trkpt>
      <trkpt lat="43.285150" lon="-4.833550">
        <ele>169.569</ele>
        <time>2020-05-20T20:20:40Z</time>
      </trkpt>
      <trkpt lat="43.285210" lon="-4.833520">
        <ele>169.739</ele>
        <time>2020-05-20T20:21:00Z</time>
      </trkpt>
      <trkpt lat="43.285240" lon="-4.833500">
        <ele>170.029</ele>
        <time>2020-05-20T20:21:20Z</time>
      </trkpt>
      <trkpt lat="43.285270" lon="-4.833480">
        <ele>170.328</ele>
        <time>2020-05-20T20:21:40Z</time>
      </trkpt>
      <trkpt lat="43.285310" lon="-4.833460">
        <ele>170.163</ele>
        <time>2020-05-20T20:22:00Z</time>
      </trkpt>
      <trkpt lat="43.285420" lon="-4.833390">
        <ele>170.244</ele>
        <time>2020-05-20T20:22:20Z</time>
      </trkpt>
      <trkpt lat="43.285530" lon="-4.833340">
        <ele>169.418</ele>
        <time>2020-05-20T20:22:40Z</time>
      </trkpt>
      <trkpt lat="43.285600" lon="-4.833300">
        <ele>169.908</ele>
        <time>2020-05-20T20:23:00Z</time>
      </trkpt>
      <trkpt lat="43.285630" lon="-4.833280">
        <ele>170.170</ele>
        <time>2020-05-20T20:23:20Z</time>
      </trkpt>
      <trkpt lat="43.285720" lon="-4.833230">
        <ele>169.575</ele>
        <time>2020-05-20T20:23:40Z</time>
      </trkpt>
      <trkpt lat="43.285770" lon="-4.833200">
        <ele>169.041</ele>
        <time>2020-05-20T20:24:00Z</time>
      </trkpt>
      <trkpt lat="43.285800" lon="-4.833170">
        <ele>169.254</ele>
        <time>2020-05-20T20:24:20Z</time>
      </trkpt>
      <trkpt lat="43.285900" lon="-4.833090">
        <ele>169.554</ele>
        <time>2020-05-20T20:24:40Z</time>
      </trkpt>
      <trkpt lat="43.285960" lon="-4.833040">
        <ele>170.064</ele>
        <time>2020-05-20T20:25:00Z</time>
      </trkpt>
      <trkpt lat="43.286040" lon="-4.832970">
        <ele>170.614</ele>
        <time>2020-05-20T20:25:20Z</time>
      </trkpt>
      <trkpt lat="43.286070" lon="-4.832940">
        <ele>170.813</ele>
        <time>2020-05-20T20:25:40Z</time>
      </trkpt>
      <trkpt lat="43.286200" lon="-4.832840">
        <ele>169.588</ele>
        <time>2020-05-20T20:26:00Z</time>
      </trkpt>
      <trkpt lat="43.286230" lon="-4.832810">
        <ele>169.424</ele>
        <time>2020-05-20T20:26:20Z</time>
      </trkpt>
      <trkpt lat="43.286310" lon="-4.832730">
        <ele>169.426</ele>
        <time>2020-05-20T20:26:40Z</time>
      </trkpt>
      <trkpt lat="43.286380" lon="-4.832670">
        <ele>168.908</ele>
        <time>2020-05-20T20:27:00Z</time>
      </trkpt>
      <trkpt lat="43.286430" lon="-4.832620">
        <ele>168.892</ele>
        <time>2020-05-20T20:27:20Z</time>
      </trkpt>
      <trkpt lat="43.286520" lon="-4.832520">
        <ele>168.947</ele>
        <time>2020-05-20T20:27:40Z</time>
      </trkpt>
      <trkpt lat="43.286590" lon="-4.832440">
        <ele>169.273</ele>
        <time>2020-05-20T20:28:00Z</time>
      </trkpt>
      <trkpt lat="43.286650" lon="-4.832360">
        <ele>170.026</ele>
        <time>2020-05-20T20:28:20Z</time>
      </trkpt>
      <trkpt lat="43.286670" lon="-4.832340">
        <ele>169.836</ele>
        <time>2020-05-20T20:28:40Z</time>
      </trkpt>
      <trkpt lat="43.286780" lon="-4.832190">
        <ele>169.156</ele>
        <time>2020-05-20T20:29:00Z</time>
      </trkpt>
      <trkpt lat="43.286890" lon="-4.832040">
        <ele>168.366</ele>
        <time>2020-05-20T20:29:20Z</time>
      </trkpt>
      <trkpt lat="43.286910" lon="-4.832010">
        <ele>168.325</ele>
        <time>2020-05-20T20:29:40Z</time>
      </trkpt>
      <trkpt lat="43.287030" lon="-4.831830">
        <ele>169.133</ele>
        <time>2020-05-20T20:30:00Z</time>
      </trkpt>
      <trkpt lat="43.287140" lon="-4.831670">
        <ele>170.423</ele>
        <time>2020-05-20T20:30:20Z</time>
      </trkpt>
      <trkpt lat="43.287240" lon="-4.831510">
        <ele>171.115</ele>
        <time>2020-05-20T20:30:40Z</time>
      </trkpt>
      <trkpt lat="43.287260" lon="-4.831460">
        <ele>172.008</ele>
        <time>2020-05-20T20:31:00Z</time>
      </trkpt>
      <trkpt lat="43.287260" lon="-4.831450">
        <ele>172.447</ele>
        <time>2020-05-20T20:31:20Z</time>
      </trkpt>
      <trkpt lat="43.287310" lon="-4.831390">
        <ele>171.382</ele>
        <time>2020-05-20T20:31:40Z</time>
      </trkpt>
      <trkpt lat="43.287340" lon="-4.831330">
        <ele>171.538</ele>
        <time>2020-05-20T20:32:00Z</time>
      </trkpt>
      <trkpt lat="43.287400" lon="-4.831210">
        <ele>172.141</ele>
        <time>2020-05-20T20:32:20Z</time>
      </trkpt>
      <trkpt lat="43.287450" lon="-4.831110">
        <ele>172.651</ele>
        <time>2020-05-20T20:32:40Z</time>
      </trkpt>
      <trkpt lat="43.287480" lon="-4.831070">
        <ele>172.371</ele>
        <time>2020-05-20T20:33:00Z</time>
      </trkpt>
      <trkpt lat="43.287550" lon="-4.830970">
        <ele>171.691</ele>
        <time>2020-05-20T20:33:20Z</time>
      </trkpt>
      <trkpt lat="43.287610" lon="-4.830900">
        <ele>169.820</ele>
        <time>2020-05-20T20:33:40Z</time>
      </trkpt>
      <trkpt lat="43.287610" lon="-4.830890">
        <ele>170.254</ele>
        <time>2020-05-20T20:34:00Z</time>
      </trkpt>
      <trkpt lat="43.287660" lon="-4.830820">
        <ele>168.656</ele>
        <time>2020-05-20T20:34:20Z</time>
      </trkpt>
      <trkpt lat="43.287700" lon="-4.830750">
        <ele>167.611</ele>
        <time>2020-05-20T20:34:40Z</time>
      </trkpt>
      <trkpt lat="43.287730" lon="-4.830690">
        <ele>167.408</ele>
        <time>2020-05-20T20:35:00Z</time>
      </trkpt>
      <trkpt lat="43.287810" lon="-4.830550">
        <ele>166.729</ele>
        <time>2020-05-20T20:35:20Z</time>
      </trkpt>
      <trkpt lat="43.287830" lon="-4.830510">
        <ele>166.654</ele>
        <time>2020-05-20T20:35:40Z</time>
      </trkpt>
      <trkpt lat="43.287890" lon="-4.830410">
        <ele>165.240</ele>
        <time>2020-05-20T20:36:00Z</time>
      </trkpt>
      <trkpt lat="43.287940" lon="-4.830300">
        <ele>164.723</ele>
        <time>2020-05-20T20:36:20Z</time>
      </trkpt>
      <trkpt lat="43.287960" lon="-4.830260">
        <ele>164.423</ele>
        <time>2020-05-20T20:36:40Z</time>
      </trkpt>
      <trkpt lat="43.288030" lon="-4.830090">
        <ele>164.123</ele>
        <time>2020-05-20T20:37:00Z</time>
      </trkpt>
      <trkpt lat="43.288120" lon="-4.829880">
        <ele>167.163</ele>
        <time>2020-05-20T20:37:20Z</time>
      </trkpt>
      <trkpt lat="43.288120" lon="-4.829860">
        <ele>168.332</ele>
        <time>2020-05-20T20:37:40Z</time>
      </trkpt>
      <trkpt lat="43.288210" lon="-4.829660">
        <ele>168.242</ele>
        <time>2020-05-20T20:38:00Z</time>
      </trkpt>
      <trkpt lat="43.288300" lon="-4.829450">
        <ele>165.922</ele>
        <time>2020-05-20T20:38:20Z</time>
      </trkpt>
      <trkpt lat="43.288350" lon="-4.829350">
        <ele>164.314</ele>
        <time>2020-05-20T20:38:40Z</time>
      </trkpt>
      <trkpt lat="43.288460" lon="-4.829110">
        <ele>164.508</ele>
        <time>2020-05-20T20:39:00Z</time>
      </trkpt>
      <trkpt lat="43.288500" lon="-4.829040">
        <ele>164.588</ele>
        <time>2020-05-20T20:39:20Z</time>
      </trkpt>
      <trkpt lat="43.288570" lon="-4.828930">
        <ele>165.283</ele>
        <time>2020-05-20T20:39:40Z</time>
      </trkpt>
      <trkpt lat="43.288600" lon="-4.828850">
        <ele>167.349</ele>
        <time>2020-05-20T20:40:00Z</time>
      </trkpt>
      <trkpt lat="43.288610" lon="-4.828840">
        <ele>167.292</ele>
        <time>2020-05-20T20:40:20Z</time>
      </trkpt>
      <trkpt lat="43.288640" lon="-4.828750">
        <ele>168.412</ele>
        <time>2020-05-20T20:40:40Z</time>
      </trkpt>
      <trkpt lat="43.288660" lon="-4.828670">
        <ele>169.822</ele>
        <time>2020-05-20T20:41:00Z</time>
      </trkpt>
      <trkpt lat="43.288670" lon="-4.828610">
        <ele>171.152</ele>
        <time>2020-05-20T20:41:20Z</time>
      </trkpt>
      <trkpt lat="43.288670" lon="-4.828580">
        <ele>172.041</ele>
        <time>2020-05-20T20:41:40Z</time>
      </trkpt>
      <trkpt lat="43.288700" lon="-4.828420">
        <ele>174.645</ele>
        <time>2020-05-20T20:42:00Z</time>
      </trkpt>
      <trkpt lat="43.288710" lon="-4.828370">
        <ele>175.647</ele>
        <time>2020-05-20T20:42:20Z</time>
      </trkpt>
      <trkpt lat="43.288740" lon="-4.828260">
        <ele>176.411</ele>
        <time>2020-05-20T20:42:40Z</time>
      </trkpt>
      <trkpt lat="43.288770" lon="-4.828130">
        <ele>177.308</ele>
        <time>2020-05-20T20:43:00Z</time>
      </trkpt>
      <trkpt lat="43.288770" lon="-4.828120">
        <ele>177.578</ele>
        <time>2020-05-20T20:43:20Z</time>
      </trkpt>
      <trkpt lat="43.288800" lon="-4.828020">
        <ele>178.083</ele>
        <time>2020-05-20T20:43:40Z</time>
      </trkpt>
      <trkpt lat="43.288840" lon="-4.827910">
        <ele>178.689</ele>
        <time>2020-05-20T20:44:00Z</time>
      </trkpt>
      <trkpt lat="43.288850" lon="-4.827870">
        <ele>179.172</ele>
        <time>2020-05-20T20:44:20Z</time>
      </trkpt>
      <trkpt lat="43.288910" lon="-4.827720">
        <ele>179.722</ele>
        <time>2020-05-20T20:44:40Z</time>
      </trkpt>
      <trkpt lat="43.288930" lon="-4.827690">
        <ele>179.442</ele>
        <time>2020-05-20T20:45:00Z</time>
      </trkpt>
      <trkpt lat="43.289030" lon="-4.827500">
        <ele>179.362</ele>
        <time>2020-05-20T20:45:20Z</time>
      </trkpt>
      <trkpt lat="43.289100" lon="-4.827370">
        <ele>181.331</ele>
        <time>2020-05-20T20:45:40Z</time>
      </trkpt>
      <trkpt lat="43.289140" lon="-4.827300">
        <ele>180.275</ele>
        <time>2020-05-20T20:46:00Z</time>
      </trkpt>
      <trkpt lat="43.289190" lon="-4.827210">
        <ele>178.928</ele>
        <time>2020-05-20T20:46:20Z</time>
      </trkpt>
      <trkpt lat="43.289250" lon="-4.827100">
        <ele>179.220</ele>
        <time>2020-05-20T20:46:40Z</time>
      </trkpt>
      <trkpt lat="43.289260" lon="-4.827070">
        <ele>179.808</ele>
        <time>2020-05-20T20:47:00Z</time>
      </trkpt>
      <trkpt lat="43.289330" lon="-4.826950">
        <ele>180.931</ele>
        <time>2020-05-20T20:47:20Z</time>
      </trkpt>
      <trkpt lat="43.289480" lon="-4.826730">
        <ele>184.346</ele>
        <time>2020-05-20T20:47:40Z</time>
      </trkpt>
      <trkpt lat="43.289610" lon="-4.826560">
        <ele>185.062</ele>
        <time>2020-05-20T20:48:00Z</time>
      </trkpt>
      <trkpt lat="43.289640" lon="-4.826520">
        <ele>185.275</ele>
        <time>2020-05-20T20:48:20Z</time>
      </trkpt>
      <trkpt lat="43.289700" lon="-4.826450">
        <ele>185.155</ele>
        <time>2020-05-20T20:48:40Z</time>
      </trkpt>
      <trkpt lat="43.289730" lon="-4.826410">
        <ele>185.525</ele>
        <time>2020-05-20T20:49:00Z</time>
      </trkpt>
      <trkpt lat="43.289750" lon="-4.826390">
        <ele>185.785</ele>
        <time>2020-05-20T20:49:20Z</time>
      </trkpt>
      <trkpt lat="43.289780" lon="-4.826340">
        <ele>187.564</ele>
        <time>2020-05-20T20:49:40Z</time>
      </trkpt>
      <trkpt lat="43.289800" lon="-4.826280">
        <ele>190.143</ele>
        <time>2020-05-20T20:50:00Z</time>
      </trkpt>
      <trkpt lat="43.289820" lon="-4.826230">
        <ele>192.164</ele>
        <time>2020-05-20T20:50:20Z</time>
      </trkpt>
      <trkpt lat="43.289830" lon="-4.826170">
        <ele>195.010</ele>
        <time>2020-05-20T20:50:40Z</time>
      </trkpt>
      <trkpt lat="43.289840" lon="-4.826150">
        <ele>195.608</ele>
        <time>2020-05-20T20:51:00Z</time>
      </trkpt>
      <trkpt lat="43.289840" lon="-4.826080">
        <ele>197.368</ele>
        <time>2020-05-20T20:51:20Z</time>
      </trkpt>
      <trkpt lat="43.289850" lon="-4.826010">
        <ele>195.623</ele>
        <time>2020-05-20T20:51:40Z</time>
      </trkpt>
      <trkpt lat="43.289870" lon="-4.825940">
        <ele>193.189</ele>
        <time>2020-05-20T20:52:00Z</time>
      </trkpt>
      <trkpt lat="43.289880" lon="-4.825890">
        <ele>191.642</ele>
        <time>2020-05-20T20:52:20Z</time>
      </trkpt>
      <trkpt lat="43.289900" lon="-4.825840">
        <ele>189.332</ele>
        <time>2020-05-20T20:52:40Z</time>
      </trkpt>
      <trkpt lat="43.289920" lon="-4.825790">
        <ele>188.322</ele>
        <time>2020-05-20T20:53:00Z</time>
      </trkpt>
      <trkpt lat="43.289940" lon="-4.825740">
        <ele>187.962</ele>
        <time>2020-05-20T20:53:20Z</time>
      </trkpt>
      <trkpt lat="43.289970" lon="-4.825700">
        <ele>187.271</ele>
        <time>2020-05-20T20:53:40Z</time>
      </trkpt>
      <trkpt lat="43.289990" lon="-4.825680">
        <ele>186.828</ele>
        <time>2020-05-20T20:54:00Z</time>
      </trkpt>
      <trkpt lat="43.290020" lon="-4.825660">
        <ele>187.489</ele>
        <time>2020-05-20T20:54:20Z</time>
      </trkpt>
      <trkpt lat="43.290050" lon="-4.825650">
        <ele>188.317</ele>
        <time>2020-05-20T20:54:40Z</time>
      </trkpt>
      <trkpt lat="43.290080" lon="-4.825640">
        <ele>189.408</ele>
        <time>2020-05-20T20:55:00Z</time>
      </trkpt>
      <trkpt lat="43.290100" lon="-4.825640">
        <ele>189.966</ele>
        <time>2020-05-20T20:55:20Z</time>
      </trkpt>
      <trkpt lat="43.290120" lon="-4.825640">
        <ele>190.341</ele>
        <time>2020-05-20T20:55:40Z</time>
      </trkpt>
      <trkpt lat="43.290140" lon="-4.825640">
        <ele>190.897</ele>
        <time>2020-05-20T20:56:00Z</time>
      </trkpt>
      <trkpt lat="43.290190" lon="-4.825640">
        <ele>191.970</ele>
        <time>2020-05-20T20:56:20Z</time>
      </trkpt>
      <trkpt lat="43.290220" lon="-4.825650">
        <ele>192.060</ele>
        <time>2020-05-20T20:56:40Z</time>
      </trkpt>
      <trkpt lat="43.290250" lon="-4.825660">
        <ele>191.940</ele>
        <time>2020-05-20T20:57:00Z</time>
      </trkpt>
      <trkpt lat="43.290280" lon="-4.825670">
        <ele>191.770</ele>
        <time>2020-05-20T20:57:20Z</time>
      </trkpt>
      <trkpt lat="43.290300" lon="-4.825680">
        <ele>190.939</ele>
        <time>2020-05-20T20:57:40Z</time>
      </trkpt>
      <trkpt lat="43.290310" lon="-4.825680">
        <ele>190.826</ele>
        <time>2020-05-20T20:58:00Z</time>
      </trkpt>
      <trkpt lat="43.290330" lon="-4.825680">
        <ele>190.647</ele>
        <time>2020-05-20T20:58:20Z</time>
      </trkpt>
      <trkpt lat="43.290360" lon="-4.825690">
        <ele>189.711</ele>
        <time>2020-05-20T20:58:40Z</time>
      </trkpt>
      <trkpt lat="43.290380" lon="-4.825690">
        <ele>189.608</ele>
        <time>2020-05-20T20:59:00Z</time>
      </trkpt>
      <trkpt lat="43.290410" lon="-4.825690">
        <ele>189.376</ele>
        <time>2020-05-20T20:59:20Z</time>
      </trkpt>
      <trkpt lat="43.290430" lon="-4.825680">
        <ele>189.881</ele>
        <time>2020-05-20T20:59:40Z</time>
      </trkpt>
      <trkpt lat="43.290450" lon="-4.825670">
        <ele>190.347</ele>
        <time>2020-05-20T21:00:00Z</time>
      </trkpt>
      <trkpt lat="43.290470" lon="-4.825660">
        <ele>190.850</ele>
        <time>2020-05-20T21:00:20Z</time>
      </trkpt>
      <trkpt lat="43.290480" lon="-4.825650">
        <ele>191.360</ele>
        <time>2020-05-20T21:00:40Z</time>
      </trkpt>
      <trkpt lat="43.290520" lon="-4.825640">
        <ele>191.590</ele>
        <time>2020-05-20T21:01:00Z</time>
      </trkpt>
      <trkpt lat="43.290570" lon="-4.825600">
        <ele>192.450</ele>
        <time>2020-05-20T21:01:20Z</time>
      </trkpt>
      <trkpt lat="43.290640" lon="-4.825560">
        <ele>189.659</ele>
        <time>2020-05-20T21:01:40Z</time>
      </trkpt>
      <trkpt lat="43.290800" lon="-4.825460">
        <ele>187.518</ele>
        <time>2020-05-20T21:02:00Z</time>
      </trkpt>
      <trkpt lat="43.290870" lon="-4.825420">
        <ele>187.298</ele>
        <time>2020-05-20T21:02:20Z</time>
      </trkpt>
      <trkpt lat="43.290970" lon="-4.825380">
        <ele>185.917</ele>
        <time>2020-05-20T21:02:40Z</time>
      </trkpt>
      <trkpt lat="43.291010" lon="-4.825360">
        <ele>186.008</ele>
        <time>2020-05-20T21:03:00Z</time>
      </trkpt>
      <trkpt lat="43.291070" lon="-4.825330">
        <ele>186.235</ele>
        <time>2020-05-20T21:03:20Z</time>
      </trkpt>
      <trkpt lat="43.291130" lon="-4.825310">
        <ele>186.070</ele>
        <time>2020-05-20T21:03:40Z</time>
      </trkpt>
      <trkpt lat="43.291140" lon="-4.825300">
        <ele>186.966</ele>
        <time>2020-05-20T21:04:00Z</time>
      </trkpt>
      <trkpt lat="43.291160" lon="-4.825300">
        <ele>186.489</ele>
        <time>2020-05-20T21:04:20Z</time>
      </trkpt>
      <trkpt lat="43.291210" lon="-4.825280">
        <ele>187.679</ele>
        <time>2020-05-20T21:04:40Z</time>
      </trkpt>
      <trkpt lat="43.291320" lon="-4.825270">
        <ele>186.259</ele>
        <time>2020-05-20T21:05:00Z</time>
      </trkpt>
      <trkpt lat="43.291400" lon="-4.825260">
        <ele>185.359</ele>
        <time>2020-05-20T21:05:20Z</time>
      </trkpt>
      <trkpt lat="43.291460" lon="-4.825250">
        <ele>184.378</ele>
        <time>2020-05-20T21:05:40Z</time>
      </trkpt>
      <trkpt lat="43.291500" lon="-4.825230">
        <ele>184.847</ele>
        <time>2020-05-20T21:06:00Z</time>
      </trkpt>
      <trkpt lat="43.291540" lon="-4.825220">
        <ele>184.429</ele>
        <time>2020-05-20T21:06:20Z</time>
      </trkpt>
      <trkpt lat="43.291660" lon="-4.825160">
        <ele>185.121</ele>
        <time>2020-05-20T21:06:40Z</time>
      </trkpt>
      <trkpt lat="43.291670" lon="-4.825150">
        <ele>185.508</ele>
        <time>2020-05-20T21:07:00Z</time>
      </trkpt>
      <trkpt lat="43.291750" lon="-4.825110">
        <ele>185.658</ele>
        <time>2020-05-20T21:07:20Z</time>
      </trkpt>
      <trkpt lat="43.291790" lon="-4.825090">
        <ele>185.953</ele>
        <time>2020-05-20T21:07:40Z</time>
      </trkpt>
      <trkpt lat="43.291840" lon="-4.825070">
        <ele>186.169</ele>
        <time>2020-05-20T21:08:00Z</time>
      </trkpt>
      <trkpt lat="43.291860" lon="-4.825060">
        <ele>186.412</ele>
        <time>2020-05-20T21:08:20Z</time>
      </trkpt>
      <trkpt lat="43.291900" lon="-4.825040">
        <ele>187.142</ele>
        <time>2020-05-20T21:08:40Z</time>
      </trkpt>
      <trkpt lat="43.291960" lon="-4.825030">
        <ele>186.642</ele>
        <time>2020-05-20T21:09:00Z</time>
      </trkpt>
      <trkpt lat="43.292080" lon="-4.825020">
        <ele>185.642</ele>
        <time>2020-05-20T21:09:20Z</time>
      </trkpt>
      <trkpt lat="43.292350" lon="-4.824970">
        <ele>185.381</ele>
        <time>2020-05-20T21:09:40Z</time>
      </trkpt>
      <trkpt lat="43.292370" lon="-4.824970">
        <ele>184.921</ele>
        <time>2020-05-20T21:10:00Z</time>
      </trkpt>
      <trkpt lat="43.292500" lon="-4.824950">
        <ele>184.041</ele>
        <time>2020-05-20T21:10:20Z</time>
      </trkpt>
      <trkpt lat="43.292550" lon="-4.824940">
        <ele>184.705</ele>
        <time>2020-05-20T21:10:40Z</time>
      </trkpt>
      <trkpt lat="43.292650" lon="-4.824930">
        <ele>185.408</ele>
        <time>2020-05-20T21:11:00Z</time>
      </trkpt>
      <trkpt lat="43.292850" lon="-4.824870">
        <ele>188.546</ele>
        <time>2020-05-20T21:11:20Z</time>
      </trkpt>
      <trkpt lat="43.292900" lon="-4.824850">
        <ele>189.281</ele>
        <time>2020-05-20T21:11:40Z</time>
      </trkpt>
      <trkpt lat="43.292940" lon="-4.824840">
        <ele>189.367</ele>
        <time>2020-05-20T21:12:00Z</time>
      </trkpt>
      <trkpt lat="43.293080" lon="-4.824780">
        <ele>189.750</ele>
        <time>2020-05-20T21:12:20Z</time>
      </trkpt>
      <trkpt lat="43.293100" lon="-4.824770">
        <ele>189.730</ele>
        <time>2020-05-20T21:12:40Z</time>
      </trkpt>
      <trkpt lat="43.293140" lon="-4.824750">
        <ele>189.770</ele>
        <time>2020-05-20T21:13:00Z</time>
      </trkpt>
      <trkpt lat="43.293230" lon="-4.824700">
        <ele>190.050</ele>
        <time>2020-05-20T21:13:20Z</time>
      </trkpt>
      <trkpt lat="43.293240" lon="-4.824690">
        <ele>190.099</ele>
        <time>2020-05-20T21:13:40Z</time>
      </trkpt>
      <trkpt lat="43.293280" lon="-4.824640">
        <ele>190.388</ele>
        <time>2020-05-20T21:14:00Z</time>
      </trkpt>
      <trkpt lat="43.293320" lon="-4.824590">
        <ele>190.224</ele>
        <time>2020-05-20T21:14:20Z</time>
      </trkpt>
      <trkpt lat="43.293350" lon="-4.824540">
        <ele>190.226</ele>
        <time>2020-05-20T21:14:40Z</time>
      </trkpt>
      <trkpt lat="43.293370" lon="-4.824510">
        <ele>190.108</ele>
        <time>2020-05-20T21:15:00Z</time>
      </trkpt>
      <trkpt lat="43.293380" lon="-4.824490">
        <ele>190.172</ele>
        <time>2020-05-20T21:15:20Z</time>
      </trkpt>
      <trkpt lat="43.293470" lon="-4.824360">
        <ele>190.497</ele>
        <time>2020-05-20T21:15:40Z</time>
      </trkpt>
      <trkpt lat="43.293490" lon="-4.824330">
        <ele>190.443</ele>
        <time>2020-05-20T21:16:00Z</time>
      </trkpt>
      <trkpt lat="43.293520" lon="-4.824280">
        <ele>190.476</ele>
        <time>2020-05-20T21:16:20Z</time>
      </trkpt>
      <trkpt lat="43.293540" lon="-4.824240">
        <ele>190.576</ele>
        <time>2020-05-20T21:16:40Z</time>
      </trkpt>
      <trkpt lat="43.293560" lon="-4.824190">
        <ele>190.636</ele>
        <time>2020-05-20T21:17:00Z</time>
      </trkpt>
      <trkpt lat="43.293580" lon="-4.824160">
        <ele>190.226</ele>
        <time>2020-05-20T21:17:20Z</time>
      </trkpt>
      <trkpt lat="43.293590" lon="-4.824140">
        <ele>189.875</ele>
        <time>2020-05-20T21:17:40Z</time>
      </trkpt>
      <trkpt lat="43.293590" lon="-4.824120">
        <ele>189.893</ele>
        <time>2020-05-20T21:18:00Z</time>
      </trkpt>
      <trkpt lat="43.293600" lon="-4.824090">
        <ele>189.565</ele>
        <time>2020-05-20T21:18:20Z</time>
      </trkpt>
      <trkpt lat="43.293600" lon="-4.824070">
        <ele>189.521</ele>
        <time>2020-05-20T21:18:40Z</time>
      </trkpt>
      <trkpt lat="43.293600" lon="-4.824030">
        <ele>189.508</ele>
        <time>2020-05-20T21:19:00Z</time>
      </trkpt>
      <trkpt lat="43.293600" lon="-4.823940">
        <ele>189.593</ele>
        <time>2020-05-20T21:19:20Z</time>
      </trkpt>
      <trkpt lat="43.293600" lon="-4.823880">
        <ele>189.548</ele>
        <time>2020-05-20T21:19:40Z</time>
      </trkpt>
      <trkpt lat="43.293600" lon="-4.823810">
        <ele>189.554</ele>
        <time>2020-05-20T21:20:00Z</time>
      </trkpt>
      <trkpt lat="43.293610" lon="-4.823660">
        <ele>189.077</ele>
        <time>2020-05-20T21:20:20Z</time>
      </trkpt>
      <trkpt lat="43.293620" lon="-4.823640">
        <ele>188.947</ele>
        <time>2020-05-20T21:20:40Z</time>
      </trkpt>
      <trkpt lat="43.293630" lon="-4.823600">
        <ele>189.067</ele>
        <time>2020-05-20T21:21:00Z</time>
      </trkpt>
      <trkpt lat="43.293640" lon="-4.823570">
        <ele>189.327</ele>
        <time>2020-05-20T21:21:20Z</time>
      </trkpt>
      <trkpt lat="43.293660" lon="-4.823530">
        <ele>189.736</ele>
        <time>2020-05-20T21:21:40Z</time>
      </trkpt>
      <trkpt lat="43.293680" lon="-4.823500">
        <ele>190.093</ele>
        <time>2020-05-20T21:22:00Z</time>
      </trkpt>
      <trkpt lat="43.293700" lon="-4.823470">
        <ele>190.265</ele>
        <time>2020-05-20T21:22:20Z</time>
      </trkpt>
      <trkpt lat="43.293730" lon="-4.823440">
        <ele>190.421</ele>
        <time>2020-05-20T21:22:40Z</time>
      </trkpt>
      <trkpt lat="43.293750" lon="-4.823420">
        <ele>190.608</ele>
        <time>2020-05-20T21:23:00Z</time>
      </trkpt>
      <trkpt lat="43.293830" lon="-4.823340">
        <ele>191.373</ele>
        <time>2020-05-20T21:23:20Z</time>
      </trkpt>
      <trkpt lat="43.294010" lon="-4.823260">
        <ele>192.638</ele>
        <time>2020-05-20T21:23:40Z</time>
      </trkpt>
      <trkpt lat="43.294050" lon="-4.823240">
        <ele>192.824</ele>
        <time>2020-05-20T21:24:00Z</time>
      </trkpt>
      <trkpt lat="43.294140" lon="-4.823200">
        <ele>192.737</ele>
        <time>2020-05-20T21:24:20Z</time>
      </trkpt>
      <trkpt lat="43.294180" lon="-4.823170">
        <ele>192.457</ele>
        <time>2020-05-20T21:24:40Z</time>
      </trkpt>
      <trkpt lat="43.294210" lon="-4.823140">
        <ele>191.867</ele>
        <time>2020-05-20T21:25:00Z</time>
      </trkpt>
      <trkpt lat="43.294220" lon="-4.823130">
        <ele>191.757</ele>
        <time>2020-05-20T21:25:20Z</time>
      </trkpt>
      <trkpt lat="43.294260" lon="-4.823070">
        <ele>191.636</ele>
        <time>2020-05-20T21:25:40Z</time>
      </trkpt>
      <trkpt lat="43.294310" lon="-4.823010">
        <ele>191.454</ele>
        <time>2020-05-20T21:26:00Z</time>
      </trkpt>
      <trkpt lat="43.294340" lon="-4.822960">
        <ele>191.556</ele>
        <time>2020-05-20T21:26:20Z</time>
      </trkpt>
      <trkpt lat="43.294420" lon="-4.822870">
        <ele>190.311</ele>
        <time>2020-05-20T21:26:40Z</time>
      </trkpt>
      <trkpt lat="43.294450" lon="-4.822830">
        <ele>190.008</ele>
        <time>2020-05-20T21:27:00Z</time>
      </trkpt>
      <trkpt lat="43.294490" lon="-4.822800">
        <ele>190.029</ele>
        <time>2020-05-20T21:27:20Z</time>
      </trkpt>
      <trkpt lat="43.294550" lon="-4.822750">
        <ele>190.714</ele>
        <time>2020-05-20T21:27:40Z</time>
      </trkpt>
      <trkpt lat="43.294580" lon="-4.822720">
        <ele>191.380</ele>
        <time>2020-05-20T21:28:00Z</time>
      </trkpt>
      <trkpt lat="43.294630" lon="-4.822700">
        <ele>191.593</ele>
        <time>2020-05-20T21:28:20Z</time>
      </trkpt>
      <trkpt lat="43.294640" lon="-4.822690">
        <ele>191.843</ele>
        <time>2020-05-20T21:28:40Z</time>
      </trkpt>
      <trkpt lat="43.294680" lon="-4.822680">
        <ele>191.873</ele>
        <time>2020-05-20T21:29:00Z</time>
      </trkpt>
      <trkpt lat="43.294740" lon="-4.822670">
        <ele>191.823</ele>
        <time>2020-05-20T21:29:20Z</time>
      </trkpt>
      <trkpt lat="43.294820" lon="-4.822660">
        <ele>191.812</ele>
        <time>2020-05-20T21:29:40Z</time>
      </trkpt>
      <trkpt lat="43.294840" lon="-4.822660">
        <ele>191.725</ele>
        <time>2020-05-20T21:30:00Z</time>
      </trkpt>
      <trkpt lat="43.294930" lon="-4.822660">
        <ele>191.326</ele>
        <time>2020-05-20T21:30:20Z</time>
      </trkpt>
      <trkpt lat="43.295000" lon="-4.822660">
        <ele>190.908</ele>
        <time>2020-05-20T21:30:40Z</time>
      </trkpt>
      <trkpt lat="43.295090" lon="-4.822650">
        <ele>188.908</ele>
        <time>2020-05-20T21:31:00Z</time>
      </trkpt>
      <trkpt lat="43.295150" lon="-4.822640">
        <ele>187.646</ele>
        <time>2020-05-20T21:31:20Z</time>
      </trkpt>
      <trkpt lat="43.295170" lon="-4.822620">
        <ele>188.061</ele>
        <time>2020-05-20T21:31:40Z</time>
      </trkpt>
      <trkpt lat="43.295190" lon="-4.822610">
        <ele>187.837</ele>
        <time>2020-05-20T21:32:00Z</time>
      </trkpt>
      <trkpt lat="43.295230" lon="-4.822570">
        <ele>188.440</ele>
        <time>2020-05-20T21:32:20Z</time>
      </trkpt>
      <trkpt lat="43.295280" lon="-4.822480">
        <ele>190.460</ele>
        <time>2020-05-20T21:32:40Z</time>
      </trkpt>
      <trkpt lat="43.295290" lon="-4.822450">
        <ele>190.980</ele>
        <time>2020-05-20T21:33:00Z</time>
      </trkpt>
      <trkpt lat="43.295310" lon="-4.822420">
        <ele>191.210</ele>
        <time>2020-05-20T21:33:20Z</time>
      </trkpt>
      <trkpt lat="43.295320" lon="-4.822400">
        <ele>191.419</ele>
        <time>2020-05-20T21:33:40Z</time>
      </trkpt>
      <trkpt lat="43.295350" lon="-4.822350">
        <ele>192.089</ele>
        <time>2020-05-20T21:34:00Z</time>
      </trkpt>
      <trkpt lat="43.295380" lon="-4.822310">
        <ele>192.306</ele>
        <time>2020-05-20T21:34:20Z</time>
      </trkpt>
      <trkpt lat="43.295420" lon="-4.822280">
        <ele>192.326</ele>
        <time>2020-05-20T21:34:40Z</time>
      </trkpt>
      <trkpt lat="43.295430" lon="-4.822270">
        <ele>192.308</ele>
        <time>2020-05-20T21:35:00Z</time>
      </trkpt>
      <trkpt lat="43.295470" lon="-4.822240">
        <ele>192.392</ele>
        <time>2020-05-20T21:35:20Z</time>
      </trkpt>
      <trkpt lat="43.295520" lon="-4.822210">
        <ele>192.157</ele>
        <time>2020-05-20T21:35:40Z</time>
      </trkpt>
      <trkpt lat="43.295550" lon="-4.822200">
        <ele>191.663</ele>
        <time>2020-05-20T21:36:00Z</time>
      </trkpt>
      <trkpt lat="43.295580" lon="-4.822190">
        <ele>190.816</ele>
        <time>2020-05-20T21:36:20Z</time>
      </trkpt>
      <trkpt lat="43.295590" lon="-4.822180">
        <ele>190.666</ele>
        <time>2020-05-20T21:36:40Z</time>
      </trkpt>
      <trkpt lat="43.295610" lon="-4.822170">
        <ele>190.016</ele>
        <time>2020-05-20T21:37:00Z</time>
      </trkpt>
      <trkpt lat="43.295630" lon="-4.822160">
        <ele>189.436</ele>
        <time>2020-05-20T21:37:20Z</time>
      </trkpt>
      <trkpt lat="43.295640" lon="-4.822140">
        <ele>189.475</ele>
        <time>2020-05-20T21:37:40Z</time>
      </trkpt>
      <trkpt lat="43.295650" lon="-4.822130">
        <ele>189.154</ele>
        <time>2020-05-20T21:38:00Z</time>
      </trkpt>
      <trkpt lat="43.295660" lon="-4.822110">
        <ele>189.156</ele>
        <time>2020-05-20T21:38:20Z</time>
      </trkpt>
      <trkpt lat="43.295660" lon="-4.822090">
        <ele>189.411</ele>
        <time>2020-05-20T21:38:40Z</time>
      </trkpt>
      <trkpt lat="43.295670" lon="-4.822060">
        <ele>189.408</ele>
        <time>2020-05-20T21:39:00Z</time>
      </trkpt>
      <trkpt lat="43.295670" lon="-4.822020">
        <ele>190.099</ele>
        <time>2020-05-20T21:39:20Z</time>
      </trkpt>
      <trkpt lat="43.295670" lon="-4.821890">
        <ele>191.654</ele>
        <time>2020-05-20T21:39:40Z</time>
      </trkpt>
      <trkpt lat="43.295670" lon="-4.821810">
        <ele>192.270</ele>
        <time>2020-05-20T21:40:00Z</time>
      </trkpt>
      <trkpt lat="43.295660" lon="-4.821740">
        <ele>193.263</ele>
        <time>2020-05-20T21:40:20Z</time>
      </trkpt>
      <trkpt lat="43.295670" lon="-4.821640">
        <ele>193.483</ele>
        <time>2020-05-20T21:40:40Z</time>
      </trkpt>
      <trkpt lat="43.295700" lon="-4.821570">
        <ele>192.583</ele>
        <time>2020-05-20T21:41:00Z</time>
      </trkpt>
      <trkpt lat="43.295730" lon="-4.821520">
        <ele>191.863</ele>
        <time>2020-05-20T21:41:20Z</time>
      </trkpt>
      <trkpt lat="43.295760" lon="-4.821500">
        <ele>191.082</ele>
        <time>2020-05-20T21:41:40Z</time>
      </trkpt>
      <trkpt lat="43.295790" lon="-4.821480">
        <ele>190.445</ele>
        <time>2020-05-20T21:42:00Z</time>
      </trkpt>
      <trkpt lat="43.295820" lon="-4.821460">
        <ele>189.847</ele>
        <time>2020-05-20T21:42:20Z</time>
      </trkpt>
      <trkpt lat="43.295870" lon="-4.821450">
        <ele>190.111</ele>
        <time>2020-05-20T21:42:40Z</time>
      </trkpt>
      <trkpt lat="43.295900" lon="-4.821450">
        <ele>190.408</ele>
        <time>2020-05-20T21:43:00Z</time>
      </trkpt>
      <trkpt lat="43.295910" lon="-4.821450">
        <ele>190.528</ele>
        <time>2020-05-20T21:43:20Z</time>
      </trkpt>
      <trkpt lat="43.295950" lon="-4.821460">
        <ele>190.733</ele>
        <time>2020-05-20T21:43:40Z</time>
      </trkpt>
      <trkpt lat="43.296000" lon="-4.821480">
        <ele>190.619</ele>
        <time>2020-05-20T21:44:00Z</time>
      </trkpt>
      <trkpt lat="43.296060" lon="-4.821510">
        <ele>190.252</ele>
        <time>2020-05-20T21:44:20Z</time>
      </trkpt>
      <trkpt lat="43.296100" lon="-4.821530">
        <ele>189.852</ele>
        <time>2020-05-20T21:44:40Z</time>
      </trkpt>
      <trkpt lat="43.296130" lon="-4.821540">
        <ele>188.682</ele>
        <time>2020-05-20T21:45:00Z</time>
      </trkpt>
      <trkpt lat="43.296140" lon="-4.821540">
        <ele>188.182</ele>
        <time>2020-05-20T21:45:20Z</time>
      </trkpt>
      <trkpt lat="43.296160" lon="-4.821540">
        <ele>187.161</ele>
        <time>2020-05-20T21:45:40Z</time>
      </trkpt>
      <trkpt lat="43.296200" lon="-4.821530">
        <ele>185.414</ele>
        <time>2020-05-20T21:46:00Z</time>
      </trkpt>
      <trkpt lat="43.296240" lon="-4.821510">
        <ele>184.354</ele>
        <time>2020-05-20T21:46:20Z</time>
      </trkpt>
      <trkpt lat="43.296290" lon="-4.821470">
        <ele>183.609</ele>
        <time>2020-05-20T21:46:40Z</time>
      </trkpt>
      <trkpt lat="43.296320" lon="-4.821440">
        <ele>183.608</ele>
        <time>2020-05-20T21:47:00Z</time>
      </trkpt>
      <trkpt lat="43.296400" lon="-4.821380">
        <ele>182.265</ele>
        <time>2020-05-20T21:47:20Z</time>
      </trkpt>
      <trkpt lat="43.296440" lon="-4.821340">
        <ele>180.330</ele>
        <time>2020-05-20T21:47:40Z</time>
      </trkpt>
      <trkpt lat="43.296520" lon="-4.821260">
        <ele>178.246</ele>
        <time>2020-05-20T21:48:00Z</time>
      </trkpt>
      <trkpt lat="43.296540" lon="-4.821240">
        <ele>178.099</ele>
        <time>2020-05-20T21:48:20Z</time>
      </trkpt>
      <trkpt lat="43.296690" lon="-4.821100">
        <ele>178.039</ele>
        <time>2020-05-20T21:48:40Z</time>
      </trkpt>
      <trkpt lat="43.296720" lon="-4.821070">
        <ele>176.769</ele>
        <time>2020-05-20T21:49:00Z</time>
      </trkpt>
      <trkpt lat="43.296830" lon="-4.820950">
        <ele>175.599</ele>
        <time>2020-05-20T21:49:20Z</time>
      </trkpt>
      <trkpt lat="43.296900" lon="-4.820870">
        <ele>177.448</ele>
        <time>2020-05-20T21:49:40Z</time>
      </trkpt>
      <trkpt lat="43.296970" lon="-4.820780">
        <ele>178.355</ele>
        <time>2020-05-20T21:50:00Z</time>
      </trkpt>
      <trkpt lat="43.297000" lon="-4.820740">
        <ele>178.007</ele>
        <time>2020-05-20T21:50:20Z</time>
      </trkpt>
      <trkpt lat="43.297060" lon="-4.820670">
        <ele>177.817</ele>
        <time>2020-05-20T21:50:40Z</time>
      </trkpt>
      <trkpt lat="43.297110" lon="-4.820630">
        <ele>177.308</ele>
        <time>2020-05-20T21:51:00Z</time>
      </trkpt>
      <trkpt lat="43.297160" lon="-4.820590">
        <ele>177.429</ele>
        <time>2020-05-20T21:51:20Z</time>
      </trkpt>
      <trkpt lat="43.297230" lon="-4.820570">
        <ele>175.684</ele>
        <time>2020-05-20T21:51:40Z</time>
      </trkpt>
      <trkpt lat="43.297310" lon="-4.820550">
        <ele>175.170</ele>
        <time>2020-05-20T21:52:00Z</time>
      </trkpt>
      <trkpt lat="43.297390" lon="-4.820530">
        <ele>174.153</ele>
        <time>2020-05-20T21:52:20Z</time>
      </trkpt>
      <trkpt lat="43.297430" lon="-4.820530">
        <ele>173.183</ele>
        <time>2020-05-20T21:52:40Z</time>
      </trkpt>
      <trkpt lat="43.297460" lon="-4.820520">
        <ele>172.813</ele>
        <time>2020-05-20T21:53:00Z</time>
      </trkpt>
      <trkpt lat="43.297470" lon="-4.820520">
        <ele>172.643</ele>
        <time>2020-05-20T21:53:20Z</time>
      </trkpt>
      <trkpt lat="43.297500" lon="-4.820500">
        <ele>172.832</ele>
        <time>2020-05-20T21:53:40Z</time>
      </trkpt>
      <trkpt lat="43.297550" lon="-4.820470">
        <ele>171.622</ele>
        <time>2020-05-20T21:54:00Z</time>
      </trkpt>
      <trkpt lat="43.297600" lon="-4.820420">
        <ele>171.462</ele>
        <time>2020-05-20T21:54:20Z</time>
      </trkpt>
      <trkpt lat="43.297620" lon="-4.820410">
        <ele>170.908</ele>
        <time>2020-05-20T21:54:40Z</time>
      </trkpt>
      <trkpt lat="43.297760" lon="-4.820270">
        <ele>170.108</ele>
        <time>2020-05-20T21:55:00Z</time>
      </trkpt>
      <trkpt lat="43.298010" lon="-4.820060">
        <ele>169.466</ele>
        <time>2020-05-20T21:55:20Z</time>
      </trkpt>
      <trkpt lat="43.298160" lon="-4.819930">
        <ele>169.951</ele>
        <time>2020-05-20T21:55:40Z</time>
      </trkpt>
      <trkpt lat="43.298250" lon="-4.819850">
        <ele>169.787</ele>
        <time>2020-05-20T21:56:00Z</time>
      </trkpt>
      <trkpt lat="43.298310" lon="-4.819800">
        <ele>169.270</ele>
        <time>2020-05-20T21:56:20Z</time>
      </trkpt>
      <trkpt lat="43.298380" lon="-4.819760">
        <ele>166.580</ele>
        <time>2020-05-20T21:56:40Z</time>
      </trkpt>
      <trkpt lat="43.298400" lon="-4.819730">
        <ele>165.870</ele>
        <time>2020-05-20T21:57:00Z</time>
      </trkpt>
      <trkpt lat="43.298410" lon="-4.819710">
        <ele>165.540</ele>
        <time>2020-05-20T21:57:20Z</time>
      </trkpt>
      <trkpt lat="43.298430" lon="-4.819690">
        <ele>164.559</ele>
        <time>2020-05-20T21:57:40Z</time>
      </trkpt>
      <trkpt lat="43.298440" lon="-4.819660">
        <ele>164.278</ele>
        <time>2020-05-20T21:58:00Z</time>
      </trkpt>
      <trkpt lat="43.298450" lon="-4.819630">
        <ele>164.033</ele>
        <time>2020-05-20T21:58:20Z</time>
      </trkpt>
      <trkpt lat="43.298460" lon="-4.819580">
        <ele>164.026</ele>
        <time>2020-05-20T21:58:40Z</time>
      </trkpt>
      <trkpt lat="43.298460" lon="-4.819550">
        <ele>164.408</ele>
        <time>2020-05-20T21:59:00Z</time>
      </trkpt>
      <trkpt lat="43.298460" lon="-4.819530">
        <ele>164.681</ele>
        <time>2020-05-20T21:59:20Z</time>
      </trkpt>
      <trkpt lat="43.298470" lon="-4.819500">
        <ele>164.416</ele>
        <time>2020-05-20T21:59:40Z</time>
      </trkpt>
      <trkpt lat="43.298480" lon="-4.819480">
        <ele>164.142</ele>
        <time>2020-05-20T22:00:00Z</time>
      </trkpt>
      <trkpt lat="43.298490" lon="-4.819440">
        <ele>164.185</ele>
        <time>2020-05-20T22:00:20Z</time>
      </trkpt>
      <trkpt lat="43.298490" lon="-4.819420">
        <ele>164.725</ele>
        <time>2020-05-20T22:00:40Z</time>
      </trkpt>
      <trkpt lat="43.298500" lon="-4.819410">
        <ele>164.455</ele>
        <time>2020-05-20T22:01:00Z</time>
      </trkpt>
      <trkpt lat="43.298500" lon="-4.819400">
        <ele>164.795</ele>
        <time>2020-05-20T22:01:20Z</time>
      </trkpt>
      <trkpt lat="43.298510" lon="-4.819370">
        <ele>165.054</ele>
        <time>2020-05-20T22:01:40Z</time>
      </trkpt>
      <trkpt lat="43.298530" lon="-4.819350">
        <ele>164.642</ele>
        <time>2020-05-20T22:02:00Z</time>
      </trkpt>
      <trkpt lat="43.298540" lon="-4.819330">
        <ele>164.722</ele>
        <time>2020-05-20T22:02:20Z</time>
      </trkpt>
      <trkpt lat="43.298560" lon="-4.819310">
        <ele>164.314</ele>
        <time>2020-05-20T22:02:40Z</time>
      </trkpt>
      <trkpt lat="43.298570" lon="-4.819300">
        <ele>164.208</ele>
        <time>2020-05-20T22:03:00Z</time>
      </trkpt>
      <trkpt lat="43.298600" lon="-4.819290">
        <ele>163.168</ele>
        <time>2020-05-20T22:03:20Z</time>
      </trkpt>
      <trkpt lat="43.298630" lon="-4.819270">
        <ele>162.243</ele>
        <time>2020-05-20T22:03:40Z</time>
      </trkpt>
      <trkpt lat="43.298640" lon="-4.819270">
        <ele>161.789</ele>
        <time>2020-05-20T22:04:00Z</time>
      </trkpt>
      <trkpt lat="43.298670" lon="-4.819250">
        <ele>160.962</ele>
        <time>2020-05-20T22:04:20Z</time>
      </trkpt>
      <trkpt lat="43.298690" lon="-4.819240">
        <ele>160.352</ele>
        <time>2020-05-20T22:04:40Z</time>
      </trkpt>
      <trkpt lat="43.298730" lon="-4.819210">
        <ele>159.722</ele>
        <time>2020-05-20T22:05:00Z</time>
      </trkpt>
      <trkpt lat="43.298760" lon="-4.819170">
        <ele>160.462</ele>
        <time>2020-05-20T22:05:20Z</time>
      </trkpt>
      <trkpt lat="43.298780" lon="-4.819140">
        <ele>160.691</ele>
        <time>2020-05-20T22:05:40Z</time>
      </trkpt>
      <trkpt lat="43.298790" lon="-4.819140">
        <ele>160.158</ele>
        <time>2020-05-20T22:06:00Z</time>
      </trkpt>
      <trkpt lat="43.298840" lon="-4.819080">
        <ele>159.952</ele>
        <time>2020-05-20T22:06:20Z</time>
      </trkpt>
      <trkpt lat="43.298890" lon="-4.819030">
        <ele>159.417</ele>
        <time>2020-05-20T22:06:40Z</time>
      </trkpt>
      <trkpt lat="43.298920" lon="-4.818970">
        <ele>159.408</ele>
        <time>2020-05-20T22:07:00Z</time>
      </trkpt>
      <trkpt lat="43.298930" lon="-4.818950">
        <ele>159.439</ele>
        <time>2020-05-20T22:07:20Z</time>
      </trkpt>
      <trkpt lat="43.299000" lon="-4.818820">
        <ele>158.384</ele>
        <time>2020-05-20T22:07:40Z</time>
      </trkpt>
      <trkpt lat="43.299120" lon="-4.818560">
        <ele>156.320</ele>
        <time>2020-05-20T22:08:00Z</time>
      </trkpt>
      <trkpt lat="43.299150" lon="-4.818510">
        <ele>155.613</ele>
        <time>2020-05-20T22:08:20Z</time>
      </trkpt>
      <trkpt lat="43.299230" lon="-4.818360">
        <ele>154.943</ele>
        <time>2020-05-20T22:08:40Z</time>
      </trkpt>
      <trkpt lat="43.299280" lon="-4.818250">
        <ele>154.333</ele>
        <time>2020-05-20T22:09:00Z</time>
      </trkpt>
      <trkpt lat="43.299320" lon="-4.818150">
        <ele>153.723</ele>
        <time>2020-05-20T22:09:20Z</time>
      </trkpt>
      <trkpt lat="43.299340" lon="-4.818110">
        <ele>153.262</ele>
        <time>2020-05-20T22:09:40Z</time>
      </trkpt>
      <trkpt lat="43.299370" lon="-4.818030">
        <ele>152.579</ele>
        <time>2020-05-20T22:10:00Z</time>
      </trkpt>
      <trkpt lat="43.299400" lon="-4.817950">
        <ele>151.405</ele>
        <time>2020-05-20T22:10:20Z</time>
      </trkpt>
      <trkpt lat="43.299410" lon="-4.817940">
        <ele>150.925</ele>
        <time>2020-05-20T22:10:40Z</time>
      </trkpt>
      <trkpt lat="43.299430" lon="-4.817870">
        <ele>150.208</ele>
        <time>2020-05-20T22:11:00Z</time>
      </trkpt>
      <trkpt lat="43.299450" lon="-4.817790">
        <ele>149.821</ele>
        <time>2020-05-20T22:11:20Z</time>
      </trkpt>
      <trkpt lat="43.299460" lon="-4.817710">
        <ele>149.946</ele>
        <time>2020-05-20T22:11:40Z</time>
      </trkpt>
      <trkpt lat="43.299460" lon="-4.817670">
        <ele>150.062</ele>
        <time>2020-05-20T22:12:00Z</time>
      </trkpt>
      <trkpt lat="43.299470" lon="-4.817620">
        <ele>150.065</ele>
        <time>2020-05-20T22:12:20Z</time>
      </trkpt>
      <trkpt lat="43.299470" lon="-4.817560">
        <ele>150.225</ele>
        <time>2020-05-20T22:12:40Z</time>
      </trkpt>
      <trkpt lat="43.299470" lon="-4.817450">
        <ele>150.615</ele>
        <time>2020-05-20T22:13:00Z</time>
      </trkpt>
      <trkpt lat="43.299490" lon="-4.817430">
        <ele>150.235</ele>
        <time>2020-05-20T22:13:20Z</time>
      </trkpt>
      <trkpt lat="43.299510" lon="-4.817420">
        <ele>149.714</ele>
        <time>2020-05-20T22:13:40Z</time>
      </trkpt>
      <trkpt lat="43.299530" lon="-4.817400">
        <ele>149.342</ele>
        <time>2020-05-20T22:14:00Z</time>
      </trkpt>
      <trkpt lat="43.299550" lon="-4.817390">
        <ele>148.822</ele>
        <time>2020-05-20T22:14:20Z</time>
      </trkpt>
      <trkpt lat="43.299560" lon="-4.817390">
        <ele>148.614</ele>
        <time>2020-05-20T22:14:40Z</time>
      </trkpt>
      <trkpt lat="43.299580" lon="-4.817390">
        <ele>148.108</ele>
        <time>2020-05-20T22:15:00Z</time>
      </trkpt>
      <trkpt lat="43.299600" lon="-4.817390">
        <ele>147.668</ele>
        <time>2020-05-20T22:15:20Z</time>
      </trkpt>
      <trkpt lat="43.299630" lon="-4.817400">
        <ele>146.953</ele>
        <time>2020-05-20T22:15:40Z</time>
      </trkpt>
      <trkpt lat="43.299660" lon="-4.817410">
        <ele>146.299</ele>
        <time>2020-05-20T22:16:00Z</time>
      </trkpt>
      <trkpt lat="43.299690" lon="-4.817420">
        <ele>145.562</ele>
        <time>2020-05-20T22:16:20Z</time>
      </trkpt>
      <trkpt lat="43.299710" lon="-4.817440">
        <ele>145.192</ele>
        <time>2020-05-20T22:16:40Z</time>
      </trkpt>
      <trkpt lat="43.299730" lon="-4.817460">
        <ele>144.692</ele>
        <time>2020-05-20T22:17:00Z</time>
      </trkpt>
      <trkpt lat="43.299740" lon="-4.817480">
        <ele>144.382</ele>
        <time>2020-05-20T22:17:20Z</time>
      </trkpt>
      <trkpt lat="43.299750" lon="-4.817510">
        <ele>143.991</ele>
        <time>2020-05-20T22:17:40Z</time>
      </trkpt>
      <trkpt lat="43.299750" lon="-4.817550">
        <ele>143.755</ele>
        <time>2020-05-20T22:18:00Z</time>
      </trkpt>
      <trkpt lat="43.299760" lon="-4.817600">
        <ele>143.207</ele>
        <time>2020-05-20T22:18:20Z</time>
      </trkpt>
      <trkpt lat="43.299760" lon="-4.817650">
        <ele>142.917</ele>
        <time>2020-05-20T22:18:40Z</time>
      </trkpt>
      <trkpt lat="43.299760" lon="-4.817690">
        <ele>142.708</ele>
        <time>2020-05-20T22:19:00Z</time>
      </trkpt>
      <trkpt lat="43.299760" lon="-4.817700">
        <ele>142.739</ele>
        <time>2020-05-20T22:19:20Z</time>
      </trkpt>
      <trkpt lat="43.299740" lon="-4.817750">
        <ele>142.884</ele>
        <time>2020-05-20T22:19:40Z</time>
      </trkpt>
      <trkpt lat="43.299720" lon="-4.817830">
        <ele>142.550</ele>
        <time>2020-05-20T22:20:00Z</time>
      </trkpt>
      <trkpt lat="43.299700" lon="-4.817890">
        <ele>142.433</ele>
        <time>2020-05-20T22:20:20Z</time>
      </trkpt>
      <trkpt lat="43.299670" lon="-4.817950">
        <ele>142.663</ele>
        <time>2020-05-20T22:20:40Z</time>
      </trkpt>
      <trkpt lat="43.299650" lon="-4.818020">
        <ele>142.423</ele>
        <time>2020-05-20T22:21:00Z</time>
      </trkpt>
      <trkpt lat="43.299610" lon="-4.818140">
        <ele>142.053</ele>
        <time>2020-05-20T22:21:20Z</time>
      </trkpt>
      <trkpt lat="43.299600" lon="-4.818170">
        <ele>141.942</ele>
        <time>2020-05-20T22:21:40Z</time>
      </trkpt>
      <trkpt lat="43.299510" lon="-4.818400">
        <ele>140.874</ele>
        <time>2020-05-20T22:22:00Z</time>
      </trkpt>
      <trkpt lat="43.299470" lon="-4.818480">
        <ele>140.256</ele>
        <time>2020-05-20T22:22:20Z</time>
      </trkpt>
      <trkpt lat="43.299410" lon="-4.818600">
        <ele>140.021</ele>
        <time>2020-05-20T22:22:40Z</time>
      </trkpt>
      <trkpt lat="43.299380" lon="-4.818680">
        <ele>140.508</ele>
        <time>2020-05-20T22:23:00Z</time>
      </trkpt>
      <trkpt lat="43.299350" lon="-4.818760">
        <ele>141.051</ele>
        <time>2020-05-20T22:23:20Z</time>
      </trkpt>
      <trkpt lat="43.299340" lon="-4.818780">
        <ele>141.196</ele>
        <time>2020-05-20T22:23:40Z</time>
      </trkpt>
      <trkpt lat="43.299340" lon="-4.818790">
        <ele>141.092</ele>
        <time>2020-05-20T22:24:00Z</time>
      </trkpt>
      <trkpt lat="43.299330" lon="-4.818800">
        <ele>141.385</ele>
        <time>2020-05-20T22:24:20Z</time>
      </trkpt>
      <trkpt lat="43.299330" lon="-4.818810">
        <ele>141.245</ele>
        <time>2020-05-20T22:24:40Z</time>
      </trkpt>
      <trkpt lat="43.299330" lon="-4.818830">
        <ele>140.965</ele>
        <time>2020-05-20T22:25:00Z</time>
      </trkpt>
      <trkpt lat="43.299330" lon="-4.818840">
        <ele>140.815</ele>
        <time>2020-05-20T22:25:20Z</time>
      </trkpt>
      <trkpt lat="43.299330" lon="-4.818870">
        <ele>140.424</ele>
        <time>2020-05-20T22:25:40Z</time>
      </trkpt>
      <trkpt lat="43.299330" lon="-4.818890">
        <ele>140.148</ele>
        <time>2020-05-20T22:26:00Z</time>
      </trkpt>
      <trkpt lat="43.299340" lon="-4.818950">
        <ele>139.161</ele>
        <time>2020-05-20T22:26:20Z</time>
      </trkpt>
      <trkpt lat="43.299360" lon="-4.819010">
        <ele>138.017</ele>
        <time>2020-05-20T22:26:40Z</time>
      </trkpt>
      <trkpt lat="43.299360" lon="-4.819020">
        <ele>137.908</ele>
        <time>2020-05-20T22:27:00Z</time>
      </trkpt>
      <trkpt lat="43.299380" lon="-4.819070">
        <ele>137.198</ele>
        <time>2020-05-20T22:27:20Z</time>
      </trkpt>
      <trkpt lat="43.299410" lon="-4.819150">
        <ele>136.353</ele>
        <time>2020-05-20T22:27:40Z</time>
      </trkpt>
      <trkpt lat="43.299440" lon="-4.819240">
        <ele>137.699</ele>
        <time>2020-05-20T22:28:00Z</time>
      </trkpt>
      <trkpt lat="43.299450" lon="-4.819260">
        <ele>138.062</ele>
        <time>2020-05-20T22:28:20Z</time>
      </trkpt>
      <trkpt lat="43.299470" lon="-4.819300">
        <ele>138.612</ele>
        <time>2020-05-20T22:28:40Z</time>
      </trkpt>
      <trkpt lat="43.299490" lon="-4.819350">
        <ele>139.662</ele>
        <time>2020-05-20T22:29:00Z</time>
      </trkpt>
      <trkpt lat="43.299510" lon="-4.819390">
        <ele>140.452</ele>
        <time>2020-05-20T22:29:20Z</time>
      </trkpt>
      <trkpt lat="43.299540" lon="-4.819420">
        <ele>141.061</ele>
        <time>2020-05-20T22:29:40Z</time>
      </trkpt>
      <trkpt lat="43.299550" lon="-4.819430">
        <ele>141.228</ele>
        <time>2020-05-20T22:30:00Z</time>
      </trkpt>
      <trkpt lat="43.299560" lon="-4.819430">
        <ele>141.289</ele>
        <time>2020-05-20T22:30:20Z</time>
      </trkpt>
      <trkpt lat="43.299570" lon="-4.819440">
        <ele>141.417</ele>
        <time>2020-05-20T22:30:40Z</time>
      </trkpt>
      <trkpt lat="43.299590" lon="-4.819450">
        <ele>141.708</ele>
        <time>2020-05-20T22:31:00Z</time>
      </trkpt>
      <trkpt lat="43.299620" lon="-4.819460">
        <ele>142.156</ele>
        <time>2020-05-20T22:31:20Z</time>
      </trkpt>
      <trkpt lat="43.299640" lon="-4.819470">
        <ele>142.541</ele>
        <time>2020-05-20T22:31:40Z</time>
      </trkpt>
      <trkpt lat="43.299660" lon="-4.819470">
        <ele>142.557</ele>
        <time>2020-05-20T22:32:00Z</time>
      </trkpt>
      <trkpt lat="43.299710" lon="-4.819470">
        <ele>142.530</ele>
        <time>2020-05-20T22:32:20Z</time>
      </trkpt>
      <trkpt lat="43.299730" lon="-4.819480">
        <ele>143.310</ele>
        <time>2020-05-20T22:32:40Z</time>
      </trkpt>
      <trkpt lat="43.299750" lon="-4.819480">
        <ele>143.930</ele>
        <time>2020-05-20T22:33:00Z</time>
      </trkpt>
      <trkpt lat="43.299780" lon="-4.819480">
        <ele>144.980</ele>
        <time>2020-05-20T22:33:20Z</time>
      </trkpt>
      <trkpt lat="43.299810" lon="-4.819480">
        <ele>145.959</ele>
        <time>2020-05-20T22:33:40Z</time>
      </trkpt>
      <trkpt lat="43.299840" lon="-4.819480">
        <ele>146.966</ele>
        <time>2020-05-20T22:34:00Z</time>
      </trkpt>
      <trkpt lat="43.299870" lon="-4.819480">
        <ele>147.829</ele>
        <time>2020-05-20T22:34:20Z</time>
      </trkpt>
      <trkpt lat="43.299890" lon="-4.819470">
        <ele>147.921</ele>
        <time>2020-05-20T22:34:40Z</time>
      </trkpt>
      <trkpt lat="43.299910" lon="-4.819470">
        <ele>148.608</ele>
        <time>2020-05-20T22:35:00Z</time>
      </trkpt>
      <trkpt lat="43.299930" lon="-4.819460">
        <ele>148.690</ele>
        <time>2020-05-20T22:35:20Z</time>
      </trkpt>
      <trkpt lat="43.299960" lon="-4.819450">
        <ele>149.075</ele>
        <time>2020-05-20T22:35:40Z</time>
      </trkpt>
      <trkpt lat="43.300000" lon="-4.819430">
        <ele>149.491</ele>
        <time>2020-05-20T22:36:00Z</time>
      </trkpt>
      <trkpt lat="43.300030" lon="-4.819390">
        <ele>149.264</ele>
        <time>2020-05-20T22:36:20Z</time>
      </trkpt>
      <trkpt lat="43.300060" lon="-4.819350">
        <ele>148.824</ele>
        <time>2020-05-20T22:36:40Z</time>
      </trkpt>
      <trkpt lat="43.300140" lon="-4.819250">
        <ele>147.454</ele>
        <time>2020-05-20T22:37:00Z</time>
      </trkpt>
      <trkpt lat="43.300180" lon="-4.819170">
        <ele>145.014</ele>
        <time>2020-05-20T22:37:20Z</time>
      </trkpt>
      <trkpt lat="43.300210" lon="-4.819130">
        <ele>144.663</ele>
        <time>2020-05-20T22:37:40Z</time>
      </trkpt>
      <trkpt lat="43.300300" lon="-4.818980">
        <ele>142.895</ele>
        <time>2020-05-20T22:38:00Z</time>
      </trkpt>
      <trkpt lat="43.300340" lon="-4.818930">
        <ele>142.849</ele>
        <time>2020-05-20T22:38:20Z</time>
      </trkpt>
      <trkpt lat="43.300390" lon="-4.818850">
        <ele>142.223</ele>
        <time>2020-05-20T22:38:40Z</time>
      </trkpt>
      <trkpt lat="43.300430" lon="-4.818810">
        <ele>142.308</ele>
        <time>2020-05-20T22:39:00Z</time>
      </trkpt>
      <trkpt lat="43.300440" lon="-4.818790">
        <ele>142.033</ele>
        <time>2020-05-20T22:39:20Z</time>
      </trkpt>
      <trkpt lat="43.300500" lon="-4.818730">
        <ele>141.968</ele>
        <time>2020-05-20T22:39:40Z</time>
      </trkpt>
      <trkpt lat="43.300550" lon="-4.818690">
        <ele>141.914</ele>
        <time>2020-05-20T22:40:00Z</time>
      </trkpt>
      <trkpt lat="43.300580" lon="-4.818670">
        <ele>141.557</ele>
        <time>2020-05-20T22:40:20Z</time>
      </trkpt>
      <trkpt lat="43.300600" lon="-4.818660">
        <ele>141.337</ele>
        <time>2020-05-20T22:40:40Z</time>
      </trkpt>
      <trkpt lat="43.300690" lon="-4.818590">
        <ele>140.127</ele>
        <time>2020-05-20T22:41:00Z</time>
      </trkpt>
      <trkpt lat="43.300740" lon="-4.818560">
        <ele>140.297</ele>
        <time>2020-05-20T22:41:20Z</time>
      </trkpt>
      <trkpt lat="43.300790" lon="-4.818530">
        <ele>140.546</ele>
        <time>2020-05-20T22:41:40Z</time>
      </trkpt>
      <trkpt lat="43.300860" lon="-4.818500">
        <ele>140.651</ele>
        <time>2020-05-20T22:42:00Z</time>
      </trkpt>
      <trkpt lat="43.300930" lon="-4.818490">
        <ele>140.001</ele>
        <time>2020-05-20T22:42:20Z</time>
      </trkpt>
      <trkpt lat="43.300950" lon="-4.818490">
        <ele>139.911</ele>
        <time>2020-05-20T22:42:40Z</time>
      </trkpt>
      <trkpt lat="43.300990" lon="-4.818490">
        <ele>139.608</ele>
        <time>2020-05-20T22:43:00Z</time>
      </trkpt>
      <trkpt lat="43.301040" lon="-4.818490">
        <ele>139.279</ele>
        <time>2020-05-20T22:43:20Z</time>
      </trkpt>
      <trkpt lat="43.301150" lon="-4.818500">
        <ele>138.674</ele>
        <time>2020-05-20T22:43:40Z</time>
      </trkpt>
      <trkpt lat="43.301310" lon="-4.818530">
        <ele>138.190</ele>
        <time>2020-05-20T22:44:00Z</time>
      </trkpt>
      <trkpt lat="43.301340" lon="-4.818530">
        <ele>138.073</ele>
        <time>2020-05-20T22:44:20Z</time>
      </trkpt>
      <trkpt lat="43.301420" lon="-4.818540">
        <ele>137.853</ele>
        <time>2020-05-20T22:44:40Z</time>
      </trkpt>
      <trkpt lat="43.301470" lon="-4.818550">
        <ele>137.833</ele>
        <time>2020-05-20T22:45:00Z</time>
      </trkpt>
      <trkpt lat="43.301480" lon="-4.818560">
        <ele>137.973</ele>
        <time>2020-05-20T22:45:20Z</time>
      </trkpt>
      <trkpt lat="43.301520" lon="-4.818580">
        <ele>137.982</ele>
        <time>2020-05-20T22:45:40Z</time>
      </trkpt>
      <trkpt lat="43.301560" lon="-4.818620">
        <ele>138.044</ele>
        <time>2020-05-20T22:46:00Z</time>
      </trkpt>
      <trkpt lat="43.301620" lon="-4.818690">
        <ele>138.005</ele>
        <time>2020-05-20T22:46:20Z</time>
      </trkpt>
      <trkpt lat="43.301630" lon="-4.818700">
        <ele>138.015</ele>
        <time>2020-05-20T22:46:40Z</time>
      </trkpt>
      <trkpt lat="43.301750" lon="-4.818820">
        <ele>138.008</ele>
        <time>2020-05-20T22:47:00Z</time>
      </trkpt>
      <trkpt lat="43.301770" lon="-4.818840">
        <ele>138.028</ele>
        <time>2020-05-20T22:47:20Z</time>
      </trkpt>
      <trkpt lat="43.301810" lon="-4.818880">
        <ele>138.013</ele>
        <time>2020-05-20T22:47:40Z</time>
      </trkpt>
      <trkpt lat="43.301830" lon="-4.818890">
        <ele>138.089</ele>
        <time>2020-05-20T22:48:00Z</time>
      </trkpt>
      <trkpt lat="43.301850" lon="-4.818900">
        <ele>138.022</ele>
        <time>2020-05-20T22:48:20Z</time>
      </trkpt>
      <trkpt lat="43.301870" lon="-4.818900">
        <ele>138.072</ele>
        <time>2020-05-20T22:48:40Z</time>
      </trkpt>
      <trkpt lat="43.301890" lon="-4.818900">
        <ele>138.062</ele>
        <time>2020-05-20T22:49:00Z</time>
      </trkpt>
      <trkpt lat="43.301900" lon="-4.818900">
        <ele>138.092</ele>
        <time>2020-05-20T22:49:20Z</time>
      </trkpt>
      <trkpt lat="43.301930" lon="-4.818890">
        <ele>138.031</ele>
        <time>2020-05-20T22:49:40Z</time>
      </trkpt>
      <trkpt lat="43.301940" lon="-4.818880">
        <ele>138.075</ele>
        <time>2020-05-20T22:50:00Z</time>
      </trkpt>
      <trkpt lat="43.301980" lon="-4.818840">
        <ele>137.728</ele>
        <time>2020-05-20T22:50:20Z</time>
      </trkpt>
      <trkpt lat="43.302000" lon="-4.818820">
        <ele>137.520</ele>
        <time>2020-05-20T22:50:40Z</time>
      </trkpt>
      <trkpt lat="43.302010" lon="-4.818810">
        <ele>137.408</ele>
        <time>2020-05-20T22:51:00Z</time>
      </trkpt>
      <trkpt lat="43.302030" lon="-4.818790">
        <ele>137.341</ele>
        <time>2020-05-20T22:51:20Z</time>
      </trkpt>
      <trkpt lat="43.302040" lon="-4.818780">
        <ele>137.286</ele>
        <time>2020-05-20T22:51:40Z</time>
      </trkpt>
      <trkpt lat="43.302060" lon="-4.818760">
        <ele>137.142</ele>
        <time>2020-05-20T22:52:00Z</time>
      </trkpt>
      <trkpt lat="43.302080" lon="-4.818720">
        <ele>137.175</ele>
        <time>2020-05-20T22:52:20Z</time>
      </trkpt>
      <trkpt lat="43.302140" lon="-4.818630">
        <ele>137.235</ele>
        <time>2020-05-20T22:52:40Z</time>
      </trkpt>
      <trkpt lat="43.302200" lon="-4.818550">
        <ele>137.185</ele>
        <time>2020-05-20T22:53:00Z</time>
      </trkpt>
      <trkpt lat="43.302240" lon="-4.818500">
        <ele>136.965</ele>
        <time>2020-05-20T22:53:20Z</time>
      </trkpt>
      <trkpt lat="43.302270" lon="-4.818470">
        <ele>136.784</ele>
        <time>2020-05-20T22:53:40Z</time>
      </trkpt>
      <trkpt lat="43.302280" lon="-4.818450">
        <ele>136.795</ele>
        <time>2020-05-20T22:54:00Z</time>
      </trkpt>
      <trkpt lat="43.302290" lon="-4.818450">
        <ele>136.649</ele>
        <time>2020-05-20T22:54:20Z</time>
      </trkpt>
      <trkpt lat="43.302300" lon="-4.818440">
        <ele>136.523</ele>
        <time>2020-05-20T22:54:40Z</time>
      </trkpt>
      <trkpt lat="43.302310" lon="-4.818430">
        <ele>136.508</ele>
        <time>2020-05-20T22:55:00Z</time>
      </trkpt>
      <trkpt lat="43.302320" lon="-4.818430">
        <ele>136.443</ele>
        <time>2020-05-20T22:55:20Z</time>
      </trkpt>
      <trkpt lat="43.302330" lon="-4.818430">
        <ele>136.428</ele>
        <time>2020-05-20T22:55:40Z</time>
      </trkpt>
      <trkpt lat="43.302340" lon="-4.818430">
        <ele>136.314</ele>
        <time>2020-05-20T22:56:00Z</time>
      </trkpt>
      <trkpt lat="43.302360" lon="-4.818430">
        <ele>136.287</ele>
        <time>2020-05-20T22:56:20Z</time>
      </trkpt>
      <trkpt lat="43.302370" lon="-4.818430">
        <ele>136.137</ele>
        <time>2020-05-20T22:56:40Z</time>
      </trkpt>
      <trkpt lat="43.302400" lon="-4.818440">
        <ele>136.087</ele>
        <time>2020-05-20T22:57:00Z</time>
      </trkpt>
      <trkpt lat="43.302420" lon="-4.818450">
        <ele>135.917</ele>
        <time>2020-05-20T22:57:20Z</time>
      </trkpt>
      <trkpt lat="43.302460" lon="-4.818470">
        <ele>135.776</ele>
        <time>2020-05-20T22:57:40Z</time>
      </trkpt>
      <trkpt lat="43.302500" lon="-4.818490">
        <ele>135.658</ele>
        <time>2020-05-20T22:58:00Z</time>
      </trkpt>
      <trkpt lat="43.302540" lon="-4.818510">
        <ele>136.152</ele>
        <time>2020-05-20T22:58:20Z</time>
      </trkpt>
      <trkpt lat="43.302560" lon="-4.818520">
        <ele>136.417</ele>
        <time>2020-05-20T22:58:40Z</time>
      </trkpt>
      <trkpt lat="43.302580" lon="-4.818530">
        <ele>136.708</ele>
        <time>2020-05-20T22:59:00Z</time>
      </trkpt>
      <trkpt lat="43.302590" lon="-4.818530">
        <ele>136.839</ele>
        <time>2020-05-20T22:59:20Z</time>
      </trkpt>
      <trkpt lat="43.302600" lon="-4.818540">
        <ele>136.934</ele>
        <time>2020-05-20T22:59:40Z</time>
      </trkpt>
      <trkpt lat="43.302620" lon="-4.818540">
        <ele>137.260</ele>
        <time>2020-05-20T23:00:00Z</time>
      </trkpt>
      <trkpt lat="43.302630" lon="-4.818540">
        <ele>137.333</ele>
        <time>2020-05-20T23:00:20Z</time>
      </trkpt>
      <trkpt lat="43.302640" lon="-4.818540">
        <ele>137.493</ele>
        <time>2020-05-20T23:00:40Z</time>
      </trkpt>
      <trkpt lat="43.302650" lon="-4.818540">
        <ele>137.533</ele>
        <time>2020-05-20T23:01:00Z</time>
      </trkpt>
      <trkpt lat="43.302660" lon="-4.818540">
        <ele>137.683</ele>
        <time>2020-05-20T23:01:20Z</time>
      </trkpt>
      <trkpt lat="43.302660" lon="-4.818530">
        <ele>137.692</ele>
        <time>2020-05-20T23:01:40Z</time>
      </trkpt>
      <trkpt lat="43.302670" lon="-4.818530">
        <ele>137.719</ele>
        <time>2020-05-20T23:02:00Z</time>
      </trkpt>
      <trkpt lat="43.302680" lon="-4.818530">
        <ele>137.809</ele>
        <time>2020-05-20T23:02:20Z</time>
      </trkpt>
      <trkpt lat="43.302680" lon="-4.818520">
        <ele>137.819</ele>
        <time>2020-05-20T23:02:40Z</time>
      </trkpt>
      <trkpt lat="43.302690" lon="-4.818510">
        <ele>137.908</ele>
        <time>2020-05-20T23:03:00Z</time>
      </trkpt>
      <trkpt lat="43.302690" lon="-4.818500">
        <ele>137.915</ele>
        <time>2020-05-20T23:03:20Z</time>
      </trkpt>
      <trkpt lat="43.302690" lon="-4.818490">
        <ele>137.920</ele>
        <time>2020-05-20T23:03:40Z</time>
      </trkpt>
      <trkpt lat="43.302700" lon="-4.818480">
        <ele>138.066</ele>
        <time>2020-05-20T23:04:00Z</time>
      </trkpt>
      <trkpt lat="43.302710" lon="-4.818450">
        <ele>138.119</ele>
        <time>2020-05-20T23:04:20Z</time>
      </trkpt>
      <trkpt lat="43.302720" lon="-4.818410">
        <ele>138.259</ele>
        <time>2020-05-20T23:04:40Z</time>
      </trkpt>
      <trkpt lat="43.302750" lon="-4.818320">
        <ele>138.639</ele>
        <time>2020-05-20T23:05:00Z</time>
      </trkpt>
      <trkpt lat="43.302790" lon="-4.818190">
        <ele>139.269</ele>
        <time>2020-05-20T23:05:20Z</time>
      </trkpt>
      <trkpt lat="43.302830" lon="-4.818030">
        <ele>139.668</ele>
        <time>2020-05-20T23:05:40Z</time>
      </trkpt>
      <trkpt lat="43.302850" lon="-4.817940">
        <ele>139.494</ele>
        <time>2020-05-20T23:06:00Z</time>
      </trkpt>
      <trkpt lat="43.302870" lon="-4.817880">
        <ele>139.557</ele>
        <time>2020-05-20T23:06:20Z</time>
      </trkpt>
      <trkpt lat="43.302900" lon="-4.817830">
        <ele>139.922</ele>
        <time>2020-05-20T23:06:40Z</time>
      </trkpt>
      <trkpt lat="43.302910" lon="-4.817800">
        <ele>139.908</ele>
        <time>2020-05-20T23:07:00Z</time>
      </trkpt>
      <trkpt lat="43.302950" lon="-4.817740">
        <ele>140.673</ele>
        <time>2020-05-20T23:07:20Z</time>
      </trkpt>
      <trkpt lat="43.302947" lon="-4.817744">
        <ele>140.548</ele>
        <time>2020-05-20T23:07:40Z</time>
      </trkpt>
      <trkpt lat="43.302970" lon="-4.817870">
        <ele>141.414</ele>
        <time>2020-05-20T23:08:00Z</time>
      </trkpt>
      <trkpt lat="43.303000" lon="-4.818020">
        <ele>142.137</ele>
        <time>2020-05-20T23:08:20Z</time>
      </trkpt>
      <trkpt lat="43.303020" lon="-4.818090">
        <ele>142.587</ele>
        <time>2020-05-20T23:08:40Z</time>
      </trkpt>
      <trkpt lat="43.303020" lon="-4.818120">
        <ele>142.527</ele>
        <time>2020-05-20T23:09:00Z</time>
      </trkpt>
      <trkpt lat="43.303040" lon="-4.818190">
        <ele>142.847</ele>
        <time>2020-05-20T23:09:20Z</time>
      </trkpt>
      <trkpt lat="43.303070" lon="-4.818290">
        <ele>143.136</ele>
        <time>2020-05-20T23:09:40Z</time>
      </trkpt>
      <trkpt lat="43.303110" lon="-4.818410">
        <ele>143.494</ele>
        <time>2020-05-20T23:10:00Z</time>
      </trkpt>
      <trkpt lat="43.303170" lon="-4.818590">
        <ele>143.857</ele>
        <time>2020-05-20T23:10:20Z</time>
      </trkpt>
      <trkpt lat="43.303290" lon="-4.818910">
        <ele>144.522</ele>
        <time>2020-05-20T23:10:40Z</time>
      </trkpt>
      <trkpt lat="43.303330" lon="-4.818990">
        <ele>144.608</ele>
        <time>2020-05-20T23:11:00Z</time>
      </trkpt>
      <trkpt lat="43.303460" lon="-4.819330">
        <ele>145.323</ele>
        <time>2020-05-20T23:11:20Z</time>
      </trkpt>
      <trkpt lat="43.303540" lon="-4.819540">
        <ele>145.268</ele>
        <time>2020-05-20T23:11:40Z</time>
      </trkpt>
      <trkpt lat="43.303770" lon="-4.820140">
        <ele>145.974</ele>
        <time>2020-05-20T23:12:00Z</time>
      </trkpt>
      <trkpt lat="43.303970" lon="-4.820630">
        <ele>147.477</ele>
        <time>2020-05-20T23:12:20Z</time>
      </trkpt>
      <trkpt lat="43.304060" lon="-4.820860">
        <ele>147.897</ele>
        <time>2020-05-20T23:12:40Z</time>
      </trkpt>
      <trkpt lat="43.304200" lon="-4.821200">
        <ele>148.417</ele>
        <time>2020-05-20T23:13:00Z</time>
      </trkpt>
      <trkpt lat="43.304310" lon="-4.821470">
        <ele>148.937</ele>
        <time>2020-05-20T23:13:20Z</time>
      </trkpt>
      <trkpt lat="43.304380" lon="-4.821650">
        <ele>148.876</ele>
        <time>2020-05-20T23:13:40Z</time>
      </trkpt>
      <trkpt lat="43.304400" lon="-4.821710">
        <ele>148.884</ele>
        <time>2020-05-20T23:14:00Z</time>
      </trkpt>
      <trkpt lat="43.304460" lon="-4.821870">
        <ele>149.207</ele>
        <time>2020-05-20T23:14:20Z</time>
      </trkpt>
      <trkpt lat="43.304620" lon="-4.822250">
        <ele>150.617</ele>
        <time>2020-05-20T23:14:40Z</time>
      </trkpt>
      <trkpt lat="43.304690" lon="-4.822430">
        <ele>150.208</ele>
        <time>2020-05-20T23:15:00Z</time>
      </trkpt>
      <trkpt lat="43.304860" lon="-4.822860">
        <ele>151.792</ele>
        <time>2020-05-20T23:15:20Z</time>
      </trkpt>
      <trkpt lat="43.305130" lon="-4.823570">
        <ele>153.197</ele>
        <time>2020-05-20T23:15:40Z</time>
      </trkpt>
      <trkpt lat="43.305150" lon="-4.823600">
        <ele>153.233</ele>
        <time>2020-05-20T23:16:00Z</time>
      </trkpt>
      <trkpt lat="43.305520" lon="-4.824530">
        <ele>155.836</ele>
        <time>2020-05-20T23:16:20Z</time>
      </trkpt>
      <trkpt lat="43.305780" lon="-4.825110">
        <ele>156.216</ele>
        <time>2020-05-20T23:16:40Z</time>
      </trkpt>
      <trkpt lat="43.305960" lon="-4.825530">
        <ele>157.016</ele>
        <time>2020-05-20T23:17:00Z</time>
      </trkpt>
      <trkpt lat="43.306060" lon="-4.825760">
        <ele>156.456</ele>
        <time>2020-05-20T23:17:20Z</time>
      </trkpt>
      <trkpt lat="43.306120" lon="-4.825910">
        <ele>156.925</ele>
        <time>2020-05-20T23:17:40Z</time>
      </trkpt>
      <trkpt lat="43.306370" lon="-4.826420">
        <ele>156.047</ele>
        <time>2020-05-20T23:18:00Z</time>
      </trkpt>
      <trkpt lat="43.306510" lon="-4.826610">
        <ele>156.629</ele>
        <time>2020-05-20T23:18:20Z</time>
      </trkpt>
      <trkpt lat="43.306590" lon="-4.826690">
        <ele>155.721</ele>
        <time>2020-05-20T23:18:40Z</time>
      </trkpt>
      <trkpt lat="43.306660" lon="-4.826750">
        <ele>154.808</ele>
        <time>2020-05-20T23:19:00Z</time>
      </trkpt>
      <trkpt lat="43.306900" lon="-4.826950">
        <ele>154.428</ele>
        <time>2020-05-20T23:19:20Z</time>
      </trkpt>
      <trkpt lat="43.307150" lon="-4.827180">
        <ele>154.983</ele>
        <time>2020-05-20T23:19:40Z</time>
      </trkpt>
      <trkpt lat="43.307250" lon="-4.827300">
        <ele>155.279</ele>
        <time>2020-05-20T23:20:00Z</time>
      </trkpt>
      <trkpt lat="43.307320" lon="-4.827430">
        <ele>156.232</ele>
        <time>2020-05-20T23:20:20Z</time>
      </trkpt>
      <trkpt lat="43.307370" lon="-4.827540">
        <ele>156.482</ele>
        <time>2020-05-20T23:20:40Z</time>
      </trkpt>
      <trkpt lat="43.307400" lon="-4.827660">
        <ele>156.292</ele>
        <time>2020-05-20T23:21:00Z</time>
      </trkpt>
      <trkpt lat="43.307420" lon="-4.827720">
        <ele>156.382</ele>
        <time>2020-05-20T23:21:20Z</time>
      </trkpt>
      <trkpt lat="43.307520" lon="-4.828040">
        <ele>154.881</ele>
        <time>2020-05-20T23:21:40Z</time>
      </trkpt>
      <trkpt lat="43.307660" lon="-4.828480">
        <ele>158.071</ele>
        <time>2020-05-20T23:22:00Z</time>
      </trkpt>
      <trkpt lat="43.307760" lon="-4.828900">
        <ele>156.541</ele>
        <time>2020-05-20T23:22:20Z</time>
      </trkpt>
      <trkpt lat="43.307820" lon="-4.829180">
        <ele>157.815</ele>
        <time>2020-05-20T23:22:40Z</time>
      </trkpt>
      <trkpt lat="43.307860" lon="-4.829410">
        <ele>158.308</ele>
        <time>2020-05-20T23:23:00Z</time>
      </trkpt>
      <trkpt lat="43.307920" lon="-4.829680">
        <ele>160.521</ele>
        <time>2020-05-20T23:23:20Z</time>
      </trkpt>
      <trkpt lat="43.307940" lon="-4.829840">
        <ele>160.616</ele>
        <time>2020-05-20T23:23:40Z</time>
      </trkpt>
      <trkpt lat="43.307950" lon="-4.829950">
        <ele>160.372</ele>
        <time>2020-05-20T23:24:00Z</time>
      </trkpt>
      <trkpt lat="43.307950" lon="-4.830060">
        <ele>159.925</ele>
        <time>2020-05-20T23:24:20Z</time>
      </trkpt>
      <trkpt lat="43.307940" lon="-4.830270">
        <ele>159.285</ele>
        <time>2020-05-20T23:24:40Z</time>
      </trkpt>
      <trkpt lat="43.307910" lon="-4.830530">
        <ele>158.135</ele>
        <time>2020-05-20T23:25:00Z</time>
      </trkpt>
      <trkpt lat="43.307910" lon="-4.830720">
        <ele>158.355</ele>
        <time>2020-05-20T23:25:20Z</time>
      </trkpt>
      <trkpt lat="43.307900" lon="-4.830800">
        <ele>158.084</ele>
        <time>2020-05-20T23:25:40Z</time>
      </trkpt>
      <trkpt lat="43.307900" lon="-4.830880">
        <ele>157.667</ele>
        <time>2020-05-20T23:26:00Z</time>
      </trkpt>
      <trkpt lat="43.307910" lon="-4.831040">
        <ele>156.281</ele>
        <time>2020-05-20T23:26:20Z</time>
      </trkpt>
      <trkpt lat="43.307920" lon="-4.831310">
        <ele>154.419</ele>
        <time>2020-05-20T23:26:40Z</time>
      </trkpt>
      <trkpt lat="43.307950" lon="-4.831750">
        <ele>154.708</ele>
        <time>2020-05-20T23:27:00Z</time>
      </trkpt>
      <trkpt lat="43.307950" lon="-4.831780">
        <ele>154.810</ele>
        <time>2020-05-20T23:27:20Z</time>
      </trkpt>
      <trkpt lat="43.307970" lon="-4.832000">
        <ele>156.175</ele>
        <time>2020-05-20T23:27:40Z</time>
      </trkpt>
      <trkpt lat="43.307990" lon="-4.832320">
        <ele>155.841</ele>
        <time>2020-05-20T23:28:00Z</time>
      </trkpt>
      <trkpt lat="43.308010" lon="-4.832450">
        <ele>155.524</ele>
        <time>2020-05-20T23:28:20Z</time>
      </trkpt>
      <trkpt lat="43.308020" lon="-4.832600">
        <ele>154.764</ele>
        <time>2020-05-20T23:28:40Z</time>
      </trkpt>
      <trkpt lat="43.308040" lon="-4.832750">
        <ele>154.084</ele>
        <time>2020-05-20T23:29:00Z</time>
      </trkpt>
      <trkpt lat="43.308080" lon="-4.832910">
        <ele>154.574</ele>
        <time>2020-05-20T23:29:20Z</time>
      </trkpt>
      <trkpt lat="43.308120" lon="-4.833030">
        <ele>155.083</ele>
        <time>2020-05-20T23:29:40Z</time>
      </trkpt>
      <trkpt lat="43.308190" lon="-4.833170">
        <ele>155.523</ele>
        <time>2020-05-20T23:30:00Z</time>
      </trkpt>
      <trkpt lat="43.308250" lon="-4.833310">
        <ele>155.983</ele>
        <time>2020-05-20T23:30:20Z</time>
      </trkpt>
      <trkpt lat="43.308260" lon="-4.833320">
        <ele>156.011</ele>
        <time>2020-05-20T23:30:40Z</time>
      </trkpt>
      <trkpt lat="43.308300" lon="-4.833390">
        <ele>156.208</ele>
        <time>2020-05-20T23:31:00Z</time>
      </trkpt>
      <trkpt lat="43.308330" lon="-4.833440">
        <ele>156.246</ele>
        <time>2020-05-20T23:31:20Z</time>
      </trkpt>
      <trkpt lat="43.308630" lon="-4.834010">
        <ele>156.951</ele>
        <time>2020-05-20T23:31:40Z</time>
      </trkpt>
      <trkpt lat="43.308980" lon="-4.834680">
        <ele>158.277</ele>
        <time>2020-05-20T23:32:00Z</time>
      </trkpt>
      <trkpt lat="43.309400" lon="-4.835440">
        <ele>158.510</ele>
        <time>2020-05-20T23:32:20Z</time>
      </trkpt>
      <trkpt lat="43.309440" lon="-4.835520">
        <ele>158.220</ele>
        <time>2020-05-20T23:32:40Z</time>
      </trkpt>
      <trkpt lat="43.309510" lon="-4.835650">
        <ele>158.160</ele>
        <time>2020-05-20T23:33:00Z</time>
      </trkpt>
      <trkpt lat="43.309560" lon="-4.835760">
        <ele>158.160</ele>
        <time>2020-05-20T23:33:20Z</time>
      </trkpt>
      <trkpt lat="43.309840" lon="-4.836260">
        <ele>158.819</ele>
        <time>2020-05-20T23:33:40Z</time>
      </trkpt>
      <trkpt lat="43.309950" lon="-4.836460">
        <ele>159.634</ele>
        <time>2020-05-20T23:34:00Z</time>
      </trkpt>
      <trkpt lat="43.310010" lon="-4.836570">
        <ele>160.155</ele>
        <time>2020-05-20T23:34:20Z</time>
      </trkpt>
      <trkpt lat="43.310190" lon="-4.836890">
        <ele>160.810</ele>
        <time>2020-05-20T23:34:40Z</time>
      </trkpt>
      <trkpt lat="43.310400" lon="-4.837270">
        <ele>163.108</ele>
        <time>2020-05-20T23:35:00Z</time>
      </trkpt>
      <trkpt lat="43.310500" lon="-4.837450">
        <ele>162.987</ele>
        <time>2020-05-20T23:35:20Z</time>
      </trkpt>
      <trkpt lat="43.310640" lon="-4.837640">
        <ele>164.212</ele>
        <time>2020-05-20T23:35:40Z</time>
      </trkpt>
      <trkpt lat="43.310710" lon="-4.837720">
        <ele>164.638</ele>
        <time>2020-05-20T23:36:00Z</time>
      </trkpt>
      <trkpt lat="43.310810" lon="-4.837820">
        <ele>164.521</ele>
        <time>2020-05-20T23:36:20Z</time>
      </trkpt>
      <trkpt lat="43.310880" lon="-4.837890">
        <ele>165.061</ele>
        <time>2020-05-20T23:36:40Z</time>
      </trkpt>
      <trkpt lat="43.310950" lon="-4.837950">
        <ele>165.441</ele>
        <time>2020-05-20T23:37:00Z</time>
      </trkpt>
      <trkpt lat="43.311050" lon="-4.838010">
        <ele>165.581</ele>
        <time>2020-05-20T23:37:20Z</time>
      </trkpt>
      <trkpt lat="43.311140" lon="-4.838080">
        <ele>165.280</ele>
        <time>2020-05-20T23:37:40Z</time>
      </trkpt>
      <trkpt lat="43.311550" lon="-4.838350">
        <ele>166.122</ele>
        <time>2020-05-20T23:38:00Z</time>
      </trkpt>
      <trkpt lat="43.312040" lon="-4.838670">
        <ele>168.162</ele>
        <time>2020-05-20T23:38:20Z</time>
      </trkpt>
      <trkpt lat="43.312400" lon="-4.838920">
        <ele>169.008</ele>
        <time>2020-05-20T23:38:40Z</time>
      </trkpt>
      <trkpt lat="43.312650" lon="-4.839100">
        <ele>174.008</ele>
        <time>2020-05-20T23:39:00Z</time>
      </trkpt>
      <trkpt lat="43.312730" lon="-4.839200">
        <ele>173.386</ele>
        <time>2020-05-20T23:39:20Z</time>
      </trkpt>
      <trkpt lat="43.312820" lon="-4.839300">
        <ele>177.691</ele>
        <time>2020-05-20T23:39:40Z</time>
      </trkpt>
      <trkpt lat="43.312890" lon="-4.839400">
        <ele>182.517</ele>
        <time>2020-05-20T23:40:00Z</time>
      </trkpt>
      <trkpt lat="43.312940" lon="-4.839470">
        <ele>185.350</ele>
        <time>2020-05-20T23:40:20Z</time>
      </trkpt>
      <trkpt lat="43.312960" lon="-4.839520">
        <ele>184.740</ele>
        <time>2020-05-20T23:40:40Z</time>
      </trkpt>
      <trkpt lat="43.313030" lon="-4.839640">
        <ele>181.680</ele>
        <time>2020-05-20T23:41:00Z</time>
      </trkpt>
      <trkpt lat="43.313100" lon="-4.839810">
        <ele>177.330</ele>
        <time>2020-05-20T23:41:20Z</time>
      </trkpt>
      <trkpt lat="43.313230" lon="-4.840140">
        <ele>176.889</ele>
        <time>2020-05-20T23:41:40Z</time>
      </trkpt>
      <trkpt lat="43.313300" lon="-4.840300">
        <ele>176.164</ele>
        <time>2020-05-20T23:42:00Z</time>
      </trkpt>
      <trkpt lat="43.313370" lon="-4.840470">
        <ele>174.006</ele>
        <time>2020-05-20T23:42:20Z</time>
      </trkpt>
      <trkpt lat="43.313490" lon="-4.840720">
        <ele>176.216</ele>
        <time>2020-05-20T23:42:40Z</time>
      </trkpt>
      <trkpt lat="43.313550" lon="-4.840890">
        <ele>175.508</ele>
        <time>2020-05-20T23:43:00Z</time>
      </trkpt>
      <trkpt lat="43.313580" lon="-4.840950">
        <ele>175.640</ele>
        <time>2020-05-20T23:43:20Z</time>
      </trkpt>
      <trkpt lat="43.313630" lon="-4.841130">
        <ele>174.155</ele>
        <time>2020-05-20T23:43:40Z</time>
      </trkpt>
      <trkpt lat="43.313710" lon="-4.841350">
        <ele>175.321</ele>
        <time>2020-05-20T23:44:00Z</time>
      </trkpt>
      <trkpt lat="43.313780" lon="-4.841530">
        <ele>174.984</ele>
        <time>2020-05-20T23:44:20Z</time>
      </trkpt>
      <trkpt lat="43.313870" lon="-4.841680">
        <ele>172.524</ele>
        <time>2020-05-20T23:44:40Z</time>
      </trkpt>
      <trkpt lat="43.313970" lon="-4.841780">
        <ele>174.154</ele>
        <time>2020-05-20T23:45:00Z</time>
      </trkpt>
      <trkpt lat="43.314080" lon="-4.841860">
        <ele>174.124</ele>
        <time>2020-05-20T23:45:20Z</time>
      </trkpt>
      <trkpt lat="43.314190" lon="-4.841900">
        <ele>173.743</ele>
        <time>2020-05-20T23:45:40Z</time>
      </trkpt>
      <trkpt lat="43.314360" lon="-4.841950">
        <ele>172.348</ele>
        <time>2020-05-20T23:46:00Z</time>
      </trkpt>
      <trkpt lat="43.314530" lon="-4.842030">
        <ele>174.261</ele>
        <time>2020-05-20T23:46:20Z</time>
      </trkpt>
      <trkpt lat="43.314650" lon="-4.842100">
        <ele>175.617</ele>
        <time>2020-05-20T23:46:40Z</time>
      </trkpt>
      <trkpt lat="43.314740" lon="-4.842200">
        <ele>174.508</ele>
        <time>2020-05-20T23:47:00Z</time>
      </trkpt>
      <trkpt lat="43.314820" lon="-4.842290">
        <ele>179.028</ele>
        <time>2020-05-20T23:47:20Z</time>
      </trkpt>
      <trkpt lat="43.314890" lon="-4.842410">
        <ele>181.733</ele>
        <time>2020-05-20T23:47:40Z</time>
      </trkpt>
      <trkpt lat="43.314940" lon="-4.842540">
        <ele>182.149</ele>
        <time>2020-05-20T23:48:00Z</time>
      </trkpt>
      <trkpt lat="43.314980" lon="-4.842670">
        <ele>182.542</ele>
        <time>2020-05-20T23:48:20Z</time>
      </trkpt>
      <trkpt lat="43.314980" lon="-4.842790">
        <ele>181.182</ele>
        <time>2020-05-20T23:48:40Z</time>
      </trkpt>
      <trkpt lat="43.314980" lon="-4.842910">
        <ele>181.592</ele>
        <time>2020-05-20T23:49:00Z</time>
      </trkpt>
      <trkpt lat="43.314970" lon="-4.843000">
        <ele>181.382</ele>
        <time>2020-05-20T23:49:20Z</time>
      </trkpt>
      <trkpt lat="43.314950" lon="-4.843130">
        <ele>181.221</ele>
        <time>2020-05-20T23:49:40Z</time>
      </trkpt>
      <trkpt lat="43.314890" lon="-4.843380">
        <ele>180.011</ele>
        <time>2020-05-20T23:50:00Z</time>
      </trkpt>
      <trkpt lat="43.314840" lon="-4.843680">
        <ele>178.821</ele>
        <time>2020-05-20T23:50:20Z</time>
      </trkpt>
      <trkpt lat="43.314810" lon="-4.844000">
        <ele>177.803</ele>
        <time>2020-05-20T23:50:40Z</time>
      </trkpt>
      <trkpt lat="43.314810" lon="-4.844110">
        <ele>178.408</ele>
        <time>2020-05-20T23:51:00Z</time>
      </trkpt>
      <trkpt lat="43.314800" lon="-4.844200">
        <ele>178.065</ele>
        <time>2020-05-20T23:51:20Z</time>
      </trkpt>
      <trkpt lat="43.314810" lon="-4.844390">
        <ele>179.440</ele>
        <time>2020-05-20T23:51:40Z</time>
      </trkpt>
      <trkpt lat="43.314830" lon="-4.844540">
        <ele>180.876</ele>
        <time>2020-05-20T23:52:00Z</time>
      </trkpt>
      <trkpt lat="43.314840" lon="-4.844600">
        <ele>181.349</ele>
        <time>2020-05-20T23:52:20Z</time>
      </trkpt>
      <trkpt lat="43.314860" lon="-4.844700">
        <ele>182.119</ele>
        <time>2020-05-20T23:52:40Z</time>
      </trkpt>
      <trkpt lat="43.314910" lon="-4.844850">
        <ele>183.169</ele>
        <time>2020-05-20T23:53:00Z</time>
      </trkpt>
      <trkpt lat="43.314950" lon="-4.844980">
        <ele>182.739</ele>
        <time>2020-05-20T23:53:20Z</time>
      </trkpt>
      <trkpt lat="43.315000" lon="-4.845060">
        <ele>182.578</ele>
        <time>2020-05-20T23:53:40Z</time>
      </trkpt>
      <trkpt lat="43.315040" lon="-4.845140">
        <ele>182.687</ele>
        <time>2020-05-20T23:54:00Z</time>
      </trkpt>
      <trkpt lat="43.315100" lon="-4.845240">
        <ele>182.642</ele>
        <time>2020-05-20T23:54:20Z</time>
      </trkpt>
      <trkpt lat="43.315120" lon="-4.845260">
        <ele>182.826</ele>
        <time>2020-05-20T23:54:40Z</time>
      </trkpt>
      <trkpt lat="43.315140" lon="-4.845280">
        <ele>183.008</ele>
        <time>2020-05-20T23:55:00Z</time>
      </trkpt>
      <trkpt lat="43.315200" lon="-4.845350">
        <ele>183.662</ele>
        <time>2020-05-20T23:55:20Z</time>
      </trkpt>
      <trkpt lat="43.315240" lon="-4.845390">
        <ele>183.587</ele>
        <time>2020-05-20T23:55:40Z</time>
      </trkpt>
      <trkpt lat="43.315300" lon="-4.845450">
        <ele>182.913</ele>
        <time>2020-05-20T23:56:00Z</time>
      </trkpt>
      <trkpt lat="43.315400" lon="-4.845520">
        <ele>183.466</ele>
        <time>2020-05-20T23:56:20Z</time>
      </trkpt>
      <trkpt lat="43.315520" lon="-4.845640">
        <ele>183.416</ele>
        <time>2020-05-20T23:56:40Z</time>
      </trkpt>
      <trkpt lat="43.315580" lon="-4.845710">
        <ele>182.426</ele>
        <time>2020-05-20T23:57:00Z</time>
      </trkpt>
      <trkpt lat="43.315630" lon="-4.845790">
        <ele>180.716</ele>
        <time>2020-05-20T23:57:20Z</time>
      </trkpt>
      <trkpt lat="43.315650" lon="-4.845840">
        <ele>179.625</ele>
        <time>2020-05-20T23:57:40Z</time>
      </trkpt>
      <trkpt lat="43.315670" lon="-4.845870">
        <ele>179.793</ele>
        <time>2020-05-20T23:58:00Z</time>
      </trkpt>
      <trkpt lat="43.315700" lon="-4.845940">
        <ele>179.665</ele>
        <time>2020-05-20T23:58:20Z</time>
      </trkpt>
      <trkpt lat="43.315740" lon="-4.846080">
        <ele>179.021</ele>
        <time>2020-05-20T23:58:40Z</time>
      </trkpt>
      <trkpt lat="43.315750" lon="-4.846230">
        <ele>177.608</ele>
        <time>2020-05-20T23:59:00Z</time>
      </trkpt>
      <trkpt lat="43.315730" lon="-4.846530">
        <ele>176.463</ele>
        <time>2020-05-20T23:59:20Z</time>
      </trkpt>
      <trkpt lat="43.315700" lon="-4.846800">
        <ele>176.848</ele>
        <time>2020-05-20T23:59:40Z</time>
      </trkpt>
      <trkpt lat="43.315660" lon="-4.847290">
        <ele>178.454</ele>
        <time>2020-05-21T00:00:00Z</time>
      </trkpt>
      <trkpt lat="43.315590" lon="-4.848130">
        <ele>179.577</ele>
        <time>2020-05-21T00:00:20Z</time>
      </trkpt>
      <trkpt lat="43.315600" lon="-4.848220">
        <ele>179.527</ele>
        <time>2020-05-21T00:00:40Z</time>
      </trkpt>
      <trkpt lat="43.315600" lon="-4.848430">
        <ele>179.567</ele>
        <time>2020-05-21T00:01:00Z</time>
      </trkpt>
      <trkpt lat="43.315620" lon="-4.848830">
        <ele>179.757</ele>
        <time>2020-05-21T00:01:20Z</time>
      </trkpt>
      <trkpt lat="43.315660" lon="-4.849240">
        <ele>180.246</ele>
        <time>2020-05-21T00:01:40Z</time>
      </trkpt>
      <trkpt lat="43.315680" lon="-4.849580">
        <ele>179.829</ele>
        <time>2020-05-21T00:02:00Z</time>
      </trkpt>
      <trkpt lat="43.315700" lon="-4.849850">
        <ele>180.500</ele>
        <time>2020-05-21T00:02:20Z</time>
      </trkpt>
      <trkpt lat="43.315740" lon="-4.850270">
        <ele>182.020</ele>
        <time>2020-05-21T00:02:40Z</time>
      </trkpt>
      <trkpt lat="43.315800" lon="-4.851080">
        <ele>184.508</ele>
        <time>2020-05-21T00:03:00Z</time>
      </trkpt>
      <trkpt lat="43.315820" lon="-4.851320">
        <ele>184.876</ele>
        <time>2020-05-21T00:03:20Z</time>
      </trkpt>
      <trkpt lat="43.315890" lon="-4.852230">
        <ele>187.071</ele>
        <time>2020-05-21T00:03:40Z</time>
      </trkpt>
      <trkpt lat="43.315910" lon="-4.852550">
        <ele>187.137</ele>
        <time>2020-05-21T00:04:00Z</time>
      </trkpt>
      <trkpt lat="43.315940" lon="-4.852970">
        <ele>187.250</ele>
        <time>2020-05-21T00:04:20Z</time>
      </trkpt>
      <trkpt lat="43.315960" lon="-4.853250">
        <ele>187.490</ele>
        <time>2020-05-21T00:04:40Z</time>
      </trkpt>
      <trkpt lat="43.315990" lon="-4.853560">
        <ele>187.650</ele>
        <time>2020-05-21T00:05:00Z</time>
      </trkpt>
      <trkpt lat="43.315990" lon="-4.853600">
        <ele>187.640</ele>
        <time>2020-05-21T00:05:20Z</time>
      </trkpt>
      <trkpt lat="43.316040" lon="-4.853900">
        <ele>187.749</ele>
        <time>2020-05-21T00:05:40Z</time>
      </trkpt>
      <trkpt lat="43.316220" lon="-4.854540">
        <ele>186.385</ele>
        <time>2020-05-21T00:06:00Z</time>
      </trkpt>
      <trkpt lat="43.316290" lon="-4.854810">
        <ele>185.489</ele>
        <time>2020-05-21T00:06:20Z</time>
      </trkpt>
      <trkpt lat="43.316350" lon="-4.855000">
        <ele>185.617</ele>
        <time>2020-05-21T00:06:40Z</time>
      </trkpt>
      <trkpt lat="43.316480" lon="-4.855460">
        <ele>185.708</ele>
        <time>2020-05-21T00:07:00Z</time>
      </trkpt>
      <trkpt lat="43.316530" lon="-4.855610">
        <ele>185.452</ele>
        <time>2020-05-21T00:07:20Z</time>
      </trkpt>
      <trkpt lat="43.316760" lon="-4.856370">
        <ele>186.377</ele>
        <time>2020-05-21T00:07:40Z</time>
      </trkpt>
      <trkpt lat="43.316810" lon="-4.856570">
        <ele>187.513</ele>
        <time>2020-05-21T00:08:00Z</time>
      </trkpt>
      <trkpt lat="43.316890" lon="-4.856870">
        <ele>187.716</ele>
        <time>2020-05-21T00:08:20Z</time>
      </trkpt>
      <trkpt lat="43.316930" lon="-4.857040">
        <ele>188.276</ele>
        <time>2020-05-21T00:08:40Z</time>
      </trkpt>
      <trkpt lat="43.316970" lon="-4.857180">
        <ele>189.036</ele>
        <time>2020-05-21T00:09:00Z</time>
      </trkpt>
      <trkpt lat="43.317010" lon="-4.857430">
        <ele>190.016</ele>
        <time>2020-05-21T00:09:20Z</time>
      </trkpt>
      <trkpt lat="43.317030" lon="-4.857580">
        <ele>190.635</ele>
        <time>2020-05-21T00:09:40Z</time>
      </trkpt>
      <trkpt lat="43.317030" lon="-4.857740">
        <ele>191.278</ele>
        <time>2020-05-21T00:10:00Z</time>
      </trkpt>
      <trkpt lat="43.317020" lon="-4.858090">
        <ele>192.833</ele>
        <time>2020-05-21T00:10:20Z</time>
      </trkpt>
      <trkpt lat="43.317010" lon="-4.858340">
        <ele>193.926</ele>
        <time>2020-05-21T00:10:40Z</time>
      </trkpt>
      <trkpt lat="43.317000" lon="-4.858630">
        <ele>193.408</ele>
        <time>2020-05-21T00:11:00Z</time>
      </trkpt>
      <trkpt lat="43.316990" lon="-4.858790">
        <ele>193.581</ele>
        <time>2020-05-21T00:11:20Z</time>
      </trkpt>
      <trkpt lat="43.316950" lon="-4.859290">
        <ele>195.076</ele>
        <time>2020-05-21T00:11:40Z</time>
      </trkpt>
      <trkpt lat="43.316920" lon="-4.859870">
        <ele>198.352</ele>
        <time>2020-05-21T00:12:00Z</time>
      </trkpt>
      <trkpt lat="43.316900" lon="-4.860160">
        <ele>199.845</ele>
        <time>2020-05-21T00:12:20Z</time>
      </trkpt>
      <trkpt lat="43.316870" lon="-4.860430">
        <ele>200.255</ele>
        <time>2020-05-21T00:12:40Z</time>
      </trkpt>
      <trkpt lat="43.316850" lon="-4.860630">
        <ele>200.755</ele>
        <time>2020-05-21T00:13:00Z</time>
      </trkpt>
      <trkpt lat="43.316810" lon="-4.860740">
        <ele>200.475</ele>
        <time>2020-05-21T00:13:20Z</time>
      </trkpt>
      <trkpt lat="43.316800" lon="-4.860770">
        <ele>200.334</ele>
        <time>2020-05-21T00:13:40Z</time>
      </trkpt>
      <trkpt lat="43.316780" lon="-4.860850">
        <ele>200.757</ele>
        <time>2020-05-21T00:14:00Z</time>
      </trkpt>
      <trkpt lat="43.316730" lon="-4.860990">
        <ele>201.700</ele>
        <time>2020-05-21T00:14:20Z</time>
      </trkpt>
      <trkpt lat="43.316650" lon="-4.861190">
        <ele>202.520</ele>
        <time>2020-05-21T00:14:40Z</time>
      </trkpt>
      <trkpt lat="43.316640" lon="-4.861210">
        <ele>202.408</ele>
        <time>2020-05-21T00:15:00Z</time>
      </trkpt>
      <trkpt lat="43.316620" lon="-4.861280">
        <ele>202.549</ele>
        <time>2020-05-21T00:15:20Z</time>
      </trkpt>
      <trkpt lat="43.316580" lon="-4.861390">
        <ele>202.394</ele>
        <time>2020-05-21T00:15:40Z</time>
      </trkpt>
      <trkpt lat="43.316510" lon="-4.861560">
        <ele>202.340</ele>
        <time>2020-05-21T00:16:00Z</time>
      </trkpt>
      <trkpt lat="43.316490" lon="-4.861660">
        <ele>203.263</ele>
        <time>2020-05-21T00:16:20Z</time>
      </trkpt>
      <trkpt lat="43.316480" lon="-4.861680">
        <ele>203.113</ele>
        <time>2020-05-21T00:16:40Z</time>
      </trkpt>
      <trkpt lat="43.316470" lon="-4.861790">
        <ele>204.273</ele>
        <time>2020-05-21T00:17:00Z</time>
      </trkpt>
      <trkpt lat="43.316440" lon="-4.862000">
        <ele>205.823</ele>
        <time>2020-05-21T00:17:20Z</time>
      </trkpt>
      <trkpt lat="43.316400" lon="-4.862220">
        <ele>207.622</ele>
        <time>2020-05-21T00:17:40Z</time>
      </trkpt>
      <trkpt lat="43.316400" lon="-4.862260">
        <ele>209.243</ele>
        <time>2020-05-21T00:18:00Z</time>
      </trkpt>
      <trkpt lat="43.316370" lon="-4.862350">
        <ele>211.364</ele>
        <time>2020-05-21T00:18:20Z</time>
      </trkpt>
      <trkpt lat="43.316350" lon="-4.862430">
        <ele>213.310</ele>
        <time>2020-05-21T00:18:40Z</time>
      </trkpt>
      <trkpt lat="43.316310" lon="-4.862520">
        <ele>214.308</ele>
        <time>2020-05-21T00:19:00Z</time>
      </trkpt>
      <trkpt lat="43.316270" lon="-4.862590">
        <ele>215.528</ele>
        <time>2020-05-21T00:19:20Z</time>
      </trkpt>
      <trkpt lat="43.316230" lon="-4.862640">
        <ele>215.193</ele>
        <time>2020-05-21T00:19:40Z</time>
      </trkpt>
      <trkpt lat="43.316200" lon="-4.862690">
        <ele>215.459</ele>
        <time>2020-05-21T00:20:00Z</time>
      </trkpt>
      <trkpt lat="43.316150" lon="-4.862750">
        <ele>214.232</ele>
        <time>2020-05-21T00:20:20Z</time>
      </trkpt>
      <trkpt lat="43.316140" lon="-4.862750">
        <ele>213.352</ele>
        <time>2020-05-21T00:20:40Z</time>
      </trkpt>
      <trkpt lat="43.316100" lon="-4.862780">
        <ele>211.782</ele>
        <time>2020-05-21T00:21:00Z</time>
      </trkpt>
      <trkpt lat="43.316050" lon="-4.862810">
        <ele>211.642</ele>
        <time>2020-05-21T00:21:20Z</time>
      </trkpt>
      <trkpt lat="43.316010" lon="-4.862830">
        <ele>211.331</ele>
        <time>2020-05-21T00:21:40Z</time>
      </trkpt>
      <trkpt lat="43.315910" lon="-4.862860">
        <ele>208.819</ele>
        <time>2020-05-21T00:22:00Z</time>
      </trkpt>
      <trkpt lat="43.315900" lon="-4.862860">
        <ele>208.309</ele>
        <time>2020-05-21T00:22:20Z</time>
      </trkpt>
      <trkpt lat="43.315790" lon="-4.862880">
        <ele>206.119</ele>
        <time>2020-05-21T00:22:40Z</time>
      </trkpt>
      <trkpt lat="43.315580" lon="-4.862930">
        <ele>206.508</ele>
        <time>2020-05-21T00:23:00Z</time>
      </trkpt>
      <trkpt lat="43.315470" lon="-4.862950">
        <ele>205.685</ele>
        <time>2020-05-21T00:23:20Z</time>
      </trkpt>
      <trkpt lat="43.315440" lon="-4.862960">
        <ele>205.410</ele>
        <time>2020-05-21T00:23:40Z</time>
      </trkpt>
      <trkpt lat="43.315360" lon="-4.862990">
        <ele>204.626</ele>
        <time>2020-05-21T00:24:00Z</time>
      </trkpt>
      <trkpt lat="43.315310" lon="-4.863020">
        <ele>204.119</ele>
        <time>2020-05-21T00:24:20Z</time>
      </trkpt>
      <trkpt lat="43.315250" lon="-4.863060">
        <ele>203.659</ele>
        <time>2020-05-21T00:24:40Z</time>
      </trkpt>
      <trkpt lat="43.315210" lon="-4.863110">
        <ele>204.899</ele>
        <time>2020-05-21T00:25:00Z</time>
      </trkpt>
      <trkpt lat="43.315170" lon="-4.863180">
        <ele>206.499</ele>
        <time>2020-05-21T00:25:20Z</time>
      </trkpt>
      <trkpt lat="43.315140" lon="-4.863230">
        <ele>207.028</ele>
        <time>2020-05-21T00:25:40Z</time>
      </trkpt>
      <trkpt lat="43.315130" lon="-4.863250">
        <ele>207.352</ele>
        <time>2020-05-21T00:26:00Z</time>
      </trkpt>
      <trkpt lat="43.315110" lon="-4.863310">
        <ele>208.253</ele>
        <time>2020-05-21T00:26:20Z</time>
      </trkpt>
      <trkpt lat="43.315070" lon="-4.863400">
        <ele>208.208</ele>
        <time>2020-05-21T00:26:40Z</time>
      </trkpt>
      <trkpt lat="43.315040" lon="-4.863500">
        <ele>208.208</ele>
        <time>2020-05-21T00:27:00Z</time>
      </trkpt>
      <trkpt lat="43.315030" lon="-4.863600">
        <ele>209.299</ele>
        <time>2020-05-21T00:27:20Z</time>
      </trkpt>
      <trkpt lat="43.315010" lon="-4.863720">
        <ele>208.654</ele>
        <time>2020-05-21T00:27:40Z</time>
      </trkpt>
      <trkpt lat="43.315010" lon="-4.863840">
        <ele>209.570</ele>
        <time>2020-05-21T00:28:00Z</time>
      </trkpt>
      <trkpt lat="43.315020" lon="-4.863970">
        <ele>210.973</ele>
        <time>2020-05-21T00:28:20Z</time>
      </trkpt>
      <trkpt lat="43.315020" lon="-4.864010">
        <ele>211.123</ele>
        <time>2020-05-21T00:28:40Z</time>
      </trkpt>
      <trkpt lat="43.315030" lon="-4.864190">
        <ele>212.533</ele>
        <time>2020-05-21T00:29:00Z</time>
      </trkpt>
      <trkpt lat="43.315030" lon="-4.864330">
        <ele>212.573</ele>
        <time>2020-05-21T00:29:20Z</time>
      </trkpt>
      <trkpt lat="43.315030" lon="-4.864430">
        <ele>212.692</ele>
        <time>2020-05-21T00:29:40Z</time>
      </trkpt>
      <trkpt lat="43.315020" lon="-4.864470">
        <ele>211.988</ele>
        <time>2020-05-21T00:30:00Z</time>
      </trkpt>
      <trkpt lat="43.315010" lon="-4.864670">
        <ele>212.524</ele>
        <time>2020-05-21T00:30:20Z</time>
      </trkpt>
      <trkpt lat="43.315010" lon="-4.864710">
        <ele>212.826</ele>
        <time>2020-05-21T00:30:40Z</time>
      </trkpt>
      <trkpt lat="43.315000" lon="-4.864960">
        <ele>212.908</ele>
        <time>2020-05-21T00:31:00Z</time>
      </trkpt>
      <trkpt lat="43.314990" lon="-4.865030">
        <ele>212.712</ele>
        <time>2020-05-21T00:31:20Z</time>
      </trkpt>
      <trkpt lat="43.314980" lon="-4.865210">
        <ele>213.557</ele>
        <time>2020-05-21T00:31:40Z</time>
      </trkpt>
      <trkpt lat="43.314970" lon="-4.865420">
        <ele>214.563</ele>
        <time>2020-05-21T00:32:00Z</time>
      </trkpt>
      <trkpt lat="43.314970" lon="-4.865450">
        <ele>214.736</ele>
        <time>2020-05-21T00:32:20Z</time>
      </trkpt>
      <trkpt lat="43.314970" lon="-4.865520">
        <ele>215.196</ele>
        <time>2020-05-21T00:32:40Z</time>
      </trkpt>
      <trkpt lat="43.314970" lon="-4.865640">
        <ele>215.316</ele>
        <time>2020-05-21T00:33:00Z</time>
      </trkpt>
      <trkpt lat="43.314970" lon="-4.865760">
        <ele>215.226</ele>
        <time>2020-05-21T00:33:20Z</time>
      </trkpt>
      <trkpt lat="43.314980" lon="-4.865830">
        <ele>215.865</ele>
        <time>2020-05-21T00:33:40Z</time>
      </trkpt>
      <trkpt lat="43.315020" lon="-4.865960">
        <ele>217.619</ele>
        <time>2020-05-21T00:34:00Z</time>
      </trkpt>
      <trkpt lat="43.315050" lon="-4.866060">
        <ele>219.109</ele>
        <time>2020-05-21T00:34:20Z</time>
      </trkpt>
      <trkpt lat="43.315110" lon="-4.866190">
        <ele>220.719</ele>
        <time>2020-05-21T00:34:40Z</time>
      </trkpt>
      <trkpt lat="43.315190" lon="-4.866340">
        <ele>221.808</ele>
        <time>2020-05-21T00:35:00Z</time>
      </trkpt>
      <trkpt lat="43.315200" lon="-4.866360">
        <ele>221.815</ele>
        <time>2020-05-21T00:35:20Z</time>
      </trkpt>
      <trkpt lat="43.315250" lon="-4.866470">
        <ele>221.310</ele>
        <time>2020-05-21T00:35:40Z</time>
      </trkpt>
      <trkpt lat="43.315290" lon="-4.866570">
        <ele>220.676</ele>
        <time>2020-05-21T00:36:00Z</time>
      </trkpt>
      <trkpt lat="43.315400" lon="-4.866800">
        <ele>223.679</ele>
        <time>2020-05-21T00:36:20Z</time>
      </trkpt>
      <trkpt lat="43.315500" lon="-4.867060">
        <ele>225.879</ele>
        <time>2020-05-21T00:36:40Z</time>
      </trkpt>
      <trkpt lat="43.315520" lon="-4.867120">
        <ele>226.249</ele>
        <time>2020-05-21T00:37:00Z</time>
      </trkpt>
      <trkpt lat="43.315530" lon="-4.867180">
        <ele>225.779</ele>
        <time>2020-05-21T00:37:20Z</time>
      </trkpt>
      <trkpt lat="43.315540" lon="-4.867240">
        <ele>225.468</ele>
        <time>2020-05-21T00:37:40Z</time>
      </trkpt>
      <trkpt lat="43.315540" lon="-4.867300">
        <ele>225.067</ele>
        <time>2020-05-21T00:38:00Z</time>
      </trkpt>
      <trkpt lat="43.315550" lon="-4.867480">
        <ele>224.781</ele>
        <time>2020-05-21T00:38:20Z</time>
      </trkpt>
      <trkpt lat="43.315560" lon="-4.867680">
        <ele>223.419</ele>
        <time>2020-05-21T00:38:40Z</time>
      </trkpt>
      <trkpt lat="43.315570" lon="-4.867870">
        <ele>222.808</ele>
        <time>2020-05-21T00:39:00Z</time>
      </trkpt>
      <trkpt lat="43.315590" lon="-4.867960">
        <ele>224.010</ele>
        <time>2020-05-21T00:39:20Z</time>
      </trkpt>
      <trkpt lat="43.315600" lon="-4.868030">
        <ele>224.395</ele>
        <time>2020-05-21T00:39:40Z</time>
      </trkpt>
      <trkpt lat="43.315620" lon="-4.868140">
        <ele>224.641</ele>
        <time>2020-05-21T00:40:00Z</time>
      </trkpt>
      <trkpt lat="43.315640" lon="-4.868200">
        <ele>225.154</ele>
        <time>2020-05-21T00:40:20Z</time>
      </trkpt>
      <trkpt lat="43.315640" lon="-4.868210">
        <ele>225.014</ele>
        <time>2020-05-21T00:40:40Z</time>
      </trkpt>
      <trkpt lat="43.315680" lon="-4.868290">
        <ele>226.044</ele>
        <time>2020-05-21T00:41:00Z</time>
      </trkpt>
      <trkpt lat="43.315730" lon="-4.868390">
        <ele>226.014</ele>
        <time>2020-05-21T00:41:20Z</time>
      </trkpt>
      <trkpt lat="43.315780" lon="-4.868460">
        <ele>226.523</ele>
        <time>2020-05-21T00:41:40Z</time>
      </trkpt>
      <trkpt lat="43.315830" lon="-4.868530">
        <ele>227.248</ele>
        <time>2020-05-21T00:42:00Z</time>
      </trkpt>
      <trkpt lat="43.316060" lon="-4.868880">
        <ele>233.861</ele>
        <time>2020-05-21T00:42:20Z</time>
      </trkpt>
      <trkpt lat="43.316190" lon="-4.869110">
        <ele>236.317</ele>
        <time>2020-05-21T00:42:40Z</time>
      </trkpt>
      <trkpt lat="43.316260" lon="-4.869220">
        <ele>239.408</ele>
        <time>2020-05-21T00:43:00Z</time>
      </trkpt>
      <trkpt lat="43.316330" lon="-4.869350">
        <ele>241.578</ele>
        <time>2020-05-21T00:43:20Z</time>
      </trkpt>
      <trkpt lat="43.316380" lon="-4.869460">
        <ele>241.533</ele>
        <time>2020-05-21T00:43:40Z</time>
      </trkpt>
      <trkpt lat="43.316420" lon="-4.869580">
        <ele>242.929</ele>
        <time>2020-05-21T00:44:00Z</time>
      </trkpt>
      <trkpt lat="43.316490" lon="-4.869830">
        <ele>242.892</ele>
        <time>2020-05-21T00:44:20Z</time>
      </trkpt>
      <trkpt lat="43.316550" lon="-4.870010">
        <ele>241.492</ele>
        <time>2020-05-21T00:44:40Z</time>
      </trkpt>
      <trkpt lat="43.316610" lon="-4.870240">
        <ele>239.922</ele>
        <time>2020-05-21T00:45:00Z</time>
      </trkpt>
      <trkpt lat="43.316630" lon="-4.870290">
        <ele>240.072</ele>
        <time>2020-05-21T00:45:20Z</time>
      </trkpt>
      <trkpt lat="43.316750" lon="-4.870690">
        <ele>244.221</ele>
        <time>2020-05-21T00:45:40Z</time>
      </trkpt>
      <trkpt lat="43.316810" lon="-4.870910">
        <ele>245.723</ele>
        <time>2020-05-21T00:46:00Z</time>
      </trkpt>
      <trkpt lat="43.316820" lon="-4.870930">
        <ele>246.583</ele>
        <time>2020-05-21T00:46:20Z</time>
      </trkpt>
      <trkpt lat="43.316830" lon="-4.871000">
        <ele>246.311</ele>
        <time>2020-05-21T00:46:40Z</time>
      </trkpt>
      <trkpt lat="43.316850" lon="-4.871080">
        <ele>246.808</ele>
        <time>2020-05-21T00:47:00Z</time>
      </trkpt>
      <trkpt lat="43.316850" lon="-4.871180">
        <ele>245.376</ele>
        <time>2020-05-21T00:47:20Z</time>
      </trkpt>
      <trkpt lat="43.316850" lon="-4.871270">
        <ele>244.311</ele>
        <time>2020-05-21T00:47:40Z</time>
      </trkpt>
      <trkpt lat="43.316860" lon="-4.871560">
        <ele>241.627</ele>
        <time>2020-05-21T00:48:00Z</time>
      </trkpt>
      <trkpt lat="43.316880" lon="-4.871720">
        <ele>240.330</ele>
        <time>2020-05-21T00:48:20Z</time>
      </trkpt>
      <trkpt lat="43.316950" lon="-4.871890">
        <ele>240.250</ele>
        <time>2020-05-21T00:48:40Z</time>
      </trkpt>
      <trkpt lat="43.317030" lon="-4.872040">
        <ele>240.410</ele>
        <time>2020-05-21T00:49:00Z</time>
      </trkpt>
      <trkpt lat="43.317060" lon="-4.872080">
        <ele>240.620</ele>
        <time>2020-05-21T00:49:20Z</time>
      </trkpt>
      <trkpt lat="43.317110" lon="-4.872140">
        <ele>240.879</ele>
        <time>2020-05-21T00:49:40Z</time>
      </trkpt>
      <trkpt lat="43.317220" lon="-4.872240">
        <ele>242.037</ele>
        <time>2020-05-21T00:50:00Z</time>
      </trkpt>
      <trkpt lat="43.317340" lon="-4.872330">
        <ele>244.349</ele>
        <time>2020-05-21T00:50:20Z</time>
      </trkpt>
      <trkpt lat="43.317490" lon="-4.872450">
        <ele>245.513</ele>
        <time>2020-05-21T00:50:40Z</time>
      </trkpt>
      <trkpt lat="43.317630" lon="-4.872590">
        <ele>245.508</ele>
        <time>2020-05-21T00:51:00Z</time>
      </trkpt>
      <trkpt lat="43.317660" lon="-4.872620">
        <ele>245.667</ele>
        <time>2020-05-21T00:51:20Z</time>
      </trkpt>
      <trkpt lat="43.317740" lon="-4.872710">
        <ele>245.452</ele>
        <time>2020-05-21T00:51:40Z</time>
      </trkpt>
      <trkpt lat="43.317850" lon="-4.872820">
        <ele>245.398</ele>
        <time>2020-05-21T00:52:00Z</time>
      </trkpt>
      <trkpt lat="43.317980" lon="-4.872940">
        <ele>246.221</ele>
        <time>2020-05-21T00:52:20Z</time>
      </trkpt>
      <trkpt lat="43.318140" lon="-4.873050">
        <ele>248.031</ele>
        <time>2020-05-21T00:52:40Z</time>
      </trkpt>
      <trkpt lat="43.318260" lon="-4.873130">
        <ele>248.381</ele>
        <time>2020-05-21T00:53:00Z</time>
      </trkpt>
      <trkpt lat="43.318270" lon="-4.873140">
        <ele>248.181</ele>
        <time>2020-05-21T00:53:20Z</time>
      </trkpt>
      <trkpt lat="43.318490" lon="-4.873290">
        <ele>247.940</ele>
        <time>2020-05-21T00:53:40Z</time>
      </trkpt>
      <trkpt lat="43.318630" lon="-4.873340">
        <ele>248.836</ele>
        <time>2020-05-21T00:54:00Z</time>
      </trkpt>
      <trkpt lat="43.318760" lon="-4.873380">
        <ele>248.117</ele>
        <time>2020-05-21T00:54:20Z</time>
      </trkpt>
      <trkpt lat="43.318890" lon="-4.873400">
        <ele>248.418</ele>
        <time>2020-05-21T00:54:40Z</time>
      </trkpt>
      <trkpt lat="43.319120" lon="-4.873410">
        <ele>248.208</ele>
        <time>2020-05-21T00:55:00Z</time>
      </trkpt>
      <trkpt lat="43.319320" lon="-4.873400">
        <ele>250.647</ele>
        <time>2020-05-21T00:55:20Z</time>
      </trkpt>
      <trkpt lat="43.319510" lon="-4.873400">
        <ele>251.862</ele>
        <time>2020-05-21T00:55:40Z</time>
      </trkpt>
      <trkpt lat="43.319720" lon="-4.873400">
        <ele>251.668</ele>
        <time>2020-05-21T00:56:00Z</time>
      </trkpt>
      <trkpt lat="43.319930" lon="-4.873380">
        <ele>252.451</ele>
        <time>2020-05-21T00:56:20Z</time>
      </trkpt>
      <trkpt lat="43.320110" lon="-4.873350">
        <ele>253.211</ele>
        <time>2020-05-21T00:56:40Z</time>
      </trkpt>
      <trkpt lat="43.320370" lon="-4.873290">
        <ele>253.921</ele>
        <time>2020-05-21T00:57:00Z</time>
      </trkpt>
      <trkpt lat="43.320390" lon="-4.873280">
        <ele>254.131</ele>
        <time>2020-05-21T00:57:20Z</time>
      </trkpt>
      <trkpt lat="43.320540" lon="-4.873210">
        <ele>254.210</ele>
        <time>2020-05-21T00:57:40Z</time>
      </trkpt>
      <trkpt lat="43.320730" lon="-4.873070">
        <ele>257.047</ele>
        <time>2020-05-21T00:58:00Z</time>
      </trkpt>
      <trkpt lat="43.320810" lon="-4.873030">
        <ele>258.129</ele>
        <time>2020-05-21T00:58:20Z</time>
      </trkpt>
      <trkpt lat="43.320880" lon="-4.873020">
        <ele>258.521</ele>
        <time>2020-05-21T00:58:40Z</time>
      </trkpt>
      <trkpt lat="43.320950" lon="-4.873020">
        <ele>258.508</ele>
        <time>2020-05-21T00:59:00Z</time>
      </trkpt>
      <trkpt lat="43.321010" lon="-4.873040">
        <ele>257.568</ele>
        <time>2020-05-21T00:59:20Z</time>
      </trkpt>
      <trkpt lat="43.321050" lon="-4.873080">
        <ele>256.713</ele>
        <time>2020-05-21T00:59:40Z</time>
      </trkpt>
      <trkpt lat="43.321080" lon="-4.873110">
        <ele>256.959</ele>
        <time>2020-05-21T01:00:00Z</time>
      </trkpt>
      <trkpt lat="43.321110" lon="-4.873160">
        <ele>257.432</ele>
        <time>2020-05-21T01:00:20Z</time>
      </trkpt>
      <trkpt lat="43.321130" lon="-4.873200">
        <ele>257.972</ele>
        <time>2020-05-21T01:00:40Z</time>
      </trkpt>
      <trkpt lat="43.321150" lon="-4.873250">
        <ele>258.732</ele>
        <time>2020-05-21T01:01:00Z</time>
      </trkpt>
      <trkpt lat="43.321150" lon="-4.873290">
        <ele>259.082</ele>
        <time>2020-05-21T01:01:20Z</time>
      </trkpt>
      <trkpt lat="43.321160" lon="-4.873310">
        <ele>259.431</ele>
        <time>2020-05-21T01:01:40Z</time>
      </trkpt>
      <trkpt lat="43.321160" lon="-4.873370">
        <ele>260.562</ele>
        <time>2020-05-21T01:02:00Z</time>
      </trkpt>
      <trkpt lat="43.321160" lon="-4.873430">
        <ele>262.083</ele>
        <time>2020-05-21T01:02:20Z</time>
      </trkpt>
      <trkpt lat="43.321150" lon="-4.873500">
        <ele>263.411</ele>
        <time>2020-05-21T01:02:40Z</time>
      </trkpt>
      <trkpt lat="43.321130" lon="-4.873570">
        <ele>264.108</ele>
        <time>2020-05-21T01:03:00Z</time>
      </trkpt>
      <trkpt lat="43.321100" lon="-4.873620">
        <ele>264.270</ele>
        <time>2020-05-21T01:03:20Z</time>
      </trkpt>
      <trkpt lat="43.321070" lon="-4.873660">
        <ele>265.645</ele>
        <time>2020-05-21T01:03:40Z</time>
      </trkpt>
      <trkpt lat="43.321020" lon="-4.873720">
        <ele>266.911</ele>
        <time>2020-05-21T01:04:00Z</time>
      </trkpt>
      <trkpt lat="43.320970" lon="-4.873760">
        <ele>266.884</ele>
        <time>2020-05-21T01:04:20Z</time>
      </trkpt>
      <trkpt lat="43.320850" lon="-4.873860">
        <ele>265.094</ele>
        <time>2020-05-21T01:04:40Z</time>
      </trkpt>
      <trkpt lat="43.320640" lon="-4.874060">
        <ele>269.424</ele>
        <time>2020-05-21T01:05:00Z</time>
      </trkpt>
      <trkpt lat="43.320390" lon="-4.874270">
        <ele>272.254</ele>
        <time>2020-05-21T01:05:20Z</time>
      </trkpt>
      <trkpt lat="43.320110" lon="-4.874390">
        <ele>269.443</ele>
        <time>2020-05-21T01:05:40Z</time>
      </trkpt>
      <trkpt lat="43.319540" lon="-4.874670">
        <ele>273.216</ele>
        <time>2020-05-21T01:06:00Z</time>
      </trkpt>
      <trkpt lat="43.319510" lon="-4.874680">
        <ele>273.176</ele>
        <time>2020-05-21T01:06:20Z</time>
      </trkpt>
      <trkpt lat="43.319230" lon="-4.874810">
        <ele>275.813</ele>
        <time>2020-05-21T01:06:40Z</time>
      </trkpt>
      <trkpt lat="43.319020" lon="-4.874910">
        <ele>278.008</ele>
        <time>2020-05-21T01:07:00Z</time>
      </trkpt>
      <trkpt lat="43.318850" lon="-4.874950">
        <ele>278.485</ele>
        <time>2020-05-21T01:07:20Z</time>
      </trkpt>
      <trkpt lat="43.318790" lon="-4.874970">
        <ele>279.160</ele>
        <time>2020-05-21T01:07:40Z</time>
      </trkpt>
      <trkpt lat="43.318680" lon="-4.874970">
        <ele>279.216</ele>
        <time>2020-05-21T01:08:00Z</time>
      </trkpt>
      <trkpt lat="43.318570" lon="-4.874950">
        <ele>279.469</ele>
        <time>2020-05-21T01:08:20Z</time>
      </trkpt>
      <trkpt lat="43.318480" lon="-4.874910">
        <ele>279.639</ele>
        <time>2020-05-21T01:08:40Z</time>
      </trkpt>
      <trkpt lat="43.318400" lon="-4.874870">
        <ele>279.569</ele>
        <time>2020-05-21T01:09:00Z</time>
      </trkpt>
      <trkpt lat="43.318320" lon="-4.874830">
        <ele>279.039</ele>
        <time>2020-05-21T01:09:20Z</time>
      </trkpt>
      <trkpt lat="43.318220" lon="-4.874790">
        <ele>278.848</ele>
        <time>2020-05-21T01:09:40Z</time>
      </trkpt>
      <trkpt lat="43.318120" lon="-4.874780">
        <ele>279.525</ele>
        <time>2020-05-21T01:10:00Z</time>
      </trkpt>
      <trkpt lat="43.318020" lon="-4.874790">
        <ele>278.926</ele>
        <time>2020-05-21T01:10:20Z</time>
      </trkpt>
      <trkpt lat="43.317950" lon="-4.874840">
        <ele>277.408</ele>
        <time>2020-05-21T01:10:40Z</time>
      </trkpt>
      <trkpt lat="43.317910" lon="-4.874900">
        <ele>278.208</ele>
        <time>2020-05-21T01:11:00Z</time>
      </trkpt>
      <trkpt lat="43.317870" lon="-4.874970">
        <ele>279.656</ele>
        <time>2020-05-21T01:11:20Z</time>
      </trkpt>
      <trkpt lat="43.317860" lon="-4.875000">
        <ele>280.691</ele>
        <time>2020-05-21T01:11:40Z</time>
      </trkpt>
      <trkpt lat="43.317810" lon="-4.875120">
        <ele>285.017</ele>
        <time>2020-05-21T01:12:00Z</time>
      </trkpt>
      <trkpt lat="43.317760" lon="-4.875260">
        <ele>290.080</ele>
        <time>2020-05-21T01:12:20Z</time>
      </trkpt>
      <trkpt lat="43.317660" lon="-4.875420">
        <ele>292.520</ele>
        <time>2020-05-21T01:12:40Z</time>
      </trkpt>
      <trkpt lat="43.317570" lon="-4.875510">
        <ele>291.860</ele>
        <time>2020-05-21T01:13:00Z</time>
      </trkpt>
      <trkpt lat="43.317520" lon="-4.875550">
        <ele>290.940</ele>
        <time>2020-05-21T01:13:20Z</time>
      </trkpt>
      <trkpt lat="43.317350" lon="-4.875660">
        <ele>291.749</ele>
        <time>2020-05-21T01:13:40Z</time>
      </trkpt>
      <trkpt lat="43.317040" lon="-4.875880">
        <ele>295.158</ele>
        <time>2020-05-21T01:14:00Z</time>
      </trkpt>
      <trkpt lat="43.316870" lon="-4.875990">
        <ele>294.952</ele>
        <time>2020-05-21T01:14:20Z</time>
      </trkpt>
      <trkpt lat="43.316720" lon="-4.876100">
        <ele>295.417</ele>
        <time>2020-05-21T01:14:40Z</time>
      </trkpt>
      <trkpt lat="43.316550" lon="-4.876350">
        <ele>298.108</ele>
        <time>2020-05-21T01:15:00Z</time>
      </trkpt>
      <trkpt lat="43.316450" lon="-4.876600">
        <ele>301.129</ele>
        <time>2020-05-21T01:15:20Z</time>
      </trkpt>
      <trkpt lat="43.316330" lon="-4.876980">
        <ele>303.724</ele>
        <time>2020-05-21T01:15:40Z</time>
      </trkpt>
      <trkpt lat="43.316280" lon="-4.877170">
        <ele>304.910</ele>
        <time>2020-05-21T01:16:00Z</time>
      </trkpt>
      <trkpt lat="43.316200" lon="-4.877460">
        <ele>307.063</ele>
        <time>2020-05-21T01:16:20Z</time>
      </trkpt>
      <trkpt lat="43.316080" lon="-4.878020">
        <ele>309.623</ele>
        <time>2020-05-21T01:16:40Z</time>
      </trkpt>
      <trkpt lat="43.315940" lon="-4.878720">
        <ele>314.523</ele>
        <time>2020-05-21T01:17:00Z</time>
      </trkpt>
      <trkpt lat="43.315840" lon="-4.879050">
        <ele>315.363</ele>
        <time>2020-05-21T01:17:20Z</time>
      </trkpt>
      <trkpt lat="43.315800" lon="-4.879170">
        <ele>315.162</ele>
        <time>2020-05-21T01:17:40Z</time>
      </trkpt>
      <trkpt lat="43.315630" lon="-4.879610">
        <ele>315.356</ele>
        <time>2020-05-21T01:18:00Z</time>
      </trkpt>
      <trkpt lat="43.315550" lon="-4.879950">
        <ele>316.259</ele>
        <time>2020-05-21T01:18:20Z</time>
      </trkpt>
      <trkpt lat="43.315520" lon="-4.880110">
        <ele>314.714</ele>
        <time>2020-05-21T01:18:40Z</time>
      </trkpt>
      <trkpt lat="43.315520" lon="-4.880190">
        <ele>315.608</ele>
        <time>2020-05-21T01:19:00Z</time>
      </trkpt>
      <trkpt lat="43.315510" lon="-4.880300">
        <ele>315.059</ele>
        <time>2020-05-21T01:19:20Z</time>
      </trkpt>
      <trkpt lat="43.315510" lon="-4.880510">
        <ele>315.424</ele>
        <time>2020-05-21T01:19:40Z</time>
      </trkpt>
      <trkpt lat="43.315530" lon="-4.880670">
        <ele>318.570</ele>
        <time>2020-05-21T01:20:00Z</time>
      </trkpt>
      <trkpt lat="43.315590" lon="-4.881140">
        <ele>324.373</ele>
        <time>2020-05-21T01:20:20Z</time>
      </trkpt>
      <trkpt lat="43.315630" lon="-4.881420">
        <ele>326.393</ele>
        <time>2020-05-21T01:20:40Z</time>
      </trkpt>
      <trkpt lat="43.315650" lon="-4.881570">
        <ele>328.553</ele>
        <time>2020-05-21T01:21:00Z</time>
      </trkpt>
      <trkpt lat="43.315640" lon="-4.881660">
        <ele>327.593</ele>
        <time>2020-05-21T01:21:20Z</time>
      </trkpt>
      <trkpt lat="43.315630" lon="-4.882140">
        <ele>331.092</ele>
        <time>2020-05-21T01:21:40Z</time>
      </trkpt>
      <trkpt lat="43.315650" lon="-4.882970">
        <ele>330.963</ele>
        <time>2020-05-21T01:22:00Z</time>
      </trkpt>
      <trkpt lat="43.315680" lon="-4.883270">
        <ele>332.044</ele>
        <time>2020-05-21T01:22:20Z</time>
      </trkpt>
      <trkpt lat="43.315750" lon="-4.883590">
        <ele>335.518</ele>
        <time>2020-05-21T01:22:40Z</time>
      </trkpt>
      <trkpt lat="43.315930" lon="-4.884120">
        <ele>341.208</ele>
        <time>2020-05-21T01:23:00Z</time>
      </trkpt>
      <trkpt lat="43.316000" lon="-4.884280">
        <ele>345.140</ele>
        <time>2020-05-21T01:23:20Z</time>
      </trkpt>
      <trkpt lat="43.316090" lon="-4.884490">
        <ele>348.745</ele>
        <time>2020-05-21T01:23:40Z</time>
      </trkpt>
      <trkpt lat="43.316130" lon="-4.884590">
        <ele>348.981</ele>
        <time>2020-05-21T01:24:00Z</time>
      </trkpt>
      <trkpt lat="43.316210" lon="-4.884790">
        <ele>352.274</ele>
        <time>2020-05-21T01:24:20Z</time>
      </trkpt>
      <trkpt lat="43.316250" lon="-4.885020">
        <ele>352.784</ele>
        <time>2020-05-21T01:24:40Z</time>
      </trkpt>
      <trkpt lat="43.316320" lon="-4.885420">
        <ele>354.494</ele>
        <time>2020-05-21T01:25:00Z</time>
      </trkpt>
      <trkpt lat="43.316350" lon="-4.885620">
        <ele>352.914</ele>
        <time>2020-05-21T01:25:20Z</time>
      </trkpt>
      <trkpt lat="43.316480" lon="-4.886130">
        <ele>349.873</ele>
        <time>2020-05-21T01:25:40Z</time>
      </trkpt>
      <trkpt lat="43.316510" lon="-4.886210">
        <ele>349.887</ele>
        <time>2020-05-21T01:26:00Z</time>
      </trkpt>
      <trkpt lat="43.316600" lon="-4.886520">
        <ele>351.042</ele>
        <time>2020-05-21T01:26:20Z</time>
      </trkpt>
      <trkpt lat="43.316650" lon="-4.887090">
        <ele>353.626</ele>
        <time>2020-05-21T01:26:40Z</time>
      </trkpt>
      <trkpt lat="43.316650" lon="-4.887100">
        <ele>353.608</ele>
        <time>2020-05-21T01:27:00Z</time>
      </trkpt>
      <trkpt lat="43.316680" lon="-4.887570">
        <ele>354.892</ele>
        <time>2020-05-21T01:27:20Z</time>
      </trkpt>
      <trkpt lat="43.316690" lon="-4.887670">
        <ele>355.817</ele>
        <time>2020-05-21T01:27:40Z</time>
      </trkpt>
      <trkpt lat="43.316710" lon="-4.887820">
        <ele>358.073</ele>
        <time>2020-05-21T01:28:00Z</time>
      </trkpt>
      <trkpt lat="43.316760" lon="-4.888310">
        <ele>362.116</ele>
        <time>2020-05-21T01:28:20Z</time>
      </trkpt>
      <trkpt lat="43.316760" lon="-4.888320">
        <ele>362.136</ele>
        <time>2020-05-21T01:28:40Z</time>
      </trkpt>
      <trkpt lat="43.316840" lon="-4.888530">
        <ele>362.686</ele>
        <time>2020-05-21T01:29:00Z</time>
      </trkpt>
      <trkpt lat="43.316880" lon="-4.888660">
        <ele>362.136</ele>
        <time>2020-05-21T01:29:20Z</time>
      </trkpt>
      <trkpt lat="43.317030" lon="-4.888880">
        <ele>366.255</ele>
        <time>2020-05-21T01:29:40Z</time>
      </trkpt>
      <trkpt lat="43.317190" lon="-4.889100">
        <ele>368.797</ele>
        <time>2020-05-21T01:30:00Z</time>
      </trkpt>
      <trkpt lat="43.317240" lon="-4.889170">
        <ele>371.223</ele>
        <time>2020-05-21T01:30:20Z</time>
      </trkpt>
      <trkpt lat="43.317320" lon="-4.889250">
        <ele>375.625</ele>
        <time>2020-05-21T01:30:40Z</time>
      </trkpt>
      <trkpt lat="43.317460" lon="-4.889420">
        <ele>381.308</ele>
        <time>2020-05-21T01:31:00Z</time>
      </trkpt>
      <trkpt lat="43.317520" lon="-4.889490">
        <ele>382.453</ele>
        <time>2020-05-21T01:31:20Z</time>
      </trkpt>
      <trkpt lat="43.317750" lon="-4.889890">
        <ele>380.478</ele>
        <time>2020-05-21T01:31:40Z</time>
      </trkpt>
      <trkpt lat="43.317870" lon="-4.890230">
        <ele>378.154</ele>
        <time>2020-05-21T01:32:00Z</time>
      </trkpt>
      <trkpt lat="43.317940" lon="-4.890440">
        <ele>379.517</ele>
        <time>2020-05-21T01:32:20Z</time>
      </trkpt>
      <trkpt lat="43.317980" lon="-4.890560">
        <ele>378.957</ele>
        <time>2020-05-21T01:32:40Z</time>
      </trkpt>
      <trkpt lat="43.318010" lon="-4.890670">
        <ele>378.847</ele>
        <time>2020-05-21T01:33:00Z</time>
      </trkpt>
      <trkpt lat="43.318080" lon="-4.890890">
        <ele>378.437</ele>
        <time>2020-05-21T01:33:20Z</time>
      </trkpt>
      <trkpt lat="43.318090" lon="-4.890910">
        <ele>378.666</ele>
        <time>2020-05-21T01:33:40Z</time>
      </trkpt>
      <trkpt lat="43.318150" lon="-4.891120">
        <ele>378.079</ele>
        <time>2020-05-21T01:34:00Z</time>
      </trkpt>
      <trkpt lat="43.318340" lon="-4.891750">
        <ele>377.905</ele>
        <time>2020-05-21T01:34:20Z</time>
      </trkpt>
      <trkpt lat="43.318410" lon="-4.891980">
        <ele>379.225</ele>
        <time>2020-05-21T01:34:40Z</time>
      </trkpt>
      <trkpt lat="43.318430" lon="-4.892030">
        <ele>379.808</ele>
        <time>2020-05-21T01:35:00Z</time>
      </trkpt>
      <trkpt lat="43.318580" lon="-4.892480">
        <ele>383.141</ele>
        <time>2020-05-21T01:35:20Z</time>
      </trkpt>
      <trkpt lat="43.318650" lon="-4.892710">
        <ele>384.116</ele>
        <time>2020-05-21T01:35:40Z</time>
      </trkpt>
      <trkpt lat="43.318800" lon="-4.893150">
        <ele>386.112</ele>
        <time>2020-05-21T01:36:00Z</time>
      </trkpt>
      <trkpt lat="43.318860" lon="-4.893350">
        <ele>387.195</ele>
        <time>2020-05-21T01:36:20Z</time>
      </trkpt>
      <trkpt lat="43.318900" lon="-4.893520">
        <ele>388.355</ele>
        <time>2020-05-21T01:36:40Z</time>
      </trkpt>
      <trkpt lat="43.318930" lon="-4.893720">
        <ele>389.355</ele>
        <time>2020-05-21T01:37:00Z</time>
      </trkpt>
      <trkpt lat="43.318960" lon="-4.894100">
        <ele>391.635</ele>
        <time>2020-05-21T01:37:20Z</time>
      </trkpt>
      <trkpt lat="43.319000" lon="-4.894370">
        <ele>394.434</ele>
        <time>2020-05-21T01:37:40Z</time>
      </trkpt>
      <trkpt lat="43.319040" lon="-4.894570">
        <ele>395.475</ele>
        <time>2020-05-21T01:38:00Z</time>
      </trkpt>
      <trkpt lat="43.319120" lon="-4.894820">
        <ele>396.328</ele>
        <time>2020-05-21T01:38:20Z</time>
      </trkpt>
      <trkpt lat="43.319230" lon="-4.895080">
        <ele>397.620</ele>
        <time>2020-05-21T01:38:40Z</time>
      </trkpt>
      <trkpt lat="43.319420" lon="-4.895470">
        <ele>399.908</ele>
        <time>2020-05-21T01:39:00Z</time>
      </trkpt>
      <trkpt lat="43.319510" lon="-4.895650">
        <ele>401.891</ele>
        <time>2020-05-21T01:39:20Z</time>
      </trkpt>
      <trkpt lat="43.319580" lon="-4.895790">
        <ele>403.376</ele>
        <time>2020-05-21T01:39:40Z</time>
      </trkpt>
      <trkpt lat="43.319670" lon="-4.896030">
        <ele>404.752</ele>
        <time>2020-05-21T01:40:00Z</time>
      </trkpt>
      <trkpt lat="43.319730" lon="-4.896210">
        <ele>406.365</ele>
        <time>2020-05-21T01:40:20Z</time>
      </trkpt>
      <trkpt lat="43.319760" lon="-4.896370">
        <ele>407.555</ele>
        <time>2020-05-21T01:40:40Z</time>
      </trkpt>
      <trkpt lat="43.319780" lon="-4.896510">
        <ele>408.395</ele>
        <time>2020-05-21T01:41:00Z</time>
      </trkpt>
      <trkpt lat="43.319790" lon="-4.896690">
        <ele>408.895</ele>
        <time>2020-05-21T01:41:20Z</time>
      </trkpt>
      <trkpt lat="43.319800" lon="-4.896890">
        <ele>410.034</ele>
        <time>2020-05-21T01:41:40Z</time>
      </trkpt>
      <trkpt lat="43.319780" lon="-4.897050">
        <ele>410.464</ele>
        <time>2020-05-21T01:42:00Z</time>
      </trkpt>
      <trkpt lat="43.319750" lon="-4.897200">
        <ele>410.606</ele>
        <time>2020-05-21T01:42:20Z</time>
      </trkpt>
      <trkpt lat="43.319720" lon="-4.897350">
        <ele>411.316</ele>
        <time>2020-05-21T01:42:40Z</time>
      </trkpt>
      <trkpt lat="43.319680" lon="-4.897520">
        <ele>412.208</ele>
        <time>2020-05-21T01:43:00Z</time>
      </trkpt>
      <trkpt lat="43.319650" lon="-4.897640">
        <ele>412.780</ele>
        <time>2020-05-21T01:43:20Z</time>
      </trkpt>
      <trkpt lat="43.319610" lon="-4.897780">
        <ele>413.225</ele>
        <time>2020-05-21T01:43:40Z</time>
      </trkpt>
      <trkpt lat="43.319570" lon="-4.898000">
        <ele>416.021</ele>
        <time>2020-05-21T01:44:00Z</time>
      </trkpt>
      <trkpt lat="43.319560" lon="-4.898200">
        <ele>417.814</ele>
        <time>2020-05-21T01:44:20Z</time>
      </trkpt>
      <trkpt lat="43.319550" lon="-4.898480">
        <ele>418.614</ele>
        <time>2020-05-21T01:44:40Z</time>
      </trkpt>
      <trkpt lat="43.319540" lon="-4.898900">
        <ele>420.994</ele>
        <time>2020-05-21T01:45:00Z</time>
      </trkpt>
      <trkpt lat="43.319540" lon="-4.899220">
        <ele>423.274</ele>
        <time>2020-05-21T01:45:20Z</time>
      </trkpt>
      <trkpt lat="43.319510" lon="-4.899410">
        <ele>423.573</ele>
        <time>2020-05-21T01:45:40Z</time>
      </trkpt>
      <trkpt lat="43.319490" lon="-4.899580">
        <ele>425.147</ele>
        <time>2020-05-21T01:46:00Z</time>
      </trkpt>
      <trkpt lat="43.319460" lon="-4.899740">
        <ele>426.229</ele>
        <time>2020-05-21T01:46:20Z</time>
      </trkpt>
      <trkpt lat="43.319430" lon="-4.899910">
        <ele>426.121</ele>
        <time>2020-05-21T01:46:40Z</time>
      </trkpt>
      <trkpt lat="43.319410" lon="-4.900110">
        <ele>426.708</ele>
        <time>2020-05-21T01:47:00Z</time>
      </trkpt>
      <trkpt lat="43.319420" lon="-4.900230">
        <ele>427.968</ele>
        <time>2020-05-21T01:47:20Z</time>
      </trkpt>
      <trkpt lat="43.319430" lon="-4.900240">
        <ele>428.353</ele>
        <time>2020-05-21T01:47:40Z</time>
      </trkpt>
      <trkpt lat="43.319450" lon="-4.900380">
        <ele>428.519</ele>
        <time>2020-05-21T01:48:00Z</time>
      </trkpt>
      <trkpt lat="43.319480" lon="-4.900500">
        <ele>428.812</ele>
        <time>2020-05-21T01:48:20Z</time>
      </trkpt>
      <trkpt lat="43.319530" lon="-4.900610">
        <ele>429.842</ele>
        <time>2020-05-21T01:48:40Z</time>
      </trkpt>
      <trkpt lat="43.319600" lon="-4.900720">
        <ele>430.572</ele>
        <time>2020-05-21T01:49:00Z</time>
      </trkpt>
      <trkpt lat="43.319660" lon="-4.900800">
        <ele>430.222</ele>
        <time>2020-05-21T01:49:20Z</time>
      </trkpt>
      <trkpt lat="43.319750" lon="-4.900900">
        <ele>430.131</ele>
        <time>2020-05-21T01:49:40Z</time>
      </trkpt>
      <trkpt lat="43.319860" lon="-4.900960">
        <ele>431.132</ele>
        <time>2020-05-21T01:50:00Z</time>
      </trkpt>
      <trkpt lat="43.319880" lon="-4.900980">
        <ele>431.192</ele>
        <time>2020-05-21T01:50:20Z</time>
      </trkpt>
      <trkpt lat="43.320010" lon="-4.901030">
        <ele>432.011</ele>
        <time>2020-05-21T01:50:40Z</time>
      </trkpt>
      <trkpt lat="43.320140" lon="-4.901050">
        <ele>433.108</ele>
        <time>2020-05-21T01:51:00Z</time>
      </trkpt>
      <trkpt lat="43.320190" lon="-4.901050">
        <ele>433.697</ele>
        <time>2020-05-21T01:51:20Z</time>
      </trkpt>
      <trkpt lat="43.320290" lon="-4.901050">
        <ele>434.532</ele>
        <time>2020-05-21T01:51:40Z</time>
      </trkpt>
      <trkpt lat="43.320440" lon="-4.901020">
        <ele>435.038</ele>
        <time>2020-05-21T01:52:00Z</time>
      </trkpt>
      <trkpt lat="43.320540" lon="-4.900990">
        <ele>435.431</ele>
        <time>2020-05-21T01:52:20Z</time>
      </trkpt>
      <trkpt lat="43.320610" lon="-4.900970">
        <ele>436.391</ele>
        <time>2020-05-21T01:52:40Z</time>
      </trkpt>
      <trkpt lat="43.320840" lon="-4.900850">
        <ele>436.531</ele>
        <time>2020-05-21T01:53:00Z</time>
      </trkpt>
      <trkpt lat="43.321010" lon="-4.900770">
        <ele>438.441</ele>
        <time>2020-05-21T01:53:20Z</time>
      </trkpt>
      <trkpt lat="43.321070" lon="-4.900750">
        <ele>438.820</ele>
        <time>2020-05-21T01:53:40Z</time>
      </trkpt>
      <trkpt lat="43.321160" lon="-4.900710">
        <ele>438.462</ele>
        <time>2020-05-21T01:54:00Z</time>
      </trkpt>
      <trkpt lat="43.321190" lon="-4.900700">
        <ele>438.283</ele>
        <time>2020-05-21T01:54:20Z</time>
      </trkpt>
      <trkpt lat="43.321240" lon="-4.900700">
        <ele>437.911</ele>
        <time>2020-05-21T01:54:40Z</time>
      </trkpt>
      <trkpt lat="43.321310" lon="-4.900680">
        <ele>437.208</ele>
        <time>2020-05-21T01:55:00Z</time>
      </trkpt>
      <trkpt lat="43.321470" lon="-4.900690">
        <ele>436.360</ele>
        <time>2020-05-21T01:55:20Z</time>
      </trkpt>
      <trkpt lat="43.321790" lon="-4.900730">
        <ele>433.495</ele>
        <time>2020-05-21T01:55:40Z</time>
      </trkpt>
      <trkpt lat="43.322260" lon="-4.900810">
        <ele>426.131</ele>
        <time>2020-05-21T01:56:00Z</time>
      </trkpt>
      <trkpt lat="43.322490" lon="-4.900850">
        <ele>423.654</ele>
        <time>2020-05-21T01:56:20Z</time>
      </trkpt>
      <trkpt lat="43.322670" lon="-4.900890">
        <ele>421.964</ele>
        <time>2020-05-21T01:56:40Z</time>
      </trkpt>
      <trkpt lat="43.322800" lon="-4.900910">
        <ele>421.294</ele>
        <time>2020-05-21T01:57:00Z</time>
      </trkpt>
      <trkpt lat="43.323030" lon="-4.900950">
        <ele>421.354</ele>
        <time>2020-05-21T01:57:20Z</time>
      </trkpt>
      <trkpt lat="43.323120" lon="-4.900970">
        <ele>421.323</ele>
        <time>2020-05-21T01:57:40Z</time>
      </trkpt>
      <trkpt lat="43.323150" lon="-4.900980">
        <ele>421.272</ele>
        <time>2020-05-21T01:58:00Z</time>
      </trkpt>
      <trkpt lat="43.323380" lon="-4.901030">
        <ele>421.813</ele>
        <time>2020-05-21T01:58:20Z</time>
      </trkpt>
      <trkpt lat="43.323600" lon="-4.901090">
        <ele>422.214</ele>
        <time>2020-05-21T01:58:40Z</time>
      </trkpt>
      <trkpt lat="43.324180" lon="-4.901310">
        <ele>420.308</ele>
        <time>2020-05-21T01:59:00Z</time>
      </trkpt>
      <trkpt lat="43.324250" lon="-4.901350">
        <ele>420.111</ele>
        <time>2020-05-21T01:59:20Z</time>
      </trkpt>
      <trkpt lat="43.324360" lon="-4.901400">
        <ele>419.966</ele>
        <time>2020-05-21T01:59:40Z</time>
      </trkpt>
      <trkpt lat="43.324480" lon="-4.901480">
        <ele>419.082</ele>
        <time>2020-05-21T02:00:00Z</time>
      </trkpt>
      <trkpt lat="43.324530" lon="-4.901510">
        <ele>419.135</ele>
        <time>2020-05-21T02:00:20Z</time>
      </trkpt>
      <trkpt lat="43.324830" lon="-4.901700">
        <ele>419.955</ele>
        <time>2020-05-21T02:00:40Z</time>
      </trkpt>
      <trkpt lat="43.324920" lon="-4.901760">
        <ele>419.895</ele>
        <time>2020-05-21T02:01:00Z</time>
      </trkpt>
      <trkpt lat="43.325180" lon="-4.901960">
        <ele>420.145</ele>
        <time>2020-05-21T02:01:20Z</time>
      </trkpt>
      <trkpt lat="43.325530" lon="-4.902240">
        <ele>420.574</ele>
        <time>2020-05-21T02:01:40Z</time>
      </trkpt>
      <trkpt lat="43.325610" lon="-4.902310">
        <ele>421.246</ele>
        <time>2020-05-21T02:02:00Z</time>
      </trkpt>
      <trkpt lat="43.326040" lon="-4.902670">
        <ele>420.188</ele>
        <time>2020-05-21T02:02:20Z</time>
      </trkpt>
      <trkpt lat="43.326180" lon="-4.902750">
        <ele>418.716</ele>
        <time>2020-05-21T02:02:40Z</time>
      </trkpt>
      <trkpt lat="43.326270" lon="-4.902790">
        <ele>418.508</ele>
        <time>2020-05-21T02:03:00Z</time>
      </trkpt>
      <trkpt lat="43.326460" lon="-4.902850">
        <ele>418.068</ele>
        <time>2020-05-21T02:03:20Z</time>
      </trkpt>
      <trkpt lat="43.326530" lon="-4.902870">
        <ele>417.693</ele>
        <time>2020-05-21T02:03:40Z</time>
      </trkpt>
      <trkpt lat="43.326820" lon="-4.902960">
        <ele>418.569</ele>
        <time>2020-05-21T02:04:00Z</time>
      </trkpt>
      <trkpt lat="43.326940" lon="-4.902990">
        <ele>419.172</ele>
        <time>2020-05-21T02:04:20Z</time>
      </trkpt>
      <trkpt lat="43.327760" lon="-4.903210">
        <ele>422.882</ele>
        <time>2020-05-21T02:04:40Z</time>
      </trkpt>
      <trkpt lat="43.327860" lon="-4.903220">
        <ele>423.342</ele>
        <time>2020-05-21T02:05:00Z</time>
      </trkpt>
      <trkpt lat="43.327980" lon="-4.903240">
        <ele>424.112</ele>
        <time>2020-05-21T02:05:20Z</time>
      </trkpt>
      <trkpt lat="43.328080" lon="-4.903240">
        <ele>424.491</ele>
        <time>2020-05-21T02:05:40Z</time>
      </trkpt>
      <trkpt lat="43.328210" lon="-4.903210">
        <ele>424.637</ele>
        <time>2020-05-21T02:06:00Z</time>
      </trkpt>
      <trkpt lat="43.328220" lon="-4.903210">
        <ele>424.649</ele>
        <time>2020-05-21T02:06:20Z</time>
      </trkpt>
      <trkpt lat="43.328370" lon="-4.903160">
        <ele>424.913</ele>
        <time>2020-05-21T02:06:40Z</time>
      </trkpt>
      <trkpt lat="43.328500" lon="-4.903100">
        <ele>425.108</ele>
        <time>2020-05-21T02:07:00Z</time>
      </trkpt>
      <trkpt lat="43.328680" lon="-4.903050">
        <ele>425.847</ele>
        <time>2020-05-21T02:07:20Z</time>
      </trkpt>
      <trkpt lat="43.328810" lon="-4.903020">
        <ele>425.792</ele>
        <time>2020-05-21T02:07:40Z</time>
      </trkpt>
      <trkpt lat="43.328920" lon="-4.903020">
        <ele>425.948</ele>
        <time>2020-05-21T02:08:00Z</time>
      </trkpt>
      <trkpt lat="43.329060" lon="-4.903040">
        <ele>427.131</ele>
        <time>2020-05-21T02:08:20Z</time>
      </trkpt>
      <trkpt lat="43.329250" lon="-4.903080">
        <ele>428.111</ele>
        <time>2020-05-21T02:08:40Z</time>
      </trkpt>
      <trkpt lat="43.329670" lon="-4.903200">
        <ele>430.541</ele>
        <time>2020-05-21T02:09:00Z</time>
      </trkpt>
      <trkpt lat="43.329720" lon="-4.903210">
        <ele>431.171</ele>
        <time>2020-05-21T02:09:20Z</time>
      </trkpt>
      <trkpt lat="43.330100" lon="-4.903310">
        <ele>432.920</ele>
        <time>2020-05-21T02:09:40Z</time>
      </trkpt>
      <trkpt lat="43.330960" lon="-4.903510">
        <ele>435.223</ele>
        <time>2020-05-21T02:10:00Z</time>
      </trkpt>
      <trkpt lat="43.331320" lon="-4.903550">
        <ele>435.183</ele>
        <time>2020-05-21T02:10:20Z</time>
      </trkpt>
      <trkpt lat="43.331660" lon="-4.903590">
        <ele>435.011</ele>
        <time>2020-05-21T02:10:40Z</time>
      </trkpt>
      <trkpt lat="43.332010" lon="-4.903660">
        <ele>435.108</ele>
        <time>2020-05-21T02:11:00Z</time>
      </trkpt>
      <trkpt lat="43.332220" lon="-4.903710">
        <ele>434.226</ele>
        <time>2020-05-21T02:11:20Z</time>
      </trkpt>
      <trkpt lat="43.332380" lon="-4.903720">
        <ele>432.941</ele>
        <time>2020-05-21T02:11:40Z</time>
      </trkpt>
      <trkpt lat="43.332480" lon="-4.903720">
        <ele>431.917</ele>
        <time>2020-05-21T02:12:00Z</time>
      </trkpt>
      <trkpt lat="43.332600" lon="-4.903720">
        <ele>430.980</ele>
        <time>2020-05-21T02:12:20Z</time>
      </trkpt>
      <trkpt lat="43.332710" lon="-4.903750">
        <ele>430.690</ele>
        <time>2020-05-21T02:12:40Z</time>
      </trkpt>
      <trkpt lat="43.332810" lon="-4.903780">
        <ele>430.080</ele>
        <time>2020-05-21T02:13:00Z</time>
      </trkpt>
      <trkpt lat="43.332900" lon="-4.903840">
        <ele>429.410</ele>
        <time>2020-05-21T02:13:20Z</time>
      </trkpt>
      <trkpt lat="43.332980" lon="-4.903910">
        <ele>428.839</ele>
        <time>2020-05-21T02:13:40Z</time>
      </trkpt>
      <trkpt lat="43.333030" lon="-4.903970">
        <ele>428.127</ele>
        <time>2020-05-21T02:14:00Z</time>
      </trkpt>
      <trkpt lat="43.333080" lon="-4.904040">
        <ele>427.468</ele>
        <time>2020-05-21T02:14:20Z</time>
      </trkpt>
      <trkpt lat="43.333140" lon="-4.904110">
        <ele>426.514</ele>
        <time>2020-05-21T02:14:40Z</time>
      </trkpt>
      <trkpt lat="43.333210" lon="-4.904210">
        <ele>426.308</ele>
        <time>2020-05-21T02:15:00Z</time>
      </trkpt>
      <trkpt lat="43.333270" lon="-4.904300">
        <ele>426.386</ele>
        <time>2020-05-21T02:15:20Z</time>
      </trkpt>
      <trkpt lat="43.333730" lon="-4.904960">
        <ele>421.961</ele>
        <time>2020-05-21T02:15:40Z</time>
      </trkpt>
      <trkpt lat="43.333860" lon="-4.905140">
        <ele>421.437</ele>
        <time>2020-05-21T02:16:00Z</time>
      </trkpt>
      <trkpt lat="43.333870" lon="-4.905150">
        <ele>421.450</ele>
        <time>2020-05-21T02:16:20Z</time>
      </trkpt>
      <trkpt lat="43.333950" lon="-4.905280">
        <ele>418.610</ele>
        <time>2020-05-21T02:16:40Z</time>
      </trkpt>
      <trkpt lat="43.333990" lon="-4.905350">
        <ele>418.320</ele>
        <time>2020-05-21T02:17:00Z</time>
      </trkpt>
      <trkpt lat="43.334100" lon="-4.905570">
        <ele>420.540</ele>
        <time>2020-05-21T02:17:20Z</time>
      </trkpt>
      <trkpt lat="43.334210" lon="-4.905770">
        <ele>421.979</ele>
        <time>2020-05-21T02:17:40Z</time>
      </trkpt>
      <trkpt lat="43.334270" lon="-4.905880">
        <ele>422.982</ele>
        <time>2020-05-21T02:18:00Z</time>
      </trkpt>
      <trkpt lat="43.334370" lon="-4.906050">
        <ele>424.043</ele>
        <time>2020-05-21T02:18:20Z</time>
      </trkpt>
      <trkpt lat="43.334480" lon="-4.906160">
        <ele>422.717</ele>
        <time>2020-05-21T02:18:40Z</time>
      </trkpt>
      <trkpt lat="43.334570" lon="-4.906250">
        <ele>423.308</ele>
        <time>2020-05-21T02:19:00Z</time>
      </trkpt>
      <trkpt lat="43.334720" lon="-4.906330">
        <ele>421.872</ele>
        <time>2020-05-21T02:19:20Z</time>
      </trkpt>
      <trkpt lat="43.334860" lon="-4.906420">
        <ele>422.717</ele>
        <time>2020-05-21T02:19:40Z</time>
      </trkpt>
      <trkpt lat="43.334960" lon="-4.906480">
        <ele>422.613</ele>
        <time>2020-05-21T02:20:00Z</time>
      </trkpt>
      <trkpt lat="43.335080" lon="-4.906570">
        <ele>421.766</ele>
        <time>2020-05-21T02:20:20Z</time>
      </trkpt>
      <trkpt lat="43.335230" lon="-4.906720">
        <ele>421.166</ele>
        <time>2020-05-21T02:20:40Z</time>
      </trkpt>
      <trkpt lat="43.335310" lon="-4.906830">
        <ele>420.036</ele>
        <time>2020-05-21T02:21:00Z</time>
      </trkpt>
      <trkpt lat="43.335400" lon="-4.906980">
        <ele>419.466</ele>
        <time>2020-05-21T02:21:20Z</time>
      </trkpt>
      <trkpt lat="43.335470" lon="-4.907130">
        <ele>419.175</ele>
        <time>2020-05-21T02:21:40Z</time>
      </trkpt>
      <trkpt lat="43.335590" lon="-4.907480">
        <ele>417.512</ele>
        <time>2020-05-21T02:22:00Z</time>
      </trkpt>
      <trkpt lat="43.335620" lon="-4.907600">
        <ele>416.732</ele>
        <time>2020-05-21T02:22:20Z</time>
      </trkpt>
      <trkpt lat="43.335710" lon="-4.907880">
        <ele>414.805</ele>
        <time>2020-05-21T02:22:40Z</time>
      </trkpt>
      <trkpt lat="43.336100" lon="-4.909260">
        <ele>410.708</ele>
        <time>2020-05-21T02:23:00Z</time>
      </trkpt>
      <trkpt lat="43.336110" lon="-4.909320">
        <ele>410.665</ele>
        <time>2020-05-21T02:23:20Z</time>
      </trkpt>
      <trkpt lat="43.336190" lon="-4.909630">
        <ele>409.060</ele>
        <time>2020-05-21T02:23:40Z</time>
      </trkpt>
      <trkpt lat="43.336240" lon="-4.909990">
        <ele>407.816</ele>
        <time>2020-05-21T02:24:00Z</time>
      </trkpt>
      <trkpt lat="43.336250" lon="-4.910280">
        <ele>408.049</ele>
        <time>2020-05-21T02:24:20Z</time>
      </trkpt>
      <trkpt lat="43.336260" lon="-4.910590">
        <ele>407.149</ele>
        <time>2020-05-21T02:24:40Z</time>
      </trkpt>
      <trkpt lat="43.336260" lon="-4.910940">
        <ele>405.669</ele>
        <time>2020-05-21T02:25:00Z</time>
      </trkpt>
      <trkpt lat="43.336280" lon="-4.911320">
        <ele>402.849</ele>
        <time>2020-05-21T02:25:20Z</time>
      </trkpt>
      <trkpt lat="43.336320" lon="-4.911630">
        <ele>401.548</ele>
        <time>2020-05-21T02:25:40Z</time>
      </trkpt>
      <trkpt lat="43.336360" lon="-4.911860">
        <ele>401.426</ele>
        <time>2020-05-21T02:26:00Z</time>
      </trkpt>
      <trkpt lat="43.336410" lon="-4.912020">
        <ele>401.047</ele>
        <time>2020-05-21T02:26:20Z</time>
      </trkpt>
      <trkpt lat="43.336460" lon="-4.912160">
        <ele>401.011</ele>
        <time>2020-05-21T02:26:40Z</time>
      </trkpt>
      <trkpt lat="43.336480" lon="-4.912200">
        <ele>400.908</ele>
        <time>2020-05-21T02:27:00Z</time>
      </trkpt>
      <trkpt lat="43.336560" lon="-4.912390">
        <ele>400.596</ele>
        <time>2020-05-21T02:27:20Z</time>
      </trkpt>
      <trkpt lat="43.336620" lon="-4.912490">
        <ele>399.261</ele>
        <time>2020-05-21T02:27:40Z</time>
      </trkpt>
      <trkpt lat="43.336660" lon="-4.912550">
        <ele>398.517</ele>
        <time>2020-05-21T02:28:00Z</time>
      </trkpt>
      <trkpt lat="43.336780" lon="-4.912710">
        <ele>397.020</ele>
        <time>2020-05-21T02:28:20Z</time>
      </trkpt>
      <trkpt lat="43.336890" lon="-4.912850">
        <ele>396.090</ele>
        <time>2020-05-21T02:28:40Z</time>
      </trkpt>
      <trkpt lat="43.337030" lon="-4.912970">
        <ele>394.580</ele>
        <time>2020-05-21T02:29:00Z</time>
      </trkpt>
      <trkpt lat="43.337160" lon="-4.913060">
        <ele>393.940</ele>
        <time>2020-05-21T02:29:20Z</time>
      </trkpt>
      <trkpt lat="43.337170" lon="-4.913080">
        <ele>393.969</ele>
        <time>2020-05-21T02:29:40Z</time>
      </trkpt>
      <trkpt lat="43.337190" lon="-4.913090">
        <ele>393.777</ele>
        <time>2020-05-21T02:30:00Z</time>
      </trkpt>
      <trkpt lat="43.337440" lon="-4.913260">
        <ele>392.161</ele>
        <time>2020-05-21T02:30:20Z</time>
      </trkpt>
      <trkpt lat="43.337670" lon="-4.913440">
        <ele>393.527</ele>
        <time>2020-05-21T02:30:40Z</time>
      </trkpt>
      <trkpt lat="43.337810" lon="-4.913590">
        <ele>391.908</ele>
        <time>2020-05-21T02:31:00Z</time>
      </trkpt>
      <trkpt lat="43.337920" lon="-4.913740">
        <ele>391.711</ele>
        <time>2020-05-21T02:31:20Z</time>
      </trkpt>
      <trkpt lat="43.337960" lon="-4.913810">
        <ele>391.696</ele>
        <time>2020-05-21T02:31:40Z</time>
      </trkpt>
      <trkpt lat="43.338000" lon="-4.913890">
        <ele>391.432</ele>
        <time>2020-05-21T02:32:00Z</time>
      </trkpt>
      <trkpt lat="43.338070" lon="-4.914120">
        <ele>389.575</ele>
        <time>2020-05-21T02:32:20Z</time>
      </trkpt>
      <trkpt lat="43.338080" lon="-4.914150">
        <ele>389.545</ele>
        <time>2020-05-21T02:32:40Z</time>
      </trkpt>
      <trkpt lat="43.338150" lon="-4.914240">
        <ele>389.615</ele>
        <time>2020-05-21T02:33:00Z</time>
      </trkpt>
      <trkpt lat="43.338150" lon="-4.914270">
        <ele>389.245</ele>
        <time>2020-05-21T02:33:20Z</time>
      </trkpt>
      <trkpt lat="43.338190" lon="-4.914450">
        <ele>387.914</ele>
        <time>2020-05-21T02:33:40Z</time>
      </trkpt>
      <trkpt lat="43.338189" lon="-4.914446">
        <ele>387.947</ele>
        <time>2020-05-21T02:34:00Z</time>
      </trkpt>
      <trkpt lat="43.338200" lon="-4.914450">
        <ele>388.029</ele>
        <time>2020-05-21T02:34:20Z</time>
      </trkpt>
      <trkpt lat="43.338210" lon="-4.914450">
        <ele>388.221</ele>
        <time>2020-05-21T02:34:40Z</time>
      </trkpt>
      <trkpt lat="43.338230" lon="-4.914460">
        <ele>388.408</ele>
        <time>2020-05-21T02:35:00Z</time>
      </trkpt>
      <trkpt lat="43.338240" lon="-4.914460">
        <ele>388.558</ele>
        <time>2020-05-21T02:35:20Z</time>
      </trkpt>
      <trkpt lat="43.338250" lon="-4.914470">
        <ele>388.613</ele>
        <time>2020-05-21T02:35:40Z</time>
      </trkpt>
      <trkpt lat="43.338260" lon="-4.914480">
        <ele>388.779</ele>
        <time>2020-05-21T02:36:00Z</time>
      </trkpt>
      <trkpt lat="43.338280" lon="-4.914490">
        <ele>388.872</ele>
        <time>2020-05-21T02:36:20Z</time>
      </trkpt>
      <trkpt lat="43.338290" lon="-4.914500">
        <ele>388.992</ele>
        <time>2020-05-21T02:36:40Z</time>
      </trkpt>
      <trkpt lat="43.338300" lon="-4.914520">
        <ele>388.812</ele>
        <time>2020-05-21T02:37:00Z</time>
      </trkpt>
      <trkpt lat="43.338310" lon="-4.914530">
        <ele>388.862</ele>
        <time>2020-05-21T02:37:20Z</time>
      </trkpt>
      <trkpt lat="43.338320" lon="-4.914540">
        <ele>388.891</ele>
        <time>2020-05-21T02:37:40Z</time>
      </trkpt>
      <trkpt lat="43.338320" lon="-4.914560">
        <ele>388.642</ele>
        <time>2020-05-21T02:38:00Z</time>
      </trkpt>
      <trkpt lat="43.338330" lon="-4.914580">
        <ele>388.522</ele>
        <time>2020-05-21T02:38:20Z</time>
      </trkpt>
      <trkpt lat="43.338340" lon="-4.914590">
        <ele>388.514</ele>
        <time>2020-05-21T02:38:40Z</time>
      </trkpt>
      <trkpt lat="43.338340" lon="-4.914610">
        <ele>388.208</ele>
        <time>2020-05-21T02:39:00Z</time>
      </trkpt>
      <trkpt lat="43.338350" lon="-4.914630">
        <ele>388.198</ele>
        <time>2020-05-21T02:39:20Z</time>
      </trkpt>
      <trkpt lat="43.338350" lon="-4.914640">
        <ele>387.963</ele>
        <time>2020-05-21T02:39:40Z</time>
      </trkpt>
      <trkpt lat="43.338350" lon="-4.914650">
        <ele>387.839</ele>
        <time>2020-05-21T02:40:00Z</time>
      </trkpt>
      <trkpt lat="43.338350" lon="-4.914660">
        <ele>387.742</ele>
        <time>2020-05-21T02:40:20Z</time>
      </trkpt>
      <trkpt lat="43.338350" lon="-4.914680">
        <ele>387.582</ele>
        <time>2020-05-21T02:40:40Z</time>
      </trkpt>
      <trkpt lat="43.338350" lon="-4.914700">
        <ele>387.332</ele>
        <time>2020-05-21T02:41:00Z</time>
      </trkpt>
      <trkpt lat="43.338350" lon="-4.914720">
        <ele>387.142</ele>
        <time>2020-05-21T02:41:20Z</time>
      </trkpt>
      <trkpt lat="43.338350" lon="-4.914740">
        <ele>387.141</ele>
        <time>2020-05-21T02:41:40Z</time>
      </trkpt>
      <trkpt lat="43.338350" lon="-4.914750">
        <ele>387.113</ele>
        <time>2020-05-21T02:42:00Z</time>
      </trkpt>
      <trkpt lat="43.338340" lon="-4.914770">
        <ele>387.043</ele>
        <time>2020-05-21T02:42:20Z</time>
      </trkpt>
      <trkpt lat="43.338340" lon="-4.914780">
        <ele>387.007</ele>
        <time>2020-05-21T02:42:40Z</time>
      </trkpt>
      <trkpt lat="43.338340" lon="-4.914790">
        <ele>387.008</ele>
        <time>2020-05-21T02:43:00Z</time>
      </trkpt>
      <trkpt lat="43.338330" lon="-4.914810">
        <ele>387.025</ele>
        <time>2020-05-21T02:43:20Z</time>
      </trkpt>
      <trkpt lat="43.338330" lon="-4.914820">
        <ele>387.040</ele>
        <time>2020-05-21T02:43:40Z</time>
      </trkpt>
      <trkpt lat="43.338320" lon="-4.914840">
        <ele>386.996</ele>
        <time>2020-05-21T02:44:00Z</time>
      </trkpt>
      <trkpt lat="43.338310" lon="-4.914850">
        <ele>386.849</ele>
        <time>2020-05-21T02:44:20Z</time>
      </trkpt>
      <trkpt lat="43.338300" lon="-4.914870">
        <ele>386.899</ele>
        <time>2020-05-21T02:44:40Z</time>
      </trkpt>
      <trkpt lat="43.338290" lon="-4.914880">
        <ele>386.759</ele>
        <time>2020-05-21T02:45:00Z</time>
      </trkpt>
      <trkpt lat="43.338280" lon="-4.914890">
        <ele>386.679</ele>
        <time>2020-05-21T02:45:20Z</time>
      </trkpt>
      <trkpt lat="43.338270" lon="-4.914900">
        <ele>386.548</ele>
        <time>2020-05-21T02:45:40Z</time>
      </trkpt>
      <trkpt lat="43.338250" lon="-4.914910">
        <ele>386.358</ele>
        <time>2020-05-21T02:46:00Z</time>
      </trkpt>
      <trkpt lat="43.338240" lon="-4.914920">
        <ele>386.252</ele>
        <time>2020-05-21T02:46:20Z</time>
      </trkpt>
      <trkpt lat="43.338230" lon="-4.914930">
        <ele>386.117</ele>
        <time>2020-05-21T02:46:40Z</time>
      </trkpt>
      <trkpt lat="43.338210" lon="-4.914930">
        <ele>385.908</ele>
        <time>2020-05-21T02:47:00Z</time>
      </trkpt>
      <trkpt lat="43.338200" lon="-4.914940">
        <ele>385.879</ele>
        <time>2020-05-21T02:47:20Z</time>
      </trkpt>
      <trkpt lat="43.338190" lon="-4.914940">
        <ele>385.774</ele>
        <time>2020-05-21T02:47:40Z</time>
      </trkpt>
      <trkpt lat="43.338170" lon="-4.914940">
        <ele>385.560</ele>
        <time>2020-05-21T02:48:00Z</time>
      </trkpt>
      <trkpt lat="43.338160" lon="-4.914940">
        <ele>385.443</ele>
        <time>2020-05-21T02:48:20Z</time>
      </trkpt>
      <trkpt lat="43.338150" lon="-4.914940">
        <ele>385.313</ele>
        <time>2020-05-21T02:48:40Z</time>
      </trkpt>
      <trkpt lat="43.338130" lon="-4.914940">
        <ele>385.123</ele>
        <time>2020-05-21T02:49:00Z</time>
      </trkpt>
      <trkpt lat="43.338080" lon="-4.915010">
        <ele>384.283</ele>
        <time>2020-05-21T02:49:20Z</time>
      </trkpt>
      <trkpt lat="43.338040" lon="-4.915080">
        <ele>383.132</ele>
        <time>2020-05-21T02:49:40Z</time>
      </trkpt>
      <trkpt lat="43.338030" lon="-4.915100">
        <ele>382.961</ele>
        <time>2020-05-21T02:50:00Z</time>
      </trkpt>
      <trkpt lat="43.337970" lon="-4.915110">
        <ele>382.621</ele>
        <time>2020-05-21T02:50:20Z</time>
      </trkpt>
      <trkpt lat="43.337920" lon="-4.915210">
        <ele>381.613</ele>
        <time>2020-05-21T02:50:40Z</time>
      </trkpt>
      <trkpt lat="43.337850" lon="-4.915380">
        <ele>380.108</ele>
        <time>2020-05-21T02:51:00Z</time>
      </trkpt>
      <trkpt lat="43.337800" lon="-4.915540">
        <ele>379.070</ele>
        <time>2020-05-21T02:51:20Z</time>
      </trkpt>
      <trkpt lat="43.337730" lon="-4.915770">
        <ele>378.345</ele>
        <time>2020-05-21T02:51:40Z</time>
      </trkpt>
      <trkpt lat="43.337660" lon="-4.916040">
        <ele>377.261</ele>
        <time>2020-05-21T02:52:00Z</time>
      </trkpt>
      <trkpt lat="43.337640" lon="-4.916120">
        <ele>376.964</ele>
        <time>2020-05-21T02:52:20Z</time>
      </trkpt>
      <trkpt lat="43.337580" lon="-4.916500">
        <ele>374.814</ele>
        <time>2020-05-21T02:52:40Z</time>
      </trkpt>
      <trkpt lat="43.337570" lon="-4.916750">
        <ele>373.844</ele>
        <time>2020-05-21T02:53:00Z</time>
      </trkpt>
      <trkpt lat="43.337570" lon="-4.916900">
        <ele>373.054</ele>
        <time>2020-05-21T02:53:20Z</time>
      </trkpt>
      <trkpt lat="43.337590" lon="-4.917170">
        <ele>371.373</ele>
        <time>2020-05-21T02:53:40Z</time>
      </trkpt>
      <trkpt lat="43.337600" lon="-4.917320">
        <ele>370.463</ele>
        <time>2020-05-21T02:54:00Z</time>
      </trkpt>
      <trkpt lat="43.337610" lon="-4.917530">
        <ele>369.244</ele>
        <time>2020-05-21T02:54:20Z</time>
      </trkpt>
      <trkpt lat="43.337610" lon="-4.917670">
        <ele>367.818</ele>
        <time>2020-05-21T02:54:40Z</time>
      </trkpt>
      <trkpt lat="43.337610" lon="-4.917780">
        <ele>366.808</ele>
        <time>2020-05-21T02:55:00Z</time>
      </trkpt>
      <trkpt lat="43.337590" lon="-4.917980">
        <ele>366.070</ele>
        <time>2020-05-21T02:55:20Z</time>
      </trkpt>
      <trkpt lat="43.337530" lon="-4.918320">
        <ele>364.375</ele>
        <time>2020-05-21T02:55:40Z</time>
      </trkpt>
      <trkpt lat="43.337490" lon="-4.918590">
        <ele>362.851</ele>
        <time>2020-05-21T02:56:00Z</time>
      </trkpt>
      <trkpt lat="43.337470" lon="-4.918860">
        <ele>362.174</ele>
        <time>2020-05-21T02:56:20Z</time>
      </trkpt>
      <trkpt lat="43.337460" lon="-4.919020">
        <ele>362.274</ele>
        <time>2020-05-21T02:56:40Z</time>
      </trkpt>
      <trkpt lat="43.337470" lon="-4.919210">
        <ele>360.924</ele>
        <time>2020-05-21T02:57:00Z</time>
      </trkpt>
      <trkpt lat="43.337490" lon="-4.919410">
        <ele>358.944</ele>
        <time>2020-05-21T02:57:20Z</time>
      </trkpt>
      <trkpt lat="43.337540" lon="-4.919690">
        <ele>356.843</ele>
        <time>2020-05-21T02:57:40Z</time>
      </trkpt>
      <trkpt lat="43.337560" lon="-4.919920">
        <ele>355.926</ele>
        <time>2020-05-21T02:58:00Z</time>
      </trkpt>
      <trkpt lat="43.337570" lon="-4.920110">
        <ele>355.147</ele>
        <time>2020-05-21T02:58:20Z</time>
      </trkpt>
      <trkpt lat="43.337580" lon="-4.920170">
        <ele>354.411</ele>
        <time>2020-05-21T02:58:40Z</time>
      </trkpt>
      <trkpt lat="43.337580" lon="-4.920360">
        <ele>353.608</ele>
        <time>2020-05-21T02:59:00Z</time>
      </trkpt>
      <trkpt lat="43.337580" lon="-4.920440">
        <ele>353.216</ele>
        <time>2020-05-21T02:59:20Z</time>
      </trkpt>
      <trkpt lat="43.337600" lon="-4.921360">
        <ele>348.761</ele>
        <time>2020-05-21T02:59:40Z</time>
      </trkpt>
      <trkpt lat="43.337610" lon="-4.921950">
        <ele>346.117</ele>
        <time>2020-05-21T03:00:00Z</time>
      </trkpt>
      <trkpt lat="43.337650" lon="-4.922300">
        <ele>345.190</ele>
        <time>2020-05-21T03:00:20Z</time>
      </trkpt>
      <trkpt lat="43.337710" lon="-4.922600">
        <ele>344.150</ele>
        <time>2020-05-21T03:00:40Z</time>
      </trkpt>
      <trkpt lat="43.337790" lon="-4.922850">
        <ele>341.110</ele>
        <time>2020-05-21T03:01:00Z</time>
      </trkpt>
      <trkpt lat="43.337910" lon="-4.923180">
        <ele>339.790</ele>
        <time>2020-05-21T03:01:20Z</time>
      </trkpt>
      <trkpt lat="43.338030" lon="-4.923540">
        <ele>335.889</ele>
        <time>2020-05-21T03:01:40Z</time>
      </trkpt>
      <trkpt lat="43.338040" lon="-4.923550">
        <ele>335.589</ele>
        <time>2020-05-21T03:02:00Z</time>
      </trkpt>
      <trkpt lat="43.338130" lon="-4.923750">
        <ele>333.006</ele>
        <time>2020-05-21T03:02:20Z</time>
      </trkpt>
      <trkpt lat="43.338150" lon="-4.923790">
        <ele>332.626</ele>
        <time>2020-05-21T03:02:40Z</time>
      </trkpt>
      <trkpt lat="43.338250" lon="-4.923970">
        <ele>331.308</ele>
        <time>2020-05-21T03:03:00Z</time>
      </trkpt>
      <trkpt lat="43.338390" lon="-4.924190">
        <ele>331.442</ele>
        <time>2020-05-21T03:03:20Z</time>
      </trkpt>
      <trkpt lat="43.338410" lon="-4.924220">
        <ele>331.217</ele>
        <time>2020-05-21T03:03:40Z</time>
      </trkpt>
      <trkpt lat="43.338530" lon="-4.924400">
        <ele>329.913</ele>
        <time>2020-05-21T03:04:00Z</time>
      </trkpt>
      <trkpt lat="43.338590" lon="-4.924510">
        <ele>329.576</ele>
        <time>2020-05-21T03:04:20Z</time>
      </trkpt>
      <trkpt lat="43.338660" lon="-4.924660">
        <ele>328.026</ele>
        <time>2020-05-21T03:04:40Z</time>
      </trkpt>
      <trkpt lat="43.338700" lon="-4.924790">
        <ele>327.146</ele>
        <time>2020-05-21T03:05:00Z</time>
      </trkpt>
      <trkpt lat="43.338740" lon="-4.924960">
        <ele>326.626</ele>
        <time>2020-05-21T03:05:20Z</time>
      </trkpt>
      <trkpt lat="43.338780" lon="-4.925160">
        <ele>325.855</ele>
        <time>2020-05-21T03:05:40Z</time>
      </trkpt>
      <trkpt lat="43.338830" lon="-4.925470">
        <ele>324.772</ele>
        <time>2020-05-21T03:06:00Z</time>
      </trkpt>
      <trkpt lat="43.338840" lon="-4.925610">
        <ele>324.213</ele>
        <time>2020-05-21T03:06:20Z</time>
      </trkpt>
      <trkpt lat="43.338850" lon="-4.925790">
        <ele>322.514</ele>
        <time>2020-05-21T03:06:40Z</time>
      </trkpt>
      <trkpt lat="43.338830" lon="-4.926010">
        <ele>321.508</ele>
        <time>2020-05-21T03:07:00Z</time>
      </trkpt>
      <trkpt lat="43.338830" lon="-4.926060">
        <ele>321.231</ele>
        <time>2020-05-21T03:07:20Z</time>
      </trkpt>
      <trkpt lat="43.338820" lon="-4.926170">
        <ele>320.536</ele>
        <time>2020-05-21T03:07:40Z</time>
      </trkpt>
      <trkpt lat="43.338810" lon="-4.926360">
        <ele>319.162</ele>
        <time>2020-05-21T03:08:00Z</time>
      </trkpt>
      <trkpt lat="43.338820" lon="-4.926570">
        <ele>317.915</ele>
        <time>2020-05-21T03:08:20Z</time>
      </trkpt>
      <trkpt lat="43.338860" lon="-4.926730">
        <ele>317.565</ele>
        <time>2020-05-21T03:08:40Z</time>
      </trkpt>
      <trkpt lat="43.338930" lon="-4.926900">
        <ele>317.015</ele>
        <time>2020-05-21T03:09:00Z</time>
      </trkpt>
      <trkpt lat="43.338990" lon="-4.927020">
        <ele>316.635</ele>
        <time>2020-05-21T03:09:20Z</time>
      </trkpt>
      <trkpt lat="43.339060" lon="-4.927120">
        <ele>315.854</ele>
        <time>2020-05-21T03:09:40Z</time>
      </trkpt>
      <trkpt lat="43.339070" lon="-4.927120">
        <ele>315.683</ele>
        <time>2020-05-21T03:10:00Z</time>
      </trkpt>
      <trkpt lat="43.339210" lon="-4.927290">
        <ele>314.225</ele>
        <time>2020-05-21T03:10:20Z</time>
      </trkpt>
      <trkpt lat="43.339340" lon="-4.927450">
        <ele>313.617</ele>
        <time>2020-05-21T03:10:40Z</time>
      </trkpt>
      <trkpt lat="43.339430" lon="-4.927590">
        <ele>312.608</ele>
        <time>2020-05-21T03:11:00Z</time>
      </trkpt>
      <trkpt lat="43.339490" lon="-4.927720">
        <ele>310.972</ele>
        <time>2020-05-21T03:11:20Z</time>
      </trkpt>
      <trkpt lat="43.339540" lon="-4.927860">
        <ele>309.427</ele>
        <time>2020-05-21T03:11:40Z</time>
      </trkpt>
      <trkpt lat="43.339590" lon="-4.928040">
        <ele>308.133</ele>
        <time>2020-05-21T03:12:00Z</time>
      </trkpt>
      <trkpt lat="43.339610" lon="-4.928170">
        <ele>307.336</ele>
        <time>2020-05-21T03:12:20Z</time>
      </trkpt>
      <trkpt lat="43.339620" lon="-4.928220">
        <ele>306.816</ele>
        <time>2020-05-21T03:12:40Z</time>
      </trkpt>
      <trkpt lat="43.339620" lon="-4.928410">
        <ele>306.636</ele>
        <time>2020-05-21T03:13:00Z</time>
      </trkpt>
      <trkpt lat="43.339620" lon="-4.928420">
        <ele>306.666</ele>
        <time>2020-05-21T03:13:20Z</time>
      </trkpt>
      <trkpt lat="43.339630" lon="-4.928900">
        <ele>303.985</ele>
        <time>2020-05-21T03:13:40Z</time>
      </trkpt>
      <trkpt lat="43.339630" lon="-4.928910">
        <ele>303.812</ele>
        <time>2020-05-21T03:14:00Z</time>
      </trkpt>
      <trkpt lat="43.339620" lon="-4.929160">
        <ele>302.432</ele>
        <time>2020-05-21T03:14:20Z</time>
      </trkpt>
      <trkpt lat="43.339610" lon="-4.929900">
        <ele>301.905</ele>
        <time>2020-05-21T03:14:40Z</time>
      </trkpt>
      <trkpt lat="43.339600" lon="-4.930200">
        <ele>301.508</ele>
        <time>2020-05-21T03:15:00Z</time>
      </trkpt>
      <trkpt lat="43.339570" lon="-4.930370">
        <ele>300.465</ele>
        <time>2020-05-21T03:15:20Z</time>
      </trkpt>
      <trkpt lat="43.339510" lon="-4.930520">
        <ele>299.540</ele>
        <time>2020-05-21T03:15:40Z</time>
      </trkpt>
      <trkpt lat="43.339480" lon="-4.930600">
        <ele>298.946</ele>
        <time>2020-05-21T03:16:00Z</time>
      </trkpt>
      <trkpt lat="43.339450" lon="-4.930660">
        <ele>299.299</ele>
        <time>2020-05-21T03:16:20Z</time>
      </trkpt>
      <trkpt lat="43.339320" lon="-4.930860">
        <ele>296.599</ele>
        <time>2020-05-21T03:16:40Z</time>
      </trkpt>
      <trkpt lat="43.339110" lon="-4.931120">
        <ele>295.749</ele>
        <time>2020-05-21T03:17:00Z</time>
      </trkpt>
      <trkpt lat="43.339100" lon="-4.931130">
        <ele>295.679</ele>
        <time>2020-05-21T03:17:20Z</time>
      </trkpt>
      <trkpt lat="43.338970" lon="-4.931250">
        <ele>294.678</ele>
        <time>2020-05-21T03:17:40Z</time>
      </trkpt>
      <trkpt lat="43.338810" lon="-4.931360">
        <ele>294.181</ele>
        <time>2020-05-21T03:18:00Z</time>
      </trkpt>
      <trkpt lat="43.338630" lon="-4.931460">
        <ele>292.661</ele>
        <time>2020-05-21T03:18:20Z</time>
      </trkpt>
      <trkpt lat="43.338450" lon="-4.931550">
        <ele>291.917</ele>
        <time>2020-05-21T03:18:40Z</time>
      </trkpt>
      <trkpt lat="43.338270" lon="-4.931720">
        <ele>289.008</ele>
        <time>2020-05-21T03:19:00Z</time>
      </trkpt>
      <trkpt lat="43.338160" lon="-4.931860">
        <ele>287.632</ele>
        <time>2020-05-21T03:19:20Z</time>
      </trkpt>
      <trkpt lat="43.338070" lon="-4.932010">
        <ele>287.167</ele>
        <time>2020-05-21T03:19:40Z</time>
      </trkpt>
      <trkpt lat="43.338020" lon="-4.932130">
        <ele>286.823</ele>
        <time>2020-05-21T03:20:00Z</time>
      </trkpt>
      <trkpt lat="43.337970" lon="-4.932310">
        <ele>286.656</ele>
        <time>2020-05-21T03:20:20Z</time>
      </trkpt>
      <trkpt lat="43.337950" lon="-4.932410">
        <ele>286.676</ele>
        <time>2020-05-21T03:20:40Z</time>
      </trkpt>
      <trkpt lat="43.337940" lon="-4.932440">
        <ele>286.726</ele>
        <time>2020-05-21T03:21:00Z</time>
      </trkpt>
      <trkpt lat="43.337930" lon="-4.932620">
        <ele>285.866</ele>
        <time>2020-05-21T03:21:20Z</time>
      </trkpt>
      <trkpt lat="43.337930" lon="-4.932830">
        <ele>284.535</ele>
        <time>2020-05-21T03:21:40Z</time>
      </trkpt>
      <trkpt lat="43.337950" lon="-4.932990">
        <ele>283.912</ele>
        <time>2020-05-21T03:22:00Z</time>
      </trkpt>
      <trkpt lat="43.337990" lon="-4.933250">
        <ele>282.632</ele>
        <time>2020-05-21T03:22:20Z</time>
      </trkpt>
      <trkpt lat="43.338000" lon="-4.933290">
        <ele>282.305</ele>
        <time>2020-05-21T03:22:40Z</time>
      </trkpt>
      <trkpt lat="43.338040" lon="-4.933530">
        <ele>280.908</ele>
        <time>2020-05-21T03:23:00Z</time>
      </trkpt>
      <trkpt lat="43.338060" lon="-4.933690">
        <ele>279.755</ele>
        <time>2020-05-21T03:23:20Z</time>
      </trkpt>
      <trkpt lat="43.338070" lon="-4.933840">
        <ele>279.120</ele>
        <time>2020-05-21T03:23:40Z</time>
      </trkpt>
      <trkpt lat="43.338070" lon="-4.933990">
        <ele>278.576</ele>
        <time>2020-05-21T03:24:00Z</time>
      </trkpt>
      <trkpt lat="43.338060" lon="-4.934160">
        <ele>278.049</ele>
        <time>2020-05-21T03:24:20Z</time>
      </trkpt>
      <trkpt lat="43.338040" lon="-4.934320">
        <ele>276.549</ele>
        <time>2020-05-21T03:24:40Z</time>
      </trkpt>
      <trkpt lat="43.338000" lon="-4.934470">
        <ele>275.849</ele>
        <time>2020-05-21T03:25:00Z</time>
      </trkpt>
      <trkpt lat="43.337940" lon="-4.934610">
        <ele>275.229</ele>
        <time>2020-05-21T03:25:20Z</time>
      </trkpt>
      <trkpt lat="43.337890" lon="-4.934750">
        <ele>274.128</ele>
        <time>2020-05-21T03:25:40Z</time>
      </trkpt>
      <trkpt lat="43.337840" lon="-4.934890">
        <ele>273.395</ele>
        <time>2020-05-21T03:26:00Z</time>
      </trkpt>
      <trkpt lat="43.337620" lon="-4.935300">
        <ele>271.449</ele>
        <time>2020-05-21T03:26:20Z</time>
      </trkpt>
      <trkpt lat="43.337600" lon="-4.935330">
        <ele>271.123</ele>
        <time>2020-05-21T03:26:40Z</time>
      </trkpt>
      <trkpt lat="43.337520" lon="-4.935530">
        <ele>268.108</ele>
        <time>2020-05-21T03:27:00Z</time>
      </trkpt>
      <trkpt lat="43.337390" lon="-4.935800">
        <ele>266.653</ele>
        <time>2020-05-21T03:27:20Z</time>
      </trkpt>
      <trkpt lat="43.337330" lon="-4.935930">
        <ele>266.318</ele>
        <time>2020-05-21T03:27:40Z</time>
      </trkpt>
      <trkpt lat="43.337290" lon="-4.936080">
        <ele>264.324</ele>
        <time>2020-05-21T03:28:00Z</time>
      </trkpt>
      <trkpt lat="43.337230" lon="-4.936210">
        <ele>264.367</ele>
        <time>2020-05-21T03:28:20Z</time>
      </trkpt>
      <trkpt lat="43.337180" lon="-4.936360">
        <ele>264.567</ele>
        <time>2020-05-21T03:28:40Z</time>
      </trkpt>
      <trkpt lat="43.337160" lon="-4.936400">
        <ele>264.827</ele>
        <time>2020-05-21T03:29:00Z</time>
      </trkpt>
      <trkpt lat="43.337080" lon="-4.936650">
        <ele>263.937</ele>
        <time>2020-05-21T03:29:20Z</time>
      </trkpt>
      <trkpt lat="43.337040" lon="-4.936810">
        <ele>262.546</ele>
        <time>2020-05-21T03:29:40Z</time>
      </trkpt>
      <trkpt lat="43.337020" lon="-4.936860">
        <ele>262.348</ele>
        <time>2020-05-21T03:30:00Z</time>
      </trkpt>
      <trkpt lat="43.337000" lon="-4.936960">
        <ele>261.261</ele>
        <time>2020-05-21T03:30:20Z</time>
      </trkpt>
      <trkpt lat="43.336900" lon="-4.937250">
        <ele>262.017</ele>
        <time>2020-05-21T03:30:40Z</time>
      </trkpt>
      <trkpt lat="43.336870" lon="-4.937410">
        <ele>261.108</ele>
        <time>2020-05-21T03:31:00Z</time>
      </trkpt>
      <trkpt lat="43.336830" lon="-4.937550">
        <ele>261.068</ele>
        <time>2020-05-21T03:31:20Z</time>
      </trkpt>
      <trkpt lat="43.336830" lon="-4.937560">
        <ele>260.923</ele>
        <time>2020-05-21T03:31:40Z</time>
      </trkpt>
      <trkpt lat="43.336790" lon="-4.937720">
        <ele>260.089</ele>
        <time>2020-05-21T03:32:00Z</time>
      </trkpt>
      <trkpt lat="43.336760" lon="-4.937870">
        <ele>258.782</ele>
        <time>2020-05-21T03:32:20Z</time>
      </trkpt>
      <trkpt lat="43.336730" lon="-4.938030">
        <ele>257.092</ele>
        <time>2020-05-21T03:32:40Z</time>
      </trkpt>
      <trkpt lat="43.336720" lon="-4.938190">
        <ele>255.672</ele>
        <time>2020-05-21T03:33:00Z</time>
      </trkpt>
      <trkpt lat="43.336700" lon="-4.938340">
        <ele>254.572</ele>
        <time>2020-05-21T03:33:20Z</time>
      </trkpt>
      <trkpt lat="43.336680" lon="-4.938510">
        <ele>253.041</ele>
        <time>2020-05-21T03:33:40Z</time>
      </trkpt>
      <trkpt lat="43.336660" lon="-4.938660">
        <ele>252.076</ele>
        <time>2020-05-21T03:34:00Z</time>
      </trkpt>
      <trkpt lat="43.336660" lon="-4.938730">
        <ele>252.090</ele>
        <time>2020-05-21T03:34:20Z</time>
      </trkpt>
      <trkpt lat="43.336650" lon="-4.938820">
        <ele>251.919</ele>
        <time>2020-05-21T03:34:40Z</time>
      </trkpt>
      <trkpt lat="43.336640" lon="-4.938940">
        <ele>252.508</ele>
        <time>2020-05-21T03:35:00Z</time>
      </trkpt>
      <trkpt lat="43.336640" lon="-4.938960">
        <ele>252.821</ele>
        <time>2020-05-21T03:35:20Z</time>
      </trkpt>
      <trkpt lat="43.336640" lon="-4.939000">
        <ele>253.376</ele>
        <time>2020-05-21T03:35:40Z</time>
      </trkpt>
      <trkpt lat="43.336630" lon="-4.939100">
        <ele>254.522</ele>
        <time>2020-05-21T03:36:00Z</time>
      </trkpt>
      <trkpt lat="43.336630" lon="-4.939120">
        <ele>254.775</ele>
        <time>2020-05-21T03:36:20Z</time>
      </trkpt>
      <trkpt lat="43.336610" lon="-4.939270">
        <ele>254.745</ele>
        <time>2020-05-21T03:36:40Z</time>
      </trkpt>
      <trkpt lat="43.336590" lon="-4.939430">
        <ele>253.995</ele>
        <time>2020-05-21T03:37:00Z</time>
      </trkpt>
      <trkpt lat="43.336580" lon="-4.939590">
        <ele>253.625</ele>
        <time>2020-05-21T03:37:20Z</time>
      </trkpt>
      <trkpt lat="43.336580" lon="-4.939740">
        <ele>253.674</ele>
        <time>2020-05-21T03:37:40Z</time>
      </trkpt>
      <trkpt lat="43.336550" lon="-4.939900">
        <ele>255.048</ele>
        <time>2020-05-21T03:38:00Z</time>
      </trkpt>
      <trkpt lat="43.336530" lon="-4.940050">
        <ele>256.561</ele>
        <time>2020-05-21T03:38:20Z</time>
      </trkpt>
      <trkpt lat="43.336500" lon="-4.940210">
        <ele>258.017</ele>
        <time>2020-05-21T03:38:40Z</time>
      </trkpt>
      <trkpt lat="43.336470" lon="-4.940350">
        <ele>257.908</ele>
        <time>2020-05-21T03:39:00Z</time>
      </trkpt>
      <trkpt lat="43.336430" lon="-4.940500">
        <ele>256.548</ele>
        <time>2020-05-21T03:39:20Z</time>
      </trkpt>
      <trkpt lat="43.336380" lon="-4.940640">
        <ele>254.783</ele>
        <time>2020-05-21T03:39:40Z</time>
      </trkpt>
      <trkpt lat="43.336340" lon="-4.940800">
        <ele>255.169</ele>
        <time>2020-05-21T03:40:00Z</time>
      </trkpt>
      <trkpt lat="43.336300" lon="-4.940940">
        <ele>255.772</ele>
        <time>2020-05-21T03:40:20Z</time>
      </trkpt>
      <trkpt lat="43.336240" lon="-4.941080">
        <ele>255.262</ele>
        <time>2020-05-21T03:40:40Z</time>
      </trkpt>
      <trkpt lat="43.336180" lon="-4.941220">
        <ele>254.782</ele>
        <time>2020-05-21T03:41:00Z</time>
      </trkpt>
      <trkpt lat="43.336020" lon="-4.941800">
        <ele>255.382</ele>
        <time>2020-05-21T03:41:20Z</time>
      </trkpt>
      <trkpt lat="43.335990" lon="-4.941960">
        <ele>255.841</ele>
        <time>2020-05-21T03:41:40Z</time>
      </trkpt>
      <trkpt lat="43.335950" lon="-4.942110">
        <ele>255.572</ele>
        <time>2020-05-21T03:42:00Z</time>
      </trkpt>
      <trkpt lat="43.335920" lon="-4.942270">
        <ele>255.313</ele>
        <time>2020-05-21T03:42:20Z</time>
      </trkpt>
      <trkpt lat="43.335800" lon="-4.942710">
        <ele>253.914</ele>
        <time>2020-05-21T03:42:40Z</time>
      </trkpt>
      <trkpt lat="43.335750" lon="-4.942850">
        <ele>253.708</ele>
        <time>2020-05-21T03:43:00Z</time>
      </trkpt>
      <trkpt lat="43.335710" lon="-4.943010">
        <ele>253.771</ele>
        <time>2020-05-21T03:43:20Z</time>
      </trkpt>
      <trkpt lat="43.335660" lon="-4.943160">
        <ele>254.186</ele>
        <time>2020-05-21T03:43:40Z</time>
      </trkpt>
      <trkpt lat="43.335600" lon="-4.943290">
        <ele>253.542</ele>
        <time>2020-05-21T03:44:00Z</time>
      </trkpt>
      <trkpt lat="43.335550" lon="-4.943440">
        <ele>254.195</ele>
        <time>2020-05-21T03:44:20Z</time>
      </trkpt>
      <trkpt lat="43.335490" lon="-4.943570">
        <ele>254.555</ele>
        <time>2020-05-21T03:44:40Z</time>
      </trkpt>
      <trkpt lat="43.335430" lon="-4.943700">
        <ele>254.985</ele>
        <time>2020-05-21T03:45:00Z</time>
      </trkpt>
      <trkpt lat="43.335380" lon="-4.943840">
        <ele>255.755</ele>
        <time>2020-05-21T03:45:20Z</time>
      </trkpt>
      <trkpt lat="43.335310" lon="-4.943980">
        <ele>254.514</ele>
        <time>2020-05-21T03:45:40Z</time>
      </trkpt>
      <trkpt lat="43.335250" lon="-4.944100">
        <ele>254.045</ele>
        <time>2020-05-21T03:46:00Z</time>
      </trkpt>
      <trkpt lat="43.335190" lon="-4.944250">
        <ele>254.947</ele>
        <time>2020-05-21T03:46:20Z</time>
      </trkpt>
      <trkpt lat="43.335090" lon="-4.944540">
        <ele>255.211</ele>
        <time>2020-05-21T03:46:40Z</time>
      </trkpt>
      <trkpt lat="43.335070" lon="-4.944690">
        <ele>254.908</ele>
        <time>2020-05-21T03:47:00Z</time>
      </trkpt>
      <trkpt lat="43.335070" lon="-4.944850">
        <ele>254.468</ele>
        <time>2020-05-21T03:47:20Z</time>
      </trkpt>
      <trkpt lat="43.335080" lon="-4.945060">
        <ele>253.953</ele>
        <time>2020-05-21T03:47:40Z</time>
      </trkpt>
      <trkpt lat="43.335140" lon="-4.945860">
        <ele>250.179</ele>
        <time>2020-05-21T03:48:00Z</time>
      </trkpt>
      <trkpt lat="43.335120" lon="-4.946040">
        <ele>250.212</ele>
        <time>2020-05-21T03:48:20Z</time>
      </trkpt>
      <trkpt lat="43.335100" lon="-4.946180">
        <ele>250.792</ele>
        <time>2020-05-21T03:48:40Z</time>
      </trkpt>
      <trkpt lat="43.335010" lon="-4.946480">
        <ele>251.652</ele>
        <time>2020-05-21T03:49:00Z</time>
      </trkpt>
      <trkpt lat="43.334720" lon="-4.947050">
        <ele>249.152</ele>
        <time>2020-05-21T03:49:20Z</time>
      </trkpt>
      <trkpt lat="43.334670" lon="-4.947150">
        <ele>249.071</ele>
        <time>2020-05-21T03:49:40Z</time>
      </trkpt>
      <trkpt lat="43.334560" lon="-4.947390">
        <ele>248.672</ele>
        <time>2020-05-21T03:50:00Z</time>
      </trkpt>
      <trkpt lat="43.334370" lon="-4.947900">
        <ele>247.713</ele>
        <time>2020-05-21T03:50:20Z</time>
      </trkpt>
      <trkpt lat="43.334210" lon="-4.948500">
        <ele>246.514</ele>
        <time>2020-05-21T03:50:40Z</time>
      </trkpt>
      <trkpt lat="43.334160" lon="-4.948850">
        <ele>246.808</ele>
        <time>2020-05-21T03:51:00Z</time>
      </trkpt>
      <trkpt lat="43.334110" lon="-4.949230">
        <ele>247.231</ele>
        <time>2020-05-21T03:51:20Z</time>
      </trkpt>
      <trkpt lat="43.334090" lon="-4.949500">
        <ele>247.246</ele>
        <time>2020-05-21T03:51:40Z</time>
      </trkpt>
      <trkpt lat="43.334090" lon="-4.949550">
        <ele>247.262</ele>
        <time>2020-05-21T03:52:00Z</time>
      </trkpt>
      <trkpt lat="43.334050" lon="-4.950680">
        <ele>245.335</ele>
        <time>2020-05-21T03:52:20Z</time>
      </trkpt>
      <trkpt lat="43.334050" lon="-4.950810">
        <ele>245.085</ele>
        <time>2020-05-21T03:52:40Z</time>
      </trkpt>
      <trkpt lat="43.334050" lon="-4.950950">
        <ele>244.675</ele>
        <time>2020-05-21T03:53:00Z</time>
      </trkpt>
      <trkpt lat="43.334030" lon="-4.951180">
        <ele>243.945</ele>
        <time>2020-05-21T03:53:20Z</time>
      </trkpt>
      <trkpt lat="43.334020" lon="-4.951440">
        <ele>243.424</ele>
        <time>2020-05-21T03:53:40Z</time>
      </trkpt>
      <trkpt lat="43.334020" lon="-4.951530">
        <ele>243.286</ele>
        <time>2020-05-21T03:54:00Z</time>
      </trkpt>
      <trkpt lat="43.334030" lon="-4.951690">
        <ele>243.060</ele>
        <time>2020-05-21T03:54:20Z</time>
      </trkpt>
      <trkpt lat="43.334030" lon="-4.951700">
        <ele>243.026</ele>
        <time>2020-05-21T03:54:40Z</time>
      </trkpt>
      <trkpt lat="43.334040" lon="-4.951820">
        <ele>243.008</ele>
        <time>2020-05-21T03:55:00Z</time>
      </trkpt>
      <trkpt lat="43.334070" lon="-4.951940">
        <ele>243.032</ele>
        <time>2020-05-21T03:55:20Z</time>
      </trkpt>
      <trkpt lat="43.334080" lon="-4.952010">
        <ele>243.027</ele>
        <time>2020-05-21T03:55:40Z</time>
      </trkpt>
      <trkpt lat="43.334110" lon="-4.952110">
        <ele>243.013</ele>
        <time>2020-05-21T03:56:00Z</time>
      </trkpt>
      <trkpt lat="43.334150" lon="-4.952280">
        <ele>243.096</ele>
        <time>2020-05-21T03:56:20Z</time>
      </trkpt>
      <trkpt lat="43.334190" lon="-4.952390">
        <ele>242.846</ele>
        <time>2020-05-21T03:56:40Z</time>
      </trkpt>
      <trkpt lat="43.334250" lon="-4.952550">
        <ele>242.546</ele>
        <time>2020-05-21T03:57:00Z</time>
      </trkpt>
      <trkpt lat="43.334650" lon="-4.953610">
        <ele>242.636</ele>
        <time>2020-05-21T03:57:20Z</time>
      </trkpt>
      <trkpt lat="43.334900" lon="-4.954090">
        <ele>237.745</ele>
        <time>2020-05-21T03:57:40Z</time>
      </trkpt>
      <trkpt lat="43.334970" lon="-4.954250">
        <ele>237.996</ele>
        <time>2020-05-21T03:58:00Z</time>
      </trkpt>
      <trkpt lat="43.335020" lon="-4.954350">
        <ele>238.731</ele>
        <time>2020-05-21T03:58:20Z</time>
      </trkpt>
      <trkpt lat="43.335070" lon="-4.954510">
        <ele>239.024</ele>
        <time>2020-05-21T03:58:40Z</time>
      </trkpt>
      <trkpt lat="43.335090" lon="-4.954550">
        <ele>239.008</ele>
        <time>2020-05-21T03:59:00Z</time>
      </trkpt>
      <trkpt lat="43.335130" lon="-4.954730">
        <ele>239.043</ele>
        <time>2020-05-21T03:59:20Z</time>
      </trkpt>
      <trkpt lat="43.335130" lon="-4.954750">
        <ele>239.088</ele>
        <time>2020-05-21T03:59:40Z</time>
      </trkpt>
      <trkpt lat="43.335150" lon="-4.955090">
        <ele>238.294</ele>
        <time>2020-05-21T04:00:00Z</time>
      </trkpt>
      <trkpt lat="43.335130" lon="-4.955880">
        <ele>234.837</ele>
        <time>2020-05-21T04:00:20Z</time>
      </trkpt>
      <trkpt lat="43.335130" lon="-4.956040">
        <ele>234.217</ele>
        <time>2020-05-21T04:00:40Z</time>
      </trkpt>
      <trkpt lat="43.335130" lon="-4.956130">
        <ele>233.917</ele>
        <time>2020-05-21T04:01:00Z</time>
      </trkpt>
      <trkpt lat="43.335120" lon="-4.956380">
        <ele>232.947</ele>
        <time>2020-05-21T04:01:20Z</time>
      </trkpt>
      <trkpt lat="43.335120" lon="-4.956520">
        <ele>232.796</ele>
        <time>2020-05-21T04:01:40Z</time>
      </trkpt>
      <trkpt lat="43.335090" lon="-4.958110">
        <ele>228.915</ele>
        <time>2020-05-21T04:02:00Z</time>
      </trkpt>
      <trkpt lat="43.335080" lon="-4.958680">
        <ele>226.765</ele>
        <time>2020-05-21T04:02:20Z</time>
      </trkpt>
      <trkpt lat="43.335070" lon="-4.959720">
        <ele>222.011</ele>
        <time>2020-05-21T04:02:40Z</time>
      </trkpt>
      <trkpt lat="43.335070" lon="-4.959910">
        <ele>220.708</ele>
        <time>2020-05-21T04:03:00Z</time>
      </trkpt>
      <trkpt lat="43.335050" lon="-4.960410">
        <ele>217.985</ele>
        <time>2020-05-21T04:03:20Z</time>
      </trkpt>
      <trkpt lat="43.335040" lon="-4.961100">
        <ele>216.610</ele>
        <time>2020-05-21T04:03:40Z</time>
      </trkpt>
      <trkpt lat="43.335040" lon="-4.961450">
        <ele>216.426</ele>
        <time>2020-05-21T04:04:00Z</time>
      </trkpt>
      <trkpt lat="43.335040" lon="-4.961930">
        <ele>214.659</ele>
        <time>2020-05-21T04:04:20Z</time>
      </trkpt>
      <trkpt lat="43.335040" lon="-4.961940">
        <ele>214.689</ele>
        <time>2020-05-21T04:04:40Z</time>
      </trkpt>
      <trkpt lat="43.335090" lon="-4.962360">
        <ele>213.129</ele>
        <time>2020-05-21T04:05:00Z</time>
      </trkpt>
      <trkpt lat="43.335120" lon="-4.962640">
        <ele>212.069</ele>
        <time>2020-05-21T04:05:20Z</time>
      </trkpt>
      <trkpt lat="43.335140" lon="-4.962830">
        <ele>211.358</ele>
        <time>2020-05-21T04:05:40Z</time>
      </trkpt>
      <trkpt lat="43.335210" lon="-4.963480">
        <ele>209.948</ele>
        <time>2020-05-21T04:06:00Z</time>
      </trkpt>
      <trkpt lat="43.335210" lon="-4.963780">
        <ele>208.961</ele>
        <time>2020-05-21T04:06:20Z</time>
      </trkpt>
      <trkpt lat="43.335170" lon="-4.964150">
        <ele>207.617</ele>
        <time>2020-05-21T04:06:40Z</time>
      </trkpt>
      <trkpt lat="43.335140" lon="-4.964460">
        <ele>206.908</ele>
        <time>2020-05-21T04:07:00Z</time>
      </trkpt>
      <trkpt lat="43.334950" lon="-4.965850">
        <ele>204.778</ele>
        <time>2020-05-21T04:07:20Z</time>
      </trkpt>
      <trkpt lat="43.334930" lon="-4.966590">
        <ele>204.043</ele>
        <time>2020-05-21T04:07:40Z</time>
      </trkpt>
      <trkpt lat="43.335030" lon="-4.967030">
        <ele>202.789</ele>
        <time>2020-05-21T04:08:00Z</time>
      </trkpt>
      <trkpt lat="43.335050" lon="-4.967170">
        <ele>202.382</ele>
        <time>2020-05-21T04:08:20Z</time>
      </trkpt>
      <trkpt lat="43.335060" lon="-4.967360">
        <ele>202.272</ele>
        <time>2020-05-21T04:08:40Z</time>
      </trkpt>
      <trkpt lat="43.335020" lon="-4.967610">
        <ele>202.192</ele>
        <time>2020-05-21T04:09:00Z</time>
      </trkpt>
      <trkpt lat="43.334960" lon="-4.968020">
        <ele>201.932</ele>
        <time>2020-05-21T04:09:20Z</time>
      </trkpt>
      <trkpt lat="43.334970" lon="-4.968170">
        <ele>201.991</ele>
        <time>2020-05-21T04:09:40Z</time>
      </trkpt>
      <trkpt lat="43.334960" lon="-4.968290">
        <ele>201.955</ele>
        <time>2020-05-21T04:10:00Z</time>
      </trkpt>
      <trkpt lat="43.334930" lon="-4.968630">
        <ele>201.707</ele>
        <time>2020-05-21T04:10:20Z</time>
      </trkpt>
      <trkpt lat="43.334900" lon="-4.968730">
        <ele>201.217</ele>
        <time>2020-05-21T04:10:40Z</time>
      </trkpt>
      <trkpt lat="43.334810" lon="-4.969010">
        <ele>200.308</ele>
        <time>2020-05-21T04:11:00Z</time>
      </trkpt>
      <trkpt lat="43.334760" lon="-4.969190">
        <ele>200.189</ele>
        <time>2020-05-21T04:11:20Z</time>
      </trkpt>
      <trkpt lat="43.334720" lon="-4.969420">
        <ele>200.064</ele>
        <time>2020-05-21T04:11:40Z</time>
      </trkpt>
      <trkpt lat="43.334710" lon="-4.969570">
        <ele>200.070</ele>
        <time>2020-05-21T04:12:00Z</time>
      </trkpt>
      <trkpt lat="43.334730" lon="-4.969700">
        <ele>200.053</ele>
        <time>2020-05-21T04:12:20Z</time>
      </trkpt>
      <trkpt lat="43.334780" lon="-4.970080">
        <ele>199.183</ele>
        <time>2020-05-21T04:12:40Z</time>
      </trkpt>
      <trkpt lat="43.334830" lon="-4.970540">
        <ele>199.023</ele>
        <time>2020-05-21T04:13:00Z</time>
      </trkpt>
      <trkpt lat="43.334890" lon="-4.970980">
        <ele>198.333</ele>
        <time>2020-05-21T04:13:20Z</time>
      </trkpt>
      <trkpt lat="43.334910" lon="-4.971120">
        <ele>198.062</ele>
        <time>2020-05-21T04:13:40Z</time>
      </trkpt>
      <trkpt lat="43.335030" lon="-4.972020">
        <ele>197.197</ele>
        <time>2020-05-21T04:14:00Z</time>
      </trkpt>
      <trkpt lat="43.335060" lon="-4.972180">
        <ele>197.023</ele>
        <time>2020-05-21T04:14:20Z</time>
      </trkpt>
      <trkpt lat="43.335100" lon="-4.972380">
        <ele>196.625</ele>
        <time>2020-05-21T04:14:40Z</time>
      </trkpt>
      <trkpt lat="43.335110" lon="-4.972420">
        <ele>196.608</ele>
        <time>2020-05-21T04:15:00Z</time>
      </trkpt>
      <trkpt lat="43.335120" lon="-4.972480">
        <ele>196.553</ele>
        <time>2020-05-21T04:15:20Z</time>
      </trkpt>
      <trkpt lat="43.335170" lon="-4.972630">
        <ele>196.678</ele>
        <time>2020-05-21T04:15:40Z</time>
      </trkpt>
      <trkpt lat="43.335270" lon="-4.972850">
        <ele>197.024</ele>
        <time>2020-05-21T04:16:00Z</time>
      </trkpt>
      <trkpt lat="43.335470" lon="-4.973230">
        <ele>196.827</ele>
        <time>2020-05-21T04:16:20Z</time>
      </trkpt>
      <trkpt lat="43.336030" lon="-4.974350">
        <ele>198.487</ele>
        <time>2020-05-21T04:16:40Z</time>
      </trkpt>
      <trkpt lat="43.336060" lon="-4.974420">
        <ele>199.227</ele>
        <time>2020-05-21T04:17:00Z</time>
      </trkpt>
      <trkpt lat="43.336090" lon="-4.974480">
        <ele>199.447</ele>
        <time>2020-05-21T04:17:20Z</time>
      </trkpt>
      <trkpt lat="43.336120" lon="-4.974550">
        <ele>199.356</ele>
        <time>2020-05-21T04:17:40Z</time>
      </trkpt>
      <trkpt lat="43.336140" lon="-4.974620">
        <ele>199.553</ele>
        <time>2020-05-21T04:18:00Z</time>
      </trkpt>
      <trkpt lat="43.336160" lon="-4.974680">
        <ele>199.504</ele>
        <time>2020-05-21T04:18:20Z</time>
      </trkpt>
      <trkpt lat="43.336200" lon="-4.974740">
        <ele>199.514</ele>
        <time>2020-05-21T04:18:40Z</time>
      </trkpt>
      <trkpt lat="43.336200" lon="-4.974750">
        <ele>199.608</ele>
        <time>2020-05-21T04:19:00Z</time>
      </trkpt>
      <trkpt lat="43.336210" lon="-4.974750">
        <ele>199.539</ele>
        <time>2020-05-21T04:19:20Z</time>
      </trkpt>
      <trkpt lat="43.336270" lon="-4.975130">
        <ele>200.634</ele>
        <time>2020-05-21T04:19:40Z</time>
      </trkpt>
      <trkpt lat="43.336390" lon="-4.976240">
        <ele>201.410</ele>
        <time>2020-05-21T04:20:00Z</time>
      </trkpt>
      <trkpt lat="43.336480" lon="-4.977460">
        <ele>203.953</ele>
        <time>2020-05-21T04:20:20Z</time>
      </trkpt>
      <trkpt lat="43.336530" lon="-4.977780">
        <ele>204.593</ele>
        <time>2020-05-21T04:20:40Z</time>
      </trkpt>
      <trkpt lat="43.336530" lon="-4.977790">
        <ele>204.523</ele>
        <time>2020-05-21T04:21:00Z</time>
      </trkpt>
      <trkpt lat="43.336520" lon="-4.977870">
        <ele>205.323</ele>
        <time>2020-05-21T04:21:20Z</time>
      </trkpt>
      <trkpt lat="43.336570" lon="-4.978310">
        <ele>207.062</ele>
        <time>2020-05-21T04:21:40Z</time>
      </trkpt>
      <trkpt lat="43.336650" lon="-4.979050">
        <ele>205.552</ele>
        <time>2020-05-21T04:22:00Z</time>
      </trkpt>
      <trkpt lat="43.336870" lon="-4.980620">
        <ele>203.853</ele>
        <time>2020-05-21T04:22:20Z</time>
      </trkpt>
      <trkpt lat="43.336880" lon="-4.980730">
        <ele>204.008</ele>
        <time>2020-05-21T04:22:40Z</time>
      </trkpt>
      <trkpt lat="43.336970" lon="-4.981260">
        <ele>203.408</ele>
        <time>2020-05-21T04:23:00Z</time>
      </trkpt>
      <trkpt lat="43.336990" lon="-4.981480">
        <ele>203.919</ele>
        <time>2020-05-21T04:23:20Z</time>
      </trkpt>
      <trkpt lat="43.337000" lon="-4.981650">
        <ele>204.284</ele>
        <time>2020-05-21T04:23:40Z</time>
      </trkpt>
      <trkpt lat="43.337000" lon="-4.981770">
        <ele>204.110</ele>
        <time>2020-05-21T04:24:00Z</time>
      </trkpt>
      <trkpt lat="43.337000" lon="-4.981840">
        <ele>204.133</ele>
        <time>2020-05-21T04:24:20Z</time>
      </trkpt>
      <trkpt lat="43.336990" lon="-4.982020">
        <ele>204.213</ele>
        <time>2020-05-21T04:24:40Z</time>
      </trkpt>
      <trkpt lat="43.336970" lon="-4.982210">
        <ele>204.553</ele>
        <time>2020-05-21T04:25:00Z</time>
      </trkpt>
      <trkpt lat="43.336960" lon="-4.982370">
        <ele>204.783</ele>
        <time>2020-05-21T04:25:20Z</time>
      </trkpt>
      <trkpt lat="43.336950" lon="-4.982450">
        <ele>204.962</ele>
        <time>2020-05-21T04:25:40Z</time>
      </trkpt>
      <trkpt lat="43.336950" lon="-4.982650">
        <ele>204.959</ele>
        <time>2020-05-21T04:26:00Z</time>
      </trkpt>
      <trkpt lat="43.336940" lon="-4.983140">
        <ele>205.403</ele>
        <time>2020-05-21T04:26:20Z</time>
      </trkpt>
      <trkpt lat="43.336950" lon="-4.983270">
        <ele>205.723</ele>
        <time>2020-05-21T04:26:40Z</time>
      </trkpt>
      <trkpt lat="43.336960" lon="-4.983470">
        <ele>205.908</ele>
        <time>2020-05-21T04:27:00Z</time>
      </trkpt>
      <trkpt lat="43.336970" lon="-4.983620">
        <ele>205.989</ele>
        <time>2020-05-21T04:27:20Z</time>
      </trkpt>
      <trkpt lat="43.336980" lon="-4.983640">
        <ele>205.834</ele>
        <time>2020-05-21T04:27:40Z</time>
      </trkpt>
      <trkpt lat="43.337000" lon="-4.983850">
        <ele>205.190</ele>
        <time>2020-05-21T04:28:00Z</time>
      </trkpt>
      <trkpt lat="43.337040" lon="-4.984250">
        <ele>205.073</ele>
        <time>2020-05-21T04:28:20Z</time>
      </trkpt>
      <trkpt lat="43.337050" lon="-4.984340">
        <ele>205.063</ele>
        <time>2020-05-21T04:28:40Z</time>
      </trkpt>
      <trkpt lat="43.337060" lon="-4.984370">
        <ele>205.013</ele>
        <time>2020-05-21T04:29:00Z</time>
      </trkpt>
      <trkpt lat="43.337160" lon="-4.985350">
        <ele>203.133</ele>
        <time>2020-05-21T04:29:20Z</time>
      </trkpt>
      <trkpt lat="43.337270" lon="-4.986380">
        <ele>199.212</ele>
        <time>2020-05-21T04:29:40Z</time>
      </trkpt>
      <trkpt lat="43.337360" lon="-4.987110">
        <ele>196.493</ele>
        <time>2020-05-21T04:30:00Z</time>
      </trkpt>
      <trkpt lat="43.337440" lon="-4.987850">
        <ele>194.665</ele>
        <time>2020-05-21T04:30:20Z</time>
      </trkpt>
      <trkpt lat="43.337460" lon="-4.988010">
        <ele>194.721</ele>
        <time>2020-05-21T04:30:40Z</time>
      </trkpt>
      <trkpt lat="43.337560" lon="-4.989050">
        <ele>193.908</ele>
        <time>2020-05-21T04:31:00Z</time>
      </trkpt>
      <trkpt lat="43.337600" lon="-4.989400">
        <ele>192.983</ele>
        <time>2020-05-21T04:31:20Z</time>
      </trkpt>
      <trkpt lat="43.337780" lon="-4.991030">
        <ele>194.058</ele>
        <time>2020-05-21T04:31:40Z</time>
      </trkpt>
      <trkpt lat="43.337800" lon="-4.991240">
        <ele>194.064</ele>
        <time>2020-05-21T04:32:00Z</time>
      </trkpt>
      <trkpt lat="43.337830" lon="-4.991520">
        <ele>193.687</ele>
        <time>2020-05-21T04:32:20Z</time>
      </trkpt>
      <trkpt lat="43.337860" lon="-4.991750">
        <ele>193.177</ele>
        <time>2020-05-21T04:32:40Z</time>
      </trkpt>
      <trkpt lat="43.337900" lon="-4.992140">
        <ele>191.317</ele>
        <time>2020-05-21T04:33:00Z</time>
      </trkpt>
      <trkpt lat="43.337920" lon="-4.992390">
        <ele>190.177</ele>
        <time>2020-05-21T04:33:20Z</time>
      </trkpt>
      <trkpt lat="43.337920" lon="-4.992500">
        <ele>189.996</ele>
        <time>2020-05-21T04:33:40Z</time>
      </trkpt>
      <trkpt lat="43.337930" lon="-4.992710">
        <ele>189.096</ele>
        <time>2020-05-21T04:34:00Z</time>
      </trkpt>
      <trkpt lat="43.337930" lon="-4.992910">
        <ele>187.531</ele>
        <time>2020-05-21T04:34:20Z</time>
      </trkpt>
      <trkpt lat="43.337920" lon="-4.993180">
        <ele>185.624</ele>
        <time>2020-05-21T04:34:40Z</time>
      </trkpt>
      <trkpt lat="43.337910" lon="-4.993500">
        <ele>183.008</ele>
        <time>2020-05-21T04:35:00Z</time>
      </trkpt>
      <trkpt lat="43.337880" lon="-4.993870">
        <ele>181.193</ele>
        <time>2020-05-21T04:35:20Z</time>
      </trkpt>
      <trkpt lat="43.337850" lon="-4.994120">
        <ele>180.238</ele>
        <time>2020-05-21T04:35:40Z</time>
      </trkpt>
      <trkpt lat="43.337840" lon="-4.994220">
        <ele>179.824</ele>
        <time>2020-05-21T04:36:00Z</time>
      </trkpt>
      <trkpt lat="43.337820" lon="-4.994320">
        <ele>179.477</ele>
        <time>2020-05-21T04:36:20Z</time>
      </trkpt>
      <trkpt lat="43.337790" lon="-4.994500">
        <ele>178.847</ele>
        <time>2020-05-21T04:36:40Z</time>
      </trkpt>
      <trkpt lat="43.337750" lon="-4.994700">
        <ele>178.147</ele>
        <time>2020-05-21T04:37:00Z</time>
      </trkpt>
      <trkpt lat="43.337730" lon="-4.994830">
        <ele>177.777</ele>
        <time>2020-05-21T04:37:20Z</time>
      </trkpt>
      <trkpt lat="43.337670" lon="-4.995100">
        <ele>177.756</ele>
        <time>2020-05-21T04:37:40Z</time>
      </trkpt>
      <trkpt lat="43.337600" lon="-4.995490">
        <ele>178.363</ele>
        <time>2020-05-21T04:38:00Z</time>
      </trkpt>
      <trkpt lat="43.337510" lon="-4.995890">
        <ele>177.744</ele>
        <time>2020-05-21T04:38:20Z</time>
      </trkpt>
      <trkpt lat="43.337500" lon="-4.995940">
        <ele>177.618</ele>
        <time>2020-05-21T04:38:40Z</time>
      </trkpt>
      <trkpt lat="43.337440" lon="-4.996240">
        <ele>177.708</ele>
        <time>2020-05-21T04:39:00Z</time>
      </trkpt>
      <trkpt lat="43.337400" lon="-4.996400">
        <ele>177.580</ele>
        <time>2020-05-21T04:39:20Z</time>
      </trkpt>
      <trkpt lat="43.337340" lon="-4.996710">
        <ele>176.545</ele>
        <time>2020-05-21T04:39:40Z</time>
      </trkpt>
      <trkpt lat="43.337300" lon="-4.996950">
        <ele>174.891</ele>
        <time>2020-05-21T04:40:00Z</time>
      </trkpt>
      <trkpt lat="43.337270" lon="-4.997140">
        <ele>174.074</ele>
        <time>2020-05-21T04:40:20Z</time>
      </trkpt>
      <trkpt lat="43.337240" lon="-4.997310">
        <ele>173.514</ele>
        <time>2020-05-21T04:40:40Z</time>
      </trkpt>
      <trkpt lat="43.337230" lon="-4.997470">
        <ele>173.064</ele>
        <time>2020-05-21T04:41:00Z</time>
      </trkpt>
      <trkpt lat="43.337210" lon="-4.997650">
        <ele>172.444</ele>
        <time>2020-05-21T04:41:20Z</time>
      </trkpt>
      <trkpt lat="43.337200" lon="-4.997750">
        <ele>172.283</ele>
        <time>2020-05-21T04:41:40Z</time>
      </trkpt>
      <trkpt lat="43.337200" lon="-4.997840">
        <ele>171.975</ele>
        <time>2020-05-21T04:42:00Z</time>
      </trkpt>
      <trkpt lat="43.337200" lon="-4.998070">
        <ele>171.828</ele>
        <time>2020-05-21T04:42:20Z</time>
      </trkpt>
      <trkpt lat="43.337200" lon="-4.998280">
        <ele>171.120</ele>
        <time>2020-05-21T04:42:40Z</time>
      </trkpt>
      <trkpt lat="43.337220" lon="-4.998560">
        <ele>170.108</ele>
        <time>2020-05-21T04:43:00Z</time>
      </trkpt>
      <trkpt lat="43.337240" lon="-4.998780">
        <ele>169.291</ele>
        <time>2020-05-21T04:43:20Z</time>
      </trkpt>
      <trkpt lat="43.337250" lon="-4.999010">
        <ele>169.016</ele>
        <time>2020-05-21T04:43:40Z</time>
      </trkpt>
      <trkpt lat="43.337250" lon="-4.999020">
        <ele>169.112</ele>
        <time>2020-05-21T04:44:00Z</time>
      </trkpt>
      <trkpt lat="43.337270" lon="-4.999260">
        <ele>168.945</ele>
        <time>2020-05-21T04:44:20Z</time>
      </trkpt>
      <trkpt lat="43.337280" lon="-4.999450">
        <ele>168.115</ele>
        <time>2020-05-21T04:44:40Z</time>
      </trkpt>
      <trkpt lat="43.337300" lon="-4.999670">
        <ele>167.185</ele>
        <time>2020-05-21T04:45:00Z</time>
      </trkpt>
      <trkpt lat="43.337310" lon="-4.999870">
        <ele>166.675</ele>
        <time>2020-05-21T04:45:20Z</time>
      </trkpt>
      <trkpt lat="43.337330" lon="-5.000000">
        <ele>166.124</ele>
        <time>2020-05-21T04:45:40Z</time>
      </trkpt>
      <trkpt lat="43.337330" lon="-5.000030">
        <ele>166.077</ele>
        <time>2020-05-21T04:46:00Z</time>
      </trkpt>
      <trkpt lat="43.337360" lon="-5.000190">
        <ele>164.861</ele>
        <time>2020-05-21T04:46:20Z</time>
      </trkpt>
      <trkpt lat="43.337410" lon="-5.000370">
        <ele>163.127</ele>
        <time>2020-05-21T04:46:40Z</time>
      </trkpt>
      <trkpt lat="43.337440" lon="-5.000470">
        <ele>162.108</ele>
        <time>2020-05-21T04:47:00Z</time>
      </trkpt>
      <trkpt lat="43.337520" lon="-5.000730">
        <ele>161.251</ele>
        <time>2020-05-21T04:47:20Z</time>
      </trkpt>
      <trkpt lat="43.337580" lon="-5.000920">
        <ele>161.996</ele>
        <time>2020-05-21T04:47:40Z</time>
      </trkpt>
      <trkpt lat="43.337590" lon="-5.000950">
        <ele>162.042</ele>
        <time>2020-05-21T04:48:00Z</time>
      </trkpt>
      <trkpt lat="43.337630" lon="-5.001100">
        <ele>162.445</ele>
        <time>2020-05-21T04:48:20Z</time>
      </trkpt>
      <trkpt lat="43.337660" lon="-5.001220">
        <ele>163.095</ele>
        <time>2020-05-21T04:48:40Z</time>
      </trkpt>
      <trkpt lat="43.337680" lon="-5.001310">
        <ele>163.415</ele>
        <time>2020-05-21T04:49:00Z</time>
      </trkpt>
      <trkpt lat="43.337700" lon="-5.001390">
        <ele>163.985</ele>
        <time>2020-05-21T04:49:20Z</time>
      </trkpt>
      <trkpt lat="43.337700" lon="-5.001450">
        <ele>164.034</ele>
        <time>2020-05-21T04:49:40Z</time>
      </trkpt>
      <trkpt lat="43.337720" lon="-5.001560">
        <ele>164.714</ele>
        <time>2020-05-21T04:50:00Z</time>
      </trkpt>
      <trkpt lat="43.337720" lon="-5.001640">
        <ele>164.954</ele>
        <time>2020-05-21T04:50:20Z</time>
      </trkpt>
      <trkpt lat="43.337720" lon="-5.001740">
        <ele>165.709</ele>
        <time>2020-05-21T04:50:40Z</time>
      </trkpt>
      <trkpt lat="43.337710" lon="-5.001910">
        <ele>167.208</ele>
        <time>2020-05-21T04:51:00Z</time>
      </trkpt>
      <trkpt lat="43.337650" lon="-5.002260">
        <ele>168.985</ele>
        <time>2020-05-21T04:51:20Z</time>
      </trkpt>
      <trkpt lat="43.337600" lon="-5.002490">
        <ele>170.840</ele>
        <time>2020-05-21T04:51:40Z</time>
      </trkpt>
      <trkpt lat="43.337550" lon="-5.002720">
        <ele>171.646</ele>
        <time>2020-05-21T04:52:00Z</time>
      </trkpt>
      <trkpt lat="43.337520" lon="-5.002880">
        <ele>171.669</ele>
        <time>2020-05-21T04:52:20Z</time>
      </trkpt>
      <trkpt lat="43.337490" lon="-5.003030">
        <ele>171.619</ele>
        <time>2020-05-21T04:52:40Z</time>
      </trkpt>
      <trkpt lat="43.337460" lon="-5.003190">
        <ele>172.649</ele>
        <time>2020-05-21T04:53:00Z</time>
      </trkpt>
      <trkpt lat="43.337420" lon="-5.003480">
        <ele>174.869</ele>
        <time>2020-05-21T04:53:20Z</time>
      </trkpt>
      <trkpt lat="43.337410" lon="-5.003560">
        <ele>175.318</ele>
        <time>2020-05-21T04:53:40Z</time>
      </trkpt>
      <trkpt lat="43.337400" lon="-5.003620">
        <ele>175.645</ele>
        <time>2020-05-21T04:54:00Z</time>
      </trkpt>
      <trkpt lat="43.337400" lon="-5.003710">
        <ele>175.947</ele>
        <time>2020-05-21T04:54:20Z</time>
      </trkpt>
      <trkpt lat="43.337390" lon="-5.003810">
        <ele>176.011</ele>
        <time>2020-05-21T04:54:40Z</time>
      </trkpt>
      <trkpt lat="43.337390" lon="-5.003950">
        <ele>175.708</ele>
        <time>2020-05-21T04:55:00Z</time>
      </trkpt>
      <trkpt lat="43.337400" lon="-5.004110">
        <ele>174.828</ele>
        <time>2020-05-21T04:55:20Z</time>
      </trkpt>
      <trkpt lat="43.337410" lon="-5.004290">
        <ele>173.973</ele>
        <time>2020-05-21T04:55:40Z</time>
      </trkpt>
      <trkpt lat="43.337440" lon="-5.004640">
        <ele>174.049</ele>
        <time>2020-05-21T04:56:00Z</time>
      </trkpt>
      <trkpt lat="43.337450" lon="-5.004770">
        <ele>174.542</ele>
        <time>2020-05-21T04:56:20Z</time>
      </trkpt>
      <trkpt lat="43.337480" lon="-5.005080">
        <ele>176.572</ele>
        <time>2020-05-21T04:56:40Z</time>
      </trkpt>
      <trkpt lat="43.337500" lon="-5.005230">
        <ele>177.842</ele>
        <time>2020-05-21T04:57:00Z</time>
      </trkpt>
      <trkpt lat="43.337520" lon="-5.005360">
        <ele>178.182</ele>
        <time>2020-05-21T04:57:20Z</time>
      </trkpt>
      <trkpt lat="43.337550" lon="-5.005490">
        <ele>178.281</ele>
        <time>2020-05-21T04:57:40Z</time>
      </trkpt>
      <trkpt lat="43.337600" lon="-5.005630">
        <ele>178.893</ele>
        <time>2020-05-21T04:58:00Z</time>
      </trkpt>
      <trkpt lat="43.337650" lon="-5.005770">
        <ele>178.765</ele>
        <time>2020-05-21T04:58:20Z</time>
      </trkpt>
      <trkpt lat="43.337690" lon="-5.005870">
        <ele>178.121</ele>
        <time>2020-05-21T04:58:40Z</time>
      </trkpt>
      <trkpt lat="43.337720" lon="-5.005930">
        <ele>177.708</ele>
        <time>2020-05-21T04:59:00Z</time>
      </trkpt>
      <trkpt lat="43.337760" lon="-5.005990">
        <ele>177.093</ele>
        <time>2020-05-21T04:59:20Z</time>
      </trkpt>
      <trkpt lat="43.337830" lon="-5.006100">
        <ele>176.328</ele>
        <time>2020-05-21T04:59:40Z</time>
      </trkpt>
      <trkpt lat="43.337970" lon="-5.006270">
        <ele>175.574</ele>
        <time>2020-05-21T05:00:00Z</time>
      </trkpt>
      <trkpt lat="43.338080" lon="-5.006410">
        <ele>173.847</ele>
        <time>2020-05-21T05:00:20Z</time>
      </trkpt>
      <trkpt lat="43.338190" lon="-5.006550">
        <ele>172.777</ele>
        <time>2020-05-21T05:00:40Z</time>
      </trkpt>
      <trkpt lat="43.338340" lon="-5.006760">
        <ele>171.447</ele>
        <time>2020-05-21T05:01:00Z</time>
      </trkpt>
      <trkpt lat="43.338380" lon="-5.006810">
        <ele>171.497</ele>
        <time>2020-05-21T05:01:20Z</time>
      </trkpt>
      <trkpt lat="43.338420" lon="-5.006890">
        <ele>171.376</ele>
        <time>2020-05-21T05:01:40Z</time>
      </trkpt>
      <trkpt lat="43.338480" lon="-5.007000">
        <ele>171.284</ele>
        <time>2020-05-21T05:02:00Z</time>
      </trkpt>
      <trkpt lat="43.338540" lon="-5.007140">
        <ele>170.507</ele>
        <time>2020-05-21T05:02:20Z</time>
      </trkpt>
      <trkpt lat="43.338590" lon="-5.007280">
        <ele>169.517</ele>
        <time>2020-05-21T05:02:40Z</time>
      </trkpt>
      <trkpt lat="43.338650" lon="-5.007430">
        <ele>169.408</ele>
        <time>2020-05-21T05:03:00Z</time>
      </trkpt>
      <trkpt lat="43.338700" lon="-5.007570">
        <ele>169.452</ele>
        <time>2020-05-21T05:03:20Z</time>
      </trkpt>
      <trkpt lat="43.338750" lon="-5.007710">
        <ele>169.167</ele>
        <time>2020-05-21T05:03:40Z</time>
      </trkpt>
      <trkpt lat="43.338790" lon="-5.007810">
        <ele>168.713</ele>
        <time>2020-05-21T05:04:00Z</time>
      </trkpt>
      <trkpt lat="43.338850" lon="-5.007990">
        <ele>167.546</ele>
        <time>2020-05-21T05:04:20Z</time>
      </trkpt>
      <trkpt lat="43.338870" lon="-5.008060">
        <ele>166.926</ele>
        <time>2020-05-21T05:04:40Z</time>
      </trkpt>
      <trkpt lat="43.338900" lon="-5.008130">
        <ele>166.546</ele>
        <time>2020-05-21T05:05:00Z</time>
      </trkpt>
      <trkpt lat="43.338910" lon="-5.008210">
        <ele>165.946</ele>
        <time>2020-05-21T05:05:20Z</time>
      </trkpt>
      <trkpt lat="43.338930" lon="-5.008280">
        <ele>165.645</ele>
        <time>2020-05-21T05:05:40Z</time>
      </trkpt>
      <trkpt lat="43.338950" lon="-5.008370">
        <ele>165.136</ele>
        <time>2020-05-21T05:06:00Z</time>
      </trkpt>
      <trkpt lat="43.338960" lon="-5.008470">
        <ele>164.317</ele>
        <time>2020-05-21T05:06:20Z</time>
      </trkpt>
      <trkpt lat="43.338960" lon="-5.008590">
        <ele>163.018</ele>
        <time>2020-05-21T05:06:40Z</time>
      </trkpt>
      <trkpt lat="43.338960" lon="-5.008740">
        <ele>162.208</ele>
        <time>2020-05-21T05:07:00Z</time>
      </trkpt>
      <trkpt lat="43.338950" lon="-5.009060">
        <ele>161.967</ele>
        <time>2020-05-21T05:07:20Z</time>
      </trkpt>
      <trkpt lat="43.338950" lon="-5.009380">
        <ele>161.992</ele>
        <time>2020-05-21T05:07:40Z</time>
      </trkpt>
      <trkpt lat="43.338950" lon="-5.009500">
        <ele>161.318</ele>
        <time>2020-05-21T05:08:00Z</time>
      </trkpt>
      <trkpt lat="43.338960" lon="-5.009670">
        <ele>160.571</ele>
        <time>2020-05-21T05:08:20Z</time>
      </trkpt>
      <trkpt lat="43.338980" lon="-5.009820">
        <ele>160.191</ele>
        <time>2020-05-21T05:08:40Z</time>
      </trkpt>
      <trkpt lat="43.339000" lon="-5.009890">
        <ele>160.141</ele>
        <time>2020-05-21T05:09:00Z</time>
      </trkpt>
      <trkpt lat="43.339020" lon="-5.009970">
        <ele>159.781</ele>
        <time>2020-05-21T05:09:20Z</time>
      </trkpt>
      <trkpt lat="43.339030" lon="-5.010010">
        <ele>159.440</ele>
        <time>2020-05-21T05:09:40Z</time>
      </trkpt>
      <trkpt lat="43.339040" lon="-5.010030">
        <ele>159.557</ele>
        <time>2020-05-21T05:10:00Z</time>
      </trkpt>
      <trkpt lat="43.339070" lon="-5.010110">
        <ele>159.200</ele>
        <time>2020-05-21T05:10:20Z</time>
      </trkpt>
      <trkpt lat="43.339120" lon="-5.010230">
        <ele>158.220</ele>
        <time>2020-05-21T05:10:40Z</time>
      </trkpt>
      <trkpt lat="43.339150" lon="-5.010290">
        <ele>157.508</ele>
        <time>2020-05-21T05:11:00Z</time>
      </trkpt>
      <trkpt lat="43.339180" lon="-5.010350">
        <ele>156.989</ele>
        <time>2020-05-21T05:11:20Z</time>
      </trkpt>
      <trkpt lat="43.339260" lon="-5.010470">
        <ele>156.094</ele>
        <time>2020-05-21T05:11:40Z</time>
      </trkpt>
      <trkpt lat="43.339350" lon="-5.010580">
        <ele>154.970</ele>
        <time>2020-05-21T05:12:00Z</time>
      </trkpt>
      <trkpt lat="43.339450" lon="-5.010690">
        <ele>154.333</ele>
        <time>2020-05-21T05:12:20Z</time>
      </trkpt>
      <trkpt lat="43.339630" lon="-5.010870">
        <ele>154.883</ele>
        <time>2020-05-21T05:12:40Z</time>
      </trkpt>
      <trkpt lat="43.339720" lon="-5.010950">
        <ele>154.673</ele>
        <time>2020-05-21T05:13:00Z</time>
      </trkpt>
      <trkpt lat="43.339940" lon="-5.011170">
        <ele>154.583</ele>
        <time>2020-05-21T05:13:20Z</time>
      </trkpt>
      <trkpt lat="43.339950" lon="-5.011180">
        <ele>154.492</ele>
        <time>2020-05-21T05:13:40Z</time>
      </trkpt>
      <trkpt lat="43.340030" lon="-5.011280">
        <ele>153.636</ele>
        <time>2020-05-21T05:14:00Z</time>
      </trkpt>
      <trkpt lat="43.340090" lon="-5.011350">
        <ele>154.117</ele>
        <time>2020-05-21T05:14:20Z</time>
      </trkpt>
      <trkpt lat="43.340100" lon="-5.011360">
        <ele>154.218</ele>
        <time>2020-05-21T05:14:40Z</time>
      </trkpt>
      <trkpt lat="43.340140" lon="-5.011440">
        <ele>153.808</ele>
        <time>2020-05-21T05:15:00Z</time>
      </trkpt>
      <trkpt lat="43.340200" lon="-5.011530">
        <ele>153.437</ele>
        <time>2020-05-21T05:15:20Z</time>
      </trkpt>
      <trkpt lat="43.340250" lon="-5.011640">
        <ele>150.752</ele>
        <time>2020-05-21T05:15:40Z</time>
      </trkpt>
      <trkpt lat="43.340280" lon="-5.011730">
        <ele>149.578</ele>
        <time>2020-05-21T05:16:00Z</time>
      </trkpt>
      <trkpt lat="43.340310" lon="-5.011820">
        <ele>150.911</ele>
        <time>2020-05-21T05:16:20Z</time>
      </trkpt>
      <trkpt lat="43.340370" lon="-5.012020">
        <ele>152.441</ele>
        <time>2020-05-21T05:16:40Z</time>
      </trkpt>
      <trkpt lat="43.340460" lon="-5.012300">
        <ele>152.691</ele>
        <time>2020-05-21T05:17:00Z</time>
      </trkpt>
      <trkpt lat="43.340490" lon="-5.012420">
        <ele>151.451</ele>
        <time>2020-05-21T05:17:20Z</time>
      </trkpt>
      <trkpt lat="43.340540" lon="-5.012600">
        <ele>149.450</ele>
        <time>2020-05-21T05:17:40Z</time>
      </trkpt>
      <trkpt lat="43.340640" lon="-5.012930">
        <ele>148.432</ele>
        <time>2020-05-21T05:18:00Z</time>
      </trkpt>
      <trkpt lat="43.340640" lon="-5.012940">
        <ele>148.392</ele>
        <time>2020-05-21T05:18:20Z</time>
      </trkpt>
      <trkpt lat="43.340700" lon="-5.013100">
        <ele>147.811</ele>
        <time>2020-05-21T05:18:40Z</time>
      </trkpt>
      <trkpt lat="43.340730" lon="-5.013210">
        <ele>147.608</ele>
        <time>2020-05-21T05:19:00Z</time>
      </trkpt>
      <trkpt lat="43.340770" lon="-5.013290">
        <ele>147.647</ele>
        <time>2020-05-21T05:19:20Z</time>
      </trkpt>
      <trkpt lat="43.340810" lon="-5.013370">
        <ele>147.642</ele>
        <time>2020-05-21T05:19:40Z</time>
      </trkpt>
      <trkpt lat="43.340850" lon="-5.013450">
        <ele>147.868</ele>
        <time>2020-05-21T05:20:00Z</time>
      </trkpt>
      <trkpt lat="43.340920" lon="-5.013560">
        <ele>148.061</ele>
        <time>2020-05-21T05:20:20Z</time>
      </trkpt>
      <trkpt lat="43.340980" lon="-5.013640">
        <ele>147.821</ele>
        <time>2020-05-21T05:20:40Z</time>
      </trkpt>
      <trkpt lat="43.341020" lon="-5.013690">
        <ele>147.711</ele>
        <time>2020-05-21T05:21:00Z</time>
      </trkpt>
      <trkpt lat="43.341050" lon="-5.013720">
        <ele>147.791</ele>
        <time>2020-05-21T05:21:20Z</time>
      </trkpt>
      <trkpt lat="43.341310" lon="-5.013970">
        <ele>148.120</ele>
        <time>2020-05-21T05:21:40Z</time>
      </trkpt>
      <trkpt lat="43.341470" lon="-5.014120">
        <ele>146.883</ele>
        <time>2020-05-21T05:22:00Z</time>
      </trkpt>
      <trkpt lat="43.341730" lon="-5.014380">
        <ele>145.625</ele>
        <time>2020-05-21T05:22:20Z</time>
      </trkpt>
      <trkpt lat="43.341870" lon="-5.014510">
        <ele>145.617</ele>
        <time>2020-05-21T05:22:40Z</time>
      </trkpt>
      <trkpt lat="43.341890" lon="-5.014540">
        <ele>145.708</ele>
        <time>2020-05-21T05:23:00Z</time>
      </trkpt>
      <trkpt lat="43.342030" lon="-5.014680">
        <ele>146.152</ele>
        <time>2020-05-21T05:23:20Z</time>
      </trkpt>
      <trkpt lat="43.342140" lon="-5.014810">
        <ele>145.887</ele>
        <time>2020-05-21T05:23:40Z</time>
      </trkpt>
      <trkpt lat="43.342360" lon="-5.015080">
        <ele>145.753</ele>
        <time>2020-05-21T05:24:00Z</time>
      </trkpt>
      <trkpt lat="43.342460" lon="-5.015240">
        <ele>145.896</ele>
        <time>2020-05-21T05:24:20Z</time>
      </trkpt>
      <trkpt lat="43.342530" lon="-5.015300">
        <ele>146.156</ele>
        <time>2020-05-21T05:24:40Z</time>
      </trkpt>
      <trkpt lat="43.342630" lon="-5.015390">
        <ele>146.356</ele>
        <time>2020-05-21T05:25:00Z</time>
      </trkpt>
      <trkpt lat="43.342750" lon="-5.015470">
        <ele>146.386</ele>
        <time>2020-05-21T05:25:20Z</time>
      </trkpt>
      <trkpt lat="43.342910" lon="-5.015550">
        <ele>146.015</ele>
        <time>2020-05-21T05:25:40Z</time>
      </trkpt>
      <trkpt lat="43.343360" lon="-5.015750">
        <ele>145.397</ele>
        <time>2020-05-21T05:26:00Z</time>
      </trkpt>
      <trkpt lat="43.344430" lon="-5.016220">
        <ele>143.623</ele>
        <time>2020-05-21T05:26:20Z</time>
      </trkpt>
      <trkpt lat="43.344720" lon="-5.016350">
        <ele>144.025</ele>
        <time>2020-05-21T05:26:40Z</time>
      </trkpt>
      <trkpt lat="43.344910" lon="-5.016440">
        <ele>143.808</ele>
        <time>2020-05-21T05:27:00Z</time>
      </trkpt>
      <trkpt lat="43.345010" lon="-5.016490">
        <ele>143.653</ele>
        <time>2020-05-21T05:27:20Z</time>
      </trkpt>
      <trkpt lat="43.345080" lon="-5.016530">
        <ele>143.558</ele>
        <time>2020-05-21T05:27:40Z</time>
      </trkpt>
      <trkpt lat="43.345130" lon="-5.016570">
        <ele>143.554</ele>
        <time>2020-05-21T05:28:00Z</time>
      </trkpt>
      <trkpt lat="43.345230" lon="-5.016640">
        <ele>143.847</ele>
        <time>2020-05-21T05:28:20Z</time>
      </trkpt>
      <trkpt lat="43.345300" lon="-5.016710">
        <ele>143.457</ele>
        <time>2020-05-21T05:28:40Z</time>
      </trkpt>
      <trkpt lat="43.345390" lon="-5.016820">
        <ele>142.987</ele>
        <time>2020-05-21T05:29:00Z</time>
      </trkpt>
      <trkpt lat="43.345560" lon="-5.017070">
        <ele>144.137</ele>
        <time>2020-05-21T05:29:20Z</time>
      </trkpt>
      <trkpt lat="43.345770" lon="-5.017400">
        <ele>143.326</ele>
        <time>2020-05-21T05:29:40Z</time>
      </trkpt>
      <trkpt lat="43.345890" lon="-5.017590">
        <ele>144.741</ele>
        <time>2020-05-21T05:30:00Z</time>
      </trkpt>
      <trkpt lat="43.345910" lon="-5.017630">
        <ele>144.981</ele>
        <time>2020-05-21T05:30:20Z</time>
      </trkpt>
      <trkpt lat="43.346180" lon="-5.018070">
        <ele>143.109</ele>
        <time>2020-05-21T05:30:40Z</time>
      </trkpt>
      <trkpt lat="43.346640" lon="-5.018830">
        <ele>139.908</ele>
        <time>2020-05-21T05:31:00Z</time>
      </trkpt>
      <trkpt lat="43.346690" lon="-5.018920">
        <ele>139.918</ele>
        <time>2020-05-21T05:31:20Z</time>
      </trkpt>
      <trkpt lat="43.346990" lon="-5.019390">
        <ele>139.293</ele>
        <time>2020-05-21T05:31:40Z</time>
      </trkpt>
      <trkpt lat="43.347690" lon="-5.020520">
        <ele>137.769</ele>
        <time>2020-05-21T05:32:00Z</time>
      </trkpt>
      <trkpt lat="43.347800" lon="-5.020710">
        <ele>138.062</ele>
        <time>2020-05-21T05:32:20Z</time>
      </trkpt>
      <trkpt lat="43.347920" lon="-5.020890">
        <ele>137.932</ele>
        <time>2020-05-21T05:32:40Z</time>
      </trkpt>
      <trkpt lat="43.348520" lon="-5.021860">
        <ele>137.382</ele>
        <time>2020-05-21T05:33:00Z</time>
      </trkpt>
      <trkpt lat="43.348580" lon="-5.021970">
        <ele>137.822</ele>
        <time>2020-05-21T05:33:20Z</time>
      </trkpt>
      <trkpt lat="43.348630" lon="-5.022090">
        <ele>139.521</ele>
        <time>2020-05-21T05:33:40Z</time>
      </trkpt>
      <trkpt lat="43.348690" lon="-5.022210">
        <ele>143.278</ele>
        <time>2020-05-21T05:34:00Z</time>
      </trkpt>
      <trkpt lat="43.348730" lon="-5.022320">
        <ele>144.833</ele>
        <time>2020-05-21T05:34:20Z</time>
      </trkpt>
      <trkpt lat="43.348760" lon="-5.022430">
        <ele>145.526</ele>
        <time>2020-05-21T05:34:40Z</time>
      </trkpt>
      <trkpt lat="43.348780" lon="-5.022550">
        <ele>145.208</ele>
        <time>2020-05-21T05:35:00Z</time>
      </trkpt>
      <trkpt lat="43.348800" lon="-5.022660">
        <ele>144.311</ele>
        <time>2020-05-21T05:35:20Z</time>
      </trkpt>
      <trkpt lat="43.348810" lon="-5.022740">
        <ele>143.416</ele>
        <time>2020-05-21T05:35:40Z</time>
      </trkpt>
      <trkpt lat="43.348810" lon="-5.022840">
        <ele>143.332</ele>
        <time>2020-05-21T05:36:00Z</time>
      </trkpt>
      <trkpt lat="43.348820" lon="-5.022950">
        <ele>144.785</ele>
        <time>2020-05-21T05:36:20Z</time>
      </trkpt>
      <trkpt lat="43.348820" lon="-5.022970">
        <ele>144.935</ele>
        <time>2020-05-21T05:36:40Z</time>
      </trkpt>
      <trkpt lat="43.348810" lon="-5.023110">
        <ele>146.015</ele>
        <time>2020-05-21T05:37:00Z</time>
      </trkpt>
      <trkpt lat="43.348800" lon="-5.023480">
        <ele>149.435</ele>
        <time>2020-05-21T05:37:20Z</time>
      </trkpt>
      <trkpt lat="43.348780" lon="-5.023700">
        <ele>149.624</ele>
        <time>2020-05-21T05:37:40Z</time>
      </trkpt>
      <trkpt lat="43.348770" lon="-5.023870">
        <ele>149.865</ele>
        <time>2020-05-21T05:38:00Z</time>
      </trkpt>
      <trkpt lat="43.348750" lon="-5.024040">
        <ele>149.668</ele>
        <time>2020-05-21T05:38:20Z</time>
      </trkpt>
      <trkpt lat="43.348720" lon="-5.024220">
        <ele>148.714</ele>
        <time>2020-05-21T05:38:40Z</time>
      </trkpt>
      <trkpt lat="43.348700" lon="-5.024380">
        <ele>149.008</ele>
        <time>2020-05-21T05:39:00Z</time>
      </trkpt>
      <trkpt lat="43.348680" lon="-5.024510">
        <ele>148.880</ele>
        <time>2020-05-21T05:39:20Z</time>
      </trkpt>
      <trkpt lat="43.348650" lon="-5.024650">
        <ele>148.125</ele>
        <time>2020-05-21T05:39:40Z</time>
      </trkpt>
      <trkpt lat="43.348610" lon="-5.024810">
        <ele>148.221</ele>
        <time>2020-05-21T05:40:00Z</time>
      </trkpt>
      <trkpt lat="43.348580" lon="-5.024910">
        <ele>148.994</ele>
        <time>2020-05-21T05:40:20Z</time>
      </trkpt>
      <trkpt lat="43.348560" lon="-5.025010">
        <ele>149.994</ele>
        <time>2020-05-21T05:40:40Z</time>
      </trkpt>
      <trkpt lat="43.348400" lon="-5.025510">
        <ele>147.324</ele>
        <time>2020-05-21T05:41:00Z</time>
      </trkpt>
      <trkpt lat="43.348250" lon="-5.025940">
        <ele>145.934</ele>
        <time>2020-05-21T05:41:20Z</time>
      </trkpt>
      <trkpt lat="43.347950" lon="-5.026680">
        <ele>140.693</ele>
        <time>2020-05-21T05:41:40Z</time>
      </trkpt>
      <trkpt lat="43.347820" lon="-5.027010">
        <ele>137.665</ele>
        <time>2020-05-21T05:42:00Z</time>
      </trkpt>
      <trkpt lat="43.347730" lon="-5.027160">
        <ele>136.868</ele>
        <time>2020-05-21T05:42:20Z</time>
      </trkpt>
      <trkpt lat="43.347580" lon="-5.027380">
        <ele>134.714</ele>
        <time>2020-05-21T05:42:40Z</time>
      </trkpt>
      <trkpt lat="43.347550" lon="-5.027450">
        <ele>133.808</ele>
        <time>2020-05-21T05:43:00Z</time>
      </trkpt>
      <trkpt lat="43.347500" lon="-5.027580">
        <ele>132.390</ele>
        <time>2020-05-21T05:43:20Z</time>
      </trkpt>
      <trkpt lat="43.347420" lon="-5.027830">
        <ele>132.325</ele>
        <time>2020-05-21T05:43:40Z</time>
      </trkpt>
      <trkpt lat="43.347370" lon="-5.028040">
        <ele>131.681</ele>
        <time>2020-05-21T05:44:00Z</time>
      </trkpt>
      <trkpt lat="43.347340" lon="-5.028220">
        <ele>131.864</ele>
        <time>2020-05-21T05:44:20Z</time>
      </trkpt>
      <trkpt lat="43.347300" lon="-5.028410">
        <ele>132.054</ele>
        <time>2020-05-21T05:44:40Z</time>
      </trkpt>
      <trkpt lat="43.347290" lon="-5.028460">
        <ele>132.064</ele>
        <time>2020-05-21T05:45:00Z</time>
      </trkpt>
      <trkpt lat="43.347230" lon="-5.028830">
        <ele>132.054</ele>
        <time>2020-05-21T05:45:20Z</time>
      </trkpt>
      <trkpt lat="43.347190" lon="-5.029210">
        <ele>131.833</ele>
        <time>2020-05-21T05:45:40Z</time>
      </trkpt>
      <trkpt lat="43.347070" lon="-5.030160">
        <ele>132.464</ele>
        <time>2020-05-21T05:46:00Z</time>
      </trkpt>
      <trkpt lat="43.347040" lon="-5.030460">
        <ele>132.506</ele>
        <time>2020-05-21T05:46:20Z</time>
      </trkpt>
      <trkpt lat="43.346880" lon="-5.032260">
        <ele>131.116</ele>
        <time>2020-05-21T05:46:40Z</time>
      </trkpt>
      <trkpt lat="43.346680" lon="-5.034330">
        <ele>127.408</ele>
        <time>2020-05-21T05:47:00Z</time>
      </trkpt>
      <trkpt lat="43.346660" lon="-5.034580">
        <ele>127.090</ele>
        <time>2020-05-21T05:47:20Z</time>
      </trkpt>
      <trkpt lat="43.346630" lon="-5.034820">
        <ele>127.035</ele>
        <time>2020-05-21T05:47:40Z</time>
      </trkpt>
      <trkpt lat="43.346600" lon="-5.035170">
        <ele>127.091</ele>
        <time>2020-05-21T05:48:00Z</time>
      </trkpt>
      <trkpt lat="43.346530" lon="-5.036100">
        <ele>125.554</ele>
        <time>2020-05-21T05:48:20Z</time>
      </trkpt>
      <trkpt lat="43.346370" lon="-5.039360">
        <ele>123.334</ele>
        <time>2020-05-21T05:48:40Z</time>
      </trkpt>
      <trkpt lat="43.346330" lon="-5.039890">
        <ele>122.984</ele>
        <time>2020-05-21T05:49:00Z</time>
      </trkpt>
      <trkpt lat="43.346290" lon="-5.041580">
        <ele>122.054</ele>
        <time>2020-05-21T05:49:20Z</time>
      </trkpt>
      <trkpt lat="43.346280" lon="-5.042290">
        <ele>121.073</ele>
        <time>2020-05-21T05:49:40Z</time>
      </trkpt>
      <trkpt lat="43.346230" lon="-5.043060">
        <ele>121.054</ele>
        <time>2020-05-21T05:50:00Z</time>
      </trkpt>
      <trkpt lat="43.346190" lon="-5.043550">
        <ele>120.456</ele>
        <time>2020-05-21T05:50:20Z</time>
      </trkpt>
      <trkpt lat="43.346190" lon="-5.043570">
        <ele>120.411</ele>
        <time>2020-05-21T05:50:40Z</time>
      </trkpt>
      <trkpt lat="43.346170" lon="-5.043720">
        <ele>120.208</ele>
        <time>2020-05-21T05:51:00Z</time>
      </trkpt>
      <trkpt lat="43.346140" lon="-5.043880">
        <ele>120.189</ele>
        <time>2020-05-21T05:51:20Z</time>
      </trkpt>
      <trkpt lat="43.346110" lon="-5.044040">
        <ele>120.064</ele>
        <time>2020-05-21T05:51:40Z</time>
      </trkpt>
      <trkpt lat="43.346040" lon="-5.044210">
        <ele>119.760</ele>
        <time>2020-05-21T05:52:00Z</time>
      </trkpt>
      <trkpt lat="43.345970" lon="-5.044360">
        <ele>119.543</ele>
        <time>2020-05-21T05:52:20Z</time>
      </trkpt>
      <trkpt lat="43.345810" lon="-5.044650">
        <ele>119.743</ele>
        <time>2020-05-21T05:52:40Z</time>
      </trkpt>
      <trkpt lat="43.345590" lon="-5.045040">
        <ele>119.923</ele>
        <time>2020-05-21T05:53:00Z</time>
      </trkpt>
      <trkpt lat="43.345560" lon="-5.045080">
        <ele>120.043</ele>
        <time>2020-05-21T05:53:20Z</time>
      </trkpt>
      <trkpt lat="43.345370" lon="-5.045430">
        <ele>120.292</ele>
        <time>2020-05-21T05:53:40Z</time>
      </trkpt>
      <trkpt lat="43.345250" lon="-5.045620">
        <ele>121.177</ele>
        <time>2020-05-21T05:54:00Z</time>
      </trkpt>
      <trkpt lat="43.345230" lon="-5.045660">
        <ele>121.261</ele>
        <time>2020-05-21T05:54:20Z</time>
      </trkpt>
      <trkpt lat="43.345040" lon="-5.046010">
        <ele>121.727</ele>
        <time>2020-05-21T05:54:40Z</time>
      </trkpt>
      <trkpt lat="43.344960" lon="-5.046190">
        <ele>122.108</ele>
        <time>2020-05-21T05:55:00Z</time>
      </trkpt>
      <trkpt lat="43.344920" lon="-5.046310">
        <ele>122.271</ele>
        <time>2020-05-21T05:55:20Z</time>
      </trkpt>
      <trkpt lat="43.344870" lon="-5.046540">
        <ele>122.426</ele>
        <time>2020-05-21T05:55:40Z</time>
      </trkpt>
      <trkpt lat="43.344830" lon="-5.046790">
        <ele>123.282</ele>
        <time>2020-05-21T05:56:00Z</time>
      </trkpt>
      <trkpt lat="43.344740" lon="-5.047600">
        <ele>124.865</ele>
        <time>2020-05-21T05:56:20Z</time>
      </trkpt>
      <trkpt lat="43.344700" lon="-5.047870">
        <ele>125.855</ele>
        <time>2020-05-21T05:56:40Z</time>
      </trkpt>
      <trkpt lat="43.344670" lon="-5.048010">
        <ele>125.415</ele>
        <time>2020-05-21T05:57:00Z</time>
      </trkpt>
      <trkpt lat="43.344620" lon="-5.048180">
        <ele>126.055</ele>
        <time>2020-05-21T05:57:20Z</time>
      </trkpt>
      <trkpt lat="43.344550" lon="-5.048320">
        <ele>125.934</ele>
        <time>2020-05-21T05:57:40Z</time>
      </trkpt>
      <trkpt lat="43.344520" lon="-5.048390">
        <ele>126.651</ele>
        <time>2020-05-21T05:58:00Z</time>
      </trkpt>
      <trkpt lat="43.344360" lon="-5.048690">
        <ele>127.401</ele>
        <time>2020-05-21T05:58:20Z</time>
      </trkpt>
      <trkpt lat="43.344340" lon="-5.048720">
        <ele>127.111</ele>
        <time>2020-05-21T05:58:40Z</time>
      </trkpt>
      <trkpt lat="43.344220" lon="-5.048920">
        <ele>127.008</ele>
        <time>2020-05-21T05:59:00Z</time>
      </trkpt>
      <trkpt lat="43.344140" lon="-5.049100">
        <ele>128.839</ele>
        <time>2020-05-21T05:59:20Z</time>
      </trkpt>
      <trkpt lat="43.344080" lon="-5.049280">
        <ele>130.394</ele>
        <time>2020-05-21T05:59:40Z</time>
      </trkpt>
      <trkpt lat="43.344030" lon="-5.049480">
        <ele>133.490</ele>
        <time>2020-05-21T06:00:00Z</time>
      </trkpt>
      <trkpt lat="43.344010" lon="-5.049720">
        <ele>135.043</ele>
        <time>2020-05-21T06:00:20Z</time>
      </trkpt>
      <trkpt lat="43.344020" lon="-5.049920">
        <ele>136.443</ele>
        <time>2020-05-21T06:00:40Z</time>
      </trkpt>
      <trkpt lat="43.344020" lon="-5.049930">
        <ele>136.573</ele>
        <time>2020-05-21T06:01:00Z</time>
      </trkpt>
      <trkpt lat="43.344040" lon="-5.050140">
        <ele>136.163</ele>
        <time>2020-05-21T06:01:20Z</time>
      </trkpt>
      <trkpt lat="43.344090" lon="-5.050330">
        <ele>134.582</ele>
        <time>2020-05-21T06:01:40Z</time>
      </trkpt>
      <trkpt lat="43.344110" lon="-5.050400">
        <ele>133.698</ele>
        <time>2020-05-21T06:02:00Z</time>
      </trkpt>
      <trkpt lat="43.344140" lon="-5.050500">
        <ele>131.715</ele>
        <time>2020-05-21T06:02:20Z</time>
      </trkpt>
      <trkpt lat="43.344200" lon="-5.050640">
        <ele>131.826</ele>
        <time>2020-05-21T06:02:40Z</time>
      </trkpt>
      <trkpt lat="43.344300" lon="-5.050820">
        <ele>132.208</ele>
        <time>2020-05-21T06:03:00Z</time>
      </trkpt>
      <trkpt lat="43.344400" lon="-5.050950">
        <ele>129.493</ele>
        <time>2020-05-21T06:03:20Z</time>
      </trkpt>
      <trkpt lat="43.344500" lon="-5.051050">
        <ele>127.848</ele>
        <time>2020-05-21T06:03:40Z</time>
      </trkpt>
      <trkpt lat="43.344630" lon="-5.051160">
        <ele>126.644</ele>
        <time>2020-05-21T06:04:00Z</time>
      </trkpt>
      <trkpt lat="43.344780" lon="-5.051250">
        <ele>125.937</ele>
        <time>2020-05-21T06:04:20Z</time>
      </trkpt>
      <trkpt lat="43.345010" lon="-5.051390">
        <ele>123.067</ele>
        <time>2020-05-21T06:04:40Z</time>
      </trkpt>
      <trkpt lat="43.345360" lon="-5.051590">
        <ele>120.937</ele>
        <time>2020-05-21T06:05:00Z</time>
      </trkpt>
      <trkpt lat="43.345670" lon="-5.051770">
        <ele>119.937</ele>
        <time>2020-05-21T06:05:20Z</time>
      </trkpt>
      <trkpt lat="43.345830" lon="-5.051850">
        <ele>118.456</ele>
        <time>2020-05-21T06:05:40Z</time>
      </trkpt>
      <trkpt lat="43.345950" lon="-5.051900">
        <ele>117.568</ele>
        <time>2020-05-21T06:06:00Z</time>
      </trkpt>
      <trkpt lat="43.346070" lon="-5.051940">
        <ele>117.042</ele>
        <time>2020-05-21T06:06:20Z</time>
      </trkpt>
      <trkpt lat="43.346080" lon="-5.051940">
        <ele>117.026</ele>
        <time>2020-05-21T06:06:40Z</time>
      </trkpt>
      <trkpt lat="43.346260" lon="-5.051990">
        <ele>115.908</ele>
        <time>2020-05-21T06:07:00Z</time>
      </trkpt>
      <trkpt lat="43.346460" lon="-5.052040">
        <ele>114.510</ele>
        <time>2020-05-21T06:07:20Z</time>
      </trkpt>
      <trkpt lat="43.346600" lon="-5.052070">
        <ele>113.535</ele>
        <time>2020-05-21T06:07:40Z</time>
      </trkpt>
      <trkpt lat="43.346740" lon="-5.052120">
        <ele>112.821</ele>
        <time>2020-05-21T06:08:00Z</time>
      </trkpt>
      <trkpt lat="43.346950" lon="-5.052240">
        <ele>112.794</ele>
        <time>2020-05-21T06:08:20Z</time>
      </trkpt>
      <trkpt lat="43.347080" lon="-5.052380">
        <ele>112.064</ele>
        <time>2020-05-21T06:08:40Z</time>
      </trkpt>
      <trkpt lat="43.347220" lon="-5.052540">
        <ele>112.744</ele>
        <time>2020-05-21T06:09:00Z</time>
      </trkpt>
      <trkpt lat="43.347320" lon="-5.052690">
        <ele>113.024</ele>
        <time>2020-05-21T06:09:20Z</time>
      </trkpt>
      <trkpt lat="43.347450" lon="-5.052950">
        <ele>112.243</ele>
        <time>2020-05-21T06:09:40Z</time>
      </trkpt>
      <trkpt lat="43.347650" lon="-5.053310">
        <ele>112.017</ele>
        <time>2020-05-21T06:10:00Z</time>
      </trkpt>
      <trkpt lat="43.347740" lon="-5.053550">
        <ele>110.387</ele>
        <time>2020-05-21T06:10:20Z</time>
      </trkpt>
      <trkpt lat="43.347830" lon="-5.053800">
        <ele>110.515</ele>
        <time>2020-05-21T06:10:40Z</time>
      </trkpt>
      <trkpt lat="43.347980" lon="-5.054360">
        <ele>109.808</ele>
        <time>2020-05-21T06:11:00Z</time>
      </trkpt>
      <trkpt lat="43.348010" lon="-5.054480">
        <ele>109.575</ele>
        <time>2020-05-21T06:11:20Z</time>
      </trkpt>
      <trkpt lat="43.348140" lon="-5.055040">
        <ele>111.850</ele>
        <time>2020-05-21T06:11:40Z</time>
      </trkpt>
      <trkpt lat="43.348170" lon="-5.055180">
        <ele>111.236</ele>
        <time>2020-05-21T06:12:00Z</time>
      </trkpt>
      <trkpt lat="43.348170" lon="-5.055190">
        <ele>111.089</ele>
        <time>2020-05-21T06:12:20Z</time>
      </trkpt>
      <trkpt lat="43.348180" lon="-5.055370">
        <ele>109.039</ele>
        <time>2020-05-21T06:12:40Z</time>
      </trkpt>
      <trkpt lat="43.348180" lon="-5.055540">
        <ele>107.839</ele>
        <time>2020-05-21T06:13:00Z</time>
      </trkpt>
      <trkpt lat="43.348180" lon="-5.055700">
        <ele>108.979</ele>
        <time>2020-05-21T06:13:20Z</time>
      </trkpt>
      <trkpt lat="43.348160" lon="-5.055900">
        <ele>108.448</ele>
        <time>2020-05-21T06:13:40Z</time>
      </trkpt>
      <trkpt lat="43.348130" lon="-5.056190">
        <ele>105.898</ele>
        <time>2020-05-21T06:14:00Z</time>
      </trkpt>
      <trkpt lat="43.348060" lon="-5.056650">
        <ele>101.315</ele>
        <time>2020-05-21T06:14:20Z</time>
      </trkpt>
      <trkpt lat="43.348000" lon="-5.057050">
        <ele>101.326</ele>
        <time>2020-05-21T06:14:40Z</time>
      </trkpt>
      <trkpt lat="43.347990" lon="-5.057140">
        <ele>101.408</ele>
        <time>2020-05-21T06:15:00Z</time>
      </trkpt>
      <trkpt lat="43.347910" lon="-5.057740">
        <ele>103.783</ele>
        <time>2020-05-21T06:15:20Z</time>
      </trkpt>
      <trkpt lat="43.347890" lon="-5.057870">
        <ele>103.818</ele>
        <time>2020-05-21T06:15:40Z</time>
      </trkpt>
      <trkpt lat="43.347830" lon="-5.058310">
        <ele>101.214</ele>
        <time>2020-05-21T06:16:00Z</time>
      </trkpt>
      <trkpt lat="43.347780" lon="-5.058590">
        <ele>100.047</ele>
        <time>2020-05-21T06:16:20Z</time>
      </trkpt>
      <trkpt lat="43.347740" lon="-5.058770">
        <ele>100.417</ele>
        <time>2020-05-21T06:16:40Z</time>
      </trkpt>
      <trkpt lat="43.347680" lon="-5.058920">
        <ele>100.437</ele>
        <time>2020-05-21T06:17:00Z</time>
      </trkpt>
      <trkpt lat="43.347670" lon="-5.058940">
        <ele>100.587</ele>
        <time>2020-05-21T06:17:20Z</time>
      </trkpt>
      <trkpt lat="43.347630" lon="-5.059100">
        <ele>101.816</ele>
        <time>2020-05-21T06:17:40Z</time>
      </trkpt>
      <trkpt lat="43.347550" lon="-5.059240">
        <ele>100.813</ele>
        <time>2020-05-21T06:18:00Z</time>
      </trkpt>
      <trkpt lat="43.347450" lon="-5.059440">
        <ele>100.243</ele>
        <time>2020-05-21T06:18:20Z</time>
      </trkpt>
      <trkpt lat="43.346990" lon="-5.060480">
        <ele>102.707</ele>
        <time>2020-05-21T06:18:40Z</time>
      </trkpt>
      <trkpt lat="43.346970" lon="-5.060580">
        <ele>102.608</ele>
        <time>2020-05-21T06:19:00Z</time>
      </trkpt>
      <trkpt lat="43.346960" lon="-5.060920">
        <ele>102.465</ele>
        <time>2020-05-21T06:19:20Z</time>
      </trkpt>
      <trkpt lat="43.346970" lon="-5.061140">
        <ele>102.650</ele>
        <time>2020-05-21T06:19:40Z</time>
      </trkpt>
      <trkpt lat="43.346970" lon="-5.061200">
        <ele>102.426</ele>
        <time>2020-05-21T06:20:00Z</time>
      </trkpt>
      <trkpt lat="43.347030" lon="-5.061540">
        <ele>103.439</ele>
        <time>2020-05-21T06:20:20Z</time>
      </trkpt>
      <trkpt lat="43.347150" lon="-5.062170">
        <ele>103.039</ele>
        <time>2020-05-21T06:20:40Z</time>
      </trkpt>
      <trkpt lat="43.347190" lon="-5.062410">
        <ele>102.239</ele>
        <time>2020-05-21T06:21:00Z</time>
      </trkpt>
      <trkpt lat="43.347290" lon="-5.063020">
        <ele>102.949</ele>
        <time>2020-05-21T06:21:20Z</time>
      </trkpt>
      <trkpt lat="43.347390" lon="-5.063610">
        <ele>102.068</ele>
        <time>2020-05-21T06:21:40Z</time>
      </trkpt>
      <trkpt lat="43.347480" lon="-5.064040">
        <ele>100.332</ele>
        <time>2020-05-21T06:22:00Z</time>
      </trkpt>
      <trkpt lat="43.347580" lon="-5.064420">
        <ele>98.592</ele>
        <time>2020-05-21T06:22:20Z</time>
      </trkpt>
      <trkpt lat="43.347620" lon="-5.064540">
        <ele>98.311</ele>
        <time>2020-05-21T06:22:40Z</time>
      </trkpt>
      <trkpt lat="43.347740" lon="-5.064880">
        <ele>97.408</ele>
        <time>2020-05-21T06:23:00Z</time>
      </trkpt>
      <trkpt lat="43.347850" lon="-5.065170">
        <ele>97.027</ele>
        <time>2020-05-21T06:23:20Z</time>
      </trkpt>
      <trkpt lat="43.347970" lon="-5.065490">
        <ele>96.592</ele>
        <time>2020-05-21T06:23:40Z</time>
      </trkpt>
      <trkpt lat="43.347980" lon="-5.065520">
        <ele>96.528</ele>
        <time>2020-05-21T06:24:00Z</time>
      </trkpt>
      <trkpt lat="43.348060" lon="-5.065750">
        <ele>97.031</ele>
        <time>2020-05-21T06:24:20Z</time>
      </trkpt>
      <trkpt lat="43.348170" lon="-5.066010">
        <ele>96.431</ele>
        <time>2020-05-21T06:24:40Z</time>
      </trkpt>
      <trkpt lat="43.348270" lon="-5.066310">
        <ele>95.851</ele>
        <time>2020-05-21T06:25:00Z</time>
      </trkpt>
      <trkpt lat="43.348380" lon="-5.066700">
        <ele>96.321</ele>
        <time>2020-05-21T06:25:20Z</time>
      </trkpt>
      <trkpt lat="43.348410" lon="-5.067030">
        <ele>96.470</ele>
        <time>2020-05-21T06:25:40Z</time>
      </trkpt>
      <trkpt lat="43.348420" lon="-5.067210">
        <ele>96.366</ele>
        <time>2020-05-21T06:26:00Z</time>
      </trkpt>
      <trkpt lat="43.348410" lon="-5.067290">
        <ele>96.129</ele>
        <time>2020-05-21T06:26:20Z</time>
      </trkpt>
      <trkpt lat="43.348390" lon="-5.067510">
        <ele>95.821</ele>
        <time>2020-05-21T06:26:40Z</time>
      </trkpt>
      <trkpt lat="43.348320" lon="-5.067770">
        <ele>95.008</ele>
        <time>2020-05-21T06:27:00Z</time>
      </trkpt>
      <trkpt lat="43.348220" lon="-5.068000">
        <ele>95.120</ele>
        <time>2020-05-21T06:27:20Z</time>
      </trkpt>
      <trkpt lat="43.348210" lon="-5.068020">
        <ele>95.055</ele>
        <time>2020-05-21T06:27:40Z</time>
      </trkpt>
      <trkpt lat="43.348080" lon="-5.068200">
        <ele>94.251</ele>
        <time>2020-05-21T06:28:00Z</time>
      </trkpt>
      <trkpt lat="43.347980" lon="-5.068330">
        <ele>94.014</ele>
        <time>2020-05-21T06:28:20Z</time>
      </trkpt>
      <trkpt lat="43.347840" lon="-5.068460">
        <ele>94.034</ele>
        <time>2020-05-21T06:28:40Z</time>
      </trkpt>
      <trkpt lat="43.347700" lon="-5.068550">
        <ele>93.884</ele>
        <time>2020-05-21T06:29:00Z</time>
      </trkpt>
      <trkpt lat="43.347530" lon="-5.068620">
        <ele>93.144</ele>
        <time>2020-05-21T06:29:20Z</time>
      </trkpt>
      <trkpt lat="43.347320" lon="-5.068640">
        <ele>92.423</ele>
        <time>2020-05-21T06:29:40Z</time>
      </trkpt>
      <trkpt lat="43.347230" lon="-5.068650">
        <ele>92.062</ele>
        <time>2020-05-21T06:30:00Z</time>
      </trkpt>
      <trkpt lat="43.347080" lon="-5.068630">
        <ele>92.083</ele>
        <time>2020-05-21T06:30:20Z</time>
      </trkpt>
      <trkpt lat="43.347050" lon="-5.068630">
        <ele>92.011</ele>
        <time>2020-05-21T06:30:40Z</time>
      </trkpt>
      <trkpt lat="43.346820" lon="-5.068620">
        <ele>92.008</ele>
        <time>2020-05-21T06:31:00Z</time>
      </trkpt>
      <trkpt lat="43.346750" lon="-5.068620">
        <ele>92.070</ele>
        <time>2020-05-21T06:31:20Z</time>
      </trkpt>
      <trkpt lat="43.346520" lon="-5.068650">
        <ele>91.915</ele>
        <time>2020-05-21T06:31:40Z</time>
      </trkpt>
      <trkpt lat="43.346480" lon="-5.068660">
        <ele>91.941</ele>
        <time>2020-05-21T06:32:00Z</time>
      </trkpt>
      <trkpt lat="43.346350" lon="-5.068750">
        <ele>91.944</ele>
        <time>2020-05-21T06:32:20Z</time>
      </trkpt>
      <trkpt lat="43.346290" lon="-5.068790">
        <ele>91.914</ele>
        <time>2020-05-21T06:32:40Z</time>
      </trkpt>
      <trkpt lat="43.346130" lon="-5.068900">
        <ele>92.094</ele>
        <time>2020-05-21T06:33:00Z</time>
      </trkpt>
      <trkpt lat="43.346040" lon="-5.068980">
        <ele>91.644</ele>
        <time>2020-05-21T06:33:20Z</time>
      </trkpt>
      <trkpt lat="43.345940" lon="-5.069110">
        <ele>91.323</ele>
        <time>2020-05-21T06:33:40Z</time>
      </trkpt>
      <trkpt lat="43.345720" lon="-5.069470">
        <ele>90.311</ele>
        <time>2020-05-21T06:34:00Z</time>
      </trkpt>
      <trkpt lat="43.345690" lon="-5.069530">
        <ele>89.821</ele>
        <time>2020-05-21T06:34:20Z</time>
      </trkpt>
      <trkpt lat="43.345620" lon="-5.069670">
        <ele>89.603</ele>
        <time>2020-05-21T06:34:40Z</time>
      </trkpt>
      <trkpt lat="43.345530" lon="-5.069840">
        <ele>90.808</ele>
        <time>2020-05-21T06:35:00Z</time>
      </trkpt>
      <trkpt lat="43.345460" lon="-5.069990">
        <ele>92.035</ele>
        <time>2020-05-21T06:35:20Z</time>
      </trkpt>
      <trkpt lat="43.345160" lon="-5.070860">
        <ele>92.770</ele>
        <time>2020-05-21T06:35:40Z</time>
      </trkpt>
      <trkpt lat="43.345130" lon="-5.071020">
        <ele>93.136</ele>
        <time>2020-05-21T06:36:00Z</time>
      </trkpt>
      <trkpt lat="43.345120" lon="-5.071190">
        <ele>93.319</ele>
        <time>2020-05-21T06:36:20Z</time>
      </trkpt>
      <trkpt lat="43.345150" lon="-5.071490">
        <ele>92.999</ele>
        <time>2020-05-21T06:36:40Z</time>
      </trkpt>
      <trkpt lat="43.345190" lon="-5.071770">
        <ele>92.849</ele>
        <time>2020-05-21T06:37:00Z</time>
      </trkpt>
      <trkpt lat="43.345310" lon="-5.072360">
        <ele>92.929</ele>
        <time>2020-05-21T06:37:20Z</time>
      </trkpt>
      <trkpt lat="43.345500" lon="-5.073080">
        <ele>91.358</ele>
        <time>2020-05-21T06:37:40Z</time>
      </trkpt>
      <trkpt lat="43.345750" lon="-5.073890">
        <ele>88.954</ele>
        <time>2020-05-21T06:38:00Z</time>
      </trkpt>
      <trkpt lat="43.345960" lon="-5.074450">
        <ele>90.656</ele>
        <time>2020-05-21T06:38:20Z</time>
      </trkpt>
      <trkpt lat="43.346020" lon="-5.074590">
        <ele>90.711</ele>
        <time>2020-05-21T06:38:40Z</time>
      </trkpt>
      <trkpt lat="43.346190" lon="-5.075010">
        <ele>90.008</ele>
        <time>2020-05-21T06:39:00Z</time>
      </trkpt>
      <trkpt lat="43.346330" lon="-5.075380">
        <ele>90.119</ele>
        <time>2020-05-21T06:39:20Z</time>
      </trkpt>
      <trkpt lat="43.346420" lon="-5.075600">
        <ele>89.614</ele>
        <time>2020-05-21T06:39:40Z</time>
      </trkpt>
      <trkpt lat="43.346650" lon="-5.076120">
        <ele>89.120</ele>
        <time>2020-05-21T06:40:00Z</time>
      </trkpt>
      <trkpt lat="43.346860" lon="-5.076510">
        <ele>89.073</ele>
        <time>2020-05-21T06:40:20Z</time>
      </trkpt>
      <trkpt lat="43.347170" lon="-5.077090">
        <ele>88.843</ele>
        <time>2020-05-21T06:40:40Z</time>
      </trkpt>
      <trkpt lat="43.347240" lon="-5.077210">
        <ele>88.113</ele>
        <time>2020-05-21T06:41:00Z</time>
      </trkpt>
      <trkpt lat="43.347360" lon="-5.077450">
        <ele>88.523</ele>
        <time>2020-05-21T06:41:20Z</time>
      </trkpt>
      <trkpt lat="43.347490" lon="-5.077760">
        <ele>88.142</ele>
        <time>2020-05-21T06:41:40Z</time>
      </trkpt>
      <trkpt lat="43.347570" lon="-5.077980">
        <ele>87.562</ele>
        <time>2020-05-21T06:42:00Z</time>
      </trkpt>
      <trkpt lat="43.347660" lon="-5.078390">
        <ele>87.083</ele>
        <time>2020-05-21T06:42:20Z</time>
      </trkpt>
      <trkpt lat="43.347690" lon="-5.078610">
        <ele>87.011</ele>
        <time>2020-05-21T06:42:40Z</time>
      </trkpt>
      <trkpt lat="43.347740" lon="-5.078980">
        <ele>86.208</ele>
        <time>2020-05-21T06:43:00Z</time>
      </trkpt>
      <trkpt lat="43.347800" lon="-5.079530">
        <ele>85.710</ele>
        <time>2020-05-21T06:43:20Z</time>
      </trkpt>
      <trkpt lat="43.347840" lon="-5.079930">
        <ele>85.565</ele>
        <time>2020-05-21T06:43:40Z</time>
      </trkpt>
      <trkpt lat="43.347900" lon="-5.080510">
        <ele>84.341</ele>
        <time>2020-05-21T06:44:00Z</time>
      </trkpt>
      <trkpt lat="43.347940" lon="-5.081170">
        <ele>84.214</ele>
        <time>2020-05-21T06:44:20Z</time>
      </trkpt>
      <trkpt lat="43.347960" lon="-5.081400">
        <ele>84.434</ele>
        <time>2020-05-21T06:44:40Z</time>
      </trkpt>
      <trkpt lat="43.347980" lon="-5.081640">
        <ele>83.814</ele>
        <time>2020-05-21T06:45:00Z</time>
      </trkpt>
      <trkpt lat="43.347970" lon="-5.081980">
        <ele>84.654</ele>
        <time>2020-05-21T06:45:20Z</time>
      </trkpt>
      <trkpt lat="43.347950" lon="-5.082240">
        <ele>84.473</ele>
        <time>2020-05-21T06:45:40Z</time>
      </trkpt>
      <trkpt lat="43.347920" lon="-5.082500">
        <ele>84.561</ele>
        <time>2020-05-21T06:46:00Z</time>
      </trkpt>
      <trkpt lat="43.347820" lon="-5.083030">
        <ele>84.621</ele>
        <time>2020-05-21T06:46:20Z</time>
      </trkpt>
      <trkpt lat="43.347720" lon="-5.083660">
        <ele>84.913</ele>
        <time>2020-05-21T06:46:40Z</time>
      </trkpt>
      <trkpt lat="43.347710" lon="-5.083690">
        <ele>84.808</ele>
        <time>2020-05-21T06:47:00Z</time>
      </trkpt>
      <trkpt lat="43.347510" lon="-5.084620">
        <ele>82.090</ele>
        <time>2020-05-21T06:47:20Z</time>
      </trkpt>
      <trkpt lat="43.347390" lon="-5.085130">
        <ele>82.345</ele>
        <time>2020-05-21T06:47:40Z</time>
      </trkpt>
      <trkpt lat="43.347380" lon="-5.085170">
        <ele>82.451</ele>
        <time>2020-05-21T06:48:00Z</time>
      </trkpt>
      <trkpt lat="43.347350" lon="-5.085280">
        <ele>83.094</ele>
        <time>2020-05-21T06:48:20Z</time>
      </trkpt>
      <trkpt lat="43.347310" lon="-5.085380">
        <ele>83.374</ele>
        <time>2020-05-21T06:48:40Z</time>
      </trkpt>
      <trkpt lat="43.347290" lon="-5.085430">
        <ele>83.464</ele>
        <time>2020-05-21T06:49:00Z</time>
      </trkpt>
      <trkpt lat="43.347260" lon="-5.085490">
        <ele>83.744</ele>
        <time>2020-05-21T06:49:20Z</time>
      </trkpt>
      <trkpt lat="43.347220" lon="-5.085580">
        <ele>84.083</ele>
        <time>2020-05-21T06:49:40Z</time>
      </trkpt>
      <trkpt lat="43.347210" lon="-5.085590">
        <ele>84.046</ele>
        <time>2020-05-21T06:50:00Z</time>
      </trkpt>
      <trkpt lat="43.347160" lon="-5.085720">
        <ele>84.088</ele>
        <time>2020-05-21T06:50:20Z</time>
      </trkpt>
      <trkpt lat="43.347140" lon="-5.085750">
        <ele>84.016</ele>
        <time>2020-05-21T06:50:40Z</time>
      </trkpt>
      <trkpt lat="43.347130" lon="-5.085790">
        <ele>84.008</ele>
        <time>2020-05-21T06:51:00Z</time>
      </trkpt>
      <trkpt lat="43.347070" lon="-5.085940">
        <ele>84.238</ele>
        <time>2020-05-21T06:51:20Z</time>
      </trkpt>
      <trkpt lat="43.347080" lon="-5.085960">
        <ele>84.233</ele>
        <time>2020-05-21T06:51:40Z</time>
      </trkpt>
      <trkpt lat="43.347090" lon="-5.085980">
        <ele>84.389</ele>
        <time>2020-05-21T06:52:00Z</time>
      </trkpt>
      <trkpt lat="43.347090" lon="-5.086010">
        <ele>84.392</ele>
        <time>2020-05-21T06:52:20Z</time>
      </trkpt>
      <trkpt lat="43.347090" lon="-5.086040">
        <ele>84.422</ele>
        <time>2020-05-21T06:52:40Z</time>
      </trkpt>
      <trkpt lat="43.347090" lon="-5.086070">
        <ele>84.482</ele>
        <time>2020-05-21T06:53:00Z</time>
      </trkpt>
      <trkpt lat="43.347060" lon="-5.086180">
        <ele>84.632</ele>
        <time>2020-05-21T06:53:20Z</time>
      </trkpt>
      <trkpt lat="43.347050" lon="-5.086230">
        <ele>84.681</ele>
        <time>2020-05-21T06:53:40Z</time>
      </trkpt>
      <trkpt lat="43.347030" lon="-5.086250">
        <ele>84.797</ele>
        <time>2020-05-21T06:54:00Z</time>
      </trkpt>
      <trkpt lat="43.347020" lon="-5.086270">
        <ele>84.723</ele>
        <time>2020-05-21T06:54:20Z</time>
      </trkpt>
      <trkpt lat="43.346980" lon="-5.086390">
        <ele>84.925</ele>
        <time>2020-05-21T06:54:40Z</time>
      </trkpt>
      <trkpt lat="43.346970" lon="-5.086460">
        <ele>84.908</ele>
        <time>2020-05-21T06:55:00Z</time>
      </trkpt>
      <trkpt lat="43.346950" lon="-5.086570">
        <ele>85.063</ele>
        <time>2020-05-21T06:55:20Z</time>
      </trkpt>
      <trkpt lat="43.346930" lon="-5.086680">
        <ele>85.078</ele>
        <time>2020-05-21T06:55:40Z</time>
      </trkpt>
      <trkpt lat="43.347010" lon="-5.087090">
        <ele>84.454</ele>
        <time>2020-05-21T06:56:00Z</time>
      </trkpt>
      <trkpt lat="43.347290" lon="-5.088020">
        <ele>83.857</ele>
        <time>2020-05-21T06:56:20Z</time>
      </trkpt>
      <trkpt lat="43.347400" lon="-5.088290">
        <ele>83.157</ele>
        <time>2020-05-21T06:56:40Z</time>
      </trkpt>
      <trkpt lat="43.347900" lon="-5.089530">
        <ele>80.797</ele>
        <time>2020-05-21T06:57:00Z</time>
      </trkpt>
      <trkpt lat="43.347920" lon="-5.089580">
        <ele>80.767</ele>
        <time>2020-05-21T06:57:20Z</time>
      </trkpt>
      <trkpt lat="43.348160" lon="-5.090180">
        <ele>80.666</ele>
        <time>2020-05-21T06:57:40Z</time>
      </trkpt>
      <trkpt lat="43.348320" lon="-5.090550">
        <ele>81.069</ele>
        <time>2020-05-21T06:58:00Z</time>
      </trkpt>
      <trkpt lat="43.348460" lon="-5.090850">
        <ele>82.004</ele>
        <time>2020-05-21T06:58:20Z</time>
      </trkpt>
      <trkpt lat="43.348590" lon="-5.091090">
        <ele>81.124</ele>
        <time>2020-05-21T06:58:40Z</time>
      </trkpt>
      <trkpt lat="43.348680" lon="-5.091250">
        <ele>81.408</ele>
        <time>2020-05-21T06:59:00Z</time>
      </trkpt>
      <trkpt lat="43.348880" lon="-5.091600">
        <ele>81.020</ele>
        <time>2020-05-21T06:59:20Z</time>
      </trkpt>
      <trkpt lat="43.349460" lon="-5.092660">
        <ele>80.585</ele>
        <time>2020-05-21T06:59:40Z</time>
      </trkpt>
      <trkpt lat="43.349560" lon="-5.092860">
        <ele>80.411</ele>
        <time>2020-05-21T07:00:00Z</time>
      </trkpt>
      <trkpt lat="43.349580" lon="-5.092910">
        <ele>80.394</ele>
        <time>2020-05-21T07:00:20Z</time>
      </trkpt>
      <trkpt lat="43.349700" lon="-5.093140">
        <ele>80.014</ele>
        <time>2020-05-21T07:00:40Z</time>
      </trkpt>
      <trkpt lat="43.349920" lon="-5.093540">
        <ele>80.084</ele>
        <time>2020-05-21T07:01:00Z</time>
      </trkpt>
      <trkpt lat="43.350150" lon="-5.093950">
        <ele>79.614</ele>
        <time>2020-05-21T07:01:20Z</time>
      </trkpt>
      <trkpt lat="43.350410" lon="-5.094460">
        <ele>79.033</ele>
        <time>2020-05-21T07:01:40Z</time>
      </trkpt>
      <trkpt lat="43.350580" lon="-5.094890">
        <ele>80.179</ele>
        <time>2020-05-21T07:02:00Z</time>
      </trkpt>
      <trkpt lat="43.350680" lon="-5.095330">
        <ele>82.505</ele>
        <time>2020-05-21T07:02:20Z</time>
      </trkpt>
      <trkpt lat="43.350710" lon="-5.095730">
        <ele>82.325</ele>
        <time>2020-05-21T07:02:40Z</time>
      </trkpt>
      <trkpt lat="43.350700" lon="-5.095950">
        <ele>81.708</ele>
        <time>2020-05-21T07:03:00Z</time>
      </trkpt>
      <trkpt lat="43.350680" lon="-5.096170">
        <ele>81.011</ele>
        <time>2020-05-21T07:03:20Z</time>
      </trkpt>
      <trkpt lat="43.350630" lon="-5.096410">
        <ele>80.196</ele>
        <time>2020-05-21T07:03:40Z</time>
      </trkpt>
      <trkpt lat="43.350570" lon="-5.096660">
        <ele>79.062</ele>
        <time>2020-05-21T07:04:00Z</time>
      </trkpt>
      <trkpt lat="43.350520" lon="-5.096800">
        <ele>80.795</ele>
        <time>2020-05-21T07:04:20Z</time>
      </trkpt>
      <trkpt lat="43.350490" lon="-5.096860">
        <ele>81.915</ele>
        <time>2020-05-21T07:04:40Z</time>
      </trkpt>
      <trkpt lat="43.350380" lon="-5.097210">
        <ele>81.795</ele>
        <time>2020-05-21T07:05:00Z</time>
      </trkpt>
      <trkpt lat="43.350170" lon="-5.097910">
        <ele>81.445</ele>
        <time>2020-05-21T07:05:20Z</time>
      </trkpt>
      <trkpt lat="43.350050" lon="-5.098280">
        <ele>80.124</ele>
        <time>2020-05-21T07:05:40Z</time>
      </trkpt>
      <trkpt lat="43.350030" lon="-5.098330">
        <ele>79.639</ele>
        <time>2020-05-21T07:06:00Z</time>
      </trkpt>
      <trkpt lat="43.349900" lon="-5.098760">
        <ele>77.701</ele>
        <time>2020-05-21T07:06:20Z</time>
      </trkpt>
      <trkpt lat="43.349810" lon="-5.099090">
        <ele>77.521</ele>
        <time>2020-05-21T07:06:40Z</time>
      </trkpt>
      <trkpt lat="43.349710" lon="-5.099500">
        <ele>77.808</ele>
        <time>2020-05-21T07:07:00Z</time>
      </trkpt>
      <trkpt lat="43.349630" lon="-5.099950">
        <ele>77.167</ele>
        <time>2020-05-21T07:07:20Z</time>
      </trkpt>
      <trkpt lat="43.349530" lon="-5.100690">
        <ele>75.932</ele>
        <time>2020-05-21T07:07:40Z</time>
      </trkpt>
      <trkpt lat="43.349500" lon="-5.100900">
        <ele>75.848</ele>
        <time>2020-05-21T07:08:00Z</time>
      </trkpt>
      <trkpt lat="43.349450" lon="-5.101450">
        <ele>75.031</ele>
        <time>2020-05-21T07:08:20Z</time>
      </trkpt>
      <trkpt lat="43.349420" lon="-5.101820">
        <ele>75.171</ele>
        <time>2020-05-21T07:08:40Z</time>
      </trkpt>
      <trkpt lat="43.349420" lon="-5.101920">
        <ele>75.271</ele>
        <time>2020-05-21T07:09:00Z</time>
      </trkpt>
      <trkpt lat="43.349410" lon="-5.102140">
        <ele>75.281</ele>
        <time>2020-05-21T07:09:20Z</time>
      </trkpt>
      <trkpt lat="43.349420" lon="-5.102440">
        <ele>74.360</ele>
        <time>2020-05-21T07:09:40Z</time>
      </trkpt>
      <trkpt lat="43.349450" lon="-5.102660">
        <ele>73.957</ele>
        <time>2020-05-21T07:10:00Z</time>
      </trkpt>
      <trkpt lat="43.349450" lon="-5.102670">
        <ele>73.900</ele>
        <time>2020-05-21T07:10:20Z</time>
      </trkpt>
      <trkpt lat="43.349520" lon="-5.103230">
        <ele>74.520</ele>
        <time>2020-05-21T07:10:40Z</time>
      </trkpt>
      <trkpt lat="43.349600" lon="-5.103760">
        <ele>76.208</ele>
        <time>2020-05-21T07:11:00Z</time>
      </trkpt>
      <trkpt lat="43.349610" lon="-5.103870">
        <ele>76.759</ele>
        <time>2020-05-21T07:11:20Z</time>
      </trkpt>
      <trkpt lat="43.349640" lon="-5.104030">
        <ele>76.974</ele>
        <time>2020-05-21T07:11:40Z</time>
      </trkpt>
      <trkpt lat="43.349660" lon="-5.104160">
        <ele>76.940</ele>
        <time>2020-05-21T07:12:00Z</time>
      </trkpt>
      <trkpt lat="43.349680" lon="-5.104270">
        <ele>76.943</ele>
        <time>2020-05-21T07:12:20Z</time>
      </trkpt>
      <trkpt lat="43.349690" lon="-5.104330">
        <ele>76.933</ele>
        <time>2020-05-21T07:12:40Z</time>
      </trkpt>
      <trkpt lat="43.349700" lon="-5.104410">
        <ele>77.113</ele>
        <time>2020-05-21T07:13:00Z</time>
      </trkpt>
      <trkpt lat="43.349800" lon="-5.105070">
        <ele>77.683</ele>
        <time>2020-05-21T07:13:20Z</time>
      </trkpt>
      <trkpt lat="43.349920" lon="-5.105790">
        <ele>76.012</ele>
        <time>2020-05-21T07:13:40Z</time>
      </trkpt>
      <trkpt lat="43.350140" lon="-5.107130">
        <ele>73.545</ele>
        <time>2020-05-21T07:14:00Z</time>
      </trkpt>
      <trkpt lat="43.350150" lon="-5.107200">
        <ele>73.447</ele>
        <time>2020-05-21T07:14:20Z</time>
      </trkpt>
      <trkpt lat="43.350180" lon="-5.107400">
        <ele>73.711</ele>
        <time>2020-05-21T07:14:40Z</time>
      </trkpt>
      <trkpt lat="43.350210" lon="-5.107580">
        <ele>73.808</ele>
        <time>2020-05-21T07:15:00Z</time>
      </trkpt>
      <trkpt lat="43.350240" lon="-5.107710">
        <ele>73.518</ele>
        <time>2020-05-21T07:15:20Z</time>
      </trkpt>
      <trkpt lat="43.350260" lon="-5.107840">
        <ele>73.343</ele>
        <time>2020-05-21T07:15:40Z</time>
      </trkpt>
      <trkpt lat="43.350280" lon="-5.107950">
        <ele>73.059</ele>
        <time>2020-05-21T07:16:00Z</time>
      </trkpt>
      <trkpt lat="43.350300" lon="-5.108010">
        <ele>72.942</ele>
        <time>2020-05-21T07:16:20Z</time>
      </trkpt>
      <trkpt lat="43.350320" lon="-5.108090">
        <ele>72.982</ele>
        <time>2020-05-21T07:16:40Z</time>
      </trkpt>
      <trkpt lat="43.350340" lon="-5.108180">
        <ele>73.252</ele>
        <time>2020-05-21T07:17:00Z</time>
      </trkpt>
      <trkpt lat="43.350350" lon="-5.108240">
        <ele>73.572</ele>
        <time>2020-05-21T07:17:20Z</time>
      </trkpt>
      <trkpt lat="43.350370" lon="-5.108310">
        <ele>73.641</ele>
        <time>2020-05-21T07:17:40Z</time>
      </trkpt>
      <trkpt lat="43.350380" lon="-5.108350">
        <ele>73.627</ele>
        <time>2020-05-21T07:18:00Z</time>
      </trkpt>
      <trkpt lat="43.350400" lon="-5.108430">
        <ele>73.668</ele>
        <time>2020-05-21T07:18:20Z</time>
      </trkpt>
      <trkpt lat="43.350420" lon="-5.108500">
        <ele>73.614</ele>
        <time>2020-05-21T07:18:40Z</time>
      </trkpt>
      <trkpt lat="43.350460" lon="-5.108630">
        <ele>73.508</ele>
        <time>2020-05-21T07:19:00Z</time>
      </trkpt>
      <trkpt lat="43.350490" lon="-5.108710">
        <ele>73.426</ele>
        <time>2020-05-21T07:19:20Z</time>
      </trkpt>
      <trkpt lat="43.350510" lon="-5.108780">
        <ele>73.451</ele>
        <time>2020-05-21T07:19:40Z</time>
      </trkpt>
      <trkpt lat="43.350700" lon="-5.108950">
        <ele>72.717</ele>
        <time>2020-05-21T07:20:00Z</time>
      </trkpt>
      <trkpt lat="43.350704" lon="-5.108953">
        <ele>72.710</ele>
        <time>2020-05-21T07:20:20Z</time>
      </trkpt>
      <trkpt lat="43.350780" lon="-5.108940">
        <ele>72.530</ele>
        <time>2020-05-21T07:20:40Z</time>
      </trkpt>
      <trkpt lat="43.350820" lon="-5.108940">
        <ele>72.440</ele>
        <time>2020-05-21T07:21:00Z</time>
      </trkpt>
      <trkpt lat="43.350860" lon="-5.108950">
        <ele>72.350</ele>
        <time>2020-05-21T07:21:20Z</time>
      </trkpt>
      <trkpt lat="43.350900" lon="-5.108960">
        <ele>72.339</ele>
        <time>2020-05-21T07:21:40Z</time>
      </trkpt>
      <trkpt lat="43.350940" lon="-5.108990">
        <ele>72.345</ele>
        <time>2020-05-21T07:22:00Z</time>
      </trkpt>
      <trkpt lat="43.350980" lon="-5.109020">
        <ele>72.447</ele>
        <time>2020-05-21T07:22:20Z</time>
      </trkpt>
      <trkpt lat="43.351010" lon="-5.109060">
        <ele>72.611</ele>
        <time>2020-05-21T07:22:40Z</time>
      </trkpt>
      <trkpt lat="43.351040" lon="-5.109100">
        <ele>72.808</ele>
        <time>2020-05-21T07:23:00Z</time>
      </trkpt>
      <trkpt lat="43.351070" lon="-5.109150">
        <ele>73.048</ele>
        <time>2020-05-21T07:23:20Z</time>
      </trkpt>
      <trkpt lat="43.351080" lon="-5.109210">
        <ele>73.193</ele>
        <time>2020-05-21T07:23:40Z</time>
      </trkpt>
      <trkpt lat="43.351100" lon="-5.109260">
        <ele>73.139</ele>
        <time>2020-05-21T07:24:00Z</time>
      </trkpt>
      <trkpt lat="43.351100" lon="-5.109320">
        <ele>73.142</ele>
        <time>2020-05-21T07:24:20Z</time>
      </trkpt>
      <trkpt lat="43.351110" lon="-5.109380">
        <ele>73.032</ele>
        <time>2020-05-21T07:24:40Z</time>
      </trkpt>
      <trkpt lat="43.351100" lon="-5.109440">
        <ele>73.192</ele>
        <time>2020-05-21T07:25:00Z</time>
      </trkpt>
      <trkpt lat="43.351090" lon="-5.109500">
        <ele>72.962</ele>
        <time>2020-05-21T07:25:20Z</time>
      </trkpt>
      <trkpt lat="43.351070" lon="-5.109550">
        <ele>72.951</ele>
        <time>2020-05-21T07:25:40Z</time>
      </trkpt>
      <trkpt lat="43.351050" lon="-5.109610">
        <ele>72.726</ele>
        <time>2020-05-21T07:26:00Z</time>
      </trkpt>
      <trkpt lat="43.351020" lon="-5.109650">
        <ele>72.747</ele>
        <time>2020-05-21T07:26:20Z</time>
      </trkpt>
      <trkpt lat="43.350990" lon="-5.109690">
        <ele>72.611</ele>
        <time>2020-05-21T07:26:40Z</time>
      </trkpt>
      <trkpt lat="43.350960" lon="-5.109730">
        <ele>72.508</ele>
        <time>2020-05-21T07:27:00Z</time>
      </trkpt>
      <trkpt lat="43.350940" lon="-5.109740">
        <ele>72.526</ele>
        <time>2020-05-21T07:27:20Z</time>
      </trkpt>
      <trkpt lat="43.350920" lon="-5.109750">
        <ele>72.591</ele>
        <time>2020-05-21T07:27:40Z</time>
      </trkpt>
      <trkpt lat="43.350910" lon="-5.109760">
        <ele>72.427</ele>
        <time>2020-05-21T07:28:00Z</time>
      </trkpt>
      <trkpt lat="43.350890" lon="-5.109770">
        <ele>72.470</ele>
        <time>2020-05-21T07:28:20Z</time>
      </trkpt>
      <trkpt lat="43.350870" lon="-5.109770">
        <ele>72.580</ele>
        <time>2020-05-21T07:28:40Z</time>
      </trkpt>
      <trkpt lat="43.350850" lon="-5.109770">
        <ele>72.670</ele>
        <time>2020-05-21T07:29:00Z</time>
      </trkpt>
      <trkpt lat="43.350840" lon="-5.109780">
        <ele>72.620</ele>
        <time>2020-05-21T07:29:20Z</time>
      </trkpt>
      <trkpt lat="43.350820" lon="-5.109780">
        <ele>72.649</ele>
        <time>2020-05-21T07:29:40Z</time>
      </trkpt>
      <trkpt lat="43.350800" lon="-5.109780">
        <ele>72.611</ele>
        <time>2020-05-21T07:30:00Z</time>
      </trkpt>
      <trkpt lat="43.350780" lon="-5.109770">
        <ele>72.721</ele>
        <time>2020-05-21T07:30:20Z</time>
      </trkpt>
      <trkpt lat="43.350760" lon="-5.109770">
        <ele>72.703</ele>
        <time>2020-05-21T07:30:40Z</time>
      </trkpt>
      <trkpt lat="43.350750" lon="-5.109760">
        <ele>72.808</ele>
        <time>2020-05-21T07:31:00Z</time>
      </trkpt>
      <trkpt lat="43.350730" lon="-5.109760">
        <ele>72.895</ele>
        <time>2020-05-21T07:31:20Z</time>
      </trkpt>
      <trkpt lat="43.350710" lon="-5.109750">
        <ele>72.890</ele>
        <time>2020-05-21T07:31:40Z</time>
      </trkpt>
      <trkpt lat="43.350690" lon="-5.109740">
        <ele>72.976</ele>
        <time>2020-05-21T07:32:00Z</time>
      </trkpt>
      <trkpt lat="43.350680" lon="-5.109730">
        <ele>73.099</ele>
        <time>2020-05-21T07:32:20Z</time>
      </trkpt>
      <trkpt lat="43.350530" lon="-5.109870">
        <ele>73.469</ele>
        <time>2020-05-21T07:32:40Z</time>
      </trkpt>
      <trkpt lat="43.350460" lon="-5.110080">
        <ele>75.459</ele>
        <time>2020-05-21T07:33:00Z</time>
      </trkpt>
      <trkpt lat="43.350410" lon="-5.110350">
        <ele>75.069</ele>
        <time>2020-05-21T07:33:20Z</time>
      </trkpt>
      <trkpt lat="43.350410" lon="-5.110360">
        <ele>74.978</ele>
        <time>2020-05-21T07:33:40Z</time>
      </trkpt>
      <trkpt lat="43.350390" lon="-5.110470">
        <ele>74.583</ele>
        <time>2020-05-21T07:34:00Z</time>
      </trkpt>
      <trkpt lat="43.350390" lon="-5.110630">
        <ele>72.825</ele>
        <time>2020-05-21T07:34:20Z</time>
      </trkpt>
      <trkpt lat="43.350400" lon="-5.111060">
        <ele>70.317</ele>
        <time>2020-05-21T07:34:40Z</time>
      </trkpt>
      <trkpt lat="43.350450" lon="-5.111690">
        <ele>70.808</ele>
        <time>2020-05-21T07:35:00Z</time>
      </trkpt>
      <trkpt lat="43.350490" lon="-5.112660">
        <ele>70.242</ele>
        <time>2020-05-21T07:35:20Z</time>
      </trkpt>
      <trkpt lat="43.350500" lon="-5.113250">
        <ele>70.057</ele>
        <time>2020-05-21T07:35:40Z</time>
      </trkpt>
      <trkpt lat="43.350480" lon="-5.113840">
        <ele>69.993</ele>
        <time>2020-05-21T07:36:00Z</time>
      </trkpt>
      <trkpt lat="43.350460" lon="-5.114290">
        <ele>68.876</ele>
        <time>2020-05-21T07:36:20Z</time>
      </trkpt>
      <trkpt lat="43.350400" lon="-5.115070">
        <ele>67.736</ele>
        <time>2020-05-21T07:36:40Z</time>
      </trkpt>
      <trkpt lat="43.350380" lon="-5.115620">
        <ele>68.996</ele>
        <time>2020-05-21T07:37:00Z</time>
      </trkpt>
      <trkpt lat="43.350370" lon="-5.115890">
        <ele>69.656</ele>
        <time>2020-05-21T07:37:20Z</time>
      </trkpt>
      <trkpt lat="43.350370" lon="-5.116200">
        <ele>70.755</ele>
        <time>2020-05-21T07:37:40Z</time>
      </trkpt>
      <trkpt lat="43.350390" lon="-5.116600">
        <ele>70.447</ele>
        <time>2020-05-21T07:38:00Z</time>
      </trkpt>
      <trkpt lat="43.350400" lon="-5.116870">
        <ele>70.629</ele>
        <time>2020-05-21T07:38:20Z</time>
      </trkpt>
      <trkpt lat="43.350450" lon="-5.117290">
        <ele>70.421</ele>
        <time>2020-05-21T07:38:40Z</time>
      </trkpt>
      <trkpt lat="43.350460" lon="-5.117350">
        <ele>70.708</ele>
        <time>2020-05-21T07:39:00Z</time>
      </trkpt>
      <trkpt lat="43.350670" lon="-5.118590">
        <ele>69.438</ele>
        <time>2020-05-21T07:39:20Z</time>
      </trkpt>
      <trkpt lat="43.350680" lon="-5.118780">
        <ele>69.773</ele>
        <time>2020-05-21T07:39:40Z</time>
      </trkpt>
      <trkpt lat="43.350700" lon="-5.118990">
        <ele>69.869</ele>
        <time>2020-05-21T07:40:00Z</time>
      </trkpt>
      <trkpt lat="43.350730" lon="-5.119540">
        <ele>70.112</ele>
        <time>2020-05-21T07:40:20Z</time>
      </trkpt>
      <trkpt lat="43.350760" lon="-5.120020">
        <ele>68.452</ele>
        <time>2020-05-21T07:40:40Z</time>
      </trkpt>
      <trkpt lat="43.350780" lon="-5.120470">
        <ele>66.822</ele>
        <time>2020-05-21T07:41:00Z</time>
      </trkpt>
      <trkpt lat="43.350800" lon="-5.121220">
        <ele>65.982</ele>
        <time>2020-05-21T07:41:20Z</time>
      </trkpt>
      <trkpt lat="43.350810" lon="-5.121540">
        <ele>65.091</ele>
        <time>2020-05-21T07:41:40Z</time>
      </trkpt>
      <trkpt lat="43.350810" lon="-5.121750">
        <ele>65.237</ele>
        <time>2020-05-21T07:42:00Z</time>
      </trkpt>
      <trkpt lat="43.350820" lon="-5.122230">
        <ele>65.549</ele>
        <time>2020-05-21T07:42:20Z</time>
      </trkpt>
      <trkpt lat="43.350830" lon="-5.122530">
        <ele>65.113</ele>
        <time>2020-05-21T07:42:40Z</time>
      </trkpt>
      <trkpt lat="43.350830" lon="-5.123000">
        <ele>65.008</ele>
        <time>2020-05-21T07:43:00Z</time>
      </trkpt>
      <trkpt lat="43.350840" lon="-5.123520">
        <ele>64.967</ele>
        <time>2020-05-21T07:43:20Z</time>
      </trkpt>
      <trkpt lat="43.350840" lon="-5.123600">
        <ele>64.972</ele>
        <time>2020-05-21T07:43:40Z</time>
      </trkpt>
      <trkpt lat="43.350840" lon="-5.124180">
        <ele>65.978</ele>
        <time>2020-05-21T07:44:00Z</time>
      </trkpt>
      <trkpt lat="43.350880" lon="-5.124930">
        <ele>66.471</ele>
        <time>2020-05-21T07:44:20Z</time>
      </trkpt>
      <trkpt lat="43.350890" lon="-5.125040">
        <ele>66.721</ele>
        <time>2020-05-21T07:44:40Z</time>
      </trkpt>
      <trkpt lat="43.350940" lon="-5.125720">
        <ele>66.261</ele>
        <time>2020-05-21T07:45:00Z</time>
      </trkpt>
      <trkpt lat="43.350970" lon="-5.125980">
        <ele>65.311</ele>
        <time>2020-05-21T07:45:20Z</time>
      </trkpt>
      <trkpt lat="43.350970" lon="-5.126240">
        <ele>64.810</ele>
        <time>2020-05-21T07:45:40Z</time>
      </trkpt>
      <trkpt lat="43.350980" lon="-5.126560">
        <ele>64.269</ele>
        <time>2020-05-21T07:46:00Z</time>
      </trkpt>
      <trkpt lat="43.351000" lon="-5.126820">
        <ele>64.004</ele>
        <time>2020-05-21T07:46:20Z</time>
      </trkpt>
      <trkpt lat="43.351000" lon="-5.126890">
        <ele>64.024</ele>
        <time>2020-05-21T07:46:40Z</time>
      </trkpt>
      <trkpt lat="43.351020" lon="-5.127140">
        <ele>63.508</ele>
        <time>2020-05-21T07:47:00Z</time>
      </trkpt>
      <trkpt lat="43.351040" lon="-5.127400">
        <ele>63.320</ele>
        <time>2020-05-21T07:47:20Z</time>
      </trkpt>
      <trkpt lat="43.351040" lon="-5.127830">
        <ele>63.245</ele>
        <time>2020-05-21T07:47:40Z</time>
      </trkpt>
      <trkpt lat="43.350990" lon="-5.128250">
        <ele>63.041</ele>
        <time>2020-05-21T07:48:00Z</time>
      </trkpt>
      <trkpt lat="43.350920" lon="-5.128740">
        <ele>63.054</ele>
        <time>2020-05-21T07:48:20Z</time>
      </trkpt>
      <trkpt lat="43.350860" lon="-5.129290">
        <ele>63.554</ele>
        <time>2020-05-21T07:48:40Z</time>
      </trkpt>
      <trkpt lat="43.350810" lon="-5.129730">
        <ele>63.094</ele>
        <time>2020-05-21T07:49:00Z</time>
      </trkpt>
      <trkpt lat="43.350760" lon="-5.130190">
        <ele>63.844</ele>
        <time>2020-05-21T07:49:20Z</time>
      </trkpt>
      <trkpt lat="43.350720" lon="-5.130450">
        <ele>64.163</ele>
        <time>2020-05-21T07:49:40Z</time>
      </trkpt>
      <trkpt lat="43.350700" lon="-5.130640">
        <ele>64.387</ele>
        <time>2020-05-21T07:50:00Z</time>
      </trkpt>
      <trkpt lat="43.350680" lon="-5.130920">
        <ele>64.142</ele>
        <time>2020-05-21T07:50:20Z</time>
      </trkpt>
      <trkpt lat="43.350640" lon="-5.131180">
        <ele>64.026</ele>
        <time>2020-05-21T07:50:40Z</time>
      </trkpt>
      <trkpt lat="43.350640" lon="-5.131560">
        <ele>63.408</ele>
        <time>2020-05-21T07:51:00Z</time>
      </trkpt>
      <trkpt lat="43.350636" lon="-5.131557">
        <ele>63.462</ele>
        <time>2020-05-21T07:51:20Z</time>
      </trkpt>
      <trkpt lat="43.350540" lon="-5.132380">
        <ele>60.477</ele>
        <time>2020-05-21T07:51:40Z</time>
      </trkpt>
      <trkpt lat="43.350530" lon="-5.132440">
        <ele>61.763</ele>
        <time>2020-05-21T07:52:00Z</time>
      </trkpt>
      <trkpt lat="43.350530" lon="-5.132470">
        <ele>62.336</ele>
        <time>2020-05-21T07:52:20Z</time>
      </trkpt>
      <trkpt lat="43.350530" lon="-5.132510">
        <ele>62.946</ele>
        <time>2020-05-21T07:52:40Z</time>
      </trkpt>
      <trkpt lat="43.350540" lon="-5.132540">
        <ele>63.146</ele>
        <time>2020-05-21T07:53:00Z</time>
      </trkpt>
      <trkpt lat="43.350550" lon="-5.132580">
        <ele>63.366</ele>
        <time>2020-05-21T07:53:20Z</time>
      </trkpt>
      <trkpt lat="43.350570" lon="-5.132660">
        <ele>63.555</ele>
        <time>2020-05-21T07:53:40Z</time>
      </trkpt>
      <trkpt lat="43.350650" lon="-5.132740">
        <ele>63.869</ele>
        <time>2020-05-21T07:54:00Z</time>
      </trkpt>
      <trkpt lat="43.350670" lon="-5.132750">
        <ele>63.804</ele>
        <time>2020-05-21T07:54:20Z</time>
      </trkpt>
      <trkpt lat="43.350700" lon="-5.132780">
        <ele>64.024</ele>
        <time>2020-05-21T07:54:40Z</time>
      </trkpt>
      <trkpt lat="43.350760" lon="-5.132810">
        <ele>64.008</ele>
        <time>2020-05-21T07:55:00Z</time>
      </trkpt>
      <trkpt lat="43.351060" lon="-5.132900">
        <ele>63.240</ele>
        <time>2020-05-21T07:55:20Z</time>
      </trkpt>
      <trkpt lat="43.351650" lon="-5.133150">
        <ele>61.475</ele>
        <time>2020-05-21T07:55:40Z</time>
      </trkpt>
      <trkpt lat="43.351880" lon="-5.133260">
        <ele>61.781</ele>
        <time>2020-05-21T07:56:00Z</time>
      </trkpt>
      <trkpt lat="43.352360" lon="-5.133470">
        <ele>62.234</ele>
        <time>2020-05-21T07:56:20Z</time>
      </trkpt>
      <trkpt lat="43.352590" lon="-5.133580">
        <ele>62.044</ele>
        <time>2020-05-21T07:56:40Z</time>
      </trkpt>
      <trkpt lat="43.354750" lon="-5.134540">
        <ele>61.364</ele>
        <time>2020-05-21T07:57:00Z</time>
      </trkpt>
      <trkpt lat="43.354930" lon="-5.134620">
        <ele>61.254</ele>
        <time>2020-05-21T07:57:20Z</time>
      </trkpt>
      <trkpt lat="43.355110" lon="-5.134730">
        <ele>61.113</ele>
        <time>2020-05-21T07:57:40Z</time>
      </trkpt>
      <trkpt lat="43.355240" lon="-5.134820">
        <ele>61.833</ele>
        <time>2020-05-21T07:58:00Z</time>
      </trkpt>
      <trkpt lat="43.355370" lon="-5.134920">
        <ele>61.923</ele>
        <time>2020-05-21T07:58:20Z</time>
      </trkpt>
      <trkpt lat="43.355480" lon="-5.135020">
        <ele>61.815</ele>
        <time>2020-05-21T07:58:40Z</time>
      </trkpt>
      <trkpt lat="43.355560" lon="-5.135120">
        <ele>61.808</ele>
        <time>2020-05-21T07:59:00Z</time>
      </trkpt>
      <trkpt lat="43.355680" lon="-5.135260">
        <ele>62.037</ele>
        <time>2020-05-21T07:59:20Z</time>
      </trkpt>
      <trkpt lat="43.355700" lon="-5.135280">
        <ele>62.072</ele>
        <time>2020-05-21T07:59:40Z</time>
      </trkpt>
      <trkpt lat="43.356150" lon="-5.136050">
        <ele>61.548</ele>
        <time>2020-05-21T08:00:00Z</time>
      </trkpt>
      <trkpt lat="43.356260" lon="-5.136250">
        <ele>61.221</ele>
        <time>2020-05-21T08:00:20Z</time>
      </trkpt>
      <trkpt lat="43.356480" lon="-5.136630">
        <ele>60.661</ele>
        <time>2020-05-21T08:00:40Z</time>
      </trkpt>
      <trkpt lat="43.356590" lon="-5.136820">
        <ele>60.641</ele>
        <time>2020-05-21T08:01:00Z</time>
      </trkpt>
      <trkpt lat="43.356700" lon="-5.137010">
        <ele>59.931</ele>
        <time>2020-05-21T08:01:20Z</time>
      </trkpt>
      <trkpt lat="43.356740" lon="-5.137070">
        <ele>59.970</ele>
        <time>2020-05-21T08:01:40Z</time>
      </trkpt>
      <trkpt lat="43.356930" lon="-5.137230">
        <ele>60.078</ele>
        <time>2020-05-21T08:02:00Z</time>
      </trkpt>
      <trkpt lat="43.356950" lon="-5.137230">
        <ele>60.033</ele>
        <time>2020-05-21T08:02:20Z</time>
      </trkpt>
      <trkpt lat="43.356960" lon="-5.137220">
        <ele>59.926</ele>
        <time>2020-05-21T08:02:40Z</time>
      </trkpt>
      <trkpt lat="43.356970" lon="-5.137220">
        <ele>59.908</ele>
        <time>2020-05-21T08:03:00Z</time>
      </trkpt>
      <trkpt lat="43.356990" lon="-5.137210">
        <ele>59.861</ele>
        <time>2020-05-21T08:03:20Z</time>
      </trkpt>
      <trkpt lat="43.357000" lon="-5.137210">
        <ele>59.866</ele>
        <time>2020-05-21T08:03:40Z</time>
      </trkpt>
      <trkpt lat="43.357010" lon="-5.137210">
        <ele>59.792</ele>
        <time>2020-05-21T08:04:00Z</time>
      </trkpt>
      <trkpt lat="43.357030" lon="-5.137200">
        <ele>59.695</ele>
        <time>2020-05-21T08:04:20Z</time>
      </trkpt>
      <trkpt lat="43.357040" lon="-5.137200">
        <ele>59.655</ele>
        <time>2020-05-21T08:04:40Z</time>
      </trkpt>
      <trkpt lat="43.357060" lon="-5.137200">
        <ele>59.555</ele>
        <time>2020-05-21T08:05:00Z</time>
      </trkpt>
      <trkpt lat="43.357080" lon="-5.137200">
        <ele>59.555</ele>
        <time>2020-05-21T08:05:20Z</time>
      </trkpt>
      <trkpt lat="43.357100" lon="-5.137200">
        <ele>59.414</ele>
        <time>2020-05-21T08:05:40Z</time>
      </trkpt>
      <trkpt lat="43.357120" lon="-5.137200">
        <ele>59.316</ele>
        <time>2020-05-21T08:06:00Z</time>
      </trkpt>
      <trkpt lat="43.357140" lon="-5.137200">
        <ele>59.376</ele>
        <time>2020-05-21T08:06:20Z</time>
      </trkpt>
      <trkpt lat="43.357160" lon="-5.137210">
        <ele>59.213</ele>
        <time>2020-05-21T08:06:40Z</time>
      </trkpt>
      <trkpt lat="43.357190" lon="-5.137220">
        <ele>59.108</ele>
        <time>2020-05-21T08:07:00Z</time>
      </trkpt>
      <trkpt lat="43.357210" lon="-5.137220">
        <ele>59.095</ele>
        <time>2020-05-21T08:07:20Z</time>
      </trkpt>
      <trkpt lat="43.357230" lon="-5.137250">
        <ele>59.140</ele>
        <time>2020-05-21T08:07:40Z</time>
      </trkpt>
      <trkpt lat="43.357260" lon="-5.137270">
        <ele>59.046</ele>
        <time>2020-05-21T08:08:00Z</time>
      </trkpt>
      <trkpt lat="43.357290" lon="-5.137300">
        <ele>59.039</ele>
        <time>2020-05-21T08:08:20Z</time>
      </trkpt>
      <trkpt lat="43.357310" lon="-5.137340">
        <ele>59.049</ele>
        <time>2020-05-21T08:08:40Z</time>
      </trkpt>
      <trkpt lat="43.357330" lon="-5.137380">
        <ele>59.019</ele>
        <time>2020-05-21T08:09:00Z</time>
      </trkpt>
      <trkpt lat="43.357340" lon="-5.137420">
        <ele>59.019</ele>
        <time>2020-05-21T08:09:20Z</time>
      </trkpt>
      <trkpt lat="43.357360" lon="-5.137460">
        <ele>58.968</ele>
        <time>2020-05-21T08:09:40Z</time>
      </trkpt>
      <trkpt lat="43.357370" lon="-5.137500">
        <ele>58.927</ele>
        <time>2020-05-21T08:10:00Z</time>
      </trkpt>
      <trkpt lat="43.357370" lon="-5.137550">
        <ele>58.968</ele>
        <time>2020-05-21T08:10:20Z</time>
      </trkpt>
      <trkpt lat="43.357380" lon="-5.137600">
        <ele>58.914</ele>
        <time>2020-05-21T08:10:40Z</time>
      </trkpt>
      <trkpt lat="43.357380" lon="-5.137640">
        <ele>58.908</ele>
        <time>2020-05-21T08:11:00Z</time>
      </trkpt>
      <trkpt lat="43.357370" lon="-5.137690">
        <ele>58.916</ele>
        <time>2020-05-21T08:11:20Z</time>
      </trkpt>
      <trkpt lat="43.357360" lon="-5.137740">
        <ele>59.091</ele>
        <time>2020-05-21T08:11:40Z</time>
      </trkpt>
      <trkpt lat="43.357350" lon="-5.137780">
        <ele>59.167</ele>
        <time>2020-05-21T08:12:00Z</time>
      </trkpt>
      <trkpt lat="43.357340" lon="-5.137830">
        <ele>59.080</ele>
        <time>2020-05-21T08:12:20Z</time>
      </trkpt>
      <trkpt lat="43.357320" lon="-5.137870">
        <ele>59.190</ele>
        <time>2020-05-21T08:12:40Z</time>
      </trkpt>
      <trkpt lat="43.357390" lon="-5.138200">
        <ele>59.320</ele>
        <time>2020-05-21T08:13:00Z</time>
      </trkpt>
      <trkpt lat="43.357600" lon="-5.138550">
        <ele>59.670</ele>
        <time>2020-05-21T08:13:20Z</time>
      </trkpt>
      <trkpt lat="43.357730" lon="-5.138780">
        <ele>58.779</ele>
        <time>2020-05-21T08:13:40Z</time>
      </trkpt>
      <trkpt lat="43.358670" lon="-5.140430">
        <ele>57.255</ele>
        <time>2020-05-21T08:14:00Z</time>
      </trkpt>
      <trkpt lat="43.359590" lon="-5.142020">
        <ele>56.007</ele>
        <time>2020-05-21T08:14:20Z</time>
      </trkpt>
      <trkpt lat="43.359830" lon="-5.142430">
        <ele>54.917</ele>
        <time>2020-05-21T08:14:40Z</time>
      </trkpt>
      <trkpt lat="43.360270" lon="-5.143190">
        <ele>53.608</ele>
        <time>2020-05-21T08:15:00Z</time>
      </trkpt>
      <trkpt lat="43.360370" lon="-5.143370">
        <ele>53.289</ele>
        <time>2020-05-21T08:15:20Z</time>
      </trkpt>
      <trkpt lat="43.360710" lon="-5.143960">
        <ele>53.374</ele>
        <time>2020-05-21T08:15:40Z</time>
      </trkpt>
      <trkpt lat="43.360740" lon="-5.144010">
        <ele>53.270</ele>
        <time>2020-05-21T08:16:00Z</time>
      </trkpt>
      <trkpt lat="43.360930" lon="-5.144340">
        <ele>53.133</ele>
        <time>2020-05-21T08:16:20Z</time>
      </trkpt>
      <trkpt lat="43.361160" lon="-5.144730">
        <ele>53.523</ele>
        <time>2020-05-21T08:16:40Z</time>
      </trkpt>
      <trkpt lat="43.361230" lon="-5.144860">
        <ele>52.933</ele>
        <time>2020-05-21T08:17:00Z</time>
      </trkpt>
      <trkpt lat="43.361440" lon="-5.145230">
        <ele>53.443</ele>
        <time>2020-05-21T08:17:20Z</time>
      </trkpt>
      <trkpt lat="43.361690" lon="-5.145660">
        <ele>53.842</ele>
        <time>2020-05-21T08:17:40Z</time>
      </trkpt>
      <trkpt lat="43.361870" lon="-5.145990">
        <ele>55.011</ele>
        <time>2020-05-21T08:18:00Z</time>
      </trkpt>
      <trkpt lat="43.361990" lon="-5.146220">
        <ele>56.321</ele>
        <time>2020-05-21T08:18:20Z</time>
      </trkpt>
      <trkpt lat="43.362030" lon="-5.146300">
        <ele>56.503</ele>
        <time>2020-05-21T08:18:40Z</time>
      </trkpt>
      <trkpt lat="43.362240" lon="-5.146760">
        <ele>55.908</ele>
        <time>2020-05-21T08:19:00Z</time>
      </trkpt>
      <trkpt lat="43.362310" lon="-5.146930">
        <ele>55.435</ele>
        <time>2020-05-21T08:19:20Z</time>
      </trkpt>
      <trkpt lat="43.362550" lon="-5.147520">
        <ele>55.640</ele>
        <time>2020-05-21T08:19:40Z</time>
      </trkpt>
      <trkpt lat="43.362900" lon="-5.148390">
        <ele>53.896</ele>
        <time>2020-05-21T08:20:00Z</time>
      </trkpt>
      <trkpt lat="43.363030" lon="-5.148720">
        <ele>52.789</ele>
        <time>2020-05-21T08:20:20Z</time>
      </trkpt>
      <trkpt lat="43.363150" lon="-5.149010">
        <ele>52.489</ele>
        <time>2020-05-21T08:20:40Z</time>
      </trkpt>
      <trkpt lat="43.363240" lon="-5.149240">
        <ele>52.189</ele>
        <time>2020-05-21T08:21:00Z</time>
      </trkpt>
      <trkpt lat="43.363370" lon="-5.149560">
        <ele>51.969</ele>
        <time>2020-05-21T08:21:20Z</time>
      </trkpt>
      <trkpt lat="43.363580" lon="-5.150090">
        <ele>52.178</ele>
        <time>2020-05-21T08:21:40Z</time>
      </trkpt>
      <trkpt lat="43.363930" lon="-5.150980">
        <ele>51.827</ele>
        <time>2020-05-21T08:22:00Z</time>
      </trkpt>
      <trkpt lat="43.364130" lon="-5.151470">
        <ele>52.068</ele>
        <time>2020-05-21T08:22:20Z</time>
      </trkpt>
      <trkpt lat="43.364190" lon="-5.151640">
        <ele>51.814</ele>
        <time>2020-05-21T08:22:40Z</time>
      </trkpt>
      <trkpt lat="43.364310" lon="-5.151930">
        <ele>51.008</ele>
        <time>2020-05-21T08:23:00Z</time>
      </trkpt>
      <trkpt lat="43.364430" lon="-5.152210">
        <ele>52.046</ele>
        <time>2020-05-21T08:23:20Z</time>
      </trkpt>
      <trkpt lat="43.364470" lon="-5.152290">
        <ele>51.941</ele>
        <time>2020-05-21T08:23:40Z</time>
      </trkpt>
      <trkpt lat="43.364650" lon="-5.152600">
        <ele>51.477</ele>
        <time>2020-05-21T08:24:00Z</time>
      </trkpt>
      <trkpt lat="43.364690" lon="-5.152640">
        <ele>51.530</ele>
        <time>2020-05-21T08:24:20Z</time>
      </trkpt>
      <trkpt lat="43.364770" lon="-5.152730">
        <ele>51.720</ele>
        <time>2020-05-21T08:24:40Z</time>
      </trkpt>
      <trkpt lat="43.364840" lon="-5.152800">
        <ele>51.680</ele>
        <time>2020-05-21T08:25:00Z</time>
      </trkpt>
      <trkpt lat="43.364910" lon="-5.152860">
        <ele>51.530</ele>
        <time>2020-05-21T08:25:20Z</time>
      </trkpt>
      <trkpt lat="43.365000" lon="-5.152910">
        <ele>51.539</ele>
        <time>2020-05-21T08:25:40Z</time>
      </trkpt>
      <trkpt lat="43.365080" lon="-5.152950">
        <ele>51.054</ele>
        <time>2020-05-21T08:26:00Z</time>
      </trkpt>
      <trkpt lat="43.365140" lon="-5.152980">
        <ele>50.956</ele>
        <time>2020-05-21T08:26:20Z</time>
      </trkpt>
      <trkpt lat="43.365180" lon="-5.153000">
        <ele>51.011</ele>
        <time>2020-05-21T08:26:40Z</time>
      </trkpt>
      <trkpt lat="43.365240" lon="-5.153020">
        <ele>51.208</ele>
        <time>2020-05-21T08:27:00Z</time>
      </trkpt>
      <trkpt lat="43.365380" lon="-5.153050">
        <ele>51.989</ele>
        <time>2020-05-21T08:27:20Z</time>
      </trkpt>
      <trkpt lat="43.365480" lon="-5.153060">
        <ele>52.244</ele>
        <time>2020-05-21T08:27:40Z</time>
      </trkpt>
      <trkpt lat="43.365620" lon="-5.153080">
        <ele>53.030</ele>
        <time>2020-05-21T08:28:00Z</time>
      </trkpt>
      <trkpt lat="43.365830" lon="-5.153100">
        <ele>53.823</ele>
        <time>2020-05-21T08:28:20Z</time>
      </trkpt>
      <trkpt lat="43.366130" lon="-5.153120">
        <ele>50.693</ele>
        <time>2020-05-21T08:28:40Z</time>
      </trkpt>
      <trkpt lat="43.366280" lon="-5.153120">
        <ele>50.123</ele>
        <time>2020-05-21T08:29:00Z</time>
      </trkpt>
      <trkpt lat="43.366450" lon="-5.153120">
        <ele>49.993</ele>
        <time>2020-05-21T08:29:20Z</time>
      </trkpt>
      <trkpt lat="43.366590" lon="-5.153100">
        <ele>50.282</ele>
        <time>2020-05-21T08:29:40Z</time>
      </trkpt>
      <trkpt lat="43.366670" lon="-5.153080">
        <ele>50.325</ele>
        <time>2020-05-21T08:30:00Z</time>
      </trkpt>
      <trkpt lat="43.366760" lon="-5.153050">
        <ele>51.626</ele>
        <time>2020-05-21T08:30:20Z</time>
      </trkpt>
      <trkpt lat="43.366860" lon="-5.152990">
        <ele>52.108</ele>
        <time>2020-05-21T08:30:40Z</time>
      </trkpt>
      <trkpt lat="43.366920" lon="-5.152940">
        <ele>52.108</ele>
        <time>2020-05-21T08:31:00Z</time>
      </trkpt>
      <trkpt lat="43.366960" lon="-5.152910">
        <ele>52.526</ele>
        <time>2020-05-21T08:31:20Z</time>
      </trkpt>
      <trkpt lat="43.367000" lon="-5.152880">
        <ele>53.341</ele>
        <time>2020-05-21T08:31:40Z</time>
      </trkpt>
      <trkpt lat="43.367080" lon="-5.152800">
        <ele>53.247</ele>
        <time>2020-05-21T08:32:00Z</time>
      </trkpt>
      <trkpt lat="43.367150" lon="-5.152710">
        <ele>52.850</ele>
        <time>2020-05-21T08:32:20Z</time>
      </trkpt>
      <trkpt lat="43.367300" lon="-5.152520">
        <ele>51.760</ele>
        <time>2020-05-21T08:32:40Z</time>
      </trkpt>
      <trkpt lat="43.367500" lon="-5.152270">
        <ele>49.980</ele>
        <time>2020-05-21T08:33:00Z</time>
      </trkpt>
      <trkpt lat="43.367820" lon="-5.151840">
        <ele>48.070</ele>
        <time>2020-05-21T08:33:20Z</time>
      </trkpt>
      <trkpt lat="43.368200" lon="-5.151340">
        <ele>49.449</ele>
        <time>2020-05-21T08:33:40Z</time>
      </trkpt>
      <trkpt lat="43.368260" lon="-5.151270">
        <ele>49.542</ele>
        <time>2020-05-21T08:34:00Z</time>
      </trkpt>
      <trkpt lat="43.369190" lon="-5.150060">
        <ele>49.222</ele>
        <time>2020-05-21T08:34:20Z</time>
      </trkpt>
      <trkpt lat="43.369230" lon="-5.150010">
        <ele>49.014</ele>
        <time>2020-05-21T08:34:40Z</time>
      </trkpt>
      <trkpt lat="43.369740" lon="-5.149350">
        <ele>48.608</ele>
        <time>2020-05-21T08:35:00Z</time>
      </trkpt>
      <trkpt lat="43.370040" lon="-5.148970">
        <ele>48.268</ele>
        <time>2020-05-21T08:35:20Z</time>
      </trkpt>
      <trkpt lat="43.370280" lon="-5.148680">
        <ele>48.053</ele>
        <time>2020-05-21T08:35:40Z</time>
      </trkpt>
      <trkpt lat="43.370480" lon="-5.148460">
        <ele>48.069</ele>
        <time>2020-05-21T08:36:00Z</time>
      </trkpt>
      <trkpt lat="43.370610" lon="-5.148340">
        <ele>49.072</ele>
        <time>2020-05-21T08:36:20Z</time>
      </trkpt>
      <trkpt lat="43.370730" lon="-5.148220">
        <ele>49.692</ele>
        <time>2020-05-21T08:36:40Z</time>
      </trkpt>
      <trkpt lat="43.370940" lon="-5.148070">
        <ele>49.282</ele>
        <time>2020-05-21T08:37:00Z</time>
      </trkpt>
      <trkpt lat="43.371150" lon="-5.147930">
        <ele>47.892</ele>
        <time>2020-05-21T08:37:20Z</time>
      </trkpt>
      <trkpt lat="43.371320" lon="-5.147850">
        <ele>46.931</ele>
        <time>2020-05-21T08:37:40Z</time>
      </trkpt>
      <trkpt lat="43.371470" lon="-5.147790">
        <ele>46.754</ele>
        <time>2020-05-21T08:38:00Z</time>
      </trkpt>
      <trkpt lat="43.371550" lon="-5.147770">
        <ele>47.056</ele>
        <time>2020-05-21T08:38:20Z</time>
      </trkpt>
      <trkpt lat="43.371700" lon="-5.147730">
        <ele>46.811</ele>
        <time>2020-05-21T08:38:40Z</time>
      </trkpt>
      <trkpt lat="43.371940" lon="-5.147690">
        <ele>46.108</ele>
        <time>2020-05-21T08:39:00Z</time>
      </trkpt>
      <trkpt lat="43.372140" lon="-5.147690">
        <ele>46.359</ele>
        <time>2020-05-21T08:39:20Z</time>
      </trkpt>
      <trkpt lat="43.372390" lon="-5.147710">
        <ele>47.254</ele>
        <time>2020-05-21T08:39:40Z</time>
      </trkpt>
      <trkpt lat="43.372470" lon="-5.147720">
        <ele>47.530</ele>
        <time>2020-05-21T08:40:00Z</time>
      </trkpt>
      <trkpt lat="43.372580" lon="-5.147750">
        <ele>47.063</ele>
        <time>2020-05-21T08:40:20Z</time>
      </trkpt>
      <trkpt lat="43.372840" lon="-5.147810">
        <ele>43.633</ele>
        <time>2020-05-21T08:40:40Z</time>
      </trkpt>
      <trkpt lat="43.373110" lon="-5.147890">
        <ele>39.643</ele>
        <time>2020-05-21T08:41:00Z</time>
      </trkpt>
      <trkpt lat="43.373330" lon="-5.147950">
        <ele>42.843</ele>
        <time>2020-05-21T08:41:20Z</time>
      </trkpt>
      <trkpt lat="43.373410" lon="-5.147980">
        <ele>43.822</ele>
        <time>2020-05-21T08:41:40Z</time>
      </trkpt>
      <trkpt lat="43.373570" lon="-5.148030">
        <ele>45.513</ele>
        <time>2020-05-21T08:42:00Z</time>
      </trkpt>
      <trkpt lat="43.373710" lon="-5.148100">
        <ele>45.543</ele>
        <time>2020-05-21T08:42:20Z</time>
      </trkpt>
      <trkpt lat="43.373770" lon="-5.148140">
        <ele>45.307</ele>
        <time>2020-05-21T08:42:40Z</time>
      </trkpt>
      <trkpt lat="43.373870" lon="-5.148220">
        <ele>45.508</ele>
        <time>2020-05-21T08:43:00Z</time>
      </trkpt>
      <trkpt lat="43.373950" lon="-5.148300">
        <ele>46.065</ele>
        <time>2020-05-21T08:43:20Z</time>
      </trkpt>
      <trkpt lat="43.374060" lon="-5.148440">
        <ele>45.950</ele>
        <time>2020-05-21T08:43:40Z</time>
      </trkpt>
      <trkpt lat="43.374140" lon="-5.148570">
        <ele>45.966</ele>
        <time>2020-05-21T08:44:00Z</time>
      </trkpt>
      <trkpt lat="43.374210" lon="-5.148700">
        <ele>45.299</ele>
        <time>2020-05-21T08:44:20Z</time>
      </trkpt>
      <trkpt lat="43.374260" lon="-5.148810">
        <ele>44.899</ele>
        <time>2020-05-21T08:44:40Z</time>
      </trkpt>
      <trkpt lat="43.374300" lon="-5.148950">
        <ele>44.939</ele>
        <time>2020-05-21T08:45:00Z</time>
      </trkpt>
      <trkpt lat="43.374320" lon="-5.149030">
        <ele>45.239</ele>
        <time>2020-05-21T08:45:20Z</time>
      </trkpt>
      <trkpt lat="43.374340" lon="-5.149110">
        <ele>45.578</ele>
        <time>2020-05-21T08:45:40Z</time>
      </trkpt>
      <trkpt lat="43.374360" lon="-5.149220">
        <ele>45.638</ele>
        <time>2020-05-21T08:46:00Z</time>
      </trkpt>
      <trkpt lat="43.374370" lon="-5.149330">
        <ele>45.370</ele>
        <time>2020-05-21T08:46:20Z</time>
      </trkpt>
      <trkpt lat="43.374370" lon="-5.149550">
        <ele>44.617</ele>
        <time>2020-05-21T08:46:40Z</time>
      </trkpt>
      <trkpt lat="43.374360" lon="-5.150230">
        <ele>44.408</ele>
        <time>2020-05-21T08:47:00Z</time>
      </trkpt>
      <trkpt lat="43.374360" lon="-5.150420">
        <ele>44.487</ele>
        <time>2020-05-21T08:47:20Z</time>
      </trkpt>
      <trkpt lat="43.374370" lon="-5.150590">
        <ele>44.592</ele>
        <time>2020-05-21T08:47:40Z</time>
      </trkpt>
      <trkpt lat="43.374370" lon="-5.150770">
        <ele>44.718</ele>
        <time>2020-05-21T08:48:00Z</time>
      </trkpt>
      <trkpt lat="43.374390" lon="-5.151020">
        <ele>44.911</ele>
        <time>2020-05-21T08:48:20Z</time>
      </trkpt>
      <trkpt lat="43.374420" lon="-5.151330">
        <ele>44.961</ele>
        <time>2020-05-21T08:48:40Z</time>
      </trkpt>
      <trkpt lat="43.374430" lon="-5.151410">
        <ele>44.921</ele>
        <time>2020-05-21T08:49:00Z</time>
      </trkpt>
      <trkpt lat="43.374470" lon="-5.151820">
        <ele>45.271</ele>
        <time>2020-05-21T08:49:20Z</time>
      </trkpt>
      <trkpt lat="43.374490" lon="-5.152030">
        <ele>45.150</ele>
        <time>2020-05-21T08:49:40Z</time>
      </trkpt>
      <trkpt lat="43.374500" lon="-5.152270">
        <ele>44.618</ele>
        <time>2020-05-21T08:50:00Z</time>
      </trkpt>
      <trkpt lat="43.374510" lon="-5.152440">
        <ele>44.998</ele>
        <time>2020-05-21T08:50:20Z</time>
      </trkpt>
      <trkpt lat="43.374500" lon="-5.152600">
        <ele>44.717</ele>
        <time>2020-05-21T08:50:40Z</time>
      </trkpt>
      <trkpt lat="43.374490" lon="-5.152840">
        <ele>44.508</ele>
        <time>2020-05-21T08:51:00Z</time>
      </trkpt>
      <trkpt lat="43.374460" lon="-5.153070">
        <ele>44.365</ele>
        <time>2020-05-21T08:51:20Z</time>
      </trkpt>
      <trkpt lat="43.374390" lon="-5.153520">
        <ele>45.680</ele>
        <time>2020-05-21T08:51:40Z</time>
      </trkpt>
      <trkpt lat="43.374330" lon="-5.153870">
        <ele>46.476</ele>
        <time>2020-05-21T08:52:00Z</time>
      </trkpt>
      <trkpt lat="43.374130" lon="-5.154980">
        <ele>47.579</ele>
        <time>2020-05-21T08:52:20Z</time>
      </trkpt>
      <trkpt lat="43.374090" lon="-5.155180">
        <ele>47.269</ele>
        <time>2020-05-21T08:52:40Z</time>
      </trkpt>
      <trkpt lat="43.374060" lon="-5.155340">
        <ele>46.969</ele>
        <time>2020-05-21T08:53:00Z</time>
      </trkpt>
      <trkpt lat="43.374040" lon="-5.155560">
        <ele>46.759</ele>
        <time>2020-05-21T08:53:20Z</time>
      </trkpt>
      <trkpt lat="43.374010" lon="-5.155920">
        <ele>45.678</ele>
        <time>2020-05-21T08:53:40Z</time>
      </trkpt>
      <trkpt lat="43.374000" lon="-5.156600">
        <ele>45.978</ele>
        <time>2020-05-21T08:54:00Z</time>
      </trkpt>
      <trkpt lat="43.374000" lon="-5.156760">
        <ele>46.133</ele>
        <time>2020-05-21T08:54:20Z</time>
      </trkpt>
      <trkpt lat="43.374000" lon="-5.157390">
        <ele>46.626</ele>
        <time>2020-05-21T08:54:40Z</time>
      </trkpt>
      <trkpt lat="43.373990" lon="-5.157510">
        <ele>46.508</ele>
        <time>2020-05-21T08:55:00Z</time>
      </trkpt>
      <trkpt lat="43.373990" lon="-5.157660">
        <ele>46.581</ele>
        <time>2020-05-21T08:55:20Z</time>
      </trkpt>
      <trkpt lat="43.374000" lon="-5.157910">
        <ele>46.916</ele>
        <time>2020-05-21T08:55:40Z</time>
      </trkpt>
      <trkpt lat="43.374010" lon="-5.158210">
        <ele>47.372</ele>
        <time>2020-05-21T08:56:00Z</time>
      </trkpt>
      <trkpt lat="43.374040" lon="-5.158480">
        <ele>47.925</ele>
        <time>2020-05-21T08:56:20Z</time>
      </trkpt>
      <trkpt lat="43.374070" lon="-5.158700">
        <ele>48.555</ele>
        <time>2020-05-21T08:56:40Z</time>
      </trkpt>
      <trkpt lat="43.374110" lon="-5.158890">
        <ele>49.035</ele>
        <time>2020-05-21T08:57:00Z</time>
      </trkpt>
      <trkpt lat="43.374130" lon="-5.158980">
        <ele>49.145</ele>
        <time>2020-05-21T08:57:20Z</time>
      </trkpt>
      <trkpt lat="43.374180" lon="-5.159180">
        <ele>49.294</ele>
        <time>2020-05-21T08:57:40Z</time>
      </trkpt>
      <trkpt lat="43.374260" lon="-5.159430">
        <ele>49.713</ele>
        <time>2020-05-21T08:58:00Z</time>
      </trkpt>
      <trkpt lat="43.374350" lon="-5.159660">
        <ele>50.543</ele>
        <time>2020-05-21T08:58:20Z</time>
      </trkpt>
      <trkpt lat="43.374450" lon="-5.159880">
        <ele>51.507</ele>
        <time>2020-05-21T08:58:40Z</time>
      </trkpt>
      <trkpt lat="43.374550" lon="-5.160060">
        <ele>51.908</ele>
        <time>2020-05-21T08:59:00Z</time>
      </trkpt>
      <trkpt lat="43.374670" lon="-5.160260">
        <ele>52.535</ele>
        <time>2020-05-21T08:59:20Z</time>
      </trkpt>
      <trkpt lat="43.374740" lon="-5.160370">
        <ele>52.870</ele>
        <time>2020-05-21T08:59:40Z</time>
      </trkpt>
      <trkpt lat="43.374820" lon="-5.160480">
        <ele>53.146</ele>
        <time>2020-05-21T09:00:00Z</time>
      </trkpt>
      <trkpt lat="43.374970" lon="-5.160680">
        <ele>53.339</ele>
        <time>2020-05-21T09:00:20Z</time>
      </trkpt>
      <trkpt lat="43.375180" lon="-5.160940">
        <ele>53.929</ele>
        <time>2020-05-21T09:00:40Z</time>
      </trkpt>
      <trkpt lat="43.375320" lon="-5.161110">
        <ele>53.519</ele>
        <time>2020-05-21T09:01:00Z</time>
      </trkpt>
      <trkpt lat="43.375500" lon="-5.161340">
        <ele>53.999</ele>
        <time>2020-05-21T09:01:20Z</time>
      </trkpt>
      <trkpt lat="43.375700" lon="-5.161590">
        <ele>53.958</ele>
        <time>2020-05-21T09:01:40Z</time>
      </trkpt>
      <trkpt lat="43.375870" lon="-5.161830">
        <ele>53.095</ele>
        <time>2020-05-21T09:02:00Z</time>
      </trkpt>
      <trkpt lat="43.375980" lon="-5.162000">
        <ele>52.349</ele>
        <time>2020-05-21T09:02:20Z</time>
      </trkpt>
      <trkpt lat="43.376100" lon="-5.162220">
        <ele>52.923</ele>
        <time>2020-05-21T09:02:40Z</time>
      </trkpt>
      <trkpt lat="43.376160" lon="-5.162340">
        <ele>52.508</ele>
        <time>2020-05-21T09:03:00Z</time>
      </trkpt>
      <trkpt lat="43.376170" lon="-5.162360">
        <ele>52.443</ele>
        <time>2020-05-21T09:03:20Z</time>
      </trkpt>
      <trkpt lat="43.376260" lon="-5.162560">
        <ele>52.528</ele>
        <time>2020-05-21T09:03:40Z</time>
      </trkpt>
      <trkpt lat="43.376320" lon="-5.162720">
        <ele>52.714</ele>
        <time>2020-05-21T09:04:00Z</time>
      </trkpt>
      <trkpt lat="43.376390" lon="-5.162900">
        <ele>53.087</ele>
        <time>2020-05-21T09:04:20Z</time>
      </trkpt>
      <trkpt lat="43.376470" lon="-5.163170">
        <ele>53.557</ele>
        <time>2020-05-21T09:04:40Z</time>
      </trkpt>
      <trkpt lat="43.376630" lon="-5.163680">
        <ele>53.647</ele>
        <time>2020-05-21T09:05:00Z</time>
      </trkpt>
      <trkpt lat="43.376770" lon="-5.164140">
        <ele>54.257</ele>
        <time>2020-05-21T09:05:20Z</time>
      </trkpt>
      <trkpt lat="43.376870" lon="-5.164430">
        <ele>54.246</ele>
        <time>2020-05-21T09:05:40Z</time>
      </trkpt>
      <trkpt lat="43.376960" lon="-5.164650">
        <ele>54.537</ele>
        <time>2020-05-21T09:06:00Z</time>
      </trkpt>
      <trkpt lat="43.377060" lon="-5.164840">
        <ele>55.149</ele>
        <time>2020-05-21T09:06:20Z</time>
      </trkpt>
      <trkpt lat="43.377140" lon="-5.164980">
        <ele>55.213</ele>
        <time>2020-05-21T09:06:40Z</time>
      </trkpt>
      <trkpt lat="43.377190" lon="-5.165050">
        <ele>55.308</ele>
        <time>2020-05-21T09:07:00Z</time>
      </trkpt>
      <trkpt lat="43.377250" lon="-5.165130">
        <ele>55.437</ele>
        <time>2020-05-21T09:07:20Z</time>
      </trkpt>
      <trkpt lat="43.377360" lon="-5.165240">
        <ele>55.822</ele>
        <time>2020-05-21T09:07:40Z</time>
      </trkpt>
      <trkpt lat="43.377450" lon="-5.165330">
        <ele>56.218</ele>
        <time>2020-05-21T09:08:00Z</time>
      </trkpt>
      <trkpt lat="43.377530" lon="-5.165390">
        <ele>56.311</ele>
        <time>2020-05-21T09:08:20Z</time>
      </trkpt>
      <trkpt lat="43.377610" lon="-5.165450">
        <ele>56.151</ele>
        <time>2020-05-21T09:08:40Z</time>
      </trkpt>
      <trkpt lat="43.377740" lon="-5.165540">
        <ele>55.251</ele>
        <time>2020-05-21T09:09:00Z</time>
      </trkpt>
      <trkpt lat="43.377850" lon="-5.165600">
        <ele>55.331</ele>
        <time>2020-05-21T09:09:20Z</time>
      </trkpt>
      <trkpt lat="43.378010" lon="-5.165700">
        <ele>55.370</ele>
        <time>2020-05-21T09:09:40Z</time>
      </trkpt>
      <trkpt lat="43.378490" lon="-5.165980">
        <ele>53.355</ele>
        <time>2020-05-21T09:10:00Z</time>
      </trkpt>
      <trkpt lat="43.378630" lon="-5.166080">
        <ele>53.307</ele>
        <time>2020-05-21T09:10:20Z</time>
      </trkpt>
      <trkpt lat="43.378720" lon="-5.166150">
        <ele>53.117</ele>
        <time>2020-05-21T09:10:40Z</time>
      </trkpt>
      <trkpt lat="43.378800" lon="-5.166210">
        <ele>52.808</ele>
        <time>2020-05-21T09:11:00Z</time>
      </trkpt>
      <trkpt lat="43.378870" lon="-5.166300">
        <ele>52.019</ele>
        <time>2020-05-21T09:11:20Z</time>
      </trkpt>
      <trkpt lat="43.378970" lon="-5.166430">
        <ele>51.894</ele>
        <time>2020-05-21T09:11:40Z</time>
      </trkpt>
      <trkpt lat="43.379050" lon="-5.166560">
        <ele>51.790</ele>
        <time>2020-05-21T09:12:00Z</time>
      </trkpt>
      <trkpt lat="43.379130" lon="-5.166710">
        <ele>51.433</ele>
        <time>2020-05-21T09:12:20Z</time>
      </trkpt>
      <trkpt lat="43.379210" lon="-5.166900">
        <ele>51.773</ele>
        <time>2020-05-21T09:12:40Z</time>
      </trkpt>
      <trkpt lat="43.379280" lon="-5.167060">
        <ele>51.473</ele>
        <time>2020-05-21T09:13:00Z</time>
      </trkpt>
      <trkpt lat="43.379360" lon="-5.167290">
        <ele>50.573</ele>
        <time>2020-05-21T09:13:20Z</time>
      </trkpt>
      <trkpt lat="43.379480" lon="-5.167570">
        <ele>49.772</ele>
        <time>2020-05-21T09:13:40Z</time>
      </trkpt>
      <trkpt lat="43.379550" lon="-5.167710">
        <ele>49.497</ele>
        <time>2020-05-21T09:14:00Z</time>
      </trkpt>
      <trkpt lat="43.379630" lon="-5.167850">
        <ele>49.623</ele>
        <time>2020-05-21T09:14:20Z</time>
      </trkpt>
      <trkpt lat="43.379680" lon="-5.167940">
        <ele>49.525</ele>
        <time>2020-05-21T09:14:40Z</time>
      </trkpt>
      <trkpt lat="43.379750" lon="-5.168040">
        <ele>49.108</ele>
        <time>2020-05-21T09:15:00Z</time>
      </trkpt>
      <trkpt lat="43.379850" lon="-5.168150">
        <ele>48.793</ele>
        <time>2020-05-21T09:15:20Z</time>
      </trkpt>
      <trkpt lat="43.379960" lon="-5.168270">
        <ele>48.298</ele>
        <time>2020-05-21T09:15:40Z</time>
      </trkpt>
      <trkpt lat="43.380140" lon="-5.168430">
        <ele>47.564</ele>
        <time>2020-05-21T09:16:00Z</time>
      </trkpt>
      <trkpt lat="43.380310" lon="-5.168570">
        <ele>47.177</ele>
        <time>2020-05-21T09:16:20Z</time>
      </trkpt>
      <trkpt lat="43.380560" lon="-5.168760">
        <ele>46.097</ele>
        <time>2020-05-21T09:16:40Z</time>
      </trkpt>
      <trkpt lat="43.380810" lon="-5.168960">
        <ele>46.357</ele>
        <time>2020-05-21T09:17:00Z</time>
      </trkpt>
      <trkpt lat="43.381100" lon="-5.169200">
        <ele>46.857</ele>
        <time>2020-05-21T09:17:20Z</time>
      </trkpt>
      <trkpt lat="43.381220" lon="-5.169320">
        <ele>47.716</ele>
        <time>2020-05-21T09:17:40Z</time>
      </trkpt>
      <trkpt lat="43.381290" lon="-5.169400">
        <ele>47.315</ele>
        <time>2020-05-21T09:18:00Z</time>
      </trkpt>
      <trkpt lat="43.381310" lon="-5.169430">
        <ele>47.065</ele>
        <time>2020-05-21T09:18:20Z</time>
      </trkpt>
      <trkpt lat="43.381390" lon="-5.169530">
        <ele>46.411</ele>
        <time>2020-05-21T09:18:40Z</time>
      </trkpt>
      <trkpt lat="43.381520" lon="-5.169730">
        <ele>46.808</ele>
        <time>2020-05-21T09:19:00Z</time>
      </trkpt>
      <trkpt lat="43.381600" lon="-5.169880">
        <ele>46.615</ele>
        <time>2020-05-21T09:19:20Z</time>
      </trkpt>
      <trkpt lat="43.381890" lon="-5.170390">
        <ele>45.490</ele>
        <time>2020-05-21T09:19:40Z</time>
      </trkpt>
      <trkpt lat="43.382070" lon="-5.170710">
        <ele>45.586</ele>
        <time>2020-05-21T09:20:00Z</time>
      </trkpt>
      <trkpt lat="43.382120" lon="-5.170800">
        <ele>45.019</ele>
        <time>2020-05-21T09:20:20Z</time>
      </trkpt>
      <trkpt lat="43.382280" lon="-5.171040">
        <ele>45.299</ele>
        <time>2020-05-21T09:20:40Z</time>
      </trkpt>
      <trkpt lat="43.382490" lon="-5.171330">
        <ele>44.449</ele>
        <time>2020-05-21T09:21:00Z</time>
      </trkpt>
      <trkpt lat="43.382630" lon="-5.171520">
        <ele>44.279</ele>
        <time>2020-05-21T09:21:20Z</time>
      </trkpt>
      <trkpt lat="43.382870" lon="-5.171830">
        <ele>43.758</ele>
        <time>2020-05-21T09:21:40Z</time>
      </trkpt>
      <trkpt lat="43.383000" lon="-5.172000">
        <ele>42.255</ele>
        <time>2020-05-21T09:22:00Z</time>
      </trkpt>
      <trkpt lat="43.383130" lon="-5.172170">
        <ele>42.407</ele>
        <time>2020-05-21T09:22:20Z</time>
      </trkpt>
      <trkpt lat="43.383150" lon="-5.172200">
        <ele>42.517</ele>
        <time>2020-05-21T09:22:40Z</time>
      </trkpt>
      <trkpt lat="43.383750" lon="-5.172980">
        <ele>42.208</ele>
        <time>2020-05-21T09:23:00Z</time>
      </trkpt>
      <trkpt lat="43.384350" lon="-5.173740">
        <ele>40.459</ele>
        <time>2020-05-21T09:23:20Z</time>
      </trkpt>
      <trkpt lat="43.384820" lon="-5.174340">
        <ele>40.324</ele>
        <time>2020-05-21T09:23:40Z</time>
      </trkpt>
      <trkpt lat="43.385360" lon="-5.175040">
        <ele>40.170</ele>
        <time>2020-05-21T09:24:00Z</time>
      </trkpt>
      <trkpt lat="43.385590" lon="-5.175330">
        <ele>39.223</ele>
        <time>2020-05-21T09:24:20Z</time>
      </trkpt>
      <trkpt lat="43.385750" lon="-5.175530">
        <ele>38.623</ele>
        <time>2020-05-21T09:24:40Z</time>
      </trkpt>
      <trkpt lat="43.385840" lon="-5.175620">
        <ele>38.193</ele>
        <time>2020-05-21T09:25:00Z</time>
      </trkpt>
      <trkpt lat="43.385930" lon="-5.175690">
        <ele>39.113</ele>
        <time>2020-05-21T09:25:20Z</time>
      </trkpt>
      <trkpt lat="43.386080" lon="-5.175800">
        <ele>38.192</ele>
        <time>2020-05-21T09:25:40Z</time>
      </trkpt>
      <trkpt lat="43.386250" lon="-5.175890">
        <ele>38.198</ele>
        <time>2020-05-21T09:26:00Z</time>
      </trkpt>
      <trkpt lat="43.386420" lon="-5.175960">
        <ele>38.415</ele>
        <time>2020-05-21T09:26:20Z</time>
      </trkpt>
      <trkpt lat="43.386650" lon="-5.176080">
        <ele>36.426</ele>
        <time>2020-05-21T09:26:40Z</time>
      </trkpt>
      <trkpt lat="43.386770" lon="-5.176170">
        <ele>36.808</ele>
        <time>2020-05-21T09:27:00Z</time>
      </trkpt>
      <trkpt lat="43.386880" lon="-5.176260">
        <ele>37.443</ele>
        <time>2020-05-21T09:27:20Z</time>
      </trkpt>
      <trkpt lat="43.386890" lon="-5.176270">
        <ele>37.348</ele>
        <time>2020-05-21T09:27:40Z</time>
      </trkpt>
      <trkpt lat="43.386960" lon="-5.176340">
        <ele>37.444</ele>
        <time>2020-05-21T09:28:00Z</time>
      </trkpt>
      <trkpt lat="43.387050" lon="-5.176470">
        <ele>39.947</ele>
        <time>2020-05-21T09:28:20Z</time>
      </trkpt>
      <trkpt lat="43.387130" lon="-5.176610">
        <ele>40.137</ele>
        <time>2020-05-21T09:28:40Z</time>
      </trkpt>
      <trkpt lat="43.387140" lon="-5.176620">
        <ele>40.287</ele>
        <time>2020-05-21T09:29:00Z</time>
      </trkpt>
      <trkpt lat="43.387200" lon="-5.176760">
        <ele>38.947</ele>
        <time>2020-05-21T09:29:20Z</time>
      </trkpt>
      <trkpt lat="43.387230" lon="-5.176830">
        <ele>38.426</ele>
        <time>2020-05-21T09:29:40Z</time>
      </trkpt>
      <trkpt lat="43.387230" lon="-5.176840">
        <ele>38.252</ele>
        <time>2020-05-21T09:30:00Z</time>
      </trkpt>
      <trkpt lat="43.387270" lon="-5.176930">
        <ele>38.653</ele>
        <time>2020-05-21T09:30:20Z</time>
      </trkpt>
      <trkpt lat="43.387390" lon="-5.177250">
        <ele>37.808</ele>
        <time>2020-05-21T09:30:40Z</time>
      </trkpt>
      <trkpt lat="43.387510" lon="-5.177560">
        <ele>36.908</ele>
        <time>2020-05-21T09:31:00Z</time>
      </trkpt>
      <trkpt lat="43.387750" lon="-5.178220">
        <ele>39.919</ele>
        <time>2020-05-21T09:31:20Z</time>
      </trkpt>
      <trkpt lat="43.387820" lon="-5.178430">
        <ele>40.844</ele>
        <time>2020-05-21T09:31:40Z</time>
      </trkpt>
      <trkpt lat="43.387850" lon="-5.178510">
        <ele>41.640</ele>
        <time>2020-05-21T09:32:00Z</time>
      </trkpt>
      <trkpt lat="43.387910" lon="-5.178640">
        <ele>42.693</ele>
        <time>2020-05-21T09:32:20Z</time>
      </trkpt>
      <trkpt lat="43.387950" lon="-5.178730">
        <ele>42.323</ele>
        <time>2020-05-21T09:32:40Z</time>
      </trkpt>
      <trkpt lat="43.388010" lon="-5.178840">
        <ele>40.493</ele>
        <time>2020-05-21T09:33:00Z</time>
      </trkpt>
      <trkpt lat="43.388090" lon="-5.178950">
        <ele>39.753</ele>
        <time>2020-05-21T09:33:20Z</time>
      </trkpt>
      <trkpt lat="43.388160" lon="-5.179040">
        <ele>40.012</ele>
        <time>2020-05-21T09:33:40Z</time>
      </trkpt>
      <trkpt lat="43.388240" lon="-5.179140">
        <ele>38.576</ele>
        <time>2020-05-21T09:34:00Z</time>
      </trkpt>
      <trkpt lat="43.388280" lon="-5.179150">
        <ele>38.490</ele>
        <time>2020-05-21T09:34:20Z</time>
      </trkpt>
      <trkpt lat="43.388300" lon="-5.179160">
        <ele>38.119</ele>
        <time>2020-05-21T09:34:40Z</time>
      </trkpt>
      <trkpt lat="43.388370" lon="-5.179210">
        <ele>37.708</ele>
        <time>2020-05-21T09:35:00Z</time>
      </trkpt>
      <trkpt lat="43.388440" lon="-5.179250">
        <ele>37.741</ele>
        <time>2020-05-21T09:35:20Z</time>
      </trkpt>
      <trkpt lat="43.388560" lon="-5.179320">
        <ele>37.916</ele>
        <time>2020-05-21T09:35:40Z</time>
      </trkpt>
      <trkpt lat="43.388640" lon="-5.179380">
        <ele>37.742</ele>
        <time>2020-05-21T09:36:00Z</time>
      </trkpt>
      <trkpt lat="43.388740" lon="-5.179470">
        <ele>36.915</ele>
        <time>2020-05-21T09:36:20Z</time>
      </trkpt>
      <trkpt lat="43.388850" lon="-5.179570">
        <ele>36.875</ele>
        <time>2020-05-21T09:36:40Z</time>
      </trkpt>
      <trkpt lat="43.388847" lon="-5.179573">
        <ele>36.885</ele>
        <time>2020-05-21T09:37:00Z</time>
      </trkpt>
      <trkpt lat="43.388860" lon="-5.179570">
        <ele>36.935</ele>
        <time>2020-05-21T09:37:20Z</time>
      </trkpt>
      <trkpt lat="43.388870" lon="-5.179570">
        <ele>36.964</ele>
        <time>2020-05-21T09:37:40Z</time>
      </trkpt>
      <trkpt lat="43.388880" lon="-5.179570">
        <ele>37.023</ele>
        <time>2020-05-21T09:38:00Z</time>
      </trkpt>
      <trkpt lat="43.388890" lon="-5.179570">
        <ele>37.083</ele>
        <time>2020-05-21T09:38:20Z</time>
      </trkpt>
      <trkpt lat="43.388900" lon="-5.179580">
        <ele>37.111</ele>
        <time>2020-05-21T09:38:40Z</time>
      </trkpt>
      <trkpt lat="43.388910" lon="-5.179580">
        <ele>37.208</ele>
        <time>2020-05-21T09:39:00Z</time>
      </trkpt>
      <trkpt lat="43.388920" lon="-5.179580">
        <ele>37.396</ele>
        <time>2020-05-21T09:39:20Z</time>
      </trkpt>
      <trkpt lat="43.388920" lon="-5.179590">
        <ele>37.331</ele>
        <time>2020-05-21T09:39:40Z</time>
      </trkpt>
      <trkpt lat="43.388930" lon="-5.179590">
        <ele>37.497</ele>
        <time>2020-05-21T09:40:00Z</time>
      </trkpt>
      <trkpt lat="43.388940" lon="-5.179600">
        <ele>37.590</ele>
        <time>2020-05-21T09:40:20Z</time>
      </trkpt>
      <trkpt lat="43.388950" lon="-5.179610">
        <ele>37.570</ele>
        <time>2020-05-21T09:40:40Z</time>
      </trkpt>
      <trkpt lat="43.388960" lon="-5.179620">
        <ele>37.680</ele>
        <time>2020-05-21T09:41:00Z</time>
      </trkpt>
      <trkpt lat="43.388970" lon="-5.179630">
        <ele>37.680</ele>
        <time>2020-05-21T09:41:20Z</time>
      </trkpt>
      <trkpt lat="43.388970" lon="-5.179640">
        <ele>37.599</ele>
        <time>2020-05-21T09:41:40Z</time>
      </trkpt>
      <trkpt lat="43.388980" lon="-5.179650">
        <ele>37.528</ele>
        <time>2020-05-21T09:42:00Z</time>
      </trkpt>
      <trkpt lat="43.388990" lon="-5.179670">
        <ele>37.489</ele>
        <time>2020-05-21T09:42:20Z</time>
      </trkpt>
      <trkpt lat="43.388990" lon="-5.179680">
        <ele>37.317</ele>
        <time>2020-05-21T09:42:40Z</time>
      </trkpt>
      <trkpt lat="43.389000" lon="-5.179690">
        <ele>37.308</ele>
        <time>2020-05-21T09:43:00Z</time>
      </trkpt>
      <trkpt lat="43.389000" lon="-5.179700">
        <ele>37.286</ele>
        <time>2020-05-21T09:43:20Z</time>
      </trkpt>
      <trkpt lat="43.389000" lon="-5.179710">
        <ele>37.181</ele>
        <time>2020-05-21T09:43:40Z</time>
      </trkpt>
      <trkpt lat="43.389000" lon="-5.179730">
        <ele>36.997</ele>
        <time>2020-05-21T09:44:00Z</time>
      </trkpt>
      <trkpt lat="43.389010" lon="-5.179740">
        <ele>36.910</ele>
        <time>2020-05-21T09:44:20Z</time>
      </trkpt>
      <trkpt lat="43.389010" lon="-5.179750">
        <ele>36.860</ele>
        <time>2020-05-21T09:44:40Z</time>
      </trkpt>
      <trkpt lat="43.389010" lon="-5.179760">
        <ele>36.730</ele>
        <time>2020-05-21T09:45:00Z</time>
      </trkpt>
      <trkpt lat="43.389010" lon="-5.179770">
        <ele>36.750</ele>
        <time>2020-05-21T09:45:20Z</time>
      </trkpt>
      <trkpt lat="43.389010" lon="-5.179790">
        <ele>36.519</ele>
        <time>2020-05-21T09:45:40Z</time>
      </trkpt>
      <trkpt lat="43.389010" lon="-5.179800">
        <ele>36.427</ele>
        <time>2020-05-21T09:46:00Z</time>
      </trkpt>
      <trkpt lat="43.389000" lon="-5.179810">
        <ele>36.468</ele>
        <time>2020-05-21T09:46:20Z</time>
      </trkpt>
      <trkpt lat="43.389000" lon="-5.179820">
        <ele>36.314</ele>
        <time>2020-05-21T09:46:40Z</time>
      </trkpt>
      <trkpt lat="43.389000" lon="-5.179830">
        <ele>36.208</ele>
        <time>2020-05-21T09:47:00Z</time>
      </trkpt>
      <trkpt lat="43.389000" lon="-5.179840">
        <ele>36.286</ele>
        <time>2020-05-21T09:47:20Z</time>
      </trkpt>
      <trkpt lat="43.388990" lon="-5.179850">
        <ele>36.121</ele>
        <time>2020-05-21T09:47:40Z</time>
      </trkpt>
      <trkpt lat="43.388990" lon="-5.179870">
        <ele>35.977</ele>
        <time>2020-05-21T09:48:00Z</time>
      </trkpt>
      <trkpt lat="43.388980" lon="-5.179880">
        <ele>35.980</ele>
        <time>2020-05-21T09:48:20Z</time>
      </trkpt>
      <trkpt lat="43.388980" lon="-5.179890">
        <ele>35.820</ele>
        <time>2020-05-21T09:48:40Z</time>
      </trkpt>
      <trkpt lat="43.388970" lon="-5.179890">
        <ele>35.890</ele>
        <time>2020-05-21T09:49:00Z</time>
      </trkpt>
      <trkpt lat="43.388970" lon="-5.179900">
        <ele>35.770</ele>
        <time>2020-05-21T09:49:20Z</time>
      </trkpt>
      <trkpt lat="43.388960" lon="-5.179910">
        <ele>35.689</ele>
        <time>2020-05-21T09:49:40Z</time>
      </trkpt>
      <trkpt lat="43.388950" lon="-5.179920">
        <ele>35.683</ele>
        <time>2020-05-21T09:50:00Z</time>
      </trkpt>
      <trkpt lat="43.388950" lon="-5.179930">
        <ele>35.525</ele>
        <time>2020-05-21T09:50:20Z</time>
      </trkpt>
      <trkpt lat="43.388940" lon="-5.179930">
        <ele>35.517</ele>
        <time>2020-05-21T09:50:40Z</time>
      </trkpt>
      <trkpt lat="43.388930" lon="-5.179940">
        <ele>35.408</ele>
        <time>2020-05-21T09:51:00Z</time>
      </trkpt>
      <trkpt lat="43.388920" lon="-5.179940">
        <ele>35.462</ele>
        <time>2020-05-21T09:51:20Z</time>
      </trkpt>
      <trkpt lat="43.388910" lon="-5.179950">
        <ele>35.487</ele>
        <time>2020-05-21T09:51:40Z</time>
      </trkpt>
      <trkpt lat="43.388900" lon="-5.179950">
        <ele>35.493</ele>
        <time>2020-05-21T09:52:00Z</time>
      </trkpt>
      <trkpt lat="43.388890" lon="-5.179960">
        <ele>35.356</ele>
        <time>2020-05-21T09:52:20Z</time>
      </trkpt>
      <trkpt lat="43.388880" lon="-5.179960">
        <ele>35.276</ele>
        <time>2020-05-21T09:52:40Z</time>
      </trkpt>
      <trkpt lat="43.388870" lon="-5.179960">
        <ele>35.096</ele>
        <time>2020-05-21T09:53:00Z</time>
      </trkpt>
      <trkpt lat="43.388820" lon="-5.180040">
        <ele>33.816</ele>
        <time>2020-05-21T09:53:20Z</time>
      </trkpt>
      <trkpt lat="43.388770" lon="-5.180110">
        <ele>32.945</ele>
        <time>2020-05-21T09:53:40Z</time>
      </trkpt>
      <trkpt lat="43.388700" lon="-5.180230">
        <ele>32.647</ele>
        <time>2020-05-21T09:54:00Z</time>
      </trkpt>
      <trkpt lat="43.388640" lon="-5.180360">
        <ele>32.929</ele>
        <time>2020-05-21T09:54:20Z</time>
      </trkpt>
      <trkpt lat="43.388610" lon="-5.180410">
        <ele>33.021</ele>
        <time>2020-05-21T09:54:40Z</time>
      </trkpt>
      <trkpt lat="43.388580" lon="-5.180440">
        <ele>32.708</ele>
        <time>2020-05-21T09:55:00Z</time>
      </trkpt>
      <trkpt lat="43.388440" lon="-5.180780">
        <ele>32.068</ele>
        <time>2020-05-21T09:55:20Z</time>
      </trkpt>
      <trkpt lat="43.388410" lon="-5.180880">
        <ele>32.813</ele>
        <time>2020-05-21T09:55:40Z</time>
      </trkpt>
      <trkpt lat="43.388370" lon="-5.180980">
        <ele>34.649</ele>
        <time>2020-05-21T09:56:00Z</time>
      </trkpt>
      <trkpt lat="43.388350" lon="-5.181070">
        <ele>36.352</ele>
        <time>2020-05-21T09:56:20Z</time>
      </trkpt>
      <trkpt lat="43.388340" lon="-5.181110">
        <ele>37.082</ele>
        <time>2020-05-21T09:56:40Z</time>
      </trkpt>
      <trkpt lat="43.388330" lon="-5.181140">
        <ele>36.592</ele>
        <time>2020-05-21T09:57:00Z</time>
      </trkpt>
      <trkpt lat="43.388310" lon="-5.181240">
        <ele>34.762</ele>
        <time>2020-05-21T09:57:20Z</time>
      </trkpt>
      <trkpt lat="43.388300" lon="-5.181370">
        <ele>32.291</ele>
        <time>2020-05-21T09:57:40Z</time>
      </trkpt>
      <trkpt lat="43.388290" lon="-5.181520">
        <ele>31.779</ele>
        <time>2020-05-21T09:58:00Z</time>
      </trkpt>
      <trkpt lat="43.388300" lon="-5.181640">
        <ele>31.705</ele>
        <time>2020-05-21T09:58:20Z</time>
      </trkpt>
      <trkpt lat="43.388310" lon="-5.181730">
        <ele>31.725</ele>
        <time>2020-05-21T09:58:40Z</time>
      </trkpt>
      <trkpt lat="43.388320" lon="-5.181800">
        <ele>31.908</ele>
        <time>2020-05-21T09:59:00Z</time>
      </trkpt>
      <trkpt lat="43.388330" lon="-5.181860">
        <ele>32.071</ele>
        <time>2020-05-21T09:59:20Z</time>
      </trkpt>
      <trkpt lat="43.388370" lon="-5.182020">
        <ele>31.936</ele>
        <time>2020-05-21T09:59:40Z</time>
      </trkpt>
      <trkpt lat="43.388390" lon="-5.182090">
        <ele>31.962</ele>
        <time>2020-05-21T10:00:00Z</time>
      </trkpt>
      <trkpt lat="43.388430" lon="-5.182190">
        <ele>32.045</ele>
        <time>2020-05-21T10:00:20Z</time>
      </trkpt>
      <trkpt lat="43.388480" lon="-5.182300">
        <ele>32.395</ele>
        <time>2020-05-21T10:00:40Z</time>
      </trkpt>
      <trkpt lat="43.388570" lon="-5.182440">
        <ele>32.815</ele>
        <time>2020-05-21T10:01:00Z</time>
      </trkpt>
      <trkpt lat="43.388620" lon="-5.182500">
        <ele>33.015</ele>
        <time>2020-05-21T10:01:20Z</time>
      </trkpt>
      <trkpt lat="43.388660" lon="-5.182560">
        <ele>33.064</ele>
        <time>2020-05-21T10:01:40Z</time>
      </trkpt>
      <trkpt lat="43.388740" lon="-5.182640">
        <ele>33.013</ele>
        <time>2020-05-21T10:02:00Z</time>
      </trkpt>
      <trkpt lat="43.389000" lon="-5.182900">
        <ele>30.943</ele>
        <time>2020-05-21T10:02:20Z</time>
      </trkpt>
      <trkpt lat="43.389690" lon="-5.183550">
        <ele>28.307</ele>
        <time>2020-05-21T10:02:40Z</time>
      </trkpt>
      <trkpt lat="43.389870" lon="-5.183750">
        <ele>31.808</ele>
        <time>2020-05-21T10:03:00Z</time>
      </trkpt>
      <trkpt lat="43.389930" lon="-5.183820">
        <ele>32.495</ele>
        <time>2020-05-21T10:03:20Z</time>
      </trkpt>
      <trkpt lat="43.390010" lon="-5.183940">
        <ele>32.820</ele>
        <time>2020-05-21T10:03:40Z</time>
      </trkpt>
      <trkpt lat="43.390080" lon="-5.184060">
        <ele>32.336</ele>
        <time>2020-05-21T10:04:00Z</time>
      </trkpt>
      <trkpt lat="43.390100" lon="-5.184090">
        <ele>32.269</ele>
        <time>2020-05-21T10:04:20Z</time>
      </trkpt>
      <trkpt lat="43.390160" lon="-5.184220">
        <ele>32.059</ele>
        <time>2020-05-21T10:04:40Z</time>
      </trkpt>
      <trkpt lat="43.390230" lon="-5.184430">
        <ele>32.059</ele>
        <time>2020-05-21T10:05:00Z</time>
      </trkpt>
      <trkpt lat="43.390270" lon="-5.184620">
        <ele>32.019</ele>
        <time>2020-05-21T10:05:20Z</time>
      </trkpt>
      <trkpt lat="43.390270" lon="-5.184690">
        <ele>32.068</ele>
        <time>2020-05-21T10:05:40Z</time>
      </trkpt>
      <trkpt lat="43.390280" lon="-5.184820">
        <ele>32.079</ele>
        <time>2020-05-21T10:06:00Z</time>
      </trkpt>
      <trkpt lat="43.390280" lon="-5.185000">
        <ele>32.005</ele>
        <time>2020-05-21T10:06:20Z</time>
      </trkpt>
      <trkpt lat="43.390270" lon="-5.185160">
        <ele>32.025</ele>
        <time>2020-05-21T10:06:40Z</time>
      </trkpt>
      <trkpt lat="43.390230" lon="-5.185370">
        <ele>31.908</ele>
        <time>2020-05-21T10:07:00Z</time>
      </trkpt>
      <trkpt lat="43.390210" lon="-5.185470">
        <ele>31.821</ele>
        <time>2020-05-21T10:07:20Z</time>
      </trkpt>
      <trkpt lat="43.390170" lon="-5.185570">
        <ele>31.656</ele>
        <time>2020-05-21T10:07:40Z</time>
      </trkpt>
      <trkpt lat="43.390168" lon="-5.185566">
        <ele>31.662</ele>
        <time>2020-05-21T10:08:00Z</time>
      </trkpt>
      <trkpt lat="43.390070" lon="-5.185750">
        <ele>31.175</ele>
        <time>2020-05-21T10:08:20Z</time>
      </trkpt>
      <trkpt lat="43.390060" lon="-5.185770">
        <ele>31.095</ele>
        <time>2020-05-21T10:08:40Z</time>
      </trkpt>
      <trkpt lat="43.390030" lon="-5.185840">
        <ele>31.085</ele>
        <time>2020-05-21T10:09:00Z</time>
      </trkpt>
      <trkpt lat="43.389870" lon="-5.186120">
        <ele>31.095</ele>
        <time>2020-05-21T10:09:20Z</time>
      </trkpt>
      <trkpt lat="43.389760" lon="-5.186290">
        <ele>31.054</ele>
        <time>2020-05-21T10:09:40Z</time>
      </trkpt>
      <trkpt lat="43.389710" lon="-5.186360">
        <ele>31.062</ele>
        <time>2020-05-21T10:10:00Z</time>
      </trkpt>
      <trkpt lat="43.389600" lon="-5.186500">
        <ele>31.083</ele>
        <time>2020-05-21T10:10:20Z</time>
      </trkpt>
      <trkpt lat="43.389430" lon="-5.186710">
        <ele>31.211</ele>
        <time>2020-05-21T10:10:40Z</time>
      </trkpt>
      <trkpt lat="43.389350" lon="-5.186800">
        <ele>31.708</ele>
        <time>2020-05-21T10:11:00Z</time>
      </trkpt>
      <trkpt lat="43.389330" lon="-5.186830">
        <ele>31.820</ele>
        <time>2020-05-21T10:11:20Z</time>
      </trkpt>
      <trkpt lat="43.389150" lon="-5.187020">
        <ele>32.055</ele>
        <time>2020-05-21T10:11:40Z</time>
      </trkpt>
      <trkpt lat="43.389110" lon="-5.187050">
        <ele>31.991</ele>
        <time>2020-05-21T10:12:00Z</time>
      </trkpt>
      <trkpt lat="43.388950" lon="-5.187210">
        <ele>32.034</ele>
        <time>2020-05-21T10:12:20Z</time>
      </trkpt>
      <trkpt lat="43.388850" lon="-5.187280">
        <ele>32.314</ele>
        <time>2020-05-21T10:12:40Z</time>
      </trkpt>
      <trkpt lat="43.388770" lon="-5.187330">
        <ele>32.694</ele>
        <time>2020-05-21T10:13:00Z</time>
      </trkpt>
      <trkpt lat="43.388720" lon="-5.187370">
        <ele>32.854</ele>
        <time>2020-05-21T10:13:20Z</time>
      </trkpt>
      <trkpt lat="43.388620" lon="-5.187430">
        <ele>33.023</ele>
        <time>2020-05-21T10:13:40Z</time>
      </trkpt>
      <trkpt lat="43.388470" lon="-5.187510">
        <ele>33.531</ele>
        <time>2020-05-21T10:14:00Z</time>
      </trkpt>
      <trkpt lat="43.388350" lon="-5.187570">
        <ele>34.061</ele>
        <time>2020-05-21T10:14:20Z</time>
      </trkpt>
      <trkpt lat="43.388210" lon="-5.187650">
        <ele>34.207</ele>
        <time>2020-05-21T10:14:40Z</time>
      </trkpt>
      <trkpt lat="43.388110" lon="-5.187690">
        <ele>34.508</ele>
        <time>2020-05-21T10:15:00Z</time>
      </trkpt>
      <trkpt lat="43.387990" lon="-5.187730">
        <ele>34.737</ele>
        <time>2020-05-21T10:15:20Z</time>
      </trkpt>
      <trkpt lat="43.387850" lon="-5.187770">
        <ele>34.382</ele>
        <time>2020-05-21T10:15:40Z</time>
      </trkpt>
      <trkpt lat="43.387740" lon="-5.187800">
        <ele>34.228</ele>
        <time>2020-05-21T10:16:00Z</time>
      </trkpt>
      <trkpt lat="43.387640" lon="-5.187820">
        <ele>34.421</ele>
        <time>2020-05-21T10:16:20Z</time>
      </trkpt>
      <trkpt lat="43.387490" lon="-5.187850">
        <ele>34.871</ele>
        <time>2020-05-21T10:16:40Z</time>
      </trkpt>
      <trkpt lat="43.387460" lon="-5.187850">
        <ele>34.791</ele>
        <time>2020-05-21T10:17:00Z</time>
      </trkpt>
      <trkpt lat="43.387370" lon="-5.187860">
        <ele>34.721</ele>
        <time>2020-05-21T10:17:20Z</time>
      </trkpt>
      <trkpt lat="43.387310" lon="-5.187860">
        <ele>34.780</ele>
        <time>2020-05-21T10:17:40Z</time>
      </trkpt>
      <trkpt lat="43.387130" lon="-5.187870">
        <ele>34.772</ele>
        <time>2020-05-21T10:18:00Z</time>
      </trkpt>
      <trkpt lat="43.386880" lon="-5.187860">
        <ele>34.813</ele>
        <time>2020-05-21T10:18:20Z</time>
      </trkpt>
      <trkpt lat="43.386720" lon="-5.187840">
        <ele>35.114</ele>
        <time>2020-05-21T10:18:40Z</time>
      </trkpt>
      <trkpt lat="43.386550" lon="-5.187810">
        <ele>35.208</ele>
        <time>2020-05-21T10:19:00Z</time>
      </trkpt>
      <trkpt lat="43.386390" lon="-5.187760">
        <ele>35.071</ele>
        <time>2020-05-21T10:19:20Z</time>
      </trkpt>
      <trkpt lat="43.386300" lon="-5.187730">
        <ele>35.316</ele>
        <time>2020-05-21T10:19:40Z</time>
      </trkpt>
      <trkpt lat="43.386296" lon="-5.187730">
        <ele>35.362</ele>
        <time>2020-05-21T10:20:00Z</time>
      </trkpt>
    </trkseg>
  </trk>
</gpx>
